<?xml version="1.0" encoding="UTF-8"?>
<gpx version="1.1" creator="https://www.youtrack.es" xsi:schemaLocation="http://www.topografix.com/GPX/1/1 http://www.topografix.com/GPX/1/1/gpx.xsd http://www.garmin.com/xmlschemas/GpxExtensions/v3 http://www.garmin.com/xmlschemas/GpxExtensionsv3.xsd http://www.garmin.com/xmlschemas/TrackPointExtension/v1 http://www.garmin.com/xmlschemas/TrackPointExtensionv1.xsd" xmlns:gpxtpx="http://www.garmin.com/xmlschemas/TrackPointExtension/v1" xmlns:gpxx="http://www.garmin.com/xmlschemas/GpxExtensions/v3" xmlns:xsi="http://www.w3.org/2001/XMLSchema-instance">
  <metadata>
    <author>
      <name>Jonatan Rodriguez</name>
      <email id="cyprus56" domain="gmail.com"/>
    </author>
    <link href="https://www.youtrack.es">
      <text>YouTrack.es</text>
    </link>
    <time>2026-05-08T19:07:55Z</time>
  </metadata>
  <trk>
    <src>https://www.youtrack.es</src>
    <link href="https://www.youtrack.es/ruta/20606-c-l-2021-moto-tour">
      <text>YouTrack.es</text>
    </link>
    <trkseg>
      <trkpt lat="40.617266" lon="-4.176859">
        <ele>1629.38</ele>
        <time>2021-03-27T12:35:49Z</time>
      </trkpt>
      <trkpt lat="40.617792" lon="-4.177077">
        <ele>1631.17</ele>
        <time>2021-03-27T12:35:52Z</time>
      </trkpt>
      <trkpt lat="40.617931" lon="-4.177112">
        <ele>1632.12</ele>
        <time>2021-03-27T12:35:56Z</time>
      </trkpt>
      <trkpt lat="40.618075" lon="-4.17712">
        <ele>1633.13</ele>
        <time>2021-03-27T12:35:59Z</time>
      </trkpt>
      <trkpt lat="40.618459" lon="-4.176992">
        <ele>1635.32</ele>
        <time>2021-03-27T12:36:03Z</time>
      </trkpt>
      <trkpt lat="40.618598" lon="-4.176982">
        <ele>1635.46</ele>
        <time>2021-03-27T12:36:06Z</time>
      </trkpt>
      <trkpt lat="40.618737" lon="-4.177016">
        <ele>1636.67</ele>
        <time>2021-03-27T12:36:09Z</time>
      </trkpt>
      <trkpt lat="40.618864" lon="-4.177097">
        <ele>1636.95</ele>
        <time>2021-03-27T12:36:13Z</time>
      </trkpt>
      <trkpt lat="40.619016" lon="-4.177234">
        <ele>1637.65</ele>
        <time>2021-03-27T12:36:16Z</time>
      </trkpt>
      <trkpt lat="40.619216" lon="-4.177574">
        <ele>1640.1</ele>
        <time>2021-03-27T12:36:19Z</time>
      </trkpt>
      <trkpt lat="40.619511" lon="-4.177959">
        <ele>1640.35</ele>
        <time>2021-03-27T12:36:23Z</time>
      </trkpt>
      <trkpt lat="40.619879" lon="-4.178285">
        <ele>1640.96</ele>
        <time>2021-03-27T12:36:26Z</time>
      </trkpt>
      <trkpt lat="40.621201" lon="-4.179251">
        <ele>1642.62</ele>
        <time>2021-03-27T12:36:29Z</time>
      </trkpt>
      <trkpt lat="40.621743" lon="-4.17955">
        <ele>1640.79</ele>
        <time>2021-03-27T12:36:33Z</time>
      </trkpt>
      <trkpt lat="40.622082" lon="-4.179705">
        <ele>1641.18</ele>
        <time>2021-03-27T12:36:36Z</time>
      </trkpt>
      <trkpt lat="40.622198" lon="-4.179729">
        <ele>1640.95</ele>
        <time>2021-03-27T12:36:40Z</time>
      </trkpt>
      <trkpt lat="40.622317" lon="-4.179717">
        <ele>1640.04</ele>
        <time>2021-03-27T12:36:43Z</time>
      </trkpt>
      <trkpt lat="40.622395" lon="-4.179681">
        <ele>1639.63</ele>
        <time>2021-03-27T12:36:46Z</time>
      </trkpt>
      <trkpt lat="40.623511" lon="-4.178882">
        <ele>1632.19</ele>
        <time>2021-03-27T12:36:50Z</time>
      </trkpt>
      <trkpt lat="40.62364" lon="-4.178845">
        <ele>1631.99</ele>
        <time>2021-03-27T12:36:53Z</time>
      </trkpt>
      <trkpt lat="40.623762" lon="-4.178845">
        <ele>1632.22</ele>
        <time>2021-03-27T12:36:56Z</time>
      </trkpt>
      <trkpt lat="40.623876" lon="-4.178923">
        <ele>1631.58</ele>
        <time>2021-03-27T12:37:00Z</time>
      </trkpt>
      <trkpt lat="40.623939" lon="-4.179018">
        <ele>1631.31</ele>
        <time>2021-03-27T12:37:03Z</time>
      </trkpt>
      <trkpt lat="40.623954" lon="-4.179149">
        <ele>1630.34</ele>
        <time>2021-03-27T12:37:06Z</time>
      </trkpt>
      <trkpt lat="40.623946" lon="-4.179415">
        <ele>1627.33</ele>
        <time>2021-03-27T12:37:10Z</time>
      </trkpt>
      <trkpt lat="40.623961" lon="-4.179696">
        <ele>1624.35</ele>
        <time>2021-03-27T12:37:13Z</time>
      </trkpt>
      <trkpt lat="40.624212" lon="-4.181384">
        <ele>1615.34</ele>
        <time>2021-03-27T12:37:17Z</time>
      </trkpt>
      <trkpt lat="40.624351" lon="-4.182191">
        <ele>1609.65</ele>
        <time>2021-03-27T12:37:20Z</time>
      </trkpt>
      <trkpt lat="40.62439" lon="-4.182641">
        <ele>1605.4</ele>
        <time>2021-03-27T12:37:23Z</time>
      </trkpt>
      <trkpt lat="40.624594" lon="-4.183517">
        <ele>1598.1</ele>
        <time>2021-03-27T12:37:27Z</time>
      </trkpt>
      <trkpt lat="40.624683" lon="-4.183761">
        <ele>1596.84</ele>
        <time>2021-03-27T12:37:30Z</time>
      </trkpt>
      <trkpt lat="40.624797" lon="-4.183935">
        <ele>1596.1</ele>
        <time>2021-03-27T12:37:33Z</time>
      </trkpt>
      <trkpt lat="40.624923" lon="-4.184019">
        <ele>1595.96</ele>
        <time>2021-03-27T12:37:37Z</time>
      </trkpt>
      <trkpt lat="40.625143" lon="-4.184039">
        <ele>1595.59</ele>
        <time>2021-03-27T12:37:40Z</time>
      </trkpt>
      <trkpt lat="40.625293" lon="-4.183966">
        <ele>1595.08</ele>
        <time>2021-03-27T12:37:43Z</time>
      </trkpt>
      <trkpt lat="40.625824" lon="-4.183534">
        <ele>1589.16</ele>
        <time>2021-03-27T12:37:47Z</time>
      </trkpt>
      <trkpt lat="40.626148" lon="-4.183384">
        <ele>1586.03</ele>
        <time>2021-03-27T12:37:50Z</time>
      </trkpt>
      <trkpt lat="40.626526" lon="-4.183165">
        <ele>1585.01</ele>
        <time>2021-03-27T12:37:54Z</time>
      </trkpt>
      <trkpt lat="40.626924" lon="-4.182877">
        <ele>1581.19</ele>
        <time>2021-03-27T12:37:57Z</time>
      </trkpt>
      <trkpt lat="40.627094" lon="-4.182731">
        <ele>1579.44</ele>
        <time>2021-03-27T12:38:00Z</time>
      </trkpt>
      <trkpt lat="40.627268" lon="-4.182546">
        <ele>1576.32</ele>
        <time>2021-03-27T12:38:04Z</time>
      </trkpt>
      <trkpt lat="40.62884" lon="-4.180409">
        <ele>1561.25</ele>
        <time>2021-03-27T12:38:07Z</time>
      </trkpt>
      <trkpt lat="40.629109" lon="-4.180074">
        <ele>1561.5</ele>
        <time>2021-03-27T12:38:10Z</time>
      </trkpt>
      <trkpt lat="40.629367" lon="-4.179852">
        <ele>1562.88</ele>
        <time>2021-03-27T12:38:14Z</time>
      </trkpt>
      <trkpt lat="40.629795" lon="-4.179634">
        <ele>1559.36</ele>
        <time>2021-03-27T12:38:17Z</time>
      </trkpt>
      <trkpt lat="40.6305" lon="-4.179161">
        <ele>1559.7</ele>
        <time>2021-03-27T12:38:21Z</time>
      </trkpt>
      <trkpt lat="40.630599" lon="-4.179145">
        <ele>1558.87</ele>
        <time>2021-03-27T12:38:24Z</time>
      </trkpt>
      <trkpt lat="40.630674" lon="-4.179189">
        <ele>1557.44</ele>
        <time>2021-03-27T12:38:27Z</time>
      </trkpt>
      <trkpt lat="40.630718" lon="-4.179278">
        <ele>1555.87</ele>
        <time>2021-03-27T12:38:31Z</time>
      </trkpt>
      <trkpt lat="40.630714" lon="-4.179615">
        <ele>1551.74</ele>
        <time>2021-03-27T12:38:34Z</time>
      </trkpt>
      <trkpt lat="40.630505" lon="-4.181891">
        <ele>1538.61</ele>
        <time>2021-03-27T12:38:37Z</time>
      </trkpt>
      <trkpt lat="40.629959" lon="-4.186794">
        <ele>1502.71</ele>
        <time>2021-03-27T12:38:41Z</time>
      </trkpt>
      <trkpt lat="40.629846" lon="-4.188106">
        <ele>1495.32</ele>
        <time>2021-03-27T12:38:44Z</time>
      </trkpt>
      <trkpt lat="40.629754" lon="-4.188495">
        <ele>1493.57</ele>
        <time>2021-03-27T12:38:47Z</time>
      </trkpt>
      <trkpt lat="40.62969" lon="-4.188688">
        <ele>1493.13</ele>
        <time>2021-03-27T12:38:51Z</time>
      </trkpt>
      <trkpt lat="40.629545" lon="-4.189028">
        <ele>1492.59</ele>
        <time>2021-03-27T12:38:54Z</time>
      </trkpt>
      <trkpt lat="40.629427" lon="-4.18942">
        <ele>1492.16</ele>
        <time>2021-03-27T12:38:58Z</time>
      </trkpt>
      <trkpt lat="40.629419" lon="-4.189676">
        <ele>1493.96</ele>
        <time>2021-03-27T12:39:01Z</time>
      </trkpt>
      <trkpt lat="40.629441" lon="-4.1902">
        <ele>1494.32</ele>
        <time>2021-03-27T12:39:04Z</time>
      </trkpt>
      <trkpt lat="40.629508" lon="-4.190949">
        <ele>1491.47</ele>
        <time>2021-03-27T12:39:08Z</time>
      </trkpt>
      <trkpt lat="40.629592" lon="-4.191171">
        <ele>1488.27</ele>
        <time>2021-03-27T12:39:11Z</time>
      </trkpt>
      <trkpt lat="40.629853" lon="-4.191608">
        <ele>1483.88</ele>
        <time>2021-03-27T12:39:14Z</time>
      </trkpt>
      <trkpt lat="40.630218" lon="-4.191926">
        <ele>1482.08</ele>
        <time>2021-03-27T12:39:18Z</time>
      </trkpt>
      <trkpt lat="40.630563" lon="-4.192544">
        <ele>1479.07</ele>
        <time>2021-03-27T12:39:21Z</time>
      </trkpt>
      <trkpt lat="40.630674" lon="-4.192604">
        <ele>1479.96</ele>
        <time>2021-03-27T12:39:24Z</time>
      </trkpt>
      <trkpt lat="40.631449" lon="-4.192887">
        <ele>1474.69</ele>
        <time>2021-03-27T12:39:28Z</time>
      </trkpt>
      <trkpt lat="40.632791" lon="-4.193668">
        <ele>1465.74</ele>
        <time>2021-03-27T12:39:31Z</time>
      </trkpt>
      <trkpt lat="40.63294" lon="-4.193797">
        <ele>1466.81</ele>
        <time>2021-03-27T12:39:35Z</time>
      </trkpt>
      <trkpt lat="40.633657" lon="-4.194767">
        <ele>1466.62</ele>
        <time>2021-03-27T12:39:38Z</time>
      </trkpt>
      <trkpt lat="40.636387" lon="-4.19725">
        <ele>1468.09</ele>
        <time>2021-03-27T12:39:41Z</time>
      </trkpt>
      <trkpt lat="40.638203" lon="-4.199033">
        <ele>1459.94</ele>
        <time>2021-03-27T12:39:45Z</time>
      </trkpt>
      <trkpt lat="40.638737" lon="-4.199685">
        <ele>1454.3</ele>
        <time>2021-03-27T12:39:48Z</time>
      </trkpt>
      <trkpt lat="40.638972" lon="-4.20008">
        <ele>1450.4</ele>
        <time>2021-03-27T12:39:51Z</time>
      </trkpt>
      <trkpt lat="40.639213" lon="-4.200415">
        <ele>1447.34</ele>
        <time>2021-03-27T12:39:55Z</time>
      </trkpt>
      <trkpt lat="40.64045" lon="-4.201385">
        <ele>1437.01</ele>
        <time>2021-03-27T12:39:58Z</time>
      </trkpt>
      <trkpt lat="40.641284" lon="-4.201728">
        <ele>1431.29</ele>
        <time>2021-03-27T12:40:01Z</time>
      </trkpt>
      <trkpt lat="40.641571" lon="-4.201711">
        <ele>1430.24</ele>
        <time>2021-03-27T12:40:05Z</time>
      </trkpt>
      <trkpt lat="40.642066" lon="-4.20117">
        <ele>1429.23</ele>
        <time>2021-03-27T12:40:08Z</time>
      </trkpt>
      <trkpt lat="40.642235" lon="-4.201067">
        <ele>1429.12</ele>
        <time>2021-03-27T12:40:12Z</time>
      </trkpt>
      <trkpt lat="40.642867" lon="-4.20105">
        <ele>1426.51</ele>
        <time>2021-03-27T12:40:15Z</time>
      </trkpt>
      <trkpt lat="40.643518" lon="-4.200835">
        <ele>1422.34</ele>
        <time>2021-03-27T12:40:18Z</time>
      </trkpt>
      <trkpt lat="40.644058" lon="-4.200526">
        <ele>1420.28</ele>
        <time>2021-03-27T12:40:22Z</time>
      </trkpt>
      <trkpt lat="40.644625" lon="-4.199917">
        <ele>1420.41</ele>
        <time>2021-03-27T12:40:25Z</time>
      </trkpt>
      <trkpt lat="40.645465" lon="-4.199453">
        <ele>1418.35</ele>
        <time>2021-03-27T12:40:28Z</time>
      </trkpt>
      <trkpt lat="40.645641" lon="-4.199505">
        <ele>1418.83</ele>
        <time>2021-03-27T12:40:32Z</time>
      </trkpt>
      <trkpt lat="40.645784" lon="-4.199608">
        <ele>1420.23</ele>
        <time>2021-03-27T12:40:35Z</time>
      </trkpt>
      <trkpt lat="40.646817" lon="-4.200579">
        <ele>1423.0</ele>
        <time>2021-03-27T12:40:39Z</time>
      </trkpt>
      <trkpt lat="40.64794" lon="-4.201745">
        <ele>1426.17</ele>
        <time>2021-03-27T12:40:42Z</time>
      </trkpt>
      <trkpt lat="40.648291" lon="-4.201943">
        <ele>1428.7</ele>
        <time>2021-03-27T12:40:45Z</time>
      </trkpt>
      <trkpt lat="40.648819" lon="-4.202011">
        <ele>1430.99</ele>
        <time>2021-03-27T12:40:49Z</time>
      </trkpt>
      <trkpt lat="40.649961" lon="-4.202774">
        <ele>1437.31</ele>
        <time>2021-03-27T12:40:52Z</time>
      </trkpt>
      <trkpt lat="40.650954" lon="-4.203073">
        <ele>1438.35</ele>
        <time>2021-03-27T12:40:55Z</time>
      </trkpt>
      <trkpt lat="40.651126" lon="-4.203437">
        <ele>1437.18</ele>
        <time>2021-03-27T12:41:00Z</time>
      </trkpt>
      <trkpt lat="40.651208" lon="-4.203711">
        <ele>1437.7</ele>
        <time>2021-03-27T12:41:05Z</time>
      </trkpt>
      <trkpt lat="40.651187" lon="-4.203971">
        <ele>1438.27</ele>
        <time>2021-03-27T12:41:10Z</time>
      </trkpt>
      <trkpt lat="40.650606" lon="-4.205693">
        <ele>1443.26</ele>
        <time>2021-03-27T12:41:15Z</time>
      </trkpt>
      <trkpt lat="40.650438" lon="-4.206121">
        <ele>1444.69</ele>
        <time>2021-03-27T12:41:19Z</time>
      </trkpt>
      <trkpt lat="40.650372" lon="-4.206229">
        <ele>1445.61</ele>
        <time>2021-03-27T12:41:24Z</time>
      </trkpt>
      <trkpt lat="40.650117" lon="-4.206552">
        <ele>1448.54</ele>
        <time>2021-03-27T12:41:29Z</time>
      </trkpt>
      <trkpt lat="40.649417" lon="-4.206912">
        <ele>1449.85</ele>
        <time>2021-03-27T12:41:34Z</time>
      </trkpt>
      <trkpt lat="40.649052" lon="-4.207071">
        <ele>1453.05</ele>
        <time>2021-03-27T12:41:38Z</time>
      </trkpt>
      <trkpt lat="40.648852" lon="-4.207178">
        <ele>1453.86</ele>
        <time>2021-03-27T12:41:43Z</time>
      </trkpt>
      <trkpt lat="40.648514" lon="-4.207576">
        <ele>1452.0</ele>
        <time>2021-03-27T12:41:48Z</time>
      </trkpt>
      <trkpt lat="40.64761" lon="-4.209234">
        <ele>1452.74</ele>
        <time>2021-03-27T12:41:53Z</time>
      </trkpt>
      <trkpt lat="40.647061" lon="-4.21053">
        <ele>1454.38</ele>
        <time>2021-03-27T12:41:58Z</time>
      </trkpt>
      <trkpt lat="40.646921" lon="-4.210802">
        <ele>1456.38</ele>
        <time>2021-03-27T12:42:02Z</time>
      </trkpt>
      <trkpt lat="40.646244" lon="-4.211655">
        <ele>1459.78</ele>
        <time>2021-03-27T12:42:07Z</time>
      </trkpt>
      <trkpt lat="40.645661" lon="-4.212439">
        <ele>1459.62</ele>
        <time>2021-03-27T12:42:12Z</time>
      </trkpt>
      <trkpt lat="40.645433" lon="-4.212927">
        <ele>1460.28</ele>
        <time>2021-03-27T12:42:17Z</time>
      </trkpt>
      <trkpt lat="40.645083" lon="-4.214159">
        <ele>1464.24</ele>
        <time>2021-03-27T12:42:21Z</time>
      </trkpt>
      <trkpt lat="40.645049" lon="-4.214471">
        <ele>1463.89</ele>
        <time>2021-03-27T12:42:26Z</time>
      </trkpt>
      <trkpt lat="40.64508" lon="-4.214698">
        <ele>1462.82</ele>
        <time>2021-03-27T12:42:31Z</time>
      </trkpt>
      <trkpt lat="40.645163" lon="-4.214815">
        <ele>1461.41</ele>
        <time>2021-03-27T12:42:36Z</time>
      </trkpt>
      <trkpt lat="40.646069" lon="-4.215425">
        <ele>1454.94</ele>
        <time>2021-03-27T12:42:41Z</time>
      </trkpt>
      <trkpt lat="40.646228" lon="-4.215603">
        <ele>1454.67</ele>
        <time>2021-03-27T12:42:45Z</time>
      </trkpt>
      <trkpt lat="40.646352" lon="-4.215838">
        <ele>1454.73</ele>
        <time>2021-03-27T12:42:50Z</time>
      </trkpt>
      <trkpt lat="40.646341" lon="-4.2161">
        <ele>1454.66</ele>
        <time>2021-03-27T12:42:55Z</time>
      </trkpt>
      <trkpt lat="40.646289" lon="-4.216218">
        <ele>1454.42</ele>
        <time>2021-03-27T12:43:00Z</time>
      </trkpt>
      <trkpt lat="40.646034" lon="-4.216379">
        <ele>1453.69</ele>
        <time>2021-03-27T12:43:05Z</time>
      </trkpt>
      <trkpt lat="40.644546" lon="-4.218299">
        <ele>1450.43</ele>
        <time>2021-03-27T12:43:09Z</time>
      </trkpt>
      <trkpt lat="40.644284" lon="-4.218435">
        <ele>1452.15</ele>
        <time>2021-03-27T12:43:14Z</time>
      </trkpt>
      <trkpt lat="40.643753" lon="-4.21846">
        <ele>1451.58</ele>
        <time>2021-03-27T12:43:19Z</time>
      </trkpt>
      <trkpt lat="40.64331" lon="-4.218519">
        <ele>1450.42</ele>
        <time>2021-03-27T12:43:24Z</time>
      </trkpt>
      <trkpt lat="40.642244" lon="-4.217918">
        <ele>1439.11</ele>
        <time>2021-03-27T12:43:28Z</time>
      </trkpt>
      <trkpt lat="40.642125" lon="-4.217903">
        <ele>1438.56</ele>
        <time>2021-03-27T12:43:33Z</time>
      </trkpt>
      <trkpt lat="40.640284" lon="-4.218729">
        <ele>1428.39</ele>
        <time>2021-03-27T12:43:38Z</time>
      </trkpt>
      <trkpt lat="40.640175" lon="-4.218875">
        <ele>1428.04</ele>
        <time>2021-03-27T12:43:43Z</time>
      </trkpt>
      <trkpt lat="40.639155" lon="-4.221224">
        <ele>1418.79</ele>
        <time>2021-03-27T12:43:48Z</time>
      </trkpt>
      <trkpt lat="40.639071" lon="-4.221315">
        <ele>1418.86</ele>
        <time>2021-03-27T12:43:52Z</time>
      </trkpt>
      <trkpt lat="40.638781" lon="-4.22147">
        <ele>1416.86</ele>
        <time>2021-03-27T12:43:57Z</time>
      </trkpt>
      <trkpt lat="40.638657" lon="-4.221635">
        <ele>1416.76</ele>
        <time>2021-03-27T12:44:02Z</time>
      </trkpt>
      <trkpt lat="40.638516" lon="-4.221989">
        <ele>1416.54</ele>
        <time>2021-03-27T12:44:07Z</time>
      </trkpt>
      <trkpt lat="40.638379" lon="-4.222177">
        <ele>1416.9</ele>
        <time>2021-03-27T12:44:11Z</time>
      </trkpt>
      <trkpt lat="40.637053" lon="-4.222819">
        <ele>1405.51</ele>
        <time>2021-03-27T12:44:16Z</time>
      </trkpt>
      <trkpt lat="40.636572" lon="-4.223255">
        <ele>1401.55</ele>
        <time>2021-03-27T12:44:21Z</time>
      </trkpt>
      <trkpt lat="40.636509" lon="-4.223352">
        <ele>1400.73</ele>
        <time>2021-03-27T12:44:26Z</time>
      </trkpt>
      <trkpt lat="40.636397" lon="-4.223603">
        <ele>1399.11</ele>
        <time>2021-03-27T12:44:31Z</time>
      </trkpt>
      <trkpt lat="40.636292" lon="-4.223715">
        <ele>1398.02</ele>
        <time>2021-03-27T12:44:35Z</time>
      </trkpt>
      <trkpt lat="40.635462" lon="-4.224127">
        <ele>1391.93</ele>
        <time>2021-03-27T12:44:40Z</time>
      </trkpt>
      <trkpt lat="40.635326" lon="-4.22422">
        <ele>1389.51</ele>
        <time>2021-03-27T12:44:45Z</time>
      </trkpt>
      <trkpt lat="40.635232" lon="-4.224336">
        <ele>1388.69</ele>
        <time>2021-03-27T12:44:50Z</time>
      </trkpt>
      <trkpt lat="40.634919" lon="-4.224902">
        <ele>1388.3</ele>
        <time>2021-03-27T12:44:54Z</time>
      </trkpt>
      <trkpt lat="40.634787" lon="-4.225095">
        <ele>1387.32</ele>
        <time>2021-03-27T12:44:59Z</time>
      </trkpt>
      <trkpt lat="40.634545" lon="-4.225242">
        <ele>1383.56</ele>
        <time>2021-03-27T12:45:04Z</time>
      </trkpt>
      <trkpt lat="40.634197" lon="-4.225365">
        <ele>1380.51</ele>
        <time>2021-03-27T12:45:09Z</time>
      </trkpt>
      <trkpt lat="40.634046" lon="-4.225344">
        <ele>1380.39</ele>
        <time>2021-03-27T12:45:14Z</time>
      </trkpt>
      <trkpt lat="40.633508" lon="-4.224998">
        <ele>1376.34</ele>
        <time>2021-03-27T12:45:18Z</time>
      </trkpt>
      <trkpt lat="40.633301" lon="-4.224933">
        <ele>1375.55</ele>
        <time>2021-03-27T12:45:23Z</time>
      </trkpt>
      <trkpt lat="40.632205" lon="-4.22498">
        <ele>1367.73</ele>
        <time>2021-03-27T12:45:28Z</time>
      </trkpt>
      <trkpt lat="40.63199" lon="-4.225029">
        <ele>1366.55</ele>
        <time>2021-03-27T12:45:33Z</time>
      </trkpt>
      <trkpt lat="40.631812" lon="-4.225121">
        <ele>1364.76</ele>
        <time>2021-03-27T12:45:38Z</time>
      </trkpt>
      <trkpt lat="40.631191" lon="-4.225573">
        <ele>1357.81</ele>
        <time>2021-03-27T12:45:42Z</time>
      </trkpt>
      <trkpt lat="40.630139" lon="-4.226437">
        <ele>1353.85</ele>
        <time>2021-03-27T12:45:47Z</time>
      </trkpt>
      <trkpt lat="40.629901" lon="-4.226675">
        <ele>1352.64</ele>
        <time>2021-03-27T12:45:52Z</time>
      </trkpt>
      <trkpt lat="40.628709" lon="-4.22841">
        <ele>1348.18</ele>
        <time>2021-03-27T12:45:57Z</time>
      </trkpt>
      <trkpt lat="40.628447" lon="-4.228855">
        <ele>1350.68</ele>
        <time>2021-03-27T12:46:01Z</time>
      </trkpt>
      <trkpt lat="40.62809" lon="-4.229375">
        <ele>1350.91</ele>
        <time>2021-03-27T12:46:06Z</time>
      </trkpt>
      <trkpt lat="40.627241" lon="-4.229866">
        <ele>1350.04</ele>
        <time>2021-03-27T12:46:11Z</time>
      </trkpt>
      <trkpt lat="40.626911" lon="-4.230422">
        <ele>1350.77</ele>
        <time>2021-03-27T12:46:16Z</time>
      </trkpt>
      <trkpt lat="40.626532" lon="-4.231072">
        <ele>1350.96</ele>
        <time>2021-03-27T12:46:21Z</time>
      </trkpt>
      <trkpt lat="40.626458" lon="-4.231403">
        <ele>1352.8</ele>
        <time>2021-03-27T12:46:25Z</time>
      </trkpt>
      <trkpt lat="40.626369" lon="-4.231803">
        <ele>1352.26</ele>
        <time>2021-03-27T12:46:30Z</time>
      </trkpt>
      <trkpt lat="40.626359" lon="-4.232258">
        <ele>1351.45</ele>
        <time>2021-03-27T12:46:35Z</time>
      </trkpt>
      <trkpt lat="40.626324" lon="-4.232707">
        <ele>1350.87</ele>
        <time>2021-03-27T12:46:40Z</time>
      </trkpt>
      <trkpt lat="40.626357" lon="-4.232901">
        <ele>1351.93</ele>
        <time>2021-03-27T12:46:45Z</time>
      </trkpt>
      <trkpt lat="40.62639" lon="-4.232914">
        <ele>1352.51</ele>
        <time>2021-03-27T12:46:46Z</time>
      </trkpt>
      <trkpt lat="40.62641" lon="-4.232962">
        <ele>1352.92</ele>
        <time>2021-03-27T12:46:48Z</time>
      </trkpt>
      <trkpt lat="40.626389" lon="-4.233019">
        <ele>1352.87</ele>
        <time>2021-03-27T12:46:49Z</time>
      </trkpt>
      <trkpt lat="40.626346" lon="-4.233027">
        <ele>1352.14</ele>
        <time>2021-03-27T12:46:51Z</time>
      </trkpt>
      <trkpt lat="40.62633" lon="-4.233124">
        <ele>1352.04</ele>
        <time>2021-03-27T12:46:53Z</time>
      </trkpt>
      <trkpt lat="40.626369" lon="-4.233396">
        <ele>1352.59</ele>
        <time>2021-03-27T12:46:54Z</time>
      </trkpt>
      <trkpt lat="40.626447" lon="-4.233652">
        <ele>1352.27</ele>
        <time>2021-03-27T12:46:56Z</time>
      </trkpt>
      <trkpt lat="40.626485" lon="-4.233843">
        <ele>1351.85</ele>
        <time>2021-03-27T12:46:57Z</time>
      </trkpt>
      <trkpt lat="40.62651" lon="-4.234559">
        <ele>1351.31</ele>
        <time>2021-03-27T12:46:59Z</time>
      </trkpt>
      <trkpt lat="40.626894" lon="-4.235793">
        <ele>1350.78</ele>
        <time>2021-03-27T12:47:01Z</time>
      </trkpt>
      <trkpt lat="40.626909" lon="-4.235919">
        <ele>1350.78</ele>
        <time>2021-03-27T12:47:02Z</time>
      </trkpt>
      <trkpt lat="40.626902" lon="-4.236031">
        <ele>1350.8</ele>
        <time>2021-03-27T12:47:04Z</time>
      </trkpt>
      <trkpt lat="40.626875" lon="-4.236147">
        <ele>1351.14</ele>
        <time>2021-03-27T12:47:05Z</time>
      </trkpt>
      <trkpt lat="40.626732" lon="-4.236499">
        <ele>1354.73</ele>
        <time>2021-03-27T12:47:07Z</time>
      </trkpt>
      <trkpt lat="40.626313" lon="-4.237695">
        <ele>1363.66</ele>
        <time>2021-03-27T12:47:09Z</time>
      </trkpt>
      <trkpt lat="40.62628" lon="-4.237839">
        <ele>1364.7</ele>
        <time>2021-03-27T12:47:10Z</time>
      </trkpt>
      <trkpt lat="40.626253" lon="-4.238188">
        <ele>1367.04</ele>
        <time>2021-03-27T12:47:12Z</time>
      </trkpt>
      <trkpt lat="40.626173" lon="-4.238511">
        <ele>1366.76</ele>
        <time>2021-03-27T12:47:13Z</time>
      </trkpt>
      <trkpt lat="40.626112" lon="-4.238634">
        <ele>1366.19</ele>
        <time>2021-03-27T12:47:15Z</time>
      </trkpt>
      <trkpt lat="40.626023" lon="-4.238751">
        <ele>1366.69</ele>
        <time>2021-03-27T12:47:17Z</time>
      </trkpt>
      <trkpt lat="40.625933" lon="-4.238835">
        <ele>1366.97</ele>
        <time>2021-03-27T12:47:18Z</time>
      </trkpt>
      <trkpt lat="40.625826" lon="-4.238901">
        <ele>1367.26</ele>
        <time>2021-03-27T12:47:20Z</time>
      </trkpt>
      <trkpt lat="40.625719" lon="-4.238928">
        <ele>1368.68</ele>
        <time>2021-03-27T12:47:21Z</time>
      </trkpt>
      <trkpt lat="40.625429" lon="-4.238922">
        <ele>1370.29</ele>
        <time>2021-03-27T12:47:23Z</time>
      </trkpt>
      <trkpt lat="40.625326" lon="-4.238962">
        <ele>1370.75</ele>
        <time>2021-03-27T12:47:25Z</time>
      </trkpt>
      <trkpt lat="40.625209" lon="-4.239071">
        <ele>1371.31</ele>
        <time>2021-03-27T12:47:26Z</time>
      </trkpt>
      <trkpt lat="40.625088" lon="-4.239221">
        <ele>1371.21</ele>
        <time>2021-03-27T12:47:28Z</time>
      </trkpt>
      <trkpt lat="40.624996" lon="-4.23936">
        <ele>1370.66</ele>
        <time>2021-03-27T12:47:30Z</time>
      </trkpt>
      <trkpt lat="40.624852" lon="-4.239631">
        <ele>1371.54</ele>
        <time>2021-03-27T12:47:31Z</time>
      </trkpt>
      <trkpt lat="40.624635" lon="-4.240111">
        <ele>1371.14</ele>
        <time>2021-03-27T12:47:33Z</time>
      </trkpt>
      <trkpt lat="40.6245" lon="-4.240617">
        <ele>1372.05</ele>
        <time>2021-03-27T12:47:34Z</time>
      </trkpt>
      <trkpt lat="40.624472" lon="-4.241123">
        <ele>1375.44</ele>
        <time>2021-03-27T12:47:36Z</time>
      </trkpt>
      <trkpt lat="40.624513" lon="-4.24177">
        <ele>1376.06</ele>
        <time>2021-03-27T12:47:38Z</time>
      </trkpt>
      <trkpt lat="40.624522" lon="-4.242294">
        <ele>1379.98</ele>
        <time>2021-03-27T12:47:39Z</time>
      </trkpt>
      <trkpt lat="40.624471" lon="-4.242484">
        <ele>1381.83</ele>
        <time>2021-03-27T12:47:41Z</time>
      </trkpt>
      <trkpt lat="40.623607" lon="-4.244015">
        <ele>1387.92</ele>
        <time>2021-03-27T12:47:42Z</time>
      </trkpt>
      <trkpt lat="40.623338" lon="-4.244386">
        <ele>1390.79</ele>
        <time>2021-03-27T12:47:44Z</time>
      </trkpt>
      <trkpt lat="40.62325" lon="-4.244556">
        <ele>1390.94</ele>
        <time>2021-03-27T12:47:46Z</time>
      </trkpt>
      <trkpt lat="40.62314" lon="-4.244889">
        <ele>1392.3</ele>
        <time>2021-03-27T12:47:47Z</time>
      </trkpt>
      <trkpt lat="40.622866" lon="-4.245864">
        <ele>1401.86</ele>
        <time>2021-03-27T12:47:49Z</time>
      </trkpt>
      <trkpt lat="40.622837" lon="-4.246045">
        <ele>1402.87</ele>
        <time>2021-03-27T12:47:50Z</time>
      </trkpt>
      <trkpt lat="40.622808" lon="-4.246456">
        <ele>1406.68</ele>
        <time>2021-03-27T12:47:52Z</time>
      </trkpt>
      <trkpt lat="40.622775" lon="-4.246588">
        <ele>1407.43</ele>
        <time>2021-03-27T12:47:54Z</time>
      </trkpt>
      <trkpt lat="40.622475" lon="-4.247282">
        <ele>1414.43</ele>
        <time>2021-03-27T12:47:55Z</time>
      </trkpt>
      <trkpt lat="40.622378" lon="-4.24745">
        <ele>1415.64</ele>
        <time>2021-03-27T12:47:57Z</time>
      </trkpt>
      <trkpt lat="40.622299" lon="-4.247538">
        <ele>1416.21</ele>
        <time>2021-03-27T12:47:58Z</time>
      </trkpt>
      <trkpt lat="40.622224" lon="-4.247591">
        <ele>1416.33</ele>
        <time>2021-03-27T12:48:00Z</time>
      </trkpt>
      <trkpt lat="40.622129" lon="-4.247614">
        <ele>1416.89</ele>
        <time>2021-03-27T12:48:02Z</time>
      </trkpt>
      <trkpt lat="40.621875" lon="-4.247612">
        <ele>1418.55</ele>
        <time>2021-03-27T12:48:03Z</time>
      </trkpt>
      <trkpt lat="40.621789" lon="-4.24763">
        <ele>1419.61</ele>
        <time>2021-03-27T12:48:05Z</time>
      </trkpt>
      <trkpt lat="40.621703" lon="-4.247673">
        <ele>1420.85</ele>
        <time>2021-03-27T12:48:06Z</time>
      </trkpt>
      <trkpt lat="40.621643" lon="-4.247726">
        <ele>1421.88</ele>
        <time>2021-03-27T12:48:08Z</time>
      </trkpt>
      <trkpt lat="40.62159" lon="-4.247813">
        <ele>1423.08</ele>
        <time>2021-03-27T12:48:10Z</time>
      </trkpt>
      <trkpt lat="40.621543" lon="-4.24801">
        <ele>1425.01</ele>
        <time>2021-03-27T12:48:11Z</time>
      </trkpt>
      <trkpt lat="40.621567" lon="-4.248469">
        <ele>1427.01</ele>
        <time>2021-03-27T12:48:13Z</time>
      </trkpt>
      <trkpt lat="40.621558" lon="-4.248639">
        <ele>1428.69</ele>
        <time>2021-03-27T12:48:14Z</time>
      </trkpt>
      <trkpt lat="40.621525" lon="-4.248797">
        <ele>1430.52</ele>
        <time>2021-03-27T12:48:16Z</time>
      </trkpt>
      <trkpt lat="40.621469" lon="-4.24896">
        <ele>1432.37</ele>
        <time>2021-03-27T12:48:18Z</time>
      </trkpt>
      <trkpt lat="40.621388" lon="-4.249129">
        <ele>1433.72</ele>
        <time>2021-03-27T12:48:19Z</time>
      </trkpt>
      <trkpt lat="40.621205" lon="-4.24941">
        <ele>1432.31</ele>
        <time>2021-03-27T12:48:21Z</time>
      </trkpt>
      <trkpt lat="40.620416" lon="-4.248816">
        <ele>1434.53</ele>
        <time>2021-03-27T12:48:23Z</time>
      </trkpt>
      <trkpt lat="40.620316" lon="-4.24868">
        <ele>1435.51</ele>
        <time>2021-03-27T12:48:26Z</time>
      </trkpt>
      <trkpt lat="40.620236" lon="-4.248516">
        <ele>1436.39</ele>
        <time>2021-03-27T12:48:28Z</time>
      </trkpt>
      <trkpt lat="40.620089" lon="-4.248066">
        <ele>1439.3</ele>
        <time>2021-03-27T12:48:30Z</time>
      </trkpt>
      <trkpt lat="40.619985" lon="-4.247886">
        <ele>1440.61</ele>
        <time>2021-03-27T12:48:33Z</time>
      </trkpt>
      <trkpt lat="40.61936" lon="-4.24719">
        <ele>1443.11</ele>
        <time>2021-03-27T12:48:35Z</time>
      </trkpt>
      <trkpt lat="40.619199" lon="-4.247083">
        <ele>1443.5</ele>
        <time>2021-03-27T12:48:38Z</time>
      </trkpt>
      <trkpt lat="40.619026" lon="-4.247023">
        <ele>1443.58</ele>
        <time>2021-03-27T12:48:40Z</time>
      </trkpt>
      <trkpt lat="40.618787" lon="-4.24698">
        <ele>1444.11</ele>
        <time>2021-03-27T12:48:42Z</time>
      </trkpt>
      <trkpt lat="40.618454" lon="-4.247009">
        <ele>1445.8</ele>
        <time>2021-03-27T12:48:45Z</time>
      </trkpt>
      <trkpt lat="40.617534" lon="-4.247181">
        <ele>1452.67</ele>
        <time>2021-03-27T12:48:47Z</time>
      </trkpt>
      <trkpt lat="40.616922" lon="-4.247139">
        <ele>1453.63</ele>
        <time>2021-03-27T12:48:49Z</time>
      </trkpt>
      <trkpt lat="40.616526" lon="-4.247175">
        <ele>1454.08</ele>
        <time>2021-03-27T12:48:52Z</time>
      </trkpt>
      <trkpt lat="40.615624" lon="-4.247155">
        <ele>1451.54</ele>
        <time>2021-03-27T12:48:54Z</time>
      </trkpt>
      <trkpt lat="40.615353" lon="-4.247163">
        <ele>1453.1</ele>
        <time>2021-03-27T12:48:56Z</time>
      </trkpt>
      <trkpt lat="40.61484" lon="-4.247224">
        <ele>1453.98</ele>
        <time>2021-03-27T12:48:59Z</time>
      </trkpt>
      <trkpt lat="40.614716" lon="-4.247218">
        <ele>1454.03</ele>
        <time>2021-03-27T12:49:01Z</time>
      </trkpt>
      <trkpt lat="40.614607" lon="-4.247194">
        <ele>1453.91</ele>
        <time>2021-03-27T12:49:04Z</time>
      </trkpt>
      <trkpt lat="40.614504" lon="-4.247145">
        <ele>1453.89</ele>
        <time>2021-03-27T12:49:06Z</time>
      </trkpt>
      <trkpt lat="40.614403" lon="-4.247053">
        <ele>1453.58</ele>
        <time>2021-03-27T12:49:08Z</time>
      </trkpt>
      <trkpt lat="40.614292" lon="-4.246896">
        <ele>1452.59</ele>
        <time>2021-03-27T12:49:11Z</time>
      </trkpt>
      <trkpt lat="40.613935" lon="-4.246231">
        <ele>1452.27</ele>
        <time>2021-03-27T12:49:13Z</time>
      </trkpt>
      <trkpt lat="40.613843" lon="-4.246098">
        <ele>1452.01</ele>
        <time>2021-03-27T12:49:15Z</time>
      </trkpt>
      <trkpt lat="40.613755" lon="-4.246003">
        <ele>1450.97</ele>
        <time>2021-03-27T12:49:18Z</time>
      </trkpt>
      <trkpt lat="40.613636" lon="-4.245933">
        <ele>1449.13</ele>
        <time>2021-03-27T12:49:20Z</time>
      </trkpt>
      <trkpt lat="40.613529" lon="-4.245904">
        <ele>1448.46</ele>
        <time>2021-03-27T12:49:22Z</time>
      </trkpt>
      <trkpt lat="40.613412" lon="-4.245912">
        <ele>1447.64</ele>
        <time>2021-03-27T12:49:25Z</time>
      </trkpt>
      <trkpt lat="40.613298" lon="-4.245951">
        <ele>1447.38</ele>
        <time>2021-03-27T12:49:27Z</time>
      </trkpt>
      <trkpt lat="40.613193" lon="-4.246045">
        <ele>1447.97</ele>
        <time>2021-03-27T12:49:30Z</time>
      </trkpt>
      <trkpt lat="40.613093" lon="-4.246192">
        <ele>1447.25</ele>
        <time>2021-03-27T12:49:32Z</time>
      </trkpt>
      <trkpt lat="40.612878" lon="-4.246605">
        <ele>1446.2</ele>
        <time>2021-03-27T12:49:34Z</time>
      </trkpt>
      <trkpt lat="40.612686" lon="-4.246873">
        <ele>1447.17</ele>
        <time>2021-03-27T12:49:37Z</time>
      </trkpt>
      <trkpt lat="40.612473" lon="-4.247125">
        <ele>1446.55</ele>
        <time>2021-03-27T12:49:39Z</time>
      </trkpt>
      <trkpt lat="40.611845" lon="-4.247743">
        <ele>1448.81</ele>
        <time>2021-03-27T12:49:41Z</time>
      </trkpt>
      <trkpt lat="40.610249" lon="-4.249248">
        <ele>1447.43</ele>
        <time>2021-03-27T12:49:44Z</time>
      </trkpt>
      <trkpt lat="40.608652" lon="-4.250721">
        <ele>1450.46</ele>
        <time>2021-03-27T12:49:46Z</time>
      </trkpt>
      <trkpt lat="40.6085" lon="-4.250879">
        <ele>1448.6</ele>
        <time>2021-03-27T12:49:49Z</time>
      </trkpt>
      <trkpt lat="40.608627" lon="-4.250982">
        <ele>1448.93</ele>
        <time>2021-03-27T12:49:50Z</time>
      </trkpt>
      <trkpt lat="40.609543" lon="-4.251157">
        <ele>1440.12</ele>
        <time>2021-03-27T12:49:52Z</time>
      </trkpt>
      <trkpt lat="40.609647" lon="-4.251158">
        <ele>1438.31</ele>
        <time>2021-03-27T12:49:54Z</time>
      </trkpt>
      <trkpt lat="40.609737" lon="-4.251113">
        <ele>1436.84</ele>
        <time>2021-03-27T12:49:56Z</time>
      </trkpt>
      <trkpt lat="40.609828" lon="-4.251022">
        <ele>1436.3</ele>
        <time>2021-03-27T12:49:58Z</time>
      </trkpt>
      <trkpt lat="40.610699" lon="-4.24987">
        <ele>1427.04</ele>
        <time>2021-03-27T12:50:00Z</time>
      </trkpt>
      <trkpt lat="40.61082" lon="-4.249746">
        <ele>1427.72</ele>
        <time>2021-03-27T12:50:02Z</time>
      </trkpt>
      <trkpt lat="40.612292" lon="-4.248634">
        <ele>1418.96</ele>
        <time>2021-03-27T12:50:04Z</time>
      </trkpt>
      <trkpt lat="40.612732" lon="-4.248495">
        <ele>1417.08</ele>
        <time>2021-03-27T12:50:06Z</time>
      </trkpt>
      <trkpt lat="40.612962" lon="-4.24852">
        <ele>1415.98</ele>
        <time>2021-03-27T12:50:08Z</time>
      </trkpt>
      <trkpt lat="40.613023" lon="-4.248585">
        <ele>1415.2</ele>
        <time>2021-03-27T12:50:10Z</time>
      </trkpt>
      <trkpt lat="40.613055" lon="-4.248675">
        <ele>1414.54</ele>
        <time>2021-03-27T12:50:11Z</time>
      </trkpt>
      <trkpt lat="40.613076" lon="-4.248801">
        <ele>1414.2</ele>
        <time>2021-03-27T12:50:13Z</time>
      </trkpt>
      <trkpt lat="40.613065" lon="-4.248891">
        <ele>1413.26</ele>
        <time>2021-03-27T12:50:15Z</time>
      </trkpt>
      <trkpt lat="40.613039" lon="-4.248951">
        <ele>1412.08</ele>
        <time>2021-03-27T12:50:17Z</time>
      </trkpt>
      <trkpt lat="40.61299" lon="-4.248991">
        <ele>1410.87</ele>
        <time>2021-03-27T12:50:19Z</time>
      </trkpt>
      <trkpt lat="40.612705" lon="-4.249009">
        <ele>1407.45</ele>
        <time>2021-03-27T12:50:21Z</time>
      </trkpt>
      <trkpt lat="40.612596" lon="-4.249052">
        <ele>1406.8</ele>
        <time>2021-03-27T12:50:23Z</time>
      </trkpt>
      <trkpt lat="40.612238" lon="-4.249535">
        <ele>1398.61</ele>
        <time>2021-03-27T12:50:25Z</time>
      </trkpt>
      <trkpt lat="40.611871" lon="-4.250162">
        <ele>1397.61</ele>
        <time>2021-03-27T12:50:27Z</time>
      </trkpt>
      <trkpt lat="40.61175" lon="-4.250397">
        <ele>1395.65</ele>
        <time>2021-03-27T12:50:29Z</time>
      </trkpt>
      <trkpt lat="40.611683" lon="-4.250583">
        <ele>1393.37</ele>
        <time>2021-03-27T12:50:31Z</time>
      </trkpt>
      <trkpt lat="40.611555" lon="-4.251256">
        <ele>1388.44</ele>
        <time>2021-03-27T12:50:32Z</time>
      </trkpt>
      <trkpt lat="40.61145" lon="-4.251553">
        <ele>1387.59</ele>
        <time>2021-03-27T12:50:34Z</time>
      </trkpt>
      <trkpt lat="40.611428" lon="-4.251653">
        <ele>1387.26</ele>
        <time>2021-03-27T12:50:36Z</time>
      </trkpt>
      <trkpt lat="40.61144" lon="-4.25174">
        <ele>1386.8</ele>
        <time>2021-03-27T12:50:38Z</time>
      </trkpt>
      <trkpt lat="40.611484" lon="-4.251841">
        <ele>1385.51</ele>
        <time>2021-03-27T12:50:40Z</time>
      </trkpt>
      <trkpt lat="40.611571" lon="-4.251978">
        <ele>1382.88</ele>
        <time>2021-03-27T12:50:42Z</time>
      </trkpt>
      <trkpt lat="40.611634" lon="-4.252119">
        <ele>1381.57</ele>
        <time>2021-03-27T12:50:44Z</time>
      </trkpt>
      <trkpt lat="40.611916" lon="-4.254068">
        <ele>1368.93</ele>
        <time>2021-03-27T12:50:46Z</time>
      </trkpt>
      <trkpt lat="40.611931" lon="-4.254251">
        <ele>1367.11</ele>
        <time>2021-03-27T12:50:48Z</time>
      </trkpt>
      <trkpt lat="40.611901" lon="-4.254586">
        <ele>1366.47</ele>
        <time>2021-03-27T12:50:50Z</time>
      </trkpt>
      <trkpt lat="40.611671" lon="-4.255625">
        <ele>1363.11</ele>
        <time>2021-03-27T12:50:52Z</time>
      </trkpt>
      <trkpt lat="40.6116" lon="-4.256174">
        <ele>1359.08</ele>
        <time>2021-03-27T12:50:54Z</time>
      </trkpt>
      <trkpt lat="40.611563" lon="-4.256293">
        <ele>1358.68</ele>
        <time>2021-03-27T12:50:55Z</time>
      </trkpt>
      <trkpt lat="40.611357" lon="-4.256713">
        <ele>1359.21</ele>
        <time>2021-03-27T12:50:57Z</time>
      </trkpt>
      <trkpt lat="40.611308" lon="-4.256844">
        <ele>1359.01</ele>
        <time>2021-03-27T12:50:59Z</time>
      </trkpt>
      <trkpt lat="40.61128" lon="-4.256981">
        <ele>1358.43</ele>
        <time>2021-03-27T12:51:01Z</time>
      </trkpt>
      <trkpt lat="40.61127" lon="-4.257126">
        <ele>1357.41</ele>
        <time>2021-03-27T12:51:03Z</time>
      </trkpt>
      <trkpt lat="40.611283" lon="-4.257613">
        <ele>1352.07</ele>
        <time>2021-03-27T12:51:05Z</time>
      </trkpt>
      <trkpt lat="40.61127" lon="-4.257749">
        <ele>1351.23</ele>
        <time>2021-03-27T12:51:07Z</time>
      </trkpt>
      <trkpt lat="40.611239" lon="-4.257883">
        <ele>1351.03</ele>
        <time>2021-03-27T12:51:09Z</time>
      </trkpt>
      <trkpt lat="40.611114" lon="-4.258233">
        <ele>1352.92</ele>
        <time>2021-03-27T12:51:11Z</time>
      </trkpt>
      <trkpt lat="40.611116" lon="-4.258343">
        <ele>1352.82</ele>
        <time>2021-03-27T12:51:13Z</time>
      </trkpt>
      <trkpt lat="40.611155" lon="-4.25846">
        <ele>1351.28</ele>
        <time>2021-03-27T12:51:15Z</time>
      </trkpt>
      <trkpt lat="40.611408" lon="-4.258773">
        <ele>1343.59</ele>
        <time>2021-03-27T12:51:16Z</time>
      </trkpt>
      <trkpt lat="40.611457" lon="-4.258861">
        <ele>1342.53</ele>
        <time>2021-03-27T12:51:18Z</time>
      </trkpt>
      <trkpt lat="40.611486" lon="-4.258979">
        <ele>1341.34</ele>
        <time>2021-03-27T12:51:20Z</time>
      </trkpt>
      <trkpt lat="40.611483" lon="-4.259157">
        <ele>1340.35</ele>
        <time>2021-03-27T12:51:22Z</time>
      </trkpt>
      <trkpt lat="40.611224" lon="-4.261022">
        <ele>1326.05</ele>
        <time>2021-03-27T12:51:24Z</time>
      </trkpt>
      <trkpt lat="40.611" lon="-4.261708">
        <ele>1324.37</ele>
        <time>2021-03-27T12:51:26Z</time>
      </trkpt>
      <trkpt lat="40.611004" lon="-4.261928">
        <ele>1323.02</ele>
        <time>2021-03-27T12:51:28Z</time>
      </trkpt>
      <trkpt lat="40.611264" lon="-4.263108">
        <ele>1312.96</ele>
        <time>2021-03-27T12:51:30Z</time>
      </trkpt>
      <trkpt lat="40.61134" lon="-4.26356">
        <ele>1308.72</ele>
        <time>2021-03-27T12:51:32Z</time>
      </trkpt>
      <trkpt lat="40.609958" lon="-4.265221">
        <ele>1292.57</ele>
        <time>2021-03-27T12:51:35Z</time>
      </trkpt>
      <trkpt lat="40.609738" lon="-4.265673">
        <ele>1284.07</ele>
        <time>2021-03-27T12:51:38Z</time>
      </trkpt>
      <trkpt lat="40.609341" lon="-4.266911">
        <ele>1270.76</ele>
        <time>2021-03-27T12:51:40Z</time>
      </trkpt>
      <trkpt lat="40.609216" lon="-4.267446">
        <ele>1266.64</ele>
        <time>2021-03-27T12:51:43Z</time>
      </trkpt>
      <trkpt lat="40.609177" lon="-4.26778">
        <ele>1262.43</ele>
        <time>2021-03-27T12:51:46Z</time>
      </trkpt>
      <trkpt lat="40.609188" lon="-4.268252">
        <ele>1258.2</ele>
        <time>2021-03-27T12:51:49Z</time>
      </trkpt>
      <trkpt lat="40.609237" lon="-4.269001">
        <ele>1252.15</ele>
        <time>2021-03-27T12:51:52Z</time>
      </trkpt>
      <trkpt lat="40.609312" lon="-4.269243">
        <ele>1251.64</ele>
        <time>2021-03-27T12:51:55Z</time>
      </trkpt>
      <trkpt lat="40.60942" lon="-4.269514">
        <ele>1250.97</ele>
        <time>2021-03-27T12:51:58Z</time>
      </trkpt>
      <trkpt lat="40.609741" lon="-4.270114">
        <ele>1249.53</ele>
        <time>2021-03-27T12:52:01Z</time>
      </trkpt>
      <trkpt lat="40.609815" lon="-4.270292">
        <ele>1248.75</ele>
        <time>2021-03-27T12:52:03Z</time>
      </trkpt>
      <trkpt lat="40.609847" lon="-4.2705">
        <ele>1246.05</ele>
        <time>2021-03-27T12:52:06Z</time>
      </trkpt>
      <trkpt lat="40.609838" lon="-4.270863">
        <ele>1241.99</ele>
        <time>2021-03-27T12:52:09Z</time>
      </trkpt>
      <trkpt lat="40.609862" lon="-4.271202">
        <ele>1238.54</ele>
        <time>2021-03-27T12:52:12Z</time>
      </trkpt>
      <trkpt lat="40.609958" lon="-4.271625">
        <ele>1233.26</ele>
        <time>2021-03-27T12:52:15Z</time>
      </trkpt>
      <trkpt lat="40.610293" lon="-4.272265">
        <ele>1227.92</ele>
        <time>2021-03-27T12:52:18Z</time>
      </trkpt>
      <trkpt lat="40.610371" lon="-4.272454">
        <ele>1227.85</ele>
        <time>2021-03-27T12:52:21Z</time>
      </trkpt>
      <trkpt lat="40.61053" lon="-4.272945">
        <ele>1223.88</ele>
        <time>2021-03-27T12:52:24Z</time>
      </trkpt>
      <trkpt lat="40.610786" lon="-4.273476">
        <ele>1216.58</ele>
        <time>2021-03-27T12:52:27Z</time>
      </trkpt>
      <trkpt lat="40.610902" lon="-4.273602">
        <ele>1214.72</ele>
        <time>2021-03-27T12:52:29Z</time>
      </trkpt>
      <trkpt lat="40.611069" lon="-4.273697">
        <ele>1214.77</ele>
        <time>2021-03-27T12:52:32Z</time>
      </trkpt>
      <trkpt lat="40.611191" lon="-4.273798">
        <ele>1213.49</ele>
        <time>2021-03-27T12:52:35Z</time>
      </trkpt>
      <trkpt lat="40.611238" lon="-4.273945">
        <ele>1210.74</ele>
        <time>2021-03-27T12:52:38Z</time>
      </trkpt>
      <trkpt lat="40.611204" lon="-4.274077">
        <ele>1209.29</ele>
        <time>2021-03-27T12:52:41Z</time>
      </trkpt>
      <trkpt lat="40.611111" lon="-4.274122">
        <ele>1210.47</ele>
        <time>2021-03-27T12:52:44Z</time>
      </trkpt>
      <trkpt lat="40.611005" lon="-4.274077">
        <ele>1210.46</ele>
        <time>2021-03-27T12:52:47Z</time>
      </trkpt>
      <trkpt lat="40.610694" lon="-4.273748">
        <ele>1211.77</ele>
        <time>2021-03-27T12:52:50Z</time>
      </trkpt>
      <trkpt lat="40.610092" lon="-4.273319">
        <ele>1210.56</ele>
        <time>2021-03-27T12:52:52Z</time>
      </trkpt>
      <trkpt lat="40.609917" lon="-4.273227">
        <ele>1209.9</ele>
        <time>2021-03-27T12:52:55Z</time>
      </trkpt>
      <trkpt lat="40.609773" lon="-4.273111">
        <ele>1209.9</ele>
        <time>2021-03-27T12:52:58Z</time>
      </trkpt>
      <trkpt lat="40.609614" lon="-4.272951">
        <ele>1208.57</ele>
        <time>2021-03-27T12:53:01Z</time>
      </trkpt>
      <trkpt lat="40.60856" lon="-4.272313">
        <ele>1198.56</ele>
        <time>2021-03-27T12:53:04Z</time>
      </trkpt>
      <trkpt lat="40.608028" lon="-4.271855">
        <ele>1187.99</ele>
        <time>2021-03-27T12:53:07Z</time>
      </trkpt>
      <trkpt lat="40.60788" lon="-4.271789">
        <ele>1186.74</ele>
        <time>2021-03-27T12:53:10Z</time>
      </trkpt>
      <trkpt lat="40.607754" lon="-4.2718">
        <ele>1185.78</ele>
        <time>2021-03-27T12:53:13Z</time>
      </trkpt>
      <trkpt lat="40.607635" lon="-4.271872">
        <ele>1185.7</ele>
        <time>2021-03-27T12:53:16Z</time>
      </trkpt>
      <trkpt lat="40.607559" lon="-4.27201">
        <ele>1183.94</ele>
        <time>2021-03-27T12:53:18Z</time>
      </trkpt>
      <trkpt lat="40.607015" lon="-4.273517">
        <ele>1177.66</ele>
        <time>2021-03-27T12:53:21Z</time>
      </trkpt>
      <trkpt lat="40.606718" lon="-4.274148">
        <ele>1173.42</ele>
        <time>2021-03-27T12:53:24Z</time>
      </trkpt>
      <trkpt lat="40.606469" lon="-4.274816">
        <ele>1167.98</ele>
        <time>2021-03-27T12:53:27Z</time>
      </trkpt>
      <trkpt lat="40.606194" lon="-4.275647">
        <ele>1164.18</ele>
        <time>2021-03-27T12:53:30Z</time>
      </trkpt>
      <trkpt lat="40.606084" lon="-4.275887">
        <ele>1161.16</ele>
        <time>2021-03-27T12:53:33Z</time>
      </trkpt>
      <trkpt lat="40.605493" lon="-4.276561">
        <ele>1153.93</ele>
        <time>2021-03-27T12:53:36Z</time>
      </trkpt>
      <trkpt lat="40.605335" lon="-4.276715">
        <ele>1151.38</ele>
        <time>2021-03-27T12:53:39Z</time>
      </trkpt>
      <trkpt lat="40.605136" lon="-4.276856">
        <ele>1148.74</ele>
        <time>2021-03-27T12:53:42Z</time>
      </trkpt>
      <trkpt lat="40.604625" lon="-4.277083">
        <ele>1145.54</ele>
        <time>2021-03-27T12:53:44Z</time>
      </trkpt>
      <trkpt lat="40.60425" lon="-4.277175">
        <ele>1144.85</ele>
        <time>2021-03-27T12:53:47Z</time>
      </trkpt>
      <trkpt lat="40.604112" lon="-4.277227">
        <ele>1144.14</ele>
        <time>2021-03-27T12:53:50Z</time>
      </trkpt>
      <trkpt lat="40.603988" lon="-4.277333">
        <ele>1143.45</ele>
        <time>2021-03-27T12:53:53Z</time>
      </trkpt>
      <trkpt lat="40.603644" lon="-4.277761">
        <ele>1136.59</ele>
        <time>2021-03-27T12:53:56Z</time>
      </trkpt>
      <trkpt lat="40.603505" lon="-4.277872">
        <ele>1135.02</ele>
        <time>2021-03-27T12:53:59Z</time>
      </trkpt>
      <trkpt lat="40.603346" lon="-4.277944">
        <ele>1134.55</ele>
        <time>2021-03-27T12:54:02Z</time>
      </trkpt>
      <trkpt lat="40.602652" lon="-4.278138">
        <ele>1131.14</ele>
        <time>2021-03-27T12:54:05Z</time>
      </trkpt>
      <trkpt lat="40.602559" lon="-4.278196">
        <ele>1130.19</ele>
        <time>2021-03-27T12:54:07Z</time>
      </trkpt>
      <trkpt lat="40.602178" lon="-4.278762">
        <ele>1125.69</ele>
        <time>2021-03-27T12:54:10Z</time>
      </trkpt>
      <trkpt lat="40.602013" lon="-4.279208">
        <ele>1128.46</ele>
        <time>2021-03-27T12:54:13Z</time>
      </trkpt>
      <trkpt lat="40.602007" lon="-4.279405">
        <ele>1130.67</ele>
        <time>2021-03-27T12:54:16Z</time>
      </trkpt>
      <trkpt lat="40.602089" lon="-4.279586">
        <ele>1134.12</ele>
        <time>2021-03-27T12:54:19Z</time>
      </trkpt>
      <trkpt lat="40.602405" lon="-4.280061">
        <ele>1141.71</ele>
        <time>2021-03-27T12:54:22Z</time>
      </trkpt>
      <trkpt lat="40.602466" lon="-4.28022">
        <ele>1142.6</ele>
        <time>2021-03-27T12:54:25Z</time>
      </trkpt>
      <trkpt lat="40.602602" lon="-4.280857">
        <ele>1144.48</ele>
        <time>2021-03-27T12:54:28Z</time>
      </trkpt>
      <trkpt lat="40.602731" lon="-4.281644">
        <ele>1150.19</ele>
        <time>2021-03-27T12:54:31Z</time>
      </trkpt>
      <trkpt lat="40.602834" lon="-4.281929">
        <ele>1151.93</ele>
        <time>2021-03-27T12:54:33Z</time>
      </trkpt>
      <trkpt lat="40.603001" lon="-4.282164">
        <ele>1153.43</ele>
        <time>2021-03-27T12:54:36Z</time>
      </trkpt>
      <trkpt lat="40.603849" lon="-4.283007">
        <ele>1163.45</ele>
        <time>2021-03-27T12:54:39Z</time>
      </trkpt>
      <trkpt lat="40.603972" lon="-4.283162">
        <ele>1163.81</ele>
        <time>2021-03-27T12:54:42Z</time>
      </trkpt>
      <trkpt lat="40.604063" lon="-4.283347">
        <ele>1164.78</ele>
        <time>2021-03-27T12:54:45Z</time>
      </trkpt>
      <trkpt lat="40.604361" lon="-4.284171">
        <ele>1164.02</ele>
        <time>2021-03-27T12:54:48Z</time>
      </trkpt>
      <trkpt lat="40.604434" lon="-4.284579">
        <ele>1164.3</ele>
        <time>2021-03-27T12:54:51Z</time>
      </trkpt>
      <trkpt lat="40.604448" lon="-4.284982">
        <ele>1167.68</ele>
        <time>2021-03-27T12:54:54Z</time>
      </trkpt>
      <trkpt lat="40.604419" lon="-4.285275">
        <ele>1169.8</ele>
        <time>2021-03-27T12:54:57Z</time>
      </trkpt>
      <trkpt lat="40.604401" lon="-4.285797">
        <ele>1173.99</ele>
        <time>2021-03-27T12:54:59Z</time>
      </trkpt>
      <trkpt lat="40.604354" lon="-4.286125">
        <ele>1176.25</ele>
        <time>2021-03-27T12:55:02Z</time>
      </trkpt>
      <trkpt lat="40.604296" lon="-4.28695">
        <ele>1175.68</ele>
        <time>2021-03-27T12:55:05Z</time>
      </trkpt>
      <trkpt lat="40.604261" lon="-4.287198">
        <ele>1174.18</ele>
        <time>2021-03-27T12:55:08Z</time>
      </trkpt>
      <trkpt lat="40.604196" lon="-4.287462">
        <ele>1174.68</ele>
        <time>2021-03-27T12:55:11Z</time>
      </trkpt>
      <trkpt lat="40.604161" lon="-4.287839">
        <ele>1179.1</ele>
        <time>2021-03-27T12:55:14Z</time>
      </trkpt>
      <trkpt lat="40.604173" lon="-4.288579">
        <ele>1188.61</ele>
        <time>2021-03-27T12:55:17Z</time>
      </trkpt>
      <trkpt lat="40.604156" lon="-4.28891">
        <ele>1189.26</ele>
        <time>2021-03-27T12:55:20Z</time>
      </trkpt>
      <trkpt lat="40.604087" lon="-4.289477">
        <ele>1191.34</ele>
        <time>2021-03-27T12:55:22Z</time>
      </trkpt>
      <trkpt lat="40.604057" lon="-4.290004">
        <ele>1194.96</ele>
        <time>2021-03-27T12:55:25Z</time>
      </trkpt>
      <trkpt lat="40.603755" lon="-4.291466">
        <ele>1201.87</ele>
        <time>2021-03-27T12:55:28Z</time>
      </trkpt>
      <trkpt lat="40.603716" lon="-4.291816">
        <ele>1205.24</ele>
        <time>2021-03-27T12:55:31Z</time>
      </trkpt>
      <trkpt lat="40.603714" lon="-4.293108">
        <ele>1211.66</ele>
        <time>2021-03-27T12:55:34Z</time>
      </trkpt>
      <trkpt lat="40.603692" lon="-4.293365">
        <ele>1213.15</ele>
        <time>2021-03-27T12:55:37Z</time>
      </trkpt>
      <trkpt lat="40.603562" lon="-4.294187">
        <ele>1215.32</ele>
        <time>2021-03-27T12:55:40Z</time>
      </trkpt>
      <trkpt lat="40.603562" lon="-4.294533">
        <ele>1219.48</ele>
        <time>2021-03-27T12:55:43Z</time>
      </trkpt>
      <trkpt lat="40.603626" lon="-4.295024">
        <ele>1222.81</ele>
        <time>2021-03-27T12:55:46Z</time>
      </trkpt>
      <trkpt lat="40.60372" lon="-4.295459">
        <ele>1221.9</ele>
        <time>2021-03-27T12:55:48Z</time>
      </trkpt>
      <trkpt lat="40.604244" lon="-4.29687">
        <ele>1231.33</ele>
        <time>2021-03-27T12:55:51Z</time>
      </trkpt>
      <trkpt lat="40.604329" lon="-4.29722">
        <ele>1234.57</ele>
        <time>2021-03-27T12:55:54Z</time>
      </trkpt>
      <trkpt lat="40.604354" lon="-4.29756">
        <ele>1236.21</ele>
        <time>2021-03-27T12:55:57Z</time>
      </trkpt>
      <trkpt lat="40.604218" lon="-4.299198">
        <ele>1238.26</ele>
        <time>2021-03-27T12:56:00Z</time>
      </trkpt>
      <trkpt lat="40.604205" lon="-4.299729">
        <ele>1236.05</ele>
        <time>2021-03-27T12:56:03Z</time>
      </trkpt>
      <trkpt lat="40.604237" lon="-4.29995">
        <ele>1233.39</ele>
        <time>2021-03-27T12:56:06Z</time>
      </trkpt>
      <trkpt lat="40.60478" lon="-4.302217">
        <ele>1225.26</ele>
        <time>2021-03-27T12:56:09Z</time>
      </trkpt>
      <trkpt lat="40.605026" lon="-4.302924">
        <ele>1222.09</ele>
        <time>2021-03-27T12:56:11Z</time>
      </trkpt>
      <trkpt lat="40.605252" lon="-4.303478">
        <ele>1219.63</ele>
        <time>2021-03-27T12:56:14Z</time>
      </trkpt>
      <trkpt lat="40.605587" lon="-4.304248">
        <ele>1215.0</ele>
        <time>2021-03-27T12:56:17Z</time>
      </trkpt>
      <trkpt lat="40.605931" lon="-4.304771">
        <ele>1212.82</ele>
        <time>2021-03-27T12:56:20Z</time>
      </trkpt>
      <trkpt lat="40.606434" lon="-4.305256">
        <ele>1211.51</ele>
        <time>2021-03-27T12:56:23Z</time>
      </trkpt>
      <trkpt lat="40.607173" lon="-4.306733">
        <ele>1205.41</ele>
        <time>2021-03-27T12:56:26Z</time>
      </trkpt>
      <trkpt lat="40.607212" lon="-4.306878">
        <ele>1205.17</ele>
        <time>2021-03-27T12:56:29Z</time>
      </trkpt>
      <trkpt lat="40.607223" lon="-4.306985">
        <ele>1205.02</ele>
        <time>2021-03-27T12:56:32Z</time>
      </trkpt>
      <trkpt lat="40.607198" lon="-4.30721">
        <ele>1204.91</ele>
        <time>2021-03-27T12:56:35Z</time>
      </trkpt>
      <trkpt lat="40.607132" lon="-4.307463">
        <ele>1205.52</ele>
        <time>2021-03-27T12:56:37Z</time>
      </trkpt>
      <trkpt lat="40.607049" lon="-4.307623">
        <ele>1206.36</ele>
        <time>2021-03-27T12:56:40Z</time>
      </trkpt>
      <trkpt lat="40.606873" lon="-4.307765">
        <ele>1208.69</ele>
        <time>2021-03-27T12:56:43Z</time>
      </trkpt>
      <trkpt lat="40.606493" lon="-4.307952">
        <ele>1212.25</ele>
        <time>2021-03-27T12:56:46Z</time>
      </trkpt>
      <trkpt lat="40.606207" lon="-4.308197">
        <ele>1213.87</ele>
        <time>2021-03-27T12:56:49Z</time>
      </trkpt>
      <trkpt lat="40.605963" lon="-4.308469">
        <ele>1215.48</ele>
        <time>2021-03-27T12:56:52Z</time>
      </trkpt>
      <trkpt lat="40.605756" lon="-4.308757">
        <ele>1218.3</ele>
        <time>2021-03-27T12:56:55Z</time>
      </trkpt>
      <trkpt lat="40.605672" lon="-4.308971">
        <ele>1220.43</ele>
        <time>2021-03-27T12:56:58Z</time>
      </trkpt>
      <trkpt lat="40.60381" lon="-4.315497">
        <ele>1240.79</ele>
        <time>2021-03-27T12:57:01Z</time>
      </trkpt>
      <trkpt lat="40.603562" lon="-4.317127">
        <ele>1246.87</ele>
        <time>2021-03-27T12:57:03Z</time>
      </trkpt>
      <trkpt lat="40.603174" lon="-4.319896">
        <ele>1258.52</ele>
        <time>2021-03-27T12:57:06Z</time>
      </trkpt>
      <trkpt lat="40.603055" lon="-4.320608">
        <ele>1264.37</ele>
        <time>2021-03-27T12:57:09Z</time>
      </trkpt>
      <trkpt lat="40.603002" lon="-4.320776">
        <ele>1265.35</ele>
        <time>2021-03-27T12:57:12Z</time>
      </trkpt>
      <trkpt lat="40.60293" lon="-4.320909">
        <ele>1266.21</ele>
        <time>2021-03-27T12:57:15Z</time>
      </trkpt>
      <trkpt lat="40.602428" lon="-4.32149">
        <ele>1268.79</ele>
        <time>2021-03-27T12:57:18Z</time>
      </trkpt>
      <trkpt lat="40.602357" lon="-4.321632">
        <ele>1269.14</ele>
        <time>2021-03-27T12:57:21Z</time>
      </trkpt>
      <trkpt lat="40.602264" lon="-4.321967">
        <ele>1272.61</ele>
        <time>2021-03-27T12:57:24Z</time>
      </trkpt>
      <trkpt lat="40.60223" lon="-4.322058">
        <ele>1272.91</ele>
        <time>2021-03-27T12:57:29Z</time>
      </trkpt>
      <trkpt lat="40.602179" lon="-4.322079">
        <ele>1272.42</ele>
        <time>2021-03-27T12:57:35Z</time>
      </trkpt>
      <trkpt lat="40.601991" lon="-4.32199">
        <ele>1269.14</ele>
        <time>2021-03-27T12:57:41Z</time>
      </trkpt>
      <trkpt lat="40.601878" lon="-4.32202">
        <ele>1267.79</ele>
        <time>2021-03-27T12:57:46Z</time>
      </trkpt>
      <trkpt lat="40.601619" lon="-4.322132">
        <ele>1264.73</ele>
        <time>2021-03-27T12:57:52Z</time>
      </trkpt>
      <trkpt lat="40.601307" lon="-4.322323">
        <ele>1262.32</ele>
        <time>2021-03-27T12:57:57Z</time>
      </trkpt>
      <trkpt lat="40.601038" lon="-4.322556">
        <ele>1261.67</ele>
        <time>2021-03-27T12:58:03Z</time>
      </trkpt>
      <trkpt lat="40.60078" lon="-4.322874">
        <ele>1261.03</ele>
        <time>2021-03-27T12:58:09Z</time>
      </trkpt>
      <trkpt lat="40.600584" lon="-4.323176">
        <ele>1261.58</ele>
        <time>2021-03-27T12:58:14Z</time>
      </trkpt>
      <trkpt lat="40.60043" lon="-4.323503">
        <ele>1263.22</ele>
        <time>2021-03-27T12:58:20Z</time>
      </trkpt>
      <trkpt lat="40.600235" lon="-4.324056">
        <ele>1266.11</ele>
        <time>2021-03-27T12:58:26Z</time>
      </trkpt>
      <trkpt lat="40.599988" lon="-4.324831">
        <ele>1265.87</ele>
        <time>2021-03-27T12:58:31Z</time>
      </trkpt>
      <trkpt lat="40.599801" lon="-4.325488">
        <ele>1264.57</ele>
        <time>2021-03-27T12:58:37Z</time>
      </trkpt>
      <trkpt lat="40.599665" lon="-4.326129">
        <ele>1266.49</ele>
        <time>2021-03-27T12:58:42Z</time>
      </trkpt>
      <trkpt lat="40.599387" lon="-4.328055">
        <ele>1274.83</ele>
        <time>2021-03-27T12:58:48Z</time>
      </trkpt>
      <trkpt lat="40.599111" lon="-4.330136">
        <ele>1281.89</ele>
        <time>2021-03-27T12:58:54Z</time>
      </trkpt>
      <trkpt lat="40.598909" lon="-4.331196">
        <ele>1283.57</ele>
        <time>2021-03-27T12:58:59Z</time>
      </trkpt>
      <trkpt lat="40.598226" lon="-4.334116">
        <ele>1299.79</ele>
        <time>2021-03-27T12:59:05Z</time>
      </trkpt>
      <trkpt lat="40.598077" lon="-4.334533">
        <ele>1304.31</ele>
        <time>2021-03-27T12:59:11Z</time>
      </trkpt>
      <trkpt lat="40.597877" lon="-4.334916">
        <ele>1311.64</ele>
        <time>2021-03-27T12:59:16Z</time>
      </trkpt>
      <trkpt lat="40.597616" lon="-4.335316">
        <ele>1317.24</ele>
        <time>2021-03-27T12:59:22Z</time>
      </trkpt>
      <trkpt lat="40.597407" lon="-4.33554">
        <ele>1318.39</ele>
        <time>2021-03-27T12:59:28Z</time>
      </trkpt>
      <trkpt lat="40.597432" lon="-4.335607">
        <ele>1318.29</ele>
        <time>2021-03-27T12:59:28Z</time>
      </trkpt>
      <trkpt lat="40.597439" lon="-4.335681">
        <ele>1318.31</ele>
        <time>2021-03-27T12:59:29Z</time>
      </trkpt>
      <trkpt lat="40.597428" lon="-4.335754">
        <ele>1318.44</ele>
        <time>2021-03-27T12:59:29Z</time>
      </trkpt>
      <trkpt lat="40.597398" lon="-4.335817">
        <ele>1318.71</ele>
        <time>2021-03-27T12:59:30Z</time>
      </trkpt>
      <trkpt lat="40.597355" lon="-4.335864">
        <ele>1319.27</ele>
        <time>2021-03-27T12:59:30Z</time>
      </trkpt>
      <trkpt lat="40.597793" lon="-4.336959">
        <ele>1322.84</ele>
        <time>2021-03-27T12:59:33Z</time>
      </trkpt>
      <trkpt lat="40.597898" lon="-4.33715">
        <ele>1322.33</ele>
        <time>2021-03-27T12:59:36Z</time>
      </trkpt>
      <trkpt lat="40.598033" lon="-4.337286">
        <ele>1321.49</ele>
        <time>2021-03-27T12:59:39Z</time>
      </trkpt>
      <trkpt lat="40.598309" lon="-4.337416">
        <ele>1318.41</ele>
        <time>2021-03-27T12:59:42Z</time>
      </trkpt>
      <trkpt lat="40.598443" lon="-4.337431">
        <ele>1317.56</ele>
        <time>2021-03-27T12:59:45Z</time>
      </trkpt>
      <trkpt lat="40.598598" lon="-4.337412">
        <ele>1316.44</ele>
        <time>2021-03-27T12:59:48Z</time>
      </trkpt>
      <trkpt lat="40.598749" lon="-4.337354">
        <ele>1317.2</ele>
        <time>2021-03-27T12:59:51Z</time>
      </trkpt>
      <trkpt lat="40.598847" lon="-4.337303">
        <ele>1317.89</ele>
        <time>2021-03-27T12:59:53Z</time>
      </trkpt>
      <trkpt lat="40.598914" lon="-4.337338">
        <ele>1318.71</ele>
        <time>2021-03-27T12:59:54Z</time>
      </trkpt>
      <trkpt lat="40.598943" lon="-4.33738">
        <ele>1319.13</ele>
        <time>2021-03-27T12:59:56Z</time>
      </trkpt>
      <trkpt lat="40.598961" lon="-4.33748">
        <ele>1319.48</ele>
        <time>2021-03-27T12:59:57Z</time>
      </trkpt>
      <trkpt lat="40.59893" lon="-4.337573">
        <ele>1319.52</ele>
        <time>2021-03-27T12:59:59Z</time>
      </trkpt>
      <trkpt lat="40.598859" lon="-4.337625">
        <ele>1319.33</ele>
        <time>2021-03-27T13:00:00Z</time>
      </trkpt>
      <trkpt lat="40.598819" lon="-4.337625">
        <ele>1319.17</ele>
        <time>2021-03-27T13:00:02Z</time>
      </trkpt>
      <trkpt lat="40.598748" lon="-4.337575">
        <ele>1318.53</ele>
        <time>2021-03-27T13:00:03Z</time>
      </trkpt>
      <trkpt lat="40.598671" lon="-4.337677">
        <ele>1319.06</ele>
        <time>2021-03-27T13:00:05Z</time>
      </trkpt>
      <trkpt lat="40.598642" lon="-4.337769">
        <ele>1319.91</ele>
        <time>2021-03-27T13:00:06Z</time>
      </trkpt>
      <trkpt lat="40.598302" lon="-4.338352">
        <ele>1319.93</ele>
        <time>2021-03-27T13:00:08Z</time>
      </trkpt>
      <trkpt lat="40.598023" lon="-4.338779">
        <ele>1317.21</ele>
        <time>2021-03-27T13:00:09Z</time>
      </trkpt>
      <trkpt lat="40.597973" lon="-4.338926">
        <ele>1316.18</ele>
        <time>2021-03-27T13:00:15Z</time>
      </trkpt>
      <trkpt lat="40.597925" lon="-4.338982">
        <ele>1315.55</ele>
        <time>2021-03-27T13:00:21Z</time>
      </trkpt>
      <trkpt lat="40.597867" lon="-4.339017">
        <ele>1315.03</ele>
        <time>2021-03-27T13:00:27Z</time>
      </trkpt>
      <trkpt lat="40.597803" lon="-4.33903">
        <ele>1314.63</ele>
        <time>2021-03-27T13:00:33Z</time>
      </trkpt>
      <trkpt lat="40.597731" lon="-4.339014">
        <ele>1315.07</ele>
        <time>2021-03-27T13:00:39Z</time>
      </trkpt>
      <trkpt lat="40.59766" lon="-4.338962">
        <ele>1316.21</ele>
        <time>2021-03-27T13:00:45Z</time>
      </trkpt>
      <trkpt lat="40.597608" lon="-4.338879">
        <ele>1317.51</ele>
        <time>2021-03-27T13:00:51Z</time>
      </trkpt>
      <trkpt lat="40.597584" lon="-4.33879">
        <ele>1318.5</ele>
        <time>2021-03-27T13:00:57Z</time>
      </trkpt>
      <trkpt lat="40.597583" lon="-4.338695">
        <ele>1319.2</ele>
        <time>2021-03-27T13:01:03Z</time>
      </trkpt>
      <trkpt lat="40.597604" lon="-4.338604">
        <ele>1319.56</ele>
        <time>2021-03-27T13:01:09Z</time>
      </trkpt>
      <trkpt lat="40.597647" lon="-4.338528">
        <ele>1319.62</ele>
        <time>2021-03-27T13:01:15Z</time>
      </trkpt>
      <trkpt lat="40.597693" lon="-4.338327">
        <ele>1320.57</ele>
        <time>2021-03-27T13:01:21Z</time>
      </trkpt>
      <trkpt lat="40.597684" lon="-4.338162">
        <ele>1322.34</ele>
        <time>2021-03-27T13:01:27Z</time>
      </trkpt>
      <trkpt lat="40.597582" lon="-4.337604">
        <ele>1327.03</ele>
        <time>2021-03-27T13:01:33Z</time>
      </trkpt>
      <trkpt lat="40.597397" lon="-4.336982">
        <ele>1325.69</ele>
        <time>2021-03-27T13:01:39Z</time>
      </trkpt>
      <trkpt lat="40.597286" lon="-4.336724">
        <ele>1324.36</ele>
        <time>2021-03-27T13:01:45Z</time>
      </trkpt>
      <trkpt lat="40.597115" lon="-4.336448">
        <ele>1324.36</ele>
        <time>2021-03-27T13:01:51Z</time>
      </trkpt>
      <trkpt lat="40.596923" lon="-4.336201">
        <ele>1325.63</ele>
        <time>2021-03-27T13:01:58Z</time>
      </trkpt>
      <trkpt lat="40.594383" lon="-4.333736">
        <ele>1332.69</ele>
        <time>2021-03-27T13:02:04Z</time>
      </trkpt>
      <trkpt lat="40.593963" lon="-4.333382">
        <ele>1330.75</ele>
        <time>2021-03-27T13:02:10Z</time>
      </trkpt>
      <trkpt lat="40.59372" lon="-4.333235">
        <ele>1327.73</ele>
        <time>2021-03-27T13:02:16Z</time>
      </trkpt>
      <trkpt lat="40.593346" lon="-4.333087">
        <ele>1325.23</ele>
        <time>2021-03-27T13:02:22Z</time>
      </trkpt>
      <trkpt lat="40.591126" lon="-4.332642">
        <ele>1322.51</ele>
        <time>2021-03-27T13:02:28Z</time>
      </trkpt>
      <trkpt lat="40.588283" lon="-4.332043">
        <ele>1325.82</ele>
        <time>2021-03-27T13:02:34Z</time>
      </trkpt>
      <trkpt lat="40.585183" lon="-4.330914">
        <ele>1314.19</ele>
        <time>2021-03-27T13:02:40Z</time>
      </trkpt>
      <trkpt lat="40.584261" lon="-4.330533">
        <ele>1309.69</ele>
        <time>2021-03-27T13:02:46Z</time>
      </trkpt>
      <trkpt lat="40.582446" lon="-4.329695">
        <ele>1306.0</ele>
        <time>2021-03-27T13:02:52Z</time>
      </trkpt>
      <trkpt lat="40.582097" lon="-4.32948">
        <ele>1305.9</ele>
        <time>2021-03-27T13:02:58Z</time>
      </trkpt>
      <trkpt lat="40.581677" lon="-4.3291">
        <ele>1304.3</ele>
        <time>2021-03-27T13:03:04Z</time>
      </trkpt>
      <trkpt lat="40.579647" lon="-4.327018">
        <ele>1291.8</ele>
        <time>2021-03-27T13:03:10Z</time>
      </trkpt>
      <trkpt lat="40.579061" lon="-4.326362">
        <ele>1292.05</ele>
        <time>2021-03-27T13:03:16Z</time>
      </trkpt>
      <trkpt lat="40.578668" lon="-4.325794">
        <ele>1290.76</ele>
        <time>2021-03-27T13:03:22Z</time>
      </trkpt>
      <trkpt lat="40.576424" lon="-4.322098">
        <ele>1264.72</ele>
        <time>2021-03-27T13:03:28Z</time>
      </trkpt>
      <trkpt lat="40.576109" lon="-4.322279">
        <ele>1264.64</ele>
        <time>2021-03-27T13:03:30Z</time>
      </trkpt>
      <trkpt lat="40.575074" lon="-4.321461">
        <ele>1263.49</ele>
        <time>2021-03-27T13:03:39Z</time>
      </trkpt>
      <trkpt lat="40.574593" lon="-4.321319">
        <ele>1259.9</ele>
        <time>2021-03-27T13:03:44Z</time>
      </trkpt>
      <trkpt lat="40.574156" lon="-4.32126">
        <ele>1259.06</ele>
        <time>2021-03-27T13:03:49Z</time>
      </trkpt>
      <trkpt lat="40.573018" lon="-4.321583">
        <ele>1250.83</ele>
        <time>2021-03-27T13:03:54Z</time>
      </trkpt>
      <trkpt lat="40.571527" lon="-4.322077">
        <ele>1237.2</ele>
        <time>2021-03-27T13:03:58Z</time>
      </trkpt>
      <trkpt lat="40.571208" lon="-4.322657">
        <ele>1231.53</ele>
        <time>2021-03-27T13:04:03Z</time>
      </trkpt>
      <trkpt lat="40.570771" lon="-4.32395">
        <ele>1230.19</ele>
        <time>2021-03-27T13:04:08Z</time>
      </trkpt>
      <trkpt lat="40.570054" lon="-4.324808">
        <ele>1225.58</ele>
        <time>2021-03-27T13:04:13Z</time>
      </trkpt>
      <trkpt lat="40.569217" lon="-4.325948">
        <ele>1215.91</ele>
        <time>2021-03-27T13:04:18Z</time>
      </trkpt>
      <trkpt lat="40.56892" lon="-4.326132">
        <ele>1211.85</ele>
        <time>2021-03-27T13:04:23Z</time>
      </trkpt>
      <trkpt lat="40.56845" lon="-4.32633">
        <ele>1208.53</ele>
        <time>2021-03-27T13:04:28Z</time>
      </trkpt>
      <trkpt lat="40.567844" lon="-4.326712">
        <ele>1204.08</ele>
        <time>2021-03-27T13:04:33Z</time>
      </trkpt>
      <trkpt lat="40.567559" lon="-4.327031">
        <ele>1202.54</ele>
        <time>2021-03-27T13:04:38Z</time>
      </trkpt>
      <trkpt lat="40.567345" lon="-4.327444">
        <ele>1200.46</ele>
        <time>2021-03-27T13:04:43Z</time>
      </trkpt>
      <trkpt lat="40.56709" lon="-4.328229">
        <ele>1197.93</ele>
        <time>2021-03-27T13:04:48Z</time>
      </trkpt>
      <trkpt lat="40.566895" lon="-4.328619">
        <ele>1194.7</ele>
        <time>2021-03-27T13:04:53Z</time>
      </trkpt>
      <trkpt lat="40.566293" lon="-4.329112">
        <ele>1195.06</ele>
        <time>2021-03-27T13:04:58Z</time>
      </trkpt>
      <trkpt lat="40.565318" lon="-4.329722">
        <ele>1193.29</ele>
        <time>2021-03-27T13:05:03Z</time>
      </trkpt>
      <trkpt lat="40.565083" lon="-4.329955">
        <ele>1194.7</ele>
        <time>2021-03-27T13:05:07Z</time>
      </trkpt>
      <trkpt lat="40.564948" lon="-4.330212">
        <ele>1194.58</ele>
        <time>2021-03-27T13:05:12Z</time>
      </trkpt>
      <trkpt lat="40.564794" lon="-4.330703">
        <ele>1191.38</ele>
        <time>2021-03-27T13:05:17Z</time>
      </trkpt>
      <trkpt lat="40.564642" lon="-4.331503">
        <ele>1189.24</ele>
        <time>2021-03-27T13:05:22Z</time>
      </trkpt>
      <trkpt lat="40.564437" lon="-4.332163">
        <ele>1190.17</ele>
        <time>2021-03-27T13:05:27Z</time>
      </trkpt>
      <trkpt lat="40.564202" lon="-4.332458">
        <ele>1184.22</ele>
        <time>2021-03-27T13:05:32Z</time>
      </trkpt>
      <trkpt lat="40.563959" lon="-4.332453">
        <ele>1180.11</ele>
        <time>2021-03-27T13:05:37Z</time>
      </trkpt>
      <trkpt lat="40.563776" lon="-4.332378">
        <ele>1178.17</ele>
        <time>2021-03-27T13:05:42Z</time>
      </trkpt>
      <trkpt lat="40.563559" lon="-4.332143">
        <ele>1178.33</ele>
        <time>2021-03-27T13:05:47Z</time>
      </trkpt>
      <trkpt lat="40.563071" lon="-4.330133">
        <ele>1173.87</ele>
        <time>2021-03-27T13:05:52Z</time>
      </trkpt>
      <trkpt lat="40.562621" lon="-4.32807">
        <ele>1161.87</ele>
        <time>2021-03-27T13:05:57Z</time>
      </trkpt>
      <trkpt lat="40.56249" lon="-4.327349">
        <ele>1160.86</ele>
        <time>2021-03-27T13:06:02Z</time>
      </trkpt>
      <trkpt lat="40.562424" lon="-4.326177">
        <ele>1154.08</ele>
        <time>2021-03-27T13:06:07Z</time>
      </trkpt>
      <trkpt lat="40.56226" lon="-4.323917">
        <ele>1145.98</ele>
        <time>2021-03-27T13:06:12Z</time>
      </trkpt>
      <trkpt lat="40.562165" lon="-4.323591">
        <ele>1146.33</ele>
        <time>2021-03-27T13:06:16Z</time>
      </trkpt>
      <trkpt lat="40.562048" lon="-4.323412">
        <ele>1146.38</ele>
        <time>2021-03-27T13:06:21Z</time>
      </trkpt>
      <trkpt lat="40.561732" lon="-4.323171">
        <ele>1145.64</ele>
        <time>2021-03-27T13:06:26Z</time>
      </trkpt>
      <trkpt lat="40.55936" lon="-4.321632">
        <ele>1131.43</ele>
        <time>2021-03-27T13:06:31Z</time>
      </trkpt>
      <trkpt lat="40.558785" lon="-4.321476">
        <ele>1128.39</ele>
        <time>2021-03-27T13:06:36Z</time>
      </trkpt>
      <trkpt lat="40.558177" lon="-4.321611">
        <ele>1125.83</ele>
        <time>2021-03-27T13:06:41Z</time>
      </trkpt>
      <trkpt lat="40.557468" lon="-4.322041">
        <ele>1120.96</ele>
        <time>2021-03-27T13:06:46Z</time>
      </trkpt>
      <trkpt lat="40.556165" lon="-4.324035">
        <ele>1108.63</ele>
        <time>2021-03-27T13:06:51Z</time>
      </trkpt>
      <trkpt lat="40.555793" lon="-4.324413">
        <ele>1105.25</ele>
        <time>2021-03-27T13:06:56Z</time>
      </trkpt>
      <trkpt lat="40.555321" lon="-4.324501">
        <ele>1102.57</ele>
        <time>2021-03-27T13:07:01Z</time>
      </trkpt>
      <trkpt lat="40.554143" lon="-4.324636">
        <ele>1101.38</ele>
        <time>2021-03-27T13:07:06Z</time>
      </trkpt>
      <trkpt lat="40.553231" lon="-4.324207">
        <ele>1094.96</ele>
        <time>2021-03-27T13:07:11Z</time>
      </trkpt>
      <trkpt lat="40.553026" lon="-4.324248">
        <ele>1092.48</ele>
        <time>2021-03-27T13:07:16Z</time>
      </trkpt>
      <trkpt lat="40.552488" lon="-4.324526">
        <ele>1090.11</ele>
        <time>2021-03-27T13:07:21Z</time>
      </trkpt>
      <trkpt lat="40.552" lon="-4.324376">
        <ele>1085.81</ele>
        <time>2021-03-27T13:07:26Z</time>
      </trkpt>
      <trkpt lat="40.551535" lon="-4.324035">
        <ele>1080.36</ele>
        <time>2021-03-27T13:07:30Z</time>
      </trkpt>
      <trkpt lat="40.550889" lon="-4.323642">
        <ele>1073.56</ele>
        <time>2021-03-27T13:07:35Z</time>
      </trkpt>
      <trkpt lat="40.550544" lon="-4.323565">
        <ele>1070.41</ele>
        <time>2021-03-27T13:07:40Z</time>
      </trkpt>
      <trkpt lat="40.550211" lon="-4.323654">
        <ele>1067.98</ele>
        <time>2021-03-27T13:07:45Z</time>
      </trkpt>
      <trkpt lat="40.54982" lon="-4.323865">
        <ele>1063.88</ele>
        <time>2021-03-27T13:07:50Z</time>
      </trkpt>
      <trkpt lat="40.54927" lon="-4.324257">
        <ele>1062.02</ele>
        <time>2021-03-27T13:07:55Z</time>
      </trkpt>
      <trkpt lat="40.54888" lon="-4.324396">
        <ele>1057.83</ele>
        <time>2021-03-27T13:08:00Z</time>
      </trkpt>
      <trkpt lat="40.548582" lon="-4.324383">
        <ele>1058.08</ele>
        <time>2021-03-27T13:08:05Z</time>
      </trkpt>
      <trkpt lat="40.548199" lon="-4.324309">
        <ele>1058.51</ele>
        <time>2021-03-27T13:08:10Z</time>
      </trkpt>
      <trkpt lat="40.54747" lon="-4.324134">
        <ele>1054.6</ele>
        <time>2021-03-27T13:08:15Z</time>
      </trkpt>
      <trkpt lat="40.546558" lon="-4.323968">
        <ele>1050.72</ele>
        <time>2021-03-27T13:08:20Z</time>
      </trkpt>
      <trkpt lat="40.545779" lon="-4.323998">
        <ele>1050.47</ele>
        <time>2021-03-27T13:08:25Z</time>
      </trkpt>
      <trkpt lat="40.54541" lon="-4.324239">
        <ele>1051.87</ele>
        <time>2021-03-27T13:08:29Z</time>
      </trkpt>
      <trkpt lat="40.545178" lon="-4.324523">
        <ele>1052.21</ele>
        <time>2021-03-27T13:08:33Z</time>
      </trkpt>
      <trkpt lat="40.544751" lon="-4.325139">
        <ele>1051.37</ele>
        <time>2021-03-27T13:08:37Z</time>
      </trkpt>
      <trkpt lat="40.544509" lon="-4.325542">
        <ele>1053.28</ele>
        <time>2021-03-27T13:08:40Z</time>
      </trkpt>
      <trkpt lat="40.544184" lon="-4.326218">
        <ele>1054.61</ele>
        <time>2021-03-27T13:08:44Z</time>
      </trkpt>
      <trkpt lat="40.543636" lon="-4.327436">
        <ele>1049.04</ele>
        <time>2021-03-27T13:08:48Z</time>
      </trkpt>
      <trkpt lat="40.543421" lon="-4.32783">
        <ele>1048.94</ele>
        <time>2021-03-27T13:08:52Z</time>
      </trkpt>
      <trkpt lat="40.543236" lon="-4.328168">
        <ele>1048.73</ele>
        <time>2021-03-27T13:09:02Z</time>
      </trkpt>
      <trkpt lat="40.536447" lon="-4.337398">
        <ele>1016.13</ele>
        <time>2021-03-27T13:09:13Z</time>
      </trkpt>
      <trkpt lat="40.536076" lon="-4.337862">
        <ele>1013.92</ele>
        <time>2021-03-27T13:09:23Z</time>
      </trkpt>
      <trkpt lat="40.535785" lon="-4.33814">
        <ele>1011.53</ele>
        <time>2021-03-27T13:09:34Z</time>
      </trkpt>
      <trkpt lat="40.535425" lon="-4.338261">
        <ele>1008.92</ele>
        <time>2021-03-27T13:09:44Z</time>
      </trkpt>
      <trkpt lat="40.535138" lon="-4.338282">
        <ele>1006.9</ele>
        <time>2021-03-27T13:09:54Z</time>
      </trkpt>
      <trkpt lat="40.534906" lon="-4.33824">
        <ele>1004.99</ele>
        <time>2021-03-27T13:10:05Z</time>
      </trkpt>
      <trkpt lat="40.533325" lon="-4.337673">
        <ele>995.85</ele>
        <time>2021-03-27T13:10:15Z</time>
      </trkpt>
      <trkpt lat="40.531954" lon="-4.337387">
        <ele>989.08</ele>
        <time>2021-03-27T13:10:26Z</time>
      </trkpt>
      <trkpt lat="40.530968" lon="-4.336975">
        <ele>984.37</ele>
        <time>2021-03-27T13:10:36Z</time>
      </trkpt>
      <trkpt lat="40.529902" lon="-4.336559">
        <ele>981.25</ele>
        <time>2021-03-27T13:10:46Z</time>
      </trkpt>
      <trkpt lat="40.529351" lon="-4.336315">
        <ele>977.06</ele>
        <time>2021-03-27T13:10:57Z</time>
      </trkpt>
      <trkpt lat="40.528069" lon="-4.335312">
        <ele>965.96</ele>
        <time>2021-03-27T13:11:07Z</time>
      </trkpt>
      <trkpt lat="40.52714" lon="-4.335108">
        <ele>957.87</ele>
        <time>2021-03-27T13:11:13Z</time>
      </trkpt>
      <trkpt lat="40.526529" lon="-4.334995">
        <ele>958.44</ele>
        <time>2021-03-27T13:11:19Z</time>
      </trkpt>
      <trkpt lat="40.525245" lon="-4.335154">
        <ele>953.04</ele>
        <time>2021-03-27T13:11:25Z</time>
      </trkpt>
      <trkpt lat="40.52496" lon="-4.335073">
        <ele>952.34</ele>
        <time>2021-03-27T13:11:30Z</time>
      </trkpt>
      <trkpt lat="40.523929" lon="-4.334336">
        <ele>946.9</ele>
        <time>2021-03-27T13:11:36Z</time>
      </trkpt>
      <trkpt lat="40.522538" lon="-4.333853">
        <ele>942.89</ele>
        <time>2021-03-27T13:11:42Z</time>
      </trkpt>
      <trkpt lat="40.521953" lon="-4.333748">
        <ele>941.48</ele>
        <time>2021-03-27T13:11:48Z</time>
      </trkpt>
      <trkpt lat="40.521182" lon="-4.333761">
        <ele>941.97</ele>
        <time>2021-03-27T13:11:54Z</time>
      </trkpt>
      <trkpt lat="40.519738" lon="-4.334054">
        <ele>933.15</ele>
        <time>2021-03-27T13:11:59Z</time>
      </trkpt>
      <trkpt lat="40.519435" lon="-4.334304">
        <ele>928.9</ele>
        <time>2021-03-27T13:12:05Z</time>
      </trkpt>
      <trkpt lat="40.518704" lon="-4.335193">
        <ele>927.39</ele>
        <time>2021-03-27T13:12:11Z</time>
      </trkpt>
      <trkpt lat="40.518508" lon="-4.335258">
        <ele>927.52</ele>
        <time>2021-03-27T13:12:17Z</time>
      </trkpt>
      <trkpt lat="40.518315" lon="-4.335274">
        <ele>926.85</ele>
        <time>2021-03-27T13:12:23Z</time>
      </trkpt>
      <trkpt lat="40.518053" lon="-4.335206">
        <ele>924.7</ele>
        <time>2021-03-27T13:12:28Z</time>
      </trkpt>
      <trkpt lat="40.517818" lon="-4.335021">
        <ele>921.45</ele>
        <time>2021-03-27T13:12:34Z</time>
      </trkpt>
      <trkpt lat="40.516703" lon="-4.333358">
        <ele>909.05</ele>
        <time>2021-03-27T13:12:40Z</time>
      </trkpt>
      <trkpt lat="40.515954" lon="-4.331779">
        <ele>906.0</ele>
        <time>2021-03-27T13:12:46Z</time>
      </trkpt>
      <trkpt lat="40.51531" lon="-4.330549">
        <ele>904.98</ele>
        <time>2021-03-27T13:12:52Z</time>
      </trkpt>
      <trkpt lat="40.514636" lon="-4.329412">
        <ele>899.85</ele>
        <time>2021-03-27T13:12:57Z</time>
      </trkpt>
      <trkpt lat="40.514525" lon="-4.329299">
        <ele>899.59</ele>
        <time>2021-03-27T13:13:03Z</time>
      </trkpt>
      <trkpt lat="40.514549" lon="-4.329628">
        <ele>898.47</ele>
        <time>2021-03-27T13:13:06Z</time>
      </trkpt>
      <trkpt lat="40.514523" lon="-4.329925">
        <ele>897.27</ele>
        <time>2021-03-27T13:13:09Z</time>
      </trkpt>
      <trkpt lat="40.514451" lon="-4.330204">
        <ele>897.73</ele>
        <time>2021-03-27T13:13:11Z</time>
      </trkpt>
      <trkpt lat="40.514056" lon="-4.331447">
        <ele>907.45</ele>
        <time>2021-03-27T13:13:14Z</time>
      </trkpt>
      <trkpt lat="40.513966" lon="-4.331874">
        <ele>910.37</ele>
        <time>2021-03-27T13:13:17Z</time>
      </trkpt>
      <trkpt lat="40.513922" lon="-4.332295">
        <ele>912.67</ele>
        <time>2021-03-27T13:13:20Z</time>
      </trkpt>
      <trkpt lat="40.513853" lon="-4.334257">
        <ele>919.77</ele>
        <time>2021-03-27T13:13:22Z</time>
      </trkpt>
      <trkpt lat="40.513785" lon="-4.334767">
        <ele>920.6</ele>
        <time>2021-03-27T13:13:25Z</time>
      </trkpt>
      <trkpt lat="40.513569" lon="-4.335553">
        <ele>927.29</ele>
        <time>2021-03-27T13:13:28Z</time>
      </trkpt>
      <trkpt lat="40.513469" lon="-4.335994">
        <ele>928.8</ele>
        <time>2021-03-27T13:13:30Z</time>
      </trkpt>
      <trkpt lat="40.513415" lon="-4.336405">
        <ele>929.41</ele>
        <time>2021-03-27T13:13:33Z</time>
      </trkpt>
      <trkpt lat="40.513407" lon="-4.336811">
        <ele>929.85</ele>
        <time>2021-03-27T13:13:36Z</time>
      </trkpt>
      <trkpt lat="40.513434" lon="-4.338958">
        <ele>939.52</ele>
        <time>2021-03-27T13:13:39Z</time>
      </trkpt>
      <trkpt lat="40.513502" lon="-4.342591">
        <ele>956.57</ele>
        <time>2021-03-27T13:13:41Z</time>
      </trkpt>
      <trkpt lat="40.513534" lon="-4.34303">
        <ele>956.92</ele>
        <time>2021-03-27T13:13:44Z</time>
      </trkpt>
      <trkpt lat="40.513616" lon="-4.343421">
        <ele>955.7</ele>
        <time>2021-03-27T13:13:47Z</time>
      </trkpt>
      <trkpt lat="40.513735" lon="-4.343821">
        <ele>953.93</ele>
        <time>2021-03-27T13:13:50Z</time>
      </trkpt>
      <trkpt lat="40.5143" lon="-4.34522">
        <ele>948.99</ele>
        <time>2021-03-27T13:13:52Z</time>
      </trkpt>
      <trkpt lat="40.514401" lon="-4.34551">
        <ele>946.9</ele>
        <time>2021-03-27T13:13:55Z</time>
      </trkpt>
      <trkpt lat="40.514484" lon="-4.345901">
        <ele>945.46</ele>
        <time>2021-03-27T13:13:58Z</time>
      </trkpt>
      <trkpt lat="40.514516" lon="-4.346172">
        <ele>945.06</ele>
        <time>2021-03-27T13:14:01Z</time>
      </trkpt>
      <trkpt lat="40.514516" lon="-4.346476">
        <ele>944.22</ele>
        <time>2021-03-27T13:14:03Z</time>
      </trkpt>
      <trkpt lat="40.514492" lon="-4.346746">
        <ele>943.64</ele>
        <time>2021-03-27T13:14:06Z</time>
      </trkpt>
      <trkpt lat="40.514377" lon="-4.347274">
        <ele>938.04</ele>
        <time>2021-03-27T13:14:09Z</time>
      </trkpt>
      <trkpt lat="40.514162" lon="-4.347813">
        <ele>927.82</ele>
        <time>2021-03-27T13:14:11Z</time>
      </trkpt>
      <trkpt lat="40.514078" lon="-4.348094">
        <ele>925.91</ele>
        <time>2021-03-27T13:14:14Z</time>
      </trkpt>
      <trkpt lat="40.514014" lon="-4.348452">
        <ele>923.92</ele>
        <time>2021-03-27T13:14:17Z</time>
      </trkpt>
      <trkpt lat="40.513993" lon="-4.348794">
        <ele>922.3</ele>
        <time>2021-03-27T13:14:20Z</time>
      </trkpt>
      <trkpt lat="40.514008" lon="-4.349133">
        <ele>920.77</ele>
        <time>2021-03-27T13:14:22Z</time>
      </trkpt>
      <trkpt lat="40.514053" lon="-4.349464">
        <ele>918.59</ele>
        <time>2021-03-27T13:14:25Z</time>
      </trkpt>
      <trkpt lat="40.514337" lon="-4.351128">
        <ele>906.96</ele>
        <time>2021-03-27T13:14:28Z</time>
      </trkpt>
      <trkpt lat="40.514422" lon="-4.351547">
        <ele>906.63</ele>
        <time>2021-03-27T13:14:31Z</time>
      </trkpt>
      <trkpt lat="40.51449" lon="-4.351763">
        <ele>907.09</ele>
        <time>2021-03-27T13:14:33Z</time>
      </trkpt>
      <trkpt lat="40.514716" lon="-4.352354">
        <ele>903.06</ele>
        <time>2021-03-27T13:14:36Z</time>
      </trkpt>
      <trkpt lat="40.514812" lon="-4.352713">
        <ele>898.62</ele>
        <time>2021-03-27T13:14:39Z</time>
      </trkpt>
      <trkpt lat="40.51507" lon="-4.354376">
        <ele>893.13</ele>
        <time>2021-03-27T13:14:42Z</time>
      </trkpt>
      <trkpt lat="40.515144" lon="-4.35469">
        <ele>894.5</ele>
        <time>2021-03-27T13:14:44Z</time>
      </trkpt>
      <trkpt lat="40.515533" lon="-4.35608">
        <ele>887.95</ele>
        <time>2021-03-27T13:14:47Z</time>
      </trkpt>
      <trkpt lat="40.515622" lon="-4.356475">
        <ele>886.17</ele>
        <time>2021-03-27T13:14:50Z</time>
      </trkpt>
      <trkpt lat="40.515678" lon="-4.356826">
        <ele>884.73</ele>
        <time>2021-03-27T13:14:52Z</time>
      </trkpt>
      <trkpt lat="40.515742" lon="-4.357636">
        <ele>879.04</ele>
        <time>2021-03-27T13:14:55Z</time>
      </trkpt>
      <trkpt lat="40.515743" lon="-4.358071">
        <ele>876.35</ele>
        <time>2021-03-27T13:14:58Z</time>
      </trkpt>
      <trkpt lat="40.515689" lon="-4.359883">
        <ele>874.65</ele>
        <time>2021-03-27T13:15:01Z</time>
      </trkpt>
      <trkpt lat="40.515662" lon="-4.360249">
        <ele>873.25</ele>
        <time>2021-03-27T13:15:03Z</time>
      </trkpt>
      <trkpt lat="40.515499" lon="-4.361305">
        <ele>868.99</ele>
        <time>2021-03-27T13:15:06Z</time>
      </trkpt>
      <trkpt lat="40.515464" lon="-4.361675">
        <ele>863.57</ele>
        <time>2021-03-27T13:15:09Z</time>
      </trkpt>
      <trkpt lat="40.515469" lon="-4.362005">
        <ele>859.46</ele>
        <time>2021-03-27T13:15:12Z</time>
      </trkpt>
      <trkpt lat="40.515731" lon="-4.365425">
        <ele>851.66</ele>
        <time>2021-03-27T13:15:14Z</time>
      </trkpt>
      <trkpt lat="40.515734" lon="-4.365723">
        <ele>851.32</ele>
        <time>2021-03-27T13:15:17Z</time>
      </trkpt>
      <trkpt lat="40.515715" lon="-4.366054">
        <ele>850.97</ele>
        <time>2021-03-27T13:15:20Z</time>
      </trkpt>
      <trkpt lat="40.515657" lon="-4.366436">
        <ele>849.77</ele>
        <time>2021-03-27T13:15:22Z</time>
      </trkpt>
      <trkpt lat="40.515338" lon="-4.367991">
        <ele>846.48</ele>
        <time>2021-03-27T13:15:25Z</time>
      </trkpt>
      <trkpt lat="40.515217" lon="-4.368687">
        <ele>844.57</ele>
        <time>2021-03-27T13:15:28Z</time>
      </trkpt>
      <trkpt lat="40.515188" lon="-4.369236">
        <ele>842.07</ele>
        <time>2021-03-27T13:15:31Z</time>
      </trkpt>
      <trkpt lat="40.515229" lon="-4.369823">
        <ele>840.57</ele>
        <time>2021-03-27T13:15:33Z</time>
      </trkpt>
      <trkpt lat="40.515271" lon="-4.370119">
        <ele>838.68</ele>
        <time>2021-03-27T13:15:36Z</time>
      </trkpt>
      <trkpt lat="40.515362" lon="-4.370363">
        <ele>837.82</ele>
        <time>2021-03-27T13:15:39Z</time>
      </trkpt>
      <trkpt lat="40.515572" lon="-4.370763">
        <ele>836.93</ele>
        <time>2021-03-27T13:15:42Z</time>
      </trkpt>
      <trkpt lat="40.515653" lon="-4.371075">
        <ele>833.61</ele>
        <time>2021-03-27T13:15:44Z</time>
      </trkpt>
      <trkpt lat="40.515677" lon="-4.371386">
        <ele>830.23</ele>
        <time>2021-03-27T13:15:47Z</time>
      </trkpt>
      <trkpt lat="40.515619" lon="-4.371723">
        <ele>827.67</ele>
        <time>2021-03-27T13:15:50Z</time>
      </trkpt>
      <trkpt lat="40.515451" lon="-4.372275">
        <ele>827.03</ele>
        <time>2021-03-27T13:15:53Z</time>
      </trkpt>
      <trkpt lat="40.515428" lon="-4.372434">
        <ele>829.07</ele>
        <time>2021-03-27T13:15:55Z</time>
      </trkpt>
      <trkpt lat="40.515424" lon="-4.372596">
        <ele>831.5</ele>
        <time>2021-03-27T13:15:58Z</time>
      </trkpt>
      <trkpt lat="40.515436" lon="-4.372762">
        <ele>833.79</ele>
        <time>2021-03-27T13:16:01Z</time>
      </trkpt>
      <trkpt lat="40.515464" lon="-4.372901">
        <ele>834.22</ele>
        <time>2021-03-27T13:16:03Z</time>
      </trkpt>
      <trkpt lat="40.515639" lon="-4.373365">
        <ele>831.09</ele>
        <time>2021-03-27T13:16:06Z</time>
      </trkpt>
      <trkpt lat="40.515721" lon="-4.373659">
        <ele>830.6</ele>
        <time>2021-03-27T13:16:09Z</time>
      </trkpt>
      <trkpt lat="40.515743" lon="-4.373898">
        <ele>831.76</ele>
        <time>2021-03-27T13:16:12Z</time>
      </trkpt>
      <trkpt lat="40.515723" lon="-4.374825">
        <ele>841.44</ele>
        <time>2021-03-27T13:16:14Z</time>
      </trkpt>
      <trkpt lat="40.515622" lon="-4.377567">
        <ele>857.51</ele>
        <time>2021-03-27T13:16:17Z</time>
      </trkpt>
      <trkpt lat="40.515547" lon="-4.379112">
        <ele>859.08</ele>
        <time>2021-03-27T13:16:20Z</time>
      </trkpt>
      <trkpt lat="40.515196" lon="-4.381721">
        <ele>864.09</ele>
        <time>2021-03-27T13:16:23Z</time>
      </trkpt>
      <trkpt lat="40.515125" lon="-4.381952">
        <ele>867.24</ele>
        <time>2021-03-27T13:16:25Z</time>
      </trkpt>
      <trkpt lat="40.515036" lon="-4.382073">
        <ele>869.01</ele>
        <time>2021-03-27T13:16:28Z</time>
      </trkpt>
      <trkpt lat="40.514914" lon="-4.38213">
        <ele>871.1</ele>
        <time>2021-03-27T13:16:31Z</time>
      </trkpt>
      <trkpt lat="40.514786" lon="-4.382143">
        <ele>873.35</ele>
        <time>2021-03-27T13:16:34Z</time>
      </trkpt>
      <trkpt lat="40.514654" lon="-4.382081">
        <ele>875.34</ele>
        <time>2021-03-27T13:16:36Z</time>
      </trkpt>
      <trkpt lat="40.51453" lon="-4.381939">
        <ele>877.09</ele>
        <time>2021-03-27T13:16:39Z</time>
      </trkpt>
      <trkpt lat="40.514477" lon="-4.381752">
        <ele>876.22</ele>
        <time>2021-03-27T13:16:42Z</time>
      </trkpt>
      <trkpt lat="40.514446" lon="-4.378863">
        <ele>877.88</ele>
        <time>2021-03-27T13:16:44Z</time>
      </trkpt>
      <trkpt lat="40.514426" lon="-4.378668">
        <ele>877.72</ele>
        <time>2021-03-27T13:16:47Z</time>
      </trkpt>
      <trkpt lat="40.514365" lon="-4.378485">
        <ele>878.83</ele>
        <time>2021-03-27T13:16:50Z</time>
      </trkpt>
      <trkpt lat="40.514279" lon="-4.378407">
        <ele>881.04</ele>
        <time>2021-03-27T13:16:53Z</time>
      </trkpt>
      <trkpt lat="40.514183" lon="-4.378356">
        <ele>883.62</ele>
        <time>2021-03-27T13:16:55Z</time>
      </trkpt>
      <trkpt lat="40.513983" lon="-4.378381">
        <ele>889.34</ele>
        <time>2021-03-27T13:16:58Z</time>
      </trkpt>
      <trkpt lat="40.513895" lon="-4.378475">
        <ele>891.84</ele>
        <time>2021-03-27T13:17:01Z</time>
      </trkpt>
      <trkpt lat="40.513818" lon="-4.378638">
        <ele>892.99</ele>
        <time>2021-03-27T13:17:04Z</time>
      </trkpt>
      <trkpt lat="40.513533" lon="-4.379595">
        <ele>896.52</ele>
        <time>2021-03-27T13:17:06Z</time>
      </trkpt>
      <trkpt lat="40.513076" lon="-4.381739">
        <ele>903.16</ele>
        <time>2021-03-27T13:17:09Z</time>
      </trkpt>
      <trkpt lat="40.513062" lon="-4.382096">
        <ele>903.4</ele>
        <time>2021-03-27T13:17:12Z</time>
      </trkpt>
      <trkpt lat="40.513074" lon="-4.382465">
        <ele>906.28</ele>
        <time>2021-03-27T13:17:15Z</time>
      </trkpt>
      <trkpt lat="40.513005" lon="-4.382643">
        <ele>909.22</ele>
        <time>2021-03-27T13:17:17Z</time>
      </trkpt>
      <trkpt lat="40.512902" lon="-4.382761">
        <ele>912.73</ele>
        <time>2021-03-27T13:17:20Z</time>
      </trkpt>
      <trkpt lat="40.51276" lon="-4.382815">
        <ele>916.78</ele>
        <time>2021-03-27T13:17:23Z</time>
      </trkpt>
      <trkpt lat="40.512612" lon="-4.382774">
        <ele>919.54</ele>
        <time>2021-03-27T13:17:25Z</time>
      </trkpt>
      <trkpt lat="40.512469" lon="-4.382627">
        <ele>921.3</ele>
        <time>2021-03-27T13:17:28Z</time>
      </trkpt>
      <trkpt lat="40.512315" lon="-4.382424">
        <ele>922.29</ele>
        <time>2021-03-27T13:17:31Z</time>
      </trkpt>
      <trkpt lat="40.51217" lon="-4.38228">
        <ele>923.17</ele>
        <time>2021-03-27T13:17:34Z</time>
      </trkpt>
      <trkpt lat="40.512043" lon="-4.382252">
        <ele>923.04</ele>
        <time>2021-03-27T13:17:36Z</time>
      </trkpt>
      <trkpt lat="40.511919" lon="-4.382256">
        <ele>922.82</ele>
        <time>2021-03-27T13:17:39Z</time>
      </trkpt>
      <trkpt lat="40.511799" lon="-4.382316">
        <ele>921.95</ele>
        <time>2021-03-27T13:17:42Z</time>
      </trkpt>
      <trkpt lat="40.5117" lon="-4.382405">
        <ele>921.24</ele>
        <time>2021-03-27T13:17:45Z</time>
      </trkpt>
      <trkpt lat="40.511078" lon="-4.383506">
        <ele>913.65</ele>
        <time>2021-03-27T13:17:47Z</time>
      </trkpt>
      <trkpt lat="40.510117" lon="-4.384908">
        <ele>902.95</ele>
        <time>2021-03-27T13:17:50Z</time>
      </trkpt>
      <trkpt lat="40.509815" lon="-4.38531">
        <ele>904.11</ele>
        <time>2021-03-27T13:17:53Z</time>
      </trkpt>
      <trkpt lat="40.509525" lon="-4.3856">
        <ele>905.93</ele>
        <time>2021-03-27T13:17:55Z</time>
      </trkpt>
      <trkpt lat="40.509241" lon="-4.385817">
        <ele>909.31</ele>
        <time>2021-03-27T13:17:58Z</time>
      </trkpt>
      <trkpt lat="40.506958" lon="-4.387253">
        <ele>915.61</ele>
        <time>2021-03-27T13:18:01Z</time>
      </trkpt>
      <trkpt lat="40.506626" lon="-4.387542">
        <ele>919.87</ele>
        <time>2021-03-27T13:18:04Z</time>
      </trkpt>
      <trkpt lat="40.506347" lon="-4.387878">
        <ele>918.51</ele>
        <time>2021-03-27T13:18:06Z</time>
      </trkpt>
      <trkpt lat="40.506106" lon="-4.388281">
        <ele>917.33</ele>
        <time>2021-03-27T13:18:09Z</time>
      </trkpt>
      <trkpt lat="40.505626" lon="-4.389333">
        <ele>918.56</ele>
        <time>2021-03-27T13:18:12Z</time>
      </trkpt>
      <trkpt lat="40.505497" lon="-4.389449">
        <ele>919.02</ele>
        <time>2021-03-27T13:18:15Z</time>
      </trkpt>
      <trkpt lat="40.505305" lon="-4.389541">
        <ele>919.97</ele>
        <time>2021-03-27T13:18:17Z</time>
      </trkpt>
      <trkpt lat="40.505152" lon="-4.389534">
        <ele>919.66</ele>
        <time>2021-03-27T13:18:20Z</time>
      </trkpt>
      <trkpt lat="40.504993" lon="-4.389479">
        <ele>918.58</ele>
        <time>2021-03-27T13:18:23Z</time>
      </trkpt>
      <trkpt lat="40.504853" lon="-4.389338">
        <ele>919.02</ele>
        <time>2021-03-27T13:18:26Z</time>
      </trkpt>
      <trkpt lat="40.504725" lon="-4.38913">
        <ele>920.34</ele>
        <time>2021-03-27T13:18:28Z</time>
      </trkpt>
      <trkpt lat="40.504537" lon="-4.38872">
        <ele>927.82</ele>
        <time>2021-03-27T13:18:31Z</time>
      </trkpt>
      <trkpt lat="40.504449" lon="-4.388634">
        <ele>929.83</ele>
        <time>2021-03-27T13:18:34Z</time>
      </trkpt>
      <trkpt lat="40.504347" lon="-4.388619">
        <ele>931.04</ele>
        <time>2021-03-27T13:18:36Z</time>
      </trkpt>
      <trkpt lat="40.504234" lon="-4.388648">
        <ele>932.34</ele>
        <time>2021-03-27T13:18:39Z</time>
      </trkpt>
      <trkpt lat="40.504165" lon="-4.388749">
        <ele>933.54</ele>
        <time>2021-03-27T13:18:42Z</time>
      </trkpt>
      <trkpt lat="40.504111" lon="-4.388927">
        <ele>935.24</ele>
        <time>2021-03-27T13:18:45Z</time>
      </trkpt>
      <trkpt lat="40.50417" lon="-4.390233">
        <ele>943.6</ele>
        <time>2021-03-27T13:18:47Z</time>
      </trkpt>
      <trkpt lat="40.504159" lon="-4.390799">
        <ele>942.08</ele>
        <time>2021-03-27T13:18:50Z</time>
      </trkpt>
      <trkpt lat="40.503698" lon="-4.394005">
        <ele>919.47</ele>
        <time>2021-03-27T13:18:53Z</time>
      </trkpt>
      <trkpt lat="40.503692" lon="-4.394274">
        <ele>918.53</ele>
        <time>2021-03-27T13:18:56Z</time>
      </trkpt>
      <trkpt lat="40.503738" lon="-4.394613">
        <ele>917.94</ele>
        <time>2021-03-27T13:18:58Z</time>
      </trkpt>
      <trkpt lat="40.503863" lon="-4.394927">
        <ele>917.25</ele>
        <time>2021-03-27T13:19:01Z</time>
      </trkpt>
      <trkpt lat="40.504376" lon="-4.395592">
        <ele>916.1</ele>
        <time>2021-03-27T13:19:04Z</time>
      </trkpt>
      <trkpt lat="40.504577" lon="-4.395996">
        <ele>917.52</ele>
        <time>2021-03-27T13:19:07Z</time>
      </trkpt>
      <trkpt lat="40.504701" lon="-4.396391">
        <ele>915.74</ele>
        <time>2021-03-27T13:19:09Z</time>
      </trkpt>
      <trkpt lat="40.504914" lon="-4.397592">
        <ele>911.46</ele>
        <time>2021-03-27T13:19:12Z</time>
      </trkpt>
      <trkpt lat="40.505084" lon="-4.398069">
        <ele>908.14</ele>
        <time>2021-03-27T13:19:15Z</time>
      </trkpt>
      <trkpt lat="40.505863" lon="-4.399803">
        <ele>916.88</ele>
        <time>2021-03-27T13:19:17Z</time>
      </trkpt>
      <trkpt lat="40.505936" lon="-4.400131">
        <ele>917.28</ele>
        <time>2021-03-27T13:19:20Z</time>
      </trkpt>
      <trkpt lat="40.505951" lon="-4.400412">
        <ele>917.97</ele>
        <time>2021-03-27T13:19:23Z</time>
      </trkpt>
      <trkpt lat="40.505898" lon="-4.400721">
        <ele>919.21</ele>
        <time>2021-03-27T13:19:26Z</time>
      </trkpt>
      <trkpt lat="40.505808" lon="-4.400984">
        <ele>921.59</ele>
        <time>2021-03-27T13:19:28Z</time>
      </trkpt>
      <trkpt lat="40.505647" lon="-4.401214">
        <ele>923.86</ele>
        <time>2021-03-27T13:19:31Z</time>
      </trkpt>
      <trkpt lat="40.505417" lon="-4.401417">
        <ele>925.2</ele>
        <time>2021-03-27T13:19:34Z</time>
      </trkpt>
      <trkpt lat="40.504939" lon="-4.401638">
        <ele>926.55</ele>
        <time>2021-03-27T13:19:37Z</time>
      </trkpt>
      <trkpt lat="40.504779" lon="-4.401789">
        <ele>926.46</ele>
        <time>2021-03-27T13:19:39Z</time>
      </trkpt>
      <trkpt lat="40.504623" lon="-4.402029">
        <ele>925.74</ele>
        <time>2021-03-27T13:19:42Z</time>
      </trkpt>
      <trkpt lat="40.504534" lon="-4.402273">
        <ele>924.64</ele>
        <time>2021-03-27T13:19:45Z</time>
      </trkpt>
      <trkpt lat="40.504488" lon="-4.402455">
        <ele>924.32</ele>
        <time>2021-03-27T13:19:47Z</time>
      </trkpt>
      <trkpt lat="40.504477" lon="-4.402804">
        <ele>923.05</ele>
        <time>2021-03-27T13:19:50Z</time>
      </trkpt>
      <trkpt lat="40.504525" lon="-4.403081">
        <ele>921.64</ele>
        <time>2021-03-27T13:19:53Z</time>
      </trkpt>
      <trkpt lat="40.504841" lon="-4.404186">
        <ele>917.71</ele>
        <time>2021-03-27T13:19:56Z</time>
      </trkpt>
      <trkpt lat="40.5049" lon="-4.404546">
        <ele>915.68</ele>
        <time>2021-03-27T13:19:58Z</time>
      </trkpt>
      <trkpt lat="40.504896" lon="-4.404895">
        <ele>914.39</ele>
        <time>2021-03-27T13:20:01Z</time>
      </trkpt>
      <trkpt lat="40.504832" lon="-4.405257">
        <ele>912.87</ele>
        <time>2021-03-27T13:20:04Z</time>
      </trkpt>
      <trkpt lat="40.504679" lon="-4.405826">
        <ele>910.21</ele>
        <time>2021-03-27T13:20:07Z</time>
      </trkpt>
      <trkpt lat="40.504543" lon="-4.406204">
        <ele>908.87</ele>
        <time>2021-03-27T13:20:09Z</time>
      </trkpt>
      <trkpt lat="40.504414" lon="-4.406418">
        <ele>907.83</ele>
        <time>2021-03-27T13:20:12Z</time>
      </trkpt>
      <trkpt lat="40.504283" lon="-4.406562">
        <ele>908.25</ele>
        <time>2021-03-27T13:20:15Z</time>
      </trkpt>
      <trkpt lat="40.5041" lon="-4.406689">
        <ele>910.58</ele>
        <time>2021-03-27T13:20:18Z</time>
      </trkpt>
      <trkpt lat="40.503906" lon="-4.40675">
        <ele>912.46</ele>
        <time>2021-03-27T13:20:20Z</time>
      </trkpt>
      <trkpt lat="40.503691" lon="-4.406755">
        <ele>914.29</ele>
        <time>2021-03-27T13:20:23Z</time>
      </trkpt>
      <trkpt lat="40.502857" lon="-4.406553">
        <ele>914.53</ele>
        <time>2021-03-27T13:20:26Z</time>
      </trkpt>
      <trkpt lat="40.502665" lon="-4.406548">
        <ele>915.34</ele>
        <time>2021-03-27T13:20:28Z</time>
      </trkpt>
      <trkpt lat="40.50244" lon="-4.406604">
        <ele>917.4</ele>
        <time>2021-03-27T13:20:31Z</time>
      </trkpt>
      <trkpt lat="40.502227" lon="-4.406767">
        <ele>918.12</ele>
        <time>2021-03-27T13:20:34Z</time>
      </trkpt>
      <trkpt lat="40.502056" lon="-4.40697">
        <ele>917.73</ele>
        <time>2021-03-27T13:20:37Z</time>
      </trkpt>
      <trkpt lat="40.501957" lon="-4.407214">
        <ele>917.19</ele>
        <time>2021-03-27T13:20:39Z</time>
      </trkpt>
      <trkpt lat="40.50188" lon="-4.407486">
        <ele>916.32</ele>
        <time>2021-03-27T13:20:42Z</time>
      </trkpt>
      <trkpt lat="40.501864" lon="-4.407748">
        <ele>913.45</ele>
        <time>2021-03-27T13:20:45Z</time>
      </trkpt>
      <trkpt lat="40.5019" lon="-4.408097">
        <ele>911.06</ele>
        <time>2021-03-27T13:20:48Z</time>
      </trkpt>
      <trkpt lat="40.502271" lon="-4.408982">
        <ele>910.37</ele>
        <time>2021-03-27T13:20:50Z</time>
      </trkpt>
      <trkpt lat="40.5024" lon="-4.409349">
        <ele>907.16</ele>
        <time>2021-03-27T13:20:53Z</time>
      </trkpt>
      <trkpt lat="40.502469" lon="-4.409722">
        <ele>904.44</ele>
        <time>2021-03-27T13:20:56Z</time>
      </trkpt>
      <trkpt lat="40.502506" lon="-4.410271">
        <ele>902.19</ele>
        <time>2021-03-27T13:20:59Z</time>
      </trkpt>
      <trkpt lat="40.502517" lon="-4.411264">
        <ele>902.37</ele>
        <time>2021-03-27T13:21:01Z</time>
      </trkpt>
      <trkpt lat="40.502473" lon="-4.411673">
        <ele>902.76</ele>
        <time>2021-03-27T13:21:04Z</time>
      </trkpt>
      <trkpt lat="40.5024" lon="-4.412038">
        <ele>900.88</ele>
        <time>2021-03-27T13:21:07Z</time>
      </trkpt>
      <trkpt lat="40.502274" lon="-4.412451">
        <ele>898.75</ele>
        <time>2021-03-27T13:21:09Z</time>
      </trkpt>
      <trkpt lat="40.502036" lon="-4.412929">
        <ele>894.94</ele>
        <time>2021-03-27T13:21:12Z</time>
      </trkpt>
      <trkpt lat="40.501848" lon="-4.413193">
        <ele>891.73</ele>
        <time>2021-03-27T13:21:15Z</time>
      </trkpt>
      <trkpt lat="40.501696" lon="-4.413463">
        <ele>889.21</ele>
        <time>2021-03-27T13:21:18Z</time>
      </trkpt>
      <trkpt lat="40.50162" lon="-4.413733">
        <ele>888.96</ele>
        <time>2021-03-27T13:21:20Z</time>
      </trkpt>
      <trkpt lat="40.501599" lon="-4.413984">
        <ele>888.51</ele>
        <time>2021-03-27T13:21:23Z</time>
      </trkpt>
      <trkpt lat="40.501618" lon="-4.414238">
        <ele>887.02</ele>
        <time>2021-03-27T13:21:26Z</time>
      </trkpt>
      <trkpt lat="40.501703" lon="-4.414541">
        <ele>884.06</ele>
        <time>2021-03-27T13:21:29Z</time>
      </trkpt>
      <trkpt lat="40.502084" lon="-4.415429">
        <ele>879.9</ele>
        <time>2021-03-27T13:21:31Z</time>
      </trkpt>
      <trkpt lat="40.502147" lon="-4.415688">
        <ele>879.68</ele>
        <time>2021-03-27T13:21:34Z</time>
      </trkpt>
      <trkpt lat="40.502172" lon="-4.415957">
        <ele>879.53</ele>
        <time>2021-03-27T13:21:37Z</time>
      </trkpt>
      <trkpt lat="40.502138" lon="-4.41635">
        <ele>877.74</ele>
        <time>2021-03-27T13:21:40Z</time>
      </trkpt>
      <trkpt lat="40.502134" lon="-4.417144">
        <ele>876.95</ele>
        <time>2021-03-27T13:21:42Z</time>
      </trkpt>
      <trkpt lat="40.502216" lon="-4.417685">
        <ele>876.75</ele>
        <time>2021-03-27T13:21:45Z</time>
      </trkpt>
      <trkpt lat="40.502344" lon="-4.418151">
        <ele>878.33</ele>
        <time>2021-03-27T13:21:48Z</time>
      </trkpt>
      <trkpt lat="40.502587" lon="-4.418675">
        <ele>880.6</ele>
        <time>2021-03-27T13:21:50Z</time>
      </trkpt>
      <trkpt lat="40.50284" lon="-4.419085">
        <ele>879.27</ele>
        <time>2021-03-27T13:21:53Z</time>
      </trkpt>
      <trkpt lat="40.503295" lon="-4.419571">
        <ele>890.05</ele>
        <time>2021-03-27T13:21:56Z</time>
      </trkpt>
      <trkpt lat="40.50336" lon="-4.41968">
        <ele>891.79</ele>
        <time>2021-03-27T13:21:59Z</time>
      </trkpt>
      <trkpt lat="40.503382" lon="-4.419812">
        <ele>891.43</ele>
        <time>2021-03-27T13:22:01Z</time>
      </trkpt>
      <trkpt lat="40.50342" lon="-4.421447">
        <ele>888.3</ele>
        <time>2021-03-27T13:22:04Z</time>
      </trkpt>
      <trkpt lat="40.503477" lon="-4.421763">
        <ele>887.99</ele>
        <time>2021-03-27T13:22:07Z</time>
      </trkpt>
      <trkpt lat="40.503568" lon="-4.422093">
        <ele>888.76</ele>
        <time>2021-03-27T13:22:10Z</time>
      </trkpt>
      <trkpt lat="40.503804" lon="-4.422727">
        <ele>894.29</ele>
        <time>2021-03-27T13:22:12Z</time>
      </trkpt>
      <trkpt lat="40.503863" lon="-4.423019">
        <ele>895.73</ele>
        <time>2021-03-27T13:22:15Z</time>
      </trkpt>
      <trkpt lat="40.503894" lon="-4.423304">
        <ele>895.46</ele>
        <time>2021-03-27T13:22:18Z</time>
      </trkpt>
      <trkpt lat="40.503871" lon="-4.423715">
        <ele>892.35</ele>
        <time>2021-03-27T13:22:20Z</time>
      </trkpt>
      <trkpt lat="40.503811" lon="-4.423882">
        <ele>889.52</ele>
        <time>2021-03-27T13:22:23Z</time>
      </trkpt>
      <trkpt lat="40.50356" lon="-4.424382">
        <ele>889.65</ele>
        <time>2021-03-27T13:22:26Z</time>
      </trkpt>
      <trkpt lat="40.503425" lon="-4.424784">
        <ele>891.67</ele>
        <time>2021-03-27T13:22:29Z</time>
      </trkpt>
      <trkpt lat="40.503299" lon="-4.425561">
        <ele>892.74</ele>
        <time>2021-03-27T13:22:31Z</time>
      </trkpt>
      <trkpt lat="40.503252" lon="-4.42624">
        <ele>894.07</ele>
        <time>2021-03-27T13:22:34Z</time>
      </trkpt>
      <trkpt lat="40.503218" lon="-4.426417">
        <ele>895.67</ele>
        <time>2021-03-27T13:22:37Z</time>
      </trkpt>
      <trkpt lat="40.503135" lon="-4.426712">
        <ele>895.85</ele>
        <time>2021-03-27T13:22:40Z</time>
      </trkpt>
      <trkpt lat="40.50285" lon="-4.427379">
        <ele>893.97</ele>
        <time>2021-03-27T13:22:42Z</time>
      </trkpt>
      <trkpt lat="40.50268" lon="-4.427721">
        <ele>893.19</ele>
        <time>2021-03-27T13:22:45Z</time>
      </trkpt>
      <trkpt lat="40.502211" lon="-4.428412">
        <ele>893.3</ele>
        <time>2021-03-27T13:22:48Z</time>
      </trkpt>
      <trkpt lat="40.502076" lon="-4.428511">
        <ele>893.96</ele>
        <time>2021-03-27T13:22:51Z</time>
      </trkpt>
      <trkpt lat="40.501947" lon="-4.428549">
        <ele>893.67</ele>
        <time>2021-03-27T13:22:53Z</time>
      </trkpt>
      <trkpt lat="40.501857" lon="-4.428546">
        <ele>893.74</ele>
        <time>2021-03-27T13:22:56Z</time>
      </trkpt>
      <trkpt lat="40.501749" lon="-4.428481">
        <ele>892.85</ele>
        <time>2021-03-27T13:22:59Z</time>
      </trkpt>
      <trkpt lat="40.501676" lon="-4.428363">
        <ele>891.36</ele>
        <time>2021-03-27T13:23:01Z</time>
      </trkpt>
      <trkpt lat="40.501625" lon="-4.427919">
        <ele>885.25</ele>
        <time>2021-03-27T13:23:04Z</time>
      </trkpt>
      <trkpt lat="40.501558" lon="-4.427825">
        <ele>884.14</ele>
        <time>2021-03-27T13:23:07Z</time>
      </trkpt>
      <trkpt lat="40.501491" lon="-4.427778">
        <ele>883.63</ele>
        <time>2021-03-27T13:23:10Z</time>
      </trkpt>
      <trkpt lat="40.501253" lon="-4.427718">
        <ele>884.4</ele>
        <time>2021-03-27T13:23:12Z</time>
      </trkpt>
      <trkpt lat="40.501111" lon="-4.427629">
        <ele>884.86</ele>
        <time>2021-03-27T13:23:15Z</time>
      </trkpt>
      <trkpt lat="40.501011" lon="-4.427515">
        <ele>885.03</ele>
        <time>2021-03-27T13:23:18Z</time>
      </trkpt>
      <trkpt lat="40.500882" lon="-4.427245">
        <ele>883.89</ele>
        <time>2021-03-27T13:23:21Z</time>
      </trkpt>
      <trkpt lat="40.500763" lon="-4.426943">
        <ele>884.0</ele>
        <time>2021-03-27T13:23:23Z</time>
      </trkpt>
      <trkpt lat="40.500421" lon="-4.426407">
        <ele>886.01</ele>
        <time>2021-03-27T13:23:26Z</time>
      </trkpt>
      <trkpt lat="40.500344" lon="-4.42604">
        <ele>884.47</ele>
        <time>2021-03-27T13:23:29Z</time>
      </trkpt>
      <trkpt lat="40.500159" lon="-4.425679">
        <ele>883.8</ele>
        <time>2021-03-27T13:23:32Z</time>
      </trkpt>
      <trkpt lat="40.49997" lon="-4.425377">
        <ele>882.28</ele>
        <time>2021-03-27T13:23:34Z</time>
      </trkpt>
      <trkpt lat="40.499863" lon="-4.425302">
        <ele>882.25</ele>
        <time>2021-03-27T13:23:37Z</time>
      </trkpt>
      <trkpt lat="40.499755" lon="-4.425266">
        <ele>882.72</ele>
        <time>2021-03-27T13:23:40Z</time>
      </trkpt>
      <trkpt lat="40.49975" lon="-4.425321">
        <ele>883.27</ele>
        <time>2021-03-27T13:23:44Z</time>
      </trkpt>
      <trkpt lat="40.499729" lon="-4.425356">
        <ele>883.79</ele>
        <time>2021-03-27T13:23:49Z</time>
      </trkpt>
      <trkpt lat="40.499671" lon="-4.425374">
        <ele>884.22</ele>
        <time>2021-03-27T13:23:53Z</time>
      </trkpt>
      <trkpt lat="40.499635" lon="-4.425347">
        <ele>884.06</ele>
        <time>2021-03-27T13:23:58Z</time>
      </trkpt>
      <trkpt lat="40.498994" lon="-4.426276">
        <ele>889.58</ele>
        <time>2021-03-27T13:24:02Z</time>
      </trkpt>
      <trkpt lat="40.498767" lon="-4.426693">
        <ele>889.78</ele>
        <time>2021-03-27T13:24:07Z</time>
      </trkpt>
      <trkpt lat="40.498663" lon="-4.426637">
        <ele>888.52</ele>
        <time>2021-03-27T13:24:09Z</time>
      </trkpt>
      <trkpt lat="40.498608" lon="-4.426656">
        <ele>888.01</ele>
        <time>2021-03-27T13:24:11Z</time>
      </trkpt>
      <trkpt lat="40.498457" lon="-4.426744">
        <ele>888.68</ele>
        <time>2021-03-27T13:24:13Z</time>
      </trkpt>
      <trkpt lat="40.498061" lon="-4.427096">
        <ele>887.93</ele>
        <time>2021-03-27T13:24:15Z</time>
      </trkpt>
      <trkpt lat="40.497075" lon="-4.428251">
        <ele>880.68</ele>
        <time>2021-03-27T13:24:18Z</time>
      </trkpt>
      <trkpt lat="40.496962" lon="-4.428415">
        <ele>878.15</ele>
        <time>2021-03-27T13:24:20Z</time>
      </trkpt>
      <trkpt lat="40.496822" lon="-4.428888">
        <ele>874.12</ele>
        <time>2021-03-27T13:24:22Z</time>
      </trkpt>
      <trkpt lat="40.496683" lon="-4.429142">
        <ele>872.31</ele>
        <time>2021-03-27T13:24:24Z</time>
      </trkpt>
      <trkpt lat="40.496555" lon="-4.42933">
        <ele>872.82</ele>
        <time>2021-03-27T13:24:26Z</time>
      </trkpt>
      <trkpt lat="40.496429" lon="-4.429462">
        <ele>871.83</ele>
        <time>2021-03-27T13:24:29Z</time>
      </trkpt>
      <trkpt lat="40.496252" lon="-4.429598">
        <ele>870.66</ele>
        <time>2021-03-27T13:24:31Z</time>
      </trkpt>
      <trkpt lat="40.496039" lon="-4.429708">
        <ele>866.46</ele>
        <time>2021-03-27T13:24:33Z</time>
      </trkpt>
      <trkpt lat="40.4954" lon="-4.42985">
        <ele>856.95</ele>
        <time>2021-03-27T13:24:35Z</time>
      </trkpt>
      <trkpt lat="40.495159" lon="-4.429946">
        <ele>851.79</ele>
        <time>2021-03-27T13:24:37Z</time>
      </trkpt>
      <trkpt lat="40.494943" lon="-4.430094">
        <ele>848.2</ele>
        <time>2021-03-27T13:24:40Z</time>
      </trkpt>
      <trkpt lat="40.494768" lon="-4.430282">
        <ele>847.35</ele>
        <time>2021-03-27T13:24:42Z</time>
      </trkpt>
      <trkpt lat="40.494551" lon="-4.430618">
        <ele>848.12</ele>
        <time>2021-03-27T13:24:44Z</time>
      </trkpt>
      <trkpt lat="40.494376" lon="-4.430957">
        <ele>846.2</ele>
        <time>2021-03-27T13:24:46Z</time>
      </trkpt>
      <trkpt lat="40.494271" lon="-4.431296">
        <ele>843.67</ele>
        <time>2021-03-27T13:24:49Z</time>
      </trkpt>
      <trkpt lat="40.494226" lon="-4.431544">
        <ele>841.65</ele>
        <time>2021-03-27T13:24:51Z</time>
      </trkpt>
      <trkpt lat="40.494228" lon="-4.43174">
        <ele>840.35</ele>
        <time>2021-03-27T13:24:53Z</time>
      </trkpt>
      <trkpt lat="40.494401" lon="-4.43236">
        <ele>838.34</ele>
        <time>2021-03-27T13:24:55Z</time>
      </trkpt>
      <trkpt lat="40.494407" lon="-4.432571">
        <ele>836.65</ele>
        <time>2021-03-27T13:24:57Z</time>
      </trkpt>
      <trkpt lat="40.494372" lon="-4.432726">
        <ele>835.18</ele>
        <time>2021-03-27T13:25:00Z</time>
      </trkpt>
      <trkpt lat="40.494262" lon="-4.432838">
        <ele>833.94</ele>
        <time>2021-03-27T13:25:02Z</time>
      </trkpt>
      <trkpt lat="40.494123" lon="-4.432902">
        <ele>834.48</ele>
        <time>2021-03-27T13:25:04Z</time>
      </trkpt>
      <trkpt lat="40.494047" lon="-4.432918">
        <ele>835.96</ele>
        <time>2021-03-27T13:25:06Z</time>
      </trkpt>
      <trkpt lat="40.493938" lon="-4.432895">
        <ele>837.32</ele>
        <time>2021-03-27T13:25:08Z</time>
      </trkpt>
      <trkpt lat="40.493708" lon="-4.432758">
        <ele>837.53</ele>
        <time>2021-03-27T13:25:11Z</time>
      </trkpt>
      <trkpt lat="40.493576" lon="-4.432711">
        <ele>836.82</ele>
        <time>2021-03-27T13:25:13Z</time>
      </trkpt>
      <trkpt lat="40.493456" lon="-4.432734">
        <ele>835.67</ele>
        <time>2021-03-27T13:25:15Z</time>
      </trkpt>
      <trkpt lat="40.492878" lon="-4.433191">
        <ele>834.9</ele>
        <time>2021-03-27T13:25:17Z</time>
      </trkpt>
      <trkpt lat="40.492363" lon="-4.433624">
        <ele>834.37</ele>
        <time>2021-03-27T13:25:19Z</time>
      </trkpt>
      <trkpt lat="40.492181" lon="-4.433936">
        <ele>837.34</ele>
        <time>2021-03-27T13:25:22Z</time>
      </trkpt>
      <trkpt lat="40.491944" lon="-4.434184">
        <ele>835.3</ele>
        <time>2021-03-27T13:25:24Z</time>
      </trkpt>
      <trkpt lat="40.491197" lon="-4.435282">
        <ele>834.15</ele>
        <time>2021-03-27T13:25:26Z</time>
      </trkpt>
      <trkpt lat="40.490616" lon="-4.436306">
        <ele>839.09</ele>
        <time>2021-03-27T13:25:28Z</time>
      </trkpt>
      <trkpt lat="40.490035" lon="-4.437241">
        <ele>840.97</ele>
        <time>2021-03-27T13:25:31Z</time>
      </trkpt>
      <trkpt lat="40.489254" lon="-4.438236">
        <ele>840.96</ele>
        <time>2021-03-27T13:25:33Z</time>
      </trkpt>
      <trkpt lat="40.489074" lon="-4.438436">
        <ele>844.53</ele>
        <time>2021-03-27T13:25:35Z</time>
      </trkpt>
      <trkpt lat="40.488844" lon="-4.438488">
        <ele>844.13</ele>
        <time>2021-03-27T13:25:37Z</time>
      </trkpt>
      <trkpt lat="40.488319" lon="-4.438469">
        <ele>840.79</ele>
        <time>2021-03-27T13:25:39Z</time>
      </trkpt>
      <trkpt lat="40.488225" lon="-4.438508">
        <ele>841.02</ele>
        <time>2021-03-27T13:25:42Z</time>
      </trkpt>
      <trkpt lat="40.488117" lon="-4.438599">
        <ele>842.35</ele>
        <time>2021-03-27T13:25:44Z</time>
      </trkpt>
      <trkpt lat="40.488019" lon="-4.438761">
        <ele>846.12</ele>
        <time>2021-03-27T13:25:46Z</time>
      </trkpt>
      <trkpt lat="40.487949" lon="-4.439007">
        <ele>850.35</ele>
        <time>2021-03-27T13:25:48Z</time>
      </trkpt>
      <trkpt lat="40.487886" lon="-4.439333">
        <ele>853.38</ele>
        <time>2021-03-27T13:25:50Z</time>
      </trkpt>
      <trkpt lat="40.487882" lon="-4.439893">
        <ele>857.26</ele>
        <time>2021-03-27T13:25:53Z</time>
      </trkpt>
      <trkpt lat="40.487795" lon="-4.440096">
        <ele>858.1</ele>
        <time>2021-03-27T13:25:55Z</time>
      </trkpt>
      <trkpt lat="40.48753" lon="-4.440341">
        <ele>859.98</ele>
        <time>2021-03-27T13:25:57Z</time>
      </trkpt>
      <trkpt lat="40.48739" lon="-4.440522">
        <ele>859.67</ele>
        <time>2021-03-27T13:25:59Z</time>
      </trkpt>
      <trkpt lat="40.487089" lon="-4.441028">
        <ele>859.8</ele>
        <time>2021-03-27T13:26:01Z</time>
      </trkpt>
      <trkpt lat="40.486755" lon="-4.44136">
        <ele>863.77</ele>
        <time>2021-03-27T13:26:04Z</time>
      </trkpt>
      <trkpt lat="40.486615" lon="-4.44166">
        <ele>869.67</ele>
        <time>2021-03-27T13:26:06Z</time>
      </trkpt>
      <trkpt lat="40.486502" lon="-4.441859">
        <ele>873.16</ele>
        <time>2021-03-27T13:26:08Z</time>
      </trkpt>
      <trkpt lat="40.486405" lon="-4.441955">
        <ele>874.38</ele>
        <time>2021-03-27T13:26:10Z</time>
      </trkpt>
      <trkpt lat="40.486279" lon="-4.442011">
        <ele>874.97</ele>
        <time>2021-03-27T13:26:13Z</time>
      </trkpt>
      <trkpt lat="40.485451" lon="-4.442134">
        <ele>874.96</ele>
        <time>2021-03-27T13:26:15Z</time>
      </trkpt>
      <trkpt lat="40.485281" lon="-4.442201">
        <ele>875.71</ele>
        <time>2021-03-27T13:26:17Z</time>
      </trkpt>
      <trkpt lat="40.485178" lon="-4.442309">
        <ele>876.66</ele>
        <time>2021-03-27T13:26:19Z</time>
      </trkpt>
      <trkpt lat="40.484959" lon="-4.442736">
        <ele>881.1</ele>
        <time>2021-03-27T13:26:21Z</time>
      </trkpt>
      <trkpt lat="40.48485" lon="-4.44287">
        <ele>885.04</ele>
        <time>2021-03-27T13:26:24Z</time>
      </trkpt>
      <trkpt lat="40.484682" lon="-4.442904">
        <ele>889.05</ele>
        <time>2021-03-27T13:26:26Z</time>
      </trkpt>
      <trkpt lat="40.484255" lon="-4.442757">
        <ele>892.43</ele>
        <time>2021-03-27T13:26:28Z</time>
      </trkpt>
      <trkpt lat="40.483881" lon="-4.44267">
        <ele>895.87</ele>
        <time>2021-03-27T13:26:30Z</time>
      </trkpt>
      <trkpt lat="40.483675" lon="-4.4426">
        <ele>895.64</ele>
        <time>2021-03-27T13:26:32Z</time>
      </trkpt>
      <trkpt lat="40.483301" lon="-4.44237">
        <ele>896.77</ele>
        <time>2021-03-27T13:26:35Z</time>
      </trkpt>
      <trkpt lat="40.483101" lon="-4.442317">
        <ele>898.01</ele>
        <time>2021-03-27T13:26:37Z</time>
      </trkpt>
      <trkpt lat="40.48269" lon="-4.442454">
        <ele>899.0</ele>
        <time>2021-03-27T13:26:39Z</time>
      </trkpt>
      <trkpt lat="40.481961" lon="-4.442936">
        <ele>897.03</ele>
        <time>2021-03-27T13:26:41Z</time>
      </trkpt>
      <trkpt lat="40.481797" lon="-4.443102">
        <ele>896.55</ele>
        <time>2021-03-27T13:26:43Z</time>
      </trkpt>
      <trkpt lat="40.481681" lon="-4.443297">
        <ele>896.09</ele>
        <time>2021-03-27T13:26:46Z</time>
      </trkpt>
      <trkpt lat="40.481389" lon="-4.443722">
        <ele>893.6</ele>
        <time>2021-03-27T13:26:48Z</time>
      </trkpt>
      <trkpt lat="40.481236" lon="-4.443805">
        <ele>892.58</ele>
        <time>2021-03-27T13:26:50Z</time>
      </trkpt>
      <trkpt lat="40.481066" lon="-4.443818">
        <ele>891.67</ele>
        <time>2021-03-27T13:26:52Z</time>
      </trkpt>
      <trkpt lat="40.480884" lon="-4.443747">
        <ele>890.36</ele>
        <time>2021-03-27T13:26:55Z</time>
      </trkpt>
      <trkpt lat="40.480618" lon="-4.443393">
        <ele>888.29</ele>
        <time>2021-03-27T13:26:57Z</time>
      </trkpt>
      <trkpt lat="40.480406" lon="-4.443225">
        <ele>887.19</ele>
        <time>2021-03-27T13:26:59Z</time>
      </trkpt>
      <trkpt lat="40.480226" lon="-4.44318">
        <ele>886.49</ele>
        <time>2021-03-27T13:27:01Z</time>
      </trkpt>
      <trkpt lat="40.479995" lon="-4.443203">
        <ele>885.32</ele>
        <time>2021-03-27T13:27:03Z</time>
      </trkpt>
      <trkpt lat="40.479688" lon="-4.443354">
        <ele>881.97</ele>
        <time>2021-03-27T13:27:06Z</time>
      </trkpt>
      <trkpt lat="40.47939" lon="-4.443608">
        <ele>881.02</ele>
        <time>2021-03-27T13:27:08Z</time>
      </trkpt>
      <trkpt lat="40.4789" lon="-4.444126">
        <ele>875.44</ele>
        <time>2021-03-27T13:27:10Z</time>
      </trkpt>
      <trkpt lat="40.478633" lon="-4.444464">
        <ele>872.79</ele>
        <time>2021-03-27T13:27:12Z</time>
      </trkpt>
      <trkpt lat="40.477462" lon="-4.445364">
        <ele>864.25</ele>
        <time>2021-03-27T13:27:14Z</time>
      </trkpt>
      <trkpt lat="40.476942" lon="-4.445582">
        <ele>859.92</ele>
        <time>2021-03-27T13:27:17Z</time>
      </trkpt>
      <trkpt lat="40.476451" lon="-4.445863">
        <ele>857.9</ele>
        <time>2021-03-27T13:27:19Z</time>
      </trkpt>
      <trkpt lat="40.475978" lon="-4.446079">
        <ele>855.35</ele>
        <time>2021-03-27T13:27:21Z</time>
      </trkpt>
      <trkpt lat="40.475518" lon="-4.446259">
        <ele>852.32</ele>
        <time>2021-03-27T13:27:23Z</time>
      </trkpt>
      <trkpt lat="40.475317" lon="-4.44638">
        <ele>850.37</ele>
        <time>2021-03-27T13:27:25Z</time>
      </trkpt>
      <trkpt lat="40.475146" lon="-4.446602">
        <ele>848.69</ele>
        <time>2021-03-27T13:27:28Z</time>
      </trkpt>
      <trkpt lat="40.474071" lon="-4.448444">
        <ele>841.97</ele>
        <time>2021-03-27T13:27:30Z</time>
      </trkpt>
      <trkpt lat="40.473859" lon="-4.448725">
        <ele>839.23</ele>
        <time>2021-03-27T13:27:32Z</time>
      </trkpt>
      <trkpt lat="40.473567" lon="-4.448962">
        <ele>838.43</ele>
        <time>2021-03-27T13:27:34Z</time>
      </trkpt>
      <trkpt lat="40.472995" lon="-4.449381">
        <ele>829.25</ele>
        <time>2021-03-27T13:27:36Z</time>
      </trkpt>
      <trkpt lat="40.472007" lon="-4.450279">
        <ele>820.55</ele>
        <time>2021-03-27T13:27:39Z</time>
      </trkpt>
      <trkpt lat="40.471469" lon="-4.450744">
        <ele>816.58</ele>
        <time>2021-03-27T13:27:41Z</time>
      </trkpt>
      <trkpt lat="40.471328" lon="-4.450939">
        <ele>813.94</ele>
        <time>2021-03-27T13:27:43Z</time>
      </trkpt>
      <trkpt lat="40.471167" lon="-4.451286">
        <ele>811.15</ele>
        <time>2021-03-27T13:27:45Z</time>
      </trkpt>
      <trkpt lat="40.47105" lon="-4.451433">
        <ele>810.18</ele>
        <time>2021-03-27T13:27:48Z</time>
      </trkpt>
      <trkpt lat="40.470462" lon="-4.451961">
        <ele>808.42</ele>
        <time>2021-03-27T13:27:50Z</time>
      </trkpt>
      <trkpt lat="40.470189" lon="-4.452259">
        <ele>807.41</ele>
        <time>2021-03-27T13:27:52Z</time>
      </trkpt>
      <trkpt lat="40.470085" lon="-4.452482">
        <ele>806.24</ele>
        <time>2021-03-27T13:27:54Z</time>
      </trkpt>
      <trkpt lat="40.470063" lon="-4.452706">
        <ele>805.91</ele>
        <time>2021-03-27T13:27:56Z</time>
      </trkpt>
      <trkpt lat="40.469964" lon="-4.453009">
        <ele>804.78</ele>
        <time>2021-03-27T13:27:59Z</time>
      </trkpt>
      <trkpt lat="40.469777" lon="-4.45333">
        <ele>809.15</ele>
        <time>2021-03-27T13:28:01Z</time>
      </trkpt>
      <trkpt lat="40.469661" lon="-4.453398">
        <ele>811.56</ele>
        <time>2021-03-27T13:28:03Z</time>
      </trkpt>
      <trkpt lat="40.469378" lon="-4.453422">
        <ele>813.28</ele>
        <time>2021-03-27T13:28:05Z</time>
      </trkpt>
      <trkpt lat="40.469219" lon="-4.453458">
        <ele>813.8</ele>
        <time>2021-03-27T13:28:07Z</time>
      </trkpt>
      <trkpt lat="40.468925" lon="-4.453627">
        <ele>815.42</ele>
        <time>2021-03-27T13:28:10Z</time>
      </trkpt>
      <trkpt lat="40.468555" lon="-4.45393">
        <ele>819.48</ele>
        <time>2021-03-27T13:28:12Z</time>
      </trkpt>
      <trkpt lat="40.468027" lon="-4.454529">
        <ele>825.4</ele>
        <time>2021-03-27T13:28:14Z</time>
      </trkpt>
      <trkpt lat="40.467959" lon="-4.454587">
        <ele>825.33</ele>
        <time>2021-03-27T13:28:16Z</time>
      </trkpt>
      <trkpt lat="40.467731" lon="-4.454684">
        <ele>824.85</ele>
        <time>2021-03-27T13:28:18Z</time>
      </trkpt>
      <trkpt lat="40.46758" lon="-4.454676">
        <ele>825.15</ele>
        <time>2021-03-27T13:28:21Z</time>
      </trkpt>
      <trkpt lat="40.467136" lon="-4.454544">
        <ele>828.09</ele>
        <time>2021-03-27T13:28:23Z</time>
      </trkpt>
      <trkpt lat="40.466928" lon="-4.454532">
        <ele>830.43</ele>
        <time>2021-03-27T13:28:25Z</time>
      </trkpt>
      <trkpt lat="40.466773" lon="-4.454567">
        <ele>831.68</ele>
        <time>2021-03-27T13:28:27Z</time>
      </trkpt>
      <trkpt lat="40.466551" lon="-4.454744">
        <ele>832.66</ele>
        <time>2021-03-27T13:28:30Z</time>
      </trkpt>
      <trkpt lat="40.466068" lon="-4.455405">
        <ele>830.99</ele>
        <time>2021-03-27T13:28:32Z</time>
      </trkpt>
      <trkpt lat="40.465878" lon="-4.455616">
        <ele>830.96</ele>
        <time>2021-03-27T13:28:34Z</time>
      </trkpt>
      <trkpt lat="40.465309" lon="-4.456037">
        <ele>826.92</ele>
        <time>2021-03-27T13:28:36Z</time>
      </trkpt>
      <trkpt lat="40.465114" lon="-4.456215">
        <ele>823.62</ele>
        <time>2021-03-27T13:28:38Z</time>
      </trkpt>
      <trkpt lat="40.464894" lon="-4.456554">
        <ele>821.26</ele>
        <time>2021-03-27T13:28:41Z</time>
      </trkpt>
      <trkpt lat="40.464783" lon="-4.456872">
        <ele>820.26</ele>
        <time>2021-03-27T13:28:43Z</time>
      </trkpt>
      <trkpt lat="40.464622" lon="-4.457443">
        <ele>817.5</ele>
        <time>2021-03-27T13:28:45Z</time>
      </trkpt>
      <trkpt lat="40.464416" lon="-4.458461">
        <ele>813.29</ele>
        <time>2021-03-27T13:28:47Z</time>
      </trkpt>
      <trkpt lat="40.464314" lon="-4.458723">
        <ele>810.88</ele>
        <time>2021-03-27T13:28:49Z</time>
      </trkpt>
      <trkpt lat="40.463536" lon="-4.459955">
        <ele>802.54</ele>
        <time>2021-03-27T13:28:52Z</time>
      </trkpt>
      <trkpt lat="40.463217" lon="-4.460515">
        <ele>799.76</ele>
        <time>2021-03-27T13:28:54Z</time>
      </trkpt>
      <trkpt lat="40.461726" lon="-4.463286">
        <ele>792.82</ele>
        <time>2021-03-27T13:28:56Z</time>
      </trkpt>
      <trkpt lat="40.461493" lon="-4.463666">
        <ele>790.83</ele>
        <time>2021-03-27T13:28:58Z</time>
      </trkpt>
      <trkpt lat="40.460988" lon="-4.464263">
        <ele>790.0</ele>
        <time>2021-03-27T13:29:01Z</time>
      </trkpt>
      <trkpt lat="40.461473" lon="-4.464943">
        <ele>796.73</ele>
        <time>2021-03-27T13:29:02Z</time>
      </trkpt>
      <trkpt lat="40.46168" lon="-4.46528">
        <ele>797.11</ele>
        <time>2021-03-27T13:29:04Z</time>
      </trkpt>
      <trkpt lat="40.461712" lon="-4.465362">
        <ele>797.63</ele>
        <time>2021-03-27T13:29:05Z</time>
      </trkpt>
      <trkpt lat="40.461734" lon="-4.465494">
        <ele>798.26</ele>
        <time>2021-03-27T13:29:07Z</time>
      </trkpt>
      <trkpt lat="40.46166" lon="-4.466917">
        <ele>801.93</ele>
        <time>2021-03-27T13:29:09Z</time>
      </trkpt>
      <trkpt lat="40.461703" lon="-4.467077">
        <ele>802.23</ele>
        <time>2021-03-27T13:29:10Z</time>
      </trkpt>
      <trkpt lat="40.461867" lon="-4.467506">
        <ele>806.35</ele>
        <time>2021-03-27T13:29:12Z</time>
      </trkpt>
      <trkpt lat="40.461953" lon="-4.467834">
        <ele>809.07</ele>
        <time>2021-03-27T13:29:13Z</time>
      </trkpt>
      <trkpt lat="40.462052" lon="-4.469017">
        <ele>816.84</ele>
        <time>2021-03-27T13:29:15Z</time>
      </trkpt>
      <trkpt lat="40.462361" lon="-4.470825">
        <ele>822.49</ele>
        <time>2021-03-27T13:29:17Z</time>
      </trkpt>
      <trkpt lat="40.462399" lon="-4.471158">
        <ele>824.78</ele>
        <time>2021-03-27T13:29:18Z</time>
      </trkpt>
      <trkpt lat="40.462411" lon="-4.4715">
        <ele>826.84</ele>
        <time>2021-03-27T13:29:20Z</time>
      </trkpt>
      <trkpt lat="40.462395" lon="-4.471927">
        <ele>829.74</ele>
        <time>2021-03-27T13:29:21Z</time>
      </trkpt>
      <trkpt lat="40.462378" lon="-4.471997">
        <ele>830.06</ele>
        <time>2021-03-27T13:29:23Z</time>
      </trkpt>
      <trkpt lat="40.46229" lon="-4.472141">
        <ele>830.15</ele>
        <time>2021-03-27T13:29:25Z</time>
      </trkpt>
      <trkpt lat="40.462122" lon="-4.472262">
        <ele>829.47</ele>
        <time>2021-03-27T13:29:26Z</time>
      </trkpt>
      <trkpt lat="40.461932" lon="-4.472338">
        <ele>828.96</ele>
        <time>2021-03-27T13:29:28Z</time>
      </trkpt>
      <trkpt lat="40.461794" lon="-4.472328">
        <ele>830.26</ele>
        <time>2021-03-27T13:29:29Z</time>
      </trkpt>
      <trkpt lat="40.461628" lon="-4.472252">
        <ele>831.39</ele>
        <time>2021-03-27T13:29:31Z</time>
      </trkpt>
      <trkpt lat="40.46095" lon="-4.471663">
        <ele>834.69</ele>
        <time>2021-03-27T13:29:33Z</time>
      </trkpt>
      <trkpt lat="40.460851" lon="-4.4716">
        <ele>834.82</ele>
        <time>2021-03-27T13:29:34Z</time>
      </trkpt>
      <trkpt lat="40.460649" lon="-4.471514">
        <ele>836.39</ele>
        <time>2021-03-27T13:29:36Z</time>
      </trkpt>
      <trkpt lat="40.460448" lon="-4.471484">
        <ele>837.96</ele>
        <time>2021-03-27T13:29:37Z</time>
      </trkpt>
      <trkpt lat="40.460338" lon="-4.471504">
        <ele>839.38</ele>
        <time>2021-03-27T13:29:39Z</time>
      </trkpt>
      <trkpt lat="40.460142" lon="-4.471579">
        <ele>841.94</ele>
        <time>2021-03-27T13:29:41Z</time>
      </trkpt>
      <trkpt lat="40.459841" lon="-4.471773">
        <ele>844.81</ele>
        <time>2021-03-27T13:29:42Z</time>
      </trkpt>
      <trkpt lat="40.459058" lon="-4.472117">
        <ele>849.27</ele>
        <time>2021-03-27T13:29:44Z</time>
      </trkpt>
      <trkpt lat="40.458868" lon="-4.472232">
        <ele>850.94</ele>
        <time>2021-03-27T13:29:45Z</time>
      </trkpt>
      <trkpt lat="40.458711" lon="-4.472413">
        <ele>852.82</ele>
        <time>2021-03-27T13:29:47Z</time>
      </trkpt>
      <trkpt lat="40.458601" lon="-4.472596">
        <ele>854.11</ele>
        <time>2021-03-27T13:29:49Z</time>
      </trkpt>
      <trkpt lat="40.458384" lon="-4.473092">
        <ele>853.91</ele>
        <time>2021-03-27T13:29:50Z</time>
      </trkpt>
      <trkpt lat="40.458351" lon="-4.473292">
        <ele>854.27</ele>
        <time>2021-03-27T13:29:52Z</time>
      </trkpt>
      <trkpt lat="40.458367" lon="-4.473443">
        <ele>855.14</ele>
        <time>2021-03-27T13:29:53Z</time>
      </trkpt>
      <trkpt lat="40.458574" lon="-4.473979">
        <ele>862.42</ele>
        <time>2021-03-27T13:29:55Z</time>
      </trkpt>
      <trkpt lat="40.458713" lon="-4.474277">
        <ele>866.27</ele>
        <time>2021-03-27T13:29:57Z</time>
      </trkpt>
      <trkpt lat="40.45878" lon="-4.474505">
        <ele>867.94</ele>
        <time>2021-03-27T13:29:58Z</time>
      </trkpt>
      <trkpt lat="40.458794" lon="-4.474754">
        <ele>868.24</ele>
        <time>2021-03-27T13:30:00Z</time>
      </trkpt>
      <trkpt lat="40.458786" lon="-4.47491">
        <ele>869.51</ele>
        <time>2021-03-27T13:30:01Z</time>
      </trkpt>
      <trkpt lat="40.458737" lon="-4.475241">
        <ele>873.59</ele>
        <time>2021-03-27T13:30:03Z</time>
      </trkpt>
      <trkpt lat="40.458691" lon="-4.475331">
        <ele>874.62</ele>
        <time>2021-03-27T13:30:05Z</time>
      </trkpt>
      <trkpt lat="40.458639" lon="-4.475374">
        <ele>874.82</ele>
        <time>2021-03-27T13:30:06Z</time>
      </trkpt>
      <trkpt lat="40.458555" lon="-4.475386">
        <ele>874.61</ele>
        <time>2021-03-27T13:30:08Z</time>
      </trkpt>
      <trkpt lat="40.458222" lon="-4.47525">
        <ele>870.65</ele>
        <time>2021-03-27T13:30:09Z</time>
      </trkpt>
      <trkpt lat="40.458022" lon="-4.475229">
        <ele>871.02</ele>
        <time>2021-03-27T13:30:11Z</time>
      </trkpt>
      <trkpt lat="40.457817" lon="-4.475245">
        <ele>872.89</ele>
        <time>2021-03-27T13:30:13Z</time>
      </trkpt>
      <trkpt lat="40.457535" lon="-4.475302">
        <ele>872.04</ele>
        <time>2021-03-27T13:30:14Z</time>
      </trkpt>
      <trkpt lat="40.457295" lon="-4.475441">
        <ele>873.61</ele>
        <time>2021-03-27T13:30:16Z</time>
      </trkpt>
      <trkpt lat="40.457197" lon="-4.475535">
        <ele>875.82</ele>
        <time>2021-03-27T13:30:17Z</time>
      </trkpt>
      <trkpt lat="40.456996" lon="-4.475848">
        <ele>880.2</ele>
        <time>2021-03-27T13:30:19Z</time>
      </trkpt>
      <trkpt lat="40.456887" lon="-4.475983">
        <ele>881.28</ele>
        <time>2021-03-27T13:30:21Z</time>
      </trkpt>
      <trkpt lat="40.456744" lon="-4.476114">
        <ele>882.62</ele>
        <time>2021-03-27T13:30:22Z</time>
      </trkpt>
      <trkpt lat="40.456643" lon="-4.476148">
        <ele>882.83</ele>
        <time>2021-03-27T13:30:24Z</time>
      </trkpt>
      <trkpt lat="40.456284" lon="-4.476085">
        <ele>884.2</ele>
        <time>2021-03-27T13:30:25Z</time>
      </trkpt>
      <trkpt lat="40.456217" lon="-4.476089">
        <ele>884.76</ele>
        <time>2021-03-27T13:30:27Z</time>
      </trkpt>
      <trkpt lat="40.456155" lon="-4.476147">
        <ele>885.87</ele>
        <time>2021-03-27T13:30:29Z</time>
      </trkpt>
      <trkpt lat="40.456135" lon="-4.476246">
        <ele>886.44</ele>
        <time>2021-03-27T13:30:30Z</time>
      </trkpt>
      <trkpt lat="40.456145" lon="-4.476303">
        <ele>886.7</ele>
        <time>2021-03-27T13:30:32Z</time>
      </trkpt>
      <trkpt lat="40.456184" lon="-4.476375">
        <ele>887.18</ele>
        <time>2021-03-27T13:30:33Z</time>
      </trkpt>
      <trkpt lat="40.456288" lon="-4.476447">
        <ele>888.4</ele>
        <time>2021-03-27T13:30:35Z</time>
      </trkpt>
      <trkpt lat="40.456453" lon="-4.476488">
        <ele>889.36</ele>
        <time>2021-03-27T13:30:37Z</time>
      </trkpt>
      <trkpt lat="40.456601" lon="-4.476501">
        <ele>889.46</ele>
        <time>2021-03-27T13:30:38Z</time>
      </trkpt>
      <trkpt lat="40.456979" lon="-4.476441">
        <ele>890.82</ele>
        <time>2021-03-27T13:30:40Z</time>
      </trkpt>
      <trkpt lat="40.457456" lon="-4.476241">
        <ele>891.58</ele>
        <time>2021-03-27T13:30:41Z</time>
      </trkpt>
      <trkpt lat="40.457651" lon="-4.476184">
        <ele>891.94</ele>
        <time>2021-03-27T13:30:43Z</time>
      </trkpt>
      <trkpt lat="40.457888" lon="-4.476179">
        <ele>893.67</ele>
        <time>2021-03-27T13:30:45Z</time>
      </trkpt>
      <trkpt lat="40.457989" lon="-4.476208">
        <ele>895.05</ele>
        <time>2021-03-27T13:30:46Z</time>
      </trkpt>
      <trkpt lat="40.458184" lon="-4.476324">
        <ele>897.2</ele>
        <time>2021-03-27T13:30:48Z</time>
      </trkpt>
      <trkpt lat="40.458274" lon="-4.476404">
        <ele>897.94</ele>
        <time>2021-03-27T13:30:49Z</time>
      </trkpt>
      <trkpt lat="40.458365" lon="-4.476508">
        <ele>898.82</ele>
        <time>2021-03-27T13:30:51Z</time>
      </trkpt>
      <trkpt lat="40.458605" lon="-4.476856">
        <ele>900.84</ele>
        <time>2021-03-27T13:30:53Z</time>
      </trkpt>
      <trkpt lat="40.458979" lon="-4.477251">
        <ele>904.09</ele>
        <time>2021-03-27T13:30:54Z</time>
      </trkpt>
      <trkpt lat="40.4591" lon="-4.477406">
        <ele>905.89</ele>
        <time>2021-03-27T13:30:56Z</time>
      </trkpt>
      <trkpt lat="40.459152" lon="-4.477437">
        <ele>906.15</ele>
        <time>2021-03-27T13:30:57Z</time>
      </trkpt>
      <trkpt lat="40.459271" lon="-4.477433">
        <ele>907.54</ele>
        <time>2021-03-27T13:30:59Z</time>
      </trkpt>
      <trkpt lat="40.459315" lon="-4.477396">
        <ele>907.65</ele>
        <time>2021-03-27T13:31:01Z</time>
      </trkpt>
      <trkpt lat="40.459558" lon="-4.477022">
        <ele>905.03</ele>
        <time>2021-03-27T13:31:02Z</time>
      </trkpt>
      <trkpt lat="40.459765" lon="-4.476804">
        <ele>905.84</ele>
        <time>2021-03-27T13:31:04Z</time>
      </trkpt>
      <trkpt lat="40.459858" lon="-4.476654">
        <ele>906.98</ele>
        <time>2021-03-27T13:31:05Z</time>
      </trkpt>
      <trkpt lat="40.459911" lon="-4.476401">
        <ele>909.05</ele>
        <time>2021-03-27T13:31:07Z</time>
      </trkpt>
      <trkpt lat="40.45998" lon="-4.475839">
        <ele>912.42</ele>
        <time>2021-03-27T13:31:09Z</time>
      </trkpt>
      <trkpt lat="40.460032" lon="-4.475678">
        <ele>913.01</ele>
        <time>2021-03-27T13:31:10Z</time>
      </trkpt>
      <trkpt lat="40.460262" lon="-4.475144">
        <ele>912.76</ele>
        <time>2021-03-27T13:31:12Z</time>
      </trkpt>
      <trkpt lat="40.460314" lon="-4.475072">
        <ele>912.78</ele>
        <time>2021-03-27T13:31:13Z</time>
      </trkpt>
      <trkpt lat="40.460367" lon="-4.475034">
        <ele>912.89</ele>
        <time>2021-03-27T13:31:15Z</time>
      </trkpt>
      <trkpt lat="40.460419" lon="-4.475028">
        <ele>913.22</ele>
        <time>2021-03-27T13:31:17Z</time>
      </trkpt>
      <trkpt lat="40.460498" lon="-4.47507">
        <ele>914.09</ele>
        <time>2021-03-27T13:31:18Z</time>
      </trkpt>
      <trkpt lat="40.460551" lon="-4.475173">
        <ele>915.22</ele>
        <time>2021-03-27T13:31:20Z</time>
      </trkpt>
      <trkpt lat="40.460563" lon="-4.475251">
        <ele>915.66</ele>
        <time>2021-03-27T13:31:21Z</time>
      </trkpt>
      <trkpt lat="40.460554" lon="-4.475573">
        <ele>918.12</ele>
        <time>2021-03-27T13:31:23Z</time>
      </trkpt>
      <trkpt lat="40.460446" lon="-4.476254">
        <ele>921.03</ele>
        <time>2021-03-27T13:31:25Z</time>
      </trkpt>
      <trkpt lat="40.460442" lon="-4.476354">
        <ele>921.27</ele>
        <time>2021-03-27T13:31:26Z</time>
      </trkpt>
      <trkpt lat="40.460448" lon="-4.476474">
        <ele>921.84</ele>
        <time>2021-03-27T13:31:28Z</time>
      </trkpt>
      <trkpt lat="40.460597" lon="-4.477108">
        <ele>926.1</ele>
        <time>2021-03-27T13:31:29Z</time>
      </trkpt>
      <trkpt lat="40.460597" lon="-4.477509">
        <ele>928.67</ele>
        <time>2021-03-27T13:31:31Z</time>
      </trkpt>
      <trkpt lat="40.460543" lon="-4.477758">
        <ele>929.77</ele>
        <time>2021-03-27T13:31:33Z</time>
      </trkpt>
      <trkpt lat="40.460405" lon="-4.477983">
        <ele>931.88</ele>
        <time>2021-03-27T13:31:34Z</time>
      </trkpt>
      <trkpt lat="40.460071" lon="-4.478409">
        <ele>936.13</ele>
        <time>2021-03-27T13:31:36Z</time>
      </trkpt>
      <trkpt lat="40.459568" lon="-4.479187">
        <ele>944.62</ele>
        <time>2021-03-27T13:31:37Z</time>
      </trkpt>
      <trkpt lat="40.459406" lon="-4.479391">
        <ele>945.41</ele>
        <time>2021-03-27T13:31:39Z</time>
      </trkpt>
      <trkpt lat="40.459184" lon="-4.479556">
        <ele>944.72</ele>
        <time>2021-03-27T13:31:41Z</time>
      </trkpt>
      <trkpt lat="40.458563" lon="-4.47991">
        <ele>945.22</ele>
        <time>2021-03-27T13:31:42Z</time>
      </trkpt>
      <trkpt lat="40.45848" lon="-4.479999">
        <ele>944.62</ele>
        <time>2021-03-27T13:31:44Z</time>
      </trkpt>
      <trkpt lat="40.458452" lon="-4.48006">
        <ele>944.33</ele>
        <time>2021-03-27T13:31:45Z</time>
      </trkpt>
      <trkpt lat="40.458438" lon="-4.480197">
        <ele>944.41</ele>
        <time>2021-03-27T13:31:47Z</time>
      </trkpt>
      <trkpt lat="40.458444" lon="-4.480283">
        <ele>944.79</ele>
        <time>2021-03-27T13:31:49Z</time>
      </trkpt>
      <trkpt lat="40.458473" lon="-4.480393">
        <ele>945.53</ele>
        <time>2021-03-27T13:31:50Z</time>
      </trkpt>
      <trkpt lat="40.458566" lon="-4.480624">
        <ele>948.47</ele>
        <time>2021-03-27T13:31:52Z</time>
      </trkpt>
      <trkpt lat="40.458618" lon="-4.480947">
        <ele>950.26</ele>
        <time>2021-03-27T13:31:53Z</time>
      </trkpt>
      <trkpt lat="40.458567" lon="-4.481685">
        <ele>949.39</ele>
        <time>2021-03-27T13:31:55Z</time>
      </trkpt>
      <trkpt lat="40.4584" lon="-4.483263">
        <ele>959.0</ele>
        <time>2021-03-27T13:31:57Z</time>
      </trkpt>
      <trkpt lat="40.458408" lon="-4.48366">
        <ele>960.14</ele>
        <time>2021-03-27T13:31:58Z</time>
      </trkpt>
      <trkpt lat="40.458459" lon="-4.483915">
        <ele>962.82</ele>
        <time>2021-03-27T13:32:00Z</time>
      </trkpt>
      <trkpt lat="40.458659" lon="-4.484364">
        <ele>968.15</ele>
        <time>2021-03-27T13:32:01Z</time>
      </trkpt>
      <trkpt lat="40.458753" lon="-4.484663">
        <ele>969.81</ele>
        <time>2021-03-27T13:32:03Z</time>
      </trkpt>
      <trkpt lat="40.458903" lon="-4.484935">
        <ele>974.44</ele>
        <time>2021-03-27T13:32:05Z</time>
      </trkpt>
      <trkpt lat="40.45893" lon="-4.485017">
        <ele>975.41</ele>
        <time>2021-03-27T13:32:06Z</time>
      </trkpt>
      <trkpt lat="40.458889" lon="-4.485238">
        <ele>977.41</ele>
        <time>2021-03-27T13:32:08Z</time>
      </trkpt>
      <trkpt lat="40.458869" lon="-4.485273">
        <ele>977.51</ele>
        <time>2021-03-27T13:32:09Z</time>
      </trkpt>
      <trkpt lat="40.458687" lon="-4.485442">
        <ele>977.19</ele>
        <time>2021-03-27T13:32:11Z</time>
      </trkpt>
      <trkpt lat="40.45802" lon="-4.485936">
        <ele>977.69</ele>
        <time>2021-03-27T13:32:13Z</time>
      </trkpt>
      <trkpt lat="40.457923" lon="-4.486032">
        <ele>977.84</ele>
        <time>2021-03-27T13:32:14Z</time>
      </trkpt>
      <trkpt lat="40.457877" lon="-4.486108">
        <ele>978.09</ele>
        <time>2021-03-27T13:32:16Z</time>
      </trkpt>
      <trkpt lat="40.457832" lon="-4.486258">
        <ele>978.02</ele>
        <time>2021-03-27T13:32:17Z</time>
      </trkpt>
      <trkpt lat="40.457838" lon="-4.486462">
        <ele>979.38</ele>
        <time>2021-03-27T13:32:19Z</time>
      </trkpt>
      <trkpt lat="40.457965" lon="-4.487144">
        <ele>989.71</ele>
        <time>2021-03-27T13:32:21Z</time>
      </trkpt>
      <trkpt lat="40.457971" lon="-4.487293">
        <ele>990.24</ele>
        <time>2021-03-27T13:32:22Z</time>
      </trkpt>
      <trkpt lat="40.457958" lon="-4.487367">
        <ele>989.87</ele>
        <time>2021-03-27T13:32:24Z</time>
      </trkpt>
      <trkpt lat="40.457925" lon="-4.487436">
        <ele>989.08</ele>
        <time>2021-03-27T13:32:25Z</time>
      </trkpt>
      <trkpt lat="40.457795" lon="-4.487607">
        <ele>987.49</ele>
        <time>2021-03-27T13:32:27Z</time>
      </trkpt>
      <trkpt lat="40.457758" lon="-4.487717">
        <ele>987.92</ele>
        <time>2021-03-27T13:32:29Z</time>
      </trkpt>
      <trkpt lat="40.457781" lon="-4.487808">
        <ele>989.48</ele>
        <time>2021-03-27T13:32:30Z</time>
      </trkpt>
      <trkpt lat="40.45787" lon="-4.487861">
        <ele>991.33</ele>
        <time>2021-03-27T13:32:32Z</time>
      </trkpt>
      <trkpt lat="40.457997" lon="-4.487887">
        <ele>993.11</ele>
        <time>2021-03-27T13:32:33Z</time>
      </trkpt>
      <trkpt lat="40.45808" lon="-4.487879">
        <ele>994.05</ele>
        <time>2021-03-27T13:32:35Z</time>
      </trkpt>
      <trkpt lat="40.458142" lon="-4.487856">
        <ele>994.72</ele>
        <time>2021-03-27T13:32:37Z</time>
      </trkpt>
      <trkpt lat="40.458184" lon="-4.487818">
        <ele>995.07</ele>
        <time>2021-03-27T13:32:38Z</time>
      </trkpt>
      <trkpt lat="40.458225" lon="-4.487736">
        <ele>995.47</ele>
        <time>2021-03-27T13:32:40Z</time>
      </trkpt>
      <trkpt lat="40.458241" lon="-4.487656">
        <ele>995.82</ele>
        <time>2021-03-27T13:32:41Z</time>
      </trkpt>
      <trkpt lat="40.45826" lon="-4.486839">
        <ele>998.5</ele>
        <time>2021-03-27T13:32:43Z</time>
      </trkpt>
      <trkpt lat="40.458284" lon="-4.486715">
        <ele>997.91</ele>
        <time>2021-03-27T13:32:45Z</time>
      </trkpt>
      <trkpt lat="40.458328" lon="-4.486603">
        <ele>997.68</ele>
        <time>2021-03-27T13:32:46Z</time>
      </trkpt>
      <trkpt lat="40.458398" lon="-4.486508">
        <ele>998.01</ele>
        <time>2021-03-27T13:32:48Z</time>
      </trkpt>
      <trkpt lat="40.458478" lon="-4.486436">
        <ele>999.0</ele>
        <time>2021-03-27T13:32:49Z</time>
      </trkpt>
      <trkpt lat="40.460003" lon="-4.485778">
        <ele>1015.07</ele>
        <time>2021-03-27T13:32:51Z</time>
      </trkpt>
      <trkpt lat="40.460088" lon="-4.485698">
        <ele>1015.77</ele>
        <time>2021-03-27T13:32:53Z</time>
      </trkpt>
      <trkpt lat="40.460104" lon="-4.485644">
        <ele>1015.36</ele>
        <time>2021-03-27T13:32:54Z</time>
      </trkpt>
      <trkpt lat="40.460121" lon="-4.485445">
        <ele>1014.5</ele>
        <time>2021-03-27T13:32:56Z</time>
      </trkpt>
      <trkpt lat="40.460113" lon="-4.485362">
        <ele>1014.26</ele>
        <time>2021-03-27T13:32:57Z</time>
      </trkpt>
      <trkpt lat="40.460028" lon="-4.48508">
        <ele>1012.74</ele>
        <time>2021-03-27T13:32:59Z</time>
      </trkpt>
      <trkpt lat="40.459996" lon="-4.484852">
        <ele>1012.87</ele>
        <time>2021-03-27T13:33:01Z</time>
      </trkpt>
      <trkpt lat="40.460009" lon="-4.484503">
        <ele>1016.76</ele>
        <time>2021-03-27T13:33:02Z</time>
      </trkpt>
      <trkpt lat="40.460111" lon="-4.483828">
        <ele>1020.87</ele>
        <time>2021-03-27T13:33:04Z</time>
      </trkpt>
      <trkpt lat="40.460144" lon="-4.483506">
        <ele>1021.71</ele>
        <time>2021-03-27T13:33:05Z</time>
      </trkpt>
      <trkpt lat="40.460073" lon="-4.482585">
        <ele>1020.28</ele>
        <time>2021-03-27T13:33:07Z</time>
      </trkpt>
      <trkpt lat="40.460088" lon="-4.482246">
        <ele>1019.66</ele>
        <time>2021-03-27T13:33:09Z</time>
      </trkpt>
      <trkpt lat="40.46016" lon="-4.482054">
        <ele>1019.18</ele>
        <time>2021-03-27T13:33:10Z</time>
      </trkpt>
      <trkpt lat="40.46037" lon="-4.481788">
        <ele>1019.66</ele>
        <time>2021-03-27T13:33:12Z</time>
      </trkpt>
      <trkpt lat="40.460497" lon="-4.481673">
        <ele>1019.29</ele>
        <time>2021-03-27T13:33:13Z</time>
      </trkpt>
      <trkpt lat="40.460678" lon="-4.481595">
        <ele>1020.1</ele>
        <time>2021-03-27T13:33:15Z</time>
      </trkpt>
      <trkpt lat="40.461339" lon="-4.481566">
        <ele>1029.94</ele>
        <time>2021-03-27T13:33:17Z</time>
      </trkpt>
      <trkpt lat="40.461501" lon="-4.48161">
        <ele>1030.66</ele>
        <time>2021-03-27T13:33:18Z</time>
      </trkpt>
      <trkpt lat="40.461578" lon="-4.481667">
        <ele>1031.32</ele>
        <time>2021-03-27T13:33:20Z</time>
      </trkpt>
      <trkpt lat="40.46165" lon="-4.48175">
        <ele>1032.02</ele>
        <time>2021-03-27T13:33:21Z</time>
      </trkpt>
      <trkpt lat="40.462135" lon="-4.482604">
        <ele>1033.97</ele>
        <time>2021-03-27T13:33:23Z</time>
      </trkpt>
      <trkpt lat="40.462222" lon="-4.482717">
        <ele>1033.47</ele>
        <time>2021-03-27T13:33:25Z</time>
      </trkpt>
      <trkpt lat="40.462333" lon="-4.482776">
        <ele>1034.55</ele>
        <time>2021-03-27T13:33:26Z</time>
      </trkpt>
      <trkpt lat="40.462618" lon="-4.482853">
        <ele>1037.1</ele>
        <time>2021-03-27T13:33:28Z</time>
      </trkpt>
      <trkpt lat="40.462765" lon="-4.482926">
        <ele>1040.79</ele>
        <time>2021-03-27T13:33:29Z</time>
      </trkpt>
      <trkpt lat="40.463077" lon="-4.483139">
        <ele>1044.21</ele>
        <time>2021-03-27T13:33:31Z</time>
      </trkpt>
      <trkpt lat="40.463481" lon="-4.483374">
        <ele>1045.95</ele>
        <time>2021-03-27T13:33:33Z</time>
      </trkpt>
      <trkpt lat="40.463903" lon="-4.483537">
        <ele>1049.14</ele>
        <time>2021-03-27T13:33:34Z</time>
      </trkpt>
      <trkpt lat="40.464801" lon="-4.483787">
        <ele>1054.32</ele>
        <time>2021-03-27T13:33:36Z</time>
      </trkpt>
      <trkpt lat="40.465096" lon="-4.48382">
        <ele>1054.28</ele>
        <time>2021-03-27T13:33:37Z</time>
      </trkpt>
      <trkpt lat="40.465656" lon="-4.483787">
        <ele>1061.01</ele>
        <time>2021-03-27T13:33:39Z</time>
      </trkpt>
      <trkpt lat="40.466257" lon="-4.483697">
        <ele>1063.56</ele>
        <time>2021-03-27T13:33:41Z</time>
      </trkpt>
      <trkpt lat="40.466257" lon="-4.483697">
        <ele>1063.56</ele>
        <time>2021-03-27T13:33:41Z</time>
      </trkpt>
      <trkpt lat="40.46676" lon="-4.483641">
        <ele>1067.78</ele>
        <time>2021-03-27T13:33:43Z</time>
      </trkpt>
      <trkpt lat="40.466821" lon="-4.483657">
        <ele>1067.0</ele>
        <time>2021-03-27T13:33:45Z</time>
      </trkpt>
      <trkpt lat="40.466897" lon="-4.483727">
        <ele>1065.67</ele>
        <time>2021-03-27T13:33:47Z</time>
      </trkpt>
      <trkpt lat="40.46693" lon="-4.483858">
        <ele>1064.38</ele>
        <time>2021-03-27T13:33:50Z</time>
      </trkpt>
      <trkpt lat="40.466924" lon="-4.483942">
        <ele>1063.86</ele>
        <time>2021-03-27T13:33:52Z</time>
      </trkpt>
      <trkpt lat="40.466717" lon="-4.484716">
        <ele>1064.4</ele>
        <time>2021-03-27T13:33:54Z</time>
      </trkpt>
      <trkpt lat="40.466658" lon="-4.485693">
        <ele>1063.64</ele>
        <time>2021-03-27T13:33:56Z</time>
      </trkpt>
      <trkpt lat="40.466623" lon="-4.485862">
        <ele>1062.04</ele>
        <time>2021-03-27T13:33:59Z</time>
      </trkpt>
      <trkpt lat="40.466563" lon="-4.485979">
        <ele>1059.99</ele>
        <time>2021-03-27T13:34:01Z</time>
      </trkpt>
      <trkpt lat="40.466509" lon="-4.486035">
        <ele>1059.33</ele>
        <time>2021-03-27T13:34:03Z</time>
      </trkpt>
      <trkpt lat="40.466201" lon="-4.486235">
        <ele>1059.71</ele>
        <time>2021-03-27T13:34:05Z</time>
      </trkpt>
      <trkpt lat="40.466084" lon="-4.486349">
        <ele>1060.48</ele>
        <time>2021-03-27T13:34:08Z</time>
      </trkpt>
      <trkpt lat="40.465865" lon="-4.486639">
        <ele>1063.85</ele>
        <time>2021-03-27T13:34:10Z</time>
      </trkpt>
      <trkpt lat="40.465823" lon="-4.486719">
        <ele>1064.34</ele>
        <time>2021-03-27T13:34:12Z</time>
      </trkpt>
      <trkpt lat="40.465798" lon="-4.486807">
        <ele>1063.61</ele>
        <time>2021-03-27T13:34:14Z</time>
      </trkpt>
      <trkpt lat="40.465783" lon="-4.486911">
        <ele>1062.52</ele>
        <time>2021-03-27T13:34:17Z</time>
      </trkpt>
      <trkpt lat="40.46579" lon="-4.487067">
        <ele>1060.94</ele>
        <time>2021-03-27T13:34:19Z</time>
      </trkpt>
      <trkpt lat="40.465833" lon="-4.487365">
        <ele>1057.99</ele>
        <time>2021-03-27T13:34:21Z</time>
      </trkpt>
      <trkpt lat="40.465855" lon="-4.487646">
        <ele>1055.44</ele>
        <time>2021-03-27T13:34:23Z</time>
      </trkpt>
      <trkpt lat="40.465865" lon="-4.487968">
        <ele>1052.91</ele>
        <time>2021-03-27T13:34:26Z</time>
      </trkpt>
      <trkpt lat="40.465853" lon="-4.488169">
        <ele>1052.65</ele>
        <time>2021-03-27T13:34:28Z</time>
      </trkpt>
      <trkpt lat="40.465781" lon="-4.4884">
        <ele>1053.65</ele>
        <time>2021-03-27T13:34:30Z</time>
      </trkpt>
      <trkpt lat="40.46568" lon="-4.488636">
        <ele>1053.06</ele>
        <time>2021-03-27T13:34:32Z</time>
      </trkpt>
      <trkpt lat="40.465603" lon="-4.489">
        <ele>1049.09</ele>
        <time>2021-03-27T13:34:35Z</time>
      </trkpt>
      <trkpt lat="40.465557" lon="-4.489143">
        <ele>1048.34</ele>
        <time>2021-03-27T13:34:37Z</time>
      </trkpt>
      <trkpt lat="40.465445" lon="-4.489386">
        <ele>1051.34</ele>
        <time>2021-03-27T13:34:39Z</time>
      </trkpt>
      <trkpt lat="40.465367" lon="-4.48963">
        <ele>1052.44</ele>
        <time>2021-03-27T13:34:41Z</time>
      </trkpt>
      <trkpt lat="40.465334" lon="-4.49006">
        <ele>1049.9</ele>
        <time>2021-03-27T13:34:43Z</time>
      </trkpt>
      <trkpt lat="40.465349" lon="-4.490375">
        <ele>1048.02</ele>
        <time>2021-03-27T13:34:46Z</time>
      </trkpt>
      <trkpt lat="40.46538" lon="-4.49053">
        <ele>1047.58</ele>
        <time>2021-03-27T13:34:48Z</time>
      </trkpt>
      <trkpt lat="40.465418" lon="-4.49064">
        <ele>1046.76</ele>
        <time>2021-03-27T13:34:50Z</time>
      </trkpt>
      <trkpt lat="40.465793" lon="-4.491327">
        <ele>1040.53</ele>
        <time>2021-03-27T13:34:52Z</time>
      </trkpt>
      <trkpt lat="40.465828" lon="-4.491366">
        <ele>1040.76</ele>
        <time>2021-03-27T13:34:55Z</time>
      </trkpt>
      <trkpt lat="40.465915" lon="-4.491398">
        <ele>1042.28</ele>
        <time>2021-03-27T13:34:57Z</time>
      </trkpt>
      <trkpt lat="40.466009" lon="-4.491333">
        <ele>1042.8</ele>
        <time>2021-03-27T13:34:59Z</time>
      </trkpt>
      <trkpt lat="40.466129" lon="-4.491075">
        <ele>1041.39</ele>
        <time>2021-03-27T13:35:01Z</time>
      </trkpt>
      <trkpt lat="40.466244" lon="-4.490522">
        <ele>1040.63</ele>
        <time>2021-03-27T13:35:04Z</time>
      </trkpt>
      <trkpt lat="40.466357" lon="-4.490306">
        <ele>1041.52</ele>
        <time>2021-03-27T13:35:06Z</time>
      </trkpt>
      <trkpt lat="40.466491" lon="-4.490177">
        <ele>1042.11</ele>
        <time>2021-03-27T13:35:08Z</time>
      </trkpt>
      <trkpt lat="40.466628" lon="-4.490154">
        <ele>1044.19</ele>
        <time>2021-03-27T13:35:10Z</time>
      </trkpt>
      <trkpt lat="40.466739" lon="-4.490183">
        <ele>1046.21</ele>
        <time>2021-03-27T13:35:13Z</time>
      </trkpt>
      <trkpt lat="40.466986" lon="-4.490288">
        <ele>1049.95</ele>
        <time>2021-03-27T13:35:15Z</time>
      </trkpt>
      <trkpt lat="40.467174" lon="-4.490429">
        <ele>1050.36</ele>
        <time>2021-03-27T13:35:17Z</time>
      </trkpt>
      <trkpt lat="40.467338" lon="-4.490638">
        <ele>1050.34</ele>
        <time>2021-03-27T13:35:19Z</time>
      </trkpt>
      <trkpt lat="40.467615" lon="-4.491062">
        <ele>1053.56</ele>
        <time>2021-03-27T13:35:22Z</time>
      </trkpt>
      <trkpt lat="40.468168" lon="-4.492206">
        <ele>1061.53</ele>
        <time>2021-03-27T13:35:24Z</time>
      </trkpt>
      <trkpt lat="40.468288" lon="-4.4924">
        <ele>1064.0</ele>
        <time>2021-03-27T13:35:26Z</time>
      </trkpt>
      <trkpt lat="40.469031" lon="-4.493425">
        <ele>1075.13</ele>
        <time>2021-03-27T13:35:28Z</time>
      </trkpt>
      <trkpt lat="40.469257" lon="-4.493794">
        <ele>1079.75</ele>
        <time>2021-03-27T13:35:31Z</time>
      </trkpt>
      <trkpt lat="40.469346" lon="-4.49386">
        <ele>1080.61</ele>
        <time>2021-03-27T13:35:33Z</time>
      </trkpt>
      <trkpt lat="40.469408" lon="-4.493881">
        <ele>1080.89</ele>
        <time>2021-03-27T13:35:35Z</time>
      </trkpt>
      <trkpt lat="40.469724" lon="-4.49386">
        <ele>1075.05</ele>
        <time>2021-03-27T13:35:37Z</time>
      </trkpt>
      <trkpt lat="40.469818" lon="-4.493895">
        <ele>1075.1</ele>
        <time>2021-03-27T13:35:40Z</time>
      </trkpt>
      <trkpt lat="40.470013" lon="-4.494024">
        <ele>1075.39</ele>
        <time>2021-03-27T13:35:42Z</time>
      </trkpt>
      <trkpt lat="40.470285" lon="-4.494263">
        <ele>1077.32</ele>
        <time>2021-03-27T13:35:44Z</time>
      </trkpt>
      <trkpt lat="40.470384" lon="-4.494377">
        <ele>1077.69</ele>
        <time>2021-03-27T13:35:46Z</time>
      </trkpt>
      <trkpt lat="40.470486" lon="-4.494596">
        <ele>1078.22</ele>
        <time>2021-03-27T13:35:49Z</time>
      </trkpt>
      <trkpt lat="40.470531" lon="-4.495115">
        <ele>1083.91</ele>
        <time>2021-03-27T13:35:51Z</time>
      </trkpt>
      <trkpt lat="40.470567" lon="-4.49529">
        <ele>1084.76</ele>
        <time>2021-03-27T13:35:53Z</time>
      </trkpt>
      <trkpt lat="40.470649" lon="-4.495506">
        <ele>1084.99</ele>
        <time>2021-03-27T13:35:55Z</time>
      </trkpt>
      <trkpt lat="40.470728" lon="-4.49567">
        <ele>1086.07</ele>
        <time>2021-03-27T13:35:58Z</time>
      </trkpt>
      <trkpt lat="40.470827" lon="-4.495822">
        <ele>1087.82</ele>
        <time>2021-03-27T13:36:00Z</time>
      </trkpt>
      <trkpt lat="40.47091" lon="-4.495928">
        <ele>1088.67</ele>
        <time>2021-03-27T13:36:02Z</time>
      </trkpt>
      <trkpt lat="40.471154" lon="-4.496134">
        <ele>1088.31</ele>
        <time>2021-03-27T13:36:04Z</time>
      </trkpt>
      <trkpt lat="40.471221" lon="-4.496226">
        <ele>1087.7</ele>
        <time>2021-03-27T13:36:07Z</time>
      </trkpt>
      <trkpt lat="40.471262" lon="-4.496316">
        <ele>1087.56</ele>
        <time>2021-03-27T13:36:09Z</time>
      </trkpt>
      <trkpt lat="40.471317" lon="-4.496604">
        <ele>1086.81</ele>
        <time>2021-03-27T13:36:11Z</time>
      </trkpt>
      <trkpt lat="40.471344" lon="-4.497154">
        <ele>1089.02</ele>
        <time>2021-03-27T13:36:13Z</time>
      </trkpt>
      <trkpt lat="40.471362" lon="-4.49729">
        <ele>1090.48</ele>
        <time>2021-03-27T13:36:16Z</time>
      </trkpt>
      <trkpt lat="40.471421" lon="-4.497606">
        <ele>1096.16</ele>
        <time>2021-03-27T13:36:18Z</time>
      </trkpt>
      <trkpt lat="40.471473" lon="-4.497756">
        <ele>1098.7</ele>
        <time>2021-03-27T13:36:20Z</time>
      </trkpt>
      <trkpt lat="40.471544" lon="-4.497847">
        <ele>1098.9</ele>
        <time>2021-03-27T13:36:22Z</time>
      </trkpt>
      <trkpt lat="40.471695" lon="-4.497944">
        <ele>1098.06</ele>
        <time>2021-03-27T13:36:25Z</time>
      </trkpt>
      <trkpt lat="40.471751" lon="-4.497961">
        <ele>1097.93</ele>
        <time>2021-03-27T13:36:27Z</time>
      </trkpt>
      <trkpt lat="40.471883" lon="-4.49796">
        <ele>1096.32</ele>
        <time>2021-03-27T13:36:29Z</time>
      </trkpt>
      <trkpt lat="40.472039" lon="-4.497905">
        <ele>1094.41</ele>
        <time>2021-03-27T13:36:31Z</time>
      </trkpt>
      <trkpt lat="40.47221" lon="-4.497887">
        <ele>1094.55</ele>
        <time>2021-03-27T13:36:34Z</time>
      </trkpt>
      <trkpt lat="40.472355" lon="-4.497939">
        <ele>1096.96</ele>
        <time>2021-03-27T13:36:36Z</time>
      </trkpt>
      <trkpt lat="40.472586" lon="-4.498112">
        <ele>1101.17</ele>
        <time>2021-03-27T13:36:38Z</time>
      </trkpt>
      <trkpt lat="40.472702" lon="-4.498112">
        <ele>1101.92</ele>
        <time>2021-03-27T13:36:40Z</time>
      </trkpt>
      <trkpt lat="40.472847" lon="-4.498028">
        <ele>1102.38</ele>
        <time>2021-03-27T13:36:43Z</time>
      </trkpt>
      <trkpt lat="40.472942" lon="-4.498">
        <ele>1103.14</ele>
        <time>2021-03-27T13:36:45Z</time>
      </trkpt>
      <trkpt lat="40.473022" lon="-4.498031">
        <ele>1103.82</ele>
        <time>2021-03-27T13:36:47Z</time>
      </trkpt>
      <trkpt lat="40.473131" lon="-4.498197">
        <ele>1104.45</ele>
        <time>2021-03-27T13:36:49Z</time>
      </trkpt>
      <trkpt lat="40.473194" lon="-4.498366">
        <ele>1104.76</ele>
        <time>2021-03-27T13:36:52Z</time>
      </trkpt>
      <trkpt lat="40.473302" lon="-4.498966">
        <ele>1105.77</ele>
        <time>2021-03-27T13:36:54Z</time>
      </trkpt>
      <trkpt lat="40.473426" lon="-4.499517">
        <ele>1110.66</ele>
        <time>2021-03-27T13:36:56Z</time>
      </trkpt>
      <trkpt lat="40.473432" lon="-4.499718">
        <ele>1110.78</ele>
        <time>2021-03-27T13:36:58Z</time>
      </trkpt>
      <trkpt lat="40.4733" lon="-4.500843">
        <ele>1118.44</ele>
        <time>2021-03-27T13:37:01Z</time>
      </trkpt>
      <trkpt lat="40.473294" lon="-4.50127">
        <ele>1119.87</ele>
        <time>2021-03-27T13:37:03Z</time>
      </trkpt>
      <trkpt lat="40.473346" lon="-4.501642">
        <ele>1121.32</ele>
        <time>2021-03-27T13:37:05Z</time>
      </trkpt>
      <trkpt lat="40.473449" lon="-4.502007">
        <ele>1122.86</ele>
        <time>2021-03-27T13:37:07Z</time>
      </trkpt>
      <trkpt lat="40.47358" lon="-4.502253">
        <ele>1124.35</ele>
        <time>2021-03-27T13:37:10Z</time>
      </trkpt>
      <trkpt lat="40.474047" lon="-4.50269">
        <ele>1130.09</ele>
        <time>2021-03-27T13:37:12Z</time>
      </trkpt>
      <trkpt lat="40.474215" lon="-4.502808">
        <ele>1131.56</ele>
        <time>2021-03-27T13:37:14Z</time>
      </trkpt>
      <trkpt lat="40.475196" lon="-4.503378">
        <ele>1139.99</ele>
        <time>2021-03-27T13:37:16Z</time>
      </trkpt>
      <trkpt lat="40.475315" lon="-4.503502">
        <ele>1142.19</ele>
        <time>2021-03-27T13:37:19Z</time>
      </trkpt>
      <trkpt lat="40.475358" lon="-4.503621">
        <ele>1143.21</ele>
        <time>2021-03-27T13:37:21Z</time>
      </trkpt>
      <trkpt lat="40.475358" lon="-4.503748">
        <ele>1143.86</ele>
        <time>2021-03-27T13:37:23Z</time>
      </trkpt>
      <trkpt lat="40.475343" lon="-4.503812">
        <ele>1144.05</ele>
        <time>2021-03-27T13:37:25Z</time>
      </trkpt>
      <trkpt lat="40.47511" lon="-4.504244">
        <ele>1147.07</ele>
        <time>2021-03-27T13:37:28Z</time>
      </trkpt>
      <trkpt lat="40.475105" lon="-4.504341">
        <ele>1147.87</ele>
        <time>2021-03-27T13:37:30Z</time>
      </trkpt>
      <trkpt lat="40.475124" lon="-4.504379">
        <ele>1148.32</ele>
        <time>2021-03-27T13:37:32Z</time>
      </trkpt>
      <trkpt lat="40.4752" lon="-4.504464">
        <ele>1149.56</ele>
        <time>2021-03-27T13:37:34Z</time>
      </trkpt>
      <trkpt lat="40.475583" lon="-4.5047">
        <ele>1153.14</ele>
        <time>2021-03-27T13:37:37Z</time>
      </trkpt>
      <trkpt lat="40.475789" lon="-4.504809">
        <ele>1155.83</ele>
        <time>2021-03-27T13:37:39Z</time>
      </trkpt>
      <trkpt lat="40.47622" lon="-4.50498">
        <ele>1161.38</ele>
        <time>2021-03-27T13:37:41Z</time>
      </trkpt>
      <trkpt lat="40.476486" lon="-4.505041">
        <ele>1161.65</ele>
        <time>2021-03-27T13:37:43Z</time>
      </trkpt>
      <trkpt lat="40.477389" lon="-4.50515">
        <ele>1160.28</ele>
        <time>2021-03-27T13:37:46Z</time>
      </trkpt>
      <trkpt lat="40.479312" lon="-4.505297">
        <ele>1159.16</ele>
        <time>2021-03-27T13:37:48Z</time>
      </trkpt>
      <trkpt lat="40.479679" lon="-4.505374">
        <ele>1157.05</ele>
        <time>2021-03-27T13:37:50Z</time>
      </trkpt>
      <trkpt lat="40.479791" lon="-4.505427">
        <ele>1156.33</ele>
        <time>2021-03-27T13:37:52Z</time>
      </trkpt>
      <trkpt lat="40.479881" lon="-4.505495">
        <ele>1155.85</ele>
        <time>2021-03-27T13:37:55Z</time>
      </trkpt>
      <trkpt lat="40.480015" lon="-4.505648">
        <ele>1154.34</ele>
        <time>2021-03-27T13:37:57Z</time>
      </trkpt>
      <trkpt lat="40.480121" lon="-4.505902">
        <ele>1152.4</ele>
        <time>2021-03-27T13:37:59Z</time>
      </trkpt>
      <trkpt lat="40.480178" lon="-4.50634">
        <ele>1153.97</ele>
        <time>2021-03-27T13:38:01Z</time>
      </trkpt>
      <trkpt lat="40.480245" lon="-4.506485">
        <ele>1154.51</ele>
        <time>2021-03-27T13:38:04Z</time>
      </trkpt>
      <trkpt lat="40.480298" lon="-4.506534">
        <ele>1154.27</ele>
        <time>2021-03-27T13:38:06Z</time>
      </trkpt>
      <trkpt lat="40.480363" lon="-4.506562">
        <ele>1153.64</ele>
        <time>2021-03-27T13:38:08Z</time>
      </trkpt>
      <trkpt lat="40.480653" lon="-4.50659">
        <ele>1149.68</ele>
        <time>2021-03-27T13:38:10Z</time>
      </trkpt>
      <trkpt lat="40.480884" lon="-4.506655">
        <ele>1147.29</ele>
        <time>2021-03-27T13:38:13Z</time>
      </trkpt>
      <trkpt lat="40.48096" lon="-4.506703">
        <ele>1147.1</ele>
        <time>2021-03-27T13:38:15Z</time>
      </trkpt>
      <trkpt lat="40.481038" lon="-4.506792">
        <ele>1147.25</ele>
        <time>2021-03-27T13:38:17Z</time>
      </trkpt>
      <trkpt lat="40.481109" lon="-4.506898">
        <ele>1147.52</ele>
        <time>2021-03-27T13:38:19Z</time>
      </trkpt>
      <trkpt lat="40.481199" lon="-4.507082">
        <ele>1148.07</ele>
        <time>2021-03-27T13:38:22Z</time>
      </trkpt>
      <trkpt lat="40.481232" lon="-4.507196">
        <ele>1148.57</ele>
        <time>2021-03-27T13:38:24Z</time>
      </trkpt>
      <trkpt lat="40.481266" lon="-4.507406">
        <ele>1149.53</ele>
        <time>2021-03-27T13:38:26Z</time>
      </trkpt>
      <trkpt lat="40.481487" lon="-4.509219">
        <ele>1146.34</ele>
        <time>2021-03-27T13:38:28Z</time>
      </trkpt>
      <trkpt lat="40.481504" lon="-4.50944">
        <ele>1145.19</ele>
        <time>2021-03-27T13:38:31Z</time>
      </trkpt>
      <trkpt lat="40.481511" lon="-4.509938">
        <ele>1144.13</ele>
        <time>2021-03-27T13:38:33Z</time>
      </trkpt>
      <trkpt lat="40.481539" lon="-4.510265">
        <ele>1144.95</ele>
        <time>2021-03-27T13:38:35Z</time>
      </trkpt>
      <trkpt lat="40.481603" lon="-4.510378">
        <ele>1145.0</ele>
        <time>2021-03-27T13:38:37Z</time>
      </trkpt>
      <trkpt lat="40.481742" lon="-4.510464">
        <ele>1145.09</ele>
        <time>2021-03-27T13:38:40Z</time>
      </trkpt>
      <trkpt lat="40.482553" lon="-4.510728">
        <ele>1152.82</ele>
        <time>2021-03-27T13:38:42Z</time>
      </trkpt>
      <trkpt lat="40.482766" lon="-4.51088">
        <ele>1156.05</ele>
        <time>2021-03-27T13:38:44Z</time>
      </trkpt>
      <trkpt lat="40.483435" lon="-4.511458">
        <ele>1159.86</ele>
        <time>2021-03-27T13:38:46Z</time>
      </trkpt>
      <trkpt lat="40.483615" lon="-4.511686">
        <ele>1161.98</ele>
        <time>2021-03-27T13:38:49Z</time>
      </trkpt>
      <trkpt lat="40.48426" lon="-4.512673">
        <ele>1164.86</ele>
        <time>2021-03-27T13:38:51Z</time>
      </trkpt>
      <trkpt lat="40.484413" lon="-4.512796">
        <ele>1166.13</ele>
        <time>2021-03-27T13:38:53Z</time>
      </trkpt>
      <trkpt lat="40.484662" lon="-4.512961">
        <ele>1167.59</ele>
        <time>2021-03-27T13:38:55Z</time>
      </trkpt>
      <trkpt lat="40.484784" lon="-4.513075">
        <ele>1167.83</ele>
        <time>2021-03-27T13:38:58Z</time>
      </trkpt>
      <trkpt lat="40.485155" lon="-4.513595">
        <ele>1168.92</ele>
        <time>2021-03-27T13:39:00Z</time>
      </trkpt>
      <trkpt lat="40.485271" lon="-4.513727">
        <ele>1169.84</ele>
        <time>2021-03-27T13:39:02Z</time>
      </trkpt>
      <trkpt lat="40.485403" lon="-4.513784">
        <ele>1170.58</ele>
        <time>2021-03-27T13:39:04Z</time>
      </trkpt>
      <trkpt lat="40.485531" lon="-4.513783">
        <ele>1170.93</ele>
        <time>2021-03-27T13:39:07Z</time>
      </trkpt>
      <trkpt lat="40.486007" lon="-4.513694">
        <ele>1175.5</ele>
        <time>2021-03-27T13:39:09Z</time>
      </trkpt>
      <trkpt lat="40.486911" lon="-4.51324">
        <ele>1181.17</ele>
        <time>2021-03-27T13:39:11Z</time>
      </trkpt>
      <trkpt lat="40.487052" lon="-4.513184">
        <ele>1181.34</ele>
        <time>2021-03-27T13:39:13Z</time>
      </trkpt>
      <trkpt lat="40.487177" lon="-4.513176">
        <ele>1181.81</ele>
        <time>2021-03-27T13:39:16Z</time>
      </trkpt>
      <trkpt lat="40.487337" lon="-4.513225">
        <ele>1181.84</ele>
        <time>2021-03-27T13:39:18Z</time>
      </trkpt>
      <trkpt lat="40.488502" lon="-4.513801">
        <ele>1193.24</ele>
        <time>2021-03-27T13:39:20Z</time>
      </trkpt>
      <trkpt lat="40.489489" lon="-4.514231">
        <ele>1198.73</ele>
        <time>2021-03-27T13:39:22Z</time>
      </trkpt>
      <trkpt lat="40.489607" lon="-4.514329">
        <ele>1199.41</ele>
        <time>2021-03-27T13:39:25Z</time>
      </trkpt>
      <trkpt lat="40.489661" lon="-4.514404">
        <ele>1199.96</ele>
        <time>2021-03-27T13:39:27Z</time>
      </trkpt>
      <trkpt lat="40.489936" lon="-4.514933">
        <ele>1201.18</ele>
        <time>2021-03-27T13:39:29Z</time>
      </trkpt>
      <trkpt lat="40.489997" lon="-4.515025">
        <ele>1201.01</ele>
        <time>2021-03-27T13:39:31Z</time>
      </trkpt>
      <trkpt lat="40.490148" lon="-4.515156">
        <ele>1201.53</ele>
        <time>2021-03-27T13:39:34Z</time>
      </trkpt>
      <trkpt lat="40.494716" lon="-4.517676">
        <ele>1217.99</ele>
        <time>2021-03-27T13:39:36Z</time>
      </trkpt>
      <trkpt lat="40.494975" lon="-4.517799">
        <ele>1218.07</ele>
        <time>2021-03-27T13:39:38Z</time>
      </trkpt>
      <trkpt lat="40.497204" lon="-4.518396">
        <ele>1220.45</ele>
        <time>2021-03-27T13:39:40Z</time>
      </trkpt>
      <trkpt lat="40.497579" lon="-4.518391">
        <ele>1221.78</ele>
        <time>2021-03-27T13:39:43Z</time>
      </trkpt>
      <trkpt lat="40.498853" lon="-4.518312">
        <ele>1221.77</ele>
        <time>2021-03-27T13:39:45Z</time>
      </trkpt>
      <trkpt lat="40.499213" lon="-4.518352">
        <ele>1218.86</ele>
        <time>2021-03-27T13:39:47Z</time>
      </trkpt>
      <trkpt lat="40.4994" lon="-4.518446">
        <ele>1218.2</ele>
        <time>2021-03-27T13:39:49Z</time>
      </trkpt>
      <trkpt lat="40.499602" lon="-4.518671">
        <ele>1217.83</ele>
        <time>2021-03-27T13:39:52Z</time>
      </trkpt>
      <trkpt lat="40.499741" lon="-4.518883">
        <ele>1215.81</ele>
        <time>2021-03-27T13:39:54Z</time>
      </trkpt>
      <trkpt lat="40.500101" lon="-4.519669">
        <ele>1210.23</ele>
        <time>2021-03-27T13:39:56Z</time>
      </trkpt>
      <trkpt lat="40.500815" lon="-4.520867">
        <ele>1202.37</ele>
        <time>2021-03-27T13:39:58Z</time>
      </trkpt>
      <trkpt lat="40.501139" lon="-4.52123">
        <ele>1202.51</ele>
        <time>2021-03-27T13:40:01Z</time>
      </trkpt>
      <trkpt lat="40.502196" lon="-4.521876">
        <ele>1196.13</ele>
        <time>2021-03-27T13:40:03Z</time>
      </trkpt>
      <trkpt lat="40.502381" lon="-4.521873">
        <ele>1195.97</ele>
        <time>2021-03-27T13:40:05Z</time>
      </trkpt>
      <trkpt lat="40.503631" lon="-4.521127">
        <ele>1197.19</ele>
        <time>2021-03-27T13:40:07Z</time>
      </trkpt>
      <trkpt lat="40.503844" lon="-4.521117">
        <ele>1197.86</ele>
        <time>2021-03-27T13:40:10Z</time>
      </trkpt>
      <trkpt lat="40.50472" lon="-4.52136">
        <ele>1199.79</ele>
        <time>2021-03-27T13:40:12Z</time>
      </trkpt>
      <trkpt lat="40.506142" lon="-4.521416">
        <ele>1202.76</ele>
        <time>2021-03-27T13:40:14Z</time>
      </trkpt>
      <trkpt lat="40.506796" lon="-4.521467">
        <ele>1198.95</ele>
        <time>2021-03-27T13:40:16Z</time>
      </trkpt>
      <trkpt lat="40.507293" lon="-4.52142">
        <ele>1206.12</ele>
        <time>2021-03-27T13:40:19Z</time>
      </trkpt>
      <trkpt lat="40.507745" lon="-4.521606">
        <ele>1204.6</ele>
        <time>2021-03-27T13:40:21Z</time>
      </trkpt>
      <trkpt lat="40.507901" lon="-4.521567">
        <ele>1204.7</ele>
        <time>2021-03-27T13:40:23Z</time>
      </trkpt>
      <trkpt lat="40.5083" lon="-4.521258">
        <ele>1206.13</ele>
        <time>2021-03-27T13:40:25Z</time>
      </trkpt>
      <trkpt lat="40.508959" lon="-4.521103">
        <ele>1206.61</ele>
        <time>2021-03-27T13:40:28Z</time>
      </trkpt>
      <trkpt lat="40.509736" lon="-4.520999">
        <ele>1211.89</ele>
        <time>2021-03-27T13:40:30Z</time>
      </trkpt>
      <trkpt lat="40.511661" lon="-4.521613">
        <ele>1214.03</ele>
        <time>2021-03-27T13:40:32Z</time>
      </trkpt>
      <trkpt lat="40.515631" lon="-4.524388">
        <ele>1222.19</ele>
        <time>2021-03-27T13:40:34Z</time>
      </trkpt>
      <trkpt lat="40.516898" lon="-4.525381">
        <ele>1215.47</ele>
        <time>2021-03-27T13:40:37Z</time>
      </trkpt>
      <trkpt lat="40.51717" lon="-4.525546">
        <ele>1214.81</ele>
        <time>2021-03-27T13:40:39Z</time>
      </trkpt>
      <trkpt lat="40.517698" lon="-4.525703">
        <ele>1211.3</ele>
        <time>2021-03-27T13:40:42Z</time>
      </trkpt>
      <trkpt lat="40.518223" lon="-4.52583">
        <ele>1213.84</ele>
        <time>2021-03-27T13:40:45Z</time>
      </trkpt>
      <trkpt lat="40.518344" lon="-4.525916">
        <ele>1213.97</ele>
        <time>2021-03-27T13:40:47Z</time>
      </trkpt>
      <trkpt lat="40.518414" lon="-4.526086">
        <ele>1212.79</ele>
        <time>2021-03-27T13:40:50Z</time>
      </trkpt>
      <trkpt lat="40.51844" lon="-4.526835">
        <ele>1200.81</ele>
        <time>2021-03-27T13:40:52Z</time>
      </trkpt>
      <trkpt lat="40.518589" lon="-4.527221">
        <ele>1197.31</ele>
        <time>2021-03-27T13:40:55Z</time>
      </trkpt>
      <trkpt lat="40.518773" lon="-4.527469">
        <ele>1196.33</ele>
        <time>2021-03-27T13:40:57Z</time>
      </trkpt>
      <trkpt lat="40.518998" lon="-4.527674">
        <ele>1194.65</ele>
        <time>2021-03-27T13:41:00Z</time>
      </trkpt>
      <trkpt lat="40.519298" lon="-4.527836">
        <ele>1198.57</ele>
        <time>2021-03-27T13:41:02Z</time>
      </trkpt>
      <trkpt lat="40.519466" lon="-4.528123">
        <ele>1195.99</ele>
        <time>2021-03-27T13:41:05Z</time>
      </trkpt>
      <trkpt lat="40.519804" lon="-4.528854">
        <ele>1185.89</ele>
        <time>2021-03-27T13:41:07Z</time>
      </trkpt>
      <trkpt lat="40.520011" lon="-4.52914">
        <ele>1185.64</ele>
        <time>2021-03-27T13:41:10Z</time>
      </trkpt>
      <trkpt lat="40.520167" lon="-4.529243">
        <ele>1181.03</ele>
        <time>2021-03-27T13:41:12Z</time>
      </trkpt>
      <trkpt lat="40.521208" lon="-4.529617">
        <ele>1174.94</ele>
        <time>2021-03-27T13:41:15Z</time>
      </trkpt>
      <trkpt lat="40.521552" lon="-4.529626">
        <ele>1172.25</ele>
        <time>2021-03-27T13:41:17Z</time>
      </trkpt>
      <trkpt lat="40.522051" lon="-4.529443">
        <ele>1171.28</ele>
        <time>2021-03-27T13:41:20Z</time>
      </trkpt>
      <trkpt lat="40.522158" lon="-4.529467">
        <ele>1169.77</ele>
        <time>2021-03-27T13:41:22Z</time>
      </trkpt>
      <trkpt lat="40.522259" lon="-4.529535">
        <ele>1167.86</ele>
        <time>2021-03-27T13:41:25Z</time>
      </trkpt>
      <trkpt lat="40.522677" lon="-4.529987">
        <ele>1161.21</ele>
        <time>2021-03-27T13:41:27Z</time>
      </trkpt>
      <trkpt lat="40.523087" lon="-4.530266">
        <ele>1161.44</ele>
        <time>2021-03-27T13:41:30Z</time>
      </trkpt>
      <trkpt lat="40.523271" lon="-4.530289">
        <ele>1161.49</ele>
        <time>2021-03-27T13:41:33Z</time>
      </trkpt>
      <trkpt lat="40.523438" lon="-4.530235">
        <ele>1160.15</ele>
        <time>2021-03-27T13:41:35Z</time>
      </trkpt>
      <trkpt lat="40.523537" lon="-4.530131">
        <ele>1159.49</ele>
        <time>2021-03-27T13:41:38Z</time>
      </trkpt>
      <trkpt lat="40.524027" lon="-4.529477">
        <ele>1158.43</ele>
        <time>2021-03-27T13:41:40Z</time>
      </trkpt>
      <trkpt lat="40.524137" lon="-4.529382">
        <ele>1158.8</ele>
        <time>2021-03-27T13:41:43Z</time>
      </trkpt>
      <trkpt lat="40.524244" lon="-4.529395">
        <ele>1157.87</ele>
        <time>2021-03-27T13:41:45Z</time>
      </trkpt>
      <trkpt lat="40.52454" lon="-4.52969">
        <ele>1149.86</ele>
        <time>2021-03-27T13:41:48Z</time>
      </trkpt>
      <trkpt lat="40.52473" lon="-4.52978">
        <ele>1147.42</ele>
        <time>2021-03-27T13:41:50Z</time>
      </trkpt>
      <trkpt lat="40.525203" lon="-4.529927">
        <ele>1143.01</ele>
        <time>2021-03-27T13:41:53Z</time>
      </trkpt>
      <trkpt lat="40.525524" lon="-4.529944">
        <ele>1138.95</ele>
        <time>2021-03-27T13:41:55Z</time>
      </trkpt>
      <trkpt lat="40.526194" lon="-4.529778">
        <ele>1146.24</ele>
        <time>2021-03-27T13:41:58Z</time>
      </trkpt>
      <trkpt lat="40.526373" lon="-4.52979">
        <ele>1144.88</ele>
        <time>2021-03-27T13:42:00Z</time>
      </trkpt>
      <trkpt lat="40.526937" lon="-4.530081">
        <ele>1138.46</ele>
        <time>2021-03-27T13:42:03Z</time>
      </trkpt>
      <trkpt lat="40.527003" lon="-4.530276">
        <ele>1136.5</ele>
        <time>2021-03-27T13:42:05Z</time>
      </trkpt>
      <trkpt lat="40.526978" lon="-4.530509">
        <ele>1133.47</ele>
        <time>2021-03-27T13:42:08Z</time>
      </trkpt>
      <trkpt lat="40.527" lon="-4.530752">
        <ele>1129.79</ele>
        <time>2021-03-27T13:42:10Z</time>
      </trkpt>
      <trkpt lat="40.527142" lon="-4.531099">
        <ele>1126.73</ele>
        <time>2021-03-27T13:42:13Z</time>
      </trkpt>
      <trkpt lat="40.527478" lon="-4.5317">
        <ele>1125.79</ele>
        <time>2021-03-27T13:42:15Z</time>
      </trkpt>
      <trkpt lat="40.527609" lon="-4.531818">
        <ele>1124.67</ele>
        <time>2021-03-27T13:42:18Z</time>
      </trkpt>
      <trkpt lat="40.527904" lon="-4.531883">
        <ele>1124.85</ele>
        <time>2021-03-27T13:42:21Z</time>
      </trkpt>
      <trkpt lat="40.528163" lon="-4.532146">
        <ele>1121.53</ele>
        <time>2021-03-27T13:42:23Z</time>
      </trkpt>
      <trkpt lat="40.5283" lon="-4.532231">
        <ele>1121.42</ele>
        <time>2021-03-27T13:42:26Z</time>
      </trkpt>
      <trkpt lat="40.529" lon="-4.53213">
        <ele>1120.99</ele>
        <time>2021-03-27T13:42:28Z</time>
      </trkpt>
      <trkpt lat="40.529124" lon="-4.532216">
        <ele>1119.27</ele>
        <time>2021-03-27T13:42:31Z</time>
      </trkpt>
      <trkpt lat="40.529297" lon="-4.532446">
        <ele>1114.73</ele>
        <time>2021-03-27T13:42:33Z</time>
      </trkpt>
      <trkpt lat="40.52974" lon="-4.532881">
        <ele>1110.19</ele>
        <time>2021-03-27T13:42:36Z</time>
      </trkpt>
      <trkpt lat="40.529872" lon="-4.533044">
        <ele>1110.52</ele>
        <time>2021-03-27T13:42:38Z</time>
      </trkpt>
      <trkpt lat="40.530209" lon="-4.53364">
        <ele>1110.26</ele>
        <time>2021-03-27T13:42:41Z</time>
      </trkpt>
      <trkpt lat="40.530303" lon="-4.534">
        <ele>1107.93</ele>
        <time>2021-03-27T13:42:43Z</time>
      </trkpt>
      <trkpt lat="40.530251" lon="-4.535093">
        <ele>1097.79</ele>
        <time>2021-03-27T13:42:46Z</time>
      </trkpt>
      <trkpt lat="40.530353" lon="-4.535839">
        <ele>1091.99</ele>
        <time>2021-03-27T13:42:48Z</time>
      </trkpt>
      <trkpt lat="40.530492" lon="-4.536206">
        <ele>1090.98</ele>
        <time>2021-03-27T13:42:51Z</time>
      </trkpt>
      <trkpt lat="40.530621" lon="-4.536438">
        <ele>1093.57</ele>
        <time>2021-03-27T13:42:53Z</time>
      </trkpt>
      <trkpt lat="40.530664" lon="-4.536681">
        <ele>1093.39</ele>
        <time>2021-03-27T13:42:56Z</time>
      </trkpt>
      <trkpt lat="40.530588" lon="-4.537006">
        <ele>1088.66</ele>
        <time>2021-03-27T13:42:58Z</time>
      </trkpt>
      <trkpt lat="40.530568" lon="-4.537198">
        <ele>1087.36</ele>
        <time>2021-03-27T13:43:01Z</time>
      </trkpt>
      <trkpt lat="40.530632" lon="-4.537503">
        <ele>1085.59</ele>
        <time>2021-03-27T13:43:03Z</time>
      </trkpt>
      <trkpt lat="40.530746" lon="-4.537806">
        <ele>1081.46</ele>
        <time>2021-03-27T13:43:06Z</time>
      </trkpt>
      <trkpt lat="40.530894" lon="-4.537957">
        <ele>1080.16</ele>
        <time>2021-03-27T13:43:09Z</time>
      </trkpt>
      <trkpt lat="40.53111" lon="-4.538028">
        <ele>1081.77</ele>
        <time>2021-03-27T13:43:11Z</time>
      </trkpt>
      <trkpt lat="40.531272" lon="-4.53812">
        <ele>1083.31</ele>
        <time>2021-03-27T13:43:14Z</time>
      </trkpt>
      <trkpt lat="40.531423" lon="-4.538244">
        <ele>1083.95</ele>
        <time>2021-03-27T13:43:16Z</time>
      </trkpt>
      <trkpt lat="40.531681" lon="-4.538698">
        <ele>1078.92</ele>
        <time>2021-03-27T13:43:19Z</time>
      </trkpt>
      <trkpt lat="40.531944" lon="-4.539047">
        <ele>1073.16</ele>
        <time>2021-03-27T13:43:21Z</time>
      </trkpt>
      <trkpt lat="40.531973" lon="-4.539317">
        <ele>1068.85</ele>
        <time>2021-03-27T13:43:24Z</time>
      </trkpt>
      <trkpt lat="40.532044" lon="-4.539503">
        <ele>1066.74</ele>
        <time>2021-03-27T13:43:26Z</time>
      </trkpt>
      <trkpt lat="40.532777" lon="-4.540258">
        <ele>1059.77</ele>
        <time>2021-03-27T13:43:29Z</time>
      </trkpt>
      <trkpt lat="40.533184" lon="-4.540619">
        <ele>1049.58</ele>
        <time>2021-03-27T13:43:31Z</time>
      </trkpt>
      <trkpt lat="40.533274" lon="-4.540627">
        <ele>1049.09</ele>
        <time>2021-03-27T13:43:34Z</time>
      </trkpt>
      <trkpt lat="40.533398" lon="-4.540558">
        <ele>1049.77</ele>
        <time>2021-03-27T13:43:36Z</time>
      </trkpt>
      <trkpt lat="40.533517" lon="-4.540355">
        <ele>1053.49</ele>
        <time>2021-03-27T13:43:39Z</time>
      </trkpt>
      <trkpt lat="40.533677" lon="-4.539768">
        <ele>1057.41</ele>
        <time>2021-03-27T13:43:41Z</time>
      </trkpt>
      <trkpt lat="40.533778" lon="-4.539639">
        <ele>1057.16</ele>
        <time>2021-03-27T13:43:44Z</time>
      </trkpt>
      <trkpt lat="40.53391" lon="-4.539616">
        <ele>1056.97</ele>
        <time>2021-03-27T13:43:46Z</time>
      </trkpt>
      <trkpt lat="40.534013" lon="-4.539682">
        <ele>1057.31</ele>
        <time>2021-03-27T13:43:49Z</time>
      </trkpt>
      <trkpt lat="40.534475" lon="-4.540924">
        <ele>1051.79</ele>
        <time>2021-03-27T13:43:52Z</time>
      </trkpt>
      <trkpt lat="40.534556" lon="-4.541415">
        <ele>1048.09</ele>
        <time>2021-03-27T13:43:54Z</time>
      </trkpt>
      <trkpt lat="40.534844" lon="-4.542636">
        <ele>1045.35</ele>
        <time>2021-03-27T13:43:57Z</time>
      </trkpt>
      <trkpt lat="40.534825" lon="-4.543102">
        <ele>1045.2</ele>
        <time>2021-03-27T13:43:59Z</time>
      </trkpt>
      <trkpt lat="40.534865" lon="-4.543319">
        <ele>1044.21</ele>
        <time>2021-03-27T13:44:02Z</time>
      </trkpt>
      <trkpt lat="40.535317" lon="-4.544137">
        <ele>1041.38</ele>
        <time>2021-03-27T13:44:04Z</time>
      </trkpt>
      <trkpt lat="40.535708" lon="-4.544712">
        <ele>1038.97</ele>
        <time>2021-03-27T13:44:07Z</time>
      </trkpt>
      <trkpt lat="40.53616" lon="-4.545278">
        <ele>1035.17</ele>
        <time>2021-03-27T13:44:09Z</time>
      </trkpt>
      <trkpt lat="40.536267" lon="-4.545344">
        <ele>1034.15</ele>
        <time>2021-03-27T13:44:12Z</time>
      </trkpt>
      <trkpt lat="40.5364" lon="-4.545293">
        <ele>1035.5</ele>
        <time>2021-03-27T13:44:14Z</time>
      </trkpt>
      <trkpt lat="40.537092" lon="-4.543986">
        <ele>1031.05</ele>
        <time>2021-03-27T13:44:17Z</time>
      </trkpt>
      <trkpt lat="40.537122" lon="-4.543863">
        <ele>1030.41</ele>
        <time>2021-03-27T13:44:19Z</time>
      </trkpt>
      <trkpt lat="40.537117" lon="-4.543802">
        <ele>1030.43</ele>
        <time>2021-03-27T13:44:22Z</time>
      </trkpt>
      <trkpt lat="40.536915" lon="-4.542815">
        <ele>1034.11</ele>
        <time>2021-03-27T13:44:24Z</time>
      </trkpt>
      <trkpt lat="40.536916" lon="-4.542527">
        <ele>1033.71</ele>
        <time>2021-03-27T13:44:27Z</time>
      </trkpt>
      <trkpt lat="40.537" lon="-4.542322">
        <ele>1032.24</ele>
        <time>2021-03-27T13:44:29Z</time>
      </trkpt>
      <trkpt lat="40.537131" lon="-4.542191">
        <ele>1031.88</ele>
        <time>2021-03-27T13:44:32Z</time>
      </trkpt>
      <trkpt lat="40.537461" lon="-4.541933">
        <ele>1030.46</ele>
        <time>2021-03-27T13:44:34Z</time>
      </trkpt>
      <trkpt lat="40.537561" lon="-4.541817">
        <ele>1029.8</ele>
        <time>2021-03-27T13:44:37Z</time>
      </trkpt>
      <trkpt lat="40.537631" lon="-4.54168">
        <ele>1029.53</ele>
        <time>2021-03-27T13:44:40Z</time>
      </trkpt>
      <trkpt lat="40.537818" lon="-4.540855">
        <ele>1025.49</ele>
        <time>2021-03-27T13:44:42Z</time>
      </trkpt>
      <trkpt lat="40.537927" lon="-4.540543">
        <ele>1024.4</ele>
        <time>2021-03-27T13:44:45Z</time>
      </trkpt>
      <trkpt lat="40.538158" lon="-4.540104">
        <ele>1022.26</ele>
        <time>2021-03-27T13:44:47Z</time>
      </trkpt>
      <trkpt lat="40.538642" lon="-4.5393">
        <ele>1016.32</ele>
        <time>2021-03-27T13:44:50Z</time>
      </trkpt>
      <trkpt lat="40.538863" lon="-4.53912">
        <ele>1015.54</ele>
        <time>2021-03-27T13:44:52Z</time>
      </trkpt>
      <trkpt lat="40.539054" lon="-4.539165">
        <ele>1016.8</ele>
        <time>2021-03-27T13:44:55Z</time>
      </trkpt>
      <trkpt lat="40.539244" lon="-4.539354">
        <ele>1017.18</ele>
        <time>2021-03-27T13:44:57Z</time>
      </trkpt>
      <trkpt lat="40.539416" lon="-4.539649">
        <ele>1017.93</ele>
        <time>2021-03-27T13:45:00Z</time>
      </trkpt>
      <trkpt lat="40.539605" lon="-4.540231">
        <ele>1017.98</ele>
        <time>2021-03-27T13:45:02Z</time>
      </trkpt>
      <trkpt lat="40.540413" lon="-4.541138">
        <ele>1016.64</ele>
        <time>2021-03-27T13:45:05Z</time>
      </trkpt>
      <trkpt lat="40.540506" lon="-4.541205">
        <ele>1016.58</ele>
        <time>2021-03-27T13:45:07Z</time>
      </trkpt>
      <trkpt lat="40.540613" lon="-4.541239">
        <ele>1017.05</ele>
        <time>2021-03-27T13:45:10Z</time>
      </trkpt>
      <trkpt lat="40.541261" lon="-4.541091">
        <ele>1022.91</ele>
        <time>2021-03-27T13:45:12Z</time>
      </trkpt>
      <trkpt lat="40.541532" lon="-4.541121">
        <ele>1023.38</ele>
        <time>2021-03-27T13:45:15Z</time>
      </trkpt>
      <trkpt lat="40.542354" lon="-4.541381">
        <ele>1024.57</ele>
        <time>2021-03-27T13:45:17Z</time>
      </trkpt>
      <trkpt lat="40.543151" lon="-4.541665">
        <ele>1026.67</ele>
        <time>2021-03-27T13:45:20Z</time>
      </trkpt>
      <trkpt lat="40.54346" lon="-4.541708">
        <ele>1024.78</ele>
        <time>2021-03-27T13:45:22Z</time>
      </trkpt>
      <trkpt lat="40.543746" lon="-4.54167">
        <ele>1023.49</ele>
        <time>2021-03-27T13:45:25Z</time>
      </trkpt>
      <trkpt lat="40.544012" lon="-4.54151">
        <ele>1022.85</ele>
        <time>2021-03-27T13:45:28Z</time>
      </trkpt>
      <trkpt lat="40.54415" lon="-4.541489">
        <ele>1021.72</ele>
        <time>2021-03-27T13:45:30Z</time>
      </trkpt>
      <trkpt lat="40.544329" lon="-4.541523">
        <ele>1018.14</ele>
        <time>2021-03-27T13:45:33Z</time>
      </trkpt>
      <trkpt lat="40.54468" lon="-4.54166">
        <ele>1014.92</ele>
        <time>2021-03-27T13:45:35Z</time>
      </trkpt>
      <trkpt lat="40.544979" lon="-4.541543">
        <ele>1014.48</ele>
        <time>2021-03-27T13:45:38Z</time>
      </trkpt>
      <trkpt lat="40.54511" lon="-4.541551">
        <ele>1014.64</ele>
        <time>2021-03-27T13:45:40Z</time>
      </trkpt>
      <trkpt lat="40.545276" lon="-4.541554">
        <ele>1015.21</ele>
        <time>2021-03-27T13:45:43Z</time>
      </trkpt>
      <trkpt lat="40.545513" lon="-4.541719">
        <ele>1016.82</ele>
        <time>2021-03-27T13:45:45Z</time>
      </trkpt>
      <trkpt lat="40.545669" lon="-4.542014">
        <ele>1017.05</ele>
        <time>2021-03-27T13:45:48Z</time>
      </trkpt>
      <trkpt lat="40.5458" lon="-4.54235">
        <ele>1018.58</ele>
        <time>2021-03-27T13:45:50Z</time>
      </trkpt>
      <trkpt lat="40.545812" lon="-4.542653">
        <ele>1016.69</ele>
        <time>2021-03-27T13:45:53Z</time>
      </trkpt>
      <trkpt lat="40.545687" lon="-4.543823">
        <ele>1003.38</ele>
        <time>2021-03-27T13:45:55Z</time>
      </trkpt>
      <trkpt lat="40.545957" lon="-4.544493">
        <ele>1001.78</ele>
        <time>2021-03-27T13:45:58Z</time>
      </trkpt>
      <trkpt lat="40.545987" lon="-4.545192">
        <ele>994.12</ele>
        <time>2021-03-27T13:46:00Z</time>
      </trkpt>
      <trkpt lat="40.546082" lon="-4.545467">
        <ele>992.65</ele>
        <time>2021-03-27T13:46:03Z</time>
      </trkpt>
      <trkpt lat="40.546323" lon="-4.545824">
        <ele>992.98</ele>
        <time>2021-03-27T13:46:05Z</time>
      </trkpt>
      <trkpt lat="40.546406" lon="-4.546137">
        <ele>989.93</ele>
        <time>2021-03-27T13:46:08Z</time>
      </trkpt>
      <trkpt lat="40.546512" lon="-4.54635">
        <ele>989.15</ele>
        <time>2021-03-27T13:46:10Z</time>
      </trkpt>
      <trkpt lat="40.546815" lon="-4.546764">
        <ele>990.96</ele>
        <time>2021-03-27T13:46:13Z</time>
      </trkpt>
      <trkpt lat="40.546941" lon="-4.547093">
        <ele>989.22</ele>
        <time>2021-03-27T13:46:16Z</time>
      </trkpt>
      <trkpt lat="40.54703" lon="-4.547422">
        <ele>987.32</ele>
        <time>2021-03-27T13:46:18Z</time>
      </trkpt>
      <trkpt lat="40.547128" lon="-4.54828">
        <ele>978.88</ele>
        <time>2021-03-27T13:46:21Z</time>
      </trkpt>
      <trkpt lat="40.547141" lon="-4.548715">
        <ele>976.58</ele>
        <time>2021-03-27T13:46:23Z</time>
      </trkpt>
      <trkpt lat="40.546998" lon="-4.54931">
        <ele>972.66</ele>
        <time>2021-03-27T13:46:26Z</time>
      </trkpt>
      <trkpt lat="40.546994" lon="-4.549559">
        <ele>971.85</ele>
        <time>2021-03-27T13:46:28Z</time>
      </trkpt>
      <trkpt lat="40.547096" lon="-4.549739">
        <ele>970.75</ele>
        <time>2021-03-27T13:46:31Z</time>
      </trkpt>
      <trkpt lat="40.547301" lon="-4.549967">
        <ele>968.44</ele>
        <time>2021-03-27T13:46:33Z</time>
      </trkpt>
      <trkpt lat="40.54747" lon="-4.550093">
        <ele>968.6</ele>
        <time>2021-03-27T13:46:36Z</time>
      </trkpt>
      <trkpt lat="40.547509" lon="-4.550318">
        <ele>967.17</ele>
        <time>2021-03-27T13:46:38Z</time>
      </trkpt>
      <trkpt lat="40.547063" lon="-4.552329">
        <ele>960.27</ele>
        <time>2021-03-27T13:46:41Z</time>
      </trkpt>
      <trkpt lat="40.54705" lon="-4.552718">
        <ele>958.2</ele>
        <time>2021-03-27T13:46:43Z</time>
      </trkpt>
      <trkpt lat="40.547116" lon="-4.553028">
        <ele>957.29</ele>
        <time>2021-03-27T13:46:46Z</time>
      </trkpt>
      <trkpt lat="40.547282" lon="-4.553322">
        <ele>957.2</ele>
        <time>2021-03-27T13:46:48Z</time>
      </trkpt>
      <trkpt lat="40.547617" lon="-4.553594">
        <ele>960.28</ele>
        <time>2021-03-27T13:46:51Z</time>
      </trkpt>
      <trkpt lat="40.548119" lon="-4.554904">
        <ele>955.92</ele>
        <time>2021-03-27T13:46:53Z</time>
      </trkpt>
      <trkpt lat="40.548621" lon="-4.555629">
        <ele>950.11</ele>
        <time>2021-03-27T13:46:56Z</time>
      </trkpt>
      <trkpt lat="40.548879" lon="-4.555775">
        <ele>943.41</ele>
        <time>2021-03-27T13:46:58Z</time>
      </trkpt>
      <trkpt lat="40.549449" lon="-4.555774">
        <ele>941.61</ele>
        <time>2021-03-27T13:47:01Z</time>
      </trkpt>
      <trkpt lat="40.550427" lon="-4.555271">
        <ele>939.52</ele>
        <time>2021-03-27T13:47:04Z</time>
      </trkpt>
      <trkpt lat="40.551032" lon="-4.555524">
        <ele>931.84</ele>
        <time>2021-03-27T13:47:06Z</time>
      </trkpt>
      <trkpt lat="40.551231" lon="-4.555379">
        <ele>932.33</ele>
        <time>2021-03-27T13:47:09Z</time>
      </trkpt>
      <trkpt lat="40.55158" lon="-4.554417">
        <ele>934.62</ele>
        <time>2021-03-27T13:47:11Z</time>
      </trkpt>
      <trkpt lat="40.551677" lon="-4.554355">
        <ele>933.25</ele>
        <time>2021-03-27T13:47:14Z</time>
      </trkpt>
      <trkpt lat="40.551799" lon="-4.554383">
        <ele>932.27</ele>
        <time>2021-03-27T13:47:16Z</time>
      </trkpt>
      <trkpt lat="40.551922" lon="-4.554546">
        <ele>931.1</ele>
        <time>2021-03-27T13:47:19Z</time>
      </trkpt>
      <trkpt lat="40.551965" lon="-4.554742">
        <ele>931.37</ele>
        <time>2021-03-27T13:47:21Z</time>
      </trkpt>
      <trkpt lat="40.551974" lon="-4.554927">
        <ele>932.25</ele>
        <time>2021-03-27T13:47:24Z</time>
      </trkpt>
      <trkpt lat="40.551616" lon="-4.556182">
        <ele>927.08</ele>
        <time>2021-03-27T13:47:26Z</time>
      </trkpt>
      <trkpt lat="40.551615" lon="-4.556333">
        <ele>927.39</ele>
        <time>2021-03-27T13:47:29Z</time>
      </trkpt>
      <trkpt lat="40.551707" lon="-4.556461">
        <ele>928.36</ele>
        <time>2021-03-27T13:47:31Z</time>
      </trkpt>
      <trkpt lat="40.552151" lon="-4.556605">
        <ele>926.92</ele>
        <time>2021-03-27T13:47:34Z</time>
      </trkpt>
      <trkpt lat="40.552454" lon="-4.556785">
        <ele>925.11</ele>
        <time>2021-03-27T13:47:36Z</time>
      </trkpt>
      <trkpt lat="40.552804" lon="-4.557066">
        <ele>926.46</ele>
        <time>2021-03-27T13:47:39Z</time>
      </trkpt>
      <trkpt lat="40.553133" lon="-4.557491">
        <ele>920.81</ele>
        <time>2021-03-27T13:47:41Z</time>
      </trkpt>
      <trkpt lat="40.553225" lon="-4.557554">
        <ele>919.69</ele>
        <time>2021-03-27T13:47:44Z</time>
      </trkpt>
      <trkpt lat="40.553832" lon="-4.557735">
        <ele>913.57</ele>
        <time>2021-03-27T13:47:47Z</time>
      </trkpt>
      <trkpt lat="40.554269" lon="-4.557936">
        <ele>907.98</ele>
        <time>2021-03-27T13:47:49Z</time>
      </trkpt>
      <trkpt lat="40.554571" lon="-4.557979">
        <ele>907.58</ele>
        <time>2021-03-27T13:47:52Z</time>
      </trkpt>
      <trkpt lat="40.554839" lon="-4.55798">
        <ele>906.6</ele>
        <time>2021-03-27T13:47:54Z</time>
      </trkpt>
      <trkpt lat="40.554967" lon="-4.557922">
        <ele>907.22</ele>
        <time>2021-03-27T13:47:57Z</time>
      </trkpt>
      <trkpt lat="40.555057" lon="-4.557841">
        <ele>909.24</ele>
        <time>2021-03-27T13:47:59Z</time>
      </trkpt>
      <trkpt lat="40.555241" lon="-4.557725">
        <ele>910.8</ele>
        <time>2021-03-27T13:48:02Z</time>
      </trkpt>
      <trkpt lat="40.555289" lon="-4.557717">
        <ele>910.6</ele>
        <time>2021-03-27T13:48:04Z</time>
      </trkpt>
      <trkpt lat="40.55534" lon="-4.557739">
        <ele>910.41</ele>
        <time>2021-03-27T13:48:07Z</time>
      </trkpt>
      <trkpt lat="40.555709" lon="-4.558105">
        <ele>905.75</ele>
        <time>2021-03-27T13:48:09Z</time>
      </trkpt>
      <trkpt lat="40.556621" lon="-4.559218">
        <ele>895.35</ele>
        <time>2021-03-27T13:48:12Z</time>
      </trkpt>
      <trkpt lat="40.556777" lon="-4.559823">
        <ele>895.24</ele>
        <time>2021-03-27T13:48:14Z</time>
      </trkpt>
      <trkpt lat="40.556861" lon="-4.560214">
        <ele>903.78</ele>
        <time>2021-03-27T13:48:17Z</time>
      </trkpt>
      <trkpt lat="40.556999" lon="-4.560294">
        <ele>907.45</ele>
        <time>2021-03-27T13:48:20Z</time>
      </trkpt>
      <trkpt lat="40.557419" lon="-4.560191">
        <ele>904.2</ele>
        <time>2021-03-27T13:48:22Z</time>
      </trkpt>
      <trkpt lat="40.558577" lon="-4.559957">
        <ele>910.73</ele>
        <time>2021-03-27T13:48:25Z</time>
      </trkpt>
      <trkpt lat="40.558958" lon="-4.559936">
        <ele>908.63</ele>
        <time>2021-03-27T13:48:28Z</time>
      </trkpt>
      <trkpt lat="40.559624" lon="-4.56009">
        <ele>913.73</ele>
        <time>2021-03-27T13:48:30Z</time>
      </trkpt>
      <trkpt lat="40.560195" lon="-4.560327">
        <ele>916.88</ele>
        <time>2021-03-27T13:48:33Z</time>
      </trkpt>
      <trkpt lat="40.560473" lon="-4.560499">
        <ele>917.92</ele>
        <time>2021-03-27T13:48:36Z</time>
      </trkpt>
      <trkpt lat="40.560702" lon="-4.560952">
        <ele>922.75</ele>
        <time>2021-03-27T13:48:38Z</time>
      </trkpt>
      <trkpt lat="40.560942" lon="-4.561019">
        <ele>921.47</ele>
        <time>2021-03-27T13:48:41Z</time>
      </trkpt>
      <trkpt lat="40.561105" lon="-4.560939">
        <ele>921.37</ele>
        <time>2021-03-27T13:48:44Z</time>
      </trkpt>
      <trkpt lat="40.561157" lon="-4.560895">
        <ele>921.75</ele>
        <time>2021-03-27T13:48:46Z</time>
      </trkpt>
      <trkpt lat="40.56128" lon="-4.560619">
        <ele>920.5</ele>
        <time>2021-03-27T13:48:49Z</time>
      </trkpt>
      <trkpt lat="40.561376" lon="-4.560525">
        <ele>920.3</ele>
        <time>2021-03-27T13:48:52Z</time>
      </trkpt>
      <trkpt lat="40.561524" lon="-4.560445">
        <ele>919.98</ele>
        <time>2021-03-27T13:48:55Z</time>
      </trkpt>
      <trkpt lat="40.561885" lon="-4.560299">
        <ele>920.86</ele>
        <time>2021-03-27T13:48:58Z</time>
      </trkpt>
      <trkpt lat="40.562406" lon="-4.560159">
        <ele>921.95</ele>
        <time>2021-03-27T13:49:01Z</time>
      </trkpt>
      <trkpt lat="40.56267" lon="-4.560164">
        <ele>922.9</ele>
        <time>2021-03-27T13:49:04Z</time>
      </trkpt>
      <trkpt lat="40.563606" lon="-4.560342">
        <ele>931.74</ele>
        <time>2021-03-27T13:49:07Z</time>
      </trkpt>
      <trkpt lat="40.564268" lon="-4.560367">
        <ele>931.29</ele>
        <time>2021-03-27T13:49:10Z</time>
      </trkpt>
      <trkpt lat="40.564837" lon="-4.560667">
        <ele>936.8</ele>
        <time>2021-03-27T13:49:13Z</time>
      </trkpt>
      <trkpt lat="40.565541" lon="-4.560707">
        <ele>939.46</ele>
        <time>2021-03-27T13:49:16Z</time>
      </trkpt>
      <trkpt lat="40.566634" lon="-4.561038">
        <ele>947.27</ele>
        <time>2021-03-27T13:49:19Z</time>
      </trkpt>
      <trkpt lat="40.566944" lon="-4.560901">
        <ele>943.45</ele>
        <time>2021-03-27T13:49:22Z</time>
      </trkpt>
      <trkpt lat="40.567798" lon="-4.560778">
        <ele>946.35</ele>
        <time>2021-03-27T13:49:25Z</time>
      </trkpt>
      <trkpt lat="40.568011" lon="-4.560803">
        <ele>944.06</ele>
        <time>2021-03-27T13:49:28Z</time>
      </trkpt>
      <trkpt lat="40.568159" lon="-4.560872">
        <ele>944.73</ele>
        <time>2021-03-27T13:49:31Z</time>
      </trkpt>
      <trkpt lat="40.568518" lon="-4.561079">
        <ele>948.31</ele>
        <time>2021-03-27T13:49:34Z</time>
      </trkpt>
      <trkpt lat="40.5687" lon="-4.56122">
        <ele>951.39</ele>
        <time>2021-03-27T13:49:37Z</time>
      </trkpt>
      <trkpt lat="40.56877" lon="-4.561224">
        <ele>951.98</ele>
        <time>2021-03-27T13:49:41Z</time>
      </trkpt>
      <trkpt lat="40.569118" lon="-4.561071">
        <ele>952.29</ele>
        <time>2021-03-27T13:49:44Z</time>
      </trkpt>
      <trkpt lat="40.569537" lon="-4.561009">
        <ele>954.24</ele>
        <time>2021-03-27T13:49:47Z</time>
      </trkpt>
      <trkpt lat="40.570213" lon="-4.561161">
        <ele>959.71</ele>
        <time>2021-03-27T13:49:50Z</time>
      </trkpt>
      <trkpt lat="40.570311" lon="-4.561237">
        <ele>960.86</ele>
        <time>2021-03-27T13:49:53Z</time>
      </trkpt>
      <trkpt lat="40.570363" lon="-4.561354">
        <ele>961.96</ele>
        <time>2021-03-27T13:49:56Z</time>
      </trkpt>
      <trkpt lat="40.570348" lon="-4.561519">
        <ele>963.21</ele>
        <time>2021-03-27T13:49:59Z</time>
      </trkpt>
      <trkpt lat="40.570181" lon="-4.561931">
        <ele>967.41</ele>
        <time>2021-03-27T13:50:02Z</time>
      </trkpt>
      <trkpt lat="40.570108" lon="-4.562183">
        <ele>968.57</ele>
        <time>2021-03-27T13:50:05Z</time>
      </trkpt>
      <trkpt lat="40.57008" lon="-4.562854">
        <ele>975.01</ele>
        <time>2021-03-27T13:50:08Z</time>
      </trkpt>
      <trkpt lat="40.570121" lon="-4.562967">
        <ele>974.85</ele>
        <time>2021-03-27T13:50:11Z</time>
      </trkpt>
      <trkpt lat="40.570195" lon="-4.563026">
        <ele>974.45</ele>
        <time>2021-03-27T13:50:14Z</time>
      </trkpt>
      <trkpt lat="40.570372" lon="-4.563061">
        <ele>976.11</ele>
        <time>2021-03-27T13:50:17Z</time>
      </trkpt>
      <trkpt lat="40.570484" lon="-4.563014">
        <ele>977.74</ele>
        <time>2021-03-27T13:50:20Z</time>
      </trkpt>
      <trkpt lat="40.571107" lon="-4.562232">
        <ele>978.0</ele>
        <time>2021-03-27T13:50:23Z</time>
      </trkpt>
      <trkpt lat="40.571446" lon="-4.562095">
        <ele>981.77</ele>
        <time>2021-03-27T13:50:26Z</time>
      </trkpt>
      <trkpt lat="40.571788" lon="-4.561884">
        <ele>980.14</ele>
        <time>2021-03-27T13:50:29Z</time>
      </trkpt>
      <trkpt lat="40.572521" lon="-4.561813">
        <ele>984.23</ele>
        <time>2021-03-27T13:50:32Z</time>
      </trkpt>
      <trkpt lat="40.572965" lon="-4.561958">
        <ele>987.62</ele>
        <time>2021-03-27T13:50:35Z</time>
      </trkpt>
      <trkpt lat="40.573107" lon="-4.562075">
        <ele>988.62</ele>
        <time>2021-03-27T13:50:38Z</time>
      </trkpt>
      <trkpt lat="40.573613" lon="-4.562617">
        <ele>993.1</ele>
        <time>2021-03-27T13:50:42Z</time>
      </trkpt>
      <trkpt lat="40.573765" lon="-4.562657">
        <ele>994.14</ele>
        <time>2021-03-27T13:50:45Z</time>
      </trkpt>
      <trkpt lat="40.574097" lon="-4.562579">
        <ele>994.96</ele>
        <time>2021-03-27T13:50:48Z</time>
      </trkpt>
      <trkpt lat="40.574184" lon="-4.562494">
        <ele>994.1</ele>
        <time>2021-03-27T13:50:51Z</time>
      </trkpt>
      <trkpt lat="40.574294" lon="-4.562177">
        <ele>984.85</ele>
        <time>2021-03-27T13:50:54Z</time>
      </trkpt>
      <trkpt lat="40.574433" lon="-4.562062">
        <ele>982.57</ele>
        <time>2021-03-27T13:50:57Z</time>
      </trkpt>
      <trkpt lat="40.575174" lon="-4.562203">
        <ele>995.24</ele>
        <time>2021-03-27T13:51:00Z</time>
      </trkpt>
      <trkpt lat="40.575848" lon="-4.562496">
        <ele>995.96</ele>
        <time>2021-03-27T13:51:03Z</time>
      </trkpt>
      <trkpt lat="40.576667" lon="-4.562314">
        <ele>1004.31</ele>
        <time>2021-03-27T13:51:06Z</time>
      </trkpt>
      <trkpt lat="40.577322" lon="-4.562361">
        <ele>1003.1</ele>
        <time>2021-03-27T13:51:09Z</time>
      </trkpt>
      <trkpt lat="40.577937" lon="-4.562513">
        <ele>1002.19</ele>
        <time>2021-03-27T13:51:12Z</time>
      </trkpt>
      <trkpt lat="40.578477" lon="-4.563264">
        <ele>1013.54</ele>
        <time>2021-03-27T13:51:15Z</time>
      </trkpt>
      <trkpt lat="40.578479" lon="-4.56351">
        <ele>1012.85</ele>
        <time>2021-03-27T13:51:18Z</time>
      </trkpt>
      <trkpt lat="40.578207" lon="-4.564381">
        <ele>1018.7</ele>
        <time>2021-03-27T13:51:21Z</time>
      </trkpt>
      <trkpt lat="40.578156" lon="-4.564724">
        <ele>1021.94</ele>
        <time>2021-03-27T13:51:24Z</time>
      </trkpt>
      <trkpt lat="40.578192" lon="-4.565567">
        <ele>1028.23</ele>
        <time>2021-03-27T13:51:27Z</time>
      </trkpt>
      <trkpt lat="40.578269" lon="-4.565997">
        <ele>1028.17</ele>
        <time>2021-03-27T13:51:30Z</time>
      </trkpt>
      <trkpt lat="40.578373" lon="-4.566133">
        <ele>1026.01</ele>
        <time>2021-03-27T13:51:33Z</time>
      </trkpt>
      <trkpt lat="40.578487" lon="-4.566221">
        <ele>1024.54</ele>
        <time>2021-03-27T13:51:36Z</time>
      </trkpt>
      <trkpt lat="40.578752" lon="-4.566206">
        <ele>1022.74</ele>
        <time>2021-03-27T13:51:39Z</time>
      </trkpt>
      <trkpt lat="40.578987" lon="-4.566163">
        <ele>1026.88</ele>
        <time>2021-03-27T13:51:43Z</time>
      </trkpt>
      <trkpt lat="40.579084" lon="-4.566056">
        <ele>1028.76</ele>
        <time>2021-03-27T13:51:46Z</time>
      </trkpt>
      <trkpt lat="40.579499" lon="-4.565036">
        <ele>1031.63</ele>
        <time>2021-03-27T13:51:49Z</time>
      </trkpt>
      <trkpt lat="40.579672" lon="-4.564818">
        <ele>1029.62</ele>
        <time>2021-03-27T13:51:52Z</time>
      </trkpt>
      <trkpt lat="40.579893" lon="-4.564691">
        <ele>1028.51</ele>
        <time>2021-03-27T13:51:55Z</time>
      </trkpt>
      <trkpt lat="40.580077" lon="-4.564749">
        <ele>1031.5</ele>
        <time>2021-03-27T13:51:58Z</time>
      </trkpt>
      <trkpt lat="40.580354" lon="-4.564977">
        <ele>1040.25</ele>
        <time>2021-03-27T13:52:01Z</time>
      </trkpt>
      <trkpt lat="40.580584" lon="-4.564962">
        <ele>1042.31</ele>
        <time>2021-03-27T13:52:04Z</time>
      </trkpt>
      <trkpt lat="40.58129" lon="-4.564821">
        <ele>1039.77</ele>
        <time>2021-03-27T13:52:07Z</time>
      </trkpt>
      <trkpt lat="40.583045" lon="-4.565468">
        <ele>1052.83</ele>
        <time>2021-03-27T13:52:10Z</time>
      </trkpt>
      <trkpt lat="40.583562" lon="-4.565331">
        <ele>1056.85</ele>
        <time>2021-03-27T13:52:13Z</time>
      </trkpt>
      <trkpt lat="40.583824" lon="-4.565361">
        <ele>1060.99</ele>
        <time>2021-03-27T13:52:16Z</time>
      </trkpt>
      <trkpt lat="40.584239" lon="-4.565481">
        <ele>1064.74</ele>
        <time>2021-03-27T13:52:19Z</time>
      </trkpt>
      <trkpt lat="40.58443" lon="-4.565618">
        <ele>1066.02</ele>
        <time>2021-03-27T13:52:22Z</time>
      </trkpt>
      <trkpt lat="40.584561" lon="-4.565837">
        <ele>1067.34</ele>
        <time>2021-03-27T13:52:25Z</time>
      </trkpt>
      <trkpt lat="40.584741" lon="-4.566582">
        <ele>1069.1</ele>
        <time>2021-03-27T13:52:28Z</time>
      </trkpt>
      <trkpt lat="40.58475" lon="-4.567867">
        <ele>1073.69</ele>
        <time>2021-03-27T13:52:31Z</time>
      </trkpt>
      <trkpt lat="40.584834" lon="-4.571094">
        <ele>1091.23</ele>
        <time>2021-03-27T13:52:34Z</time>
      </trkpt>
      <trkpt lat="40.584849" lon="-4.573592">
        <ele>1105.23</ele>
        <time>2021-03-27T13:52:37Z</time>
      </trkpt>
      <trkpt lat="40.584897" lon="-4.575103">
        <ele>1114.99</ele>
        <time>2021-03-27T13:52:40Z</time>
      </trkpt>
      <trkpt lat="40.584842" lon="-4.576081">
        <ele>1117.86</ele>
        <time>2021-03-27T13:52:44Z</time>
      </trkpt>
      <trkpt lat="40.584847" lon="-4.57757">
        <ele>1124.33</ele>
        <time>2021-03-27T13:52:47Z</time>
      </trkpt>
      <trkpt lat="40.584652" lon="-4.578278">
        <ele>1128.57</ele>
        <time>2021-03-27T13:52:50Z</time>
      </trkpt>
      <trkpt lat="40.584533" lon="-4.580179">
        <ele>1141.52</ele>
        <time>2021-03-27T13:52:53Z</time>
      </trkpt>
      <trkpt lat="40.584632" lon="-4.580767">
        <ele>1140.23</ele>
        <time>2021-03-27T13:52:56Z</time>
      </trkpt>
      <trkpt lat="40.584655" lon="-4.581031">
        <ele>1138.88</ele>
        <time>2021-03-27T13:52:59Z</time>
      </trkpt>
      <trkpt lat="40.584554" lon="-4.581239">
        <ele>1142.37</ele>
        <time>2021-03-27T13:53:02Z</time>
      </trkpt>
      <trkpt lat="40.583853" lon="-4.582349">
        <ele>1151.22</ele>
        <time>2021-03-27T13:53:05Z</time>
      </trkpt>
      <trkpt lat="40.583733" lon="-4.582587">
        <ele>1150.62</ele>
        <time>2021-03-27T13:53:08Z</time>
      </trkpt>
      <trkpt lat="40.58345" lon="-4.583759">
        <ele>1154.92</ele>
        <time>2021-03-27T13:53:11Z</time>
      </trkpt>
      <trkpt lat="40.583037" lon="-4.584584">
        <ele>1163.3</ele>
        <time>2021-03-27T13:53:14Z</time>
      </trkpt>
      <trkpt lat="40.582991" lon="-4.584783">
        <ele>1165.7</ele>
        <time>2021-03-27T13:53:17Z</time>
      </trkpt>
      <trkpt lat="40.582959" lon="-4.585383">
        <ele>1165.3</ele>
        <time>2021-03-27T13:53:20Z</time>
      </trkpt>
      <trkpt lat="40.582959" lon="-4.585383">
        <ele>1165.3</ele>
        <time>2021-03-27T13:53:20Z</time>
      </trkpt>
      <trkpt lat="40.58287" lon="-4.586649">
        <ele>1173.85</ele>
        <time>2021-03-27T13:53:25Z</time>
      </trkpt>
      <trkpt lat="40.582678" lon="-4.587789">
        <ele>1181.24</ele>
        <time>2021-03-27T13:53:30Z</time>
      </trkpt>
      <trkpt lat="40.582692" lon="-4.587909">
        <ele>1180.95</ele>
        <time>2021-03-27T13:53:34Z</time>
      </trkpt>
      <trkpt lat="40.582724" lon="-4.588013">
        <ele>1180.26</ele>
        <time>2021-03-27T13:53:39Z</time>
      </trkpt>
      <trkpt lat="40.582859" lon="-4.588077">
        <ele>1179.73</ele>
        <time>2021-03-27T13:53:44Z</time>
      </trkpt>
      <trkpt lat="40.582951" lon="-4.588061">
        <ele>1180.31</ele>
        <time>2021-03-27T13:53:48Z</time>
      </trkpt>
      <trkpt lat="40.583055" lon="-4.587994">
        <ele>1180.56</ele>
        <time>2021-03-27T13:53:53Z</time>
      </trkpt>
      <trkpt lat="40.583738" lon="-4.586793">
        <ele>1184.65</ele>
        <time>2021-03-27T13:53:58Z</time>
      </trkpt>
      <trkpt lat="40.585323" lon="-4.584818">
        <ele>1196.78</ele>
        <time>2021-03-27T13:54:02Z</time>
      </trkpt>
      <trkpt lat="40.58582" lon="-4.584383">
        <ele>1195.47</ele>
        <time>2021-03-27T13:54:07Z</time>
      </trkpt>
      <trkpt lat="40.586216" lon="-4.584192">
        <ele>1199.73</ele>
        <time>2021-03-27T13:54:12Z</time>
      </trkpt>
      <trkpt lat="40.586387" lon="-4.584017">
        <ele>1200.81</ele>
        <time>2021-03-27T13:54:17Z</time>
      </trkpt>
      <trkpt lat="40.587297" lon="-4.582792">
        <ele>1209.03</ele>
        <time>2021-03-27T13:54:21Z</time>
      </trkpt>
      <trkpt lat="40.587371" lon="-4.582774">
        <ele>1211.31</ele>
        <time>2021-03-27T13:54:26Z</time>
      </trkpt>
      <trkpt lat="40.587436" lon="-4.582823">
        <ele>1214.81</ele>
        <time>2021-03-27T13:54:31Z</time>
      </trkpt>
      <trkpt lat="40.587449" lon="-4.582904">
        <ele>1217.26</ele>
        <time>2021-03-27T13:54:35Z</time>
      </trkpt>
      <trkpt lat="40.587385" lon="-4.583082">
        <ele>1219.17</ele>
        <time>2021-03-27T13:54:40Z</time>
      </trkpt>
      <trkpt lat="40.586727" lon="-4.584411">
        <ele>1223.9</ele>
        <time>2021-03-27T13:54:45Z</time>
      </trkpt>
      <trkpt lat="40.586453" lon="-4.584899">
        <ele>1227.11</ele>
        <time>2021-03-27T13:54:50Z</time>
      </trkpt>
      <trkpt lat="40.58592" lon="-4.585642">
        <ele>1230.61</ele>
        <time>2021-03-27T13:54:54Z</time>
      </trkpt>
      <trkpt lat="40.585793" lon="-4.585888">
        <ele>1231.59</ele>
        <time>2021-03-27T13:54:59Z</time>
      </trkpt>
      <trkpt lat="40.585383" lon="-4.587132">
        <ele>1238.71</ele>
        <time>2021-03-27T13:55:04Z</time>
      </trkpt>
      <trkpt lat="40.585219" lon="-4.587567">
        <ele>1242.29</ele>
        <time>2021-03-27T13:55:08Z</time>
      </trkpt>
      <trkpt lat="40.584907" lon="-4.587995">
        <ele>1239.88</ele>
        <time>2021-03-27T13:55:13Z</time>
      </trkpt>
      <trkpt lat="40.584804" lon="-4.588228">
        <ele>1241.64</ele>
        <time>2021-03-27T13:55:18Z</time>
      </trkpt>
      <trkpt lat="40.584014" lon="-4.591539">
        <ele>1256.04</ele>
        <time>2021-03-27T13:55:23Z</time>
      </trkpt>
      <trkpt lat="40.58384" lon="-4.592616">
        <ele>1263.23</ele>
        <time>2021-03-27T13:55:27Z</time>
      </trkpt>
      <trkpt lat="40.58372" lon="-4.592948">
        <ele>1262.28</ele>
        <time>2021-03-27T13:55:32Z</time>
      </trkpt>
      <trkpt lat="40.58331" lon="-4.593653">
        <ele>1263.68</ele>
        <time>2021-03-27T13:55:37Z</time>
      </trkpt>
      <trkpt lat="40.582328" lon="-4.594856">
        <ele>1269.13</ele>
        <time>2021-03-27T13:55:41Z</time>
      </trkpt>
      <trkpt lat="40.582129" lon="-4.595161">
        <ele>1271.72</ele>
        <time>2021-03-27T13:55:46Z</time>
      </trkpt>
      <trkpt lat="40.581925" lon="-4.595521">
        <ele>1274.67</ele>
        <time>2021-03-27T13:55:51Z</time>
      </trkpt>
      <trkpt lat="40.581476" lon="-4.596767">
        <ele>1282.16</ele>
        <time>2021-03-27T13:55:55Z</time>
      </trkpt>
      <trkpt lat="40.581064" lon="-4.597734">
        <ele>1285.74</ele>
        <time>2021-03-27T13:56:00Z</time>
      </trkpt>
      <trkpt lat="40.580835" lon="-4.598392">
        <ele>1288.88</ele>
        <time>2021-03-27T13:56:05Z</time>
      </trkpt>
      <trkpt lat="40.580727" lon="-4.598546">
        <ele>1290.5</ele>
        <time>2021-03-27T13:56:10Z</time>
      </trkpt>
      <trkpt lat="40.580475" lon="-4.598659">
        <ele>1293.2</ele>
        <time>2021-03-27T13:56:14Z</time>
      </trkpt>
      <trkpt lat="40.580309" lon="-4.598655">
        <ele>1294.78</ele>
        <time>2021-03-27T13:56:19Z</time>
      </trkpt>
      <trkpt lat="40.579914" lon="-4.598403">
        <ele>1293.41</ele>
        <time>2021-03-27T13:56:24Z</time>
      </trkpt>
      <trkpt lat="40.579796" lon="-4.59838">
        <ele>1293.08</ele>
        <time>2021-03-27T13:56:28Z</time>
      </trkpt>
      <trkpt lat="40.579658" lon="-4.598437">
        <ele>1293.72</ele>
        <time>2021-03-27T13:56:33Z</time>
      </trkpt>
      <trkpt lat="40.579147" lon="-4.599007">
        <ele>1300.28</ele>
        <time>2021-03-27T13:56:38Z</time>
      </trkpt>
      <trkpt lat="40.577925" lon="-4.60044">
        <ele>1309.95</ele>
        <time>2021-03-27T13:56:43Z</time>
      </trkpt>
      <trkpt lat="40.577581" lon="-4.600981">
        <ele>1310.43</ele>
        <time>2021-03-27T13:56:47Z</time>
      </trkpt>
      <trkpt lat="40.577426" lon="-4.601346">
        <ele>1311.69</ele>
        <time>2021-03-27T13:56:52Z</time>
      </trkpt>
      <trkpt lat="40.576055" lon="-4.605433">
        <ele>1313.4</ele>
        <time>2021-03-27T13:56:57Z</time>
      </trkpt>
      <trkpt lat="40.575692" lon="-4.606048">
        <ele>1311.34</ele>
        <time>2021-03-27T13:57:01Z</time>
      </trkpt>
      <trkpt lat="40.575601" lon="-4.606342">
        <ele>1309.82</ele>
        <time>2021-03-27T13:57:06Z</time>
      </trkpt>
      <trkpt lat="40.575458" lon="-4.607352">
        <ele>1307.02</ele>
        <time>2021-03-27T13:57:11Z</time>
      </trkpt>
      <trkpt lat="40.575469" lon="-4.607689">
        <ele>1303.98</ele>
        <time>2021-03-27T13:57:16Z</time>
      </trkpt>
      <trkpt lat="40.576254" lon="-4.610282">
        <ele>1299.96</ele>
        <time>2021-03-27T13:57:20Z</time>
      </trkpt>
      <trkpt lat="40.576472" lon="-4.610635">
        <ele>1297.44</ele>
        <time>2021-03-27T13:57:25Z</time>
      </trkpt>
      <trkpt lat="40.577713" lon="-4.612063">
        <ele>1289.07</ele>
        <time>2021-03-27T13:57:30Z</time>
      </trkpt>
      <trkpt lat="40.579647" lon="-4.614355">
        <ele>1283.83</ele>
        <time>2021-03-27T13:57:34Z</time>
      </trkpt>
      <trkpt lat="40.579848" lon="-4.614499">
        <ele>1283.08</ele>
        <time>2021-03-27T13:57:39Z</time>
      </trkpt>
      <trkpt lat="40.58006" lon="-4.614473">
        <ele>1283.28</ele>
        <time>2021-03-27T13:57:44Z</time>
      </trkpt>
      <trkpt lat="40.580671" lon="-4.614149">
        <ele>1280.26</ele>
        <time>2021-03-27T13:57:48Z</time>
      </trkpt>
      <trkpt lat="40.581026" lon="-4.614012">
        <ele>1280.5</ele>
        <time>2021-03-27T13:57:53Z</time>
      </trkpt>
      <trkpt lat="40.581176" lon="-4.614045">
        <ele>1280.92</ele>
        <time>2021-03-27T13:57:58Z</time>
      </trkpt>
      <trkpt lat="40.581248" lon="-4.614182">
        <ele>1280.34</ele>
        <time>2021-03-27T13:58:03Z</time>
      </trkpt>
      <trkpt lat="40.581748" lon="-4.615961">
        <ele>1276.7</ele>
        <time>2021-03-27T13:58:07Z</time>
      </trkpt>
      <trkpt lat="40.581929" lon="-4.616316">
        <ele>1275.86</ele>
        <time>2021-03-27T13:58:12Z</time>
      </trkpt>
      <trkpt lat="40.582463" lon="-4.617074">
        <ele>1270.46</ele>
        <time>2021-03-27T13:58:17Z</time>
      </trkpt>
      <trkpt lat="40.582914" lon="-4.617647">
        <ele>1267.19</ele>
        <time>2021-03-27T13:58:21Z</time>
      </trkpt>
      <trkpt lat="40.583695" lon="-4.618306">
        <ele>1265.95</ele>
        <time>2021-03-27T13:58:26Z</time>
      </trkpt>
      <trkpt lat="40.584921" lon="-4.619386">
        <ele>1260.94</ele>
        <time>2021-03-27T13:58:31Z</time>
      </trkpt>
      <trkpt lat="40.585465" lon="-4.619777">
        <ele>1255.62</ele>
        <time>2021-03-27T13:58:36Z</time>
      </trkpt>
      <trkpt lat="40.585804" lon="-4.619825">
        <ele>1254.96</ele>
        <time>2021-03-27T13:58:40Z</time>
      </trkpt>
      <trkpt lat="40.587392" lon="-4.619629">
        <ele>1248.39</ele>
        <time>2021-03-27T13:58:45Z</time>
      </trkpt>
      <trkpt lat="40.588749" lon="-4.619752">
        <ele>1241.64</ele>
        <time>2021-03-27T13:58:50Z</time>
      </trkpt>
      <trkpt lat="40.590954" lon="-4.619493">
        <ele>1235.77</ele>
        <time>2021-03-27T13:58:54Z</time>
      </trkpt>
      <trkpt lat="40.592059" lon="-4.619595">
        <ele>1224.36</ele>
        <time>2021-03-27T13:58:59Z</time>
      </trkpt>
      <trkpt lat="40.592584" lon="-4.619288">
        <ele>1224.52</ele>
        <time>2021-03-27T13:59:04Z</time>
      </trkpt>
      <trkpt lat="40.592865" lon="-4.619282">
        <ele>1226.35</ele>
        <time>2021-03-27T13:59:09Z</time>
      </trkpt>
      <trkpt lat="40.593013" lon="-4.619419">
        <ele>1228.45</ele>
        <time>2021-03-27T13:59:13Z</time>
      </trkpt>
      <trkpt lat="40.592992" lon="-4.619846">
        <ele>1225.42</ele>
        <time>2021-03-27T13:59:18Z</time>
      </trkpt>
      <trkpt lat="40.593028" lon="-4.620211">
        <ele>1223.87</ele>
        <time>2021-03-27T13:59:23Z</time>
      </trkpt>
      <trkpt lat="40.593349" lon="-4.621177">
        <ele>1220.35</ele>
        <time>2021-03-27T13:59:27Z</time>
      </trkpt>
      <trkpt lat="40.593952" lon="-4.621638">
        <ele>1213.64</ele>
        <time>2021-03-27T13:59:32Z</time>
      </trkpt>
      <trkpt lat="40.594236" lon="-4.621757">
        <ele>1212.85</ele>
        <time>2021-03-27T13:59:37Z</time>
      </trkpt>
      <trkpt lat="40.595188" lon="-4.621901">
        <ele>1208.51</ele>
        <time>2021-03-27T13:59:41Z</time>
      </trkpt>
      <trkpt lat="40.595371" lon="-4.621973">
        <ele>1208.09</ele>
        <time>2021-03-27T13:59:46Z</time>
      </trkpt>
      <trkpt lat="40.596214" lon="-4.622551">
        <ele>1206.3</ele>
        <time>2021-03-27T13:59:51Z</time>
      </trkpt>
      <trkpt lat="40.597073" lon="-4.623224">
        <ele>1206.57</ele>
        <time>2021-03-27T13:59:56Z</time>
      </trkpt>
      <trkpt lat="40.59754" lon="-4.623613">
        <ele>1203.56</ele>
        <time>2021-03-27T14:00:00Z</time>
      </trkpt>
      <trkpt lat="40.59776" lon="-4.623677">
        <ele>1200.95</ele>
        <time>2021-03-27T14:00:05Z</time>
      </trkpt>
      <trkpt lat="40.598828" lon="-4.623506">
        <ele>1202.21</ele>
        <time>2021-03-27T14:00:10Z</time>
      </trkpt>
      <trkpt lat="40.600457" lon="-4.623571">
        <ele>1194.74</ele>
        <time>2021-03-27T14:00:14Z</time>
      </trkpt>
      <trkpt lat="40.602214" lon="-4.623423">
        <ele>1191.66</ele>
        <time>2021-03-27T14:00:19Z</time>
      </trkpt>
      <trkpt lat="40.6025" lon="-4.623442">
        <ele>1194.21</ele>
        <time>2021-03-27T14:00:24Z</time>
      </trkpt>
      <trkpt lat="40.603694" lon="-4.623973">
        <ele>1195.09</ele>
        <time>2021-03-27T14:00:29Z</time>
      </trkpt>
      <trkpt lat="40.604139" lon="-4.624335">
        <ele>1197.74</ele>
        <time>2021-03-27T14:00:33Z</time>
      </trkpt>
      <trkpt lat="40.604577" lon="-4.624754">
        <ele>1196.46</ele>
        <time>2021-03-27T14:00:38Z</time>
      </trkpt>
      <trkpt lat="40.605582" lon="-4.627302">
        <ele>1192.45</ele>
        <time>2021-03-27T14:00:43Z</time>
      </trkpt>
      <trkpt lat="40.607328" lon="-4.630856">
        <ele>1190.3</ele>
        <time>2021-03-27T14:00:47Z</time>
      </trkpt>
      <trkpt lat="40.60796" lon="-4.631741">
        <ele>1187.04</ele>
        <time>2021-03-27T14:00:52Z</time>
      </trkpt>
      <trkpt lat="40.6087" lon="-4.632708">
        <ele>1185.49</ele>
        <time>2021-03-27T14:00:57Z</time>
      </trkpt>
      <trkpt lat="40.610323" lon="-4.633709">
        <ele>1177.4</ele>
        <time>2021-03-27T14:01:02Z</time>
      </trkpt>
      <trkpt lat="40.610615" lon="-4.633841">
        <ele>1176.34</ele>
        <time>2021-03-27T14:01:06Z</time>
      </trkpt>
      <trkpt lat="40.612575" lon="-4.63432">
        <ele>1165.9</ele>
        <time>2021-03-27T14:01:11Z</time>
      </trkpt>
      <trkpt lat="40.613149" lon="-4.63462">
        <ele>1161.36</ele>
        <time>2021-03-27T14:01:16Z</time>
      </trkpt>
      <trkpt lat="40.613691" lon="-4.634929">
        <ele>1159.69</ele>
        <time>2021-03-27T14:01:20Z</time>
      </trkpt>
      <trkpt lat="40.614347" lon="-4.635186">
        <ele>1154.01</ele>
        <time>2021-03-27T14:01:25Z</time>
      </trkpt>
      <trkpt lat="40.614643" lon="-4.635149">
        <ele>1153.93</ele>
        <time>2021-03-27T14:01:30Z</time>
      </trkpt>
      <trkpt lat="40.614996" lon="-4.635269">
        <ele>1156.05</ele>
        <time>2021-03-27T14:01:34Z</time>
      </trkpt>
      <trkpt lat="40.615149" lon="-4.635449">
        <ele>1156.29</ele>
        <time>2021-03-27T14:01:39Z</time>
      </trkpt>
      <trkpt lat="40.615631" lon="-4.636365">
        <ele>1147.06</ele>
        <time>2021-03-27T14:01:44Z</time>
      </trkpt>
      <trkpt lat="40.615912" lon="-4.636648">
        <ele>1144.97</ele>
        <time>2021-03-27T14:01:49Z</time>
      </trkpt>
      <trkpt lat="40.61643" lon="-4.63669">
        <ele>1141.9</ele>
        <time>2021-03-27T14:01:53Z</time>
      </trkpt>
      <trkpt lat="40.616685" lon="-4.636936">
        <ele>1140.22</ele>
        <time>2021-03-27T14:01:58Z</time>
      </trkpt>
      <trkpt lat="40.617395" lon="-4.63806">
        <ele>1125.8</ele>
        <time>2021-03-27T14:02:03Z</time>
      </trkpt>
      <trkpt lat="40.617667" lon="-4.63829">
        <ele>1124.52</ele>
        <time>2021-03-27T14:02:07Z</time>
      </trkpt>
      <trkpt lat="40.618115" lon="-4.638548">
        <ele>1121.13</ele>
        <time>2021-03-27T14:02:12Z</time>
      </trkpt>
      <trkpt lat="40.618369" lon="-4.638583">
        <ele>1119.84</ele>
        <time>2021-03-27T14:02:17Z</time>
      </trkpt>
      <trkpt lat="40.618625" lon="-4.638454">
        <ele>1116.97</ele>
        <time>2021-03-27T14:02:22Z</time>
      </trkpt>
      <trkpt lat="40.618789" lon="-4.638206">
        <ele>1115.94</ele>
        <time>2021-03-27T14:02:26Z</time>
      </trkpt>
      <trkpt lat="40.618835" lon="-4.637868">
        <ele>1114.99</ele>
        <time>2021-03-27T14:02:31Z</time>
      </trkpt>
      <trkpt lat="40.618711" lon="-4.636993">
        <ele>1115.93</ele>
        <time>2021-03-27T14:02:36Z</time>
      </trkpt>
      <trkpt lat="40.618739" lon="-4.636151">
        <ele>1113.08</ele>
        <time>2021-03-27T14:02:40Z</time>
      </trkpt>
      <trkpt lat="40.618918" lon="-4.63573">
        <ele>1110.4</ele>
        <time>2021-03-27T14:02:45Z</time>
      </trkpt>
      <trkpt lat="40.619204" lon="-4.63546">
        <ele>1108.34</ele>
        <time>2021-03-27T14:02:50Z</time>
      </trkpt>
      <trkpt lat="40.619614" lon="-4.635296">
        <ele>1104.24</ele>
        <time>2021-03-27T14:02:55Z</time>
      </trkpt>
      <trkpt lat="40.620067" lon="-4.635171">
        <ele>1105.1</ele>
        <time>2021-03-27T14:02:59Z</time>
      </trkpt>
      <trkpt lat="40.621051" lon="-4.635474">
        <ele>1105.63</ele>
        <time>2021-03-27T14:03:04Z</time>
      </trkpt>
      <trkpt lat="40.621732" lon="-4.63583">
        <ele>1104.01</ele>
        <time>2021-03-27T14:03:09Z</time>
      </trkpt>
      <trkpt lat="40.62228" lon="-4.636475">
        <ele>1096.55</ele>
        <time>2021-03-27T14:03:13Z</time>
      </trkpt>
      <trkpt lat="40.626606" lon="-4.642665">
        <ele>1094.03</ele>
        <time>2021-03-27T14:03:18Z</time>
      </trkpt>
      <trkpt lat="40.627301" lon="-4.643406">
        <ele>1091.89</ele>
        <time>2021-03-27T14:03:23Z</time>
      </trkpt>
      <trkpt lat="40.629396" lon="-4.645499">
        <ele>1092.0</ele>
        <time>2021-03-27T14:03:27Z</time>
      </trkpt>
      <trkpt lat="40.629671" lon="-4.645755">
        <ele>1092.72</ele>
        <time>2021-03-27T14:03:32Z</time>
      </trkpt>
      <trkpt lat="40.629832" lon="-4.645935">
        <ele>1093.36</ele>
        <time>2021-03-27T14:03:37Z</time>
      </trkpt>
      <trkpt lat="40.630164" lon="-4.646251">
        <ele>1094.97</ele>
        <time>2021-03-27T14:03:42Z</time>
      </trkpt>
      <trkpt lat="40.634741" lon="-4.650847">
        <ele>1088.18</ele>
        <time>2021-03-27T14:03:46Z</time>
      </trkpt>
      <trkpt lat="40.634936" lon="-4.651097">
        <ele>1090.49</ele>
        <time>2021-03-27T14:03:51Z</time>
      </trkpt>
      <trkpt lat="40.635123" lon="-4.651377">
        <ele>1091.44</ele>
        <time>2021-03-27T14:03:56Z</time>
      </trkpt>
      <trkpt lat="40.635286" lon="-4.651668">
        <ele>1090.96</ele>
        <time>2021-03-27T14:04:00Z</time>
      </trkpt>
      <trkpt lat="40.637178" lon="-4.655448">
        <ele>1082.52</ele>
        <time>2021-03-27T14:04:05Z</time>
      </trkpt>
      <trkpt lat="40.638263" lon="-4.657579">
        <ele>1080.9</ele>
        <time>2021-03-27T14:04:10Z</time>
      </trkpt>
      <trkpt lat="40.639602" lon="-4.659521">
        <ele>1078.28</ele>
        <time>2021-03-27T14:04:15Z</time>
      </trkpt>
      <trkpt lat="40.639693" lon="-4.659619">
        <ele>1078.63</ele>
        <time>2021-03-27T14:04:19Z</time>
      </trkpt>
      <trkpt lat="40.639818" lon="-4.659693">
        <ele>1078.93</ele>
        <time>2021-03-27T14:04:24Z</time>
      </trkpt>
      <trkpt lat="40.639957" lon="-4.659667">
        <ele>1078.97</ele>
        <time>2021-03-27T14:04:29Z</time>
      </trkpt>
      <trkpt lat="40.640174" lon="-4.659546">
        <ele>1079.0</ele>
        <time>2021-03-27T14:04:33Z</time>
      </trkpt>
      <trkpt lat="40.640244" lon="-4.659568">
        <ele>1079.0</ele>
        <time>2021-03-27T14:04:38Z</time>
      </trkpt>
      <trkpt lat="40.640349" lon="-4.659723">
        <ele>1079.26</ele>
        <time>2021-03-27T14:04:44Z</time>
      </trkpt>
      <trkpt lat="40.640839" lon="-4.660701">
        <ele>1079.45</ele>
        <time>2021-03-27T14:04:49Z</time>
      </trkpt>
      <trkpt lat="40.640922" lon="-4.660802">
        <ele>1078.79</ele>
        <time>2021-03-27T14:04:55Z</time>
      </trkpt>
      <trkpt lat="40.641335" lon="-4.661571">
        <ele>1079.66</ele>
        <time>2021-03-27T14:05:00Z</time>
      </trkpt>
      <trkpt lat="40.641428" lon="-4.661703">
        <ele>1079.86</ele>
        <time>2021-03-27T14:05:05Z</time>
      </trkpt>
      <trkpt lat="40.641685" lon="-4.662039">
        <ele>1078.87</ele>
        <time>2021-03-27T14:05:11Z</time>
      </trkpt>
      <trkpt lat="40.642918" lon="-4.663552">
        <ele>1077.0</ele>
        <time>2021-03-27T14:05:16Z</time>
      </trkpt>
      <trkpt lat="40.64611" lon="-4.667735">
        <ele>1086.83</ele>
        <time>2021-03-27T14:05:22Z</time>
      </trkpt>
      <trkpt lat="40.646942" lon="-4.668906">
        <ele>1092.0</ele>
        <time>2021-03-27T14:05:27Z</time>
      </trkpt>
      <trkpt lat="40.64745" lon="-4.669586">
        <ele>1094.22</ele>
        <time>2021-03-27T14:05:33Z</time>
      </trkpt>
      <trkpt lat="40.647969" lon="-4.670412">
        <ele>1095.17</ele>
        <time>2021-03-27T14:05:38Z</time>
      </trkpt>
      <trkpt lat="40.648976" lon="-4.672413">
        <ele>1103.79</ele>
        <time>2021-03-27T14:05:43Z</time>
      </trkpt>
      <trkpt lat="40.649057" lon="-4.672504">
        <ele>1104.02</ele>
        <time>2021-03-27T14:05:49Z</time>
      </trkpt>
      <trkpt lat="40.6491" lon="-4.672509">
        <ele>1104.06</ele>
        <time>2021-03-27T14:05:52Z</time>
      </trkpt>
      <trkpt lat="40.649168" lon="-4.672559">
        <ele>1104.43</ele>
        <time>2021-03-27T14:05:55Z</time>
      </trkpt>
      <trkpt lat="40.649206" lon="-4.672648">
        <ele>1105.21</ele>
        <time>2021-03-27T14:05:59Z</time>
      </trkpt>
      <trkpt lat="40.649209" lon="-4.672712">
        <ele>1105.68</ele>
        <time>2021-03-27T14:06:02Z</time>
      </trkpt>
      <trkpt lat="40.649193" lon="-4.672782">
        <ele>1106.11</ele>
        <time>2021-03-27T14:06:05Z</time>
      </trkpt>
      <trkpt lat="40.649223" lon="-4.672909">
        <ele>1106.77</ele>
        <time>2021-03-27T14:06:08Z</time>
      </trkpt>
      <trkpt lat="40.650295" lon="-4.675079">
        <ele>1103.89</ele>
        <time>2021-03-27T14:06:12Z</time>
      </trkpt>
      <trkpt lat="40.650409" lon="-4.675249">
        <ele>1106.36</ele>
        <time>2021-03-27T14:06:15Z</time>
      </trkpt>
      <trkpt lat="40.650479" lon="-4.675284">
        <ele>1107.22</ele>
        <time>2021-03-27T14:06:18Z</time>
      </trkpt>
      <trkpt lat="40.650519" lon="-4.675342">
        <ele>1108.04</ele>
        <time>2021-03-27T14:06:21Z</time>
      </trkpt>
      <trkpt lat="40.65054" lon="-4.675415">
        <ele>1108.79</ele>
        <time>2021-03-27T14:06:24Z</time>
      </trkpt>
      <trkpt lat="40.650538" lon="-4.675492">
        <ele>1109.3</ele>
        <time>2021-03-27T14:06:27Z</time>
      </trkpt>
      <trkpt lat="40.650517" lon="-4.675555">
        <ele>1109.44</ele>
        <time>2021-03-27T14:06:29Z</time>
      </trkpt>
      <trkpt lat="40.650485" lon="-4.675601">
        <ele>1108.86</ele>
        <time>2021-03-27T14:06:32Z</time>
      </trkpt>
      <trkpt lat="40.650397" lon="-4.675644">
        <ele>1107.58</ele>
        <time>2021-03-27T14:06:35Z</time>
      </trkpt>
      <trkpt lat="40.650335" lon="-4.67563">
        <ele>1106.78</ele>
        <time>2021-03-27T14:06:38Z</time>
      </trkpt>
      <trkpt lat="40.649258" lon="-4.677149">
        <ele>1093.42</ele>
        <time>2021-03-27T14:06:41Z</time>
      </trkpt>
      <trkpt lat="40.649194" lon="-4.67726">
        <ele>1092.42</ele>
        <time>2021-03-27T14:06:44Z</time>
      </trkpt>
      <trkpt lat="40.649223" lon="-4.677383">
        <ele>1093.07</ele>
        <time>2021-03-27T14:06:51Z</time>
      </trkpt>
      <trkpt lat="40.649218" lon="-4.677448">
        <ele>1093.21</ele>
        <time>2021-03-27T14:06:59Z</time>
      </trkpt>
      <trkpt lat="40.649167" lon="-4.677558">
        <ele>1093.42</ele>
        <time>2021-03-27T14:07:06Z</time>
      </trkpt>
      <trkpt lat="40.649126" lon="-4.677595">
        <ele>1093.2</ele>
        <time>2021-03-27T14:07:13Z</time>
      </trkpt>
      <trkpt lat="40.649038" lon="-4.67762">
        <ele>1092.27</ele>
        <time>2021-03-27T14:07:21Z</time>
      </trkpt>
      <trkpt lat="40.648029" lon="-4.681963">
        <ele>1083.84</ele>
        <time>2021-03-27T14:07:28Z</time>
      </trkpt>
      <trkpt lat="40.648011" lon="-4.682088">
        <ele>1083.32</ele>
        <time>2021-03-27T14:07:36Z</time>
      </trkpt>
      <trkpt lat="40.648075" lon="-4.682182">
        <ele>1083.22</ele>
        <time>2021-03-27T14:07:43Z</time>
      </trkpt>
      <trkpt lat="40.648095" lon="-4.682307">
        <ele>1082.92</ele>
        <time>2021-03-27T14:07:50Z</time>
      </trkpt>
      <trkpt lat="40.648056" lon="-4.68244">
        <ele>1082.21</ele>
        <time>2021-03-27T14:07:57Z</time>
      </trkpt>
      <trkpt lat="40.647966" lon="-4.682522">
        <ele>1082.08</ele>
        <time>2021-03-27T14:08:04Z</time>
      </trkpt>
      <trkpt lat="40.648025" lon="-4.684133">
        <ele>1087.67</ele>
        <time>2021-03-27T14:08:11Z</time>
      </trkpt>
      <trkpt lat="40.648414" lon="-4.687309">
        <ele>1075.2</ele>
        <time>2021-03-27T14:08:19Z</time>
      </trkpt>
      <trkpt lat="40.648476" lon="-4.687373">
        <ele>1075.59</ele>
        <time>2021-03-27T14:08:24Z</time>
      </trkpt>
      <trkpt lat="40.648498" lon="-4.687474">
        <ele>1076.39</ele>
        <time>2021-03-27T14:08:30Z</time>
      </trkpt>
      <trkpt lat="40.648469" lon="-4.687572">
        <ele>1077.01</ele>
        <time>2021-03-27T14:08:35Z</time>
      </trkpt>
      <trkpt lat="40.648401" lon="-4.68763">
        <ele>1077.18</ele>
        <time>2021-03-27T14:08:40Z</time>
      </trkpt>
      <trkpt lat="40.64832" lon="-4.687622">
        <ele>1076.85</ele>
        <time>2021-03-27T14:08:46Z</time>
      </trkpt>
      <trkpt lat="40.648227" lon="-4.687847">
        <ele>1077.87</ele>
        <time>2021-03-27T14:08:51Z</time>
      </trkpt>
      <trkpt lat="40.647756" lon="-4.690442">
        <ele>1076.64</ele>
        <time>2021-03-27T14:08:57Z</time>
      </trkpt>
      <trkpt lat="40.647688" lon="-4.691358">
        <ele>1076.82</ele>
        <time>2021-03-27T14:09:02Z</time>
      </trkpt>
      <trkpt lat="40.647784" lon="-4.691404">
        <ele>1076.92</ele>
        <time>2021-03-27T14:09:07Z</time>
      </trkpt>
      <trkpt lat="40.647838" lon="-4.691518">
        <ele>1076.59</ele>
        <time>2021-03-27T14:09:11Z</time>
      </trkpt>
      <trkpt lat="40.647841" lon="-4.69158">
        <ele>1076.32</ele>
        <time>2021-03-27T14:09:15Z</time>
      </trkpt>
      <trkpt lat="40.647806" lon="-4.691693">
        <ele>1075.3</ele>
        <time>2021-03-27T14:09:19Z</time>
      </trkpt>
      <trkpt lat="40.647728" lon="-4.69176">
        <ele>1074.78</ele>
        <time>2021-03-27T14:09:24Z</time>
      </trkpt>
      <trkpt lat="40.647681" lon="-4.691767">
        <ele>1074.86</ele>
        <time>2021-03-27T14:09:28Z</time>
      </trkpt>
      <trkpt lat="40.647466" lon="-4.69434">
        <ele>1071.25</ele>
        <time>2021-03-27T14:09:32Z</time>
      </trkpt>
      <trkpt lat="40.647439" lon="-4.694498">
        <ele>1072.24</ele>
        <time>2021-03-27T14:09:36Z</time>
      </trkpt>
      <trkpt lat="40.647492" lon="-4.694508">
        <ele>1072.23</ele>
        <time>2021-03-27T14:09:40Z</time>
      </trkpt>
      <trkpt lat="40.647577" lon="-4.694586">
        <ele>1072.37</ele>
        <time>2021-03-27T14:09:43Z</time>
      </trkpt>
      <trkpt lat="40.647613" lon="-4.694716">
        <ele>1072.97</ele>
        <time>2021-03-27T14:09:47Z</time>
      </trkpt>
      <trkpt lat="40.647607" lon="-4.694781">
        <ele>1073.21</ele>
        <time>2021-03-27T14:09:51Z</time>
      </trkpt>
      <trkpt lat="40.647555" lon="-4.694892">
        <ele>1073.61</ele>
        <time>2021-03-27T14:09:54Z</time>
      </trkpt>
      <trkpt lat="40.647464" lon="-4.694946">
        <ele>1073.83</ele>
        <time>2021-03-27T14:09:58Z</time>
      </trkpt>
      <trkpt lat="40.647553" lon="-4.696134">
        <ele>1074.59</ele>
        <time>2021-03-27T14:10:01Z</time>
      </trkpt>
      <trkpt lat="40.647568" lon="-4.696514">
        <ele>1074.18</ele>
        <time>2021-03-27T14:10:05Z</time>
      </trkpt>
      <trkpt lat="40.647679" lon="-4.697564">
        <ele>1068.73</ele>
        <time>2021-03-27T14:10:08Z</time>
      </trkpt>
      <trkpt lat="40.647774" lon="-4.697789">
        <ele>1069.08</ele>
        <time>2021-03-27T14:10:12Z</time>
      </trkpt>
      <trkpt lat="40.647836" lon="-4.697816">
        <ele>1069.91</ele>
        <time>2021-03-27T14:10:15Z</time>
      </trkpt>
      <trkpt lat="40.64789" lon="-4.697865">
        <ele>1070.84</ele>
        <time>2021-03-27T14:10:18Z</time>
      </trkpt>
      <trkpt lat="40.64793" lon="-4.697933">
        <ele>1071.76</ele>
        <time>2021-03-27T14:10:20Z</time>
      </trkpt>
      <trkpt lat="40.647961" lon="-4.698069">
        <ele>1073.0</ele>
        <time>2021-03-27T14:10:23Z</time>
      </trkpt>
      <trkpt lat="40.647935" lon="-4.698225">
        <ele>1072.96</ele>
        <time>2021-03-27T14:10:26Z</time>
      </trkpt>
      <trkpt lat="40.647894" lon="-4.698298">
        <ele>1072.76</ele>
        <time>2021-03-27T14:10:29Z</time>
      </trkpt>
      <trkpt lat="40.647838" lon="-4.698351">
        <ele>1072.44</ele>
        <time>2021-03-27T14:10:32Z</time>
      </trkpt>
      <trkpt lat="40.64784" lon="-4.698563">
        <ele>1072.45</ele>
        <time>2021-03-27T14:10:34Z</time>
      </trkpt>
      <trkpt lat="40.648448" lon="-4.703312">
        <ele>1065.14</ele>
        <time>2021-03-27T14:10:37Z</time>
      </trkpt>
      <trkpt lat="40.648504" lon="-4.703488">
        <ele>1064.44</ele>
        <time>2021-03-27T14:10:40Z</time>
      </trkpt>
      <trkpt lat="40.648567" lon="-4.703622">
        <ele>1063.97</ele>
        <time>2021-03-27T14:10:43Z</time>
      </trkpt>
      <trkpt lat="40.648626" lon="-4.703652">
        <ele>1063.96</ele>
        <time>2021-03-27T14:10:45Z</time>
      </trkpt>
      <trkpt lat="40.648675" lon="-4.703703">
        <ele>1064.13</ele>
        <time>2021-03-27T14:10:47Z</time>
      </trkpt>
      <trkpt lat="40.648707" lon="-4.703761">
        <ele>1064.15</ele>
        <time>2021-03-27T14:10:49Z</time>
      </trkpt>
      <trkpt lat="40.648731" lon="-4.703901">
        <ele>1063.85</ele>
        <time>2021-03-27T14:10:51Z</time>
      </trkpt>
      <trkpt lat="40.648694" lon="-4.704046">
        <ele>1063.43</ele>
        <time>2021-03-27T14:10:53Z</time>
      </trkpt>
      <trkpt lat="40.64865" lon="-4.704108">
        <ele>1063.17</ele>
        <time>2021-03-27T14:10:55Z</time>
      </trkpt>
      <trkpt lat="40.648593" lon="-4.704149">
        <ele>1063.0</ele>
        <time>2021-03-27T14:10:57Z</time>
      </trkpt>
      <trkpt lat="40.648529" lon="-4.704165">
        <ele>1063.0</ele>
        <time>2021-03-27T14:10:59Z</time>
      </trkpt>
      <trkpt lat="40.648468" lon="-4.704155">
        <ele>1063.02</ele>
        <time>2021-03-27T14:11:01Z</time>
      </trkpt>
      <trkpt lat="40.648411" lon="-4.704122">
        <ele>1063.11</ele>
        <time>2021-03-27T14:11:03Z</time>
      </trkpt>
      <trkpt lat="40.648365" lon="-4.704069">
        <ele>1063.31</ele>
        <time>2021-03-27T14:11:05Z</time>
      </trkpt>
      <trkpt lat="40.648195" lon="-4.704037">
        <ele>1063.47</ele>
        <time>2021-03-27T14:11:07Z</time>
      </trkpt>
      <trkpt lat="40.648048" lon="-4.704068">
        <ele>1063.33</ele>
        <time>2021-03-27T14:11:09Z</time>
      </trkpt>
      <trkpt lat="40.646678" lon="-4.70454">
        <ele>1064.71</ele>
        <time>2021-03-27T14:11:11Z</time>
      </trkpt>
      <trkpt lat="40.646258" lon="-4.704606">
        <ele>1063.75</ele>
        <time>2021-03-27T14:11:13Z</time>
      </trkpt>
      <trkpt lat="40.646095" lon="-4.704673">
        <ele>1062.94</ele>
        <time>2021-03-27T14:11:15Z</time>
      </trkpt>
      <trkpt lat="40.646008" lon="-4.704764">
        <ele>1062.68</ele>
        <time>2021-03-27T14:11:24Z</time>
      </trkpt>
      <trkpt lat="40.64589" lon="-4.704778">
        <ele>1062.36</ele>
        <time>2021-03-27T14:11:33Z</time>
      </trkpt>
      <trkpt lat="40.645802" lon="-4.704835">
        <ele>1062.36</ele>
        <time>2021-03-27T14:11:42Z</time>
      </trkpt>
      <trkpt lat="40.645428" lon="-4.704959">
        <ele>1062.0</ele>
        <time>2021-03-27T14:11:50Z</time>
      </trkpt>
      <trkpt lat="40.642515" lon="-4.705968">
        <ele>1065.92</ele>
        <time>2021-03-27T14:11:59Z</time>
      </trkpt>
      <trkpt lat="40.641925" lon="-4.706153">
        <ele>1064.73</ele>
        <time>2021-03-27T14:12:08Z</time>
      </trkpt>
      <trkpt lat="40.641924" lon="-4.706236">
        <ele>1064.73</ele>
        <time>2021-03-27T14:12:11Z</time>
      </trkpt>
      <trkpt lat="40.641885" lon="-4.7063">
        <ele>1064.29</ele>
        <time>2021-03-27T14:12:14Z</time>
      </trkpt>
      <trkpt lat="40.641825" lon="-4.706322">
        <ele>1063.61</ele>
        <time>2021-03-27T14:12:17Z</time>
      </trkpt>
      <trkpt lat="40.641766" lon="-4.70629">
        <ele>1062.84</ele>
        <time>2021-03-27T14:12:21Z</time>
      </trkpt>
      <trkpt lat="40.641733" lon="-4.706216">
        <ele>1062.25</ele>
        <time>2021-03-27T14:12:24Z</time>
      </trkpt>
      <trkpt lat="40.641308" lon="-4.706383">
        <ele>1063.27</ele>
        <time>2021-03-27T14:12:27Z</time>
      </trkpt>
      <trkpt lat="40.629983" lon="-4.710374">
        <ele>1071.94</ele>
        <time>2021-03-27T14:12:30Z</time>
      </trkpt>
      <trkpt lat="40.628879" lon="-4.710807">
        <ele>1073.03</ele>
        <time>2021-03-27T14:12:33Z</time>
      </trkpt>
      <trkpt lat="40.628513" lon="-4.711008">
        <ele>1073.24</ele>
        <time>2021-03-27T14:12:36Z</time>
      </trkpt>
      <trkpt lat="40.628114" lon="-4.711337">
        <ele>1072.04</ele>
        <time>2021-03-27T14:12:39Z</time>
      </trkpt>
      <trkpt lat="40.622608" lon="-4.716501">
        <ele>1076.95</ele>
        <time>2021-03-27T14:12:42Z</time>
      </trkpt>
      <trkpt lat="40.62202" lon="-4.717008">
        <ele>1078.22</ele>
        <time>2021-03-27T14:12:45Z</time>
      </trkpt>
      <trkpt lat="40.621084" lon="-4.717703">
        <ele>1080.83</ele>
        <time>2021-03-27T14:12:49Z</time>
      </trkpt>
      <trkpt lat="40.620646" lon="-4.717984">
        <ele>1082.0</ele>
        <time>2021-03-27T14:12:52Z</time>
      </trkpt>
      <trkpt lat="40.620018" lon="-4.718346">
        <ele>1083.04</ele>
        <time>2021-03-27T14:12:55Z</time>
      </trkpt>
      <trkpt lat="40.61917" lon="-4.718807">
        <ele>1080.59</ele>
        <time>2021-03-27T14:12:58Z</time>
      </trkpt>
      <trkpt lat="40.617504" lon="-4.719667">
        <ele>1079.98</ele>
        <time>2021-03-27T14:13:01Z</time>
      </trkpt>
      <trkpt lat="40.616913" lon="-4.719916">
        <ele>1080.53</ele>
        <time>2021-03-27T14:13:04Z</time>
      </trkpt>
      <trkpt lat="40.614324" lon="-4.720569">
        <ele>1088.61</ele>
        <time>2021-03-27T14:13:07Z</time>
      </trkpt>
      <trkpt lat="40.614031" lon="-4.720672">
        <ele>1088.21</ele>
        <time>2021-03-27T14:13:10Z</time>
      </trkpt>
      <trkpt lat="40.613677" lon="-4.720882">
        <ele>1088.94</ele>
        <time>2021-03-27T14:13:13Z</time>
      </trkpt>
      <trkpt lat="40.613071" lon="-4.721183">
        <ele>1088.1</ele>
        <time>2021-03-27T14:13:16Z</time>
      </trkpt>
      <trkpt lat="40.609487" lon="-4.722761">
        <ele>1081.06</ele>
        <time>2021-03-27T14:13:20Z</time>
      </trkpt>
      <trkpt lat="40.609198" lon="-4.722853">
        <ele>1080.11</ele>
        <time>2021-03-27T14:13:23Z</time>
      </trkpt>
      <trkpt lat="40.608918" lon="-4.722916">
        <ele>1078.66</ele>
        <time>2021-03-27T14:13:26Z</time>
      </trkpt>
      <trkpt lat="40.60298" lon="-4.723695">
        <ele>1080.43</ele>
        <time>2021-03-27T14:13:29Z</time>
      </trkpt>
      <trkpt lat="40.601759" lon="-4.723876">
        <ele>1077.98</ele>
        <time>2021-03-27T14:13:32Z</time>
      </trkpt>
      <trkpt lat="40.601347" lon="-4.723965">
        <ele>1078.49</ele>
        <time>2021-03-27T14:13:35Z</time>
      </trkpt>
      <trkpt lat="40.598167" lon="-4.724829">
        <ele>1081.02</ele>
        <time>2021-03-27T14:13:38Z</time>
      </trkpt>
      <trkpt lat="40.596775" lon="-4.72524">
        <ele>1080.21</ele>
        <time>2021-03-27T14:13:41Z</time>
      </trkpt>
      <trkpt lat="40.59626" lon="-4.725438">
        <ele>1082.73</ele>
        <time>2021-03-27T14:13:44Z</time>
      </trkpt>
      <trkpt lat="40.595547" lon="-4.725757">
        <ele>1084.0</ele>
        <time>2021-03-27T14:13:48Z</time>
      </trkpt>
      <trkpt lat="40.594983" lon="-4.725974">
        <ele>1085.02</ele>
        <time>2021-03-27T14:13:51Z</time>
      </trkpt>
      <trkpt lat="40.591175" lon="-4.72718">
        <ele>1085.27</ele>
        <time>2021-03-27T14:13:54Z</time>
      </trkpt>
      <trkpt lat="40.590632" lon="-4.727388">
        <ele>1089.27</ele>
        <time>2021-03-27T14:13:57Z</time>
      </trkpt>
      <trkpt lat="40.590246" lon="-4.727577">
        <ele>1089.19</ele>
        <time>2021-03-27T14:14:00Z</time>
      </trkpt>
      <trkpt lat="40.589961" lon="-4.727658">
        <ele>1089.0</ele>
        <time>2021-03-27T14:14:03Z</time>
      </trkpt>
      <trkpt lat="40.589198" lon="-4.727802">
        <ele>1089.63</ele>
        <time>2021-03-27T14:14:06Z</time>
      </trkpt>
      <trkpt lat="40.588592" lon="-4.727941">
        <ele>1088.75</ele>
        <time>2021-03-27T14:14:09Z</time>
      </trkpt>
      <trkpt lat="40.588182" lon="-4.728">
        <ele>1090.69</ele>
        <time>2021-03-27T14:14:12Z</time>
      </trkpt>
      <trkpt lat="40.587399" lon="-4.728055">
        <ele>1091.0</ele>
        <time>2021-03-27T14:14:16Z</time>
      </trkpt>
      <trkpt lat="40.587053" lon="-4.728105">
        <ele>1090.42</ele>
        <time>2021-03-27T14:14:19Z</time>
      </trkpt>
      <trkpt lat="40.586667" lon="-4.728219">
        <ele>1088.82</ele>
        <time>2021-03-27T14:14:22Z</time>
      </trkpt>
      <trkpt lat="40.585546" lon="-4.728622">
        <ele>1087.03</ele>
        <time>2021-03-27T14:14:25Z</time>
      </trkpt>
      <trkpt lat="40.585162" lon="-4.728741">
        <ele>1090.43</ele>
        <time>2021-03-27T14:14:28Z</time>
      </trkpt>
      <trkpt lat="40.583567" lon="-4.729317">
        <ele>1106.61</ele>
        <time>2021-03-27T14:14:31Z</time>
      </trkpt>
      <trkpt lat="40.583351" lon="-4.729336">
        <ele>1107.81</ele>
        <time>2021-03-27T14:14:34Z</time>
      </trkpt>
      <trkpt lat="40.583182" lon="-4.729328">
        <ele>1109.49</ele>
        <time>2021-03-27T14:14:37Z</time>
      </trkpt>
      <trkpt lat="40.582847" lon="-4.729178">
        <ele>1114.4</ele>
        <time>2021-03-27T14:14:40Z</time>
      </trkpt>
      <trkpt lat="40.582691" lon="-4.729045">
        <ele>1116.34</ele>
        <time>2021-03-27T14:14:44Z</time>
      </trkpt>
      <trkpt lat="40.582358" lon="-4.72867">
        <ele>1123.73</ele>
        <time>2021-03-27T14:14:47Z</time>
      </trkpt>
      <trkpt lat="40.581937" lon="-4.72815">
        <ele>1126.05</ele>
        <time>2021-03-27T14:14:50Z</time>
      </trkpt>
      <trkpt lat="40.581645" lon="-4.72787">
        <ele>1128.1</ele>
        <time>2021-03-27T14:14:53Z</time>
      </trkpt>
      <trkpt lat="40.581529" lon="-4.727808">
        <ele>1128.55</ele>
        <time>2021-03-27T14:14:56Z</time>
      </trkpt>
      <trkpt lat="40.578776" lon="-4.727072">
        <ele>1146.96</ele>
        <time>2021-03-27T14:14:59Z</time>
      </trkpt>
      <trkpt lat="40.578181" lon="-4.726979">
        <ele>1148.93</ele>
        <time>2021-03-27T14:15:02Z</time>
      </trkpt>
      <trkpt lat="40.57746" lon="-4.727101">
        <ele>1151.85</ele>
        <time>2021-03-27T14:15:05Z</time>
      </trkpt>
      <trkpt lat="40.57715" lon="-4.727185">
        <ele>1153.85</ele>
        <time>2021-03-27T14:15:08Z</time>
      </trkpt>
      <trkpt lat="40.576445" lon="-4.72761">
        <ele>1157.31</ele>
        <time>2021-03-27T14:15:12Z</time>
      </trkpt>
      <trkpt lat="40.576226" lon="-4.727675">
        <ele>1157.08</ele>
        <time>2021-03-27T14:15:15Z</time>
      </trkpt>
      <trkpt lat="40.575855" lon="-4.727732">
        <ele>1161.81</ele>
        <time>2021-03-27T14:15:18Z</time>
      </trkpt>
      <trkpt lat="40.575602" lon="-4.727796">
        <ele>1165.47</ele>
        <time>2021-03-27T14:15:21Z</time>
      </trkpt>
      <trkpt lat="40.574548" lon="-4.728226">
        <ele>1169.47</ele>
        <time>2021-03-27T14:15:24Z</time>
      </trkpt>
      <trkpt lat="40.573017" lon="-4.728915">
        <ele>1179.21</ele>
        <time>2021-03-27T14:15:27Z</time>
      </trkpt>
      <trkpt lat="40.572731" lon="-4.728993">
        <ele>1183.51</ele>
        <time>2021-03-27T14:15:30Z</time>
      </trkpt>
      <trkpt lat="40.572227" lon="-4.729059">
        <ele>1186.53</ele>
        <time>2021-03-27T14:15:33Z</time>
      </trkpt>
      <trkpt lat="40.571845" lon="-4.72908">
        <ele>1188.98</ele>
        <time>2021-03-27T14:15:36Z</time>
      </trkpt>
      <trkpt lat="40.5716" lon="-4.729061">
        <ele>1189.58</ele>
        <time>2021-03-27T14:15:40Z</time>
      </trkpt>
      <trkpt lat="40.571125" lon="-4.728987">
        <ele>1190.99</ele>
        <time>2021-03-27T14:15:43Z</time>
      </trkpt>
      <trkpt lat="40.570837" lon="-4.72897">
        <ele>1191.75</ele>
        <time>2021-03-27T14:15:46Z</time>
      </trkpt>
      <trkpt lat="40.570626" lon="-4.729">
        <ele>1192.86</ele>
        <time>2021-03-27T14:15:49Z</time>
      </trkpt>
      <trkpt lat="40.569869" lon="-4.729218">
        <ele>1194.26</ele>
        <time>2021-03-27T14:15:52Z</time>
      </trkpt>
      <trkpt lat="40.569551" lon="-4.7292">
        <ele>1191.96</ele>
        <time>2021-03-27T14:15:55Z</time>
      </trkpt>
      <trkpt lat="40.56941" lon="-4.729164">
        <ele>1191.11</ele>
        <time>2021-03-27T14:15:58Z</time>
      </trkpt>
      <trkpt lat="40.569204" lon="-4.729059">
        <ele>1192.15</ele>
        <time>2021-03-27T14:16:01Z</time>
      </trkpt>
      <trkpt lat="40.568993" lon="-4.728875">
        <ele>1194.84</ele>
        <time>2021-03-27T14:16:04Z</time>
      </trkpt>
      <trkpt lat="40.568863" lon="-4.728706">
        <ele>1195.63</ele>
        <time>2021-03-27T14:16:08Z</time>
      </trkpt>
      <trkpt lat="40.568522" lon="-4.728157">
        <ele>1197.88</ele>
        <time>2021-03-27T14:16:11Z</time>
      </trkpt>
      <trkpt lat="40.568366" lon="-4.727976">
        <ele>1198.89</ele>
        <time>2021-03-27T14:16:14Z</time>
      </trkpt>
      <trkpt lat="40.568046" lon="-4.727675">
        <ele>1200.92</ele>
        <time>2021-03-27T14:16:17Z</time>
      </trkpt>
      <trkpt lat="40.56783" lon="-4.727513">
        <ele>1199.95</ele>
        <time>2021-03-27T14:16:20Z</time>
      </trkpt>
      <trkpt lat="40.567666" lon="-4.727438">
        <ele>1198.39</ele>
        <time>2021-03-27T14:16:23Z</time>
      </trkpt>
      <trkpt lat="40.567353" lon="-4.727343">
        <ele>1197.07</ele>
        <time>2021-03-27T14:16:26Z</time>
      </trkpt>
      <trkpt lat="40.566887" lon="-4.727258">
        <ele>1200.1</ele>
        <time>2021-03-27T14:16:29Z</time>
      </trkpt>
      <trkpt lat="40.566744" lon="-4.727276">
        <ele>1201.07</ele>
        <time>2021-03-27T14:16:32Z</time>
      </trkpt>
      <trkpt lat="40.566632" lon="-4.727317">
        <ele>1202.09</ele>
        <time>2021-03-27T14:16:36Z</time>
      </trkpt>
      <trkpt lat="40.565902" lon="-4.727646">
        <ele>1204.71</ele>
        <time>2021-03-27T14:16:39Z</time>
      </trkpt>
      <trkpt lat="40.565746" lon="-4.727692">
        <ele>1205.49</ele>
        <time>2021-03-27T14:16:42Z</time>
      </trkpt>
      <trkpt lat="40.565582" lon="-4.727706">
        <ele>1206.37</ele>
        <time>2021-03-27T14:16:45Z</time>
      </trkpt>
      <trkpt lat="40.565462" lon="-4.727685">
        <ele>1206.89</ele>
        <time>2021-03-27T14:16:48Z</time>
      </trkpt>
      <trkpt lat="40.565269" lon="-4.727612">
        <ele>1206.5</ele>
        <time>2021-03-27T14:16:51Z</time>
      </trkpt>
      <trkpt lat="40.564736" lon="-4.72719">
        <ele>1206.3</ele>
        <time>2021-03-27T14:16:54Z</time>
      </trkpt>
      <trkpt lat="40.564534" lon="-4.727055">
        <ele>1207.83</ele>
        <time>2021-03-27T14:16:57Z</time>
      </trkpt>
      <trkpt lat="40.564299" lon="-4.726921">
        <ele>1207.72</ele>
        <time>2021-03-27T14:17:00Z</time>
      </trkpt>
      <trkpt lat="40.563482" lon="-4.726542">
        <ele>1209.26</ele>
        <time>2021-03-27T14:17:04Z</time>
      </trkpt>
      <trkpt lat="40.563274" lon="-4.726483">
        <ele>1208.77</ele>
        <time>2021-03-27T14:17:07Z</time>
      </trkpt>
      <trkpt lat="40.561448" lon="-4.72616">
        <ele>1202.35</ele>
        <time>2021-03-27T14:17:10Z</time>
      </trkpt>
      <trkpt lat="40.560506" lon="-4.72596">
        <ele>1202.36</ele>
        <time>2021-03-27T14:17:13Z</time>
      </trkpt>
      <trkpt lat="40.559841" lon="-4.725846">
        <ele>1203.97</ele>
        <time>2021-03-27T14:17:16Z</time>
      </trkpt>
      <trkpt lat="40.559593" lon="-4.725709">
        <ele>1204.0</ele>
        <time>2021-03-27T14:17:19Z</time>
      </trkpt>
      <trkpt lat="40.559425" lon="-4.725578">
        <ele>1204.2</ele>
        <time>2021-03-27T14:17:22Z</time>
      </trkpt>
      <trkpt lat="40.559305" lon="-4.725446">
        <ele>1206.09</ele>
        <time>2021-03-27T14:17:25Z</time>
      </trkpt>
      <trkpt lat="40.558985" lon="-4.724987">
        <ele>1210.65</ele>
        <time>2021-03-27T14:17:28Z</time>
      </trkpt>
      <trkpt lat="40.55887" lon="-4.724847">
        <ele>1210.93</ele>
        <time>2021-03-27T14:17:32Z</time>
      </trkpt>
      <trkpt lat="40.558665" lon="-4.724648">
        <ele>1210.14</ele>
        <time>2021-03-27T14:17:35Z</time>
      </trkpt>
      <trkpt lat="40.558464" lon="-4.724503">
        <ele>1210.53</ele>
        <time>2021-03-27T14:17:38Z</time>
      </trkpt>
      <trkpt lat="40.557051" lon="-4.723662">
        <ele>1210.82</ele>
        <time>2021-03-27T14:17:41Z</time>
      </trkpt>
      <trkpt lat="40.556738" lon="-4.72351">
        <ele>1212.58</ele>
        <time>2021-03-27T14:17:44Z</time>
      </trkpt>
      <trkpt lat="40.556509" lon="-4.723425">
        <ele>1214.14</ele>
        <time>2021-03-27T14:17:47Z</time>
      </trkpt>
      <trkpt lat="40.556332" lon="-4.723375">
        <ele>1214.82</ele>
        <time>2021-03-27T14:17:50Z</time>
      </trkpt>
      <trkpt lat="40.556045" lon="-4.723339">
        <ele>1213.78</ele>
        <time>2021-03-27T14:17:53Z</time>
      </trkpt>
      <trkpt lat="40.550501" lon="-4.723192">
        <ele>1233.2</ele>
        <time>2021-03-27T14:17:56Z</time>
      </trkpt>
      <trkpt lat="40.550179" lon="-4.723137">
        <ele>1234.52</ele>
        <time>2021-03-27T14:18:00Z</time>
      </trkpt>
      <trkpt lat="40.549875" lon="-4.723006">
        <ele>1235.91</ele>
        <time>2021-03-27T14:18:03Z</time>
      </trkpt>
      <trkpt lat="40.547847" lon="-4.721641">
        <ele>1249.74</ele>
        <time>2021-03-27T14:18:06Z</time>
      </trkpt>
      <trkpt lat="40.547617" lon="-4.72145">
        <ele>1252.86</ele>
        <time>2021-03-27T14:18:09Z</time>
      </trkpt>
      <trkpt lat="40.547411" lon="-4.721238">
        <ele>1255.39</ele>
        <time>2021-03-27T14:18:12Z</time>
      </trkpt>
      <trkpt lat="40.547253" lon="-4.721031">
        <ele>1257.79</ele>
        <time>2021-03-27T14:18:15Z</time>
      </trkpt>
      <trkpt lat="40.547119" lon="-4.720809">
        <ele>1259.28</ele>
        <time>2021-03-27T14:18:18Z</time>
      </trkpt>
      <trkpt lat="40.546991" lon="-4.720533">
        <ele>1257.25</ele>
        <time>2021-03-27T14:18:21Z</time>
      </trkpt>
      <trkpt lat="40.546896" lon="-4.720276">
        <ele>1256.22</ele>
        <time>2021-03-27T14:18:24Z</time>
      </trkpt>
      <trkpt lat="40.546696" lon="-4.719513">
        <ele>1264.63</ele>
        <time>2021-03-27T14:18:27Z</time>
      </trkpt>
      <trkpt lat="40.546608" lon="-4.719304">
        <ele>1266.07</ele>
        <time>2021-03-27T14:18:31Z</time>
      </trkpt>
      <trkpt lat="40.546498" lon="-4.719137">
        <ele>1266.72</ele>
        <time>2021-03-27T14:18:34Z</time>
      </trkpt>
      <trkpt lat="40.546351" lon="-4.718983">
        <ele>1267.05</ele>
        <time>2021-03-27T14:18:37Z</time>
      </trkpt>
      <trkpt lat="40.546179" lon="-4.718869">
        <ele>1268.73</ele>
        <time>2021-03-27T14:18:40Z</time>
      </trkpt>
      <trkpt lat="40.546044" lon="-4.71881">
        <ele>1269.09</ele>
        <time>2021-03-27T14:18:43Z</time>
      </trkpt>
      <trkpt lat="40.545903" lon="-4.718778">
        <ele>1269.37</ele>
        <time>2021-03-27T14:18:46Z</time>
      </trkpt>
      <trkpt lat="40.54579" lon="-4.718779">
        <ele>1270.12</ele>
        <time>2021-03-27T14:18:49Z</time>
      </trkpt>
      <trkpt lat="40.545546" lon="-4.718841">
        <ele>1272.33</ele>
        <time>2021-03-27T14:18:52Z</time>
      </trkpt>
      <trkpt lat="40.545328" lon="-4.718961">
        <ele>1272.27</ele>
        <time>2021-03-27T14:18:55Z</time>
      </trkpt>
      <trkpt lat="40.545192" lon="-4.71911">
        <ele>1272.68</ele>
        <time>2021-03-27T14:18:59Z</time>
      </trkpt>
      <trkpt lat="40.54506" lon="-4.719305">
        <ele>1273.5</ele>
        <time>2021-03-27T14:19:02Z</time>
      </trkpt>
      <trkpt lat="40.544955" lon="-4.719524">
        <ele>1275.15</ele>
        <time>2021-03-27T14:19:05Z</time>
      </trkpt>
      <trkpt lat="40.544871" lon="-4.719759">
        <ele>1276.83</ele>
        <time>2021-03-27T14:19:08Z</time>
      </trkpt>
      <trkpt lat="40.544389" lon="-4.722164">
        <ele>1292.36</ele>
        <time>2021-03-27T14:19:11Z</time>
      </trkpt>
      <trkpt lat="40.544267" lon="-4.722481">
        <ele>1292.63</ele>
        <time>2021-03-27T14:19:14Z</time>
      </trkpt>
      <trkpt lat="40.544122" lon="-4.722771">
        <ele>1296.53</ele>
        <time>2021-03-27T14:19:17Z</time>
      </trkpt>
      <trkpt lat="40.543897" lon="-4.723098">
        <ele>1299.64</ele>
        <time>2021-03-27T14:19:20Z</time>
      </trkpt>
      <trkpt lat="40.543643" lon="-4.723401">
        <ele>1300.63</ele>
        <time>2021-03-27T14:19:23Z</time>
      </trkpt>
      <trkpt lat="40.543391" lon="-4.723764">
        <ele>1302.37</ele>
        <time>2021-03-27T14:19:27Z</time>
      </trkpt>
      <trkpt lat="40.542466" lon="-4.725642">
        <ele>1314.59</ele>
        <time>2021-03-27T14:19:30Z</time>
      </trkpt>
      <trkpt lat="40.541166" lon="-4.727225">
        <ele>1320.78</ele>
        <time>2021-03-27T14:19:33Z</time>
      </trkpt>
      <trkpt lat="40.541033" lon="-4.727413">
        <ele>1320.38</ele>
        <time>2021-03-27T14:19:36Z</time>
      </trkpt>
      <trkpt lat="40.540912" lon="-4.727643">
        <ele>1321.01</ele>
        <time>2021-03-27T14:19:39Z</time>
      </trkpt>
      <trkpt lat="40.540572" lon="-4.728811">
        <ele>1326.06</ele>
        <time>2021-03-27T14:19:42Z</time>
      </trkpt>
      <trkpt lat="40.540398" lon="-4.729348">
        <ele>1328.62</ele>
        <time>2021-03-27T14:19:45Z</time>
      </trkpt>
      <trkpt lat="40.540284" lon="-4.729618">
        <ele>1328.06</ele>
        <time>2021-03-27T14:19:48Z</time>
      </trkpt>
      <trkpt lat="40.540158" lon="-4.72985">
        <ele>1327.18</ele>
        <time>2021-03-27T14:19:51Z</time>
      </trkpt>
      <trkpt lat="40.540019" lon="-4.730026">
        <ele>1326.67</ele>
        <time>2021-03-27T14:19:55Z</time>
      </trkpt>
      <trkpt lat="40.539852" lon="-4.730157">
        <ele>1327.99</ele>
        <time>2021-03-27T14:19:58Z</time>
      </trkpt>
      <trkpt lat="40.539697" lon="-4.730219">
        <ele>1329.71</ele>
        <time>2021-03-27T14:20:01Z</time>
      </trkpt>
      <trkpt lat="40.539544" lon="-4.73023">
        <ele>1331.38</ele>
        <time>2021-03-27T14:20:04Z</time>
      </trkpt>
      <trkpt lat="40.539366" lon="-4.730205">
        <ele>1332.99</ele>
        <time>2021-03-27T14:20:07Z</time>
      </trkpt>
      <trkpt lat="40.539219" lon="-4.730137">
        <ele>1333.92</ele>
        <time>2021-03-27T14:20:10Z</time>
      </trkpt>
      <trkpt lat="40.539049" lon="-4.729976">
        <ele>1334.78</ele>
        <time>2021-03-27T14:20:13Z</time>
      </trkpt>
      <trkpt lat="40.53891" lon="-4.729754">
        <ele>1336.66</ele>
        <time>2021-03-27T14:20:16Z</time>
      </trkpt>
      <trkpt lat="40.538703" lon="-4.729171">
        <ele>1342.28</ele>
        <time>2021-03-27T14:20:19Z</time>
      </trkpt>
      <trkpt lat="40.538613" lon="-4.729041">
        <ele>1343.36</ele>
        <time>2021-03-27T14:20:23Z</time>
      </trkpt>
      <trkpt lat="40.538515" lon="-4.728938">
        <ele>1344.41</ele>
        <time>2021-03-27T14:20:26Z</time>
      </trkpt>
      <trkpt lat="40.538391" lon="-4.72885">
        <ele>1345.42</ele>
        <time>2021-03-27T14:20:29Z</time>
      </trkpt>
      <trkpt lat="40.538239" lon="-4.728786">
        <ele>1346.45</ele>
        <time>2021-03-27T14:20:32Z</time>
      </trkpt>
      <trkpt lat="40.538056" lon="-4.728771">
        <ele>1347.28</ele>
        <time>2021-03-27T14:20:35Z</time>
      </trkpt>
      <trkpt lat="40.537932" lon="-4.728796">
        <ele>1347.74</ele>
        <time>2021-03-27T14:20:38Z</time>
      </trkpt>
      <trkpt lat="40.537809" lon="-4.728856">
        <ele>1348.02</ele>
        <time>2021-03-27T14:20:41Z</time>
      </trkpt>
      <trkpt lat="40.537642" lon="-4.729008">
        <ele>1349.52</ele>
        <time>2021-03-27T14:20:44Z</time>
      </trkpt>
      <trkpt lat="40.537351" lon="-4.729451">
        <ele>1350.56</ele>
        <time>2021-03-27T14:20:47Z</time>
      </trkpt>
      <trkpt lat="40.537209" lon="-4.729608">
        <ele>1350.37</ele>
        <time>2021-03-27T14:20:51Z</time>
      </trkpt>
      <trkpt lat="40.537109" lon="-4.72969">
        <ele>1350.57</ele>
        <time>2021-03-27T14:20:54Z</time>
      </trkpt>
      <trkpt lat="40.536981" lon="-4.729737">
        <ele>1351.44</ele>
        <time>2021-03-27T14:20:57Z</time>
      </trkpt>
      <trkpt lat="40.536828" lon="-4.729748">
        <ele>1351.76</ele>
        <time>2021-03-27T14:21:00Z</time>
      </trkpt>
      <trkpt lat="40.536624" lon="-4.72971">
        <ele>1351.68</ele>
        <time>2021-03-27T14:21:03Z</time>
      </trkpt>
      <trkpt lat="40.536447" lon="-4.729558">
        <ele>1351.4</ele>
        <time>2021-03-27T14:21:06Z</time>
      </trkpt>
      <trkpt lat="40.536311" lon="-4.729381">
        <ele>1352.34</ele>
        <time>2021-03-27T14:21:09Z</time>
      </trkpt>
      <trkpt lat="40.535649" lon="-4.728356">
        <ele>1351.92</ele>
        <time>2021-03-27T14:21:12Z</time>
      </trkpt>
      <trkpt lat="40.535498" lon="-4.728236">
        <ele>1352.48</ele>
        <time>2021-03-27T14:21:15Z</time>
      </trkpt>
      <trkpt lat="40.535339" lon="-4.728166">
        <ele>1354.03</ele>
        <time>2021-03-27T14:21:19Z</time>
      </trkpt>
      <trkpt lat="40.53518" lon="-4.728131">
        <ele>1355.94</ele>
        <time>2021-03-27T14:21:22Z</time>
      </trkpt>
      <trkpt lat="40.534975" lon="-4.72817">
        <ele>1357.89</ele>
        <time>2021-03-27T14:21:25Z</time>
      </trkpt>
      <trkpt lat="40.534795" lon="-4.728275">
        <ele>1357.95</ele>
        <time>2021-03-27T14:21:28Z</time>
      </trkpt>
      <trkpt lat="40.534015" lon="-4.729126">
        <ele>1361.01</ele>
        <time>2021-03-27T14:21:31Z</time>
      </trkpt>
      <trkpt lat="40.533758" lon="-4.729344">
        <ele>1362.78</ele>
        <time>2021-03-27T14:21:34Z</time>
      </trkpt>
      <trkpt lat="40.533561" lon="-4.729474">
        <ele>1364.48</ele>
        <time>2021-03-27T14:21:37Z</time>
      </trkpt>
      <trkpt lat="40.533365" lon="-4.729528">
        <ele>1366.67</ele>
        <time>2021-03-27T14:21:40Z</time>
      </trkpt>
      <trkpt lat="40.533158" lon="-4.729515">
        <ele>1368.5</ele>
        <time>2021-03-27T14:21:43Z</time>
      </trkpt>
      <trkpt lat="40.53276" lon="-4.729259">
        <ele>1372.92</ele>
        <time>2021-03-27T14:21:47Z</time>
      </trkpt>
      <trkpt lat="40.532579" lon="-4.72921">
        <ele>1372.7</ele>
        <time>2021-03-27T14:21:50Z</time>
      </trkpt>
      <trkpt lat="40.532383" lon="-4.7292">
        <ele>1372.15</ele>
        <time>2021-03-27T14:21:53Z</time>
      </trkpt>
      <trkpt lat="40.532209" lon="-4.72922">
        <ele>1371.61</ele>
        <time>2021-03-27T14:21:56Z</time>
      </trkpt>
      <trkpt lat="40.532001" lon="-4.729295">
        <ele>1373.8</ele>
        <time>2021-03-27T14:21:59Z</time>
      </trkpt>
      <trkpt lat="40.531818" lon="-4.729394">
        <ele>1376.73</ele>
        <time>2021-03-27T14:22:02Z</time>
      </trkpt>
      <trkpt lat="40.531485" lon="-4.729628">
        <ele>1379.96</ele>
        <time>2021-03-27T14:22:05Z</time>
      </trkpt>
      <trkpt lat="40.531099" lon="-4.729979">
        <ele>1382.17</ele>
        <time>2021-03-27T14:22:08Z</time>
      </trkpt>
      <trkpt lat="40.531099" lon="-4.729979">
        <ele>1382.17</ele>
        <time>2021-03-27T14:22:08Z</time>
      </trkpt>
      <trkpt lat="40.53052" lon="-4.730507">
        <ele>1384.38</ele>
        <time>2021-03-27T14:22:10Z</time>
      </trkpt>
      <trkpt lat="40.530251" lon="-4.730701">
        <ele>1386.71</ele>
        <time>2021-03-27T14:22:12Z</time>
      </trkpt>
      <trkpt lat="40.530083" lon="-4.730798">
        <ele>1388.14</ele>
        <time>2021-03-27T14:22:14Z</time>
      </trkpt>
      <trkpt lat="40.529898" lon="-4.730841">
        <ele>1389.69</ele>
        <time>2021-03-27T14:22:15Z</time>
      </trkpt>
      <trkpt lat="40.529384" lon="-4.730818">
        <ele>1392.53</ele>
        <time>2021-03-27T14:22:17Z</time>
      </trkpt>
      <trkpt lat="40.529168" lon="-4.730849">
        <ele>1393.93</ele>
        <time>2021-03-27T14:22:19Z</time>
      </trkpt>
      <trkpt lat="40.528963" lon="-4.730946">
        <ele>1394.63</ele>
        <time>2021-03-27T14:22:21Z</time>
      </trkpt>
      <trkpt lat="40.528743" lon="-4.731152">
        <ele>1396.05</ele>
        <time>2021-03-27T14:22:22Z</time>
      </trkpt>
      <trkpt lat="40.528539" lon="-4.731434">
        <ele>1397.4</ele>
        <time>2021-03-27T14:22:24Z</time>
      </trkpt>
      <trkpt lat="40.528375" lon="-4.731591">
        <ele>1398.59</ele>
        <time>2021-03-27T14:22:26Z</time>
      </trkpt>
      <trkpt lat="40.528228" lon="-4.731696">
        <ele>1399.76</ele>
        <time>2021-03-27T14:22:28Z</time>
      </trkpt>
      <trkpt lat="40.528023" lon="-4.731793">
        <ele>1401.18</ele>
        <time>2021-03-27T14:22:29Z</time>
      </trkpt>
      <trkpt lat="40.527804" lon="-4.731852">
        <ele>1402.2</ele>
        <time>2021-03-27T14:22:31Z</time>
      </trkpt>
      <trkpt lat="40.527565" lon="-4.731867">
        <ele>1401.51</ele>
        <time>2021-03-27T14:22:33Z</time>
      </trkpt>
      <trkpt lat="40.527317" lon="-4.731838">
        <ele>1400.47</ele>
        <time>2021-03-27T14:22:35Z</time>
      </trkpt>
      <trkpt lat="40.527073" lon="-4.731735">
        <ele>1398.92</ele>
        <time>2021-03-27T14:22:36Z</time>
      </trkpt>
      <trkpt lat="40.52664" lon="-4.731403">
        <ele>1394.85</ele>
        <time>2021-03-27T14:22:38Z</time>
      </trkpt>
      <trkpt lat="40.525119" lon="-4.730163">
        <ele>1394.41</ele>
        <time>2021-03-27T14:22:40Z</time>
      </trkpt>
      <trkpt lat="40.524857" lon="-4.730046">
        <ele>1395.35</ele>
        <time>2021-03-27T14:22:41Z</time>
      </trkpt>
      <trkpt lat="40.524646" lon="-4.730003">
        <ele>1396.26</ele>
        <time>2021-03-27T14:22:43Z</time>
      </trkpt>
      <trkpt lat="40.524425" lon="-4.730005">
        <ele>1397.05</ele>
        <time>2021-03-27T14:22:45Z</time>
      </trkpt>
      <trkpt lat="40.523501" lon="-4.730233">
        <ele>1398.78</ele>
        <time>2021-03-27T14:22:47Z</time>
      </trkpt>
      <trkpt lat="40.523306" lon="-4.730273">
        <ele>1401.29</ele>
        <time>2021-03-27T14:22:48Z</time>
      </trkpt>
      <trkpt lat="40.523126" lon="-4.730277">
        <ele>1403.24</ele>
        <time>2021-03-27T14:22:50Z</time>
      </trkpt>
      <trkpt lat="40.521599" lon="-4.730104">
        <ele>1407.86</ele>
        <time>2021-03-27T14:22:52Z</time>
      </trkpt>
      <trkpt lat="40.521201" lon="-4.730079">
        <ele>1410.82</ele>
        <time>2021-03-27T14:22:54Z</time>
      </trkpt>
      <trkpt lat="40.521017" lon="-4.730126">
        <ele>1412.77</ele>
        <time>2021-03-27T14:22:55Z</time>
      </trkpt>
      <trkpt lat="40.520461" lon="-4.730448">
        <ele>1420.08</ele>
        <time>2021-03-27T14:22:57Z</time>
      </trkpt>
      <trkpt lat="40.520275" lon="-4.730495">
        <ele>1421.03</ele>
        <time>2021-03-27T14:22:59Z</time>
      </trkpt>
      <trkpt lat="40.52007" lon="-4.730481">
        <ele>1423.05</ele>
        <time>2021-03-27T14:23:01Z</time>
      </trkpt>
      <trkpt lat="40.519355" lon="-4.730308">
        <ele>1429.11</ele>
        <time>2021-03-27T14:23:02Z</time>
      </trkpt>
      <trkpt lat="40.519159" lon="-4.730194">
        <ele>1430.8</ele>
        <time>2021-03-27T14:23:04Z</time>
      </trkpt>
      <trkpt lat="40.518976" lon="-4.730003">
        <ele>1432.76</ele>
        <time>2021-03-27T14:23:06Z</time>
      </trkpt>
      <trkpt lat="40.518569" lon="-4.729289">
        <ele>1437.11</ele>
        <time>2021-03-27T14:23:08Z</time>
      </trkpt>
      <trkpt lat="40.518413" lon="-4.729132">
        <ele>1438.54</ele>
        <time>2021-03-27T14:23:09Z</time>
      </trkpt>
      <trkpt lat="40.518286" lon="-4.729052">
        <ele>1439.79</ele>
        <time>2021-03-27T14:23:11Z</time>
      </trkpt>
      <trkpt lat="40.517358" lon="-4.728763">
        <ele>1447.08</ele>
        <time>2021-03-27T14:23:13Z</time>
      </trkpt>
      <trkpt lat="40.517167" lon="-4.728747">
        <ele>1448.78</ele>
        <time>2021-03-27T14:23:14Z</time>
      </trkpt>
      <trkpt lat="40.516933" lon="-4.728765">
        <ele>1450.13</ele>
        <time>2021-03-27T14:23:16Z</time>
      </trkpt>
      <trkpt lat="40.516723" lon="-4.72887">
        <ele>1450.13</ele>
        <time>2021-03-27T14:23:18Z</time>
      </trkpt>
      <trkpt lat="40.516426" lon="-4.72919">
        <ele>1452.98</ele>
        <time>2021-03-27T14:23:20Z</time>
      </trkpt>
      <trkpt lat="40.516224" lon="-4.729354">
        <ele>1455.53</ele>
        <time>2021-03-27T14:23:21Z</time>
      </trkpt>
      <trkpt lat="40.515646" lon="-4.72954">
        <ele>1457.44</ele>
        <time>2021-03-27T14:23:23Z</time>
      </trkpt>
      <trkpt lat="40.515413" lon="-4.729647">
        <ele>1460.47</ele>
        <time>2021-03-27T14:23:25Z</time>
      </trkpt>
      <trkpt lat="40.515102" lon="-4.729886">
        <ele>1463.95</ele>
        <time>2021-03-27T14:23:27Z</time>
      </trkpt>
      <trkpt lat="40.514811" lon="-4.730157">
        <ele>1464.95</ele>
        <time>2021-03-27T14:23:28Z</time>
      </trkpt>
      <trkpt lat="40.514545" lon="-4.730308">
        <ele>1465.11</ele>
        <time>2021-03-27T14:23:30Z</time>
      </trkpt>
      <trkpt lat="40.514313" lon="-4.730367">
        <ele>1465.47</ele>
        <time>2021-03-27T14:23:32Z</time>
      </trkpt>
      <trkpt lat="40.513991" lon="-4.73039">
        <ele>1465.18</ele>
        <time>2021-03-27T14:23:34Z</time>
      </trkpt>
      <trkpt lat="40.509576" lon="-4.730662">
        <ele>1477.8</ele>
        <time>2021-03-27T14:23:35Z</time>
      </trkpt>
      <trkpt lat="40.509401" lon="-4.730717">
        <ele>1477.57</ele>
        <time>2021-03-27T14:23:37Z</time>
      </trkpt>
      <trkpt lat="40.509061" lon="-4.730921">
        <ele>1479.33</ele>
        <time>2021-03-27T14:23:39Z</time>
      </trkpt>
      <trkpt lat="40.508375" lon="-4.731469">
        <ele>1481.04</ele>
        <time>2021-03-27T14:23:41Z</time>
      </trkpt>
      <trkpt lat="40.508152" lon="-4.731584">
        <ele>1481.0</ele>
        <time>2021-03-27T14:23:42Z</time>
      </trkpt>
      <trkpt lat="40.507735" lon="-4.731716">
        <ele>1481.28</ele>
        <time>2021-03-27T14:23:44Z</time>
      </trkpt>
      <trkpt lat="40.507506" lon="-4.731735">
        <ele>1482.71</ele>
        <time>2021-03-27T14:23:46Z</time>
      </trkpt>
      <trkpt lat="40.507264" lon="-4.731724">
        <ele>1483.64</ele>
        <time>2021-03-27T14:23:47Z</time>
      </trkpt>
      <trkpt lat="40.506674" lon="-4.73158">
        <ele>1485.61</ele>
        <time>2021-03-27T14:23:49Z</time>
      </trkpt>
      <trkpt lat="40.50634" lon="-4.731568">
        <ele>1486.35</ele>
        <time>2021-03-27T14:23:51Z</time>
      </trkpt>
      <trkpt lat="40.506071" lon="-4.73165">
        <ele>1486.2</ele>
        <time>2021-03-27T14:23:53Z</time>
      </trkpt>
      <trkpt lat="40.502937" lon="-4.733264">
        <ele>1494.46</ele>
        <time>2021-03-27T14:23:54Z</time>
      </trkpt>
      <trkpt lat="40.498206" lon="-4.73574">
        <ele>1515.64</ele>
        <time>2021-03-27T14:23:56Z</time>
      </trkpt>
      <trkpt lat="40.498008" lon="-4.735876">
        <ele>1516.0</ele>
        <time>2021-03-27T14:23:58Z</time>
      </trkpt>
      <trkpt lat="40.497844" lon="-4.736025">
        <ele>1516.0</ele>
        <time>2021-03-27T14:24:00Z</time>
      </trkpt>
      <trkpt lat="40.497403" lon="-4.736494">
        <ele>1515.84</ele>
        <time>2021-03-27T14:24:01Z</time>
      </trkpt>
      <trkpt lat="40.497228" lon="-4.736612">
        <ele>1515.39</ele>
        <time>2021-03-27T14:24:03Z</time>
      </trkpt>
      <trkpt lat="40.497044" lon="-4.736673">
        <ele>1515.62</ele>
        <time>2021-03-27T14:24:05Z</time>
      </trkpt>
      <trkpt lat="40.496854" lon="-4.736654">
        <ele>1515.36</ele>
        <time>2021-03-27T14:24:07Z</time>
      </trkpt>
      <trkpt lat="40.496772" lon="-4.73662">
        <ele>1514.71</ele>
        <time>2021-03-27T14:24:08Z</time>
      </trkpt>
      <trkpt lat="40.496614" lon="-4.736494">
        <ele>1512.5</ele>
        <time>2021-03-27T14:24:10Z</time>
      </trkpt>
      <trkpt lat="40.496479" lon="-4.736302">
        <ele>1508.9</ele>
        <time>2021-03-27T14:24:12Z</time>
      </trkpt>
      <trkpt lat="40.496372" lon="-4.73603">
        <ele>1505.11</ele>
        <time>2021-03-27T14:24:14Z</time>
      </trkpt>
      <trkpt lat="40.4963" lon="-4.735701">
        <ele>1501.92</ele>
        <time>2021-03-27T14:24:15Z</time>
      </trkpt>
      <trkpt lat="40.496182" lon="-4.734685">
        <ele>1496.41</ele>
        <time>2021-03-27T14:24:17Z</time>
      </trkpt>
      <trkpt lat="40.496112" lon="-4.734255">
        <ele>1493.35</ele>
        <time>2021-03-27T14:24:19Z</time>
      </trkpt>
      <trkpt lat="40.496019" lon="-4.733956">
        <ele>1491.86</ele>
        <time>2021-03-27T14:24:20Z</time>
      </trkpt>
      <trkpt lat="40.495874" lon="-4.733655">
        <ele>1489.84</ele>
        <time>2021-03-27T14:24:22Z</time>
      </trkpt>
      <trkpt lat="40.49581" lon="-4.733557">
        <ele>1489.37</ele>
        <time>2021-03-27T14:24:24Z</time>
      </trkpt>
      <trkpt lat="40.495662" lon="-4.733384">
        <ele>1489.19</ele>
        <time>2021-03-27T14:24:26Z</time>
      </trkpt>
      <trkpt lat="40.495537" lon="-4.733273">
        <ele>1488.84</ele>
        <time>2021-03-27T14:24:27Z</time>
      </trkpt>
      <trkpt lat="40.49401" lon="-4.732121">
        <ele>1481.87</ele>
        <time>2021-03-27T14:24:29Z</time>
      </trkpt>
      <trkpt lat="40.493857" lon="-4.732031">
        <ele>1480.54</ele>
        <time>2021-03-27T14:24:31Z</time>
      </trkpt>
      <trkpt lat="40.493753" lon="-4.731994">
        <ele>1480.24</ele>
        <time>2021-03-27T14:24:33Z</time>
      </trkpt>
      <trkpt lat="40.493621" lon="-4.731978">
        <ele>1479.8</ele>
        <time>2021-03-27T14:24:34Z</time>
      </trkpt>
      <trkpt lat="40.493438" lon="-4.732023">
        <ele>1477.12</ele>
        <time>2021-03-27T14:24:36Z</time>
      </trkpt>
      <trkpt lat="40.493361" lon="-4.732078">
        <ele>1475.87</ele>
        <time>2021-03-27T14:24:38Z</time>
      </trkpt>
      <trkpt lat="40.493231" lon="-4.732218">
        <ele>1474.64</ele>
        <time>2021-03-27T14:24:40Z</time>
      </trkpt>
      <trkpt lat="40.493137" lon="-4.732427">
        <ele>1473.34</ele>
        <time>2021-03-27T14:24:41Z</time>
      </trkpt>
      <trkpt lat="40.493105" lon="-4.732665">
        <ele>1472.19</ele>
        <time>2021-03-27T14:24:43Z</time>
      </trkpt>
      <trkpt lat="40.493115" lon="-4.732788">
        <ele>1471.46</ele>
        <time>2021-03-27T14:24:45Z</time>
      </trkpt>
      <trkpt lat="40.493168" lon="-4.732992">
        <ele>1468.86</ele>
        <time>2021-03-27T14:24:47Z</time>
      </trkpt>
      <trkpt lat="40.493277" lon="-4.733171">
        <ele>1465.0</ele>
        <time>2021-03-27T14:24:48Z</time>
      </trkpt>
      <trkpt lat="40.493422" lon="-4.733295">
        <ele>1460.86</ele>
        <time>2021-03-27T14:24:50Z</time>
      </trkpt>
      <trkpt lat="40.493523" lon="-4.733336">
        <ele>1458.87</ele>
        <time>2021-03-27T14:24:52Z</time>
      </trkpt>
      <trkpt lat="40.49385" lon="-4.733388">
        <ele>1457.65</ele>
        <time>2021-03-27T14:24:53Z</time>
      </trkpt>
      <trkpt lat="40.494082" lon="-4.733447">
        <ele>1458.63</ele>
        <time>2021-03-27T14:24:55Z</time>
      </trkpt>
      <trkpt lat="40.494186" lon="-4.733507">
        <ele>1458.65</ele>
        <time>2021-03-27T14:24:57Z</time>
      </trkpt>
      <trkpt lat="40.494275" lon="-4.733584">
        <ele>1458.9</ele>
        <time>2021-03-27T14:24:59Z</time>
      </trkpt>
      <trkpt lat="40.494348" lon="-4.733674">
        <ele>1459.32</ele>
        <time>2021-03-27T14:25:00Z</time>
      </trkpt>
      <trkpt lat="40.494452" lon="-4.73387">
        <ele>1460.33</ele>
        <time>2021-03-27T14:25:02Z</time>
      </trkpt>
      <trkpt lat="40.494499" lon="-4.734012">
        <ele>1460.49</ele>
        <time>2021-03-27T14:25:04Z</time>
      </trkpt>
      <trkpt lat="40.494522" lon="-4.734147">
        <ele>1460.09</ele>
        <time>2021-03-27T14:25:06Z</time>
      </trkpt>
      <trkpt lat="40.494525" lon="-4.734292">
        <ele>1459.14</ele>
        <time>2021-03-27T14:25:07Z</time>
      </trkpt>
      <trkpt lat="40.49451" lon="-4.734452">
        <ele>1457.67</ele>
        <time>2021-03-27T14:25:09Z</time>
      </trkpt>
      <trkpt lat="40.494474" lon="-4.734605">
        <ele>1456.82</ele>
        <time>2021-03-27T14:25:11Z</time>
      </trkpt>
      <trkpt lat="40.494417" lon="-4.734756">
        <ele>1455.45</ele>
        <time>2021-03-27T14:25:13Z</time>
      </trkpt>
      <trkpt lat="40.494067" lon="-4.73548">
        <ele>1450.02</ele>
        <time>2021-03-27T14:25:14Z</time>
      </trkpt>
      <trkpt lat="40.493134" lon="-4.737918">
        <ele>1438.62</ele>
        <time>2021-03-27T14:25:16Z</time>
      </trkpt>
      <trkpt lat="40.492978" lon="-4.738193">
        <ele>1438.28</ele>
        <time>2021-03-27T14:25:18Z</time>
      </trkpt>
      <trkpt lat="40.492644" lon="-4.738653">
        <ele>1432.92</ele>
        <time>2021-03-27T14:25:20Z</time>
      </trkpt>
      <trkpt lat="40.492299" lon="-4.739207">
        <ele>1427.88</ele>
        <time>2021-03-27T14:25:21Z</time>
      </trkpt>
      <trkpt lat="40.491663" lon="-4.740506">
        <ele>1425.18</ele>
        <time>2021-03-27T14:25:23Z</time>
      </trkpt>
      <trkpt lat="40.491456" lon="-4.74082">
        <ele>1424.4</ele>
        <time>2021-03-27T14:25:25Z</time>
      </trkpt>
      <trkpt lat="40.490614" lon="-4.741734">
        <ele>1419.5</ele>
        <time>2021-03-27T14:25:26Z</time>
      </trkpt>
      <trkpt lat="40.490454" lon="-4.741834">
        <ele>1420.34</ele>
        <time>2021-03-27T14:25:28Z</time>
      </trkpt>
      <trkpt lat="40.490184" lon="-4.741884">
        <ele>1418.57</ele>
        <time>2021-03-27T14:25:30Z</time>
      </trkpt>
      <trkpt lat="40.490069" lon="-4.741915">
        <ele>1417.52</ele>
        <time>2021-03-27T14:25:32Z</time>
      </trkpt>
      <trkpt lat="40.489978" lon="-4.741961">
        <ele>1416.53</ele>
        <time>2021-03-27T14:25:33Z</time>
      </trkpt>
      <trkpt lat="40.489786" lon="-4.742132">
        <ele>1412.78</ele>
        <time>2021-03-27T14:25:35Z</time>
      </trkpt>
      <trkpt lat="40.489671" lon="-4.742302">
        <ele>1411.38</ele>
        <time>2021-03-27T14:25:37Z</time>
      </trkpt>
      <trkpt lat="40.488941" lon="-4.74354">
        <ele>1404.42</ele>
        <time>2021-03-27T14:25:39Z</time>
      </trkpt>
      <trkpt lat="40.488854" lon="-4.743715">
        <ele>1402.45</ele>
        <time>2021-03-27T14:25:40Z</time>
      </trkpt>
      <trkpt lat="40.488738" lon="-4.744046">
        <ele>1400.78</ele>
        <time>2021-03-27T14:25:42Z</time>
      </trkpt>
      <trkpt lat="40.488632" lon="-4.744753">
        <ele>1400.82</ele>
        <time>2021-03-27T14:25:44Z</time>
      </trkpt>
      <trkpt lat="40.488597" lon="-4.744872">
        <ele>1400.77</ele>
        <time>2021-03-27T14:25:46Z</time>
      </trkpt>
      <trkpt lat="40.488539" lon="-4.744994">
        <ele>1400.41</ele>
        <time>2021-03-27T14:25:47Z</time>
      </trkpt>
      <trkpt lat="40.488463" lon="-4.745112">
        <ele>1400.01</ele>
        <time>2021-03-27T14:25:49Z</time>
      </trkpt>
      <trkpt lat="40.488301" lon="-4.745264">
        <ele>1398.39</ele>
        <time>2021-03-27T14:25:51Z</time>
      </trkpt>
      <trkpt lat="40.48789" lon="-4.745462">
        <ele>1394.07</ele>
        <time>2021-03-27T14:25:53Z</time>
      </trkpt>
      <trkpt lat="40.48769" lon="-4.745629">
        <ele>1393.39</ele>
        <time>2021-03-27T14:25:54Z</time>
      </trkpt>
      <trkpt lat="40.487588" lon="-4.745751">
        <ele>1392.92</ele>
        <time>2021-03-27T14:25:56Z</time>
      </trkpt>
      <trkpt lat="40.487025" lon="-4.746541">
        <ele>1382.79</ele>
        <time>2021-03-27T14:25:58Z</time>
      </trkpt>
      <trkpt lat="40.486667" lon="-4.746986">
        <ele>1383.21</ele>
        <time>2021-03-27T14:25:59Z</time>
      </trkpt>
      <trkpt lat="40.486405" lon="-4.747249">
        <ele>1384.21</ele>
        <time>2021-03-27T14:26:01Z</time>
      </trkpt>
      <trkpt lat="40.486212" lon="-4.747408">
        <ele>1383.68</ele>
        <time>2021-03-27T14:26:03Z</time>
      </trkpt>
      <trkpt lat="40.485571" lon="-4.747859">
        <ele>1377.65</ele>
        <time>2021-03-27T14:26:05Z</time>
      </trkpt>
      <trkpt lat="40.485428" lon="-4.747986">
        <ele>1375.34</ele>
        <time>2021-03-27T14:26:06Z</time>
      </trkpt>
      <trkpt lat="40.484945" lon="-4.748493">
        <ele>1372.22</ele>
        <time>2021-03-27T14:26:08Z</time>
      </trkpt>
      <trkpt lat="40.484589" lon="-4.748892">
        <ele>1371.17</ele>
        <time>2021-03-27T14:26:10Z</time>
      </trkpt>
      <trkpt lat="40.484443" lon="-4.749081">
        <ele>1370.04</ele>
        <time>2021-03-27T14:26:12Z</time>
      </trkpt>
      <trkpt lat="40.484317" lon="-4.749281">
        <ele>1368.76</ele>
        <time>2021-03-27T14:26:13Z</time>
      </trkpt>
      <trkpt lat="40.484177" lon="-4.749587">
        <ele>1367.31</ele>
        <time>2021-03-27T14:26:15Z</time>
      </trkpt>
      <trkpt lat="40.484077" lon="-4.749963">
        <ele>1365.29</ele>
        <time>2021-03-27T14:26:17Z</time>
      </trkpt>
      <trkpt lat="40.484052" lon="-4.750176">
        <ele>1364.36</ele>
        <time>2021-03-27T14:26:19Z</time>
      </trkpt>
      <trkpt lat="40.484055" lon="-4.750558">
        <ele>1363.39</ele>
        <time>2021-03-27T14:26:20Z</time>
      </trkpt>
      <trkpt lat="40.484082" lon="-4.750756">
        <ele>1362.83</ele>
        <time>2021-03-27T14:26:22Z</time>
      </trkpt>
      <trkpt lat="40.484188" lon="-4.751144">
        <ele>1361.41</ele>
        <time>2021-03-27T14:26:24Z</time>
      </trkpt>
      <trkpt lat="40.484217" lon="-4.751363">
        <ele>1361.03</ele>
        <time>2021-03-27T14:26:26Z</time>
      </trkpt>
      <trkpt lat="40.484204" lon="-4.751465">
        <ele>1360.33</ele>
        <time>2021-03-27T14:26:27Z</time>
      </trkpt>
      <trkpt lat="40.484137" lon="-4.7516">
        <ele>1358.41</ele>
        <time>2021-03-27T14:26:29Z</time>
      </trkpt>
      <trkpt lat="40.484034" lon="-4.751665">
        <ele>1355.19</ele>
        <time>2021-03-27T14:26:31Z</time>
      </trkpt>
      <trkpt lat="40.483968" lon="-4.751671">
        <ele>1353.23</ele>
        <time>2021-03-27T14:26:32Z</time>
      </trkpt>
      <trkpt lat="40.483905" lon="-4.751653">
        <ele>1351.56</ele>
        <time>2021-03-27T14:26:34Z</time>
      </trkpt>
      <trkpt lat="40.483816" lon="-4.751568">
        <ele>1349.35</ele>
        <time>2021-03-27T14:26:36Z</time>
      </trkpt>
      <trkpt lat="40.483778" lon="-4.751491">
        <ele>1348.68</ele>
        <time>2021-03-27T14:26:38Z</time>
      </trkpt>
      <trkpt lat="40.483741" lon="-4.751297">
        <ele>1348.53</ele>
        <time>2021-03-27T14:26:39Z</time>
      </trkpt>
      <trkpt lat="40.483729" lon="-4.750789">
        <ele>1350.0</ele>
        <time>2021-03-27T14:26:41Z</time>
      </trkpt>
      <trkpt lat="40.483714" lon="-4.750631">
        <ele>1350.52</ele>
        <time>2021-03-27T14:26:43Z</time>
      </trkpt>
      <trkpt lat="40.483614" lon="-4.750126">
        <ele>1348.65</ele>
        <time>2021-03-27T14:26:45Z</time>
      </trkpt>
      <trkpt lat="40.483497" lon="-4.749715">
        <ele>1343.04</ele>
        <time>2021-03-27T14:26:46Z</time>
      </trkpt>
      <trkpt lat="40.483458" lon="-4.749527">
        <ele>1340.04</ele>
        <time>2021-03-27T14:26:48Z</time>
      </trkpt>
      <trkpt lat="40.483442" lon="-4.749244">
        <ele>1337.29</ele>
        <time>2021-03-27T14:26:50Z</time>
      </trkpt>
      <trkpt lat="40.483455" lon="-4.749112">
        <ele>1337.16</ele>
        <time>2021-03-27T14:26:52Z</time>
      </trkpt>
      <trkpt lat="40.483492" lon="-4.748955">
        <ele>1338.43</ele>
        <time>2021-03-27T14:26:53Z</time>
      </trkpt>
      <trkpt lat="40.483551" lon="-4.748795">
        <ele>1339.92</ele>
        <time>2021-03-27T14:26:55Z</time>
      </trkpt>
      <trkpt lat="40.484045" lon="-4.747759">
        <ele>1336.29</ele>
        <time>2021-03-27T14:26:57Z</time>
      </trkpt>
      <trkpt lat="40.484362" lon="-4.746973">
        <ele>1332.04</ele>
        <time>2021-03-27T14:26:59Z</time>
      </trkpt>
      <trkpt lat="40.484461" lon="-4.746773">
        <ele>1330.41</ele>
        <time>2021-03-27T14:27:00Z</time>
      </trkpt>
      <trkpt lat="40.484681" lon="-4.746425">
        <ele>1332.31</ele>
        <time>2021-03-27T14:27:02Z</time>
      </trkpt>
      <trkpt lat="40.484719" lon="-4.746331">
        <ele>1332.69</ele>
        <time>2021-03-27T14:27:04Z</time>
      </trkpt>
      <trkpt lat="40.484738" lon="-4.746241">
        <ele>1333.01</ele>
        <time>2021-03-27T14:27:05Z</time>
      </trkpt>
      <trkpt lat="40.484734" lon="-4.746074">
        <ele>1332.19</ele>
        <time>2021-03-27T14:27:07Z</time>
      </trkpt>
      <trkpt lat="40.484677" lon="-4.74593">
        <ele>1330.42</ele>
        <time>2021-03-27T14:27:09Z</time>
      </trkpt>
      <trkpt lat="40.484569" lon="-4.745815">
        <ele>1328.27</ele>
        <time>2021-03-27T14:27:11Z</time>
      </trkpt>
      <trkpt lat="40.484511" lon="-4.745789">
        <ele>1327.33</ele>
        <time>2021-03-27T14:27:12Z</time>
      </trkpt>
      <trkpt lat="40.48438" lon="-4.745787">
        <ele>1325.24</ele>
        <time>2021-03-27T14:27:14Z</time>
      </trkpt>
      <trkpt lat="40.484298" lon="-4.745815">
        <ele>1323.95</ele>
        <time>2021-03-27T14:27:16Z</time>
      </trkpt>
      <trkpt lat="40.482916" lon="-4.746709">
        <ele>1314.22</ele>
        <time>2021-03-27T14:27:18Z</time>
      </trkpt>
      <trkpt lat="40.481983" lon="-4.747356">
        <ele>1309.17</ele>
        <time>2021-03-27T14:27:19Z</time>
      </trkpt>
      <trkpt lat="40.481796" lon="-4.747503">
        <ele>1307.87</ele>
        <time>2021-03-27T14:27:21Z</time>
      </trkpt>
      <trkpt lat="40.481678" lon="-4.747631">
        <ele>1307.07</ele>
        <time>2021-03-27T14:27:23Z</time>
      </trkpt>
      <trkpt lat="40.481551" lon="-4.747813">
        <ele>1307.11</ele>
        <time>2021-03-27T14:27:25Z</time>
      </trkpt>
      <trkpt lat="40.481443" lon="-4.748076">
        <ele>1305.38</ele>
        <time>2021-03-27T14:27:26Z</time>
      </trkpt>
      <trkpt lat="40.481395" lon="-4.74825">
        <ele>1302.98</ele>
        <time>2021-03-27T14:27:28Z</time>
      </trkpt>
      <trkpt lat="40.481324" lon="-4.748738">
        <ele>1298.97</ele>
        <time>2021-03-27T14:27:30Z</time>
      </trkpt>
      <trkpt lat="40.481287" lon="-4.750342">
        <ele>1289.53</ele>
        <time>2021-03-27T14:27:32Z</time>
      </trkpt>
      <trkpt lat="40.481332" lon="-4.750616">
        <ele>1288.17</ele>
        <time>2021-03-27T14:27:33Z</time>
      </trkpt>
      <trkpt lat="40.481369" lon="-4.750731">
        <ele>1288.28</ele>
        <time>2021-03-27T14:27:35Z</time>
      </trkpt>
      <trkpt lat="40.481474" lon="-4.75093">
        <ele>1288.31</ele>
        <time>2021-03-27T14:27:37Z</time>
      </trkpt>
      <trkpt lat="40.481632" lon="-4.75109">
        <ele>1288.03</ele>
        <time>2021-03-27T14:27:38Z</time>
      </trkpt>
      <trkpt lat="40.481775" lon="-4.751182">
        <ele>1287.66</ele>
        <time>2021-03-27T14:27:40Z</time>
      </trkpt>
      <trkpt lat="40.481933" lon="-4.751325">
        <ele>1286.09</ele>
        <time>2021-03-27T14:27:42Z</time>
      </trkpt>
      <trkpt lat="40.482" lon="-4.751413">
        <ele>1286.01</ele>
        <time>2021-03-27T14:27:44Z</time>
      </trkpt>
      <trkpt lat="40.482063" lon="-4.751542">
        <ele>1286.22</ele>
        <time>2021-03-27T14:27:45Z</time>
      </trkpt>
      <trkpt lat="40.48226" lon="-4.752061">
        <ele>1287.24</ele>
        <time>2021-03-27T14:27:47Z</time>
      </trkpt>
      <trkpt lat="40.482311" lon="-4.752263">
        <ele>1288.53</ele>
        <time>2021-03-27T14:27:49Z</time>
      </trkpt>
      <trkpt lat="40.482395" lon="-4.753179">
        <ele>1279.04</ele>
        <time>2021-03-27T14:27:51Z</time>
      </trkpt>
      <trkpt lat="40.482432" lon="-4.753409">
        <ele>1276.62</ele>
        <time>2021-03-27T14:27:52Z</time>
      </trkpt>
      <trkpt lat="40.482658" lon="-4.754389">
        <ele>1273.15</ele>
        <time>2021-03-27T14:27:54Z</time>
      </trkpt>
      <trkpt lat="40.482699" lon="-4.754497">
        <ele>1272.46</ele>
        <time>2021-03-27T14:27:56Z</time>
      </trkpt>
      <trkpt lat="40.482762" lon="-4.754601">
        <ele>1271.65</ele>
        <time>2021-03-27T14:27:58Z</time>
      </trkpt>
      <trkpt lat="40.482844" lon="-4.754686">
        <ele>1270.89</ele>
        <time>2021-03-27T14:27:59Z</time>
      </trkpt>
      <trkpt lat="40.482933" lon="-4.754737">
        <ele>1270.86</ele>
        <time>2021-03-27T14:28:01Z</time>
      </trkpt>
      <trkpt lat="40.483217" lon="-4.754813">
        <ele>1272.63</ele>
        <time>2021-03-27T14:28:03Z</time>
      </trkpt>
      <trkpt lat="40.483291" lon="-4.754861">
        <ele>1272.9</ele>
        <time>2021-03-27T14:28:05Z</time>
      </trkpt>
      <trkpt lat="40.483367" lon="-4.754934">
        <ele>1273.93</ele>
        <time>2021-03-27T14:28:06Z</time>
      </trkpt>
      <trkpt lat="40.483418" lon="-4.755012">
        <ele>1274.91</ele>
        <time>2021-03-27T14:28:08Z</time>
      </trkpt>
      <trkpt lat="40.483466" lon="-4.755119">
        <ele>1275.9</ele>
        <time>2021-03-27T14:28:10Z</time>
      </trkpt>
      <trkpt lat="40.483493" lon="-4.755233">
        <ele>1276.33</ele>
        <time>2021-03-27T14:28:11Z</time>
      </trkpt>
      <trkpt lat="40.483532" lon="-4.755693">
        <ele>1273.91</ele>
        <time>2021-03-27T14:28:13Z</time>
      </trkpt>
      <trkpt lat="40.483521" lon="-4.755931">
        <ele>1272.15</ele>
        <time>2021-03-27T14:28:15Z</time>
      </trkpt>
      <trkpt lat="40.483495" lon="-4.756173">
        <ele>1270.86</ele>
        <time>2021-03-27T14:28:17Z</time>
      </trkpt>
      <trkpt lat="40.483232" lon="-4.757773">
        <ele>1257.02</ele>
        <time>2021-03-27T14:28:18Z</time>
      </trkpt>
      <trkpt lat="40.483204" lon="-4.758156">
        <ele>1253.82</ele>
        <time>2021-03-27T14:28:20Z</time>
      </trkpt>
      <trkpt lat="40.483211" lon="-4.758473">
        <ele>1252.45</ele>
        <time>2021-03-27T14:28:22Z</time>
      </trkpt>
      <trkpt lat="40.483265" lon="-4.758794">
        <ele>1252.88</ele>
        <time>2021-03-27T14:28:24Z</time>
      </trkpt>
      <trkpt lat="40.484015" lon="-4.761459">
        <ele>1244.82</ele>
        <time>2021-03-27T14:28:25Z</time>
      </trkpt>
      <trkpt lat="40.484029" lon="-4.761605">
        <ele>1245.02</ele>
        <time>2021-03-27T14:28:27Z</time>
      </trkpt>
      <trkpt lat="40.484008" lon="-4.761853">
        <ele>1244.14</ele>
        <time>2021-03-27T14:28:29Z</time>
      </trkpt>
      <trkpt lat="40.483964" lon="-4.761995">
        <ele>1243.41</ele>
        <time>2021-03-27T14:28:31Z</time>
      </trkpt>
      <trkpt lat="40.483557" lon="-4.763036">
        <ele>1238.95</ele>
        <time>2021-03-27T14:28:32Z</time>
      </trkpt>
      <trkpt lat="40.483396" lon="-4.763377">
        <ele>1240.43</ele>
        <time>2021-03-27T14:28:34Z</time>
      </trkpt>
      <trkpt lat="40.483244" lon="-4.763549">
        <ele>1241.67</ele>
        <time>2021-03-27T14:28:36Z</time>
      </trkpt>
      <trkpt lat="40.483161" lon="-4.763611">
        <ele>1241.52</ele>
        <time>2021-03-27T14:28:38Z</time>
      </trkpt>
      <trkpt lat="40.482943" lon="-4.763688">
        <ele>1239.84</ele>
        <time>2021-03-27T14:28:39Z</time>
      </trkpt>
      <trkpt lat="40.482237" lon="-4.763691">
        <ele>1234.16</ele>
        <time>2021-03-27T14:28:41Z</time>
      </trkpt>
      <trkpt lat="40.482041" lon="-4.763746">
        <ele>1232.67</ele>
        <time>2021-03-27T14:28:43Z</time>
      </trkpt>
      <trkpt lat="40.481929" lon="-4.763812">
        <ele>1231.74</ele>
        <time>2021-03-27T14:28:44Z</time>
      </trkpt>
      <trkpt lat="40.481818" lon="-4.76391">
        <ele>1229.65</ele>
        <time>2021-03-27T14:28:46Z</time>
      </trkpt>
      <trkpt lat="40.480896" lon="-4.765046">
        <ele>1223.44</ele>
        <time>2021-03-27T14:28:48Z</time>
      </trkpt>
      <trkpt lat="40.480799" lon="-4.765127">
        <ele>1221.53</ele>
        <time>2021-03-27T14:28:50Z</time>
      </trkpt>
      <trkpt lat="40.480604" lon="-4.765203">
        <ele>1216.74</ele>
        <time>2021-03-27T14:28:51Z</time>
      </trkpt>
      <trkpt lat="40.480246" lon="-4.765213">
        <ele>1211.77</ele>
        <time>2021-03-27T14:28:53Z</time>
      </trkpt>
      <trkpt lat="40.479994" lon="-4.76526">
        <ele>1209.83</ele>
        <time>2021-03-27T14:28:55Z</time>
      </trkpt>
      <trkpt lat="40.479803" lon="-4.765363">
        <ele>1209.98</ele>
        <time>2021-03-27T14:28:57Z</time>
      </trkpt>
      <trkpt lat="40.479445" lon="-4.765635">
        <ele>1211.14</ele>
        <time>2021-03-27T14:28:58Z</time>
      </trkpt>
      <trkpt lat="40.479317" lon="-4.765689">
        <ele>1210.78</ele>
        <time>2021-03-27T14:29:00Z</time>
      </trkpt>
      <trkpt lat="40.47921" lon="-4.765711">
        <ele>1210.09</ele>
        <time>2021-03-27T14:29:02Z</time>
      </trkpt>
      <trkpt lat="40.479086" lon="-4.765709">
        <ele>1208.95</ele>
        <time>2021-03-27T14:29:04Z</time>
      </trkpt>
      <trkpt lat="40.47897" lon="-4.76567">
        <ele>1207.4</ele>
        <time>2021-03-27T14:29:05Z</time>
      </trkpt>
      <trkpt lat="40.478864" lon="-4.76561">
        <ele>1205.84</ele>
        <time>2021-03-27T14:29:07Z</time>
      </trkpt>
      <trkpt lat="40.478692" lon="-4.76544">
        <ele>1204.76</ele>
        <time>2021-03-27T14:29:09Z</time>
      </trkpt>
      <trkpt lat="40.478586" lon="-4.765203">
        <ele>1203.85</ele>
        <time>2021-03-27T14:29:11Z</time>
      </trkpt>
      <trkpt lat="40.478531" lon="-4.764988">
        <ele>1203.37</ele>
        <time>2021-03-27T14:29:12Z</time>
      </trkpt>
      <trkpt lat="40.478407" lon="-4.764244">
        <ele>1195.59</ele>
        <time>2021-03-27T14:29:14Z</time>
      </trkpt>
      <trkpt lat="40.47837" lon="-4.764106">
        <ele>1194.14</ele>
        <time>2021-03-27T14:29:16Z</time>
      </trkpt>
      <trkpt lat="40.4783" lon="-4.763947">
        <ele>1193.75</ele>
        <time>2021-03-27T14:29:17Z</time>
      </trkpt>
      <trkpt lat="40.478012" lon="-4.763517">
        <ele>1193.52</ele>
        <time>2021-03-27T14:29:19Z</time>
      </trkpt>
      <trkpt lat="40.477836" lon="-4.763211">
        <ele>1190.58</ele>
        <time>2021-03-27T14:29:21Z</time>
      </trkpt>
      <trkpt lat="40.477761" lon="-4.763125">
        <ele>1189.58</ele>
        <time>2021-03-27T14:29:23Z</time>
      </trkpt>
      <trkpt lat="40.477599" lon="-4.76301">
        <ele>1186.95</ele>
        <time>2021-03-27T14:29:24Z</time>
      </trkpt>
      <trkpt lat="40.47739" lon="-4.762969">
        <ele>1185.11</ele>
        <time>2021-03-27T14:29:26Z</time>
      </trkpt>
      <trkpt lat="40.47729" lon="-4.762981">
        <ele>1184.44</ele>
        <time>2021-03-27T14:29:28Z</time>
      </trkpt>
      <trkpt lat="40.476594" lon="-4.763345">
        <ele>1182.17</ele>
        <time>2021-03-27T14:29:30Z</time>
      </trkpt>
      <trkpt lat="40.476276" lon="-4.763574">
        <ele>1181.89</ele>
        <time>2021-03-27T14:29:31Z</time>
      </trkpt>
      <trkpt lat="40.476102" lon="-4.763731">
        <ele>1180.11</ele>
        <time>2021-03-27T14:29:33Z</time>
      </trkpt>
      <trkpt lat="40.475961" lon="-4.763888">
        <ele>1178.22</ele>
        <time>2021-03-27T14:29:35Z</time>
      </trkpt>
      <trkpt lat="40.475796" lon="-4.764101">
        <ele>1175.55</ele>
        <time>2021-03-27T14:29:37Z</time>
      </trkpt>
      <trkpt lat="40.475539" lon="-4.76451">
        <ele>1174.75</ele>
        <time>2021-03-27T14:29:38Z</time>
      </trkpt>
      <trkpt lat="40.475454" lon="-4.764619">
        <ele>1175.51</ele>
        <time>2021-03-27T14:29:40Z</time>
      </trkpt>
      <trkpt lat="40.475287" lon="-4.764746">
        <ele>1176.33</ele>
        <time>2021-03-27T14:29:42Z</time>
      </trkpt>
      <trkpt lat="40.47519" lon="-4.764791">
        <ele>1175.56</ele>
        <time>2021-03-27T14:29:44Z</time>
      </trkpt>
      <trkpt lat="40.474963" lon="-4.764815">
        <ele>1173.2</ele>
        <time>2021-03-27T14:29:45Z</time>
      </trkpt>
      <trkpt lat="40.474319" lon="-4.764714">
        <ele>1168.93</ele>
        <time>2021-03-27T14:29:47Z</time>
      </trkpt>
      <trkpt lat="40.474209" lon="-4.764674">
        <ele>1168.51</ele>
        <time>2021-03-27T14:29:49Z</time>
      </trkpt>
      <trkpt lat="40.474114" lon="-4.764614">
        <ele>1168.49</ele>
        <time>2021-03-27T14:29:50Z</time>
      </trkpt>
      <trkpt lat="40.473933" lon="-4.764466">
        <ele>1167.33</ele>
        <time>2021-03-27T14:29:52Z</time>
      </trkpt>
      <trkpt lat="40.473803" lon="-4.764385">
        <ele>1166.12</ele>
        <time>2021-03-27T14:29:54Z</time>
      </trkpt>
      <trkpt lat="40.473686" lon="-4.764345">
        <ele>1164.99</ele>
        <time>2021-03-27T14:29:56Z</time>
      </trkpt>
      <trkpt lat="40.473393" lon="-4.764316">
        <ele>1163.1</ele>
        <time>2021-03-27T14:29:57Z</time>
      </trkpt>
      <trkpt lat="40.473214" lon="-4.764344">
        <ele>1163.74</ele>
        <time>2021-03-27T14:29:59Z</time>
      </trkpt>
      <trkpt lat="40.472329" lon="-4.764665">
        <ele>1152.28</ele>
        <time>2021-03-27T14:30:01Z</time>
      </trkpt>
      <trkpt lat="40.47188" lon="-4.764695">
        <ele>1148.1</ele>
        <time>2021-03-27T14:30:03Z</time>
      </trkpt>
      <trkpt lat="40.471565" lon="-4.76481">
        <ele>1145.54</ele>
        <time>2021-03-27T14:30:04Z</time>
      </trkpt>
      <trkpt lat="40.470899" lon="-4.765151">
        <ele>1144.12</ele>
        <time>2021-03-27T14:30:06Z</time>
      </trkpt>
      <trkpt lat="40.47009" lon="-4.765651">
        <ele>1140.3</ele>
        <time>2021-03-27T14:30:08Z</time>
      </trkpt>
      <trkpt lat="40.469678" lon="-4.765848">
        <ele>1135.8</ele>
        <time>2021-03-27T14:30:10Z</time>
      </trkpt>
      <trkpt lat="40.469296" lon="-4.765931">
        <ele>1132.77</ele>
        <time>2021-03-27T14:30:11Z</time>
      </trkpt>
      <trkpt lat="40.468794" lon="-4.765983">
        <ele>1126.83</ele>
        <time>2021-03-27T14:30:13Z</time>
      </trkpt>
      <trkpt lat="40.467583" lon="-4.765962">
        <ele>1117.55</ele>
        <time>2021-03-27T14:30:15Z</time>
      </trkpt>
      <trkpt lat="40.467433" lon="-4.765977">
        <ele>1117.56</ele>
        <time>2021-03-27T14:30:17Z</time>
      </trkpt>
      <trkpt lat="40.466879" lon="-4.766135">
        <ele>1116.45</ele>
        <time>2021-03-27T14:30:18Z</time>
      </trkpt>
      <trkpt lat="40.466717" lon="-4.766158">
        <ele>1114.74</ele>
        <time>2021-03-27T14:30:20Z</time>
      </trkpt>
      <trkpt lat="40.466408" lon="-4.766139">
        <ele>1110.38</ele>
        <time>2021-03-27T14:30:22Z</time>
      </trkpt>
      <trkpt lat="40.465981" lon="-4.766076">
        <ele>1108.69</ele>
        <time>2021-03-27T14:30:23Z</time>
      </trkpt>
      <trkpt lat="40.465738" lon="-4.766102">
        <ele>1107.53</ele>
        <time>2021-03-27T14:30:25Z</time>
      </trkpt>
      <trkpt lat="40.465559" lon="-4.766156">
        <ele>1105.53</ele>
        <time>2021-03-27T14:30:27Z</time>
      </trkpt>
      <trkpt lat="40.464566" lon="-4.766546">
        <ele>1096.5</ele>
        <time>2021-03-27T14:30:29Z</time>
      </trkpt>
      <trkpt lat="40.464447" lon="-4.766617">
        <ele>1095.51</ele>
        <time>2021-03-27T14:30:30Z</time>
      </trkpt>
      <trkpt lat="40.464263" lon="-4.76679">
        <ele>1095.03</ele>
        <time>2021-03-27T14:30:32Z</time>
      </trkpt>
      <trkpt lat="40.464132" lon="-4.766964">
        <ele>1094.65</ele>
        <time>2021-03-27T14:30:34Z</time>
      </trkpt>
      <trkpt lat="40.463543" lon="-4.767849">
        <ele>1090.92</ele>
        <time>2021-03-27T14:30:36Z</time>
      </trkpt>
      <trkpt lat="40.463243" lon="-4.768081">
        <ele>1088.27</ele>
        <time>2021-03-27T14:30:37Z</time>
      </trkpt>
      <trkpt lat="40.462753" lon="-4.768194">
        <ele>1084.32</ele>
        <time>2021-03-27T14:30:39Z</time>
      </trkpt>
      <trkpt lat="40.461683" lon="-4.768531">
        <ele>1075.35</ele>
        <time>2021-03-27T14:30:41Z</time>
      </trkpt>
      <trkpt lat="40.461135" lon="-4.768685">
        <ele>1074.62</ele>
        <time>2021-03-27T14:30:43Z</time>
      </trkpt>
      <trkpt lat="40.460564" lon="-4.768916">
        <ele>1068.34</ele>
        <time>2021-03-27T14:30:44Z</time>
      </trkpt>
      <trkpt lat="40.460929" lon="-4.767975">
        <ele>1065.36</ele>
        <time>2021-03-27T14:30:52Z</time>
      </trkpt>
      <trkpt lat="40.461092" lon="-4.767599">
        <ele>1064.22</ele>
        <time>2021-03-27T14:31:00Z</time>
      </trkpt>
      <trkpt lat="40.461196" lon="-4.767301">
        <ele>1062.88</ele>
        <time>2021-03-27T14:31:07Z</time>
      </trkpt>
      <trkpt lat="40.461343" lon="-4.766413">
        <ele>1060.35</ele>
        <time>2021-03-27T14:31:15Z</time>
      </trkpt>
      <trkpt lat="40.461517" lon="-4.765066">
        <ele>1060.77</ele>
        <time>2021-03-27T14:31:23Z</time>
      </trkpt>
      <trkpt lat="40.461531" lon="-4.764654">
        <ele>1061.2</ele>
        <time>2021-03-27T14:31:30Z</time>
      </trkpt>
      <trkpt lat="40.461495" lon="-4.763968">
        <ele>1060.51</ele>
        <time>2021-03-27T14:31:38Z</time>
      </trkpt>
      <trkpt lat="40.461496" lon="-4.763449">
        <ele>1060.74</ele>
        <time>2021-03-27T14:31:45Z</time>
      </trkpt>
      <trkpt lat="40.461686" lon="-4.762685">
        <ele>1059.85</ele>
        <time>2021-03-27T14:31:53Z</time>
      </trkpt>
      <trkpt lat="40.461853" lon="-4.762098">
        <ele>1056.97</ele>
        <time>2021-03-27T14:32:01Z</time>
      </trkpt>
      <trkpt lat="40.462115" lon="-4.761646">
        <ele>1057.34</ele>
        <time>2021-03-27T14:32:08Z</time>
      </trkpt>
      <trkpt lat="40.46329" lon="-4.759907">
        <ele>1057.64</ele>
        <time>2021-03-27T14:32:16Z</time>
      </trkpt>
      <trkpt lat="40.463423" lon="-4.759627">
        <ele>1055.3</ele>
        <time>2021-03-27T14:32:24Z</time>
      </trkpt>
      <trkpt lat="40.463517" lon="-4.759321">
        <ele>1055.91</ele>
        <time>2021-03-27T14:32:31Z</time>
      </trkpt>
      <trkpt lat="40.46357" lon="-4.759">
        <ele>1059.39</ele>
        <time>2021-03-27T14:32:39Z</time>
      </trkpt>
      <trkpt lat="40.463565" lon="-4.758583">
        <ele>1063.7</ele>
        <time>2021-03-27T14:32:47Z</time>
      </trkpt>
      <trkpt lat="40.463193" lon="-4.755948">
        <ele>1061.99</ele>
        <time>2021-03-27T14:32:54Z</time>
      </trkpt>
      <trkpt lat="40.463117" lon="-4.755324">
        <ele>1062.63</ele>
        <time>2021-03-27T14:33:02Z</time>
      </trkpt>
      <trkpt lat="40.463076" lon="-4.754569">
        <ele>1064.83</ele>
        <time>2021-03-27T14:33:09Z</time>
      </trkpt>
      <trkpt lat="40.463144" lon="-4.752996">
        <ele>1070.49</ele>
        <time>2021-03-27T14:33:17Z</time>
      </trkpt>
      <trkpt lat="40.46359" lon="-4.745817">
        <ele>1088.72</ele>
        <time>2021-03-27T14:33:25Z</time>
      </trkpt>
      <trkpt lat="40.463645" lon="-4.745185">
        <ele>1087.03</ele>
        <time>2021-03-27T14:33:32Z</time>
      </trkpt>
      <trkpt lat="40.463746" lon="-4.744779">
        <ele>1086.28</ele>
        <time>2021-03-27T14:33:40Z</time>
      </trkpt>
      <trkpt lat="40.463892" lon="-4.74447">
        <ele>1084.32</ele>
        <time>2021-03-27T14:33:48Z</time>
      </trkpt>
      <trkpt lat="40.464138" lon="-4.744141">
        <ele>1084.23</ele>
        <time>2021-03-27T14:33:55Z</time>
      </trkpt>
      <trkpt lat="40.464452" lon="-4.743906">
        <ele>1084.24</ele>
        <time>2021-03-27T14:34:03Z</time>
      </trkpt>
      <trkpt lat="40.464995" lon="-4.743602">
        <ele>1082.83</ele>
        <time>2021-03-27T14:34:10Z</time>
      </trkpt>
      <trkpt lat="40.465255" lon="-4.743326">
        <ele>1084.47</ele>
        <time>2021-03-27T14:34:18Z</time>
      </trkpt>
      <trkpt lat="40.466004" lon="-4.742309">
        <ele>1082.78</ele>
        <time>2021-03-27T14:34:26Z</time>
      </trkpt>
      <trkpt lat="40.466189" lon="-4.741998">
        <ele>1082.61</ele>
        <time>2021-03-27T14:34:33Z</time>
      </trkpt>
      <trkpt lat="40.466295" lon="-4.741677">
        <ele>1081.72</ele>
        <time>2021-03-27T14:34:41Z</time>
      </trkpt>
      <trkpt lat="40.466376" lon="-4.741188">
        <ele>1078.84</ele>
        <time>2021-03-27T14:34:49Z</time>
      </trkpt>
      <trkpt lat="40.466352" lon="-4.740836">
        <ele>1079.84</ele>
        <time>2021-03-27T14:34:56Z</time>
      </trkpt>
      <trkpt lat="40.466258" lon="-4.740349">
        <ele>1091.51</ele>
        <time>2021-03-27T14:35:04Z</time>
      </trkpt>
      <trkpt lat="40.465675" lon="-4.738904">
        <ele>1094.18</ele>
        <time>2021-03-27T14:35:11Z</time>
      </trkpt>
      <trkpt lat="40.465338" lon="-4.738021">
        <ele>1093.78</ele>
        <time>2021-03-27T14:35:19Z</time>
      </trkpt>
      <trkpt lat="40.463893" lon="-4.732248">
        <ele>1107.92</ele>
        <time>2021-03-27T14:35:27Z</time>
      </trkpt>
      <trkpt lat="40.463771" lon="-4.731499">
        <ele>1102.49</ele>
        <time>2021-03-27T14:35:34Z</time>
      </trkpt>
      <trkpt lat="40.463726" lon="-4.730746">
        <ele>1099.43</ele>
        <time>2021-03-27T14:35:42Z</time>
      </trkpt>
      <trkpt lat="40.463791" lon="-4.72963">
        <ele>1096.63</ele>
        <time>2021-03-27T14:35:50Z</time>
      </trkpt>
      <trkpt lat="40.463969" lon="-4.728386">
        <ele>1094.48</ele>
        <time>2021-03-27T14:35:57Z</time>
      </trkpt>
      <trkpt lat="40.465872" lon="-4.713793">
        <ele>1111.87</ele>
        <time>2021-03-27T14:36:05Z</time>
      </trkpt>
      <trkpt lat="40.466025" lon="-4.712946">
        <ele>1116.67</ele>
        <time>2021-03-27T14:36:13Z</time>
      </trkpt>
      <trkpt lat="40.466779" lon="-4.709979">
        <ele>1122.21</ele>
        <time>2021-03-27T14:36:20Z</time>
      </trkpt>
      <trkpt lat="40.469007" lon="-4.701647">
        <ele>1133.88</ele>
        <time>2021-03-27T14:36:28Z</time>
      </trkpt>
      <trkpt lat="40.469355" lon="-4.700463">
        <ele>1139.61</ele>
        <time>2021-03-27T14:36:35Z</time>
      </trkpt>
      <trkpt lat="40.469884" lon="-4.699346">
        <ele>1140.97</ele>
        <time>2021-03-27T14:36:43Z</time>
      </trkpt>
      <trkpt lat="40.470394" lon="-4.698313">
        <ele>1148.58</ele>
        <time>2021-03-27T14:36:51Z</time>
      </trkpt>
      <trkpt lat="40.471146" lon="-4.696052">
        <ele>1145.49</ele>
        <time>2021-03-27T14:36:58Z</time>
      </trkpt>
      <trkpt lat="40.471351" lon="-4.695529">
        <ele>1142.0</ele>
        <time>2021-03-27T14:37:06Z</time>
      </trkpt>
      <trkpt lat="40.47156" lon="-4.695075">
        <ele>1142.17</ele>
        <time>2021-03-27T14:37:14Z</time>
      </trkpt>
      <trkpt lat="40.471845" lon="-4.694572">
        <ele>1141.36</ele>
        <time>2021-03-27T14:37:21Z</time>
      </trkpt>
      <trkpt lat="40.47222" lon="-4.694102">
        <ele>1137.54</ele>
        <time>2021-03-27T14:37:29Z</time>
      </trkpt>
      <trkpt lat="40.473565" lon="-4.692518">
        <ele>1135.21</ele>
        <time>2021-03-27T14:37:36Z</time>
      </trkpt>
      <trkpt lat="40.475326" lon="-4.689681">
        <ele>1130.28</ele>
        <time>2021-03-27T14:37:44Z</time>
      </trkpt>
      <trkpt lat="40.475625" lon="-4.689071">
        <ele>1128.31</ele>
        <time>2021-03-27T14:37:52Z</time>
      </trkpt>
      <trkpt lat="40.47609" lon="-4.687744">
        <ele>1127.72</ele>
        <time>2021-03-27T14:37:59Z</time>
      </trkpt>
      <trkpt lat="40.476402" lon="-4.68717">
        <ele>1127.09</ele>
        <time>2021-03-27T14:38:07Z</time>
      </trkpt>
      <trkpt lat="40.477208" lon="-4.685316">
        <ele>1120.98</ele>
        <time>2021-03-27T14:38:15Z</time>
      </trkpt>
      <trkpt lat="40.477484" lon="-4.684111">
        <ele>1115.32</ele>
        <time>2021-03-27T14:38:22Z</time>
      </trkpt>
      <trkpt lat="40.478411" lon="-4.679589">
        <ele>1103.81</ele>
        <time>2021-03-27T14:38:30Z</time>
      </trkpt>
      <trkpt lat="40.47852" lon="-4.679339">
        <ele>1103.61</ele>
        <time>2021-03-27T14:38:38Z</time>
      </trkpt>
      <trkpt lat="40.478893" lon="-4.679048">
        <ele>1109.27</ele>
        <time>2021-03-27T14:38:45Z</time>
      </trkpt>
      <trkpt lat="40.478972" lon="-4.678906">
        <ele>1110.53</ele>
        <time>2021-03-27T14:38:53Z</time>
      </trkpt>
      <trkpt lat="40.479013" lon="-4.67779">
        <ele>1104.54</ele>
        <time>2021-03-27T14:39:00Z</time>
      </trkpt>
      <trkpt lat="40.479074" lon="-4.677525">
        <ele>1102.44</ele>
        <time>2021-03-27T14:39:08Z</time>
      </trkpt>
      <trkpt lat="40.47934" lon="-4.676991">
        <ele>1103.39</ele>
        <time>2021-03-27T14:39:16Z</time>
      </trkpt>
      <trkpt lat="40.480225" lon="-4.675083">
        <ele>1092.6</ele>
        <time>2021-03-27T14:39:23Z</time>
      </trkpt>
      <trkpt lat="40.481458" lon="-4.673367">
        <ele>1081.82</ele>
        <time>2021-03-27T14:39:31Z</time>
      </trkpt>
      <trkpt lat="40.481615" lon="-4.673178">
        <ele>1081.38</ele>
        <time>2021-03-27T14:39:39Z</time>
      </trkpt>
      <trkpt lat="40.482788" lon="-4.672027">
        <ele>1072.61</ele>
        <time>2021-03-27T14:39:46Z</time>
      </trkpt>
      <trkpt lat="40.483499" lon="-4.670886">
        <ele>1068.0</ele>
        <time>2021-03-27T14:39:54Z</time>
      </trkpt>
      <trkpt lat="40.48385" lon="-4.670219">
        <ele>1069.82</ele>
        <time>2021-03-27T14:40:01Z</time>
      </trkpt>
      <trkpt lat="40.483958" lon="-4.669742">
        <ele>1063.32</ele>
        <time>2021-03-27T14:40:09Z</time>
      </trkpt>
      <trkpt lat="40.483956" lon="-4.669334">
        <ele>1059.15</ele>
        <time>2021-03-27T14:40:17Z</time>
      </trkpt>
      <trkpt lat="40.483891" lon="-4.668937">
        <ele>1059.84</ele>
        <time>2021-03-27T14:40:24Z</time>
      </trkpt>
      <trkpt lat="40.483735" lon="-4.668512">
        <ele>1065.37</ele>
        <time>2021-03-27T14:40:32Z</time>
      </trkpt>
      <trkpt lat="40.483586" lon="-4.668272">
        <ele>1065.94</ele>
        <time>2021-03-27T14:40:40Z</time>
      </trkpt>
      <trkpt lat="40.483399" lon="-4.668038">
        <ele>1065.07</ele>
        <time>2021-03-27T14:40:47Z</time>
      </trkpt>
      <trkpt lat="40.482748" lon="-4.667465">
        <ele>1065.7</ele>
        <time>2021-03-27T14:40:55Z</time>
      </trkpt>
      <trkpt lat="40.482391" lon="-4.666958">
        <ele>1063.4</ele>
        <time>2021-03-27T14:41:02Z</time>
      </trkpt>
      <trkpt lat="40.481464" lon="-4.665367">
        <ele>1057.22</ele>
        <time>2021-03-27T14:41:10Z</time>
      </trkpt>
      <trkpt lat="40.48123" lon="-4.664882">
        <ele>1061.07</ele>
        <time>2021-03-27T14:41:18Z</time>
      </trkpt>
      <trkpt lat="40.480887" lon="-4.663677">
        <ele>1054.3</ele>
        <time>2021-03-27T14:41:25Z</time>
      </trkpt>
      <trkpt lat="40.480647" lon="-4.662705">
        <ele>1057.15</ele>
        <time>2021-03-27T14:41:33Z</time>
      </trkpt>
      <trkpt lat="40.480583" lon="-4.662249">
        <ele>1057.39</ele>
        <time>2021-03-27T14:41:41Z</time>
      </trkpt>
      <trkpt lat="40.480576" lon="-4.661406">
        <ele>1060.65</ele>
        <time>2021-03-27T14:41:48Z</time>
      </trkpt>
      <trkpt lat="40.480543" lon="-4.660755">
        <ele>1051.92</ele>
        <time>2021-03-27T14:41:56Z</time>
      </trkpt>
      <trkpt lat="40.479192" lon="-4.652873">
        <ele>1041.31</ele>
        <time>2021-03-27T14:42:04Z</time>
      </trkpt>
      <trkpt lat="40.479162" lon="-4.652756">
        <ele>1041.04</ele>
        <time>2021-03-27T14:42:11Z</time>
      </trkpt>
      <trkpt lat="40.479158" lon="-4.652656">
        <ele>1041.37</ele>
        <time>2021-03-27T14:42:19Z</time>
      </trkpt>
      <trkpt lat="40.479076" lon="-4.652266">
        <ele>1040.75</ele>
        <time>2021-03-27T14:42:22Z</time>
      </trkpt>
      <trkpt lat="40.479042" lon="-4.652187">
        <ele>1040.15</ele>
        <time>2021-03-27T14:42:25Z</time>
      </trkpt>
      <trkpt lat="40.478958" lon="-4.651735">
        <ele>1036.74</ele>
        <time>2021-03-27T14:42:27Z</time>
      </trkpt>
      <trkpt lat="40.478857" lon="-4.650812">
        <ele>1035.84</ele>
        <time>2021-03-27T14:42:30Z</time>
      </trkpt>
      <trkpt lat="40.478671" lon="-4.649597">
        <ele>1036.84</ele>
        <time>2021-03-27T14:42:33Z</time>
      </trkpt>
      <trkpt lat="40.478544" lon="-4.648648">
        <ele>1035.28</ele>
        <time>2021-03-27T14:42:36Z</time>
      </trkpt>
      <trkpt lat="40.478222" lon="-4.645754">
        <ele>1033.29</ele>
        <time>2021-03-27T14:42:39Z</time>
      </trkpt>
      <trkpt lat="40.478135" lon="-4.645474">
        <ele>1031.62</ele>
        <time>2021-03-27T14:42:42Z</time>
      </trkpt>
      <trkpt lat="40.47782" lon="-4.644856">
        <ele>1026.87</ele>
        <time>2021-03-27T14:42:44Z</time>
      </trkpt>
      <trkpt lat="40.477514" lon="-4.644333">
        <ele>1025.43</ele>
        <time>2021-03-27T14:42:47Z</time>
      </trkpt>
      <trkpt lat="40.477045" lon="-4.643421">
        <ele>1022.36</ele>
        <time>2021-03-27T14:42:50Z</time>
      </trkpt>
      <trkpt lat="40.476992" lon="-4.643229">
        <ele>1022.17</ele>
        <time>2021-03-27T14:42:53Z</time>
      </trkpt>
      <trkpt lat="40.476879" lon="-4.642587">
        <ele>1018.86</ele>
        <time>2021-03-27T14:42:56Z</time>
      </trkpt>
      <trkpt lat="40.476749" lon="-4.642029">
        <ele>1016.9</ele>
        <time>2021-03-27T14:42:59Z</time>
      </trkpt>
      <trkpt lat="40.476359" lon="-4.641074">
        <ele>1018.44</ele>
        <time>2021-03-27T14:43:02Z</time>
      </trkpt>
      <trkpt lat="40.476111" lon="-4.640526">
        <ele>1010.68</ele>
        <time>2021-03-27T14:43:04Z</time>
      </trkpt>
      <trkpt lat="40.474837" lon="-4.638427">
        <ele>1001.0</ele>
        <time>2021-03-27T14:43:07Z</time>
      </trkpt>
      <trkpt lat="40.474172" lon="-4.637288">
        <ele>998.26</ele>
        <time>2021-03-27T14:43:10Z</time>
      </trkpt>
      <trkpt lat="40.473799" lon="-4.636681">
        <ele>995.37</ele>
        <time>2021-03-27T14:43:13Z</time>
      </trkpt>
      <trkpt lat="40.473689" lon="-4.636569">
        <ele>994.11</ele>
        <time>2021-03-27T14:43:16Z</time>
      </trkpt>
      <trkpt lat="40.473559" lon="-4.636485">
        <ele>992.97</ele>
        <time>2021-03-27T14:43:19Z</time>
      </trkpt>
      <trkpt lat="40.473393" lon="-4.636407">
        <ele>991.49</ele>
        <time>2021-03-27T14:43:21Z</time>
      </trkpt>
      <trkpt lat="40.472956" lon="-4.636264">
        <ele>988.55</ele>
        <time>2021-03-27T14:43:24Z</time>
      </trkpt>
      <trkpt lat="40.472816" lon="-4.636186">
        <ele>988.27</ele>
        <time>2021-03-27T14:43:27Z</time>
      </trkpt>
      <trkpt lat="40.47271" lon="-4.63607">
        <ele>988.32</ele>
        <time>2021-03-27T14:43:30Z</time>
      </trkpt>
      <trkpt lat="40.472634" lon="-4.635933">
        <ele>988.49</ele>
        <time>2021-03-27T14:43:33Z</time>
      </trkpt>
      <trkpt lat="40.472566" lon="-4.635716">
        <ele>988.14</ele>
        <time>2021-03-27T14:43:36Z</time>
      </trkpt>
      <trkpt lat="40.4726" lon="-4.635239">
        <ele>986.09</ele>
        <time>2021-03-27T14:43:39Z</time>
      </trkpt>
      <trkpt lat="40.472645" lon="-4.63481">
        <ele>983.4</ele>
        <time>2021-03-27T14:43:41Z</time>
      </trkpt>
      <trkpt lat="40.472636" lon="-4.634307">
        <ele>981.06</ele>
        <time>2021-03-27T14:43:44Z</time>
      </trkpt>
      <trkpt lat="40.472377" lon="-4.632061">
        <ele>967.98</ele>
        <time>2021-03-27T14:43:47Z</time>
      </trkpt>
      <trkpt lat="40.472325" lon="-4.631826">
        <ele>966.78</ele>
        <time>2021-03-27T14:43:50Z</time>
      </trkpt>
      <trkpt lat="40.472208" lon="-4.631487">
        <ele>963.42</ele>
        <time>2021-03-27T14:43:53Z</time>
      </trkpt>
      <trkpt lat="40.471981" lon="-4.631087">
        <ele>958.87</ele>
        <time>2021-03-27T14:43:56Z</time>
      </trkpt>
      <trkpt lat="40.471824" lon="-4.630894">
        <ele>956.56</ele>
        <time>2021-03-27T14:43:59Z</time>
      </trkpt>
      <trkpt lat="40.471686" lon="-4.630762">
        <ele>955.48</ele>
        <time>2021-03-27T14:44:01Z</time>
      </trkpt>
      <trkpt lat="40.471418" lon="-4.630582">
        <ele>952.4</ele>
        <time>2021-03-27T14:44:04Z</time>
      </trkpt>
      <trkpt lat="40.471244" lon="-4.630498">
        <ele>950.34</ele>
        <time>2021-03-27T14:44:07Z</time>
      </trkpt>
      <trkpt lat="40.471061" lon="-4.630442">
        <ele>948.64</ele>
        <time>2021-03-27T14:44:10Z</time>
      </trkpt>
      <trkpt lat="40.47084" lon="-4.63042">
        <ele>947.05</ele>
        <time>2021-03-27T14:44:13Z</time>
      </trkpt>
      <trkpt lat="40.470182" lon="-4.630414">
        <ele>943.65</ele>
        <time>2021-03-27T14:44:16Z</time>
      </trkpt>
      <trkpt lat="40.470012" lon="-4.630379">
        <ele>942.78</ele>
        <time>2021-03-27T14:44:18Z</time>
      </trkpt>
      <trkpt lat="40.469843" lon="-4.630306">
        <ele>941.14</ele>
        <time>2021-03-27T14:44:21Z</time>
      </trkpt>
      <trkpt lat="40.469639" lon="-4.630165">
        <ele>939.0</ele>
        <time>2021-03-27T14:44:24Z</time>
      </trkpt>
      <trkpt lat="40.469512" lon="-4.630026">
        <ele>937.58</ele>
        <time>2021-03-27T14:44:27Z</time>
      </trkpt>
      <trkpt lat="40.469389" lon="-4.629844">
        <ele>936.04</ele>
        <time>2021-03-27T14:44:30Z</time>
      </trkpt>
      <trkpt lat="40.469289" lon="-4.629625">
        <ele>934.38</ele>
        <time>2021-03-27T14:44:33Z</time>
      </trkpt>
      <trkpt lat="40.469224" lon="-4.629428">
        <ele>933.21</ele>
        <time>2021-03-27T14:44:36Z</time>
      </trkpt>
      <trkpt lat="40.469178" lon="-4.629095">
        <ele>933.03</ele>
        <time>2021-03-27T14:44:38Z</time>
      </trkpt>
      <trkpt lat="40.469183" lon="-4.628831">
        <ele>932.6</ele>
        <time>2021-03-27T14:44:41Z</time>
      </trkpt>
      <trkpt lat="40.46921" lon="-4.628586">
        <ele>930.82</ele>
        <time>2021-03-27T14:44:44Z</time>
      </trkpt>
      <trkpt lat="40.46937" lon="-4.62767">
        <ele>920.79</ele>
        <time>2021-03-27T14:44:47Z</time>
      </trkpt>
      <trkpt lat="40.469404" lon="-4.627345">
        <ele>919.93</ele>
        <time>2021-03-27T14:44:50Z</time>
      </trkpt>
      <trkpt lat="40.469406" lon="-4.627103">
        <ele>920.06</ele>
        <time>2021-03-27T14:44:53Z</time>
      </trkpt>
      <trkpt lat="40.469389" lon="-4.626891">
        <ele>920.43</ele>
        <time>2021-03-27T14:44:55Z</time>
      </trkpt>
      <trkpt lat="40.46935" lon="-4.626717">
        <ele>921.43</ele>
        <time>2021-03-27T14:44:58Z</time>
      </trkpt>
      <trkpt lat="40.469206" lon="-4.62636">
        <ele>921.82</ele>
        <time>2021-03-27T14:45:01Z</time>
      </trkpt>
      <trkpt lat="40.469113" lon="-4.626221">
        <ele>920.13</ele>
        <time>2021-03-27T14:45:04Z</time>
      </trkpt>
      <trkpt lat="40.468965" lon="-4.626056">
        <ele>917.91</ele>
        <time>2021-03-27T14:45:07Z</time>
      </trkpt>
      <trkpt lat="40.468847" lon="-4.625961">
        <ele>917.32</ele>
        <time>2021-03-27T14:45:10Z</time>
      </trkpt>
      <trkpt lat="40.468667" lon="-4.625865">
        <ele>917.0</ele>
        <time>2021-03-27T14:45:13Z</time>
      </trkpt>
      <trkpt lat="40.468473" lon="-4.625806">
        <ele>916.3</ele>
        <time>2021-03-27T14:45:15Z</time>
      </trkpt>
      <trkpt lat="40.468187" lon="-4.625766">
        <ele>916.49</ele>
        <time>2021-03-27T14:45:18Z</time>
      </trkpt>
      <trkpt lat="40.466987" lon="-4.625667">
        <ele>918.14</ele>
        <time>2021-03-27T14:45:21Z</time>
      </trkpt>
      <trkpt lat="40.466631" lon="-4.625584">
        <ele>917.74</ele>
        <time>2021-03-27T14:45:24Z</time>
      </trkpt>
      <trkpt lat="40.466397" lon="-4.625505">
        <ele>916.6</ele>
        <time>2021-03-27T14:45:27Z</time>
      </trkpt>
      <trkpt lat="40.466023" lon="-4.625307">
        <ele>916.97</ele>
        <time>2021-03-27T14:45:30Z</time>
      </trkpt>
      <trkpt lat="40.465737" lon="-4.625086">
        <ele>917.03</ele>
        <time>2021-03-27T14:45:32Z</time>
      </trkpt>
      <trkpt lat="40.465568" lon="-4.624927">
        <ele>917.31</ele>
        <time>2021-03-27T14:45:35Z</time>
      </trkpt>
      <trkpt lat="40.465247" lon="-4.624545">
        <ele>917.46</ele>
        <time>2021-03-27T14:45:38Z</time>
      </trkpt>
      <trkpt lat="40.465076" lon="-4.624283">
        <ele>916.97</ele>
        <time>2021-03-27T14:45:41Z</time>
      </trkpt>
      <trkpt lat="40.464854" lon="-4.623837">
        <ele>916.66</ele>
        <time>2021-03-27T14:45:44Z</time>
      </trkpt>
      <trkpt lat="40.464431" lon="-4.622753">
        <ele>909.21</ele>
        <time>2021-03-27T14:45:47Z</time>
      </trkpt>
      <trkpt lat="40.464178" lon="-4.622233">
        <ele>910.08</ele>
        <time>2021-03-27T14:45:50Z</time>
      </trkpt>
      <trkpt lat="40.463491" lon="-4.621006">
        <ele>911.24</ele>
        <time>2021-03-27T14:45:52Z</time>
      </trkpt>
      <trkpt lat="40.463217" lon="-4.620421">
        <ele>906.03</ele>
        <time>2021-03-27T14:45:55Z</time>
      </trkpt>
      <trkpt lat="40.463003" lon="-4.619748">
        <ele>900.59</ele>
        <time>2021-03-27T14:45:58Z</time>
      </trkpt>
      <trkpt lat="40.462911" lon="-4.619335">
        <ele>900.11</ele>
        <time>2021-03-27T14:46:01Z</time>
      </trkpt>
      <trkpt lat="40.462602" lon="-4.617246">
        <ele>888.81</ele>
        <time>2021-03-27T14:46:04Z</time>
      </trkpt>
      <trkpt lat="40.462551" lon="-4.617012">
        <ele>887.78</ele>
        <time>2021-03-27T14:46:07Z</time>
      </trkpt>
      <trkpt lat="40.462472" lon="-4.616802">
        <ele>886.7</ele>
        <time>2021-03-27T14:46:10Z</time>
      </trkpt>
      <trkpt lat="40.462378" lon="-4.616619">
        <ele>885.78</ele>
        <time>2021-03-27T14:46:12Z</time>
      </trkpt>
      <trkpt lat="40.46226" lon="-4.616458">
        <ele>884.51</ele>
        <time>2021-03-27T14:46:15Z</time>
      </trkpt>
      <trkpt lat="40.462013" lon="-4.616251">
        <ele>883.1</ele>
        <time>2021-03-27T14:46:18Z</time>
      </trkpt>
      <trkpt lat="40.461813" lon="-4.616151">
        <ele>882.69</ele>
        <time>2021-03-27T14:46:21Z</time>
      </trkpt>
      <trkpt lat="40.460345" lon="-4.615712">
        <ele>870.96</ele>
        <time>2021-03-27T14:46:24Z</time>
      </trkpt>
      <trkpt lat="40.460103" lon="-4.615681">
        <ele>869.72</ele>
        <time>2021-03-27T14:46:27Z</time>
      </trkpt>
      <trkpt lat="40.459847" lon="-4.615692">
        <ele>870.33</ele>
        <time>2021-03-27T14:46:29Z</time>
      </trkpt>
      <trkpt lat="40.459581" lon="-4.61575">
        <ele>871.62</ele>
        <time>2021-03-27T14:46:32Z</time>
      </trkpt>
      <trkpt lat="40.458924" lon="-4.615951">
        <ele>873.35</ele>
        <time>2021-03-27T14:46:35Z</time>
      </trkpt>
      <trkpt lat="40.4587" lon="-4.615946">
        <ele>872.01</ele>
        <time>2021-03-27T14:46:38Z</time>
      </trkpt>
      <trkpt lat="40.458534" lon="-4.6159">
        <ele>871.76</ele>
        <time>2021-03-27T14:46:41Z</time>
      </trkpt>
      <trkpt lat="40.458371" lon="-4.615828">
        <ele>872.18</ele>
        <time>2021-03-27T14:46:44Z</time>
      </trkpt>
      <trkpt lat="40.458221" lon="-4.615722">
        <ele>873.2</ele>
        <time>2021-03-27T14:46:47Z</time>
      </trkpt>
      <trkpt lat="40.45807" lon="-4.615554">
        <ele>875.01</ele>
        <time>2021-03-27T14:46:49Z</time>
      </trkpt>
      <trkpt lat="40.45796" lon="-4.615393">
        <ele>875.62</ele>
        <time>2021-03-27T14:46:52Z</time>
      </trkpt>
      <trkpt lat="40.457862" lon="-4.615191">
        <ele>875.48</ele>
        <time>2021-03-27T14:46:55Z</time>
      </trkpt>
      <trkpt lat="40.457776" lon="-4.6149">
        <ele>874.35</ele>
        <time>2021-03-27T14:46:58Z</time>
      </trkpt>
      <trkpt lat="40.457698" lon="-4.614561">
        <ele>875.01</ele>
        <time>2021-03-27T14:47:01Z</time>
      </trkpt>
      <trkpt lat="40.457501" lon="-4.613601">
        <ele>876.02</ele>
        <time>2021-03-27T14:47:04Z</time>
      </trkpt>
      <trkpt lat="40.45743" lon="-4.613363">
        <ele>875.52</ele>
        <time>2021-03-27T14:47:06Z</time>
      </trkpt>
      <trkpt lat="40.457349" lon="-4.613165">
        <ele>874.31</ele>
        <time>2021-03-27T14:47:09Z</time>
      </trkpt>
      <trkpt lat="40.457204" lon="-4.612904">
        <ele>872.93</ele>
        <time>2021-03-27T14:47:12Z</time>
      </trkpt>
      <trkpt lat="40.457053" lon="-4.612706">
        <ele>872.65</ele>
        <time>2021-03-27T14:47:15Z</time>
      </trkpt>
      <trkpt lat="40.456586" lon="-4.612169">
        <ele>872.0</ele>
        <time>2021-03-27T14:47:18Z</time>
      </trkpt>
      <trkpt lat="40.456446" lon="-4.611967">
        <ele>872.0</ele>
        <time>2021-03-27T14:47:21Z</time>
      </trkpt>
      <trkpt lat="40.45632" lon="-4.611736">
        <ele>870.76</ele>
        <time>2021-03-27T14:47:24Z</time>
      </trkpt>
      <trkpt lat="40.45623" lon="-4.611512">
        <ele>868.98</ele>
        <time>2021-03-27T14:47:26Z</time>
      </trkpt>
      <trkpt lat="40.456162" lon="-4.611255">
        <ele>866.98</ele>
        <time>2021-03-27T14:47:29Z</time>
      </trkpt>
      <trkpt lat="40.456128" lon="-4.610993">
        <ele>864.87</ele>
        <time>2021-03-27T14:47:32Z</time>
      </trkpt>
      <trkpt lat="40.456119" lon="-4.610654">
        <ele>861.78</ele>
        <time>2021-03-27T14:47:35Z</time>
      </trkpt>
      <trkpt lat="40.456149" lon="-4.610311">
        <ele>861.15</ele>
        <time>2021-03-27T14:47:38Z</time>
      </trkpt>
      <trkpt lat="40.456311" lon="-4.60905">
        <ele>857.04</ele>
        <time>2021-03-27T14:47:41Z</time>
      </trkpt>
      <trkpt lat="40.456338" lon="-4.608714">
        <ele>852.9</ele>
        <time>2021-03-27T14:47:44Z</time>
      </trkpt>
      <trkpt lat="40.45634" lon="-4.608371">
        <ele>850.31</ele>
        <time>2021-03-27T14:47:46Z</time>
      </trkpt>
      <trkpt lat="40.456323" lon="-4.608064">
        <ele>851.67</ele>
        <time>2021-03-27T14:47:49Z</time>
      </trkpt>
      <trkpt lat="40.456283" lon="-4.607745">
        <ele>853.05</ele>
        <time>2021-03-27T14:47:52Z</time>
      </trkpt>
      <trkpt lat="40.4562" lon="-4.607361">
        <ele>851.5</ele>
        <time>2021-03-27T14:47:55Z</time>
      </trkpt>
      <trkpt lat="40.455996" lon="-4.606652">
        <ele>845.78</ele>
        <time>2021-03-27T14:47:58Z</time>
      </trkpt>
      <trkpt lat="40.453178" lon="-4.597643">
        <ele>820.33</ele>
        <time>2021-03-27T14:48:01Z</time>
      </trkpt>
      <trkpt lat="40.453008" lon="-4.597223">
        <ele>819.83</ele>
        <time>2021-03-27T14:48:03Z</time>
      </trkpt>
      <trkpt lat="40.452725" lon="-4.596352">
        <ele>816.97</ele>
        <time>2021-03-27T14:48:06Z</time>
      </trkpt>
      <trkpt lat="40.45259" lon="-4.595775">
        <ele>815.54</ele>
        <time>2021-03-27T14:48:09Z</time>
      </trkpt>
      <trkpt lat="40.452525" lon="-4.595187">
        <ele>817.74</ele>
        <time>2021-03-27T14:48:12Z</time>
      </trkpt>
      <trkpt lat="40.452489" lon="-4.594378">
        <ele>817.29</ele>
        <time>2021-03-27T14:48:15Z</time>
      </trkpt>
      <trkpt lat="40.452481" lon="-4.593605">
        <ele>813.07</ele>
        <time>2021-03-27T14:48:18Z</time>
      </trkpt>
      <trkpt lat="40.452364" lon="-4.59176">
        <ele>811.17</ele>
        <time>2021-03-27T14:48:21Z</time>
      </trkpt>
      <trkpt lat="40.452136" lon="-4.589943">
        <ele>802.29</ele>
        <time>2021-03-27T14:48:23Z</time>
      </trkpt>
      <trkpt lat="40.45179" lon="-4.587426">
        <ele>794.18</ele>
        <time>2021-03-27T14:48:26Z</time>
      </trkpt>
      <trkpt lat="40.451639" lon="-4.58613">
        <ele>792.01</ele>
        <time>2021-03-27T14:48:29Z</time>
      </trkpt>
      <trkpt lat="40.451364" lon="-4.584034">
        <ele>794.14</ele>
        <time>2021-03-27T14:48:32Z</time>
      </trkpt>
      <trkpt lat="40.451244" lon="-4.583483">
        <ele>792.82</ele>
        <time>2021-03-27T14:48:35Z</time>
      </trkpt>
      <trkpt lat="40.451127" lon="-4.583101">
        <ele>791.16</ele>
        <time>2021-03-27T14:48:38Z</time>
      </trkpt>
      <trkpt lat="40.451034" lon="-4.582861">
        <ele>790.81</ele>
        <time>2021-03-27T14:48:40Z</time>
      </trkpt>
      <trkpt lat="40.450854" lon="-4.5825">
        <ele>791.0</ele>
        <time>2021-03-27T14:48:43Z</time>
      </trkpt>
      <trkpt lat="40.45024" lon="-4.581518">
        <ele>785.6</ele>
        <time>2021-03-27T14:48:46Z</time>
      </trkpt>
      <trkpt lat="40.450093" lon="-4.581196">
        <ele>784.51</ele>
        <time>2021-03-27T14:48:49Z</time>
      </trkpt>
      <trkpt lat="40.449998" lon="-4.580947">
        <ele>784.01</ele>
        <time>2021-03-27T14:48:52Z</time>
      </trkpt>
      <trkpt lat="40.449705" lon="-4.579771">
        <ele>779.66</ele>
        <time>2021-03-27T14:48:55Z</time>
      </trkpt>
      <trkpt lat="40.449626" lon="-4.579523">
        <ele>776.35</ele>
        <time>2021-03-27T14:48:58Z</time>
      </trkpt>
      <trkpt lat="40.44944" lon="-4.579189">
        <ele>774.26</ele>
        <time>2021-03-27T14:49:00Z</time>
      </trkpt>
      <trkpt lat="40.449335" lon="-4.579061">
        <ele>773.56</ele>
        <time>2021-03-27T14:49:03Z</time>
      </trkpt>
      <trkpt lat="40.448851" lon="-4.578595">
        <ele>767.03</ele>
        <time>2021-03-27T14:49:06Z</time>
      </trkpt>
      <trkpt lat="40.448733" lon="-4.57845">
        <ele>766.73</ele>
        <time>2021-03-27T14:49:09Z</time>
      </trkpt>
      <trkpt lat="40.448567" lon="-4.578147">
        <ele>765.41</ele>
        <time>2021-03-27T14:49:12Z</time>
      </trkpt>
      <trkpt lat="40.448495" lon="-4.577953">
        <ele>764.58</ele>
        <time>2021-03-27T14:49:15Z</time>
      </trkpt>
      <trkpt lat="40.448125" lon="-4.576441">
        <ele>757.08</ele>
        <time>2021-03-27T14:49:17Z</time>
      </trkpt>
      <trkpt lat="40.448022" lon="-4.576137">
        <ele>753.95</ele>
        <time>2021-03-27T14:49:20Z</time>
      </trkpt>
      <trkpt lat="40.447813" lon="-4.575718">
        <ele>752.62</ele>
        <time>2021-03-27T14:49:23Z</time>
      </trkpt>
      <trkpt lat="40.447432" lon="-4.575187">
        <ele>752.16</ele>
        <time>2021-03-27T14:49:26Z</time>
      </trkpt>
      <trkpt lat="40.447186" lon="-4.57472">
        <ele>751.12</ele>
        <time>2021-03-27T14:49:29Z</time>
      </trkpt>
      <trkpt lat="40.445271" lon="-4.569666">
        <ele>731.05</ele>
        <time>2021-03-27T14:49:32Z</time>
      </trkpt>
      <trkpt lat="40.444582" lon="-4.567799">
        <ele>733.53</ele>
        <time>2021-03-27T14:49:35Z</time>
      </trkpt>
      <trkpt lat="40.444528" lon="-4.567563">
        <ele>734.49</ele>
        <time>2021-03-27T14:49:37Z</time>
      </trkpt>
      <trkpt lat="40.444498" lon="-4.567336">
        <ele>733.84</ele>
        <time>2021-03-27T14:49:40Z</time>
      </trkpt>
      <trkpt lat="40.444458" lon="-4.566636">
        <ele>731.61</ele>
        <time>2021-03-27T14:49:43Z</time>
      </trkpt>
      <trkpt lat="40.444398" lon="-4.566285">
        <ele>730.71</ele>
        <time>2021-03-27T14:49:46Z</time>
      </trkpt>
      <trkpt lat="40.44427" lon="-4.565881">
        <ele>726.78</ele>
        <time>2021-03-27T14:49:49Z</time>
      </trkpt>
      <trkpt lat="40.443833" lon="-4.564799">
        <ele>721.29</ele>
        <time>2021-03-27T14:49:52Z</time>
      </trkpt>
      <trkpt lat="40.442839" lon="-4.562654">
        <ele>727.46</ele>
        <time>2021-03-27T14:49:55Z</time>
      </trkpt>
      <trkpt lat="40.442654" lon="-4.562322">
        <ele>733.84</ele>
        <time>2021-03-27T14:49:57Z</time>
      </trkpt>
      <trkpt lat="40.442448" lon="-4.562028">
        <ele>739.3</ele>
        <time>2021-03-27T14:50:00Z</time>
      </trkpt>
      <trkpt lat="40.442151" lon="-4.561699">
        <ele>740.35</ele>
        <time>2021-03-27T14:50:03Z</time>
      </trkpt>
      <trkpt lat="40.441739" lon="-4.561426">
        <ele>740.21</ele>
        <time>2021-03-27T14:50:06Z</time>
      </trkpt>
      <trkpt lat="40.44075" lon="-4.560818">
        <ele>747.6</ele>
        <time>2021-03-27T14:50:09Z</time>
      </trkpt>
      <trkpt lat="40.440213" lon="-4.560465">
        <ele>751.41</ele>
        <time>2021-03-27T14:50:12Z</time>
      </trkpt>
      <trkpt lat="40.440067" lon="-4.560332">
        <ele>751.11</ele>
        <time>2021-03-27T14:50:14Z</time>
      </trkpt>
      <trkpt lat="40.439951" lon="-4.560207">
        <ele>751.98</ele>
        <time>2021-03-27T14:50:17Z</time>
      </trkpt>
      <trkpt lat="40.439858" lon="-4.560056">
        <ele>754.32</ele>
        <time>2021-03-27T14:50:20Z</time>
      </trkpt>
      <trkpt lat="40.439675" lon="-4.559567">
        <ele>758.66</ele>
        <time>2021-03-27T14:50:23Z</time>
      </trkpt>
      <trkpt lat="40.439612" lon="-4.559448">
        <ele>758.59</ele>
        <time>2021-03-27T14:50:26Z</time>
      </trkpt>
      <trkpt lat="40.439538" lon="-4.559356">
        <ele>757.97</ele>
        <time>2021-03-27T14:50:29Z</time>
      </trkpt>
      <trkpt lat="40.439449" lon="-4.559293">
        <ele>756.73</ele>
        <time>2021-03-27T14:50:32Z</time>
      </trkpt>
      <trkpt lat="40.439348" lon="-4.559256">
        <ele>756.92</ele>
        <time>2021-03-27T14:50:34Z</time>
      </trkpt>
      <trkpt lat="40.43922" lon="-4.559259">
        <ele>756.73</ele>
        <time>2021-03-27T14:50:37Z</time>
      </trkpt>
      <trkpt lat="40.439129" lon="-4.559282">
        <ele>756.66</ele>
        <time>2021-03-27T14:50:40Z</time>
      </trkpt>
      <trkpt lat="40.439029" lon="-4.559342">
        <ele>756.77</ele>
        <time>2021-03-27T14:50:43Z</time>
      </trkpt>
      <trkpt lat="40.438919" lon="-4.559449">
        <ele>756.6</ele>
        <time>2021-03-27T14:50:46Z</time>
      </trkpt>
      <trkpt lat="40.43883" lon="-4.559591">
        <ele>755.43</ele>
        <time>2021-03-27T14:50:49Z</time>
      </trkpt>
      <trkpt lat="40.438749" lon="-4.559757">
        <ele>753.99</ele>
        <time>2021-03-27T14:50:51Z</time>
      </trkpt>
      <trkpt lat="40.43848" lon="-4.560448">
        <ele>750.32</ele>
        <time>2021-03-27T14:50:54Z</time>
      </trkpt>
      <trkpt lat="40.438385" lon="-4.560647">
        <ele>750.14</ele>
        <time>2021-03-27T14:50:57Z</time>
      </trkpt>
      <trkpt lat="40.438177" lon="-4.560928">
        <ele>750.41</ele>
        <time>2021-03-27T14:51:00Z</time>
      </trkpt>
      <trkpt lat="40.438045" lon="-4.561017">
        <ele>750.75</ele>
        <time>2021-03-27T14:51:03Z</time>
      </trkpt>
      <trkpt lat="40.437766" lon="-4.561162">
        <ele>751.51</ele>
        <time>2021-03-27T14:51:06Z</time>
      </trkpt>
      <trkpt lat="40.437587" lon="-4.561229">
        <ele>751.99</ele>
        <time>2021-03-27T14:51:09Z</time>
      </trkpt>
      <trkpt lat="40.437495" lon="-4.561239">
        <ele>752.56</ele>
        <time>2021-03-27T14:51:11Z</time>
      </trkpt>
      <trkpt lat="40.437359" lon="-4.56122">
        <ele>753.42</ele>
        <time>2021-03-27T14:51:14Z</time>
      </trkpt>
      <trkpt lat="40.437257" lon="-4.561176">
        <ele>754.31</ele>
        <time>2021-03-27T14:51:17Z</time>
      </trkpt>
      <trkpt lat="40.43715" lon="-4.561095">
        <ele>753.5</ele>
        <time>2021-03-27T14:51:20Z</time>
      </trkpt>
      <trkpt lat="40.437038" lon="-4.560947">
        <ele>751.61</ele>
        <time>2021-03-27T14:51:23Z</time>
      </trkpt>
      <trkpt lat="40.436978" lon="-4.560813">
        <ele>750.76</ele>
        <time>2021-03-27T14:51:26Z</time>
      </trkpt>
      <trkpt lat="40.436945" lon="-4.560632">
        <ele>750.02</ele>
        <time>2021-03-27T14:51:28Z</time>
      </trkpt>
      <trkpt lat="40.436952" lon="-4.560421">
        <ele>751.69</ele>
        <time>2021-03-27T14:51:31Z</time>
      </trkpt>
      <trkpt lat="40.437036" lon="-4.55958">
        <ele>756.47</ele>
        <time>2021-03-27T14:51:34Z</time>
      </trkpt>
      <trkpt lat="40.437018" lon="-4.558184">
        <ele>762.33</ele>
        <time>2021-03-27T14:51:37Z</time>
      </trkpt>
      <trkpt lat="40.437033" lon="-4.557868">
        <ele>763.95</ele>
        <time>2021-03-27T14:51:40Z</time>
      </trkpt>
      <trkpt lat="40.437162" lon="-4.557059">
        <ele>775.09</ele>
        <time>2021-03-27T14:51:43Z</time>
      </trkpt>
      <trkpt lat="40.437174" lon="-4.556874">
        <ele>777.15</ele>
        <time>2021-03-27T14:51:46Z</time>
      </trkpt>
      <trkpt lat="40.437146" lon="-4.55668">
        <ele>776.83</ele>
        <time>2021-03-27T14:51:48Z</time>
      </trkpt>
      <trkpt lat="40.437037" lon="-4.556369">
        <ele>774.58</ele>
        <time>2021-03-27T14:51:51Z</time>
      </trkpt>
      <trkpt lat="40.436962" lon="-4.556267">
        <ele>773.34</ele>
        <time>2021-03-27T14:51:54Z</time>
      </trkpt>
      <trkpt lat="40.436596" lon="-4.555895">
        <ele>773.65</ele>
        <time>2021-03-27T14:51:57Z</time>
      </trkpt>
      <trkpt lat="40.436427" lon="-4.555687">
        <ele>771.95</ele>
        <time>2021-03-27T14:52:00Z</time>
      </trkpt>
      <trkpt lat="40.43626" lon="-4.555353">
        <ele>771.66</ele>
        <time>2021-03-27T14:52:03Z</time>
      </trkpt>
      <trkpt lat="40.436185" lon="-4.55517">
        <ele>772.69</ele>
        <time>2021-03-27T14:52:06Z</time>
      </trkpt>
      <trkpt lat="40.435906" lon="-4.554132">
        <ele>768.6</ele>
        <time>2021-03-27T14:52:08Z</time>
      </trkpt>
      <trkpt lat="40.435876" lon="-4.553864">
        <ele>766.99</ele>
        <time>2021-03-27T14:52:11Z</time>
      </trkpt>
      <trkpt lat="40.435891" lon="-4.553566">
        <ele>765.45</ele>
        <time>2021-03-27T14:52:14Z</time>
      </trkpt>
      <trkpt lat="40.436042" lon="-4.552886">
        <ele>767.76</ele>
        <time>2021-03-27T14:52:17Z</time>
      </trkpt>
      <trkpt lat="40.436041" lon="-4.552657">
        <ele>767.42</ele>
        <time>2021-03-27T14:52:20Z</time>
      </trkpt>
      <trkpt lat="40.436003" lon="-4.552525">
        <ele>766.49</ele>
        <time>2021-03-27T14:52:23Z</time>
      </trkpt>
      <trkpt lat="40.435944" lon="-4.552403">
        <ele>765.32</ele>
        <time>2021-03-27T14:52:25Z</time>
      </trkpt>
      <trkpt lat="40.435869" lon="-4.552294">
        <ele>764.33</ele>
        <time>2021-03-27T14:52:28Z</time>
      </trkpt>
      <trkpt lat="40.435778" lon="-4.552216">
        <ele>763.23</ele>
        <time>2021-03-27T14:52:31Z</time>
      </trkpt>
      <trkpt lat="40.435673" lon="-4.552158">
        <ele>762.06</ele>
        <time>2021-03-27T14:52:34Z</time>
      </trkpt>
      <trkpt lat="40.435519" lon="-4.552128">
        <ele>760.55</ele>
        <time>2021-03-27T14:52:37Z</time>
      </trkpt>
      <trkpt lat="40.435442" lon="-4.552134">
        <ele>760.23</ele>
        <time>2021-03-27T14:52:40Z</time>
      </trkpt>
      <trkpt lat="40.43533" lon="-4.552178">
        <ele>759.5</ele>
        <time>2021-03-27T14:52:43Z</time>
      </trkpt>
      <trkpt lat="40.434805" lon="-4.552512">
        <ele>755.88</ele>
        <time>2021-03-27T14:52:45Z</time>
      </trkpt>
      <trkpt lat="40.434625" lon="-4.552605">
        <ele>755.3</ele>
        <time>2021-03-27T14:52:48Z</time>
      </trkpt>
      <trkpt lat="40.4344" lon="-4.552689">
        <ele>754.92</ele>
        <time>2021-03-27T14:52:51Z</time>
      </trkpt>
      <trkpt lat="40.433308" lon="-4.553308">
        <ele>749.1</ele>
        <time>2021-03-27T14:52:54Z</time>
      </trkpt>
      <trkpt lat="40.432474" lon="-4.553726">
        <ele>739.63</ele>
        <time>2021-03-27T14:52:57Z</time>
      </trkpt>
      <trkpt lat="40.432256" lon="-4.553789">
        <ele>738.94</ele>
        <time>2021-03-27T14:53:00Z</time>
      </trkpt>
      <trkpt lat="40.431862" lon="-4.553826">
        <ele>740.29</ele>
        <time>2021-03-27T14:53:02Z</time>
      </trkpt>
      <trkpt lat="40.431737" lon="-4.553859">
        <ele>740.49</ele>
        <time>2021-03-27T14:53:05Z</time>
      </trkpt>
      <trkpt lat="40.43145" lon="-4.554027">
        <ele>740.86</ele>
        <time>2021-03-27T14:53:08Z</time>
      </trkpt>
      <trkpt lat="40.431151" lon="-4.554248">
        <ele>735.77</ele>
        <time>2021-03-27T14:53:11Z</time>
      </trkpt>
      <trkpt lat="40.430933" lon="-4.554352">
        <ele>734.25</ele>
        <time>2021-03-27T14:53:14Z</time>
      </trkpt>
      <trkpt lat="40.430758" lon="-4.554406">
        <ele>734.41</ele>
        <time>2021-03-27T14:53:17Z</time>
      </trkpt>
      <trkpt lat="40.430613" lon="-4.554428">
        <ele>735.7</ele>
        <time>2021-03-27T14:53:20Z</time>
      </trkpt>
      <trkpt lat="40.430043" lon="-4.554377">
        <ele>738.73</ele>
        <time>2021-03-27T14:53:22Z</time>
      </trkpt>
      <trkpt lat="40.429883" lon="-4.554347">
        <ele>738.57</ele>
        <time>2021-03-27T14:53:25Z</time>
      </trkpt>
      <trkpt lat="40.429259" lon="-4.554094">
        <ele>734.93</ele>
        <time>2021-03-27T14:53:28Z</time>
      </trkpt>
      <trkpt lat="40.429103" lon="-4.55396">
        <ele>736.24</ele>
        <time>2021-03-27T14:53:31Z</time>
      </trkpt>
      <trkpt lat="40.429012" lon="-4.553837">
        <ele>737.07</ele>
        <time>2021-03-27T14:53:34Z</time>
      </trkpt>
      <trkpt lat="40.428933" lon="-4.553695">
        <ele>738.17</ele>
        <time>2021-03-27T14:53:37Z</time>
      </trkpt>
      <trkpt lat="40.428615" lon="-4.552598">
        <ele>734.48</ele>
        <time>2021-03-27T14:53:40Z</time>
      </trkpt>
      <trkpt lat="40.428595" lon="-4.552214">
        <ele>734.41</ele>
        <time>2021-03-27T14:53:42Z</time>
      </trkpt>
      <trkpt lat="40.428645" lon="-4.551661">
        <ele>735.34</ele>
        <time>2021-03-27T14:53:45Z</time>
      </trkpt>
      <trkpt lat="40.428592" lon="-4.550856">
        <ele>740.06</ele>
        <time>2021-03-27T14:53:48Z</time>
      </trkpt>
      <trkpt lat="40.428482" lon="-4.549551">
        <ele>742.82</ele>
        <time>2021-03-27T14:53:51Z</time>
      </trkpt>
      <trkpt lat="40.428401" lon="-4.549015">
        <ele>743.34</ele>
        <time>2021-03-27T14:53:54Z</time>
      </trkpt>
      <trkpt lat="40.428404" lon="-4.548804">
        <ele>745.03</ele>
        <time>2021-03-27T14:53:57Z</time>
      </trkpt>
      <trkpt lat="40.428448" lon="-4.54846">
        <ele>745.26</ele>
        <time>2021-03-27T14:53:59Z</time>
      </trkpt>
      <trkpt lat="40.428514" lon="-4.548113">
        <ele>744.48</ele>
        <time>2021-03-27T14:54:02Z</time>
      </trkpt>
      <trkpt lat="40.428597" lon="-4.547836">
        <ele>745.09</ele>
        <time>2021-03-27T14:54:05Z</time>
      </trkpt>
      <trkpt lat="40.429295" lon="-4.546075">
        <ele>746.12</ele>
        <time>2021-03-27T14:54:08Z</time>
      </trkpt>
      <trkpt lat="40.429361" lon="-4.545838">
        <ele>745.34</ele>
        <time>2021-03-27T14:54:11Z</time>
      </trkpt>
      <trkpt lat="40.42946" lon="-4.544608">
        <ele>740.5</ele>
        <time>2021-03-27T14:54:14Z</time>
      </trkpt>
      <trkpt lat="40.429459" lon="-4.544222">
        <ele>741.52</ele>
        <time>2021-03-27T14:54:17Z</time>
      </trkpt>
      <trkpt lat="40.429358" lon="-4.543831">
        <ele>740.18</ele>
        <time>2021-03-27T14:54:18Z</time>
      </trkpt>
      <trkpt lat="40.429257" lon="-4.543528">
        <ele>740.83</ele>
        <time>2021-03-27T14:54:19Z</time>
      </trkpt>
      <trkpt lat="40.42916" lon="-4.543292">
        <ele>740.38</ele>
        <time>2021-03-27T14:54:21Z</time>
      </trkpt>
      <trkpt lat="40.428812" lon="-4.542563">
        <ele>738.0</ele>
        <time>2021-03-27T14:54:22Z</time>
      </trkpt>
      <trkpt lat="40.428469" lon="-4.54193">
        <ele>738.23</ele>
        <time>2021-03-27T14:54:23Z</time>
      </trkpt>
      <trkpt lat="40.428319" lon="-4.541664">
        <ele>738.73</ele>
        <time>2021-03-27T14:54:24Z</time>
      </trkpt>
      <trkpt lat="40.42807" lon="-4.541298">
        <ele>736.98</ele>
        <time>2021-03-27T14:54:26Z</time>
      </trkpt>
      <trkpt lat="40.427998" lon="-4.541095">
        <ele>734.28</ele>
        <time>2021-03-27T14:54:27Z</time>
      </trkpt>
      <trkpt lat="40.427991" lon="-4.540979">
        <ele>733.67</ele>
        <time>2021-03-27T14:54:28Z</time>
      </trkpt>
      <trkpt lat="40.428014" lon="-4.540871">
        <ele>733.94</ele>
        <time>2021-03-27T14:54:30Z</time>
      </trkpt>
      <trkpt lat="40.428067" lon="-4.540768">
        <ele>734.63</ele>
        <time>2021-03-27T14:54:31Z</time>
      </trkpt>
      <trkpt lat="40.428162" lon="-4.540678">
        <ele>734.6</ele>
        <time>2021-03-27T14:54:32Z</time>
      </trkpt>
      <trkpt lat="40.428532" lon="-4.540527">
        <ele>732.35</ele>
        <time>2021-03-27T14:54:34Z</time>
      </trkpt>
      <trkpt lat="40.42867" lon="-4.540449">
        <ele>732.85</ele>
        <time>2021-03-27T14:54:35Z</time>
      </trkpt>
      <trkpt lat="40.428833" lon="-4.540299">
        <ele>734.46</ele>
        <time>2021-03-27T14:54:36Z</time>
      </trkpt>
      <trkpt lat="40.429047" lon="-4.540015">
        <ele>736.79</ele>
        <time>2021-03-27T14:54:38Z</time>
      </trkpt>
      <trkpt lat="40.429325" lon="-4.539571">
        <ele>738.44</ele>
        <time>2021-03-27T14:54:39Z</time>
      </trkpt>
      <trkpt lat="40.429569" lon="-4.539242">
        <ele>736.78</ele>
        <time>2021-03-27T14:54:40Z</time>
      </trkpt>
      <trkpt lat="40.429765" lon="-4.539088">
        <ele>737.41</ele>
        <time>2021-03-27T14:54:41Z</time>
      </trkpt>
      <trkpt lat="40.429885" lon="-4.539025">
        <ele>738.73</ele>
        <time>2021-03-27T14:54:43Z</time>
      </trkpt>
      <trkpt lat="40.430382" lon="-4.538821">
        <ele>742.59</ele>
        <time>2021-03-27T14:54:44Z</time>
      </trkpt>
      <trkpt lat="40.430544" lon="-4.538699">
        <ele>742.59</ele>
        <time>2021-03-27T14:54:45Z</time>
      </trkpt>
      <trkpt lat="40.430678" lon="-4.538529">
        <ele>743.55</ele>
        <time>2021-03-27T14:54:47Z</time>
      </trkpt>
      <trkpt lat="40.43075" lon="-4.538379">
        <ele>743.76</ele>
        <time>2021-03-27T14:54:48Z</time>
      </trkpt>
      <trkpt lat="40.430793" lon="-4.538231">
        <ele>743.12</ele>
        <time>2021-03-27T14:54:49Z</time>
      </trkpt>
      <trkpt lat="40.430805" lon="-4.538071">
        <ele>741.29</ele>
        <time>2021-03-27T14:54:51Z</time>
      </trkpt>
      <trkpt lat="40.430744" lon="-4.537264">
        <ele>741.15</ele>
        <time>2021-03-27T14:54:52Z</time>
      </trkpt>
      <trkpt lat="40.430707" lon="-4.53706">
        <ele>741.3</ele>
        <time>2021-03-27T14:54:53Z</time>
      </trkpt>
      <trkpt lat="40.430668" lon="-4.536972">
        <ele>740.93</ele>
        <time>2021-03-27T14:54:55Z</time>
      </trkpt>
      <trkpt lat="40.430544" lon="-4.536844">
        <ele>740.69</ele>
        <time>2021-03-27T14:54:56Z</time>
      </trkpt>
      <trkpt lat="40.430377" lon="-4.536759">
        <ele>739.77</ele>
        <time>2021-03-27T14:54:57Z</time>
      </trkpt>
      <trkpt lat="40.430284" lon="-4.536734">
        <ele>738.61</ele>
        <time>2021-03-27T14:54:59Z</time>
      </trkpt>
      <trkpt lat="40.430219" lon="-4.536746">
        <ele>738.0</ele>
        <time>2021-03-27T14:55:00Z</time>
      </trkpt>
      <trkpt lat="40.430148" lon="-4.536781">
        <ele>737.24</ele>
        <time>2021-03-27T14:55:01Z</time>
      </trkpt>
      <trkpt lat="40.429995" lon="-4.536903">
        <ele>735.36</ele>
        <time>2021-03-27T14:55:02Z</time>
      </trkpt>
      <trkpt lat="40.429802" lon="-4.537162">
        <ele>734.24</ele>
        <time>2021-03-27T14:55:04Z</time>
      </trkpt>
      <trkpt lat="40.429617" lon="-4.537349">
        <ele>733.17</ele>
        <time>2021-03-27T14:55:05Z</time>
      </trkpt>
      <trkpt lat="40.429555" lon="-4.53739">
        <ele>732.9</ele>
        <time>2021-03-27T14:55:06Z</time>
      </trkpt>
      <trkpt lat="40.428585" lon="-4.537726">
        <ele>736.58</ele>
        <time>2021-03-27T14:55:08Z</time>
      </trkpt>
      <trkpt lat="40.4282" lon="-4.537798">
        <ele>736.82</ele>
        <time>2021-03-27T14:55:09Z</time>
      </trkpt>
      <trkpt lat="40.427947" lon="-4.537795">
        <ele>737.72</ele>
        <time>2021-03-27T14:55:10Z</time>
      </trkpt>
      <trkpt lat="40.427572" lon="-4.537753">
        <ele>735.3</ele>
        <time>2021-03-27T14:55:12Z</time>
      </trkpt>
      <trkpt lat="40.427466" lon="-4.537713">
        <ele>734.85</ele>
        <time>2021-03-27T14:55:13Z</time>
      </trkpt>
      <trkpt lat="40.427328" lon="-4.537604">
        <ele>734.51</ele>
        <time>2021-03-27T14:55:14Z</time>
      </trkpt>
      <trkpt lat="40.427249" lon="-4.537441">
        <ele>735.22</ele>
        <time>2021-03-27T14:55:16Z</time>
      </trkpt>
      <trkpt lat="40.427162" lon="-4.53697">
        <ele>737.11</ele>
        <time>2021-03-27T14:55:17Z</time>
      </trkpt>
      <trkpt lat="40.427129" lon="-4.536655">
        <ele>736.6</ele>
        <time>2021-03-27T14:55:18Z</time>
      </trkpt>
      <trkpt lat="40.427123" lon="-4.536192">
        <ele>735.68</ele>
        <time>2021-03-27T14:55:19Z</time>
      </trkpt>
      <trkpt lat="40.427108" lon="-4.535996">
        <ele>735.04</ele>
        <time>2021-03-27T14:55:21Z</time>
      </trkpt>
      <trkpt lat="40.427053" lon="-4.535714">
        <ele>733.14</ele>
        <time>2021-03-27T14:55:22Z</time>
      </trkpt>
      <trkpt lat="40.427013" lon="-4.535597">
        <ele>731.97</ele>
        <time>2021-03-27T14:55:23Z</time>
      </trkpt>
      <trkpt lat="40.426926" lon="-4.535445">
        <ele>730.94</ele>
        <time>2021-03-27T14:55:25Z</time>
      </trkpt>
      <trkpt lat="40.426004" lon="-4.534328">
        <ele>728.6</ele>
        <time>2021-03-27T14:55:26Z</time>
      </trkpt>
      <trkpt lat="40.425954" lon="-4.534232">
        <ele>729.39</ele>
        <time>2021-03-27T14:55:27Z</time>
      </trkpt>
      <trkpt lat="40.425868" lon="-4.533626">
        <ele>733.06</ele>
        <time>2021-03-27T14:55:29Z</time>
      </trkpt>
      <trkpt lat="40.423493" lon="-4.534204">
        <ele>724.16</ele>
        <time>2021-03-27T14:55:35Z</time>
      </trkpt>
      <trkpt lat="40.423124" lon="-4.534447">
        <ele>730.05</ele>
        <time>2021-03-27T14:55:41Z</time>
      </trkpt>
      <trkpt lat="40.423049" lon="-4.53447">
        <ele>730.61</ele>
        <time>2021-03-27T14:55:48Z</time>
      </trkpt>
      <trkpt lat="40.423094" lon="-4.535218">
        <ele>738.92</ele>
        <time>2021-03-27T14:55:50Z</time>
      </trkpt>
      <trkpt lat="40.423022" lon="-4.536126">
        <ele>742.37</ele>
        <time>2021-03-27T14:55:53Z</time>
      </trkpt>
      <trkpt lat="40.423177" lon="-4.536819">
        <ele>737.96</ele>
        <time>2021-03-27T14:55:55Z</time>
      </trkpt>
      <trkpt lat="40.423037" lon="-4.538288">
        <ele>743.51</ele>
        <time>2021-03-27T14:55:57Z</time>
      </trkpt>
      <trkpt lat="40.422937" lon="-4.538639">
        <ele>747.64</ele>
        <time>2021-03-27T14:56:00Z</time>
      </trkpt>
      <trkpt lat="40.422876" lon="-4.539308">
        <ele>752.93</ele>
        <time>2021-03-27T14:56:02Z</time>
      </trkpt>
      <trkpt lat="40.42305" lon="-4.539879">
        <ele>747.19</ele>
        <time>2021-03-27T14:56:05Z</time>
      </trkpt>
      <trkpt lat="40.423038" lon="-4.540436">
        <ele>742.02</ele>
        <time>2021-03-27T14:56:07Z</time>
      </trkpt>
      <trkpt lat="40.422874" lon="-4.541169">
        <ele>737.78</ele>
        <time>2021-03-27T14:56:10Z</time>
      </trkpt>
      <trkpt lat="40.422656" lon="-4.541586">
        <ele>737.83</ele>
        <time>2021-03-27T14:56:12Z</time>
      </trkpt>
      <trkpt lat="40.422225" lon="-4.541921">
        <ele>736.71</ele>
        <time>2021-03-27T14:56:14Z</time>
      </trkpt>
      <trkpt lat="40.421767" lon="-4.542129">
        <ele>742.01</ele>
        <time>2021-03-27T14:56:17Z</time>
      </trkpt>
      <trkpt lat="40.421324" lon="-4.542657">
        <ele>744.44</ele>
        <time>2021-03-27T14:56:19Z</time>
      </trkpt>
      <trkpt lat="40.420967" lon="-4.542841">
        <ele>747.66</ele>
        <time>2021-03-27T14:56:22Z</time>
      </trkpt>
      <trkpt lat="40.420901" lon="-4.542904">
        <ele>749.53</ele>
        <time>2021-03-27T14:56:24Z</time>
      </trkpt>
      <trkpt lat="40.420864" lon="-4.542977">
        <ele>751.2</ele>
        <time>2021-03-27T14:56:27Z</time>
      </trkpt>
      <trkpt lat="40.420861" lon="-4.543075">
        <ele>752.7</ele>
        <time>2021-03-27T14:56:29Z</time>
      </trkpt>
      <trkpt lat="40.4209" lon="-4.543167">
        <ele>753.34</ele>
        <time>2021-03-27T14:56:31Z</time>
      </trkpt>
      <trkpt lat="40.421016" lon="-4.543239">
        <ele>750.62</ele>
        <time>2021-03-27T14:56:34Z</time>
      </trkpt>
      <trkpt lat="40.42132" lon="-4.543361">
        <ele>743.61</ele>
        <time>2021-03-27T14:56:36Z</time>
      </trkpt>
      <trkpt lat="40.421428" lon="-4.543475">
        <ele>741.32</ele>
        <time>2021-03-27T14:56:39Z</time>
      </trkpt>
      <trkpt lat="40.421474" lon="-4.543578">
        <ele>740.38</ele>
        <time>2021-03-27T14:56:41Z</time>
      </trkpt>
      <trkpt lat="40.421488" lon="-4.543693">
        <ele>740.56</ele>
        <time>2021-03-27T14:56:43Z</time>
      </trkpt>
      <trkpt lat="40.421416" lon="-4.543837">
        <ele>743.12</ele>
        <time>2021-03-27T14:56:46Z</time>
      </trkpt>
      <trkpt lat="40.421229" lon="-4.544032">
        <ele>747.1</ele>
        <time>2021-03-27T14:56:48Z</time>
      </trkpt>
      <trkpt lat="40.421075" lon="-4.544396">
        <ele>751.3</ele>
        <time>2021-03-27T14:56:51Z</time>
      </trkpt>
      <trkpt lat="40.421066" lon="-4.544599">
        <ele>752.72</ele>
        <time>2021-03-27T14:56:53Z</time>
      </trkpt>
      <trkpt lat="40.421428" lon="-4.545159">
        <ele>747.62</ele>
        <time>2021-03-27T14:56:56Z</time>
      </trkpt>
      <trkpt lat="40.421409" lon="-4.545403">
        <ele>747.98</ele>
        <time>2021-03-27T14:56:58Z</time>
      </trkpt>
      <trkpt lat="40.421253" lon="-4.546162">
        <ele>745.81</ele>
        <time>2021-03-27T14:57:00Z</time>
      </trkpt>
      <trkpt lat="40.421064" lon="-4.546732">
        <ele>748.45</ele>
        <time>2021-03-27T14:57:03Z</time>
      </trkpt>
      <trkpt lat="40.42114" lon="-4.547097">
        <ele>744.63</ele>
        <time>2021-03-27T14:57:05Z</time>
      </trkpt>
      <trkpt lat="40.421139" lon="-4.547579">
        <ele>745.04</ele>
        <time>2021-03-27T14:57:08Z</time>
      </trkpt>
      <trkpt lat="40.421029" lon="-4.54796">
        <ele>748.41</ele>
        <time>2021-03-27T14:57:10Z</time>
      </trkpt>
      <trkpt lat="40.421197" lon="-4.548825">
        <ele>745.37</ele>
        <time>2021-03-27T14:57:13Z</time>
      </trkpt>
      <trkpt lat="40.421346" lon="-4.54905">
        <ele>741.63</ele>
        <time>2021-03-27T14:57:15Z</time>
      </trkpt>
      <trkpt lat="40.421527" lon="-4.549229">
        <ele>741.29</ele>
        <time>2021-03-27T14:57:17Z</time>
      </trkpt>
      <trkpt lat="40.421908" lon="-4.549199">
        <ele>736.86</ele>
        <time>2021-03-27T14:57:20Z</time>
      </trkpt>
      <trkpt lat="40.422017" lon="-4.549277">
        <ele>734.43</ele>
        <time>2021-03-27T14:57:22Z</time>
      </trkpt>
      <trkpt lat="40.42209" lon="-4.549662">
        <ele>734.32</ele>
        <time>2021-03-27T14:57:25Z</time>
      </trkpt>
      <trkpt lat="40.421969" lon="-4.550303">
        <ele>733.51</ele>
        <time>2021-03-27T14:57:27Z</time>
      </trkpt>
      <trkpt lat="40.421579" lon="-4.551314">
        <ele>739.1</ele>
        <time>2021-03-27T14:57:30Z</time>
      </trkpt>
      <trkpt lat="40.421136" lon="-4.551988">
        <ele>743.06</ele>
        <time>2021-03-27T14:57:32Z</time>
      </trkpt>
      <trkpt lat="40.421139" lon="-4.552143">
        <ele>744.2</ele>
        <time>2021-03-27T14:57:34Z</time>
      </trkpt>
      <trkpt lat="40.421214" lon="-4.552207">
        <ele>744.13</ele>
        <time>2021-03-27T14:57:37Z</time>
      </trkpt>
      <trkpt lat="40.42149" lon="-4.552321">
        <ele>743.84</ele>
        <time>2021-03-27T14:57:39Z</time>
      </trkpt>
      <trkpt lat="40.421654" lon="-4.552333">
        <ele>742.69</ele>
        <time>2021-03-27T14:57:42Z</time>
      </trkpt>
      <trkpt lat="40.421786" lon="-4.552259">
        <ele>741.85</ele>
        <time>2021-03-27T14:57:44Z</time>
      </trkpt>
      <trkpt lat="40.422089" lon="-4.551993">
        <ele>738.83</ele>
        <time>2021-03-27T14:57:46Z</time>
      </trkpt>
      <trkpt lat="40.422163" lon="-4.551764">
        <ele>735.82</ele>
        <time>2021-03-27T14:57:49Z</time>
      </trkpt>
      <trkpt lat="40.422241" lon="-4.551583">
        <ele>733.11</ele>
        <time>2021-03-27T14:57:51Z</time>
      </trkpt>
      <trkpt lat="40.422364" lon="-4.55151">
        <ele>732.86</ele>
        <time>2021-03-27T14:57:54Z</time>
      </trkpt>
      <trkpt lat="40.422653" lon="-4.551494">
        <ele>733.73</ele>
        <time>2021-03-27T14:57:56Z</time>
      </trkpt>
      <trkpt lat="40.422829" lon="-4.55154">
        <ele>733.61</ele>
        <time>2021-03-27T14:57:59Z</time>
      </trkpt>
      <trkpt lat="40.422965" lon="-4.551649">
        <ele>733.97</ele>
        <time>2021-03-27T14:58:01Z</time>
      </trkpt>
      <trkpt lat="40.423515" lon="-4.551988">
        <ele>734.29</ele>
        <time>2021-03-27T14:58:03Z</time>
      </trkpt>
      <trkpt lat="40.424021" lon="-4.552487">
        <ele>732.36</ele>
        <time>2021-03-27T14:58:06Z</time>
      </trkpt>
      <trkpt lat="40.424153" lon="-4.552652">
        <ele>732.46</ele>
        <time>2021-03-27T14:58:08Z</time>
      </trkpt>
      <trkpt lat="40.424223" lon="-4.552783">
        <ele>733.01</ele>
        <time>2021-03-27T14:58:11Z</time>
      </trkpt>
      <trkpt lat="40.424201" lon="-4.553408">
        <ele>736.51</ele>
        <time>2021-03-27T14:58:13Z</time>
      </trkpt>
      <trkpt lat="40.424004" lon="-4.554196">
        <ele>738.43</ele>
        <time>2021-03-27T14:58:16Z</time>
      </trkpt>
      <trkpt lat="40.423881" lon="-4.555369">
        <ele>734.69</ele>
        <time>2021-03-27T14:58:18Z</time>
      </trkpt>
      <trkpt lat="40.423369" lon="-4.55657">
        <ele>736.36</ele>
        <time>2021-03-27T14:58:20Z</time>
      </trkpt>
      <trkpt lat="40.422681" lon="-4.557695">
        <ele>740.58</ele>
        <time>2021-03-27T14:58:23Z</time>
      </trkpt>
      <trkpt lat="40.422305" lon="-4.557962">
        <ele>742.63</ele>
        <time>2021-03-27T14:58:25Z</time>
      </trkpt>
      <trkpt lat="40.422305" lon="-4.558221">
        <ele>738.46</ele>
        <time>2021-03-27T14:58:28Z</time>
      </trkpt>
      <trkpt lat="40.421999" lon="-4.558923">
        <ele>733.92</ele>
        <time>2021-03-27T14:58:30Z</time>
      </trkpt>
      <trkpt lat="40.421648" lon="-4.559019">
        <ele>735.53</ele>
        <time>2021-03-27T14:58:33Z</time>
      </trkpt>
      <trkpt lat="40.421465" lon="-4.559355">
        <ele>731.26</ele>
        <time>2021-03-27T14:58:35Z</time>
      </trkpt>
      <trkpt lat="40.421099" lon="-4.559547">
        <ele>735.77</ele>
        <time>2021-03-27T14:58:37Z</time>
      </trkpt>
      <trkpt lat="40.420975" lon="-4.559884">
        <ele>733.81</ele>
        <time>2021-03-27T14:58:40Z</time>
      </trkpt>
      <trkpt lat="40.420587" lon="-4.560162">
        <ele>738.75</ele>
        <time>2021-03-27T14:58:42Z</time>
      </trkpt>
      <trkpt lat="40.420402" lon="-4.560622">
        <ele>737.16</ele>
        <time>2021-03-27T14:58:45Z</time>
      </trkpt>
      <trkpt lat="40.420314" lon="-4.561055">
        <ele>736.64</ele>
        <time>2021-03-27T14:58:47Z</time>
      </trkpt>
      <trkpt lat="40.419911" lon="-4.56142">
        <ele>738.38</ele>
        <time>2021-03-27T14:58:49Z</time>
      </trkpt>
      <trkpt lat="40.419028" lon="-4.562438">
        <ele>740.83</ele>
        <time>2021-03-27T14:58:52Z</time>
      </trkpt>
      <trkpt lat="40.418938" lon="-4.562612">
        <ele>740.66</ele>
        <time>2021-03-27T14:58:54Z</time>
      </trkpt>
      <trkpt lat="40.418896" lon="-4.562822">
        <ele>739.6</ele>
        <time>2021-03-27T14:58:57Z</time>
      </trkpt>
      <trkpt lat="40.418922" lon="-4.563288">
        <ele>735.85</ele>
        <time>2021-03-27T14:58:59Z</time>
      </trkpt>
      <trkpt lat="40.418863" lon="-4.563511">
        <ele>736.45</ele>
        <time>2021-03-27T14:59:02Z</time>
      </trkpt>
      <trkpt lat="40.418757" lon="-4.563654">
        <ele>737.36</ele>
        <time>2021-03-27T14:59:04Z</time>
      </trkpt>
      <trkpt lat="40.418467" lon="-4.56385">
        <ele>735.77</ele>
        <time>2021-03-27T14:59:06Z</time>
      </trkpt>
      <trkpt lat="40.416882" lon="-4.564337">
        <ele>735.45</ele>
        <time>2021-03-27T14:59:09Z</time>
      </trkpt>
      <trkpt lat="40.414795" lon="-4.564919">
        <ele>748.41</ele>
        <time>2021-03-27T14:59:11Z</time>
      </trkpt>
      <trkpt lat="40.413943" lon="-4.565109">
        <ele>747.56</ele>
        <time>2021-03-27T14:59:14Z</time>
      </trkpt>
      <trkpt lat="40.413461" lon="-4.565476">
        <ele>745.78</ele>
        <time>2021-03-27T14:59:16Z</time>
      </trkpt>
      <trkpt lat="40.412937" lon="-4.565691">
        <ele>741.84</ele>
        <time>2021-03-27T14:59:19Z</time>
      </trkpt>
      <trkpt lat="40.412423" lon="-4.56615">
        <ele>744.28</ele>
        <time>2021-03-27T14:59:21Z</time>
      </trkpt>
      <trkpt lat="40.412042" lon="-4.566432">
        <ele>744.05</ele>
        <time>2021-03-27T14:59:23Z</time>
      </trkpt>
      <trkpt lat="40.411452" lon="-4.566552">
        <ele>745.05</ele>
        <time>2021-03-27T14:59:26Z</time>
      </trkpt>
      <trkpt lat="40.41108" lon="-4.566939">
        <ele>743.04</ele>
        <time>2021-03-27T14:59:28Z</time>
      </trkpt>
      <trkpt lat="40.410665" lon="-4.567154">
        <ele>741.65</ele>
        <time>2021-03-27T14:59:31Z</time>
      </trkpt>
      <trkpt lat="40.410316" lon="-4.566895">
        <ele>740.16</ele>
        <time>2021-03-27T14:59:33Z</time>
      </trkpt>
      <trkpt lat="40.410049" lon="-4.566967">
        <ele>742.65</ele>
        <time>2021-03-27T14:59:36Z</time>
      </trkpt>
      <trkpt lat="40.409667" lon="-4.567196">
        <ele>744.93</ele>
        <time>2021-03-27T14:59:38Z</time>
      </trkpt>
      <trkpt lat="40.409217" lon="-4.567551">
        <ele>744.12</ele>
        <time>2021-03-27T14:59:40Z</time>
      </trkpt>
      <trkpt lat="40.408826" lon="-4.567749">
        <ele>745.06</ele>
        <time>2021-03-27T14:59:43Z</time>
      </trkpt>
      <trkpt lat="40.408665" lon="-4.56778">
        <ele>744.17</ele>
        <time>2021-03-27T14:59:45Z</time>
      </trkpt>
      <trkpt lat="40.408473" lon="-4.567762">
        <ele>744.61</ele>
        <time>2021-03-27T14:59:48Z</time>
      </trkpt>
      <trkpt lat="40.407909" lon="-4.567597">
        <ele>756.03</ele>
        <time>2021-03-27T14:59:50Z</time>
      </trkpt>
      <trkpt lat="40.407605" lon="-4.567591">
        <ele>757.54</ele>
        <time>2021-03-27T14:59:52Z</time>
      </trkpt>
      <trkpt lat="40.406819" lon="-4.567822">
        <ele>754.54</ele>
        <time>2021-03-27T14:59:55Z</time>
      </trkpt>
      <trkpt lat="40.406612" lon="-4.567845">
        <ele>756.17</ele>
        <time>2021-03-27T14:59:57Z</time>
      </trkpt>
      <trkpt lat="40.406336" lon="-4.567761">
        <ele>757.42</ele>
        <time>2021-03-27T15:00:00Z</time>
      </trkpt>
      <trkpt lat="40.406156" lon="-4.567737">
        <ele>759.16</ele>
        <time>2021-03-27T15:00:02Z</time>
      </trkpt>
      <trkpt lat="40.405683" lon="-4.567858">
        <ele>760.74</ele>
        <time>2021-03-27T15:00:05Z</time>
      </trkpt>
      <trkpt lat="40.405145" lon="-4.567933">
        <ele>758.9</ele>
        <time>2021-03-27T15:00:07Z</time>
      </trkpt>
      <trkpt lat="40.404682" lon="-4.568189">
        <ele>757.15</ele>
        <time>2021-03-27T15:00:09Z</time>
      </trkpt>
      <trkpt lat="40.404471" lon="-4.568264">
        <ele>757.21</ele>
        <time>2021-03-27T15:00:12Z</time>
      </trkpt>
      <trkpt lat="40.404" lon="-4.568299">
        <ele>757.84</ele>
        <time>2021-03-27T15:00:16Z</time>
      </trkpt>
      <trkpt lat="40.403239" lon="-4.568716">
        <ele>757.38</ele>
        <time>2021-03-27T15:00:21Z</time>
      </trkpt>
      <trkpt lat="40.403145" lon="-4.568729">
        <ele>757.61</ele>
        <time>2021-03-27T15:00:25Z</time>
      </trkpt>
      <trkpt lat="40.402869" lon="-4.568683">
        <ele>761.7</ele>
        <time>2021-03-27T15:00:29Z</time>
      </trkpt>
      <trkpt lat="40.402571" lon="-4.568802">
        <ele>760.53</ele>
        <time>2021-03-27T15:00:33Z</time>
      </trkpt>
      <trkpt lat="40.402241" lon="-4.568711">
        <ele>762.84</ele>
        <time>2021-03-27T15:00:38Z</time>
      </trkpt>
      <trkpt lat="40.401189" lon="-4.568627">
        <ele>768.49</ele>
        <time>2021-03-27T15:00:42Z</time>
      </trkpt>
      <trkpt lat="40.40091" lon="-4.568715">
        <ele>764.54</ele>
        <time>2021-03-27T15:00:46Z</time>
      </trkpt>
      <trkpt lat="40.400604" lon="-4.568729">
        <ele>760.2</ele>
        <time>2021-03-27T15:00:50Z</time>
      </trkpt>
      <trkpt lat="40.400358" lon="-4.568685">
        <ele>758.31</ele>
        <time>2021-03-27T15:00:55Z</time>
      </trkpt>
      <trkpt lat="40.400108" lon="-4.568568">
        <ele>761.84</ele>
        <time>2021-03-27T15:00:59Z</time>
      </trkpt>
      <trkpt lat="40.399935" lon="-4.568553">
        <ele>765.32</ele>
        <time>2021-03-27T15:01:03Z</time>
      </trkpt>
      <trkpt lat="40.399375" lon="-4.568665">
        <ele>769.72</ele>
        <time>2021-03-27T15:01:07Z</time>
      </trkpt>
      <trkpt lat="40.398621" lon="-4.568648">
        <ele>779.47</ele>
        <time>2021-03-27T15:01:12Z</time>
      </trkpt>
      <trkpt lat="40.398218" lon="-4.568461">
        <ele>780.04</ele>
        <time>2021-03-27T15:01:16Z</time>
      </trkpt>
      <trkpt lat="40.39807" lon="-4.568352">
        <ele>780.8</ele>
        <time>2021-03-27T15:01:20Z</time>
      </trkpt>
      <trkpt lat="40.397827" lon="-4.568327">
        <ele>780.31</ele>
        <time>2021-03-27T15:01:25Z</time>
      </trkpt>
      <trkpt lat="40.397353" lon="-4.568035">
        <ele>782.3</ele>
        <time>2021-03-27T15:01:29Z</time>
      </trkpt>
      <trkpt lat="40.397077" lon="-4.567683">
        <ele>784.58</ele>
        <time>2021-03-27T15:01:33Z</time>
      </trkpt>
      <trkpt lat="40.396999" lon="-4.567658">
        <ele>783.39</ele>
        <time>2021-03-27T15:01:37Z</time>
      </trkpt>
      <trkpt lat="40.396877" lon="-4.567675">
        <ele>782.12</ele>
        <time>2021-03-27T15:01:42Z</time>
      </trkpt>
      <trkpt lat="40.395879" lon="-4.567993">
        <ele>795.62</ele>
        <time>2021-03-27T15:01:46Z</time>
      </trkpt>
      <trkpt lat="40.39561" lon="-4.5683">
        <ele>794.98</ele>
        <time>2021-03-27T15:01:50Z</time>
      </trkpt>
      <trkpt lat="40.395426" lon="-4.56839">
        <ele>796.43</ele>
        <time>2021-03-27T15:01:54Z</time>
      </trkpt>
      <trkpt lat="40.394844" lon="-4.568438">
        <ele>799.55</ele>
        <time>2021-03-27T15:01:59Z</time>
      </trkpt>
      <trkpt lat="40.394392" lon="-4.568249">
        <ele>806.6</ele>
        <time>2021-03-27T15:02:03Z</time>
      </trkpt>
      <trkpt lat="40.394242" lon="-4.568114">
        <ele>809.57</ele>
        <time>2021-03-27T15:02:07Z</time>
      </trkpt>
      <trkpt lat="40.394089" lon="-4.568053">
        <ele>811.15</ele>
        <time>2021-03-27T15:02:12Z</time>
      </trkpt>
      <trkpt lat="40.393498" lon="-4.567929">
        <ele>815.78</ele>
        <time>2021-03-27T15:02:16Z</time>
      </trkpt>
      <trkpt lat="40.39318" lon="-4.567649">
        <ele>819.24</ele>
        <time>2021-03-27T15:02:20Z</time>
      </trkpt>
      <trkpt lat="40.392843" lon="-4.567433">
        <ele>825.07</ele>
        <time>2021-03-27T15:02:24Z</time>
      </trkpt>
      <trkpt lat="40.392633" lon="-4.56738">
        <ele>827.26</ele>
        <time>2021-03-27T15:02:29Z</time>
      </trkpt>
      <trkpt lat="40.392428" lon="-4.56739">
        <ele>826.6</ele>
        <time>2021-03-27T15:02:33Z</time>
      </trkpt>
      <trkpt lat="40.391645" lon="-4.567629">
        <ele>829.57</ele>
        <time>2021-03-27T15:02:37Z</time>
      </trkpt>
      <trkpt lat="40.391215" lon="-4.567987">
        <ele>824.75</ele>
        <time>2021-03-27T15:02:41Z</time>
      </trkpt>
      <trkpt lat="40.39094" lon="-4.568059">
        <ele>823.37</ele>
        <time>2021-03-27T15:02:46Z</time>
      </trkpt>
      <trkpt lat="40.390718" lon="-4.568051">
        <ele>822.23</ele>
        <time>2021-03-27T15:02:50Z</time>
      </trkpt>
      <trkpt lat="40.390597" lon="-4.567966">
        <ele>822.58</ele>
        <time>2021-03-27T15:02:54Z</time>
      </trkpt>
      <trkpt lat="40.390399" lon="-4.567742">
        <ele>825.33</ele>
        <time>2021-03-27T15:02:58Z</time>
      </trkpt>
      <trkpt lat="40.390286" lon="-4.567662">
        <ele>826.56</ele>
        <time>2021-03-27T15:03:03Z</time>
      </trkpt>
      <trkpt lat="40.390153" lon="-4.567674">
        <ele>826.35</ele>
        <time>2021-03-27T15:03:07Z</time>
      </trkpt>
      <trkpt lat="40.390094" lon="-4.567736">
        <ele>826.12</ele>
        <time>2021-03-27T15:03:13Z</time>
      </trkpt>
      <trkpt lat="40.389803" lon="-4.568321">
        <ele>824.34</ele>
        <time>2021-03-27T15:03:18Z</time>
      </trkpt>
      <trkpt lat="40.389449" lon="-4.568147">
        <ele>825.61</ele>
        <time>2021-03-27T15:03:24Z</time>
      </trkpt>
      <trkpt lat="40.388133" lon="-4.567962">
        <ele>833.83</ele>
        <time>2021-03-27T15:03:30Z</time>
      </trkpt>
      <trkpt lat="40.387019" lon="-4.568248">
        <ele>839.32</ele>
        <time>2021-03-27T15:03:35Z</time>
      </trkpt>
      <trkpt lat="40.386323" lon="-4.568262">
        <ele>848.56</ele>
        <time>2021-03-27T15:03:41Z</time>
      </trkpt>
      <trkpt lat="40.384028" lon="-4.567816">
        <ele>856.1</ele>
        <time>2021-03-27T15:03:47Z</time>
      </trkpt>
      <trkpt lat="40.382958" lon="-4.567744">
        <ele>859.92</ele>
        <time>2021-03-27T15:03:52Z</time>
      </trkpt>
      <trkpt lat="40.38263" lon="-4.567959">
        <ele>865.1</ele>
        <time>2021-03-27T15:03:58Z</time>
      </trkpt>
      <trkpt lat="40.38242" lon="-4.568125">
        <ele>870.88</ele>
        <time>2021-03-27T15:04:04Z</time>
      </trkpt>
      <trkpt lat="40.381958" lon="-4.568274">
        <ele>876.84</ele>
        <time>2021-03-27T15:04:09Z</time>
      </trkpt>
      <trkpt lat="40.381297" lon="-4.56842">
        <ele>882.1</ele>
        <time>2021-03-27T15:04:15Z</time>
      </trkpt>
      <trkpt lat="40.380763" lon="-4.568172">
        <ele>888.12</ele>
        <time>2021-03-27T15:04:21Z</time>
      </trkpt>
      <trkpt lat="40.379791" lon="-4.567919">
        <ele>892.92</ele>
        <time>2021-03-27T15:04:26Z</time>
      </trkpt>
      <trkpt lat="40.379378" lon="-4.567545">
        <ele>891.16</ele>
        <time>2021-03-27T15:04:32Z</time>
      </trkpt>
      <trkpt lat="40.379067" lon="-4.567357">
        <ele>889.8</ele>
        <time>2021-03-27T15:04:38Z</time>
      </trkpt>
      <trkpt lat="40.378806" lon="-4.567544">
        <ele>895.16</ele>
        <time>2021-03-27T15:04:43Z</time>
      </trkpt>
      <trkpt lat="40.378212" lon="-4.567388">
        <ele>895.91</ele>
        <time>2021-03-27T15:04:49Z</time>
      </trkpt>
      <trkpt lat="40.378071" lon="-4.567304">
        <ele>894.52</ele>
        <time>2021-03-27T15:04:55Z</time>
      </trkpt>
      <trkpt lat="40.377652" lon="-4.566919">
        <ele>894.37</ele>
        <time>2021-03-27T15:05:00Z</time>
      </trkpt>
      <trkpt lat="40.377288" lon="-4.566535">
        <ele>895.06</ele>
        <time>2021-03-27T15:05:06Z</time>
      </trkpt>
      <trkpt lat="40.377055" lon="-4.566048">
        <ele>898.22</ele>
        <time>2021-03-27T15:05:12Z</time>
      </trkpt>
      <trkpt lat="40.376658" lon="-4.56632">
        <ele>901.04</ele>
        <time>2021-03-27T15:05:17Z</time>
      </trkpt>
      <trkpt lat="40.376221" lon="-4.566464">
        <ele>902.23</ele>
        <time>2021-03-27T15:05:23Z</time>
      </trkpt>
      <trkpt lat="40.375972" lon="-4.566998">
        <ele>902.8</ele>
        <time>2021-03-27T15:05:29Z</time>
      </trkpt>
      <trkpt lat="40.375846" lon="-4.567085">
        <ele>904.39</ele>
        <time>2021-03-27T15:05:34Z</time>
      </trkpt>
      <trkpt lat="40.375702" lon="-4.567074">
        <ele>905.16</ele>
        <time>2021-03-27T15:05:40Z</time>
      </trkpt>
      <trkpt lat="40.375065" lon="-4.566933">
        <ele>906.83</ele>
        <time>2021-03-27T15:05:46Z</time>
      </trkpt>
      <trkpt lat="40.374857" lon="-4.566969">
        <ele>908.17</ele>
        <time>2021-03-27T15:05:51Z</time>
      </trkpt>
      <trkpt lat="40.374755" lon="-4.56711">
        <ele>909.88</ele>
        <time>2021-03-27T15:05:57Z</time>
      </trkpt>
      <trkpt lat="40.374466" lon="-4.567781">
        <ele>915.59</ele>
        <time>2021-03-27T15:06:03Z</time>
      </trkpt>
      <trkpt lat="40.374052" lon="-4.568075">
        <ele>924.59</ele>
        <time>2021-03-27T15:06:08Z</time>
      </trkpt>
      <trkpt lat="40.373875" lon="-4.568135">
        <ele>929.78</ele>
        <time>2021-03-27T15:06:14Z</time>
      </trkpt>
      <trkpt lat="40.373736" lon="-4.568271">
        <ele>933.97</ele>
        <time>2021-03-27T15:06:20Z</time>
      </trkpt>
      <trkpt lat="40.373663" lon="-4.568428">
        <ele>934.23</ele>
        <time>2021-03-27T15:06:25Z</time>
      </trkpt>
      <trkpt lat="40.373566" lon="-4.568754">
        <ele>931.59</ele>
        <time>2021-03-27T15:06:31Z</time>
      </trkpt>
      <trkpt lat="40.373494" lon="-4.568883">
        <ele>931.61</ele>
        <time>2021-03-27T15:06:37Z</time>
      </trkpt>
      <trkpt lat="40.373294" lon="-4.568948">
        <ele>935.29</ele>
        <time>2021-03-27T15:06:42Z</time>
      </trkpt>
      <trkpt lat="40.373076" lon="-4.568972">
        <ele>937.84</ele>
        <time>2021-03-27T15:06:48Z</time>
      </trkpt>
      <trkpt lat="40.372889" lon="-4.568892">
        <ele>940.76</ele>
        <time>2021-03-27T15:06:54Z</time>
      </trkpt>
      <trkpt lat="40.372636" lon="-4.568558">
        <ele>947.84</ele>
        <time>2021-03-27T15:06:59Z</time>
      </trkpt>
      <trkpt lat="40.37247" lon="-4.568465">
        <ele>951.07</ele>
        <time>2021-03-27T15:07:05Z</time>
      </trkpt>
      <trkpt lat="40.372061" lon="-4.568414">
        <ele>958.16</ele>
        <time>2021-03-27T15:07:11Z</time>
      </trkpt>
      <trkpt lat="40.371262" lon="-4.568674">
        <ele>965.58</ele>
        <time>2021-03-27T15:07:16Z</time>
      </trkpt>
      <trkpt lat="40.370392" lon="-4.568901">
        <ele>978.84</ele>
        <time>2021-03-27T15:07:22Z</time>
      </trkpt>
      <trkpt lat="40.369895" lon="-4.569207">
        <ele>985.39</ele>
        <time>2021-03-27T15:07:28Z</time>
      </trkpt>
      <trkpt lat="40.369447" lon="-4.569298">
        <ele>991.14</ele>
        <time>2021-03-27T15:07:33Z</time>
      </trkpt>
      <trkpt lat="40.369143" lon="-4.569497">
        <ele>994.85</ele>
        <time>2021-03-27T15:07:39Z</time>
      </trkpt>
      <trkpt lat="40.369002" lon="-4.569797">
        <ele>996.09</ele>
        <time>2021-03-27T15:07:45Z</time>
      </trkpt>
      <trkpt lat="40.368689" lon="-4.570762">
        <ele>998.79</ele>
        <time>2021-03-27T15:07:50Z</time>
      </trkpt>
      <trkpt lat="40.368401" lon="-4.571232">
        <ele>1005.69</ele>
        <time>2021-03-27T15:07:56Z</time>
      </trkpt>
      <trkpt lat="40.367416" lon="-4.57213">
        <ele>1017.77</ele>
        <time>2021-03-27T15:08:02Z</time>
      </trkpt>
      <trkpt lat="40.367333" lon="-4.572141">
        <ele>1019.55</ele>
        <time>2021-03-27T15:08:07Z</time>
      </trkpt>
      <trkpt lat="40.367214" lon="-4.572106">
        <ele>1023.54</ele>
        <time>2021-03-27T15:08:13Z</time>
      </trkpt>
      <trkpt lat="40.367145" lon="-4.572114">
        <ele>1025.06</ele>
        <time>2021-03-27T15:08:19Z</time>
      </trkpt>
      <trkpt lat="40.366822" lon="-4.572369">
        <ele>1025.65</ele>
        <time>2021-03-27T15:08:24Z</time>
      </trkpt>
      <trkpt lat="40.366376" lon="-4.572546">
        <ele>1031.07</ele>
        <time>2021-03-27T15:08:30Z</time>
      </trkpt>
      <trkpt lat="40.36591" lon="-4.572685">
        <ele>1035.77</ele>
        <time>2021-03-27T15:08:36Z</time>
      </trkpt>
      <trkpt lat="40.365772" lon="-4.572652">
        <ele>1039.61</ele>
        <time>2021-03-27T15:08:41Z</time>
      </trkpt>
      <trkpt lat="40.365732" lon="-4.572582">
        <ele>1043.02</ele>
        <time>2021-03-27T15:08:47Z</time>
      </trkpt>
      <trkpt lat="40.366117" lon="-4.572233">
        <ele>1045.49</ele>
        <time>2021-03-27T15:08:53Z</time>
      </trkpt>
      <trkpt lat="40.36645" lon="-4.571843">
        <ele>1052.65</ele>
        <time>2021-03-27T15:08:58Z</time>
      </trkpt>
      <trkpt lat="40.366689" lon="-4.571354">
        <ele>1069.78</ele>
        <time>2021-03-27T15:09:04Z</time>
      </trkpt>
      <trkpt lat="40.367045" lon="-4.571137">
        <ele>1064.05</ele>
        <time>2021-03-27T15:09:10Z</time>
      </trkpt>
      <trkpt lat="40.367433" lon="-4.57061">
        <ele>1060.53</ele>
        <time>2021-03-27T15:09:15Z</time>
      </trkpt>
      <trkpt lat="40.367505" lon="-4.570216">
        <ele>1071.97</ele>
        <time>2021-03-27T15:09:21Z</time>
      </trkpt>
      <trkpt lat="40.367488" lon="-4.569356">
        <ele>1079.72</ele>
        <time>2021-03-27T15:09:27Z</time>
      </trkpt>
      <trkpt lat="40.367302" lon="-4.568816">
        <ele>1086.0</ele>
        <time>2021-03-27T15:09:32Z</time>
      </trkpt>
      <trkpt lat="40.366988" lon="-4.568528">
        <ele>1092.04</ele>
        <time>2021-03-27T15:09:38Z</time>
      </trkpt>
      <trkpt lat="40.366534" lon="-4.56824">
        <ele>1090.03</ele>
        <time>2021-03-27T15:09:44Z</time>
      </trkpt>
      <trkpt lat="40.365657" lon="-4.56846">
        <ele>1106.97</ele>
        <time>2021-03-27T15:09:49Z</time>
      </trkpt>
      <trkpt lat="40.365036" lon="-4.568815">
        <ele>1112.78</ele>
        <time>2021-03-27T15:09:55Z</time>
      </trkpt>
      <trkpt lat="40.364838" lon="-4.56939">
        <ele>1128.32</ele>
        <time>2021-03-27T15:10:01Z</time>
      </trkpt>
      <trkpt lat="40.364558" lon="-4.569604">
        <ele>1128.99</ele>
        <time>2021-03-27T15:10:06Z</time>
      </trkpt>
      <trkpt lat="40.364282" lon="-4.56963">
        <ele>1128.93</ele>
        <time>2021-03-27T15:10:12Z</time>
      </trkpt>
      <trkpt lat="40.363917" lon="-4.569475">
        <ele>1127.68</ele>
        <time>2021-03-27T15:10:18Z</time>
      </trkpt>
      <trkpt lat="40.363799" lon="-4.569695">
        <ele>1135.8</ele>
        <time>2021-03-27T15:10:23Z</time>
      </trkpt>
      <trkpt lat="40.364193" lon="-4.569992">
        <ele>1136.67</ele>
        <time>2021-03-27T15:10:29Z</time>
      </trkpt>
      <trkpt lat="40.364678" lon="-4.570122">
        <ele>1138.57</ele>
        <time>2021-03-27T15:10:35Z</time>
      </trkpt>
      <trkpt lat="40.364726" lon="-4.570252">
        <ele>1140.63</ele>
        <time>2021-03-27T15:10:40Z</time>
      </trkpt>
      <trkpt lat="40.364627" lon="-4.570368">
        <ele>1142.96</ele>
        <time>2021-03-27T15:10:46Z</time>
      </trkpt>
      <trkpt lat="40.364361" lon="-4.570277">
        <ele>1141.28</ele>
        <time>2021-03-27T15:10:52Z</time>
      </trkpt>
      <trkpt lat="40.363809" lon="-4.570457">
        <ele>1151.04</ele>
        <time>2021-03-27T15:10:57Z</time>
      </trkpt>
      <trkpt lat="40.362989" lon="-4.570473">
        <ele>1162.13</ele>
        <time>2021-03-27T15:11:03Z</time>
      </trkpt>
      <trkpt lat="40.362655" lon="-4.570988">
        <ele>1164.85</ele>
        <time>2021-03-27T15:11:09Z</time>
      </trkpt>
      <trkpt lat="40.362438" lon="-4.571143">
        <ele>1165.12</ele>
        <time>2021-03-27T15:11:14Z</time>
      </trkpt>
      <trkpt lat="40.362157" lon="-4.571097">
        <ele>1168.32</ele>
        <time>2021-03-27T15:11:20Z</time>
      </trkpt>
      <trkpt lat="40.362008" lon="-4.570887">
        <ele>1169.76</ele>
        <time>2021-03-27T15:11:26Z</time>
      </trkpt>
      <trkpt lat="40.36216" lon="-4.569919">
        <ele>1173.54</ele>
        <time>2021-03-27T15:11:31Z</time>
      </trkpt>
      <trkpt lat="40.362102" lon="-4.569694">
        <ele>1175.83</ele>
        <time>2021-03-27T15:11:37Z</time>
      </trkpt>
      <trkpt lat="40.361669" lon="-4.569904">
        <ele>1182.99</ele>
        <time>2021-03-27T15:11:43Z</time>
      </trkpt>
      <trkpt lat="40.361226" lon="-4.56983">
        <ele>1190.62</ele>
        <time>2021-03-27T15:11:48Z</time>
      </trkpt>
      <trkpt lat="40.36084" lon="-4.569645">
        <ele>1194.26</ele>
        <time>2021-03-27T15:11:54Z</time>
      </trkpt>
      <trkpt lat="40.36072" lon="-4.569295">
        <ele>1195.15</ele>
        <time>2021-03-27T15:12:00Z</time>
      </trkpt>
      <trkpt lat="40.360621" lon="-4.569085">
        <ele>1193.7</ele>
        <time>2021-03-27T15:12:05Z</time>
      </trkpt>
      <trkpt lat="40.360474" lon="-4.569">
        <ele>1194.23</ele>
        <time>2021-03-27T15:12:11Z</time>
      </trkpt>
      <trkpt lat="40.359301" lon="-4.569073">
        <ele>1215.96</ele>
        <time>2021-03-27T15:12:17Z</time>
      </trkpt>
      <trkpt lat="40.358399" lon="-4.569224">
        <ele>1230.13</ele>
        <time>2021-03-27T15:12:22Z</time>
      </trkpt>
      <trkpt lat="40.357758" lon="-4.569505">
        <ele>1233.71</ele>
        <time>2021-03-27T15:12:28Z</time>
      </trkpt>
      <trkpt lat="40.356312" lon="-4.569545">
        <ele>1249.1</ele>
        <time>2021-03-27T15:12:34Z</time>
      </trkpt>
      <trkpt lat="40.356245" lon="-4.569465">
        <ele>1251.41</ele>
        <time>2021-03-27T15:12:39Z</time>
      </trkpt>
      <trkpt lat="40.356281" lon="-4.56931">
        <ele>1256.07</ele>
        <time>2021-03-27T15:12:45Z</time>
      </trkpt>
      <trkpt lat="40.357058" lon="-4.568669">
        <ele>1260.83</ele>
        <time>2021-03-27T15:12:51Z</time>
      </trkpt>
      <trkpt lat="40.357756" lon="-4.56818">
        <ele>1266.96</ele>
        <time>2021-03-27T15:12:56Z</time>
      </trkpt>
      <trkpt lat="40.358281" lon="-4.567277">
        <ele>1274.51</ele>
        <time>2021-03-27T15:13:02Z</time>
      </trkpt>
      <trkpt lat="40.358559" lon="-4.566451">
        <ele>1286.68</ele>
        <time>2021-03-27T15:13:08Z</time>
      </trkpt>
      <trkpt lat="40.358504" lon="-4.566339">
        <ele>1289.91</ele>
        <time>2021-03-27T15:13:13Z</time>
      </trkpt>
      <trkpt lat="40.35843" lon="-4.566307">
        <ele>1291.26</ele>
        <time>2021-03-27T15:13:19Z</time>
      </trkpt>
      <trkpt lat="40.357804" lon="-4.566855">
        <ele>1294.51</ele>
        <time>2021-03-27T15:13:25Z</time>
      </trkpt>
      <trkpt lat="40.357332" lon="-4.567181">
        <ele>1300.39</ele>
        <time>2021-03-27T15:13:30Z</time>
      </trkpt>
      <trkpt lat="40.356814" lon="-4.56734">
        <ele>1308.1</ele>
        <time>2021-03-27T15:13:36Z</time>
      </trkpt>
      <trkpt lat="40.355843" lon="-4.567579">
        <ele>1315.09</ele>
        <time>2021-03-27T15:13:42Z</time>
      </trkpt>
      <trkpt lat="40.354751" lon="-4.567416">
        <ele>1328.13</ele>
        <time>2021-03-27T15:13:47Z</time>
      </trkpt>
      <trkpt lat="40.354133" lon="-4.567849">
        <ele>1336.71</ele>
        <time>2021-03-27T15:13:53Z</time>
      </trkpt>
      <trkpt lat="40.353632" lon="-4.568119">
        <ele>1342.38</ele>
        <time>2021-03-27T15:13:58Z</time>
      </trkpt>
      <trkpt lat="40.353309" lon="-4.568164">
        <ele>1347.99</ele>
        <time>2021-03-27T15:14:04Z</time>
      </trkpt>
      <trkpt lat="40.352725" lon="-4.56792">
        <ele>1353.16</ele>
        <time>2021-03-27T15:14:10Z</time>
      </trkpt>
      <trkpt lat="40.352152" lon="-4.567823">
        <ele>1363.14</ele>
        <time>2021-03-27T15:14:15Z</time>
      </trkpt>
      <trkpt lat="40.351464" lon="-4.568652">
        <ele>1362.2</ele>
        <time>2021-03-27T15:14:21Z</time>
      </trkpt>
      <trkpt lat="40.351077" lon="-4.568922">
        <ele>1370.77</ele>
        <time>2021-03-27T15:14:27Z</time>
      </trkpt>
      <trkpt lat="40.35096" lon="-4.56922">
        <ele>1368.61</ele>
        <time>2021-03-27T15:14:32Z</time>
      </trkpt>
      <trkpt lat="40.350095" lon="-4.569862">
        <ele>1377.07</ele>
        <time>2021-03-27T15:14:38Z</time>
      </trkpt>
      <trkpt lat="40.349887" lon="-4.569882">
        <ele>1388.98</ele>
        <time>2021-03-27T15:14:44Z</time>
      </trkpt>
      <trkpt lat="40.349887" lon="-4.569882">
        <ele>1388.98</ele>
        <time>2021-03-27T15:14:44Z</time>
      </trkpt>
      <trkpt lat="40.347437" lon="-4.570113">
        <ele>1400.9</ele>
        <time>2021-03-27T15:14:48Z</time>
      </trkpt>
      <trkpt lat="40.345848" lon="-4.570023">
        <ele>1428.01</ele>
        <time>2021-03-27T15:14:53Z</time>
      </trkpt>
      <trkpt lat="40.345594" lon="-4.570816">
        <ele>1430.17</ele>
        <time>2021-03-27T15:14:58Z</time>
      </trkpt>
      <trkpt lat="40.345703" lon="-4.571581">
        <ele>1430.92</ele>
        <time>2021-03-27T15:15:02Z</time>
      </trkpt>
      <trkpt lat="40.344789" lon="-4.573023">
        <ele>1446.25</ele>
        <time>2021-03-27T15:15:07Z</time>
      </trkpt>
      <trkpt lat="40.344177" lon="-4.574438">
        <ele>1457.52</ele>
        <time>2021-03-27T15:15:11Z</time>
      </trkpt>
      <trkpt lat="40.34383" lon="-4.575078">
        <ele>1465.49</ele>
        <time>2021-03-27T15:15:16Z</time>
      </trkpt>
      <trkpt lat="40.343155" lon="-4.575279">
        <ele>1466.08</ele>
        <time>2021-03-27T15:15:20Z</time>
      </trkpt>
      <trkpt lat="40.342853" lon="-4.575321">
        <ele>1461.55</ele>
        <time>2021-03-27T15:15:25Z</time>
      </trkpt>
      <trkpt lat="40.342716" lon="-4.575068">
        <ele>1458.61</ele>
        <time>2021-03-27T15:15:30Z</time>
      </trkpt>
      <trkpt lat="40.342201" lon="-4.574419">
        <ele>1453.61</ele>
        <time>2021-03-27T15:15:34Z</time>
      </trkpt>
      <trkpt lat="40.341686" lon="-4.573851">
        <ele>1450.89</ele>
        <time>2021-03-27T15:15:39Z</time>
      </trkpt>
      <trkpt lat="40.340655" lon="-4.573129">
        <ele>1445.46</ele>
        <time>2021-03-27T15:15:43Z</time>
      </trkpt>
      <trkpt lat="40.340409" lon="-4.573091">
        <ele>1440.42</ele>
        <time>2021-03-27T15:15:48Z</time>
      </trkpt>
      <trkpt lat="40.340316" lon="-4.573152">
        <ele>1436.53</ele>
        <time>2021-03-27T15:15:52Z</time>
      </trkpt>
      <trkpt lat="40.340328" lon="-4.573253">
        <ele>1434.29</ele>
        <time>2021-03-27T15:15:57Z</time>
      </trkpt>
      <trkpt lat="40.340612" lon="-4.573675">
        <ele>1429.6</ele>
        <time>2021-03-27T15:16:02Z</time>
      </trkpt>
      <trkpt lat="40.341177" lon="-4.574428">
        <ele>1419.77</ele>
        <time>2021-03-27T15:16:06Z</time>
      </trkpt>
      <trkpt lat="40.341342" lon="-4.574861">
        <ele>1416.81</ele>
        <time>2021-03-27T15:16:11Z</time>
      </trkpt>
      <trkpt lat="40.341445" lon="-4.575249">
        <ele>1416.05</ele>
        <time>2021-03-27T15:16:15Z</time>
      </trkpt>
      <trkpt lat="40.341376" lon="-4.575565">
        <ele>1413.38</ele>
        <time>2021-03-27T15:16:20Z</time>
      </trkpt>
      <trkpt lat="40.340379" lon="-4.576907">
        <ele>1394.02</ele>
        <time>2021-03-27T15:16:24Z</time>
      </trkpt>
      <trkpt lat="40.339885" lon="-4.577077">
        <ele>1383.37</ele>
        <time>2021-03-27T15:16:29Z</time>
      </trkpt>
      <trkpt lat="40.339494" lon="-4.57724">
        <ele>1375.65</ele>
        <time>2021-03-27T15:16:34Z</time>
      </trkpt>
      <trkpt lat="40.339118" lon="-4.577506">
        <ele>1371.26</ele>
        <time>2021-03-27T15:16:38Z</time>
      </trkpt>
      <trkpt lat="40.338859" lon="-4.577819">
        <ele>1372.77</ele>
        <time>2021-03-27T15:16:43Z</time>
      </trkpt>
      <trkpt lat="40.338765" lon="-4.577838">
        <ele>1373.29</ele>
        <time>2021-03-27T15:16:47Z</time>
      </trkpt>
      <trkpt lat="40.338604" lon="-4.577429">
        <ele>1366.49</ele>
        <time>2021-03-27T15:16:52Z</time>
      </trkpt>
      <trkpt lat="40.338399" lon="-4.577251">
        <ele>1362.7</ele>
        <time>2021-03-27T15:16:56Z</time>
      </trkpt>
      <trkpt lat="40.338018" lon="-4.577285">
        <ele>1360.79</ele>
        <time>2021-03-27T15:17:01Z</time>
      </trkpt>
      <trkpt lat="40.337523" lon="-4.5775">
        <ele>1355.5</ele>
        <time>2021-03-27T15:17:06Z</time>
      </trkpt>
      <trkpt lat="40.337159" lon="-4.577746">
        <ele>1350.86</ele>
        <time>2021-03-27T15:17:10Z</time>
      </trkpt>
      <trkpt lat="40.33668" lon="-4.578478">
        <ele>1345.91</ele>
        <time>2021-03-27T15:17:15Z</time>
      </trkpt>
      <trkpt lat="40.336641" lon="-4.578565">
        <ele>1346.78</ele>
        <time>2021-03-27T15:17:19Z</time>
      </trkpt>
      <trkpt lat="40.336555" lon="-4.578578">
        <ele>1345.7</ele>
        <time>2021-03-27T15:17:24Z</time>
      </trkpt>
      <trkpt lat="40.336275" lon="-4.5784">
        <ele>1337.73</ele>
        <time>2021-03-27T15:17:28Z</time>
      </trkpt>
      <trkpt lat="40.336197" lon="-4.578371">
        <ele>1336.18</ele>
        <time>2021-03-27T15:17:33Z</time>
      </trkpt>
      <trkpt lat="40.336115" lon="-4.578377">
        <ele>1335.61</ele>
        <time>2021-03-27T15:17:38Z</time>
      </trkpt>
      <trkpt lat="40.336038" lon="-4.578344">
        <ele>1334.86</ele>
        <time>2021-03-27T15:17:42Z</time>
      </trkpt>
      <trkpt lat="40.335959" lon="-4.578359">
        <ele>1335.77</ele>
        <time>2021-03-27T15:17:47Z</time>
      </trkpt>
      <trkpt lat="40.335805" lon="-4.57843">
        <ele>1337.37</ele>
        <time>2021-03-27T15:17:51Z</time>
      </trkpt>
      <trkpt lat="40.335456" lon="-4.57869">
        <ele>1338.29</ele>
        <time>2021-03-27T15:17:56Z</time>
      </trkpt>
      <trkpt lat="40.334973" lon="-4.578818">
        <ele>1332.98</ele>
        <time>2021-03-27T15:18:00Z</time>
      </trkpt>
      <trkpt lat="40.334639" lon="-4.579105">
        <ele>1333.01</ele>
        <time>2021-03-27T15:18:05Z</time>
      </trkpt>
      <trkpt lat="40.334391" lon="-4.579455">
        <ele>1335.73</ele>
        <time>2021-03-27T15:18:10Z</time>
      </trkpt>
      <trkpt lat="40.334158" lon="-4.579847">
        <ele>1333.18</ele>
        <time>2021-03-27T15:18:14Z</time>
      </trkpt>
      <trkpt lat="40.334015" lon="-4.58027">
        <ele>1334.65</ele>
        <time>2021-03-27T15:18:19Z</time>
      </trkpt>
      <trkpt lat="40.333973" lon="-4.580615">
        <ele>1336.37</ele>
        <time>2021-03-27T15:18:23Z</time>
      </trkpt>
      <trkpt lat="40.333962" lon="-4.581011">
        <ele>1337.33</ele>
        <time>2021-03-27T15:18:28Z</time>
      </trkpt>
      <trkpt lat="40.333912" lon="-4.581243">
        <ele>1335.94</ele>
        <time>2021-03-27T15:18:32Z</time>
      </trkpt>
      <trkpt lat="40.333672" lon="-4.581668">
        <ele>1332.99</ele>
        <time>2021-03-27T15:18:37Z</time>
      </trkpt>
      <trkpt lat="40.333586" lon="-4.581772">
        <ele>1331.78</ele>
        <time>2021-03-27T15:18:42Z</time>
      </trkpt>
      <trkpt lat="40.333498" lon="-4.581815">
        <ele>1331.22</ele>
        <time>2021-03-27T15:18:46Z</time>
      </trkpt>
      <trkpt lat="40.333013" lon="-4.581795">
        <ele>1325.62</ele>
        <time>2021-03-27T15:18:51Z</time>
      </trkpt>
      <trkpt lat="40.332258" lon="-4.582047">
        <ele>1317.41</ele>
        <time>2021-03-27T15:18:55Z</time>
      </trkpt>
      <trkpt lat="40.33214" lon="-4.582131">
        <ele>1316.01</ele>
        <time>2021-03-27T15:19:00Z</time>
      </trkpt>
      <trkpt lat="40.332033" lon="-4.582242">
        <ele>1314.83</ele>
        <time>2021-03-27T15:19:04Z</time>
      </trkpt>
      <trkpt lat="40.331828" lon="-4.582477">
        <ele>1311.92</ele>
        <time>2021-03-27T15:19:09Z</time>
      </trkpt>
      <trkpt lat="40.331571" lon="-4.582885">
        <ele>1309.36</ele>
        <time>2021-03-27T15:19:14Z</time>
      </trkpt>
      <trkpt lat="40.331352" lon="-4.583632">
        <ele>1302.2</ele>
        <time>2021-03-27T15:19:18Z</time>
      </trkpt>
      <trkpt lat="40.331231" lon="-4.583917">
        <ele>1298.99</ele>
        <time>2021-03-27T15:19:23Z</time>
      </trkpt>
      <trkpt lat="40.331182" lon="-4.584218">
        <ele>1297.48</ele>
        <time>2021-03-27T15:19:27Z</time>
      </trkpt>
      <trkpt lat="40.331102" lon="-4.584414">
        <ele>1295.89</ele>
        <time>2021-03-27T15:19:32Z</time>
      </trkpt>
      <trkpt lat="40.33089" lon="-4.584613">
        <ele>1293.49</ele>
        <time>2021-03-27T15:19:36Z</time>
      </trkpt>
      <trkpt lat="40.330629" lon="-4.584772">
        <ele>1290.66</ele>
        <time>2021-03-27T15:19:41Z</time>
      </trkpt>
      <trkpt lat="40.330547" lon="-4.584749">
        <ele>1289.67</ele>
        <time>2021-03-27T15:19:46Z</time>
      </trkpt>
      <trkpt lat="40.330477" lon="-4.58466">
        <ele>1287.43</ele>
        <time>2021-03-27T15:19:50Z</time>
      </trkpt>
      <trkpt lat="40.330444" lon="-4.584548">
        <ele>1286.03</ele>
        <time>2021-03-27T15:19:55Z</time>
      </trkpt>
      <trkpt lat="40.330448" lon="-4.58442">
        <ele>1285.53</ele>
        <time>2021-03-27T15:19:59Z</time>
      </trkpt>
      <trkpt lat="40.330577" lon="-4.583911">
        <ele>1283.77</ele>
        <time>2021-03-27T15:20:04Z</time>
      </trkpt>
      <trkpt lat="40.330507" lon="-4.583582">
        <ele>1281.75</ele>
        <time>2021-03-27T15:20:08Z</time>
      </trkpt>
      <trkpt lat="40.330409" lon="-4.583285">
        <ele>1278.02</ele>
        <time>2021-03-27T15:20:13Z</time>
      </trkpt>
      <trkpt lat="40.330283" lon="-4.583001">
        <ele>1273.9</ele>
        <time>2021-03-27T15:20:18Z</time>
      </trkpt>
      <trkpt lat="40.329907" lon="-4.582201">
        <ele>1266.04</ele>
        <time>2021-03-27T15:20:22Z</time>
      </trkpt>
      <trkpt lat="40.329825" lon="-4.582083">
        <ele>1264.4</ele>
        <time>2021-03-27T15:20:27Z</time>
      </trkpt>
      <trkpt lat="40.329778" lon="-4.58195">
        <ele>1263.41</ele>
        <time>2021-03-27T15:20:31Z</time>
      </trkpt>
      <trkpt lat="40.329809" lon="-4.581712">
        <ele>1262.51</ele>
        <time>2021-03-27T15:20:36Z</time>
      </trkpt>
      <trkpt lat="40.329737" lon="-4.580967">
        <ele>1257.77</ele>
        <time>2021-03-27T15:20:40Z</time>
      </trkpt>
      <trkpt lat="40.329648" lon="-4.580795">
        <ele>1256.43</ele>
        <time>2021-03-27T15:20:45Z</time>
      </trkpt>
      <trkpt lat="40.329527" lon="-4.580788">
        <ele>1255.48</ele>
        <time>2021-03-27T15:20:50Z</time>
      </trkpt>
      <trkpt lat="40.329428" lon="-4.580868">
        <ele>1254.99</ele>
        <time>2021-03-27T15:20:54Z</time>
      </trkpt>
      <trkpt lat="40.328962" lon="-4.582065">
        <ele>1252.0</ele>
        <time>2021-03-27T15:20:59Z</time>
      </trkpt>
      <trkpt lat="40.328883" lon="-4.582206">
        <ele>1250.05</ele>
        <time>2021-03-27T15:21:03Z</time>
      </trkpt>
      <trkpt lat="40.328573" lon="-4.582342">
        <ele>1245.43</ele>
        <time>2021-03-27T15:21:08Z</time>
      </trkpt>
      <trkpt lat="40.328" lon="-4.582544">
        <ele>1237.84</ele>
        <time>2021-03-27T15:21:12Z</time>
      </trkpt>
      <trkpt lat="40.327896" lon="-4.582649">
        <ele>1235.47</ele>
        <time>2021-03-27T15:21:17Z</time>
      </trkpt>
      <trkpt lat="40.327865" lon="-4.582745">
        <ele>1233.82</ele>
        <time>2021-03-27T15:21:22Z</time>
      </trkpt>
      <trkpt lat="40.32814" lon="-4.583058">
        <ele>1230.19</ele>
        <time>2021-03-27T15:21:26Z</time>
      </trkpt>
      <trkpt lat="40.328203" lon="-4.583185">
        <ele>1230.23</ele>
        <time>2021-03-27T15:21:31Z</time>
      </trkpt>
      <trkpt lat="40.328243" lon="-4.58334">
        <ele>1230.04</ele>
        <time>2021-03-27T15:21:35Z</time>
      </trkpt>
      <trkpt lat="40.328224" lon="-4.583744">
        <ele>1228.66</ele>
        <time>2021-03-27T15:21:40Z</time>
      </trkpt>
      <trkpt lat="40.328031" lon="-4.584181">
        <ele>1222.46</ele>
        <time>2021-03-27T15:21:44Z</time>
      </trkpt>
      <trkpt lat="40.327778" lon="-4.584563">
        <ele>1217.0</ele>
        <time>2021-03-27T15:21:49Z</time>
      </trkpt>
      <trkpt lat="40.327485" lon="-4.584742">
        <ele>1215.01</ele>
        <time>2021-03-27T15:21:54Z</time>
      </trkpt>
      <trkpt lat="40.327134" lon="-4.585172">
        <ele>1215.63</ele>
        <time>2021-03-27T15:21:58Z</time>
      </trkpt>
      <trkpt lat="40.3268" lon="-4.585617">
        <ele>1209.3</ele>
        <time>2021-03-27T15:22:03Z</time>
      </trkpt>
      <trkpt lat="40.326455" lon="-4.585958">
        <ele>1204.68</ele>
        <time>2021-03-27T15:22:07Z</time>
      </trkpt>
      <trkpt lat="40.326195" lon="-4.586326">
        <ele>1200.74</ele>
        <time>2021-03-27T15:22:12Z</time>
      </trkpt>
      <trkpt lat="40.326127" lon="-4.586448">
        <ele>1199.42</ele>
        <time>2021-03-27T15:22:16Z</time>
      </trkpt>
      <trkpt lat="40.326076" lon="-4.586592">
        <ele>1198.21</ele>
        <time>2021-03-27T15:22:21Z</time>
      </trkpt>
      <trkpt lat="40.326064" lon="-4.586808">
        <ele>1196.56</ele>
        <time>2021-03-27T15:22:26Z</time>
      </trkpt>
      <trkpt lat="40.326082" lon="-4.587018">
        <ele>1194.69</ele>
        <time>2021-03-27T15:22:30Z</time>
      </trkpt>
      <trkpt lat="40.32618" lon="-4.587399">
        <ele>1193.3</ele>
        <time>2021-03-27T15:22:35Z</time>
      </trkpt>
      <trkpt lat="40.32627" lon="-4.587622">
        <ele>1193.78</ele>
        <time>2021-03-27T15:22:39Z</time>
      </trkpt>
      <trkpt lat="40.326397" lon="-4.587826">
        <ele>1194.68</ele>
        <time>2021-03-27T15:22:44Z</time>
      </trkpt>
      <trkpt lat="40.326686" lon="-4.588131">
        <ele>1197.06</ele>
        <time>2021-03-27T15:22:48Z</time>
      </trkpt>
      <trkpt lat="40.326741" lon="-4.588233">
        <ele>1196.42</ele>
        <time>2021-03-27T15:22:53Z</time>
      </trkpt>
      <trkpt lat="40.326731" lon="-4.588329">
        <ele>1194.48</ele>
        <time>2021-03-27T15:22:58Z</time>
      </trkpt>
      <trkpt lat="40.326607" lon="-4.588313">
        <ele>1192.27</ele>
        <time>2021-03-27T15:23:02Z</time>
      </trkpt>
      <trkpt lat="40.326187" lon="-4.588112">
        <ele>1186.09</ele>
        <time>2021-03-27T15:23:07Z</time>
      </trkpt>
      <trkpt lat="40.325735" lon="-4.587927">
        <ele>1178.26</ele>
        <time>2021-03-27T15:23:11Z</time>
      </trkpt>
      <trkpt lat="40.325195" lon="-4.58739">
        <ele>1176.17</ele>
        <time>2021-03-27T15:23:16Z</time>
      </trkpt>
      <trkpt lat="40.325076" lon="-4.587358">
        <ele>1174.98</ele>
        <time>2021-03-27T15:23:20Z</time>
      </trkpt>
      <trkpt lat="40.324998" lon="-4.587403">
        <ele>1173.68</ele>
        <time>2021-03-27T15:23:25Z</time>
      </trkpt>
      <trkpt lat="40.32483" lon="-4.587581">
        <ele>1171.55</ele>
        <time>2021-03-27T15:23:30Z</time>
      </trkpt>
      <trkpt lat="40.324716" lon="-4.587654">
        <ele>1170.96</ele>
        <time>2021-03-27T15:23:34Z</time>
      </trkpt>
      <trkpt lat="40.324615" lon="-4.587657">
        <ele>1170.28</ele>
        <time>2021-03-27T15:23:39Z</time>
      </trkpt>
      <trkpt lat="40.324511" lon="-4.587612">
        <ele>1169.34</ele>
        <time>2021-03-27T15:23:43Z</time>
      </trkpt>
      <trkpt lat="40.324295" lon="-4.587382">
        <ele>1165.54</ele>
        <time>2021-03-27T15:23:48Z</time>
      </trkpt>
      <trkpt lat="40.324083" lon="-4.587352">
        <ele>1163.03</ele>
        <time>2021-03-27T15:23:52Z</time>
      </trkpt>
      <trkpt lat="40.323784" lon="-4.587198">
        <ele>1158.78</ele>
        <time>2021-03-27T15:23:57Z</time>
      </trkpt>
      <trkpt lat="40.323231" lon="-4.586817">
        <ele>1151.8</ele>
        <time>2021-03-27T15:24:02Z</time>
      </trkpt>
      <trkpt lat="40.322659" lon="-4.586809">
        <ele>1145.3</ele>
        <time>2021-03-27T15:24:06Z</time>
      </trkpt>
      <trkpt lat="40.322391" lon="-4.586645">
        <ele>1141.32</ele>
        <time>2021-03-27T15:24:11Z</time>
      </trkpt>
      <trkpt lat="40.322267" lon="-4.586521">
        <ele>1138.68</ele>
        <time>2021-03-27T15:24:15Z</time>
      </trkpt>
      <trkpt lat="40.322136" lon="-4.586429">
        <ele>1135.79</ele>
        <time>2021-03-27T15:24:20Z</time>
      </trkpt>
      <trkpt lat="40.322013" lon="-4.586404">
        <ele>1133.4</ele>
        <time>2021-03-27T15:24:24Z</time>
      </trkpt>
      <trkpt lat="40.321955" lon="-4.586442">
        <ele>1132.77</ele>
        <time>2021-03-27T15:24:29Z</time>
      </trkpt>
      <trkpt lat="40.321834" lon="-4.586679">
        <ele>1133.11</ele>
        <time>2021-03-27T15:24:34Z</time>
      </trkpt>
      <trkpt lat="40.321542" lon="-4.587009">
        <ele>1132.02</ele>
        <time>2021-03-27T15:24:38Z</time>
      </trkpt>
      <trkpt lat="40.321084" lon="-4.587471">
        <ele>1130.81</ele>
        <time>2021-03-27T15:24:43Z</time>
      </trkpt>
      <trkpt lat="40.320997" lon="-4.587662">
        <ele>1130.93</ele>
        <time>2021-03-27T15:24:47Z</time>
      </trkpt>
      <trkpt lat="40.32099" lon="-4.587947">
        <ele>1130.86</ele>
        <time>2021-03-27T15:24:52Z</time>
      </trkpt>
      <trkpt lat="40.32094" lon="-4.588007">
        <ele>1130.26</ele>
        <time>2021-03-27T15:24:56Z</time>
      </trkpt>
      <trkpt lat="40.320859" lon="-4.587973">
        <ele>1129.55</ele>
        <time>2021-03-27T15:25:01Z</time>
      </trkpt>
      <trkpt lat="40.320759" lon="-4.587763">
        <ele>1129.19</ele>
        <time>2021-03-27T15:25:06Z</time>
      </trkpt>
      <trkpt lat="40.320677" lon="-4.587515">
        <ele>1128.31</ele>
        <time>2021-03-27T15:25:10Z</time>
      </trkpt>
      <trkpt lat="40.320576" lon="-4.587101">
        <ele>1127.71</ele>
        <time>2021-03-27T15:25:15Z</time>
      </trkpt>
      <trkpt lat="40.320516" lon="-4.586936">
        <ele>1126.69</ele>
        <time>2021-03-27T15:25:19Z</time>
      </trkpt>
      <trkpt lat="40.320442" lon="-4.586846">
        <ele>1125.83</ele>
        <time>2021-03-27T15:25:24Z</time>
      </trkpt>
      <trkpt lat="40.320067" lon="-4.586685">
        <ele>1122.55</ele>
        <time>2021-03-27T15:25:28Z</time>
      </trkpt>
      <trkpt lat="40.319824" lon="-4.586516">
        <ele>1120.48</ele>
        <time>2021-03-27T15:25:33Z</time>
      </trkpt>
      <trkpt lat="40.319357" lon="-4.586055">
        <ele>1115.23</ele>
        <time>2021-03-27T15:25:37Z</time>
      </trkpt>
      <trkpt lat="40.31897" lon="-4.585859">
        <ele>1114.0</ele>
        <time>2021-03-27T15:25:42Z</time>
      </trkpt>
      <trkpt lat="40.319032" lon="-4.585605">
        <ele>1112.76</ele>
        <time>2021-03-27T15:25:47Z</time>
      </trkpt>
      <trkpt lat="40.319014" lon="-4.585459">
        <ele>1111.35</ele>
        <time>2021-03-27T15:25:51Z</time>
      </trkpt>
      <trkpt lat="40.319899" lon="-4.58411">
        <ele>1101.18</ele>
        <time>2021-03-27T15:25:56Z</time>
      </trkpt>
      <trkpt lat="40.320028" lon="-4.584026">
        <ele>1100.03</ele>
        <time>2021-03-27T15:26:00Z</time>
      </trkpt>
      <trkpt lat="40.320092" lon="-4.583773">
        <ele>1098.11</ele>
        <time>2021-03-27T15:26:05Z</time>
      </trkpt>
      <trkpt lat="40.320138" lon="-4.582869">
        <ele>1095.82</ele>
        <time>2021-03-27T15:26:09Z</time>
      </trkpt>
      <trkpt lat="40.32046" lon="-4.581068">
        <ele>1090.9</ele>
        <time>2021-03-27T15:26:14Z</time>
      </trkpt>
      <trkpt lat="40.320845" lon="-4.580563">
        <ele>1087.21</ele>
        <time>2021-03-27T15:26:19Z</time>
      </trkpt>
      <trkpt lat="40.321082" lon="-4.580413">
        <ele>1088.61</ele>
        <time>2021-03-27T15:26:23Z</time>
      </trkpt>
      <trkpt lat="40.321251" lon="-4.580145">
        <ele>1088.32</ele>
        <time>2021-03-27T15:26:28Z</time>
      </trkpt>
      <trkpt lat="40.321397" lon="-4.579979">
        <ele>1088.73</ele>
        <time>2021-03-27T15:26:32Z</time>
      </trkpt>
      <trkpt lat="40.321585" lon="-4.579862">
        <ele>1088.43</ele>
        <time>2021-03-27T15:26:37Z</time>
      </trkpt>
      <trkpt lat="40.321824" lon="-4.579788">
        <ele>1088.61</ele>
        <time>2021-03-27T15:26:41Z</time>
      </trkpt>
      <trkpt lat="40.322002" lon="-4.579767">
        <ele>1088.59</ele>
        <time>2021-03-27T15:26:46Z</time>
      </trkpt>
      <trkpt lat="40.322095" lon="-4.579665">
        <ele>1088.14</ele>
        <time>2021-03-27T15:26:51Z</time>
      </trkpt>
      <trkpt lat="40.322097" lon="-4.57947">
        <ele>1086.73</ele>
        <time>2021-03-27T15:26:55Z</time>
      </trkpt>
      <trkpt lat="40.322071" lon="-4.579294">
        <ele>1085.13</ele>
        <time>2021-03-27T15:27:00Z</time>
      </trkpt>
      <trkpt lat="40.321938" lon="-4.578945">
        <ele>1082.39</ele>
        <time>2021-03-27T15:27:04Z</time>
      </trkpt>
      <trkpt lat="40.321757" lon="-4.578232">
        <ele>1078.98</ele>
        <time>2021-03-27T15:27:09Z</time>
      </trkpt>
      <trkpt lat="40.321318" lon="-4.577233">
        <ele>1070.0</ele>
        <time>2021-03-27T15:27:13Z</time>
      </trkpt>
      <trkpt lat="40.321231" lon="-4.57714">
        <ele>1067.41</ele>
        <time>2021-03-27T15:27:18Z</time>
      </trkpt>
      <trkpt lat="40.321029" lon="-4.577005">
        <ele>1062.85</ele>
        <time>2021-03-27T15:27:23Z</time>
      </trkpt>
      <trkpt lat="40.320966" lon="-4.576918">
        <ele>1061.1</ele>
        <time>2021-03-27T15:27:27Z</time>
      </trkpt>
      <trkpt lat="40.320975" lon="-4.576826">
        <ele>1060.03</ele>
        <time>2021-03-27T15:27:32Z</time>
      </trkpt>
      <trkpt lat="40.321167" lon="-4.576296">
        <ele>1054.93</ele>
        <time>2021-03-27T15:27:36Z</time>
      </trkpt>
      <trkpt lat="40.321084" lon="-4.576044">
        <ele>1051.06</ele>
        <time>2021-03-27T15:27:41Z</time>
      </trkpt>
      <trkpt lat="40.320886" lon="-4.575822">
        <ele>1044.99</ele>
        <time>2021-03-27T15:27:45Z</time>
      </trkpt>
      <trkpt lat="40.320897" lon="-4.57572">
        <ele>1043.1</ele>
        <time>2021-03-27T15:27:50Z</time>
      </trkpt>
      <trkpt lat="40.320948" lon="-4.57568">
        <ele>1042.42</ele>
        <time>2021-03-27T15:27:55Z</time>
      </trkpt>
      <trkpt lat="40.321101" lon="-4.575651">
        <ele>1042.05</ele>
        <time>2021-03-27T15:27:59Z</time>
      </trkpt>
      <trkpt lat="40.321383" lon="-4.575835">
        <ele>1046.04</ele>
        <time>2021-03-27T15:28:04Z</time>
      </trkpt>
      <trkpt lat="40.321628" lon="-4.576022">
        <ele>1045.46</ele>
        <time>2021-03-27T15:28:08Z</time>
      </trkpt>
      <trkpt lat="40.321864" lon="-4.576448">
        <ele>1045.2</ele>
        <time>2021-03-27T15:28:13Z</time>
      </trkpt>
      <trkpt lat="40.322235" lon="-4.576848">
        <ele>1040.31</ele>
        <time>2021-03-27T15:28:17Z</time>
      </trkpt>
      <trkpt lat="40.322661" lon="-4.577377">
        <ele>1035.65</ele>
        <time>2021-03-27T15:28:22Z</time>
      </trkpt>
      <trkpt lat="40.322825" lon="-4.577525">
        <ele>1031.72</ele>
        <time>2021-03-27T15:28:27Z</time>
      </trkpt>
      <trkpt lat="40.323047" lon="-4.577927">
        <ele>1022.59</ele>
        <time>2021-03-27T15:28:31Z</time>
      </trkpt>
      <trkpt lat="40.323146" lon="-4.577965">
        <ele>1020.95</ele>
        <time>2021-03-27T15:28:36Z</time>
      </trkpt>
      <trkpt lat="40.323188" lon="-4.577931">
        <ele>1019.98</ele>
        <time>2021-03-27T15:28:40Z</time>
      </trkpt>
      <trkpt lat="40.323113" lon="-4.57785">
        <ele>1020.54</ele>
        <time>2021-03-27T15:28:43Z</time>
      </trkpt>
      <trkpt lat="40.323023" lon="-4.577653">
        <ele>1021.93</ele>
        <time>2021-03-27T15:28:45Z</time>
      </trkpt>
      <trkpt lat="40.322749" lon="-4.577014">
        <ele>1018.83</ele>
        <time>2021-03-27T15:28:48Z</time>
      </trkpt>
      <trkpt lat="40.322595" lon="-4.576571">
        <ele>1017.04</ele>
        <time>2021-03-27T15:28:50Z</time>
      </trkpt>
      <trkpt lat="40.322426" lon="-4.576206">
        <ele>1015.26</ele>
        <time>2021-03-27T15:28:52Z</time>
      </trkpt>
      <trkpt lat="40.322183" lon="-4.575292">
        <ele>1001.09</ele>
        <time>2021-03-27T15:28:55Z</time>
      </trkpt>
      <trkpt lat="40.321882" lon="-4.574734">
        <ele>1003.08</ele>
        <time>2021-03-27T15:28:57Z</time>
      </trkpt>
      <trkpt lat="40.321757" lon="-4.574572">
        <ele>1005.58</ele>
        <time>2021-03-27T15:28:59Z</time>
      </trkpt>
      <trkpt lat="40.321425" lon="-4.5743">
        <ele>1003.14</ele>
        <time>2021-03-27T15:29:02Z</time>
      </trkpt>
      <trkpt lat="40.320943" lon="-4.573942">
        <ele>1001.95</ele>
        <time>2021-03-27T15:29:04Z</time>
      </trkpt>
      <trkpt lat="40.320705" lon="-4.573803">
        <ele>1003.25</ele>
        <time>2021-03-27T15:29:06Z</time>
      </trkpt>
      <trkpt lat="40.320426" lon="-4.573713">
        <ele>1002.12</ele>
        <time>2021-03-27T15:29:09Z</time>
      </trkpt>
      <trkpt lat="40.320285" lon="-4.573696">
        <ele>1001.75</ele>
        <time>2021-03-27T15:29:11Z</time>
      </trkpt>
      <trkpt lat="40.320099" lon="-4.573754">
        <ele>1001.03</ele>
        <time>2021-03-27T15:29:13Z</time>
      </trkpt>
      <trkpt lat="40.319819" lon="-4.573868">
        <ele>1000.52</ele>
        <time>2021-03-27T15:29:16Z</time>
      </trkpt>
      <trkpt lat="40.319517" lon="-4.574066">
        <ele>1002.63</ele>
        <time>2021-03-27T15:29:18Z</time>
      </trkpt>
      <trkpt lat="40.319343" lon="-4.574066">
        <ele>1002.46</ele>
        <time>2021-03-27T15:29:20Z</time>
      </trkpt>
      <trkpt lat="40.318926" lon="-4.573769">
        <ele>998.35</ele>
        <time>2021-03-27T15:29:23Z</time>
      </trkpt>
      <trkpt lat="40.318589" lon="-4.573644">
        <ele>992.53</ele>
        <time>2021-03-27T15:29:25Z</time>
      </trkpt>
      <trkpt lat="40.318235" lon="-4.573547">
        <ele>988.74</ele>
        <time>2021-03-27T15:29:28Z</time>
      </trkpt>
      <trkpt lat="40.318034" lon="-4.573596">
        <ele>988.65</ele>
        <time>2021-03-27T15:29:30Z</time>
      </trkpt>
      <trkpt lat="40.317575" lon="-4.573921">
        <ele>986.53</ele>
        <time>2021-03-27T15:29:32Z</time>
      </trkpt>
      <trkpt lat="40.317464" lon="-4.573956">
        <ele>986.75</ele>
        <time>2021-03-27T15:29:35Z</time>
      </trkpt>
      <trkpt lat="40.317332" lon="-4.573866">
        <ele>987.07</ele>
        <time>2021-03-27T15:29:37Z</time>
      </trkpt>
      <trkpt lat="40.316894" lon="-4.573291">
        <ele>979.97</ele>
        <time>2021-03-27T15:29:39Z</time>
      </trkpt>
      <trkpt lat="40.316598" lon="-4.572889">
        <ele>977.28</ele>
        <time>2021-03-27T15:29:42Z</time>
      </trkpt>
      <trkpt lat="40.31635" lon="-4.572439">
        <ele>972.36</ele>
        <time>2021-03-27T15:29:44Z</time>
      </trkpt>
      <trkpt lat="40.316075" lon="-4.572079">
        <ele>968.81</ele>
        <time>2021-03-27T15:29:46Z</time>
      </trkpt>
      <trkpt lat="40.315901" lon="-4.571948">
        <ele>967.59</ele>
        <time>2021-03-27T15:29:49Z</time>
      </trkpt>
      <trkpt lat="40.315665" lon="-4.571945">
        <ele>968.63</ele>
        <time>2021-03-27T15:29:51Z</time>
      </trkpt>
      <trkpt lat="40.315299" lon="-4.571843">
        <ele>968.62</ele>
        <time>2021-03-27T15:29:53Z</time>
      </trkpt>
      <trkpt lat="40.315176" lon="-4.571686">
        <ele>967.41</ele>
        <time>2021-03-27T15:29:56Z</time>
      </trkpt>
      <trkpt lat="40.314893" lon="-4.571069">
        <ele>960.27</ele>
        <time>2021-03-27T15:29:58Z</time>
      </trkpt>
      <trkpt lat="40.314639" lon="-4.570648">
        <ele>954.86</ele>
        <time>2021-03-27T15:30:00Z</time>
      </trkpt>
      <trkpt lat="40.314069" lon="-4.570166">
        <ele>945.7</ele>
        <time>2021-03-27T15:30:03Z</time>
      </trkpt>
      <trkpt lat="40.313907" lon="-4.569982">
        <ele>942.78</ele>
        <time>2021-03-27T15:30:05Z</time>
      </trkpt>
      <trkpt lat="40.31347" lon="-4.569035">
        <ele>933.78</ele>
        <time>2021-03-27T15:30:08Z</time>
      </trkpt>
      <trkpt lat="40.313366" lon="-4.568979">
        <ele>934.77</ele>
        <time>2021-03-27T15:30:10Z</time>
      </trkpt>
      <trkpt lat="40.312914" lon="-4.568983">
        <ele>933.34</ele>
        <time>2021-03-27T15:30:12Z</time>
      </trkpt>
      <trkpt lat="40.312354" lon="-4.569111">
        <ele>926.21</ele>
        <time>2021-03-27T15:30:15Z</time>
      </trkpt>
      <trkpt lat="40.312137" lon="-4.569238">
        <ele>925.79</ele>
        <time>2021-03-27T15:30:17Z</time>
      </trkpt>
      <trkpt lat="40.311966" lon="-4.569424">
        <ele>927.94</ele>
        <time>2021-03-27T15:30:19Z</time>
      </trkpt>
      <trkpt lat="40.311353" lon="-4.570168">
        <ele>925.09</ele>
        <time>2021-03-27T15:30:22Z</time>
      </trkpt>
      <trkpt lat="40.311017" lon="-4.570383">
        <ele>921.53</ele>
        <time>2021-03-27T15:30:24Z</time>
      </trkpt>
      <trkpt lat="40.310637" lon="-4.570511">
        <ele>915.38</ele>
        <time>2021-03-27T15:30:26Z</time>
      </trkpt>
      <trkpt lat="40.310107" lon="-4.570481">
        <ele>904.97</ele>
        <time>2021-03-27T15:30:29Z</time>
      </trkpt>
      <trkpt lat="40.309636" lon="-4.570481">
        <ele>898.1</ele>
        <time>2021-03-27T15:30:31Z</time>
      </trkpt>
      <trkpt lat="40.309308" lon="-4.57054">
        <ele>896.22</ele>
        <time>2021-03-27T15:30:33Z</time>
      </trkpt>
      <trkpt lat="40.309083" lon="-4.570805">
        <ele>893.83</ele>
        <time>2021-03-27T15:30:36Z</time>
      </trkpt>
      <trkpt lat="40.309039" lon="-4.570981">
        <ele>892.44</ele>
        <time>2021-03-27T15:30:38Z</time>
      </trkpt>
      <trkpt lat="40.309099" lon="-4.571275">
        <ele>894.47</ele>
        <time>2021-03-27T15:30:40Z</time>
      </trkpt>
      <trkpt lat="40.309046" lon="-4.572361">
        <ele>889.24</ele>
        <time>2021-03-27T15:30:43Z</time>
      </trkpt>
      <trkpt lat="40.308934" lon="-4.572939">
        <ele>885.87</ele>
        <time>2021-03-27T15:30:45Z</time>
      </trkpt>
      <trkpt lat="40.3088" lon="-4.573321">
        <ele>881.72</ele>
        <time>2021-03-27T15:30:48Z</time>
      </trkpt>
      <trkpt lat="40.308165" lon="-4.574565">
        <ele>877.55</ele>
        <time>2021-03-27T15:30:50Z</time>
      </trkpt>
      <trkpt lat="40.307889" lon="-4.575162">
        <ele>876.17</ele>
        <time>2021-03-27T15:30:52Z</time>
      </trkpt>
      <trkpt lat="40.307702" lon="-4.575397">
        <ele>872.54</ele>
        <time>2021-03-27T15:30:55Z</time>
      </trkpt>
      <trkpt lat="40.307575" lon="-4.575485">
        <ele>870.32</ele>
        <time>2021-03-27T15:30:57Z</time>
      </trkpt>
      <trkpt lat="40.307493" lon="-4.575485">
        <ele>868.28</ele>
        <time>2021-03-27T15:30:59Z</time>
      </trkpt>
      <trkpt lat="40.307426" lon="-4.57526">
        <ele>864.75</ele>
        <time>2021-03-27T15:31:02Z</time>
      </trkpt>
      <trkpt lat="40.307314" lon="-4.573576">
        <ele>845.36</ele>
        <time>2021-03-27T15:31:04Z</time>
      </trkpt>
      <trkpt lat="40.307157" lon="-4.572469">
        <ele>838.82</ele>
        <time>2021-03-27T15:31:06Z</time>
      </trkpt>
      <trkpt lat="40.307082" lon="-4.572214">
        <ele>834.41</ele>
        <time>2021-03-27T15:31:09Z</time>
      </trkpt>
      <trkpt lat="40.306813" lon="-4.571764">
        <ele>823.72</ele>
        <time>2021-03-27T15:31:11Z</time>
      </trkpt>
      <trkpt lat="40.306776" lon="-4.571412">
        <ele>819.41</ele>
        <time>2021-03-27T15:31:13Z</time>
      </trkpt>
      <trkpt lat="40.306821" lon="-4.570912">
        <ele>817.63</ele>
        <time>2021-03-27T15:31:16Z</time>
      </trkpt>
      <trkpt lat="40.306888" lon="-4.569649">
        <ele>808.77</ele>
        <time>2021-03-27T15:31:18Z</time>
      </trkpt>
      <trkpt lat="40.306896" lon="-4.568606">
        <ele>797.7</ele>
        <time>2021-03-27T15:31:20Z</time>
      </trkpt>
      <trkpt lat="40.306979" lon="-4.568331">
        <ele>795.46</ele>
        <time>2021-03-27T15:31:23Z</time>
      </trkpt>
      <trkpt lat="40.307176" lon="-4.568">
        <ele>792.53</ele>
        <time>2021-03-27T15:31:25Z</time>
      </trkpt>
      <trkpt lat="40.307593" lon="-4.567412">
        <ele>793.14</ele>
        <time>2021-03-27T15:31:28Z</time>
      </trkpt>
      <trkpt lat="40.30763" lon="-4.567341">
        <ele>792.79</ele>
        <time>2021-03-27T15:31:30Z</time>
      </trkpt>
      <trkpt lat="40.30765" lon="-4.567255">
        <ele>791.58</ele>
        <time>2021-03-27T15:31:32Z</time>
      </trkpt>
      <trkpt lat="40.307638" lon="-4.567189">
        <ele>789.76</ele>
        <time>2021-03-27T15:31:35Z</time>
      </trkpt>
      <trkpt lat="40.307595" lon="-4.567137">
        <ele>787.35</ele>
        <time>2021-03-27T15:31:37Z</time>
      </trkpt>
      <trkpt lat="40.307522" lon="-4.567105">
        <ele>784.55</ele>
        <time>2021-03-27T15:31:39Z</time>
      </trkpt>
      <trkpt lat="40.306527" lon="-4.56701">
        <ele>770.05</ele>
        <time>2021-03-27T15:31:42Z</time>
      </trkpt>
      <trkpt lat="40.306384" lon="-4.567033">
        <ele>768.18</ele>
        <time>2021-03-27T15:31:44Z</time>
      </trkpt>
      <trkpt lat="40.306248" lon="-4.567094">
        <ele>766.13</ele>
        <time>2021-03-27T15:31:46Z</time>
      </trkpt>
      <trkpt lat="40.306169" lon="-4.567161">
        <ele>765.36</ele>
        <time>2021-03-27T15:31:49Z</time>
      </trkpt>
      <trkpt lat="40.306098" lon="-4.567249">
        <ele>765.25</ele>
        <time>2021-03-27T15:31:51Z</time>
      </trkpt>
      <trkpt lat="40.30585" lon="-4.567741">
        <ele>769.64</ele>
        <time>2021-03-27T15:31:53Z</time>
      </trkpt>
      <trkpt lat="40.305766" lon="-4.567799">
        <ele>769.92</ele>
        <time>2021-03-27T15:31:56Z</time>
      </trkpt>
      <trkpt lat="40.305679" lon="-4.567803">
        <ele>769.44</ele>
        <time>2021-03-27T15:31:58Z</time>
      </trkpt>
      <trkpt lat="40.305443" lon="-4.567707">
        <ele>765.96</ele>
        <time>2021-03-27T15:32:00Z</time>
      </trkpt>
      <trkpt lat="40.30532" lon="-4.5677">
        <ele>765.23</ele>
        <time>2021-03-27T15:32:03Z</time>
      </trkpt>
      <trkpt lat="40.304887" lon="-4.567808">
        <ele>758.3</ele>
        <time>2021-03-27T15:32:05Z</time>
      </trkpt>
      <trkpt lat="40.304724" lon="-4.567942">
        <ele>756.0</ele>
        <time>2021-03-27T15:32:08Z</time>
      </trkpt>
      <trkpt lat="40.304506" lon="-4.568334">
        <ele>756.01</ele>
        <time>2021-03-27T15:32:10Z</time>
      </trkpt>
      <trkpt lat="40.304275" lon="-4.568807">
        <ele>754.54</ele>
        <time>2021-03-27T15:32:12Z</time>
      </trkpt>
      <trkpt lat="40.304144" lon="-4.569142">
        <ele>749.92</ele>
        <time>2021-03-27T15:32:15Z</time>
      </trkpt>
      <trkpt lat="40.303998" lon="-4.569698">
        <ele>743.35</ele>
        <time>2021-03-27T15:32:17Z</time>
      </trkpt>
      <trkpt lat="40.30387" lon="-4.570038">
        <ele>737.23</ele>
        <time>2021-03-27T15:32:19Z</time>
      </trkpt>
      <trkpt lat="40.303865" lon="-4.570144">
        <ele>735.92</ele>
        <time>2021-03-27T15:32:22Z</time>
      </trkpt>
      <trkpt lat="40.304066" lon="-4.571544">
        <ele>726.44</ele>
        <time>2021-03-27T15:32:24Z</time>
      </trkpt>
      <trkpt lat="40.304229" lon="-4.572033">
        <ele>724.11</ele>
        <time>2021-03-27T15:32:26Z</time>
      </trkpt>
      <trkpt lat="40.304251" lon="-4.572214">
        <ele>723.57</ele>
        <time>2021-03-27T15:32:29Z</time>
      </trkpt>
      <trkpt lat="40.304239" lon="-4.57238">
        <ele>722.16</ele>
        <time>2021-03-27T15:32:31Z</time>
      </trkpt>
      <trkpt lat="40.304187" lon="-4.572548">
        <ele>720.02</ele>
        <time>2021-03-27T15:32:33Z</time>
      </trkpt>
      <trkpt lat="40.303777" lon="-4.573208">
        <ele>715.82</ele>
        <time>2021-03-27T15:32:36Z</time>
      </trkpt>
      <trkpt lat="40.303556" lon="-4.573618">
        <ele>714.33</ele>
        <time>2021-03-27T15:32:38Z</time>
      </trkpt>
      <trkpt lat="40.303363" lon="-4.574134">
        <ele>707.47</ele>
        <time>2021-03-27T15:32:40Z</time>
      </trkpt>
      <trkpt lat="40.303247" lon="-4.574299">
        <ele>705.6</ele>
        <time>2021-03-27T15:32:43Z</time>
      </trkpt>
      <trkpt lat="40.302961" lon="-4.57458">
        <ele>702.12</ele>
        <time>2021-03-27T15:32:45Z</time>
      </trkpt>
      <trkpt lat="40.302731" lon="-4.574776">
        <ele>700.73</ele>
        <time>2021-03-27T15:32:48Z</time>
      </trkpt>
      <trkpt lat="40.302622" lon="-4.574805">
        <ele>700.6</ele>
        <time>2021-03-27T15:32:50Z</time>
      </trkpt>
      <trkpt lat="40.302492" lon="-4.574789">
        <ele>699.75</ele>
        <time>2021-03-27T15:32:52Z</time>
      </trkpt>
      <trkpt lat="40.302107" lon="-4.5746">
        <ele>699.12</ele>
        <time>2021-03-27T15:32:55Z</time>
      </trkpt>
      <trkpt lat="40.301956" lon="-4.574553">
        <ele>698.78</ele>
        <time>2021-03-27T15:32:57Z</time>
      </trkpt>
      <trkpt lat="40.301757" lon="-4.574617">
        <ele>698.15</ele>
        <time>2021-03-27T15:32:59Z</time>
      </trkpt>
      <trkpt lat="40.301638" lon="-4.574693">
        <ele>697.5</ele>
        <time>2021-03-27T15:33:02Z</time>
      </trkpt>
      <trkpt lat="40.301276" lon="-4.574984">
        <ele>692.4</ele>
        <time>2021-03-27T15:33:04Z</time>
      </trkpt>
      <trkpt lat="40.301158" lon="-4.575167">
        <ele>690.88</ele>
        <time>2021-03-27T15:33:06Z</time>
      </trkpt>
      <trkpt lat="40.300857" lon="-4.575801">
        <ele>685.43</ele>
        <time>2021-03-27T15:33:09Z</time>
      </trkpt>
      <trkpt lat="40.300796" lon="-4.575876">
        <ele>683.92</ele>
        <time>2021-03-27T15:33:11Z</time>
      </trkpt>
      <trkpt lat="40.300706" lon="-4.575941">
        <ele>681.65</ele>
        <time>2021-03-27T15:33:13Z</time>
      </trkpt>
      <trkpt lat="40.299066" lon="-4.576728">
        <ele>658.36</ele>
        <time>2021-03-27T15:33:16Z</time>
      </trkpt>
      <trkpt lat="40.29867" lon="-4.576763">
        <ele>656.78</ele>
        <time>2021-03-27T15:33:18Z</time>
      </trkpt>
      <trkpt lat="40.298578" lon="-4.576801">
        <ele>656.13</ele>
        <time>2021-03-27T15:33:20Z</time>
      </trkpt>
      <trkpt lat="40.298497" lon="-4.576868">
        <ele>655.49</ele>
        <time>2021-03-27T15:33:23Z</time>
      </trkpt>
      <trkpt lat="40.298272" lon="-4.577176">
        <ele>653.34</ele>
        <time>2021-03-27T15:33:25Z</time>
      </trkpt>
      <trkpt lat="40.29819" lon="-4.577333">
        <ele>652.45</ele>
        <time>2021-03-27T15:33:28Z</time>
      </trkpt>
      <trkpt lat="40.298038" lon="-4.578086">
        <ele>649.87</ele>
        <time>2021-03-27T15:33:30Z</time>
      </trkpt>
      <trkpt lat="40.297899" lon="-4.578418">
        <ele>648.0</ele>
        <time>2021-03-27T15:33:32Z</time>
      </trkpt>
      <trkpt lat="40.297601" lon="-4.578788">
        <ele>645.13</ele>
        <time>2021-03-27T15:33:35Z</time>
      </trkpt>
      <trkpt lat="40.29749" lon="-4.578866">
        <ele>644.92</ele>
        <time>2021-03-27T15:33:37Z</time>
      </trkpt>
      <trkpt lat="40.297329" lon="-4.578917">
        <ele>645.04</ele>
        <time>2021-03-27T15:33:39Z</time>
      </trkpt>
      <trkpt lat="40.297197" lon="-4.579021">
        <ele>645.09</ele>
        <time>2021-03-27T15:33:42Z</time>
      </trkpt>
      <trkpt lat="40.29643" lon="-4.579848">
        <ele>644.61</ele>
        <time>2021-03-27T15:33:44Z</time>
      </trkpt>
      <trkpt lat="40.296314" lon="-4.579903">
        <ele>644.35</ele>
        <time>2021-03-27T15:33:46Z</time>
      </trkpt>
      <trkpt lat="40.295768" lon="-4.579907">
        <ele>643.77</ele>
        <time>2021-03-27T15:33:49Z</time>
      </trkpt>
      <trkpt lat="40.295329" lon="-4.580091">
        <ele>641.85</ele>
        <time>2021-03-27T15:33:51Z</time>
      </trkpt>
      <trkpt lat="40.294536" lon="-4.580329">
        <ele>638.12</ele>
        <time>2021-03-27T15:33:53Z</time>
      </trkpt>
      <trkpt lat="40.29356" lon="-4.580352">
        <ele>636.82</ele>
        <time>2021-03-27T15:33:56Z</time>
      </trkpt>
      <trkpt lat="40.293483" lon="-4.580385">
        <ele>636.54</ele>
        <time>2021-03-27T15:33:58Z</time>
      </trkpt>
      <trkpt lat="40.294155" lon="-4.584739">
        <ele>642.0</ele>
        <time>2021-03-27T15:34:05Z</time>
      </trkpt>
      <trkpt lat="40.29416" lon="-4.584919">
        <ele>642.0</ele>
        <time>2021-03-27T15:34:12Z</time>
      </trkpt>
      <trkpt lat="40.294116" lon="-4.585338">
        <ele>643.04</ele>
        <time>2021-03-27T15:34:18Z</time>
      </trkpt>
      <trkpt lat="40.293743" lon="-4.586623">
        <ele>643.16</ele>
        <time>2021-03-27T15:34:25Z</time>
      </trkpt>
      <trkpt lat="40.293559" lon="-4.587316">
        <ele>642.93</ele>
        <time>2021-03-27T15:34:32Z</time>
      </trkpt>
      <trkpt lat="40.293536" lon="-4.587543">
        <ele>642.58</ele>
        <time>2021-03-27T15:34:38Z</time>
      </trkpt>
      <trkpt lat="40.293568" lon="-4.587971">
        <ele>641.84</ele>
        <time>2021-03-27T15:34:45Z</time>
      </trkpt>
      <trkpt lat="40.293608" lon="-4.588202">
        <ele>642.51</ele>
        <time>2021-03-27T15:34:52Z</time>
      </trkpt>
      <trkpt lat="40.293843" lon="-4.589024">
        <ele>643.43</ele>
        <time>2021-03-27T15:34:58Z</time>
      </trkpt>
      <trkpt lat="40.293877" lon="-4.589217">
        <ele>642.83</ele>
        <time>2021-03-27T15:35:05Z</time>
      </trkpt>
      <trkpt lat="40.293891" lon="-4.589624">
        <ele>641.99</ele>
        <time>2021-03-27T15:35:12Z</time>
      </trkpt>
      <trkpt lat="40.293749" lon="-4.592094">
        <ele>637.49</ele>
        <time>2021-03-27T15:35:18Z</time>
      </trkpt>
      <trkpt lat="40.293722" lon="-4.59289">
        <ele>638.64</ele>
        <time>2021-03-27T15:35:25Z</time>
      </trkpt>
      <trkpt lat="40.293735" lon="-4.593087">
        <ele>638.82</ele>
        <time>2021-03-27T15:35:32Z</time>
      </trkpt>
      <trkpt lat="40.293772" lon="-4.593287">
        <ele>637.82</ele>
        <time>2021-03-27T15:35:38Z</time>
      </trkpt>
      <trkpt lat="40.293824" lon="-4.593457">
        <ele>637.22</ele>
        <time>2021-03-27T15:35:45Z</time>
      </trkpt>
      <trkpt lat="40.294233" lon="-4.594507">
        <ele>637.01</ele>
        <time>2021-03-27T15:35:52Z</time>
      </trkpt>
      <trkpt lat="40.294334" lon="-4.594488">
        <ele>637.44</ele>
        <time>2021-03-27T15:36:00Z</time>
      </trkpt>
      <trkpt lat="40.294421" lon="-4.594555">
        <ele>637.52</ele>
        <time>2021-03-27T15:36:09Z</time>
      </trkpt>
      <trkpt lat="40.294459" lon="-4.594679">
        <ele>637.3</ele>
        <time>2021-03-27T15:36:17Z</time>
      </trkpt>
      <trkpt lat="40.29443" lon="-4.594807">
        <ele>636.95</ele>
        <time>2021-03-27T15:36:26Z</time>
      </trkpt>
      <trkpt lat="40.294394" lon="-4.594855">
        <ele>636.82</ele>
        <time>2021-03-27T15:36:34Z</time>
      </trkpt>
      <trkpt lat="40.29463" lon="-4.595376">
        <ele>639.89</ele>
        <time>2021-03-27T15:36:43Z</time>
      </trkpt>
      <trkpt lat="40.29486" lon="-4.595824">
        <ele>639.53</ele>
        <time>2021-03-27T15:36:51Z</time>
      </trkpt>
      <trkpt lat="40.29634" lon="-4.597982">
        <ele>651.6</ele>
        <time>2021-03-27T15:37:00Z</time>
      </trkpt>
      <trkpt lat="40.29663" lon="-4.598496">
        <ele>653.0</ele>
        <time>2021-03-27T15:37:08Z</time>
      </trkpt>
      <trkpt lat="40.297507" lon="-4.600377">
        <ele>659.38</ele>
        <time>2021-03-27T15:37:17Z</time>
      </trkpt>
      <trkpt lat="40.297881" lon="-4.601276">
        <ele>664.81</ele>
        <time>2021-03-27T15:37:25Z</time>
      </trkpt>
      <trkpt lat="40.29821" lon="-4.601837">
        <ele>668.67</ele>
        <time>2021-03-27T15:37:34Z</time>
      </trkpt>
      <trkpt lat="40.298391" lon="-4.602259">
        <ele>670.72</ele>
        <time>2021-03-27T15:37:42Z</time>
      </trkpt>
      <trkpt lat="40.29859" lon="-4.60303">
        <ele>670.22</ele>
        <time>2021-03-27T15:37:51Z</time>
      </trkpt>
      <trkpt lat="40.298868" lon="-4.604343">
        <ele>675.05</ele>
        <time>2021-03-27T15:37:59Z</time>
      </trkpt>
      <trkpt lat="40.299185" lon="-4.605395">
        <ele>682.68</ele>
        <time>2021-03-27T15:38:08Z</time>
      </trkpt>
      <trkpt lat="40.299317" lon="-4.606025">
        <ele>684.16</ele>
        <time>2021-03-27T15:38:16Z</time>
      </trkpt>
      <trkpt lat="40.299475" lon="-4.607163">
        <ele>682.79</ele>
        <time>2021-03-27T15:38:25Z</time>
      </trkpt>
      <trkpt lat="40.29986" lon="-4.608874">
        <ele>682.58</ele>
        <time>2021-03-27T15:38:33Z</time>
      </trkpt>
      <trkpt lat="40.299946" lon="-4.609499">
        <ele>683.79</ele>
        <time>2021-03-27T15:38:41Z</time>
      </trkpt>
      <trkpt lat="40.300083" lon="-4.610222">
        <ele>684.9</ele>
        <time>2021-03-27T15:38:50Z</time>
      </trkpt>
      <trkpt lat="40.300434" lon="-4.611383">
        <ele>683.16</ele>
        <time>2021-03-27T15:38:58Z</time>
      </trkpt>
      <trkpt lat="40.300556" lon="-4.611832">
        <ele>681.4</ele>
        <time>2021-03-27T15:39:07Z</time>
      </trkpt>
      <trkpt lat="40.301208" lon="-4.616957">
        <ele>660.24</ele>
        <time>2021-03-27T15:39:15Z</time>
      </trkpt>
      <trkpt lat="40.30124" lon="-4.618257">
        <ele>650.94</ele>
        <time>2021-03-27T15:39:24Z</time>
      </trkpt>
      <trkpt lat="40.30129" lon="-4.618574">
        <ele>650.05</ele>
        <time>2021-03-27T15:39:32Z</time>
      </trkpt>
      <trkpt lat="40.301472" lon="-4.61936">
        <ele>649.39</ele>
        <time>2021-03-27T15:39:41Z</time>
      </trkpt>
      <trkpt lat="40.301509" lon="-4.619798">
        <ele>647.73</ele>
        <time>2021-03-27T15:39:49Z</time>
      </trkpt>
      <trkpt lat="40.301464" lon="-4.621934">
        <ele>639.32</ele>
        <time>2021-03-27T15:39:58Z</time>
      </trkpt>
      <trkpt lat="40.301435" lon="-4.622295">
        <ele>637.91</ele>
        <time>2021-03-27T15:40:06Z</time>
      </trkpt>
      <trkpt lat="40.300937" lon="-4.625031">
        <ele>637.48</ele>
        <time>2021-03-27T15:40:15Z</time>
      </trkpt>
      <trkpt lat="40.300903" lon="-4.625438">
        <ele>636.49</ele>
        <time>2021-03-27T15:40:23Z</time>
      </trkpt>
      <trkpt lat="40.300892" lon="-4.62583">
        <ele>634.8</ele>
        <time>2021-03-27T15:40:32Z</time>
      </trkpt>
      <trkpt lat="40.300969" lon="-4.626542">
        <ele>632.73</ele>
        <time>2021-03-27T15:40:40Z</time>
      </trkpt>
      <trkpt lat="40.30126" lon="-4.627881">
        <ele>631.43</ele>
        <time>2021-03-27T15:40:49Z</time>
      </trkpt>
      <trkpt lat="40.302167" lon="-4.632294">
        <ele>628.6</ele>
        <time>2021-03-27T15:40:57Z</time>
      </trkpt>
      <trkpt lat="40.302883" lon="-4.635675">
        <ele>626.84</ele>
        <time>2021-03-27T15:41:06Z</time>
      </trkpt>
      <trkpt lat="40.302948" lon="-4.636207">
        <ele>625.64</ele>
        <time>2021-03-27T15:41:14Z</time>
      </trkpt>
      <trkpt lat="40.302918" lon="-4.636581">
        <ele>625.15</ele>
        <time>2021-03-27T15:41:23Z</time>
      </trkpt>
      <trkpt lat="40.302687" lon="-4.638081">
        <ele>620.58</ele>
        <time>2021-03-27T15:41:31Z</time>
      </trkpt>
      <trkpt lat="40.302647" lon="-4.638582">
        <ele>618.63</ele>
        <time>2021-03-27T15:41:40Z</time>
      </trkpt>
      <trkpt lat="40.302674" lon="-4.63902">
        <ele>618.67</ele>
        <time>2021-03-27T15:41:48Z</time>
      </trkpt>
      <trkpt lat="40.3028" lon="-4.639543">
        <ele>619.03</ele>
        <time>2021-03-27T15:41:57Z</time>
      </trkpt>
      <trkpt lat="40.306214" lon="-4.647335">
        <ele>619.59</ele>
        <time>2021-03-27T15:42:05Z</time>
      </trkpt>
      <trkpt lat="40.307001" lon="-4.649175">
        <ele>617.15</ele>
        <time>2021-03-27T15:42:13Z</time>
      </trkpt>
      <trkpt lat="40.307071" lon="-4.649309">
        <ele>616.43</ele>
        <time>2021-03-27T15:42:22Z</time>
      </trkpt>
      <trkpt lat="40.309844" lon="-4.655672">
        <ele>629.84</ele>
        <time>2021-03-27T15:42:30Z</time>
      </trkpt>
      <trkpt lat="40.312416" lon="-4.661585">
        <ele>640.47</ele>
        <time>2021-03-27T15:42:39Z</time>
      </trkpt>
      <trkpt lat="40.31256" lon="-4.661984">
        <ele>641.62</ele>
        <time>2021-03-27T15:42:47Z</time>
      </trkpt>
      <trkpt lat="40.312706" lon="-4.66246">
        <ele>641.41</ele>
        <time>2021-03-27T15:42:56Z</time>
      </trkpt>
      <trkpt lat="40.316377" lon="-4.680443">
        <ele>661.0</ele>
        <time>2021-03-27T15:43:04Z</time>
      </trkpt>
      <trkpt lat="40.316434" lon="-4.68077">
        <ele>658.49</ele>
        <time>2021-03-27T15:43:13Z</time>
      </trkpt>
      <trkpt lat="40.317399" lon="-4.685403">
        <ele>680.8</ele>
        <time>2021-03-27T15:43:21Z</time>
      </trkpt>
      <trkpt lat="40.317509" lon="-4.686118">
        <ele>684.18</ele>
        <time>2021-03-27T15:43:30Z</time>
      </trkpt>
      <trkpt lat="40.317622" lon="-4.687327">
        <ele>690.47</ele>
        <time>2021-03-27T15:43:38Z</time>
      </trkpt>
      <trkpt lat="40.317711" lon="-4.688653">
        <ele>694.04</ele>
        <time>2021-03-27T15:43:47Z</time>
      </trkpt>
      <trkpt lat="40.317799" lon="-4.69123">
        <ele>701.18</ele>
        <time>2021-03-27T15:43:55Z</time>
      </trkpt>
      <trkpt lat="40.317463" lon="-4.692709">
        <ele>702.36</ele>
        <time>2021-03-27T15:44:04Z</time>
      </trkpt>
      <trkpt lat="40.317478" lon="-4.692917">
        <ele>702.8</ele>
        <time>2021-03-27T15:44:12Z</time>
      </trkpt>
      <trkpt lat="40.317601" lon="-4.693267">
        <ele>704.49</ele>
        <time>2021-03-27T15:44:21Z</time>
      </trkpt>
      <trkpt lat="40.317661" lon="-4.693503">
        <ele>705.77</ele>
        <time>2021-03-27T15:44:29Z</time>
      </trkpt>
      <trkpt lat="40.317681" lon="-4.693743">
        <ele>706.62</ele>
        <time>2021-03-27T15:44:38Z</time>
      </trkpt>
      <trkpt lat="40.317604" lon="-4.69431">
        <ele>704.46</ele>
        <time>2021-03-27T15:44:46Z</time>
      </trkpt>
      <trkpt lat="40.317176" lon="-4.695383">
        <ele>703.53</ele>
        <time>2021-03-27T15:44:55Z</time>
      </trkpt>
      <trkpt lat="40.317044" lon="-4.695825">
        <ele>704.06</ele>
        <time>2021-03-27T15:45:03Z</time>
      </trkpt>
      <trkpt lat="40.317091" lon="-4.696718">
        <ele>703.89</ele>
        <time>2021-03-27T15:45:12Z</time>
      </trkpt>
      <trkpt lat="40.317074" lon="-4.697434">
        <ele>706.87</ele>
        <time>2021-03-27T15:45:20Z</time>
      </trkpt>
      <trkpt lat="40.316829" lon="-4.698131">
        <ele>705.34</ele>
        <time>2021-03-27T15:45:29Z</time>
      </trkpt>
      <trkpt lat="40.31653" lon="-4.699219">
        <ele>703.7</ele>
        <time>2021-03-27T15:45:37Z</time>
      </trkpt>
      <trkpt lat="40.315691" lon="-4.701298">
        <ele>700.11</ele>
        <time>2021-03-27T15:45:45Z</time>
      </trkpt>
      <trkpt lat="40.315656" lon="-4.701425">
        <ele>699.08</ele>
        <time>2021-03-27T15:45:54Z</time>
      </trkpt>
      <trkpt lat="40.31557" lon="-4.701583">
        <ele>698.16</ele>
        <time>2021-03-27T15:46:02Z</time>
      </trkpt>
      <trkpt lat="40.315392" lon="-4.701824">
        <ele>697.65</ele>
        <time>2021-03-27T15:46:11Z</time>
      </trkpt>
      <trkpt lat="40.315104" lon="-4.702105">
        <ele>695.12</ele>
        <time>2021-03-27T15:46:19Z</time>
      </trkpt>
      <trkpt lat="40.314726" lon="-4.702401">
        <ele>692.32</ele>
        <time>2021-03-27T15:46:28Z</time>
      </trkpt>
      <trkpt lat="40.314531" lon="-4.702456">
        <ele>691.89</ele>
        <time>2021-03-27T15:46:36Z</time>
      </trkpt>
      <trkpt lat="40.313602" lon="-4.702515">
        <ele>688.86</ele>
        <time>2021-03-27T15:46:45Z</time>
      </trkpt>
      <trkpt lat="40.313174" lon="-4.702594">
        <ele>684.28</ele>
        <time>2021-03-27T15:46:53Z</time>
      </trkpt>
      <trkpt lat="40.312773" lon="-4.702746">
        <ele>680.87</ele>
        <time>2021-03-27T15:47:02Z</time>
      </trkpt>
      <trkpt lat="40.312509" lon="-4.702903">
        <ele>680.48</ele>
        <time>2021-03-27T15:47:10Z</time>
      </trkpt>
      <trkpt lat="40.312237" lon="-4.70314">
        <ele>677.53</ele>
        <time>2021-03-27T15:47:19Z</time>
      </trkpt>
      <trkpt lat="40.311962" lon="-4.703483">
        <ele>673.86</ele>
        <time>2021-03-27T15:47:27Z</time>
      </trkpt>
      <trkpt lat="40.311822" lon="-4.703733">
        <ele>672.67</ele>
        <time>2021-03-27T15:47:36Z</time>
      </trkpt>
      <trkpt lat="40.311744" lon="-4.703911">
        <ele>672.37</ele>
        <time>2021-03-27T15:47:44Z</time>
      </trkpt>
      <trkpt lat="40.311655" lon="-4.704205">
        <ele>670.43</ele>
        <time>2021-03-27T15:47:53Z</time>
      </trkpt>
      <trkpt lat="40.311438" lon="-4.705219">
        <ele>665.75</ele>
        <time>2021-03-27T15:48:01Z</time>
      </trkpt>
      <trkpt lat="40.311382" lon="-4.705417">
        <ele>664.93</ele>
        <time>2021-03-27T15:48:10Z</time>
      </trkpt>
      <trkpt lat="40.311212" lon="-4.705893">
        <ele>664.54</ele>
        <time>2021-03-27T15:48:18Z</time>
      </trkpt>
      <trkpt lat="40.310855" lon="-4.706796">
        <ele>662.0</ele>
        <time>2021-03-27T15:48:27Z</time>
      </trkpt>
      <trkpt lat="40.310577" lon="-4.707877">
        <ele>659.58</ele>
        <time>2021-03-27T15:48:35Z</time>
      </trkpt>
      <trkpt lat="40.310577" lon="-4.707877">
        <ele>659.58</ele>
        <time>2021-03-27T15:48:35Z</time>
      </trkpt>
      <trkpt lat="40.310493" lon="-4.708206">
        <ele>657.16</ele>
        <time>2021-03-27T15:48:38Z</time>
      </trkpt>
      <trkpt lat="40.31036" lon="-4.708607">
        <ele>657.85</ele>
        <time>2021-03-27T15:48:41Z</time>
      </trkpt>
      <trkpt lat="40.310216" lon="-4.708922">
        <ele>659.22</ele>
        <time>2021-03-27T15:48:44Z</time>
      </trkpt>
      <trkpt lat="40.309907" lon="-4.709476">
        <ele>655.36</ele>
        <time>2021-03-27T15:48:47Z</time>
      </trkpt>
      <trkpt lat="40.309241" lon="-4.710555">
        <ele>653.06</ele>
        <time>2021-03-27T15:48:50Z</time>
      </trkpt>
      <trkpt lat="40.309101" lon="-4.710841">
        <ele>652.06</ele>
        <time>2021-03-27T15:48:53Z</time>
      </trkpt>
      <trkpt lat="40.308976" lon="-4.711132">
        <ele>650.28</ele>
        <time>2021-03-27T15:48:56Z</time>
      </trkpt>
      <trkpt lat="40.308483" lon="-4.712472">
        <ele>644.17</ele>
        <time>2021-03-27T15:48:59Z</time>
      </trkpt>
      <trkpt lat="40.308231" lon="-4.712979">
        <ele>640.54</ele>
        <time>2021-03-27T15:49:02Z</time>
      </trkpt>
      <trkpt lat="40.307903" lon="-4.713514">
        <ele>635.64</ele>
        <time>2021-03-27T15:49:05Z</time>
      </trkpt>
      <trkpt lat="40.307453" lon="-4.714169">
        <ele>630.34</ele>
        <time>2021-03-27T15:49:08Z</time>
      </trkpt>
      <trkpt lat="40.30711" lon="-4.714632">
        <ele>627.0</ele>
        <time>2021-03-27T15:49:11Z</time>
      </trkpt>
      <trkpt lat="40.306729" lon="-4.715033">
        <ele>626.54</ele>
        <time>2021-03-27T15:49:14Z</time>
      </trkpt>
      <trkpt lat="40.305892" lon="-4.715817">
        <ele>621.45</ele>
        <time>2021-03-27T15:49:17Z</time>
      </trkpt>
      <trkpt lat="40.305028" lon="-4.716447">
        <ele>613.35</ele>
        <time>2021-03-27T15:49:20Z</time>
      </trkpt>
      <trkpt lat="40.304633" lon="-4.716811">
        <ele>608.68</ele>
        <time>2021-03-27T15:49:23Z</time>
      </trkpt>
      <trkpt lat="40.30425" lon="-4.717345">
        <ele>604.32</ele>
        <time>2021-03-27T15:49:26Z</time>
      </trkpt>
      <trkpt lat="40.303551" lon="-4.718405">
        <ele>596.56</ele>
        <time>2021-03-27T15:49:29Z</time>
      </trkpt>
      <trkpt lat="40.303291" lon="-4.718728">
        <ele>593.72</ele>
        <time>2021-03-27T15:49:32Z</time>
      </trkpt>
      <trkpt lat="40.302912" lon="-4.719087">
        <ele>591.03</ele>
        <time>2021-03-27T15:49:35Z</time>
      </trkpt>
      <trkpt lat="40.302353" lon="-4.719447">
        <ele>587.48</ele>
        <time>2021-03-27T15:49:38Z</time>
      </trkpt>
      <trkpt lat="40.30209" lon="-4.719607">
        <ele>586.63</ele>
        <time>2021-03-27T15:49:41Z</time>
      </trkpt>
      <trkpt lat="40.301857" lon="-4.71969">
        <ele>584.58</ele>
        <time>2021-03-27T15:49:43Z</time>
      </trkpt>
      <trkpt lat="40.301774" lon="-4.719747">
        <ele>583.66</ele>
        <time>2021-03-27T15:49:45Z</time>
      </trkpt>
      <trkpt lat="40.301668" lon="-4.719893">
        <ele>583.25</ele>
        <time>2021-03-27T15:49:48Z</time>
      </trkpt>
      <trkpt lat="40.301652" lon="-4.720137">
        <ele>584.39</ele>
        <time>2021-03-27T15:49:50Z</time>
      </trkpt>
      <trkpt lat="40.301666" lon="-4.720604">
        <ele>584.0</ele>
        <time>2021-03-27T15:49:53Z</time>
      </trkpt>
      <trkpt lat="40.301632" lon="-4.721008">
        <ele>583.88</ele>
        <time>2021-03-27T15:49:55Z</time>
      </trkpt>
      <trkpt lat="40.301591" lon="-4.721175">
        <ele>583.6</ele>
        <time>2021-03-27T15:49:57Z</time>
      </trkpt>
      <trkpt lat="40.301517" lon="-4.721348">
        <ele>582.55</ele>
        <time>2021-03-27T15:50:00Z</time>
      </trkpt>
      <trkpt lat="40.301406" lon="-4.721521">
        <ele>580.68</ele>
        <time>2021-03-27T15:50:02Z</time>
      </trkpt>
      <trkpt lat="40.301175" lon="-4.721816">
        <ele>578.45</ele>
        <time>2021-03-27T15:50:04Z</time>
      </trkpt>
      <trkpt lat="40.301115" lon="-4.721936">
        <ele>578.02</ele>
        <time>2021-03-27T15:50:07Z</time>
      </trkpt>
      <trkpt lat="40.29982" lon="-4.724919">
        <ele>575.47</ele>
        <time>2021-03-27T15:50:09Z</time>
      </trkpt>
      <trkpt lat="40.299688" lon="-4.725282">
        <ele>571.74</ele>
        <time>2021-03-27T15:50:12Z</time>
      </trkpt>
      <trkpt lat="40.299674" lon="-4.725581">
        <ele>571.09</ele>
        <time>2021-03-27T15:50:14Z</time>
      </trkpt>
      <trkpt lat="40.299644" lon="-4.725698">
        <ele>571.51</ele>
        <time>2021-03-27T15:50:16Z</time>
      </trkpt>
      <trkpt lat="40.29954" lon="-4.725849">
        <ele>572.06</ele>
        <time>2021-03-27T15:50:19Z</time>
      </trkpt>
      <trkpt lat="40.299053" lon="-4.726354">
        <ele>571.66</ele>
        <time>2021-03-27T15:50:21Z</time>
      </trkpt>
      <trkpt lat="40.298426" lon="-4.727067">
        <ele>569.11</ele>
        <time>2021-03-27T15:50:23Z</time>
      </trkpt>
      <trkpt lat="40.297465" lon="-4.728538">
        <ele>567.88</ele>
        <time>2021-03-27T15:50:26Z</time>
      </trkpt>
      <trkpt lat="40.297378" lon="-4.728717">
        <ele>567.56</ele>
        <time>2021-03-27T15:50:28Z</time>
      </trkpt>
      <trkpt lat="40.297255" lon="-4.729282">
        <ele>569.2</ele>
        <time>2021-03-27T15:50:31Z</time>
      </trkpt>
      <trkpt lat="40.297189" lon="-4.729484">
        <ele>571.29</ele>
        <time>2021-03-27T15:50:33Z</time>
      </trkpt>
      <trkpt lat="40.296463" lon="-4.730425">
        <ele>576.74</ele>
        <time>2021-03-27T15:50:35Z</time>
      </trkpt>
      <trkpt lat="40.296346" lon="-4.730665">
        <ele>575.78</ele>
        <time>2021-03-27T15:50:38Z</time>
      </trkpt>
      <trkpt lat="40.295816" lon="-4.732009">
        <ele>580.04</ele>
        <time>2021-03-27T15:50:40Z</time>
      </trkpt>
      <trkpt lat="40.29579" lon="-4.732174">
        <ele>580.36</ele>
        <time>2021-03-27T15:50:43Z</time>
      </trkpt>
      <trkpt lat="40.295757" lon="-4.733042">
        <ele>579.54</ele>
        <time>2021-03-27T15:50:45Z</time>
      </trkpt>
      <trkpt lat="40.295363" lon="-4.736438">
        <ele>565.35</ele>
        <time>2021-03-27T15:50:47Z</time>
      </trkpt>
      <trkpt lat="40.295318" lon="-4.736602">
        <ele>565.23</ele>
        <time>2021-03-27T15:50:50Z</time>
      </trkpt>
      <trkpt lat="40.295264" lon="-4.736738">
        <ele>565.14</ele>
        <time>2021-03-27T15:50:52Z</time>
      </trkpt>
      <trkpt lat="40.295184" lon="-4.736865">
        <ele>565.19</ele>
        <time>2021-03-27T15:50:54Z</time>
      </trkpt>
      <trkpt lat="40.293032" lon="-4.739229">
        <ele>566.27</ele>
        <time>2021-03-27T15:50:57Z</time>
      </trkpt>
      <trkpt lat="40.29291" lon="-4.739435">
        <ele>566.38</ele>
        <time>2021-03-27T15:50:59Z</time>
      </trkpt>
      <trkpt lat="40.291823" lon="-4.74179">
        <ele>564.46</ele>
        <time>2021-03-27T15:51:02Z</time>
      </trkpt>
      <trkpt lat="40.291629" lon="-4.742247">
        <ele>564.29</ele>
        <time>2021-03-27T15:51:04Z</time>
      </trkpt>
      <trkpt lat="40.289873" lon="-4.747274">
        <ele>548.75</ele>
        <time>2021-03-27T15:51:06Z</time>
      </trkpt>
      <trkpt lat="40.28981" lon="-4.74761">
        <ele>548.8</ele>
        <time>2021-03-27T15:51:09Z</time>
      </trkpt>
      <trkpt lat="40.289796" lon="-4.748166">
        <ele>547.04</ele>
        <time>2021-03-27T15:51:11Z</time>
      </trkpt>
      <trkpt lat="40.289774" lon="-4.748359">
        <ele>546.26</ele>
        <time>2021-03-27T15:51:13Z</time>
      </trkpt>
      <trkpt lat="40.289746" lon="-4.748427">
        <ele>546.09</ele>
        <time>2021-03-27T15:51:16Z</time>
      </trkpt>
      <trkpt lat="40.289653" lon="-4.748542">
        <ele>545.44</ele>
        <time>2021-03-27T15:51:18Z</time>
      </trkpt>
      <trkpt lat="40.289489" lon="-4.748679">
        <ele>544.29</ele>
        <time>2021-03-27T15:51:21Z</time>
      </trkpt>
      <trkpt lat="40.289222" lon="-4.748851">
        <ele>543.77</ele>
        <time>2021-03-27T15:51:23Z</time>
      </trkpt>
      <trkpt lat="40.288915" lon="-4.749134">
        <ele>543.83</ele>
        <time>2021-03-27T15:51:25Z</time>
      </trkpt>
      <trkpt lat="40.288828" lon="-4.749262">
        <ele>543.89</ele>
        <time>2021-03-27T15:51:28Z</time>
      </trkpt>
      <trkpt lat="40.288772" lon="-4.749402">
        <ele>544.37</ele>
        <time>2021-03-27T15:51:30Z</time>
      </trkpt>
      <trkpt lat="40.288678" lon="-4.749823">
        <ele>544.99</ele>
        <time>2021-03-27T15:51:32Z</time>
      </trkpt>
      <trkpt lat="40.288611" lon="-4.749917">
        <ele>544.7</ele>
        <time>2021-03-27T15:51:35Z</time>
      </trkpt>
      <trkpt lat="40.288477" lon="-4.750008">
        <ele>544.57</ele>
        <time>2021-03-27T15:51:37Z</time>
      </trkpt>
      <trkpt lat="40.287826" lon="-4.750189">
        <ele>550.76</ele>
        <time>2021-03-27T15:51:40Z</time>
      </trkpt>
      <trkpt lat="40.287629" lon="-4.750187">
        <ele>551.36</ele>
        <time>2021-03-27T15:51:42Z</time>
      </trkpt>
      <trkpt lat="40.286767" lon="-4.750105">
        <ele>555.45</ele>
        <time>2021-03-27T15:51:44Z</time>
      </trkpt>
      <trkpt lat="40.286627" lon="-4.750153">
        <ele>557.37</ele>
        <time>2021-03-27T15:51:47Z</time>
      </trkpt>
      <trkpt lat="40.286573" lon="-4.750196">
        <ele>557.95</ele>
        <time>2021-03-27T15:51:49Z</time>
      </trkpt>
      <trkpt lat="40.286502" lon="-4.750308">
        <ele>558.63</ele>
        <time>2021-03-27T15:51:52Z</time>
      </trkpt>
      <trkpt lat="40.28508" lon="-4.753109">
        <ele>559.25</ele>
        <time>2021-03-27T15:51:54Z</time>
      </trkpt>
      <trkpt lat="40.284999" lon="-4.753375">
        <ele>559.99</ele>
        <time>2021-03-27T15:51:56Z</time>
      </trkpt>
      <trkpt lat="40.285007" lon="-4.753653">
        <ele>559.91</ele>
        <time>2021-03-27T15:51:59Z</time>
      </trkpt>
      <trkpt lat="40.285068" lon="-4.753991">
        <ele>558.48</ele>
        <time>2021-03-27T15:52:01Z</time>
      </trkpt>
      <trkpt lat="40.285182" lon="-4.754275">
        <ele>557.43</ele>
        <time>2021-03-27T15:52:03Z</time>
      </trkpt>
      <trkpt lat="40.285194" lon="-4.754365">
        <ele>557.24</ele>
        <time>2021-03-27T15:52:06Z</time>
      </trkpt>
      <trkpt lat="40.285176" lon="-4.754477">
        <ele>556.37</ele>
        <time>2021-03-27T15:52:08Z</time>
      </trkpt>
      <trkpt lat="40.285103" lon="-4.754723">
        <ele>554.22</ele>
        <time>2021-03-27T15:52:11Z</time>
      </trkpt>
      <trkpt lat="40.285084" lon="-4.754849">
        <ele>553.49</ele>
        <time>2021-03-27T15:52:13Z</time>
      </trkpt>
      <trkpt lat="40.285086" lon="-4.754954">
        <ele>553.3</ele>
        <time>2021-03-27T15:52:15Z</time>
      </trkpt>
      <trkpt lat="40.285154" lon="-4.755379">
        <ele>553.57</ele>
        <time>2021-03-27T15:52:18Z</time>
      </trkpt>
      <trkpt lat="40.285156" lon="-4.755555">
        <ele>553.24</ele>
        <time>2021-03-27T15:52:20Z</time>
      </trkpt>
      <trkpt lat="40.285114" lon="-4.755741">
        <ele>552.91</ele>
        <time>2021-03-27T15:52:22Z</time>
      </trkpt>
      <trkpt lat="40.285025" lon="-4.755884">
        <ele>551.64</ele>
        <time>2021-03-27T15:52:25Z</time>
      </trkpt>
      <trkpt lat="40.284981" lon="-4.756055">
        <ele>551.52</ele>
        <time>2021-03-27T15:52:27Z</time>
      </trkpt>
      <trkpt lat="40.284987" lon="-4.756453">
        <ele>554.23</ele>
        <time>2021-03-27T15:52:30Z</time>
      </trkpt>
      <trkpt lat="40.284931" lon="-4.756627">
        <ele>554.47</ele>
        <time>2021-03-27T15:52:32Z</time>
      </trkpt>
      <trkpt lat="40.284815" lon="-4.756751">
        <ele>553.28</ele>
        <time>2021-03-27T15:52:34Z</time>
      </trkpt>
      <trkpt lat="40.284709" lon="-4.756806">
        <ele>551.27</ele>
        <time>2021-03-27T15:52:37Z</time>
      </trkpt>
      <trkpt lat="40.284577" lon="-4.756939">
        <ele>549.37</ele>
        <time>2021-03-27T15:52:39Z</time>
      </trkpt>
      <trkpt lat="40.284494" lon="-4.757097">
        <ele>549.1</ele>
        <time>2021-03-27T15:52:42Z</time>
      </trkpt>
      <trkpt lat="40.28425" lon="-4.757763">
        <ele>549.15</ele>
        <time>2021-03-27T15:52:44Z</time>
      </trkpt>
      <trkpt lat="40.283937" lon="-4.758694">
        <ele>548.16</ele>
        <time>2021-03-27T15:52:46Z</time>
      </trkpt>
      <trkpt lat="40.283919" lon="-4.758868">
        <ele>546.69</ele>
        <time>2021-03-27T15:52:49Z</time>
      </trkpt>
      <trkpt lat="40.283933" lon="-4.758972">
        <ele>546.19</ele>
        <time>2021-03-27T15:52:51Z</time>
      </trkpt>
      <trkpt lat="40.283993" lon="-4.759069">
        <ele>546.58</ele>
        <time>2021-03-27T15:52:53Z</time>
      </trkpt>
      <trkpt lat="40.284222" lon="-4.759346">
        <ele>549.66</ele>
        <time>2021-03-27T15:52:56Z</time>
      </trkpt>
      <trkpt lat="40.284257" lon="-4.75943">
        <ele>550.0</ele>
        <time>2021-03-27T15:52:58Z</time>
      </trkpt>
      <trkpt lat="40.284255" lon="-4.759502">
        <ele>550.52</ele>
        <time>2021-03-27T15:53:01Z</time>
      </trkpt>
      <trkpt lat="40.284223" lon="-4.759565">
        <ele>550.83</ele>
        <time>2021-03-27T15:53:03Z</time>
      </trkpt>
      <trkpt lat="40.284048" lon="-4.759674">
        <ele>549.35</ele>
        <time>2021-03-27T15:53:05Z</time>
      </trkpt>
      <trkpt lat="40.283872" lon="-4.759856">
        <ele>547.52</ele>
        <time>2021-03-27T15:53:08Z</time>
      </trkpt>
      <trkpt lat="40.283802" lon="-4.759982">
        <ele>546.4</ele>
        <time>2021-03-27T15:53:10Z</time>
      </trkpt>
      <trkpt lat="40.283778" lon="-4.760348">
        <ele>544.92</ele>
        <time>2021-03-27T15:53:12Z</time>
      </trkpt>
      <trkpt lat="40.283752" lon="-4.760431">
        <ele>544.01</ele>
        <time>2021-03-27T15:53:15Z</time>
      </trkpt>
      <trkpt lat="40.283661" lon="-4.760547">
        <ele>541.91</ele>
        <time>2021-03-27T15:53:17Z</time>
      </trkpt>
      <trkpt lat="40.283502" lon="-4.76065">
        <ele>539.12</ele>
        <time>2021-03-27T15:53:20Z</time>
      </trkpt>
      <trkpt lat="40.283425" lon="-4.760754">
        <ele>538.18</ele>
        <time>2021-03-27T15:53:22Z</time>
      </trkpt>
      <trkpt lat="40.28333" lon="-4.761082">
        <ele>537.83</ele>
        <time>2021-03-27T15:53:24Z</time>
      </trkpt>
      <trkpt lat="40.283333" lon="-4.761458">
        <ele>541.73</ele>
        <time>2021-03-27T15:53:27Z</time>
      </trkpt>
      <trkpt lat="40.283274" lon="-4.761588">
        <ele>543.95</ele>
        <time>2021-03-27T15:53:29Z</time>
      </trkpt>
      <trkpt lat="40.283174" lon="-4.761624">
        <ele>543.07</ele>
        <time>2021-03-27T15:53:31Z</time>
      </trkpt>
      <trkpt lat="40.282946" lon="-4.761573">
        <ele>537.42</ele>
        <time>2021-03-27T15:53:34Z</time>
      </trkpt>
      <trkpt lat="40.282839" lon="-4.761572">
        <ele>535.21</ele>
        <time>2021-03-27T15:53:36Z</time>
      </trkpt>
      <trkpt lat="40.282608" lon="-4.761676">
        <ele>532.6</ele>
        <time>2021-03-27T15:53:39Z</time>
      </trkpt>
      <trkpt lat="40.282395" lon="-4.761824">
        <ele>531.45</ele>
        <time>2021-03-27T15:53:41Z</time>
      </trkpt>
      <trkpt lat="40.282181" lon="-4.762009">
        <ele>529.38</ele>
        <time>2021-03-27T15:53:43Z</time>
      </trkpt>
      <trkpt lat="40.282081" lon="-4.762149">
        <ele>529.86</ele>
        <time>2021-03-27T15:53:46Z</time>
      </trkpt>
      <trkpt lat="40.281639" lon="-4.76287">
        <ele>535.42</ele>
        <time>2021-03-27T15:53:48Z</time>
      </trkpt>
      <trkpt lat="40.281562" lon="-4.762906">
        <ele>535.52</ele>
        <time>2021-03-27T15:53:51Z</time>
      </trkpt>
      <trkpt lat="40.281489" lon="-4.762902">
        <ele>534.88</ele>
        <time>2021-03-27T15:53:53Z</time>
      </trkpt>
      <trkpt lat="40.281322" lon="-4.762815">
        <ele>531.37</ele>
        <time>2021-03-27T15:53:55Z</time>
      </trkpt>
      <trkpt lat="40.281204" lon="-4.762777">
        <ele>529.64</ele>
        <time>2021-03-27T15:53:58Z</time>
      </trkpt>
      <trkpt lat="40.281084" lon="-4.762747">
        <ele>527.58</ele>
        <time>2021-03-27T15:54:00Z</time>
      </trkpt>
      <trkpt lat="40.280976" lon="-4.762753">
        <ele>525.1</ele>
        <time>2021-03-27T15:54:02Z</time>
      </trkpt>
      <trkpt lat="40.280887" lon="-4.762802">
        <ele>523.71</ele>
        <time>2021-03-27T15:54:05Z</time>
      </trkpt>
      <trkpt lat="40.280813" lon="-4.762893">
        <ele>523.2</ele>
        <time>2021-03-27T15:54:07Z</time>
      </trkpt>
      <trkpt lat="40.280613" lon="-4.763489">
        <ele>530.37</ele>
        <time>2021-03-27T15:54:10Z</time>
      </trkpt>
      <trkpt lat="40.280534" lon="-4.763638">
        <ele>531.82</ele>
        <time>2021-03-27T15:54:12Z</time>
      </trkpt>
      <trkpt lat="40.280445" lon="-4.763737">
        <ele>531.28</ele>
        <time>2021-03-27T15:54:14Z</time>
      </trkpt>
      <trkpt lat="40.280376" lon="-4.763777">
        <ele>530.74</ele>
        <time>2021-03-27T15:54:17Z</time>
      </trkpt>
      <trkpt lat="40.280017" lon="-4.763779">
        <ele>526.97</ele>
        <time>2021-03-27T15:54:19Z</time>
      </trkpt>
      <trkpt lat="40.279655" lon="-4.76395">
        <ele>525.7</ele>
        <time>2021-03-27T15:54:21Z</time>
      </trkpt>
      <trkpt lat="40.279774" lon="-4.764125">
        <ele>529.08</ele>
        <time>2021-03-27T15:54:24Z</time>
      </trkpt>
      <trkpt lat="40.279874" lon="-4.764174">
        <ele>530.72</ele>
        <time>2021-03-27T15:54:27Z</time>
      </trkpt>
      <trkpt lat="40.279966" lon="-4.764189">
        <ele>531.87</ele>
        <time>2021-03-27T15:54:29Z</time>
      </trkpt>
      <trkpt lat="40.280423" lon="-4.763946">
        <ele>533.19</ele>
        <time>2021-03-27T15:54:32Z</time>
      </trkpt>
      <trkpt lat="40.280678" lon="-4.763755">
        <ele>534.8</ele>
        <time>2021-03-27T15:54:35Z</time>
      </trkpt>
      <trkpt lat="40.280811" lon="-4.763614">
        <ele>535.71</ele>
        <time>2021-03-27T15:54:37Z</time>
      </trkpt>
      <trkpt lat="40.281088" lon="-4.76326">
        <ele>534.81</ele>
        <time>2021-03-27T15:54:40Z</time>
      </trkpt>
      <trkpt lat="40.281181" lon="-4.763178">
        <ele>535.59</ele>
        <time>2021-03-27T15:54:42Z</time>
      </trkpt>
      <trkpt lat="40.281326" lon="-4.763131">
        <ele>537.68</ele>
        <time>2021-03-27T15:54:45Z</time>
      </trkpt>
      <trkpt lat="40.281458" lon="-4.763145">
        <ele>539.22</ele>
        <time>2021-03-27T15:54:48Z</time>
      </trkpt>
      <trkpt lat="40.281839" lon="-4.763246">
        <ele>542.11</ele>
        <time>2021-03-27T15:54:50Z</time>
      </trkpt>
      <trkpt lat="40.281939" lon="-4.763239">
        <ele>542.61</ele>
        <time>2021-03-27T15:54:53Z</time>
      </trkpt>
      <trkpt lat="40.282053" lon="-4.763161">
        <ele>542.0</ele>
        <time>2021-03-27T15:54:55Z</time>
      </trkpt>
      <trkpt lat="40.282573" lon="-4.762694">
        <ele>543.61</ele>
        <time>2021-03-27T15:54:58Z</time>
      </trkpt>
      <trkpt lat="40.282691" lon="-4.762502">
        <ele>546.43</ele>
        <time>2021-03-27T15:55:01Z</time>
      </trkpt>
      <trkpt lat="40.282779" lon="-4.762277">
        <ele>547.22</ele>
        <time>2021-03-27T15:55:03Z</time>
      </trkpt>
      <trkpt lat="40.282843" lon="-4.762162">
        <ele>547.13</ele>
        <time>2021-03-27T15:55:06Z</time>
      </trkpt>
      <trkpt lat="40.282942" lon="-4.762071">
        <ele>547.51</ele>
        <time>2021-03-27T15:55:08Z</time>
      </trkpt>
      <trkpt lat="40.283093" lon="-4.762041">
        <ele>549.4</ele>
        <time>2021-03-27T15:55:11Z</time>
      </trkpt>
      <trkpt lat="40.283178" lon="-4.762063">
        <ele>550.41</ele>
        <time>2021-03-27T15:55:14Z</time>
      </trkpt>
      <trkpt lat="40.283206" lon="-4.762089">
        <ele>550.91</ele>
        <time>2021-03-27T15:55:16Z</time>
      </trkpt>
      <trkpt lat="40.283422" lon="-4.762468">
        <ele>553.92</ele>
        <time>2021-03-27T15:55:19Z</time>
      </trkpt>
      <trkpt lat="40.283574" lon="-4.762678">
        <ele>555.19</ele>
        <time>2021-03-27T15:55:21Z</time>
      </trkpt>
      <trkpt lat="40.283669" lon="-4.762906">
        <ele>557.69</ele>
        <time>2021-03-27T15:55:24Z</time>
      </trkpt>
      <trkpt lat="40.283676" lon="-4.763089">
        <ele>559.97</ele>
        <time>2021-03-27T15:55:27Z</time>
      </trkpt>
      <trkpt lat="40.283633" lon="-4.763191">
        <ele>561.15</ele>
        <time>2021-03-27T15:55:29Z</time>
      </trkpt>
      <trkpt lat="40.283332" lon="-4.763427">
        <ele>560.64</ele>
        <time>2021-03-27T15:55:32Z</time>
      </trkpt>
      <trkpt lat="40.283222" lon="-4.763542">
        <ele>559.11</ele>
        <time>2021-03-27T15:55:34Z</time>
      </trkpt>
      <trkpt lat="40.283176" lon="-4.763629">
        <ele>558.67</ele>
        <time>2021-03-27T15:55:37Z</time>
      </trkpt>
      <trkpt lat="40.283162" lon="-4.763755">
        <ele>558.83</ele>
        <time>2021-03-27T15:55:40Z</time>
      </trkpt>
      <trkpt lat="40.283168" lon="-4.763883">
        <ele>559.4</ele>
        <time>2021-03-27T15:55:42Z</time>
      </trkpt>
      <trkpt lat="40.283204" lon="-4.76403">
        <ele>559.9</ele>
        <time>2021-03-27T15:55:45Z</time>
      </trkpt>
      <trkpt lat="40.283258" lon="-4.764168">
        <ele>560.2</ele>
        <time>2021-03-27T15:55:48Z</time>
      </trkpt>
      <trkpt lat="40.283529" lon="-4.764685">
        <ele>568.29</ele>
        <time>2021-03-27T15:55:50Z</time>
      </trkpt>
      <trkpt lat="40.284135" lon="-4.765509">
        <ele>577.99</ele>
        <time>2021-03-27T15:55:53Z</time>
      </trkpt>
      <trkpt lat="40.284229" lon="-4.765673">
        <ele>579.03</ele>
        <time>2021-03-27T15:55:55Z</time>
      </trkpt>
      <trkpt lat="40.284269" lon="-4.765871">
        <ele>578.55</ele>
        <time>2021-03-27T15:55:58Z</time>
      </trkpt>
      <trkpt lat="40.284273" lon="-4.76601">
        <ele>577.88</ele>
        <time>2021-03-27T15:56:01Z</time>
      </trkpt>
      <trkpt lat="40.284228" lon="-4.766175">
        <ele>577.17</ele>
        <time>2021-03-27T15:56:03Z</time>
      </trkpt>
      <trkpt lat="40.282949" lon="-4.768281">
        <ele>576.55</ele>
        <time>2021-03-27T15:56:06Z</time>
      </trkpt>
      <trkpt lat="40.282836" lon="-4.768532">
        <ele>577.72</ele>
        <time>2021-03-27T15:56:08Z</time>
      </trkpt>
      <trkpt lat="40.28281" lon="-4.768718">
        <ele>578.04</ele>
        <time>2021-03-27T15:56:11Z</time>
      </trkpt>
      <trkpt lat="40.282759" lon="-4.769442">
        <ele>576.94</ele>
        <time>2021-03-27T15:56:14Z</time>
      </trkpt>
      <trkpt lat="40.282767" lon="-4.769589">
        <ele>577.94</ele>
        <time>2021-03-27T15:56:16Z</time>
      </trkpt>
      <trkpt lat="40.282807" lon="-4.76973">
        <ele>579.21</ele>
        <time>2021-03-27T15:56:19Z</time>
      </trkpt>
      <trkpt lat="40.283023" lon="-4.770088">
        <ele>580.17</ele>
        <time>2021-03-27T15:56:21Z</time>
      </trkpt>
      <trkpt lat="40.283126" lon="-4.770326">
        <ele>579.21</ele>
        <time>2021-03-27T15:56:24Z</time>
      </trkpt>
      <trkpt lat="40.283445" lon="-4.771503">
        <ele>578.08</ele>
        <time>2021-03-27T15:56:27Z</time>
      </trkpt>
      <trkpt lat="40.283468" lon="-4.771756">
        <ele>580.6</ele>
        <time>2021-03-27T15:56:29Z</time>
      </trkpt>
      <trkpt lat="40.283453" lon="-4.771981">
        <ele>581.94</ele>
        <time>2021-03-27T15:56:32Z</time>
      </trkpt>
      <trkpt lat="40.283213" lon="-4.772787">
        <ele>583.2</ele>
        <time>2021-03-27T15:56:34Z</time>
      </trkpt>
      <trkpt lat="40.283116" lon="-4.772921">
        <ele>583.47</ele>
        <time>2021-03-27T15:56:37Z</time>
      </trkpt>
      <trkpt lat="40.28296" lon="-4.773036">
        <ele>583.52</ele>
        <time>2021-03-27T15:56:40Z</time>
      </trkpt>
      <trkpt lat="40.282534" lon="-4.773223">
        <ele>583.15</ele>
        <time>2021-03-27T15:56:42Z</time>
      </trkpt>
      <trkpt lat="40.282377" lon="-4.773328">
        <ele>583.87</ele>
        <time>2021-03-27T15:56:45Z</time>
      </trkpt>
      <trkpt lat="40.281796" lon="-4.773834">
        <ele>587.64</ele>
        <time>2021-03-27T15:56:47Z</time>
      </trkpt>
      <trkpt lat="40.281472" lon="-4.774139">
        <ele>587.47</ele>
        <time>2021-03-27T15:56:50Z</time>
      </trkpt>
      <trkpt lat="40.281233" lon="-4.774561">
        <ele>588.69</ele>
        <time>2021-03-27T15:56:53Z</time>
      </trkpt>
      <trkpt lat="40.280649" lon="-4.77569">
        <ele>594.16</ele>
        <time>2021-03-27T15:56:55Z</time>
      </trkpt>
      <trkpt lat="40.280186" lon="-4.776681">
        <ele>598.44</ele>
        <time>2021-03-27T15:56:58Z</time>
      </trkpt>
      <trkpt lat="40.280069" lon="-4.777033">
        <ele>600.45</ele>
        <time>2021-03-27T15:57:01Z</time>
      </trkpt>
      <trkpt lat="40.2799" lon="-4.777844">
        <ele>603.07</ele>
        <time>2021-03-27T15:57:03Z</time>
      </trkpt>
      <trkpt lat="40.2799" lon="-4.777844">
        <ele>603.07</ele>
        <time>2021-03-27T15:57:03Z</time>
      </trkpt>
      <trkpt lat="40.27988" lon="-4.777943">
        <ele>603.22</ele>
        <time>2021-03-27T15:57:05Z</time>
      </trkpt>
      <trkpt lat="40.279803" lon="-4.778134">
        <ele>604.54</ele>
        <time>2021-03-27T15:57:06Z</time>
      </trkpt>
      <trkpt lat="40.279715" lon="-4.778261">
        <ele>606.69</ele>
        <time>2021-03-27T15:57:07Z</time>
      </trkpt>
      <trkpt lat="40.279443" lon="-4.778535">
        <ele>610.89</ele>
        <time>2021-03-27T15:57:09Z</time>
      </trkpt>
      <trkpt lat="40.279386" lon="-4.778638">
        <ele>611.66</ele>
        <time>2021-03-27T15:57:10Z</time>
      </trkpt>
      <trkpt lat="40.279338" lon="-4.778795">
        <ele>612.83</ele>
        <time>2021-03-27T15:57:12Z</time>
      </trkpt>
      <trkpt lat="40.279054" lon="-4.781036">
        <ele>624.15</ele>
        <time>2021-03-27T15:57:13Z</time>
      </trkpt>
      <trkpt lat="40.279036" lon="-4.781703">
        <ele>629.03</ele>
        <time>2021-03-27T15:57:15Z</time>
      </trkpt>
      <trkpt lat="40.279059" lon="-4.782127">
        <ele>632.54</ele>
        <time>2021-03-27T15:57:16Z</time>
      </trkpt>
      <trkpt lat="40.279099" lon="-4.782404">
        <ele>633.24</ele>
        <time>2021-03-27T15:57:18Z</time>
      </trkpt>
      <trkpt lat="40.279146" lon="-4.782556">
        <ele>633.53</ele>
        <time>2021-03-27T15:57:19Z</time>
      </trkpt>
      <trkpt lat="40.279561" lon="-4.783555">
        <ele>632.78</ele>
        <time>2021-03-27T15:57:20Z</time>
      </trkpt>
      <trkpt lat="40.279629" lon="-4.783789">
        <ele>633.67</ele>
        <time>2021-03-27T15:57:22Z</time>
      </trkpt>
      <trkpt lat="40.279769" lon="-4.784446">
        <ele>639.18</ele>
        <time>2021-03-27T15:57:23Z</time>
      </trkpt>
      <trkpt lat="40.27983" lon="-4.784653">
        <ele>639.96</ele>
        <time>2021-03-27T15:57:25Z</time>
      </trkpt>
      <trkpt lat="40.279946" lon="-4.784915">
        <ele>641.25</ele>
        <time>2021-03-27T15:57:26Z</time>
      </trkpt>
      <trkpt lat="40.280104" lon="-4.785213">
        <ele>645.18</ele>
        <time>2021-03-27T15:57:28Z</time>
      </trkpt>
      <trkpt lat="40.280128" lon="-4.785344">
        <ele>646.88</ele>
        <time>2021-03-27T15:57:29Z</time>
      </trkpt>
      <trkpt lat="40.280075" lon="-4.7856">
        <ele>648.66</ele>
        <time>2021-03-27T15:57:31Z</time>
      </trkpt>
      <trkpt lat="40.279885" lon="-4.785957">
        <ele>649.41</ele>
        <time>2021-03-27T15:57:32Z</time>
      </trkpt>
      <trkpt lat="40.279778" lon="-4.786198">
        <ele>648.6</ele>
        <time>2021-03-27T15:57:33Z</time>
      </trkpt>
      <trkpt lat="40.279754" lon="-4.786343">
        <ele>648.63</ele>
        <time>2021-03-27T15:57:35Z</time>
      </trkpt>
      <trkpt lat="40.279754" lon="-4.786491">
        <ele>649.14</ele>
        <time>2021-03-27T15:57:36Z</time>
      </trkpt>
      <trkpt lat="40.279904" lon="-4.787103">
        <ele>650.98</ele>
        <time>2021-03-27T15:57:38Z</time>
      </trkpt>
      <trkpt lat="40.279977" lon="-4.787248">
        <ele>651.39</ele>
        <time>2021-03-27T15:57:39Z</time>
      </trkpt>
      <trkpt lat="40.280147" lon="-4.787513">
        <ele>652.51</ele>
        <time>2021-03-27T15:57:41Z</time>
      </trkpt>
      <trkpt lat="40.280274" lon="-4.78767">
        <ele>653.68</ele>
        <time>2021-03-27T15:57:42Z</time>
      </trkpt>
      <trkpt lat="40.280438" lon="-4.787813">
        <ele>656.58</ele>
        <time>2021-03-27T15:57:44Z</time>
      </trkpt>
      <trkpt lat="40.281888" lon="-4.788441">
        <ele>665.7</ele>
        <time>2021-03-27T15:57:45Z</time>
      </trkpt>
      <trkpt lat="40.282009" lon="-4.788536">
        <ele>666.85</ele>
        <time>2021-03-27T15:57:46Z</time>
      </trkpt>
      <trkpt lat="40.282095" lon="-4.788667">
        <ele>666.9</ele>
        <time>2021-03-27T15:57:48Z</time>
      </trkpt>
      <trkpt lat="40.282453" lon="-4.789373">
        <ele>670.95</ele>
        <time>2021-03-27T15:57:49Z</time>
      </trkpt>
      <trkpt lat="40.282512" lon="-4.789564">
        <ele>671.58</ele>
        <time>2021-03-27T15:57:51Z</time>
      </trkpt>
      <trkpt lat="40.282645" lon="-4.790156">
        <ele>669.79</ele>
        <time>2021-03-27T15:57:52Z</time>
      </trkpt>
      <trkpt lat="40.282714" lon="-4.790286">
        <ele>670.57</ele>
        <time>2021-03-27T15:57:54Z</time>
      </trkpt>
      <trkpt lat="40.282803" lon="-4.790403">
        <ele>671.56</ele>
        <time>2021-03-27T15:57:55Z</time>
      </trkpt>
      <trkpt lat="40.282925" lon="-4.790513">
        <ele>673.9</ele>
        <time>2021-03-27T15:57:57Z</time>
      </trkpt>
      <trkpt lat="40.283114" lon="-4.790636">
        <ele>676.38</ele>
        <time>2021-03-27T15:57:58Z</time>
      </trkpt>
      <trkpt lat="40.283376" lon="-4.790781">
        <ele>674.56</ele>
        <time>2021-03-27T15:58:00Z</time>
      </trkpt>
      <trkpt lat="40.283807" lon="-4.790946">
        <ele>676.2</ele>
        <time>2021-03-27T15:58:01Z</time>
      </trkpt>
      <trkpt lat="40.28418" lon="-4.7912">
        <ele>678.67</ele>
        <time>2021-03-27T15:58:02Z</time>
      </trkpt>
      <trkpt lat="40.284473" lon="-4.791338">
        <ele>681.71</ele>
        <time>2021-03-27T15:58:04Z</time>
      </trkpt>
      <trkpt lat="40.284703" lon="-4.791474">
        <ele>684.08</ele>
        <time>2021-03-27T15:58:05Z</time>
      </trkpt>
      <trkpt lat="40.284796" lon="-4.791575">
        <ele>684.34</ele>
        <time>2021-03-27T15:58:07Z</time>
      </trkpt>
      <trkpt lat="40.284864" lon="-4.791707">
        <ele>683.69</ele>
        <time>2021-03-27T15:58:08Z</time>
      </trkpt>
      <trkpt lat="40.284884" lon="-4.791851">
        <ele>682.78</ele>
        <time>2021-03-27T15:58:10Z</time>
      </trkpt>
      <trkpt lat="40.284874" lon="-4.791957">
        <ele>681.67</ele>
        <time>2021-03-27T15:58:11Z</time>
      </trkpt>
      <trkpt lat="40.284825" lon="-4.792077">
        <ele>680.19</ele>
        <time>2021-03-27T15:58:13Z</time>
      </trkpt>
      <trkpt lat="40.284701" lon="-4.792279">
        <ele>678.15</ele>
        <time>2021-03-27T15:58:14Z</time>
      </trkpt>
      <trkpt lat="40.284613" lon="-4.792487">
        <ele>678.5</ele>
        <time>2021-03-27T15:58:15Z</time>
      </trkpt>
      <trkpt lat="40.284568" lon="-4.792703">
        <ele>680.52</ele>
        <time>2021-03-27T15:58:17Z</time>
      </trkpt>
      <trkpt lat="40.284529" lon="-4.793263">
        <ele>686.08</ele>
        <time>2021-03-27T15:58:18Z</time>
      </trkpt>
      <trkpt lat="40.284506" lon="-4.793421">
        <ele>687.6</ele>
        <time>2021-03-27T15:58:20Z</time>
      </trkpt>
      <trkpt lat="40.284272" lon="-4.794644">
        <ele>694.21</ele>
        <time>2021-03-27T15:58:21Z</time>
      </trkpt>
      <trkpt lat="40.284192" lon="-4.79492">
        <ele>696.34</ele>
        <time>2021-03-27T15:58:23Z</time>
      </trkpt>
      <trkpt lat="40.283914" lon="-4.795395">
        <ele>700.09</ele>
        <time>2021-03-27T15:58:24Z</time>
      </trkpt>
      <trkpt lat="40.283844" lon="-4.795588">
        <ele>699.79</ele>
        <time>2021-03-27T15:58:26Z</time>
      </trkpt>
      <trkpt lat="40.283767" lon="-4.795855">
        <ele>699.26</ele>
        <time>2021-03-27T15:58:27Z</time>
      </trkpt>
      <trkpt lat="40.283503" lon="-4.796989">
        <ele>705.15</ele>
        <time>2021-03-27T15:58:28Z</time>
      </trkpt>
      <trkpt lat="40.283453" lon="-4.797122">
        <ele>705.45</ele>
        <time>2021-03-27T15:58:30Z</time>
      </trkpt>
      <trkpt lat="40.283378" lon="-4.797248">
        <ele>705.24</ele>
        <time>2021-03-27T15:58:31Z</time>
      </trkpt>
      <trkpt lat="40.283162" lon="-4.797424">
        <ele>707.36</ele>
        <time>2021-03-27T15:58:33Z</time>
      </trkpt>
      <trkpt lat="40.282938" lon="-4.797557">
        <ele>710.82</ele>
        <time>2021-03-27T15:58:34Z</time>
      </trkpt>
      <trkpt lat="40.282834" lon="-4.797594">
        <ele>711.81</ele>
        <time>2021-03-27T15:58:36Z</time>
      </trkpt>
      <trkpt lat="40.282731" lon="-4.797603">
        <ele>711.39</ele>
        <time>2021-03-27T15:58:37Z</time>
      </trkpt>
      <trkpt lat="40.28249" lon="-4.797582">
        <ele>708.55</ele>
        <time>2021-03-27T15:58:39Z</time>
      </trkpt>
      <trkpt lat="40.282377" lon="-4.797594">
        <ele>707.71</ele>
        <time>2021-03-27T15:58:40Z</time>
      </trkpt>
      <trkpt lat="40.282276" lon="-4.797643">
        <ele>707.79</ele>
        <time>2021-03-27T15:58:41Z</time>
      </trkpt>
      <trkpt lat="40.282172" lon="-4.797737">
        <ele>708.07</ele>
        <time>2021-03-27T15:58:43Z</time>
      </trkpt>
      <trkpt lat="40.282087" lon="-4.797843">
        <ele>708.03</ele>
        <time>2021-03-27T15:58:44Z</time>
      </trkpt>
      <trkpt lat="40.281178" lon="-4.799254">
        <ele>716.27</ele>
        <time>2021-03-27T15:58:46Z</time>
      </trkpt>
      <trkpt lat="40.281141" lon="-4.799409">
        <ele>717.44</ele>
        <time>2021-03-27T15:58:47Z</time>
      </trkpt>
      <trkpt lat="40.281134" lon="-4.799595">
        <ele>718.78</ele>
        <time>2021-03-27T15:58:49Z</time>
      </trkpt>
      <trkpt lat="40.281245" lon="-4.800247">
        <ele>725.25</ele>
        <time>2021-03-27T15:58:50Z</time>
      </trkpt>
      <trkpt lat="40.281316" lon="-4.800816">
        <ele>727.21</ele>
        <time>2021-03-27T15:58:52Z</time>
      </trkpt>
      <trkpt lat="40.281367" lon="-4.800979">
        <ele>726.96</ele>
        <time>2021-03-27T15:58:53Z</time>
      </trkpt>
      <trkpt lat="40.281449" lon="-4.801131">
        <ele>727.29</ele>
        <time>2021-03-27T15:58:54Z</time>
      </trkpt>
      <trkpt lat="40.281871" lon="-4.801723">
        <ele>731.86</ele>
        <time>2021-03-27T15:58:56Z</time>
      </trkpt>
      <trkpt lat="40.28195" lon="-4.801965">
        <ele>732.0</ele>
        <time>2021-03-27T15:58:57Z</time>
      </trkpt>
      <trkpt lat="40.282072" lon="-4.802452">
        <ele>733.59</ele>
        <time>2021-03-27T15:58:59Z</time>
      </trkpt>
      <trkpt lat="40.282139" lon="-4.802597">
        <ele>734.85</ele>
        <time>2021-03-27T15:59:00Z</time>
      </trkpt>
      <trkpt lat="40.282236" lon="-4.802735">
        <ele>736.17</ele>
        <time>2021-03-27T15:59:02Z</time>
      </trkpt>
      <trkpt lat="40.282361" lon="-4.802841">
        <ele>734.63</ele>
        <time>2021-03-27T15:59:03Z</time>
      </trkpt>
      <trkpt lat="40.282675" lon="-4.802959">
        <ele>733.52</ele>
        <time>2021-03-27T15:59:05Z</time>
      </trkpt>
      <trkpt lat="40.28333" lon="-4.803123">
        <ele>735.33</ele>
        <time>2021-03-27T15:59:06Z</time>
      </trkpt>
      <trkpt lat="40.283614" lon="-4.80323">
        <ele>731.76</ele>
        <time>2021-03-27T15:59:07Z</time>
      </trkpt>
      <trkpt lat="40.284312" lon="-4.803543">
        <ele>737.57</ele>
        <time>2021-03-27T15:59:09Z</time>
      </trkpt>
      <trkpt lat="40.284393" lon="-4.803625">
        <ele>738.03</ele>
        <time>2021-03-27T15:59:10Z</time>
      </trkpt>
      <trkpt lat="40.284445" lon="-4.803735">
        <ele>737.34</ele>
        <time>2021-03-27T15:59:12Z</time>
      </trkpt>
      <trkpt lat="40.284511" lon="-4.803976">
        <ele>735.23</ele>
        <time>2021-03-27T15:59:13Z</time>
      </trkpt>
      <trkpt lat="40.28476" lon="-4.805032">
        <ele>732.75</ele>
        <time>2021-03-27T15:59:15Z</time>
      </trkpt>
      <trkpt lat="40.284816" lon="-4.805219">
        <ele>731.36</ele>
        <time>2021-03-27T15:59:16Z</time>
      </trkpt>
      <trkpt lat="40.284908" lon="-4.805376">
        <ele>731.74</ele>
        <time>2021-03-27T15:59:18Z</time>
      </trkpt>
      <trkpt lat="40.285234" lon="-4.805732">
        <ele>738.19</ele>
        <time>2021-03-27T15:59:19Z</time>
      </trkpt>
      <trkpt lat="40.285294" lon="-4.805854">
        <ele>739.39</ele>
        <time>2021-03-27T15:59:20Z</time>
      </trkpt>
      <trkpt lat="40.285323" lon="-4.805988">
        <ele>739.96</ele>
        <time>2021-03-27T15:59:22Z</time>
      </trkpt>
      <trkpt lat="40.28532" lon="-4.806136">
        <ele>739.67</ele>
        <time>2021-03-27T15:59:23Z</time>
      </trkpt>
      <trkpt lat="40.28524" lon="-4.80634">
        <ele>737.74</ele>
        <time>2021-03-27T15:59:25Z</time>
      </trkpt>
      <trkpt lat="40.285175" lon="-4.80642">
        <ele>737.07</ele>
        <time>2021-03-27T15:59:26Z</time>
      </trkpt>
      <trkpt lat="40.285083" lon="-4.80649">
        <ele>736.37</ele>
        <time>2021-03-27T15:59:28Z</time>
      </trkpt>
      <trkpt lat="40.284747" lon="-4.806562">
        <ele>735.62</ele>
        <time>2021-03-27T15:59:29Z</time>
      </trkpt>
      <trkpt lat="40.284644" lon="-4.806619">
        <ele>735.5</ele>
        <time>2021-03-27T15:59:31Z</time>
      </trkpt>
      <trkpt lat="40.284555" lon="-4.806721">
        <ele>735.79</ele>
        <time>2021-03-27T15:59:32Z</time>
      </trkpt>
      <trkpt lat="40.284408" lon="-4.807092">
        <ele>738.81</ele>
        <time>2021-03-27T15:59:34Z</time>
      </trkpt>
      <trkpt lat="40.284347" lon="-4.807194">
        <ele>739.86</ele>
        <time>2021-03-27T15:59:35Z</time>
      </trkpt>
      <trkpt lat="40.284201" lon="-4.807345">
        <ele>741.02</ele>
        <time>2021-03-27T15:59:36Z</time>
      </trkpt>
      <trkpt lat="40.283757" lon="-4.807624">
        <ele>740.92</ele>
        <time>2021-03-27T15:59:38Z</time>
      </trkpt>
      <trkpt lat="40.283293" lon="-4.808093">
        <ele>748.05</ele>
        <time>2021-03-27T15:59:39Z</time>
      </trkpt>
      <trkpt lat="40.282606" lon="-4.808604">
        <ele>744.57</ele>
        <time>2021-03-27T15:59:41Z</time>
      </trkpt>
      <trkpt lat="40.282532" lon="-4.808683">
        <ele>743.85</ele>
        <time>2021-03-27T15:59:42Z</time>
      </trkpt>
      <trkpt lat="40.282477" lon="-4.808797">
        <ele>743.94</ele>
        <time>2021-03-27T15:59:44Z</time>
      </trkpt>
      <trkpt lat="40.282442" lon="-4.808941">
        <ele>744.38</ele>
        <time>2021-03-27T15:59:45Z</time>
      </trkpt>
      <trkpt lat="40.282419" lon="-4.809329">
        <ele>745.12</ele>
        <time>2021-03-27T15:59:47Z</time>
      </trkpt>
      <trkpt lat="40.282376" lon="-4.809503">
        <ele>744.87</ele>
        <time>2021-03-27T15:59:48Z</time>
      </trkpt>
      <trkpt lat="40.282295" lon="-4.80964">
        <ele>744.16</ele>
        <time>2021-03-27T15:59:49Z</time>
      </trkpt>
      <trkpt lat="40.282139" lon="-4.809772">
        <ele>742.24</ele>
        <time>2021-03-27T15:59:51Z</time>
      </trkpt>
      <trkpt lat="40.28207" lon="-4.809865">
        <ele>742.0</ele>
        <time>2021-03-27T15:59:52Z</time>
      </trkpt>
      <trkpt lat="40.282027" lon="-4.809956">
        <ele>741.92</ele>
        <time>2021-03-27T15:59:54Z</time>
      </trkpt>
      <trkpt lat="40.28199" lon="-4.810282">
        <ele>745.37</ele>
        <time>2021-03-27T15:59:55Z</time>
      </trkpt>
      <trkpt lat="40.282041" lon="-4.810704">
        <ele>750.62</ele>
        <time>2021-03-27T15:59:57Z</time>
      </trkpt>
      <trkpt lat="40.282046" lon="-4.810869">
        <ele>751.47</ele>
        <time>2021-03-27T15:59:58Z</time>
      </trkpt>
      <trkpt lat="40.281968" lon="-4.811415">
        <ele>753.7</ele>
        <time>2021-03-27T16:00:00Z</time>
      </trkpt>
      <trkpt lat="40.281967" lon="-4.811636">
        <ele>754.53</ele>
        <time>2021-03-27T16:00:01Z</time>
      </trkpt>
      <trkpt lat="40.282023" lon="-4.81248">
        <ele>756.19</ele>
        <time>2021-03-27T16:00:02Z</time>
      </trkpt>
      <trkpt lat="40.282135" lon="-4.812905">
        <ele>761.94</ele>
        <time>2021-03-27T16:00:04Z</time>
      </trkpt>
      <trkpt lat="40.28218" lon="-4.813215">
        <ele>762.57</ele>
        <time>2021-03-27T16:00:05Z</time>
      </trkpt>
      <trkpt lat="40.282386" lon="-4.81384">
        <ele>761.14</ele>
        <time>2021-03-27T16:00:07Z</time>
      </trkpt>
      <trkpt lat="40.282444" lon="-4.813952">
        <ele>762.11</ele>
        <time>2021-03-27T16:00:08Z</time>
      </trkpt>
      <trkpt lat="40.28266" lon="-4.814207">
        <ele>768.25</ele>
        <time>2021-03-27T16:00:10Z</time>
      </trkpt>
      <trkpt lat="40.282713" lon="-4.81431">
        <ele>770.06</ele>
        <time>2021-03-27T16:00:11Z</time>
      </trkpt>
      <trkpt lat="40.282728" lon="-4.814432">
        <ele>770.23</ele>
        <time>2021-03-27T16:00:13Z</time>
      </trkpt>
      <trkpt lat="40.282711" lon="-4.814566">
        <ele>770.37</ele>
        <time>2021-03-27T16:00:14Z</time>
      </trkpt>
      <trkpt lat="40.282634" lon="-4.814879">
        <ele>769.72</ele>
        <time>2021-03-27T16:00:15Z</time>
      </trkpt>
      <trkpt lat="40.282633" lon="-4.814981">
        <ele>770.58</ele>
        <time>2021-03-27T16:00:17Z</time>
      </trkpt>
      <trkpt lat="40.282666" lon="-4.815155">
        <ele>772.41</ele>
        <time>2021-03-27T16:00:18Z</time>
      </trkpt>
      <trkpt lat="40.282893" lon="-4.815812">
        <ele>778.24</ele>
        <time>2021-03-27T16:00:20Z</time>
      </trkpt>
      <trkpt lat="40.282957" lon="-4.816465">
        <ele>778.01</ele>
        <time>2021-03-27T16:00:21Z</time>
      </trkpt>
      <trkpt lat="40.283169" lon="-4.817425">
        <ele>784.72</ele>
        <time>2021-03-27T16:00:23Z</time>
      </trkpt>
      <trkpt lat="40.283179" lon="-4.817614">
        <ele>784.72</ele>
        <time>2021-03-27T16:00:24Z</time>
      </trkpt>
      <trkpt lat="40.283071" lon="-4.818246">
        <ele>782.79</ele>
        <time>2021-03-27T16:00:26Z</time>
      </trkpt>
      <trkpt lat="40.283071" lon="-4.818388">
        <ele>783.01</ele>
        <time>2021-03-27T16:00:27Z</time>
      </trkpt>
      <trkpt lat="40.283117" lon="-4.818552">
        <ele>783.31</ele>
        <time>2021-03-27T16:00:28Z</time>
      </trkpt>
      <trkpt lat="40.283331" lon="-4.81891">
        <ele>789.01</ele>
        <time>2021-03-27T16:00:30Z</time>
      </trkpt>
      <trkpt lat="40.283352" lon="-4.819031">
        <ele>790.14</ele>
        <time>2021-03-27T16:00:31Z</time>
      </trkpt>
      <trkpt lat="40.283352" lon="-4.819205">
        <ele>790.56</ele>
        <time>2021-03-27T16:00:33Z</time>
      </trkpt>
      <trkpt lat="40.283314" lon="-4.819422">
        <ele>789.64</ele>
        <time>2021-03-27T16:00:34Z</time>
      </trkpt>
      <trkpt lat="40.283247" lon="-4.819683">
        <ele>792.15</ele>
        <time>2021-03-27T16:00:36Z</time>
      </trkpt>
      <trkpt lat="40.283195" lon="-4.819762">
        <ele>792.71</ele>
        <time>2021-03-27T16:00:37Z</time>
      </trkpt>
      <trkpt lat="40.283121" lon="-4.819815">
        <ele>792.61</ele>
        <time>2021-03-27T16:00:39Z</time>
      </trkpt>
      <trkpt lat="40.283039" lon="-4.819822">
        <ele>791.74</ele>
        <time>2021-03-27T16:00:40Z</time>
      </trkpt>
      <trkpt lat="40.282706" lon="-4.819785">
        <ele>789.76</ele>
        <time>2021-03-27T16:00:41Z</time>
      </trkpt>
      <trkpt lat="40.282605" lon="-4.819813">
        <ele>789.61</ele>
        <time>2021-03-27T16:00:43Z</time>
      </trkpt>
      <trkpt lat="40.282504" lon="-4.819885">
        <ele>789.8</ele>
        <time>2021-03-27T16:00:44Z</time>
      </trkpt>
      <trkpt lat="40.282424" lon="-4.819996">
        <ele>789.86</ele>
        <time>2021-03-27T16:00:46Z</time>
      </trkpt>
      <trkpt lat="40.28222" lon="-4.820414">
        <ele>787.95</ele>
        <time>2021-03-27T16:00:47Z</time>
      </trkpt>
      <trkpt lat="40.282183" lon="-4.820568">
        <ele>787.13</ele>
        <time>2021-03-27T16:00:49Z</time>
      </trkpt>
      <trkpt lat="40.282198" lon="-4.821247">
        <ele>792.54</ele>
        <time>2021-03-27T16:00:50Z</time>
      </trkpt>
      <trkpt lat="40.282172" lon="-4.821409">
        <ele>794.21</ele>
        <time>2021-03-27T16:00:52Z</time>
      </trkpt>
      <trkpt lat="40.28211" lon="-4.821575">
        <ele>794.23</ele>
        <time>2021-03-27T16:00:53Z</time>
      </trkpt>
      <trkpt lat="40.281973" lon="-4.821843">
        <ele>794.93</ele>
        <time>2021-03-27T16:00:54Z</time>
      </trkpt>
      <trkpt lat="40.281243" lon="-4.822856">
        <ele>796.74</ele>
        <time>2021-03-27T16:00:56Z</time>
      </trkpt>
      <trkpt lat="40.281173" lon="-4.822993">
        <ele>798.73</ele>
        <time>2021-03-27T16:00:57Z</time>
      </trkpt>
      <trkpt lat="40.28114" lon="-4.823169">
        <ele>800.47</ele>
        <time>2021-03-27T16:00:59Z</time>
      </trkpt>
      <trkpt lat="40.28113" lon="-4.823346">
        <ele>801.55</ele>
        <time>2021-03-27T16:01:00Z</time>
      </trkpt>
      <trkpt lat="40.281157" lon="-4.824666">
        <ele>802.8</ele>
        <time>2021-03-27T16:01:02Z</time>
      </trkpt>
      <trkpt lat="40.281155" lon="-4.824849">
        <ele>804.12</ele>
        <time>2021-03-27T16:01:03Z</time>
      </trkpt>
      <trkpt lat="40.281118" lon="-4.824992">
        <ele>804.2</ele>
        <time>2021-03-27T16:01:05Z</time>
      </trkpt>
      <trkpt lat="40.281065" lon="-4.825108">
        <ele>804.18</ele>
        <time>2021-03-27T16:01:06Z</time>
      </trkpt>
      <trkpt lat="40.280672" lon="-4.82562">
        <ele>803.72</ele>
        <time>2021-03-27T16:01:07Z</time>
      </trkpt>
      <trkpt lat="40.280572" lon="-4.825771">
        <ele>803.6</ele>
        <time>2021-03-27T16:01:09Z</time>
      </trkpt>
      <trkpt lat="40.280507" lon="-4.825938">
        <ele>804.22</ele>
        <time>2021-03-27T16:01:10Z</time>
      </trkpt>
      <trkpt lat="40.280314" lon="-4.826686">
        <ele>808.61</ele>
        <time>2021-03-27T16:01:12Z</time>
      </trkpt>
      <trkpt lat="40.280249" lon="-4.826824">
        <ele>810.06</ele>
        <time>2021-03-27T16:01:13Z</time>
      </trkpt>
      <trkpt lat="40.280131" lon="-4.826981">
        <ele>809.97</ele>
        <time>2021-03-27T16:01:15Z</time>
      </trkpt>
      <trkpt lat="40.279677" lon="-4.827499">
        <ele>807.01</ele>
        <time>2021-03-27T16:01:16Z</time>
      </trkpt>
      <trkpt lat="40.279605" lon="-4.827616">
        <ele>806.54</ele>
        <time>2021-03-27T16:01:18Z</time>
      </trkpt>
      <trkpt lat="40.279558" lon="-4.827737">
        <ele>806.51</ele>
        <time>2021-03-27T16:01:19Z</time>
      </trkpt>
      <trkpt lat="40.279066" lon="-4.829369">
        <ele>810.3</ele>
        <time>2021-03-27T16:01:21Z</time>
      </trkpt>
      <trkpt lat="40.279015" lon="-4.829616">
        <ele>809.86</ele>
        <time>2021-03-27T16:01:22Z</time>
      </trkpt>
      <trkpt lat="40.279025" lon="-4.831483">
        <ele>812.13</ele>
        <time>2021-03-27T16:01:23Z</time>
      </trkpt>
      <trkpt lat="40.279031" lon="-4.831615">
        <ele>811.73</ele>
        <time>2021-03-27T16:01:25Z</time>
      </trkpt>
      <trkpt lat="40.279084" lon="-4.831877">
        <ele>811.04</ele>
        <time>2021-03-27T16:01:26Z</time>
      </trkpt>
      <trkpt lat="40.279169" lon="-4.83207">
        <ele>810.11</ele>
        <time>2021-03-27T16:01:28Z</time>
      </trkpt>
      <trkpt lat="40.280376" lon="-4.834176">
        <ele>818.99</ele>
        <time>2021-03-27T16:01:29Z</time>
      </trkpt>
      <trkpt lat="40.280485" lon="-4.834337">
        <ele>818.74</ele>
        <time>2021-03-27T16:01:31Z</time>
      </trkpt>
      <trkpt lat="40.280645" lon="-4.834492">
        <ele>818.4</ele>
        <time>2021-03-27T16:01:32Z</time>
      </trkpt>
      <trkpt lat="40.280937" lon="-4.834704">
        <ele>818.0</ele>
        <time>2021-03-27T16:01:34Z</time>
      </trkpt>
      <trkpt lat="40.281093" lon="-4.834793">
        <ele>817.71</ele>
        <time>2021-03-27T16:01:35Z</time>
      </trkpt>
      <trkpt lat="40.281239" lon="-4.834804">
        <ele>818.88</ele>
        <time>2021-03-27T16:01:36Z</time>
      </trkpt>
      <trkpt lat="40.281672" lon="-4.834717">
        <ele>821.18</ele>
        <time>2021-03-27T16:01:38Z</time>
      </trkpt>
      <trkpt lat="40.282096" lon="-4.83471">
        <ele>820.32</ele>
        <time>2021-03-27T16:01:39Z</time>
      </trkpt>
      <trkpt lat="40.282239" lon="-4.834664">
        <ele>821.47</ele>
        <time>2021-03-27T16:01:41Z</time>
      </trkpt>
      <trkpt lat="40.282592" lon="-4.834396">
        <ele>827.2</ele>
        <time>2021-03-27T16:01:42Z</time>
      </trkpt>
      <trkpt lat="40.282674" lon="-4.834358">
        <ele>826.81</ele>
        <time>2021-03-27T16:01:44Z</time>
      </trkpt>
      <trkpt lat="40.282886" lon="-4.834352">
        <ele>823.82</ele>
        <time>2021-03-27T16:01:45Z</time>
      </trkpt>
      <trkpt lat="40.283561" lon="-4.834451">
        <ele>826.88</ele>
        <time>2021-03-27T16:01:47Z</time>
      </trkpt>
      <trkpt lat="40.283695" lon="-4.834526">
        <ele>826.57</ele>
        <time>2021-03-27T16:01:48Z</time>
      </trkpt>
      <trkpt lat="40.283835" lon="-4.834643">
        <ele>824.78</ele>
        <time>2021-03-27T16:01:49Z</time>
      </trkpt>
      <trkpt lat="40.284084" lon="-4.834898">
        <ele>818.7</ele>
        <time>2021-03-27T16:01:51Z</time>
      </trkpt>
      <trkpt lat="40.284166" lon="-4.83493">
        <ele>818.25</ele>
        <time>2021-03-27T16:01:52Z</time>
      </trkpt>
      <trkpt lat="40.284252" lon="-4.834905">
        <ele>820.63</ele>
        <time>2021-03-27T16:01:54Z</time>
      </trkpt>
      <trkpt lat="40.284368" lon="-4.834822">
        <ele>825.39</ele>
        <time>2021-03-27T16:01:55Z</time>
      </trkpt>
      <trkpt lat="40.284469" lon="-4.834814">
        <ele>827.65</ele>
        <time>2021-03-27T16:01:57Z</time>
      </trkpt>
      <trkpt lat="40.28455" lon="-4.834861">
        <ele>828.17</ele>
        <time>2021-03-27T16:01:58Z</time>
      </trkpt>
      <trkpt lat="40.285159" lon="-4.835444">
        <ele>820.93</ele>
        <time>2021-03-27T16:02:00Z</time>
      </trkpt>
      <trkpt lat="40.285229" lon="-4.835474">
        <ele>821.25</ele>
        <time>2021-03-27T16:02:01Z</time>
      </trkpt>
      <trkpt lat="40.285335" lon="-4.835481">
        <ele>823.06</ele>
        <time>2021-03-27T16:02:02Z</time>
      </trkpt>
      <trkpt lat="40.285451" lon="-4.835451">
        <ele>826.5</ele>
        <time>2021-03-27T16:02:04Z</time>
      </trkpt>
      <trkpt lat="40.285743" lon="-4.835469">
        <ele>827.78</ele>
        <time>2021-03-27T16:02:05Z</time>
      </trkpt>
      <trkpt lat="40.286042" lon="-4.83546">
        <ele>825.09</ele>
        <time>2021-03-27T16:02:07Z</time>
      </trkpt>
      <trkpt lat="40.286655" lon="-4.835309">
        <ele>824.91</ele>
        <time>2021-03-27T16:02:08Z</time>
      </trkpt>
      <trkpt lat="40.287339" lon="-4.835325">
        <ele>827.61</ele>
        <time>2021-03-27T16:02:10Z</time>
      </trkpt>
      <trkpt lat="40.287525" lon="-4.835303">
        <ele>828.17</ele>
        <time>2021-03-27T16:02:11Z</time>
      </trkpt>
      <trkpt lat="40.287653" lon="-4.83524">
        <ele>828.97</ele>
        <time>2021-03-27T16:02:13Z</time>
      </trkpt>
      <trkpt lat="40.287808" lon="-4.835129">
        <ele>830.46</ele>
        <time>2021-03-27T16:02:14Z</time>
      </trkpt>
      <trkpt lat="40.288243" lon="-4.834776">
        <ele>833.92</ele>
        <time>2021-03-27T16:02:15Z</time>
      </trkpt>
      <trkpt lat="40.288332" lon="-4.83475">
        <ele>833.7</ele>
        <time>2021-03-27T16:02:17Z</time>
      </trkpt>
      <trkpt lat="40.28843" lon="-4.834783">
        <ele>832.16</ele>
        <time>2021-03-27T16:02:18Z</time>
      </trkpt>
      <trkpt lat="40.288814" lon="-4.835082">
        <ele>823.19</ele>
        <time>2021-03-27T16:02:20Z</time>
      </trkpt>
      <trkpt lat="40.28892" lon="-4.835139">
        <ele>823.0</ele>
        <time>2021-03-27T16:02:21Z</time>
      </trkpt>
      <trkpt lat="40.289574" lon="-4.835292">
        <ele>825.56</ele>
        <time>2021-03-27T16:02:23Z</time>
      </trkpt>
      <trkpt lat="40.290326" lon="-4.835425">
        <ele>825.36</ele>
        <time>2021-03-27T16:02:24Z</time>
      </trkpt>
      <trkpt lat="40.290419" lon="-4.835423">
        <ele>824.55</ele>
        <time>2021-03-27T16:02:26Z</time>
      </trkpt>
      <trkpt lat="40.290503" lon="-4.83539">
        <ele>824.77</ele>
        <time>2021-03-27T16:02:27Z</time>
      </trkpt>
      <trkpt lat="40.291156" lon="-4.834828">
        <ele>830.67</ele>
        <time>2021-03-27T16:02:28Z</time>
      </trkpt>
      <trkpt lat="40.291405" lon="-4.834576">
        <ele>834.18</ele>
        <time>2021-03-27T16:02:30Z</time>
      </trkpt>
      <trkpt lat="40.291828" lon="-4.833916">
        <ele>835.9</ele>
        <time>2021-03-27T16:02:31Z</time>
      </trkpt>
      <trkpt lat="40.291958" lon="-4.833781">
        <ele>836.35</ele>
        <time>2021-03-27T16:02:33Z</time>
      </trkpt>
      <trkpt lat="40.292328" lon="-4.83361">
        <ele>832.64</ele>
        <time>2021-03-27T16:02:34Z</time>
      </trkpt>
      <trkpt lat="40.292619" lon="-4.833504">
        <ele>837.11</ele>
        <time>2021-03-27T16:02:36Z</time>
      </trkpt>
      <trkpt lat="40.29278" lon="-4.833526">
        <ele>838.88</ele>
        <time>2021-03-27T16:02:37Z</time>
      </trkpt>
      <trkpt lat="40.292894" lon="-4.833581">
        <ele>840.76</ele>
        <time>2021-03-27T16:02:39Z</time>
      </trkpt>
      <trkpt lat="40.292946" lon="-4.833652">
        <ele>841.54</ele>
        <time>2021-03-27T16:02:40Z</time>
      </trkpt>
      <trkpt lat="40.292953" lon="-4.833767">
        <ele>840.86</ele>
        <time>2021-03-27T16:02:41Z</time>
      </trkpt>
      <trkpt lat="40.292897" lon="-4.834045">
        <ele>837.39</ele>
        <time>2021-03-27T16:02:43Z</time>
      </trkpt>
      <trkpt lat="40.292907" lon="-4.834231">
        <ele>837.45</ele>
        <time>2021-03-27T16:02:44Z</time>
      </trkpt>
      <trkpt lat="40.293005" lon="-4.834638">
        <ele>839.82</ele>
        <time>2021-03-27T16:02:46Z</time>
      </trkpt>
      <trkpt lat="40.293014" lon="-4.834836">
        <ele>838.71</ele>
        <time>2021-03-27T16:02:47Z</time>
      </trkpt>
      <trkpt lat="40.292985" lon="-4.835307">
        <ele>835.79</ele>
        <time>2021-03-27T16:02:49Z</time>
      </trkpt>
      <trkpt lat="40.293012" lon="-4.83544">
        <ele>835.89</ele>
        <time>2021-03-27T16:02:50Z</time>
      </trkpt>
      <trkpt lat="40.293397" lon="-4.835815">
        <ele>839.66</ele>
        <time>2021-03-27T16:02:52Z</time>
      </trkpt>
      <trkpt lat="40.293302" lon="-4.835438">
        <ele>842.24</ele>
        <time>2021-03-27T16:02:57Z</time>
      </trkpt>
      <trkpt lat="40.293586" lon="-4.83533">
        <ele>848.56</ele>
        <time>2021-03-27T16:03:03Z</time>
      </trkpt>
      <trkpt lat="40.293909" lon="-4.835411">
        <ele>855.03</ele>
        <time>2021-03-27T16:03:09Z</time>
      </trkpt>
      <trkpt lat="40.293944" lon="-4.835343">
        <ele>857.87</ele>
        <time>2021-03-27T16:03:11Z</time>
      </trkpt>
      <trkpt lat="40.294007" lon="-4.835276">
        <ele>861.16</ele>
        <time>2021-03-27T16:03:14Z</time>
      </trkpt>
      <trkpt lat="40.294201" lon="-4.835169">
        <ele>866.6</ele>
        <time>2021-03-27T16:03:16Z</time>
      </trkpt>
      <trkpt lat="40.29437" lon="-4.834979">
        <ele>871.82</ele>
        <time>2021-03-27T16:03:20Z</time>
      </trkpt>
      <trkpt lat="40.294557" lon="-4.834924">
        <ele>873.66</ele>
        <time>2021-03-27T16:03:24Z</time>
      </trkpt>
      <trkpt lat="40.294478" lon="-4.834694">
        <ele>877.41</ele>
        <time>2021-03-27T16:03:30Z</time>
      </trkpt>
      <trkpt lat="40.294321" lon="-4.834438">
        <ele>880.21</ele>
        <time>2021-03-27T16:03:36Z</time>
      </trkpt>
      <trkpt lat="40.294364" lon="-4.83428">
        <ele>883.22</ele>
        <time>2021-03-27T16:03:42Z</time>
      </trkpt>
      <trkpt lat="40.294457" lon="-4.833953">
        <ele>888.46</ele>
        <time>2021-03-27T16:03:49Z</time>
      </trkpt>
      <trkpt lat="40.294451" lon="-4.833492">
        <ele>897.71</ele>
        <time>2021-03-27T16:03:55Z</time>
      </trkpt>
      <trkpt lat="40.294459" lon="-4.833146">
        <ele>904.63</ele>
        <time>2021-03-27T16:04:01Z</time>
      </trkpt>
      <trkpt lat="40.294484" lon="-4.832952">
        <ele>908.26</ele>
        <time>2021-03-27T16:04:07Z</time>
      </trkpt>
      <trkpt lat="40.294518" lon="-4.83281">
        <ele>911.09</ele>
        <time>2021-03-27T16:04:13Z</time>
      </trkpt>
      <trkpt lat="40.294358" lon="-4.832711">
        <ele>907.7</ele>
        <time>2021-03-27T16:04:15Z</time>
      </trkpt>
      <trkpt lat="40.294326" lon="-4.832653">
        <ele>907.07</ele>
        <time>2021-03-27T16:04:16Z</time>
      </trkpt>
      <trkpt lat="40.29432" lon="-4.832513">
        <ele>907.88</ele>
        <time>2021-03-27T16:04:17Z</time>
      </trkpt>
      <trkpt lat="40.294355" lon="-4.832431">
        <ele>909.53</ele>
        <time>2021-03-27T16:04:18Z</time>
      </trkpt>
      <trkpt lat="40.294427" lon="-4.832355">
        <ele>912.43</ele>
        <time>2021-03-27T16:04:20Z</time>
      </trkpt>
      <trkpt lat="40.29449" lon="-4.83234">
        <ele>914.4</ele>
        <time>2021-03-27T16:04:21Z</time>
      </trkpt>
      <trkpt lat="40.294556" lon="-4.832357">
        <ele>916.04</ele>
        <time>2021-03-27T16:04:22Z</time>
      </trkpt>
      <trkpt lat="40.294921" lon="-4.832601">
        <ele>922.39</ele>
        <time>2021-03-27T16:04:24Z</time>
      </trkpt>
      <trkpt lat="40.295885" lon="-4.833121">
        <ele>926.34</ele>
        <time>2021-03-27T16:04:25Z</time>
      </trkpt>
      <trkpt lat="40.296113" lon="-4.833226">
        <ele>924.7</ele>
        <time>2021-03-27T16:04:26Z</time>
      </trkpt>
      <trkpt lat="40.296239" lon="-4.83326">
        <ele>924.31</ele>
        <time>2021-03-27T16:04:27Z</time>
      </trkpt>
      <trkpt lat="40.296394" lon="-4.833234">
        <ele>925.55</ele>
        <time>2021-03-27T16:04:29Z</time>
      </trkpt>
      <trkpt lat="40.297237" lon="-4.832887">
        <ele>936.79</ele>
        <time>2021-03-27T16:04:30Z</time>
      </trkpt>
      <trkpt lat="40.297407" lon="-4.832872">
        <ele>938.95</ele>
        <time>2021-03-27T16:04:31Z</time>
      </trkpt>
      <trkpt lat="40.297505" lon="-4.832886">
        <ele>939.76</ele>
        <time>2021-03-27T16:04:33Z</time>
      </trkpt>
      <trkpt lat="40.297572" lon="-4.832906">
        <ele>940.64</ele>
        <time>2021-03-27T16:04:34Z</time>
      </trkpt>
      <trkpt lat="40.29767" lon="-4.832978">
        <ele>941.17</ele>
        <time>2021-03-27T16:04:35Z</time>
      </trkpt>
      <trkpt lat="40.297717" lon="-4.833062">
        <ele>940.58</ele>
        <time>2021-03-27T16:04:36Z</time>
      </trkpt>
      <trkpt lat="40.297815" lon="-4.833395">
        <ele>936.37</ele>
        <time>2021-03-27T16:04:38Z</time>
      </trkpt>
      <trkpt lat="40.29785" lon="-4.833468">
        <ele>935.58</ele>
        <time>2021-03-27T16:04:39Z</time>
      </trkpt>
      <trkpt lat="40.297938" lon="-4.833545">
        <ele>935.1</ele>
        <time>2021-03-27T16:04:40Z</time>
      </trkpt>
      <trkpt lat="40.298051" lon="-4.833536">
        <ele>936.04</ele>
        <time>2021-03-27T16:04:42Z</time>
      </trkpt>
      <trkpt lat="40.298674" lon="-4.833084">
        <ele>943.88</ele>
        <time>2021-03-27T16:04:43Z</time>
      </trkpt>
      <trkpt lat="40.299248" lon="-4.832543">
        <ele>949.67</ele>
        <time>2021-03-27T16:04:44Z</time>
      </trkpt>
      <trkpt lat="40.300096" lon="-4.831627">
        <ele>955.32</ele>
        <time>2021-03-27T16:04:45Z</time>
      </trkpt>
      <trkpt lat="40.300218" lon="-4.831472">
        <ele>956.35</ele>
        <time>2021-03-27T16:04:47Z</time>
      </trkpt>
      <trkpt lat="40.300436" lon="-4.831126">
        <ele>961.36</ele>
        <time>2021-03-27T16:04:48Z</time>
      </trkpt>
      <trkpt lat="40.300747" lon="-4.830554">
        <ele>966.58</ele>
        <time>2021-03-27T16:04:49Z</time>
      </trkpt>
      <trkpt lat="40.300897" lon="-4.830344">
        <ele>968.99</ele>
        <time>2021-03-27T16:04:50Z</time>
      </trkpt>
      <trkpt lat="40.300935" lon="-4.830316">
        <ele>969.62</ele>
        <time>2021-03-27T16:04:52Z</time>
      </trkpt>
      <trkpt lat="40.301051" lon="-4.83029">
        <ele>970.54</ele>
        <time>2021-03-27T16:04:53Z</time>
      </trkpt>
      <trkpt lat="40.301241" lon="-4.830355">
        <ele>969.8</ele>
        <time>2021-03-27T16:04:54Z</time>
      </trkpt>
      <trkpt lat="40.301443" lon="-4.830464">
        <ele>968.37</ele>
        <time>2021-03-27T16:04:56Z</time>
      </trkpt>
      <trkpt lat="40.301579" lon="-4.830478">
        <ele>969.04</ele>
        <time>2021-03-27T16:04:57Z</time>
      </trkpt>
      <trkpt lat="40.301694" lon="-4.830413">
        <ele>970.83</ele>
        <time>2021-03-27T16:04:58Z</time>
      </trkpt>
      <trkpt lat="40.301811" lon="-4.830244">
        <ele>972.45</ele>
        <time>2021-03-27T16:04:59Z</time>
      </trkpt>
      <trkpt lat="40.301903" lon="-4.830025">
        <ele>974.36</ele>
        <time>2021-03-27T16:05:01Z</time>
      </trkpt>
      <trkpt lat="40.301919" lon="-4.829906">
        <ele>975.5</ele>
        <time>2021-03-27T16:05:02Z</time>
      </trkpt>
      <trkpt lat="40.301917" lon="-4.829739">
        <ele>977.39</ele>
        <time>2021-03-27T16:05:03Z</time>
      </trkpt>
      <trkpt lat="40.301827" lon="-4.829028">
        <ele>983.87</ele>
        <time>2021-03-27T16:05:05Z</time>
      </trkpt>
      <trkpt lat="40.301868" lon="-4.828641">
        <ele>985.49</ele>
        <time>2021-03-27T16:05:06Z</time>
      </trkpt>
      <trkpt lat="40.301986" lon="-4.828107">
        <ele>984.1</ele>
        <time>2021-03-27T16:05:07Z</time>
      </trkpt>
      <trkpt lat="40.30207" lon="-4.82783">
        <ele>984.73</ele>
        <time>2021-03-27T16:05:08Z</time>
      </trkpt>
      <trkpt lat="40.30212" lon="-4.827725">
        <ele>985.49</ele>
        <time>2021-03-27T16:05:10Z</time>
      </trkpt>
      <trkpt lat="40.302259" lon="-4.827572">
        <ele>986.94</ele>
        <time>2021-03-27T16:05:11Z</time>
      </trkpt>
      <trkpt lat="40.302313" lon="-4.827558">
        <ele>987.26</ele>
        <time>2021-03-27T16:05:12Z</time>
      </trkpt>
      <trkpt lat="40.302398" lon="-4.827574">
        <ele>987.77</ele>
        <time>2021-03-27T16:05:14Z</time>
      </trkpt>
      <trkpt lat="40.302587" lon="-4.827705">
        <ele>986.74</ele>
        <time>2021-03-27T16:05:15Z</time>
      </trkpt>
      <trkpt lat="40.302693" lon="-4.827729">
        <ele>987.71</ele>
        <time>2021-03-27T16:05:16Z</time>
      </trkpt>
      <trkpt lat="40.302824" lon="-4.827661">
        <ele>990.6</ele>
        <time>2021-03-27T16:05:17Z</time>
      </trkpt>
      <trkpt lat="40.303007" lon="-4.827468">
        <ele>995.94</ele>
        <time>2021-03-27T16:05:19Z</time>
      </trkpt>
      <trkpt lat="40.303169" lon="-4.827395">
        <ele>997.51</ele>
        <time>2021-03-27T16:05:20Z</time>
      </trkpt>
      <trkpt lat="40.303843" lon="-4.827418">
        <ele>998.13</ele>
        <time>2021-03-27T16:05:21Z</time>
      </trkpt>
      <trkpt lat="40.30393" lon="-4.827399">
        <ele>998.11</ele>
        <time>2021-03-27T16:05:22Z</time>
      </trkpt>
      <trkpt lat="40.304004" lon="-4.827361">
        <ele>998.18</ele>
        <time>2021-03-27T16:05:24Z</time>
      </trkpt>
      <trkpt lat="40.304072" lon="-4.827294">
        <ele>998.96</ele>
        <time>2021-03-27T16:05:25Z</time>
      </trkpt>
      <trkpt lat="40.304162" lon="-4.827169">
        <ele>1001.53</ele>
        <time>2021-03-27T16:05:26Z</time>
      </trkpt>
      <trkpt lat="40.304412" lon="-4.826715">
        <ele>1010.15</ele>
        <time>2021-03-27T16:05:28Z</time>
      </trkpt>
      <trkpt lat="40.304457" lon="-4.826659">
        <ele>1010.99</ele>
        <time>2021-03-27T16:05:29Z</time>
      </trkpt>
      <trkpt lat="40.304511" lon="-4.826622">
        <ele>1010.91</ele>
        <time>2021-03-27T16:05:30Z</time>
      </trkpt>
      <trkpt lat="40.304558" lon="-4.826617">
        <ele>1009.93</ele>
        <time>2021-03-27T16:05:31Z</time>
      </trkpt>
      <trkpt lat="40.304923" lon="-4.826881">
        <ele>1001.72</ele>
        <time>2021-03-27T16:05:33Z</time>
      </trkpt>
      <trkpt lat="40.305042" lon="-4.826934">
        <ele>1001.91</ele>
        <time>2021-03-27T16:05:34Z</time>
      </trkpt>
      <trkpt lat="40.306266" lon="-4.827058">
        <ele>1011.59</ele>
        <time>2021-03-27T16:05:35Z</time>
      </trkpt>
      <trkpt lat="40.306833" lon="-4.827204">
        <ele>1014.39</ele>
        <time>2021-03-27T16:05:37Z</time>
      </trkpt>
      <trkpt lat="40.307138" lon="-4.827366">
        <ele>1014.18</ele>
        <time>2021-03-27T16:05:38Z</time>
      </trkpt>
      <trkpt lat="40.307607" lon="-4.827753">
        <ele>1011.65</ele>
        <time>2021-03-27T16:05:39Z</time>
      </trkpt>
      <trkpt lat="40.307731" lon="-4.827769">
        <ele>1011.27</ele>
        <time>2021-03-27T16:05:40Z</time>
      </trkpt>
      <trkpt lat="40.307787" lon="-4.827751">
        <ele>1011.77</ele>
        <time>2021-03-27T16:05:42Z</time>
      </trkpt>
      <trkpt lat="40.307871" lon="-4.827688">
        <ele>1012.9</ele>
        <time>2021-03-27T16:05:43Z</time>
      </trkpt>
      <trkpt lat="40.308145" lon="-4.827307">
        <ele>1020.33</ele>
        <time>2021-03-27T16:05:44Z</time>
      </trkpt>
      <trkpt lat="40.308213" lon="-4.827145">
        <ele>1021.59</ele>
        <time>2021-03-27T16:05:46Z</time>
      </trkpt>
      <trkpt lat="40.308275" lon="-4.826748">
        <ele>1023.92</ele>
        <time>2021-03-27T16:05:47Z</time>
      </trkpt>
      <trkpt lat="40.308307" lon="-4.826638">
        <ele>1022.97</ele>
        <time>2021-03-27T16:05:48Z</time>
      </trkpt>
      <trkpt lat="40.308445" lon="-4.8263">
        <ele>1024.79</ele>
        <time>2021-03-27T16:05:49Z</time>
      </trkpt>
      <trkpt lat="40.308525" lon="-4.82617">
        <ele>1025.54</ele>
        <time>2021-03-27T16:05:51Z</time>
      </trkpt>
      <trkpt lat="40.308678" lon="-4.825999">
        <ele>1027.97</ele>
        <time>2021-03-27T16:05:52Z</time>
      </trkpt>
      <trkpt lat="40.308857" lon="-4.825871">
        <ele>1031.24</ele>
        <time>2021-03-27T16:05:53Z</time>
      </trkpt>
      <trkpt lat="40.308979" lon="-4.825867">
        <ele>1030.99</ele>
        <time>2021-03-27T16:05:54Z</time>
      </trkpt>
      <trkpt lat="40.309012" lon="-4.825893">
        <ele>1030.43</ele>
        <time>2021-03-27T16:05:56Z</time>
      </trkpt>
      <trkpt lat="40.309222" lon="-4.826281">
        <ele>1030.3</ele>
        <time>2021-03-27T16:05:57Z</time>
      </trkpt>
      <trkpt lat="40.309238" lon="-4.826345">
        <ele>1031.27</ele>
        <time>2021-03-27T16:05:58Z</time>
      </trkpt>
      <trkpt lat="40.309232" lon="-4.826426">
        <ele>1031.79</ele>
        <time>2021-03-27T16:06:00Z</time>
      </trkpt>
      <trkpt lat="40.309092" lon="-4.827008">
        <ele>1030.76</ele>
        <time>2021-03-27T16:06:01Z</time>
      </trkpt>
      <trkpt lat="40.309111" lon="-4.827173">
        <ele>1029.86</ele>
        <time>2021-03-27T16:06:02Z</time>
      </trkpt>
      <trkpt lat="40.309225" lon="-4.827445">
        <ele>1030.71</ele>
        <time>2021-03-27T16:06:03Z</time>
      </trkpt>
      <trkpt lat="40.309371" lon="-4.827676">
        <ele>1033.79</ele>
        <time>2021-03-27T16:06:05Z</time>
      </trkpt>
      <trkpt lat="40.30946" lon="-4.827756">
        <ele>1035.52</ele>
        <time>2021-03-27T16:06:06Z</time>
      </trkpt>
      <trkpt lat="40.30965" lon="-4.827865">
        <ele>1038.53</ele>
        <time>2021-03-27T16:06:07Z</time>
      </trkpt>
      <trkpt lat="40.309717" lon="-4.827931">
        <ele>1039.9</ele>
        <time>2021-03-27T16:06:09Z</time>
      </trkpt>
      <trkpt lat="40.309775" lon="-4.828073">
        <ele>1041.28</ele>
        <time>2021-03-27T16:06:10Z</time>
      </trkpt>
      <trkpt lat="40.309777" lon="-4.828257">
        <ele>1042.78</ele>
        <time>2021-03-27T16:06:11Z</time>
      </trkpt>
      <trkpt lat="40.309734" lon="-4.828592">
        <ele>1045.1</ele>
        <time>2021-03-27T16:06:12Z</time>
      </trkpt>
      <trkpt lat="40.309724" lon="-4.828989">
        <ele>1044.97</ele>
        <time>2021-03-27T16:06:14Z</time>
      </trkpt>
      <trkpt lat="40.309735" lon="-4.829204">
        <ele>1043.12</ele>
        <time>2021-03-27T16:06:15Z</time>
      </trkpt>
      <trkpt lat="40.310009" lon="-4.831725">
        <ele>1059.71</ele>
        <time>2021-03-27T16:06:16Z</time>
      </trkpt>
      <trkpt lat="40.310071" lon="-4.831994">
        <ele>1062.97</ele>
        <time>2021-03-27T16:06:18Z</time>
      </trkpt>
      <trkpt lat="40.310082" lon="-4.832128">
        <ele>1063.73</ele>
        <time>2021-03-27T16:06:19Z</time>
      </trkpt>
      <trkpt lat="40.310029" lon="-4.832214">
        <ele>1063.92</ele>
        <time>2021-03-27T16:06:20Z</time>
      </trkpt>
      <trkpt lat="40.309972" lon="-4.832267">
        <ele>1064.04</ele>
        <time>2021-03-27T16:06:21Z</time>
      </trkpt>
      <trkpt lat="40.309938" lon="-4.832287">
        <ele>1064.1</ele>
        <time>2021-03-27T16:06:23Z</time>
      </trkpt>
      <trkpt lat="40.309881" lon="-4.832279">
        <ele>1064.2</ele>
        <time>2021-03-27T16:06:24Z</time>
      </trkpt>
      <trkpt lat="40.309809" lon="-4.832193">
        <ele>1062.98</ele>
        <time>2021-03-27T16:06:25Z</time>
      </trkpt>
      <trkpt lat="40.309464" lon="-4.831564">
        <ele>1058.78</ele>
        <time>2021-03-27T16:06:26Z</time>
      </trkpt>
      <trkpt lat="40.309357" lon="-4.831403">
        <ele>1058.16</ele>
        <time>2021-03-27T16:06:28Z</time>
      </trkpt>
      <trkpt lat="40.309228" lon="-4.831289">
        <ele>1060.8</ele>
        <time>2021-03-27T16:06:29Z</time>
      </trkpt>
      <trkpt lat="40.309137" lon="-4.831264">
        <ele>1063.16</ele>
        <time>2021-03-27T16:06:30Z</time>
      </trkpt>
      <trkpt lat="40.30858" lon="-4.831296">
        <ele>1068.49</ele>
        <time>2021-03-27T16:06:32Z</time>
      </trkpt>
      <trkpt lat="40.308428" lon="-4.831281">
        <ele>1066.96</ele>
        <time>2021-03-27T16:06:33Z</time>
      </trkpt>
      <trkpt lat="40.307847" lon="-4.831207">
        <ele>1073.96</ele>
        <time>2021-03-27T16:06:34Z</time>
      </trkpt>
      <trkpt lat="40.307389" lon="-4.831075">
        <ele>1063.05</ele>
        <time>2021-03-27T16:06:35Z</time>
      </trkpt>
      <trkpt lat="40.307312" lon="-4.831078">
        <ele>1060.98</ele>
        <time>2021-03-27T16:06:37Z</time>
      </trkpt>
      <trkpt lat="40.307245" lon="-4.831103">
        <ele>1060.26</ele>
        <time>2021-03-27T16:06:38Z</time>
      </trkpt>
      <trkpt lat="40.307148" lon="-4.831186">
        <ele>1060.56</ele>
        <time>2021-03-27T16:06:39Z</time>
      </trkpt>
      <trkpt lat="40.307107" lon="-4.831258">
        <ele>1062.21</ele>
        <time>2021-03-27T16:06:41Z</time>
      </trkpt>
      <trkpt lat="40.307032" lon="-4.831452">
        <ele>1066.95</ele>
        <time>2021-03-27T16:06:42Z</time>
      </trkpt>
      <trkpt lat="40.307009" lon="-4.831552">
        <ele>1069.01</ele>
        <time>2021-03-27T16:06:43Z</time>
      </trkpt>
      <trkpt lat="40.306972" lon="-4.832222">
        <ele>1082.81</ele>
        <time>2021-03-27T16:06:44Z</time>
      </trkpt>
      <trkpt lat="40.306831" lon="-4.833076">
        <ele>1085.41</ele>
        <time>2021-03-27T16:06:46Z</time>
      </trkpt>
      <trkpt lat="40.306794" lon="-4.833569">
        <ele>1090.14</ele>
        <time>2021-03-27T16:06:47Z</time>
      </trkpt>
      <trkpt lat="40.3068" lon="-4.833927">
        <ele>1090.55</ele>
        <time>2021-03-27T16:06:48Z</time>
      </trkpt>
      <trkpt lat="40.306855" lon="-4.834534">
        <ele>1091.52</ele>
        <time>2021-03-27T16:06:50Z</time>
      </trkpt>
      <trkpt lat="40.306923" lon="-4.834876">
        <ele>1091.33</ele>
        <time>2021-03-27T16:06:51Z</time>
      </trkpt>
      <trkpt lat="40.307084" lon="-4.835464">
        <ele>1091.35</ele>
        <time>2021-03-27T16:06:52Z</time>
      </trkpt>
      <trkpt lat="40.307238" lon="-4.835911">
        <ele>1092.99</ele>
        <time>2021-03-27T16:06:53Z</time>
      </trkpt>
      <trkpt lat="40.307555" lon="-4.836471">
        <ele>1101.32</ele>
        <time>2021-03-27T16:06:55Z</time>
      </trkpt>
      <trkpt lat="40.307628" lon="-4.836632">
        <ele>1104.13</ele>
        <time>2021-03-27T16:06:56Z</time>
      </trkpt>
      <trkpt lat="40.30767" lon="-4.836801">
        <ele>1104.4</ele>
        <time>2021-03-27T16:06:57Z</time>
      </trkpt>
      <trkpt lat="40.307649" lon="-4.837152">
        <ele>1097.85</ele>
        <time>2021-03-27T16:06:58Z</time>
      </trkpt>
      <trkpt lat="40.30766" lon="-4.83724">
        <ele>1096.68</ele>
        <time>2021-03-27T16:07:00Z</time>
      </trkpt>
      <trkpt lat="40.307719" lon="-4.837421">
        <ele>1096.6</ele>
        <time>2021-03-27T16:07:01Z</time>
      </trkpt>
      <trkpt lat="40.307835" lon="-4.837591">
        <ele>1100.44</ele>
        <time>2021-03-27T16:07:02Z</time>
      </trkpt>
      <trkpt lat="40.307967" lon="-4.837695">
        <ele>1106.8</ele>
        <time>2021-03-27T16:07:04Z</time>
      </trkpt>
      <trkpt lat="40.308028" lon="-4.837794">
        <ele>1109.29</ele>
        <time>2021-03-27T16:07:05Z</time>
      </trkpt>
      <trkpt lat="40.308088" lon="-4.83808">
        <ele>1108.21</ele>
        <time>2021-03-27T16:07:06Z</time>
      </trkpt>
      <trkpt lat="40.308545" lon="-4.839258">
        <ele>1114.54</ele>
        <time>2021-03-27T16:07:07Z</time>
      </trkpt>
      <trkpt lat="40.308614" lon="-4.839478">
        <ele>1116.07</ele>
        <time>2021-03-27T16:07:09Z</time>
      </trkpt>
      <trkpt lat="40.308645" lon="-4.839744">
        <ele>1117.06</ele>
        <time>2021-03-27T16:07:10Z</time>
      </trkpt>
      <trkpt lat="40.308667" lon="-4.84028">
        <ele>1114.4</ele>
        <time>2021-03-27T16:07:11Z</time>
      </trkpt>
      <trkpt lat="40.308827" lon="-4.840831">
        <ele>1120.13</ele>
        <time>2021-03-27T16:07:13Z</time>
      </trkpt>
      <trkpt lat="40.308852" lon="-4.841459">
        <ele>1115.4</ele>
        <time>2021-03-27T16:07:14Z</time>
      </trkpt>
      <trkpt lat="40.308872" lon="-4.841662">
        <ele>1115.84</ele>
        <time>2021-03-27T16:07:15Z</time>
      </trkpt>
      <trkpt lat="40.30897" lon="-4.84224">
        <ele>1123.04</ele>
        <time>2021-03-27T16:07:16Z</time>
      </trkpt>
      <trkpt lat="40.309155" lon="-4.842942">
        <ele>1128.15</ele>
        <time>2021-03-27T16:07:18Z</time>
      </trkpt>
      <trkpt lat="40.309164" lon="-4.843031">
        <ele>1128.03</ele>
        <time>2021-03-27T16:07:19Z</time>
      </trkpt>
      <trkpt lat="40.309153" lon="-4.843322">
        <ele>1125.36</ele>
        <time>2021-03-27T16:07:20Z</time>
      </trkpt>
      <trkpt lat="40.309168" lon="-4.843546">
        <ele>1127.62</ele>
        <time>2021-03-27T16:07:22Z</time>
      </trkpt>
      <trkpt lat="40.309188" lon="-4.843624">
        <ele>1129.42</ele>
        <time>2021-03-27T16:07:23Z</time>
      </trkpt>
      <trkpt lat="40.309263" lon="-4.843718">
        <ele>1134.66</ele>
        <time>2021-03-27T16:07:24Z</time>
      </trkpt>
      <trkpt lat="40.309299" lon="-4.84373">
        <ele>1136.98</ele>
        <time>2021-03-27T16:07:25Z</time>
      </trkpt>
      <trkpt lat="40.309369" lon="-4.84371">
        <ele>1141.11</ele>
        <time>2021-03-27T16:07:27Z</time>
      </trkpt>
      <trkpt lat="40.309403" lon="-4.843641">
        <ele>1142.7</ele>
        <time>2021-03-27T16:07:28Z</time>
      </trkpt>
      <trkpt lat="40.309401" lon="-4.843526">
        <ele>1142.24</ele>
        <time>2021-03-27T16:07:29Z</time>
      </trkpt>
      <trkpt lat="40.309328" lon="-4.843203">
        <ele>1137.15</ele>
        <time>2021-03-27T16:07:30Z</time>
      </trkpt>
      <trkpt lat="40.309262" lon="-4.842794">
        <ele>1135.67</ele>
        <time>2021-03-27T16:07:32Z</time>
      </trkpt>
      <trkpt lat="40.309131" lon="-4.841759">
        <ele>1139.05</ele>
        <time>2021-03-27T16:07:33Z</time>
      </trkpt>
      <trkpt lat="40.309125" lon="-4.841474">
        <ele>1135.74</ele>
        <time>2021-03-27T16:07:34Z</time>
      </trkpt>
      <trkpt lat="40.309217" lon="-4.841006">
        <ele>1145.83</ele>
        <time>2021-03-27T16:07:36Z</time>
      </trkpt>
      <trkpt lat="40.309228" lon="-4.840702">
        <ele>1148.63</ele>
        <time>2021-03-27T16:07:37Z</time>
      </trkpt>
      <trkpt lat="40.309218" lon="-4.840589">
        <ele>1148.29</ele>
        <time>2021-03-27T16:07:38Z</time>
      </trkpt>
      <trkpt lat="40.30914" lon="-4.840242">
        <ele>1144.56</ele>
        <time>2021-03-27T16:07:39Z</time>
      </trkpt>
      <trkpt lat="40.309135" lon="-4.840149">
        <ele>1144.94</ele>
        <time>2021-03-27T16:07:41Z</time>
      </trkpt>
      <trkpt lat="40.309167" lon="-4.839613">
        <ele>1147.06</ele>
        <time>2021-03-27T16:07:42Z</time>
      </trkpt>
      <trkpt lat="40.309139" lon="-4.839105">
        <ele>1150.08</ele>
        <time>2021-03-27T16:07:43Z</time>
      </trkpt>
      <trkpt lat="40.309103" lon="-4.838889">
        <ele>1150.56</ele>
        <time>2021-03-27T16:07:45Z</time>
      </trkpt>
      <trkpt lat="40.308998" lon="-4.838512">
        <ele>1151.33</ele>
        <time>2021-03-27T16:07:46Z</time>
      </trkpt>
      <trkpt lat="40.308964" lon="-4.838256">
        <ele>1152.44</ele>
        <time>2021-03-27T16:07:47Z</time>
      </trkpt>
      <trkpt lat="40.308973" lon="-4.838016">
        <ele>1154.87</ele>
        <time>2021-03-27T16:07:48Z</time>
      </trkpt>
      <trkpt lat="40.309019" lon="-4.837689">
        <ele>1159.09</ele>
        <time>2021-03-27T16:07:50Z</time>
      </trkpt>
      <trkpt lat="40.308944" lon="-4.836501">
        <ele>1165.56</ele>
        <time>2021-03-27T16:07:51Z</time>
      </trkpt>
      <trkpt lat="40.308946" lon="-4.836319">
        <ele>1166.08</ele>
        <time>2021-03-27T16:07:52Z</time>
      </trkpt>
      <trkpt lat="40.308981" lon="-4.835767">
        <ele>1172.42</ele>
        <time>2021-03-27T16:07:54Z</time>
      </trkpt>
      <trkpt lat="40.309015" lon="-4.8355">
        <ele>1172.84</ele>
        <time>2021-03-27T16:07:55Z</time>
      </trkpt>
      <trkpt lat="40.309066" lon="-4.835257">
        <ele>1173.01</ele>
        <time>2021-03-27T16:07:56Z</time>
      </trkpt>
      <trkpt lat="40.309146" lon="-4.835073">
        <ele>1173.52</ele>
        <time>2021-03-27T16:07:57Z</time>
      </trkpt>
      <trkpt lat="40.309276" lon="-4.834921">
        <ele>1174.25</ele>
        <time>2021-03-27T16:07:59Z</time>
      </trkpt>
      <trkpt lat="40.309497" lon="-4.834811">
        <ele>1177.47</ele>
        <time>2021-03-27T16:08:00Z</time>
      </trkpt>
      <trkpt lat="40.309585" lon="-4.834792">
        <ele>1178.81</ele>
        <time>2021-03-27T16:08:01Z</time>
      </trkpt>
      <trkpt lat="40.309764" lon="-4.834804">
        <ele>1182.42</ele>
        <time>2021-03-27T16:08:02Z</time>
      </trkpt>
      <trkpt lat="40.310153" lon="-4.834955">
        <ele>1184.32</ele>
        <time>2021-03-27T16:08:04Z</time>
      </trkpt>
      <trkpt lat="40.310252" lon="-4.835011">
        <ele>1184.72</ele>
        <time>2021-03-27T16:08:05Z</time>
      </trkpt>
      <trkpt lat="40.310381" lon="-4.835118">
        <ele>1185.59</ele>
        <time>2021-03-27T16:08:06Z</time>
      </trkpt>
      <trkpt lat="40.311008" lon="-4.835764">
        <ele>1186.01</ele>
        <time>2021-03-27T16:08:08Z</time>
      </trkpt>
      <trkpt lat="40.311248" lon="-4.835987">
        <ele>1193.22</ele>
        <time>2021-03-27T16:08:09Z</time>
      </trkpt>
      <trkpt lat="40.311468" lon="-4.83612">
        <ele>1198.94</ele>
        <time>2021-03-27T16:08:10Z</time>
      </trkpt>
      <trkpt lat="40.311726" lon="-4.836232">
        <ele>1206.97</ele>
        <time>2021-03-27T16:08:11Z</time>
      </trkpt>
      <trkpt lat="40.312131" lon="-4.836294">
        <ele>1207.77</ele>
        <time>2021-03-27T16:08:13Z</time>
      </trkpt>
      <trkpt lat="40.312678" lon="-4.836335">
        <ele>1206.59</ele>
        <time>2021-03-27T16:08:14Z</time>
      </trkpt>
      <trkpt lat="40.312895" lon="-4.836283">
        <ele>1201.68</ele>
        <time>2021-03-27T16:08:15Z</time>
      </trkpt>
      <trkpt lat="40.313108" lon="-4.836162">
        <ele>1196.01</ele>
        <time>2021-03-27T16:08:17Z</time>
      </trkpt>
      <trkpt lat="40.31317" lon="-4.836154">
        <ele>1196.17</ele>
        <time>2021-03-27T16:08:18Z</time>
      </trkpt>
      <trkpt lat="40.313269" lon="-4.836175">
        <ele>1197.81</ele>
        <time>2021-03-27T16:08:19Z</time>
      </trkpt>
      <trkpt lat="40.313773" lon="-4.836477">
        <ele>1203.49</ele>
        <time>2021-03-27T16:08:20Z</time>
      </trkpt>
      <trkpt lat="40.314336" lon="-4.836976">
        <ele>1203.62</ele>
        <time>2021-03-27T16:08:22Z</time>
      </trkpt>
      <trkpt lat="40.314502" lon="-4.837182">
        <ele>1209.1</ele>
        <time>2021-03-27T16:08:23Z</time>
      </trkpt>
      <trkpt lat="40.314823" lon="-4.837725">
        <ele>1220.56</ele>
        <time>2021-03-27T16:08:24Z</time>
      </trkpt>
      <trkpt lat="40.314884" lon="-4.837772">
        <ele>1220.38</ele>
        <time>2021-03-27T16:08:26Z</time>
      </trkpt>
      <trkpt lat="40.314954" lon="-4.837772">
        <ele>1218.86</ele>
        <time>2021-03-27T16:08:27Z</time>
      </trkpt>
      <trkpt lat="40.315093" lon="-4.837678">
        <ele>1216.88</ele>
        <time>2021-03-27T16:08:28Z</time>
      </trkpt>
      <trkpt lat="40.315156" lon="-4.837597">
        <ele>1216.32</ele>
        <time>2021-03-27T16:08:29Z</time>
      </trkpt>
      <trkpt lat="40.315214" lon="-4.837442">
        <ele>1215.44</ele>
        <time>2021-03-27T16:08:31Z</time>
      </trkpt>
      <trkpt lat="40.315271" lon="-4.836509">
        <ele>1214.95</ele>
        <time>2021-03-27T16:08:32Z</time>
      </trkpt>
      <trkpt lat="40.31525" lon="-4.836388">
        <ele>1215.31</ele>
        <time>2021-03-27T16:08:33Z</time>
      </trkpt>
      <trkpt lat="40.315222" lon="-4.836344">
        <ele>1215.71</ele>
        <time>2021-03-27T16:08:34Z</time>
      </trkpt>
      <trkpt lat="40.314964" lon="-4.836165">
        <ele>1213.27</ele>
        <time>2021-03-27T16:08:36Z</time>
      </trkpt>
      <trkpt lat="40.314847" lon="-4.835987">
        <ele>1212.58</ele>
        <time>2021-03-27T16:08:37Z</time>
      </trkpt>
      <trkpt lat="40.314746" lon="-4.83574">
        <ele>1213.45</ele>
        <time>2021-03-27T16:08:38Z</time>
      </trkpt>
      <trkpt lat="40.314503" lon="-4.834884">
        <ele>1226.3</ele>
        <time>2021-03-27T16:08:40Z</time>
      </trkpt>
      <trkpt lat="40.314435" lon="-4.834689">
        <ele>1227.14</ele>
        <time>2021-03-27T16:08:41Z</time>
      </trkpt>
      <trkpt lat="40.314278" lon="-4.834418">
        <ele>1224.52</ele>
        <time>2021-03-27T16:08:42Z</time>
      </trkpt>
      <trkpt lat="40.313784" lon="-4.833853">
        <ele>1221.87</ele>
        <time>2021-03-27T16:08:43Z</time>
      </trkpt>
      <trkpt lat="40.313646" lon="-4.833644">
        <ele>1221.36</ele>
        <time>2021-03-27T16:08:45Z</time>
      </trkpt>
      <trkpt lat="40.313592" lon="-4.833471">
        <ele>1223.48</ele>
        <time>2021-03-27T16:08:46Z</time>
      </trkpt>
      <trkpt lat="40.313514" lon="-4.832805">
        <ele>1230.86</ele>
        <time>2021-03-27T16:08:47Z</time>
      </trkpt>
      <trkpt lat="40.31353" lon="-4.832119">
        <ele>1235.02</ele>
        <time>2021-03-27T16:08:49Z</time>
      </trkpt>
      <trkpt lat="40.313362" lon="-4.831444">
        <ele>1234.99</ele>
        <time>2021-03-27T16:08:50Z</time>
      </trkpt>
      <trkpt lat="40.313343" lon="-4.831156">
        <ele>1237.9</ele>
        <time>2021-03-27T16:08:51Z</time>
      </trkpt>
      <trkpt lat="40.313389" lon="-4.830886">
        <ele>1241.99</ele>
        <time>2021-03-27T16:08:52Z</time>
      </trkpt>
      <trkpt lat="40.313459" lon="-4.830676">
        <ele>1245.54</ele>
        <time>2021-03-27T16:08:54Z</time>
      </trkpt>
      <trkpt lat="40.313648" lon="-4.830385">
        <ele>1248.45</ele>
        <time>2021-03-27T16:08:55Z</time>
      </trkpt>
      <trkpt lat="40.313728" lon="-4.830222">
        <ele>1249.88</ele>
        <time>2021-03-27T16:08:56Z</time>
      </trkpt>
      <trkpt lat="40.313757" lon="-4.830039">
        <ele>1252.34</ele>
        <time>2021-03-27T16:08:58Z</time>
      </trkpt>
      <trkpt lat="40.31376" lon="-4.829292">
        <ele>1252.01</ele>
        <time>2021-03-27T16:08:59Z</time>
      </trkpt>
      <trkpt lat="40.31378" lon="-4.829123">
        <ele>1249.67</ele>
        <time>2021-03-27T16:09:00Z</time>
      </trkpt>
      <trkpt lat="40.313804" lon="-4.82905">
        <ele>1248.69</ele>
        <time>2021-03-27T16:09:01Z</time>
      </trkpt>
      <trkpt lat="40.313864" lon="-4.828958">
        <ele>1248.81</ele>
        <time>2021-03-27T16:09:03Z</time>
      </trkpt>
      <trkpt lat="40.314159" lon="-4.828557">
        <ele>1251.9</ele>
        <time>2021-03-27T16:09:04Z</time>
      </trkpt>
      <trkpt lat="40.314524" lon="-4.828121">
        <ele>1253.95</ele>
        <time>2021-03-27T16:09:05Z</time>
      </trkpt>
      <trkpt lat="40.314785" lon="-4.828007">
        <ele>1260.84</ele>
        <time>2021-03-27T16:09:06Z</time>
      </trkpt>
      <trkpt lat="40.315225" lon="-4.827857">
        <ele>1268.23</ele>
        <time>2021-03-27T16:09:08Z</time>
      </trkpt>
      <trkpt lat="40.315323" lon="-4.827855">
        <ele>1268.83</ele>
        <time>2021-03-27T16:09:09Z</time>
      </trkpt>
      <trkpt lat="40.315525" lon="-4.827893">
        <ele>1270.09</ele>
        <time>2021-03-27T16:09:10Z</time>
      </trkpt>
      <trkpt lat="40.316113" lon="-4.82803">
        <ele>1273.22</ele>
        <time>2021-03-27T16:09:12Z</time>
      </trkpt>
      <trkpt lat="40.316261" lon="-4.828045">
        <ele>1275.87</ele>
        <time>2021-03-27T16:09:13Z</time>
      </trkpt>
      <trkpt lat="40.316313" lon="-4.828032">
        <ele>1276.28</ele>
        <time>2021-03-27T16:09:14Z</time>
      </trkpt>
      <trkpt lat="40.316416" lon="-4.827958">
        <ele>1276.14</ele>
        <time>2021-03-27T16:09:15Z</time>
      </trkpt>
      <trkpt lat="40.316962" lon="-4.827169">
        <ele>1273.55</ele>
        <time>2021-03-27T16:09:17Z</time>
      </trkpt>
      <trkpt lat="40.31705" lon="-4.82712">
        <ele>1275.84</ele>
        <time>2021-03-27T16:09:18Z</time>
      </trkpt>
      <trkpt lat="40.317093" lon="-4.827126">
        <ele>1277.63</ele>
        <time>2021-03-27T16:09:19Z</time>
      </trkpt>
      <trkpt lat="40.317162" lon="-4.827197">
        <ele>1282.03</ele>
        <time>2021-03-27T16:09:21Z</time>
      </trkpt>
      <trkpt lat="40.317176" lon="-4.827255">
        <ele>1283.77</ele>
        <time>2021-03-27T16:09:22Z</time>
      </trkpt>
      <trkpt lat="40.317168" lon="-4.827359">
        <ele>1285.43</ele>
        <time>2021-03-27T16:09:23Z</time>
      </trkpt>
      <trkpt lat="40.317142" lon="-4.827413">
        <ele>1285.45</ele>
        <time>2021-03-27T16:09:24Z</time>
      </trkpt>
      <trkpt lat="40.316495" lon="-4.828311">
        <ele>1291.68</ele>
        <time>2021-03-27T16:09:26Z</time>
      </trkpt>
      <trkpt lat="40.316398" lon="-4.828405">
        <ele>1292.57</ele>
        <time>2021-03-27T16:09:27Z</time>
      </trkpt>
      <trkpt lat="40.316337" lon="-4.828448">
        <ele>1292.9</ele>
        <time>2021-03-27T16:09:28Z</time>
      </trkpt>
      <trkpt lat="40.31624" lon="-4.828471">
        <ele>1292.06</ele>
        <time>2021-03-27T16:09:30Z</time>
      </trkpt>
      <trkpt lat="40.315442" lon="-4.828545">
        <ele>1293.33</ele>
        <time>2021-03-27T16:09:31Z</time>
      </trkpt>
      <trkpt lat="40.31517" lon="-4.828611">
        <ele>1289.9</ele>
        <time>2021-03-27T16:09:32Z</time>
      </trkpt>
      <trkpt lat="40.314981" lon="-4.828698">
        <ele>1285.62</ele>
        <time>2021-03-27T16:09:33Z</time>
      </trkpt>
      <trkpt lat="40.314915" lon="-4.828796">
        <ele>1285.68</ele>
        <time>2021-03-27T16:09:35Z</time>
      </trkpt>
      <trkpt lat="40.314892" lon="-4.828916">
        <ele>1286.48</ele>
        <time>2021-03-27T16:09:36Z</time>
      </trkpt>
      <trkpt lat="40.314908" lon="-4.829053">
        <ele>1286.87</ele>
        <time>2021-03-27T16:09:37Z</time>
      </trkpt>
      <trkpt lat="40.31496" lon="-4.829191">
        <ele>1287.68</ele>
        <time>2021-03-27T16:09:38Z</time>
      </trkpt>
      <trkpt lat="40.31575" lon="-4.830659">
        <ele>1299.17</ele>
        <time>2021-03-27T16:09:40Z</time>
      </trkpt>
      <trkpt lat="40.315857" lon="-4.83088">
        <ele>1300.37</ele>
        <time>2021-03-27T16:09:41Z</time>
      </trkpt>
      <trkpt lat="40.315944" lon="-4.83111">
        <ele>1302.0</ele>
        <time>2021-03-27T16:09:42Z</time>
      </trkpt>
      <trkpt lat="40.316196" lon="-4.832112">
        <ele>1308.96</ele>
        <time>2021-03-27T16:09:44Z</time>
      </trkpt>
      <trkpt lat="40.316315" lon="-4.832763">
        <ele>1309.43</ele>
        <time>2021-03-27T16:09:45Z</time>
      </trkpt>
      <trkpt lat="40.316388" lon="-4.832997">
        <ele>1309.4</ele>
        <time>2021-03-27T16:09:46Z</time>
      </trkpt>
      <trkpt lat="40.316455" lon="-4.833097">
        <ele>1309.21</ele>
        <time>2021-03-27T16:09:47Z</time>
      </trkpt>
      <trkpt lat="40.316595" lon="-4.83318">
        <ele>1309.72</ele>
        <time>2021-03-27T16:09:49Z</time>
      </trkpt>
      <trkpt lat="40.316732" lon="-4.833198">
        <ele>1312.09</ele>
        <time>2021-03-27T16:09:50Z</time>
      </trkpt>
      <trkpt lat="40.316798" lon="-4.833149">
        <ele>1314.47</ele>
        <time>2021-03-27T16:09:51Z</time>
      </trkpt>
      <trkpt lat="40.316828" lon="-4.833042">
        <ele>1316.66</ele>
        <time>2021-03-27T16:09:53Z</time>
      </trkpt>
      <trkpt lat="40.31679" lon="-4.832872">
        <ele>1317.94</ele>
        <time>2021-03-27T16:09:54Z</time>
      </trkpt>
      <trkpt lat="40.316518" lon="-4.832206">
        <ele>1317.9</ele>
        <time>2021-03-27T16:09:55Z</time>
      </trkpt>
      <trkpt lat="40.316469" lon="-4.832003">
        <ele>1318.33</ele>
        <time>2021-03-27T16:09:56Z</time>
      </trkpt>
      <trkpt lat="40.31647" lon="-4.831763">
        <ele>1318.92</ele>
        <time>2021-03-27T16:09:58Z</time>
      </trkpt>
      <trkpt lat="40.316648" lon="-4.830699">
        <ele>1322.64</ele>
        <time>2021-03-27T16:09:59Z</time>
      </trkpt>
      <trkpt lat="40.316922" lon="-4.829577">
        <ele>1326.35</ele>
        <time>2021-03-27T16:10:00Z</time>
      </trkpt>
      <trkpt lat="40.316978" lon="-4.829435">
        <ele>1324.79</ele>
        <time>2021-03-27T16:10:02Z</time>
      </trkpt>
      <trkpt lat="40.317013" lon="-4.829386">
        <ele>1324.85</ele>
        <time>2021-03-27T16:10:03Z</time>
      </trkpt>
      <trkpt lat="40.317426" lon="-4.829055">
        <ele>1331.45</ele>
        <time>2021-03-27T16:10:04Z</time>
      </trkpt>
      <trkpt lat="40.317514" lon="-4.828959">
        <ele>1332.38</ele>
        <time>2021-03-27T16:10:05Z</time>
      </trkpt>
      <trkpt lat="40.317751" lon="-4.82863">
        <ele>1333.57</ele>
        <time>2021-03-27T16:10:07Z</time>
      </trkpt>
      <trkpt lat="40.318222" lon="-4.828113">
        <ele>1341.21</ele>
        <time>2021-03-27T16:10:08Z</time>
      </trkpt>
      <trkpt lat="40.318699" lon="-4.827487">
        <ele>1348.47</ele>
        <time>2021-03-27T16:10:09Z</time>
      </trkpt>
      <trkpt lat="40.319031" lon="-4.82715">
        <ele>1357.69</ele>
        <time>2021-03-27T16:10:10Z</time>
      </trkpt>
      <trkpt lat="40.319356" lon="-4.826636">
        <ele>1355.72</ele>
        <time>2021-03-27T16:10:12Z</time>
      </trkpt>
      <trkpt lat="40.319794" lon="-4.826028">
        <ele>1345.52</ele>
        <time>2021-03-27T16:10:13Z</time>
      </trkpt>
      <trkpt lat="40.31989" lon="-4.825981">
        <ele>1345.49</ele>
        <time>2021-03-27T16:10:14Z</time>
      </trkpt>
      <trkpt lat="40.319988" lon="-4.825973">
        <ele>1347.72</ele>
        <time>2021-03-27T16:10:16Z</time>
      </trkpt>
      <trkpt lat="40.320144" lon="-4.825994">
        <ele>1355.06</ele>
        <time>2021-03-27T16:10:17Z</time>
      </trkpt>
      <trkpt lat="40.320406" lon="-4.826072">
        <ele>1365.95</ele>
        <time>2021-03-27T16:10:18Z</time>
      </trkpt>
      <trkpt lat="40.320527" lon="-4.826035">
        <ele>1367.22</ele>
        <time>2021-03-27T16:10:19Z</time>
      </trkpt>
      <trkpt lat="40.320627" lon="-4.825894">
        <ele>1366.09</ele>
        <time>2021-03-27T16:10:21Z</time>
      </trkpt>
      <trkpt lat="40.320896" lon="-4.825224">
        <ele>1352.63</ele>
        <time>2021-03-27T16:10:22Z</time>
      </trkpt>
      <trkpt lat="40.320964" lon="-4.825111">
        <ele>1351.83</ele>
        <time>2021-03-27T16:10:23Z</time>
      </trkpt>
      <trkpt lat="40.321032" lon="-4.82506">
        <ele>1353.43</ele>
        <time>2021-03-27T16:10:25Z</time>
      </trkpt>
      <trkpt lat="40.321475" lon="-4.825015">
        <ele>1369.91</ele>
        <time>2021-03-27T16:10:26Z</time>
      </trkpt>
      <trkpt lat="40.321541" lon="-4.825004">
        <ele>1372.15</ele>
        <time>2021-03-27T16:10:27Z</time>
      </trkpt>
      <trkpt lat="40.321584" lon="-4.824974">
        <ele>1372.89</ele>
        <time>2021-03-27T16:10:28Z</time>
      </trkpt>
      <trkpt lat="40.321652" lon="-4.824871">
        <ele>1372.62</ele>
        <time>2021-03-27T16:10:30Z</time>
      </trkpt>
      <trkpt lat="40.321674" lon="-4.824764">
        <ele>1370.66</ele>
        <time>2021-03-27T16:10:31Z</time>
      </trkpt>
      <trkpt lat="40.321697" lon="-4.824447">
        <ele>1362.92</ele>
        <time>2021-03-27T16:10:32Z</time>
      </trkpt>
      <trkpt lat="40.32174" lon="-4.824319">
        <ele>1362.55</ele>
        <time>2021-03-27T16:10:34Z</time>
      </trkpt>
      <trkpt lat="40.322371" lon="-4.823802">
        <ele>1368.8</ele>
        <time>2021-03-27T16:10:35Z</time>
      </trkpt>
      <trkpt lat="40.322616" lon="-4.82368">
        <ele>1365.89</ele>
        <time>2021-03-27T16:10:36Z</time>
      </trkpt>
      <trkpt lat="40.322689" lon="-4.823669">
        <ele>1366.12</ele>
        <time>2021-03-27T16:10:37Z</time>
      </trkpt>
      <trkpt lat="40.322781" lon="-4.823681">
        <ele>1367.51</ele>
        <time>2021-03-27T16:10:39Z</time>
      </trkpt>
      <trkpt lat="40.322877" lon="-4.823721">
        <ele>1368.23</ele>
        <time>2021-03-27T16:10:40Z</time>
      </trkpt>
      <trkpt lat="40.323009" lon="-4.823808">
        <ele>1370.44</ele>
        <time>2021-03-27T16:10:41Z</time>
      </trkpt>
      <trkpt lat="40.323102" lon="-4.823898">
        <ele>1371.55</ele>
        <time>2021-03-27T16:10:42Z</time>
      </trkpt>
      <trkpt lat="40.323604" lon="-4.824579">
        <ele>1388.94</ele>
        <time>2021-03-27T16:10:44Z</time>
      </trkpt>
      <trkpt lat="40.323763" lon="-4.824725">
        <ele>1391.88</ele>
        <time>2021-03-27T16:10:45Z</time>
      </trkpt>
      <trkpt lat="40.323886" lon="-4.824762">
        <ele>1390.64</ele>
        <time>2021-03-27T16:10:46Z</time>
      </trkpt>
      <trkpt lat="40.32427" lon="-4.824792">
        <ele>1393.72</ele>
        <time>2021-03-27T16:10:48Z</time>
      </trkpt>
      <trkpt lat="40.324342" lon="-4.824783">
        <ele>1394.83</ele>
        <time>2021-03-27T16:10:49Z</time>
      </trkpt>
      <trkpt lat="40.324409" lon="-4.824746">
        <ele>1395.05</ele>
        <time>2021-03-27T16:10:50Z</time>
      </trkpt>
      <trkpt lat="40.324509" lon="-4.824624">
        <ele>1395.69</ele>
        <time>2021-03-27T16:10:51Z</time>
      </trkpt>
      <trkpt lat="40.324578" lon="-4.824429">
        <ele>1396.53</ele>
        <time>2021-03-27T16:10:53Z</time>
      </trkpt>
      <trkpt lat="40.324602" lon="-4.82396">
        <ele>1393.13</ele>
        <time>2021-03-27T16:10:54Z</time>
      </trkpt>
      <trkpt lat="40.324678" lon="-4.823724">
        <ele>1395.55</ele>
        <time>2021-03-27T16:10:55Z</time>
      </trkpt>
      <trkpt lat="40.324858" lon="-4.82331">
        <ele>1398.73</ele>
        <time>2021-03-27T16:10:57Z</time>
      </trkpt>
      <trkpt lat="40.324889" lon="-4.82319">
        <ele>1400.12</ele>
        <time>2021-03-27T16:10:58Z</time>
      </trkpt>
      <trkpt lat="40.324886" lon="-4.823014">
        <ele>1399.83</ele>
        <time>2021-03-27T16:10:59Z</time>
      </trkpt>
      <trkpt lat="40.324744" lon="-4.822605">
        <ele>1398.84</ele>
        <time>2021-03-27T16:11:00Z</time>
      </trkpt>
      <trkpt lat="40.324684" lon="-4.822346">
        <ele>1401.06</ele>
        <time>2021-03-27T16:11:02Z</time>
      </trkpt>
      <trkpt lat="40.324669" lon="-4.822045">
        <ele>1405.09</ele>
        <time>2021-03-27T16:11:03Z</time>
      </trkpt>
      <trkpt lat="40.324689" lon="-4.821809">
        <ele>1406.53</ele>
        <time>2021-03-27T16:11:04Z</time>
      </trkpt>
      <trkpt lat="40.324773" lon="-4.821517">
        <ele>1407.49</ele>
        <time>2021-03-27T16:11:06Z</time>
      </trkpt>
      <trkpt lat="40.325333" lon="-4.820221">
        <ele>1408.89</ele>
        <time>2021-03-27T16:11:07Z</time>
      </trkpt>
      <trkpt lat="40.325522" lon="-4.81989">
        <ele>1411.33</ele>
        <time>2021-03-27T16:11:08Z</time>
      </trkpt>
      <trkpt lat="40.325716" lon="-4.819605">
        <ele>1414.09</ele>
        <time>2021-03-27T16:11:09Z</time>
      </trkpt>
      <trkpt lat="40.325978" lon="-4.819312">
        <ele>1411.91</ele>
        <time>2021-03-27T16:11:11Z</time>
      </trkpt>
      <trkpt lat="40.326209" lon="-4.819179">
        <ele>1415.05</ele>
        <time>2021-03-27T16:11:12Z</time>
      </trkpt>
      <trkpt lat="40.326327" lon="-4.819147">
        <ele>1419.31</ele>
        <time>2021-03-27T16:11:13Z</time>
      </trkpt>
      <trkpt lat="40.326593" lon="-4.819138">
        <ele>1428.47</ele>
        <time>2021-03-27T16:11:14Z</time>
      </trkpt>
      <trkpt lat="40.326902" lon="-4.819189">
        <ele>1436.02</ele>
        <time>2021-03-27T16:11:16Z</time>
      </trkpt>
      <trkpt lat="40.326991" lon="-4.819163">
        <ele>1437.35</ele>
        <time>2021-03-27T16:11:17Z</time>
      </trkpt>
      <trkpt lat="40.327038" lon="-4.819128">
        <ele>1437.58</ele>
        <time>2021-03-27T16:11:18Z</time>
      </trkpt>
      <trkpt lat="40.327102" lon="-4.818983">
        <ele>1434.57</ele>
        <time>2021-03-27T16:11:20Z</time>
      </trkpt>
      <trkpt lat="40.327123" lon="-4.818864">
        <ele>1431.46</ele>
        <time>2021-03-27T16:11:21Z</time>
      </trkpt>
      <trkpt lat="40.327131" lon="-4.818701">
        <ele>1427.87</ele>
        <time>2021-03-27T16:11:22Z</time>
      </trkpt>
      <trkpt lat="40.327113" lon="-4.818445">
        <ele>1424.02</ele>
        <time>2021-03-27T16:11:23Z</time>
      </trkpt>
      <trkpt lat="40.327148" lon="-4.81826">
        <ele>1423.93</ele>
        <time>2021-03-27T16:11:25Z</time>
      </trkpt>
      <trkpt lat="40.327579" lon="-4.817487">
        <ele>1433.66</ele>
        <time>2021-03-27T16:11:26Z</time>
      </trkpt>
      <trkpt lat="40.327602" lon="-4.817401">
        <ele>1434.27</ele>
        <time>2021-03-27T16:11:27Z</time>
      </trkpt>
      <trkpt lat="40.327626" lon="-4.817056">
        <ele>1436.81</ele>
        <time>2021-03-27T16:11:29Z</time>
      </trkpt>
      <trkpt lat="40.327644" lon="-4.816983">
        <ele>1438.54</ele>
        <time>2021-03-27T16:11:30Z</time>
      </trkpt>
      <trkpt lat="40.327729" lon="-4.816913">
        <ele>1442.34</ele>
        <time>2021-03-27T16:11:31Z</time>
      </trkpt>
      <trkpt lat="40.327834" lon="-4.816934">
        <ele>1444.64</ele>
        <time>2021-03-27T16:11:32Z</time>
      </trkpt>
      <trkpt lat="40.327899" lon="-4.817011">
        <ele>1445.71</ele>
        <time>2021-03-27T16:11:34Z</time>
      </trkpt>
      <trkpt lat="40.327911" lon="-4.817065">
        <ele>1445.89</ele>
        <time>2021-03-27T16:11:35Z</time>
      </trkpt>
      <trkpt lat="40.327894" lon="-4.817183">
        <ele>1444.68</ele>
        <time>2021-03-27T16:11:36Z</time>
      </trkpt>
      <trkpt lat="40.327761" lon="-4.817479">
        <ele>1441.93</ele>
        <time>2021-03-27T16:11:38Z</time>
      </trkpt>
      <trkpt lat="40.327486" lon="-4.818167">
        <ele>1440.42</ele>
        <time>2021-03-27T16:11:39Z</time>
      </trkpt>
      <trkpt lat="40.327444" lon="-4.818368">
        <ele>1440.51</ele>
        <time>2021-03-27T16:11:40Z</time>
      </trkpt>
      <trkpt lat="40.327425" lon="-4.81864">
        <ele>1443.63</ele>
        <time>2021-03-27T16:11:41Z</time>
      </trkpt>
      <trkpt lat="40.327412" lon="-4.819565">
        <ele>1463.13</ele>
        <time>2021-03-27T16:11:43Z</time>
      </trkpt>
      <trkpt lat="40.327388" lon="-4.819698">
        <ele>1466.25</ele>
        <time>2021-03-27T16:11:44Z</time>
      </trkpt>
      <trkpt lat="40.327341" lon="-4.819769">
        <ele>1466.53</ele>
        <time>2021-03-27T16:11:45Z</time>
      </trkpt>
      <trkpt lat="40.327235" lon="-4.819836">
        <ele>1463.96</ele>
        <time>2021-03-27T16:11:46Z</time>
      </trkpt>
      <trkpt lat="40.326865" lon="-4.819941">
        <ele>1460.17</ele>
        <time>2021-03-27T16:11:48Z</time>
      </trkpt>
      <trkpt lat="40.326431" lon="-4.820003">
        <ele>1452.5</ele>
        <time>2021-03-27T16:11:49Z</time>
      </trkpt>
      <trkpt lat="40.326284" lon="-4.820084">
        <ele>1452.23</ele>
        <time>2021-03-27T16:11:50Z</time>
      </trkpt>
      <trkpt lat="40.326204" lon="-4.820159">
        <ele>1453.52</ele>
        <time>2021-03-27T16:11:52Z</time>
      </trkpt>
      <trkpt lat="40.32609" lon="-4.820343">
        <ele>1456.73</ele>
        <time>2021-03-27T16:11:53Z</time>
      </trkpt>
      <trkpt lat="40.325941" lon="-4.820675">
        <ele>1460.51</ele>
        <time>2021-03-27T16:11:54Z</time>
      </trkpt>
      <trkpt lat="40.325766" lon="-4.821114">
        <ele>1466.4</ele>
        <time>2021-03-27T16:11:55Z</time>
      </trkpt>
      <trkpt lat="40.32567" lon="-4.821419">
        <ele>1464.69</ele>
        <time>2021-03-27T16:11:57Z</time>
      </trkpt>
      <trkpt lat="40.325626" lon="-4.821659">
        <ele>1462.06</ele>
        <time>2021-03-27T16:11:58Z</time>
      </trkpt>
      <trkpt lat="40.325634" lon="-4.821775">
        <ele>1461.76</ele>
        <time>2021-03-27T16:11:59Z</time>
      </trkpt>
      <trkpt lat="40.325674" lon="-4.821892">
        <ele>1462.62</ele>
        <time>2021-03-27T16:12:01Z</time>
      </trkpt>
      <trkpt lat="40.325774" lon="-4.822033">
        <ele>1464.28</ele>
        <time>2021-03-27T16:12:02Z</time>
      </trkpt>
      <trkpt lat="40.325839" lon="-4.82209">
        <ele>1465.62</ele>
        <time>2021-03-27T16:12:03Z</time>
      </trkpt>
      <trkpt lat="40.326058" lon="-4.822224">
        <ele>1471.88</ele>
        <time>2021-03-27T16:12:04Z</time>
      </trkpt>
      <trkpt lat="40.326161" lon="-4.822311">
        <ele>1475.68</ele>
        <time>2021-03-27T16:12:06Z</time>
      </trkpt>
      <trkpt lat="40.32624" lon="-4.822468">
        <ele>1478.66</ele>
        <time>2021-03-27T16:12:07Z</time>
      </trkpt>
      <trkpt lat="40.32626" lon="-4.822629">
        <ele>1479.12</ele>
        <time>2021-03-27T16:12:08Z</time>
      </trkpt>
      <trkpt lat="40.326242" lon="-4.822928">
        <ele>1478.13</ele>
        <time>2021-03-27T16:12:10Z</time>
      </trkpt>
      <trkpt lat="40.326208" lon="-4.82311">
        <ele>1477.36</ele>
        <time>2021-03-27T16:12:11Z</time>
      </trkpt>
      <trkpt lat="40.325956" lon="-4.823994">
        <ele>1474.63</ele>
        <time>2021-03-27T16:12:12Z</time>
      </trkpt>
      <trkpt lat="40.325936" lon="-4.824139">
        <ele>1474.09</ele>
        <time>2021-03-27T16:12:13Z</time>
      </trkpt>
      <trkpt lat="40.32594" lon="-4.824229">
        <ele>1474.4</ele>
        <time>2021-03-27T16:12:15Z</time>
      </trkpt>
      <trkpt lat="40.326152" lon="-4.825252">
        <ele>1487.86</ele>
        <time>2021-03-27T16:12:16Z</time>
      </trkpt>
      <trkpt lat="40.326165" lon="-4.825487">
        <ele>1490.99</ele>
        <time>2021-03-27T16:12:17Z</time>
      </trkpt>
      <trkpt lat="40.326139" lon="-4.825765">
        <ele>1491.3</ele>
        <time>2021-03-27T16:12:18Z</time>
      </trkpt>
      <trkpt lat="40.325939" lon="-4.826745">
        <ele>1497.28</ele>
        <time>2021-03-27T16:12:20Z</time>
      </trkpt>
      <trkpt lat="40.32587" lon="-4.826878">
        <ele>1497.15</ele>
        <time>2021-03-27T16:12:21Z</time>
      </trkpt>
      <trkpt lat="40.325809" lon="-4.826956">
        <ele>1496.72</ele>
        <time>2021-03-27T16:12:22Z</time>
      </trkpt>
      <trkpt lat="40.325506" lon="-4.827186">
        <ele>1498.25</ele>
        <time>2021-03-27T16:12:24Z</time>
      </trkpt>
      <trkpt lat="40.32545" lon="-4.827259">
        <ele>1502.17</ele>
        <time>2021-03-27T16:12:25Z</time>
      </trkpt>
      <trkpt lat="40.325455" lon="-4.827371">
        <ele>1506.65</ele>
        <time>2021-03-27T16:12:26Z</time>
      </trkpt>
      <trkpt lat="40.325507" lon="-4.827456">
        <ele>1508.22</ele>
        <time>2021-03-27T16:12:27Z</time>
      </trkpt>
      <trkpt lat="40.3256" lon="-4.827497">
        <ele>1507.92</ele>
        <time>2021-03-27T16:12:29Z</time>
      </trkpt>
      <trkpt lat="40.325683" lon="-4.827454">
        <ele>1506.74</ele>
        <time>2021-03-27T16:12:30Z</time>
      </trkpt>
      <trkpt lat="40.325761" lon="-4.827355">
        <ele>1504.71</ele>
        <time>2021-03-27T16:12:31Z</time>
      </trkpt>
      <trkpt lat="40.325999" lon="-4.826932">
        <ele>1503.91</ele>
        <time>2021-03-27T16:12:33Z</time>
      </trkpt>
      <trkpt lat="40.326385" lon="-4.826061">
        <ele>1508.23</ele>
        <time>2021-03-27T16:12:34Z</time>
      </trkpt>
      <trkpt lat="40.326427" lon="-4.825935">
        <ele>1509.18</ele>
        <time>2021-03-27T16:12:35Z</time>
      </trkpt>
      <trkpt lat="40.326491" lon="-4.825582">
        <ele>1508.13</ele>
        <time>2021-03-27T16:12:36Z</time>
      </trkpt>
      <trkpt lat="40.326647" lon="-4.824438">
        <ele>1513.9</ele>
        <time>2021-03-27T16:12:38Z</time>
      </trkpt>
      <trkpt lat="40.326719" lon="-4.824283">
        <ele>1515.52</ele>
        <time>2021-03-27T16:12:39Z</time>
      </trkpt>
      <trkpt lat="40.327265" lon="-4.823322">
        <ele>1525.63</ele>
        <time>2021-03-27T16:12:40Z</time>
      </trkpt>
      <trkpt lat="40.327325" lon="-4.823077">
        <ele>1525.88</ele>
        <time>2021-03-27T16:12:42Z</time>
      </trkpt>
      <trkpt lat="40.327423" lon="-4.822437">
        <ele>1527.87</ele>
        <time>2021-03-27T16:12:43Z</time>
      </trkpt>
      <trkpt lat="40.327466" lon="-4.821984">
        <ele>1526.71</ele>
        <time>2021-03-27T16:12:44Z</time>
      </trkpt>
      <trkpt lat="40.32752" lon="-4.821741">
        <ele>1529.34</ele>
        <time>2021-03-27T16:12:45Z</time>
      </trkpt>
      <trkpt lat="40.327575" lon="-4.821603">
        <ele>1530.07</ele>
        <time>2021-03-27T16:12:47Z</time>
      </trkpt>
      <trkpt lat="40.327648" lon="-4.821454">
        <ele>1529.62</ele>
        <time>2021-03-27T16:12:48Z</time>
      </trkpt>
      <trkpt lat="40.327734" lon="-4.821365">
        <ele>1529.44</ele>
        <time>2021-03-27T16:12:49Z</time>
      </trkpt>
      <trkpt lat="40.327787" lon="-4.821341">
        <ele>1529.56</ele>
        <time>2021-03-27T16:12:50Z</time>
      </trkpt>
      <trkpt lat="40.328044" lon="-4.821313">
        <ele>1531.68</ele>
        <time>2021-03-27T16:12:52Z</time>
      </trkpt>
      <trkpt lat="40.328428" lon="-4.821342">
        <ele>1540.59</ele>
        <time>2021-03-27T16:12:53Z</time>
      </trkpt>
      <trkpt lat="40.328476" lon="-4.821319">
        <ele>1541.9</ele>
        <time>2021-03-27T16:12:54Z</time>
      </trkpt>
      <trkpt lat="40.328547" lon="-4.821217">
        <ele>1542.59</ele>
        <time>2021-03-27T16:12:56Z</time>
      </trkpt>
      <trkpt lat="40.328683" lon="-4.820755">
        <ele>1539.69</ele>
        <time>2021-03-27T16:12:57Z</time>
      </trkpt>
      <trkpt lat="40.3289" lon="-4.819794">
        <ele>1550.3</ele>
        <time>2021-03-27T16:12:58Z</time>
      </trkpt>
      <trkpt lat="40.328958" lon="-4.819464">
        <ele>1548.54</ele>
        <time>2021-03-27T16:12:59Z</time>
      </trkpt>
      <trkpt lat="40.329271" lon="-4.818643">
        <ele>1547.33</ele>
        <time>2021-03-27T16:13:01Z</time>
      </trkpt>
      <trkpt lat="40.329417" lon="-4.818356">
        <ele>1551.64</ele>
        <time>2021-03-27T16:13:02Z</time>
      </trkpt>
      <trkpt lat="40.33013" lon="-4.817075">
        <ele>1555.29</ele>
        <time>2021-03-27T16:13:03Z</time>
      </trkpt>
      <trkpt lat="40.330243" lon="-4.816919">
        <ele>1553.83</ele>
        <time>2021-03-27T16:13:05Z</time>
      </trkpt>
      <trkpt lat="40.330566" lon="-4.816671">
        <ele>1562.52</ele>
        <time>2021-03-27T16:13:06Z</time>
      </trkpt>
      <trkpt lat="40.330626" lon="-4.816604">
        <ele>1563.55</ele>
        <time>2021-03-27T16:13:07Z</time>
      </trkpt>
      <trkpt lat="40.330729" lon="-4.816401">
        <ele>1562.89</ele>
        <time>2021-03-27T16:13:08Z</time>
      </trkpt>
      <trkpt lat="40.330854" lon="-4.815946">
        <ele>1563.25</ele>
        <time>2021-03-27T16:13:10Z</time>
      </trkpt>
      <trkpt lat="40.331098" lon="-4.815295">
        <ele>1569.6</ele>
        <time>2021-03-27T16:13:11Z</time>
      </trkpt>
      <trkpt lat="40.331136" lon="-4.815161">
        <ele>1571.28</ele>
        <time>2021-03-27T16:13:12Z</time>
      </trkpt>
      <trkpt lat="40.331331" lon="-4.81415">
        <ele>1571.22</ele>
        <time>2021-03-27T16:13:14Z</time>
      </trkpt>
      <trkpt lat="40.331331" lon="-4.81415">
        <ele>1571.22</ele>
        <time>2021-03-27T16:13:14Z</time>
      </trkpt>
      <trkpt lat="40.331466" lon="-4.813421">
        <ele>1571.33</ele>
        <time>2021-03-27T16:13:15Z</time>
      </trkpt>
      <trkpt lat="40.331475" lon="-4.813267">
        <ele>1571.05</ele>
        <time>2021-03-27T16:13:16Z</time>
      </trkpt>
      <trkpt lat="40.331438" lon="-4.813071">
        <ele>1571.77</ele>
        <time>2021-03-27T16:13:17Z</time>
      </trkpt>
      <trkpt lat="40.3313" lon="-4.812635">
        <ele>1571.37</ele>
        <time>2021-03-27T16:13:18Z</time>
      </trkpt>
      <trkpt lat="40.331285" lon="-4.812461">
        <ele>1571.28</ele>
        <time>2021-03-27T16:13:20Z</time>
      </trkpt>
      <trkpt lat="40.331335" lon="-4.812242">
        <ele>1570.61</ele>
        <time>2021-03-27T16:13:21Z</time>
      </trkpt>
      <trkpt lat="40.331772" lon="-4.811224">
        <ele>1571.18</ele>
        <time>2021-03-27T16:13:22Z</time>
      </trkpt>
      <trkpt lat="40.331852" lon="-4.811105">
        <ele>1569.46</ele>
        <time>2021-03-27T16:13:23Z</time>
      </trkpt>
      <trkpt lat="40.332068" lon="-4.810864">
        <ele>1565.39</ele>
        <time>2021-03-27T16:13:24Z</time>
      </trkpt>
      <trkpt lat="40.33225" lon="-4.810705">
        <ele>1563.59</ele>
        <time>2021-03-27T16:13:26Z</time>
      </trkpt>
      <trkpt lat="40.332687" lon="-4.810269">
        <ele>1561.04</ele>
        <time>2021-03-27T16:13:27Z</time>
      </trkpt>
      <trkpt lat="40.332759" lon="-4.810175">
        <ele>1559.29</ele>
        <time>2021-03-27T16:13:28Z</time>
      </trkpt>
      <trkpt lat="40.3328" lon="-4.810099">
        <ele>1558.61</ele>
        <time>2021-03-27T16:13:29Z</time>
      </trkpt>
      <trkpt lat="40.332837" lon="-4.80998">
        <ele>1558.94</ele>
        <time>2021-03-27T16:13:30Z</time>
      </trkpt>
      <trkpt lat="40.332919" lon="-4.809509">
        <ele>1563.26</ele>
        <time>2021-03-27T16:13:31Z</time>
      </trkpt>
      <trkpt lat="40.332986" lon="-4.809415">
        <ele>1563.24</ele>
        <time>2021-03-27T16:13:33Z</time>
      </trkpt>
      <trkpt lat="40.333024" lon="-4.809383">
        <ele>1563.17</ele>
        <time>2021-03-27T16:13:34Z</time>
      </trkpt>
      <trkpt lat="40.333128" lon="-4.809346">
        <ele>1561.44</ele>
        <time>2021-03-27T16:13:35Z</time>
      </trkpt>
      <trkpt lat="40.333553" lon="-4.809355">
        <ele>1550.73</ele>
        <time>2021-03-27T16:13:36Z</time>
      </trkpt>
      <trkpt lat="40.333925" lon="-4.809306">
        <ele>1543.82</ele>
        <time>2021-03-27T16:13:37Z</time>
      </trkpt>
      <trkpt lat="40.33408" lon="-4.809241">
        <ele>1543.29</ele>
        <time>2021-03-27T16:13:38Z</time>
      </trkpt>
      <trkpt lat="40.334218" lon="-4.809144">
        <ele>1542.49</ele>
        <time>2021-03-27T16:13:40Z</time>
      </trkpt>
      <trkpt lat="40.334295" lon="-4.80899">
        <ele>1543.86</ele>
        <time>2021-03-27T16:13:41Z</time>
      </trkpt>
      <trkpt lat="40.334309" lon="-4.808889">
        <ele>1546.31</ele>
        <time>2021-03-27T16:13:42Z</time>
      </trkpt>
      <trkpt lat="40.334346" lon="-4.808084">
        <ele>1546.65</ele>
        <time>2021-03-27T16:13:43Z</time>
      </trkpt>
      <trkpt lat="40.334364" lon="-4.807896">
        <ele>1548.48</ele>
        <time>2021-03-27T16:13:44Z</time>
      </trkpt>
      <trkpt lat="40.3344" lon="-4.807754">
        <ele>1548.95</ele>
        <time>2021-03-27T16:13:46Z</time>
      </trkpt>
      <trkpt lat="40.334441" lon="-4.807674">
        <ele>1548.04</ele>
        <time>2021-03-27T16:13:47Z</time>
      </trkpt>
      <trkpt lat="40.33456" lon="-4.807526">
        <ele>1545.44</ele>
        <time>2021-03-27T16:13:48Z</time>
      </trkpt>
      <trkpt lat="40.334736" lon="-4.8074">
        <ele>1541.33</ele>
        <time>2021-03-27T16:13:49Z</time>
      </trkpt>
      <trkpt lat="40.334972" lon="-4.807279">
        <ele>1535.3</ele>
        <time>2021-03-27T16:13:50Z</time>
      </trkpt>
      <trkpt lat="40.335175" lon="-4.807111">
        <ele>1531.98</ele>
        <time>2021-03-27T16:13:51Z</time>
      </trkpt>
      <trkpt lat="40.335363" lon="-4.806832">
        <ele>1529.17</ele>
        <time>2021-03-27T16:13:53Z</time>
      </trkpt>
      <trkpt lat="40.335472" lon="-4.806602">
        <ele>1527.22</ele>
        <time>2021-03-27T16:13:54Z</time>
      </trkpt>
      <trkpt lat="40.335523" lon="-4.806446">
        <ele>1526.15</ele>
        <time>2021-03-27T16:13:55Z</time>
      </trkpt>
      <trkpt lat="40.335879" lon="-4.805121">
        <ele>1524.11</ele>
        <time>2021-03-27T16:13:56Z</time>
      </trkpt>
      <trkpt lat="40.335931" lon="-4.80503">
        <ele>1522.88</ele>
        <time>2021-03-27T16:13:57Z</time>
      </trkpt>
      <trkpt lat="40.336014" lon="-4.80498">
        <ele>1521.75</ele>
        <time>2021-03-27T16:13:58Z</time>
      </trkpt>
      <trkpt lat="40.337045" lon="-4.804657">
        <ele>1509.0</ele>
        <time>2021-03-27T16:14:00Z</time>
      </trkpt>
      <trkpt lat="40.33727" lon="-4.804503">
        <ele>1509.31</ele>
        <time>2021-03-27T16:14:01Z</time>
      </trkpt>
      <trkpt lat="40.337443" lon="-4.80432">
        <ele>1507.43</ele>
        <time>2021-03-27T16:14:02Z</time>
      </trkpt>
      <trkpt lat="40.337503" lon="-4.804235">
        <ele>1506.33</ele>
        <time>2021-03-27T16:14:03Z</time>
      </trkpt>
      <trkpt lat="40.337563" lon="-4.804111">
        <ele>1505.94</ele>
        <time>2021-03-27T16:14:04Z</time>
      </trkpt>
      <trkpt lat="40.33765" lon="-4.803822">
        <ele>1506.55</ele>
        <time>2021-03-27T16:14:06Z</time>
      </trkpt>
      <trkpt lat="40.337674" lon="-4.803581">
        <ele>1508.91</ele>
        <time>2021-03-27T16:14:07Z</time>
      </trkpt>
      <trkpt lat="40.33769" lon="-4.802993">
        <ele>1511.67</ele>
        <time>2021-03-27T16:14:08Z</time>
      </trkpt>
      <trkpt lat="40.337713" lon="-4.802881">
        <ele>1511.47</ele>
        <time>2021-03-27T16:14:09Z</time>
      </trkpt>
      <trkpt lat="40.337766" lon="-4.802758">
        <ele>1510.05</ele>
        <time>2021-03-27T16:14:10Z</time>
      </trkpt>
      <trkpt lat="40.337807" lon="-4.8027">
        <ele>1509.1</ele>
        <time>2021-03-27T16:14:11Z</time>
      </trkpt>
      <trkpt lat="40.338042" lon="-4.802496">
        <ele>1503.64</ele>
        <time>2021-03-27T16:14:13Z</time>
      </trkpt>
      <trkpt lat="40.338376" lon="-4.802155">
        <ele>1498.65</ele>
        <time>2021-03-27T16:14:14Z</time>
      </trkpt>
      <trkpt lat="40.339055" lon="-4.801528">
        <ele>1493.02</ele>
        <time>2021-03-27T16:14:15Z</time>
      </trkpt>
      <trkpt lat="40.339173" lon="-4.801365">
        <ele>1493.13</ele>
        <time>2021-03-27T16:14:16Z</time>
      </trkpt>
      <trkpt lat="40.339321" lon="-4.801028">
        <ele>1491.58</ele>
        <time>2021-03-27T16:14:17Z</time>
      </trkpt>
      <trkpt lat="40.339403" lon="-4.800974">
        <ele>1487.92</ele>
        <time>2021-03-27T16:14:18Z</time>
      </trkpt>
      <trkpt lat="40.339483" lon="-4.800994">
        <ele>1484.04</ele>
        <time>2021-03-27T16:14:20Z</time>
      </trkpt>
      <trkpt lat="40.33952" lon="-4.801034">
        <ele>1482.21</ele>
        <time>2021-03-27T16:14:21Z</time>
      </trkpt>
      <trkpt lat="40.339551" lon="-4.801138">
        <ele>1480.06</ele>
        <time>2021-03-27T16:14:22Z</time>
      </trkpt>
      <trkpt lat="40.339551" lon="-4.801216">
        <ele>1478.37</ele>
        <time>2021-03-27T16:14:23Z</time>
      </trkpt>
      <trkpt lat="40.339491" lon="-4.801365">
        <ele>1478.16</ele>
        <time>2021-03-27T16:14:24Z</time>
      </trkpt>
      <trkpt lat="40.339387" lon="-4.801498">
        <ele>1479.86</ele>
        <time>2021-03-27T16:14:26Z</time>
      </trkpt>
      <trkpt lat="40.338861" lon="-4.80207">
        <ele>1481.05</ele>
        <time>2021-03-27T16:14:27Z</time>
      </trkpt>
      <trkpt lat="40.338219" lon="-4.802988">
        <ele>1482.19</ele>
        <time>2021-03-27T16:14:28Z</time>
      </trkpt>
      <trkpt lat="40.338163" lon="-4.803107">
        <ele>1482.39</ele>
        <time>2021-03-27T16:14:29Z</time>
      </trkpt>
      <trkpt lat="40.338155" lon="-4.803242">
        <ele>1482.59</ele>
        <time>2021-03-27T16:14:30Z</time>
      </trkpt>
      <trkpt lat="40.338206" lon="-4.803698">
        <ele>1477.7</ele>
        <time>2021-03-27T16:14:31Z</time>
      </trkpt>
      <trkpt lat="40.338212" lon="-4.80411">
        <ele>1473.28</ele>
        <time>2021-03-27T16:14:33Z</time>
      </trkpt>
      <trkpt lat="40.338194" lon="-4.804292">
        <ele>1470.38</ele>
        <time>2021-03-27T16:14:34Z</time>
      </trkpt>
      <trkpt lat="40.338146" lon="-4.804501">
        <ele>1468.0</ele>
        <time>2021-03-27T16:14:35Z</time>
      </trkpt>
      <trkpt lat="40.338084" lon="-4.804701">
        <ele>1466.13</ele>
        <time>2021-03-27T16:14:36Z</time>
      </trkpt>
      <trkpt lat="40.338008" lon="-4.804868">
        <ele>1464.98</ele>
        <time>2021-03-27T16:14:37Z</time>
      </trkpt>
      <trkpt lat="40.337909" lon="-4.805038">
        <ele>1464.09</ele>
        <time>2021-03-27T16:14:39Z</time>
      </trkpt>
      <trkpt lat="40.337801" lon="-4.805177">
        <ele>1463.2</ele>
        <time>2021-03-27T16:14:40Z</time>
      </trkpt>
      <trkpt lat="40.337558" lon="-4.805401">
        <ele>1461.67</ele>
        <time>2021-03-27T16:14:41Z</time>
      </trkpt>
      <trkpt lat="40.337244" lon="-4.805579">
        <ele>1460.4</ele>
        <time>2021-03-27T16:14:42Z</time>
      </trkpt>
      <trkpt lat="40.336806" lon="-4.805728">
        <ele>1467.42</ele>
        <time>2021-03-27T16:14:43Z</time>
      </trkpt>
      <trkpt lat="40.336747" lon="-4.805765">
        <ele>1467.03</ele>
        <time>2021-03-27T16:14:44Z</time>
      </trkpt>
      <trkpt lat="40.336684" lon="-4.805855">
        <ele>1466.44</ele>
        <time>2021-03-27T16:14:46Z</time>
      </trkpt>
      <trkpt lat="40.336673" lon="-4.805994">
        <ele>1465.66</ele>
        <time>2021-03-27T16:14:47Z</time>
      </trkpt>
      <trkpt lat="40.336758" lon="-4.806331">
        <ele>1456.37</ele>
        <time>2021-03-27T16:14:48Z</time>
      </trkpt>
      <trkpt lat="40.336808" lon="-4.806725">
        <ele>1455.9</ele>
        <time>2021-03-27T16:14:49Z</time>
      </trkpt>
      <trkpt lat="40.336926" lon="-4.807365">
        <ele>1447.9</ele>
        <time>2021-03-27T16:14:50Z</time>
      </trkpt>
      <trkpt lat="40.336937" lon="-4.807491">
        <ele>1447.3</ele>
        <time>2021-03-27T16:14:51Z</time>
      </trkpt>
      <trkpt lat="40.336907" lon="-4.807749">
        <ele>1445.5</ele>
        <time>2021-03-27T16:14:53Z</time>
      </trkpt>
      <trkpt lat="40.336748" lon="-4.808226">
        <ele>1445.22</ele>
        <time>2021-03-27T16:14:54Z</time>
      </trkpt>
      <trkpt lat="40.336673" lon="-4.808411">
        <ele>1445.05</ele>
        <time>2021-03-27T16:14:55Z</time>
      </trkpt>
      <trkpt lat="40.336579" lon="-4.808568">
        <ele>1444.15</ele>
        <time>2021-03-27T16:14:56Z</time>
      </trkpt>
      <trkpt lat="40.336406" lon="-4.808762">
        <ele>1444.36</ele>
        <time>2021-03-27T16:14:57Z</time>
      </trkpt>
      <trkpt lat="40.33607" lon="-4.808962">
        <ele>1449.62</ele>
        <time>2021-03-27T16:14:59Z</time>
      </trkpt>
      <trkpt lat="40.336017" lon="-4.809043">
        <ele>1449.04</ele>
        <time>2021-03-27T16:15:00Z</time>
      </trkpt>
      <trkpt lat="40.336009" lon="-4.809109">
        <ele>1448.64</ele>
        <time>2021-03-27T16:15:01Z</time>
      </trkpt>
      <trkpt lat="40.33609" lon="-4.809459">
        <ele>1440.66</ele>
        <time>2021-03-27T16:15:02Z</time>
      </trkpt>
      <trkpt lat="40.336107" lon="-4.809722">
        <ele>1437.16</ele>
        <time>2021-03-27T16:15:03Z</time>
      </trkpt>
      <trkpt lat="40.336047" lon="-4.809953">
        <ele>1436.18</ele>
        <time>2021-03-27T16:15:04Z</time>
      </trkpt>
      <trkpt lat="40.335638" lon="-4.810945">
        <ele>1442.04</ele>
        <time>2021-03-27T16:15:06Z</time>
      </trkpt>
      <trkpt lat="40.335637" lon="-4.811004">
        <ele>1442.43</ele>
        <time>2021-03-27T16:15:07Z</time>
      </trkpt>
      <trkpt lat="40.33569" lon="-4.811151">
        <ele>1443.91</ele>
        <time>2021-03-27T16:15:08Z</time>
      </trkpt>
      <trkpt lat="40.335738" lon="-4.811183">
        <ele>1444.6</ele>
        <time>2021-03-27T16:15:09Z</time>
      </trkpt>
      <trkpt lat="40.335827" lon="-4.811179">
        <ele>1443.73</ele>
        <time>2021-03-27T16:15:10Z</time>
      </trkpt>
      <trkpt lat="40.33675" lon="-4.810861">
        <ele>1427.48</ele>
        <time>2021-03-27T16:15:11Z</time>
      </trkpt>
      <trkpt lat="40.336862" lon="-4.810882">
        <ele>1427.38</ele>
        <time>2021-03-27T16:15:13Z</time>
      </trkpt>
      <trkpt lat="40.336997" lon="-4.810966">
        <ele>1428.28</ele>
        <time>2021-03-27T16:15:14Z</time>
      </trkpt>
      <trkpt lat="40.337183" lon="-4.811009">
        <ele>1429.29</ele>
        <time>2021-03-27T16:15:15Z</time>
      </trkpt>
      <trkpt lat="40.337315" lon="-4.810964">
        <ele>1430.02</ele>
        <time>2021-03-27T16:15:16Z</time>
      </trkpt>
      <trkpt lat="40.338194" lon="-4.810223">
        <ele>1428.8</ele>
        <time>2021-03-27T16:15:17Z</time>
      </trkpt>
      <trkpt lat="40.338304" lon="-4.810033">
        <ele>1425.29</ele>
        <time>2021-03-27T16:15:19Z</time>
      </trkpt>
      <trkpt lat="40.338501" lon="-4.8095">
        <ele>1410.38</ele>
        <time>2021-03-27T16:15:20Z</time>
      </trkpt>
      <trkpt lat="40.33854" lon="-4.809424">
        <ele>1408.75</ele>
        <time>2021-03-27T16:15:21Z</time>
      </trkpt>
      <trkpt lat="40.338879" lon="-4.809013">
        <ele>1408.57</ele>
        <time>2021-03-27T16:15:22Z</time>
      </trkpt>
      <trkpt lat="40.338996" lon="-4.808903">
        <ele>1409.35</ele>
        <time>2021-03-27T16:15:23Z</time>
      </trkpt>
      <trkpt lat="40.339076" lon="-4.808857">
        <ele>1410.63</ele>
        <time>2021-03-27T16:15:24Z</time>
      </trkpt>
      <trkpt lat="40.339334" lon="-4.808792">
        <ele>1413.51</ele>
        <time>2021-03-27T16:15:26Z</time>
      </trkpt>
      <trkpt lat="40.339478" lon="-4.808716">
        <ele>1412.72</ele>
        <time>2021-03-27T16:15:27Z</time>
      </trkpt>
      <trkpt lat="40.340368" lon="-4.807972">
        <ele>1401.4</ele>
        <time>2021-03-27T16:15:28Z</time>
      </trkpt>
      <trkpt lat="40.340656" lon="-4.807786">
        <ele>1398.19</ele>
        <time>2021-03-27T16:15:29Z</time>
      </trkpt>
      <trkpt lat="40.340779" lon="-4.807677">
        <ele>1398.79</ele>
        <time>2021-03-27T16:15:30Z</time>
      </trkpt>
      <trkpt lat="40.34113" lon="-4.807231">
        <ele>1394.13</ele>
        <time>2021-03-27T16:15:31Z</time>
      </trkpt>
      <trkpt lat="40.341301" lon="-4.807075">
        <ele>1394.88</ele>
        <time>2021-03-27T16:15:33Z</time>
      </trkpt>
      <trkpt lat="40.341686" lon="-4.806797">
        <ele>1390.59</ele>
        <time>2021-03-27T16:15:34Z</time>
      </trkpt>
      <trkpt lat="40.3418" lon="-4.806792">
        <ele>1390.54</ele>
        <time>2021-03-27T16:15:35Z</time>
      </trkpt>
      <trkpt lat="40.342242" lon="-4.806936">
        <ele>1398.73</ele>
        <time>2021-03-27T16:15:36Z</time>
      </trkpt>
      <trkpt lat="40.342314" lon="-4.806939">
        <ele>1399.46</ele>
        <time>2021-03-27T16:15:37Z</time>
      </trkpt>
      <trkpt lat="40.342409" lon="-4.806903">
        <ele>1398.73</ele>
        <time>2021-03-27T16:15:39Z</time>
      </trkpt>
      <trkpt lat="40.342486" lon="-4.806815">
        <ele>1396.17</ele>
        <time>2021-03-27T16:15:40Z</time>
      </trkpt>
      <trkpt lat="40.34266" lon="-4.806474">
        <ele>1386.81</ele>
        <time>2021-03-27T16:15:41Z</time>
      </trkpt>
      <trkpt lat="40.342858" lon="-4.806233">
        <ele>1384.14</ele>
        <time>2021-03-27T16:15:42Z</time>
      </trkpt>
      <trkpt lat="40.343018" lon="-4.806107">
        <ele>1383.74</ele>
        <time>2021-03-27T16:15:43Z</time>
      </trkpt>
      <trkpt lat="40.343171" lon="-4.806064">
        <ele>1385.9</ele>
        <time>2021-03-27T16:15:44Z</time>
      </trkpt>
      <trkpt lat="40.343417" lon="-4.806044">
        <ele>1389.82</ele>
        <time>2021-03-27T16:15:46Z</time>
      </trkpt>
      <trkpt lat="40.343506" lon="-4.805998">
        <ele>1389.22</ele>
        <time>2021-03-27T16:15:47Z</time>
      </trkpt>
      <trkpt lat="40.343557" lon="-4.805948">
        <ele>1388.34</ele>
        <time>2021-03-27T16:15:48Z</time>
      </trkpt>
      <trkpt lat="40.343877" lon="-4.805477">
        <ele>1378.03</ele>
        <time>2021-03-27T16:15:49Z</time>
      </trkpt>
      <trkpt lat="40.344214" lon="-4.805154">
        <ele>1372.42</ele>
        <time>2021-03-27T16:15:50Z</time>
      </trkpt>
      <trkpt lat="40.344395" lon="-4.805052">
        <ele>1371.7</ele>
        <time>2021-03-27T16:15:51Z</time>
      </trkpt>
      <trkpt lat="40.344916" lon="-4.804872">
        <ele>1373.18</ele>
        <time>2021-03-27T16:15:53Z</time>
      </trkpt>
      <trkpt lat="40.345009" lon="-4.804825">
        <ele>1372.47</ele>
        <time>2021-03-27T16:15:54Z</time>
      </trkpt>
      <trkpt lat="40.345535" lon="-4.804398">
        <ele>1369.93</ele>
        <time>2021-03-27T16:15:55Z</time>
      </trkpt>
      <trkpt lat="40.346378" lon="-4.803937">
        <ele>1354.32</ele>
        <time>2021-03-27T16:15:56Z</time>
      </trkpt>
      <trkpt lat="40.346603" lon="-4.803828">
        <ele>1353.09</ele>
        <time>2021-03-27T16:15:57Z</time>
      </trkpt>
      <trkpt lat="40.346913" lon="-4.803763">
        <ele>1357.39</ele>
        <time>2021-03-27T16:15:59Z</time>
      </trkpt>
      <trkpt lat="40.347029" lon="-4.803715">
        <ele>1357.99</ele>
        <time>2021-03-27T16:16:00Z</time>
      </trkpt>
      <trkpt lat="40.347148" lon="-4.803611">
        <ele>1356.13</ele>
        <time>2021-03-27T16:16:01Z</time>
      </trkpt>
      <trkpt lat="40.347345" lon="-4.803356">
        <ele>1351.0</ele>
        <time>2021-03-27T16:16:02Z</time>
      </trkpt>
      <trkpt lat="40.347435" lon="-4.803263">
        <ele>1348.64</ele>
        <time>2021-03-27T16:16:03Z</time>
      </trkpt>
      <trkpt lat="40.347569" lon="-4.803219">
        <ele>1348.61</ele>
        <time>2021-03-27T16:16:04Z</time>
      </trkpt>
      <trkpt lat="40.347768" lon="-4.803213">
        <ele>1350.57</ele>
        <time>2021-03-27T16:16:06Z</time>
      </trkpt>
      <trkpt lat="40.347882" lon="-4.803232">
        <ele>1348.88</ele>
        <time>2021-03-27T16:16:07Z</time>
      </trkpt>
      <trkpt lat="40.348035" lon="-4.803292">
        <ele>1346.66</ele>
        <time>2021-03-27T16:16:08Z</time>
      </trkpt>
      <trkpt lat="40.348447" lon="-4.803655">
        <ele>1348.87</ele>
        <time>2021-03-27T16:16:09Z</time>
      </trkpt>
      <trkpt lat="40.34854" lon="-4.803708">
        <ele>1348.55</ele>
        <time>2021-03-27T16:16:10Z</time>
      </trkpt>
      <trkpt lat="40.34895" lon="-4.803857">
        <ele>1343.34</ele>
        <time>2021-03-27T16:16:11Z</time>
      </trkpt>
      <trkpt lat="40.34905" lon="-4.803963">
        <ele>1344.93</ele>
        <time>2021-03-27T16:16:13Z</time>
      </trkpt>
      <trkpt lat="40.349173" lon="-4.804148">
        <ele>1351.02</ele>
        <time>2021-03-27T16:16:14Z</time>
      </trkpt>
      <trkpt lat="40.349295" lon="-4.804181">
        <ele>1351.58</ele>
        <time>2021-03-27T16:16:15Z</time>
      </trkpt>
      <trkpt lat="40.349374" lon="-4.804174">
        <ele>1350.77</ele>
        <time>2021-03-27T16:16:16Z</time>
      </trkpt>
      <trkpt lat="40.349553" lon="-4.804117">
        <ele>1347.15</ele>
        <time>2021-03-27T16:16:17Z</time>
      </trkpt>
      <trkpt lat="40.349883" lon="-4.80396">
        <ele>1341.08</ele>
        <time>2021-03-27T16:16:19Z</time>
      </trkpt>
      <trkpt lat="40.350056" lon="-4.803824">
        <ele>1338.55</ele>
        <time>2021-03-27T16:16:20Z</time>
      </trkpt>
      <trkpt lat="40.350233" lon="-4.803621">
        <ele>1337.17</ele>
        <time>2021-03-27T16:16:21Z</time>
      </trkpt>
      <trkpt lat="40.350386" lon="-4.803488">
        <ele>1333.79</ele>
        <time>2021-03-27T16:16:22Z</time>
      </trkpt>
      <trkpt lat="40.350863" lon="-4.803194">
        <ele>1328.93</ele>
        <time>2021-03-27T16:16:23Z</time>
      </trkpt>
      <trkpt lat="40.350984" lon="-4.803151">
        <ele>1327.4</ele>
        <time>2021-03-27T16:16:24Z</time>
      </trkpt>
      <trkpt lat="40.351252" lon="-4.803178">
        <ele>1326.66</ele>
        <time>2021-03-27T16:16:26Z</time>
      </trkpt>
      <trkpt lat="40.351676" lon="-4.803296">
        <ele>1323.66</ele>
        <time>2021-03-27T16:16:27Z</time>
      </trkpt>
      <trkpt lat="40.351883" lon="-4.803421">
        <ele>1321.05</ele>
        <time>2021-03-27T16:16:28Z</time>
      </trkpt>
      <trkpt lat="40.352178" lon="-4.803718">
        <ele>1318.24</ele>
        <time>2021-03-27T16:16:29Z</time>
      </trkpt>
      <trkpt lat="40.352247" lon="-4.803819">
        <ele>1318.27</ele>
        <time>2021-03-27T16:16:30Z</time>
      </trkpt>
      <trkpt lat="40.352385" lon="-4.804117">
        <ele>1319.28</ele>
        <time>2021-03-27T16:16:31Z</time>
      </trkpt>
      <trkpt lat="40.352453" lon="-4.804198">
        <ele>1319.04</ele>
        <time>2021-03-27T16:16:33Z</time>
      </trkpt>
      <trkpt lat="40.352584" lon="-4.804276">
        <ele>1317.29</ele>
        <time>2021-03-27T16:16:34Z</time>
      </trkpt>
      <trkpt lat="40.352823" lon="-4.80436">
        <ele>1314.11</ele>
        <time>2021-03-27T16:16:35Z</time>
      </trkpt>
      <trkpt lat="40.352964" lon="-4.804482">
        <ele>1314.24</ele>
        <time>2021-03-27T16:16:36Z</time>
      </trkpt>
      <trkpt lat="40.353226" lon="-4.804822">
        <ele>1312.34</ele>
        <time>2021-03-27T16:16:37Z</time>
      </trkpt>
      <trkpt lat="40.353328" lon="-4.80498">
        <ele>1312.63</ele>
        <time>2021-03-27T16:16:39Z</time>
      </trkpt>
      <trkpt lat="40.353611" lon="-4.805488">
        <ele>1313.79</ele>
        <time>2021-03-27T16:16:40Z</time>
      </trkpt>
      <trkpt lat="40.353763" lon="-4.805812">
        <ele>1312.8</ele>
        <time>2021-03-27T16:16:41Z</time>
      </trkpt>
      <trkpt lat="40.354097" lon="-4.806135">
        <ele>1302.39</ele>
        <time>2021-03-27T16:16:42Z</time>
      </trkpt>
      <trkpt lat="40.35415" lon="-4.806218">
        <ele>1301.3</ele>
        <time>2021-03-27T16:16:43Z</time>
      </trkpt>
      <trkpt lat="40.354203" lon="-4.806404">
        <ele>1301.24</ele>
        <time>2021-03-27T16:16:44Z</time>
      </trkpt>
      <trkpt lat="40.354223" lon="-4.806563">
        <ele>1302.19</ele>
        <time>2021-03-27T16:16:46Z</time>
      </trkpt>
      <trkpt lat="40.354237" lon="-4.806789">
        <ele>1303.34</ele>
        <time>2021-03-27T16:16:47Z</time>
      </trkpt>
      <trkpt lat="40.35424" lon="-4.807516">
        <ele>1301.84</ele>
        <time>2021-03-27T16:16:48Z</time>
      </trkpt>
      <trkpt lat="40.354273" lon="-4.80767">
        <ele>1302.62</ele>
        <time>2021-03-27T16:16:49Z</time>
      </trkpt>
      <trkpt lat="40.354323" lon="-4.807774">
        <ele>1301.52</ele>
        <time>2021-03-27T16:16:50Z</time>
      </trkpt>
      <trkpt lat="40.354743" lon="-4.808449">
        <ele>1294.64</ele>
        <time>2021-03-27T16:16:52Z</time>
      </trkpt>
      <trkpt lat="40.354891" lon="-4.808765">
        <ele>1292.22</ele>
        <time>2021-03-27T16:16:53Z</time>
      </trkpt>
      <trkpt lat="40.355059" lon="-4.809241">
        <ele>1292.04</ele>
        <time>2021-03-27T16:16:54Z</time>
      </trkpt>
      <trkpt lat="40.355317" lon="-4.809637">
        <ele>1288.3</ele>
        <time>2021-03-27T16:16:55Z</time>
      </trkpt>
      <trkpt lat="40.355386" lon="-4.809983">
        <ele>1289.71</ele>
        <time>2021-03-27T16:16:56Z</time>
      </trkpt>
      <trkpt lat="40.355443" lon="-4.810159">
        <ele>1289.39</ele>
        <time>2021-03-27T16:16:57Z</time>
      </trkpt>
      <trkpt lat="40.355621" lon="-4.810436">
        <ele>1284.99</ele>
        <time>2021-03-27T16:16:59Z</time>
      </trkpt>
      <trkpt lat="40.355656" lon="-4.810574">
        <ele>1283.97</ele>
        <time>2021-03-27T16:17:00Z</time>
      </trkpt>
      <trkpt lat="40.355553" lon="-4.811497">
        <ele>1276.96</ele>
        <time>2021-03-27T16:17:01Z</time>
      </trkpt>
      <trkpt lat="40.355399" lon="-4.811967">
        <ele>1278.35</ele>
        <time>2021-03-27T16:17:02Z</time>
      </trkpt>
      <trkpt lat="40.355359" lon="-4.812157">
        <ele>1279.6</ele>
        <time>2021-03-27T16:17:03Z</time>
      </trkpt>
      <trkpt lat="40.355377" lon="-4.812308">
        <ele>1278.6</ele>
        <time>2021-03-27T16:17:04Z</time>
      </trkpt>
      <trkpt lat="40.355497" lon="-4.812555">
        <ele>1272.72</ele>
        <time>2021-03-27T16:17:06Z</time>
      </trkpt>
      <trkpt lat="40.355551" lon="-4.81275">
        <ele>1271.04</ele>
        <time>2021-03-27T16:17:07Z</time>
      </trkpt>
      <trkpt lat="40.355533" lon="-4.813143">
        <ele>1269.98</ele>
        <time>2021-03-27T16:17:08Z</time>
      </trkpt>
      <trkpt lat="40.355438" lon="-4.813766">
        <ele>1264.63</ele>
        <time>2021-03-27T16:17:09Z</time>
      </trkpt>
      <trkpt lat="40.355366" lon="-4.814022">
        <ele>1262.93</ele>
        <time>2021-03-27T16:17:10Z</time>
      </trkpt>
      <trkpt lat="40.355089" lon="-4.814438">
        <ele>1268.93</ele>
        <time>2021-03-27T16:17:12Z</time>
      </trkpt>
      <trkpt lat="40.355044" lon="-4.814577">
        <ele>1267.72</ele>
        <time>2021-03-27T16:17:13Z</time>
      </trkpt>
      <trkpt lat="40.355061" lon="-4.814733">
        <ele>1266.41</ele>
        <time>2021-03-27T16:17:14Z</time>
      </trkpt>
      <trkpt lat="40.355133" lon="-4.814928">
        <ele>1261.55</ele>
        <time>2021-03-27T16:17:15Z</time>
      </trkpt>
      <trkpt lat="40.355149" lon="-4.815103">
        <ele>1260.27</ele>
        <time>2021-03-27T16:17:16Z</time>
      </trkpt>
      <trkpt lat="40.355109" lon="-4.815378">
        <ele>1261.39</ele>
        <time>2021-03-27T16:17:17Z</time>
      </trkpt>
      <trkpt lat="40.354985" lon="-4.81572">
        <ele>1265.77</ele>
        <time>2021-03-27T16:17:19Z</time>
      </trkpt>
      <trkpt lat="40.354978" lon="-4.815856">
        <ele>1265.27</ele>
        <time>2021-03-27T16:17:20Z</time>
      </trkpt>
      <trkpt lat="40.355014" lon="-4.815999">
        <ele>1262.64</ele>
        <time>2021-03-27T16:17:21Z</time>
      </trkpt>
      <trkpt lat="40.355116" lon="-4.816204">
        <ele>1257.49</ele>
        <time>2021-03-27T16:17:22Z</time>
      </trkpt>
      <trkpt lat="40.355195" lon="-4.816439">
        <ele>1254.18</ele>
        <time>2021-03-27T16:17:23Z</time>
      </trkpt>
      <trkpt lat="40.355211" lon="-4.816547">
        <ele>1253.51</ele>
        <time>2021-03-27T16:17:24Z</time>
      </trkpt>
      <trkpt lat="40.355197" lon="-4.816747">
        <ele>1252.84</ele>
        <time>2021-03-27T16:17:26Z</time>
      </trkpt>
      <trkpt lat="40.355166" lon="-4.816855">
        <ele>1252.31</ele>
        <time>2021-03-27T16:17:27Z</time>
      </trkpt>
      <trkpt lat="40.354907" lon="-4.817446">
        <ele>1246.85</ele>
        <time>2021-03-27T16:17:28Z</time>
      </trkpt>
      <trkpt lat="40.354592" lon="-4.817894">
        <ele>1249.65</ele>
        <time>2021-03-27T16:17:29Z</time>
      </trkpt>
      <trkpt lat="40.35447" lon="-4.818093">
        <ele>1250.27</ele>
        <time>2021-03-27T16:17:30Z</time>
      </trkpt>
      <trkpt lat="40.35423" lon="-4.818844">
        <ele>1246.88</ele>
        <time>2021-03-27T16:17:32Z</time>
      </trkpt>
      <trkpt lat="40.354063" lon="-4.819157">
        <ele>1250.69</ele>
        <time>2021-03-27T16:17:33Z</time>
      </trkpt>
      <trkpt lat="40.35405" lon="-4.81929">
        <ele>1250.35</ele>
        <time>2021-03-27T16:17:34Z</time>
      </trkpt>
      <trkpt lat="40.354068" lon="-4.81937">
        <ele>1250.15</ele>
        <time>2021-03-27T16:17:35Z</time>
      </trkpt>
      <trkpt lat="40.354123" lon="-4.819458">
        <ele>1249.89</ele>
        <time>2021-03-27T16:17:36Z</time>
      </trkpt>
      <trkpt lat="40.354317" lon="-4.819522">
        <ele>1249.9</ele>
        <time>2021-03-27T16:17:37Z</time>
      </trkpt>
      <trkpt lat="40.354734" lon="-4.819601">
        <ele>1250.04</ele>
        <time>2021-03-27T16:17:39Z</time>
      </trkpt>
      <trkpt lat="40.354892" lon="-4.819556">
        <ele>1248.11</ele>
        <time>2021-03-27T16:17:40Z</time>
      </trkpt>
      <trkpt lat="40.354966" lon="-4.819508">
        <ele>1246.65</ele>
        <time>2021-03-27T16:17:41Z</time>
      </trkpt>
      <trkpt lat="40.355042" lon="-4.819428">
        <ele>1244.21</ele>
        <time>2021-03-27T16:17:42Z</time>
      </trkpt>
      <trkpt lat="40.355453" lon="-4.818924">
        <ele>1230.78</ele>
        <time>2021-03-27T16:17:43Z</time>
      </trkpt>
      <trkpt lat="40.355618" lon="-4.818786">
        <ele>1229.48</ele>
        <time>2021-03-27T16:17:44Z</time>
      </trkpt>
      <trkpt lat="40.356086" lon="-4.818479">
        <ele>1226.71</ele>
        <time>2021-03-27T16:17:46Z</time>
      </trkpt>
      <trkpt lat="40.356248" lon="-4.818441">
        <ele>1227.54</ele>
        <time>2021-03-27T16:17:47Z</time>
      </trkpt>
      <trkpt lat="40.356383" lon="-4.818476">
        <ele>1228.98</ele>
        <time>2021-03-27T16:17:48Z</time>
      </trkpt>
      <trkpt lat="40.356566" lon="-4.81864">
        <ele>1228.13</ele>
        <time>2021-03-27T16:17:49Z</time>
      </trkpt>
      <trkpt lat="40.357232" lon="-4.819478">
        <ele>1224.81</ele>
        <time>2021-03-27T16:17:50Z</time>
      </trkpt>
      <trkpt lat="40.357314" lon="-4.819518">
        <ele>1222.47</ele>
        <time>2021-03-27T16:17:52Z</time>
      </trkpt>
      <trkpt lat="40.357402" lon="-4.819485">
        <ele>1219.51</ele>
        <time>2021-03-27T16:17:53Z</time>
      </trkpt>
      <trkpt lat="40.357458" lon="-4.81939">
        <ele>1217.23</ele>
        <time>2021-03-27T16:17:54Z</time>
      </trkpt>
      <trkpt lat="40.357467" lon="-4.819265">
        <ele>1216.77</ele>
        <time>2021-03-27T16:17:55Z</time>
      </trkpt>
      <trkpt lat="40.357288" lon="-4.818645">
        <ele>1216.3</ele>
        <time>2021-03-27T16:17:56Z</time>
      </trkpt>
      <trkpt lat="40.357255" lon="-4.818461">
        <ele>1214.92</ele>
        <time>2021-03-27T16:17:57Z</time>
      </trkpt>
      <trkpt lat="40.357217" lon="-4.817856">
        <ele>1213.33</ele>
        <time>2021-03-27T16:17:59Z</time>
      </trkpt>
      <trkpt lat="40.357215" lon="-4.817595">
        <ele>1211.08</ele>
        <time>2021-03-27T16:18:00Z</time>
      </trkpt>
      <trkpt lat="40.357255" lon="-4.817477">
        <ele>1209.45</ele>
        <time>2021-03-27T16:18:01Z</time>
      </trkpt>
      <trkpt lat="40.357349" lon="-4.81739">
        <ele>1207.86</ele>
        <time>2021-03-27T16:18:02Z</time>
      </trkpt>
      <trkpt lat="40.357403" lon="-4.817372">
        <ele>1207.46</ele>
        <time>2021-03-27T16:18:03Z</time>
      </trkpt>
      <trkpt lat="40.357517" lon="-4.817403">
        <ele>1207.09</ele>
        <time>2021-03-27T16:18:04Z</time>
      </trkpt>
      <trkpt lat="40.357567" lon="-4.817453">
        <ele>1206.78</ele>
        <time>2021-03-27T16:18:06Z</time>
      </trkpt>
      <trkpt lat="40.357625" lon="-4.817557">
        <ele>1206.4</ele>
        <time>2021-03-27T16:18:07Z</time>
      </trkpt>
      <trkpt lat="40.35839" lon="-4.819193">
        <ele>1203.98</ele>
        <time>2021-03-27T16:18:08Z</time>
      </trkpt>
      <trkpt lat="40.358442" lon="-4.819329">
        <ele>1202.27</ele>
        <time>2021-03-27T16:18:09Z</time>
      </trkpt>
      <trkpt lat="40.358509" lon="-4.819661">
        <ele>1198.91</ele>
        <time>2021-03-27T16:18:10Z</time>
      </trkpt>
      <trkpt lat="40.358599" lon="-4.820351">
        <ele>1197.02</ele>
        <time>2021-03-27T16:18:12Z</time>
      </trkpt>
      <trkpt lat="40.358637" lon="-4.820505">
        <ele>1198.26</ele>
        <time>2021-03-27T16:18:13Z</time>
      </trkpt>
      <trkpt lat="40.358721" lon="-4.820666">
        <ele>1200.19</ele>
        <time>2021-03-27T16:18:14Z</time>
      </trkpt>
      <trkpt lat="40.358764" lon="-4.8207">
        <ele>1200.9</ele>
        <time>2021-03-27T16:18:15Z</time>
      </trkpt>
      <trkpt lat="40.358841" lon="-4.820706">
        <ele>1201.2</ele>
        <time>2021-03-27T16:18:16Z</time>
      </trkpt>
      <trkpt lat="40.358951" lon="-4.820641">
        <ele>1200.81</ele>
        <time>2021-03-27T16:18:17Z</time>
      </trkpt>
      <trkpt lat="40.359032" lon="-4.820566">
        <ele>1200.39</ele>
        <time>2021-03-27T16:18:19Z</time>
      </trkpt>
      <trkpt lat="40.359254" lon="-4.820254">
        <ele>1197.29</ele>
        <time>2021-03-27T16:18:20Z</time>
      </trkpt>
      <trkpt lat="40.359442" lon="-4.819919">
        <ele>1195.51</ele>
        <time>2021-03-27T16:18:21Z</time>
      </trkpt>
      <trkpt lat="40.359586" lon="-4.81955">
        <ele>1192.58</ele>
        <time>2021-03-27T16:18:22Z</time>
      </trkpt>
      <trkpt lat="40.359818" lon="-4.81844">
        <ele>1180.79</ele>
        <time>2021-03-27T16:18:23Z</time>
      </trkpt>
      <trkpt lat="40.360072" lon="-4.817558">
        <ele>1171.62</ele>
        <time>2021-03-27T16:18:24Z</time>
      </trkpt>
      <trkpt lat="40.360179" lon="-4.817391">
        <ele>1169.36</ele>
        <time>2021-03-27T16:18:26Z</time>
      </trkpt>
      <trkpt lat="40.360245" lon="-4.817328">
        <ele>1168.6</ele>
        <time>2021-03-27T16:18:27Z</time>
      </trkpt>
      <trkpt lat="40.360304" lon="-4.817304">
        <ele>1168.17</ele>
        <time>2021-03-27T16:18:28Z</time>
      </trkpt>
      <trkpt lat="40.36042" lon="-4.817303">
        <ele>1167.3</ele>
        <time>2021-03-27T16:18:29Z</time>
      </trkpt>
      <trkpt lat="40.360638" lon="-4.817451">
        <ele>1168.63</ele>
        <time>2021-03-27T16:18:30Z</time>
      </trkpt>
      <trkpt lat="40.360761" lon="-4.817609">
        <ele>1169.68</ele>
        <time>2021-03-27T16:18:32Z</time>
      </trkpt>
      <trkpt lat="40.360808" lon="-4.817703">
        <ele>1170.82</ele>
        <time>2021-03-27T16:18:33Z</time>
      </trkpt>
      <trkpt lat="40.360869" lon="-4.817884">
        <ele>1171.76</ele>
        <time>2021-03-27T16:18:34Z</time>
      </trkpt>
      <trkpt lat="40.360912" lon="-4.818103">
        <ele>1172.78</ele>
        <time>2021-03-27T16:18:35Z</time>
      </trkpt>
      <trkpt lat="40.36101" lon="-4.818309">
        <ele>1171.32</ele>
        <time>2021-03-27T16:18:36Z</time>
      </trkpt>
      <trkpt lat="40.36113" lon="-4.818427">
        <ele>1169.67</ele>
        <time>2021-03-27T16:18:37Z</time>
      </trkpt>
      <trkpt lat="40.36151" lon="-4.818645">
        <ele>1167.94</ele>
        <time>2021-03-27T16:18:39Z</time>
      </trkpt>
      <trkpt lat="40.36163" lon="-4.818661">
        <ele>1167.23</ele>
        <time>2021-03-27T16:18:40Z</time>
      </trkpt>
      <trkpt lat="40.361732" lon="-4.818612">
        <ele>1165.8</ele>
        <time>2021-03-27T16:18:41Z</time>
      </trkpt>
      <trkpt lat="40.36179" lon="-4.818564">
        <ele>1164.46</ele>
        <time>2021-03-27T16:18:42Z</time>
      </trkpt>
      <trkpt lat="40.361987" lon="-4.818325">
        <ele>1157.97</ele>
        <time>2021-03-27T16:18:43Z</time>
      </trkpt>
      <trkpt lat="40.36208" lon="-4.818242">
        <ele>1156.37</ele>
        <time>2021-03-27T16:18:44Z</time>
      </trkpt>
      <trkpt lat="40.3624" lon="-4.818131">
        <ele>1153.62</ele>
        <time>2021-03-27T16:18:46Z</time>
      </trkpt>
      <trkpt lat="40.362493" lon="-4.818118">
        <ele>1153.03</ele>
        <time>2021-03-27T16:18:47Z</time>
      </trkpt>
      <trkpt lat="40.362634" lon="-4.818136">
        <ele>1152.99</ele>
        <time>2021-03-27T16:18:48Z</time>
      </trkpt>
      <trkpt lat="40.362973" lon="-4.818277">
        <ele>1152.87</ele>
        <time>2021-03-27T16:18:49Z</time>
      </trkpt>
      <trkpt lat="40.363107" lon="-4.818368">
        <ele>1151.77</ele>
        <time>2021-03-27T16:18:50Z</time>
      </trkpt>
      <trkpt lat="40.363738" lon="-4.819183">
        <ele>1148.83</ele>
        <time>2021-03-27T16:18:52Z</time>
      </trkpt>
      <trkpt lat="40.3638" lon="-4.819235">
        <ele>1148.77</ele>
        <time>2021-03-27T16:18:53Z</time>
      </trkpt>
      <trkpt lat="40.363895" lon="-4.81927">
        <ele>1148.11</ele>
        <time>2021-03-27T16:18:54Z</time>
      </trkpt>
      <trkpt lat="40.363947" lon="-4.819268">
        <ele>1148.02</ele>
        <time>2021-03-27T16:18:55Z</time>
      </trkpt>
      <trkpt lat="40.364041" lon="-4.819207">
        <ele>1147.35</ele>
        <time>2021-03-27T16:18:56Z</time>
      </trkpt>
      <trkpt lat="40.364488" lon="-4.8186">
        <ele>1139.38</ele>
        <time>2021-03-27T16:18:57Z</time>
      </trkpt>
      <trkpt lat="40.364709" lon="-4.818354">
        <ele>1134.32</ele>
        <time>2021-03-27T16:18:59Z</time>
      </trkpt>
      <trkpt lat="40.364777" lon="-4.818316">
        <ele>1133.51</ele>
        <time>2021-03-27T16:19:00Z</time>
      </trkpt>
      <trkpt lat="40.364911" lon="-4.8183">
        <ele>1132.56</ele>
        <time>2021-03-27T16:19:01Z</time>
      </trkpt>
      <trkpt lat="40.365032" lon="-4.818365">
        <ele>1131.77</ele>
        <time>2021-03-27T16:19:02Z</time>
      </trkpt>
      <trkpt lat="40.365748" lon="-4.819259">
        <ele>1128.19</ele>
        <time>2021-03-27T16:19:03Z</time>
      </trkpt>
      <trkpt lat="40.365811" lon="-4.819434">
        <ele>1126.78</ele>
        <time>2021-03-27T16:19:05Z</time>
      </trkpt>
      <trkpt lat="40.365857" lon="-4.820063">
        <ele>1128.49</ele>
        <time>2021-03-27T16:19:06Z</time>
      </trkpt>
      <trkpt lat="40.365886" lon="-4.820142">
        <ele>1127.86</ele>
        <time>2021-03-27T16:19:07Z</time>
      </trkpt>
      <trkpt lat="40.365933" lon="-4.820207">
        <ele>1126.84</ele>
        <time>2021-03-27T16:19:08Z</time>
      </trkpt>
      <trkpt lat="40.366044" lon="-4.82027">
        <ele>1124.45</ele>
        <time>2021-03-27T16:19:09Z</time>
      </trkpt>
      <trkpt lat="40.366104" lon="-4.820274">
        <ele>1123.15</ele>
        <time>2021-03-27T16:19:10Z</time>
      </trkpt>
      <trkpt lat="40.366199" lon="-4.820225">
        <ele>1122.56</ele>
        <time>2021-03-27T16:19:12Z</time>
      </trkpt>
      <trkpt lat="40.366287" lon="-4.820104">
        <ele>1121.58</ele>
        <time>2021-03-27T16:19:13Z</time>
      </trkpt>
      <trkpt lat="40.366429" lon="-4.819836">
        <ele>1118.73</ele>
        <time>2021-03-27T16:19:14Z</time>
      </trkpt>
      <trkpt lat="40.36656" lon="-4.819665">
        <ele>1116.97</ele>
        <time>2021-03-27T16:19:15Z</time>
      </trkpt>
      <trkpt lat="40.366925" lon="-4.819321">
        <ele>1114.62</ele>
        <time>2021-03-27T16:19:16Z</time>
      </trkpt>
      <trkpt lat="40.367041" lon="-4.81924">
        <ele>1113.79</ele>
        <time>2021-03-27T16:19:17Z</time>
      </trkpt>
      <trkpt lat="40.3675" lon="-4.819046">
        <ele>1111.26</ele>
        <time>2021-03-27T16:19:19Z</time>
      </trkpt>
      <trkpt lat="40.368022" lon="-4.818865">
        <ele>1105.26</ele>
        <time>2021-03-27T16:19:20Z</time>
      </trkpt>
      <trkpt lat="40.368132" lon="-4.818852">
        <ele>1104.35</ele>
        <time>2021-03-27T16:19:21Z</time>
      </trkpt>
      <trkpt lat="40.368272" lon="-4.818864">
        <ele>1103.42</ele>
        <time>2021-03-27T16:19:22Z</time>
      </trkpt>
      <trkpt lat="40.368452" lon="-4.818939">
        <ele>1102.92</ele>
        <time>2021-03-27T16:19:24Z</time>
      </trkpt>
      <trkpt lat="40.368444" lon="-4.819074">
        <ele>1102.73</ele>
        <time>2021-03-27T16:19:26Z</time>
      </trkpt>
      <trkpt lat="40.36868" lon="-4.820391">
        <ele>1101.12</ele>
        <time>2021-03-27T16:19:28Z</time>
      </trkpt>
      <trkpt lat="40.368751" lon="-4.820681">
        <ele>1101.43</ele>
        <time>2021-03-27T16:19:31Z</time>
      </trkpt>
      <trkpt lat="40.369082" lon="-4.821752">
        <ele>1096.7</ele>
        <time>2021-03-27T16:19:33Z</time>
      </trkpt>
      <trkpt lat="40.369152" lon="-4.8219">
        <ele>1096.15</ele>
        <time>2021-03-27T16:19:35Z</time>
      </trkpt>
      <trkpt lat="40.369382" lon="-4.82229">
        <ele>1095.33</ele>
        <time>2021-03-27T16:19:37Z</time>
      </trkpt>
      <trkpt lat="40.369654" lon="-4.822997">
        <ele>1100.33</ele>
        <time>2021-03-27T16:19:40Z</time>
      </trkpt>
      <trkpt lat="40.370316" lon="-4.823949">
        <ele>1089.01</ele>
        <time>2021-03-27T16:19:42Z</time>
      </trkpt>
      <trkpt lat="40.370389" lon="-4.824168">
        <ele>1086.39</ele>
        <time>2021-03-27T16:19:44Z</time>
      </trkpt>
      <trkpt lat="40.370429" lon="-4.824367">
        <ele>1084.38</ele>
        <time>2021-03-27T16:19:47Z</time>
      </trkpt>
      <trkpt lat="40.370428" lon="-4.824822">
        <ele>1081.06</ele>
        <time>2021-03-27T16:19:49Z</time>
      </trkpt>
      <trkpt lat="40.370406" lon="-4.824999">
        <ele>1079.16</ele>
        <time>2021-03-27T16:19:51Z</time>
      </trkpt>
      <trkpt lat="40.370344" lon="-4.825129">
        <ele>1078.41</ele>
        <time>2021-03-27T16:19:53Z</time>
      </trkpt>
      <trkpt lat="40.370098" lon="-4.825417">
        <ele>1080.08</ele>
        <time>2021-03-27T16:19:56Z</time>
      </trkpt>
      <trkpt lat="40.370069" lon="-4.825523">
        <ele>1080.31</ele>
        <time>2021-03-27T16:19:58Z</time>
      </trkpt>
      <trkpt lat="40.370072" lon="-4.825631">
        <ele>1081.03</ele>
        <time>2021-03-27T16:20:00Z</time>
      </trkpt>
      <trkpt lat="40.370086" lon="-4.82573">
        <ele>1081.96</ele>
        <time>2021-03-27T16:20:03Z</time>
      </trkpt>
      <trkpt lat="40.370154" lon="-4.825895">
        <ele>1083.34</ele>
        <time>2021-03-27T16:20:05Z</time>
      </trkpt>
      <trkpt lat="40.370379" lon="-4.82605">
        <ele>1083.51</ele>
        <time>2021-03-27T16:20:07Z</time>
      </trkpt>
      <trkpt lat="40.370548" lon="-4.82625">
        <ele>1084.12</ele>
        <time>2021-03-27T16:20:10Z</time>
      </trkpt>
      <trkpt lat="40.370626" lon="-4.826445">
        <ele>1084.89</ele>
        <time>2021-03-27T16:20:12Z</time>
      </trkpt>
      <trkpt lat="40.370643" lon="-4.826715">
        <ele>1086.17</ele>
        <time>2021-03-27T16:20:14Z</time>
      </trkpt>
      <trkpt lat="40.370511" lon="-4.827192">
        <ele>1088.05</ele>
        <time>2021-03-27T16:20:16Z</time>
      </trkpt>
      <trkpt lat="40.370595" lon="-4.828108">
        <ele>1089.26</ele>
        <time>2021-03-27T16:20:19Z</time>
      </trkpt>
      <trkpt lat="40.370751" lon="-4.828311">
        <ele>1089.71</ele>
        <time>2021-03-27T16:20:21Z</time>
      </trkpt>
      <trkpt lat="40.370962" lon="-4.828308">
        <ele>1089.74</ele>
        <time>2021-03-27T16:20:23Z</time>
      </trkpt>
      <trkpt lat="40.371255" lon="-4.828083">
        <ele>1090.29</ele>
        <time>2021-03-27T16:20:26Z</time>
      </trkpt>
      <trkpt lat="40.372153" lon="-4.827841">
        <ele>1093.93</ele>
        <time>2021-03-27T16:20:28Z</time>
      </trkpt>
      <trkpt lat="40.372301" lon="-4.827885">
        <ele>1096.02</ele>
        <time>2021-03-27T16:20:30Z</time>
      </trkpt>
      <trkpt lat="40.372383" lon="-4.827953">
        <ele>1097.63</ele>
        <time>2021-03-27T16:20:33Z</time>
      </trkpt>
      <trkpt lat="40.372456" lon="-4.828043">
        <ele>1099.39</ele>
        <time>2021-03-27T16:20:35Z</time>
      </trkpt>
      <trkpt lat="40.372516" lon="-4.828216">
        <ele>1100.52</ele>
        <time>2021-03-27T16:20:37Z</time>
      </trkpt>
      <trkpt lat="40.37252" lon="-4.828298">
        <ele>1100.8</ele>
        <time>2021-03-27T16:20:39Z</time>
      </trkpt>
      <trkpt lat="40.372512" lon="-4.828431">
        <ele>1101.28</ele>
        <time>2021-03-27T16:20:42Z</time>
      </trkpt>
      <trkpt lat="40.372432" lon="-4.828708">
        <ele>1101.66</ele>
        <time>2021-03-27T16:20:44Z</time>
      </trkpt>
      <trkpt lat="40.371895" lon="-4.829527">
        <ele>1103.1</ele>
        <time>2021-03-27T16:20:46Z</time>
      </trkpt>
      <trkpt lat="40.371894" lon="-4.829799">
        <ele>1105.29</ele>
        <time>2021-03-27T16:20:49Z</time>
      </trkpt>
      <trkpt lat="40.372088" lon="-4.830667">
        <ele>1114.16</ele>
        <time>2021-03-27T16:20:51Z</time>
      </trkpt>
      <trkpt lat="40.372292" lon="-4.831173">
        <ele>1114.83</ele>
        <time>2021-03-27T16:20:53Z</time>
      </trkpt>
      <trkpt lat="40.372377" lon="-4.831328">
        <ele>1115.53</ele>
        <time>2021-03-27T16:20:56Z</time>
      </trkpt>
      <trkpt lat="40.372382" lon="-4.83154">
        <ele>1116.78</ele>
        <time>2021-03-27T16:20:58Z</time>
      </trkpt>
      <trkpt lat="40.372286" lon="-4.831728">
        <ele>1118.17</ele>
        <time>2021-03-27T16:21:00Z</time>
      </trkpt>
      <trkpt lat="40.371926" lon="-4.831959">
        <ele>1122.11</ele>
        <time>2021-03-27T16:21:02Z</time>
      </trkpt>
      <trkpt lat="40.371687" lon="-4.832243">
        <ele>1125.08</ele>
        <time>2021-03-27T16:21:05Z</time>
      </trkpt>
      <trkpt lat="40.371308" lon="-4.833568">
        <ele>1136.54</ele>
        <time>2021-03-27T16:21:07Z</time>
      </trkpt>
      <trkpt lat="40.371324" lon="-4.83539">
        <ele>1142.65</ele>
        <time>2021-03-27T16:21:09Z</time>
      </trkpt>
      <trkpt lat="40.371286" lon="-4.836216">
        <ele>1147.51</ele>
        <time>2021-03-27T16:21:12Z</time>
      </trkpt>
      <trkpt lat="40.371197" lon="-4.836643">
        <ele>1148.1</ele>
        <time>2021-03-27T16:21:14Z</time>
      </trkpt>
      <trkpt lat="40.370832" lon="-4.836996">
        <ele>1154.2</ele>
        <time>2021-03-27T16:21:16Z</time>
      </trkpt>
      <trkpt lat="40.370672" lon="-4.83761">
        <ele>1157.26</ele>
        <time>2021-03-27T16:21:19Z</time>
      </trkpt>
      <trkpt lat="40.370348" lon="-4.838266">
        <ele>1162.23</ele>
        <time>2021-03-27T16:21:21Z</time>
      </trkpt>
      <trkpt lat="40.37036" lon="-4.838753">
        <ele>1165.59</ele>
        <time>2021-03-27T16:21:23Z</time>
      </trkpt>
      <trkpt lat="40.370865" lon="-4.84001">
        <ele>1166.07</ele>
        <time>2021-03-27T16:21:25Z</time>
      </trkpt>
      <trkpt lat="40.371037" lon="-4.840225">
        <ele>1167.02</ele>
        <time>2021-03-27T16:21:28Z</time>
      </trkpt>
      <trkpt lat="40.371428" lon="-4.840349">
        <ele>1166.29</ele>
        <time>2021-03-27T16:21:30Z</time>
      </trkpt>
      <trkpt lat="40.371482" lon="-4.840393">
        <ele>1166.56</ele>
        <time>2021-03-27T16:21:32Z</time>
      </trkpt>
      <trkpt lat="40.371557" lon="-4.840527">
        <ele>1167.44</ele>
        <time>2021-03-27T16:21:35Z</time>
      </trkpt>
      <trkpt lat="40.371643" lon="-4.841012">
        <ele>1171.2</ele>
        <time>2021-03-27T16:21:37Z</time>
      </trkpt>
      <trkpt lat="40.37164" lon="-4.841284">
        <ele>1172.53</ele>
        <time>2021-03-27T16:21:39Z</time>
      </trkpt>
      <trkpt lat="40.371609" lon="-4.841414">
        <ele>1172.98</ele>
        <time>2021-03-27T16:21:42Z</time>
      </trkpt>
      <trkpt lat="40.371364" lon="-4.842042">
        <ele>1178.91</ele>
        <time>2021-03-27T16:21:44Z</time>
      </trkpt>
      <trkpt lat="40.371264" lon="-4.843984">
        <ele>1182.56</ele>
        <time>2021-03-27T16:21:46Z</time>
      </trkpt>
      <trkpt lat="40.37117" lon="-4.844726">
        <ele>1189.31</ele>
        <time>2021-03-27T16:21:48Z</time>
      </trkpt>
      <trkpt lat="40.37116" lon="-4.845264">
        <ele>1189.94</ele>
        <time>2021-03-27T16:21:51Z</time>
      </trkpt>
      <trkpt lat="40.371166" lon="-4.845489">
        <ele>1191.33</ele>
        <time>2021-03-27T16:21:53Z</time>
      </trkpt>
      <trkpt lat="40.371274" lon="-4.846289">
        <ele>1196.75</ele>
        <time>2021-03-27T16:21:55Z</time>
      </trkpt>
      <trkpt lat="40.371345" lon="-4.846436">
        <ele>1197.97</ele>
        <time>2021-03-27T16:21:58Z</time>
      </trkpt>
      <trkpt lat="40.371409" lon="-4.846502">
        <ele>1198.27</ele>
        <time>2021-03-27T16:22:00Z</time>
      </trkpt>
      <trkpt lat="40.371553" lon="-4.846603">
        <ele>1196.8</ele>
        <time>2021-03-27T16:22:02Z</time>
      </trkpt>
      <trkpt lat="40.371606" lon="-4.846666">
        <ele>1196.31</ele>
        <time>2021-03-27T16:22:05Z</time>
      </trkpt>
      <trkpt lat="40.371644" lon="-4.846819">
        <ele>1196.54</ele>
        <time>2021-03-27T16:22:07Z</time>
      </trkpt>
      <trkpt lat="40.371632" lon="-4.846936">
        <ele>1197.57</ele>
        <time>2021-03-27T16:22:09Z</time>
      </trkpt>
      <trkpt lat="40.371573" lon="-4.847123">
        <ele>1198.03</ele>
        <time>2021-03-27T16:22:11Z</time>
      </trkpt>
      <trkpt lat="40.371364" lon="-4.847529">
        <ele>1201.37</ele>
        <time>2021-03-27T16:22:14Z</time>
      </trkpt>
      <trkpt lat="40.371321" lon="-4.847697">
        <ele>1202.44</ele>
        <time>2021-03-27T16:22:16Z</time>
      </trkpt>
      <trkpt lat="40.371345" lon="-4.847839">
        <ele>1203.09</ele>
        <time>2021-03-27T16:22:18Z</time>
      </trkpt>
      <trkpt lat="40.371631" lon="-4.848465">
        <ele>1204.34</ele>
        <time>2021-03-27T16:22:21Z</time>
      </trkpt>
      <trkpt lat="40.371687" lon="-4.848614">
        <ele>1204.71</ele>
        <time>2021-03-27T16:22:23Z</time>
      </trkpt>
      <trkpt lat="40.37171" lon="-4.848731">
        <ele>1204.74</ele>
        <time>2021-03-27T16:22:25Z</time>
      </trkpt>
      <trkpt lat="40.371788" lon="-4.84964">
        <ele>1205.48</ele>
        <time>2021-03-27T16:22:28Z</time>
      </trkpt>
      <trkpt lat="40.371763" lon="-4.850577">
        <ele>1208.07</ele>
        <time>2021-03-27T16:22:30Z</time>
      </trkpt>
      <trkpt lat="40.371765" lon="-4.85081">
        <ele>1209.71</ele>
        <time>2021-03-27T16:22:32Z</time>
      </trkpt>
      <trkpt lat="40.371798" lon="-4.851252">
        <ele>1209.87</ele>
        <time>2021-03-27T16:22:34Z</time>
      </trkpt>
      <trkpt lat="40.371791" lon="-4.851369">
        <ele>1210.17</ele>
        <time>2021-03-27T16:22:37Z</time>
      </trkpt>
      <trkpt lat="40.371774" lon="-4.851448">
        <ele>1210.38</ele>
        <time>2021-03-27T16:22:39Z</time>
      </trkpt>
      <trkpt lat="40.371656" lon="-4.851659">
        <ele>1212.25</ele>
        <time>2021-03-27T16:22:41Z</time>
      </trkpt>
      <trkpt lat="40.371584" lon="-4.851866">
        <ele>1214.59</ele>
        <time>2021-03-27T16:22:44Z</time>
      </trkpt>
      <trkpt lat="40.37155" lon="-4.852397">
        <ele>1218.94</ele>
        <time>2021-03-27T16:22:46Z</time>
      </trkpt>
      <trkpt lat="40.37148" lon="-4.85272">
        <ele>1221.82</ele>
        <time>2021-03-27T16:22:48Z</time>
      </trkpt>
      <trkpt lat="40.371037" lon="-4.853557">
        <ele>1222.19</ele>
        <time>2021-03-27T16:22:51Z</time>
      </trkpt>
      <trkpt lat="40.370889" lon="-4.853778">
        <ele>1223.28</ele>
        <time>2021-03-27T16:22:53Z</time>
      </trkpt>
      <trkpt lat="40.370665" lon="-4.854038">
        <ele>1225.81</ele>
        <time>2021-03-27T16:22:55Z</time>
      </trkpt>
      <trkpt lat="40.370562" lon="-4.854266">
        <ele>1226.22</ele>
        <time>2021-03-27T16:22:57Z</time>
      </trkpt>
      <trkpt lat="40.370275" lon="-4.855442">
        <ele>1230.45</ele>
        <time>2021-03-27T16:23:00Z</time>
      </trkpt>
      <trkpt lat="40.370216" lon="-4.855712">
        <ele>1229.98</ele>
        <time>2021-03-27T16:23:02Z</time>
      </trkpt>
      <trkpt lat="40.370167" lon="-4.856069">
        <ele>1229.65</ele>
        <time>2021-03-27T16:23:04Z</time>
      </trkpt>
      <trkpt lat="40.370094" lon="-4.856282">
        <ele>1230.85</ele>
        <time>2021-03-27T16:23:07Z</time>
      </trkpt>
      <trkpt lat="40.370031" lon="-4.856365">
        <ele>1231.65</ele>
        <time>2021-03-27T16:23:09Z</time>
      </trkpt>
      <trkpt lat="40.369613" lon="-4.856767">
        <ele>1233.83</ele>
        <time>2021-03-27T16:23:11Z</time>
      </trkpt>
      <trkpt lat="40.368845" lon="-4.85747">
        <ele>1230.13</ele>
        <time>2021-03-27T16:23:14Z</time>
      </trkpt>
      <trkpt lat="40.368566" lon="-4.858102">
        <ele>1226.64</ele>
        <time>2021-03-27T16:23:16Z</time>
      </trkpt>
      <trkpt lat="40.367349" lon="-4.85848">
        <ele>1220.14</ele>
        <time>2021-03-27T16:23:18Z</time>
      </trkpt>
      <trkpt lat="40.367099" lon="-4.858795">
        <ele>1218.78</ele>
        <time>2021-03-27T16:23:20Z</time>
      </trkpt>
      <trkpt lat="40.366749" lon="-4.859365">
        <ele>1215.99</ele>
        <time>2021-03-27T16:23:23Z</time>
      </trkpt>
      <trkpt lat="40.366668" lon="-4.859669">
        <ele>1217.61</ele>
        <time>2021-03-27T16:23:25Z</time>
      </trkpt>
      <trkpt lat="40.367388" lon="-4.860499">
        <ele>1218.56</ele>
        <time>2021-03-27T16:23:27Z</time>
      </trkpt>
      <trkpt lat="40.367509" lon="-4.860781">
        <ele>1219.52</ele>
        <time>2021-03-27T16:23:30Z</time>
      </trkpt>
      <trkpt lat="40.367877" lon="-4.861978">
        <ele>1209.72</ele>
        <time>2021-03-27T16:23:32Z</time>
      </trkpt>
      <trkpt lat="40.367881" lon="-4.862115">
        <ele>1209.14</ele>
        <time>2021-03-27T16:23:34Z</time>
      </trkpt>
      <trkpt lat="40.367862" lon="-4.862244">
        <ele>1208.99</ele>
        <time>2021-03-27T16:23:36Z</time>
      </trkpt>
      <trkpt lat="40.367652" lon="-4.862738">
        <ele>1211.82</ele>
        <time>2021-03-27T16:23:39Z</time>
      </trkpt>
      <trkpt lat="40.367563" lon="-4.863348">
        <ele>1209.38</ele>
        <time>2021-03-27T16:23:41Z</time>
      </trkpt>
      <trkpt lat="40.367334" lon="-4.864141">
        <ele>1208.81</ele>
        <time>2021-03-27T16:23:43Z</time>
      </trkpt>
      <trkpt lat="40.367272" lon="-4.864449">
        <ele>1208.84</ele>
        <time>2021-03-27T16:23:46Z</time>
      </trkpt>
      <trkpt lat="40.367179" lon="-4.8648">
        <ele>1212.26</ele>
        <time>2021-03-27T16:23:48Z</time>
      </trkpt>
      <trkpt lat="40.366876" lon="-4.865491">
        <ele>1218.36</ele>
        <time>2021-03-27T16:23:50Z</time>
      </trkpt>
      <trkpt lat="40.366941" lon="-4.865785">
        <ele>1218.75</ele>
        <time>2021-03-27T16:23:53Z</time>
      </trkpt>
      <trkpt lat="40.367163" lon="-4.865962">
        <ele>1213.7</ele>
        <time>2021-03-27T16:23:55Z</time>
      </trkpt>
      <trkpt lat="40.367249" lon="-4.866149">
        <ele>1211.1</ele>
        <time>2021-03-27T16:23:57Z</time>
      </trkpt>
      <trkpt lat="40.367149" lon="-4.866606">
        <ele>1213.9</ele>
        <time>2021-03-27T16:23:59Z</time>
      </trkpt>
      <trkpt lat="40.367096" lon="-4.866942">
        <ele>1218.06</ele>
        <time>2021-03-27T16:24:02Z</time>
      </trkpt>
      <trkpt lat="40.367025" lon="-4.867577">
        <ele>1222.46</ele>
        <time>2021-03-27T16:24:04Z</time>
      </trkpt>
      <trkpt lat="40.367135" lon="-4.867971">
        <ele>1222.65</ele>
        <time>2021-03-27T16:24:06Z</time>
      </trkpt>
      <trkpt lat="40.367376" lon="-4.868089">
        <ele>1221.44</ele>
        <time>2021-03-27T16:24:09Z</time>
      </trkpt>
      <trkpt lat="40.36796" lon="-4.868194">
        <ele>1217.54</ele>
        <time>2021-03-27T16:24:11Z</time>
      </trkpt>
      <trkpt lat="40.368127" lon="-4.868264">
        <ele>1215.76</ele>
        <time>2021-03-27T16:24:13Z</time>
      </trkpt>
      <trkpt lat="40.368266" lon="-4.868476">
        <ele>1215.99</ele>
        <time>2021-03-27T16:24:16Z</time>
      </trkpt>
      <trkpt lat="40.368739" lon="-4.870079">
        <ele>1216.88</ele>
        <time>2021-03-27T16:24:18Z</time>
      </trkpt>
      <trkpt lat="40.368794" lon="-4.870484">
        <ele>1220.07</ele>
        <time>2021-03-27T16:24:20Z</time>
      </trkpt>
      <trkpt lat="40.368799" lon="-4.871317">
        <ele>1222.28</ele>
        <time>2021-03-27T16:24:22Z</time>
      </trkpt>
      <trkpt lat="40.368506" lon="-4.872783">
        <ele>1227.87</ele>
        <time>2021-03-27T16:24:25Z</time>
      </trkpt>
      <trkpt lat="40.368588" lon="-4.873183">
        <ele>1226.75</ele>
        <time>2021-03-27T16:24:27Z</time>
      </trkpt>
      <trkpt lat="40.368991" lon="-4.874055">
        <ele>1225.98</ele>
        <time>2021-03-27T16:24:29Z</time>
      </trkpt>
      <trkpt lat="40.369775" lon="-4.87499">
        <ele>1220.24</ele>
        <time>2021-03-27T16:24:32Z</time>
      </trkpt>
      <trkpt lat="40.369818" lon="-4.875239">
        <ele>1219.89</ele>
        <time>2021-03-27T16:24:34Z</time>
      </trkpt>
      <trkpt lat="40.369757" lon="-4.875437">
        <ele>1220.66</ele>
        <time>2021-03-27T16:24:36Z</time>
      </trkpt>
      <trkpt lat="40.369577" lon="-4.87574">
        <ele>1221.97</ele>
        <time>2021-03-27T16:24:39Z</time>
      </trkpt>
      <trkpt lat="40.369613" lon="-4.876021">
        <ele>1219.94</ele>
        <time>2021-03-27T16:24:41Z</time>
      </trkpt>
      <trkpt lat="40.369958" lon="-4.876881">
        <ele>1209.79</ele>
        <time>2021-03-27T16:24:43Z</time>
      </trkpt>
      <trkpt lat="40.370216" lon="-4.877339">
        <ele>1205.76</ele>
        <time>2021-03-27T16:24:45Z</time>
      </trkpt>
      <trkpt lat="40.370446" lon="-4.878305">
        <ele>1203.72</ele>
        <time>2021-03-27T16:24:48Z</time>
      </trkpt>
      <trkpt lat="40.371164" lon="-4.879423">
        <ele>1202.22</ele>
        <time>2021-03-27T16:24:50Z</time>
      </trkpt>
      <trkpt lat="40.371416" lon="-4.879976">
        <ele>1200.8</ele>
        <time>2021-03-27T16:24:52Z</time>
      </trkpt>
      <trkpt lat="40.371666" lon="-4.881043">
        <ele>1203.0</ele>
        <time>2021-03-27T16:24:55Z</time>
      </trkpt>
      <trkpt lat="40.371674" lon="-4.881362">
        <ele>1202.04</ele>
        <time>2021-03-27T16:24:57Z</time>
      </trkpt>
      <trkpt lat="40.371446" lon="-4.882438">
        <ele>1200.78</ele>
        <time>2021-03-27T16:24:59Z</time>
      </trkpt>
      <trkpt lat="40.37136" lon="-4.882614">
        <ele>1198.77</ele>
        <time>2021-03-27T16:25:02Z</time>
      </trkpt>
      <trkpt lat="40.371239" lon="-4.88272">
        <ele>1197.62</ele>
        <time>2021-03-27T16:25:04Z</time>
      </trkpt>
      <trkpt lat="40.370789" lon="-4.883025">
        <ele>1195.11</ele>
        <time>2021-03-27T16:25:06Z</time>
      </trkpt>
      <trkpt lat="40.370702" lon="-4.883147">
        <ele>1193.39</ele>
        <time>2021-03-27T16:25:09Z</time>
      </trkpt>
      <trkpt lat="40.370595" lon="-4.883148">
        <ele>1192.86</ele>
        <time>2021-03-27T16:25:10Z</time>
      </trkpt>
      <trkpt lat="40.370397" lon="-4.883218">
        <ele>1191.56</ele>
        <time>2021-03-27T16:25:11Z</time>
      </trkpt>
      <trkpt lat="40.369074" lon="-4.884186">
        <ele>1182.88</ele>
        <time>2021-03-27T16:25:13Z</time>
      </trkpt>
      <trkpt lat="40.368841" lon="-4.884425">
        <ele>1184.41</ele>
        <time>2021-03-27T16:25:14Z</time>
      </trkpt>
      <trkpt lat="40.368687" lon="-4.884647">
        <ele>1183.8</ele>
        <time>2021-03-27T16:25:15Z</time>
      </trkpt>
      <trkpt lat="40.368355" lon="-4.885262">
        <ele>1181.04</ele>
        <time>2021-03-27T16:25:17Z</time>
      </trkpt>
      <trkpt lat="40.36759" lon="-4.887432">
        <ele>1178.17</ele>
        <time>2021-03-27T16:25:18Z</time>
      </trkpt>
      <trkpt lat="40.367452" lon="-4.887731">
        <ele>1177.71</ele>
        <time>2021-03-27T16:25:19Z</time>
      </trkpt>
      <trkpt lat="40.36735" lon="-4.887879">
        <ele>1176.72</ele>
        <time>2021-03-27T16:25:21Z</time>
      </trkpt>
      <trkpt lat="40.367234" lon="-4.888004">
        <ele>1175.31</ele>
        <time>2021-03-27T16:25:22Z</time>
      </trkpt>
      <trkpt lat="40.366963" lon="-4.888199">
        <ele>1172.62</ele>
        <time>2021-03-27T16:25:23Z</time>
      </trkpt>
      <trkpt lat="40.36615" lon="-4.888717">
        <ele>1168.09</ele>
        <time>2021-03-27T16:25:25Z</time>
      </trkpt>
      <trkpt lat="40.36579" lon="-4.88902">
        <ele>1166.97</ele>
        <time>2021-03-27T16:25:26Z</time>
      </trkpt>
      <trkpt lat="40.365531" lon="-4.889297">
        <ele>1165.98</ele>
        <time>2021-03-27T16:25:27Z</time>
      </trkpt>
      <trkpt lat="40.36541" lon="-4.889493">
        <ele>1166.19</ele>
        <time>2021-03-27T16:25:29Z</time>
      </trkpt>
      <trkpt lat="40.365294" lon="-4.889783">
        <ele>1165.55</ele>
        <time>2021-03-27T16:25:30Z</time>
      </trkpt>
      <trkpt lat="40.365146" lon="-4.890238">
        <ele>1163.83</ele>
        <time>2021-03-27T16:25:31Z</time>
      </trkpt>
      <trkpt lat="40.365011" lon="-4.890527">
        <ele>1161.3</ele>
        <time>2021-03-27T16:25:33Z</time>
      </trkpt>
      <trkpt lat="40.364931" lon="-4.890637">
        <ele>1160.66</ele>
        <time>2021-03-27T16:25:34Z</time>
      </trkpt>
      <trkpt lat="40.364826" lon="-4.890753">
        <ele>1160.2</ele>
        <time>2021-03-27T16:25:35Z</time>
      </trkpt>
      <trkpt lat="40.363946" lon="-4.891382">
        <ele>1153.53</ele>
        <time>2021-03-27T16:25:37Z</time>
      </trkpt>
      <trkpt lat="40.363869" lon="-4.891474">
        <ele>1153.25</ele>
        <time>2021-03-27T16:25:38Z</time>
      </trkpt>
      <trkpt lat="40.363817" lon="-4.8916">
        <ele>1152.92</ele>
        <time>2021-03-27T16:25:39Z</time>
      </trkpt>
      <trkpt lat="40.363701" lon="-4.892064">
        <ele>1150.67</ele>
        <time>2021-03-27T16:25:41Z</time>
      </trkpt>
      <trkpt lat="40.363604" lon="-4.892235">
        <ele>1150.01</ele>
        <time>2021-03-27T16:25:42Z</time>
      </trkpt>
      <trkpt lat="40.363033" lon="-4.892723">
        <ele>1147.89</ele>
        <time>2021-03-27T16:25:43Z</time>
      </trkpt>
      <trkpt lat="40.362531" lon="-4.893109">
        <ele>1142.42</ele>
        <time>2021-03-27T16:25:45Z</time>
      </trkpt>
      <trkpt lat="40.362351" lon="-4.893319">
        <ele>1140.12</ele>
        <time>2021-03-27T16:25:46Z</time>
      </trkpt>
      <trkpt lat="40.362269" lon="-4.893468">
        <ele>1141.13</ele>
        <time>2021-03-27T16:25:47Z</time>
      </trkpt>
      <trkpt lat="40.362191" lon="-4.893739">
        <ele>1143.25</ele>
        <time>2021-03-27T16:25:49Z</time>
      </trkpt>
      <trkpt lat="40.362193" lon="-4.894516">
        <ele>1137.0</ele>
        <time>2021-03-27T16:25:50Z</time>
      </trkpt>
      <trkpt lat="40.362165" lon="-4.894707">
        <ele>1135.28</ele>
        <time>2021-03-27T16:25:51Z</time>
      </trkpt>
      <trkpt lat="40.362116" lon="-4.894862">
        <ele>1134.8</ele>
        <time>2021-03-27T16:25:53Z</time>
      </trkpt>
      <trkpt lat="40.362063" lon="-4.894976">
        <ele>1135.06</ele>
        <time>2021-03-27T16:25:54Z</time>
      </trkpt>
      <trkpt lat="40.361819" lon="-4.895361">
        <ele>1137.87</ele>
        <time>2021-03-27T16:25:55Z</time>
      </trkpt>
      <trkpt lat="40.361644" lon="-4.895575">
        <ele>1139.92</ele>
        <time>2021-03-27T16:25:57Z</time>
      </trkpt>
      <trkpt lat="40.361395" lon="-4.895816">
        <ele>1140.15</ele>
        <time>2021-03-27T16:25:58Z</time>
      </trkpt>
      <trkpt lat="40.361182" lon="-4.895978">
        <ele>1140.21</ele>
        <time>2021-03-27T16:25:59Z</time>
      </trkpt>
      <trkpt lat="40.360823" lon="-4.896224">
        <ele>1140.22</ele>
        <time>2021-03-27T16:26:01Z</time>
      </trkpt>
      <trkpt lat="40.360532" lon="-4.896361">
        <ele>1138.95</ele>
        <time>2021-03-27T16:26:02Z</time>
      </trkpt>
      <trkpt lat="40.359348" lon="-4.896675">
        <ele>1137.5</ele>
        <time>2021-03-27T16:26:03Z</time>
      </trkpt>
      <trkpt lat="40.359188" lon="-4.896689">
        <ele>1138.36</ele>
        <time>2021-03-27T16:26:05Z</time>
      </trkpt>
      <trkpt lat="40.359021" lon="-4.896679">
        <ele>1139.24</ele>
        <time>2021-03-27T16:26:06Z</time>
      </trkpt>
      <trkpt lat="40.356547" lon="-4.896324">
        <ele>1157.27</ele>
        <time>2021-03-27T16:26:07Z</time>
      </trkpt>
      <trkpt lat="40.35632" lon="-4.896372">
        <ele>1157.24</ele>
        <time>2021-03-27T16:26:09Z</time>
      </trkpt>
      <trkpt lat="40.356197" lon="-4.896428">
        <ele>1157.47</ele>
        <time>2021-03-27T16:26:10Z</time>
      </trkpt>
      <trkpt lat="40.355759" lon="-4.896672">
        <ele>1160.56</ele>
        <time>2021-03-27T16:26:11Z</time>
      </trkpt>
      <trkpt lat="40.35556" lon="-4.896835">
        <ele>1161.9</ele>
        <time>2021-03-27T16:26:13Z</time>
      </trkpt>
      <trkpt lat="40.355465" lon="-4.896951">
        <ele>1161.84</ele>
        <time>2021-03-27T16:26:14Z</time>
      </trkpt>
      <trkpt lat="40.355089" lon="-4.897534">
        <ele>1161.62</ele>
        <time>2021-03-27T16:26:15Z</time>
      </trkpt>
      <trkpt lat="40.354864" lon="-4.89778">
        <ele>1164.86</ele>
        <time>2021-03-27T16:26:17Z</time>
      </trkpt>
      <trkpt lat="40.354553" lon="-4.897995">
        <ele>1165.5</ele>
        <time>2021-03-27T16:26:18Z</time>
      </trkpt>
      <trkpt lat="40.353876" lon="-4.898419">
        <ele>1168.9</ele>
        <time>2021-03-27T16:26:19Z</time>
      </trkpt>
      <trkpt lat="40.353643" lon="-4.898586">
        <ele>1170.8</ele>
        <time>2021-03-27T16:26:21Z</time>
      </trkpt>
      <trkpt lat="40.35342" lon="-4.898782">
        <ele>1170.98</ele>
        <time>2021-03-27T16:26:22Z</time>
      </trkpt>
      <trkpt lat="40.352456" lon="-4.899749">
        <ele>1171.78</ele>
        <time>2021-03-27T16:26:23Z</time>
      </trkpt>
      <trkpt lat="40.352304" lon="-4.899882">
        <ele>1173.35</ele>
        <time>2021-03-27T16:26:25Z</time>
      </trkpt>
      <trkpt lat="40.35048" lon="-4.90132">
        <ele>1178.58</ele>
        <time>2021-03-27T16:26:26Z</time>
      </trkpt>
      <trkpt lat="40.350139" lon="-4.901534">
        <ele>1179.32</ele>
        <time>2021-03-27T16:26:27Z</time>
      </trkpt>
      <trkpt lat="40.349992" lon="-4.901591">
        <ele>1180.48</ele>
        <time>2021-03-27T16:26:29Z</time>
      </trkpt>
      <trkpt lat="40.349638" lon="-4.901636">
        <ele>1181.06</ele>
        <time>2021-03-27T16:26:30Z</time>
      </trkpt>
      <trkpt lat="40.349297" lon="-4.901596">
        <ele>1182.81</ele>
        <time>2021-03-27T16:26:31Z</time>
      </trkpt>
      <trkpt lat="40.348294" lon="-4.901219">
        <ele>1185.29</ele>
        <time>2021-03-27T16:26:33Z</time>
      </trkpt>
      <trkpt lat="40.348176" lon="-4.901184">
        <ele>1186.17</ele>
        <time>2021-03-27T16:26:34Z</time>
      </trkpt>
      <trkpt lat="40.34806" lon="-4.901178">
        <ele>1186.33</ele>
        <time>2021-03-27T16:26:35Z</time>
      </trkpt>
      <trkpt lat="40.347953" lon="-4.901192">
        <ele>1187.07</ele>
        <time>2021-03-27T16:26:37Z</time>
      </trkpt>
      <trkpt lat="40.347741" lon="-4.901294">
        <ele>1186.98</ele>
        <time>2021-03-27T16:26:38Z</time>
      </trkpt>
      <trkpt lat="40.347357" lon="-4.901618">
        <ele>1185.19</ele>
        <time>2021-03-27T16:26:39Z</time>
      </trkpt>
      <trkpt lat="40.347152" lon="-4.901736">
        <ele>1184.36</ele>
        <time>2021-03-27T16:26:41Z</time>
      </trkpt>
      <trkpt lat="40.346878" lon="-4.901776">
        <ele>1183.52</ele>
        <time>2021-03-27T16:26:42Z</time>
      </trkpt>
      <trkpt lat="40.346706" lon="-4.901762">
        <ele>1184.18</ele>
        <time>2021-03-27T16:26:43Z</time>
      </trkpt>
      <trkpt lat="40.345962" lon="-4.901573">
        <ele>1180.03</ele>
        <time>2021-03-27T16:26:45Z</time>
      </trkpt>
      <trkpt lat="40.345779" lon="-4.901399">
        <ele>1181.19</ele>
        <time>2021-03-27T16:26:46Z</time>
      </trkpt>
      <trkpt lat="40.345564" lon="-4.901119">
        <ele>1184.92</ele>
        <time>2021-03-27T16:26:47Z</time>
      </trkpt>
      <trkpt lat="40.345414" lon="-4.900999">
        <ele>1187.5</ele>
        <time>2021-03-27T16:26:49Z</time>
      </trkpt>
      <trkpt lat="40.345307" lon="-4.900965">
        <ele>1187.83</ele>
        <time>2021-03-27T16:26:50Z</time>
      </trkpt>
      <trkpt lat="40.345097" lon="-4.900953">
        <ele>1186.13</ele>
        <time>2021-03-27T16:26:51Z</time>
      </trkpt>
      <trkpt lat="40.344575" lon="-4.900985">
        <ele>1180.69</ele>
        <time>2021-03-27T16:26:53Z</time>
      </trkpt>
      <trkpt lat="40.344424" lon="-4.901067">
        <ele>1178.78</ele>
        <time>2021-03-27T16:26:54Z</time>
      </trkpt>
      <trkpt lat="40.344364" lon="-4.901137">
        <ele>1177.8</ele>
        <time>2021-03-27T16:26:55Z</time>
      </trkpt>
      <trkpt lat="40.344202" lon="-4.90142">
        <ele>1179.27</ele>
        <time>2021-03-27T16:26:57Z</time>
      </trkpt>
      <trkpt lat="40.344173" lon="-4.901514">
        <ele>1179.71</ele>
        <time>2021-03-27T16:26:58Z</time>
      </trkpt>
      <trkpt lat="40.344178" lon="-4.901684">
        <ele>1182.07</ele>
        <time>2021-03-27T16:27:00Z</time>
      </trkpt>
      <trkpt lat="40.344543" lon="-4.902601">
        <ele>1182.3</ele>
        <time>2021-03-27T16:27:01Z</time>
      </trkpt>
      <trkpt lat="40.344611" lon="-4.90295">
        <ele>1182.45</ele>
        <time>2021-03-27T16:27:02Z</time>
      </trkpt>
      <trkpt lat="40.344652" lon="-4.903455">
        <ele>1183.45</ele>
        <time>2021-03-27T16:27:04Z</time>
      </trkpt>
      <trkpt lat="40.344657" lon="-4.903694">
        <ele>1183.97</ele>
        <time>2021-03-27T16:27:05Z</time>
      </trkpt>
      <trkpt lat="40.34464" lon="-4.903831">
        <ele>1184.46</ele>
        <time>2021-03-27T16:27:06Z</time>
      </trkpt>
      <trkpt lat="40.344577" lon="-4.903988">
        <ele>1184.36</ele>
        <time>2021-03-27T16:27:08Z</time>
      </trkpt>
      <trkpt lat="40.344473" lon="-4.904122">
        <ele>1184.22</ele>
        <time>2021-03-27T16:27:09Z</time>
      </trkpt>
      <trkpt lat="40.343174" lon="-4.904962">
        <ele>1193.79</ele>
        <time>2021-03-27T16:27:10Z</time>
      </trkpt>
      <trkpt lat="40.342065" lon="-4.905512">
        <ele>1196.27</ele>
        <time>2021-03-27T16:27:12Z</time>
      </trkpt>
      <trkpt lat="40.341841" lon="-4.905697">
        <ele>1194.52</ele>
        <time>2021-03-27T16:27:13Z</time>
      </trkpt>
      <trkpt lat="40.341705" lon="-4.905837">
        <ele>1193.79</ele>
        <time>2021-03-27T16:27:14Z</time>
      </trkpt>
      <trkpt lat="40.34138" lon="-4.906267">
        <ele>1194.54</ele>
        <time>2021-03-27T16:27:16Z</time>
      </trkpt>
      <trkpt lat="40.341178" lon="-4.906458">
        <ele>1196.03</ele>
        <time>2021-03-27T16:27:17Z</time>
      </trkpt>
      <trkpt lat="40.34105" lon="-4.906539">
        <ele>1196.66</ele>
        <time>2021-03-27T16:27:18Z</time>
      </trkpt>
      <trkpt lat="40.340256" lon="-4.906853">
        <ele>1199.43</ele>
        <time>2021-03-27T16:27:20Z</time>
      </trkpt>
      <trkpt lat="40.339678" lon="-4.907037">
        <ele>1201.7</ele>
        <time>2021-03-27T16:27:21Z</time>
      </trkpt>
      <trkpt lat="40.337738" lon="-4.907455">
        <ele>1206.3</ele>
        <time>2021-03-27T16:27:22Z</time>
      </trkpt>
      <trkpt lat="40.337531" lon="-4.907576">
        <ele>1205.37</ele>
        <time>2021-03-27T16:27:24Z</time>
      </trkpt>
      <trkpt lat="40.336972" lon="-4.908086">
        <ele>1207.27</ele>
        <time>2021-03-27T16:27:25Z</time>
      </trkpt>
      <trkpt lat="40.336169" lon="-4.908505">
        <ele>1208.69</ele>
        <time>2021-03-27T16:27:26Z</time>
      </trkpt>
      <trkpt lat="40.334913" lon="-4.90912">
        <ele>1212.75</ele>
        <time>2021-03-27T16:27:28Z</time>
      </trkpt>
      <trkpt lat="40.334681" lon="-4.909251">
        <ele>1215.14</ele>
        <time>2021-03-27T16:27:29Z</time>
      </trkpt>
      <trkpt lat="40.334523" lon="-4.909407">
        <ele>1216.28</ele>
        <time>2021-03-27T16:27:30Z</time>
      </trkpt>
      <trkpt lat="40.33443" lon="-4.909585">
        <ele>1216.17</ele>
        <time>2021-03-27T16:27:32Z</time>
      </trkpt>
      <trkpt lat="40.334064" lon="-4.910553">
        <ele>1217.59</ele>
        <time>2021-03-27T16:27:33Z</time>
      </trkpt>
      <trkpt lat="40.33389" lon="-4.911062">
        <ele>1221.98</ele>
        <time>2021-03-27T16:27:34Z</time>
      </trkpt>
      <trkpt lat="40.333865" lon="-4.911235">
        <ele>1222.56</ele>
        <time>2021-03-27T16:27:36Z</time>
      </trkpt>
      <trkpt lat="40.333892" lon="-4.911406">
        <ele>1221.81</ele>
        <time>2021-03-27T16:27:37Z</time>
      </trkpt>
      <trkpt lat="40.333971" lon="-4.911608">
        <ele>1219.34</ele>
        <time>2021-03-27T16:27:38Z</time>
      </trkpt>
      <trkpt lat="40.33439" lon="-4.912491">
        <ele>1222.32</ele>
        <time>2021-03-27T16:27:40Z</time>
      </trkpt>
      <trkpt lat="40.33444" lon="-4.912645">
        <ele>1224.51</ele>
        <time>2021-03-27T16:27:41Z</time>
      </trkpt>
      <trkpt lat="40.334442" lon="-4.912813">
        <ele>1226.86</ele>
        <time>2021-03-27T16:27:42Z</time>
      </trkpt>
      <trkpt lat="40.334421" lon="-4.912946">
        <ele>1229.82</ele>
        <time>2021-03-27T16:27:44Z</time>
      </trkpt>
      <trkpt lat="40.334396" lon="-4.913035">
        <ele>1231.46</ele>
        <time>2021-03-27T16:27:45Z</time>
      </trkpt>
      <trkpt lat="40.334305" lon="-4.913193">
        <ele>1234.19</ele>
        <time>2021-03-27T16:27:46Z</time>
      </trkpt>
      <trkpt lat="40.334062" lon="-4.913497">
        <ele>1235.47</ele>
        <time>2021-03-27T16:27:48Z</time>
      </trkpt>
      <trkpt lat="40.333935" lon="-4.913738">
        <ele>1236.59</ele>
        <time>2021-03-27T16:27:49Z</time>
      </trkpt>
      <trkpt lat="40.333777" lon="-4.914156">
        <ele>1241.21</ele>
        <time>2021-03-27T16:27:50Z</time>
      </trkpt>
      <trkpt lat="40.333711" lon="-4.914283">
        <ele>1241.43</ele>
        <time>2021-03-27T16:27:52Z</time>
      </trkpt>
      <trkpt lat="40.333373" lon="-4.914805">
        <ele>1241.49</ele>
        <time>2021-03-27T16:27:53Z</time>
      </trkpt>
      <trkpt lat="40.333225" lon="-4.915091">
        <ele>1240.64</ele>
        <time>2021-03-27T16:27:54Z</time>
      </trkpt>
      <trkpt lat="40.333034" lon="-4.915587">
        <ele>1248.35</ele>
        <time>2021-03-27T16:27:56Z</time>
      </trkpt>
      <trkpt lat="40.332955" lon="-4.915725">
        <ele>1250.11</ele>
        <time>2021-03-27T16:27:57Z</time>
      </trkpt>
      <trkpt lat="40.332631" lon="-4.916187">
        <ele>1254.55</ele>
        <time>2021-03-27T16:27:58Z</time>
      </trkpt>
      <trkpt lat="40.332422" lon="-4.916403">
        <ele>1254.42</ele>
        <time>2021-03-27T16:28:00Z</time>
      </trkpt>
      <trkpt lat="40.331599" lon="-4.916977">
        <ele>1255.54</ele>
        <time>2021-03-27T16:28:01Z</time>
      </trkpt>
      <trkpt lat="40.331502" lon="-4.917023">
        <ele>1257.3</ele>
        <time>2021-03-27T16:28:02Z</time>
      </trkpt>
      <trkpt lat="40.331212" lon="-4.917076">
        <ele>1259.49</ele>
        <time>2021-03-27T16:28:04Z</time>
      </trkpt>
      <trkpt lat="40.329982" lon="-4.917174">
        <ele>1264.14</ele>
        <time>2021-03-27T16:28:05Z</time>
      </trkpt>
      <trkpt lat="40.329783" lon="-4.917233">
        <ele>1265.4</ele>
        <time>2021-03-27T16:28:06Z</time>
      </trkpt>
      <trkpt lat="40.329708" lon="-4.917283">
        <ele>1267.34</ele>
        <time>2021-03-27T16:28:08Z</time>
      </trkpt>
      <trkpt lat="40.329475" lon="-4.917528">
        <ele>1271.55</ele>
        <time>2021-03-27T16:28:09Z</time>
      </trkpt>
      <trkpt lat="40.328504" lon="-4.918703">
        <ele>1278.46</ele>
        <time>2021-03-27T16:28:10Z</time>
      </trkpt>
      <trkpt lat="40.328069" lon="-4.91906">
        <ele>1278.37</ele>
        <time>2021-03-27T16:28:12Z</time>
      </trkpt>
      <trkpt lat="40.32804" lon="-4.919105">
        <ele>1278.77</ele>
        <time>2021-03-27T16:28:13Z</time>
      </trkpt>
      <trkpt lat="40.328028" lon="-4.919165">
        <ele>1279.68</ele>
        <time>2021-03-27T16:28:14Z</time>
      </trkpt>
      <trkpt lat="40.328041" lon="-4.919253">
        <ele>1282.28</ele>
        <time>2021-03-27T16:28:16Z</time>
      </trkpt>
      <trkpt lat="40.328068" lon="-4.919305">
        <ele>1284.34</ele>
        <time>2021-03-27T16:28:17Z</time>
      </trkpt>
      <trkpt lat="40.328115" lon="-4.919326">
        <ele>1286.34</ele>
        <time>2021-03-27T16:28:18Z</time>
      </trkpt>
      <trkpt lat="40.328227" lon="-4.91929">
        <ele>1288.42</ele>
        <time>2021-03-27T16:28:20Z</time>
      </trkpt>
      <trkpt lat="40.328816" lon="-4.918722">
        <ele>1287.41</ele>
        <time>2021-03-27T16:28:21Z</time>
      </trkpt>
      <trkpt lat="40.328971" lon="-4.918583">
        <ele>1286.81</ele>
        <time>2021-03-27T16:28:22Z</time>
      </trkpt>
      <trkpt lat="40.329107" lon="-4.918499">
        <ele>1286.99</ele>
        <time>2021-03-27T16:28:24Z</time>
      </trkpt>
      <trkpt lat="40.329877" lon="-4.918219">
        <ele>1295.18</ele>
        <time>2021-03-27T16:28:25Z</time>
      </trkpt>
      <trkpt lat="40.330025" lon="-4.918211">
        <ele>1295.68</ele>
        <time>2021-03-27T16:28:26Z</time>
      </trkpt>
      <trkpt lat="40.330461" lon="-4.918387">
        <ele>1302.51</ele>
        <time>2021-03-27T16:28:28Z</time>
      </trkpt>
      <trkpt lat="40.33055" lon="-4.918445">
        <ele>1302.88</ele>
        <time>2021-03-27T16:28:29Z</time>
      </trkpt>
      <trkpt lat="40.330644" lon="-4.918543">
        <ele>1302.55</ele>
        <time>2021-03-27T16:28:30Z</time>
      </trkpt>
      <trkpt lat="40.331069" lon="-4.91911">
        <ele>1306.1</ele>
        <time>2021-03-27T16:28:32Z</time>
      </trkpt>
      <trkpt lat="40.331541" lon="-4.919561">
        <ele>1318.65</ele>
        <time>2021-03-27T16:28:33Z</time>
      </trkpt>
      <trkpt lat="40.331663" lon="-4.919582">
        <ele>1318.96</ele>
        <time>2021-03-27T16:28:34Z</time>
      </trkpt>
      <trkpt lat="40.331723" lon="-4.919554">
        <ele>1319.09</ele>
        <time>2021-03-27T16:28:36Z</time>
      </trkpt>
      <trkpt lat="40.331774" lon="-4.919502">
        <ele>1318.68</ele>
        <time>2021-03-27T16:28:37Z</time>
      </trkpt>
      <trkpt lat="40.331814" lon="-4.919428">
        <ele>1317.98</ele>
        <time>2021-03-27T16:28:38Z</time>
      </trkpt>
      <trkpt lat="40.331833" lon="-4.919329">
        <ele>1316.81</ele>
        <time>2021-03-27T16:28:40Z</time>
      </trkpt>
      <trkpt lat="40.331812" lon="-4.918986">
        <ele>1312.28</ele>
        <time>2021-03-27T16:28:41Z</time>
      </trkpt>
      <trkpt lat="40.331886" lon="-4.918463">
        <ele>1311.23</ele>
        <time>2021-03-27T16:28:42Z</time>
      </trkpt>
      <trkpt lat="40.331913" lon="-4.918365">
        <ele>1311.08</ele>
        <time>2021-03-27T16:28:44Z</time>
      </trkpt>
      <trkpt lat="40.33195" lon="-4.918313">
        <ele>1311.58</ele>
        <time>2021-03-27T16:28:45Z</time>
      </trkpt>
      <trkpt lat="40.332041" lon="-4.91828">
        <ele>1314.24</ele>
        <time>2021-03-27T16:28:46Z</time>
      </trkpt>
      <trkpt lat="40.332121" lon="-4.918323">
        <ele>1319.24</ele>
        <time>2021-03-27T16:28:48Z</time>
      </trkpt>
      <trkpt lat="40.332146" lon="-4.918378">
        <ele>1321.35</ele>
        <time>2021-03-27T16:28:49Z</time>
      </trkpt>
      <trkpt lat="40.332147" lon="-4.918432">
        <ele>1322.19</ele>
        <time>2021-03-27T16:28:50Z</time>
      </trkpt>
      <trkpt lat="40.332024" lon="-4.918746">
        <ele>1320.07</ele>
        <time>2021-03-27T16:28:52Z</time>
      </trkpt>
      <trkpt lat="40.331987" lon="-4.918939">
        <ele>1319.23</ele>
        <time>2021-03-27T16:28:53Z</time>
      </trkpt>
      <trkpt lat="40.331992" lon="-4.919156">
        <ele>1320.37</ele>
        <time>2021-03-27T16:28:54Z</time>
      </trkpt>
      <trkpt lat="40.332013" lon="-4.91929">
        <ele>1322.89</ele>
        <time>2021-03-27T16:28:56Z</time>
      </trkpt>
      <trkpt lat="40.332166" lon="-4.919899">
        <ele>1337.45</ele>
        <time>2021-03-27T16:28:57Z</time>
      </trkpt>
      <trkpt lat="40.332154" lon="-4.920055">
        <ele>1339.62</ele>
        <time>2021-03-27T16:28:58Z</time>
      </trkpt>
      <trkpt lat="40.332077" lon="-4.920301">
        <ele>1342.55</ele>
        <time>2021-03-27T16:29:00Z</time>
      </trkpt>
      <trkpt lat="40.332005" lon="-4.920375">
        <ele>1343.01</ele>
        <time>2021-03-27T16:29:01Z</time>
      </trkpt>
      <trkpt lat="40.331918" lon="-4.920377">
        <ele>1342.53</ele>
        <time>2021-03-27T16:29:03Z</time>
      </trkpt>
      <trkpt lat="40.331876" lon="-4.920354">
        <ele>1343.2</ele>
        <time>2021-03-27T16:29:04Z</time>
      </trkpt>
      <trkpt lat="40.331658" lon="-4.920142">
        <ele>1341.06</ele>
        <time>2021-03-27T16:29:05Z</time>
      </trkpt>
      <trkpt lat="40.331496" lon="-4.920043">
        <ele>1343.96</ele>
        <time>2021-03-27T16:29:07Z</time>
      </trkpt>
      <trkpt lat="40.331264" lon="-4.920002">
        <ele>1352.46</ele>
        <time>2021-03-27T16:29:08Z</time>
      </trkpt>
      <trkpt lat="40.331048" lon="-4.920002">
        <ele>1361.8</ele>
        <time>2021-03-27T16:29:09Z</time>
      </trkpt>
      <trkpt lat="40.330918" lon="-4.919967">
        <ele>1364.93</ele>
        <time>2021-03-27T16:29:11Z</time>
      </trkpt>
      <trkpt lat="40.330582" lon="-4.919667">
        <ele>1356.46</ele>
        <time>2021-03-27T16:29:12Z</time>
      </trkpt>
      <trkpt lat="40.330343" lon="-4.919524">
        <ele>1353.86</ele>
        <time>2021-03-27T16:29:13Z</time>
      </trkpt>
      <trkpt lat="40.330222" lon="-4.919484">
        <ele>1352.81</ele>
        <time>2021-03-27T16:29:15Z</time>
      </trkpt>
      <trkpt lat="40.329995" lon="-4.919486">
        <ele>1351.04</ele>
        <time>2021-03-27T16:29:16Z</time>
      </trkpt>
      <trkpt lat="40.329695" lon="-4.919539">
        <ele>1347.97</ele>
        <time>2021-03-27T16:29:17Z</time>
      </trkpt>
      <trkpt lat="40.329598" lon="-4.919574">
        <ele>1347.57</ele>
        <time>2021-03-27T16:29:19Z</time>
      </trkpt>
      <trkpt lat="40.329473" lon="-4.919655">
        <ele>1349.31</ele>
        <time>2021-03-27T16:29:20Z</time>
      </trkpt>
      <trkpt lat="40.329039" lon="-4.920211">
        <ele>1359.73</ele>
        <time>2021-03-27T16:29:21Z</time>
      </trkpt>
      <trkpt lat="40.328944" lon="-4.920385">
        <ele>1363.13</ele>
        <time>2021-03-27T16:29:23Z</time>
      </trkpt>
      <trkpt lat="40.32881" lon="-4.920792">
        <ele>1374.31</ele>
        <time>2021-03-27T16:29:24Z</time>
      </trkpt>
      <trkpt lat="40.328769" lon="-4.92088">
        <ele>1376.26</ele>
        <time>2021-03-27T16:29:25Z</time>
      </trkpt>
      <trkpt lat="40.328661" lon="-4.921024">
        <ele>1378.59</ele>
        <time>2021-03-27T16:29:27Z</time>
      </trkpt>
      <trkpt lat="40.328582" lon="-4.921094">
        <ele>1378.69</ele>
        <time>2021-03-27T16:29:28Z</time>
      </trkpt>
      <trkpt lat="40.328342" lon="-4.921243">
        <ele>1376.89</ele>
        <time>2021-03-27T16:29:29Z</time>
      </trkpt>
      <trkpt lat="40.32785" lon="-4.92143">
        <ele>1372.86</ele>
        <time>2021-03-27T16:29:31Z</time>
      </trkpt>
      <trkpt lat="40.327759" lon="-4.921487">
        <ele>1374.3</ele>
        <time>2021-03-27T16:29:32Z</time>
      </trkpt>
      <trkpt lat="40.327626" lon="-4.921612">
        <ele>1375.96</ele>
        <time>2021-03-27T16:29:33Z</time>
      </trkpt>
      <trkpt lat="40.327552" lon="-4.921709">
        <ele>1377.57</ele>
        <time>2021-03-27T16:29:35Z</time>
      </trkpt>
      <trkpt lat="40.327496" lon="-4.921817">
        <ele>1380.34</ele>
        <time>2021-03-27T16:29:36Z</time>
      </trkpt>
      <trkpt lat="40.327192" lon="-4.922618">
        <ele>1388.72</ele>
        <time>2021-03-27T16:29:37Z</time>
      </trkpt>
      <trkpt lat="40.326964" lon="-4.923091">
        <ele>1391.76</ele>
        <time>2021-03-27T16:29:39Z</time>
      </trkpt>
      <trkpt lat="40.326915" lon="-4.923242">
        <ele>1390.5</ele>
        <time>2021-03-27T16:29:40Z</time>
      </trkpt>
      <trkpt lat="40.326875" lon="-4.923545">
        <ele>1391.04</ele>
        <time>2021-03-27T16:29:41Z</time>
      </trkpt>
      <trkpt lat="40.326839" lon="-4.924108">
        <ele>1397.17</ele>
        <time>2021-03-27T16:29:43Z</time>
      </trkpt>
      <trkpt lat="40.326791" lon="-4.924315">
        <ele>1398.67</ele>
        <time>2021-03-27T16:29:44Z</time>
      </trkpt>
      <trkpt lat="40.32675" lon="-4.924393">
        <ele>1398.59</ele>
        <time>2021-03-27T16:29:45Z</time>
      </trkpt>
      <trkpt lat="40.32669" lon="-4.924454">
        <ele>1397.92</ele>
        <time>2021-03-27T16:29:47Z</time>
      </trkpt>
      <trkpt lat="40.326467" lon="-4.92459">
        <ele>1394.93</ele>
        <time>2021-03-27T16:29:48Z</time>
      </trkpt>
      <trkpt lat="40.326412" lon="-4.924642">
        <ele>1394.64</ele>
        <time>2021-03-27T16:29:49Z</time>
      </trkpt>
      <trkpt lat="40.326318" lon="-4.924808">
        <ele>1394.8</ele>
        <time>2021-03-27T16:29:51Z</time>
      </trkpt>
      <trkpt lat="40.326299" lon="-4.924885">
        <ele>1394.98</ele>
        <time>2021-03-27T16:29:52Z</time>
      </trkpt>
      <trkpt lat="40.326293" lon="-4.925018">
        <ele>1395.86</ele>
        <time>2021-03-27T16:29:53Z</time>
      </trkpt>
      <trkpt lat="40.326301" lon="-4.92512">
        <ele>1396.01</ele>
        <time>2021-03-27T16:29:55Z</time>
      </trkpt>
      <trkpt lat="40.326412" lon="-4.925663">
        <ele>1402.12</ele>
        <time>2021-03-27T16:29:56Z</time>
      </trkpt>
      <trkpt lat="40.326418" lon="-4.925783">
        <ele>1403.62</ele>
        <time>2021-03-27T16:29:57Z</time>
      </trkpt>
      <trkpt lat="40.326395" lon="-4.925979">
        <ele>1404.81</ele>
        <time>2021-03-27T16:29:59Z</time>
      </trkpt>
      <trkpt lat="40.326281" lon="-4.926251">
        <ele>1405.26</ele>
        <time>2021-03-27T16:30:00Z</time>
      </trkpt>
      <trkpt lat="40.325907" lon="-4.926977">
        <ele>1409.89</ele>
        <time>2021-03-27T16:30:01Z</time>
      </trkpt>
      <trkpt lat="40.325803" lon="-4.92722">
        <ele>1412.76</ele>
        <time>2021-03-27T16:30:03Z</time>
      </trkpt>
      <trkpt lat="40.325402" lon="-4.928352">
        <ele>1412.35</ele>
        <time>2021-03-27T16:30:04Z</time>
      </trkpt>
      <trkpt lat="40.325248" lon="-4.928657">
        <ele>1411.47</ele>
        <time>2021-03-27T16:30:05Z</time>
      </trkpt>
      <trkpt lat="40.325161" lon="-4.928882">
        <ele>1410.86</ele>
        <time>2021-03-27T16:30:07Z</time>
      </trkpt>
      <trkpt lat="40.325091" lon="-4.929316">
        <ele>1415.66</ele>
        <time>2021-03-27T16:30:08Z</time>
      </trkpt>
      <trkpt lat="40.325044" lon="-4.929419">
        <ele>1416.08</ele>
        <time>2021-03-27T16:30:09Z</time>
      </trkpt>
      <trkpt lat="40.324974" lon="-4.929504">
        <ele>1416.58</ele>
        <time>2021-03-27T16:30:11Z</time>
      </trkpt>
      <trkpt lat="40.324713" lon="-4.929729">
        <ele>1416.22</ele>
        <time>2021-03-27T16:30:12Z</time>
      </trkpt>
      <trkpt lat="40.324616" lon="-4.929744">
        <ele>1416.61</ele>
        <time>2021-03-27T16:30:13Z</time>
      </trkpt>
      <trkpt lat="40.324519" lon="-4.929702">
        <ele>1415.57</ele>
        <time>2021-03-27T16:30:15Z</time>
      </trkpt>
      <trkpt lat="40.324402" lon="-4.92953">
        <ele>1412.1</ele>
        <time>2021-03-27T16:30:16Z</time>
      </trkpt>
      <trkpt lat="40.324343" lon="-4.929481">
        <ele>1411.25</ele>
        <time>2021-03-27T16:30:17Z</time>
      </trkpt>
      <trkpt lat="40.324287" lon="-4.929462">
        <ele>1411.01</ele>
        <time>2021-03-27T16:30:19Z</time>
      </trkpt>
      <trkpt lat="40.324213" lon="-4.929466">
        <ele>1411.43</ele>
        <time>2021-03-27T16:30:20Z</time>
      </trkpt>
      <trkpt lat="40.324147" lon="-4.929494">
        <ele>1412.43</ele>
        <time>2021-03-27T16:30:21Z</time>
      </trkpt>
      <trkpt lat="40.324008" lon="-4.929623">
        <ele>1416.5</ele>
        <time>2021-03-27T16:30:23Z</time>
      </trkpt>
      <trkpt lat="40.323876" lon="-4.929708">
        <ele>1419.48</ele>
        <time>2021-03-27T16:30:24Z</time>
      </trkpt>
      <trkpt lat="40.323573" lon="-4.929752">
        <ele>1419.75</ele>
        <time>2021-03-27T16:30:25Z</time>
      </trkpt>
      <trkpt lat="40.323415" lon="-4.929821">
        <ele>1420.42</ele>
        <time>2021-03-27T16:30:27Z</time>
      </trkpt>
      <trkpt lat="40.323144" lon="-4.930071">
        <ele>1424.7</ele>
        <time>2021-03-27T16:30:28Z</time>
      </trkpt>
      <trkpt lat="40.322861" lon="-4.930432">
        <ele>1426.16</ele>
        <time>2021-03-27T16:30:29Z</time>
      </trkpt>
      <trkpt lat="40.32278" lon="-4.930583">
        <ele>1427.85</ele>
        <time>2021-03-27T16:30:31Z</time>
      </trkpt>
      <trkpt lat="40.322612" lon="-4.931191">
        <ele>1435.0</ele>
        <time>2021-03-27T16:30:32Z</time>
      </trkpt>
      <trkpt lat="40.322534" lon="-4.931428">
        <ele>1438.38</ele>
        <time>2021-03-27T16:30:33Z</time>
      </trkpt>
      <trkpt lat="40.322402" lon="-4.93161">
        <ele>1441.23</ele>
        <time>2021-03-27T16:30:35Z</time>
      </trkpt>
      <trkpt lat="40.322117" lon="-4.931908">
        <ele>1439.67</ele>
        <time>2021-03-27T16:30:36Z</time>
      </trkpt>
      <trkpt lat="40.321973" lon="-4.932167">
        <ele>1441.45</ele>
        <time>2021-03-27T16:30:37Z</time>
      </trkpt>
      <trkpt lat="40.321862" lon="-4.932498">
        <ele>1445.3</ele>
        <time>2021-03-27T16:30:39Z</time>
      </trkpt>
      <trkpt lat="40.321812" lon="-4.932848">
        <ele>1452.51</ele>
        <time>2021-03-27T16:30:40Z</time>
      </trkpt>
      <trkpt lat="40.321762" lon="-4.932983">
        <ele>1454.26</ele>
        <time>2021-03-27T16:30:41Z</time>
      </trkpt>
      <trkpt lat="40.321651" lon="-4.933072">
        <ele>1453.17</ele>
        <time>2021-03-27T16:30:43Z</time>
      </trkpt>
      <trkpt lat="40.321034" lon="-4.933382">
        <ele>1452.22</ele>
        <time>2021-03-27T16:30:44Z</time>
      </trkpt>
      <trkpt lat="40.320938" lon="-4.933439">
        <ele>1450.98</ele>
        <time>2021-03-27T16:30:45Z</time>
      </trkpt>
      <trkpt lat="40.320871" lon="-4.933503">
        <ele>1450.82</ele>
        <time>2021-03-27T16:30:47Z</time>
      </trkpt>
      <trkpt lat="40.32061" lon="-4.933878">
        <ele>1458.15</ele>
        <time>2021-03-27T16:30:48Z</time>
      </trkpt>
      <trkpt lat="40.320344" lon="-4.934339">
        <ele>1460.45</ele>
        <time>2021-03-27T16:30:49Z</time>
      </trkpt>
      <trkpt lat="40.320103" lon="-4.934804">
        <ele>1464.6</ele>
        <time>2021-03-27T16:30:51Z</time>
      </trkpt>
      <trkpt lat="40.319999" lon="-4.934952">
        <ele>1467.1</ele>
        <time>2021-03-27T16:30:52Z</time>
      </trkpt>
      <trkpt lat="40.319859" lon="-4.935069">
        <ele>1468.32</ele>
        <time>2021-03-27T16:30:53Z</time>
      </trkpt>
      <trkpt lat="40.319351" lon="-4.935325">
        <ele>1465.78</ele>
        <time>2021-03-27T16:30:55Z</time>
      </trkpt>
      <trkpt lat="40.319156" lon="-4.935492">
        <ele>1465.34</ele>
        <time>2021-03-27T16:30:56Z</time>
      </trkpt>
      <trkpt lat="40.318991" lon="-4.9357">
        <ele>1465.9</ele>
        <time>2021-03-27T16:30:57Z</time>
      </trkpt>
      <trkpt lat="40.318924" lon="-4.935859">
        <ele>1467.58</ele>
        <time>2021-03-27T16:30:59Z</time>
      </trkpt>
      <trkpt lat="40.318733" lon="-4.936783">
        <ele>1473.34</ele>
        <time>2021-03-27T16:31:00Z</time>
      </trkpt>
      <trkpt lat="40.318736" lon="-4.937">
        <ele>1475.39</ele>
        <time>2021-03-27T16:31:02Z</time>
      </trkpt>
      <trkpt lat="40.318815" lon="-4.937836">
        <ele>1488.68</ele>
        <time>2021-03-27T16:31:03Z</time>
      </trkpt>
      <trkpt lat="40.318778" lon="-4.937951">
        <ele>1489.91</ele>
        <time>2021-03-27T16:31:04Z</time>
      </trkpt>
      <trkpt lat="40.318738" lon="-4.937996">
        <ele>1490.49</ele>
        <time>2021-03-27T16:31:06Z</time>
      </trkpt>
      <trkpt lat="40.318662" lon="-4.93802">
        <ele>1491.3</ele>
        <time>2021-03-27T16:31:07Z</time>
      </trkpt>
      <trkpt lat="40.318507" lon="-4.93797">
        <ele>1488.56</ele>
        <time>2021-03-27T16:31:08Z</time>
      </trkpt>
      <trkpt lat="40.31836" lon="-4.937894">
        <ele>1486.15</ele>
        <time>2021-03-27T16:31:10Z</time>
      </trkpt>
      <trkpt lat="40.318231" lon="-4.937876">
        <ele>1486.14</ele>
        <time>2021-03-27T16:31:11Z</time>
      </trkpt>
      <trkpt lat="40.318176" lon="-4.937897">
        <ele>1486.71</ele>
        <time>2021-03-27T16:31:12Z</time>
      </trkpt>
      <trkpt lat="40.318058" lon="-4.938003">
        <ele>1489.05</ele>
        <time>2021-03-27T16:31:14Z</time>
      </trkpt>
      <trkpt lat="40.3178" lon="-4.938474">
        <ele>1496.11</ele>
        <time>2021-03-27T16:31:15Z</time>
      </trkpt>
      <trkpt lat="40.3177" lon="-4.938558">
        <ele>1498.25</ele>
        <time>2021-03-27T16:31:16Z</time>
      </trkpt>
      <trkpt lat="40.317619" lon="-4.938572">
        <ele>1499.07</ele>
        <time>2021-03-27T16:31:18Z</time>
      </trkpt>
      <trkpt lat="40.317553" lon="-4.938553">
        <ele>1498.86</ele>
        <time>2021-03-27T16:31:19Z</time>
      </trkpt>
      <trkpt lat="40.317385" lon="-4.938449">
        <ele>1495.76</ele>
        <time>2021-03-27T16:31:20Z</time>
      </trkpt>
      <trkpt lat="40.31721" lon="-4.938406">
        <ele>1494.21</ele>
        <time>2021-03-27T16:31:22Z</time>
      </trkpt>
      <trkpt lat="40.316989" lon="-4.938461">
        <ele>1492.54</ele>
        <time>2021-03-27T16:31:23Z</time>
      </trkpt>
      <trkpt lat="40.316839" lon="-4.938558">
        <ele>1492.02</ele>
        <time>2021-03-27T16:31:24Z</time>
      </trkpt>
      <trkpt lat="40.316736" lon="-4.938691">
        <ele>1492.9</ele>
        <time>2021-03-27T16:31:26Z</time>
      </trkpt>
      <trkpt lat="40.316679" lon="-4.938826">
        <ele>1493.6</ele>
        <time>2021-03-27T16:31:27Z</time>
      </trkpt>
      <trkpt lat="40.316624" lon="-4.939086">
        <ele>1498.37</ele>
        <time>2021-03-27T16:31:28Z</time>
      </trkpt>
      <trkpt lat="40.316587" lon="-4.939567">
        <ele>1507.21</ele>
        <time>2021-03-27T16:31:30Z</time>
      </trkpt>
      <trkpt lat="40.316534" lon="-4.939693">
        <ele>1508.98</ele>
        <time>2021-03-27T16:31:31Z</time>
      </trkpt>
      <trkpt lat="40.316476" lon="-4.939763">
        <ele>1509.55</ele>
        <time>2021-03-27T16:31:32Z</time>
      </trkpt>
      <trkpt lat="40.316363" lon="-4.939829">
        <ele>1509.33</ele>
        <time>2021-03-27T16:31:34Z</time>
      </trkpt>
      <trkpt lat="40.315965" lon="-4.939873">
        <ele>1503.84</ele>
        <time>2021-03-27T16:31:35Z</time>
      </trkpt>
      <trkpt lat="40.315843" lon="-4.939937">
        <ele>1502.31</ele>
        <time>2021-03-27T16:31:36Z</time>
      </trkpt>
      <trkpt lat="40.315711" lon="-4.940071">
        <ele>1502.45</ele>
        <time>2021-03-27T16:31:38Z</time>
      </trkpt>
      <trkpt lat="40.31495" lon="-4.941116">
        <ele>1516.84</ele>
        <time>2021-03-27T16:31:39Z</time>
      </trkpt>
      <trkpt lat="40.314798" lon="-4.941286">
        <ele>1517.15</ele>
        <time>2021-03-27T16:31:40Z</time>
      </trkpt>
      <trkpt lat="40.314691" lon="-4.941359">
        <ele>1516.45</ele>
        <time>2021-03-27T16:31:42Z</time>
      </trkpt>
      <trkpt lat="40.314433" lon="-4.941484">
        <ele>1513.26</ele>
        <time>2021-03-27T16:31:43Z</time>
      </trkpt>
      <trkpt lat="40.314019" lon="-4.941788">
        <ele>1518.02</ele>
        <time>2021-03-27T16:31:44Z</time>
      </trkpt>
      <trkpt lat="40.313576" lon="-4.94202">
        <ele>1520.35</ele>
        <time>2021-03-27T16:31:46Z</time>
      </trkpt>
      <trkpt lat="40.313461" lon="-4.942112">
        <ele>1520.71</ele>
        <time>2021-03-27T16:31:47Z</time>
      </trkpt>
      <trkpt lat="40.313175" lon="-4.942598">
        <ele>1528.26</ele>
        <time>2021-03-27T16:31:48Z</time>
      </trkpt>
      <trkpt lat="40.313101" lon="-4.94275">
        <ele>1530.24</ele>
        <time>2021-03-27T16:31:50Z</time>
      </trkpt>
      <trkpt lat="40.312872" lon="-4.943331">
        <ele>1534.0</ele>
        <time>2021-03-27T16:31:51Z</time>
      </trkpt>
      <trkpt lat="40.312788" lon="-4.943472">
        <ele>1535.19</ele>
        <time>2021-03-27T16:31:52Z</time>
      </trkpt>
      <trkpt lat="40.312703" lon="-4.943523">
        <ele>1535.39</ele>
        <time>2021-03-27T16:31:54Z</time>
      </trkpt>
      <trkpt lat="40.312443" lon="-4.943498">
        <ele>1532.28</ele>
        <time>2021-03-27T16:31:55Z</time>
      </trkpt>
      <trkpt lat="40.312305" lon="-4.943516">
        <ele>1531.84</ele>
        <time>2021-03-27T16:31:56Z</time>
      </trkpt>
      <trkpt lat="40.312221" lon="-4.943562">
        <ele>1533.05</ele>
        <time>2021-03-27T16:31:58Z</time>
      </trkpt>
      <trkpt lat="40.312085" lon="-4.943674">
        <ele>1534.08</ele>
        <time>2021-03-27T16:31:59Z</time>
      </trkpt>
      <trkpt lat="40.311764" lon="-4.943988">
        <ele>1538.01</ele>
        <time>2021-03-27T16:32:00Z</time>
      </trkpt>
      <trkpt lat="40.31165" lon="-4.944157">
        <ele>1539.43</ele>
        <time>2021-03-27T16:32:02Z</time>
      </trkpt>
      <trkpt lat="40.311491" lon="-4.944528">
        <ele>1544.96</ele>
        <time>2021-03-27T16:32:03Z</time>
      </trkpt>
      <trkpt lat="40.311374" lon="-4.944659">
        <ele>1546.27</ele>
        <time>2021-03-27T16:32:04Z</time>
      </trkpt>
      <trkpt lat="40.311154" lon="-4.944849">
        <ele>1545.11</ele>
        <time>2021-03-27T16:32:06Z</time>
      </trkpt>
      <trkpt lat="40.310523" lon="-4.945554">
        <ele>1549.13</ele>
        <time>2021-03-27T16:32:07Z</time>
      </trkpt>
      <trkpt lat="40.310336" lon="-4.945804">
        <ele>1553.79</ele>
        <time>2021-03-27T16:32:08Z</time>
      </trkpt>
      <trkpt lat="40.309875" lon="-4.946579">
        <ele>1561.24</ele>
        <time>2021-03-27T16:32:10Z</time>
      </trkpt>
      <trkpt lat="40.309753" lon="-4.946641">
        <ele>1560.1</ele>
        <time>2021-03-27T16:32:11Z</time>
      </trkpt>
      <trkpt lat="40.309524" lon="-4.946677">
        <ele>1557.46</ele>
        <time>2021-03-27T16:32:12Z</time>
      </trkpt>
      <trkpt lat="40.30927" lon="-4.946899">
        <ele>1560.09</ele>
        <time>2021-03-27T16:32:14Z</time>
      </trkpt>
      <trkpt lat="40.309067" lon="-4.947109">
        <ele>1561.76</ele>
        <time>2021-03-27T16:32:15Z</time>
      </trkpt>
      <trkpt lat="40.308868" lon="-4.94739">
        <ele>1562.41</ele>
        <time>2021-03-27T16:32:16Z</time>
      </trkpt>
      <trkpt lat="40.308712" lon="-4.947703">
        <ele>1563.94</ele>
        <time>2021-03-27T16:32:18Z</time>
      </trkpt>
      <trkpt lat="40.308382" lon="-4.948178">
        <ele>1570.9</ele>
        <time>2021-03-27T16:32:19Z</time>
      </trkpt>
      <trkpt lat="40.30817" lon="-4.948428">
        <ele>1573.19</ele>
        <time>2021-03-27T16:32:20Z</time>
      </trkpt>
      <trkpt lat="40.308113" lon="-4.948462">
        <ele>1573.27</ele>
        <time>2021-03-27T16:32:22Z</time>
      </trkpt>
      <trkpt lat="40.308063" lon="-4.948468">
        <ele>1572.99</ele>
        <time>2021-03-27T16:32:23Z</time>
      </trkpt>
      <trkpt lat="40.30799" lon="-4.948431">
        <ele>1572.09</ele>
        <time>2021-03-27T16:32:24Z</time>
      </trkpt>
      <trkpt lat="40.307941" lon="-4.94838">
        <ele>1571.19</ele>
        <time>2021-03-27T16:32:26Z</time>
      </trkpt>
      <trkpt lat="40.307579" lon="-4.947835">
        <ele>1566.19</ele>
        <time>2021-03-27T16:32:27Z</time>
      </trkpt>
      <trkpt lat="40.307486" lon="-4.947776">
        <ele>1565.91</ele>
        <time>2021-03-27T16:32:28Z</time>
      </trkpt>
      <trkpt lat="40.307448" lon="-4.947789">
        <ele>1565.57</ele>
        <time>2021-03-27T16:32:30Z</time>
      </trkpt>
      <trkpt lat="40.307387" lon="-4.947866">
        <ele>1564.6</ele>
        <time>2021-03-27T16:32:31Z</time>
      </trkpt>
      <trkpt lat="40.307368" lon="-4.947952">
        <ele>1563.82</ele>
        <time>2021-03-27T16:32:32Z</time>
      </trkpt>
      <trkpt lat="40.307193" lon="-4.949854">
        <ele>1564.65</ele>
        <time>2021-03-27T16:32:34Z</time>
      </trkpt>
      <trkpt lat="40.307211" lon="-4.950314">
        <ele>1564.4</ele>
        <time>2021-03-27T16:32:35Z</time>
      </trkpt>
      <trkpt lat="40.307205" lon="-4.950646">
        <ele>1563.01</ele>
        <time>2021-03-27T16:32:36Z</time>
      </trkpt>
      <trkpt lat="40.307094" lon="-4.951252">
        <ele>1554.71</ele>
        <time>2021-03-27T16:32:38Z</time>
      </trkpt>
      <trkpt lat="40.306974" lon="-4.951747">
        <ele>1550.12</ele>
        <time>2021-03-27T16:32:39Z</time>
      </trkpt>
      <trkpt lat="40.306934" lon="-4.952004">
        <ele>1549.79</ele>
        <time>2021-03-27T16:32:40Z</time>
      </trkpt>
      <trkpt lat="40.306956" lon="-4.952274">
        <ele>1551.05</ele>
        <time>2021-03-27T16:32:42Z</time>
      </trkpt>
      <trkpt lat="40.307044" lon="-4.952676">
        <ele>1552.05</ele>
        <time>2021-03-27T16:32:43Z</time>
      </trkpt>
      <trkpt lat="40.307037" lon="-4.952885">
        <ele>1550.94</ele>
        <time>2021-03-27T16:32:44Z</time>
      </trkpt>
      <trkpt lat="40.307018" lon="-4.952976">
        <ele>1550.04</ele>
        <time>2021-03-27T16:32:46Z</time>
      </trkpt>
      <trkpt lat="40.306505" lon="-4.95447">
        <ele>1542.33</ele>
        <time>2021-03-27T16:32:47Z</time>
      </trkpt>
      <trkpt lat="40.306471" lon="-4.954665">
        <ele>1541.88</ele>
        <time>2021-03-27T16:32:48Z</time>
      </trkpt>
      <trkpt lat="40.306451" lon="-4.954926">
        <ele>1545.5</ele>
        <time>2021-03-27T16:32:50Z</time>
      </trkpt>
      <trkpt lat="40.306405" lon="-4.955129">
        <ele>1548.03</ele>
        <time>2021-03-27T16:32:51Z</time>
      </trkpt>
      <trkpt lat="40.306354" lon="-4.955217">
        <ele>1547.7</ele>
        <time>2021-03-27T16:32:52Z</time>
      </trkpt>
      <trkpt lat="40.306294" lon="-4.955281">
        <ele>1546.32</ele>
        <time>2021-03-27T16:32:54Z</time>
      </trkpt>
      <trkpt lat="40.306089" lon="-4.955433">
        <ele>1539.35</ele>
        <time>2021-03-27T16:32:55Z</time>
      </trkpt>
      <trkpt lat="40.306017" lon="-4.955556">
        <ele>1538.96</ele>
        <time>2021-03-27T16:32:56Z</time>
      </trkpt>
      <trkpt lat="40.305946" lon="-4.956139">
        <ele>1546.35</ele>
        <time>2021-03-27T16:32:58Z</time>
      </trkpt>
      <trkpt lat="40.305899" lon="-4.956273">
        <ele>1546.64</ele>
        <time>2021-03-27T16:32:59Z</time>
      </trkpt>
      <trkpt lat="40.305576" lon="-4.956975">
        <ele>1540.67</ele>
        <time>2021-03-27T16:33:00Z</time>
      </trkpt>
      <trkpt lat="40.305477" lon="-4.957143">
        <ele>1538.91</ele>
        <time>2021-03-27T16:33:02Z</time>
      </trkpt>
      <trkpt lat="40.305165" lon="-4.957593">
        <ele>1529.41</ele>
        <time>2021-03-27T16:33:03Z</time>
      </trkpt>
      <trkpt lat="40.305087" lon="-4.957828">
        <ele>1527.56</ele>
        <time>2021-03-27T16:33:05Z</time>
      </trkpt>
      <trkpt lat="40.305034" lon="-4.958215">
        <ele>1529.21</ele>
        <time>2021-03-27T16:33:06Z</time>
      </trkpt>
      <trkpt lat="40.30495" lon="-4.958346">
        <ele>1528.75</ele>
        <time>2021-03-27T16:33:07Z</time>
      </trkpt>
      <trkpt lat="40.304881" lon="-4.958404">
        <ele>1529.65</ele>
        <time>2021-03-27T16:33:09Z</time>
      </trkpt>
      <trkpt lat="40.304449" lon="-4.958654">
        <ele>1526.38</ele>
        <time>2021-03-27T16:33:10Z</time>
      </trkpt>
      <trkpt lat="40.304172" lon="-4.958755">
        <ele>1519.35</ele>
        <time>2021-03-27T16:33:11Z</time>
      </trkpt>
      <trkpt lat="40.303841" lon="-4.958915">
        <ele>1515.11</ele>
        <time>2021-03-27T16:33:13Z</time>
      </trkpt>
      <trkpt lat="40.303752" lon="-4.958977">
        <ele>1515.39</ele>
        <time>2021-03-27T16:33:14Z</time>
      </trkpt>
      <trkpt lat="40.302602" lon="-4.959996">
        <ele>1514.04</ele>
        <time>2021-03-27T16:33:15Z</time>
      </trkpt>
      <trkpt lat="40.302062" lon="-4.960393">
        <ele>1513.11</ele>
        <time>2021-03-27T16:33:17Z</time>
      </trkpt>
      <trkpt lat="40.301997" lon="-4.960408">
        <ele>1511.68</ele>
        <time>2021-03-27T16:33:18Z</time>
      </trkpt>
      <trkpt lat="40.301942" lon="-4.960399">
        <ele>1510.1</ele>
        <time>2021-03-27T16:33:19Z</time>
      </trkpt>
      <trkpt lat="40.301905" lon="-4.960371">
        <ele>1508.4</ele>
        <time>2021-03-27T16:33:21Z</time>
      </trkpt>
      <trkpt lat="40.301879" lon="-4.960322">
        <ele>1506.7</ele>
        <time>2021-03-27T16:33:22Z</time>
      </trkpt>
      <trkpt lat="40.301872" lon="-4.960276">
        <ele>1505.61</ele>
        <time>2021-03-27T16:33:23Z</time>
      </trkpt>
      <trkpt lat="40.301883" lon="-4.960223">
        <ele>1504.48</ele>
        <time>2021-03-27T16:33:25Z</time>
      </trkpt>
      <trkpt lat="40.301921" lon="-4.960156">
        <ele>1503.77</ele>
        <time>2021-03-27T16:33:26Z</time>
      </trkpt>
      <trkpt lat="40.302444" lon="-4.959722">
        <ele>1498.2</ele>
        <time>2021-03-27T16:33:27Z</time>
      </trkpt>
      <trkpt lat="40.302554" lon="-4.959605">
        <ele>1497.74</ele>
        <time>2021-03-27T16:33:29Z</time>
      </trkpt>
      <trkpt lat="40.302649" lon="-4.959466">
        <ele>1496.15</ele>
        <time>2021-03-27T16:33:30Z</time>
      </trkpt>
      <trkpt lat="40.303019" lon="-4.958827">
        <ele>1491.39</ele>
        <time>2021-03-27T16:33:31Z</time>
      </trkpt>
      <trkpt lat="40.303202" lon="-4.958586">
        <ele>1490.67</ele>
        <time>2021-03-27T16:33:33Z</time>
      </trkpt>
      <trkpt lat="40.303487" lon="-4.958315">
        <ele>1490.14</ele>
        <time>2021-03-27T16:33:34Z</time>
      </trkpt>
      <trkpt lat="40.30366" lon="-4.958204">
        <ele>1490.06</ele>
        <time>2021-03-27T16:33:35Z</time>
      </trkpt>
      <trkpt lat="40.30388" lon="-4.958124">
        <ele>1493.49</ele>
        <time>2021-03-27T16:33:37Z</time>
      </trkpt>
      <trkpt lat="40.304026" lon="-4.957998">
        <ele>1494.77</ele>
        <time>2021-03-27T16:33:38Z</time>
      </trkpt>
      <trkpt lat="40.304064" lon="-4.957845">
        <ele>1491.64</ele>
        <time>2021-03-27T16:33:39Z</time>
      </trkpt>
      <trkpt lat="40.304061" lon="-4.957741">
        <ele>1489.09</ele>
        <time>2021-03-27T16:33:41Z</time>
      </trkpt>
      <trkpt lat="40.30401" lon="-4.957444">
        <ele>1483.28</ele>
        <time>2021-03-27T16:33:42Z</time>
      </trkpt>
      <trkpt lat="40.304015" lon="-4.957253">
        <ele>1481.73</ele>
        <time>2021-03-27T16:33:43Z</time>
      </trkpt>
      <trkpt lat="40.304033" lon="-4.957154">
        <ele>1481.87</ele>
        <time>2021-03-27T16:33:45Z</time>
      </trkpt>
      <trkpt lat="40.304075" lon="-4.957045">
        <ele>1483.2</ele>
        <time>2021-03-27T16:33:46Z</time>
      </trkpt>
      <trkpt lat="40.304159" lon="-4.956915">
        <ele>1486.13</ele>
        <time>2021-03-27T16:33:47Z</time>
      </trkpt>
      <trkpt lat="40.304629" lon="-4.956304">
        <ele>1490.31</ele>
        <time>2021-03-27T16:33:49Z</time>
      </trkpt>
      <trkpt lat="40.304759" lon="-4.956001">
        <ele>1484.9</ele>
        <time>2021-03-27T16:33:50Z</time>
      </trkpt>
      <trkpt lat="40.305089" lon="-4.955014">
        <ele>1478.48</ele>
        <time>2021-03-27T16:33:51Z</time>
      </trkpt>
      <trkpt lat="40.305251" lon="-4.954609">
        <ele>1478.7</ele>
        <time>2021-03-27T16:33:53Z</time>
      </trkpt>
      <trkpt lat="40.305274" lon="-4.954407">
        <ele>1476.41</ele>
        <time>2021-03-27T16:33:54Z</time>
      </trkpt>
      <trkpt lat="40.305264" lon="-4.954107">
        <ele>1472.43</ele>
        <time>2021-03-27T16:33:55Z</time>
      </trkpt>
      <trkpt lat="40.305275" lon="-4.953952">
        <ele>1470.76</ele>
        <time>2021-03-27T16:33:57Z</time>
      </trkpt>
      <trkpt lat="40.305294" lon="-4.953832">
        <ele>1470.43</ele>
        <time>2021-03-27T16:33:58Z</time>
      </trkpt>
      <trkpt lat="40.305393" lon="-4.953494">
        <ele>1471.63</ele>
        <time>2021-03-27T16:33:59Z</time>
      </trkpt>
      <trkpt lat="40.305414" lon="-4.953355">
        <ele>1471.55</ele>
        <time>2021-03-27T16:34:01Z</time>
      </trkpt>
      <trkpt lat="40.305406" lon="-4.953153">
        <ele>1469.72</ele>
        <time>2021-03-27T16:34:02Z</time>
      </trkpt>
      <trkpt lat="40.305351" lon="-4.952852">
        <ele>1464.23</ele>
        <time>2021-03-27T16:34:03Z</time>
      </trkpt>
      <trkpt lat="40.305312" lon="-4.952387">
        <ele>1461.73</ele>
        <time>2021-03-27T16:34:05Z</time>
      </trkpt>
      <trkpt lat="40.305236" lon="-4.951851">
        <ele>1461.76</ele>
        <time>2021-03-27T16:34:06Z</time>
      </trkpt>
      <trkpt lat="40.305198" lon="-4.951624">
        <ele>1460.96</ele>
        <time>2021-03-27T16:34:07Z</time>
      </trkpt>
      <trkpt lat="40.30511" lon="-4.951269">
        <ele>1455.75</ele>
        <time>2021-03-27T16:34:09Z</time>
      </trkpt>
      <trkpt lat="40.305091" lon="-4.951105">
        <ele>1454.55</ele>
        <time>2021-03-27T16:34:10Z</time>
      </trkpt>
      <trkpt lat="40.305278" lon="-4.949715">
        <ele>1449.05</ele>
        <time>2021-03-27T16:34:11Z</time>
      </trkpt>
      <trkpt lat="40.30527" lon="-4.949449">
        <ele>1449.61</ele>
        <time>2021-03-27T16:34:13Z</time>
      </trkpt>
      <trkpt lat="40.305243" lon="-4.949353">
        <ele>1449.52</ele>
        <time>2021-03-27T16:34:14Z</time>
      </trkpt>
      <trkpt lat="40.305198" lon="-4.949263">
        <ele>1448.98</ele>
        <time>2021-03-27T16:34:15Z</time>
      </trkpt>
      <trkpt lat="40.30513" lon="-4.949183">
        <ele>1447.91</ele>
        <time>2021-03-27T16:34:17Z</time>
      </trkpt>
      <trkpt lat="40.304807" lon="-4.948975">
        <ele>1443.27</ele>
        <time>2021-03-27T16:34:18Z</time>
      </trkpt>
      <trkpt lat="40.304578" lon="-4.948871">
        <ele>1442.16</ele>
        <time>2021-03-27T16:34:19Z</time>
      </trkpt>
      <trkpt lat="40.304456" lon="-4.948833">
        <ele>1442.52</ele>
        <time>2021-03-27T16:34:21Z</time>
      </trkpt>
      <trkpt lat="40.304364" lon="-4.948829">
        <ele>1441.63</ele>
        <time>2021-03-27T16:34:22Z</time>
      </trkpt>
      <trkpt lat="40.304268" lon="-4.948846">
        <ele>1439.59</ele>
        <time>2021-03-27T16:34:23Z</time>
      </trkpt>
      <trkpt lat="40.303909" lon="-4.94899">
        <ele>1432.34</ele>
        <time>2021-03-27T16:34:25Z</time>
      </trkpt>
      <trkpt lat="40.303794" lon="-4.949012">
        <ele>1430.51</ele>
        <time>2021-03-27T16:34:26Z</time>
      </trkpt>
      <trkpt lat="40.303423" lon="-4.949008">
        <ele>1426.83</ele>
        <time>2021-03-27T16:34:27Z</time>
      </trkpt>
      <trkpt lat="40.303246" lon="-4.948962">
        <ele>1426.04</ele>
        <time>2021-03-27T16:34:29Z</time>
      </trkpt>
      <trkpt lat="40.303069" lon="-4.948845">
        <ele>1427.25</ele>
        <time>2021-03-27T16:34:30Z</time>
      </trkpt>
      <trkpt lat="40.302899" lon="-4.948671">
        <ele>1427.11</ele>
        <time>2021-03-27T16:34:31Z</time>
      </trkpt>
      <trkpt lat="40.302848" lon="-4.94858">
        <ele>1427.42</ele>
        <time>2021-03-27T16:34:33Z</time>
      </trkpt>
      <trkpt lat="40.302811" lon="-4.948486">
        <ele>1427.41</ele>
        <time>2021-03-27T16:34:34Z</time>
      </trkpt>
      <trkpt lat="40.302801" lon="-4.948401">
        <ele>1428.06</ele>
        <time>2021-03-27T16:34:35Z</time>
      </trkpt>
      <trkpt lat="40.302819" lon="-4.948061">
        <ele>1430.75</ele>
        <time>2021-03-27T16:34:37Z</time>
      </trkpt>
      <trkpt lat="40.302806" lon="-4.947863">
        <ele>1431.05</ele>
        <time>2021-03-27T16:34:38Z</time>
      </trkpt>
      <trkpt lat="40.302689" lon="-4.947431">
        <ele>1429.66</ele>
        <time>2021-03-27T16:34:39Z</time>
      </trkpt>
      <trkpt lat="40.302478" lon="-4.946826">
        <ele>1424.4</ele>
        <time>2021-03-27T16:34:41Z</time>
      </trkpt>
      <trkpt lat="40.302441" lon="-4.946658">
        <ele>1422.02</ele>
        <time>2021-03-27T16:34:42Z</time>
      </trkpt>
      <trkpt lat="40.302353" lon="-4.94579">
        <ele>1415.73</ele>
        <time>2021-03-27T16:34:43Z</time>
      </trkpt>
      <trkpt lat="40.302338" lon="-4.945483">
        <ele>1415.1</ele>
        <time>2021-03-27T16:34:45Z</time>
      </trkpt>
      <trkpt lat="40.30236" lon="-4.944938">
        <ele>1410.44</ele>
        <time>2021-03-27T16:34:46Z</time>
      </trkpt>
      <trkpt lat="40.302498" lon="-4.944131">
        <ele>1418.03</ele>
        <time>2021-03-27T16:34:47Z</time>
      </trkpt>
      <trkpt lat="40.302495" lon="-4.944048">
        <ele>1417.4</ele>
        <time>2021-03-27T16:34:49Z</time>
      </trkpt>
      <trkpt lat="40.302448" lon="-4.943932">
        <ele>1416.46</ele>
        <time>2021-03-27T16:34:50Z</time>
      </trkpt>
      <trkpt lat="40.302328" lon="-4.943823">
        <ele>1413.32</ele>
        <time>2021-03-27T16:34:51Z</time>
      </trkpt>
      <trkpt lat="40.302234" lon="-4.943808">
        <ele>1410.32</ele>
        <time>2021-03-27T16:34:53Z</time>
      </trkpt>
      <trkpt lat="40.301456" lon="-4.943952">
        <ele>1392.77</ele>
        <time>2021-03-27T16:34:54Z</time>
      </trkpt>
      <trkpt lat="40.301292" lon="-4.943913">
        <ele>1390.48</ele>
        <time>2021-03-27T16:34:55Z</time>
      </trkpt>
      <trkpt lat="40.301222" lon="-4.943851">
        <ele>1390.26</ele>
        <time>2021-03-27T16:34:57Z</time>
      </trkpt>
      <trkpt lat="40.301166" lon="-4.943772">
        <ele>1390.67</ele>
        <time>2021-03-27T16:34:58Z</time>
      </trkpt>
      <trkpt lat="40.30103" lon="-4.943435">
        <ele>1393.87</ele>
        <time>2021-03-27T16:34:59Z</time>
      </trkpt>
      <trkpt lat="40.30094" lon="-4.94316">
        <ele>1396.83</ele>
        <time>2021-03-27T16:35:01Z</time>
      </trkpt>
      <trkpt lat="40.300847" lon="-4.942991">
        <ele>1397.16</ele>
        <time>2021-03-27T16:35:02Z</time>
      </trkpt>
      <trkpt lat="40.300709" lon="-4.942889">
        <ele>1392.91</ele>
        <time>2021-03-27T16:35:03Z</time>
      </trkpt>
      <trkpt lat="40.300521" lon="-4.942814">
        <ele>1385.4</ele>
        <time>2021-03-27T16:35:05Z</time>
      </trkpt>
      <trkpt lat="40.300447" lon="-4.942712">
        <ele>1383.72</ele>
        <time>2021-03-27T16:35:06Z</time>
      </trkpt>
      <trkpt lat="40.300428" lon="-4.942636">
        <ele>1384.13</ele>
        <time>2021-03-27T16:35:08Z</time>
      </trkpt>
      <trkpt lat="40.300431" lon="-4.942544">
        <ele>1385.94</ele>
        <time>2021-03-27T16:35:09Z</time>
      </trkpt>
      <trkpt lat="40.300488" lon="-4.942249">
        <ele>1393.64</ele>
        <time>2021-03-27T16:35:10Z</time>
      </trkpt>
      <trkpt lat="40.300504" lon="-4.942043">
        <ele>1394.62</ele>
        <time>2021-03-27T16:35:12Z</time>
      </trkpt>
      <trkpt lat="40.30047" lon="-4.941925">
        <ele>1393.61</ele>
        <time>2021-03-27T16:35:13Z</time>
      </trkpt>
      <trkpt lat="40.30038" lon="-4.941833">
        <ele>1392.67</ele>
        <time>2021-03-27T16:35:14Z</time>
      </trkpt>
      <trkpt lat="40.300292" lon="-4.9418">
        <ele>1391.99</ele>
        <time>2021-03-27T16:35:16Z</time>
      </trkpt>
      <trkpt lat="40.300218" lon="-4.94182">
        <ele>1391.37</ele>
        <time>2021-03-27T16:35:17Z</time>
      </trkpt>
      <trkpt lat="40.299966" lon="-4.942124">
        <ele>1389.22</ele>
        <time>2021-03-27T16:35:18Z</time>
      </trkpt>
      <trkpt lat="40.299888" lon="-4.942164">
        <ele>1390.57</ele>
        <time>2021-03-27T16:35:20Z</time>
      </trkpt>
      <trkpt lat="40.299687" lon="-4.942205">
        <ele>1396.31</ele>
        <time>2021-03-27T16:35:21Z</time>
      </trkpt>
      <trkpt lat="40.299593" lon="-4.942256">
        <ele>1396.9</ele>
        <time>2021-03-27T16:35:22Z</time>
      </trkpt>
      <trkpt lat="40.299546" lon="-4.94237">
        <ele>1397.57</ele>
        <time>2021-03-27T16:35:24Z</time>
      </trkpt>
      <trkpt lat="40.299559" lon="-4.942687">
        <ele>1391.26</ele>
        <time>2021-03-27T16:35:25Z</time>
      </trkpt>
      <trkpt lat="40.299522" lon="-4.943495">
        <ele>1379.46</ele>
        <time>2021-03-27T16:35:26Z</time>
      </trkpt>
      <trkpt lat="40.299481" lon="-4.943719">
        <ele>1378.07</ele>
        <time>2021-03-27T16:35:28Z</time>
      </trkpt>
      <trkpt lat="40.299402" lon="-4.943936">
        <ele>1380.97</ele>
        <time>2021-03-27T16:35:29Z</time>
      </trkpt>
      <trkpt lat="40.299087" lon="-4.944673">
        <ele>1372.92</ele>
        <time>2021-03-27T16:35:30Z</time>
      </trkpt>
      <trkpt lat="40.298939" lon="-4.944977">
        <ele>1369.8</ele>
        <time>2021-03-27T16:35:32Z</time>
      </trkpt>
      <trkpt lat="40.298853" lon="-4.945104">
        <ele>1369.36</ele>
        <time>2021-03-27T16:35:33Z</time>
      </trkpt>
      <trkpt lat="40.298714" lon="-4.945239">
        <ele>1370.49</ele>
        <time>2021-03-27T16:35:34Z</time>
      </trkpt>
      <trkpt lat="40.298473" lon="-4.945329">
        <ele>1375.98</ele>
        <time>2021-03-27T16:35:36Z</time>
      </trkpt>
      <trkpt lat="40.298357" lon="-4.945443">
        <ele>1376.48</ele>
        <time>2021-03-27T16:35:37Z</time>
      </trkpt>
      <trkpt lat="40.298308" lon="-4.945532">
        <ele>1375.01</ele>
        <time>2021-03-27T16:35:38Z</time>
      </trkpt>
      <trkpt lat="40.298216" lon="-4.945788">
        <ele>1369.33</ele>
        <time>2021-03-27T16:35:40Z</time>
      </trkpt>
      <trkpt lat="40.298158" lon="-4.945905">
        <ele>1367.5</ele>
        <time>2021-03-27T16:35:41Z</time>
      </trkpt>
      <trkpt lat="40.298047" lon="-4.946063">
        <ele>1366.06</ele>
        <time>2021-03-27T16:35:42Z</time>
      </trkpt>
      <trkpt lat="40.297896" lon="-4.946194">
        <ele>1363.69</ele>
        <time>2021-03-27T16:35:44Z</time>
      </trkpt>
      <trkpt lat="40.297819" lon="-4.946218">
        <ele>1363.74</ele>
        <time>2021-03-27T16:35:45Z</time>
      </trkpt>
      <trkpt lat="40.297733" lon="-4.946215">
        <ele>1363.44</ele>
        <time>2021-03-27T16:35:46Z</time>
      </trkpt>
      <trkpt lat="40.297588" lon="-4.946141">
        <ele>1362.19</ele>
        <time>2021-03-27T16:35:48Z</time>
      </trkpt>
      <trkpt lat="40.297527" lon="-4.946068">
        <ele>1362.13</ele>
        <time>2021-03-27T16:35:49Z</time>
      </trkpt>
      <trkpt lat="40.297432" lon="-4.945853">
        <ele>1362.77</ele>
        <time>2021-03-27T16:35:50Z</time>
      </trkpt>
      <trkpt lat="40.297251" lon="-4.945213">
        <ele>1367.54</ele>
        <time>2021-03-27T16:35:52Z</time>
      </trkpt>
      <trkpt lat="40.297219" lon="-4.945154">
        <ele>1367.5</ele>
        <time>2021-03-27T16:35:53Z</time>
      </trkpt>
      <trkpt lat="40.297174" lon="-4.945118">
        <ele>1367.47</ele>
        <time>2021-03-27T16:35:54Z</time>
      </trkpt>
      <trkpt lat="40.297119" lon="-4.945103">
        <ele>1367.44</ele>
        <time>2021-03-27T16:35:56Z</time>
      </trkpt>
      <trkpt lat="40.296997" lon="-4.945124">
        <ele>1367.38</ele>
        <time>2021-03-27T16:35:57Z</time>
      </trkpt>
      <trkpt lat="40.296948" lon="-4.945185">
        <ele>1367.34</ele>
        <time>2021-03-27T16:35:58Z</time>
      </trkpt>
      <trkpt lat="40.296777" lon="-4.945687">
        <ele>1358.12</ele>
        <time>2021-03-27T16:36:00Z</time>
      </trkpt>
      <trkpt lat="40.296653" lon="-4.945889">
        <ele>1353.27</ele>
        <time>2021-03-27T16:36:01Z</time>
      </trkpt>
      <trkpt lat="40.296409" lon="-4.946127">
        <ele>1350.04</ele>
        <time>2021-03-27T16:36:02Z</time>
      </trkpt>
      <trkpt lat="40.296086" lon="-4.946365">
        <ele>1349.33</ele>
        <time>2021-03-27T16:36:04Z</time>
      </trkpt>
      <trkpt lat="40.294902" lon="-4.946791">
        <ele>1345.8</ele>
        <time>2021-03-27T16:36:05Z</time>
      </trkpt>
      <trkpt lat="40.294206" lon="-4.947006">
        <ele>1338.95</ele>
        <time>2021-03-27T16:36:06Z</time>
      </trkpt>
      <trkpt lat="40.294105" lon="-4.947003">
        <ele>1337.23</ele>
        <time>2021-03-27T16:36:08Z</time>
      </trkpt>
      <trkpt lat="40.293972" lon="-4.946944">
        <ele>1335.12</ele>
        <time>2021-03-27T16:36:09Z</time>
      </trkpt>
      <trkpt lat="40.293751" lon="-4.946704">
        <ele>1338.43</ele>
        <time>2021-03-27T16:36:10Z</time>
      </trkpt>
      <trkpt lat="40.293659" lon="-4.946629">
        <ele>1339.09</ele>
        <time>2021-03-27T16:36:12Z</time>
      </trkpt>
      <trkpt lat="40.293594" lon="-4.946604">
        <ele>1339.15</ele>
        <time>2021-03-27T16:36:13Z</time>
      </trkpt>
      <trkpt lat="40.293523" lon="-4.946616">
        <ele>1339.37</ele>
        <time>2021-03-27T16:36:14Z</time>
      </trkpt>
      <trkpt lat="40.29343" lon="-4.946692">
        <ele>1338.32</ele>
        <time>2021-03-27T16:36:16Z</time>
      </trkpt>
      <trkpt lat="40.293395" lon="-4.946772">
        <ele>1336.66</ele>
        <time>2021-03-27T16:36:17Z</time>
      </trkpt>
      <trkpt lat="40.293294" lon="-4.947163">
        <ele>1328.84</ele>
        <time>2021-03-27T16:36:18Z</time>
      </trkpt>
      <trkpt lat="40.293245" lon="-4.94724">
        <ele>1327.98</ele>
        <time>2021-03-27T16:36:20Z</time>
      </trkpt>
      <trkpt lat="40.293175" lon="-4.947304">
        <ele>1327.92</ele>
        <time>2021-03-27T16:36:21Z</time>
      </trkpt>
      <trkpt lat="40.293049" lon="-4.947334">
        <ele>1329.02</ele>
        <time>2021-03-27T16:36:22Z</time>
      </trkpt>
      <trkpt lat="40.292866" lon="-4.947278">
        <ele>1330.44</ele>
        <time>2021-03-27T16:36:24Z</time>
      </trkpt>
      <trkpt lat="40.292744" lon="-4.947301">
        <ele>1331.2</ele>
        <time>2021-03-27T16:36:25Z</time>
      </trkpt>
      <trkpt lat="40.292679" lon="-4.947353">
        <ele>1331.72</ele>
        <time>2021-03-27T16:36:26Z</time>
      </trkpt>
      <trkpt lat="40.292633" lon="-4.947424">
        <ele>1332.3</ele>
        <time>2021-03-27T16:36:28Z</time>
      </trkpt>
      <trkpt lat="40.292576" lon="-4.947564">
        <ele>1331.36</ele>
        <time>2021-03-27T16:36:29Z</time>
      </trkpt>
      <trkpt lat="40.292558" lon="-4.947713">
        <ele>1330.36</ele>
        <time>2021-03-27T16:36:30Z</time>
      </trkpt>
      <trkpt lat="40.292562" lon="-4.947837">
        <ele>1329.46</ele>
        <time>2021-03-27T16:36:32Z</time>
      </trkpt>
      <trkpt lat="40.292612" lon="-4.948042">
        <ele>1326.8</ele>
        <time>2021-03-27T16:36:33Z</time>
      </trkpt>
      <trkpt lat="40.292813" lon="-4.948486">
        <ele>1320.6</ele>
        <time>2021-03-27T16:36:34Z</time>
      </trkpt>
      <trkpt lat="40.292849" lon="-4.948596">
        <ele>1318.94</ele>
        <time>2021-03-27T16:36:36Z</time>
      </trkpt>
      <trkpt lat="40.292864" lon="-4.948677">
        <ele>1318.08</ele>
        <time>2021-03-27T16:36:37Z</time>
      </trkpt>
      <trkpt lat="40.292862" lon="-4.948865">
        <ele>1317.71</ele>
        <time>2021-03-27T16:36:38Z</time>
      </trkpt>
      <trkpt lat="40.292665" lon="-4.949683">
        <ele>1318.58</ele>
        <time>2021-03-27T16:36:40Z</time>
      </trkpt>
      <trkpt lat="40.292638" lon="-4.949851">
        <ele>1317.18</ele>
        <time>2021-03-27T16:36:41Z</time>
      </trkpt>
      <trkpt lat="40.292619" lon="-4.95041">
        <ele>1309.84</ele>
        <time>2021-03-27T16:36:42Z</time>
      </trkpt>
      <trkpt lat="40.292595" lon="-4.950567">
        <ele>1309.06</ele>
        <time>2021-03-27T16:36:44Z</time>
      </trkpt>
      <trkpt lat="40.292487" lon="-4.950845">
        <ele>1308.17</ele>
        <time>2021-03-27T16:36:45Z</time>
      </trkpt>
      <trkpt lat="40.292173" lon="-4.951335">
        <ele>1305.2</ele>
        <time>2021-03-27T16:36:46Z</time>
      </trkpt>
      <trkpt lat="40.292072" lon="-4.951445">
        <ele>1303.96</ele>
        <time>2021-03-27T16:36:48Z</time>
      </trkpt>
      <trkpt lat="40.291904" lon="-4.951545">
        <ele>1302.39</ele>
        <time>2021-03-27T16:36:49Z</time>
      </trkpt>
      <trkpt lat="40.29176" lon="-4.95157">
        <ele>1300.99</ele>
        <time>2021-03-27T16:36:50Z</time>
      </trkpt>
      <trkpt lat="40.291574" lon="-4.951543">
        <ele>1299.45</ele>
        <time>2021-03-27T16:36:52Z</time>
      </trkpt>
      <trkpt lat="40.291353" lon="-4.951426">
        <ele>1298.42</ele>
        <time>2021-03-27T16:36:53Z</time>
      </trkpt>
      <trkpt lat="40.291233" lon="-4.951328">
        <ele>1298.62</ele>
        <time>2021-03-27T16:36:54Z</time>
      </trkpt>
      <trkpt lat="40.290852" lon="-4.950932">
        <ele>1299.03</ele>
        <time>2021-03-27T16:36:56Z</time>
      </trkpt>
      <trkpt lat="40.290769" lon="-4.950873">
        <ele>1298.38</ele>
        <time>2021-03-27T16:36:57Z</time>
      </trkpt>
      <trkpt lat="40.290488" lon="-4.950737">
        <ele>1297.26</ele>
        <time>2021-03-27T16:36:58Z</time>
      </trkpt>
      <trkpt lat="40.290323" lon="-4.950616">
        <ele>1299.55</ele>
        <time>2021-03-27T16:37:00Z</time>
      </trkpt>
      <trkpt lat="40.290234" lon="-4.950579">
        <ele>1299.54</ele>
        <time>2021-03-27T16:37:01Z</time>
      </trkpt>
      <trkpt lat="40.290181" lon="-4.950579">
        <ele>1298.8</ele>
        <time>2021-03-27T16:37:02Z</time>
      </trkpt>
      <trkpt lat="40.290128" lon="-4.95061">
        <ele>1297.1</ele>
        <time>2021-03-27T16:37:04Z</time>
      </trkpt>
      <trkpt lat="40.290004" lon="-4.95076">
        <ele>1291.78</ele>
        <time>2021-03-27T16:37:05Z</time>
      </trkpt>
      <trkpt lat="40.289873" lon="-4.951068">
        <ele>1289.79</ele>
        <time>2021-03-27T16:37:07Z</time>
      </trkpt>
      <trkpt lat="40.289629" lon="-4.951507">
        <ele>1287.99</ele>
        <time>2021-03-27T16:37:08Z</time>
      </trkpt>
      <trkpt lat="40.289554" lon="-4.951598">
        <ele>1287.04</ele>
        <time>2021-03-27T16:37:09Z</time>
      </trkpt>
      <trkpt lat="40.289439" lon="-4.951653">
        <ele>1287.24</ele>
        <time>2021-03-27T16:37:11Z</time>
      </trkpt>
      <trkpt lat="40.289321" lon="-4.951635">
        <ele>1285.67</ele>
        <time>2021-03-27T16:37:12Z</time>
      </trkpt>
      <trkpt lat="40.289265" lon="-4.951595">
        <ele>1285.91</ele>
        <time>2021-03-27T16:37:13Z</time>
      </trkpt>
      <trkpt lat="40.288787" lon="-4.951144">
        <ele>1292.36</ele>
        <time>2021-03-27T16:37:15Z</time>
      </trkpt>
      <trkpt lat="40.288669" lon="-4.951112">
        <ele>1291.81</ele>
        <time>2021-03-27T16:37:16Z</time>
      </trkpt>
      <trkpt lat="40.288614" lon="-4.951125">
        <ele>1290.55</ele>
        <time>2021-03-27T16:37:17Z</time>
      </trkpt>
      <trkpt lat="40.288564" lon="-4.951167">
        <ele>1289.49</ele>
        <time>2021-03-27T16:37:19Z</time>
      </trkpt>
      <trkpt lat="40.288504" lon="-4.951279">
        <ele>1286.11</ele>
        <time>2021-03-27T16:37:20Z</time>
      </trkpt>
      <trkpt lat="40.28847" lon="-4.951465">
        <ele>1280.2</ele>
        <time>2021-03-27T16:37:21Z</time>
      </trkpt>
      <trkpt lat="40.28844" lon="-4.951543">
        <ele>1278.07</ele>
        <time>2021-03-27T16:37:23Z</time>
      </trkpt>
      <trkpt lat="40.288327" lon="-4.951696">
        <ele>1274.35</ele>
        <time>2021-03-27T16:37:24Z</time>
      </trkpt>
      <trkpt lat="40.287657" lon="-4.952167">
        <ele>1277.43</ele>
        <time>2021-03-27T16:37:25Z</time>
      </trkpt>
      <trkpt lat="40.287512" lon="-4.952312">
        <ele>1279.83</ele>
        <time>2021-03-27T16:37:27Z</time>
      </trkpt>
      <trkpt lat="40.287469" lon="-4.952392">
        <ele>1280.84</ele>
        <time>2021-03-27T16:37:28Z</time>
      </trkpt>
      <trkpt lat="40.287212" lon="-4.953178">
        <ele>1283.07</ele>
        <time>2021-03-27T16:37:29Z</time>
      </trkpt>
      <trkpt lat="40.28703" lon="-4.953659">
        <ele>1272.52</ele>
        <time>2021-03-27T16:37:31Z</time>
      </trkpt>
      <trkpt lat="40.286949" lon="-4.953798">
        <ele>1271.13</ele>
        <time>2021-03-27T16:37:32Z</time>
      </trkpt>
      <trkpt lat="40.286835" lon="-4.95386">
        <ele>1269.73</ele>
        <time>2021-03-27T16:37:33Z</time>
      </trkpt>
      <trkpt lat="40.286771" lon="-4.953867">
        <ele>1269.93</ele>
        <time>2021-03-27T16:37:35Z</time>
      </trkpt>
      <trkpt lat="40.286637" lon="-4.95383">
        <ele>1270.96</ele>
        <time>2021-03-27T16:37:36Z</time>
      </trkpt>
      <trkpt lat="40.286289" lon="-4.953625">
        <ele>1268.34</ele>
        <time>2021-03-27T16:37:37Z</time>
      </trkpt>
      <trkpt lat="40.285591" lon="-4.953284">
        <ele>1270.52</ele>
        <time>2021-03-27T16:37:39Z</time>
      </trkpt>
      <trkpt lat="40.285355" lon="-4.953242">
        <ele>1270.58</ele>
        <time>2021-03-27T16:37:40Z</time>
      </trkpt>
      <trkpt lat="40.285155" lon="-4.953245">
        <ele>1270.95</ele>
        <time>2021-03-27T16:37:41Z</time>
      </trkpt>
      <trkpt lat="40.285015" lon="-4.9533">
        <ele>1270.11</ele>
        <time>2021-03-27T16:37:43Z</time>
      </trkpt>
      <trkpt lat="40.284966" lon="-4.953352">
        <ele>1269.41</ele>
        <time>2021-03-27T16:37:44Z</time>
      </trkpt>
      <trkpt lat="40.284774" lon="-4.953764">
        <ele>1265.24</ele>
        <time>2021-03-27T16:37:45Z</time>
      </trkpt>
      <trkpt lat="40.284706" lon="-4.953854">
        <ele>1265.2</ele>
        <time>2021-03-27T16:37:47Z</time>
      </trkpt>
      <trkpt lat="40.284592" lon="-4.953958">
        <ele>1263.05</ele>
        <time>2021-03-27T16:37:48Z</time>
      </trkpt>
      <trkpt lat="40.284454" lon="-4.953997">
        <ele>1263.02</ele>
        <time>2021-03-27T16:37:49Z</time>
      </trkpt>
      <trkpt lat="40.284085" lon="-4.953935">
        <ele>1263.6</ele>
        <time>2021-03-27T16:37:51Z</time>
      </trkpt>
      <trkpt lat="40.28369" lon="-4.953841">
        <ele>1259.03</ele>
        <time>2021-03-27T16:37:52Z</time>
      </trkpt>
      <trkpt lat="40.283201" lon="-4.953822">
        <ele>1257.41</ele>
        <time>2021-03-27T16:37:53Z</time>
      </trkpt>
      <trkpt lat="40.283053" lon="-4.9538">
        <ele>1254.42</ele>
        <time>2021-03-27T16:37:55Z</time>
      </trkpt>
      <trkpt lat="40.282935" lon="-4.953723">
        <ele>1255.24</ele>
        <time>2021-03-27T16:37:56Z</time>
      </trkpt>
      <trkpt lat="40.282677" lon="-4.953444">
        <ele>1265.49</ele>
        <time>2021-03-27T16:37:57Z</time>
      </trkpt>
      <trkpt lat="40.282571" lon="-4.953354">
        <ele>1268.77</ele>
        <time>2021-03-27T16:37:59Z</time>
      </trkpt>
      <trkpt lat="40.282513" lon="-4.953331">
        <ele>1269.23</ele>
        <time>2021-03-27T16:38:00Z</time>
      </trkpt>
      <trkpt lat="40.282392" lon="-4.953355">
        <ele>1268.39</ele>
        <time>2021-03-27T16:38:01Z</time>
      </trkpt>
      <trkpt lat="40.282334" lon="-4.953396">
        <ele>1266.66</ele>
        <time>2021-03-27T16:38:03Z</time>
      </trkpt>
      <trkpt lat="40.282214" lon="-4.953605">
        <ele>1257.6</ele>
        <time>2021-03-27T16:38:04Z</time>
      </trkpt>
      <trkpt lat="40.282115" lon="-4.953715">
        <ele>1258.02</ele>
        <time>2021-03-27T16:38:05Z</time>
      </trkpt>
      <trkpt lat="40.281866" lon="-4.953897">
        <ele>1259.24</ele>
        <time>2021-03-27T16:38:07Z</time>
      </trkpt>
      <trkpt lat="40.281776" lon="-4.953936">
        <ele>1260.84</ele>
        <time>2021-03-27T16:38:08Z</time>
      </trkpt>
      <trkpt lat="40.281559" lon="-4.953948">
        <ele>1268.71</ele>
        <time>2021-03-27T16:38:09Z</time>
      </trkpt>
      <trkpt lat="40.281444" lon="-4.953982">
        <ele>1272.78</ele>
        <time>2021-03-27T16:38:11Z</time>
      </trkpt>
      <trkpt lat="40.281354" lon="-4.95409">
        <ele>1273.41</ele>
        <time>2021-03-27T16:38:12Z</time>
      </trkpt>
      <trkpt lat="40.281327" lon="-4.95416">
        <ele>1272.41</ele>
        <time>2021-03-27T16:38:13Z</time>
      </trkpt>
      <trkpt lat="40.28132" lon="-4.954293">
        <ele>1269.99</ele>
        <time>2021-03-27T16:38:15Z</time>
      </trkpt>
      <trkpt lat="40.281483" lon="-4.955273">
        <ele>1254.52</ele>
        <time>2021-03-27T16:38:16Z</time>
      </trkpt>
      <trkpt lat="40.281515" lon="-4.955684">
        <ele>1252.9</ele>
        <time>2021-03-27T16:38:17Z</time>
      </trkpt>
      <trkpt lat="40.281498" lon="-4.956005">
        <ele>1252.07</ele>
        <time>2021-03-27T16:38:19Z</time>
      </trkpt>
      <trkpt lat="40.281351" lon="-4.95679">
        <ele>1249.9</ele>
        <time>2021-03-27T16:38:20Z</time>
      </trkpt>
      <trkpt lat="40.28122" lon="-4.957624">
        <ele>1245.63</ele>
        <time>2021-03-27T16:38:21Z</time>
      </trkpt>
      <trkpt lat="40.28109" lon="-4.958266">
        <ele>1239.94</ele>
        <time>2021-03-27T16:38:23Z</time>
      </trkpt>
      <trkpt lat="40.280798" lon="-4.959232">
        <ele>1233.92</ele>
        <time>2021-03-27T16:38:24Z</time>
      </trkpt>
      <trkpt lat="40.280637" lon="-4.959524">
        <ele>1231.86</ele>
        <time>2021-03-27T16:38:25Z</time>
      </trkpt>
      <trkpt lat="40.280258" lon="-4.959937">
        <ele>1227.8</ele>
        <time>2021-03-27T16:38:27Z</time>
      </trkpt>
      <trkpt lat="40.280063" lon="-4.960117">
        <ele>1224.61</ele>
        <time>2021-03-27T16:38:28Z</time>
      </trkpt>
      <trkpt lat="40.279974" lon="-4.960163">
        <ele>1223.65</ele>
        <time>2021-03-27T16:38:29Z</time>
      </trkpt>
      <trkpt lat="40.279902" lon="-4.960178">
        <ele>1223.01</ele>
        <time>2021-03-27T16:38:31Z</time>
      </trkpt>
      <trkpt lat="40.279765" lon="-4.960154">
        <ele>1223.53</ele>
        <time>2021-03-27T16:38:32Z</time>
      </trkpt>
      <trkpt lat="40.279562" lon="-4.96002">
        <ele>1221.93</ele>
        <time>2021-03-27T16:38:33Z</time>
      </trkpt>
      <trkpt lat="40.279393" lon="-4.959815">
        <ele>1221.35</ele>
        <time>2021-03-27T16:38:35Z</time>
      </trkpt>
      <trkpt lat="40.278943" lon="-4.959033">
        <ele>1220.25</ele>
        <time>2021-03-27T16:38:36Z</time>
      </trkpt>
      <trkpt lat="40.278744" lon="-4.958745">
        <ele>1220.37</ele>
        <time>2021-03-27T16:38:37Z</time>
      </trkpt>
      <trkpt lat="40.278444" lon="-4.958449">
        <ele>1216.85</ele>
        <time>2021-03-27T16:38:39Z</time>
      </trkpt>
      <trkpt lat="40.278172" lon="-4.958116">
        <ele>1217.1</ele>
        <time>2021-03-27T16:38:40Z</time>
      </trkpt>
      <trkpt lat="40.278094" lon="-4.958058">
        <ele>1215.7</ele>
        <time>2021-03-27T16:38:41Z</time>
      </trkpt>
      <trkpt lat="40.278017" lon="-4.958033">
        <ele>1214.48</ele>
        <time>2021-03-27T16:38:43Z</time>
      </trkpt>
      <trkpt lat="40.277833" lon="-4.958061">
        <ele>1209.76</ele>
        <time>2021-03-27T16:38:44Z</time>
      </trkpt>
      <trkpt lat="40.277719" lon="-4.958134">
        <ele>1207.46</ele>
        <time>2021-03-27T16:38:45Z</time>
      </trkpt>
      <trkpt lat="40.27766" lon="-4.958212">
        <ele>1206.01</ele>
        <time>2021-03-27T16:38:47Z</time>
      </trkpt>
      <trkpt lat="40.277404" lon="-4.958721">
        <ele>1201.72</ele>
        <time>2021-03-27T16:38:48Z</time>
      </trkpt>
      <trkpt lat="40.277156" lon="-4.959366">
        <ele>1199.31</ele>
        <time>2021-03-27T16:38:49Z</time>
      </trkpt>
      <trkpt lat="40.277089" lon="-4.959481">
        <ele>1197.97</ele>
        <time>2021-03-27T16:38:51Z</time>
      </trkpt>
      <trkpt lat="40.276958" lon="-4.959614">
        <ele>1196.86</ele>
        <time>2021-03-27T16:38:52Z</time>
      </trkpt>
      <trkpt lat="40.276787" lon="-4.959711">
        <ele>1197.17</ele>
        <time>2021-03-27T16:38:53Z</time>
      </trkpt>
      <trkpt lat="40.275792" lon="-4.960083">
        <ele>1194.55</ele>
        <time>2021-03-27T16:38:55Z</time>
      </trkpt>
      <trkpt lat="40.275478" lon="-4.960274">
        <ele>1194.61</ele>
        <time>2021-03-27T16:38:56Z</time>
      </trkpt>
      <trkpt lat="40.275341" lon="-4.960396">
        <ele>1194.54</ele>
        <time>2021-03-27T16:38:57Z</time>
      </trkpt>
      <trkpt lat="40.274684" lon="-4.961167">
        <ele>1181.63</ele>
        <time>2021-03-27T16:38:59Z</time>
      </trkpt>
      <trkpt lat="40.274581" lon="-4.961231">
        <ele>1180.25</ele>
        <time>2021-03-27T16:39:00Z</time>
      </trkpt>
      <trkpt lat="40.274477" lon="-4.961271">
        <ele>1179.3</ele>
        <time>2021-03-27T16:39:01Z</time>
      </trkpt>
      <trkpt lat="40.274384" lon="-4.961282">
        <ele>1178.34</ele>
        <time>2021-03-27T16:39:03Z</time>
      </trkpt>
      <trkpt lat="40.274143" lon="-4.96128">
        <ele>1175.76</ele>
        <time>2021-03-27T16:39:04Z</time>
      </trkpt>
      <trkpt lat="40.27346" lon="-4.961133">
        <ele>1176.44</ele>
        <time>2021-03-27T16:39:05Z</time>
      </trkpt>
      <trkpt lat="40.273209" lon="-4.961147">
        <ele>1181.73</ele>
        <time>2021-03-27T16:39:07Z</time>
      </trkpt>
      <trkpt lat="40.273064" lon="-4.961214">
        <ele>1183.01</ele>
        <time>2021-03-27T16:39:08Z</time>
      </trkpt>
      <trkpt lat="40.272932" lon="-4.961349">
        <ele>1178.62</ele>
        <time>2021-03-27T16:39:10Z</time>
      </trkpt>
      <trkpt lat="40.271118" lon="-4.963904">
        <ele>1154.4</ele>
        <time>2021-03-27T16:39:11Z</time>
      </trkpt>
      <trkpt lat="40.270926" lon="-4.964052">
        <ele>1152.2</ele>
        <time>2021-03-27T16:39:12Z</time>
      </trkpt>
      <trkpt lat="40.270801" lon="-4.964096">
        <ele>1152.12</ele>
        <time>2021-03-27T16:39:14Z</time>
      </trkpt>
      <trkpt lat="40.269456" lon="-4.964233">
        <ele>1146.45</ele>
        <time>2021-03-27T16:39:15Z</time>
      </trkpt>
      <trkpt lat="40.269293" lon="-4.96427">
        <ele>1145.2</ele>
        <time>2021-03-27T16:39:16Z</time>
      </trkpt>
      <trkpt lat="40.269157" lon="-4.964328">
        <ele>1143.44</ele>
        <time>2021-03-27T16:39:18Z</time>
      </trkpt>
      <trkpt lat="40.268851" lon="-4.964532">
        <ele>1139.1</ele>
        <time>2021-03-27T16:39:19Z</time>
      </trkpt>
      <trkpt lat="40.268744" lon="-4.964578">
        <ele>1138.22</ele>
        <time>2021-03-27T16:39:20Z</time>
      </trkpt>
      <trkpt lat="40.268589" lon="-4.964585">
        <ele>1138.49</ele>
        <time>2021-03-27T16:39:22Z</time>
      </trkpt>
      <trkpt lat="40.268523" lon="-4.964568">
        <ele>1137.77</ele>
        <time>2021-03-27T16:39:23Z</time>
      </trkpt>
      <trkpt lat="40.268411" lon="-4.964474">
        <ele>1138.12</ele>
        <time>2021-03-27T16:39:24Z</time>
      </trkpt>
      <trkpt lat="40.268083" lon="-4.963947">
        <ele>1137.93</ele>
        <time>2021-03-27T16:39:26Z</time>
      </trkpt>
      <trkpt lat="40.267941" lon="-4.963689">
        <ele>1138.71</ele>
        <time>2021-03-27T16:39:27Z</time>
      </trkpt>
      <trkpt lat="40.267881" lon="-4.963547">
        <ele>1139.0</ele>
        <time>2021-03-27T16:39:28Z</time>
      </trkpt>
      <trkpt lat="40.267844" lon="-4.963355">
        <ele>1139.44</ele>
        <time>2021-03-27T16:39:30Z</time>
      </trkpt>
      <trkpt lat="40.267956" lon="-4.962453">
        <ele>1144.69</ele>
        <time>2021-03-27T16:39:31Z</time>
      </trkpt>
      <trkpt lat="40.267953" lon="-4.962354">
        <ele>1144.11</ele>
        <time>2021-03-27T16:39:32Z</time>
      </trkpt>
      <trkpt lat="40.267855" lon="-4.962151">
        <ele>1140.83</ele>
        <time>2021-03-27T16:39:34Z</time>
      </trkpt>
      <trkpt lat="40.26779" lon="-4.962099">
        <ele>1139.55</ele>
        <time>2021-03-27T16:39:35Z</time>
      </trkpt>
      <trkpt lat="40.267717" lon="-4.962081">
        <ele>1139.01</ele>
        <time>2021-03-27T16:39:36Z</time>
      </trkpt>
      <trkpt lat="40.267177" lon="-4.962235">
        <ele>1135.55</ele>
        <time>2021-03-27T16:39:38Z</time>
      </trkpt>
      <trkpt lat="40.267083" lon="-4.962295">
        <ele>1133.38</ele>
        <time>2021-03-27T16:39:39Z</time>
      </trkpt>
      <trkpt lat="40.266814" lon="-4.962533">
        <ele>1125.75</ele>
        <time>2021-03-27T16:39:40Z</time>
      </trkpt>
      <trkpt lat="40.266746" lon="-4.96258">
        <ele>1124.42</ele>
        <time>2021-03-27T16:39:42Z</time>
      </trkpt>
      <trkpt lat="40.266624" lon="-4.962615">
        <ele>1123.07</ele>
        <time>2021-03-27T16:39:43Z</time>
      </trkpt>
      <trkpt lat="40.266554" lon="-4.962595">
        <ele>1123.04</ele>
        <time>2021-03-27T16:39:44Z</time>
      </trkpt>
      <trkpt lat="40.266082" lon="-4.962306">
        <ele>1122.83</ele>
        <time>2021-03-27T16:39:46Z</time>
      </trkpt>
      <trkpt lat="40.265985" lon="-4.962283">
        <ele>1123.37</ele>
        <time>2021-03-27T16:39:47Z</time>
      </trkpt>
      <trkpt lat="40.265847" lon="-4.962301">
        <ele>1123.27</ele>
        <time>2021-03-27T16:39:48Z</time>
      </trkpt>
      <trkpt lat="40.265587" lon="-4.962375">
        <ele>1122.01</ele>
        <time>2021-03-27T16:39:50Z</time>
      </trkpt>
      <trkpt lat="40.265271" lon="-4.962505">
        <ele>1119.98</ele>
        <time>2021-03-27T16:39:51Z</time>
      </trkpt>
      <trkpt lat="40.264916" lon="-4.962681">
        <ele>1120.66</ele>
        <time>2021-03-27T16:39:52Z</time>
      </trkpt>
      <trkpt lat="40.264218" lon="-4.96315">
        <ele>1114.38</ele>
        <time>2021-03-27T16:39:54Z</time>
      </trkpt>
      <trkpt lat="40.263983" lon="-4.963349">
        <ele>1114.42</ele>
        <time>2021-03-27T16:39:55Z</time>
      </trkpt>
      <trkpt lat="40.263318" lon="-4.964189">
        <ele>1107.44</ele>
        <time>2021-03-27T16:39:56Z</time>
      </trkpt>
      <trkpt lat="40.262147" lon="-4.965224">
        <ele>1100.07</ele>
        <time>2021-03-27T16:39:58Z</time>
      </trkpt>
      <trkpt lat="40.262073" lon="-4.965283">
        <ele>1098.36</ele>
        <time>2021-03-27T16:39:59Z</time>
      </trkpt>
      <trkpt lat="40.261976" lon="-4.965328">
        <ele>1097.16</ele>
        <time>2021-03-27T16:40:00Z</time>
      </trkpt>
      <trkpt lat="40.261825" lon="-4.965334">
        <ele>1096.37</ele>
        <time>2021-03-27T16:40:02Z</time>
      </trkpt>
      <trkpt lat="40.261725" lon="-4.96529">
        <ele>1096.91</ele>
        <time>2021-03-27T16:40:03Z</time>
      </trkpt>
      <trkpt lat="40.261322" lon="-4.965032">
        <ele>1096.17</ele>
        <time>2021-03-27T16:40:04Z</time>
      </trkpt>
      <trkpt lat="40.261071" lon="-4.964813">
        <ele>1093.81</ele>
        <time>2021-03-27T16:40:06Z</time>
      </trkpt>
      <trkpt lat="40.260893" lon="-4.964533">
        <ele>1091.73</ele>
        <time>2021-03-27T16:40:07Z</time>
      </trkpt>
      <trkpt lat="40.260838" lon="-4.96438">
        <ele>1091.97</ele>
        <time>2021-03-27T16:40:08Z</time>
      </trkpt>
      <trkpt lat="40.260795" lon="-4.964187">
        <ele>1090.95</ele>
        <time>2021-03-27T16:40:10Z</time>
      </trkpt>
      <trkpt lat="40.260732" lon="-4.963815">
        <ele>1092.89</ele>
        <time>2021-03-27T16:40:11Z</time>
      </trkpt>
      <trkpt lat="40.260637" lon="-4.963635">
        <ele>1090.65</ele>
        <time>2021-03-27T16:40:12Z</time>
      </trkpt>
      <trkpt lat="40.260199" lon="-4.963291">
        <ele>1088.7</ele>
        <time>2021-03-27T16:40:14Z</time>
      </trkpt>
      <trkpt lat="40.260146" lon="-4.963271">
        <ele>1089.09</ele>
        <time>2021-03-27T16:40:15Z</time>
      </trkpt>
      <trkpt lat="40.260061" lon="-4.963276">
        <ele>1088.77</ele>
        <time>2021-03-27T16:40:16Z</time>
      </trkpt>
      <trkpt lat="40.259993" lon="-4.963304">
        <ele>1087.99</ele>
        <time>2021-03-27T16:40:18Z</time>
      </trkpt>
      <trkpt lat="40.25987" lon="-4.963477">
        <ele>1083.27</ele>
        <time>2021-03-27T16:40:19Z</time>
      </trkpt>
      <trkpt lat="40.259742" lon="-4.963874">
        <ele>1073.04</ele>
        <time>2021-03-27T16:40:20Z</time>
      </trkpt>
      <trkpt lat="40.25967" lon="-4.96397">
        <ele>1073.78</ele>
        <time>2021-03-27T16:40:22Z</time>
      </trkpt>
      <trkpt lat="40.259335" lon="-4.964305">
        <ele>1074.58</ele>
        <time>2021-03-27T16:40:23Z</time>
      </trkpt>
      <trkpt lat="40.259012" lon="-4.964545">
        <ele>1074.52</ele>
        <time>2021-03-27T16:40:24Z</time>
      </trkpt>
      <trkpt lat="40.258954" lon="-4.964607">
        <ele>1074.15</ele>
        <time>2021-03-27T16:40:26Z</time>
      </trkpt>
      <trkpt lat="40.258847" lon="-4.964796">
        <ele>1071.56</ele>
        <time>2021-03-27T16:40:27Z</time>
      </trkpt>
      <trkpt lat="40.258745" lon="-4.965095">
        <ele>1067.11</ele>
        <time>2021-03-27T16:40:28Z</time>
      </trkpt>
      <trkpt lat="40.258496" lon="-4.965366">
        <ele>1071.27</ele>
        <time>2021-03-27T16:40:30Z</time>
      </trkpt>
      <trkpt lat="40.258423" lon="-4.965519">
        <ele>1073.05</ele>
        <time>2021-03-27T16:40:31Z</time>
      </trkpt>
      <trkpt lat="40.258418" lon="-4.965608">
        <ele>1072.32</ele>
        <time>2021-03-27T16:40:32Z</time>
      </trkpt>
      <trkpt lat="40.258435" lon="-4.965709">
        <ele>1070.23</ele>
        <time>2021-03-27T16:40:34Z</time>
      </trkpt>
      <trkpt lat="40.25858" lon="-4.966088">
        <ele>1059.59</ele>
        <time>2021-03-27T16:40:35Z</time>
      </trkpt>
      <trkpt lat="40.258608" lon="-4.966202">
        <ele>1057.49</ele>
        <time>2021-03-27T16:40:36Z</time>
      </trkpt>
      <trkpt lat="40.258597" lon="-4.966838">
        <ele>1056.39</ele>
        <time>2021-03-27T16:40:38Z</time>
      </trkpt>
      <trkpt lat="40.25858" lon="-4.967163">
        <ele>1053.45</ele>
        <time>2021-03-27T16:40:39Z</time>
      </trkpt>
      <trkpt lat="40.25856" lon="-4.967291">
        <ele>1051.24</ele>
        <time>2021-03-27T16:40:40Z</time>
      </trkpt>
      <trkpt lat="40.258484" lon="-4.96747">
        <ele>1048.46</ele>
        <time>2021-03-27T16:40:42Z</time>
      </trkpt>
      <trkpt lat="40.258351" lon="-4.967659">
        <ele>1046.71</ele>
        <time>2021-03-27T16:40:43Z</time>
      </trkpt>
      <trkpt lat="40.258338" lon="-4.96773">
        <ele>1045.15</ele>
        <time>2021-03-27T16:40:44Z</time>
      </trkpt>
      <trkpt lat="40.258344" lon="-4.967808">
        <ele>1043.13</ele>
        <time>2021-03-27T16:40:46Z</time>
      </trkpt>
      <trkpt lat="40.258367" lon="-4.967852">
        <ele>1041.83</ele>
        <time>2021-03-27T16:40:47Z</time>
      </trkpt>
      <trkpt lat="40.258447" lon="-4.967894">
        <ele>1040.19</ele>
        <time>2021-03-27T16:40:48Z</time>
      </trkpt>
      <trkpt lat="40.258538" lon="-4.967847">
        <ele>1040.41</ele>
        <time>2021-03-27T16:40:50Z</time>
      </trkpt>
      <trkpt lat="40.258658" lon="-4.96763">
        <ele>1041.01</ele>
        <time>2021-03-27T16:40:51Z</time>
      </trkpt>
      <trkpt lat="40.258761" lon="-4.967316">
        <ele>1041.72</ele>
        <time>2021-03-27T16:40:52Z</time>
      </trkpt>
      <trkpt lat="40.25901" lon="-4.966292">
        <ele>1037.25</ele>
        <time>2021-03-27T16:40:54Z</time>
      </trkpt>
      <trkpt lat="40.259101" lon="-4.966099">
        <ele>1035.76</ele>
        <time>2021-03-27T16:40:55Z</time>
      </trkpt>
      <trkpt lat="40.259203" lon="-4.965947">
        <ele>1033.84</ele>
        <time>2021-03-27T16:40:56Z</time>
      </trkpt>
      <trkpt lat="40.259392" lon="-4.965715">
        <ele>1031.33</ele>
        <time>2021-03-27T16:40:58Z</time>
      </trkpt>
      <trkpt lat="40.259471" lon="-4.965644">
        <ele>1030.48</ele>
        <time>2021-03-27T16:40:59Z</time>
      </trkpt>
      <trkpt lat="40.259538" lon="-4.965621">
        <ele>1030.73</ele>
        <time>2021-03-27T16:41:00Z</time>
      </trkpt>
      <trkpt lat="40.25961" lon="-4.965631">
        <ele>1030.96</ele>
        <time>2021-03-27T16:41:02Z</time>
      </trkpt>
      <trkpt lat="40.259677" lon="-4.965666">
        <ele>1031.2</ele>
        <time>2021-03-27T16:41:03Z</time>
      </trkpt>
      <trkpt lat="40.259721" lon="-4.965713">
        <ele>1031.43</ele>
        <time>2021-03-27T16:41:04Z</time>
      </trkpt>
      <trkpt lat="40.259765" lon="-4.965847">
        <ele>1031.73</ele>
        <time>2021-03-27T16:41:06Z</time>
      </trkpt>
      <trkpt lat="40.259791" lon="-4.966285">
        <ele>1025.15</ele>
        <time>2021-03-27T16:41:07Z</time>
      </trkpt>
      <trkpt lat="40.259816" lon="-4.966386">
        <ele>1023.76</ele>
        <time>2021-03-27T16:41:09Z</time>
      </trkpt>
      <trkpt lat="40.259851" lon="-4.966481">
        <ele>1022.38</ele>
        <time>2021-03-27T16:41:10Z</time>
      </trkpt>
      <trkpt lat="40.259977" lon="-4.966665">
        <ele>1021.37</ele>
        <time>2021-03-27T16:41:11Z</time>
      </trkpt>
      <trkpt lat="40.260057" lon="-4.966747">
        <ele>1021.06</ele>
        <time>2021-03-27T16:41:13Z</time>
      </trkpt>
      <trkpt lat="40.260857" lon="-4.967343">
        <ele>1019.95</ele>
        <time>2021-03-27T16:41:14Z</time>
      </trkpt>
      <trkpt lat="40.26106" lon="-4.967605">
        <ele>1016.8</ele>
        <time>2021-03-27T16:41:15Z</time>
      </trkpt>
      <trkpt lat="40.261157" lon="-4.9677">
        <ele>1014.53</ele>
        <time>2021-03-27T16:41:17Z</time>
      </trkpt>
      <trkpt lat="40.261817" lon="-4.968135">
        <ele>1003.12</ele>
        <time>2021-03-27T16:41:18Z</time>
      </trkpt>
      <trkpt lat="40.261985" lon="-4.968232">
        <ele>1000.87</ele>
        <time>2021-03-27T16:41:19Z</time>
      </trkpt>
      <trkpt lat="40.262192" lon="-4.968309">
        <ele>997.97</ele>
        <time>2021-03-27T16:41:21Z</time>
      </trkpt>
      <trkpt lat="40.262916" lon="-4.968451">
        <ele>993.67</ele>
        <time>2021-03-27T16:41:22Z</time>
      </trkpt>
      <trkpt lat="40.263442" lon="-4.968364">
        <ele>995.42</ele>
        <time>2021-03-27T16:41:23Z</time>
      </trkpt>
      <trkpt lat="40.263494" lon="-4.968414">
        <ele>995.85</ele>
        <time>2021-03-27T16:41:25Z</time>
      </trkpt>
      <trkpt lat="40.263505" lon="-4.968461">
        <ele>995.73</ele>
        <time>2021-03-27T16:41:26Z</time>
      </trkpt>
      <trkpt lat="40.263508" lon="-4.968517">
        <ele>995.44</ele>
        <time>2021-03-27T16:41:27Z</time>
      </trkpt>
      <trkpt lat="40.263473" lon="-4.968745">
        <ele>993.31</ele>
        <time>2021-03-27T16:41:29Z</time>
      </trkpt>
      <trkpt lat="40.263472" lon="-4.96892">
        <ele>991.66</ele>
        <time>2021-03-27T16:41:30Z</time>
      </trkpt>
      <trkpt lat="40.263525" lon="-4.96906">
        <ele>990.67</ele>
        <time>2021-03-27T16:41:31Z</time>
      </trkpt>
      <trkpt lat="40.263613" lon="-4.969146">
        <ele>990.31</ele>
        <time>2021-03-27T16:41:33Z</time>
      </trkpt>
      <trkpt lat="40.263767" lon="-4.969187">
        <ele>990.73</ele>
        <time>2021-03-27T16:41:34Z</time>
      </trkpt>
      <trkpt lat="40.263958" lon="-4.969204">
        <ele>990.88</ele>
        <time>2021-03-27T16:41:35Z</time>
      </trkpt>
      <trkpt lat="40.264702" lon="-4.969424">
        <ele>988.52</ele>
        <time>2021-03-27T16:41:37Z</time>
      </trkpt>
      <trkpt lat="40.265126" lon="-4.969508">
        <ele>987.02</ele>
        <time>2021-03-27T16:41:38Z</time>
      </trkpt>
      <trkpt lat="40.265237" lon="-4.969548">
        <ele>988.09</ele>
        <time>2021-03-27T16:41:39Z</time>
      </trkpt>
      <trkpt lat="40.26531" lon="-4.969594">
        <ele>988.45</ele>
        <time>2021-03-27T16:41:41Z</time>
      </trkpt>
      <trkpt lat="40.265513" lon="-4.969806">
        <ele>986.41</ele>
        <time>2021-03-27T16:41:42Z</time>
      </trkpt>
      <trkpt lat="40.265626" lon="-4.969888">
        <ele>984.39</ele>
        <time>2021-03-27T16:41:43Z</time>
      </trkpt>
      <trkpt lat="40.265891" lon="-4.969992">
        <ele>981.11</ele>
        <time>2021-03-27T16:41:45Z</time>
      </trkpt>
      <trkpt lat="40.266043" lon="-4.969995">
        <ele>980.44</ele>
        <time>2021-03-27T16:41:46Z</time>
      </trkpt>
      <trkpt lat="40.266326" lon="-4.969921">
        <ele>984.44</ele>
        <time>2021-03-27T16:41:47Z</time>
      </trkpt>
      <trkpt lat="40.266472" lon="-4.969926">
        <ele>985.03</ele>
        <time>2021-03-27T16:41:49Z</time>
      </trkpt>
      <trkpt lat="40.266558" lon="-4.970005">
        <ele>983.12</ele>
        <time>2021-03-27T16:41:50Z</time>
      </trkpt>
      <trkpt lat="40.26661" lon="-4.970106">
        <ele>981.68</ele>
        <time>2021-03-27T16:41:51Z</time>
      </trkpt>
      <trkpt lat="40.266884" lon="-4.970824">
        <ele>978.98</ele>
        <time>2021-03-27T16:41:53Z</time>
      </trkpt>
      <trkpt lat="40.266922" lon="-4.971091">
        <ele>978.66</ele>
        <time>2021-03-27T16:41:54Z</time>
      </trkpt>
      <trkpt lat="40.266892" lon="-4.971469">
        <ele>975.9</ele>
        <time>2021-03-27T16:41:55Z</time>
      </trkpt>
      <trkpt lat="40.266835" lon="-4.971755">
        <ele>974.43</ele>
        <time>2021-03-27T16:41:57Z</time>
      </trkpt>
      <trkpt lat="40.266753" lon="-4.971966">
        <ele>973.33</ele>
        <time>2021-03-27T16:41:58Z</time>
      </trkpt>
      <trkpt lat="40.266525" lon="-4.972398">
        <ele>969.87</ele>
        <time>2021-03-27T16:41:59Z</time>
      </trkpt>
      <trkpt lat="40.266443" lon="-4.972603">
        <ele>968.73</ele>
        <time>2021-03-27T16:42:01Z</time>
      </trkpt>
      <trkpt lat="40.26636" lon="-4.972982">
        <ele>966.24</ele>
        <time>2021-03-27T16:42:02Z</time>
      </trkpt>
      <trkpt lat="40.266363" lon="-4.973282">
        <ele>963.03</ele>
        <time>2021-03-27T16:42:03Z</time>
      </trkpt>
      <trkpt lat="40.266417" lon="-4.973478">
        <ele>962.15</ele>
        <time>2021-03-27T16:42:05Z</time>
      </trkpt>
      <trkpt lat="40.266608" lon="-4.973736">
        <ele>963.03</ele>
        <time>2021-03-27T16:42:06Z</time>
      </trkpt>
      <trkpt lat="40.266744" lon="-4.973857">
        <ele>963.04</ele>
        <time>2021-03-27T16:42:07Z</time>
      </trkpt>
      <trkpt lat="40.266876" lon="-4.973941">
        <ele>962.48</ele>
        <time>2021-03-27T16:42:09Z</time>
      </trkpt>
      <trkpt lat="40.267126" lon="-4.974008">
        <ele>959.71</ele>
        <time>2021-03-27T16:42:10Z</time>
      </trkpt>
      <trkpt lat="40.267464" lon="-4.973985">
        <ele>954.58</ele>
        <time>2021-03-27T16:42:11Z</time>
      </trkpt>
      <trkpt lat="40.26757" lon="-4.973958">
        <ele>953.94</ele>
        <time>2021-03-27T16:42:13Z</time>
      </trkpt>
      <trkpt lat="40.267739" lon="-4.973863">
        <ele>955.17</ele>
        <time>2021-03-27T16:42:14Z</time>
      </trkpt>
      <trkpt lat="40.267942" lon="-4.973678">
        <ele>953.87</ele>
        <time>2021-03-27T16:42:15Z</time>
      </trkpt>
      <trkpt lat="40.268021" lon="-4.973566">
        <ele>953.73</ele>
        <time>2021-03-27T16:42:17Z</time>
      </trkpt>
      <trkpt lat="40.268265" lon="-4.973082">
        <ele>955.6</ele>
        <time>2021-03-27T16:42:18Z</time>
      </trkpt>
      <trkpt lat="40.268339" lon="-4.972975">
        <ele>954.26</ele>
        <time>2021-03-27T16:42:19Z</time>
      </trkpt>
      <trkpt lat="40.26843" lon="-4.972879">
        <ele>953.14</ele>
        <time>2021-03-27T16:42:21Z</time>
      </trkpt>
      <trkpt lat="40.268665" lon="-4.97269">
        <ele>951.92</ele>
        <time>2021-03-27T16:42:22Z</time>
      </trkpt>
      <trkpt lat="40.269048" lon="-4.972543">
        <ele>952.43</ele>
        <time>2021-03-27T16:42:23Z</time>
      </trkpt>
      <trkpt lat="40.269333" lon="-4.972386">
        <ele>950.98</ele>
        <time>2021-03-27T16:42:25Z</time>
      </trkpt>
      <trkpt lat="40.269456" lon="-4.972296">
        <ele>950.45</ele>
        <time>2021-03-27T16:42:26Z</time>
      </trkpt>
      <trkpt lat="40.269582" lon="-4.972173">
        <ele>948.92</ele>
        <time>2021-03-27T16:42:27Z</time>
      </trkpt>
      <trkpt lat="40.269961" lon="-4.9717">
        <ele>946.6</ele>
        <time>2021-03-27T16:42:29Z</time>
      </trkpt>
      <trkpt lat="40.270019" lon="-4.971592">
        <ele>946.18</ele>
        <time>2021-03-27T16:42:30Z</time>
      </trkpt>
      <trkpt lat="40.270044" lon="-4.971508">
        <ele>946.15</ele>
        <time>2021-03-27T16:42:31Z</time>
      </trkpt>
      <trkpt lat="40.270038" lon="-4.971345">
        <ele>946.92</ele>
        <time>2021-03-27T16:42:33Z</time>
      </trkpt>
      <trkpt lat="40.270009" lon="-4.97124">
        <ele>947.76</ele>
        <time>2021-03-27T16:42:34Z</time>
      </trkpt>
      <trkpt lat="40.269818" lon="-4.970829">
        <ele>953.32</ele>
        <time>2021-03-27T16:42:35Z</time>
      </trkpt>
      <trkpt lat="40.269834" lon="-4.970707">
        <ele>954.72</ele>
        <time>2021-03-27T16:42:37Z</time>
      </trkpt>
      <trkpt lat="40.269867" lon="-4.970677">
        <ele>954.67</ele>
        <time>2021-03-27T16:42:38Z</time>
      </trkpt>
      <trkpt lat="40.270362" lon="-4.970556">
        <ele>950.78</ele>
        <time>2021-03-27T16:42:39Z</time>
      </trkpt>
      <trkpt lat="40.270567" lon="-4.970411">
        <ele>951.54</ele>
        <time>2021-03-27T16:42:41Z</time>
      </trkpt>
      <trkpt lat="40.270664" lon="-4.970372">
        <ele>951.71</ele>
        <time>2021-03-27T16:42:42Z</time>
      </trkpt>
      <trkpt lat="40.270751" lon="-4.970368">
        <ele>951.08</ele>
        <time>2021-03-27T16:42:43Z</time>
      </trkpt>
      <trkpt lat="40.271118" lon="-4.970453">
        <ele>947.28</ele>
        <time>2021-03-27T16:42:45Z</time>
      </trkpt>
      <trkpt lat="40.271231" lon="-4.970445">
        <ele>946.99</ele>
        <time>2021-03-27T16:42:46Z</time>
      </trkpt>
      <trkpt lat="40.271605" lon="-4.970361">
        <ele>947.05</ele>
        <time>2021-03-27T16:42:47Z</time>
      </trkpt>
      <trkpt lat="40.272134" lon="-4.970403">
        <ele>941.43</ele>
        <time>2021-03-27T16:42:49Z</time>
      </trkpt>
      <trkpt lat="40.272487" lon="-4.970348">
        <ele>938.9</ele>
        <time>2021-03-27T16:42:50Z</time>
      </trkpt>
      <trkpt lat="40.272834" lon="-4.970243">
        <ele>940.15</ele>
        <time>2021-03-27T16:42:51Z</time>
      </trkpt>
      <trkpt lat="40.27301" lon="-4.970153">
        <ele>939.87</ele>
        <time>2021-03-27T16:42:53Z</time>
      </trkpt>
      <trkpt lat="40.273174" lon="-4.970019">
        <ele>938.34</ele>
        <time>2021-03-27T16:42:54Z</time>
      </trkpt>
      <trkpt lat="40.273248" lon="-4.969943">
        <ele>936.81</ele>
        <time>2021-03-27T16:42:55Z</time>
      </trkpt>
      <trkpt lat="40.27342" lon="-4.969697">
        <ele>934.33</ele>
        <time>2021-03-27T16:42:57Z</time>
      </trkpt>
      <trkpt lat="40.273539" lon="-4.969576">
        <ele>933.57</ele>
        <time>2021-03-27T16:42:58Z</time>
      </trkpt>
      <trkpt lat="40.273721" lon="-4.969486">
        <ele>931.95</ele>
        <time>2021-03-27T16:42:59Z</time>
      </trkpt>
      <trkpt lat="40.274019" lon="-4.969396">
        <ele>928.73</ele>
        <time>2021-03-27T16:43:01Z</time>
      </trkpt>
      <trkpt lat="40.274185" lon="-4.969303">
        <ele>927.23</ele>
        <time>2021-03-27T16:43:02Z</time>
      </trkpt>
      <trkpt lat="40.274285" lon="-4.969196">
        <ele>928.53</ele>
        <time>2021-03-27T16:43:03Z</time>
      </trkpt>
      <trkpt lat="40.274323" lon="-4.969122">
        <ele>929.87</ele>
        <time>2021-03-27T16:43:05Z</time>
      </trkpt>
      <trkpt lat="40.274392" lon="-4.968888">
        <ele>934.51</ele>
        <time>2021-03-27T16:43:06Z</time>
      </trkpt>
      <trkpt lat="40.274469" lon="-4.968727">
        <ele>936.16</ele>
        <time>2021-03-27T16:43:07Z</time>
      </trkpt>
      <trkpt lat="40.274583" lon="-4.968648">
        <ele>936.2</ele>
        <time>2021-03-27T16:43:09Z</time>
      </trkpt>
      <trkpt lat="40.27464" lon="-4.968637">
        <ele>935.62</ele>
        <time>2021-03-27T16:43:10Z</time>
      </trkpt>
      <trkpt lat="40.274766" lon="-4.968706">
        <ele>933.67</ele>
        <time>2021-03-27T16:43:12Z</time>
      </trkpt>
      <trkpt lat="40.274925" lon="-4.968937">
        <ele>930.83</ele>
        <time>2021-03-27T16:43:13Z</time>
      </trkpt>
      <trkpt lat="40.275143" lon="-4.969391">
        <ele>926.19</ele>
        <time>2021-03-27T16:43:14Z</time>
      </trkpt>
      <trkpt lat="40.275274" lon="-4.969735">
        <ele>920.55</ele>
        <time>2021-03-27T16:43:16Z</time>
      </trkpt>
      <trkpt lat="40.275329" lon="-4.96981">
        <ele>919.45</ele>
        <time>2021-03-27T16:43:17Z</time>
      </trkpt>
      <trkpt lat="40.275449" lon="-4.969894">
        <ele>919.52</ele>
        <time>2021-03-27T16:43:18Z</time>
      </trkpt>
      <trkpt lat="40.275726" lon="-4.969981">
        <ele>921.28</ele>
        <time>2021-03-27T16:43:20Z</time>
      </trkpt>
      <trkpt lat="40.275782" lon="-4.970016">
        <ele>921.21</ele>
        <time>2021-03-27T16:43:21Z</time>
      </trkpt>
      <trkpt lat="40.275821" lon="-4.970067">
        <ele>920.9</ele>
        <time>2021-03-27T16:43:22Z</time>
      </trkpt>
      <trkpt lat="40.27587" lon="-4.970215">
        <ele>919.35</ele>
        <time>2021-03-27T16:43:24Z</time>
      </trkpt>
      <trkpt lat="40.275889" lon="-4.970513">
        <ele>913.18</ele>
        <time>2021-03-27T16:43:25Z</time>
      </trkpt>
      <trkpt lat="40.275913" lon="-4.970575">
        <ele>911.78</ele>
        <time>2021-03-27T16:43:26Z</time>
      </trkpt>
      <trkpt lat="40.276006" lon="-4.970671">
        <ele>909.7</ele>
        <time>2021-03-27T16:43:28Z</time>
      </trkpt>
      <trkpt lat="40.276055" lon="-4.97069">
        <ele>909.41</ele>
        <time>2021-03-27T16:43:29Z</time>
      </trkpt>
      <trkpt lat="40.276138" lon="-4.970678">
        <ele>909.83</ele>
        <time>2021-03-27T16:43:30Z</time>
      </trkpt>
      <trkpt lat="40.276459" lon="-4.970535">
        <ele>912.09</ele>
        <time>2021-03-27T16:43:32Z</time>
      </trkpt>
      <trkpt lat="40.27661" lon="-4.970399">
        <ele>911.94</ele>
        <time>2021-03-27T16:43:33Z</time>
      </trkpt>
      <trkpt lat="40.276785" lon="-4.970127">
        <ele>912.19</ele>
        <time>2021-03-27T16:43:34Z</time>
      </trkpt>
      <trkpt lat="40.276827" lon="-4.970088">
        <ele>911.69</ele>
        <time>2021-03-27T16:43:36Z</time>
      </trkpt>
      <trkpt lat="40.276909" lon="-4.970077">
        <ele>909.79</ele>
        <time>2021-03-27T16:43:37Z</time>
      </trkpt>
      <trkpt lat="40.276955" lon="-4.970135">
        <ele>908.02</ele>
        <time>2021-03-27T16:43:38Z</time>
      </trkpt>
      <trkpt lat="40.276966" lon="-4.970181">
        <ele>907.32</ele>
        <time>2021-03-27T16:43:40Z</time>
      </trkpt>
      <trkpt lat="40.27697" lon="-4.970234">
        <ele>906.54</ele>
        <time>2021-03-27T16:43:41Z</time>
      </trkpt>
      <trkpt lat="40.276951" lon="-4.970307">
        <ele>905.55</ele>
        <time>2021-03-27T16:43:42Z</time>
      </trkpt>
      <trkpt lat="40.276795" lon="-4.970512">
        <ele>905.48</ele>
        <time>2021-03-27T16:43:44Z</time>
      </trkpt>
      <trkpt lat="40.276273" lon="-4.970989">
        <ele>900.45</ele>
        <time>2021-03-27T16:43:45Z</time>
      </trkpt>
      <trkpt lat="40.276" lon="-4.971089">
        <ele>898.42</ele>
        <time>2021-03-27T16:43:46Z</time>
      </trkpt>
      <trkpt lat="40.275542" lon="-4.971219">
        <ele>894.05</ele>
        <time>2021-03-27T16:43:48Z</time>
      </trkpt>
      <trkpt lat="40.275468" lon="-4.971207">
        <ele>893.12</ele>
        <time>2021-03-27T16:43:49Z</time>
      </trkpt>
      <trkpt lat="40.275352" lon="-4.971136">
        <ele>892.77</ele>
        <time>2021-03-27T16:43:50Z</time>
      </trkpt>
      <trkpt lat="40.275304" lon="-4.971057">
        <ele>893.63</ele>
        <time>2021-03-27T16:43:52Z</time>
      </trkpt>
      <trkpt lat="40.275146" lon="-4.970666">
        <ele>898.95</ele>
        <time>2021-03-27T16:43:53Z</time>
      </trkpt>
      <trkpt lat="40.27498" lon="-4.970421">
        <ele>899.65</ele>
        <time>2021-03-27T16:43:54Z</time>
      </trkpt>
      <trkpt lat="40.274897" lon="-4.970363">
        <ele>899.28</ele>
        <time>2021-03-27T16:43:56Z</time>
      </trkpt>
      <trkpt lat="40.274825" lon="-4.970362">
        <ele>898.04</ele>
        <time>2021-03-27T16:43:57Z</time>
      </trkpt>
      <trkpt lat="40.274741" lon="-4.970411">
        <ele>896.36</ele>
        <time>2021-03-27T16:43:58Z</time>
      </trkpt>
      <trkpt lat="40.274707" lon="-4.970478">
        <ele>895.17</ele>
        <time>2021-03-27T16:44:00Z</time>
      </trkpt>
      <trkpt lat="40.274625" lon="-4.970963">
        <ele>890.6</ele>
        <time>2021-03-27T16:44:01Z</time>
      </trkpt>
      <trkpt lat="40.274557" lon="-4.971135">
        <ele>889.25</ele>
        <time>2021-03-27T16:44:02Z</time>
      </trkpt>
      <trkpt lat="40.274479" lon="-4.971254">
        <ele>887.81</ele>
        <time>2021-03-27T16:44:04Z</time>
      </trkpt>
      <trkpt lat="40.273853" lon="-4.971989">
        <ele>879.82</ele>
        <time>2021-03-27T16:44:05Z</time>
      </trkpt>
      <trkpt lat="40.273607" lon="-4.972425">
        <ele>874.38</ele>
        <time>2021-03-27T16:44:06Z</time>
      </trkpt>
      <trkpt lat="40.27352" lon="-4.972511">
        <ele>873.41</ele>
        <time>2021-03-27T16:44:08Z</time>
      </trkpt>
      <trkpt lat="40.273353" lon="-4.972608">
        <ele>872.87</ele>
        <time>2021-03-27T16:44:09Z</time>
      </trkpt>
      <trkpt lat="40.272489" lon="-4.972887">
        <ele>867.55</ele>
        <time>2021-03-27T16:44:10Z</time>
      </trkpt>
      <trkpt lat="40.272323" lon="-4.972919">
        <ele>865.68</ele>
        <time>2021-03-27T16:44:12Z</time>
      </trkpt>
      <trkpt lat="40.272256" lon="-4.972912">
        <ele>865.35</ele>
        <time>2021-03-27T16:44:13Z</time>
      </trkpt>
      <trkpt lat="40.272206" lon="-4.972882">
        <ele>865.85</ele>
        <time>2021-03-27T16:44:14Z</time>
      </trkpt>
      <trkpt lat="40.272034" lon="-4.972666">
        <ele>872.99</ele>
        <time>2021-03-27T16:44:16Z</time>
      </trkpt>
      <trkpt lat="40.271986" lon="-4.972629">
        <ele>874.38</ele>
        <time>2021-03-27T16:44:17Z</time>
      </trkpt>
      <trkpt lat="40.27193" lon="-4.972614">
        <ele>875.31</ele>
        <time>2021-03-27T16:44:18Z</time>
      </trkpt>
      <trkpt lat="40.271865" lon="-4.97263">
        <ele>875.72</ele>
        <time>2021-03-27T16:44:20Z</time>
      </trkpt>
      <trkpt lat="40.27183" lon="-4.972684">
        <ele>874.86</ele>
        <time>2021-03-27T16:44:21Z</time>
      </trkpt>
      <trkpt lat="40.271818" lon="-4.972743">
        <ele>873.63</ele>
        <time>2021-03-27T16:44:22Z</time>
      </trkpt>
      <trkpt lat="40.271823" lon="-4.972803">
        <ele>872.12</ele>
        <time>2021-03-27T16:44:24Z</time>
      </trkpt>
      <trkpt lat="40.271878" lon="-4.972916">
        <ele>868.06</ele>
        <time>2021-03-27T16:44:25Z</time>
      </trkpt>
      <trkpt lat="40.272332" lon="-4.973375">
        <ele>855.98</ele>
        <time>2021-03-27T16:44:26Z</time>
      </trkpt>
      <trkpt lat="40.272497" lon="-4.973498">
        <ele>854.43</ele>
        <time>2021-03-27T16:44:28Z</time>
      </trkpt>
      <trkpt lat="40.272645" lon="-4.973496">
        <ele>853.95</ele>
        <time>2021-03-27T16:44:29Z</time>
      </trkpt>
      <trkpt lat="40.272739" lon="-4.973451">
        <ele>854.59</ele>
        <time>2021-03-27T16:44:30Z</time>
      </trkpt>
      <trkpt lat="40.272896" lon="-4.973416">
        <ele>854.35</ele>
        <time>2021-03-27T16:44:32Z</time>
      </trkpt>
      <trkpt lat="40.272965" lon="-4.97343">
        <ele>853.57</ele>
        <time>2021-03-27T16:44:33Z</time>
      </trkpt>
      <trkpt lat="40.273362" lon="-4.973656">
        <ele>846.73</ele>
        <time>2021-03-27T16:44:34Z</time>
      </trkpt>
      <trkpt lat="40.273467" lon="-4.973677">
        <ele>845.23</ele>
        <time>2021-03-27T16:44:36Z</time>
      </trkpt>
      <trkpt lat="40.273559" lon="-4.973672">
        <ele>844.43</ele>
        <time>2021-03-27T16:44:37Z</time>
      </trkpt>
      <trkpt lat="40.273743" lon="-4.973578">
        <ele>844.54</ele>
        <time>2021-03-27T16:44:38Z</time>
      </trkpt>
      <trkpt lat="40.274003" lon="-4.973301">
        <ele>845.07</ele>
        <time>2021-03-27T16:44:40Z</time>
      </trkpt>
      <trkpt lat="40.274122" lon="-4.973278">
        <ele>844.82</ele>
        <time>2021-03-27T16:44:41Z</time>
      </trkpt>
      <trkpt lat="40.274177" lon="-4.973308">
        <ele>844.43</ele>
        <time>2021-03-27T16:44:42Z</time>
      </trkpt>
      <trkpt lat="40.274226" lon="-4.973366">
        <ele>844.73</ele>
        <time>2021-03-27T16:44:44Z</time>
      </trkpt>
      <trkpt lat="40.274293" lon="-4.973619">
        <ele>844.74</ele>
        <time>2021-03-27T16:44:45Z</time>
      </trkpt>
      <trkpt lat="40.274328" lon="-4.973698">
        <ele>844.38</ele>
        <time>2021-03-27T16:44:46Z</time>
      </trkpt>
      <trkpt lat="40.274424" lon="-4.973819">
        <ele>844.46</ele>
        <time>2021-03-27T16:44:48Z</time>
      </trkpt>
      <trkpt lat="40.274624" lon="-4.973929">
        <ele>843.75</ele>
        <time>2021-03-27T16:44:49Z</time>
      </trkpt>
      <trkpt lat="40.274848" lon="-4.974013">
        <ele>842.03</ele>
        <time>2021-03-27T16:44:50Z</time>
      </trkpt>
      <trkpt lat="40.274966" lon="-4.974119">
        <ele>840.51</ele>
        <time>2021-03-27T16:44:52Z</time>
      </trkpt>
      <trkpt lat="40.275035" lon="-4.974274">
        <ele>840.17</ele>
        <time>2021-03-27T16:44:53Z</time>
      </trkpt>
      <trkpt lat="40.275044" lon="-4.974362">
        <ele>840.0</ele>
        <time>2021-03-27T16:44:54Z</time>
      </trkpt>
      <trkpt lat="40.274997" lon="-4.974908">
        <ele>833.28</ele>
        <time>2021-03-27T16:44:56Z</time>
      </trkpt>
      <trkpt lat="40.27506" lon="-4.975479">
        <ele>831.63</ele>
        <time>2021-03-27T16:44:57Z</time>
      </trkpt>
      <trkpt lat="40.275034" lon="-4.97605">
        <ele>830.66</ele>
        <time>2021-03-27T16:44:58Z</time>
      </trkpt>
      <trkpt lat="40.274995" lon="-4.976359">
        <ele>828.1</ele>
        <time>2021-03-27T16:45:00Z</time>
      </trkpt>
      <trkpt lat="40.274937" lon="-4.976627">
        <ele>825.08</ele>
        <time>2021-03-27T16:45:01Z</time>
      </trkpt>
      <trkpt lat="40.274815" lon="-4.977032">
        <ele>820.46</ele>
        <time>2021-03-27T16:45:02Z</time>
      </trkpt>
      <trkpt lat="40.274743" lon="-4.977386">
        <ele>816.95</ele>
        <time>2021-03-27T16:45:04Z</time>
      </trkpt>
      <trkpt lat="40.274695" lon="-4.977711">
        <ele>813.07</ele>
        <time>2021-03-27T16:45:05Z</time>
      </trkpt>
      <trkpt lat="40.274706" lon="-4.977808">
        <ele>812.55</ele>
        <time>2021-03-27T16:45:06Z</time>
      </trkpt>
      <trkpt lat="40.274765" lon="-4.977928">
        <ele>812.21</ele>
        <time>2021-03-27T16:45:08Z</time>
      </trkpt>
      <trkpt lat="40.274882" lon="-4.977973">
        <ele>812.51</ele>
        <time>2021-03-27T16:45:09Z</time>
      </trkpt>
      <trkpt lat="40.275231" lon="-4.977934">
        <ele>814.22</ele>
        <time>2021-03-27T16:45:10Z</time>
      </trkpt>
      <trkpt lat="40.27534" lon="-4.977992">
        <ele>814.41</ele>
        <time>2021-03-27T16:45:12Z</time>
      </trkpt>
      <trkpt lat="40.275387" lon="-4.97806">
        <ele>814.14</ele>
        <time>2021-03-27T16:45:13Z</time>
      </trkpt>
      <trkpt lat="40.275412" lon="-4.978139">
        <ele>813.85</ele>
        <time>2021-03-27T16:45:15Z</time>
      </trkpt>
      <trkpt lat="40.275425" lon="-4.978261">
        <ele>813.12</ele>
        <time>2021-03-27T16:45:16Z</time>
      </trkpt>
      <trkpt lat="40.275421" lon="-4.979331">
        <ele>806.6</ele>
        <time>2021-03-27T16:45:17Z</time>
      </trkpt>
      <trkpt lat="40.275433" lon="-4.979442">
        <ele>805.82</ele>
        <time>2021-03-27T16:45:19Z</time>
      </trkpt>
      <trkpt lat="40.275473" lon="-4.979554">
        <ele>805.07</ele>
        <time>2021-03-27T16:45:20Z</time>
      </trkpt>
      <trkpt lat="40.275541" lon="-4.979661">
        <ele>804.66</ele>
        <time>2021-03-27T16:45:21Z</time>
      </trkpt>
      <trkpt lat="40.275634" lon="-4.979752">
        <ele>804.25</ele>
        <time>2021-03-27T16:45:23Z</time>
      </trkpt>
      <trkpt lat="40.275738" lon="-4.979822">
        <ele>803.7</ele>
        <time>2021-03-27T16:45:24Z</time>
      </trkpt>
      <trkpt lat="40.275904" lon="-4.979852">
        <ele>803.96</ele>
        <time>2021-03-27T16:45:25Z</time>
      </trkpt>
      <trkpt lat="40.276103" lon="-4.979833">
        <ele>804.98</ele>
        <time>2021-03-27T16:45:27Z</time>
      </trkpt>
      <trkpt lat="40.276388" lon="-4.979845">
        <ele>802.67</ele>
        <time>2021-03-27T16:45:28Z</time>
      </trkpt>
      <trkpt lat="40.276458" lon="-4.979868">
        <ele>802.31</ele>
        <time>2021-03-27T16:45:29Z</time>
      </trkpt>
      <trkpt lat="40.276535" lon="-4.979916">
        <ele>801.74</ele>
        <time>2021-03-27T16:45:31Z</time>
      </trkpt>
      <trkpt lat="40.276632" lon="-4.980041">
        <ele>800.44</ele>
        <time>2021-03-27T16:45:32Z</time>
      </trkpt>
      <trkpt lat="40.276662" lon="-4.980135">
        <ele>799.07</ele>
        <time>2021-03-27T16:45:33Z</time>
      </trkpt>
      <trkpt lat="40.276669" lon="-4.980239">
        <ele>797.54</ele>
        <time>2021-03-27T16:45:35Z</time>
      </trkpt>
      <trkpt lat="40.276617" lon="-4.980416">
        <ele>794.96</ele>
        <time>2021-03-27T16:45:36Z</time>
      </trkpt>
      <trkpt lat="40.27654" lon="-4.980536">
        <ele>793.68</ele>
        <time>2021-03-27T16:45:37Z</time>
      </trkpt>
      <trkpt lat="40.276454" lon="-4.980632">
        <ele>792.73</ele>
        <time>2021-03-27T16:45:39Z</time>
      </trkpt>
      <trkpt lat="40.276146" lon="-4.980901">
        <ele>790.02</ele>
        <time>2021-03-27T16:45:40Z</time>
      </trkpt>
      <trkpt lat="40.276102" lon="-4.980976">
        <ele>789.45</ele>
        <time>2021-03-27T16:45:41Z</time>
      </trkpt>
      <trkpt lat="40.276082" lon="-4.981062">
        <ele>788.51</ele>
        <time>2021-03-27T16:45:43Z</time>
      </trkpt>
      <trkpt lat="40.276088" lon="-4.981148">
        <ele>787.61</ele>
        <time>2021-03-27T16:45:44Z</time>
      </trkpt>
      <trkpt lat="40.276164" lon="-4.981429">
        <ele>783.61</ele>
        <time>2021-03-27T16:45:45Z</time>
      </trkpt>
      <trkpt lat="40.276167" lon="-4.981522">
        <ele>782.55</ele>
        <time>2021-03-27T16:45:47Z</time>
      </trkpt>
      <trkpt lat="40.276159" lon="-4.981616">
        <ele>781.68</ele>
        <time>2021-03-27T16:45:48Z</time>
      </trkpt>
      <trkpt lat="40.276104" lon="-4.981745">
        <ele>781.22</ele>
        <time>2021-03-27T16:45:49Z</time>
      </trkpt>
      <trkpt lat="40.275976" lon="-4.981932">
        <ele>780.59</ele>
        <time>2021-03-27T16:45:51Z</time>
      </trkpt>
      <trkpt lat="40.27589" lon="-4.982013">
        <ele>780.64</ele>
        <time>2021-03-27T16:45:52Z</time>
      </trkpt>
      <trkpt lat="40.275804" lon="-4.982072">
        <ele>780.62</ele>
        <time>2021-03-27T16:45:53Z</time>
      </trkpt>
      <trkpt lat="40.275568" lon="-4.982117">
        <ele>780.14</ele>
        <time>2021-03-27T16:45:55Z</time>
      </trkpt>
      <trkpt lat="40.275517" lon="-4.982175">
        <ele>779.37</ele>
        <time>2021-03-27T16:45:56Z</time>
      </trkpt>
      <trkpt lat="40.275462" lon="-4.982299">
        <ele>778.11</ele>
        <time>2021-03-27T16:45:57Z</time>
      </trkpt>
      <trkpt lat="40.275445" lon="-4.982505">
        <ele>776.57</ele>
        <time>2021-03-27T16:45:59Z</time>
      </trkpt>
      <trkpt lat="40.275284" lon="-4.982533">
        <ele>775.78</ele>
        <time>2021-03-27T16:46:01Z</time>
      </trkpt>
      <trkpt lat="40.275041" lon="-4.982744">
        <ele>774.24</ele>
        <time>2021-03-27T16:46:03Z</time>
      </trkpt>
      <trkpt lat="40.274841" lon="-4.982888">
        <ele>772.41</ele>
        <time>2021-03-27T16:46:05Z</time>
      </trkpt>
      <trkpt lat="40.274685" lon="-4.982904">
        <ele>771.3</ele>
        <time>2021-03-27T16:46:07Z</time>
      </trkpt>
      <trkpt lat="40.273878" lon="-4.982617">
        <ele>766.06</ele>
        <time>2021-03-27T16:46:09Z</time>
      </trkpt>
      <trkpt lat="40.273711" lon="-4.982509">
        <ele>765.04</ele>
        <time>2021-03-27T16:46:11Z</time>
      </trkpt>
      <trkpt lat="40.273397" lon="-4.982196">
        <ele>762.71</ele>
        <time>2021-03-27T16:46:12Z</time>
      </trkpt>
      <trkpt lat="40.273055" lon="-4.981971">
        <ele>759.9</ele>
        <time>2021-03-27T16:46:14Z</time>
      </trkpt>
      <trkpt lat="40.272443" lon="-4.981672">
        <ele>758.32</ele>
        <time>2021-03-27T16:46:16Z</time>
      </trkpt>
      <trkpt lat="40.272043" lon="-4.981422">
        <ele>754.95</ele>
        <time>2021-03-27T16:46:18Z</time>
      </trkpt>
      <trkpt lat="40.271703" lon="-4.981141">
        <ele>756.75</ele>
        <time>2021-03-27T16:46:20Z</time>
      </trkpt>
      <trkpt lat="40.271626" lon="-4.981111">
        <ele>757.58</ele>
        <time>2021-03-27T16:46:22Z</time>
      </trkpt>
      <trkpt lat="40.271565" lon="-4.981127">
        <ele>758.39</ele>
        <time>2021-03-27T16:46:24Z</time>
      </trkpt>
      <trkpt lat="40.271163" lon="-4.981584">
        <ele>758.76</ele>
        <time>2021-03-27T16:46:26Z</time>
      </trkpt>
      <trkpt lat="40.271066" lon="-4.981656">
        <ele>758.48</ele>
        <time>2021-03-27T16:46:28Z</time>
      </trkpt>
      <trkpt lat="40.27071" lon="-4.981847">
        <ele>759.02</ele>
        <time>2021-03-27T16:46:30Z</time>
      </trkpt>
      <trkpt lat="40.270437" lon="-4.981935">
        <ele>761.8</ele>
        <time>2021-03-27T16:46:32Z</time>
      </trkpt>
      <trkpt lat="40.270168" lon="-4.981998">
        <ele>764.65</ele>
        <time>2021-03-27T16:46:34Z</time>
      </trkpt>
      <trkpt lat="40.270045" lon="-4.981999">
        <ele>765.78</ele>
        <time>2021-03-27T16:46:36Z</time>
      </trkpt>
      <trkpt lat="40.269724" lon="-4.981897">
        <ele>765.52</ele>
        <time>2021-03-27T16:46:38Z</time>
      </trkpt>
      <trkpt lat="40.269567" lon="-4.981888">
        <ele>766.05</ele>
        <time>2021-03-27T16:46:40Z</time>
      </trkpt>
      <trkpt lat="40.269296" lon="-4.982062">
        <ele>766.13</ele>
        <time>2021-03-27T16:46:42Z</time>
      </trkpt>
      <trkpt lat="40.268903" lon="-4.982172">
        <ele>771.29</ele>
        <time>2021-03-27T16:46:44Z</time>
      </trkpt>
      <trkpt lat="40.268758" lon="-4.98225">
        <ele>771.9</ele>
        <time>2021-03-27T16:46:45Z</time>
      </trkpt>
      <trkpt lat="40.268072" lon="-4.982753">
        <ele>773.04</ele>
        <time>2021-03-27T16:46:47Z</time>
      </trkpt>
      <trkpt lat="40.267719" lon="-4.982913">
        <ele>772.39</ele>
        <time>2021-03-27T16:46:49Z</time>
      </trkpt>
      <trkpt lat="40.267528" lon="-4.983038">
        <ele>773.78</ele>
        <time>2021-03-27T16:46:51Z</time>
      </trkpt>
      <trkpt lat="40.267389" lon="-4.983187">
        <ele>776.61</ele>
        <time>2021-03-27T16:46:53Z</time>
      </trkpt>
      <trkpt lat="40.266665" lon="-4.984211">
        <ele>777.83</ele>
        <time>2021-03-27T16:46:55Z</time>
      </trkpt>
      <trkpt lat="40.266278" lon="-4.984685">
        <ele>776.83</ele>
        <time>2021-03-27T16:46:57Z</time>
      </trkpt>
      <trkpt lat="40.26566" lon="-4.985318">
        <ele>767.76</ele>
        <time>2021-03-27T16:46:59Z</time>
      </trkpt>
      <trkpt lat="40.265565" lon="-4.985383">
        <ele>765.05</ele>
        <time>2021-03-27T16:47:01Z</time>
      </trkpt>
      <trkpt lat="40.265466" lon="-4.985416">
        <ele>763.06</ele>
        <time>2021-03-27T16:47:03Z</time>
      </trkpt>
      <trkpt lat="40.265352" lon="-4.985424">
        <ele>761.1</ele>
        <time>2021-03-27T16:47:05Z</time>
      </trkpt>
      <trkpt lat="40.265158" lon="-4.985421">
        <ele>759.1</ele>
        <time>2021-03-27T16:47:07Z</time>
      </trkpt>
      <trkpt lat="40.26447" lon="-4.985327">
        <ele>756.74</ele>
        <time>2021-03-27T16:47:09Z</time>
      </trkpt>
      <trkpt lat="40.26433" lon="-4.985367">
        <ele>756.22</ele>
        <time>2021-03-27T16:47:11Z</time>
      </trkpt>
      <trkpt lat="40.264231" lon="-4.98547">
        <ele>755.08</ele>
        <time>2021-03-27T16:47:13Z</time>
      </trkpt>
      <trkpt lat="40.264095" lon="-4.985709">
        <ele>754.22</ele>
        <time>2021-03-27T16:47:15Z</time>
      </trkpt>
      <trkpt lat="40.263805" lon="-4.986459">
        <ele>753.92</ele>
        <time>2021-03-27T16:47:17Z</time>
      </trkpt>
      <trkpt lat="40.263746" lon="-4.986742">
        <ele>752.51</ele>
        <time>2021-03-27T16:47:19Z</time>
      </trkpt>
      <trkpt lat="40.263701" lon="-4.987132">
        <ele>750.57</ele>
        <time>2021-03-27T16:47:20Z</time>
      </trkpt>
      <trkpt lat="40.263685" lon="-4.987311">
        <ele>749.88</ele>
        <time>2021-03-27T16:47:22Z</time>
      </trkpt>
      <trkpt lat="40.263694" lon="-4.987559">
        <ele>748.38</ele>
        <time>2021-03-27T16:47:24Z</time>
      </trkpt>
      <trkpt lat="40.263684" lon="-4.987692">
        <ele>746.81</ele>
        <time>2021-03-27T16:47:26Z</time>
      </trkpt>
      <trkpt lat="40.263653" lon="-4.987816">
        <ele>745.45</ele>
        <time>2021-03-27T16:47:28Z</time>
      </trkpt>
      <trkpt lat="40.2636" lon="-4.987912">
        <ele>744.57</ele>
        <time>2021-03-27T16:47:30Z</time>
      </trkpt>
      <trkpt lat="40.263424" lon="-4.988094">
        <ele>742.58</ele>
        <time>2021-03-27T16:47:32Z</time>
      </trkpt>
      <trkpt lat="40.263277" lon="-4.988186">
        <ele>741.49</ele>
        <time>2021-03-27T16:47:34Z</time>
      </trkpt>
      <trkpt lat="40.263037" lon="-4.988275">
        <ele>739.65</ele>
        <time>2021-03-27T16:47:36Z</time>
      </trkpt>
      <trkpt lat="40.262797" lon="-4.988233">
        <ele>737.99</ele>
        <time>2021-03-27T16:47:38Z</time>
      </trkpt>
      <trkpt lat="40.26258" lon="-4.988135">
        <ele>741.19</ele>
        <time>2021-03-27T16:47:40Z</time>
      </trkpt>
      <trkpt lat="40.262504" lon="-4.988125">
        <ele>741.97</ele>
        <time>2021-03-27T16:47:42Z</time>
      </trkpt>
      <trkpt lat="40.262432" lon="-4.988149">
        <ele>743.35</ele>
        <time>2021-03-27T16:47:44Z</time>
      </trkpt>
      <trkpt lat="40.262392" lon="-4.988197">
        <ele>743.67</ele>
        <time>2021-03-27T16:47:46Z</time>
      </trkpt>
      <trkpt lat="40.262356" lon="-4.988279">
        <ele>743.4</ele>
        <time>2021-03-27T16:47:48Z</time>
      </trkpt>
      <trkpt lat="40.262281" lon="-4.988647">
        <ele>739.74</ele>
        <time>2021-03-27T16:47:50Z</time>
      </trkpt>
      <trkpt lat="40.262238" lon="-4.988767">
        <ele>738.82</ele>
        <time>2021-03-27T16:47:52Z</time>
      </trkpt>
      <trkpt lat="40.262128" lon="-4.98891">
        <ele>738.78</ele>
        <time>2021-03-27T16:47:53Z</time>
      </trkpt>
      <trkpt lat="40.26188" lon="-4.989144">
        <ele>740.51</ele>
        <time>2021-03-27T16:47:55Z</time>
      </trkpt>
      <trkpt lat="40.261266" lon="-4.989486">
        <ele>740.92</ele>
        <time>2021-03-27T16:47:57Z</time>
      </trkpt>
      <trkpt lat="40.261101" lon="-4.9896">
        <ele>739.81</ele>
        <time>2021-03-27T16:47:59Z</time>
      </trkpt>
      <trkpt lat="40.260374" lon="-4.990203">
        <ele>737.86</ele>
        <time>2021-03-27T16:48:01Z</time>
      </trkpt>
      <trkpt lat="40.260226" lon="-4.990495">
        <ele>736.78</ele>
        <time>2021-03-27T16:48:03Z</time>
      </trkpt>
      <trkpt lat="40.260155" lon="-4.990739">
        <ele>735.0</ele>
        <time>2021-03-27T16:48:05Z</time>
      </trkpt>
      <trkpt lat="40.260099" lon="-4.990872">
        <ele>734.4</ele>
        <time>2021-03-27T16:48:07Z</time>
      </trkpt>
      <trkpt lat="40.260014" lon="-4.991">
        <ele>734.36</ele>
        <time>2021-03-27T16:48:09Z</time>
      </trkpt>
      <trkpt lat="40.259706" lon="-4.991335">
        <ele>736.64</ele>
        <time>2021-03-27T16:48:11Z</time>
      </trkpt>
      <trkpt lat="40.259656" lon="-4.991411">
        <ele>736.51</ele>
        <time>2021-03-27T16:48:13Z</time>
      </trkpt>
      <trkpt lat="40.259582" lon="-4.991625">
        <ele>734.78</ele>
        <time>2021-03-27T16:48:15Z</time>
      </trkpt>
      <trkpt lat="40.25953" lon="-4.991947">
        <ele>733.88</ele>
        <time>2021-03-27T16:48:17Z</time>
      </trkpt>
      <trkpt lat="40.259448" lon="-4.992209">
        <ele>733.09</ele>
        <time>2021-03-27T16:48:19Z</time>
      </trkpt>
      <trkpt lat="40.259395" lon="-4.992313">
        <ele>733.24</ele>
        <time>2021-03-27T16:48:21Z</time>
      </trkpt>
      <trkpt lat="40.259117" lon="-4.992624">
        <ele>736.88</ele>
        <time>2021-03-27T16:48:23Z</time>
      </trkpt>
      <trkpt lat="40.25908" lon="-4.992704">
        <ele>737.25</ele>
        <time>2021-03-27T16:48:25Z</time>
      </trkpt>
      <trkpt lat="40.259058" lon="-4.992925">
        <ele>737.4</ele>
        <time>2021-03-27T16:48:27Z</time>
      </trkpt>
      <trkpt lat="40.259085" lon="-4.993256">
        <ele>736.63</ele>
        <time>2021-03-27T16:48:28Z</time>
      </trkpt>
      <trkpt lat="40.259075" lon="-4.993422">
        <ele>736.66</ele>
        <time>2021-03-27T16:48:30Z</time>
      </trkpt>
      <trkpt lat="40.259042" lon="-4.993604">
        <ele>736.72</ele>
        <time>2021-03-27T16:48:32Z</time>
      </trkpt>
      <trkpt lat="40.258868" lon="-4.994062">
        <ele>735.68</ele>
        <time>2021-03-27T16:48:34Z</time>
      </trkpt>
      <trkpt lat="40.258837" lon="-4.994184">
        <ele>735.19</ele>
        <time>2021-03-27T16:48:36Z</time>
      </trkpt>
      <trkpt lat="40.25882" lon="-4.994356">
        <ele>734.38</ele>
        <time>2021-03-27T16:48:38Z</time>
      </trkpt>
      <trkpt lat="40.258875" lon="-4.994906">
        <ele>731.7</ele>
        <time>2021-03-27T16:48:40Z</time>
      </trkpt>
      <trkpt lat="40.258851" lon="-4.995526">
        <ele>727.99</ele>
        <time>2021-03-27T16:48:42Z</time>
      </trkpt>
      <trkpt lat="40.258926" lon="-4.996116">
        <ele>725.08</ele>
        <time>2021-03-27T16:48:44Z</time>
      </trkpt>
      <trkpt lat="40.258908" lon="-4.99634">
        <ele>726.28</ele>
        <time>2021-03-27T16:48:46Z</time>
      </trkpt>
      <trkpt lat="40.258858" lon="-4.996503">
        <ele>726.36</ele>
        <time>2021-03-27T16:48:48Z</time>
      </trkpt>
      <trkpt lat="40.258761" lon="-4.996714">
        <ele>725.73</ele>
        <time>2021-03-27T16:48:50Z</time>
      </trkpt>
      <trkpt lat="40.258664" lon="-4.996867">
        <ele>724.54</ele>
        <time>2021-03-27T16:48:52Z</time>
      </trkpt>
      <trkpt lat="40.25844" lon="-4.997066">
        <ele>725.61</ele>
        <time>2021-03-27T16:48:54Z</time>
      </trkpt>
      <trkpt lat="40.258104" lon="-4.997283">
        <ele>729.03</ele>
        <time>2021-03-27T16:48:56Z</time>
      </trkpt>
      <trkpt lat="40.25716" lon="-4.997796">
        <ele>733.61</ele>
        <time>2021-03-27T16:48:58Z</time>
      </trkpt>
      <trkpt lat="40.257056" lon="-4.997875">
        <ele>735.48</ele>
        <time>2021-03-27T16:49:00Z</time>
      </trkpt>
      <trkpt lat="40.25697" lon="-4.997986">
        <ele>736.34</ele>
        <time>2021-03-27T16:49:01Z</time>
      </trkpt>
      <trkpt lat="40.256856" lon="-4.99823">
        <ele>736.53</ele>
        <time>2021-03-27T16:49:03Z</time>
      </trkpt>
      <trkpt lat="40.256809" lon="-4.99839">
        <ele>736.45</ele>
        <time>2021-03-27T16:49:05Z</time>
      </trkpt>
      <trkpt lat="40.256789" lon="-4.998522">
        <ele>736.36</ele>
        <time>2021-03-27T16:49:07Z</time>
      </trkpt>
      <trkpt lat="40.256786" lon="-4.998686">
        <ele>735.9</ele>
        <time>2021-03-27T16:49:09Z</time>
      </trkpt>
      <trkpt lat="40.256819" lon="-4.998958">
        <ele>735.35</ele>
        <time>2021-03-27T16:49:11Z</time>
      </trkpt>
      <trkpt lat="40.256812" lon="-4.999278">
        <ele>735.94</ele>
        <time>2021-03-27T16:49:13Z</time>
      </trkpt>
      <trkpt lat="40.256738" lon="-4.99957">
        <ele>735.24</ele>
        <time>2021-03-27T16:49:15Z</time>
      </trkpt>
      <trkpt lat="40.256674" lon="-4.999701">
        <ele>735.06</ele>
        <time>2021-03-27T16:49:17Z</time>
      </trkpt>
      <trkpt lat="40.256529" lon="-4.999866">
        <ele>733.64</ele>
        <time>2021-03-27T16:49:19Z</time>
      </trkpt>
      <trkpt lat="40.256356" lon="-4.999946">
        <ele>734.53</ele>
        <time>2021-03-27T16:49:21Z</time>
      </trkpt>
      <trkpt lat="40.25616" lon="-5.000109">
        <ele>735.22</ele>
        <time>2021-03-27T16:49:23Z</time>
      </trkpt>
      <trkpt lat="40.255406" lon="-5.000885">
        <ele>728.34</ele>
        <time>2021-03-27T16:49:25Z</time>
      </trkpt>
      <trkpt lat="40.253896" lon="-5.002159">
        <ele>720.61</ele>
        <time>2021-03-27T16:49:27Z</time>
      </trkpt>
      <trkpt lat="40.253496" lon="-5.00278">
        <ele>720.4</ele>
        <time>2021-03-27T16:49:29Z</time>
      </trkpt>
      <trkpt lat="40.253381" lon="-5.002881">
        <ele>720.08</ele>
        <time>2021-03-27T16:49:31Z</time>
      </trkpt>
      <trkpt lat="40.253301" lon="-5.002899">
        <ele>719.72</ele>
        <time>2021-03-27T16:49:33Z</time>
      </trkpt>
      <trkpt lat="40.253223" lon="-5.002879">
        <ele>718.94</ele>
        <time>2021-03-27T16:49:35Z</time>
      </trkpt>
      <trkpt lat="40.253148" lon="-5.002831">
        <ele>718.49</ele>
        <time>2021-03-27T16:49:36Z</time>
      </trkpt>
      <trkpt lat="40.253049" lon="-5.002723">
        <ele>718.1</ele>
        <time>2021-03-27T16:49:38Z</time>
      </trkpt>
      <trkpt lat="40.252543" lon="-5.001985">
        <ele>714.02</ele>
        <time>2021-03-27T16:49:40Z</time>
      </trkpt>
      <trkpt lat="40.252444" lon="-5.00189">
        <ele>714.74</ele>
        <time>2021-03-27T16:49:42Z</time>
      </trkpt>
      <trkpt lat="40.252362" lon="-5.001873">
        <ele>715.14</ele>
        <time>2021-03-27T16:49:44Z</time>
      </trkpt>
      <trkpt lat="40.252296" lon="-5.001884">
        <ele>715.22</ele>
        <time>2021-03-27T16:49:46Z</time>
      </trkpt>
      <trkpt lat="40.252217" lon="-5.001946">
        <ele>715.05</ele>
        <time>2021-03-27T16:49:48Z</time>
      </trkpt>
      <trkpt lat="40.252159" lon="-5.002032">
        <ele>715.13</ele>
        <time>2021-03-27T16:49:50Z</time>
      </trkpt>
      <trkpt lat="40.252073" lon="-5.002508">
        <ele>715.64</ele>
        <time>2021-03-27T16:49:52Z</time>
      </trkpt>
      <trkpt lat="40.252016" lon="-5.002662">
        <ele>715.84</ele>
        <time>2021-03-27T16:49:54Z</time>
      </trkpt>
      <trkpt lat="40.251824" lon="-5.003005">
        <ele>715.79</ele>
        <time>2021-03-27T16:49:56Z</time>
      </trkpt>
      <trkpt lat="40.251686" lon="-5.003203">
        <ele>716.05</ele>
        <time>2021-03-27T16:49:58Z</time>
      </trkpt>
      <trkpt lat="40.251383" lon="-5.003527">
        <ele>718.33</ele>
        <time>2021-03-27T16:50:00Z</time>
      </trkpt>
      <trkpt lat="40.251214" lon="-5.003727">
        <ele>719.0</ele>
        <time>2021-03-27T16:50:02Z</time>
      </trkpt>
      <trkpt lat="40.251168" lon="-5.00381">
        <ele>718.49</ele>
        <time>2021-03-27T16:50:04Z</time>
      </trkpt>
      <trkpt lat="40.251145" lon="-5.003894">
        <ele>717.43</ele>
        <time>2021-03-27T16:50:06Z</time>
      </trkpt>
      <trkpt lat="40.251085" lon="-5.00437">
        <ele>714.63</ele>
        <time>2021-03-27T16:50:08Z</time>
      </trkpt>
      <trkpt lat="40.251012" lon="-5.004772">
        <ele>712.43</ele>
        <time>2021-03-27T16:50:10Z</time>
      </trkpt>
      <trkpt lat="40.250879" lon="-5.005237">
        <ele>712.42</ele>
        <time>2021-03-27T16:50:11Z</time>
      </trkpt>
      <trkpt lat="40.250739" lon="-5.005561">
        <ele>712.95</ele>
        <time>2021-03-27T16:50:13Z</time>
      </trkpt>
      <trkpt lat="40.250747" lon="-5.005665">
        <ele>711.27</ele>
        <time>2021-03-27T16:50:15Z</time>
      </trkpt>
      <trkpt lat="40.25078" lon="-5.005697">
        <ele>709.91</ele>
        <time>2021-03-27T16:50:17Z</time>
      </trkpt>
      <trkpt lat="40.250814" lon="-5.005703">
        <ele>708.87</ele>
        <time>2021-03-27T16:50:18Z</time>
      </trkpt>
      <trkpt lat="40.250864" lon="-5.005682">
        <ele>707.97</ele>
        <time>2021-03-27T16:50:20Z</time>
      </trkpt>
      <trkpt lat="40.251272" lon="-5.005382">
        <ele>704.64</ele>
        <time>2021-03-27T16:50:21Z</time>
      </trkpt>
      <trkpt lat="40.25133" lon="-5.005412">
        <ele>703.75</ele>
        <time>2021-03-27T16:50:23Z</time>
      </trkpt>
      <trkpt lat="40.251345" lon="-5.00545">
        <ele>703.49</ele>
        <time>2021-03-27T16:50:25Z</time>
      </trkpt>
      <trkpt lat="40.251329" lon="-5.005542">
        <ele>703.46</ele>
        <time>2021-03-27T16:50:26Z</time>
      </trkpt>
      <trkpt lat="40.250997" lon="-5.005947">
        <ele>698.84</ele>
        <time>2021-03-27T16:50:28Z</time>
      </trkpt>
      <trkpt lat="40.250863" lon="-5.006204">
        <ele>697.08</ele>
        <time>2021-03-27T16:50:29Z</time>
      </trkpt>
      <trkpt lat="40.25076" lon="-5.006739">
        <ele>688.8</ele>
        <time>2021-03-27T16:50:31Z</time>
      </trkpt>
      <trkpt lat="40.250702" lon="-5.006959">
        <ele>685.95</ele>
        <time>2021-03-27T16:50:32Z</time>
      </trkpt>
      <trkpt lat="40.250564" lon="-5.007334">
        <ele>682.69</ele>
        <time>2021-03-27T16:50:34Z</time>
      </trkpt>
      <trkpt lat="40.250477" lon="-5.007812">
        <ele>676.36</ele>
        <time>2021-03-27T16:50:35Z</time>
      </trkpt>
      <trkpt lat="40.250355" lon="-5.008022">
        <ele>675.65</ele>
        <time>2021-03-27T16:50:37Z</time>
      </trkpt>
      <trkpt lat="40.249881" lon="-5.008546">
        <ele>669.29</ele>
        <time>2021-03-27T16:50:38Z</time>
      </trkpt>
      <trkpt lat="40.249733" lon="-5.008669">
        <ele>668.65</ele>
        <time>2021-03-27T16:50:40Z</time>
      </trkpt>
      <trkpt lat="40.249499" lon="-5.008822">
        <ele>670.03</ele>
        <time>2021-03-27T16:50:41Z</time>
      </trkpt>
      <trkpt lat="40.248989" lon="-5.009247">
        <ele>665.85</ele>
        <time>2021-03-27T16:50:43Z</time>
      </trkpt>
      <trkpt lat="40.248816" lon="-5.009577">
        <ele>657.82</ele>
        <time>2021-03-27T16:50:44Z</time>
      </trkpt>
      <trkpt lat="40.248511" lon="-5.009907">
        <ele>656.33</ele>
        <time>2021-03-27T16:50:46Z</time>
      </trkpt>
      <trkpt lat="40.248358" lon="-5.010101">
        <ele>654.86</ele>
        <time>2021-03-27T16:50:47Z</time>
      </trkpt>
      <trkpt lat="40.248102" lon="-5.010605">
        <ele>651.03</ele>
        <time>2021-03-27T16:50:49Z</time>
      </trkpt>
      <trkpt lat="40.247991" lon="-5.010901">
        <ele>647.38</ele>
        <time>2021-03-27T16:50:50Z</time>
      </trkpt>
      <trkpt lat="40.247864" lon="-5.011305">
        <ele>646.28</ele>
        <time>2021-03-27T16:50:52Z</time>
      </trkpt>
      <trkpt lat="40.247832" lon="-5.011468">
        <ele>645.07</ele>
        <time>2021-03-27T16:50:53Z</time>
      </trkpt>
      <trkpt lat="40.247837" lon="-5.011539">
        <ele>643.63</ele>
        <time>2021-03-27T16:50:55Z</time>
      </trkpt>
      <trkpt lat="40.247855" lon="-5.011576">
        <ele>642.21</ele>
        <time>2021-03-27T16:50:56Z</time>
      </trkpt>
      <trkpt lat="40.247895" lon="-5.011588">
        <ele>640.23</ele>
        <time>2021-03-27T16:50:58Z</time>
      </trkpt>
      <trkpt lat="40.247953" lon="-5.011551">
        <ele>638.23</ele>
        <time>2021-03-27T16:50:59Z</time>
      </trkpt>
      <trkpt lat="40.248119" lon="-5.011101">
        <ele>638.45</ele>
        <time>2021-03-27T16:51:01Z</time>
      </trkpt>
      <trkpt lat="40.248376" lon="-5.010679">
        <ele>639.8</ele>
        <time>2021-03-27T16:51:02Z</time>
      </trkpt>
      <trkpt lat="40.248441" lon="-5.010609">
        <ele>640.24</ele>
        <time>2021-03-27T16:51:04Z</time>
      </trkpt>
      <trkpt lat="40.24849" lon="-5.010587">
        <ele>639.52</ele>
        <time>2021-03-27T16:51:05Z</time>
      </trkpt>
      <trkpt lat="40.248536" lon="-5.010596">
        <ele>637.94</ele>
        <time>2021-03-27T16:51:07Z</time>
      </trkpt>
      <trkpt lat="40.248594" lon="-5.010686">
        <ele>633.69</ele>
        <time>2021-03-27T16:51:08Z</time>
      </trkpt>
      <trkpt lat="40.248598" lon="-5.010755">
        <ele>631.6</ele>
        <time>2021-03-27T16:51:10Z</time>
      </trkpt>
      <trkpt lat="40.248564" lon="-5.010861">
        <ele>629.58</ele>
        <time>2021-03-27T16:51:12Z</time>
      </trkpt>
      <trkpt lat="40.24838" lon="-5.011192">
        <ele>626.59</ele>
        <time>2021-03-27T16:51:13Z</time>
      </trkpt>
      <trkpt lat="40.248273" lon="-5.011444">
        <ele>625.78</ele>
        <time>2021-03-27T16:51:15Z</time>
      </trkpt>
      <trkpt lat="40.248192" lon="-5.012038">
        <ele>621.22</ele>
        <time>2021-03-27T16:51:16Z</time>
      </trkpt>
      <trkpt lat="40.248134" lon="-5.012288">
        <ele>619.22</ele>
        <time>2021-03-27T16:51:18Z</time>
      </trkpt>
      <trkpt lat="40.248075" lon="-5.012503">
        <ele>616.51</ele>
        <time>2021-03-27T16:51:19Z</time>
      </trkpt>
      <trkpt lat="40.247983" lon="-5.012764">
        <ele>613.15</ele>
        <time>2021-03-27T16:51:21Z</time>
      </trkpt>
      <trkpt lat="40.247852" lon="-5.013002">
        <ele>612.51</ele>
        <time>2021-03-27T16:51:22Z</time>
      </trkpt>
      <trkpt lat="40.247717" lon="-5.013101">
        <ele>612.37</ele>
        <time>2021-03-27T16:51:24Z</time>
      </trkpt>
      <trkpt lat="40.247282" lon="-5.01327">
        <ele>608.4</ele>
        <time>2021-03-27T16:51:25Z</time>
      </trkpt>
      <trkpt lat="40.246743" lon="-5.013356">
        <ele>605.28</ele>
        <time>2021-03-27T16:51:27Z</time>
      </trkpt>
      <trkpt lat="40.246572" lon="-5.013354">
        <ele>605.01</ele>
        <time>2021-03-27T16:51:28Z</time>
      </trkpt>
      <trkpt lat="40.246295" lon="-5.013313">
        <ele>605.91</ele>
        <time>2021-03-27T16:51:30Z</time>
      </trkpt>
      <trkpt lat="40.246116" lon="-5.013329">
        <ele>606.07</ele>
        <time>2021-03-27T16:51:31Z</time>
      </trkpt>
      <trkpt lat="40.245468" lon="-5.013744">
        <ele>599.1</ele>
        <time>2021-03-27T16:51:33Z</time>
      </trkpt>
      <trkpt lat="40.245251" lon="-5.01381">
        <ele>597.08</ele>
        <time>2021-03-27T16:51:34Z</time>
      </trkpt>
      <trkpt lat="40.245085" lon="-5.013814">
        <ele>596.7</ele>
        <time>2021-03-27T16:51:36Z</time>
      </trkpt>
      <trkpt lat="40.244946" lon="-5.013755">
        <ele>596.49</ele>
        <time>2021-03-27T16:51:37Z</time>
      </trkpt>
      <trkpt lat="40.244744" lon="-5.013547">
        <ele>596.15</ele>
        <time>2021-03-27T16:51:39Z</time>
      </trkpt>
      <trkpt lat="40.244559" lon="-5.013437">
        <ele>596.7</ele>
        <time>2021-03-27T16:51:40Z</time>
      </trkpt>
      <trkpt lat="40.244476" lon="-5.013428">
        <ele>596.44</ele>
        <time>2021-03-27T16:51:42Z</time>
      </trkpt>
      <trkpt lat="40.244203" lon="-5.013502">
        <ele>593.55</ele>
        <time>2021-03-27T16:51:43Z</time>
      </trkpt>
      <trkpt lat="40.24402" lon="-5.013581">
        <ele>592.16</ele>
        <time>2021-03-27T16:51:45Z</time>
      </trkpt>
      <trkpt lat="40.243899" lon="-5.013654">
        <ele>591.21</ele>
        <time>2021-03-27T16:51:46Z</time>
      </trkpt>
      <trkpt lat="40.243552" lon="-5.013917">
        <ele>587.68</ele>
        <time>2021-03-27T16:51:48Z</time>
      </trkpt>
      <trkpt lat="40.242894" lon="-5.014268">
        <ele>582.43</ele>
        <time>2021-03-27T16:51:49Z</time>
      </trkpt>
      <trkpt lat="40.242388" lon="-5.01468">
        <ele>574.31</ele>
        <time>2021-03-27T16:51:51Z</time>
      </trkpt>
      <trkpt lat="40.242238" lon="-5.01483">
        <ele>572.02</ele>
        <time>2021-03-27T16:51:52Z</time>
      </trkpt>
      <trkpt lat="40.242071" lon="-5.01507">
        <ele>569.21</ele>
        <time>2021-03-27T16:51:54Z</time>
      </trkpt>
      <trkpt lat="40.242027" lon="-5.015171">
        <ele>568.38</ele>
        <time>2021-03-27T16:51:55Z</time>
      </trkpt>
      <trkpt lat="40.24171" lon="-5.016126">
        <ele>560.53</ele>
        <time>2021-03-27T16:51:57Z</time>
      </trkpt>
      <trkpt lat="40.241711" lon="-5.016304">
        <ele>558.59</ele>
        <time>2021-03-27T16:51:59Z</time>
      </trkpt>
      <trkpt lat="40.24174" lon="-5.016368">
        <ele>557.69</ele>
        <time>2021-03-27T16:52:00Z</time>
      </trkpt>
      <trkpt lat="40.241796" lon="-5.016437">
        <ele>556.71</ele>
        <time>2021-03-27T16:52:02Z</time>
      </trkpt>
      <trkpt lat="40.241918" lon="-5.016513">
        <ele>555.66</ele>
        <time>2021-03-27T16:52:03Z</time>
      </trkpt>
      <trkpt lat="40.242192" lon="-5.016618">
        <ele>555.33</ele>
        <time>2021-03-27T16:52:05Z</time>
      </trkpt>
      <trkpt lat="40.24234" lon="-5.016728">
        <ele>555.66</ele>
        <time>2021-03-27T16:52:06Z</time>
      </trkpt>
      <trkpt lat="40.242402" lon="-5.016804">
        <ele>555.65</ele>
        <time>2021-03-27T16:52:08Z</time>
      </trkpt>
      <trkpt lat="40.24265" lon="-5.017221">
        <ele>551.48</ele>
        <time>2021-03-27T16:52:09Z</time>
      </trkpt>
      <trkpt lat="40.242972" lon="-5.017634">
        <ele>544.64</ele>
        <time>2021-03-27T16:52:11Z</time>
      </trkpt>
      <trkpt lat="40.243292" lon="-5.017985">
        <ele>539.98</ele>
        <time>2021-03-27T16:52:12Z</time>
      </trkpt>
      <trkpt lat="40.2434" lon="-5.018176">
        <ele>538.24</ele>
        <time>2021-03-27T16:52:14Z</time>
      </trkpt>
      <trkpt lat="40.243613" lon="-5.018644">
        <ele>535.65</ele>
        <time>2021-03-27T16:52:15Z</time>
      </trkpt>
      <trkpt lat="40.243891" lon="-5.019413">
        <ele>530.24</ele>
        <time>2021-03-27T16:52:17Z</time>
      </trkpt>
      <trkpt lat="40.243959" lon="-5.019565">
        <ele>530.07</ele>
        <time>2021-03-27T16:52:18Z</time>
      </trkpt>
      <trkpt lat="40.244185" lon="-5.019917">
        <ele>530.95</ele>
        <time>2021-03-27T16:52:20Z</time>
      </trkpt>
      <trkpt lat="40.244376" lon="-5.020131">
        <ele>530.24</ele>
        <time>2021-03-27T16:52:21Z</time>
      </trkpt>
      <trkpt lat="40.244579" lon="-5.020326">
        <ele>528.45</ele>
        <time>2021-03-27T16:52:23Z</time>
      </trkpt>
      <trkpt lat="40.244843" lon="-5.020522">
        <ele>525.7</ele>
        <time>2021-03-27T16:52:24Z</time>
      </trkpt>
      <trkpt lat="40.245032" lon="-5.020628">
        <ele>523.88</ele>
        <time>2021-03-27T16:52:26Z</time>
      </trkpt>
      <trkpt lat="40.245718" lon="-5.020906">
        <ele>526.32</ele>
        <time>2021-03-27T16:52:27Z</time>
      </trkpt>
      <trkpt lat="40.245342" lon="-5.021711">
        <ele>525.85</ele>
        <time>2021-03-27T16:52:31Z</time>
      </trkpt>
      <trkpt lat="40.245215" lon="-5.021948">
        <ele>525.31</ele>
        <time>2021-03-27T16:52:34Z</time>
      </trkpt>
      <trkpt lat="40.244952" lon="-5.022311">
        <ele>523.71</ele>
        <time>2021-03-27T16:52:37Z</time>
      </trkpt>
      <trkpt lat="40.244541" lon="-5.022713">
        <ele>521.82</ele>
        <time>2021-03-27T16:52:40Z</time>
      </trkpt>
      <trkpt lat="40.244421" lon="-5.022856">
        <ele>521.17</ele>
        <time>2021-03-27T16:52:43Z</time>
      </trkpt>
      <trkpt lat="40.244315" lon="-5.023018">
        <ele>520.99</ele>
        <time>2021-03-27T16:52:46Z</time>
      </trkpt>
      <trkpt lat="40.244171" lon="-5.023311">
        <ele>520.03</ele>
        <time>2021-03-27T16:52:50Z</time>
      </trkpt>
      <trkpt lat="40.242909" lon="-5.026118">
        <ele>517.01</ele>
        <time>2021-03-27T16:52:53Z</time>
      </trkpt>
      <trkpt lat="40.242799" lon="-5.026303">
        <ele>517.05</ele>
        <time>2021-03-27T16:52:56Z</time>
      </trkpt>
      <trkpt lat="40.242591" lon="-5.026585">
        <ele>517.94</ele>
        <time>2021-03-27T16:52:59Z</time>
      </trkpt>
      <trkpt lat="40.242343" lon="-5.026811">
        <ele>517.09</ele>
        <time>2021-03-27T16:53:02Z</time>
      </trkpt>
      <trkpt lat="40.242216" lon="-5.026901">
        <ele>515.98</ele>
        <time>2021-03-27T16:53:05Z</time>
      </trkpt>
      <trkpt lat="40.241016" lon="-5.027616">
        <ele>515.18</ele>
        <time>2021-03-27T16:53:09Z</time>
      </trkpt>
      <trkpt lat="40.240811" lon="-5.027811">
        <ele>517.31</ele>
        <time>2021-03-27T16:53:12Z</time>
      </trkpt>
      <trkpt lat="40.240406" lon="-5.028396">
        <ele>518.34</ele>
        <time>2021-03-27T16:53:15Z</time>
      </trkpt>
      <trkpt lat="40.2402" lon="-5.028599">
        <ele>517.03</ele>
        <time>2021-03-27T16:53:18Z</time>
      </trkpt>
      <trkpt lat="40.240035" lon="-5.028706">
        <ele>517.04</ele>
        <time>2021-03-27T16:53:21Z</time>
      </trkpt>
      <trkpt lat="40.23811" lon="-5.029684">
        <ele>510.26</ele>
        <time>2021-03-27T16:53:25Z</time>
      </trkpt>
      <trkpt lat="40.237603" lon="-5.029986">
        <ele>512.45</ele>
        <time>2021-03-27T16:53:28Z</time>
      </trkpt>
      <trkpt lat="40.237254" lon="-5.030462">
        <ele>517.28</ele>
        <time>2021-03-27T16:53:29Z</time>
      </trkpt>
      <trkpt lat="40.236932" lon="-5.030848">
        <ele>515.91</ele>
        <time>2021-03-27T16:53:30Z</time>
      </trkpt>
      <trkpt lat="40.236559" lon="-5.031349">
        <ele>515.71</ele>
        <time>2021-03-27T16:53:32Z</time>
      </trkpt>
      <trkpt lat="40.235997" lon="-5.032427">
        <ele>522.64</ele>
        <time>2021-03-27T16:53:33Z</time>
      </trkpt>
      <trkpt lat="40.23571" lon="-5.033036">
        <ele>527.04</ele>
        <time>2021-03-27T16:53:35Z</time>
      </trkpt>
      <trkpt lat="40.235446" lon="-5.033715">
        <ele>527.56</ele>
        <time>2021-03-27T16:53:36Z</time>
      </trkpt>
      <trkpt lat="40.235361" lon="-5.033973">
        <ele>527.9</ele>
        <time>2021-03-27T16:53:37Z</time>
      </trkpt>
      <trkpt lat="40.235302" lon="-5.034219">
        <ele>527.27</ele>
        <time>2021-03-27T16:53:39Z</time>
      </trkpt>
      <trkpt lat="40.235334" lon="-5.035285">
        <ele>527.4</ele>
        <time>2021-03-27T16:53:40Z</time>
      </trkpt>
      <trkpt lat="40.235313" lon="-5.035592">
        <ele>527.39</ele>
        <time>2021-03-27T16:53:42Z</time>
      </trkpt>
      <trkpt lat="40.235166" lon="-5.036181">
        <ele>530.95</ele>
        <time>2021-03-27T16:53:43Z</time>
      </trkpt>
      <trkpt lat="40.235066" lon="-5.036498">
        <ele>533.74</ele>
        <time>2021-03-27T16:53:44Z</time>
      </trkpt>
      <trkpt lat="40.234951" lon="-5.03678">
        <ele>536.21</ele>
        <time>2021-03-27T16:53:46Z</time>
      </trkpt>
      <trkpt lat="40.234797" lon="-5.037016">
        <ele>537.84</ele>
        <time>2021-03-27T16:53:47Z</time>
      </trkpt>
      <trkpt lat="40.234576" lon="-5.0372">
        <ele>537.61</ele>
        <time>2021-03-27T16:53:49Z</time>
      </trkpt>
      <trkpt lat="40.234363" lon="-5.037427">
        <ele>539.48</ele>
        <time>2021-03-27T16:53:50Z</time>
      </trkpt>
      <trkpt lat="40.233933" lon="-5.037739">
        <ele>543.72</ele>
        <time>2021-03-27T16:53:51Z</time>
      </trkpt>
      <trkpt lat="40.23373" lon="-5.037911">
        <ele>545.92</ele>
        <time>2021-03-27T16:53:53Z</time>
      </trkpt>
      <trkpt lat="40.232448" lon="-5.039885">
        <ele>568.93</ele>
        <time>2021-03-27T16:53:54Z</time>
      </trkpt>
      <trkpt lat="40.232307" lon="-5.039948">
        <ele>569.99</ele>
        <time>2021-03-27T16:53:55Z</time>
      </trkpt>
      <trkpt lat="40.231913" lon="-5.039859">
        <ele>568.2</ele>
        <time>2021-03-27T16:53:57Z</time>
      </trkpt>
      <trkpt lat="40.231653" lon="-5.039989">
        <ele>567.75</ele>
        <time>2021-03-27T16:53:58Z</time>
      </trkpt>
      <trkpt lat="40.231471" lon="-5.040159">
        <ele>570.2</ele>
        <time>2021-03-27T16:54:00Z</time>
      </trkpt>
      <trkpt lat="40.231338" lon="-5.040358">
        <ele>572.65</ele>
        <time>2021-03-27T16:54:01Z</time>
      </trkpt>
      <trkpt lat="40.231232" lon="-5.040558">
        <ele>574.19</ele>
        <time>2021-03-27T16:54:02Z</time>
      </trkpt>
      <trkpt lat="40.231175" lon="-5.040721">
        <ele>574.33</ele>
        <time>2021-03-27T16:54:04Z</time>
      </trkpt>
      <trkpt lat="40.231191" lon="-5.040873">
        <ele>575.87</ele>
        <time>2021-03-27T16:54:05Z</time>
      </trkpt>
      <trkpt lat="40.23127" lon="-5.040961">
        <ele>578.24</ele>
        <time>2021-03-27T16:54:07Z</time>
      </trkpt>
      <trkpt lat="40.231353" lon="-5.041015">
        <ele>580.32</ele>
        <time>2021-03-27T16:54:08Z</time>
      </trkpt>
      <trkpt lat="40.231558" lon="-5.041035">
        <ele>584.22</ele>
        <time>2021-03-27T16:54:09Z</time>
      </trkpt>
      <trkpt lat="40.232433" lon="-5.040925">
        <ele>595.01</ele>
        <time>2021-03-27T16:54:11Z</time>
      </trkpt>
      <trkpt lat="40.232915" lon="-5.040698">
        <ele>595.34</ele>
        <time>2021-03-27T16:54:12Z</time>
      </trkpt>
      <trkpt lat="40.233063" lon="-5.040695">
        <ele>597.57</ele>
        <time>2021-03-27T16:54:14Z</time>
      </trkpt>
      <trkpt lat="40.233465" lon="-5.040755">
        <ele>602.07</ele>
        <time>2021-03-27T16:54:15Z</time>
      </trkpt>
      <trkpt lat="40.233607" lon="-5.04072">
        <ele>601.71</ele>
        <time>2021-03-27T16:54:16Z</time>
      </trkpt>
      <trkpt lat="40.233778" lon="-5.040518">
        <ele>600.5</ele>
        <time>2021-03-27T16:54:18Z</time>
      </trkpt>
      <trkpt lat="40.233936" lon="-5.040266">
        <ele>598.93</ele>
        <time>2021-03-27T16:54:19Z</time>
      </trkpt>
      <trkpt lat="40.234023" lon="-5.040228">
        <ele>600.3</ele>
        <time>2021-03-27T16:54:20Z</time>
      </trkpt>
      <trkpt lat="40.234092" lon="-5.040263">
        <ele>602.81</ele>
        <time>2021-03-27T16:54:22Z</time>
      </trkpt>
      <trkpt lat="40.234128" lon="-5.040319">
        <ele>605.05</ele>
        <time>2021-03-27T16:54:23Z</time>
      </trkpt>
      <trkpt lat="40.234148" lon="-5.040423">
        <ele>608.17</ele>
        <time>2021-03-27T16:54:25Z</time>
      </trkpt>
      <trkpt lat="40.234094" lon="-5.040547">
        <ele>609.7</ele>
        <time>2021-03-27T16:54:26Z</time>
      </trkpt>
      <trkpt lat="40.233856" lon="-5.040748">
        <ele>608.1</ele>
        <time>2021-03-27T16:54:27Z</time>
      </trkpt>
      <trkpt lat="40.233732" lon="-5.040982">
        <ele>614.26</ele>
        <time>2021-03-27T16:54:29Z</time>
      </trkpt>
      <trkpt lat="40.233598" lon="-5.041105">
        <ele>616.62</ele>
        <time>2021-03-27T16:54:30Z</time>
      </trkpt>
      <trkpt lat="40.233159" lon="-5.04133">
        <ele>619.94</ele>
        <time>2021-03-27T16:54:32Z</time>
      </trkpt>
      <trkpt lat="40.232465" lon="-5.041969">
        <ele>624.75</ele>
        <time>2021-03-27T16:54:33Z</time>
      </trkpt>
      <trkpt lat="40.23235" lon="-5.042121">
        <ele>624.68</ele>
        <time>2021-03-27T16:54:34Z</time>
      </trkpt>
      <trkpt lat="40.232241" lon="-5.042406">
        <ele>625.89</ele>
        <time>2021-03-27T16:54:36Z</time>
      </trkpt>
      <trkpt lat="40.231996" lon="-5.043781">
        <ele>635.59</ele>
        <time>2021-03-27T16:54:37Z</time>
      </trkpt>
      <trkpt lat="40.231966" lon="-5.044021">
        <ele>635.41</ele>
        <time>2021-03-27T16:54:39Z</time>
      </trkpt>
      <trkpt lat="40.231973" lon="-5.044194">
        <ele>636.65</ele>
        <time>2021-03-27T16:54:40Z</time>
      </trkpt>
      <trkpt lat="40.232035" lon="-5.044329">
        <ele>641.08</ele>
        <time>2021-03-27T16:54:41Z</time>
      </trkpt>
      <trkpt lat="40.232163" lon="-5.044537">
        <ele>649.57</ele>
        <time>2021-03-27T16:54:43Z</time>
      </trkpt>
      <trkpt lat="40.232202" lon="-5.044656">
        <ele>653.7</ele>
        <time>2021-03-27T16:54:44Z</time>
      </trkpt>
      <trkpt lat="40.232181" lon="-5.044806">
        <ele>656.26</ele>
        <time>2021-03-27T16:54:45Z</time>
      </trkpt>
      <trkpt lat="40.232128" lon="-5.044871">
        <ele>655.5</ele>
        <time>2021-03-27T16:54:47Z</time>
      </trkpt>
      <trkpt lat="40.231774" lon="-5.045098">
        <ele>648.81</ele>
        <time>2021-03-27T16:54:48Z</time>
      </trkpt>
      <trkpt lat="40.231612" lon="-5.045285">
        <ele>650.55</ele>
        <time>2021-03-27T16:54:50Z</time>
      </trkpt>
      <trkpt lat="40.231461" lon="-5.045416">
        <ele>653.29</ele>
        <time>2021-03-27T16:54:51Z</time>
      </trkpt>
      <trkpt lat="40.231315" lon="-5.045496">
        <ele>654.39</ele>
        <time>2021-03-27T16:54:52Z</time>
      </trkpt>
      <trkpt lat="40.231084" lon="-5.045543">
        <ele>654.13</ele>
        <time>2021-03-27T16:54:54Z</time>
      </trkpt>
      <trkpt lat="40.230973" lon="-5.045629">
        <ele>655.54</ele>
        <time>2021-03-27T16:54:55Z</time>
      </trkpt>
      <trkpt lat="40.230801" lon="-5.045921">
        <ele>663.8</ele>
        <time>2021-03-27T16:54:57Z</time>
      </trkpt>
      <trkpt lat="40.230575" lon="-5.046045">
        <ele>663.32</ele>
        <time>2021-03-27T16:54:58Z</time>
      </trkpt>
      <trkpt lat="40.230412" lon="-5.046117">
        <ele>663.69</ele>
        <time>2021-03-27T16:54:59Z</time>
      </trkpt>
      <trkpt lat="40.230254" lon="-5.046117">
        <ele>662.24</ele>
        <time>2021-03-27T16:55:01Z</time>
      </trkpt>
      <trkpt lat="40.23014" lon="-5.046072">
        <ele>661.01</ele>
        <time>2021-03-27T16:55:02Z</time>
      </trkpt>
      <trkpt lat="40.230006" lon="-5.045981">
        <ele>659.18</ele>
        <time>2021-03-27T16:55:04Z</time>
      </trkpt>
      <trkpt lat="40.229877" lon="-5.045961">
        <ele>658.31</ele>
        <time>2021-03-27T16:55:05Z</time>
      </trkpt>
      <trkpt lat="40.229738" lon="-5.046011">
        <ele>658.89</ele>
        <time>2021-03-27T16:55:06Z</time>
      </trkpt>
      <trkpt lat="40.229593" lon="-5.046101">
        <ele>658.02</ele>
        <time>2021-03-27T16:55:08Z</time>
      </trkpt>
      <trkpt lat="40.229418" lon="-5.04631">
        <ele>661.81</ele>
        <time>2021-03-27T16:55:09Z</time>
      </trkpt>
      <trkpt lat="40.229135" lon="-5.046788">
        <ele>672.11</ele>
        <time>2021-03-27T16:55:10Z</time>
      </trkpt>
      <trkpt lat="40.229029" lon="-5.046898">
        <ele>673.76</ele>
        <time>2021-03-27T16:55:12Z</time>
      </trkpt>
      <trkpt lat="40.22869" lon="-5.046942">
        <ele>670.81</ele>
        <time>2021-03-27T16:55:13Z</time>
      </trkpt>
      <trkpt lat="40.228488" lon="-5.047023">
        <ele>670.87</ele>
        <time>2021-03-27T16:55:15Z</time>
      </trkpt>
      <trkpt lat="40.228247" lon="-5.047203">
        <ele>669.9</ele>
        <time>2021-03-27T16:55:16Z</time>
      </trkpt>
      <trkpt lat="40.228148" lon="-5.047332">
        <ele>670.11</ele>
        <time>2021-03-27T16:55:17Z</time>
      </trkpt>
      <trkpt lat="40.227978" lon="-5.047743">
        <ele>675.18</ele>
        <time>2021-03-27T16:55:19Z</time>
      </trkpt>
      <trkpt lat="40.227787" lon="-5.048005">
        <ele>678.84</ele>
        <time>2021-03-27T16:55:20Z</time>
      </trkpt>
      <trkpt lat="40.227787" lon="-5.048005">
        <ele>678.84</ele>
        <time>2021-03-27T16:55:20Z</time>
      </trkpt>
      <trkpt lat="40.227597" lon="-5.048265">
        <ele>682.5</ele>
        <time>2021-03-27T16:55:23Z</time>
      </trkpt>
      <trkpt lat="40.22701" lon="-5.048771">
        <ele>691.95</ele>
        <time>2021-03-27T16:55:26Z</time>
      </trkpt>
      <trkpt lat="40.226911" lon="-5.048914">
        <ele>693.79</ele>
        <time>2021-03-27T16:55:28Z</time>
      </trkpt>
      <trkpt lat="40.226844" lon="-5.049089">
        <ele>695.36</ele>
        <time>2021-03-27T16:55:31Z</time>
      </trkpt>
      <trkpt lat="40.226812" lon="-5.04923">
        <ele>695.46</ele>
        <time>2021-03-27T16:55:34Z</time>
      </trkpt>
      <trkpt lat="40.226807" lon="-5.049412">
        <ele>694.22</ele>
        <time>2021-03-27T16:55:36Z</time>
      </trkpt>
      <trkpt lat="40.226817" lon="-5.049561">
        <ele>693.72</ele>
        <time>2021-03-27T16:55:39Z</time>
      </trkpt>
      <trkpt lat="40.226907" lon="-5.050045">
        <ele>692.68</ele>
        <time>2021-03-27T16:55:42Z</time>
      </trkpt>
      <trkpt lat="40.226903" lon="-5.050259">
        <ele>691.78</ele>
        <time>2021-03-27T16:55:44Z</time>
      </trkpt>
      <trkpt lat="40.22687" lon="-5.050415">
        <ele>690.84</ele>
        <time>2021-03-27T16:55:47Z</time>
      </trkpt>
      <trkpt lat="40.226376" lon="-5.051755">
        <ele>682.6</ele>
        <time>2021-03-27T16:55:50Z</time>
      </trkpt>
      <trkpt lat="40.226253" lon="-5.052132">
        <ele>681.18</ele>
        <time>2021-03-27T16:55:52Z</time>
      </trkpt>
      <trkpt lat="40.226188" lon="-5.05242">
        <ele>680.16</ele>
        <time>2021-03-27T16:55:55Z</time>
      </trkpt>
      <trkpt lat="40.225972" lon="-5.05428">
        <ele>669.7</ele>
        <time>2021-03-27T16:55:58Z</time>
      </trkpt>
      <trkpt lat="40.225913" lon="-5.054586">
        <ele>669.72</ele>
        <time>2021-03-27T16:56:00Z</time>
      </trkpt>
      <trkpt lat="40.225859" lon="-5.054706">
        <ele>669.27</ele>
        <time>2021-03-27T16:56:03Z</time>
      </trkpt>
      <trkpt lat="40.225791" lon="-5.0548">
        <ele>668.44</ele>
        <time>2021-03-27T16:56:06Z</time>
      </trkpt>
      <trkpt lat="40.225658" lon="-5.054927">
        <ele>666.94</ele>
        <time>2021-03-27T16:56:08Z</time>
      </trkpt>
      <trkpt lat="40.22436" lon="-5.055932">
        <ele>666.1</ele>
        <time>2021-03-27T16:56:11Z</time>
      </trkpt>
      <trkpt lat="40.224202" lon="-5.056079">
        <ele>666.03</ele>
        <time>2021-03-27T16:56:14Z</time>
      </trkpt>
      <trkpt lat="40.224016" lon="-5.056293">
        <ele>664.84</ele>
        <time>2021-03-27T16:56:16Z</time>
      </trkpt>
      <trkpt lat="40.223831" lon="-5.056565">
        <ele>663.8</ele>
        <time>2021-03-27T16:56:19Z</time>
      </trkpt>
      <trkpt lat="40.222977" lon="-5.057889">
        <ele>653.72</ele>
        <time>2021-03-27T16:56:22Z</time>
      </trkpt>
      <trkpt lat="40.222847" lon="-5.05828">
        <ele>652.75</ele>
        <time>2021-03-27T16:56:24Z</time>
      </trkpt>
      <trkpt lat="40.222733" lon="-5.058733">
        <ele>651.15</ele>
        <time>2021-03-27T16:56:27Z</time>
      </trkpt>
      <trkpt lat="40.222602" lon="-5.059112">
        <ele>650.83</ele>
        <time>2021-03-27T16:56:30Z</time>
      </trkpt>
      <trkpt lat="40.222053" lon="-5.060306">
        <ele>646.63</ele>
        <time>2021-03-27T16:56:32Z</time>
      </trkpt>
      <trkpt lat="40.221934" lon="-5.060485">
        <ele>645.7</ele>
        <time>2021-03-27T16:56:35Z</time>
      </trkpt>
      <trkpt lat="40.221483" lon="-5.061002">
        <ele>643.33</ele>
        <time>2021-03-27T16:56:38Z</time>
      </trkpt>
      <trkpt lat="40.221305" lon="-5.061304">
        <ele>641.49</ele>
        <time>2021-03-27T16:56:40Z</time>
      </trkpt>
      <trkpt lat="40.220504" lon="-5.06304">
        <ele>635.38</ele>
        <time>2021-03-27T16:56:43Z</time>
      </trkpt>
      <trkpt lat="40.220361" lon="-5.063425">
        <ele>636.2</ele>
        <time>2021-03-27T16:56:46Z</time>
      </trkpt>
      <trkpt lat="40.220049" lon="-5.064399">
        <ele>636.74</ele>
        <time>2021-03-27T16:56:48Z</time>
      </trkpt>
      <trkpt lat="40.219777" lon="-5.065076">
        <ele>635.83</ele>
        <time>2021-03-27T16:56:51Z</time>
      </trkpt>
      <trkpt lat="40.219705" lon="-5.065343">
        <ele>634.05</ele>
        <time>2021-03-27T16:56:54Z</time>
      </trkpt>
      <trkpt lat="40.219575" lon="-5.065983">
        <ele>630.02</ele>
        <time>2021-03-27T16:56:56Z</time>
      </trkpt>
      <trkpt lat="40.219497" lon="-5.066218">
        <ele>628.9</ele>
        <time>2021-03-27T16:56:59Z</time>
      </trkpt>
      <trkpt lat="40.219103" lon="-5.066998">
        <ele>627.99</ele>
        <time>2021-03-27T16:57:02Z</time>
      </trkpt>
      <trkpt lat="40.218975" lon="-5.067329">
        <ele>621.35</ele>
        <time>2021-03-27T16:57:04Z</time>
      </trkpt>
      <trkpt lat="40.218877" lon="-5.067524">
        <ele>616.41</ele>
        <time>2021-03-27T16:57:07Z</time>
      </trkpt>
      <trkpt lat="40.218797" lon="-5.067611">
        <ele>614.4</ele>
        <time>2021-03-27T16:57:10Z</time>
      </trkpt>
      <trkpt lat="40.218716" lon="-5.067666">
        <ele>612.96</ele>
        <time>2021-03-27T16:57:12Z</time>
      </trkpt>
      <trkpt lat="40.218416" lon="-5.067763">
        <ele>613.81</ele>
        <time>2021-03-27T16:57:15Z</time>
      </trkpt>
      <trkpt lat="40.218305" lon="-5.067845">
        <ele>613.76</ele>
        <time>2021-03-27T16:57:18Z</time>
      </trkpt>
      <trkpt lat="40.218202" lon="-5.067979">
        <ele>613.1</ele>
        <time>2021-03-27T16:57:20Z</time>
      </trkpt>
      <trkpt lat="40.21814" lon="-5.068155">
        <ele>610.34</ele>
        <time>2021-03-27T16:57:23Z</time>
      </trkpt>
      <trkpt lat="40.218018" lon="-5.06873">
        <ele>606.44</ele>
        <time>2021-03-27T16:57:26Z</time>
      </trkpt>
      <trkpt lat="40.217918" lon="-5.069105">
        <ele>606.52</ele>
        <time>2021-03-27T16:57:28Z</time>
      </trkpt>
      <trkpt lat="40.217676" lon="-5.069773">
        <ele>608.82</ele>
        <time>2021-03-27T16:57:31Z</time>
      </trkpt>
      <trkpt lat="40.217652" lon="-5.069998">
        <ele>609.26</ele>
        <time>2021-03-27T16:57:34Z</time>
      </trkpt>
      <trkpt lat="40.217626" lon="-5.070566">
        <ele>601.65</ele>
        <time>2021-03-27T16:57:37Z</time>
      </trkpt>
      <trkpt lat="40.217584" lon="-5.070908">
        <ele>595.54</ele>
        <time>2021-03-27T16:57:39Z</time>
      </trkpt>
      <trkpt lat="40.217451" lon="-5.071674">
        <ele>591.84</ele>
        <time>2021-03-27T16:57:42Z</time>
      </trkpt>
      <trkpt lat="40.217372" lon="-5.071906">
        <ele>591.65</ele>
        <time>2021-03-27T16:57:45Z</time>
      </trkpt>
      <trkpt lat="40.217227" lon="-5.072125">
        <ele>589.71</ele>
        <time>2021-03-27T16:57:47Z</time>
      </trkpt>
      <trkpt lat="40.21654" lon="-5.073043">
        <ele>584.03</ele>
        <time>2021-03-27T16:57:50Z</time>
      </trkpt>
      <trkpt lat="40.216158" lon="-5.0738">
        <ele>578.47</ele>
        <time>2021-03-27T16:57:53Z</time>
      </trkpt>
      <trkpt lat="40.215813" lon="-5.074283">
        <ele>570.86</ele>
        <time>2021-03-27T16:57:55Z</time>
      </trkpt>
      <trkpt lat="40.215733" lon="-5.074494">
        <ele>571.57</ele>
        <time>2021-03-27T16:57:58Z</time>
      </trkpt>
      <trkpt lat="40.215593" lon="-5.074981">
        <ele>570.71</ele>
        <time>2021-03-27T16:58:01Z</time>
      </trkpt>
      <trkpt lat="40.215512" lon="-5.075186">
        <ele>569.62</ele>
        <time>2021-03-27T16:58:03Z</time>
      </trkpt>
      <trkpt lat="40.215395" lon="-5.075415">
        <ele>569.03</ele>
        <time>2021-03-27T16:58:06Z</time>
      </trkpt>
      <trkpt lat="40.214283" lon="-5.077312">
        <ele>562.07</ele>
        <time>2021-03-27T16:58:09Z</time>
      </trkpt>
      <trkpt lat="40.213748" lon="-5.078161">
        <ele>559.38</ele>
        <time>2021-03-27T16:58:11Z</time>
      </trkpt>
      <trkpt lat="40.213768" lon="-5.078195">
        <ele>559.5</ele>
        <time>2021-03-27T16:58:15Z</time>
      </trkpt>
      <trkpt lat="40.213764" lon="-5.07826">
        <ele>559.73</ele>
        <time>2021-03-27T16:58:20Z</time>
      </trkpt>
      <trkpt lat="40.213725" lon="-5.078295">
        <ele>559.86</ele>
        <time>2021-03-27T16:58:24Z</time>
      </trkpt>
      <trkpt lat="40.213674" lon="-5.078273">
        <ele>559.78</ele>
        <time>2021-03-27T16:58:28Z</time>
      </trkpt>
      <trkpt lat="40.213543" lon="-5.078438">
        <ele>560.04</ele>
        <time>2021-03-27T16:58:32Z</time>
      </trkpt>
      <trkpt lat="40.212649" lon="-5.079785">
        <ele>559.67</ele>
        <time>2021-03-27T16:58:36Z</time>
      </trkpt>
      <trkpt lat="40.21161" lon="-5.080881">
        <ele>558.0</ele>
        <time>2021-03-27T16:58:41Z</time>
      </trkpt>
      <trkpt lat="40.211319" lon="-5.081247">
        <ele>556.02</ele>
        <time>2021-03-27T16:58:45Z</time>
      </trkpt>
      <trkpt lat="40.210981" lon="-5.081852">
        <ele>553.8</ele>
        <time>2021-03-27T16:58:49Z</time>
      </trkpt>
      <trkpt lat="40.210897" lon="-5.08212">
        <ele>552.65</ele>
        <time>2021-03-27T16:58:53Z</time>
      </trkpt>
      <trkpt lat="40.210854" lon="-5.082407">
        <ele>551.28</ele>
        <time>2021-03-27T16:58:57Z</time>
      </trkpt>
      <trkpt lat="40.210849" lon="-5.082448">
        <ele>551.14</ele>
        <time>2021-03-27T16:59:01Z</time>
      </trkpt>
      <trkpt lat="40.210859" lon="-5.082489">
        <ele>550.95</ele>
        <time>2021-03-27T16:59:05Z</time>
      </trkpt>
      <trkpt lat="40.210853" lon="-5.082606">
        <ele>550.93</ele>
        <time>2021-03-27T16:59:08Z</time>
      </trkpt>
      <trkpt lat="40.21083" lon="-5.082738">
        <ele>551.0</ele>
        <time>2021-03-27T16:59:12Z</time>
      </trkpt>
      <trkpt lat="40.210682" lon="-5.084476">
        <ele>540.42</ele>
        <time>2021-03-27T16:59:16Z</time>
      </trkpt>
      <trkpt lat="40.210651" lon="-5.084681">
        <ele>539.54</ele>
        <time>2021-03-27T16:59:19Z</time>
      </trkpt>
      <trkpt lat="40.210536" lon="-5.08503">
        <ele>536.65</ele>
        <time>2021-03-27T16:59:23Z</time>
      </trkpt>
      <trkpt lat="40.210172" lon="-5.085981">
        <ele>531.02</ele>
        <time>2021-03-27T16:59:27Z</time>
      </trkpt>
      <trkpt lat="40.210147" lon="-5.086107">
        <ele>531.36</ele>
        <time>2021-03-27T16:59:30Z</time>
      </trkpt>
      <trkpt lat="40.21014" lon="-5.086192">
        <ele>531.33</ele>
        <time>2021-03-27T16:59:34Z</time>
      </trkpt>
      <trkpt lat="40.210185" lon="-5.086427">
        <ele>530.25</ele>
        <time>2021-03-27T16:59:38Z</time>
      </trkpt>
      <trkpt lat="40.210365" lon="-5.087175">
        <ele>526.72</ele>
        <time>2021-03-27T16:59:41Z</time>
      </trkpt>
      <trkpt lat="40.210364" lon="-5.087311">
        <ele>526.09</ele>
        <time>2021-03-27T16:59:45Z</time>
      </trkpt>
      <trkpt lat="40.210131" lon="-5.088145">
        <ele>523.68</ele>
        <time>2021-03-27T16:59:49Z</time>
      </trkpt>
      <trkpt lat="40.209827" lon="-5.08942">
        <ele>521.43</ele>
        <time>2021-03-27T16:59:52Z</time>
      </trkpt>
      <trkpt lat="40.209688" lon="-5.090282">
        <ele>516.12</ele>
        <time>2021-03-27T16:59:56Z</time>
      </trkpt>
      <trkpt lat="40.209615" lon="-5.090898">
        <ele>515.47</ele>
        <time>2021-03-27T17:00:00Z</time>
      </trkpt>
      <trkpt lat="40.209639" lon="-5.091062">
        <ele>515.13</ele>
        <time>2021-03-27T17:00:03Z</time>
      </trkpt>
      <trkpt lat="40.209679" lon="-5.091179">
        <ele>514.64</ele>
        <time>2021-03-27T17:00:07Z</time>
      </trkpt>
      <trkpt lat="40.209768" lon="-5.091332">
        <ele>514.24</ele>
        <time>2021-03-27T17:00:11Z</time>
      </trkpt>
      <trkpt lat="40.210072" lon="-5.091753">
        <ele>512.38</ele>
        <time>2021-03-27T17:00:14Z</time>
      </trkpt>
      <trkpt lat="40.210104" lon="-5.091887">
        <ele>511.41</ele>
        <time>2021-03-27T17:00:18Z</time>
      </trkpt>
      <trkpt lat="40.210115" lon="-5.092236">
        <ele>507.9</ele>
        <time>2021-03-27T17:00:22Z</time>
      </trkpt>
      <trkpt lat="40.210268" lon="-5.092519">
        <ele>505.86</ele>
        <time>2021-03-27T17:00:24Z</time>
      </trkpt>
      <trkpt lat="40.210389" lon="-5.092622">
        <ele>505.07</ele>
        <time>2021-03-27T17:00:27Z</time>
      </trkpt>
      <trkpt lat="40.210871" lon="-5.093123">
        <ele>506.34</ele>
        <time>2021-03-27T17:00:30Z</time>
      </trkpt>
      <trkpt lat="40.211192" lon="-5.093475">
        <ele>507.8</ele>
        <time>2021-03-27T17:00:32Z</time>
      </trkpt>
      <trkpt lat="40.211543" lon="-5.093915">
        <ele>509.6</ele>
        <time>2021-03-27T17:00:35Z</time>
      </trkpt>
      <trkpt lat="40.211671" lon="-5.094053">
        <ele>510.01</ele>
        <time>2021-03-27T17:00:38Z</time>
      </trkpt>
      <trkpt lat="40.211786" lon="-5.094142">
        <ele>510.39</ele>
        <time>2021-03-27T17:00:41Z</time>
      </trkpt>
      <trkpt lat="40.212866" lon="-5.094724">
        <ele>518.29</ele>
        <time>2021-03-27T17:00:43Z</time>
      </trkpt>
      <trkpt lat="40.213058" lon="-5.094884">
        <ele>524.53</ele>
        <time>2021-03-27T17:00:46Z</time>
      </trkpt>
      <trkpt lat="40.213118" lon="-5.0949">
        <ele>525.67</ele>
        <time>2021-03-27T17:00:49Z</time>
      </trkpt>
      <trkpt lat="40.213215" lon="-5.094883">
        <ele>526.54</ele>
        <time>2021-03-27T17:00:52Z</time>
      </trkpt>
      <trkpt lat="40.213523" lon="-5.094588">
        <ele>522.99</ele>
        <time>2021-03-27T17:00:54Z</time>
      </trkpt>
      <trkpt lat="40.213708" lon="-5.094463">
        <ele>522.48</ele>
        <time>2021-03-27T17:00:57Z</time>
      </trkpt>
      <trkpt lat="40.213805" lon="-5.094416">
        <ele>522.59</ele>
        <time>2021-03-27T17:01:00Z</time>
      </trkpt>
      <trkpt lat="40.21403" lon="-5.094353">
        <ele>523.36</ele>
        <time>2021-03-27T17:01:03Z</time>
      </trkpt>
      <trkpt lat="40.214145" lon="-5.094347">
        <ele>524.09</ele>
        <time>2021-03-27T17:01:05Z</time>
      </trkpt>
      <trkpt lat="40.214484" lon="-5.094385">
        <ele>524.79</ele>
        <time>2021-03-27T17:01:08Z</time>
      </trkpt>
      <trkpt lat="40.215028" lon="-5.09437">
        <ele>522.96</ele>
        <time>2021-03-27T17:01:11Z</time>
      </trkpt>
      <trkpt lat="40.21513" lon="-5.09439">
        <ele>523.31</ele>
        <time>2021-03-27T17:01:14Z</time>
      </trkpt>
      <trkpt lat="40.215277" lon="-5.094461">
        <ele>524.3</ele>
        <time>2021-03-27T17:01:16Z</time>
      </trkpt>
      <trkpt lat="40.215551" lon="-5.09481">
        <ele>528.29</ele>
        <time>2021-03-27T17:01:19Z</time>
      </trkpt>
      <trkpt lat="40.216201" lon="-5.095493">
        <ele>527.28</ele>
        <time>2021-03-27T17:01:22Z</time>
      </trkpt>
      <trkpt lat="40.216355" lon="-5.095635">
        <ele>527.79</ele>
        <time>2021-03-27T17:01:25Z</time>
      </trkpt>
      <trkpt lat="40.217175" lon="-5.096166">
        <ele>533.34</ele>
        <time>2021-03-27T17:01:27Z</time>
      </trkpt>
      <trkpt lat="40.2174" lon="-5.096337">
        <ele>532.97</ele>
        <time>2021-03-27T17:01:30Z</time>
      </trkpt>
      <trkpt lat="40.21749" lon="-5.096512">
        <ele>533.99</ele>
        <time>2021-03-27T17:01:33Z</time>
      </trkpt>
      <trkpt lat="40.217589" lon="-5.096932">
        <ele>535.37</ele>
        <time>2021-03-27T17:01:36Z</time>
      </trkpt>
      <trkpt lat="40.217609" lon="-5.097099">
        <ele>536.29</ele>
        <time>2021-03-27T17:01:38Z</time>
      </trkpt>
      <trkpt lat="40.21763" lon="-5.097559">
        <ele>539.12</ele>
        <time>2021-03-27T17:01:41Z</time>
      </trkpt>
      <trkpt lat="40.217678" lon="-5.097917">
        <ele>541.28</ele>
        <time>2021-03-27T17:01:44Z</time>
      </trkpt>
      <trkpt lat="40.21771" lon="-5.098031">
        <ele>541.21</ele>
        <time>2021-03-27T17:01:47Z</time>
      </trkpt>
      <trkpt lat="40.217821" lon="-5.098288">
        <ele>540.88</ele>
        <time>2021-03-27T17:01:49Z</time>
      </trkpt>
      <trkpt lat="40.217996" lon="-5.098522">
        <ele>539.0</ele>
        <time>2021-03-27T17:01:52Z</time>
      </trkpt>
      <trkpt lat="40.218081" lon="-5.098591">
        <ele>537.71</ele>
        <time>2021-03-27T17:01:55Z</time>
      </trkpt>
      <trkpt lat="40.218393" lon="-5.098729">
        <ele>535.94</ele>
        <time>2021-03-27T17:01:57Z</time>
      </trkpt>
      <trkpt lat="40.218532" lon="-5.098821">
        <ele>537.05</ele>
        <time>2021-03-27T17:02:00Z</time>
      </trkpt>
      <trkpt lat="40.218655" lon="-5.09887">
        <ele>537.96</ele>
        <time>2021-03-27T17:02:03Z</time>
      </trkpt>
      <trkpt lat="40.218773" lon="-5.098892">
        <ele>538.63</ele>
        <time>2021-03-27T17:02:06Z</time>
      </trkpt>
      <trkpt lat="40.219287" lon="-5.098892">
        <ele>540.48</ele>
        <time>2021-03-27T17:02:08Z</time>
      </trkpt>
      <trkpt lat="40.219512" lon="-5.098852">
        <ele>541.06</ele>
        <time>2021-03-27T17:02:11Z</time>
      </trkpt>
      <trkpt lat="40.219966" lon="-5.098715">
        <ele>543.67</ele>
        <time>2021-03-27T17:02:14Z</time>
      </trkpt>
      <trkpt lat="40.220458" lon="-5.098475">
        <ele>546.15</ele>
        <time>2021-03-27T17:02:17Z</time>
      </trkpt>
      <trkpt lat="40.220621" lon="-5.098415">
        <ele>546.95</ele>
        <time>2021-03-27T17:02:19Z</time>
      </trkpt>
      <trkpt lat="40.220783" lon="-5.098387">
        <ele>547.59</ele>
        <time>2021-03-27T17:02:22Z</time>
      </trkpt>
      <trkpt lat="40.221587" lon="-5.098368">
        <ele>546.08</ele>
        <time>2021-03-27T17:02:25Z</time>
      </trkpt>
      <trkpt lat="40.223215" lon="-5.098293">
        <ele>555.71</ele>
        <time>2021-03-27T17:02:28Z</time>
      </trkpt>
      <trkpt lat="40.223681" lon="-5.098233">
        <ele>558.14</ele>
        <time>2021-03-27T17:02:30Z</time>
      </trkpt>
      <trkpt lat="40.224753" lon="-5.098247">
        <ele>563.35</ele>
        <time>2021-03-27T17:02:33Z</time>
      </trkpt>
      <trkpt lat="40.224956" lon="-5.098315">
        <ele>563.81</ele>
        <time>2021-03-27T17:02:36Z</time>
      </trkpt>
      <trkpt lat="40.225295" lon="-5.0985">
        <ele>568.73</ele>
        <time>2021-03-27T17:02:39Z</time>
      </trkpt>
      <trkpt lat="40.225407" lon="-5.098525">
        <ele>571.26</ele>
        <time>2021-03-27T17:02:41Z</time>
      </trkpt>
      <trkpt lat="40.225566" lon="-5.098523">
        <ele>574.16</ele>
        <time>2021-03-27T17:02:44Z</time>
      </trkpt>
      <trkpt lat="40.225708" lon="-5.098491">
        <ele>574.26</ele>
        <time>2021-03-27T17:02:47Z</time>
      </trkpt>
      <trkpt lat="40.226565" lon="-5.098208">
        <ele>574.18</ele>
        <time>2021-03-27T17:02:50Z</time>
      </trkpt>
      <trkpt lat="40.226971" lon="-5.09816">
        <ele>576.57</ele>
        <time>2021-03-27T17:02:52Z</time>
      </trkpt>
      <trkpt lat="40.227118" lon="-5.098065">
        <ele>576.67</ele>
        <time>2021-03-27T17:02:55Z</time>
      </trkpt>
      <trkpt lat="40.227462" lon="-5.097716">
        <ele>576.46</ele>
        <time>2021-03-27T17:02:58Z</time>
      </trkpt>
      <trkpt lat="40.227582" lon="-5.09762">
        <ele>577.05</ele>
        <time>2021-03-27T17:03:01Z</time>
      </trkpt>
      <trkpt lat="40.22793" lon="-5.097233">
        <ele>577.34</ele>
        <time>2021-03-27T17:03:03Z</time>
      </trkpt>
      <trkpt lat="40.228077" lon="-5.097094">
        <ele>578.01</ele>
        <time>2021-03-27T17:03:06Z</time>
      </trkpt>
      <trkpt lat="40.228794" lon="-5.096551">
        <ele>581.48</ele>
        <time>2021-03-27T17:03:09Z</time>
      </trkpt>
      <trkpt lat="40.229451" lon="-5.096185">
        <ele>586.3</ele>
        <time>2021-03-27T17:03:12Z</time>
      </trkpt>
      <trkpt lat="40.229617" lon="-5.096112">
        <ele>586.63</ele>
        <time>2021-03-27T17:03:14Z</time>
      </trkpt>
      <trkpt lat="40.230531" lon="-5.095968">
        <ele>585.34</ele>
        <time>2021-03-27T17:03:17Z</time>
      </trkpt>
      <trkpt lat="40.231023" lon="-5.095806">
        <ele>588.51</ele>
        <time>2021-03-27T17:03:20Z</time>
      </trkpt>
      <trkpt lat="40.231542" lon="-5.095561">
        <ele>589.66</ele>
        <time>2021-03-27T17:03:23Z</time>
      </trkpt>
      <trkpt lat="40.23406" lon="-5.094464">
        <ele>614.94</ele>
        <time>2021-03-27T17:03:25Z</time>
      </trkpt>
      <trkpt lat="40.234203" lon="-5.094426">
        <ele>615.42</ele>
        <time>2021-03-27T17:03:28Z</time>
      </trkpt>
      <trkpt lat="40.234203" lon="-5.094426">
        <ele>615.42</ele>
        <time>2021-03-27T17:03:28Z</time>
      </trkpt>
      <trkpt lat="40.234349" lon="-5.094413">
        <ele>616.56</ele>
        <time>2021-03-27T17:03:29Z</time>
      </trkpt>
      <trkpt lat="40.234578" lon="-5.094494">
        <ele>618.77</ele>
        <time>2021-03-27T17:03:31Z</time>
      </trkpt>
      <trkpt lat="40.235079" lon="-5.09477">
        <ele>623.44</ele>
        <time>2021-03-27T17:03:32Z</time>
      </trkpt>
      <trkpt lat="40.235468" lon="-5.095041">
        <ele>631.78</ele>
        <time>2021-03-27T17:03:33Z</time>
      </trkpt>
      <trkpt lat="40.235599" lon="-5.095076">
        <ele>633.16</ele>
        <time>2021-03-27T17:03:35Z</time>
      </trkpt>
      <trkpt lat="40.235776" lon="-5.095044">
        <ele>633.83</ele>
        <time>2021-03-27T17:03:36Z</time>
      </trkpt>
      <trkpt lat="40.236067" lon="-5.094927">
        <ele>634.58</ele>
        <time>2021-03-27T17:03:38Z</time>
      </trkpt>
      <trkpt lat="40.236678" lon="-5.094634">
        <ele>644.93</ele>
        <time>2021-03-27T17:03:39Z</time>
      </trkpt>
      <trkpt lat="40.237311" lon="-5.094164">
        <ele>651.89</ele>
        <time>2021-03-27T17:03:40Z</time>
      </trkpt>
      <trkpt lat="40.237615" lon="-5.093958">
        <ele>653.97</ele>
        <time>2021-03-27T17:03:42Z</time>
      </trkpt>
      <trkpt lat="40.237901" lon="-5.093801">
        <ele>657.23</ele>
        <time>2021-03-27T17:03:43Z</time>
      </trkpt>
      <trkpt lat="40.238145" lon="-5.093629">
        <ele>659.04</ele>
        <time>2021-03-27T17:03:44Z</time>
      </trkpt>
      <trkpt lat="40.238365" lon="-5.093387">
        <ele>660.12</ele>
        <time>2021-03-27T17:03:46Z</time>
      </trkpt>
      <trkpt lat="40.238517" lon="-5.093192">
        <ele>661.26</ele>
        <time>2021-03-27T17:03:47Z</time>
      </trkpt>
      <trkpt lat="40.2387" lon="-5.093015">
        <ele>664.45</ele>
        <time>2021-03-27T17:03:48Z</time>
      </trkpt>
      <trkpt lat="40.238914" lon="-5.092893">
        <ele>668.34</ele>
        <time>2021-03-27T17:03:50Z</time>
      </trkpt>
      <trkpt lat="40.239074" lon="-5.092877">
        <ele>669.6</ele>
        <time>2021-03-27T17:03:51Z</time>
      </trkpt>
      <trkpt lat="40.239231" lon="-5.092947">
        <ele>670.48</ele>
        <time>2021-03-27T17:03:53Z</time>
      </trkpt>
      <trkpt lat="40.239462" lon="-5.093147">
        <ele>669.22</ele>
        <time>2021-03-27T17:03:54Z</time>
      </trkpt>
      <trkpt lat="40.239598" lon="-5.093308">
        <ele>667.34</ele>
        <time>2021-03-27T17:03:55Z</time>
      </trkpt>
      <trkpt lat="40.239764" lon="-5.093555">
        <ele>667.4</ele>
        <time>2021-03-27T17:03:57Z</time>
      </trkpt>
      <trkpt lat="40.239864" lon="-5.093719">
        <ele>668.62</ele>
        <time>2021-03-27T17:03:58Z</time>
      </trkpt>
      <trkpt lat="40.239919" lon="-5.093851">
        <ele>669.67</ele>
        <time>2021-03-27T17:03:59Z</time>
      </trkpt>
      <trkpt lat="40.239957" lon="-5.09397">
        <ele>670.42</ele>
        <time>2021-03-27T17:04:01Z</time>
      </trkpt>
      <trkpt lat="40.239975" lon="-5.094104">
        <ele>672.08</ele>
        <time>2021-03-27T17:04:02Z</time>
      </trkpt>
      <trkpt lat="40.239973" lon="-5.094692">
        <ele>679.73</ele>
        <time>2021-03-27T17:04:03Z</time>
      </trkpt>
      <trkpt lat="40.240028" lon="-5.095088">
        <ele>681.28</ele>
        <time>2021-03-27T17:04:05Z</time>
      </trkpt>
      <trkpt lat="40.240031" lon="-5.095209">
        <ele>681.36</ele>
        <time>2021-03-27T17:04:06Z</time>
      </trkpt>
      <trkpt lat="40.239989" lon="-5.09555">
        <ele>684.33</ele>
        <time>2021-03-27T17:04:07Z</time>
      </trkpt>
      <trkpt lat="40.239993" lon="-5.095636">
        <ele>684.51</ele>
        <time>2021-03-27T17:04:09Z</time>
      </trkpt>
      <trkpt lat="40.240005" lon="-5.095728">
        <ele>684.56</ele>
        <time>2021-03-27T17:04:10Z</time>
      </trkpt>
      <trkpt lat="40.240034" lon="-5.095798">
        <ele>684.58</ele>
        <time>2021-03-27T17:04:12Z</time>
      </trkpt>
      <trkpt lat="40.240069" lon="-5.095856">
        <ele>684.69</ele>
        <time>2021-03-27T17:04:13Z</time>
      </trkpt>
      <trkpt lat="40.240122" lon="-5.095898">
        <ele>684.69</ele>
        <time>2021-03-27T17:04:14Z</time>
      </trkpt>
      <trkpt lat="40.240171" lon="-5.09591">
        <ele>684.48</ele>
        <time>2021-03-27T17:04:16Z</time>
      </trkpt>
      <trkpt lat="40.240227" lon="-5.095895">
        <ele>683.99</ele>
        <time>2021-03-27T17:04:17Z</time>
      </trkpt>
      <trkpt lat="40.24028" lon="-5.095853">
        <ele>683.23</ele>
        <time>2021-03-27T17:04:18Z</time>
      </trkpt>
      <trkpt lat="40.240634" lon="-5.095344">
        <ele>682.55</ele>
        <time>2021-03-27T17:04:20Z</time>
      </trkpt>
      <trkpt lat="40.240814" lon="-5.095143">
        <ele>682.3</ele>
        <time>2021-03-27T17:04:21Z</time>
      </trkpt>
      <trkpt lat="40.24102" lon="-5.094978">
        <ele>680.98</ele>
        <time>2021-03-27T17:04:22Z</time>
      </trkpt>
      <trkpt lat="40.241117" lon="-5.094932">
        <ele>680.9</ele>
        <time>2021-03-27T17:04:24Z</time>
      </trkpt>
      <trkpt lat="40.241323" lon="-5.094894">
        <ele>683.37</ele>
        <time>2021-03-27T17:04:25Z</time>
      </trkpt>
      <trkpt lat="40.241664" lon="-5.094979">
        <ele>690.14</ele>
        <time>2021-03-27T17:04:27Z</time>
      </trkpt>
      <trkpt lat="40.241726" lon="-5.094975">
        <ele>690.94</ele>
        <time>2021-03-27T17:04:28Z</time>
      </trkpt>
      <trkpt lat="40.241775" lon="-5.09495">
        <ele>690.82</ele>
        <time>2021-03-27T17:04:29Z</time>
      </trkpt>
      <trkpt lat="40.241826" lon="-5.094914">
        <ele>690.43</ele>
        <time>2021-03-27T17:04:31Z</time>
      </trkpt>
      <trkpt lat="40.242035" lon="-5.094548">
        <ele>684.91</ele>
        <time>2021-03-27T17:04:32Z</time>
      </trkpt>
      <trkpt lat="40.242233" lon="-5.094347">
        <ele>685.53</ele>
        <time>2021-03-27T17:04:33Z</time>
      </trkpt>
      <trkpt lat="40.242488" lon="-5.094153">
        <ele>686.31</ele>
        <time>2021-03-27T17:04:35Z</time>
      </trkpt>
      <trkpt lat="40.2427" lon="-5.094021">
        <ele>689.23</ele>
        <time>2021-03-27T17:04:36Z</time>
      </trkpt>
      <trkpt lat="40.243249" lon="-5.093758">
        <ele>688.49</ele>
        <time>2021-03-27T17:04:37Z</time>
      </trkpt>
      <trkpt lat="40.243359" lon="-5.093735">
        <ele>688.61</ele>
        <time>2021-03-27T17:04:39Z</time>
      </trkpt>
      <trkpt lat="40.243647" lon="-5.093766">
        <ele>689.88</ele>
        <time>2021-03-27T17:04:40Z</time>
      </trkpt>
      <trkpt lat="40.243872" lon="-5.093831">
        <ele>691.0</ele>
        <time>2021-03-27T17:04:41Z</time>
      </trkpt>
      <trkpt lat="40.243982" lon="-5.0939">
        <ele>691.9</ele>
        <time>2021-03-27T17:04:43Z</time>
      </trkpt>
      <trkpt lat="40.244063" lon="-5.093979">
        <ele>693.03</ele>
        <time>2021-03-27T17:04:44Z</time>
      </trkpt>
      <trkpt lat="40.244409" lon="-5.094449">
        <ele>695.71</ele>
        <time>2021-03-27T17:04:46Z</time>
      </trkpt>
      <trkpt lat="40.244661" lon="-5.094822">
        <ele>699.24</ele>
        <time>2021-03-27T17:04:47Z</time>
      </trkpt>
      <trkpt lat="40.244703" lon="-5.094801">
        <ele>698.56</ele>
        <time>2021-03-27T17:04:49Z</time>
      </trkpt>
      <trkpt lat="40.244804" lon="-5.094807">
        <ele>698.03</ele>
        <time>2021-03-27T17:04:51Z</time>
      </trkpt>
      <trkpt lat="40.245151" lon="-5.094889">
        <ele>698.29</ele>
        <time>2021-03-27T17:04:53Z</time>
      </trkpt>
      <trkpt lat="40.245298" lon="-5.094958">
        <ele>699.1</ele>
        <time>2021-03-27T17:04:56Z</time>
      </trkpt>
      <trkpt lat="40.245488" lon="-5.095003">
        <ele>698.54</ele>
        <time>2021-03-27T17:04:58Z</time>
      </trkpt>
      <trkpt lat="40.245811" lon="-5.095003">
        <ele>698.97</ele>
        <time>2021-03-27T17:05:00Z</time>
      </trkpt>
      <trkpt lat="40.245961" lon="-5.094981">
        <ele>696.61</ele>
        <time>2021-03-27T17:05:02Z</time>
      </trkpt>
      <trkpt lat="40.246158" lon="-5.09502">
        <ele>694.5</ele>
        <time>2021-03-27T17:05:04Z</time>
      </trkpt>
      <trkpt lat="40.246228" lon="-5.095054">
        <ele>693.8</ele>
        <time>2021-03-27T17:05:06Z</time>
      </trkpt>
      <trkpt lat="40.246562" lon="-5.095086">
        <ele>688.13</ele>
        <time>2021-03-27T17:05:08Z</time>
      </trkpt>
      <trkpt lat="40.246946" lon="-5.095341">
        <ele>684.67</ele>
        <time>2021-03-27T17:05:11Z</time>
      </trkpt>
      <trkpt lat="40.247033" lon="-5.095374">
        <ele>684.29</ele>
        <time>2021-03-27T17:05:13Z</time>
      </trkpt>
      <trkpt lat="40.247282" lon="-5.095402">
        <ele>682.79</ele>
        <time>2021-03-27T17:05:15Z</time>
      </trkpt>
      <trkpt lat="40.247349" lon="-5.095426">
        <ele>682.82</ele>
        <time>2021-03-27T17:05:17Z</time>
      </trkpt>
      <trkpt lat="40.247565" lon="-5.095629">
        <ele>683.62</ele>
        <time>2021-03-27T17:05:19Z</time>
      </trkpt>
      <trkpt lat="40.247644" lon="-5.095671">
        <ele>683.95</ele>
        <time>2021-03-27T17:05:21Z</time>
      </trkpt>
      <trkpt lat="40.247745" lon="-5.095679">
        <ele>683.84</ele>
        <time>2021-03-27T17:05:23Z</time>
      </trkpt>
      <trkpt lat="40.247888" lon="-5.095658">
        <ele>685.07</ele>
        <time>2021-03-27T17:05:26Z</time>
      </trkpt>
      <trkpt lat="40.247992" lon="-5.095616">
        <ele>685.96</ele>
        <time>2021-03-27T17:05:28Z</time>
      </trkpt>
      <trkpt lat="40.248248" lon="-5.095445">
        <ele>691.14</ele>
        <time>2021-03-27T17:05:30Z</time>
      </trkpt>
      <trkpt lat="40.2485" lon="-5.095336">
        <ele>698.25</ele>
        <time>2021-03-27T17:05:32Z</time>
      </trkpt>
      <trkpt lat="40.24858" lon="-5.09527">
        <ele>700.06</ele>
        <time>2021-03-27T17:05:34Z</time>
      </trkpt>
      <trkpt lat="40.248856" lon="-5.094752">
        <ele>700.83</ele>
        <time>2021-03-27T17:05:36Z</time>
      </trkpt>
      <trkpt lat="40.248911" lon="-5.094683">
        <ele>701.24</ele>
        <time>2021-03-27T17:05:38Z</time>
      </trkpt>
      <trkpt lat="40.249201" lon="-5.094483">
        <ele>704.1</ele>
        <time>2021-03-27T17:05:41Z</time>
      </trkpt>
      <trkpt lat="40.249608" lon="-5.094249">
        <ele>704.97</ele>
        <time>2021-03-27T17:05:43Z</time>
      </trkpt>
      <trkpt lat="40.249761" lon="-5.094186">
        <ele>707.27</ele>
        <time>2021-03-27T17:05:45Z</time>
      </trkpt>
      <trkpt lat="40.250078" lon="-5.094109">
        <ele>712.65</ele>
        <time>2021-03-27T17:05:47Z</time>
      </trkpt>
      <trkpt lat="40.250361" lon="-5.093964">
        <ele>713.48</ele>
        <time>2021-03-27T17:05:49Z</time>
      </trkpt>
      <trkpt lat="40.250516" lon="-5.093832">
        <ele>713.59</ele>
        <time>2021-03-27T17:05:51Z</time>
      </trkpt>
      <trkpt lat="40.250656" lon="-5.093654">
        <ele>713.73</ele>
        <time>2021-03-27T17:05:53Z</time>
      </trkpt>
      <trkpt lat="40.250795" lon="-5.093411">
        <ele>715.35</ele>
        <time>2021-03-27T17:05:56Z</time>
      </trkpt>
      <trkpt lat="40.250856" lon="-5.093349">
        <ele>716.31</ele>
        <time>2021-03-27T17:05:58Z</time>
      </trkpt>
      <trkpt lat="40.250907" lon="-5.093333">
        <ele>716.79</ele>
        <time>2021-03-27T17:06:00Z</time>
      </trkpt>
      <trkpt lat="40.250948" lon="-5.093343">
        <ele>717.3</ele>
        <time>2021-03-27T17:06:02Z</time>
      </trkpt>
      <trkpt lat="40.250997" lon="-5.093448">
        <ele>718.67</ele>
        <time>2021-03-27T17:06:04Z</time>
      </trkpt>
      <trkpt lat="40.250974" lon="-5.093567">
        <ele>719.22</ele>
        <time>2021-03-27T17:06:06Z</time>
      </trkpt>
      <trkpt lat="40.250869" lon="-5.093867">
        <ele>720.41</ele>
        <time>2021-03-27T17:06:08Z</time>
      </trkpt>
      <trkpt lat="40.250856" lon="-5.094003">
        <ele>722.45</ele>
        <time>2021-03-27T17:06:11Z</time>
      </trkpt>
      <trkpt lat="40.250901" lon="-5.094086">
        <ele>724.77</ele>
        <time>2021-03-27T17:06:13Z</time>
      </trkpt>
      <trkpt lat="40.250963" lon="-5.0941">
        <ele>726.12</ele>
        <time>2021-03-27T17:06:15Z</time>
      </trkpt>
      <trkpt lat="40.251016" lon="-5.094064">
        <ele>726.44</ele>
        <time>2021-03-27T17:06:17Z</time>
      </trkpt>
      <trkpt lat="40.25168" lon="-5.093197">
        <ele>726.8</ele>
        <time>2021-03-27T17:06:19Z</time>
      </trkpt>
      <trkpt lat="40.252027" lon="-5.092982">
        <ele>732.75</ele>
        <time>2021-03-27T17:06:21Z</time>
      </trkpt>
      <trkpt lat="40.252138" lon="-5.092871">
        <ele>734.76</ele>
        <time>2021-03-27T17:06:23Z</time>
      </trkpt>
      <trkpt lat="40.252266" lon="-5.092663">
        <ele>736.0</ele>
        <time>2021-03-27T17:06:26Z</time>
      </trkpt>
      <trkpt lat="40.252336" lon="-5.092604">
        <ele>736.7</ele>
        <time>2021-03-27T17:06:28Z</time>
      </trkpt>
      <trkpt lat="40.252752" lon="-5.092461">
        <ele>742.88</ele>
        <time>2021-03-27T17:06:30Z</time>
      </trkpt>
      <trkpt lat="40.25281" lon="-5.092416">
        <ele>743.43</ele>
        <time>2021-03-27T17:06:32Z</time>
      </trkpt>
      <trkpt lat="40.252866" lon="-5.092321">
        <ele>743.42</ele>
        <time>2021-03-27T17:06:34Z</time>
      </trkpt>
      <trkpt lat="40.252899" lon="-5.092104">
        <ele>742.21</ele>
        <time>2021-03-27T17:06:36Z</time>
      </trkpt>
      <trkpt lat="40.252923" lon="-5.092038">
        <ele>742.35</ele>
        <time>2021-03-27T17:06:39Z</time>
      </trkpt>
      <trkpt lat="40.252997" lon="-5.091967">
        <ele>743.68</ele>
        <time>2021-03-27T17:06:41Z</time>
      </trkpt>
      <trkpt lat="40.253057" lon="-5.09198">
        <ele>745.29</ele>
        <time>2021-03-27T17:06:43Z</time>
      </trkpt>
      <trkpt lat="40.253122" lon="-5.092065">
        <ele>747.1</ele>
        <time>2021-03-27T17:06:45Z</time>
      </trkpt>
      <trkpt lat="40.253217" lon="-5.092386">
        <ele>750.51</ele>
        <time>2021-03-27T17:06:47Z</time>
      </trkpt>
      <trkpt lat="40.253289" lon="-5.092767">
        <ele>754.44</ele>
        <time>2021-03-27T17:06:49Z</time>
      </trkpt>
      <trkpt lat="40.253283" lon="-5.092809">
        <ele>754.98</ele>
        <time>2021-03-27T17:06:51Z</time>
      </trkpt>
      <trkpt lat="40.253259" lon="-5.09288">
        <ele>755.85</ele>
        <time>2021-03-27T17:06:54Z</time>
      </trkpt>
      <trkpt lat="40.253227" lon="-5.092909">
        <ele>755.85</ele>
        <time>2021-03-27T17:06:56Z</time>
      </trkpt>
      <trkpt lat="40.253052" lon="-5.09296">
        <ele>753.91</ele>
        <time>2021-03-27T17:06:58Z</time>
      </trkpt>
      <trkpt lat="40.252918" lon="-5.093027">
        <ele>753.11</ele>
        <time>2021-03-27T17:07:00Z</time>
      </trkpt>
      <trkpt lat="40.252735" lon="-5.093311">
        <ele>753.81</ele>
        <time>2021-03-27T17:07:02Z</time>
      </trkpt>
      <trkpt lat="40.252719" lon="-5.093399">
        <ele>755.24</ele>
        <time>2021-03-27T17:07:04Z</time>
      </trkpt>
      <trkpt lat="40.252736" lon="-5.093444">
        <ele>756.72</ele>
        <time>2021-03-27T17:07:06Z</time>
      </trkpt>
      <trkpt lat="40.252795" lon="-5.093456">
        <ele>758.56</ele>
        <time>2021-03-27T17:07:09Z</time>
      </trkpt>
      <trkpt lat="40.252832" lon="-5.093424">
        <ele>758.72</ele>
        <time>2021-03-27T17:07:11Z</time>
      </trkpt>
      <trkpt lat="40.252979" lon="-5.093204">
        <ele>757.33</ele>
        <time>2021-03-27T17:07:13Z</time>
      </trkpt>
      <trkpt lat="40.253022" lon="-5.093164">
        <ele>757.2</ele>
        <time>2021-03-27T17:07:15Z</time>
      </trkpt>
      <trkpt lat="40.253076" lon="-5.093148">
        <ele>757.66</ele>
        <time>2021-03-27T17:07:17Z</time>
      </trkpt>
      <trkpt lat="40.253761" lon="-5.093273">
        <ele>770.72</ele>
        <time>2021-03-27T17:07:19Z</time>
      </trkpt>
      <trkpt lat="40.253855" lon="-5.093266">
        <ele>772.39</ele>
        <time>2021-03-27T17:07:21Z</time>
      </trkpt>
      <trkpt lat="40.25391" lon="-5.093225">
        <ele>773.11</ele>
        <time>2021-03-27T17:07:24Z</time>
      </trkpt>
      <trkpt lat="40.253937" lon="-5.093178">
        <ele>773.24</ele>
        <time>2021-03-27T17:07:26Z</time>
      </trkpt>
      <trkpt lat="40.254022" lon="-5.092803">
        <ele>772.01</ele>
        <time>2021-03-27T17:07:28Z</time>
      </trkpt>
      <trkpt lat="40.253998" lon="-5.092161">
        <ele>765.37</ele>
        <time>2021-03-27T17:07:30Z</time>
      </trkpt>
      <trkpt lat="40.254002" lon="-5.092072">
        <ele>764.87</ele>
        <time>2021-03-27T17:07:32Z</time>
      </trkpt>
      <trkpt lat="40.254052" lon="-5.091994">
        <ele>765.33</ele>
        <time>2021-03-27T17:07:34Z</time>
      </trkpt>
      <trkpt lat="40.254137" lon="-5.091928">
        <ele>766.35</ele>
        <time>2021-03-27T17:07:36Z</time>
      </trkpt>
      <trkpt lat="40.254256" lon="-5.091878">
        <ele>767.73</ele>
        <time>2021-03-27T17:07:39Z</time>
      </trkpt>
      <trkpt lat="40.254378" lon="-5.091886">
        <ele>769.46</ele>
        <time>2021-03-27T17:07:41Z</time>
      </trkpt>
      <trkpt lat="40.254553" lon="-5.091937">
        <ele>772.87</ele>
        <time>2021-03-27T17:07:43Z</time>
      </trkpt>
      <trkpt lat="40.254661" lon="-5.091916">
        <ele>774.52</ele>
        <time>2021-03-27T17:07:45Z</time>
      </trkpt>
      <trkpt lat="40.254754" lon="-5.091796">
        <ele>774.98</ele>
        <time>2021-03-27T17:07:47Z</time>
      </trkpt>
      <trkpt lat="40.254792" lon="-5.09169">
        <ele>774.84</ele>
        <time>2021-03-27T17:07:49Z</time>
      </trkpt>
      <trkpt lat="40.254819" lon="-5.091418">
        <ele>774.61</ele>
        <time>2021-03-27T17:07:51Z</time>
      </trkpt>
      <trkpt lat="40.254836" lon="-5.091371">
        <ele>774.99</ele>
        <time>2021-03-27T17:07:54Z</time>
      </trkpt>
      <trkpt lat="40.25505" lon="-5.091116">
        <ele>780.66</ele>
        <time>2021-03-27T17:07:56Z</time>
      </trkpt>
      <trkpt lat="40.25517" lon="-5.091029">
        <ele>783.76</ele>
        <time>2021-03-27T17:07:58Z</time>
      </trkpt>
      <trkpt lat="40.255343" lon="-5.090942">
        <ele>787.92</ele>
        <time>2021-03-27T17:08:00Z</time>
      </trkpt>
      <trkpt lat="40.255394" lon="-5.090876">
        <ele>788.45</ele>
        <time>2021-03-27T17:08:02Z</time>
      </trkpt>
      <trkpt lat="40.255504" lon="-5.090593">
        <ele>786.36</ele>
        <time>2021-03-27T17:08:04Z</time>
      </trkpt>
      <trkpt lat="40.25559" lon="-5.090456">
        <ele>785.72</ele>
        <time>2021-03-27T17:08:07Z</time>
      </trkpt>
      <trkpt lat="40.255849" lon="-5.090242">
        <ele>787.67</ele>
        <time>2021-03-27T17:08:09Z</time>
      </trkpt>
      <trkpt lat="40.256382" lon="-5.090008">
        <ele>793.13</ele>
        <time>2021-03-27T17:08:11Z</time>
      </trkpt>
      <trkpt lat="40.2565" lon="-5.089978">
        <ele>794.85</ele>
        <time>2021-03-27T17:08:13Z</time>
      </trkpt>
      <trkpt lat="40.256823" lon="-5.089994">
        <ele>799.35</ele>
        <time>2021-03-27T17:08:15Z</time>
      </trkpt>
      <trkpt lat="40.257122" lon="-5.090032">
        <ele>799.65</ele>
        <time>2021-03-27T17:08:17Z</time>
      </trkpt>
      <trkpt lat="40.257417" lon="-5.09">
        <ele>795.89</ele>
        <time>2021-03-27T17:08:19Z</time>
      </trkpt>
      <trkpt lat="40.257515" lon="-5.090023">
        <ele>795.88</ele>
        <time>2021-03-27T17:08:22Z</time>
      </trkpt>
      <trkpt lat="40.257888" lon="-5.09018">
        <ele>803.47</ele>
        <time>2021-03-27T17:08:24Z</time>
      </trkpt>
      <trkpt lat="40.257928" lon="-5.090178">
        <ele>804.26</ele>
        <time>2021-03-27T17:08:26Z</time>
      </trkpt>
      <trkpt lat="40.25803" lon="-5.090139">
        <ele>805.5</ele>
        <time>2021-03-27T17:08:28Z</time>
      </trkpt>
      <trkpt lat="40.258393" lon="-5.089911">
        <ele>807.19</ele>
        <time>2021-03-27T17:08:30Z</time>
      </trkpt>
      <trkpt lat="40.258537" lon="-5.089866">
        <ele>808.16</ele>
        <time>2021-03-27T17:08:32Z</time>
      </trkpt>
      <trkpt lat="40.258583" lon="-5.089912">
        <ele>809.74</ele>
        <time>2021-03-27T17:08:34Z</time>
      </trkpt>
      <trkpt lat="40.25858" lon="-5.090012">
        <ele>811.77</ele>
        <time>2021-03-27T17:08:37Z</time>
      </trkpt>
      <trkpt lat="40.258343" lon="-5.090251">
        <ele>812.67</ele>
        <time>2021-03-27T17:08:39Z</time>
      </trkpt>
      <trkpt lat="40.258169" lon="-5.090463">
        <ele>815.28</ele>
        <time>2021-03-27T17:08:41Z</time>
      </trkpt>
      <trkpt lat="40.258104" lon="-5.090578">
        <ele>817.28</ele>
        <time>2021-03-27T17:08:43Z</time>
      </trkpt>
      <trkpt lat="40.258095" lon="-5.09068">
        <ele>819.77</ele>
        <time>2021-03-27T17:08:45Z</time>
      </trkpt>
      <trkpt lat="40.258116" lon="-5.09072">
        <ele>821.14</ele>
        <time>2021-03-27T17:08:47Z</time>
      </trkpt>
      <trkpt lat="40.258176" lon="-5.090751">
        <ele>822.96</ele>
        <time>2021-03-27T17:08:49Z</time>
      </trkpt>
      <trkpt lat="40.258217" lon="-5.090747">
        <ele>823.55</ele>
        <time>2021-03-27T17:08:52Z</time>
      </trkpt>
      <trkpt lat="40.258593" lon="-5.090536">
        <ele>822.39</ele>
        <time>2021-03-27T17:08:54Z</time>
      </trkpt>
      <trkpt lat="40.259001" lon="-5.090385">
        <ele>824.21</ele>
        <time>2021-03-27T17:08:56Z</time>
      </trkpt>
      <trkpt lat="40.259128" lon="-5.090358">
        <ele>824.82</ele>
        <time>2021-03-27T17:08:58Z</time>
      </trkpt>
      <trkpt lat="40.259213" lon="-5.09036">
        <ele>824.52</ele>
        <time>2021-03-27T17:09:00Z</time>
      </trkpt>
      <trkpt lat="40.25929" lon="-5.090392">
        <ele>823.87</ele>
        <time>2021-03-27T17:09:02Z</time>
      </trkpt>
      <trkpt lat="40.259346" lon="-5.090432">
        <ele>823.64</ele>
        <time>2021-03-27T17:09:04Z</time>
      </trkpt>
      <trkpt lat="40.259396" lon="-5.090498">
        <ele>823.87</ele>
        <time>2021-03-27T17:09:07Z</time>
      </trkpt>
      <trkpt lat="40.259716" lon="-5.091012">
        <ele>831.26</ele>
        <time>2021-03-27T17:09:09Z</time>
      </trkpt>
      <trkpt lat="40.260226" lon="-5.091637">
        <ele>835.67</ele>
        <time>2021-03-27T17:09:11Z</time>
      </trkpt>
      <trkpt lat="40.260376" lon="-5.091919">
        <ele>835.55</ele>
        <time>2021-03-27T17:09:13Z</time>
      </trkpt>
      <trkpt lat="40.260434" lon="-5.092117">
        <ele>836.15</ele>
        <time>2021-03-27T17:09:15Z</time>
      </trkpt>
      <trkpt lat="40.260454" lon="-5.092266">
        <ele>836.81</ele>
        <time>2021-03-27T17:09:17Z</time>
      </trkpt>
      <trkpt lat="40.260427" lon="-5.092547">
        <ele>838.86</ele>
        <time>2021-03-27T17:09:19Z</time>
      </trkpt>
      <trkpt lat="40.260399" lon="-5.09267">
        <ele>839.64</ele>
        <time>2021-03-27T17:09:22Z</time>
      </trkpt>
      <trkpt lat="40.260361" lon="-5.092749">
        <ele>840.48</ele>
        <time>2021-03-27T17:09:24Z</time>
      </trkpt>
      <trkpt lat="40.26038" lon="-5.092911">
        <ele>840.63</ele>
        <time>2021-03-27T17:09:25Z</time>
      </trkpt>
      <trkpt lat="40.260422" lon="-5.093017">
        <ele>840.26</ele>
        <time>2021-03-27T17:09:27Z</time>
      </trkpt>
      <trkpt lat="40.260504" lon="-5.093095">
        <ele>839.47</ele>
        <time>2021-03-27T17:09:28Z</time>
      </trkpt>
      <trkpt lat="40.260601" lon="-5.093099">
        <ele>838.11</ele>
        <time>2021-03-27T17:09:30Z</time>
      </trkpt>
      <trkpt lat="40.260696" lon="-5.093059">
        <ele>836.52</ele>
        <time>2021-03-27T17:09:31Z</time>
      </trkpt>
      <trkpt lat="40.260901" lon="-5.092924">
        <ele>834.9</ele>
        <time>2021-03-27T17:09:33Z</time>
      </trkpt>
      <trkpt lat="40.261072" lon="-5.092781">
        <ele>834.88</ele>
        <time>2021-03-27T17:09:34Z</time>
      </trkpt>
      <trkpt lat="40.261537" lon="-5.092258">
        <ele>838.27</ele>
        <time>2021-03-27T17:09:36Z</time>
      </trkpt>
      <trkpt lat="40.261626" lon="-5.092185">
        <ele>839.11</ele>
        <time>2021-03-27T17:09:37Z</time>
      </trkpt>
      <trkpt lat="40.261798" lon="-5.092102">
        <ele>840.28</ele>
        <time>2021-03-27T17:09:39Z</time>
      </trkpt>
      <trkpt lat="40.262108" lon="-5.092017">
        <ele>841.85</ele>
        <time>2021-03-27T17:09:40Z</time>
      </trkpt>
      <trkpt lat="40.262296" lon="-5.091999">
        <ele>842.25</ele>
        <time>2021-03-27T17:09:42Z</time>
      </trkpt>
      <trkpt lat="40.262631" lon="-5.092041">
        <ele>842.7</ele>
        <time>2021-03-27T17:09:43Z</time>
      </trkpt>
      <trkpt lat="40.262795" lon="-5.092186">
        <ele>843.67</ele>
        <time>2021-03-27T17:09:45Z</time>
      </trkpt>
      <trkpt lat="40.263051" lon="-5.092516">
        <ele>845.19</ele>
        <time>2021-03-27T17:09:46Z</time>
      </trkpt>
      <trkpt lat="40.263121" lon="-5.092586">
        <ele>845.93</ele>
        <time>2021-03-27T17:09:48Z</time>
      </trkpt>
      <trkpt lat="40.263182" lon="-5.092611">
        <ele>846.2</ele>
        <time>2021-03-27T17:09:49Z</time>
      </trkpt>
      <trkpt lat="40.263266" lon="-5.092618">
        <ele>846.27</ele>
        <time>2021-03-27T17:09:51Z</time>
      </trkpt>
      <trkpt lat="40.263389" lon="-5.092562">
        <ele>846.43</ele>
        <time>2021-03-27T17:09:52Z</time>
      </trkpt>
      <trkpt lat="40.263509" lon="-5.092451">
        <ele>847.29</ele>
        <time>2021-03-27T17:09:54Z</time>
      </trkpt>
      <trkpt lat="40.263547" lon="-5.092388">
        <ele>847.59</ele>
        <time>2021-03-27T17:09:55Z</time>
      </trkpt>
      <trkpt lat="40.26358" lon="-5.09222">
        <ele>847.44</ele>
        <time>2021-03-27T17:09:57Z</time>
      </trkpt>
      <trkpt lat="40.263578" lon="-5.09171">
        <ele>849.13</ele>
        <time>2021-03-27T17:09:58Z</time>
      </trkpt>
      <trkpt lat="40.263594" lon="-5.091599">
        <ele>849.62</ele>
        <time>2021-03-27T17:10:00Z</time>
      </trkpt>
      <trkpt lat="40.263773" lon="-5.091095">
        <ele>854.04</ele>
        <time>2021-03-27T17:10:01Z</time>
      </trkpt>
      <trkpt lat="40.263796" lon="-5.090975">
        <ele>854.34</ele>
        <time>2021-03-27T17:10:03Z</time>
      </trkpt>
      <trkpt lat="40.26383" lon="-5.090473">
        <ele>855.58</ele>
        <time>2021-03-27T17:10:04Z</time>
      </trkpt>
      <trkpt lat="40.263848" lon="-5.090387">
        <ele>856.07</ele>
        <time>2021-03-27T17:10:06Z</time>
      </trkpt>
      <trkpt lat="40.263982" lon="-5.090101">
        <ele>860.95</ele>
        <time>2021-03-27T17:10:07Z</time>
      </trkpt>
      <trkpt lat="40.264028" lon="-5.0899">
        <ele>863.37</ele>
        <time>2021-03-27T17:10:09Z</time>
      </trkpt>
      <trkpt lat="40.264037" lon="-5.089732">
        <ele>864.16</ele>
        <time>2021-03-27T17:10:10Z</time>
      </trkpt>
      <trkpt lat="40.264016" lon="-5.08937">
        <ele>866.74</ele>
        <time>2021-03-27T17:10:12Z</time>
      </trkpt>
      <trkpt lat="40.263979" lon="-5.089243">
        <ele>868.12</ele>
        <time>2021-03-27T17:10:13Z</time>
      </trkpt>
      <trkpt lat="40.26392" lon="-5.089179">
        <ele>868.87</ele>
        <time>2021-03-27T17:10:15Z</time>
      </trkpt>
      <trkpt lat="40.263847" lon="-5.089137">
        <ele>868.91</ele>
        <time>2021-03-27T17:10:16Z</time>
      </trkpt>
      <trkpt lat="40.263463" lon="-5.089021">
        <ele>867.27</ele>
        <time>2021-03-27T17:10:17Z</time>
      </trkpt>
      <trkpt lat="40.263277" lon="-5.08894">
        <ele>866.3</ele>
        <time>2021-03-27T17:10:19Z</time>
      </trkpt>
      <trkpt lat="40.263159" lon="-5.088872">
        <ele>865.72</ele>
        <time>2021-03-27T17:10:20Z</time>
      </trkpt>
      <trkpt lat="40.263119" lon="-5.088831">
        <ele>865.64</ele>
        <time>2021-03-27T17:10:22Z</time>
      </trkpt>
      <trkpt lat="40.2631" lon="-5.088786">
        <ele>865.85</ele>
        <time>2021-03-27T17:10:23Z</time>
      </trkpt>
      <trkpt lat="40.2631" lon="-5.088717">
        <ele>866.7</ele>
        <time>2021-03-27T17:10:25Z</time>
      </trkpt>
      <trkpt lat="40.263127" lon="-5.088668">
        <ele>867.83</ele>
        <time>2021-03-27T17:10:26Z</time>
      </trkpt>
      <trkpt lat="40.263188" lon="-5.088643">
        <ele>869.4</ele>
        <time>2021-03-27T17:10:28Z</time>
      </trkpt>
      <trkpt lat="40.263433" lon="-5.08872">
        <ele>872.04</ele>
        <time>2021-03-27T17:10:29Z</time>
      </trkpt>
      <trkpt lat="40.263557" lon="-5.088708">
        <ele>873.42</ele>
        <time>2021-03-27T17:10:31Z</time>
      </trkpt>
      <trkpt lat="40.263617" lon="-5.088681">
        <ele>874.23</ele>
        <time>2021-03-27T17:10:32Z</time>
      </trkpt>
      <trkpt lat="40.263875" lon="-5.088419">
        <ele>876.16</ele>
        <time>2021-03-27T17:10:34Z</time>
      </trkpt>
      <trkpt lat="40.264" lon="-5.0882">
        <ele>878.23</ele>
        <time>2021-03-27T17:10:35Z</time>
      </trkpt>
      <trkpt lat="40.264134" lon="-5.088059">
        <ele>879.95</ele>
        <time>2021-03-27T17:10:37Z</time>
      </trkpt>
      <trkpt lat="40.264274" lon="-5.087973">
        <ele>881.39</ele>
        <time>2021-03-27T17:10:38Z</time>
      </trkpt>
      <trkpt lat="40.264452" lon="-5.087897">
        <ele>883.3</ele>
        <time>2021-03-27T17:10:40Z</time>
      </trkpt>
      <trkpt lat="40.264852" lon="-5.087796">
        <ele>885.75</ele>
        <time>2021-03-27T17:10:41Z</time>
      </trkpt>
      <trkpt lat="40.265045" lon="-5.08772">
        <ele>887.77</ele>
        <time>2021-03-27T17:10:43Z</time>
      </trkpt>
      <trkpt lat="40.265441" lon="-5.087438">
        <ele>893.25</ele>
        <time>2021-03-27T17:10:44Z</time>
      </trkpt>
      <trkpt lat="40.265459" lon="-5.087403">
        <ele>893.7</ele>
        <time>2021-03-27T17:10:46Z</time>
      </trkpt>
      <trkpt lat="40.265457" lon="-5.087342">
        <ele>894.35</ele>
        <time>2021-03-27T17:10:47Z</time>
      </trkpt>
      <trkpt lat="40.265396" lon="-5.087053">
        <ele>896.04</ele>
        <time>2021-03-27T17:10:49Z</time>
      </trkpt>
      <trkpt lat="40.265386" lon="-5.08694">
        <ele>896.38</ele>
        <time>2021-03-27T17:10:50Z</time>
      </trkpt>
      <trkpt lat="40.26539" lon="-5.086805">
        <ele>896.2</ele>
        <time>2021-03-27T17:10:52Z</time>
      </trkpt>
      <trkpt lat="40.265446" lon="-5.086542">
        <ele>895.65</ele>
        <time>2021-03-27T17:10:53Z</time>
      </trkpt>
      <trkpt lat="40.265483" lon="-5.086493">
        <ele>895.67</ele>
        <time>2021-03-27T17:10:55Z</time>
      </trkpt>
      <trkpt lat="40.265683" lon="-5.086393">
        <ele>896.01</ele>
        <time>2021-03-27T17:10:56Z</time>
      </trkpt>
      <trkpt lat="40.265987" lon="-5.085974">
        <ele>896.33</ele>
        <time>2021-03-27T17:10:58Z</time>
      </trkpt>
      <trkpt lat="40.265988" lon="-5.0856">
        <ele>896.96</ele>
        <time>2021-03-27T17:10:59Z</time>
      </trkpt>
      <trkpt lat="40.266027" lon="-5.085127">
        <ele>897.93</ele>
        <time>2021-03-27T17:11:01Z</time>
      </trkpt>
      <trkpt lat="40.26634" lon="-5.084681">
        <ele>897.52</ele>
        <time>2021-03-27T17:11:02Z</time>
      </trkpt>
      <trkpt lat="40.266495" lon="-5.084342">
        <ele>893.3</ele>
        <time>2021-03-27T17:11:04Z</time>
      </trkpt>
      <trkpt lat="40.266646" lon="-5.084133">
        <ele>890.54</ele>
        <time>2021-03-27T17:11:05Z</time>
      </trkpt>
      <trkpt lat="40.266703" lon="-5.084087">
        <ele>890.31</ele>
        <time>2021-03-27T17:11:07Z</time>
      </trkpt>
      <trkpt lat="40.267009" lon="-5.083964">
        <ele>891.17</ele>
        <time>2021-03-27T17:11:08Z</time>
      </trkpt>
      <trkpt lat="40.267052" lon="-5.083915">
        <ele>891.32</ele>
        <time>2021-03-27T17:11:10Z</time>
      </trkpt>
      <trkpt lat="40.267096" lon="-5.083786">
        <ele>891.1</ele>
        <time>2021-03-27T17:11:11Z</time>
      </trkpt>
      <trkpt lat="40.267139" lon="-5.083257">
        <ele>891.71</ele>
        <time>2021-03-27T17:11:13Z</time>
      </trkpt>
      <trkpt lat="40.267208" lon="-5.082869">
        <ele>892.71</ele>
        <time>2021-03-27T17:11:14Z</time>
      </trkpt>
      <trkpt lat="40.267247" lon="-5.082799">
        <ele>893.57</ele>
        <time>2021-03-27T17:11:16Z</time>
      </trkpt>
      <trkpt lat="40.267302" lon="-5.082747">
        <ele>894.25</ele>
        <time>2021-03-27T17:11:17Z</time>
      </trkpt>
      <trkpt lat="40.26748" lon="-5.082669">
        <ele>896.64</ele>
        <time>2021-03-27T17:11:19Z</time>
      </trkpt>
      <trkpt lat="40.267618" lon="-5.082648">
        <ele>899.02</ele>
        <time>2021-03-27T17:11:20Z</time>
      </trkpt>
      <trkpt lat="40.267882" lon="-5.082687">
        <ele>904.03</ele>
        <time>2021-03-27T17:11:22Z</time>
      </trkpt>
      <trkpt lat="40.268135" lon="-5.082774">
        <ele>908.49</ele>
        <time>2021-03-27T17:11:23Z</time>
      </trkpt>
      <trkpt lat="40.268432" lon="-5.082947">
        <ele>913.58</ele>
        <time>2021-03-27T17:11:25Z</time>
      </trkpt>
      <trkpt lat="40.268642" lon="-5.083009">
        <ele>914.33</ele>
        <time>2021-03-27T17:11:26Z</time>
      </trkpt>
      <trkpt lat="40.268819" lon="-5.083027">
        <ele>914.59</ele>
        <time>2021-03-27T17:11:28Z</time>
      </trkpt>
      <trkpt lat="40.268909" lon="-5.083008">
        <ele>914.59</ele>
        <time>2021-03-27T17:11:29Z</time>
      </trkpt>
      <trkpt lat="40.269218" lon="-5.08283">
        <ele>916.64</ele>
        <time>2021-03-27T17:11:31Z</time>
      </trkpt>
      <trkpt lat="40.269328" lon="-5.082799">
        <ele>918.15</ele>
        <time>2021-03-27T17:11:32Z</time>
      </trkpt>
      <trkpt lat="40.269566" lon="-5.082786">
        <ele>920.56</ele>
        <time>2021-03-27T17:11:33Z</time>
      </trkpt>
      <trkpt lat="40.270076" lon="-5.082834">
        <ele>922.48</ele>
        <time>2021-03-27T17:11:35Z</time>
      </trkpt>
      <trkpt lat="40.270197" lon="-5.082879">
        <ele>923.9</ele>
        <time>2021-03-27T17:11:36Z</time>
      </trkpt>
      <trkpt lat="40.270336" lon="-5.082959">
        <ele>925.57</ele>
        <time>2021-03-27T17:11:38Z</time>
      </trkpt>
      <trkpt lat="40.270448" lon="-5.083046">
        <ele>926.59</ele>
        <time>2021-03-27T17:11:39Z</time>
      </trkpt>
      <trkpt lat="40.270611" lon="-5.083228">
        <ele>928.2</ele>
        <time>2021-03-27T17:11:41Z</time>
      </trkpt>
      <trkpt lat="40.271049" lon="-5.083586">
        <ele>933.41</ele>
        <time>2021-03-27T17:11:42Z</time>
      </trkpt>
      <trkpt lat="40.271181" lon="-5.08372">
        <ele>935.31</ele>
        <time>2021-03-27T17:11:44Z</time>
      </trkpt>
      <trkpt lat="40.271343" lon="-5.083984">
        <ele>938.3</ele>
        <time>2021-03-27T17:11:45Z</time>
      </trkpt>
      <trkpt lat="40.271398" lon="-5.084117">
        <ele>939.33</ele>
        <time>2021-03-27T17:11:47Z</time>
      </trkpt>
      <trkpt lat="40.271435" lon="-5.084282">
        <ele>940.51</ele>
        <time>2021-03-27T17:11:48Z</time>
      </trkpt>
      <trkpt lat="40.271414" lon="-5.084497">
        <ele>942.82</ele>
        <time>2021-03-27T17:11:50Z</time>
      </trkpt>
      <trkpt lat="40.271278" lon="-5.085139">
        <ele>948.21</ele>
        <time>2021-03-27T17:11:51Z</time>
      </trkpt>
      <trkpt lat="40.270974" lon="-5.086162">
        <ele>953.46</ele>
        <time>2021-03-27T17:11:53Z</time>
      </trkpt>
      <trkpt lat="40.270394" lon="-5.087558">
        <ele>959.18</ele>
        <time>2021-03-27T17:11:54Z</time>
      </trkpt>
      <trkpt lat="40.270324" lon="-5.087691">
        <ele>960.37</ele>
        <time>2021-03-27T17:11:56Z</time>
      </trkpt>
      <trkpt lat="40.270125" lon="-5.087959">
        <ele>961.16</ele>
        <time>2021-03-27T17:11:57Z</time>
      </trkpt>
      <trkpt lat="40.269982" lon="-5.08811">
        <ele>960.78</ele>
        <time>2021-03-27T17:11:59Z</time>
      </trkpt>
      <trkpt lat="40.269828" lon="-5.088331">
        <ele>961.01</ele>
        <time>2021-03-27T17:12:00Z</time>
      </trkpt>
      <trkpt lat="40.269763" lon="-5.088539">
        <ele>963.52</ele>
        <time>2021-03-27T17:12:02Z</time>
      </trkpt>
      <trkpt lat="40.269686" lon="-5.088978">
        <ele>968.9</ele>
        <time>2021-03-27T17:12:03Z</time>
      </trkpt>
      <trkpt lat="40.269573" lon="-5.089188">
        <ele>969.62</ele>
        <time>2021-03-27T17:12:05Z</time>
      </trkpt>
      <trkpt lat="40.26951" lon="-5.089266">
        <ele>969.78</ele>
        <time>2021-03-27T17:12:06Z</time>
      </trkpt>
      <trkpt lat="40.269265" lon="-5.089484">
        <ele>968.23</ele>
        <time>2021-03-27T17:12:08Z</time>
      </trkpt>
      <trkpt lat="40.269223" lon="-5.08954">
        <ele>967.4</ele>
        <time>2021-03-27T17:12:09Z</time>
      </trkpt>
      <trkpt lat="40.269193" lon="-5.089672">
        <ele>966.48</ele>
        <time>2021-03-27T17:12:11Z</time>
      </trkpt>
      <trkpt lat="40.269205" lon="-5.089754">
        <ele>965.95</ele>
        <time>2021-03-27T17:12:12Z</time>
      </trkpt>
      <trkpt lat="40.269266" lon="-5.089859">
        <ele>964.92</ele>
        <time>2021-03-27T17:12:14Z</time>
      </trkpt>
      <trkpt lat="40.269382" lon="-5.089912">
        <ele>965.06</ele>
        <time>2021-03-27T17:12:15Z</time>
      </trkpt>
      <trkpt lat="40.269476" lon="-5.089917">
        <ele>966.03</ele>
        <time>2021-03-27T17:12:17Z</time>
      </trkpt>
      <trkpt lat="40.269573" lon="-5.089898">
        <ele>967.98</ele>
        <time>2021-03-27T17:12:18Z</time>
      </trkpt>
      <trkpt lat="40.269654" lon="-5.08985">
        <ele>970.07</ele>
        <time>2021-03-27T17:12:20Z</time>
      </trkpt>
      <trkpt lat="40.269729" lon="-5.089762">
        <ele>972.53</ele>
        <time>2021-03-27T17:12:21Z</time>
      </trkpt>
      <trkpt lat="40.269874" lon="-5.089509">
        <ele>975.11</ele>
        <time>2021-03-27T17:12:23Z</time>
      </trkpt>
      <trkpt lat="40.269955" lon="-5.0894">
        <ele>975.33</ele>
        <time>2021-03-27T17:12:24Z</time>
      </trkpt>
      <trkpt lat="40.270035" lon="-5.089322">
        <ele>975.62</ele>
        <time>2021-03-27T17:12:26Z</time>
      </trkpt>
      <trkpt lat="40.270388" lon="-5.089082">
        <ele>979.65</ele>
        <time>2021-03-27T17:12:27Z</time>
      </trkpt>
      <trkpt lat="40.270449" lon="-5.089009">
        <ele>980.22</ele>
        <time>2021-03-27T17:12:29Z</time>
      </trkpt>
      <trkpt lat="40.270515" lon="-5.088886">
        <ele>980.25</ele>
        <time>2021-03-27T17:12:30Z</time>
      </trkpt>
      <trkpt lat="40.270658" lon="-5.08852">
        <ele>979.45</ele>
        <time>2021-03-27T17:12:32Z</time>
      </trkpt>
      <trkpt lat="40.270758" lon="-5.088452">
        <ele>980.05</ele>
        <time>2021-03-27T17:12:33Z</time>
      </trkpt>
      <trkpt lat="40.270892" lon="-5.088417">
        <ele>981.38</ele>
        <time>2021-03-27T17:12:35Z</time>
      </trkpt>
      <trkpt lat="40.271059" lon="-5.088334">
        <ele>983.25</ele>
        <time>2021-03-27T17:12:36Z</time>
      </trkpt>
      <trkpt lat="40.271127" lon="-5.08828">
        <ele>984.07</ele>
        <time>2021-03-27T17:12:38Z</time>
      </trkpt>
      <trkpt lat="40.271442" lon="-5.08793">
        <ele>987.84</ele>
        <time>2021-03-27T17:12:39Z</time>
      </trkpt>
      <trkpt lat="40.271651" lon="-5.087781">
        <ele>992.47</ele>
        <time>2021-03-27T17:12:41Z</time>
      </trkpt>
      <trkpt lat="40.2719" lon="-5.087477">
        <ele>994.01</ele>
        <time>2021-03-27T17:12:42Z</time>
      </trkpt>
      <trkpt lat="40.271971" lon="-5.087421">
        <ele>994.66</ele>
        <time>2021-03-27T17:12:44Z</time>
      </trkpt>
      <trkpt lat="40.272178" lon="-5.087337">
        <ele>997.29</ele>
        <time>2021-03-27T17:12:45Z</time>
      </trkpt>
      <trkpt lat="40.273427" lon="-5.086992">
        <ele>1008.47</ele>
        <time>2021-03-27T17:12:46Z</time>
      </trkpt>
      <trkpt lat="40.27352" lon="-5.08695">
        <ele>1010.07</ele>
        <time>2021-03-27T17:12:48Z</time>
      </trkpt>
      <trkpt lat="40.27362" lon="-5.086849">
        <ele>1011.54</ele>
        <time>2021-03-27T17:12:49Z</time>
      </trkpt>
      <trkpt lat="40.273652" lon="-5.086756">
        <ele>1011.68</ele>
        <time>2021-03-27T17:12:51Z</time>
      </trkpt>
      <trkpt lat="40.273656" lon="-5.086387">
        <ele>1009.13</ele>
        <time>2021-03-27T17:12:52Z</time>
      </trkpt>
      <trkpt lat="40.273671" lon="-5.086248">
        <ele>1007.99</ele>
        <time>2021-03-27T17:12:54Z</time>
      </trkpt>
      <trkpt lat="40.273746" lon="-5.086048">
        <ele>1007.18</ele>
        <time>2021-03-27T17:12:55Z</time>
      </trkpt>
      <trkpt lat="40.273872" lon="-5.085907">
        <ele>1007.85</ele>
        <time>2021-03-27T17:12:57Z</time>
      </trkpt>
      <trkpt lat="40.274011" lon="-5.08586">
        <ele>1009.29</ele>
        <time>2021-03-27T17:12:58Z</time>
      </trkpt>
      <trkpt lat="40.274107" lon="-5.085866">
        <ele>1010.82</ele>
        <time>2021-03-27T17:13:00Z</time>
      </trkpt>
      <trkpt lat="40.274378" lon="-5.085984">
        <ele>1018.13</ele>
        <time>2021-03-27T17:13:01Z</time>
      </trkpt>
      <trkpt lat="40.274544" lon="-5.086022">
        <ele>1021.76</ele>
        <time>2021-03-27T17:13:03Z</time>
      </trkpt>
      <trkpt lat="40.274706" lon="-5.086012">
        <ele>1023.6</ele>
        <time>2021-03-27T17:13:04Z</time>
      </trkpt>
      <trkpt lat="40.27584" lon="-5.085812">
        <ele>1032.54</ele>
        <time>2021-03-27T17:13:06Z</time>
      </trkpt>
      <trkpt lat="40.276123" lon="-5.085711">
        <ele>1032.47</ele>
        <time>2021-03-27T17:13:07Z</time>
      </trkpt>
      <trkpt lat="40.276233" lon="-5.085696">
        <ele>1032.05</ele>
        <time>2021-03-27T17:13:09Z</time>
      </trkpt>
      <trkpt lat="40.276344" lon="-5.085738">
        <ele>1032.99</ele>
        <time>2021-03-27T17:13:10Z</time>
      </trkpt>
      <trkpt lat="40.276466" lon="-5.085864">
        <ele>1036.19</ele>
        <time>2021-03-27T17:13:12Z</time>
      </trkpt>
      <trkpt lat="40.276579" lon="-5.085938">
        <ele>1038.95</ele>
        <time>2021-03-27T17:13:13Z</time>
      </trkpt>
      <trkpt lat="40.276714" lon="-5.085941">
        <ele>1040.63</ele>
        <time>2021-03-27T17:13:15Z</time>
      </trkpt>
      <trkpt lat="40.276829" lon="-5.085893">
        <ele>1041.7</ele>
        <time>2021-03-27T17:13:16Z</time>
      </trkpt>
      <trkpt lat="40.277069" lon="-5.085731">
        <ele>1044.9</ele>
        <time>2021-03-27T17:13:18Z</time>
      </trkpt>
      <trkpt lat="40.277227" lon="-5.085646">
        <ele>1049.84</ele>
        <time>2021-03-27T17:13:19Z</time>
      </trkpt>
      <trkpt lat="40.27733" lon="-5.085562">
        <ele>1052.19</ele>
        <time>2021-03-27T17:13:21Z</time>
      </trkpt>
      <trkpt lat="40.27739" lon="-5.085487">
        <ele>1053.19</ele>
        <time>2021-03-27T17:13:22Z</time>
      </trkpt>
      <trkpt lat="40.27743" lon="-5.085414">
        <ele>1053.41</ele>
        <time>2021-03-27T17:13:24Z</time>
      </trkpt>
      <trkpt lat="40.277474" lon="-5.085272">
        <ele>1052.52</ele>
        <time>2021-03-27T17:13:25Z</time>
      </trkpt>
      <trkpt lat="40.277646" lon="-5.084607">
        <ele>1052.6</ele>
        <time>2021-03-27T17:13:27Z</time>
      </trkpt>
      <trkpt lat="40.277803" lon="-5.084332">
        <ele>1055.81</ele>
        <time>2021-03-27T17:13:28Z</time>
      </trkpt>
      <trkpt lat="40.278039" lon="-5.084004">
        <ele>1058.02</ele>
        <time>2021-03-27T17:13:30Z</time>
      </trkpt>
      <trkpt lat="40.278114" lon="-5.083926">
        <ele>1057.77</ele>
        <time>2021-03-27T17:13:31Z</time>
      </trkpt>
      <trkpt lat="40.278247" lon="-5.083841">
        <ele>1058.8</ele>
        <time>2021-03-27T17:13:33Z</time>
      </trkpt>
      <trkpt lat="40.278418" lon="-5.083762">
        <ele>1060.38</ele>
        <time>2021-03-27T17:13:34Z</time>
      </trkpt>
      <trkpt lat="40.278637" lon="-5.083718">
        <ele>1061.73</ele>
        <time>2021-03-27T17:13:36Z</time>
      </trkpt>
      <trkpt lat="40.279042" lon="-5.083769">
        <ele>1066.79</ele>
        <time>2021-03-27T17:13:37Z</time>
      </trkpt>
      <trkpt lat="40.279291" lon="-5.083824">
        <ele>1072.22</ele>
        <time>2021-03-27T17:13:39Z</time>
      </trkpt>
      <trkpt lat="40.279503" lon="-5.083893">
        <ele>1079.85</ele>
        <time>2021-03-27T17:13:40Z</time>
      </trkpt>
      <trkpt lat="40.279655" lon="-5.083893">
        <ele>1084.23</ele>
        <time>2021-03-27T17:13:42Z</time>
      </trkpt>
      <trkpt lat="40.279717" lon="-5.083862">
        <ele>1084.6</ele>
        <time>2021-03-27T17:13:43Z</time>
      </trkpt>
      <trkpt lat="40.279784" lon="-5.0838">
        <ele>1082.84</ele>
        <time>2021-03-27T17:13:45Z</time>
      </trkpt>
      <trkpt lat="40.279957" lon="-5.083541">
        <ele>1077.43</ele>
        <time>2021-03-27T17:13:46Z</time>
      </trkpt>
      <trkpt lat="40.280161" lon="-5.083319">
        <ele>1077.35</ele>
        <time>2021-03-27T17:13:48Z</time>
      </trkpt>
      <trkpt lat="40.280343" lon="-5.083043">
        <ele>1077.16</ele>
        <time>2021-03-27T17:13:49Z</time>
      </trkpt>
      <trkpt lat="40.280564" lon="-5.082882">
        <ele>1081.81</ele>
        <time>2021-03-27T17:13:51Z</time>
      </trkpt>
      <trkpt lat="40.280864" lon="-5.082741">
        <ele>1084.27</ele>
        <time>2021-03-27T17:13:52Z</time>
      </trkpt>
      <trkpt lat="40.281264" lon="-5.082626">
        <ele>1088.49</ele>
        <time>2021-03-27T17:13:54Z</time>
      </trkpt>
      <trkpt lat="40.281943" lon="-5.082241">
        <ele>1098.45</ele>
        <time>2021-03-27T17:13:55Z</time>
      </trkpt>
      <trkpt lat="40.282479" lon="-5.082076">
        <ele>1101.01</ele>
        <time>2021-03-27T17:13:57Z</time>
      </trkpt>
      <trkpt lat="40.282645" lon="-5.082064">
        <ele>1103.87</ele>
        <time>2021-03-27T17:13:58Z</time>
      </trkpt>
      <trkpt lat="40.283344" lon="-5.082079">
        <ele>1115.89</ele>
        <time>2021-03-27T17:14:00Z</time>
      </trkpt>
      <trkpt lat="40.284266" lon="-5.082199">
        <ele>1123.69</ele>
        <time>2021-03-27T17:14:01Z</time>
      </trkpt>
      <trkpt lat="40.284446" lon="-5.082148">
        <ele>1125.16</ele>
        <time>2021-03-27T17:14:02Z</time>
      </trkpt>
      <trkpt lat="40.284809" lon="-5.081939">
        <ele>1125.75</ele>
        <time>2021-03-27T17:14:04Z</time>
      </trkpt>
      <trkpt lat="40.28488" lon="-5.081883">
        <ele>1124.62</ele>
        <time>2021-03-27T17:14:05Z</time>
      </trkpt>
      <trkpt lat="40.285058" lon="-5.081667">
        <ele>1119.88</ele>
        <time>2021-03-27T17:14:07Z</time>
      </trkpt>
      <trkpt lat="40.285202" lon="-5.081562">
        <ele>1120.03</ele>
        <time>2021-03-27T17:14:08Z</time>
      </trkpt>
      <trkpt lat="40.285268" lon="-5.08145">
        <ele>1118.97</ele>
        <time>2021-03-27T17:14:10Z</time>
      </trkpt>
      <trkpt lat="40.285298" lon="-5.081293">
        <ele>1118.85</ele>
        <time>2021-03-27T17:14:11Z</time>
      </trkpt>
      <trkpt lat="40.285252" lon="-5.081112">
        <ele>1118.44</ele>
        <time>2021-03-27T17:14:13Z</time>
      </trkpt>
      <trkpt lat="40.285159" lon="-5.080881">
        <ele>1118.56</ele>
        <time>2021-03-27T17:14:14Z</time>
      </trkpt>
      <trkpt lat="40.285165" lon="-5.080747">
        <ele>1119.79</ele>
        <time>2021-03-27T17:14:16Z</time>
      </trkpt>
      <trkpt lat="40.285235" lon="-5.080621">
        <ele>1122.46</ele>
        <time>2021-03-27T17:14:17Z</time>
      </trkpt>
      <trkpt lat="40.285474" lon="-5.080376">
        <ele>1127.08</ele>
        <time>2021-03-27T17:14:19Z</time>
      </trkpt>
      <trkpt lat="40.285625" lon="-5.08018">
        <ele>1129.41</ele>
        <time>2021-03-27T17:14:20Z</time>
      </trkpt>
      <trkpt lat="40.285802" lon="-5.079775">
        <ele>1131.59</ele>
        <time>2021-03-27T17:14:22Z</time>
      </trkpt>
      <trkpt lat="40.285891" lon="-5.07962">
        <ele>1132.59</ele>
        <time>2021-03-27T17:14:23Z</time>
      </trkpt>
      <trkpt lat="40.285991" lon="-5.079504">
        <ele>1134.29</ele>
        <time>2021-03-27T17:14:25Z</time>
      </trkpt>
      <trkpt lat="40.286606" lon="-5.079047">
        <ele>1143.19</ele>
        <time>2021-03-27T17:14:26Z</time>
      </trkpt>
      <trkpt lat="40.286655" lon="-5.078968">
        <ele>1143.12</ele>
        <time>2021-03-27T17:14:28Z</time>
      </trkpt>
      <trkpt lat="40.286847" lon="-5.078507">
        <ele>1143.29</ele>
        <time>2021-03-27T17:14:29Z</time>
      </trkpt>
      <trkpt lat="40.286909" lon="-5.078418">
        <ele>1144.12</ele>
        <time>2021-03-27T17:14:31Z</time>
      </trkpt>
      <trkpt lat="40.287067" lon="-5.078273">
        <ele>1147.34</ele>
        <time>2021-03-27T17:14:32Z</time>
      </trkpt>
      <trkpt lat="40.287305" lon="-5.078127">
        <ele>1152.75</ele>
        <time>2021-03-27T17:14:34Z</time>
      </trkpt>
      <trkpt lat="40.28743" lon="-5.077993">
        <ele>1153.58</ele>
        <time>2021-03-27T17:14:35Z</time>
      </trkpt>
      <trkpt lat="40.28797" lon="-5.076961">
        <ele>1159.27</ele>
        <time>2021-03-27T17:14:37Z</time>
      </trkpt>
      <trkpt lat="40.288213" lon="-5.07643">
        <ele>1163.8</ele>
        <time>2021-03-27T17:14:38Z</time>
      </trkpt>
      <trkpt lat="40.288337" lon="-5.075906">
        <ele>1168.89</ele>
        <time>2021-03-27T17:14:40Z</time>
      </trkpt>
      <trkpt lat="40.288573" lon="-5.075236">
        <ele>1175.01</ele>
        <time>2021-03-27T17:14:41Z</time>
      </trkpt>
      <trkpt lat="40.288705" lon="-5.074978">
        <ele>1174.57</ele>
        <time>2021-03-27T17:14:43Z</time>
      </trkpt>
      <trkpt lat="40.288804" lon="-5.074851">
        <ele>1175.04</ele>
        <time>2021-03-27T17:14:44Z</time>
      </trkpt>
      <trkpt lat="40.288927" lon="-5.074753">
        <ele>1176.93</ele>
        <time>2021-03-27T17:14:46Z</time>
      </trkpt>
      <trkpt lat="40.289185" lon="-5.074611">
        <ele>1183.32</ele>
        <time>2021-03-27T17:14:47Z</time>
      </trkpt>
      <trkpt lat="40.289259" lon="-5.074549">
        <ele>1184.5</ele>
        <time>2021-03-27T17:14:49Z</time>
      </trkpt>
      <trkpt lat="40.289338" lon="-5.074454">
        <ele>1184.88</ele>
        <time>2021-03-27T17:14:50Z</time>
      </trkpt>
      <trkpt lat="40.289867" lon="-5.073643">
        <ele>1193.09</ele>
        <time>2021-03-27T17:14:52Z</time>
      </trkpt>
      <trkpt lat="40.290033" lon="-5.07346">
        <ele>1194.09</ele>
        <time>2021-03-27T17:14:53Z</time>
      </trkpt>
      <trkpt lat="40.290105" lon="-5.073408">
        <ele>1194.64</ele>
        <time>2021-03-27T17:14:55Z</time>
      </trkpt>
      <trkpt lat="40.2905" lon="-5.073247">
        <ele>1197.97</ele>
        <time>2021-03-27T17:14:56Z</time>
      </trkpt>
      <trkpt lat="40.290588" lon="-5.073227">
        <ele>1198.25</ele>
        <time>2021-03-27T17:14:58Z</time>
      </trkpt>
      <trkpt lat="40.292119" lon="-5.073206">
        <ele>1216.09</ele>
        <time>2021-03-27T17:14:59Z</time>
      </trkpt>
      <trkpt lat="40.292528" lon="-5.073138">
        <ele>1222.08</ele>
        <time>2021-03-27T17:15:01Z</time>
      </trkpt>
      <trkpt lat="40.29264" lon="-5.073077">
        <ele>1221.7</ele>
        <time>2021-03-27T17:15:02Z</time>
      </trkpt>
      <trkpt lat="40.29272" lon="-5.07297">
        <ele>1221.64</ele>
        <time>2021-03-27T17:15:04Z</time>
      </trkpt>
      <trkpt lat="40.292728" lon="-5.07286">
        <ele>1221.32</ele>
        <time>2021-03-27T17:15:05Z</time>
      </trkpt>
      <trkpt lat="40.29269" lon="-5.072774">
        <ele>1220.13</ele>
        <time>2021-03-27T17:15:07Z</time>
      </trkpt>
      <trkpt lat="40.292548" lon="-5.072643">
        <ele>1218.09</ele>
        <time>2021-03-27T17:15:08Z</time>
      </trkpt>
      <trkpt lat="40.292413" lon="-5.07247">
        <ele>1217.14</ele>
        <time>2021-03-27T17:15:10Z</time>
      </trkpt>
      <trkpt lat="40.292396" lon="-5.072412">
        <ele>1217.65</ele>
        <time>2021-03-27T17:15:11Z</time>
      </trkpt>
      <trkpt lat="40.292397" lon="-5.072353">
        <ele>1218.44</ele>
        <time>2021-03-27T17:15:13Z</time>
      </trkpt>
      <trkpt lat="40.292411" lon="-5.072307">
        <ele>1219.26</ele>
        <time>2021-03-27T17:15:14Z</time>
      </trkpt>
      <trkpt lat="40.292446" lon="-5.072267">
        <ele>1220.42</ele>
        <time>2021-03-27T17:15:15Z</time>
      </trkpt>
      <trkpt lat="40.292551" lon="-5.072219">
        <ele>1222.92</ele>
        <time>2021-03-27T17:15:17Z</time>
      </trkpt>
      <trkpt lat="40.292918" lon="-5.072222">
        <ele>1230.54</ele>
        <time>2021-03-27T17:15:18Z</time>
      </trkpt>
      <trkpt lat="40.293002" lon="-5.072151">
        <ele>1232.87</ele>
        <time>2021-03-27T17:15:20Z</time>
      </trkpt>
      <trkpt lat="40.293024" lon="-5.072098">
        <ele>1233.6</ele>
        <time>2021-03-27T17:15:21Z</time>
      </trkpt>
      <trkpt lat="40.293034" lon="-5.072047">
        <ele>1234.03</ele>
        <time>2021-03-27T17:15:23Z</time>
      </trkpt>
      <trkpt lat="40.293021" lon="-5.071927">
        <ele>1234.06</ele>
        <time>2021-03-27T17:15:24Z</time>
      </trkpt>
      <trkpt lat="40.292903" lon="-5.071603">
        <ele>1230.94</ele>
        <time>2021-03-27T17:15:26Z</time>
      </trkpt>
      <trkpt lat="40.292855" lon="-5.071362">
        <ele>1230.41</ele>
        <time>2021-03-27T17:15:27Z</time>
      </trkpt>
      <trkpt lat="40.292838" lon="-5.071184">
        <ele>1230.17</ele>
        <time>2021-03-27T17:15:29Z</time>
      </trkpt>
      <trkpt lat="40.292834" lon="-5.070969">
        <ele>1230.03</ele>
        <time>2021-03-27T17:15:30Z</time>
      </trkpt>
      <trkpt lat="40.292878" lon="-5.070802">
        <ele>1230.85</ele>
        <time>2021-03-27T17:15:32Z</time>
      </trkpt>
      <trkpt lat="40.292919" lon="-5.07073">
        <ele>1231.1</ele>
        <time>2021-03-27T17:15:33Z</time>
      </trkpt>
      <trkpt lat="40.29305" lon="-5.070625">
        <ele>1233.11</ele>
        <time>2021-03-27T17:15:35Z</time>
      </trkpt>
      <trkpt lat="40.293268" lon="-5.070553">
        <ele>1235.0</ele>
        <time>2021-03-27T17:15:36Z</time>
      </trkpt>
      <trkpt lat="40.293352" lon="-5.070542">
        <ele>1236.33</ele>
        <time>2021-03-27T17:15:38Z</time>
      </trkpt>
      <trkpt lat="40.293759" lon="-5.070558">
        <ele>1252.99</ele>
        <time>2021-03-27T17:15:39Z</time>
      </trkpt>
      <trkpt lat="40.293871" lon="-5.070529">
        <ele>1255.67</ele>
        <time>2021-03-27T17:15:41Z</time>
      </trkpt>
      <trkpt lat="40.293946" lon="-5.070483">
        <ele>1255.28</ele>
        <time>2021-03-27T17:15:42Z</time>
      </trkpt>
      <trkpt lat="40.294124" lon="-5.070301">
        <ele>1249.96</ele>
        <time>2021-03-27T17:15:44Z</time>
      </trkpt>
      <trkpt lat="40.294382" lon="-5.07009">
        <ele>1249.63</ele>
        <time>2021-03-27T17:15:45Z</time>
      </trkpt>
      <trkpt lat="40.294986" lon="-5.069353">
        <ele>1254.03</ele>
        <time>2021-03-27T17:15:47Z</time>
      </trkpt>
      <trkpt lat="40.295082" lon="-5.069251">
        <ele>1255.14</ele>
        <time>2021-03-27T17:15:48Z</time>
      </trkpt>
      <trkpt lat="40.295343" lon="-5.069025">
        <ele>1258.6</ele>
        <time>2021-03-27T17:15:50Z</time>
      </trkpt>
      <trkpt lat="40.29539" lon="-5.068909">
        <ele>1257.78</ele>
        <time>2021-03-27T17:15:51Z</time>
      </trkpt>
      <trkpt lat="40.295388" lon="-5.068789">
        <ele>1257.96</ele>
        <time>2021-03-27T17:15:53Z</time>
      </trkpt>
      <trkpt lat="40.295372" lon="-5.06874">
        <ele>1257.92</ele>
        <time>2021-03-27T17:15:54Z</time>
      </trkpt>
      <trkpt lat="40.295331" lon="-5.068649">
        <ele>1257.71</ele>
        <time>2021-03-27T17:15:56Z</time>
      </trkpt>
      <trkpt lat="40.295256" lon="-5.06857">
        <ele>1257.74</ele>
        <time>2021-03-27T17:15:57Z</time>
      </trkpt>
      <trkpt lat="40.295144" lon="-5.068554">
        <ele>1257.37</ele>
        <time>2021-03-27T17:15:59Z</time>
      </trkpt>
      <trkpt lat="40.294856" lon="-5.068595">
        <ele>1255.89</ele>
        <time>2021-03-27T17:16:00Z</time>
      </trkpt>
      <trkpt lat="40.29453" lon="-5.068578">
        <ele>1256.11</ele>
        <time>2021-03-27T17:16:02Z</time>
      </trkpt>
      <trkpt lat="40.294434" lon="-5.068546">
        <ele>1256.58</ele>
        <time>2021-03-27T17:16:03Z</time>
      </trkpt>
      <trkpt lat="40.294269" lon="-5.068427">
        <ele>1258.59</ele>
        <time>2021-03-27T17:16:05Z</time>
      </trkpt>
      <trkpt lat="40.294142" lon="-5.068242">
        <ele>1261.19</ele>
        <time>2021-03-27T17:16:06Z</time>
      </trkpt>
      <trkpt lat="40.293969" lon="-5.067808">
        <ele>1265.27</ele>
        <time>2021-03-27T17:16:08Z</time>
      </trkpt>
      <trkpt lat="40.293814" lon="-5.067598">
        <ele>1265.88</ele>
        <time>2021-03-27T17:16:09Z</time>
      </trkpt>
      <trkpt lat="40.293765" lon="-5.067497">
        <ele>1266.83</ele>
        <time>2021-03-27T17:16:11Z</time>
      </trkpt>
      <trkpt lat="40.293732" lon="-5.067096">
        <ele>1273.41</ele>
        <time>2021-03-27T17:16:12Z</time>
      </trkpt>
      <trkpt lat="40.293704" lon="-5.067002">
        <ele>1274.38</ele>
        <time>2021-03-27T17:16:14Z</time>
      </trkpt>
      <trkpt lat="40.293652" lon="-5.066911">
        <ele>1275.01</ele>
        <time>2021-03-27T17:16:15Z</time>
      </trkpt>
      <trkpt lat="40.293538" lon="-5.066792">
        <ele>1276.71</ele>
        <time>2021-03-27T17:16:17Z</time>
      </trkpt>
      <trkpt lat="40.293399" lon="-5.066732">
        <ele>1276.99</ele>
        <time>2021-03-27T17:16:18Z</time>
      </trkpt>
      <trkpt lat="40.293291" lon="-5.066736">
        <ele>1277.31</ele>
        <time>2021-03-27T17:16:20Z</time>
      </trkpt>
      <trkpt lat="40.293169" lon="-5.066795">
        <ele>1278.91</ele>
        <time>2021-03-27T17:16:21Z</time>
      </trkpt>
      <trkpt lat="40.292978" lon="-5.066973">
        <ele>1279.44</ele>
        <time>2021-03-27T17:16:23Z</time>
      </trkpt>
      <trkpt lat="40.292833" lon="-5.067141">
        <ele>1278.31</ele>
        <time>2021-03-27T17:16:24Z</time>
      </trkpt>
      <trkpt lat="40.292748" lon="-5.067184">
        <ele>1278.66</ele>
        <time>2021-03-27T17:16:26Z</time>
      </trkpt>
      <trkpt lat="40.292614" lon="-5.0672">
        <ele>1280.09</ele>
        <time>2021-03-27T17:16:27Z</time>
      </trkpt>
      <trkpt lat="40.292487" lon="-5.067157">
        <ele>1283.1</ele>
        <time>2021-03-27T17:16:29Z</time>
      </trkpt>
      <trkpt lat="40.292158" lon="-5.066991">
        <ele>1288.05</ele>
        <time>2021-03-27T17:16:30Z</time>
      </trkpt>
      <trkpt lat="40.292078" lon="-5.066978">
        <ele>1288.93</ele>
        <time>2021-03-27T17:16:31Z</time>
      </trkpt>
      <trkpt lat="40.291679" lon="-5.067039">
        <ele>1288.87</ele>
        <time>2021-03-27T17:16:33Z</time>
      </trkpt>
      <trkpt lat="40.291548" lon="-5.066996">
        <ele>1289.96</ele>
        <time>2021-03-27T17:16:34Z</time>
      </trkpt>
      <trkpt lat="40.291485" lon="-5.066943">
        <ele>1291.38</ele>
        <time>2021-03-27T17:16:36Z</time>
      </trkpt>
      <trkpt lat="40.291431" lon="-5.066873">
        <ele>1293.05</ele>
        <time>2021-03-27T17:16:37Z</time>
      </trkpt>
      <trkpt lat="40.290868" lon="-5.065769">
        <ele>1301.14</ele>
        <time>2021-03-27T17:16:39Z</time>
      </trkpt>
      <trkpt lat="40.290752" lon="-5.065636">
        <ele>1301.5</ele>
        <time>2021-03-27T17:16:40Z</time>
      </trkpt>
      <trkpt lat="40.290445" lon="-5.065411">
        <ele>1298.61</ele>
        <time>2021-03-27T17:16:42Z</time>
      </trkpt>
      <trkpt lat="40.290375" lon="-5.065282">
        <ele>1298.73</ele>
        <time>2021-03-27T17:16:43Z</time>
      </trkpt>
      <trkpt lat="40.290357" lon="-5.065161">
        <ele>1299.67</ele>
        <time>2021-03-27T17:16:45Z</time>
      </trkpt>
      <trkpt lat="40.290361" lon="-5.065071">
        <ele>1300.84</ele>
        <time>2021-03-27T17:16:46Z</time>
      </trkpt>
      <trkpt lat="40.290397" lon="-5.064843">
        <ele>1304.8</ele>
        <time>2021-03-27T17:16:48Z</time>
      </trkpt>
      <trkpt lat="40.290414" lon="-5.064579">
        <ele>1309.74</ele>
        <time>2021-03-27T17:16:49Z</time>
      </trkpt>
      <trkpt lat="40.290396" lon="-5.064348">
        <ele>1313.59</ele>
        <time>2021-03-27T17:16:51Z</time>
      </trkpt>
      <trkpt lat="40.290326" lon="-5.064198">
        <ele>1313.99</ele>
        <time>2021-03-27T17:16:52Z</time>
      </trkpt>
      <trkpt lat="40.290138" lon="-5.064026">
        <ele>1313.0</ele>
        <time>2021-03-27T17:16:54Z</time>
      </trkpt>
      <trkpt lat="40.290056" lon="-5.063882">
        <ele>1313.9</ele>
        <time>2021-03-27T17:16:55Z</time>
      </trkpt>
      <trkpt lat="40.290015" lon="-5.063673">
        <ele>1315.67</ele>
        <time>2021-03-27T17:16:57Z</time>
      </trkpt>
      <trkpt lat="40.289984" lon="-5.063148">
        <ele>1322.39</ele>
        <time>2021-03-27T17:16:58Z</time>
      </trkpt>
      <trkpt lat="40.289913" lon="-5.063023">
        <ele>1323.05</ele>
        <time>2021-03-27T17:17:00Z</time>
      </trkpt>
      <trkpt lat="40.289841" lon="-5.062964">
        <ele>1322.97</ele>
        <time>2021-03-27T17:17:01Z</time>
      </trkpt>
      <trkpt lat="40.28971" lon="-5.062902">
        <ele>1322.26</ele>
        <time>2021-03-27T17:17:03Z</time>
      </trkpt>
      <trkpt lat="40.289537" lon="-5.062901">
        <ele>1321.38</ele>
        <time>2021-03-27T17:17:04Z</time>
      </trkpt>
      <trkpt lat="40.289441" lon="-5.062857">
        <ele>1321.98</ele>
        <time>2021-03-27T17:17:06Z</time>
      </trkpt>
      <trkpt lat="40.289389" lon="-5.062757">
        <ele>1324.23</ele>
        <time>2021-03-27T17:17:07Z</time>
      </trkpt>
      <trkpt lat="40.289327" lon="-5.062485">
        <ele>1329.42</ele>
        <time>2021-03-27T17:17:09Z</time>
      </trkpt>
      <trkpt lat="40.289263" lon="-5.062414">
        <ele>1330.33</ele>
        <time>2021-03-27T17:17:10Z</time>
      </trkpt>
      <trkpt lat="40.289136" lon="-5.062384">
        <ele>1330.59</ele>
        <time>2021-03-27T17:17:12Z</time>
      </trkpt>
      <trkpt lat="40.288861" lon="-5.062457">
        <ele>1329.22</ele>
        <time>2021-03-27T17:17:13Z</time>
      </trkpt>
      <trkpt lat="40.288726" lon="-5.062418">
        <ele>1330.37</ele>
        <time>2021-03-27T17:17:15Z</time>
      </trkpt>
      <trkpt lat="40.287842" lon="-5.061441">
        <ele>1344.11</ele>
        <time>2021-03-27T17:17:16Z</time>
      </trkpt>
      <trkpt lat="40.287842" lon="-5.061441">
        <ele>1344.11</ele>
        <time>2021-03-27T17:17:16Z</time>
      </trkpt>
      <trkpt lat="40.28782" lon="-5.061406">
        <ele>1344.26</ele>
        <time>2021-03-27T17:17:18Z</time>
      </trkpt>
      <trkpt lat="40.287791" lon="-5.061277">
        <ele>1344.91</ele>
        <time>2021-03-27T17:17:19Z</time>
      </trkpt>
      <trkpt lat="40.287829" lon="-5.061162">
        <ele>1345.89</ele>
        <time>2021-03-27T17:17:21Z</time>
      </trkpt>
      <trkpt lat="40.288196" lon="-5.060771">
        <ele>1345.52</ele>
        <time>2021-03-27T17:17:22Z</time>
      </trkpt>
      <trkpt lat="40.288762" lon="-5.059964">
        <ele>1342.53</ele>
        <time>2021-03-27T17:17:24Z</time>
      </trkpt>
      <trkpt lat="40.289218" lon="-5.059432">
        <ele>1339.36</ele>
        <time>2021-03-27T17:17:25Z</time>
      </trkpt>
      <trkpt lat="40.28944" lon="-5.058991">
        <ele>1332.82</ele>
        <time>2021-03-27T17:17:27Z</time>
      </trkpt>
      <trkpt lat="40.289702" lon="-5.058706">
        <ele>1331.7</ele>
        <time>2021-03-27T17:17:28Z</time>
      </trkpt>
      <trkpt lat="40.289999" lon="-5.058635">
        <ele>1331.77</ele>
        <time>2021-03-27T17:17:30Z</time>
      </trkpt>
      <trkpt lat="40.290256" lon="-5.058687">
        <ele>1332.95</ele>
        <time>2021-03-27T17:17:31Z</time>
      </trkpt>
      <trkpt lat="40.290494" lon="-5.058583">
        <ele>1330.25</ele>
        <time>2021-03-27T17:17:33Z</time>
      </trkpt>
      <trkpt lat="40.290782" lon="-5.058235">
        <ele>1325.21</ele>
        <time>2021-03-27T17:17:34Z</time>
      </trkpt>
      <trkpt lat="40.29118" lon="-5.057859">
        <ele>1321.69</ele>
        <time>2021-03-27T17:17:36Z</time>
      </trkpt>
      <trkpt lat="40.291191" lon="-5.057749">
        <ele>1318.93</ele>
        <time>2021-03-27T17:17:37Z</time>
      </trkpt>
      <trkpt lat="40.29114" lon="-5.05766">
        <ele>1316.62</ele>
        <time>2021-03-27T17:17:39Z</time>
      </trkpt>
      <trkpt lat="40.291058" lon="-5.05761">
        <ele>1314.92</ele>
        <time>2021-03-27T17:17:40Z</time>
      </trkpt>
      <trkpt lat="40.290568" lon="-5.057621">
        <ele>1312.23</ele>
        <time>2021-03-27T17:17:42Z</time>
      </trkpt>
      <trkpt lat="40.290163" lon="-5.057484">
        <ele>1306.98</ele>
        <time>2021-03-27T17:17:43Z</time>
      </trkpt>
      <trkpt lat="40.289354" lon="-5.057253">
        <ele>1296.43</ele>
        <time>2021-03-27T17:17:45Z</time>
      </trkpt>
      <trkpt lat="40.289052" lon="-5.057243">
        <ele>1294.97</ele>
        <time>2021-03-27T17:17:46Z</time>
      </trkpt>
      <trkpt lat="40.288843" lon="-5.057319">
        <ele>1294.52</ele>
        <time>2021-03-27T17:17:48Z</time>
      </trkpt>
      <trkpt lat="40.288597" lon="-5.057482">
        <ele>1291.44</ele>
        <time>2021-03-27T17:17:49Z</time>
      </trkpt>
      <trkpt lat="40.287744" lon="-5.058116">
        <ele>1282.88</ele>
        <time>2021-03-27T17:17:51Z</time>
      </trkpt>
      <trkpt lat="40.287648" lon="-5.058145">
        <ele>1282.83</ele>
        <time>2021-03-27T17:17:52Z</time>
      </trkpt>
      <trkpt lat="40.287528" lon="-5.058105">
        <ele>1281.26</ele>
        <time>2021-03-27T17:17:53Z</time>
      </trkpt>
      <trkpt lat="40.287147" lon="-5.05777">
        <ele>1272.54</ele>
        <time>2021-03-27T17:17:55Z</time>
      </trkpt>
      <trkpt lat="40.28698" lon="-5.057596">
        <ele>1267.58</ele>
        <time>2021-03-27T17:17:56Z</time>
      </trkpt>
      <trkpt lat="40.286677" lon="-5.057347">
        <ele>1262.91</ele>
        <time>2021-03-27T17:17:58Z</time>
      </trkpt>
      <trkpt lat="40.286298" lon="-5.057081">
        <ele>1258.3</ele>
        <time>2021-03-27T17:17:59Z</time>
      </trkpt>
      <trkpt lat="40.28617" lon="-5.057036">
        <ele>1256.41</ele>
        <time>2021-03-27T17:18:01Z</time>
      </trkpt>
      <trkpt lat="40.285952" lon="-5.057028">
        <ele>1254.85</ele>
        <time>2021-03-27T17:18:02Z</time>
      </trkpt>
      <trkpt lat="40.285647" lon="-5.057166">
        <ele>1254.91</ele>
        <time>2021-03-27T17:18:04Z</time>
      </trkpt>
      <trkpt lat="40.285566" lon="-5.057132">
        <ele>1252.87</ele>
        <time>2021-03-27T17:18:05Z</time>
      </trkpt>
      <trkpt lat="40.285515" lon="-5.057062">
        <ele>1250.24</ele>
        <time>2021-03-27T17:18:07Z</time>
      </trkpt>
      <trkpt lat="40.285504" lon="-5.056955">
        <ele>1247.35</ele>
        <time>2021-03-27T17:18:08Z</time>
      </trkpt>
      <trkpt lat="40.285522" lon="-5.056858">
        <ele>1245.49</ele>
        <time>2021-03-27T17:18:10Z</time>
      </trkpt>
      <trkpt lat="40.286041" lon="-5.055751">
        <ele>1239.14</ele>
        <time>2021-03-27T17:18:11Z</time>
      </trkpt>
      <trkpt lat="40.286137" lon="-5.055664">
        <ele>1239.91</ele>
        <time>2021-03-27T17:18:13Z</time>
      </trkpt>
      <trkpt lat="40.286277" lon="-5.055619">
        <ele>1240.19</ele>
        <time>2021-03-27T17:18:14Z</time>
      </trkpt>
      <trkpt lat="40.286591" lon="-5.055579">
        <ele>1238.8</ele>
        <time>2021-03-27T17:18:16Z</time>
      </trkpt>
      <trkpt lat="40.286744" lon="-5.05547">
        <ele>1235.4</ele>
        <time>2021-03-27T17:18:17Z</time>
      </trkpt>
      <trkpt lat="40.286982" lon="-5.055236">
        <ele>1228.98</ele>
        <time>2021-03-27T17:18:19Z</time>
      </trkpt>
      <trkpt lat="40.287633" lon="-5.054976">
        <ele>1228.02</ele>
        <time>2021-03-27T17:18:20Z</time>
      </trkpt>
      <trkpt lat="40.287904" lon="-5.05474">
        <ele>1224.93</ele>
        <time>2021-03-27T17:18:22Z</time>
      </trkpt>
      <trkpt lat="40.288104" lon="-5.054661">
        <ele>1222.92</ele>
        <time>2021-03-27T17:18:23Z</time>
      </trkpt>
      <trkpt lat="40.288915" lon="-5.054661">
        <ele>1216.68</ele>
        <time>2021-03-27T17:18:25Z</time>
      </trkpt>
      <trkpt lat="40.289059" lon="-5.054612">
        <ele>1216.93</ele>
        <time>2021-03-27T17:18:26Z</time>
      </trkpt>
      <trkpt lat="40.289178" lon="-5.054498">
        <ele>1216.2</ele>
        <time>2021-03-27T17:18:28Z</time>
      </trkpt>
      <trkpt lat="40.289389" lon="-5.054174">
        <ele>1209.49</ele>
        <time>2021-03-27T17:18:29Z</time>
      </trkpt>
      <trkpt lat="40.289534" lon="-5.054045">
        <ele>1208.2</ele>
        <time>2021-03-27T17:18:31Z</time>
      </trkpt>
      <trkpt lat="40.290114" lon="-5.053775">
        <ele>1204.3</ele>
        <time>2021-03-27T17:18:32Z</time>
      </trkpt>
      <trkpt lat="40.290596" lon="-5.053638">
        <ele>1200.02</ele>
        <time>2021-03-27T17:18:34Z</time>
      </trkpt>
      <trkpt lat="40.29066" lon="-5.053561">
        <ele>1199.59</ele>
        <time>2021-03-27T17:18:35Z</time>
      </trkpt>
      <trkpt lat="40.290677" lon="-5.053456">
        <ele>1198.64</ele>
        <time>2021-03-27T17:18:37Z</time>
      </trkpt>
      <trkpt lat="40.290658" lon="-5.053287">
        <ele>1196.24</ele>
        <time>2021-03-27T17:18:38Z</time>
      </trkpt>
      <trkpt lat="40.29056" lon="-5.052901">
        <ele>1187.3</ele>
        <time>2021-03-27T17:18:40Z</time>
      </trkpt>
      <trkpt lat="40.29054" lon="-5.052713">
        <ele>1184.34</ele>
        <time>2021-03-27T17:18:41Z</time>
      </trkpt>
      <trkpt lat="40.290538" lon="-5.052392">
        <ele>1182.63</ele>
        <time>2021-03-27T17:18:43Z</time>
      </trkpt>
      <trkpt lat="40.290552" lon="-5.051922">
        <ele>1180.75</ele>
        <time>2021-03-27T17:18:44Z</time>
      </trkpt>
      <trkpt lat="40.290575" lon="-5.051774">
        <ele>1180.18</ele>
        <time>2021-03-27T17:18:46Z</time>
      </trkpt>
      <trkpt lat="40.290658" lon="-5.051576">
        <ele>1180.07</ele>
        <time>2021-03-27T17:18:47Z</time>
      </trkpt>
      <trkpt lat="40.290678" lon="-5.051444">
        <ele>1179.24</ele>
        <time>2021-03-27T17:18:49Z</time>
      </trkpt>
      <trkpt lat="40.29065" lon="-5.051297">
        <ele>1178.36</ele>
        <time>2021-03-27T17:18:50Z</time>
      </trkpt>
      <trkpt lat="40.29044" lon="-5.051009">
        <ele>1174.77</ele>
        <time>2021-03-27T17:18:52Z</time>
      </trkpt>
      <trkpt lat="40.29036" lon="-5.050838">
        <ele>1172.78</ele>
        <time>2021-03-27T17:18:53Z</time>
      </trkpt>
      <trkpt lat="40.29021" lon="-5.050302">
        <ele>1168.16</ele>
        <time>2021-03-27T17:18:55Z</time>
      </trkpt>
      <trkpt lat="40.290156" lon="-5.05019">
        <ele>1167.24</ele>
        <time>2021-03-27T17:18:56Z</time>
      </trkpt>
      <trkpt lat="40.290083" lon="-5.050114">
        <ele>1166.2</ele>
        <time>2021-03-27T17:18:58Z</time>
      </trkpt>
      <trkpt lat="40.289996" lon="-5.050073">
        <ele>1164.93</ele>
        <time>2021-03-27T17:18:59Z</time>
      </trkpt>
      <trkpt lat="40.28983" lon="-5.050031">
        <ele>1162.0</ele>
        <time>2021-03-27T17:19:01Z</time>
      </trkpt>
      <trkpt lat="40.289727" lon="-5.049974">
        <ele>1160.08</ele>
        <time>2021-03-27T17:19:02Z</time>
      </trkpt>
      <trkpt lat="40.289617" lon="-5.04984">
        <ele>1157.73</ele>
        <time>2021-03-27T17:19:04Z</time>
      </trkpt>
      <trkpt lat="40.289539" lon="-5.049657">
        <ele>1156.13</ele>
        <time>2021-03-27T17:19:05Z</time>
      </trkpt>
      <trkpt lat="40.289496" lon="-5.049513">
        <ele>1155.26</ele>
        <time>2021-03-27T17:19:07Z</time>
      </trkpt>
      <trkpt lat="40.289472" lon="-5.049363">
        <ele>1153.87</ele>
        <time>2021-03-27T17:19:08Z</time>
      </trkpt>
      <trkpt lat="40.289473" lon="-5.049189">
        <ele>1152.14</ele>
        <time>2021-03-27T17:19:10Z</time>
      </trkpt>
      <trkpt lat="40.289692" lon="-5.048524">
        <ele>1150.56</ele>
        <time>2021-03-27T17:19:11Z</time>
      </trkpt>
      <trkpt lat="40.289701" lon="-5.04836">
        <ele>1150.69</ele>
        <time>2021-03-27T17:19:13Z</time>
      </trkpt>
      <trkpt lat="40.289671" lon="-5.048245">
        <ele>1150.53</ele>
        <time>2021-03-27T17:19:14Z</time>
      </trkpt>
      <trkpt lat="40.289322" lon="-5.047523">
        <ele>1145.24</ele>
        <time>2021-03-27T17:19:16Z</time>
      </trkpt>
      <trkpt lat="40.289306" lon="-5.047408">
        <ele>1144.01</ele>
        <time>2021-03-27T17:19:17Z</time>
      </trkpt>
      <trkpt lat="40.289321" lon="-5.047239">
        <ele>1142.5</ele>
        <time>2021-03-27T17:19:19Z</time>
      </trkpt>
      <trkpt lat="40.289398" lon="-5.047107">
        <ele>1142.76</ele>
        <time>2021-03-27T17:19:20Z</time>
      </trkpt>
      <trkpt lat="40.28956" lon="-5.046965">
        <ele>1143.5</ele>
        <time>2021-03-27T17:19:22Z</time>
      </trkpt>
      <trkpt lat="40.290179" lon="-5.046536">
        <ele>1137.77</ele>
        <time>2021-03-27T17:19:23Z</time>
      </trkpt>
      <trkpt lat="40.29027" lon="-5.04641">
        <ele>1136.29</ele>
        <time>2021-03-27T17:19:25Z</time>
      </trkpt>
      <trkpt lat="40.290327" lon="-5.046234">
        <ele>1135.04</ele>
        <time>2021-03-27T17:19:26Z</time>
      </trkpt>
      <trkpt lat="40.290382" lon="-5.045988">
        <ele>1134.39</ele>
        <time>2021-03-27T17:19:27Z</time>
      </trkpt>
      <trkpt lat="40.290383" lon="-5.045833">
        <ele>1134.28</ele>
        <time>2021-03-27T17:19:29Z</time>
      </trkpt>
      <trkpt lat="40.290248" lon="-5.045454">
        <ele>1128.03</ele>
        <time>2021-03-27T17:19:30Z</time>
      </trkpt>
      <trkpt lat="40.290217" lon="-5.045308">
        <ele>1126.66</ele>
        <time>2021-03-27T17:19:32Z</time>
      </trkpt>
      <trkpt lat="40.290235" lon="-5.045137">
        <ele>1127.29</ele>
        <time>2021-03-27T17:19:33Z</time>
      </trkpt>
      <trkpt lat="40.290382" lon="-5.044558">
        <ele>1130.1</ele>
        <time>2021-03-27T17:19:35Z</time>
      </trkpt>
      <trkpt lat="40.290389" lon="-5.044403">
        <ele>1129.42</ele>
        <time>2021-03-27T17:19:36Z</time>
      </trkpt>
      <trkpt lat="40.290337" lon="-5.044232">
        <ele>1127.44</ele>
        <time>2021-03-27T17:19:38Z</time>
      </trkpt>
      <trkpt lat="40.290071" lon="-5.043828">
        <ele>1128.33</ele>
        <time>2021-03-27T17:19:39Z</time>
      </trkpt>
      <trkpt lat="40.290006" lon="-5.043565">
        <ele>1131.03</ele>
        <time>2021-03-27T17:19:41Z</time>
      </trkpt>
      <trkpt lat="40.290063" lon="-5.043043">
        <ele>1129.83</ele>
        <time>2021-03-27T17:19:42Z</time>
      </trkpt>
      <trkpt lat="40.289784" lon="-5.041174">
        <ele>1128.1</ele>
        <time>2021-03-27T17:19:44Z</time>
      </trkpt>
      <trkpt lat="40.28973" lon="-5.040965">
        <ele>1127.17</ele>
        <time>2021-03-27T17:19:45Z</time>
      </trkpt>
      <trkpt lat="40.289652" lon="-5.040789">
        <ele>1125.82</ele>
        <time>2021-03-27T17:19:47Z</time>
      </trkpt>
      <trkpt lat="40.289452" lon="-5.040456">
        <ele>1124.79</ele>
        <time>2021-03-27T17:19:48Z</time>
      </trkpt>
      <trkpt lat="40.289391" lon="-5.04027">
        <ele>1125.65</ele>
        <time>2021-03-27T17:19:50Z</time>
      </trkpt>
      <trkpt lat="40.289381" lon="-5.040094">
        <ele>1126.35</ele>
        <time>2021-03-27T17:19:51Z</time>
      </trkpt>
      <trkpt lat="40.289392" lon="-5.039888">
        <ele>1126.41</ele>
        <time>2021-03-27T17:19:53Z</time>
      </trkpt>
      <trkpt lat="40.289444" lon="-5.039689">
        <ele>1125.88</ele>
        <time>2021-03-27T17:19:54Z</time>
      </trkpt>
      <trkpt lat="40.289563" lon="-5.039511">
        <ele>1125.34</ele>
        <time>2021-03-27T17:19:56Z</time>
      </trkpt>
      <trkpt lat="40.289698" lon="-5.039363">
        <ele>1124.44</ele>
        <time>2021-03-27T17:19:57Z</time>
      </trkpt>
      <trkpt lat="40.289806" lon="-5.0393">
        <ele>1124.09</ele>
        <time>2021-03-27T17:19:59Z</time>
      </trkpt>
      <trkpt lat="40.289961" lon="-5.039292">
        <ele>1124.21</ele>
        <time>2021-03-27T17:20:00Z</time>
      </trkpt>
      <trkpt lat="40.290219" lon="-5.039329">
        <ele>1126.17</ele>
        <time>2021-03-27T17:20:02Z</time>
      </trkpt>
      <trkpt lat="40.290404" lon="-5.039315">
        <ele>1126.91</ele>
        <time>2021-03-27T17:20:03Z</time>
      </trkpt>
      <trkpt lat="40.290614" lon="-5.039234">
        <ele>1125.85</ele>
        <time>2021-03-27T17:20:05Z</time>
      </trkpt>
      <trkpt lat="40.291321" lon="-5.038734">
        <ele>1116.71</ele>
        <time>2021-03-27T17:20:06Z</time>
      </trkpt>
      <trkpt lat="40.291419" lon="-5.038581">
        <ele>1116.34</ele>
        <time>2021-03-27T17:20:08Z</time>
      </trkpt>
      <trkpt lat="40.29151" lon="-5.038322">
        <ele>1116.52</ele>
        <time>2021-03-27T17:20:09Z</time>
      </trkpt>
      <trkpt lat="40.291596" lon="-5.037956">
        <ele>1115.96</ele>
        <time>2021-03-27T17:20:11Z</time>
      </trkpt>
      <trkpt lat="40.291618" lon="-5.037816">
        <ele>1116.07</ele>
        <time>2021-03-27T17:20:12Z</time>
      </trkpt>
      <trkpt lat="40.291602" lon="-5.037687">
        <ele>1116.33</ele>
        <time>2021-03-27T17:20:14Z</time>
      </trkpt>
      <trkpt lat="40.291542" lon="-5.037599">
        <ele>1115.87</ele>
        <time>2021-03-27T17:20:15Z</time>
      </trkpt>
      <trkpt lat="40.291264" lon="-5.037371">
        <ele>1112.02</ele>
        <time>2021-03-27T17:20:17Z</time>
      </trkpt>
      <trkpt lat="40.291193" lon="-5.037286">
        <ele>1110.77</ele>
        <time>2021-03-27T17:20:18Z</time>
      </trkpt>
      <trkpt lat="40.291163" lon="-5.037161">
        <ele>1110.17</ele>
        <time>2021-03-27T17:20:20Z</time>
      </trkpt>
      <trkpt lat="40.29116" lon="-5.036951">
        <ele>1109.61</ele>
        <time>2021-03-27T17:20:21Z</time>
      </trkpt>
      <trkpt lat="40.291197" lon="-5.036736">
        <ele>1108.83</ele>
        <time>2021-03-27T17:20:23Z</time>
      </trkpt>
      <trkpt lat="40.291261" lon="-5.036602">
        <ele>1109.19</ele>
        <time>2021-03-27T17:20:24Z</time>
      </trkpt>
      <trkpt lat="40.291807" lon="-5.036141">
        <ele>1113.19</ele>
        <time>2021-03-27T17:20:26Z</time>
      </trkpt>
      <trkpt lat="40.291988" lon="-5.035932">
        <ele>1113.14</ele>
        <time>2021-03-27T17:20:27Z</time>
      </trkpt>
      <trkpt lat="40.292047" lon="-5.035781">
        <ele>1112.45</ele>
        <time>2021-03-27T17:20:29Z</time>
      </trkpt>
      <trkpt lat="40.292066" lon="-5.03556">
        <ele>1110.98</ele>
        <time>2021-03-27T17:20:30Z</time>
      </trkpt>
      <trkpt lat="40.292054" lon="-5.035049">
        <ele>1110.84</ele>
        <time>2021-03-27T17:20:32Z</time>
      </trkpt>
      <trkpt lat="40.292094" lon="-5.03489">
        <ele>1109.88</ele>
        <time>2021-03-27T17:20:33Z</time>
      </trkpt>
      <trkpt lat="40.292386" lon="-5.034441">
        <ele>1111.3</ele>
        <time>2021-03-27T17:20:35Z</time>
      </trkpt>
      <trkpt lat="40.292414" lon="-5.034296">
        <ele>1111.16</ele>
        <time>2021-03-27T17:20:36Z</time>
      </trkpt>
      <trkpt lat="40.292401" lon="-5.034131">
        <ele>1109.8</ele>
        <time>2021-03-27T17:20:38Z</time>
      </trkpt>
      <trkpt lat="40.292345" lon="-5.034004">
        <ele>1107.98</ele>
        <time>2021-03-27T17:20:39Z</time>
      </trkpt>
      <trkpt lat="40.292288" lon="-5.033784">
        <ele>1105.46</ele>
        <time>2021-03-27T17:20:41Z</time>
      </trkpt>
      <trkpt lat="40.292283" lon="-5.033487">
        <ele>1103.74</ele>
        <time>2021-03-27T17:20:42Z</time>
      </trkpt>
      <trkpt lat="40.29231" lon="-5.033154">
        <ele>1102.41</ele>
        <time>2021-03-27T17:20:44Z</time>
      </trkpt>
      <trkpt lat="40.292382" lon="-5.032884">
        <ele>1101.51</ele>
        <time>2021-03-27T17:20:45Z</time>
      </trkpt>
      <trkpt lat="40.292872" lon="-5.031866">
        <ele>1094.8</ele>
        <time>2021-03-27T17:20:47Z</time>
      </trkpt>
      <trkpt lat="40.293005" lon="-5.03168">
        <ele>1092.37</ele>
        <time>2021-03-27T17:20:48Z</time>
      </trkpt>
      <trkpt lat="40.293306" lon="-5.031366">
        <ele>1084.0</ele>
        <time>2021-03-27T17:20:50Z</time>
      </trkpt>
      <trkpt lat="40.293493" lon="-5.031202">
        <ele>1078.05</ele>
        <time>2021-03-27T17:20:51Z</time>
      </trkpt>
      <trkpt lat="40.293872" lon="-5.031028">
        <ele>1073.13</ele>
        <time>2021-03-27T17:20:53Z</time>
      </trkpt>
      <trkpt lat="40.294373" lon="-5.030922">
        <ele>1074.41</ele>
        <time>2021-03-27T17:20:54Z</time>
      </trkpt>
      <trkpt lat="40.294508" lon="-5.030835">
        <ele>1069.85</ele>
        <time>2021-03-27T17:20:56Z</time>
      </trkpt>
      <trkpt lat="40.294718" lon="-5.030641">
        <ele>1062.75</ele>
        <time>2021-03-27T17:20:57Z</time>
      </trkpt>
      <trkpt lat="40.294789" lon="-5.030535">
        <ele>1061.88</ele>
        <time>2021-03-27T17:20:58Z</time>
      </trkpt>
      <trkpt lat="40.294837" lon="-5.030402">
        <ele>1062.98</ele>
        <time>2021-03-27T17:21:00Z</time>
      </trkpt>
      <trkpt lat="40.294856" lon="-5.030084">
        <ele>1066.51</ele>
        <time>2021-03-27T17:21:01Z</time>
      </trkpt>
      <trkpt lat="40.294815" lon="-5.030021">
        <ele>1066.63</ele>
        <time>2021-03-27T17:21:03Z</time>
      </trkpt>
      <trkpt lat="40.294556" lon="-5.03">
        <ele>1064.39</ele>
        <time>2021-03-27T17:21:04Z</time>
      </trkpt>
      <trkpt lat="40.294165" lon="-5.029801">
        <ele>1062.53</ele>
        <time>2021-03-27T17:21:06Z</time>
      </trkpt>
      <trkpt lat="40.293869" lon="-5.029564">
        <ele>1060.11</ele>
        <time>2021-03-27T17:21:07Z</time>
      </trkpt>
      <trkpt lat="40.293374" lon="-5.029126">
        <ele>1061.49</ele>
        <time>2021-03-27T17:21:09Z</time>
      </trkpt>
      <trkpt lat="40.2933" lon="-5.029039">
        <ele>1061.3</ele>
        <time>2021-03-27T17:21:10Z</time>
      </trkpt>
      <trkpt lat="40.293241" lon="-5.028925">
        <ele>1061.41</ele>
        <time>2021-03-27T17:21:12Z</time>
      </trkpt>
      <trkpt lat="40.293214" lon="-5.028797">
        <ele>1061.92</ele>
        <time>2021-03-27T17:21:13Z</time>
      </trkpt>
      <trkpt lat="40.29322" lon="-5.028646">
        <ele>1063.43</ele>
        <time>2021-03-27T17:21:15Z</time>
      </trkpt>
      <trkpt lat="40.293303" lon="-5.028199">
        <ele>1067.49</ele>
        <time>2021-03-27T17:21:16Z</time>
      </trkpt>
      <trkpt lat="40.293296" lon="-5.028058">
        <ele>1066.8</ele>
        <time>2021-03-27T17:21:18Z</time>
      </trkpt>
      <trkpt lat="40.293237" lon="-5.02791">
        <ele>1065.92</ele>
        <time>2021-03-27T17:21:19Z</time>
      </trkpt>
      <trkpt lat="40.293131" lon="-5.027773">
        <ele>1063.5</ele>
        <time>2021-03-27T17:21:21Z</time>
      </trkpt>
      <trkpt lat="40.293071" lon="-5.027668">
        <ele>1062.72</ele>
        <time>2021-03-27T17:21:22Z</time>
      </trkpt>
      <trkpt lat="40.293061" lon="-5.027535">
        <ele>1063.82</ele>
        <time>2021-03-27T17:21:24Z</time>
      </trkpt>
      <trkpt lat="40.293126" lon="-5.027127">
        <ele>1068.7</ele>
        <time>2021-03-27T17:21:25Z</time>
      </trkpt>
      <trkpt lat="40.293124" lon="-5.026916">
        <ele>1069.81</ele>
        <time>2021-03-27T17:21:27Z</time>
      </trkpt>
      <trkpt lat="40.29307" lon="-5.026674">
        <ele>1070.54</ele>
        <time>2021-03-27T17:21:28Z</time>
      </trkpt>
      <trkpt lat="40.292886" lon="-5.026262">
        <ele>1071.67</ele>
        <time>2021-03-27T17:21:30Z</time>
      </trkpt>
      <trkpt lat="40.292552" lon="-5.025895">
        <ele>1066.71</ele>
        <time>2021-03-27T17:21:31Z</time>
      </trkpt>
      <trkpt lat="40.292438" lon="-5.025073">
        <ele>1073.05</ele>
        <time>2021-03-27T17:21:33Z</time>
      </trkpt>
      <trkpt lat="40.292467" lon="-5.024697">
        <ele>1073.73</ele>
        <time>2021-03-27T17:21:34Z</time>
      </trkpt>
      <trkpt lat="40.292448" lon="-5.024467">
        <ele>1074.34</ele>
        <time>2021-03-27T17:21:36Z</time>
      </trkpt>
      <trkpt lat="40.292271" lon="-5.024191">
        <ele>1073.06</ele>
        <time>2021-03-27T17:21:37Z</time>
      </trkpt>
      <trkpt lat="40.292053" lon="-5.023989">
        <ele>1069.94</ele>
        <time>2021-03-27T17:21:39Z</time>
      </trkpt>
      <trkpt lat="40.292012" lon="-5.023678">
        <ele>1072.08</ele>
        <time>2021-03-27T17:21:40Z</time>
      </trkpt>
      <trkpt lat="40.292052" lon="-5.023306">
        <ele>1073.54</ele>
        <time>2021-03-27T17:21:42Z</time>
      </trkpt>
      <trkpt lat="40.292134" lon="-5.022907">
        <ele>1073.32</ele>
        <time>2021-03-27T17:21:43Z</time>
      </trkpt>
      <trkpt lat="40.292187" lon="-5.02275">
        <ele>1075.06</ele>
        <time>2021-03-27T17:21:45Z</time>
      </trkpt>
      <trkpt lat="40.292302" lon="-5.022504">
        <ele>1079.06</ele>
        <time>2021-03-27T17:21:46Z</time>
      </trkpt>
      <trkpt lat="40.29232" lon="-5.022403">
        <ele>1080.13</ele>
        <time>2021-03-27T17:21:48Z</time>
      </trkpt>
      <trkpt lat="40.292301" lon="-5.022293">
        <ele>1079.61</ele>
        <time>2021-03-27T17:21:49Z</time>
      </trkpt>
      <trkpt lat="40.292256" lon="-5.022181">
        <ele>1078.81</ele>
        <time>2021-03-27T17:21:51Z</time>
      </trkpt>
      <trkpt lat="40.292092" lon="-5.02201">
        <ele>1076.56</ele>
        <time>2021-03-27T17:21:52Z</time>
      </trkpt>
      <trkpt lat="40.291986" lon="-5.021802">
        <ele>1077.69</ele>
        <time>2021-03-27T17:21:54Z</time>
      </trkpt>
      <trkpt lat="40.291824" lon="-5.02105">
        <ele>1083.24</ele>
        <time>2021-03-27T17:21:55Z</time>
      </trkpt>
      <trkpt lat="40.29175" lon="-5.02063">
        <ele>1086.61</ele>
        <time>2021-03-27T17:21:57Z</time>
      </trkpt>
      <trkpt lat="40.291751" lon="-5.020501">
        <ele>1088.09</ele>
        <time>2021-03-27T17:21:58Z</time>
      </trkpt>
      <trkpt lat="40.29182" lon="-5.020373">
        <ele>1088.92</ele>
        <time>2021-03-27T17:22:00Z</time>
      </trkpt>
      <trkpt lat="40.292058" lon="-5.020021">
        <ele>1088.47</ele>
        <time>2021-03-27T17:22:01Z</time>
      </trkpt>
      <trkpt lat="40.292524" lon="-5.019436">
        <ele>1088.44</ele>
        <time>2021-03-27T17:22:03Z</time>
      </trkpt>
      <trkpt lat="40.292611" lon="-5.019383">
        <ele>1090.0</ele>
        <time>2021-03-27T17:22:04Z</time>
      </trkpt>
      <trkpt lat="40.292765" lon="-5.019358">
        <ele>1092.77</ele>
        <time>2021-03-27T17:22:06Z</time>
      </trkpt>
      <trkpt lat="40.29286" lon="-5.019322">
        <ele>1094.94</ele>
        <time>2021-03-27T17:22:07Z</time>
      </trkpt>
      <trkpt lat="40.292942" lon="-5.019227">
        <ele>1096.69</ele>
        <time>2021-03-27T17:22:09Z</time>
      </trkpt>
      <trkpt lat="40.292956" lon="-5.019122">
        <ele>1096.54</ele>
        <time>2021-03-27T17:22:10Z</time>
      </trkpt>
      <trkpt lat="40.292946" lon="-5.01902">
        <ele>1095.57</ele>
        <time>2021-03-27T17:22:12Z</time>
      </trkpt>
      <trkpt lat="40.292811" lon="-5.018752">
        <ele>1091.41</ele>
        <time>2021-03-27T17:22:13Z</time>
      </trkpt>
      <trkpt lat="40.292797" lon="-5.018649">
        <ele>1090.72</ele>
        <time>2021-03-27T17:22:15Z</time>
      </trkpt>
      <trkpt lat="40.292862" lon="-5.018083">
        <ele>1090.26</ele>
        <time>2021-03-27T17:22:16Z</time>
      </trkpt>
      <trkpt lat="40.292915" lon="-5.017944">
        <ele>1089.76</ele>
        <time>2021-03-27T17:22:18Z</time>
      </trkpt>
      <trkpt lat="40.29302" lon="-5.01784">
        <ele>1090.58</ele>
        <time>2021-03-27T17:22:19Z</time>
      </trkpt>
      <trkpt lat="40.293308" lon="-5.01761">
        <ele>1094.56</ele>
        <time>2021-03-27T17:22:21Z</time>
      </trkpt>
      <trkpt lat="40.293472" lon="-5.017507">
        <ele>1092.71</ele>
        <time>2021-03-27T17:22:22Z</time>
      </trkpt>
      <trkpt lat="40.293681" lon="-5.017461">
        <ele>1090.25</ele>
        <time>2021-03-27T17:22:24Z</time>
      </trkpt>
      <trkpt lat="40.293914" lon="-5.017439">
        <ele>1088.34</ele>
        <time>2021-03-27T17:22:25Z</time>
      </trkpt>
      <trkpt lat="40.294065" lon="-5.017456">
        <ele>1086.23</ele>
        <time>2021-03-27T17:22:27Z</time>
      </trkpt>
      <trkpt lat="40.294196" lon="-5.017493">
        <ele>1085.43</ele>
        <time>2021-03-27T17:22:28Z</time>
      </trkpt>
      <trkpt lat="40.294381" lon="-5.017623">
        <ele>1090.87</ele>
        <time>2021-03-27T17:22:30Z</time>
      </trkpt>
      <trkpt lat="40.294551" lon="-5.017672">
        <ele>1093.66</ele>
        <time>2021-03-27T17:22:31Z</time>
      </trkpt>
      <trkpt lat="40.294666" lon="-5.017661">
        <ele>1093.98</ele>
        <time>2021-03-27T17:22:32Z</time>
      </trkpt>
      <trkpt lat="40.29497" lon="-5.017579">
        <ele>1094.2</ele>
        <time>2021-03-27T17:22:34Z</time>
      </trkpt>
      <trkpt lat="40.295311" lon="-5.017599">
        <ele>1094.88</ele>
        <time>2021-03-27T17:22:35Z</time>
      </trkpt>
      <trkpt lat="40.295695" lon="-5.017765">
        <ele>1097.88</ele>
        <time>2021-03-27T17:22:37Z</time>
      </trkpt>
      <trkpt lat="40.296081" lon="-5.017744">
        <ele>1095.08</ele>
        <time>2021-03-27T17:22:38Z</time>
      </trkpt>
      <trkpt lat="40.296363" lon="-5.017649">
        <ele>1091.91</ele>
        <time>2021-03-27T17:22:40Z</time>
      </trkpt>
      <trkpt lat="40.296679" lon="-5.01762">
        <ele>1092.07</ele>
        <time>2021-03-27T17:22:41Z</time>
      </trkpt>
      <trkpt lat="40.296901" lon="-5.017705">
        <ele>1094.49</ele>
        <time>2021-03-27T17:22:43Z</time>
      </trkpt>
      <trkpt lat="40.297051" lon="-5.017845">
        <ele>1094.72</ele>
        <time>2021-03-27T17:22:44Z</time>
      </trkpt>
      <trkpt lat="40.297251" lon="-5.018399">
        <ele>1101.72</ele>
        <time>2021-03-27T17:22:46Z</time>
      </trkpt>
      <trkpt lat="40.29737" lon="-5.018505">
        <ele>1099.78</ele>
        <time>2021-03-27T17:22:47Z</time>
      </trkpt>
      <trkpt lat="40.29795" lon="-5.018702">
        <ele>1094.71</ele>
        <time>2021-03-27T17:22:49Z</time>
      </trkpt>
      <trkpt lat="40.2983" lon="-5.018775">
        <ele>1094.48</ele>
        <time>2021-03-27T17:22:50Z</time>
      </trkpt>
      <trkpt lat="40.298549" lon="-5.018959">
        <ele>1101.59</ele>
        <time>2021-03-27T17:22:52Z</time>
      </trkpt>
      <trkpt lat="40.298722" lon="-5.019041">
        <ele>1104.31</ele>
        <time>2021-03-27T17:22:53Z</time>
      </trkpt>
      <trkpt lat="40.299621" lon="-5.019099">
        <ele>1107.13</ele>
        <time>2021-03-27T17:22:55Z</time>
      </trkpt>
      <trkpt lat="40.299741" lon="-5.019078">
        <ele>1108.17</ele>
        <time>2021-03-27T17:22:56Z</time>
      </trkpt>
      <trkpt lat="40.299872" lon="-5.018963">
        <ele>1108.11</ele>
        <time>2021-03-27T17:22:58Z</time>
      </trkpt>
      <trkpt lat="40.300033" lon="-5.018642">
        <ele>1103.6</ele>
        <time>2021-03-27T17:22:59Z</time>
      </trkpt>
      <trkpt lat="40.300189" lon="-5.018451">
        <ele>1104.63</ele>
        <time>2021-03-27T17:23:01Z</time>
      </trkpt>
      <trkpt lat="40.300411" lon="-5.018306">
        <ele>1106.66</ele>
        <time>2021-03-27T17:23:02Z</time>
      </trkpt>
      <trkpt lat="40.300854" lon="-5.018069">
        <ele>1109.12</ele>
        <time>2021-03-27T17:23:04Z</time>
      </trkpt>
      <trkpt lat="40.30112" lon="-5.017899">
        <ele>1105.05</ele>
        <time>2021-03-27T17:23:05Z</time>
      </trkpt>
      <trkpt lat="40.301381" lon="-5.01769">
        <ele>1097.82</ele>
        <time>2021-03-27T17:23:07Z</time>
      </trkpt>
      <trkpt lat="40.30146" lon="-5.017655">
        <ele>1096.23</ele>
        <time>2021-03-27T17:23:08Z</time>
      </trkpt>
      <trkpt lat="40.301539" lon="-5.017694">
        <ele>1095.84</ele>
        <time>2021-03-27T17:23:10Z</time>
      </trkpt>
      <trkpt lat="40.302135" lon="-5.018198">
        <ele>1103.71</ele>
        <time>2021-03-27T17:23:11Z</time>
      </trkpt>
      <trkpt lat="40.302238" lon="-5.018263">
        <ele>1104.29</ele>
        <time>2021-03-27T17:23:13Z</time>
      </trkpt>
      <trkpt lat="40.302336" lon="-5.018272">
        <ele>1103.37</ele>
        <time>2021-03-27T17:23:14Z</time>
      </trkpt>
      <trkpt lat="40.302426" lon="-5.018256">
        <ele>1101.93</ele>
        <time>2021-03-27T17:23:16Z</time>
      </trkpt>
      <trkpt lat="40.302513" lon="-5.018183">
        <ele>1099.08</ele>
        <time>2021-03-27T17:23:17Z</time>
      </trkpt>
      <trkpt lat="40.30259" lon="-5.01808">
        <ele>1095.64</ele>
        <time>2021-03-27T17:23:19Z</time>
      </trkpt>
      <trkpt lat="40.302596" lon="-5.018203">
        <ele>1098.67</ele>
        <time>2021-03-27T17:23:21Z</time>
      </trkpt>
      <trkpt lat="40.302647" lon="-5.018271">
        <ele>1099.84</ele>
        <time>2021-03-27T17:23:23Z</time>
      </trkpt>
      <trkpt lat="40.302709" lon="-5.018317">
        <ele>1100.32</ele>
        <time>2021-03-27T17:23:25Z</time>
      </trkpt>
      <trkpt lat="40.302944" lon="-5.018402">
        <ele>1099.24</ele>
        <time>2021-03-27T17:23:27Z</time>
      </trkpt>
      <trkpt lat="40.303119" lon="-5.018511">
        <ele>1100.15</ele>
        <time>2021-03-27T17:23:29Z</time>
      </trkpt>
      <trkpt lat="40.30327" lon="-5.018656">
        <ele>1103.09</ele>
        <time>2021-03-27T17:23:31Z</time>
      </trkpt>
      <trkpt lat="40.303488" lon="-5.018925">
        <ele>1106.82</ele>
        <time>2021-03-27T17:23:33Z</time>
      </trkpt>
      <trkpt lat="40.303582" lon="-5.018957">
        <ele>1106.14</ele>
        <time>2021-03-27T17:23:35Z</time>
      </trkpt>
      <trkpt lat="40.303699" lon="-5.018948">
        <ele>1106.57</ele>
        <time>2021-03-27T17:23:37Z</time>
      </trkpt>
      <trkpt lat="40.303787" lon="-5.018877">
        <ele>1105.5</ele>
        <time>2021-03-27T17:23:39Z</time>
      </trkpt>
      <trkpt lat="40.304013" lon="-5.018603">
        <ele>1103.42</ele>
        <time>2021-03-27T17:23:41Z</time>
      </trkpt>
      <trkpt lat="40.304084" lon="-5.018554">
        <ele>1104.3</ele>
        <time>2021-03-27T17:23:43Z</time>
      </trkpt>
      <trkpt lat="40.304163" lon="-5.018521">
        <ele>1105.65</ele>
        <time>2021-03-27T17:23:45Z</time>
      </trkpt>
      <trkpt lat="40.304363" lon="-5.018506">
        <ele>1107.03</ele>
        <time>2021-03-27T17:23:48Z</time>
      </trkpt>
      <trkpt lat="40.304456" lon="-5.018556">
        <ele>1108.84</ele>
        <time>2021-03-27T17:23:50Z</time>
      </trkpt>
      <trkpt lat="40.304704" lon="-5.018762">
        <ele>1114.75</ele>
        <time>2021-03-27T17:23:52Z</time>
      </trkpt>
      <trkpt lat="40.304808" lon="-5.01882">
        <ele>1116.73</ele>
        <time>2021-03-27T17:23:54Z</time>
      </trkpt>
      <trkpt lat="40.304899" lon="-5.018832">
        <ele>1117.46</ele>
        <time>2021-03-27T17:23:56Z</time>
      </trkpt>
      <trkpt lat="40.305066" lon="-5.018737">
        <ele>1116.38</ele>
        <time>2021-03-27T17:23:58Z</time>
      </trkpt>
      <trkpt lat="40.305158" lon="-5.018702">
        <ele>1115.83</ele>
        <time>2021-03-27T17:24:00Z</time>
      </trkpt>
      <trkpt lat="40.305257" lon="-5.018695">
        <ele>1115.79</ele>
        <time>2021-03-27T17:24:02Z</time>
      </trkpt>
      <trkpt lat="40.305422" lon="-5.018764">
        <ele>1116.79</ele>
        <time>2021-03-27T17:24:04Z</time>
      </trkpt>
      <trkpt lat="40.306165" lon="-5.019217">
        <ele>1124.97</ele>
        <time>2021-03-27T17:24:06Z</time>
      </trkpt>
      <trkpt lat="40.306229" lon="-5.019242">
        <ele>1125.83</ele>
        <time>2021-03-27T17:24:08Z</time>
      </trkpt>
      <trkpt lat="40.306361" lon="-5.01923">
        <ele>1124.85</ele>
        <time>2021-03-27T17:24:10Z</time>
      </trkpt>
      <trkpt lat="40.30676" lon="-5.018906">
        <ele>1120.35</ele>
        <time>2021-03-27T17:24:12Z</time>
      </trkpt>
      <trkpt lat="40.306932" lon="-5.018834">
        <ele>1121.39</ele>
        <time>2021-03-27T17:24:14Z</time>
      </trkpt>
      <trkpt lat="40.307097" lon="-5.0188">
        <ele>1124.27</ele>
        <time>2021-03-27T17:24:16Z</time>
      </trkpt>
      <trkpt lat="40.307421" lon="-5.018782">
        <ele>1130.38</ele>
        <time>2021-03-27T17:24:18Z</time>
      </trkpt>
      <trkpt lat="40.30762" lon="-5.018708">
        <ele>1132.81</ele>
        <time>2021-03-27T17:24:20Z</time>
      </trkpt>
      <trkpt lat="40.307726" lon="-5.018622">
        <ele>1133.73</ele>
        <time>2021-03-27T17:24:22Z</time>
      </trkpt>
      <trkpt lat="40.307798" lon="-5.018531">
        <ele>1133.82</ele>
        <time>2021-03-27T17:24:24Z</time>
      </trkpt>
      <trkpt lat="40.307979" lon="-5.017992">
        <ele>1131.56</ele>
        <time>2021-03-27T17:24:26Z</time>
      </trkpt>
      <trkpt lat="40.308198" lon="-5.017597">
        <ele>1135.39</ele>
        <time>2021-03-27T17:24:28Z</time>
      </trkpt>
      <trkpt lat="40.308294" lon="-5.017478">
        <ele>1136.94</ele>
        <time>2021-03-27T17:24:31Z</time>
      </trkpt>
      <trkpt lat="40.308426" lon="-5.017356">
        <ele>1136.67</ele>
        <time>2021-03-27T17:24:33Z</time>
      </trkpt>
      <trkpt lat="40.308606" lon="-5.017256">
        <ele>1134.54</ele>
        <time>2021-03-27T17:24:35Z</time>
      </trkpt>
      <trkpt lat="40.309909" lon="-5.016695">
        <ele>1147.55</ele>
        <time>2021-03-27T17:24:37Z</time>
      </trkpt>
      <trkpt lat="40.310719" lon="-5.01621">
        <ele>1155.56</ele>
        <time>2021-03-27T17:24:39Z</time>
      </trkpt>
      <trkpt lat="40.310833" lon="-5.01612">
        <ele>1155.16</ele>
        <time>2021-03-27T17:24:41Z</time>
      </trkpt>
      <trkpt lat="40.311175" lon="-5.015756">
        <ele>1159.62</ele>
        <time>2021-03-27T17:24:43Z</time>
      </trkpt>
      <trkpt lat="40.311332" lon="-5.015619">
        <ele>1161.69</ele>
        <time>2021-03-27T17:24:45Z</time>
      </trkpt>
      <trkpt lat="40.311654" lon="-5.015405">
        <ele>1165.26</ele>
        <time>2021-03-27T17:24:47Z</time>
      </trkpt>
      <trkpt lat="40.312012" lon="-5.015267">
        <ele>1169.66</ele>
        <time>2021-03-27T17:24:49Z</time>
      </trkpt>
      <trkpt lat="40.312274" lon="-5.015224">
        <ele>1170.68</ele>
        <time>2021-03-27T17:24:51Z</time>
      </trkpt>
      <trkpt lat="40.313337" lon="-5.015207">
        <ele>1185.44</ele>
        <time>2021-03-27T17:24:53Z</time>
      </trkpt>
      <trkpt lat="40.31349" lon="-5.015182">
        <ele>1184.21</ele>
        <time>2021-03-27T17:24:55Z</time>
      </trkpt>
      <trkpt lat="40.313705" lon="-5.015093">
        <ele>1183.84</ele>
        <time>2021-03-27T17:24:57Z</time>
      </trkpt>
      <trkpt lat="40.314085" lon="-5.014667">
        <ele>1182.25</ele>
        <time>2021-03-27T17:24:59Z</time>
      </trkpt>
      <trkpt lat="40.314287" lon="-5.014566">
        <ele>1181.12</ele>
        <time>2021-03-27T17:25:01Z</time>
      </trkpt>
      <trkpt lat="40.314441" lon="-5.014519">
        <ele>1177.42</ele>
        <time>2021-03-27T17:25:03Z</time>
      </trkpt>
      <trkpt lat="40.315787" lon="-5.014429">
        <ele>1199.62</ele>
        <time>2021-03-27T17:25:05Z</time>
      </trkpt>
      <trkpt lat="40.316165" lon="-5.014375">
        <ele>1204.03</ele>
        <time>2021-03-27T17:25:07Z</time>
      </trkpt>
      <trkpt lat="40.316278" lon="-5.014309">
        <ele>1204.24</ele>
        <time>2021-03-27T17:25:09Z</time>
      </trkpt>
      <trkpt lat="40.316366" lon="-5.014192">
        <ele>1201.59</ele>
        <time>2021-03-27T17:25:12Z</time>
      </trkpt>
      <trkpt lat="40.31641" lon="-5.014048">
        <ele>1201.07</ele>
        <time>2021-03-27T17:25:14Z</time>
      </trkpt>
      <trkpt lat="40.316425" lon="-5.013878">
        <ele>1201.05</ele>
        <time>2021-03-27T17:25:16Z</time>
      </trkpt>
      <trkpt lat="40.316399" lon="-5.013642">
        <ele>1203.77</ele>
        <time>2021-03-27T17:25:18Z</time>
      </trkpt>
      <trkpt lat="40.316354" lon="-5.013537">
        <ele>1204.29</ele>
        <time>2021-03-27T17:25:20Z</time>
      </trkpt>
      <trkpt lat="40.316096" lon="-5.013134">
        <ele>1203.16</ele>
        <time>2021-03-27T17:25:22Z</time>
      </trkpt>
      <trkpt lat="40.316001" lon="-5.013055">
        <ele>1201.85</ele>
        <time>2021-03-27T17:25:24Z</time>
      </trkpt>
      <trkpt lat="40.315572" lon="-5.01291">
        <ele>1196.59</ele>
        <time>2021-03-27T17:25:26Z</time>
      </trkpt>
      <trkpt lat="40.31531" lon="-5.012768">
        <ele>1197.98</ele>
        <time>2021-03-27T17:25:28Z</time>
      </trkpt>
      <trkpt lat="40.314142" lon="-5.011822">
        <ele>1209.61</ele>
        <time>2021-03-27T17:25:30Z</time>
      </trkpt>
      <trkpt lat="40.313941" lon="-5.011672">
        <ele>1208.77</ele>
        <time>2021-03-27T17:25:32Z</time>
      </trkpt>
      <trkpt lat="40.3134" lon="-5.011333">
        <ele>1210.69</ele>
        <time>2021-03-27T17:25:34Z</time>
      </trkpt>
      <trkpt lat="40.31318" lon="-5.01115">
        <ele>1211.02</ele>
        <time>2021-03-27T17:25:36Z</time>
      </trkpt>
      <trkpt lat="40.313087" lon="-5.011033">
        <ele>1211.51</ele>
        <time>2021-03-27T17:25:38Z</time>
      </trkpt>
      <trkpt lat="40.313013" lon="-5.010902">
        <ele>1212.41</ele>
        <time>2021-03-27T17:25:40Z</time>
      </trkpt>
      <trkpt lat="40.312935" lon="-5.010625">
        <ele>1215.39</ele>
        <time>2021-03-27T17:25:42Z</time>
      </trkpt>
      <trkpt lat="40.312926" lon="-5.010429">
        <ele>1216.87</ele>
        <time>2021-03-27T17:25:44Z</time>
      </trkpt>
      <trkpt lat="40.312954" lon="-5.010247">
        <ele>1218.42</ele>
        <time>2021-03-27T17:25:46Z</time>
      </trkpt>
      <trkpt lat="40.313317" lon="-5.008888">
        <ele>1231.11</ele>
        <time>2021-03-27T17:25:48Z</time>
      </trkpt>
      <trkpt lat="40.313357" lon="-5.008687">
        <ele>1233.18</ele>
        <time>2021-03-27T17:25:50Z</time>
      </trkpt>
      <trkpt lat="40.313344" lon="-5.008459">
        <ele>1235.23</ele>
        <time>2021-03-27T17:25:52Z</time>
      </trkpt>
      <trkpt lat="40.313307" lon="-5.008325">
        <ele>1235.73</ele>
        <time>2021-03-27T17:25:55Z</time>
      </trkpt>
      <trkpt lat="40.313238" lon="-5.008173">
        <ele>1236.14</ele>
        <time>2021-03-27T17:25:57Z</time>
      </trkpt>
      <trkpt lat="40.312977" lon="-5.007789">
        <ele>1235.62</ele>
        <time>2021-03-27T17:25:59Z</time>
      </trkpt>
      <trkpt lat="40.312714" lon="-5.007502">
        <ele>1237.53</ele>
        <time>2021-03-27T17:26:01Z</time>
      </trkpt>
      <trkpt lat="40.312533" lon="-5.007363">
        <ele>1239.77</ele>
        <time>2021-03-27T17:26:03Z</time>
      </trkpt>
      <trkpt lat="40.312275" lon="-5.0072">
        <ele>1239.26</ele>
        <time>2021-03-27T17:26:05Z</time>
      </trkpt>
      <trkpt lat="40.31178" lon="-5.006909">
        <ele>1239.96</ele>
        <time>2021-03-27T17:26:07Z</time>
      </trkpt>
      <trkpt lat="40.311307" lon="-5.006746">
        <ele>1247.92</ele>
        <time>2021-03-27T17:26:09Z</time>
      </trkpt>
      <trkpt lat="40.311183" lon="-5.006686">
        <ele>1250.27</ele>
        <time>2021-03-27T17:26:11Z</time>
      </trkpt>
      <trkpt lat="40.310521" lon="-5.006079">
        <ele>1253.21</ele>
        <time>2021-03-27T17:26:13Z</time>
      </trkpt>
      <trkpt lat="40.309901" lon="-5.005287">
        <ele>1264.76</ele>
        <time>2021-03-27T17:26:15Z</time>
      </trkpt>
      <trkpt lat="40.309759" lon="-5.005147">
        <ele>1266.3</ele>
        <time>2021-03-27T17:26:17Z</time>
      </trkpt>
      <trkpt lat="40.309493" lon="-5.004941">
        <ele>1267.47</ele>
        <time>2021-03-27T17:26:19Z</time>
      </trkpt>
      <trkpt lat="40.309286" lon="-5.004816">
        <ele>1268.44</ele>
        <time>2021-03-27T17:26:21Z</time>
      </trkpt>
      <trkpt lat="40.308838" lon="-5.004621">
        <ele>1273.08</ele>
        <time>2021-03-27T17:26:23Z</time>
      </trkpt>
      <trkpt lat="40.308771" lon="-5.004523">
        <ele>1275.52</ele>
        <time>2021-03-27T17:26:25Z</time>
      </trkpt>
      <trkpt lat="40.308742" lon="-5.004372">
        <ele>1279.68</ele>
        <time>2021-03-27T17:26:27Z</time>
      </trkpt>
      <trkpt lat="40.308751" lon="-5.004301">
        <ele>1281.34</ele>
        <time>2021-03-27T17:26:29Z</time>
      </trkpt>
      <trkpt lat="40.308823" lon="-5.004156">
        <ele>1284.96</ele>
        <time>2021-03-27T17:26:31Z</time>
      </trkpt>
      <trkpt lat="40.308888" lon="-5.0041">
        <ele>1285.96</ele>
        <time>2021-03-27T17:26:33Z</time>
      </trkpt>
      <trkpt lat="40.308944" lon="-5.00408">
        <ele>1286.64</ele>
        <time>2021-03-27T17:26:35Z</time>
      </trkpt>
      <trkpt lat="40.309003" lon="-5.004087">
        <ele>1286.97</ele>
        <time>2021-03-27T17:26:38Z</time>
      </trkpt>
      <trkpt lat="40.309084" lon="-5.004128">
        <ele>1286.96</ele>
        <time>2021-03-27T17:26:40Z</time>
      </trkpt>
      <trkpt lat="40.309467" lon="-5.004607">
        <ele>1279.53</ele>
        <time>2021-03-27T17:26:42Z</time>
      </trkpt>
      <trkpt lat="40.309649" lon="-5.00476">
        <ele>1277.36</ele>
        <time>2021-03-27T17:26:44Z</time>
      </trkpt>
      <trkpt lat="40.310154" lon="-5.005075">
        <ele>1281.36</ele>
        <time>2021-03-27T17:26:46Z</time>
      </trkpt>
      <trkpt lat="40.310691" lon="-5.005509">
        <ele>1284.05</ele>
        <time>2021-03-27T17:26:48Z</time>
      </trkpt>
      <trkpt lat="40.310861" lon="-5.00559">
        <ele>1284.34</ele>
        <time>2021-03-27T17:26:50Z</time>
      </trkpt>
      <trkpt lat="40.311041" lon="-5.00564">
        <ele>1285.27</ele>
        <time>2021-03-27T17:26:52Z</time>
      </trkpt>
      <trkpt lat="40.312123" lon="-5.005872">
        <ele>1295.95</ele>
        <time>2021-03-27T17:26:54Z</time>
      </trkpt>
      <trkpt lat="40.312251" lon="-5.005918">
        <ele>1299.22</ele>
        <time>2021-03-27T17:26:56Z</time>
      </trkpt>
      <trkpt lat="40.313571" lon="-5.006779">
        <ele>1312.16</ele>
        <time>2021-03-27T17:26:58Z</time>
      </trkpt>
      <trkpt lat="40.313781" lon="-5.00685">
        <ele>1317.15</ele>
        <time>2021-03-27T17:27:00Z</time>
      </trkpt>
      <trkpt lat="40.314168" lon="-5.0069">
        <ele>1325.1</ele>
        <time>2021-03-27T17:27:02Z</time>
      </trkpt>
      <trkpt lat="40.314304" lon="-5.006934">
        <ele>1324.94</ele>
        <time>2021-03-27T17:27:04Z</time>
      </trkpt>
      <trkpt lat="40.314537" lon="-5.007067">
        <ele>1320.71</ele>
        <time>2021-03-27T17:27:06Z</time>
      </trkpt>
      <trkpt lat="40.314623" lon="-5.007149">
        <ele>1319.21</ele>
        <time>2021-03-27T17:27:08Z</time>
      </trkpt>
      <trkpt lat="40.31468" lon="-5.007232">
        <ele>1318.47</ele>
        <time>2021-03-27T17:27:10Z</time>
      </trkpt>
      <trkpt lat="40.314773" lon="-5.007389">
        <ele>1320.17</ele>
        <time>2021-03-27T17:27:12Z</time>
      </trkpt>
      <trkpt lat="40.314843" lon="-5.007574">
        <ele>1321.74</ele>
        <time>2021-03-27T17:27:14Z</time>
      </trkpt>
      <trkpt lat="40.314892" lon="-5.007791">
        <ele>1323.9</ele>
        <time>2021-03-27T17:27:16Z</time>
      </trkpt>
      <trkpt lat="40.315004" lon="-5.008546">
        <ele>1329.68</ele>
        <time>2021-03-27T17:27:18Z</time>
      </trkpt>
      <trkpt lat="40.315107" lon="-5.008888">
        <ele>1329.64</ele>
        <time>2021-03-27T17:27:21Z</time>
      </trkpt>
      <trkpt lat="40.31518" lon="-5.009018">
        <ele>1330.01</ele>
        <time>2021-03-27T17:27:23Z</time>
      </trkpt>
      <trkpt lat="40.315394" lon="-5.009275">
        <ele>1330.72</ele>
        <time>2021-03-27T17:27:25Z</time>
      </trkpt>
      <trkpt lat="40.315577" lon="-5.00938">
        <ele>1332.67</ele>
        <time>2021-03-27T17:27:27Z</time>
      </trkpt>
      <trkpt lat="40.316823" lon="-5.009924">
        <ele>1343.13</ele>
        <time>2021-03-27T17:27:29Z</time>
      </trkpt>
      <trkpt lat="40.317343" lon="-5.010233">
        <ele>1350.86</ele>
        <time>2021-03-27T17:27:31Z</time>
      </trkpt>
      <trkpt lat="40.317604" lon="-5.010343">
        <ele>1352.11</ele>
        <time>2021-03-27T17:27:33Z</time>
      </trkpt>
      <trkpt lat="40.317918" lon="-5.010443">
        <ele>1352.4</ele>
        <time>2021-03-27T17:27:35Z</time>
      </trkpt>
      <trkpt lat="40.318136" lon="-5.010442">
        <ele>1353.42</ele>
        <time>2021-03-27T17:27:37Z</time>
      </trkpt>
      <trkpt lat="40.318315" lon="-5.010404">
        <ele>1354.19</ele>
        <time>2021-03-27T17:27:39Z</time>
      </trkpt>
      <trkpt lat="40.318504" lon="-5.010297">
        <ele>1356.01</ele>
        <time>2021-03-27T17:27:41Z</time>
      </trkpt>
      <trkpt lat="40.318905" lon="-5.009987">
        <ele>1357.12</ele>
        <time>2021-03-27T17:27:43Z</time>
      </trkpt>
      <trkpt lat="40.319018" lon="-5.009942">
        <ele>1357.58</ele>
        <time>2021-03-27T17:27:45Z</time>
      </trkpt>
      <trkpt lat="40.319263" lon="-5.009922">
        <ele>1358.48</ele>
        <time>2021-03-27T17:27:47Z</time>
      </trkpt>
      <trkpt lat="40.319503" lon="-5.009979">
        <ele>1359.39</ele>
        <time>2021-03-27T17:27:49Z</time>
      </trkpt>
      <trkpt lat="40.320514" lon="-5.010659">
        <ele>1381.03</ele>
        <time>2021-03-27T17:27:51Z</time>
      </trkpt>
      <trkpt lat="40.320603" lon="-5.010732">
        <ele>1382.42</ele>
        <time>2021-03-27T17:27:53Z</time>
      </trkpt>
      <trkpt lat="40.320667" lon="-5.010828">
        <ele>1382.56</ele>
        <time>2021-03-27T17:27:55Z</time>
      </trkpt>
      <trkpt lat="40.320715" lon="-5.010975">
        <ele>1384.38</ele>
        <time>2021-03-27T17:27:57Z</time>
      </trkpt>
      <trkpt lat="40.320704" lon="-5.011099">
        <ele>1383.97</ele>
        <time>2021-03-27T17:27:59Z</time>
      </trkpt>
      <trkpt lat="40.320608" lon="-5.011447">
        <ele>1381.87</ele>
        <time>2021-03-27T17:28:01Z</time>
      </trkpt>
      <trkpt lat="40.320602" lon="-5.01153">
        <ele>1380.74</ele>
        <time>2021-03-27T17:28:04Z</time>
      </trkpt>
      <trkpt lat="40.320653" lon="-5.011773">
        <ele>1380.09</ele>
        <time>2021-03-27T17:28:06Z</time>
      </trkpt>
      <trkpt lat="40.32101" lon="-5.012362">
        <ele>1383.45</ele>
        <time>2021-03-27T17:28:08Z</time>
      </trkpt>
      <trkpt lat="40.321358" lon="-5.012846">
        <ele>1387.24</ele>
        <time>2021-03-27T17:28:10Z</time>
      </trkpt>
      <trkpt lat="40.321541" lon="-5.013036">
        <ele>1389.04</ele>
        <time>2021-03-27T17:28:12Z</time>
      </trkpt>
      <trkpt lat="40.321996" lon="-5.013798">
        <ele>1389.15</ele>
        <time>2021-03-27T17:28:14Z</time>
      </trkpt>
      <trkpt lat="40.322095" lon="-5.013924">
        <ele>1389.31</ele>
        <time>2021-03-27T17:28:16Z</time>
      </trkpt>
      <trkpt lat="40.322199" lon="-5.014004">
        <ele>1389.53</ele>
        <time>2021-03-27T17:28:18Z</time>
      </trkpt>
      <trkpt lat="40.32239" lon="-5.014074">
        <ele>1389.0</ele>
        <time>2021-03-27T17:28:20Z</time>
      </trkpt>
      <trkpt lat="40.322776" lon="-5.014166">
        <ele>1388.01</ele>
        <time>2021-03-27T17:28:22Z</time>
      </trkpt>
      <trkpt lat="40.323265" lon="-5.014033">
        <ele>1384.52</ele>
        <time>2021-03-27T17:28:24Z</time>
      </trkpt>
      <trkpt lat="40.32367" lon="-5.013896">
        <ele>1377.86</ele>
        <time>2021-03-27T17:28:26Z</time>
      </trkpt>
      <trkpt lat="40.323799" lon="-5.01379">
        <ele>1377.75</ele>
        <time>2021-03-27T17:28:28Z</time>
      </trkpt>
      <trkpt lat="40.324046" lon="-5.013521">
        <ele>1380.56</ele>
        <time>2021-03-27T17:28:30Z</time>
      </trkpt>
      <trkpt lat="40.324177" lon="-5.013435">
        <ele>1381.25</ele>
        <time>2021-03-27T17:28:32Z</time>
      </trkpt>
      <trkpt lat="40.324334" lon="-5.01337">
        <ele>1380.07</ele>
        <time>2021-03-27T17:28:34Z</time>
      </trkpt>
      <trkpt lat="40.324743" lon="-5.013306">
        <ele>1375.56</ele>
        <time>2021-03-27T17:28:36Z</time>
      </trkpt>
      <trkpt lat="40.325099" lon="-5.013355">
        <ele>1369.66</ele>
        <time>2021-03-27T17:28:38Z</time>
      </trkpt>
      <trkpt lat="40.325198" lon="-5.013351">
        <ele>1367.99</ele>
        <time>2021-03-27T17:28:40Z</time>
      </trkpt>
      <trkpt lat="40.32531" lon="-5.013332">
        <ele>1366.23</ele>
        <time>2021-03-27T17:28:42Z</time>
      </trkpt>
      <trkpt lat="40.325453" lon="-5.013248">
        <ele>1364.74</ele>
        <time>2021-03-27T17:28:44Z</time>
      </trkpt>
      <trkpt lat="40.325849" lon="-5.01281">
        <ele>1360.01</ele>
        <time>2021-03-27T17:28:47Z</time>
      </trkpt>
      <trkpt lat="40.325928" lon="-5.012685">
        <ele>1359.49</ele>
        <time>2021-03-27T17:28:49Z</time>
      </trkpt>
      <trkpt lat="40.326066" lon="-5.012342">
        <ele>1356.53</ele>
        <time>2021-03-27T17:28:51Z</time>
      </trkpt>
      <trkpt lat="40.326206" lon="-5.01214">
        <ele>1353.73</ele>
        <time>2021-03-27T17:28:53Z</time>
      </trkpt>
      <trkpt lat="40.326315" lon="-5.012063">
        <ele>1351.3</ele>
        <time>2021-03-27T17:28:55Z</time>
      </trkpt>
      <trkpt lat="40.326513" lon="-5.011967">
        <ele>1349.31</ele>
        <time>2021-03-27T17:28:57Z</time>
      </trkpt>
      <trkpt lat="40.326633" lon="-5.011947">
        <ele>1349.09</ele>
        <time>2021-03-27T17:28:59Z</time>
      </trkpt>
      <trkpt lat="40.326847" lon="-5.011965">
        <ele>1349.97</ele>
        <time>2021-03-27T17:29:01Z</time>
      </trkpt>
      <trkpt lat="40.326957" lon="-5.011944">
        <ele>1350.82</ele>
        <time>2021-03-27T17:29:03Z</time>
      </trkpt>
      <trkpt lat="40.327064" lon="-5.011892">
        <ele>1350.34</ele>
        <time>2021-03-27T17:29:05Z</time>
      </trkpt>
      <trkpt lat="40.327227" lon="-5.01175">
        <ele>1350.36</ele>
        <time>2021-03-27T17:29:07Z</time>
      </trkpt>
      <trkpt lat="40.327303" lon="-5.011621">
        <ele>1350.1</ele>
        <time>2021-03-27T17:29:09Z</time>
      </trkpt>
      <trkpt lat="40.327661" lon="-5.010565">
        <ele>1347.3</ele>
        <time>2021-03-27T17:29:11Z</time>
      </trkpt>
      <trkpt lat="40.327725" lon="-5.010441">
        <ele>1348.43</ele>
        <time>2021-03-27T17:29:13Z</time>
      </trkpt>
      <trkpt lat="40.327793" lon="-5.01036">
        <ele>1349.4</ele>
        <time>2021-03-27T17:29:15Z</time>
      </trkpt>
      <trkpt lat="40.327874" lon="-5.010298">
        <ele>1349.74</ele>
        <time>2021-03-27T17:29:17Z</time>
      </trkpt>
      <trkpt lat="40.328137" lon="-5.010241">
        <ele>1346.85</ele>
        <time>2021-03-27T17:29:19Z</time>
      </trkpt>
      <trkpt lat="40.328415" lon="-5.010255">
        <ele>1342.96</ele>
        <time>2021-03-27T17:29:21Z</time>
      </trkpt>
      <trkpt lat="40.328562" lon="-5.01031">
        <ele>1340.74</ele>
        <time>2021-03-27T17:29:23Z</time>
      </trkpt>
      <trkpt lat="40.328668" lon="-5.010376">
        <ele>1339.64</ele>
        <time>2021-03-27T17:29:25Z</time>
      </trkpt>
      <trkpt lat="40.328817" lon="-5.010506">
        <ele>1338.37</ele>
        <time>2021-03-27T17:29:28Z</time>
      </trkpt>
      <trkpt lat="40.329118" lon="-5.010833">
        <ele>1335.49</ele>
        <time>2021-03-27T17:29:30Z</time>
      </trkpt>
      <trkpt lat="40.329475" lon="-5.01108">
        <ele>1332.2</ele>
        <time>2021-03-27T17:29:32Z</time>
      </trkpt>
      <trkpt lat="40.329735" lon="-5.011298">
        <ele>1329.09</ele>
        <time>2021-03-27T17:29:34Z</time>
      </trkpt>
      <trkpt lat="40.330373" lon="-5.011889">
        <ele>1321.96</ele>
        <time>2021-03-27T17:29:36Z</time>
      </trkpt>
      <trkpt lat="40.330637" lon="-5.012103">
        <ele>1320.43</ele>
        <time>2021-03-27T17:29:38Z</time>
      </trkpt>
      <trkpt lat="40.331362" lon="-5.012559">
        <ele>1313.94</ele>
        <time>2021-03-27T17:29:40Z</time>
      </trkpt>
      <trkpt lat="40.331491" lon="-5.01261">
        <ele>1311.53</ele>
        <time>2021-03-27T17:29:42Z</time>
      </trkpt>
      <trkpt lat="40.333879" lon="-5.012848">
        <ele>1302.22</ele>
        <time>2021-03-27T17:29:44Z</time>
      </trkpt>
      <trkpt lat="40.334034" lon="-5.012834">
        <ele>1302.29</ele>
        <time>2021-03-27T17:29:46Z</time>
      </trkpt>
      <trkpt lat="40.334187" lon="-5.012781">
        <ele>1302.88</ele>
        <time>2021-03-27T17:29:48Z</time>
      </trkpt>
      <trkpt lat="40.334479" lon="-5.01264">
        <ele>1303.74</ele>
        <time>2021-03-27T17:29:50Z</time>
      </trkpt>
      <trkpt lat="40.334621" lon="-5.012595">
        <ele>1303.35</ele>
        <time>2021-03-27T17:29:52Z</time>
      </trkpt>
      <trkpt lat="40.33479" lon="-5.012581">
        <ele>1302.67</ele>
        <time>2021-03-27T17:29:54Z</time>
      </trkpt>
      <trkpt lat="40.335268" lon="-5.012659">
        <ele>1300.73</ele>
        <time>2021-03-27T17:29:56Z</time>
      </trkpt>
      <trkpt lat="40.335644" lon="-5.012756">
        <ele>1299.26</ele>
        <time>2021-03-27T17:29:58Z</time>
      </trkpt>
      <trkpt lat="40.335792" lon="-5.012857">
        <ele>1298.1</ele>
        <time>2021-03-27T17:30:00Z</time>
      </trkpt>
      <trkpt lat="40.336191" lon="-5.013246">
        <ele>1294.03</ele>
        <time>2021-03-27T17:30:02Z</time>
      </trkpt>
      <trkpt lat="40.336394" lon="-5.013326">
        <ele>1293.03</ele>
        <time>2021-03-27T17:30:04Z</time>
      </trkpt>
      <trkpt lat="40.336662" lon="-5.013253">
        <ele>1290.78</ele>
        <time>2021-03-27T17:30:06Z</time>
      </trkpt>
      <trkpt lat="40.337076" lon="-5.013036">
        <ele>1291.96</ele>
        <time>2021-03-27T17:30:08Z</time>
      </trkpt>
      <trkpt lat="40.337248" lon="-5.012983">
        <ele>1292.27</ele>
        <time>2021-03-27T17:30:11Z</time>
      </trkpt>
      <trkpt lat="40.337394" lon="-5.012961">
        <ele>1290.96</ele>
        <time>2021-03-27T17:30:13Z</time>
      </trkpt>
      <trkpt lat="40.337587" lon="-5.012973">
        <ele>1289.48</ele>
        <time>2021-03-27T17:30:15Z</time>
      </trkpt>
      <trkpt lat="40.337944" lon="-5.013075">
        <ele>1288.49</ele>
        <time>2021-03-27T17:30:17Z</time>
      </trkpt>
      <trkpt lat="40.338374" lon="-5.01334">
        <ele>1284.97</ele>
        <time>2021-03-27T17:30:19Z</time>
      </trkpt>
      <trkpt lat="40.338665" lon="-5.013576">
        <ele>1283.2</ele>
        <time>2021-03-27T17:30:21Z</time>
      </trkpt>
      <trkpt lat="40.339476" lon="-5.014392">
        <ele>1278.27</ele>
        <time>2021-03-27T17:30:23Z</time>
      </trkpt>
      <trkpt lat="40.33962" lon="-5.014505">
        <ele>1277.15</ele>
        <time>2021-03-27T17:30:25Z</time>
      </trkpt>
      <trkpt lat="40.33976" lon="-5.014593">
        <ele>1276.46</ele>
        <time>2021-03-27T17:30:27Z</time>
      </trkpt>
      <trkpt lat="40.340161" lon="-5.014721">
        <ele>1277.16</ele>
        <time>2021-03-27T17:30:29Z</time>
      </trkpt>
      <trkpt lat="40.340407" lon="-5.014739">
        <ele>1277.71</ele>
        <time>2021-03-27T17:30:31Z</time>
      </trkpt>
      <trkpt lat="40.344433" lon="-5.014395">
        <ele>1268.61</ele>
        <time>2021-03-27T17:30:33Z</time>
      </trkpt>
      <trkpt lat="40.344841" lon="-5.014465">
        <ele>1266.37</ele>
        <time>2021-03-27T17:30:35Z</time>
      </trkpt>
      <trkpt lat="40.34704" lon="-5.014939">
        <ele>1259.21</ele>
        <time>2021-03-27T17:30:37Z</time>
      </trkpt>
      <trkpt lat="40.347294" lon="-5.014948">
        <ele>1258.72</ele>
        <time>2021-03-27T17:30:39Z</time>
      </trkpt>
      <trkpt lat="40.349058" lon="-5.014696">
        <ele>1259.1</ele>
        <time>2021-03-27T17:30:41Z</time>
      </trkpt>
      <trkpt lat="40.349482" lon="-5.014622">
        <ele>1262.28</ele>
        <time>2021-03-27T17:30:43Z</time>
      </trkpt>
      <trkpt lat="40.350252" lon="-5.014448">
        <ele>1263.03</ele>
        <time>2021-03-27T17:30:45Z</time>
      </trkpt>
      <trkpt lat="40.350429" lon="-5.014426">
        <ele>1263.47</ele>
        <time>2021-03-27T17:30:47Z</time>
      </trkpt>
      <trkpt lat="40.350621" lon="-5.014443">
        <ele>1263.52</ele>
        <time>2021-03-27T17:30:49Z</time>
      </trkpt>
      <trkpt lat="40.350854" lon="-5.014509">
        <ele>1261.8</ele>
        <time>2021-03-27T17:30:51Z</time>
      </trkpt>
      <trkpt lat="40.351928" lon="-5.015026">
        <ele>1250.46</ele>
        <time>2021-03-27T17:30:54Z</time>
      </trkpt>
      <trkpt lat="40.352184" lon="-5.015201">
        <ele>1248.72</ele>
        <time>2021-03-27T17:30:56Z</time>
      </trkpt>
      <trkpt lat="40.352785" lon="-5.015773">
        <ele>1248.96</ele>
        <time>2021-03-27T17:30:58Z</time>
      </trkpt>
      <trkpt lat="40.352893" lon="-5.015828">
        <ele>1248.58</ele>
        <time>2021-03-27T17:31:00Z</time>
      </trkpt>
      <trkpt lat="40.353217" lon="-5.015908">
        <ele>1247.15</ele>
        <time>2021-03-27T17:31:02Z</time>
      </trkpt>
      <trkpt lat="40.354383" lon="-5.01588">
        <ele>1245.65</ele>
        <time>2021-03-27T17:31:04Z</time>
      </trkpt>
      <trkpt lat="40.35529" lon="-5.015805">
        <ele>1244.79</ele>
        <time>2021-03-27T17:31:06Z</time>
      </trkpt>
      <trkpt lat="40.35608" lon="-5.01553">
        <ele>1244.33</ele>
        <time>2021-03-27T17:31:08Z</time>
      </trkpt>
      <trkpt lat="40.356956" lon="-5.01519">
        <ele>1243.8</ele>
        <time>2021-03-27T17:31:10Z</time>
      </trkpt>
      <trkpt lat="40.357313" lon="-5.015114">
        <ele>1243.13</ele>
        <time>2021-03-27T17:31:12Z</time>
      </trkpt>
      <trkpt lat="40.357517" lon="-5.015122">
        <ele>1242.53</ele>
        <time>2021-03-27T17:31:14Z</time>
      </trkpt>
      <trkpt lat="40.359636" lon="-5.015653">
        <ele>1237.42</ele>
        <time>2021-03-27T17:31:16Z</time>
      </trkpt>
      <trkpt lat="40.359848" lon="-5.015669">
        <ele>1238.59</ele>
        <time>2021-03-27T17:31:18Z</time>
      </trkpt>
      <trkpt lat="40.36028" lon="-5.015579">
        <ele>1237.44</ele>
        <time>2021-03-27T17:31:20Z</time>
      </trkpt>
      <trkpt lat="40.361437" lon="-5.015274">
        <ele>1234.95</ele>
        <time>2021-03-27T17:31:22Z</time>
      </trkpt>
      <trkpt lat="40.361632" lon="-5.015245">
        <ele>1234.52</ele>
        <time>2021-03-27T17:31:24Z</time>
      </trkpt>
      <trkpt lat="40.363906" lon="-5.015605">
        <ele>1233.13</ele>
        <time>2021-03-27T17:31:26Z</time>
      </trkpt>
      <trkpt lat="40.364156" lon="-5.015608">
        <ele>1231.41</ele>
        <time>2021-03-27T17:31:28Z</time>
      </trkpt>
      <trkpt lat="40.364623" lon="-5.015564">
        <ele>1229.66</ele>
        <time>2021-03-27T17:31:30Z</time>
      </trkpt>
      <trkpt lat="40.364925" lon="-5.015602">
        <ele>1230.44</ele>
        <time>2021-03-27T17:31:32Z</time>
      </trkpt>
      <trkpt lat="40.368845" lon="-5.016257">
        <ele>1223.33</ele>
        <time>2021-03-27T17:31:34Z</time>
      </trkpt>
      <trkpt lat="40.371349" lon="-5.016815">
        <ele>1224.78</ele>
        <time>2021-03-27T17:31:37Z</time>
      </trkpt>
      <trkpt lat="40.371754" lon="-5.016934">
        <ele>1227.23</ele>
        <time>2021-03-27T17:31:39Z</time>
      </trkpt>
      <trkpt lat="40.372255" lon="-5.017126">
        <ele>1229.16</ele>
        <time>2021-03-27T17:31:41Z</time>
      </trkpt>
      <trkpt lat="40.372593" lon="-5.017281">
        <ele>1229.27</ele>
        <time>2021-03-27T17:31:43Z</time>
      </trkpt>
      <trkpt lat="40.372776" lon="-5.017394">
        <ele>1227.03</ele>
        <time>2021-03-27T17:31:45Z</time>
      </trkpt>
      <trkpt lat="40.373254" lon="-5.01777">
        <ele>1226.69</ele>
        <time>2021-03-27T17:31:47Z</time>
      </trkpt>
      <trkpt lat="40.372817" lon="-5.018635">
        <ele>1232.52</ele>
        <time>2021-03-27T17:31:49Z</time>
      </trkpt>
      <trkpt lat="40.372732" lon="-5.018887">
        <ele>1232.5</ele>
        <time>2021-03-27T17:31:51Z</time>
      </trkpt>
      <trkpt lat="40.372675" lon="-5.019311">
        <ele>1233.74</ele>
        <time>2021-03-27T17:31:52Z</time>
      </trkpt>
      <trkpt lat="40.372673" lon="-5.019549">
        <ele>1234.86</ele>
        <time>2021-03-27T17:31:54Z</time>
      </trkpt>
      <trkpt lat="40.37272" lon="-5.019785">
        <ele>1236.4</ele>
        <time>2021-03-27T17:31:56Z</time>
      </trkpt>
      <trkpt lat="40.373515" lon="-5.022073">
        <ele>1247.12</ele>
        <time>2021-03-27T17:31:58Z</time>
      </trkpt>
      <trkpt lat="40.37358" lon="-5.022379">
        <ele>1248.88</ele>
        <time>2021-03-27T17:32:00Z</time>
      </trkpt>
      <trkpt lat="40.37361" lon="-5.022646">
        <ele>1251.04</ele>
        <time>2021-03-27T17:32:02Z</time>
      </trkpt>
      <trkpt lat="40.373568" lon="-5.02302">
        <ele>1252.28</ele>
        <time>2021-03-27T17:32:04Z</time>
      </trkpt>
      <trkpt lat="40.373084" lon="-5.024471">
        <ele>1254.32</ele>
        <time>2021-03-27T17:32:05Z</time>
      </trkpt>
      <trkpt lat="40.373063" lon="-5.024816">
        <ele>1253.47</ele>
        <time>2021-03-27T17:32:07Z</time>
      </trkpt>
      <trkpt lat="40.373043" lon="-5.026807">
        <ele>1259.83</ele>
        <time>2021-03-27T17:32:09Z</time>
      </trkpt>
      <trkpt lat="40.373116" lon="-5.027681">
        <ele>1263.02</ele>
        <time>2021-03-27T17:32:11Z</time>
      </trkpt>
      <trkpt lat="40.373078" lon="-5.028016">
        <ele>1265.93</ele>
        <time>2021-03-27T17:32:13Z</time>
      </trkpt>
      <trkpt lat="40.37279" lon="-5.028985">
        <ele>1266.32</ele>
        <time>2021-03-27T17:32:15Z</time>
      </trkpt>
      <trkpt lat="40.372705" lon="-5.030077">
        <ele>1269.66</ele>
        <time>2021-03-27T17:32:17Z</time>
      </trkpt>
      <trkpt lat="40.372565" lon="-5.030745">
        <ele>1270.61</ele>
        <time>2021-03-27T17:32:19Z</time>
      </trkpt>
      <trkpt lat="40.372183" lon="-5.032122">
        <ele>1276.65</ele>
        <time>2021-03-27T17:32:20Z</time>
      </trkpt>
      <trkpt lat="40.372121" lon="-5.032501">
        <ele>1278.73</ele>
        <time>2021-03-27T17:32:22Z</time>
      </trkpt>
      <trkpt lat="40.372095" lon="-5.033295">
        <ele>1278.15</ele>
        <time>2021-03-27T17:32:24Z</time>
      </trkpt>
      <trkpt lat="40.372034" lon="-5.033662">
        <ele>1281.14</ele>
        <time>2021-03-27T17:32:26Z</time>
      </trkpt>
      <trkpt lat="40.371948" lon="-5.033913">
        <ele>1281.45</ele>
        <time>2021-03-27T17:32:28Z</time>
      </trkpt>
      <trkpt lat="40.371727" lon="-5.034407">
        <ele>1282.74</ele>
        <time>2021-03-27T17:32:30Z</time>
      </trkpt>
      <trkpt lat="40.37162" lon="-5.034833">
        <ele>1284.11</ele>
        <time>2021-03-27T17:32:32Z</time>
      </trkpt>
      <trkpt lat="40.371395" lon="-5.037138">
        <ele>1287.33</ele>
        <time>2021-03-27T17:32:33Z</time>
      </trkpt>
      <trkpt lat="40.371418" lon="-5.037595">
        <ele>1290.79</ele>
        <time>2021-03-27T17:32:35Z</time>
      </trkpt>
      <trkpt lat="40.371507" lon="-5.038464">
        <ele>1299.07</ele>
        <time>2021-03-27T17:32:37Z</time>
      </trkpt>
      <trkpt lat="40.371502" lon="-5.038617">
        <ele>1299.52</ele>
        <time>2021-03-27T17:32:39Z</time>
      </trkpt>
      <trkpt lat="40.371468" lon="-5.038763">
        <ele>1299.23</ele>
        <time>2021-03-27T17:32:41Z</time>
      </trkpt>
      <trkpt lat="40.371413" lon="-5.038904">
        <ele>1298.28</ele>
        <time>2021-03-27T17:32:43Z</time>
      </trkpt>
      <trkpt lat="40.37132" lon="-5.03903">
        <ele>1299.08</ele>
        <time>2021-03-27T17:32:45Z</time>
      </trkpt>
      <trkpt lat="40.371142" lon="-5.039136">
        <ele>1298.78</ele>
        <time>2021-03-27T17:32:46Z</time>
      </trkpt>
      <trkpt lat="40.370993" lon="-5.039144">
        <ele>1301.4</ele>
        <time>2021-03-27T17:32:48Z</time>
      </trkpt>
      <trkpt lat="40.37088" lon="-5.039102">
        <ele>1303.04</ele>
        <time>2021-03-27T17:32:50Z</time>
      </trkpt>
      <trkpt lat="40.370491" lon="-5.038797">
        <ele>1301.46</ele>
        <time>2021-03-27T17:32:52Z</time>
      </trkpt>
      <trkpt lat="40.370406" lon="-5.038764">
        <ele>1300.13</ele>
        <time>2021-03-27T17:32:54Z</time>
      </trkpt>
      <trkpt lat="40.370244" lon="-5.038784">
        <ele>1300.35</ele>
        <time>2021-03-27T17:32:56Z</time>
      </trkpt>
      <trkpt lat="40.370138" lon="-5.038831">
        <ele>1300.27</ele>
        <time>2021-03-27T17:32:58Z</time>
      </trkpt>
      <trkpt lat="40.37" lon="-5.038935">
        <ele>1301.66</ele>
        <time>2021-03-27T17:32:59Z</time>
      </trkpt>
      <trkpt lat="40.369747" lon="-5.039205">
        <ele>1302.77</ele>
        <time>2021-03-27T17:33:01Z</time>
      </trkpt>
      <trkpt lat="40.369688" lon="-5.039312">
        <ele>1303.5</ele>
        <time>2021-03-27T17:33:03Z</time>
      </trkpt>
      <trkpt lat="40.36964" lon="-5.039446">
        <ele>1305.07</ele>
        <time>2021-03-27T17:33:05Z</time>
      </trkpt>
      <trkpt lat="40.369611" lon="-5.039588">
        <ele>1306.7</ele>
        <time>2021-03-27T17:33:07Z</time>
      </trkpt>
      <trkpt lat="40.369512" lon="-5.040437">
        <ele>1310.31</ele>
        <time>2021-03-27T17:33:09Z</time>
      </trkpt>
      <trkpt lat="40.369519" lon="-5.040612">
        <ele>1311.3</ele>
        <time>2021-03-27T17:33:11Z</time>
      </trkpt>
      <trkpt lat="40.369558" lon="-5.040881">
        <ele>1312.7</ele>
        <time>2021-03-27T17:33:12Z</time>
      </trkpt>
      <trkpt lat="40.369723" lon="-5.041281">
        <ele>1314.8</ele>
        <time>2021-03-27T17:33:14Z</time>
      </trkpt>
      <trkpt lat="40.369755" lon="-5.041485">
        <ele>1314.59</ele>
        <time>2021-03-27T17:33:16Z</time>
      </trkpt>
      <trkpt lat="40.36972" lon="-5.041932">
        <ele>1312.93</ele>
        <time>2021-03-27T17:33:18Z</time>
      </trkpt>
      <trkpt lat="40.369646" lon="-5.0423">
        <ele>1316.24</ele>
        <time>2021-03-27T17:33:20Z</time>
      </trkpt>
      <trkpt lat="40.369497" lon="-5.042707">
        <ele>1315.3</ele>
        <time>2021-03-27T17:33:22Z</time>
      </trkpt>
      <trkpt lat="40.369346" lon="-5.042975">
        <ele>1314.06</ele>
        <time>2021-03-27T17:33:24Z</time>
      </trkpt>
      <trkpt lat="40.36919" lon="-5.043202">
        <ele>1314.75</ele>
        <time>2021-03-27T17:33:26Z</time>
      </trkpt>
      <trkpt lat="40.368974" lon="-5.043459">
        <ele>1315.9</ele>
        <time>2021-03-27T17:33:27Z</time>
      </trkpt>
      <trkpt lat="40.368715" lon="-5.04369">
        <ele>1316.86</ele>
        <time>2021-03-27T17:33:29Z</time>
      </trkpt>
      <trkpt lat="40.36842" lon="-5.043881">
        <ele>1317.01</ele>
        <time>2021-03-27T17:33:31Z</time>
      </trkpt>
      <trkpt lat="40.368149" lon="-5.04403">
        <ele>1314.39</ele>
        <time>2021-03-27T17:33:33Z</time>
      </trkpt>
      <trkpt lat="40.367942" lon="-5.044242">
        <ele>1314.08</ele>
        <time>2021-03-27T17:33:35Z</time>
      </trkpt>
      <trkpt lat="40.367846" lon="-5.04438">
        <ele>1313.71</ele>
        <time>2021-03-27T17:33:37Z</time>
      </trkpt>
      <trkpt lat="40.367744" lon="-5.044574">
        <ele>1313.75</ele>
        <time>2021-03-27T17:33:39Z</time>
      </trkpt>
      <trkpt lat="40.367659" lon="-5.044824">
        <ele>1315.73</ele>
        <time>2021-03-27T17:33:40Z</time>
      </trkpt>
      <trkpt lat="40.367616" lon="-5.045067">
        <ele>1317.36</ele>
        <time>2021-03-27T17:33:42Z</time>
      </trkpt>
      <trkpt lat="40.36761" lon="-5.045432">
        <ele>1317.58</ele>
        <time>2021-03-27T17:33:44Z</time>
      </trkpt>
      <trkpt lat="40.367636" lon="-5.045618">
        <ele>1317.63</ele>
        <time>2021-03-27T17:33:46Z</time>
      </trkpt>
      <trkpt lat="40.367709" lon="-5.045873">
        <ele>1317.05</ele>
        <time>2021-03-27T17:33:48Z</time>
      </trkpt>
      <trkpt lat="40.367878" lon="-5.046315">
        <ele>1316.97</ele>
        <time>2021-03-27T17:33:50Z</time>
      </trkpt>
      <trkpt lat="40.367986" lon="-5.046491">
        <ele>1317.27</ele>
        <time>2021-03-27T17:33:52Z</time>
      </trkpt>
      <trkpt lat="40.368228" lon="-5.046782">
        <ele>1318.07</ele>
        <time>2021-03-27T17:33:53Z</time>
      </trkpt>
      <trkpt lat="40.369315" lon="-5.047772">
        <ele>1322.2</ele>
        <time>2021-03-27T17:33:55Z</time>
      </trkpt>
      <trkpt lat="40.369497" lon="-5.047904">
        <ele>1322.27</ele>
        <time>2021-03-27T17:33:57Z</time>
      </trkpt>
      <trkpt lat="40.369652" lon="-5.047971">
        <ele>1323.06</ele>
        <time>2021-03-27T17:33:59Z</time>
      </trkpt>
      <trkpt lat="40.369806" lon="-5.048006">
        <ele>1323.78</ele>
        <time>2021-03-27T17:34:01Z</time>
      </trkpt>
      <trkpt lat="40.370298" lon="-5.048066">
        <ele>1324.68</ele>
        <time>2021-03-27T17:34:03Z</time>
      </trkpt>
      <trkpt lat="40.370527" lon="-5.048151">
        <ele>1322.41</ele>
        <time>2021-03-27T17:34:05Z</time>
      </trkpt>
      <trkpt lat="40.370777" lon="-5.048338">
        <ele>1323.37</ele>
        <time>2021-03-27T17:34:06Z</time>
      </trkpt>
      <trkpt lat="40.37096" lon="-5.048631">
        <ele>1324.85</ele>
        <time>2021-03-27T17:34:08Z</time>
      </trkpt>
      <trkpt lat="40.371079" lon="-5.04901">
        <ele>1327.85</ele>
        <time>2021-03-27T17:34:10Z</time>
      </trkpt>
      <trkpt lat="40.371097" lon="-5.049268">
        <ele>1328.76</ele>
        <time>2021-03-27T17:34:12Z</time>
      </trkpt>
      <trkpt lat="40.371054" lon="-5.049672">
        <ele>1328.34</ele>
        <time>2021-03-27T17:34:14Z</time>
      </trkpt>
      <trkpt lat="40.370932" lon="-5.050182">
        <ele>1333.46</ele>
        <time>2021-03-27T17:34:16Z</time>
      </trkpt>
      <trkpt lat="40.370875" lon="-5.050568">
        <ele>1337.34</ele>
        <time>2021-03-27T17:34:18Z</time>
      </trkpt>
      <trkpt lat="40.370867" lon="-5.050955">
        <ele>1338.63</ele>
        <time>2021-03-27T17:34:19Z</time>
      </trkpt>
      <trkpt lat="40.37096" lon="-5.051336">
        <ele>1338.28</ele>
        <time>2021-03-27T17:34:21Z</time>
      </trkpt>
      <trkpt lat="40.371129" lon="-5.051638">
        <ele>1336.4</ele>
        <time>2021-03-27T17:34:23Z</time>
      </trkpt>
      <trkpt lat="40.372063" lon="-5.052675">
        <ele>1339.43</ele>
        <time>2021-03-27T17:34:25Z</time>
      </trkpt>
      <trkpt lat="40.372318" lon="-5.052945">
        <ele>1341.29</ele>
        <time>2021-03-27T17:34:27Z</time>
      </trkpt>
      <trkpt lat="40.372827" lon="-5.052488">
        <ele>1343.56</ele>
        <time>2021-03-27T17:34:28Z</time>
      </trkpt>
      <trkpt lat="40.372981" lon="-5.052453">
        <ele>1345.11</ele>
        <time>2021-03-27T17:34:30Z</time>
      </trkpt>
      <trkpt lat="40.3736" lon="-5.05256">
        <ele>1349.18</ele>
        <time>2021-03-27T17:34:32Z</time>
      </trkpt>
      <trkpt lat="40.373859" lon="-5.052563">
        <ele>1350.81</ele>
        <time>2021-03-27T17:34:34Z</time>
      </trkpt>
      <trkpt lat="40.374077" lon="-5.05251">
        <ele>1353.04</ele>
        <time>2021-03-27T17:34:36Z</time>
      </trkpt>
      <trkpt lat="40.374263" lon="-5.052419">
        <ele>1355.47</ele>
        <time>2021-03-27T17:34:37Z</time>
      </trkpt>
      <trkpt lat="40.374552" lon="-5.052214">
        <ele>1358.14</ele>
        <time>2021-03-27T17:34:39Z</time>
      </trkpt>
      <trkpt lat="40.374678" lon="-5.052193">
        <ele>1359.34</ele>
        <time>2021-03-27T17:34:41Z</time>
      </trkpt>
      <trkpt lat="40.374783" lon="-5.052225">
        <ele>1360.44</ele>
        <time>2021-03-27T17:34:43Z</time>
      </trkpt>
      <trkpt lat="40.375019" lon="-5.05246">
        <ele>1363.92</ele>
        <time>2021-03-27T17:34:45Z</time>
      </trkpt>
      <trkpt lat="40.375205" lon="-5.052443">
        <ele>1365.81</ele>
        <time>2021-03-27T17:34:46Z</time>
      </trkpt>
      <trkpt lat="40.375346" lon="-5.052289">
        <ele>1366.17</ele>
        <time>2021-03-27T17:34:48Z</time>
      </trkpt>
      <trkpt lat="40.375647" lon="-5.051842">
        <ele>1366.62</ele>
        <time>2021-03-27T17:34:50Z</time>
      </trkpt>
      <trkpt lat="40.37577" lon="-5.051746">
        <ele>1367.6</ele>
        <time>2021-03-27T17:34:52Z</time>
      </trkpt>
      <trkpt lat="40.376027" lon="-5.051713">
        <ele>1369.68</ele>
        <time>2021-03-27T17:34:53Z</time>
      </trkpt>
      <trkpt lat="40.376198" lon="-5.05174">
        <ele>1371.46</ele>
        <time>2021-03-27T17:34:55Z</time>
      </trkpt>
      <trkpt lat="40.376297" lon="-5.051847">
        <ele>1373.31</ele>
        <time>2021-03-27T17:34:57Z</time>
      </trkpt>
      <trkpt lat="40.376636" lon="-5.052626">
        <ele>1376.21</ele>
        <time>2021-03-27T17:34:59Z</time>
      </trkpt>
      <trkpt lat="40.376697" lon="-5.052708">
        <ele>1376.69</ele>
        <time>2021-03-27T17:35:01Z</time>
      </trkpt>
      <trkpt lat="40.376771" lon="-5.052732">
        <ele>1377.67</ele>
        <time>2021-03-27T17:35:02Z</time>
      </trkpt>
      <trkpt lat="40.376847" lon="-5.052726">
        <ele>1378.79</ele>
        <time>2021-03-27T17:35:04Z</time>
      </trkpt>
      <trkpt lat="40.376921" lon="-5.05267">
        <ele>1380.05</ele>
        <time>2021-03-27T17:35:06Z</time>
      </trkpt>
      <trkpt lat="40.376968" lon="-5.052567">
        <ele>1381.28</ele>
        <time>2021-03-27T17:35:08Z</time>
      </trkpt>
      <trkpt lat="40.376989" lon="-5.052428">
        <ele>1382.45</ele>
        <time>2021-03-27T17:35:10Z</time>
      </trkpt>
      <trkpt lat="40.376922" lon="-5.052075">
        <ele>1383.61</ele>
        <time>2021-03-27T17:35:11Z</time>
      </trkpt>
      <trkpt lat="40.376926" lon="-5.051952">
        <ele>1384.56</ele>
        <time>2021-03-27T17:35:13Z</time>
      </trkpt>
      <trkpt lat="40.37695" lon="-5.051823">
        <ele>1384.65</ele>
        <time>2021-03-27T17:35:15Z</time>
      </trkpt>
      <trkpt lat="40.377023" lon="-5.051752">
        <ele>1385.65</ele>
        <time>2021-03-27T17:35:17Z</time>
      </trkpt>
      <trkpt lat="40.377108" lon="-5.051717">
        <ele>1387.02</ele>
        <time>2021-03-27T17:35:19Z</time>
      </trkpt>
      <trkpt lat="40.377202" lon="-5.051759">
        <ele>1388.67</ele>
        <time>2021-03-27T17:35:20Z</time>
      </trkpt>
      <trkpt lat="40.377296" lon="-5.051883">
        <ele>1391.07</ele>
        <time>2021-03-27T17:35:22Z</time>
      </trkpt>
      <trkpt lat="40.377299" lon="-5.052267">
        <ele>1390.04</ele>
        <time>2021-03-27T17:35:24Z</time>
      </trkpt>
      <trkpt lat="40.377329" lon="-5.052443">
        <ele>1390.3</ele>
        <time>2021-03-27T17:35:26Z</time>
      </trkpt>
      <trkpt lat="40.377996" lon="-5.053937">
        <ele>1395.23</ele>
        <time>2021-03-27T17:35:27Z</time>
      </trkpt>
      <trkpt lat="40.37808" lon="-5.054014">
        <ele>1395.98</ele>
        <time>2021-03-27T17:35:29Z</time>
      </trkpt>
      <trkpt lat="40.378163" lon="-5.054054">
        <ele>1396.77</ele>
        <time>2021-03-27T17:35:31Z</time>
      </trkpt>
      <trkpt lat="40.37825" lon="-5.054047">
        <ele>1398.09</ele>
        <time>2021-03-27T17:35:33Z</time>
      </trkpt>
      <trkpt lat="40.378304" lon="-5.053994">
        <ele>1399.44</ele>
        <time>2021-03-27T17:35:35Z</time>
      </trkpt>
      <trkpt lat="40.378339" lon="-5.053913">
        <ele>1400.82</ele>
        <time>2021-03-27T17:35:36Z</time>
      </trkpt>
      <trkpt lat="40.378333" lon="-5.053804">
        <ele>1401.9</ele>
        <time>2021-03-27T17:35:38Z</time>
      </trkpt>
      <trkpt lat="40.378118" lon="-5.053498">
        <ele>1401.77</ele>
        <time>2021-03-27T17:35:40Z</time>
      </trkpt>
      <trkpt lat="40.378103" lon="-5.053407">
        <ele>1402.8</ele>
        <time>2021-03-27T17:35:42Z</time>
      </trkpt>
      <trkpt lat="40.378117" lon="-5.05333">
        <ele>1404.15</ele>
        <time>2021-03-27T17:35:44Z</time>
      </trkpt>
      <trkpt lat="40.37815" lon="-5.053282">
        <ele>1405.43</ele>
        <time>2021-03-27T17:35:45Z</time>
      </trkpt>
      <trkpt lat="40.37822" lon="-5.053242">
        <ele>1407.28</ele>
        <time>2021-03-27T17:35:47Z</time>
      </trkpt>
      <trkpt lat="40.378311" lon="-5.053292">
        <ele>1408.19</ele>
        <time>2021-03-27T17:35:49Z</time>
      </trkpt>
      <trkpt lat="40.37855" lon="-5.053682">
        <ele>1407.5</ele>
        <time>2021-03-27T17:35:51Z</time>
      </trkpt>
      <trkpt lat="40.378678" lon="-5.053766">
        <ele>1408.4</ele>
        <time>2021-03-27T17:35:53Z</time>
      </trkpt>
      <trkpt lat="40.379021" lon="-5.053916">
        <ele>1412.89</ele>
        <time>2021-03-27T17:35:54Z</time>
      </trkpt>
      <trkpt lat="40.379669" lon="-5.054388">
        <ele>1418.22</ele>
        <time>2021-03-27T17:35:56Z</time>
      </trkpt>
      <trkpt lat="40.380077" lon="-5.054516">
        <ele>1420.26</ele>
        <time>2021-03-27T17:35:58Z</time>
      </trkpt>
      <trkpt lat="40.380302" lon="-5.054468">
        <ele>1422.69</ele>
        <time>2021-03-27T17:36:00Z</time>
      </trkpt>
      <trkpt lat="40.380602" lon="-5.054352">
        <ele>1425.95</ele>
        <time>2021-03-27T17:36:01Z</time>
      </trkpt>
      <trkpt lat="40.380733" lon="-5.054339">
        <ele>1426.85</ele>
        <time>2021-03-27T17:36:03Z</time>
      </trkpt>
      <trkpt lat="40.380874" lon="-5.054438">
        <ele>1427.46</ele>
        <time>2021-03-27T17:36:05Z</time>
      </trkpt>
      <trkpt lat="40.380977" lon="-5.054571">
        <ele>1429.46</ele>
        <time>2021-03-27T17:36:07Z</time>
      </trkpt>
      <trkpt lat="40.381016" lon="-5.05472">
        <ele>1430.96</ele>
        <time>2021-03-27T17:36:09Z</time>
      </trkpt>
      <trkpt lat="40.381025" lon="-5.054849">
        <ele>1432.6</ele>
        <time>2021-03-27T17:36:10Z</time>
      </trkpt>
      <trkpt lat="40.380862" lon="-5.05526">
        <ele>1433.29</ele>
        <time>2021-03-27T17:36:12Z</time>
      </trkpt>
      <trkpt lat="40.380821" lon="-5.055448">
        <ele>1433.94</ele>
        <time>2021-03-27T17:36:14Z</time>
      </trkpt>
      <trkpt lat="40.380803" lon="-5.055631">
        <ele>1434.93</ele>
        <time>2021-03-27T17:36:16Z</time>
      </trkpt>
      <trkpt lat="40.380841" lon="-5.056181">
        <ele>1441.39</ele>
        <time>2021-03-27T17:36:18Z</time>
      </trkpt>
      <trkpt lat="40.38096" lon="-5.056761">
        <ele>1445.6</ele>
        <time>2021-03-27T17:36:19Z</time>
      </trkpt>
      <trkpt lat="40.381432" lon="-5.057413">
        <ele>1448.46</ele>
        <time>2021-03-27T17:36:21Z</time>
      </trkpt>
      <trkpt lat="40.382048" lon="-5.057966">
        <ele>1452.46</ele>
        <time>2021-03-27T17:36:23Z</time>
      </trkpt>
      <trkpt lat="40.382647" lon="-5.058788">
        <ele>1453.15</ele>
        <time>2021-03-27T17:36:25Z</time>
      </trkpt>
      <trkpt lat="40.383264" lon="-5.059591">
        <ele>1458.53</ele>
        <time>2021-03-27T17:36:26Z</time>
      </trkpt>
      <trkpt lat="40.383396" lon="-5.059824">
        <ele>1460.96</ele>
        <time>2021-03-27T17:36:28Z</time>
      </trkpt>
      <trkpt lat="40.383504" lon="-5.060074">
        <ele>1462.44</ele>
        <time>2021-03-27T17:36:30Z</time>
      </trkpt>
      <trkpt lat="40.38356" lon="-5.060306">
        <ele>1463.37</ele>
        <time>2021-03-27T17:36:32Z</time>
      </trkpt>
      <trkpt lat="40.383546" lon="-5.060531">
        <ele>1466.22</ele>
        <time>2021-03-27T17:36:34Z</time>
      </trkpt>
      <trkpt lat="40.383371" lon="-5.061564">
        <ele>1473.09</ele>
        <time>2021-03-27T17:36:35Z</time>
      </trkpt>
      <trkpt lat="40.383363" lon="-5.061808">
        <ele>1473.78</ele>
        <time>2021-03-27T17:36:37Z</time>
      </trkpt>
      <trkpt lat="40.383411" lon="-5.062061">
        <ele>1475.1</ele>
        <time>2021-03-27T17:36:39Z</time>
      </trkpt>
      <trkpt lat="40.383526" lon="-5.062379">
        <ele>1477.29</ele>
        <time>2021-03-27T17:36:41Z</time>
      </trkpt>
      <trkpt lat="40.383856" lon="-5.063129">
        <ele>1483.39</ele>
        <time>2021-03-27T17:36:43Z</time>
      </trkpt>
      <trkpt lat="40.383935" lon="-5.063825">
        <ele>1484.32</ele>
        <time>2021-03-27T17:36:44Z</time>
      </trkpt>
      <trkpt lat="40.383998" lon="-5.064122">
        <ele>1487.68</ele>
        <time>2021-03-27T17:36:46Z</time>
      </trkpt>
      <trkpt lat="40.384046" lon="-5.064258">
        <ele>1489.31</ele>
        <time>2021-03-27T17:36:48Z</time>
      </trkpt>
      <trkpt lat="40.384125" lon="-5.064371">
        <ele>1491.09</ele>
        <time>2021-03-27T17:36:50Z</time>
      </trkpt>
      <trkpt lat="40.38424" lon="-5.064455">
        <ele>1492.23</ele>
        <time>2021-03-27T17:36:52Z</time>
      </trkpt>
      <trkpt lat="40.384386" lon="-5.064499">
        <ele>1492.59</ele>
        <time>2021-03-27T17:36:53Z</time>
      </trkpt>
      <trkpt lat="40.385731" lon="-5.064533">
        <ele>1494.79</ele>
        <time>2021-03-27T17:36:55Z</time>
      </trkpt>
      <trkpt lat="40.38646" lon="-5.064584">
        <ele>1492.63</ele>
        <time>2021-03-27T17:36:57Z</time>
      </trkpt>
      <trkpt lat="40.386594" lon="-5.064628">
        <ele>1492.59</ele>
        <time>2021-03-27T17:36:59Z</time>
      </trkpt>
      <trkpt lat="40.386708" lon="-5.064736">
        <ele>1492.3</ele>
        <time>2021-03-27T17:37:00Z</time>
      </trkpt>
      <trkpt lat="40.386868" lon="-5.065174">
        <ele>1493.62</ele>
        <time>2021-03-27T17:37:02Z</time>
      </trkpt>
      <trkpt lat="40.386986" lon="-5.065646">
        <ele>1494.58</ele>
        <time>2021-03-27T17:37:04Z</time>
      </trkpt>
      <trkpt lat="40.387085" lon="-5.065972">
        <ele>1495.5</ele>
        <time>2021-03-27T17:37:06Z</time>
      </trkpt>
      <trkpt lat="40.387191" lon="-5.066196">
        <ele>1496.19</ele>
        <time>2021-03-27T17:37:08Z</time>
      </trkpt>
      <trkpt lat="40.387341" lon="-5.066332">
        <ele>1496.79</ele>
        <time>2021-03-27T17:37:09Z</time>
      </trkpt>
      <trkpt lat="40.387521" lon="-5.066387">
        <ele>1497.15</ele>
        <time>2021-03-27T17:37:11Z</time>
      </trkpt>
      <trkpt lat="40.388703" lon="-5.066427">
        <ele>1507.48</ele>
        <time>2021-03-27T17:37:13Z</time>
      </trkpt>
      <trkpt lat="40.389374" lon="-5.066163">
        <ele>1507.89</ele>
        <time>2021-03-27T17:37:15Z</time>
      </trkpt>
      <trkpt lat="40.390541" lon="-5.065948">
        <ele>1514.54</ele>
        <time>2021-03-27T17:37:17Z</time>
      </trkpt>
      <trkpt lat="40.391428" lon="-5.06597">
        <ele>1525.1</ele>
        <time>2021-03-27T17:37:18Z</time>
      </trkpt>
      <trkpt lat="40.391559" lon="-5.066079">
        <ele>1525.66</ele>
        <time>2021-03-27T17:37:20Z</time>
      </trkpt>
      <trkpt lat="40.391836" lon="-5.066563">
        <ele>1531.55</ele>
        <time>2021-03-27T17:37:22Z</time>
      </trkpt>
      <trkpt lat="40.392208" lon="-5.067158">
        <ele>1537.4</ele>
        <time>2021-03-27T17:37:24Z</time>
      </trkpt>
      <trkpt lat="40.392381" lon="-5.066974">
        <ele>1536.4</ele>
        <time>2021-03-27T17:37:28Z</time>
      </trkpt>
      <trkpt lat="40.392579" lon="-5.066837">
        <ele>1536.62</ele>
        <time>2021-03-27T17:37:32Z</time>
      </trkpt>
      <trkpt lat="40.39268" lon="-5.066863">
        <ele>1537.25</ele>
        <time>2021-03-27T17:37:34Z</time>
      </trkpt>
      <trkpt lat="40.392699" lon="-5.066835">
        <ele>1537.21</ele>
        <time>2021-03-27T17:37:36Z</time>
      </trkpt>
      <trkpt lat="40.392774" lon="-5.066819">
        <ele>1537.53</ele>
        <time>2021-03-27T17:37:38Z</time>
      </trkpt>
      <trkpt lat="40.393013" lon="-5.066877">
        <ele>1538.4</ele>
        <time>2021-03-27T17:37:40Z</time>
      </trkpt>
      <trkpt lat="40.393123" lon="-5.067072">
        <ele>1539.22</ele>
        <time>2021-03-27T17:37:44Z</time>
      </trkpt>
      <trkpt lat="40.39326" lon="-5.06711">
        <ele>1538.86</ele>
        <time>2021-03-27T17:37:46Z</time>
      </trkpt>
      <trkpt lat="40.393359" lon="-5.067077">
        <ele>1538.39</ele>
        <time>2021-03-27T17:37:48Z</time>
      </trkpt>
      <trkpt lat="40.393431" lon="-5.067075">
        <ele>1538.12</ele>
        <time>2021-03-27T17:37:49Z</time>
      </trkpt>
      <trkpt lat="40.393508" lon="-5.066967">
        <ele>1537.45</ele>
        <time>2021-03-27T17:38:00Z</time>
      </trkpt>
      <trkpt lat="40.393766" lon="-5.06689">
        <ele>1537.25</ele>
        <time>2021-03-27T17:38:10Z</time>
      </trkpt>
      <trkpt lat="40.393874" lon="-5.066812">
        <ele>1537.02</ele>
        <time>2021-03-27T17:38:21Z</time>
      </trkpt>
      <trkpt lat="40.393977" lon="-5.06665">
        <ele>1536.83</ele>
        <time>2021-03-27T17:38:31Z</time>
      </trkpt>
      <trkpt lat="40.394225" lon="-5.066402">
        <ele>1538.13</ele>
        <time>2021-03-27T17:38:41Z</time>
      </trkpt>
      <trkpt lat="40.394334" lon="-5.066212">
        <ele>1538.74</ele>
        <time>2021-03-27T17:38:52Z</time>
      </trkpt>
      <trkpt lat="40.394506" lon="-5.065833">
        <ele>1537.89</ele>
        <time>2021-03-27T17:39:02Z</time>
      </trkpt>
      <trkpt lat="40.394674" lon="-5.065621">
        <ele>1536.11</ele>
        <time>2021-03-27T17:39:12Z</time>
      </trkpt>
      <trkpt lat="40.39601" lon="-5.064843">
        <ele>1534.47</ele>
        <time>2021-03-27T17:39:23Z</time>
      </trkpt>
      <trkpt lat="40.396236" lon="-5.064786">
        <ele>1535.55</ele>
        <time>2021-03-27T17:39:33Z</time>
      </trkpt>
      <trkpt lat="40.396623" lon="-5.064798">
        <ele>1536.51</ele>
        <time>2021-03-27T17:39:44Z</time>
      </trkpt>
      <trkpt lat="40.398298" lon="-5.065079">
        <ele>1543.7</ele>
        <time>2021-03-27T17:39:54Z</time>
      </trkpt>
      <trkpt lat="40.398913" lon="-5.065082">
        <ele>1553.03</ele>
        <time>2021-03-27T17:40:04Z</time>
      </trkpt>
      <trkpt lat="40.399605" lon="-5.064867">
        <ele>1563.31</ele>
        <time>2021-03-27T17:40:15Z</time>
      </trkpt>
      <trkpt lat="40.399975" lon="-5.064464">
        <ele>1564.05</ele>
        <time>2021-03-27T17:40:25Z</time>
      </trkpt>
      <trkpt lat="40.400028" lon="-5.064444">
        <ele>1564.1</ele>
        <time>2021-03-27T17:40:35Z</time>
      </trkpt>
      <trkpt lat="40.400068" lon="-5.064456">
        <ele>1564.32</ele>
        <time>2021-03-27T17:40:46Z</time>
      </trkpt>
      <trkpt lat="40.400158" lon="-5.064528">
        <ele>1565.0</ele>
        <time>2021-03-27T17:40:56Z</time>
      </trkpt>
      <trkpt lat="40.400277" lon="-5.064643">
        <ele>1565.71</ele>
        <time>2021-03-27T17:41:07Z</time>
      </trkpt>
      <trkpt lat="40.400474" lon="-5.064757">
        <ele>1568.16</ele>
        <time>2021-03-27T17:41:17Z</time>
      </trkpt>
      <trkpt lat="40.400621" lon="-5.064795">
        <ele>1569.88</ele>
        <time>2021-03-27T17:41:27Z</time>
      </trkpt>
      <trkpt lat="40.400868" lon="-5.06469">
        <ele>1573.71</ele>
        <time>2021-03-27T17:41:38Z</time>
      </trkpt>
      <trkpt lat="40.400956" lon="-5.06472">
        <ele>1575.21</ele>
        <time>2021-03-27T17:41:48Z</time>
      </trkpt>
      <trkpt lat="40.401104" lon="-5.064933">
        <ele>1576.37</ele>
        <time>2021-03-27T17:41:58Z</time>
      </trkpt>
      <trkpt lat="40.401343" lon="-5.065489">
        <ele>1578.06</ele>
        <time>2021-03-27T17:42:09Z</time>
      </trkpt>
      <trkpt lat="40.401806" lon="-5.066102">
        <ele>1587.59</ele>
        <time>2021-03-27T17:42:19Z</time>
      </trkpt>
      <trkpt lat="40.402762" lon="-5.067153">
        <ele>1601.54</ele>
        <time>2021-03-27T17:42:29Z</time>
      </trkpt>
      <trkpt lat="40.403203" lon="-5.06761">
        <ele>1607.39</ele>
        <time>2021-03-27T17:42:40Z</time>
      </trkpt>
      <trkpt lat="40.403347" lon="-5.067742">
        <ele>1609.49</ele>
        <time>2021-03-27T17:42:50Z</time>
      </trkpt>
      <trkpt lat="40.403501" lon="-5.067817">
        <ele>1611.95</ele>
        <time>2021-03-27T17:43:01Z</time>
      </trkpt>
      <trkpt lat="40.403621" lon="-5.067829">
        <ele>1613.81</ele>
        <time>2021-03-27T17:43:11Z</time>
      </trkpt>
      <trkpt lat="40.403727" lon="-5.067771">
        <ele>1614.05</ele>
        <time>2021-03-27T17:43:21Z</time>
      </trkpt>
      <trkpt lat="40.403858" lon="-5.067649">
        <ele>1615.29</ele>
        <time>2021-03-27T17:43:32Z</time>
      </trkpt>
      <trkpt lat="40.405049" lon="-5.0664">
        <ele>1630.96</ele>
        <time>2021-03-27T17:43:42Z</time>
      </trkpt>
      <trkpt lat="40.406609" lon="-5.064712">
        <ele>1649.35</ele>
        <time>2021-03-27T17:43:52Z</time>
      </trkpt>
      <trkpt lat="40.406609" lon="-5.064712">
        <ele>1649.35</ele>
        <time>2021-03-27T17:43:52Z</time>
      </trkpt>
      <trkpt lat="40.405049" lon="-5.0664">
        <ele>1630.96</ele>
        <time>2021-03-27T17:44:03Z</time>
      </trkpt>
      <trkpt lat="40.403858" lon="-5.067649">
        <ele>1615.29</ele>
        <time>2021-03-27T17:44:13Z</time>
      </trkpt>
      <trkpt lat="40.403727" lon="-5.067771">
        <ele>1614.05</ele>
        <time>2021-03-27T17:44:24Z</time>
      </trkpt>
      <trkpt lat="40.403621" lon="-5.067829">
        <ele>1613.81</ele>
        <time>2021-03-27T17:44:34Z</time>
      </trkpt>
      <trkpt lat="40.403501" lon="-5.067817">
        <ele>1611.95</ele>
        <time>2021-03-27T17:44:44Z</time>
      </trkpt>
      <trkpt lat="40.403347" lon="-5.067742">
        <ele>1609.49</ele>
        <time>2021-03-27T17:44:55Z</time>
      </trkpt>
      <trkpt lat="40.403203" lon="-5.06761">
        <ele>1607.39</ele>
        <time>2021-03-27T17:45:05Z</time>
      </trkpt>
      <trkpt lat="40.402762" lon="-5.067153">
        <ele>1601.54</ele>
        <time>2021-03-27T17:45:15Z</time>
      </trkpt>
      <trkpt lat="40.401806" lon="-5.066102">
        <ele>1587.59</ele>
        <time>2021-03-27T17:45:26Z</time>
      </trkpt>
      <trkpt lat="40.401343" lon="-5.065489">
        <ele>1578.06</ele>
        <time>2021-03-27T17:45:36Z</time>
      </trkpt>
      <trkpt lat="40.401104" lon="-5.064933">
        <ele>1576.37</ele>
        <time>2021-03-27T17:45:47Z</time>
      </trkpt>
      <trkpt lat="40.400956" lon="-5.06472">
        <ele>1575.21</ele>
        <time>2021-03-27T17:45:57Z</time>
      </trkpt>
      <trkpt lat="40.400868" lon="-5.06469">
        <ele>1573.71</ele>
        <time>2021-03-27T17:46:07Z</time>
      </trkpt>
      <trkpt lat="40.400621" lon="-5.064795">
        <ele>1569.88</ele>
        <time>2021-03-27T17:46:18Z</time>
      </trkpt>
      <trkpt lat="40.400474" lon="-5.064757">
        <ele>1568.16</ele>
        <time>2021-03-27T17:46:28Z</time>
      </trkpt>
      <trkpt lat="40.400277" lon="-5.064643">
        <ele>1565.71</ele>
        <time>2021-03-27T17:46:38Z</time>
      </trkpt>
      <trkpt lat="40.400158" lon="-5.064528">
        <ele>1565.0</ele>
        <time>2021-03-27T17:46:49Z</time>
      </trkpt>
      <trkpt lat="40.400068" lon="-5.064456">
        <ele>1564.32</ele>
        <time>2021-03-27T17:46:59Z</time>
      </trkpt>
      <trkpt lat="40.400028" lon="-5.064444">
        <ele>1564.1</ele>
        <time>2021-03-27T17:47:09Z</time>
      </trkpt>
      <trkpt lat="40.399975" lon="-5.064464">
        <ele>1564.05</ele>
        <time>2021-03-27T17:47:20Z</time>
      </trkpt>
      <trkpt lat="40.399605" lon="-5.064867">
        <ele>1563.31</ele>
        <time>2021-03-27T17:47:30Z</time>
      </trkpt>
      <trkpt lat="40.398913" lon="-5.065082">
        <ele>1553.03</ele>
        <time>2021-03-27T17:47:41Z</time>
      </trkpt>
      <trkpt lat="40.398298" lon="-5.065079">
        <ele>1543.7</ele>
        <time>2021-03-27T17:47:51Z</time>
      </trkpt>
      <trkpt lat="40.396623" lon="-5.064798">
        <ele>1536.51</ele>
        <time>2021-03-27T17:48:01Z</time>
      </trkpt>
      <trkpt lat="40.396236" lon="-5.064786">
        <ele>1535.55</ele>
        <time>2021-03-27T17:48:12Z</time>
      </trkpt>
      <trkpt lat="40.39601" lon="-5.064843">
        <ele>1534.47</ele>
        <time>2021-03-27T17:48:22Z</time>
      </trkpt>
      <trkpt lat="40.394674" lon="-5.065621">
        <ele>1536.11</ele>
        <time>2021-03-27T17:48:32Z</time>
      </trkpt>
      <trkpt lat="40.394506" lon="-5.065833">
        <ele>1537.89</ele>
        <time>2021-03-27T17:48:43Z</time>
      </trkpt>
      <trkpt lat="40.394334" lon="-5.066212">
        <ele>1538.74</ele>
        <time>2021-03-27T17:48:53Z</time>
      </trkpt>
      <trkpt lat="40.394225" lon="-5.066402">
        <ele>1538.13</ele>
        <time>2021-03-27T17:49:04Z</time>
      </trkpt>
      <trkpt lat="40.393977" lon="-5.06665">
        <ele>1536.83</ele>
        <time>2021-03-27T17:49:14Z</time>
      </trkpt>
      <trkpt lat="40.393874" lon="-5.066812">
        <ele>1537.02</ele>
        <time>2021-03-27T17:49:24Z</time>
      </trkpt>
      <trkpt lat="40.393766" lon="-5.06689">
        <ele>1537.25</ele>
        <time>2021-03-27T17:49:35Z</time>
      </trkpt>
      <trkpt lat="40.393508" lon="-5.066967">
        <ele>1537.45</ele>
        <time>2021-03-27T17:49:45Z</time>
      </trkpt>
      <trkpt lat="40.393431" lon="-5.067075">
        <ele>1538.12</ele>
        <time>2021-03-27T17:49:55Z</time>
      </trkpt>
      <trkpt lat="40.393359" lon="-5.067077">
        <ele>1538.39</ele>
        <time>2021-03-27T17:49:57Z</time>
      </trkpt>
      <trkpt lat="40.39326" lon="-5.06711">
        <ele>1538.86</ele>
        <time>2021-03-27T17:49:59Z</time>
      </trkpt>
      <trkpt lat="40.393123" lon="-5.067072">
        <ele>1539.22</ele>
        <time>2021-03-27T17:50:01Z</time>
      </trkpt>
      <trkpt lat="40.393013" lon="-5.066877">
        <ele>1538.4</ele>
        <time>2021-03-27T17:50:05Z</time>
      </trkpt>
      <trkpt lat="40.392774" lon="-5.066819">
        <ele>1537.53</ele>
        <time>2021-03-27T17:50:07Z</time>
      </trkpt>
      <trkpt lat="40.392699" lon="-5.066835">
        <ele>1537.21</ele>
        <time>2021-03-27T17:50:09Z</time>
      </trkpt>
      <trkpt lat="40.39268" lon="-5.066863">
        <ele>1537.25</ele>
        <time>2021-03-27T17:50:11Z</time>
      </trkpt>
      <trkpt lat="40.392579" lon="-5.066837">
        <ele>1536.62</ele>
        <time>2021-03-27T17:50:13Z</time>
      </trkpt>
      <trkpt lat="40.392381" lon="-5.066974">
        <ele>1536.4</ele>
        <time>2021-03-27T17:50:17Z</time>
      </trkpt>
      <trkpt lat="40.392208" lon="-5.067158">
        <ele>1537.4</ele>
        <time>2021-03-27T17:50:21Z</time>
      </trkpt>
      <trkpt lat="40.391836" lon="-5.066563">
        <ele>1531.55</ele>
        <time>2021-03-27T17:50:23Z</time>
      </trkpt>
      <trkpt lat="40.391559" lon="-5.066079">
        <ele>1525.66</ele>
        <time>2021-03-27T17:50:25Z</time>
      </trkpt>
      <trkpt lat="40.391428" lon="-5.06597">
        <ele>1525.1</ele>
        <time>2021-03-27T17:50:27Z</time>
      </trkpt>
      <trkpt lat="40.390541" lon="-5.065948">
        <ele>1514.54</ele>
        <time>2021-03-27T17:50:28Z</time>
      </trkpt>
      <trkpt lat="40.389374" lon="-5.066163">
        <ele>1507.89</ele>
        <time>2021-03-27T17:50:30Z</time>
      </trkpt>
      <trkpt lat="40.388703" lon="-5.066427">
        <ele>1507.48</ele>
        <time>2021-03-27T17:50:32Z</time>
      </trkpt>
      <trkpt lat="40.387521" lon="-5.066387">
        <ele>1497.15</ele>
        <time>2021-03-27T17:50:34Z</time>
      </trkpt>
      <trkpt lat="40.387341" lon="-5.066332">
        <ele>1496.79</ele>
        <time>2021-03-27T17:50:35Z</time>
      </trkpt>
      <trkpt lat="40.387191" lon="-5.066196">
        <ele>1496.19</ele>
        <time>2021-03-27T17:50:37Z</time>
      </trkpt>
      <trkpt lat="40.387085" lon="-5.065972">
        <ele>1495.5</ele>
        <time>2021-03-27T17:50:39Z</time>
      </trkpt>
      <trkpt lat="40.386986" lon="-5.065646">
        <ele>1494.58</ele>
        <time>2021-03-27T17:50:41Z</time>
      </trkpt>
      <trkpt lat="40.386868" lon="-5.065174">
        <ele>1493.62</ele>
        <time>2021-03-27T17:50:43Z</time>
      </trkpt>
      <trkpt lat="40.386708" lon="-5.064736">
        <ele>1492.3</ele>
        <time>2021-03-27T17:50:44Z</time>
      </trkpt>
      <trkpt lat="40.386594" lon="-5.064628">
        <ele>1492.59</ele>
        <time>2021-03-27T17:50:46Z</time>
      </trkpt>
      <trkpt lat="40.38646" lon="-5.064584">
        <ele>1492.63</ele>
        <time>2021-03-27T17:50:48Z</time>
      </trkpt>
      <trkpt lat="40.385731" lon="-5.064533">
        <ele>1494.79</ele>
        <time>2021-03-27T17:50:50Z</time>
      </trkpt>
      <trkpt lat="40.384386" lon="-5.064499">
        <ele>1492.59</ele>
        <time>2021-03-27T17:50:52Z</time>
      </trkpt>
      <trkpt lat="40.38424" lon="-5.064455">
        <ele>1492.23</ele>
        <time>2021-03-27T17:50:53Z</time>
      </trkpt>
      <trkpt lat="40.384125" lon="-5.064371">
        <ele>1491.09</ele>
        <time>2021-03-27T17:50:55Z</time>
      </trkpt>
      <trkpt lat="40.384046" lon="-5.064258">
        <ele>1489.31</ele>
        <time>2021-03-27T17:50:57Z</time>
      </trkpt>
      <trkpt lat="40.383998" lon="-5.064122">
        <ele>1487.68</ele>
        <time>2021-03-27T17:50:59Z</time>
      </trkpt>
      <trkpt lat="40.383935" lon="-5.063825">
        <ele>1484.32</ele>
        <time>2021-03-27T17:51:01Z</time>
      </trkpt>
      <trkpt lat="40.383856" lon="-5.063129">
        <ele>1483.39</ele>
        <time>2021-03-27T17:51:02Z</time>
      </trkpt>
      <trkpt lat="40.383526" lon="-5.062379">
        <ele>1477.29</ele>
        <time>2021-03-27T17:51:04Z</time>
      </trkpt>
      <trkpt lat="40.383411" lon="-5.062061">
        <ele>1475.1</ele>
        <time>2021-03-27T17:51:06Z</time>
      </trkpt>
      <trkpt lat="40.383363" lon="-5.061808">
        <ele>1473.78</ele>
        <time>2021-03-27T17:51:08Z</time>
      </trkpt>
      <trkpt lat="40.383371" lon="-5.061564">
        <ele>1473.09</ele>
        <time>2021-03-27T17:51:09Z</time>
      </trkpt>
      <trkpt lat="40.383546" lon="-5.060531">
        <ele>1466.22</ele>
        <time>2021-03-27T17:51:11Z</time>
      </trkpt>
      <trkpt lat="40.38356" lon="-5.060306">
        <ele>1463.37</ele>
        <time>2021-03-27T17:51:13Z</time>
      </trkpt>
      <trkpt lat="40.383504" lon="-5.060074">
        <ele>1462.44</ele>
        <time>2021-03-27T17:51:15Z</time>
      </trkpt>
      <trkpt lat="40.383396" lon="-5.059824">
        <ele>1460.96</ele>
        <time>2021-03-27T17:51:17Z</time>
      </trkpt>
      <trkpt lat="40.383264" lon="-5.059591">
        <ele>1458.53</ele>
        <time>2021-03-27T17:51:18Z</time>
      </trkpt>
      <trkpt lat="40.382647" lon="-5.058788">
        <ele>1453.15</ele>
        <time>2021-03-27T17:51:20Z</time>
      </trkpt>
      <trkpt lat="40.382048" lon="-5.057966">
        <ele>1452.46</ele>
        <time>2021-03-27T17:51:22Z</time>
      </trkpt>
      <trkpt lat="40.381432" lon="-5.057413">
        <ele>1448.46</ele>
        <time>2021-03-27T17:51:24Z</time>
      </trkpt>
      <trkpt lat="40.38096" lon="-5.056761">
        <ele>1445.6</ele>
        <time>2021-03-27T17:51:26Z</time>
      </trkpt>
      <trkpt lat="40.380841" lon="-5.056181">
        <ele>1441.39</ele>
        <time>2021-03-27T17:51:27Z</time>
      </trkpt>
      <trkpt lat="40.380803" lon="-5.055631">
        <ele>1434.93</ele>
        <time>2021-03-27T17:51:29Z</time>
      </trkpt>
      <trkpt lat="40.380821" lon="-5.055448">
        <ele>1433.94</ele>
        <time>2021-03-27T17:51:31Z</time>
      </trkpt>
      <trkpt lat="40.380862" lon="-5.05526">
        <ele>1433.29</ele>
        <time>2021-03-27T17:51:33Z</time>
      </trkpt>
      <trkpt lat="40.381025" lon="-5.054849">
        <ele>1432.6</ele>
        <time>2021-03-27T17:51:35Z</time>
      </trkpt>
      <trkpt lat="40.381016" lon="-5.05472">
        <ele>1430.96</ele>
        <time>2021-03-27T17:51:36Z</time>
      </trkpt>
      <trkpt lat="40.380977" lon="-5.054571">
        <ele>1429.46</ele>
        <time>2021-03-27T17:51:38Z</time>
      </trkpt>
      <trkpt lat="40.380874" lon="-5.054438">
        <ele>1427.46</ele>
        <time>2021-03-27T17:51:40Z</time>
      </trkpt>
      <trkpt lat="40.380733" lon="-5.054339">
        <ele>1426.85</ele>
        <time>2021-03-27T17:51:42Z</time>
      </trkpt>
      <trkpt lat="40.380602" lon="-5.054352">
        <ele>1425.95</ele>
        <time>2021-03-27T17:51:43Z</time>
      </trkpt>
      <trkpt lat="40.380302" lon="-5.054468">
        <ele>1422.69</ele>
        <time>2021-03-27T17:51:45Z</time>
      </trkpt>
      <trkpt lat="40.380077" lon="-5.054516">
        <ele>1420.26</ele>
        <time>2021-03-27T17:51:47Z</time>
      </trkpt>
      <trkpt lat="40.379669" lon="-5.054388">
        <ele>1418.22</ele>
        <time>2021-03-27T17:51:49Z</time>
      </trkpt>
      <trkpt lat="40.379021" lon="-5.053916">
        <ele>1412.89</ele>
        <time>2021-03-27T17:51:51Z</time>
      </trkpt>
      <trkpt lat="40.378678" lon="-5.053766">
        <ele>1408.4</ele>
        <time>2021-03-27T17:51:52Z</time>
      </trkpt>
      <trkpt lat="40.37855" lon="-5.053682">
        <ele>1407.5</ele>
        <time>2021-03-27T17:51:54Z</time>
      </trkpt>
      <trkpt lat="40.378311" lon="-5.053292">
        <ele>1408.19</ele>
        <time>2021-03-27T17:51:56Z</time>
      </trkpt>
      <trkpt lat="40.37822" lon="-5.053242">
        <ele>1407.28</ele>
        <time>2021-03-27T17:51:58Z</time>
      </trkpt>
      <trkpt lat="40.37815" lon="-5.053282">
        <ele>1405.43</ele>
        <time>2021-03-27T17:52:00Z</time>
      </trkpt>
      <trkpt lat="40.378117" lon="-5.05333">
        <ele>1404.15</ele>
        <time>2021-03-27T17:52:01Z</time>
      </trkpt>
      <trkpt lat="40.378103" lon="-5.053407">
        <ele>1402.8</ele>
        <time>2021-03-27T17:52:03Z</time>
      </trkpt>
      <trkpt lat="40.378118" lon="-5.053498">
        <ele>1401.77</ele>
        <time>2021-03-27T17:52:05Z</time>
      </trkpt>
      <trkpt lat="40.378333" lon="-5.053804">
        <ele>1401.9</ele>
        <time>2021-03-27T17:52:07Z</time>
      </trkpt>
      <trkpt lat="40.378339" lon="-5.053913">
        <ele>1400.82</ele>
        <time>2021-03-27T17:52:08Z</time>
      </trkpt>
      <trkpt lat="40.378304" lon="-5.053994">
        <ele>1399.44</ele>
        <time>2021-03-27T17:52:10Z</time>
      </trkpt>
      <trkpt lat="40.37825" lon="-5.054047">
        <ele>1398.09</ele>
        <time>2021-03-27T17:52:12Z</time>
      </trkpt>
      <trkpt lat="40.378163" lon="-5.054054">
        <ele>1396.77</ele>
        <time>2021-03-27T17:52:14Z</time>
      </trkpt>
      <trkpt lat="40.37808" lon="-5.054014">
        <ele>1395.98</ele>
        <time>2021-03-27T17:52:16Z</time>
      </trkpt>
      <trkpt lat="40.377996" lon="-5.053937">
        <ele>1395.23</ele>
        <time>2021-03-27T17:52:17Z</time>
      </trkpt>
      <trkpt lat="40.377329" lon="-5.052443">
        <ele>1390.3</ele>
        <time>2021-03-27T17:52:19Z</time>
      </trkpt>
      <trkpt lat="40.377299" lon="-5.052267">
        <ele>1390.04</ele>
        <time>2021-03-27T17:52:21Z</time>
      </trkpt>
      <trkpt lat="40.377296" lon="-5.051883">
        <ele>1391.07</ele>
        <time>2021-03-27T17:52:23Z</time>
      </trkpt>
      <trkpt lat="40.377202" lon="-5.051759">
        <ele>1388.67</ele>
        <time>2021-03-27T17:52:25Z</time>
      </trkpt>
      <trkpt lat="40.377108" lon="-5.051717">
        <ele>1387.02</ele>
        <time>2021-03-27T17:52:26Z</time>
      </trkpt>
      <trkpt lat="40.377023" lon="-5.051752">
        <ele>1385.65</ele>
        <time>2021-03-27T17:52:28Z</time>
      </trkpt>
      <trkpt lat="40.37695" lon="-5.051823">
        <ele>1384.65</ele>
        <time>2021-03-27T17:52:30Z</time>
      </trkpt>
      <trkpt lat="40.376926" lon="-5.051952">
        <ele>1384.56</ele>
        <time>2021-03-27T17:52:32Z</time>
      </trkpt>
      <trkpt lat="40.376922" lon="-5.052075">
        <ele>1383.61</ele>
        <time>2021-03-27T17:52:34Z</time>
      </trkpt>
      <trkpt lat="40.376989" lon="-5.052428">
        <ele>1382.45</ele>
        <time>2021-03-27T17:52:35Z</time>
      </trkpt>
      <trkpt lat="40.376968" lon="-5.052567">
        <ele>1381.28</ele>
        <time>2021-03-27T17:52:37Z</time>
      </trkpt>
      <trkpt lat="40.376921" lon="-5.05267">
        <ele>1380.05</ele>
        <time>2021-03-27T17:52:39Z</time>
      </trkpt>
      <trkpt lat="40.376847" lon="-5.052726">
        <ele>1378.79</ele>
        <time>2021-03-27T17:52:41Z</time>
      </trkpt>
      <trkpt lat="40.376771" lon="-5.052732">
        <ele>1377.67</ele>
        <time>2021-03-27T17:52:42Z</time>
      </trkpt>
      <trkpt lat="40.376697" lon="-5.052708">
        <ele>1376.69</ele>
        <time>2021-03-27T17:52:44Z</time>
      </trkpt>
      <trkpt lat="40.376636" lon="-5.052626">
        <ele>1376.21</ele>
        <time>2021-03-27T17:52:46Z</time>
      </trkpt>
      <trkpt lat="40.376297" lon="-5.051847">
        <ele>1373.31</ele>
        <time>2021-03-27T17:52:48Z</time>
      </trkpt>
      <trkpt lat="40.376198" lon="-5.05174">
        <ele>1371.46</ele>
        <time>2021-03-27T17:52:50Z</time>
      </trkpt>
      <trkpt lat="40.376027" lon="-5.051713">
        <ele>1369.68</ele>
        <time>2021-03-27T17:52:51Z</time>
      </trkpt>
      <trkpt lat="40.37577" lon="-5.051746">
        <ele>1367.6</ele>
        <time>2021-03-27T17:52:53Z</time>
      </trkpt>
      <trkpt lat="40.375647" lon="-5.051842">
        <ele>1366.62</ele>
        <time>2021-03-27T17:52:55Z</time>
      </trkpt>
      <trkpt lat="40.375346" lon="-5.052289">
        <ele>1366.17</ele>
        <time>2021-03-27T17:52:57Z</time>
      </trkpt>
      <trkpt lat="40.375205" lon="-5.052443">
        <ele>1365.81</ele>
        <time>2021-03-27T17:52:59Z</time>
      </trkpt>
      <trkpt lat="40.375019" lon="-5.05246">
        <ele>1363.92</ele>
        <time>2021-03-27T17:53:00Z</time>
      </trkpt>
      <trkpt lat="40.374783" lon="-5.052225">
        <ele>1360.44</ele>
        <time>2021-03-27T17:53:02Z</time>
      </trkpt>
      <trkpt lat="40.374678" lon="-5.052193">
        <ele>1359.34</ele>
        <time>2021-03-27T17:53:04Z</time>
      </trkpt>
      <trkpt lat="40.374552" lon="-5.052214">
        <ele>1358.14</ele>
        <time>2021-03-27T17:53:06Z</time>
      </trkpt>
      <trkpt lat="40.374263" lon="-5.052419">
        <ele>1355.47</ele>
        <time>2021-03-27T17:53:08Z</time>
      </trkpt>
      <trkpt lat="40.374077" lon="-5.05251">
        <ele>1353.04</ele>
        <time>2021-03-27T17:53:09Z</time>
      </trkpt>
      <trkpt lat="40.373859" lon="-5.052563">
        <ele>1350.81</ele>
        <time>2021-03-27T17:53:11Z</time>
      </trkpt>
      <trkpt lat="40.3736" lon="-5.05256">
        <ele>1349.18</ele>
        <time>2021-03-27T17:53:13Z</time>
      </trkpt>
      <trkpt lat="40.372981" lon="-5.052453">
        <ele>1345.11</ele>
        <time>2021-03-27T17:53:15Z</time>
      </trkpt>
      <trkpt lat="40.372827" lon="-5.052488">
        <ele>1343.56</ele>
        <time>2021-03-27T17:53:16Z</time>
      </trkpt>
      <trkpt lat="40.372318" lon="-5.052945">
        <ele>1341.29</ele>
        <time>2021-03-27T17:53:18Z</time>
      </trkpt>
      <trkpt lat="40.372307" lon="-5.053268">
        <ele>1342.68</ele>
        <time>2021-03-27T17:53:21Z</time>
      </trkpt>
      <trkpt lat="40.372367" lon="-5.053831">
        <ele>1342.03</ele>
        <time>2021-03-27T17:53:24Z</time>
      </trkpt>
      <trkpt lat="40.372424" lon="-5.0546">
        <ele>1345.3</ele>
        <time>2021-03-27T17:53:26Z</time>
      </trkpt>
      <trkpt lat="40.37248" lon="-5.055075">
        <ele>1346.68</ele>
        <time>2021-03-27T17:53:29Z</time>
      </trkpt>
      <trkpt lat="40.372565" lon="-5.055341">
        <ele>1346.37</ele>
        <time>2021-03-27T17:53:32Z</time>
      </trkpt>
      <trkpt lat="40.372748" lon="-5.05571">
        <ele>1344.84</ele>
        <time>2021-03-27T17:53:34Z</time>
      </trkpt>
      <trkpt lat="40.372862" lon="-5.055989">
        <ele>1344.18</ele>
        <time>2021-03-27T17:53:37Z</time>
      </trkpt>
      <trkpt lat="40.372922" lon="-5.056232">
        <ele>1343.4</ele>
        <time>2021-03-27T17:53:39Z</time>
      </trkpt>
      <trkpt lat="40.372942" lon="-5.056436">
        <ele>1342.7</ele>
        <time>2021-03-27T17:53:42Z</time>
      </trkpt>
      <trkpt lat="40.372939" lon="-5.057541">
        <ele>1345.16</ele>
        <time>2021-03-27T17:53:45Z</time>
      </trkpt>
      <trkpt lat="40.372915" lon="-5.057887">
        <ele>1344.4</ele>
        <time>2021-03-27T17:53:47Z</time>
      </trkpt>
      <trkpt lat="40.372836" lon="-5.058226">
        <ele>1343.21</ele>
        <time>2021-03-27T17:53:50Z</time>
      </trkpt>
      <trkpt lat="40.372521" lon="-5.05886">
        <ele>1344.82</ele>
        <time>2021-03-27T17:53:53Z</time>
      </trkpt>
      <trkpt lat="40.372172" lon="-5.059511">
        <ele>1345.44</ele>
        <time>2021-03-27T17:53:55Z</time>
      </trkpt>
      <trkpt lat="40.371948" lon="-5.059865">
        <ele>1344.02</ele>
        <time>2021-03-27T17:53:58Z</time>
      </trkpt>
      <trkpt lat="40.371721" lon="-5.060106">
        <ele>1343.19</ele>
        <time>2021-03-27T17:54:01Z</time>
      </trkpt>
      <trkpt lat="40.371069" lon="-5.060472">
        <ele>1342.34</ele>
        <time>2021-03-27T17:54:03Z</time>
      </trkpt>
      <trkpt lat="40.370876" lon="-5.060538">
        <ele>1343.76</ele>
        <time>2021-03-27T17:54:06Z</time>
      </trkpt>
      <trkpt lat="40.37069" lon="-5.060577">
        <ele>1346.33</ele>
        <time>2021-03-27T17:54:09Z</time>
      </trkpt>
      <trkpt lat="40.37011" lon="-5.06059">
        <ele>1351.44</ele>
        <time>2021-03-27T17:54:11Z</time>
      </trkpt>
      <trkpt lat="40.369616" lon="-5.060799">
        <ele>1355.55</ele>
        <time>2021-03-27T17:54:14Z</time>
      </trkpt>
      <trkpt lat="40.369284" lon="-5.061003">
        <ele>1358.31</ele>
        <time>2021-03-27T17:54:17Z</time>
      </trkpt>
      <trkpt lat="40.368215" lon="-5.062028">
        <ele>1363.67</ele>
        <time>2021-03-27T17:54:19Z</time>
      </trkpt>
      <trkpt lat="40.367979" lon="-5.0624">
        <ele>1367.39</ele>
        <time>2021-03-27T17:54:22Z</time>
      </trkpt>
      <trkpt lat="40.367578" lon="-5.063177">
        <ele>1372.02</ele>
        <time>2021-03-27T17:54:24Z</time>
      </trkpt>
      <trkpt lat="40.367003" lon="-5.064012">
        <ele>1376.2</ele>
        <time>2021-03-27T17:54:27Z</time>
      </trkpt>
      <trkpt lat="40.366819" lon="-5.064212">
        <ele>1374.52</ele>
        <time>2021-03-27T17:54:30Z</time>
      </trkpt>
      <trkpt lat="40.366169" lon="-5.064837">
        <ele>1376.13</ele>
        <time>2021-03-27T17:54:32Z</time>
      </trkpt>
      <trkpt lat="40.365963" lon="-5.065071">
        <ele>1377.46</ele>
        <time>2021-03-27T17:54:35Z</time>
      </trkpt>
      <trkpt lat="40.365711" lon="-5.065461">
        <ele>1378.2</ele>
        <time>2021-03-27T17:54:38Z</time>
      </trkpt>
      <trkpt lat="40.365625" lon="-5.065726">
        <ele>1379.94</ele>
        <time>2021-03-27T17:54:40Z</time>
      </trkpt>
      <trkpt lat="40.365324" lon="-5.067687">
        <ele>1393.85</ele>
        <time>2021-03-27T17:54:43Z</time>
      </trkpt>
      <trkpt lat="40.365276" lon="-5.068539">
        <ele>1392.95</ele>
        <time>2021-03-27T17:54:46Z</time>
      </trkpt>
      <trkpt lat="40.36529" lon="-5.068961">
        <ele>1395.89</ele>
        <time>2021-03-27T17:54:48Z</time>
      </trkpt>
      <trkpt lat="40.365339" lon="-5.069365">
        <ele>1400.58</ele>
        <time>2021-03-27T17:54:51Z</time>
      </trkpt>
      <trkpt lat="40.365343" lon="-5.069636">
        <ele>1403.42</ele>
        <time>2021-03-27T17:54:54Z</time>
      </trkpt>
      <trkpt lat="40.365314" lon="-5.069903">
        <ele>1405.98</ele>
        <time>2021-03-27T17:54:56Z</time>
      </trkpt>
      <trkpt lat="40.36507" lon="-5.070837">
        <ele>1408.87</ele>
        <time>2021-03-27T17:54:59Z</time>
      </trkpt>
      <trkpt lat="40.364912" lon="-5.071161">
        <ele>1410.96</ele>
        <time>2021-03-27T17:55:02Z</time>
      </trkpt>
      <trkpt lat="40.364689" lon="-5.071466">
        <ele>1414.27</ele>
        <time>2021-03-27T17:55:04Z</time>
      </trkpt>
      <trkpt lat="40.364416" lon="-5.071789">
        <ele>1416.27</ele>
        <time>2021-03-27T17:55:07Z</time>
      </trkpt>
      <trkpt lat="40.364251" lon="-5.071909">
        <ele>1416.49</ele>
        <time>2021-03-27T17:55:09Z</time>
      </trkpt>
      <trkpt lat="40.363611" lon="-5.072182">
        <ele>1421.1</ele>
        <time>2021-03-27T17:55:12Z</time>
      </trkpt>
      <trkpt lat="40.363104" lon="-5.072346">
        <ele>1421.58</ele>
        <time>2021-03-27T17:55:15Z</time>
      </trkpt>
      <trkpt lat="40.362746" lon="-5.072589">
        <ele>1426.34</ele>
        <time>2021-03-27T17:55:17Z</time>
      </trkpt>
      <trkpt lat="40.361973" lon="-5.073032">
        <ele>1431.5</ele>
        <time>2021-03-27T17:55:20Z</time>
      </trkpt>
      <trkpt lat="40.361636" lon="-5.073174">
        <ele>1432.1</ele>
        <time>2021-03-27T17:55:23Z</time>
      </trkpt>
      <trkpt lat="40.361194" lon="-5.073315">
        <ele>1430.99</ele>
        <time>2021-03-27T17:55:25Z</time>
      </trkpt>
      <trkpt lat="40.360897" lon="-5.073474">
        <ele>1430.79</ele>
        <time>2021-03-27T17:55:28Z</time>
      </trkpt>
      <trkpt lat="40.360484" lon="-5.073744">
        <ele>1431.41</ele>
        <time>2021-03-27T17:55:31Z</time>
      </trkpt>
      <trkpt lat="40.360116" lon="-5.07411">
        <ele>1438.18</ele>
        <time>2021-03-27T17:55:33Z</time>
      </trkpt>
      <trkpt lat="40.359892" lon="-5.074274">
        <ele>1439.15</ele>
        <time>2021-03-27T17:55:36Z</time>
      </trkpt>
      <trkpt lat="40.359624" lon="-5.074426">
        <ele>1438.71</ele>
        <time>2021-03-27T17:55:39Z</time>
      </trkpt>
      <trkpt lat="40.359522" lon="-5.07452">
        <ele>1439.18</ele>
        <time>2021-03-27T17:55:41Z</time>
      </trkpt>
      <trkpt lat="40.359403" lon="-5.074665">
        <ele>1439.74</ele>
        <time>2021-03-27T17:55:44Z</time>
      </trkpt>
      <trkpt lat="40.359287" lon="-5.074892">
        <ele>1441.34</ele>
        <time>2021-03-27T17:55:47Z</time>
      </trkpt>
      <trkpt lat="40.358768" lon="-5.076558">
        <ele>1454.69</ele>
        <time>2021-03-27T17:55:49Z</time>
      </trkpt>
      <trkpt lat="40.358627" lon="-5.076795">
        <ele>1454.28</ele>
        <time>2021-03-27T17:55:52Z</time>
      </trkpt>
      <trkpt lat="40.358387" lon="-5.077037">
        <ele>1455.28</ele>
        <time>2021-03-27T17:55:55Z</time>
      </trkpt>
      <trkpt lat="40.358072" lon="-5.077308">
        <ele>1455.89</ele>
        <time>2021-03-27T17:55:57Z</time>
      </trkpt>
      <trkpt lat="40.357964" lon="-5.07745">
        <ele>1456.51</ele>
        <time>2021-03-27T17:56:00Z</time>
      </trkpt>
      <trkpt lat="40.357826" lon="-5.077711">
        <ele>1458.18</ele>
        <time>2021-03-27T17:56:02Z</time>
      </trkpt>
      <trkpt lat="40.357366" lon="-5.079196">
        <ele>1466.6</ele>
        <time>2021-03-27T17:56:05Z</time>
      </trkpt>
      <trkpt lat="40.357276" lon="-5.079636">
        <ele>1470.48</ele>
        <time>2021-03-27T17:56:08Z</time>
      </trkpt>
      <trkpt lat="40.357184" lon="-5.07997">
        <ele>1473.41</ele>
        <time>2021-03-27T17:56:10Z</time>
      </trkpt>
      <trkpt lat="40.356923" lon="-5.080738">
        <ele>1475.17</ele>
        <time>2021-03-27T17:56:13Z</time>
      </trkpt>
      <trkpt lat="40.356742" lon="-5.081115">
        <ele>1476.8</ele>
        <time>2021-03-27T17:56:16Z</time>
      </trkpt>
      <trkpt lat="40.356518" lon="-5.081388">
        <ele>1478.23</ele>
        <time>2021-03-27T17:56:18Z</time>
      </trkpt>
      <trkpt lat="40.356388" lon="-5.081482">
        <ele>1477.68</ele>
        <time>2021-03-27T17:56:21Z</time>
      </trkpt>
      <trkpt lat="40.356236" lon="-5.081549">
        <ele>1478.84</ele>
        <time>2021-03-27T17:56:24Z</time>
      </trkpt>
      <trkpt lat="40.355594" lon="-5.081738">
        <ele>1481.17</ele>
        <time>2021-03-27T17:56:26Z</time>
      </trkpt>
      <trkpt lat="40.355437" lon="-5.081816">
        <ele>1481.68</ele>
        <time>2021-03-27T17:56:29Z</time>
      </trkpt>
      <trkpt lat="40.355221" lon="-5.082006">
        <ele>1483.62</ele>
        <time>2021-03-27T17:56:32Z</time>
      </trkpt>
      <trkpt lat="40.354312" lon="-5.083166">
        <ele>1491.92</ele>
        <time>2021-03-27T17:56:34Z</time>
      </trkpt>
      <trkpt lat="40.354213" lon="-5.083335">
        <ele>1492.86</ele>
        <time>2021-03-27T17:56:37Z</time>
      </trkpt>
      <trkpt lat="40.354066" lon="-5.083726">
        <ele>1495.49</ele>
        <time>2021-03-27T17:56:40Z</time>
      </trkpt>
      <trkpt lat="40.35395" lon="-5.084233">
        <ele>1498.56</ele>
        <time>2021-03-27T17:56:42Z</time>
      </trkpt>
      <trkpt lat="40.353929" lon="-5.084581">
        <ele>1498.37</ele>
        <time>2021-03-27T17:56:45Z</time>
      </trkpt>
      <trkpt lat="40.353943" lon="-5.085666">
        <ele>1502.87</ele>
        <time>2021-03-27T17:56:47Z</time>
      </trkpt>
      <trkpt lat="40.353923" lon="-5.085878">
        <ele>1505.39</ele>
        <time>2021-03-27T17:56:50Z</time>
      </trkpt>
      <trkpt lat="40.353875" lon="-5.086067">
        <ele>1506.91</ele>
        <time>2021-03-27T17:56:53Z</time>
      </trkpt>
      <trkpt lat="40.353805" lon="-5.086232">
        <ele>1507.14</ele>
        <time>2021-03-27T17:56:55Z</time>
      </trkpt>
      <trkpt lat="40.353338" lon="-5.086999">
        <ele>1508.47</ele>
        <time>2021-03-27T17:56:58Z</time>
      </trkpt>
      <trkpt lat="40.353194" lon="-5.087179">
        <ele>1510.5</ele>
        <time>2021-03-27T17:57:01Z</time>
      </trkpt>
      <trkpt lat="40.353003" lon="-5.087325">
        <ele>1511.51</ele>
        <time>2021-03-27T17:57:03Z</time>
      </trkpt>
      <trkpt lat="40.352829" lon="-5.087418">
        <ele>1512.42</ele>
        <time>2021-03-27T17:57:06Z</time>
      </trkpt>
      <trkpt lat="40.352353" lon="-5.087605">
        <ele>1515.2</ele>
        <time>2021-03-27T17:57:09Z</time>
      </trkpt>
      <trkpt lat="40.352096" lon="-5.087821">
        <ele>1516.64</ele>
        <time>2021-03-27T17:57:11Z</time>
      </trkpt>
      <trkpt lat="40.351924" lon="-5.088071">
        <ele>1518.06</ele>
        <time>2021-03-27T17:57:14Z</time>
      </trkpt>
      <trkpt lat="40.351825" lon="-5.088285">
        <ele>1519.38</ele>
        <time>2021-03-27T17:57:17Z</time>
      </trkpt>
      <trkpt lat="40.351768" lon="-5.088456">
        <ele>1519.43</ele>
        <time>2021-03-27T17:57:19Z</time>
      </trkpt>
      <trkpt lat="40.351733" lon="-5.088641">
        <ele>1519.57</ele>
        <time>2021-03-27T17:57:22Z</time>
      </trkpt>
      <trkpt lat="40.351699" lon="-5.088977">
        <ele>1519.97</ele>
        <time>2021-03-27T17:57:25Z</time>
      </trkpt>
      <trkpt lat="40.351692" lon="-5.089313">
        <ele>1521.54</ele>
        <time>2021-03-27T17:57:27Z</time>
      </trkpt>
      <trkpt lat="40.351741" lon="-5.090427">
        <ele>1528.0</ele>
        <time>2021-03-27T17:57:30Z</time>
      </trkpt>
      <trkpt lat="40.351772" lon="-5.090602">
        <ele>1528.67</ele>
        <time>2021-03-27T17:57:32Z</time>
      </trkpt>
      <trkpt lat="40.351826" lon="-5.090792">
        <ele>1530.03</ele>
        <time>2021-03-27T17:57:35Z</time>
      </trkpt>
      <trkpt lat="40.352237" lon="-5.091802">
        <ele>1534.75</ele>
        <time>2021-03-27T17:57:38Z</time>
      </trkpt>
      <trkpt lat="40.352298" lon="-5.092007">
        <ele>1535.14</ele>
        <time>2021-03-27T17:57:40Z</time>
      </trkpt>
      <trkpt lat="40.352367" lon="-5.092432">
        <ele>1535.24</ele>
        <time>2021-03-27T17:57:43Z</time>
      </trkpt>
      <trkpt lat="40.352367" lon="-5.092669">
        <ele>1536.05</ele>
        <time>2021-03-27T17:57:46Z</time>
      </trkpt>
      <trkpt lat="40.352284" lon="-5.093625">
        <ele>1541.8</ele>
        <time>2021-03-27T17:57:48Z</time>
      </trkpt>
      <trkpt lat="40.352293" lon="-5.093843">
        <ele>1542.46</ele>
        <time>2021-03-27T17:57:51Z</time>
      </trkpt>
      <trkpt lat="40.352354" lon="-5.094198">
        <ele>1543.16</ele>
        <time>2021-03-27T17:57:54Z</time>
      </trkpt>
      <trkpt lat="40.352413" lon="-5.094365">
        <ele>1543.34</ele>
        <time>2021-03-27T17:57:56Z</time>
      </trkpt>
      <trkpt lat="40.352497" lon="-5.094505">
        <ele>1543.31</ele>
        <time>2021-03-27T17:57:59Z</time>
      </trkpt>
      <trkpt lat="40.352574" lon="-5.094622">
        <ele>1542.72</ele>
        <time>2021-03-27T17:58:02Z</time>
      </trkpt>
      <trkpt lat="40.352678" lon="-5.094727">
        <ele>1542.23</ele>
        <time>2021-03-27T17:58:04Z</time>
      </trkpt>
      <trkpt lat="40.352948" lon="-5.094891">
        <ele>1542.16</ele>
        <time>2021-03-27T17:58:07Z</time>
      </trkpt>
      <trkpt lat="40.353306" lon="-5.095035">
        <ele>1543.81</ele>
        <time>2021-03-27T17:58:10Z</time>
      </trkpt>
      <trkpt lat="40.353453" lon="-5.095119">
        <ele>1544.43</ele>
        <time>2021-03-27T17:58:12Z</time>
      </trkpt>
      <trkpt lat="40.353589" lon="-5.095236">
        <ele>1544.92</ele>
        <time>2021-03-27T17:58:15Z</time>
      </trkpt>
      <trkpt lat="40.353708" lon="-5.095395">
        <ele>1544.87</ele>
        <time>2021-03-27T17:58:17Z</time>
      </trkpt>
      <trkpt lat="40.353799" lon="-5.095566">
        <ele>1545.37</ele>
        <time>2021-03-27T17:58:20Z</time>
      </trkpt>
      <trkpt lat="40.353872" lon="-5.095769">
        <ele>1545.93</ele>
        <time>2021-03-27T17:58:23Z</time>
      </trkpt>
      <trkpt lat="40.353908" lon="-5.095975">
        <ele>1547.09</ele>
        <time>2021-03-27T17:58:25Z</time>
      </trkpt>
      <trkpt lat="40.353915" lon="-5.096196">
        <ele>1548.89</ele>
        <time>2021-03-27T17:58:28Z</time>
      </trkpt>
      <trkpt lat="40.353795" lon="-5.099066">
        <ele>1567.77</ele>
        <time>2021-03-27T17:58:31Z</time>
      </trkpt>
      <trkpt lat="40.353789" lon="-5.09947">
        <ele>1569.68</ele>
        <time>2021-03-27T17:58:33Z</time>
      </trkpt>
      <trkpt lat="40.353808" lon="-5.099804">
        <ele>1571.51</ele>
        <time>2021-03-27T17:58:36Z</time>
      </trkpt>
      <trkpt lat="40.354077" lon="-5.101864">
        <ele>1577.07</ele>
        <time>2021-03-27T17:58:39Z</time>
      </trkpt>
      <trkpt lat="40.354481" lon="-5.104194">
        <ele>1573.9</ele>
        <time>2021-03-27T17:58:41Z</time>
      </trkpt>
      <trkpt lat="40.354816" lon="-5.105495">
        <ele>1576.33</ele>
        <time>2021-03-27T17:58:44Z</time>
      </trkpt>
      <trkpt lat="40.355022" lon="-5.106651">
        <ele>1575.11</ele>
        <time>2021-03-27T17:58:47Z</time>
      </trkpt>
      <trkpt lat="40.35528" lon="-5.107398">
        <ele>1578.8</ele>
        <time>2021-03-27T17:58:49Z</time>
      </trkpt>
      <trkpt lat="40.355369" lon="-5.10775">
        <ele>1577.94</ele>
        <time>2021-03-27T17:58:52Z</time>
      </trkpt>
      <trkpt lat="40.355415" lon="-5.108172">
        <ele>1575.82</ele>
        <time>2021-03-27T17:58:55Z</time>
      </trkpt>
      <trkpt lat="40.35541" lon="-5.108568">
        <ele>1573.95</ele>
        <time>2021-03-27T17:58:57Z</time>
      </trkpt>
      <trkpt lat="40.355377" lon="-5.108777">
        <ele>1572.81</ele>
        <time>2021-03-27T17:59:00Z</time>
      </trkpt>
      <trkpt lat="40.355278" lon="-5.109177">
        <ele>1572.22</ele>
        <time>2021-03-27T17:59:03Z</time>
      </trkpt>
      <trkpt lat="40.355167" lon="-5.109464">
        <ele>1576.11</ele>
        <time>2021-03-27T17:59:05Z</time>
      </trkpt>
      <trkpt lat="40.3548" lon="-5.110117">
        <ele>1581.16</ele>
        <time>2021-03-27T17:59:08Z</time>
      </trkpt>
      <trkpt lat="40.354606" lon="-5.110648">
        <ele>1583.52</ele>
        <time>2021-03-27T17:59:10Z</time>
      </trkpt>
      <trkpt lat="40.354453" lon="-5.111527">
        <ele>1588.29</ele>
        <time>2021-03-27T17:59:13Z</time>
      </trkpt>
      <trkpt lat="40.35441" lon="-5.111959">
        <ele>1590.06</ele>
        <time>2021-03-27T17:59:16Z</time>
      </trkpt>
      <trkpt lat="40.35442" lon="-5.112167">
        <ele>1591.16</ele>
        <time>2021-03-27T17:59:18Z</time>
      </trkpt>
      <trkpt lat="40.35448" lon="-5.112441">
        <ele>1591.69</ele>
        <time>2021-03-27T17:59:21Z</time>
      </trkpt>
      <trkpt lat="40.354605" lon="-5.112662">
        <ele>1592.64</ele>
        <time>2021-03-27T17:59:24Z</time>
      </trkpt>
      <trkpt lat="40.354723" lon="-5.112777">
        <ele>1593.02</ele>
        <time>2021-03-27T17:59:26Z</time>
      </trkpt>
      <trkpt lat="40.354883" lon="-5.112888">
        <ele>1593.72</ele>
        <time>2021-03-27T17:59:29Z</time>
      </trkpt>
      <trkpt lat="40.355051" lon="-5.11296">
        <ele>1594.03</ele>
        <time>2021-03-27T17:59:32Z</time>
      </trkpt>
      <trkpt lat="40.355654" lon="-5.112989">
        <ele>1596.73</ele>
        <time>2021-03-27T17:59:34Z</time>
      </trkpt>
      <trkpt lat="40.355736" lon="-5.113017">
        <ele>1597.8</ele>
        <time>2021-03-27T17:59:37Z</time>
      </trkpt>
      <trkpt lat="40.355816" lon="-5.113078">
        <ele>1598.3</ele>
        <time>2021-03-27T17:59:40Z</time>
      </trkpt>
      <trkpt lat="40.355923" lon="-5.113211">
        <ele>1598.0</ele>
        <time>2021-03-27T17:59:42Z</time>
      </trkpt>
      <trkpt lat="40.355991" lon="-5.113386">
        <ele>1596.83</ele>
        <time>2021-03-27T17:59:45Z</time>
      </trkpt>
      <trkpt lat="40.356039" lon="-5.11356">
        <ele>1595.98</ele>
        <time>2021-03-27T17:59:48Z</time>
      </trkpt>
      <trkpt lat="40.356052" lon="-5.113749">
        <ele>1594.74</ele>
        <time>2021-03-27T17:59:50Z</time>
      </trkpt>
      <trkpt lat="40.355778" lon="-5.116077">
        <ele>1587.43</ele>
        <time>2021-03-27T17:59:53Z</time>
      </trkpt>
      <trkpt lat="40.355763" lon="-5.11644">
        <ele>1584.72</ele>
        <time>2021-03-27T17:59:55Z</time>
      </trkpt>
      <trkpt lat="40.35578" lon="-5.116736">
        <ele>1582.64</ele>
        <time>2021-03-27T17:59:58Z</time>
      </trkpt>
      <trkpt lat="40.355859" lon="-5.117128">
        <ele>1583.71</ele>
        <time>2021-03-27T18:00:01Z</time>
      </trkpt>
      <trkpt lat="40.356051" lon="-5.117918">
        <ele>1583.18</ele>
        <time>2021-03-27T18:00:03Z</time>
      </trkpt>
      <trkpt lat="40.356165" lon="-5.118281">
        <ele>1579.88</ele>
        <time>2021-03-27T18:00:06Z</time>
      </trkpt>
      <trkpt lat="40.356298" lon="-5.118607">
        <ele>1579.72</ele>
        <time>2021-03-27T18:00:09Z</time>
      </trkpt>
      <trkpt lat="40.357889" lon="-5.121698">
        <ele>1562.57</ele>
        <time>2021-03-27T18:00:11Z</time>
      </trkpt>
      <trkpt lat="40.358162" lon="-5.122266">
        <ele>1553.46</ele>
        <time>2021-03-27T18:00:14Z</time>
      </trkpt>
      <trkpt lat="40.358272" lon="-5.122589">
        <ele>1549.58</ele>
        <time>2021-03-27T18:00:17Z</time>
      </trkpt>
      <trkpt lat="40.358385" lon="-5.123178">
        <ele>1548.0</ele>
        <time>2021-03-27T18:00:19Z</time>
      </trkpt>
      <trkpt lat="40.358417" lon="-5.12359">
        <ele>1549.83</ele>
        <time>2021-03-27T18:00:22Z</time>
      </trkpt>
      <trkpt lat="40.358405" lon="-5.12404">
        <ele>1549.99</ele>
        <time>2021-03-27T18:00:25Z</time>
      </trkpt>
      <trkpt lat="40.358336" lon="-5.124445">
        <ele>1550.04</ele>
        <time>2021-03-27T18:00:27Z</time>
      </trkpt>
      <trkpt lat="40.35825" lon="-5.124763">
        <ele>1549.65</ele>
        <time>2021-03-27T18:00:30Z</time>
      </trkpt>
      <trkpt lat="40.358099" lon="-5.125208">
        <ele>1548.41</ele>
        <time>2021-03-27T18:00:33Z</time>
      </trkpt>
      <trkpt lat="40.357547" lon="-5.126641">
        <ele>1546.41</ele>
        <time>2021-03-27T18:00:35Z</time>
      </trkpt>
      <trkpt lat="40.357492" lon="-5.126837">
        <ele>1547.08</ele>
        <time>2021-03-27T18:00:38Z</time>
      </trkpt>
      <trkpt lat="40.357468" lon="-5.127182">
        <ele>1548.28</ele>
        <time>2021-03-27T18:00:40Z</time>
      </trkpt>
      <trkpt lat="40.35752" lon="-5.127563">
        <ele>1548.48</ele>
        <time>2021-03-27T18:00:43Z</time>
      </trkpt>
      <trkpt lat="40.357763" lon="-5.128272">
        <ele>1543.7</ele>
        <time>2021-03-27T18:00:46Z</time>
      </trkpt>
      <trkpt lat="40.358293" lon="-5.129647">
        <ele>1533.56</ele>
        <time>2021-03-27T18:00:48Z</time>
      </trkpt>
      <trkpt lat="40.358382" lon="-5.129982">
        <ele>1532.24</ele>
        <time>2021-03-27T18:00:51Z</time>
      </trkpt>
      <trkpt lat="40.358427" lon="-5.130219">
        <ele>1531.81</ele>
        <time>2021-03-27T18:00:54Z</time>
      </trkpt>
      <trkpt lat="40.358443" lon="-5.130539">
        <ele>1532.36</ele>
        <time>2021-03-27T18:00:56Z</time>
      </trkpt>
      <trkpt lat="40.358435" lon="-5.131173">
        <ele>1532.39</ele>
        <time>2021-03-27T18:00:59Z</time>
      </trkpt>
      <trkpt lat="40.358453" lon="-5.131563">
        <ele>1532.99</ele>
        <time>2021-03-27T18:01:02Z</time>
      </trkpt>
      <trkpt lat="40.358532" lon="-5.131903">
        <ele>1533.11</ele>
        <time>2021-03-27T18:01:04Z</time>
      </trkpt>
      <trkpt lat="40.358643" lon="-5.132222">
        <ele>1532.12</ele>
        <time>2021-03-27T18:01:07Z</time>
      </trkpt>
      <trkpt lat="40.358813" lon="-5.132525">
        <ele>1529.55</ele>
        <time>2021-03-27T18:01:10Z</time>
      </trkpt>
      <trkpt lat="40.358922" lon="-5.132654">
        <ele>1529.06</ele>
        <time>2021-03-27T18:01:12Z</time>
      </trkpt>
      <trkpt lat="40.360405" lon="-5.134224">
        <ele>1522.79</ele>
        <time>2021-03-27T18:01:15Z</time>
      </trkpt>
      <trkpt lat="40.36179" lon="-5.135741">
        <ele>1526.89</ele>
        <time>2021-03-27T18:01:18Z</time>
      </trkpt>
      <trkpt lat="40.361926" lon="-5.135958">
        <ele>1527.87</ele>
        <time>2021-03-27T18:01:20Z</time>
      </trkpt>
      <trkpt lat="40.362013" lon="-5.136224">
        <ele>1527.59</ele>
        <time>2021-03-27T18:01:23Z</time>
      </trkpt>
      <trkpt lat="40.362057" lon="-5.136435">
        <ele>1526.77</ele>
        <time>2021-03-27T18:01:26Z</time>
      </trkpt>
      <trkpt lat="40.362078" lon="-5.136696">
        <ele>1525.62</ele>
        <time>2021-03-27T18:01:28Z</time>
      </trkpt>
      <trkpt lat="40.362116" lon="-5.138209">
        <ele>1529.87</ele>
        <time>2021-03-27T18:01:31Z</time>
      </trkpt>
      <trkpt lat="40.362201" lon="-5.138894">
        <ele>1534.09</ele>
        <time>2021-03-27T18:01:33Z</time>
      </trkpt>
      <trkpt lat="40.36239" lon="-5.139781">
        <ele>1542.2</ele>
        <time>2021-03-27T18:01:36Z</time>
      </trkpt>
      <trkpt lat="40.362876" lon="-5.141476">
        <ele>1542.49</ele>
        <time>2021-03-27T18:01:39Z</time>
      </trkpt>
      <trkpt lat="40.362928" lon="-5.141795">
        <ele>1546.18</ele>
        <time>2021-03-27T18:01:41Z</time>
      </trkpt>
      <trkpt lat="40.362933" lon="-5.142153">
        <ele>1548.45</ele>
        <time>2021-03-27T18:01:44Z</time>
      </trkpt>
      <trkpt lat="40.362904" lon="-5.142359">
        <ele>1548.23</ele>
        <time>2021-03-27T18:01:47Z</time>
      </trkpt>
      <trkpt lat="40.362783" lon="-5.142772">
        <ele>1548.0</ele>
        <time>2021-03-27T18:01:49Z</time>
      </trkpt>
      <trkpt lat="40.36264" lon="-5.143041">
        <ele>1549.44</ele>
        <time>2021-03-27T18:01:52Z</time>
      </trkpt>
      <trkpt lat="40.362327" lon="-5.143462">
        <ele>1548.71</ele>
        <time>2021-03-27T18:01:55Z</time>
      </trkpt>
      <trkpt lat="40.36226" lon="-5.143607">
        <ele>1548.15</ele>
        <time>2021-03-27T18:01:57Z</time>
      </trkpt>
      <trkpt lat="40.362218" lon="-5.143775">
        <ele>1547.4</ele>
        <time>2021-03-27T18:02:00Z</time>
      </trkpt>
      <trkpt lat="40.362067" lon="-5.145956">
        <ele>1547.21</ele>
        <time>2021-03-27T18:02:03Z</time>
      </trkpt>
      <trkpt lat="40.362064" lon="-5.146145">
        <ele>1547.79</ele>
        <time>2021-03-27T18:02:05Z</time>
      </trkpt>
      <trkpt lat="40.362149" lon="-5.147221">
        <ele>1548.22</ele>
        <time>2021-03-27T18:02:08Z</time>
      </trkpt>
      <trkpt lat="40.362243" lon="-5.147298">
        <ele>1548.95</ele>
        <time>2021-03-27T18:02:09Z</time>
      </trkpt>
      <trkpt lat="40.36231" lon="-5.147319">
        <ele>1549.6</ele>
        <time>2021-03-27T18:02:11Z</time>
      </trkpt>
      <trkpt lat="40.362393" lon="-5.147276">
        <ele>1550.66</ele>
        <time>2021-03-27T18:02:13Z</time>
      </trkpt>
      <trkpt lat="40.362523" lon="-5.147122">
        <ele>1553.02</ele>
        <time>2021-03-27T18:02:14Z</time>
      </trkpt>
      <trkpt lat="40.362759" lon="-5.14667">
        <ele>1556.8</ele>
        <time>2021-03-27T18:02:16Z</time>
      </trkpt>
      <trkpt lat="40.362814" lon="-5.146607">
        <ele>1557.05</ele>
        <time>2021-03-27T18:02:17Z</time>
      </trkpt>
      <trkpt lat="40.362999" lon="-5.146491">
        <ele>1557.96</ele>
        <time>2021-03-27T18:02:19Z</time>
      </trkpt>
      <trkpt lat="40.36309" lon="-5.146476">
        <ele>1558.44</ele>
        <time>2021-03-27T18:02:21Z</time>
      </trkpt>
      <trkpt lat="40.363236" lon="-5.14687">
        <ele>1559.65</ele>
        <time>2021-03-27T18:02:24Z</time>
      </trkpt>
      <trkpt lat="40.36332" lon="-5.146959">
        <ele>1559.9</ele>
        <time>2021-03-27T18:02:28Z</time>
      </trkpt>
      <trkpt lat="40.363373" lon="-5.146988">
        <ele>1559.99</ele>
        <time>2021-03-27T18:02:31Z</time>
      </trkpt>
      <trkpt lat="40.363483" lon="-5.146981">
        <ele>1560.41</ele>
        <time>2021-03-27T18:02:35Z</time>
      </trkpt>
      <trkpt lat="40.363662" lon="-5.146909">
        <ele>1560.82</ele>
        <time>2021-03-27T18:02:39Z</time>
      </trkpt>
      <trkpt lat="40.363763" lon="-5.146919">
        <ele>1560.45</ele>
        <time>2021-03-27T18:02:42Z</time>
      </trkpt>
      <trkpt lat="40.363846" lon="-5.146978">
        <ele>1560.14</ele>
        <time>2021-03-27T18:02:46Z</time>
      </trkpt>
      <trkpt lat="40.364099" lon="-5.147339">
        <ele>1560.0</ele>
        <time>2021-03-27T18:02:50Z</time>
      </trkpt>
      <trkpt lat="40.364233" lon="-5.147434">
        <ele>1560.3</ele>
        <time>2021-03-27T18:02:53Z</time>
      </trkpt>
      <trkpt lat="40.364623" lon="-5.147574">
        <ele>1562.84</ele>
        <time>2021-03-27T18:02:57Z</time>
      </trkpt>
      <trkpt lat="40.364881" lon="-5.147597">
        <ele>1565.91</ele>
        <time>2021-03-27T18:03:01Z</time>
      </trkpt>
      <trkpt lat="40.365489" lon="-5.147553">
        <ele>1572.28</ele>
        <time>2021-03-27T18:03:04Z</time>
      </trkpt>
      <trkpt lat="40.365581" lon="-5.147593">
        <ele>1573.19</ele>
        <time>2021-03-27T18:03:08Z</time>
      </trkpt>
      <trkpt lat="40.365663" lon="-5.14765">
        <ele>1573.77</ele>
        <time>2021-03-27T18:03:11Z</time>
      </trkpt>
      <trkpt lat="40.365999" lon="-5.148052">
        <ele>1576.78</ele>
        <time>2021-03-27T18:03:15Z</time>
      </trkpt>
      <trkpt lat="40.366752" lon="-5.148508">
        <ele>1583.44</ele>
        <time>2021-03-27T18:03:19Z</time>
      </trkpt>
      <trkpt lat="40.367044" lon="-5.148747">
        <ele>1586.9</ele>
        <time>2021-03-27T18:03:22Z</time>
      </trkpt>
      <trkpt lat="40.367364" lon="-5.149094">
        <ele>1590.53</ele>
        <time>2021-03-27T18:03:26Z</time>
      </trkpt>
      <trkpt lat="40.367728" lon="-5.149354">
        <ele>1595.28</ele>
        <time>2021-03-27T18:03:30Z</time>
      </trkpt>
      <trkpt lat="40.368244" lon="-5.14963">
        <ele>1604.62</ele>
        <time>2021-03-27T18:03:33Z</time>
      </trkpt>
      <trkpt lat="40.369152" lon="-5.150441">
        <ele>1613.26</ele>
        <time>2021-03-27T18:03:37Z</time>
      </trkpt>
      <trkpt lat="40.369498" lon="-5.150802">
        <ele>1615.0</ele>
        <time>2021-03-27T18:03:41Z</time>
      </trkpt>
      <trkpt lat="40.369746" lon="-5.15111">
        <ele>1616.35</ele>
        <time>2021-03-27T18:03:44Z</time>
      </trkpt>
      <trkpt lat="40.3702" lon="-5.151539">
        <ele>1620.63</ele>
        <time>2021-03-27T18:03:48Z</time>
      </trkpt>
      <trkpt lat="40.370557" lon="-5.151936">
        <ele>1625.99</ele>
        <time>2021-03-27T18:03:52Z</time>
      </trkpt>
      <trkpt lat="40.370939" lon="-5.152615">
        <ele>1629.59</ele>
        <time>2021-03-27T18:03:55Z</time>
      </trkpt>
      <trkpt lat="40.371194" lon="-5.152959">
        <ele>1631.19</ele>
        <time>2021-03-27T18:03:59Z</time>
      </trkpt>
      <trkpt lat="40.371496" lon="-5.15325">
        <ele>1636.41</ele>
        <time>2021-03-27T18:04:02Z</time>
      </trkpt>
      <trkpt lat="40.371947" lon="-5.153625">
        <ele>1640.08</ele>
        <time>2021-03-27T18:04:06Z</time>
      </trkpt>
      <trkpt lat="40.372697" lon="-5.153663">
        <ele>1648.25</ele>
        <time>2021-03-27T18:04:10Z</time>
      </trkpt>
      <trkpt lat="40.372895" lon="-5.153519">
        <ele>1648.85</ele>
        <time>2021-03-27T18:04:13Z</time>
      </trkpt>
      <trkpt lat="40.374211" lon="-5.152311">
        <ele>1658.85</ele>
        <time>2021-03-27T18:04:17Z</time>
      </trkpt>
      <trkpt lat="40.374356" lon="-5.152232">
        <ele>1660.11</ele>
        <time>2021-03-27T18:04:21Z</time>
      </trkpt>
      <trkpt lat="40.374488" lon="-5.152227">
        <ele>1661.66</ele>
        <time>2021-03-27T18:04:24Z</time>
      </trkpt>
      <trkpt lat="40.375238" lon="-5.152316">
        <ele>1667.41</ele>
        <time>2021-03-27T18:04:28Z</time>
      </trkpt>
      <trkpt lat="40.375988" lon="-5.152265">
        <ele>1671.73</ele>
        <time>2021-03-27T18:04:32Z</time>
      </trkpt>
      <trkpt lat="40.376509" lon="-5.152424">
        <ele>1672.71</ele>
        <time>2021-03-27T18:04:35Z</time>
      </trkpt>
      <trkpt lat="40.376716" lon="-5.152355">
        <ele>1673.7</ele>
        <time>2021-03-27T18:04:39Z</time>
      </trkpt>
      <trkpt lat="40.377173" lon="-5.152086">
        <ele>1677.31</ele>
        <time>2021-03-27T18:04:42Z</time>
      </trkpt>
      <trkpt lat="40.377456" lon="-5.151955">
        <ele>1676.34</ele>
        <time>2021-03-27T18:04:46Z</time>
      </trkpt>
      <trkpt lat="40.377724" lon="-5.151973">
        <ele>1678.53</ele>
        <time>2021-03-27T18:04:50Z</time>
      </trkpt>
      <trkpt lat="40.3785" lon="-5.152149">
        <ele>1687.29</ele>
        <time>2021-03-27T18:04:53Z</time>
      </trkpt>
      <trkpt lat="40.378819" lon="-5.152189">
        <ele>1688.03</ele>
        <time>2021-03-27T18:04:57Z</time>
      </trkpt>
      <trkpt lat="40.379081" lon="-5.152159">
        <ele>1689.77</ele>
        <time>2021-03-27T18:05:01Z</time>
      </trkpt>
      <trkpt lat="40.379636" lon="-5.151874">
        <ele>1695.63</ele>
        <time>2021-03-27T18:05:04Z</time>
      </trkpt>
      <trkpt lat="40.380564" lon="-5.151352">
        <ele>1703.93</ele>
        <time>2021-03-27T18:05:08Z</time>
      </trkpt>
      <trkpt lat="40.3808" lon="-5.151318">
        <ele>1705.72</ele>
        <time>2021-03-27T18:05:12Z</time>
      </trkpt>
      <trkpt lat="40.381503" lon="-5.151414">
        <ele>1712.24</ele>
        <time>2021-03-27T18:05:15Z</time>
      </trkpt>
      <trkpt lat="40.382455" lon="-5.151234">
        <ele>1714.37</ele>
        <time>2021-03-27T18:05:19Z</time>
      </trkpt>
      <trkpt lat="40.38301" lon="-5.15121">
        <ele>1719.56</ele>
        <time>2021-03-27T18:05:23Z</time>
      </trkpt>
      <trkpt lat="40.383496" lon="-5.15122">
        <ele>1722.66</ele>
        <time>2021-03-27T18:05:26Z</time>
      </trkpt>
      <trkpt lat="40.384616" lon="-5.151494">
        <ele>1730.24</ele>
        <time>2021-03-27T18:05:30Z</time>
      </trkpt>
      <trkpt lat="40.385277" lon="-5.151512">
        <ele>1733.0</ele>
        <time>2021-03-27T18:05:33Z</time>
      </trkpt>
      <trkpt lat="40.39184" lon="-5.151487">
        <ele>1766.27</ele>
        <time>2021-03-27T18:05:37Z</time>
      </trkpt>
      <trkpt lat="40.392685" lon="-5.151716">
        <ele>1767.67</ele>
        <time>2021-03-27T18:05:41Z</time>
      </trkpt>
      <trkpt lat="40.393057" lon="-5.151754">
        <ele>1768.68</ele>
        <time>2021-03-27T18:05:44Z</time>
      </trkpt>
      <trkpt lat="40.393416" lon="-5.151716">
        <ele>1768.52</ele>
        <time>2021-03-27T18:05:48Z</time>
      </trkpt>
      <trkpt lat="40.394549" lon="-5.151314">
        <ele>1766.51</ele>
        <time>2021-03-27T18:05:52Z</time>
      </trkpt>
      <trkpt lat="40.394888" lon="-5.151255">
        <ele>1763.04</ele>
        <time>2021-03-27T18:05:55Z</time>
      </trkpt>
      <trkpt lat="40.395681" lon="-5.151312">
        <ele>1753.94</ele>
        <time>2021-03-27T18:05:59Z</time>
      </trkpt>
      <trkpt lat="40.396145" lon="-5.151245">
        <ele>1750.4</ele>
        <time>2021-03-27T18:06:03Z</time>
      </trkpt>
      <trkpt lat="40.397036" lon="-5.151007">
        <ele>1745.34</ele>
        <time>2021-03-27T18:06:06Z</time>
      </trkpt>
      <trkpt lat="40.398215" lon="-5.150733">
        <ele>1735.94</ele>
        <time>2021-03-27T18:06:10Z</time>
      </trkpt>
      <trkpt lat="40.398433" lon="-5.150739">
        <ele>1733.54</ele>
        <time>2021-03-27T18:06:13Z</time>
      </trkpt>
      <trkpt lat="40.399053" lon="-5.150962">
        <ele>1729.21</ele>
        <time>2021-03-27T18:06:17Z</time>
      </trkpt>
      <trkpt lat="40.400361" lon="-5.151262">
        <ele>1714.6</ele>
        <time>2021-03-27T18:06:21Z</time>
      </trkpt>
      <trkpt lat="40.401009" lon="-5.151382">
        <ele>1708.47</ele>
        <time>2021-03-27T18:06:24Z</time>
      </trkpt>
      <trkpt lat="40.401534" lon="-5.151582">
        <ele>1694.17</ele>
        <time>2021-03-27T18:06:28Z</time>
      </trkpt>
      <trkpt lat="40.401534" lon="-5.151582">
        <ele>1694.17</ele>
        <time>2021-03-27T18:06:28Z</time>
      </trkpt>
      <trkpt lat="40.40262" lon="-5.152042">
        <ele>1686.88</ele>
        <time>2021-03-27T18:06:32Z</time>
      </trkpt>
      <trkpt lat="40.402999" lon="-5.152256">
        <ele>1683.06</ele>
        <time>2021-03-27T18:06:37Z</time>
      </trkpt>
      <trkpt lat="40.403416" lon="-5.152528">
        <ele>1677.97</ele>
        <time>2021-03-27T18:06:41Z</time>
      </trkpt>
      <trkpt lat="40.403781" lon="-5.152698">
        <ele>1675.48</ele>
        <time>2021-03-27T18:06:46Z</time>
      </trkpt>
      <trkpt lat="40.404142" lon="-5.152746">
        <ele>1673.86</ele>
        <time>2021-03-27T18:06:50Z</time>
      </trkpt>
      <trkpt lat="40.404651" lon="-5.152656">
        <ele>1676.58</ele>
        <time>2021-03-27T18:06:55Z</time>
      </trkpt>
      <trkpt lat="40.405045" lon="-5.152616">
        <ele>1677.35</ele>
        <time>2021-03-27T18:06:59Z</time>
      </trkpt>
      <trkpt lat="40.405298" lon="-5.152636">
        <ele>1678.99</ele>
        <time>2021-03-27T18:07:03Z</time>
      </trkpt>
      <trkpt lat="40.405576" lon="-5.152798">
        <ele>1681.15</ele>
        <time>2021-03-27T18:07:08Z</time>
      </trkpt>
      <trkpt lat="40.405836" lon="-5.152995">
        <ele>1683.11</ele>
        <time>2021-03-27T18:07:12Z</time>
      </trkpt>
      <trkpt lat="40.406119" lon="-5.153265">
        <ele>1682.66</ele>
        <time>2021-03-27T18:07:17Z</time>
      </trkpt>
      <trkpt lat="40.406682" lon="-5.153966">
        <ele>1684.9</ele>
        <time>2021-03-27T18:07:21Z</time>
      </trkpt>
      <trkpt lat="40.406899" lon="-5.154156">
        <ele>1685.31</ele>
        <time>2021-03-27T18:07:25Z</time>
      </trkpt>
      <trkpt lat="40.408073" lon="-5.154807">
        <ele>1679.82</ele>
        <time>2021-03-27T18:07:30Z</time>
      </trkpt>
      <trkpt lat="40.409974" lon="-5.155684">
        <ele>1664.56</ele>
        <time>2021-03-27T18:07:34Z</time>
      </trkpt>
      <trkpt lat="40.410702" lon="-5.155688">
        <ele>1659.94</ele>
        <time>2021-03-27T18:07:39Z</time>
      </trkpt>
      <trkpt lat="40.411078" lon="-5.155717">
        <ele>1655.41</ele>
        <time>2021-03-27T18:07:43Z</time>
      </trkpt>
      <trkpt lat="40.411398" lon="-5.155904">
        <ele>1650.61</ele>
        <time>2021-03-27T18:07:48Z</time>
      </trkpt>
      <trkpt lat="40.412384" lon="-5.15682">
        <ele>1642.42</ele>
        <time>2021-03-27T18:07:52Z</time>
      </trkpt>
      <trkpt lat="40.412677" lon="-5.157">
        <ele>1641.1</ele>
        <time>2021-03-27T18:07:56Z</time>
      </trkpt>
      <trkpt lat="40.413201" lon="-5.157126">
        <ele>1636.64</ele>
        <time>2021-03-27T18:08:01Z</time>
      </trkpt>
      <trkpt lat="40.413986" lon="-5.157225">
        <ele>1629.3</ele>
        <time>2021-03-27T18:08:05Z</time>
      </trkpt>
      <trkpt lat="40.4147" lon="-5.157166">
        <ele>1626.09</ele>
        <time>2021-03-27T18:08:10Z</time>
      </trkpt>
      <trkpt lat="40.415772" lon="-5.156703">
        <ele>1620.25</ele>
        <time>2021-03-27T18:08:14Z</time>
      </trkpt>
      <trkpt lat="40.416825" lon="-5.156638">
        <ele>1614.86</ele>
        <time>2021-03-27T18:08:18Z</time>
      </trkpt>
      <trkpt lat="40.418109" lon="-5.156321">
        <ele>1606.1</ele>
        <time>2021-03-27T18:08:23Z</time>
      </trkpt>
      <trkpt lat="40.418392" lon="-5.156353">
        <ele>1606.35</ele>
        <time>2021-03-27T18:08:27Z</time>
      </trkpt>
      <trkpt lat="40.418624" lon="-5.156339">
        <ele>1604.68</ele>
        <time>2021-03-27T18:08:32Z</time>
      </trkpt>
      <trkpt lat="40.419199" lon="-5.156017">
        <ele>1598.69</ele>
        <time>2021-03-27T18:08:36Z</time>
      </trkpt>
      <trkpt lat="40.419834" lon="-5.155476">
        <ele>1590.91</ele>
        <time>2021-03-27T18:08:41Z</time>
      </trkpt>
      <trkpt lat="40.421494" lon="-5.15469">
        <ele>1579.24</ele>
        <time>2021-03-27T18:08:45Z</time>
      </trkpt>
      <trkpt lat="40.421819" lon="-5.154602">
        <ele>1576.35</ele>
        <time>2021-03-27T18:08:49Z</time>
      </trkpt>
      <trkpt lat="40.422543" lon="-5.154695">
        <ele>1568.83</ele>
        <time>2021-03-27T18:08:54Z</time>
      </trkpt>
      <trkpt lat="40.425494" lon="-5.1545">
        <ele>1548.08</ele>
        <time>2021-03-27T18:08:58Z</time>
      </trkpt>
      <trkpt lat="40.426389" lon="-5.154519">
        <ele>1541.46</ele>
        <time>2021-03-27T18:09:03Z</time>
      </trkpt>
      <trkpt lat="40.426682" lon="-5.154395">
        <ele>1539.05</ele>
        <time>2021-03-27T18:09:07Z</time>
      </trkpt>
      <trkpt lat="40.426871" lon="-5.154207">
        <ele>1537.12</ele>
        <time>2021-03-27T18:09:12Z</time>
      </trkpt>
      <trkpt lat="40.428828" lon="-5.151329">
        <ele>1524.27</ele>
        <time>2021-03-27T18:09:16Z</time>
      </trkpt>
      <trkpt lat="40.429028" lon="-5.151107">
        <ele>1521.98</ele>
        <time>2021-03-27T18:09:20Z</time>
      </trkpt>
      <trkpt lat="40.429179" lon="-5.15101">
        <ele>1520.59</ele>
        <time>2021-03-27T18:09:25Z</time>
      </trkpt>
      <trkpt lat="40.429323" lon="-5.150959">
        <ele>1519.89</ele>
        <time>2021-03-27T18:09:29Z</time>
      </trkpt>
      <trkpt lat="40.429549" lon="-5.150912">
        <ele>1518.8</ele>
        <time>2021-03-27T18:09:34Z</time>
      </trkpt>
      <trkpt lat="40.429726" lon="-5.150938">
        <ele>1517.95</ele>
        <time>2021-03-27T18:09:38Z</time>
      </trkpt>
      <trkpt lat="40.4299" lon="-5.151026">
        <ele>1515.63</ele>
        <time>2021-03-27T18:09:42Z</time>
      </trkpt>
      <trkpt lat="40.430235" lon="-5.151371">
        <ele>1511.52</ele>
        <time>2021-03-27T18:09:47Z</time>
      </trkpt>
      <trkpt lat="40.430344" lon="-5.151376">
        <ele>1510.79</ele>
        <time>2021-03-27T18:09:51Z</time>
      </trkpt>
      <trkpt lat="40.430421" lon="-5.151257">
        <ele>1510.71</ele>
        <time>2021-03-27T18:09:54Z</time>
      </trkpt>
      <trkpt lat="40.430524" lon="-5.150859">
        <ele>1510.23</ele>
        <time>2021-03-27T18:09:56Z</time>
      </trkpt>
      <trkpt lat="40.430797" lon="-5.150063">
        <ele>1505.49</ele>
        <time>2021-03-27T18:09:59Z</time>
      </trkpt>
      <trkpt lat="40.430854" lon="-5.149992">
        <ele>1504.92</ele>
        <time>2021-03-27T18:10:02Z</time>
      </trkpt>
      <trkpt lat="40.43092" lon="-5.149942">
        <ele>1504.69</ele>
        <time>2021-03-27T18:10:04Z</time>
      </trkpt>
      <trkpt lat="40.431103" lon="-5.149899">
        <ele>1504.03</ele>
        <time>2021-03-27T18:10:07Z</time>
      </trkpt>
      <trkpt lat="40.431552" lon="-5.149905">
        <ele>1500.1</ele>
        <time>2021-03-27T18:10:09Z</time>
      </trkpt>
      <trkpt lat="40.431648" lon="-5.149887">
        <ele>1499.18</ele>
        <time>2021-03-27T18:10:12Z</time>
      </trkpt>
      <trkpt lat="40.43182" lon="-5.149798">
        <ele>1497.35</ele>
        <time>2021-03-27T18:10:15Z</time>
      </trkpt>
      <trkpt lat="40.432002" lon="-5.149609">
        <ele>1495.37</ele>
        <time>2021-03-27T18:10:17Z</time>
      </trkpt>
      <trkpt lat="40.432209" lon="-5.14944">
        <ele>1493.14</ele>
        <time>2021-03-27T18:10:20Z</time>
      </trkpt>
      <trkpt lat="40.432347" lon="-5.14937">
        <ele>1491.53</ele>
        <time>2021-03-27T18:10:22Z</time>
      </trkpt>
      <trkpt lat="40.432747" lon="-5.149308">
        <ele>1486.84</ele>
        <time>2021-03-27T18:10:25Z</time>
      </trkpt>
      <trkpt lat="40.433072" lon="-5.149164">
        <ele>1483.76</ele>
        <time>2021-03-27T18:10:28Z</time>
      </trkpt>
      <trkpt lat="40.433305" lon="-5.149795">
        <ele>1481.4</ele>
        <time>2021-03-27T18:10:31Z</time>
      </trkpt>
      <trkpt lat="40.434113" lon="-5.152154">
        <ele>1477.19</ele>
        <time>2021-03-27T18:10:33Z</time>
      </trkpt>
      <trkpt lat="40.434302" lon="-5.152531">
        <ele>1475.89</ele>
        <time>2021-03-27T18:10:36Z</time>
      </trkpt>
      <trkpt lat="40.434508" lon="-5.152873">
        <ele>1475.0</ele>
        <time>2021-03-27T18:10:39Z</time>
      </trkpt>
      <trkpt lat="40.435695" lon="-5.153933">
        <ele>1475.58</ele>
        <time>2021-03-27T18:10:42Z</time>
      </trkpt>
      <trkpt lat="40.435911" lon="-5.154167">
        <ele>1476.01</ele>
        <time>2021-03-27T18:10:45Z</time>
      </trkpt>
      <trkpt lat="40.435996" lon="-5.154373">
        <ele>1477.49</ele>
        <time>2021-03-27T18:10:48Z</time>
      </trkpt>
      <trkpt lat="40.436055" lon="-5.154635">
        <ele>1478.55</ele>
        <time>2021-03-27T18:10:51Z</time>
      </trkpt>
      <trkpt lat="40.436058" lon="-5.154906">
        <ele>1478.94</ele>
        <time>2021-03-27T18:10:54Z</time>
      </trkpt>
      <trkpt lat="40.436019" lon="-5.15521">
        <ele>1477.73</ele>
        <time>2021-03-27T18:10:57Z</time>
      </trkpt>
      <trkpt lat="40.435852" lon="-5.155543">
        <ele>1477.93</ele>
        <time>2021-03-27T18:10:59Z</time>
      </trkpt>
      <trkpt lat="40.434859" lon="-5.156761">
        <ele>1478.85</ele>
        <time>2021-03-27T18:11:02Z</time>
      </trkpt>
      <trkpt lat="40.434723" lon="-5.157058">
        <ele>1480.41</ele>
        <time>2021-03-27T18:11:05Z</time>
      </trkpt>
      <trkpt lat="40.434641" lon="-5.157405">
        <ele>1480.71</ele>
        <time>2021-03-27T18:11:08Z</time>
      </trkpt>
      <trkpt lat="40.434629" lon="-5.157743">
        <ele>1479.79</ele>
        <time>2021-03-27T18:11:11Z</time>
      </trkpt>
      <trkpt lat="40.434714" lon="-5.158053">
        <ele>1479.01</ele>
        <time>2021-03-27T18:11:14Z</time>
      </trkpt>
      <trkpt lat="40.434829" lon="-5.158269">
        <ele>1478.7</ele>
        <time>2021-03-27T18:11:17Z</time>
      </trkpt>
      <trkpt lat="40.434969" lon="-5.158471">
        <ele>1479.54</ele>
        <time>2021-03-27T18:11:20Z</time>
      </trkpt>
      <trkpt lat="40.435637" lon="-5.158964">
        <ele>1481.06</ele>
        <time>2021-03-27T18:11:23Z</time>
      </trkpt>
      <trkpt lat="40.436207" lon="-5.159299">
        <ele>1480.31</ele>
        <time>2021-03-27T18:11:25Z</time>
      </trkpt>
      <trkpt lat="40.437393" lon="-5.159815">
        <ele>1480.26</ele>
        <time>2021-03-27T18:11:28Z</time>
      </trkpt>
      <trkpt lat="40.441127" lon="-5.160775">
        <ele>1492.69</ele>
        <time>2021-03-27T18:11:31Z</time>
      </trkpt>
      <trkpt lat="40.443335" lon="-5.161315">
        <ele>1508.48</ele>
        <time>2021-03-27T18:11:34Z</time>
      </trkpt>
      <trkpt lat="40.443679" lon="-5.16143">
        <ele>1512.48</ele>
        <time>2021-03-27T18:11:37Z</time>
      </trkpt>
      <trkpt lat="40.443971" lon="-5.161664">
        <ele>1515.67</ele>
        <time>2021-03-27T18:11:40Z</time>
      </trkpt>
      <trkpt lat="40.445079" lon="-5.162833">
        <ele>1518.68</ele>
        <time>2021-03-27T18:11:43Z</time>
      </trkpt>
      <trkpt lat="40.446108" lon="-5.163997">
        <ele>1536.55</ele>
        <time>2021-03-27T18:11:46Z</time>
      </trkpt>
      <trkpt lat="40.446255" lon="-5.16408">
        <ele>1538.23</ele>
        <time>2021-03-27T18:11:49Z</time>
      </trkpt>
      <trkpt lat="40.446421" lon="-5.164056">
        <ele>1540.65</ele>
        <time>2021-03-27T18:11:51Z</time>
      </trkpt>
      <trkpt lat="40.446562" lon="-5.163963">
        <ele>1543.27</ele>
        <time>2021-03-27T18:11:54Z</time>
      </trkpt>
      <trkpt lat="40.446713" lon="-5.163754">
        <ele>1545.59</ele>
        <time>2021-03-27T18:11:57Z</time>
      </trkpt>
      <trkpt lat="40.447088" lon="-5.163115">
        <ele>1547.59</ele>
        <time>2021-03-27T18:12:00Z</time>
      </trkpt>
      <trkpt lat="40.447244" lon="-5.163038">
        <ele>1549.06</ele>
        <time>2021-03-27T18:12:03Z</time>
      </trkpt>
      <trkpt lat="40.447438" lon="-5.16302">
        <ele>1551.6</ele>
        <time>2021-03-27T18:12:06Z</time>
      </trkpt>
      <trkpt lat="40.447606" lon="-5.16313">
        <ele>1554.5</ele>
        <time>2021-03-27T18:12:09Z</time>
      </trkpt>
      <trkpt lat="40.447701" lon="-5.163289">
        <ele>1557.35</ele>
        <time>2021-03-27T18:12:12Z</time>
      </trkpt>
      <trkpt lat="40.447731" lon="-5.16349">
        <ele>1559.93</ele>
        <time>2021-03-27T18:12:15Z</time>
      </trkpt>
      <trkpt lat="40.447675" lon="-5.163802">
        <ele>1561.52</ele>
        <time>2021-03-27T18:12:17Z</time>
      </trkpt>
      <trkpt lat="40.447338" lon="-5.16459">
        <ele>1559.66</ele>
        <time>2021-03-27T18:12:20Z</time>
      </trkpt>
      <trkpt lat="40.447312" lon="-5.164818">
        <ele>1559.06</ele>
        <time>2021-03-27T18:12:23Z</time>
      </trkpt>
      <trkpt lat="40.447371" lon="-5.165086">
        <ele>1559.53</ele>
        <time>2021-03-27T18:12:26Z</time>
      </trkpt>
      <trkpt lat="40.447491" lon="-5.165251">
        <ele>1561.81</ele>
        <time>2021-03-27T18:12:29Z</time>
      </trkpt>
      <trkpt lat="40.447649" lon="-5.165353">
        <ele>1563.87</ele>
        <time>2021-03-27T18:12:32Z</time>
      </trkpt>
      <trkpt lat="40.447792" lon="-5.16531">
        <ele>1566.09</ele>
        <time>2021-03-27T18:12:35Z</time>
      </trkpt>
      <trkpt lat="40.447953" lon="-5.16522">
        <ele>1568.31</ele>
        <time>2021-03-27T18:12:38Z</time>
      </trkpt>
      <trkpt lat="40.448592" lon="-5.164436">
        <ele>1577.83</ele>
        <time>2021-03-27T18:12:41Z</time>
      </trkpt>
      <trkpt lat="40.448772" lon="-5.164291">
        <ele>1578.86</ele>
        <time>2021-03-27T18:12:43Z</time>
      </trkpt>
      <trkpt lat="40.448939" lon="-5.164237">
        <ele>1580.04</ele>
        <time>2021-03-27T18:12:46Z</time>
      </trkpt>
      <trkpt lat="40.449075" lon="-5.164249">
        <ele>1581.61</ele>
        <time>2021-03-27T18:12:49Z</time>
      </trkpt>
      <trkpt lat="40.449195" lon="-5.164314">
        <ele>1583.37</ele>
        <time>2021-03-27T18:12:52Z</time>
      </trkpt>
      <trkpt lat="40.449305" lon="-5.16447">
        <ele>1585.54</ele>
        <time>2021-03-27T18:12:55Z</time>
      </trkpt>
      <trkpt lat="40.449418" lon="-5.164748">
        <ele>1587.71</ele>
        <time>2021-03-27T18:12:58Z</time>
      </trkpt>
      <trkpt lat="40.450063" lon="-5.166692">
        <ele>1601.9</ele>
        <time>2021-03-27T18:13:01Z</time>
      </trkpt>
      <trkpt lat="40.450207" lon="-5.166828">
        <ele>1603.99</ele>
        <time>2021-03-27T18:13:04Z</time>
      </trkpt>
      <trkpt lat="40.450347" lon="-5.166895">
        <ele>1606.45</ele>
        <time>2021-03-27T18:13:07Z</time>
      </trkpt>
      <trkpt lat="40.450484" lon="-5.166866">
        <ele>1609.25</ele>
        <time>2021-03-27T18:13:09Z</time>
      </trkpt>
      <trkpt lat="40.450725" lon="-5.166681">
        <ele>1613.06</ele>
        <time>2021-03-27T18:13:12Z</time>
      </trkpt>
      <trkpt lat="40.450846" lon="-5.166499">
        <ele>1615.27</ele>
        <time>2021-03-27T18:13:15Z</time>
      </trkpt>
      <trkpt lat="40.451061" lon="-5.165774">
        <ele>1620.07</ele>
        <time>2021-03-27T18:13:18Z</time>
      </trkpt>
      <trkpt lat="40.451152" lon="-5.165653">
        <ele>1620.85</ele>
        <time>2021-03-27T18:13:21Z</time>
      </trkpt>
      <trkpt lat="40.45124" lon="-5.165586">
        <ele>1621.55</ele>
        <time>2021-03-27T18:13:24Z</time>
      </trkpt>
      <trkpt lat="40.451498" lon="-5.165484">
        <ele>1624.71</ele>
        <time>2021-03-27T18:13:27Z</time>
      </trkpt>
      <trkpt lat="40.452428" lon="-5.165255">
        <ele>1635.83</ele>
        <time>2021-03-27T18:13:30Z</time>
      </trkpt>
      <trkpt lat="40.452832" lon="-5.165071">
        <ele>1639.15</ele>
        <time>2021-03-27T18:13:33Z</time>
      </trkpt>
      <trkpt lat="40.453608" lon="-5.16459">
        <ele>1647.99</ele>
        <time>2021-03-27T18:13:35Z</time>
      </trkpt>
      <trkpt lat="40.453949" lon="-5.164287">
        <ele>1650.02</ele>
        <time>2021-03-27T18:13:38Z</time>
      </trkpt>
      <trkpt lat="40.454301" lon="-5.163878">
        <ele>1652.31</ele>
        <time>2021-03-27T18:13:41Z</time>
      </trkpt>
      <trkpt lat="40.454636" lon="-5.163438">
        <ele>1654.72</ele>
        <time>2021-03-27T18:13:44Z</time>
      </trkpt>
      <trkpt lat="40.455115" lon="-5.162684">
        <ele>1656.82</ele>
        <time>2021-03-27T18:13:47Z</time>
      </trkpt>
      <trkpt lat="40.455271" lon="-5.162501">
        <ele>1658.86</ele>
        <time>2021-03-27T18:13:50Z</time>
      </trkpt>
      <trkpt lat="40.455454" lon="-5.162409">
        <ele>1661.54</ele>
        <time>2021-03-27T18:13:53Z</time>
      </trkpt>
      <trkpt lat="40.455596" lon="-5.162415">
        <ele>1663.19</ele>
        <time>2021-03-27T18:13:56Z</time>
      </trkpt>
      <trkpt lat="40.45569" lon="-5.16246">
        <ele>1663.55</ele>
        <time>2021-03-27T18:13:59Z</time>
      </trkpt>
      <trkpt lat="40.455828" lon="-5.162577">
        <ele>1664.26</ele>
        <time>2021-03-27T18:14:01Z</time>
      </trkpt>
      <trkpt lat="40.456147" lon="-5.163078">
        <ele>1666.91</ele>
        <time>2021-03-27T18:14:04Z</time>
      </trkpt>
      <trkpt lat="40.45629" lon="-5.163201">
        <ele>1666.46</ele>
        <time>2021-03-27T18:14:07Z</time>
      </trkpt>
      <trkpt lat="40.45629" lon="-5.163201">
        <ele>1666.46</ele>
        <time>2021-03-27T18:14:07Z</time>
      </trkpt>
      <trkpt lat="40.456394" lon="-5.163246">
        <ele>1665.62</ele>
        <time>2021-03-27T18:14:09Z</time>
      </trkpt>
      <trkpt lat="40.456545" lon="-5.163248">
        <ele>1665.44</ele>
        <time>2021-03-27T18:14:11Z</time>
      </trkpt>
      <trkpt lat="40.456659" lon="-5.163191">
        <ele>1665.53</ele>
        <time>2021-03-27T18:14:12Z</time>
      </trkpt>
      <trkpt lat="40.458152" lon="-5.16184">
        <ele>1650.77</ele>
        <time>2021-03-27T18:14:14Z</time>
      </trkpt>
      <trkpt lat="40.458404" lon="-5.161686">
        <ele>1647.7</ele>
        <time>2021-03-27T18:14:16Z</time>
      </trkpt>
      <trkpt lat="40.458552" lon="-5.161622">
        <ele>1645.97</ele>
        <time>2021-03-27T18:14:18Z</time>
      </trkpt>
      <trkpt lat="40.458685" lon="-5.161588">
        <ele>1644.73</ele>
        <time>2021-03-27T18:14:19Z</time>
      </trkpt>
      <trkpt lat="40.45907" lon="-5.161551">
        <ele>1641.71</ele>
        <time>2021-03-27T18:14:21Z</time>
      </trkpt>
      <trkpt lat="40.459602" lon="-5.161436">
        <ele>1634.13</ele>
        <time>2021-03-27T18:14:23Z</time>
      </trkpt>
      <trkpt lat="40.459792" lon="-5.161478">
        <ele>1632.79</ele>
        <time>2021-03-27T18:14:24Z</time>
      </trkpt>
      <trkpt lat="40.460189" lon="-5.161656">
        <ele>1629.24</ele>
        <time>2021-03-27T18:14:26Z</time>
      </trkpt>
      <trkpt lat="40.460311" lon="-5.16169">
        <ele>1628.21</ele>
        <time>2021-03-27T18:14:28Z</time>
      </trkpt>
      <trkpt lat="40.460417" lon="-5.161697">
        <ele>1627.88</ele>
        <time>2021-03-27T18:14:29Z</time>
      </trkpt>
      <trkpt lat="40.460591" lon="-5.16164">
        <ele>1626.84</ele>
        <time>2021-03-27T18:14:31Z</time>
      </trkpt>
      <trkpt lat="40.460766" lon="-5.161489">
        <ele>1625.84</ele>
        <time>2021-03-27T18:14:33Z</time>
      </trkpt>
      <trkpt lat="40.460872" lon="-5.161357">
        <ele>1624.81</ele>
        <time>2021-03-27T18:14:35Z</time>
      </trkpt>
      <trkpt lat="40.461189" lon="-5.160881">
        <ele>1620.18</ele>
        <time>2021-03-27T18:14:36Z</time>
      </trkpt>
      <trkpt lat="40.461396" lon="-5.160663">
        <ele>1616.73</ele>
        <time>2021-03-27T18:14:38Z</time>
      </trkpt>
      <trkpt lat="40.46187" lon="-5.160355">
        <ele>1611.49</ele>
        <time>2021-03-27T18:14:40Z</time>
      </trkpt>
      <trkpt lat="40.462589" lon="-5.159951">
        <ele>1605.5</ele>
        <time>2021-03-27T18:14:41Z</time>
      </trkpt>
      <trkpt lat="40.462755" lon="-5.159882">
        <ele>1604.66</ele>
        <time>2021-03-27T18:14:43Z</time>
      </trkpt>
      <trkpt lat="40.46308" lon="-5.159827">
        <ele>1602.08</ele>
        <time>2021-03-27T18:14:45Z</time>
      </trkpt>
      <trkpt lat="40.463238" lon="-5.15983">
        <ele>1600.17</ele>
        <time>2021-03-27T18:14:46Z</time>
      </trkpt>
      <trkpt lat="40.463376" lon="-5.159855">
        <ele>1598.85</ele>
        <time>2021-03-27T18:14:48Z</time>
      </trkpt>
      <trkpt lat="40.463755" lon="-5.160126">
        <ele>1596.36</ele>
        <time>2021-03-27T18:14:50Z</time>
      </trkpt>
      <trkpt lat="40.463967" lon="-5.160228">
        <ele>1594.43</ele>
        <time>2021-03-27T18:14:52Z</time>
      </trkpt>
      <trkpt lat="40.464103" lon="-5.160253">
        <ele>1593.58</ele>
        <time>2021-03-27T18:14:53Z</time>
      </trkpt>
      <trkpt lat="40.464425" lon="-5.160271">
        <ele>1590.28</ele>
        <time>2021-03-27T18:14:55Z</time>
      </trkpt>
      <trkpt lat="40.464565" lon="-5.160294">
        <ele>1589.85</ele>
        <time>2021-03-27T18:14:57Z</time>
      </trkpt>
      <trkpt lat="40.464648" lon="-5.160337">
        <ele>1589.52</ele>
        <time>2021-03-27T18:14:58Z</time>
      </trkpt>
      <trkpt lat="40.464714" lon="-5.160402">
        <ele>1589.09</ele>
        <time>2021-03-27T18:15:00Z</time>
      </trkpt>
      <trkpt lat="40.464821" lon="-5.160589">
        <ele>1588.39</ele>
        <time>2021-03-27T18:15:02Z</time>
      </trkpt>
      <trkpt lat="40.464854" lon="-5.160677">
        <ele>1587.84</ele>
        <time>2021-03-27T18:15:03Z</time>
      </trkpt>
      <trkpt lat="40.464876" lon="-5.160806">
        <ele>1586.9</ele>
        <time>2021-03-27T18:15:05Z</time>
      </trkpt>
      <trkpt lat="40.46489" lon="-5.160961">
        <ele>1586.07</ele>
        <time>2021-03-27T18:15:07Z</time>
      </trkpt>
      <trkpt lat="40.464878" lon="-5.161419">
        <ele>1584.49</ele>
        <time>2021-03-27T18:15:09Z</time>
      </trkpt>
      <trkpt lat="40.464775" lon="-5.162179">
        <ele>1578.1</ele>
        <time>2021-03-27T18:15:10Z</time>
      </trkpt>
      <trkpt lat="40.464763" lon="-5.162373">
        <ele>1578.28</ele>
        <time>2021-03-27T18:15:12Z</time>
      </trkpt>
      <trkpt lat="40.464774" lon="-5.162601">
        <ele>1578.56</ele>
        <time>2021-03-27T18:15:14Z</time>
      </trkpt>
      <trkpt lat="40.464852" lon="-5.163226">
        <ele>1576.61</ele>
        <time>2021-03-27T18:15:15Z</time>
      </trkpt>
      <trkpt lat="40.464894" lon="-5.163434">
        <ele>1575.89</ele>
        <time>2021-03-27T18:15:17Z</time>
      </trkpt>
      <trkpt lat="40.465087" lon="-5.164098">
        <ele>1574.39</ele>
        <time>2021-03-27T18:15:19Z</time>
      </trkpt>
      <trkpt lat="40.465189" lon="-5.164624">
        <ele>1571.27</ele>
        <time>2021-03-27T18:15:20Z</time>
      </trkpt>
      <trkpt lat="40.465239" lon="-5.164797">
        <ele>1569.94</ele>
        <time>2021-03-27T18:15:22Z</time>
      </trkpt>
      <trkpt lat="40.465309" lon="-5.164965">
        <ele>1567.84</ele>
        <time>2021-03-27T18:15:24Z</time>
      </trkpt>
      <trkpt lat="40.465396" lon="-5.165151">
        <ele>1567.19</ele>
        <time>2021-03-27T18:15:26Z</time>
      </trkpt>
      <trkpt lat="40.465652" lon="-5.165605">
        <ele>1566.67</ele>
        <time>2021-03-27T18:15:27Z</time>
      </trkpt>
      <trkpt lat="40.465918" lon="-5.166263">
        <ele>1563.17</ele>
        <time>2021-03-27T18:15:29Z</time>
      </trkpt>
      <trkpt lat="40.466095" lon="-5.166594">
        <ele>1560.2</ele>
        <time>2021-03-27T18:15:31Z</time>
      </trkpt>
      <trkpt lat="40.466434" lon="-5.167146">
        <ele>1552.62</ele>
        <time>2021-03-27T18:15:32Z</time>
      </trkpt>
      <trkpt lat="40.466621" lon="-5.16736">
        <ele>1549.1</ele>
        <time>2021-03-27T18:15:34Z</time>
      </trkpt>
      <trkpt lat="40.467003" lon="-5.167622">
        <ele>1544.81</ele>
        <time>2021-03-27T18:15:36Z</time>
      </trkpt>
      <trkpt lat="40.467382" lon="-5.167918">
        <ele>1539.02</ele>
        <time>2021-03-27T18:15:37Z</time>
      </trkpt>
      <trkpt lat="40.467772" lon="-5.16811">
        <ele>1534.03</ele>
        <time>2021-03-27T18:15:39Z</time>
      </trkpt>
      <trkpt lat="40.467915" lon="-5.168157">
        <ele>1530.41</ele>
        <time>2021-03-27T18:15:41Z</time>
      </trkpt>
      <trkpt lat="40.467998" lon="-5.168167">
        <ele>1528.98</ele>
        <time>2021-03-27T18:15:43Z</time>
      </trkpt>
      <trkpt lat="40.468141" lon="-5.16812">
        <ele>1526.97</ele>
        <time>2021-03-27T18:15:44Z</time>
      </trkpt>
      <trkpt lat="40.468372" lon="-5.167947">
        <ele>1525.19</ele>
        <time>2021-03-27T18:15:46Z</time>
      </trkpt>
      <trkpt lat="40.468548" lon="-5.167735">
        <ele>1527.58</ele>
        <time>2021-03-27T18:15:48Z</time>
      </trkpt>
      <trkpt lat="40.46868" lon="-5.167646">
        <ele>1528.17</ele>
        <time>2021-03-27T18:15:49Z</time>
      </trkpt>
      <trkpt lat="40.468876" lon="-5.16763">
        <ele>1526.83</ele>
        <time>2021-03-27T18:15:51Z</time>
      </trkpt>
      <trkpt lat="40.469003" lon="-5.167679">
        <ele>1525.63</ele>
        <time>2021-03-27T18:15:53Z</time>
      </trkpt>
      <trkpt lat="40.469471" lon="-5.168115">
        <ele>1516.47</ele>
        <time>2021-03-27T18:15:54Z</time>
      </trkpt>
      <trkpt lat="40.469804" lon="-5.168273">
        <ele>1513.72</ele>
        <time>2021-03-27T18:15:56Z</time>
      </trkpt>
      <trkpt lat="40.469914" lon="-5.168348">
        <ele>1511.64</ele>
        <time>2021-03-27T18:15:58Z</time>
      </trkpt>
      <trkpt lat="40.470093" lon="-5.168519">
        <ele>1507.09</ele>
        <time>2021-03-27T18:16:00Z</time>
      </trkpt>
      <trkpt lat="40.47017" lon="-5.168563">
        <ele>1505.69</ele>
        <time>2021-03-27T18:16:01Z</time>
      </trkpt>
      <trkpt lat="40.470232" lon="-5.168581">
        <ele>1505.02</ele>
        <time>2021-03-27T18:16:03Z</time>
      </trkpt>
      <trkpt lat="40.47034" lon="-5.168564">
        <ele>1504.43</ele>
        <time>2021-03-27T18:16:05Z</time>
      </trkpt>
      <trkpt lat="40.470391" lon="-5.168534">
        <ele>1504.47</ele>
        <time>2021-03-27T18:16:06Z</time>
      </trkpt>
      <trkpt lat="40.470623" lon="-5.168264">
        <ele>1508.25</ele>
        <time>2021-03-27T18:16:08Z</time>
      </trkpt>
      <trkpt lat="40.470722" lon="-5.168228">
        <ele>1508.44</ele>
        <time>2021-03-27T18:16:10Z</time>
      </trkpt>
      <trkpt lat="40.470792" lon="-5.168244">
        <ele>1507.53</ele>
        <time>2021-03-27T18:16:11Z</time>
      </trkpt>
      <trkpt lat="40.470952" lon="-5.168384">
        <ele>1504.47</ele>
        <time>2021-03-27T18:16:13Z</time>
      </trkpt>
      <trkpt lat="40.471066" lon="-5.168518">
        <ele>1501.91</ele>
        <time>2021-03-27T18:16:15Z</time>
      </trkpt>
      <trkpt lat="40.471153" lon="-5.168674">
        <ele>1500.16</ele>
        <time>2021-03-27T18:16:17Z</time>
      </trkpt>
      <trkpt lat="40.471232" lon="-5.168928">
        <ele>1498.62</ele>
        <time>2021-03-27T18:16:18Z</time>
      </trkpt>
      <trkpt lat="40.471251" lon="-5.169097">
        <ele>1497.29</ele>
        <time>2021-03-27T18:16:20Z</time>
      </trkpt>
      <trkpt lat="40.471245" lon="-5.169396">
        <ele>1494.33</ele>
        <time>2021-03-27T18:16:22Z</time>
      </trkpt>
      <trkpt lat="40.471266" lon="-5.169489">
        <ele>1494.18</ele>
        <time>2021-03-27T18:16:23Z</time>
      </trkpt>
      <trkpt lat="40.471308" lon="-5.169569">
        <ele>1494.81</ele>
        <time>2021-03-27T18:16:25Z</time>
      </trkpt>
      <trkpt lat="40.471753" lon="-5.170023">
        <ele>1495.54</ele>
        <time>2021-03-27T18:16:27Z</time>
      </trkpt>
      <trkpt lat="40.47208" lon="-5.170323">
        <ele>1486.34</ele>
        <time>2021-03-27T18:16:29Z</time>
      </trkpt>
      <trkpt lat="40.472185" lon="-5.170396">
        <ele>1484.9</ele>
        <time>2021-03-27T18:16:30Z</time>
      </trkpt>
      <trkpt lat="40.472279" lon="-5.170425">
        <ele>1484.28</ele>
        <time>2021-03-27T18:16:32Z</time>
      </trkpt>
      <trkpt lat="40.472353" lon="-5.170433">
        <ele>1484.09</ele>
        <time>2021-03-27T18:16:34Z</time>
      </trkpt>
      <trkpt lat="40.472824" lon="-5.170356">
        <ele>1484.85</ele>
        <time>2021-03-27T18:16:35Z</time>
      </trkpt>
      <trkpt lat="40.473034" lon="-5.170297">
        <ele>1482.77</ele>
        <time>2021-03-27T18:16:37Z</time>
      </trkpt>
      <trkpt lat="40.473172" lon="-5.17019">
        <ele>1481.56</ele>
        <time>2021-03-27T18:16:39Z</time>
      </trkpt>
      <trkpt lat="40.473475" lon="-5.16986">
        <ele>1481.18</ele>
        <time>2021-03-27T18:16:40Z</time>
      </trkpt>
      <trkpt lat="40.473843" lon="-5.169569">
        <ele>1476.08</ele>
        <time>2021-03-27T18:16:42Z</time>
      </trkpt>
      <trkpt lat="40.473954" lon="-5.169522">
        <ele>1474.09</ele>
        <time>2021-03-27T18:16:44Z</time>
      </trkpt>
      <trkpt lat="40.474021" lon="-5.169513">
        <ele>1472.77</ele>
        <time>2021-03-27T18:16:46Z</time>
      </trkpt>
      <trkpt lat="40.474122" lon="-5.169554">
        <ele>1470.51</ele>
        <time>2021-03-27T18:16:47Z</time>
      </trkpt>
      <trkpt lat="40.474169" lon="-5.169615">
        <ele>1469.29</ele>
        <time>2021-03-27T18:16:49Z</time>
      </trkpt>
      <trkpt lat="40.474227" lon="-5.16982">
        <ele>1465.91</ele>
        <time>2021-03-27T18:16:51Z</time>
      </trkpt>
      <trkpt lat="40.474229" lon="-5.169923">
        <ele>1464.65</ele>
        <time>2021-03-27T18:16:52Z</time>
      </trkpt>
      <trkpt lat="40.474213" lon="-5.170035">
        <ele>1463.37</ele>
        <time>2021-03-27T18:16:54Z</time>
      </trkpt>
      <trkpt lat="40.474176" lon="-5.170154">
        <ele>1461.3</ele>
        <time>2021-03-27T18:16:56Z</time>
      </trkpt>
      <trkpt lat="40.474109" lon="-5.170266">
        <ele>1459.17</ele>
        <time>2021-03-27T18:16:57Z</time>
      </trkpt>
      <trkpt lat="40.473846" lon="-5.17052">
        <ele>1454.9</ele>
        <time>2021-03-27T18:16:59Z</time>
      </trkpt>
      <trkpt lat="40.473433" lon="-5.170812">
        <ele>1454.73</ele>
        <time>2021-03-27T18:17:01Z</time>
      </trkpt>
      <trkpt lat="40.473102" lon="-5.171001">
        <ele>1454.61</ele>
        <time>2021-03-27T18:17:03Z</time>
      </trkpt>
      <trkpt lat="40.472911" lon="-5.171079">
        <ele>1455.91</ele>
        <time>2021-03-27T18:17:04Z</time>
      </trkpt>
      <trkpt lat="40.472523" lon="-5.171158">
        <ele>1459.81</ele>
        <time>2021-03-27T18:17:06Z</time>
      </trkpt>
      <trkpt lat="40.471973" lon="-5.171167">
        <ele>1462.38</ele>
        <time>2021-03-27T18:17:08Z</time>
      </trkpt>
      <trkpt lat="40.471718" lon="-5.171142">
        <ele>1462.22</ele>
        <time>2021-03-27T18:17:09Z</time>
      </trkpt>
      <trkpt lat="40.471441" lon="-5.17107">
        <ele>1461.59</ele>
        <time>2021-03-27T18:17:11Z</time>
      </trkpt>
      <trkpt lat="40.47103" lon="-5.171052">
        <ele>1458.48</ele>
        <time>2021-03-27T18:17:13Z</time>
      </trkpt>
      <trkpt lat="40.470808" lon="-5.170998">
        <ele>1459.84</ele>
        <time>2021-03-27T18:17:14Z</time>
      </trkpt>
      <trkpt lat="40.470665" lon="-5.170936">
        <ele>1461.42</ele>
        <time>2021-03-27T18:17:16Z</time>
      </trkpt>
      <trkpt lat="40.470603" lon="-5.170884">
        <ele>1462.71</ele>
        <time>2021-03-27T18:17:18Z</time>
      </trkpt>
      <trkpt lat="40.470443" lon="-5.170689">
        <ele>1465.09</ele>
        <time>2021-03-27T18:17:20Z</time>
      </trkpt>
      <trkpt lat="40.470399" lon="-5.170667">
        <ele>1465.16</ele>
        <time>2021-03-27T18:17:21Z</time>
      </trkpt>
      <trkpt lat="40.470305" lon="-5.170687">
        <ele>1463.92</ele>
        <time>2021-03-27T18:17:23Z</time>
      </trkpt>
      <trkpt lat="40.47026" lon="-5.170724">
        <ele>1462.78</ele>
        <time>2021-03-27T18:17:25Z</time>
      </trkpt>
      <trkpt lat="40.470211" lon="-5.170863">
        <ele>1459.69</ele>
        <time>2021-03-27T18:17:26Z</time>
      </trkpt>
      <trkpt lat="40.470225" lon="-5.171011">
        <ele>1456.99</ele>
        <time>2021-03-27T18:17:28Z</time>
      </trkpt>
      <trkpt lat="40.470256" lon="-5.171089">
        <ele>1455.48</ele>
        <time>2021-03-27T18:17:30Z</time>
      </trkpt>
      <trkpt lat="40.470309" lon="-5.17116">
        <ele>1454.33</ele>
        <time>2021-03-27T18:17:31Z</time>
      </trkpt>
      <trkpt lat="40.470384" lon="-5.171229">
        <ele>1453.49</ele>
        <time>2021-03-27T18:17:33Z</time>
      </trkpt>
      <trkpt lat="40.470879" lon="-5.171528">
        <ele>1446.32</ele>
        <time>2021-03-27T18:17:35Z</time>
      </trkpt>
      <trkpt lat="40.471154" lon="-5.171635">
        <ele>1442.21</ele>
        <time>2021-03-27T18:17:37Z</time>
      </trkpt>
      <trkpt lat="40.471501" lon="-5.171675">
        <ele>1441.72</ele>
        <time>2021-03-27T18:17:38Z</time>
      </trkpt>
      <trkpt lat="40.471988" lon="-5.171805">
        <ele>1436.1</ele>
        <time>2021-03-27T18:17:40Z</time>
      </trkpt>
      <trkpt lat="40.472191" lon="-5.171827">
        <ele>1435.62</ele>
        <time>2021-03-27T18:17:42Z</time>
      </trkpt>
      <trkpt lat="40.472683" lon="-5.171837">
        <ele>1430.85</ele>
        <time>2021-03-27T18:17:43Z</time>
      </trkpt>
      <trkpt lat="40.472998" lon="-5.171808">
        <ele>1426.94</ele>
        <time>2021-03-27T18:17:45Z</time>
      </trkpt>
      <trkpt lat="40.473327" lon="-5.171645">
        <ele>1423.21</ele>
        <time>2021-03-27T18:17:47Z</time>
      </trkpt>
      <trkpt lat="40.474438" lon="-5.171432">
        <ele>1411.24</ele>
        <time>2021-03-27T18:17:48Z</time>
      </trkpt>
      <trkpt lat="40.474877" lon="-5.171191">
        <ele>1405.8</ele>
        <time>2021-03-27T18:17:50Z</time>
      </trkpt>
      <trkpt lat="40.475032" lon="-5.17104">
        <ele>1404.41</ele>
        <time>2021-03-27T18:17:52Z</time>
      </trkpt>
      <trkpt lat="40.475566" lon="-5.170388">
        <ele>1401.48</ele>
        <time>2021-03-27T18:17:54Z</time>
      </trkpt>
      <trkpt lat="40.475929" lon="-5.16991">
        <ele>1404.28</ele>
        <time>2021-03-27T18:17:55Z</time>
      </trkpt>
      <trkpt lat="40.476033" lon="-5.169804">
        <ele>1404.68</ele>
        <time>2021-03-27T18:17:57Z</time>
      </trkpt>
      <trkpt lat="40.476176" lon="-5.169729">
        <ele>1402.83</ele>
        <time>2021-03-27T18:17:59Z</time>
      </trkpt>
      <trkpt lat="40.476272" lon="-5.169762">
        <ele>1399.53</ele>
        <time>2021-03-27T18:18:00Z</time>
      </trkpt>
      <trkpt lat="40.476342" lon="-5.16986">
        <ele>1396.84</ele>
        <time>2021-03-27T18:18:02Z</time>
      </trkpt>
      <trkpt lat="40.476367" lon="-5.17002">
        <ele>1395.27</ele>
        <time>2021-03-27T18:18:04Z</time>
      </trkpt>
      <trkpt lat="40.476365" lon="-5.170253">
        <ele>1392.04</ele>
        <time>2021-03-27T18:18:05Z</time>
      </trkpt>
      <trkpt lat="40.476315" lon="-5.170506">
        <ele>1388.79</ele>
        <time>2021-03-27T18:18:07Z</time>
      </trkpt>
      <trkpt lat="40.47623" lon="-5.170647">
        <ele>1388.51</ele>
        <time>2021-03-27T18:18:09Z</time>
      </trkpt>
      <trkpt lat="40.476054" lon="-5.170853">
        <ele>1387.65</ele>
        <time>2021-03-27T18:18:11Z</time>
      </trkpt>
      <trkpt lat="40.476024" lon="-5.170911">
        <ele>1386.59</ele>
        <time>2021-03-27T18:18:12Z</time>
      </trkpt>
      <trkpt lat="40.476017" lon="-5.171048">
        <ele>1384.13</ele>
        <time>2021-03-27T18:18:14Z</time>
      </trkpt>
      <trkpt lat="40.476061" lon="-5.171185">
        <ele>1382.06</ele>
        <time>2021-03-27T18:18:16Z</time>
      </trkpt>
      <trkpt lat="40.476205" lon="-5.171361">
        <ele>1380.23</ele>
        <time>2021-03-27T18:18:17Z</time>
      </trkpt>
      <trkpt lat="40.476302" lon="-5.17145">
        <ele>1378.58</ele>
        <time>2021-03-27T18:18:19Z</time>
      </trkpt>
      <trkpt lat="40.476374" lon="-5.171488">
        <ele>1377.54</ele>
        <time>2021-03-27T18:18:21Z</time>
      </trkpt>
      <trkpt lat="40.476483" lon="-5.171493">
        <ele>1374.85</ele>
        <time>2021-03-27T18:18:22Z</time>
      </trkpt>
      <trkpt lat="40.476527" lon="-5.171476">
        <ele>1374.15</ele>
        <time>2021-03-27T18:18:24Z</time>
      </trkpt>
      <trkpt lat="40.476597" lon="-5.171411">
        <ele>1374.15</ele>
        <time>2021-03-27T18:18:26Z</time>
      </trkpt>
      <trkpt lat="40.476818" lon="-5.171107">
        <ele>1372.69</ele>
        <time>2021-03-27T18:18:28Z</time>
      </trkpt>
      <trkpt lat="40.47708" lon="-5.170907">
        <ele>1369.6</ele>
        <time>2021-03-27T18:18:29Z</time>
      </trkpt>
      <trkpt lat="40.477223" lon="-5.170776">
        <ele>1369.02</ele>
        <time>2021-03-27T18:18:31Z</time>
      </trkpt>
      <trkpt lat="40.477306" lon="-5.170624">
        <ele>1371.07</ele>
        <time>2021-03-27T18:18:33Z</time>
      </trkpt>
      <trkpt lat="40.477356" lon="-5.170489">
        <ele>1372.63</ele>
        <time>2021-03-27T18:18:34Z</time>
      </trkpt>
      <trkpt lat="40.477397" lon="-5.170428">
        <ele>1372.94</ele>
        <time>2021-03-27T18:18:36Z</time>
      </trkpt>
      <trkpt lat="40.47745" lon="-5.170391">
        <ele>1373.03</ele>
        <time>2021-03-27T18:18:38Z</time>
      </trkpt>
      <trkpt lat="40.477518" lon="-5.170374">
        <ele>1373.31</ele>
        <time>2021-03-27T18:18:39Z</time>
      </trkpt>
      <trkpt lat="40.477631" lon="-5.1704">
        <ele>1375.09</ele>
        <time>2021-03-27T18:18:41Z</time>
      </trkpt>
      <trkpt lat="40.477681" lon="-5.170438">
        <ele>1375.43</ele>
        <time>2021-03-27T18:18:43Z</time>
      </trkpt>
      <trkpt lat="40.477725" lon="-5.1705">
        <ele>1375.18</ele>
        <time>2021-03-27T18:18:45Z</time>
      </trkpt>
      <trkpt lat="40.477785" lon="-5.170644">
        <ele>1374.29</ele>
        <time>2021-03-27T18:18:46Z</time>
      </trkpt>
      <trkpt lat="40.477862" lon="-5.171154">
        <ele>1368.41</ele>
        <time>2021-03-27T18:18:48Z</time>
      </trkpt>
      <trkpt lat="40.477989" lon="-5.171755">
        <ele>1364.57</ele>
        <time>2021-03-27T18:18:50Z</time>
      </trkpt>
      <trkpt lat="40.477996" lon="-5.171935">
        <ele>1362.61</ele>
        <time>2021-03-27T18:18:51Z</time>
      </trkpt>
      <trkpt lat="40.47796" lon="-5.172549">
        <ele>1357.97</ele>
        <time>2021-03-27T18:18:53Z</time>
      </trkpt>
      <trkpt lat="40.47798" lon="-5.172767">
        <ele>1355.5</ele>
        <time>2021-03-27T18:18:55Z</time>
      </trkpt>
      <trkpt lat="40.478007" lon="-5.17285">
        <ele>1355.39</ele>
        <time>2021-03-27T18:18:56Z</time>
      </trkpt>
      <trkpt lat="40.478132" lon="-5.173078">
        <ele>1355.66</ele>
        <time>2021-03-27T18:18:58Z</time>
      </trkpt>
      <trkpt lat="40.478269" lon="-5.17338">
        <ele>1354.81</ele>
        <time>2021-03-27T18:19:00Z</time>
      </trkpt>
      <trkpt lat="40.478479" lon="-5.173628">
        <ele>1355.27</ele>
        <time>2021-03-27T18:19:02Z</time>
      </trkpt>
      <trkpt lat="40.478599" lon="-5.173812">
        <ele>1353.92</ele>
        <time>2021-03-27T18:19:03Z</time>
      </trkpt>
      <trkpt lat="40.478643" lon="-5.174005">
        <ele>1351.49</ele>
        <time>2021-03-27T18:19:05Z</time>
      </trkpt>
      <trkpt lat="40.47866" lon="-5.174304">
        <ele>1346.24</ele>
        <time>2021-03-27T18:19:07Z</time>
      </trkpt>
      <trkpt lat="40.478714" lon="-5.174458">
        <ele>1344.09</ele>
        <time>2021-03-27T18:19:08Z</time>
      </trkpt>
      <trkpt lat="40.478969" lon="-5.174713">
        <ele>1340.98</ele>
        <time>2021-03-27T18:19:10Z</time>
      </trkpt>
      <trkpt lat="40.479146" lon="-5.174964">
        <ele>1338.46</ele>
        <time>2021-03-27T18:19:12Z</time>
      </trkpt>
      <trkpt lat="40.479264" lon="-5.175207">
        <ele>1334.19</ele>
        <time>2021-03-27T18:19:13Z</time>
      </trkpt>
      <trkpt lat="40.479371" lon="-5.175541">
        <ele>1329.66</ele>
        <time>2021-03-27T18:19:15Z</time>
      </trkpt>
      <trkpt lat="40.479425" lon="-5.175655">
        <ele>1329.11</ele>
        <time>2021-03-27T18:19:17Z</time>
      </trkpt>
      <trkpt lat="40.479491" lon="-5.175759">
        <ele>1328.78</ele>
        <time>2021-03-27T18:19:19Z</time>
      </trkpt>
      <trkpt lat="40.479689" lon="-5.175936">
        <ele>1328.62</ele>
        <time>2021-03-27T18:19:20Z</time>
      </trkpt>
      <trkpt lat="40.479796" lon="-5.176062">
        <ele>1327.67</ele>
        <time>2021-03-27T18:19:22Z</time>
      </trkpt>
      <trkpt lat="40.479981" lon="-5.176467">
        <ele>1320.25</ele>
        <time>2021-03-27T18:19:24Z</time>
      </trkpt>
      <trkpt lat="40.480167" lon="-5.176724">
        <ele>1314.51</ele>
        <time>2021-03-27T18:19:25Z</time>
      </trkpt>
      <trkpt lat="40.480335" lon="-5.176874">
        <ele>1311.72</ele>
        <time>2021-03-27T18:19:27Z</time>
      </trkpt>
      <trkpt lat="40.480433" lon="-5.176926">
        <ele>1310.42</ele>
        <time>2021-03-27T18:19:29Z</time>
      </trkpt>
      <trkpt lat="40.480527" lon="-5.176951">
        <ele>1309.95</ele>
        <time>2021-03-27T18:19:31Z</time>
      </trkpt>
      <trkpt lat="40.480755" lon="-5.176958">
        <ele>1309.14</ele>
        <time>2021-03-27T18:19:32Z</time>
      </trkpt>
      <trkpt lat="40.480848" lon="-5.176983">
        <ele>1308.59</ele>
        <time>2021-03-27T18:19:34Z</time>
      </trkpt>
      <trkpt lat="40.481215" lon="-5.177163">
        <ele>1306.79</ele>
        <time>2021-03-27T18:19:36Z</time>
      </trkpt>
      <trkpt lat="40.481286" lon="-5.177215">
        <ele>1306.11</ele>
        <time>2021-03-27T18:19:37Z</time>
      </trkpt>
      <trkpt lat="40.481748" lon="-5.177774">
        <ele>1297.54</ele>
        <time>2021-03-27T18:19:39Z</time>
      </trkpt>
      <trkpt lat="40.481792" lon="-5.177853">
        <ele>1296.94</ele>
        <time>2021-03-27T18:19:41Z</time>
      </trkpt>
      <trkpt lat="40.481865" lon="-5.178045">
        <ele>1294.35</ele>
        <time>2021-03-27T18:19:42Z</time>
      </trkpt>
      <trkpt lat="40.481905" lon="-5.178201">
        <ele>1294.43</ele>
        <time>2021-03-27T18:19:44Z</time>
      </trkpt>
      <trkpt lat="40.481917" lon="-5.178336">
        <ele>1294.51</ele>
        <time>2021-03-27T18:19:46Z</time>
      </trkpt>
      <trkpt lat="40.481913" lon="-5.178607">
        <ele>1294.2</ele>
        <time>2021-03-27T18:19:48Z</time>
      </trkpt>
      <trkpt lat="40.481929" lon="-5.178723">
        <ele>1294.2</ele>
        <time>2021-03-27T18:19:49Z</time>
      </trkpt>
      <trkpt lat="40.482006" lon="-5.178955">
        <ele>1294.57</ele>
        <time>2021-03-27T18:19:51Z</time>
      </trkpt>
      <trkpt lat="40.482132" lon="-5.179193">
        <ele>1293.86</ele>
        <time>2021-03-27T18:19:53Z</time>
      </trkpt>
      <trkpt lat="40.482219" lon="-5.179307">
        <ele>1292.93</ele>
        <time>2021-03-27T18:19:54Z</time>
      </trkpt>
      <trkpt lat="40.482427" lon="-5.179487">
        <ele>1292.8</ele>
        <time>2021-03-27T18:19:56Z</time>
      </trkpt>
      <trkpt lat="40.482857" lon="-5.179739">
        <ele>1290.41</ele>
        <time>2021-03-27T18:19:58Z</time>
      </trkpt>
      <trkpt lat="40.482971" lon="-5.179775">
        <ele>1289.35</ele>
        <time>2021-03-27T18:19:59Z</time>
      </trkpt>
      <trkpt lat="40.483093" lon="-5.179791">
        <ele>1288.89</ele>
        <time>2021-03-27T18:20:01Z</time>
      </trkpt>
      <trkpt lat="40.483182" lon="-5.179782">
        <ele>1289.38</ele>
        <time>2021-03-27T18:20:03Z</time>
      </trkpt>
      <trkpt lat="40.483513" lon="-5.179664">
        <ele>1293.34</ele>
        <time>2021-03-27T18:20:05Z</time>
      </trkpt>
      <trkpt lat="40.483629" lon="-5.179642">
        <ele>1294.68</ele>
        <time>2021-03-27T18:20:06Z</time>
      </trkpt>
      <trkpt lat="40.48378" lon="-5.179682">
        <ele>1296.07</ele>
        <time>2021-03-27T18:20:08Z</time>
      </trkpt>
      <trkpt lat="40.483961" lon="-5.179837">
        <ele>1296.03</ele>
        <time>2021-03-27T18:20:10Z</time>
      </trkpt>
      <trkpt lat="40.484442" lon="-5.180577">
        <ele>1290.56</ele>
        <time>2021-03-27T18:20:11Z</time>
      </trkpt>
      <trkpt lat="40.484708" lon="-5.180859">
        <ele>1288.29</ele>
        <time>2021-03-27T18:20:13Z</time>
      </trkpt>
      <trkpt lat="40.484923" lon="-5.18101">
        <ele>1286.56</ele>
        <time>2021-03-27T18:20:15Z</time>
      </trkpt>
      <trkpt lat="40.485142" lon="-5.181028">
        <ele>1286.74</ele>
        <time>2021-03-27T18:20:16Z</time>
      </trkpt>
      <trkpt lat="40.485428" lon="-5.180963">
        <ele>1287.06</ele>
        <time>2021-03-27T18:20:18Z</time>
      </trkpt>
      <trkpt lat="40.485795" lon="-5.180817">
        <ele>1287.2</ele>
        <time>2021-03-27T18:20:20Z</time>
      </trkpt>
      <trkpt lat="40.485945" lon="-5.180791">
        <ele>1285.94</ele>
        <time>2021-03-27T18:20:22Z</time>
      </trkpt>
      <trkpt lat="40.485995" lon="-5.180798">
        <ele>1285.38</ele>
        <time>2021-03-27T18:20:23Z</time>
      </trkpt>
      <trkpt lat="40.486095" lon="-5.180833">
        <ele>1284.18</ele>
        <time>2021-03-27T18:20:25Z</time>
      </trkpt>
      <trkpt lat="40.486611" lon="-5.18115">
        <ele>1273.81</ele>
        <time>2021-03-27T18:20:27Z</time>
      </trkpt>
      <trkpt lat="40.486681" lon="-5.18121">
        <ele>1272.43</ele>
        <time>2021-03-27T18:20:28Z</time>
      </trkpt>
      <trkpt lat="40.48673" lon="-5.181279">
        <ele>1271.94</ele>
        <time>2021-03-27T18:20:30Z</time>
      </trkpt>
      <trkpt lat="40.486801" lon="-5.181415">
        <ele>1271.37</ele>
        <time>2021-03-27T18:20:32Z</time>
      </trkpt>
      <trkpt lat="40.486932" lon="-5.181799">
        <ele>1272.7</ele>
        <time>2021-03-27T18:20:33Z</time>
      </trkpt>
      <trkpt lat="40.487103" lon="-5.182227">
        <ele>1272.41</ele>
        <time>2021-03-27T18:20:35Z</time>
      </trkpt>
      <trkpt lat="40.487303" lon="-5.182672">
        <ele>1265.61</ele>
        <time>2021-03-27T18:20:37Z</time>
      </trkpt>
      <trkpt lat="40.487449" lon="-5.182953">
        <ele>1262.2</ele>
        <time>2021-03-27T18:20:39Z</time>
      </trkpt>
      <trkpt lat="40.487528" lon="-5.183152">
        <ele>1261.54</ele>
        <time>2021-03-27T18:20:40Z</time>
      </trkpt>
      <trkpt lat="40.487557" lon="-5.183268">
        <ele>1261.12</ele>
        <time>2021-03-27T18:20:42Z</time>
      </trkpt>
      <trkpt lat="40.487559" lon="-5.183468">
        <ele>1260.88</ele>
        <time>2021-03-27T18:20:44Z</time>
      </trkpt>
      <trkpt lat="40.487479" lon="-5.183807">
        <ele>1260.37</ele>
        <time>2021-03-27T18:20:45Z</time>
      </trkpt>
      <trkpt lat="40.487374" lon="-5.184068">
        <ele>1258.81</ele>
        <time>2021-03-27T18:20:47Z</time>
      </trkpt>
      <trkpt lat="40.486238" lon="-5.186256">
        <ele>1240.49</ele>
        <time>2021-03-27T18:20:49Z</time>
      </trkpt>
      <trkpt lat="40.486007" lon="-5.186575">
        <ele>1239.82</ele>
        <time>2021-03-27T18:20:50Z</time>
      </trkpt>
      <trkpt lat="40.485899" lon="-5.186694">
        <ele>1239.57</ele>
        <time>2021-03-27T18:20:52Z</time>
      </trkpt>
      <trkpt lat="40.485843" lon="-5.1868">
        <ele>1239.01</ele>
        <time>2021-03-27T18:20:54Z</time>
      </trkpt>
      <trkpt lat="40.485799" lon="-5.186982">
        <ele>1237.99</ele>
        <time>2021-03-27T18:20:56Z</time>
      </trkpt>
      <trkpt lat="40.485747" lon="-5.187493">
        <ele>1236.34</ele>
        <time>2021-03-27T18:20:57Z</time>
      </trkpt>
      <trkpt lat="40.485693" lon="-5.187834">
        <ele>1234.59</ele>
        <time>2021-03-27T18:20:59Z</time>
      </trkpt>
      <trkpt lat="40.48565" lon="-5.187969">
        <ele>1233.62</ele>
        <time>2021-03-27T18:21:01Z</time>
      </trkpt>
      <trkpt lat="40.485452" lon="-5.188367">
        <ele>1231.42</ele>
        <time>2021-03-27T18:21:02Z</time>
      </trkpt>
      <trkpt lat="40.485334" lon="-5.188553">
        <ele>1232.43</ele>
        <time>2021-03-27T18:21:04Z</time>
      </trkpt>
      <trkpt lat="40.484862" lon="-5.189164">
        <ele>1234.49</ele>
        <time>2021-03-27T18:21:06Z</time>
      </trkpt>
      <trkpt lat="40.48459" lon="-5.18955">
        <ele>1236.8</ele>
        <time>2021-03-27T18:21:07Z</time>
      </trkpt>
      <trkpt lat="40.484264" lon="-5.190312">
        <ele>1236.65</ele>
        <time>2021-03-27T18:21:09Z</time>
      </trkpt>
      <trkpt lat="40.484221" lon="-5.190466">
        <ele>1235.3</ele>
        <time>2021-03-27T18:21:11Z</time>
      </trkpt>
      <trkpt lat="40.484179" lon="-5.190814">
        <ele>1231.1</ele>
        <time>2021-03-27T18:21:13Z</time>
      </trkpt>
      <trkpt lat="40.484151" lon="-5.190925">
        <ele>1230.54</ele>
        <time>2021-03-27T18:21:14Z</time>
      </trkpt>
      <trkpt lat="40.484103" lon="-5.191033">
        <ele>1230.05</ele>
        <time>2021-03-27T18:21:16Z</time>
      </trkpt>
      <trkpt lat="40.484022" lon="-5.191152">
        <ele>1229.37</ele>
        <time>2021-03-27T18:21:18Z</time>
      </trkpt>
      <trkpt lat="40.483419" lon="-5.191876">
        <ele>1224.98</ele>
        <time>2021-03-27T18:21:19Z</time>
      </trkpt>
      <trkpt lat="40.483262" lon="-5.19203">
        <ele>1224.84</ele>
        <time>2021-03-27T18:21:21Z</time>
      </trkpt>
      <trkpt lat="40.48294" lon="-5.192297">
        <ele>1221.07</ele>
        <time>2021-03-27T18:21:23Z</time>
      </trkpt>
      <trkpt lat="40.482217" lon="-5.192753">
        <ele>1215.33</ele>
        <time>2021-03-27T18:21:24Z</time>
      </trkpt>
      <trkpt lat="40.482114" lon="-5.192852">
        <ele>1215.1</ele>
        <time>2021-03-27T18:21:26Z</time>
      </trkpt>
      <trkpt lat="40.482039" lon="-5.192957">
        <ele>1214.4</ele>
        <time>2021-03-27T18:21:28Z</time>
      </trkpt>
      <trkpt lat="40.481999" lon="-5.193056">
        <ele>1213.41</ele>
        <time>2021-03-27T18:21:30Z</time>
      </trkpt>
      <trkpt lat="40.481957" lon="-5.193298">
        <ele>1213.82</ele>
        <time>2021-03-27T18:21:31Z</time>
      </trkpt>
      <trkpt lat="40.481956" lon="-5.193473">
        <ele>1214.33</ele>
        <time>2021-03-27T18:21:33Z</time>
      </trkpt>
      <trkpt lat="40.482103" lon="-5.194681">
        <ele>1213.66</ele>
        <time>2021-03-27T18:21:35Z</time>
      </trkpt>
      <trkpt lat="40.482093" lon="-5.195796">
        <ele>1215.44</ele>
        <time>2021-03-27T18:21:36Z</time>
      </trkpt>
      <trkpt lat="40.482142" lon="-5.196159">
        <ele>1217.42</ele>
        <time>2021-03-27T18:21:38Z</time>
      </trkpt>
      <trkpt lat="40.482248" lon="-5.196398">
        <ele>1216.58</ele>
        <time>2021-03-27T18:21:40Z</time>
      </trkpt>
      <trkpt lat="40.48245" lon="-5.196682">
        <ele>1215.34</ele>
        <time>2021-03-27T18:21:41Z</time>
      </trkpt>
      <trkpt lat="40.482554" lon="-5.196867">
        <ele>1214.78</ele>
        <time>2021-03-27T18:21:43Z</time>
      </trkpt>
      <trkpt lat="40.482686" lon="-5.197333">
        <ele>1213.7</ele>
        <time>2021-03-27T18:21:45Z</time>
      </trkpt>
      <trkpt lat="40.482837" lon="-5.197994">
        <ele>1215.9</ele>
        <time>2021-03-27T18:21:47Z</time>
      </trkpt>
      <trkpt lat="40.482855" lon="-5.198134">
        <ele>1215.33</ele>
        <time>2021-03-27T18:21:48Z</time>
      </trkpt>
      <trkpt lat="40.482839" lon="-5.198586">
        <ele>1213.57</ele>
        <time>2021-03-27T18:21:50Z</time>
      </trkpt>
      <trkpt lat="40.482862" lon="-5.198717">
        <ele>1212.61</ele>
        <time>2021-03-27T18:21:52Z</time>
      </trkpt>
      <trkpt lat="40.482973" lon="-5.199089">
        <ele>1209.35</ele>
        <time>2021-03-27T18:21:53Z</time>
      </trkpt>
      <trkpt lat="40.482995" lon="-5.199275">
        <ele>1208.48</ele>
        <time>2021-03-27T18:21:55Z</time>
      </trkpt>
      <trkpt lat="40.482973" lon="-5.199421">
        <ele>1208.27</ele>
        <time>2021-03-27T18:21:57Z</time>
      </trkpt>
      <trkpt lat="40.48283" lon="-5.199867">
        <ele>1207.53</ele>
        <time>2021-03-27T18:21:58Z</time>
      </trkpt>
      <trkpt lat="40.482814" lon="-5.199963">
        <ele>1207.47</ele>
        <time>2021-03-27T18:22:00Z</time>
      </trkpt>
      <trkpt lat="40.482823" lon="-5.200057">
        <ele>1207.56</ele>
        <time>2021-03-27T18:22:02Z</time>
      </trkpt>
      <trkpt lat="40.48288" lon="-5.200188">
        <ele>1207.27</ele>
        <time>2021-03-27T18:22:04Z</time>
      </trkpt>
      <trkpt lat="40.483103" lon="-5.20049">
        <ele>1203.02</ele>
        <time>2021-03-27T18:22:05Z</time>
      </trkpt>
      <trkpt lat="40.483521" lon="-5.201347">
        <ele>1200.24</ele>
        <time>2021-03-27T18:22:07Z</time>
      </trkpt>
      <trkpt lat="40.483627" lon="-5.201477">
        <ele>1197.36</ele>
        <time>2021-03-27T18:22:09Z</time>
      </trkpt>
      <trkpt lat="40.483887" lon="-5.20174">
        <ele>1191.49</ele>
        <time>2021-03-27T18:22:10Z</time>
      </trkpt>
      <trkpt lat="40.48393" lon="-5.20182">
        <ele>1190.3</ele>
        <time>2021-03-27T18:22:12Z</time>
      </trkpt>
      <trkpt lat="40.483962" lon="-5.201903">
        <ele>1189.24</ele>
        <time>2021-03-27T18:22:14Z</time>
      </trkpt>
      <trkpt lat="40.484012" lon="-5.202236">
        <ele>1188.41</ele>
        <time>2021-03-27T18:22:16Z</time>
      </trkpt>
      <trkpt lat="40.484069" lon="-5.202443">
        <ele>1188.17</ele>
        <time>2021-03-27T18:22:17Z</time>
      </trkpt>
      <trkpt lat="40.484287" lon="-5.202916">
        <ele>1189.4</ele>
        <time>2021-03-27T18:22:19Z</time>
      </trkpt>
      <trkpt lat="40.484536" lon="-5.203327">
        <ele>1187.63</ele>
        <time>2021-03-27T18:22:21Z</time>
      </trkpt>
      <trkpt lat="40.484728" lon="-5.203565">
        <ele>1188.27</ele>
        <time>2021-03-27T18:22:22Z</time>
      </trkpt>
      <trkpt lat="40.48483" lon="-5.203649">
        <ele>1188.48</ele>
        <time>2021-03-27T18:22:24Z</time>
      </trkpt>
      <trkpt lat="40.485231" lon="-5.20385">
        <ele>1185.65</ele>
        <time>2021-03-27T18:22:26Z</time>
      </trkpt>
      <trkpt lat="40.485297" lon="-5.203906">
        <ele>1184.96</ele>
        <time>2021-03-27T18:22:27Z</time>
      </trkpt>
      <trkpt lat="40.485357" lon="-5.20399">
        <ele>1185.07</ele>
        <time>2021-03-27T18:22:29Z</time>
      </trkpt>
      <trkpt lat="40.485409" lon="-5.204088">
        <ele>1185.22</ele>
        <time>2021-03-27T18:22:31Z</time>
      </trkpt>
      <trkpt lat="40.485549" lon="-5.204657">
        <ele>1187.75</ele>
        <time>2021-03-27T18:22:33Z</time>
      </trkpt>
      <trkpt lat="40.485631" lon="-5.204891">
        <ele>1188.41</ele>
        <time>2021-03-27T18:22:34Z</time>
      </trkpt>
      <trkpt lat="40.485793" lon="-5.20523">
        <ele>1188.48</ele>
        <time>2021-03-27T18:22:36Z</time>
      </trkpt>
      <trkpt lat="40.48607" lon="-5.205577">
        <ele>1187.55</ele>
        <time>2021-03-27T18:22:38Z</time>
      </trkpt>
      <trkpt lat="40.486257" lon="-5.205783">
        <ele>1187.87</ele>
        <time>2021-03-27T18:22:39Z</time>
      </trkpt>
      <trkpt lat="40.486553" lon="-5.206061">
        <ele>1186.54</ele>
        <time>2021-03-27T18:22:41Z</time>
      </trkpt>
      <trkpt lat="40.486995" lon="-5.206594">
        <ele>1183.01</ele>
        <time>2021-03-27T18:22:43Z</time>
      </trkpt>
      <trkpt lat="40.487138" lon="-5.206685">
        <ele>1182.17</ele>
        <time>2021-03-27T18:22:44Z</time>
      </trkpt>
      <trkpt lat="40.487409" lon="-5.206801">
        <ele>1179.08</ele>
        <time>2021-03-27T18:22:46Z</time>
      </trkpt>
      <trkpt lat="40.487536" lon="-5.206946">
        <ele>1178.11</ele>
        <time>2021-03-27T18:22:48Z</time>
      </trkpt>
      <trkpt lat="40.487584" lon="-5.207049">
        <ele>1177.89</ele>
        <time>2021-03-27T18:22:50Z</time>
      </trkpt>
      <trkpt lat="40.487622" lon="-5.207245">
        <ele>1178.64</ele>
        <time>2021-03-27T18:22:51Z</time>
      </trkpt>
      <trkpt lat="40.487576" lon="-5.207664">
        <ele>1181.87</ele>
        <time>2021-03-27T18:22:53Z</time>
      </trkpt>
      <trkpt lat="40.487603" lon="-5.207827">
        <ele>1181.81</ele>
        <time>2021-03-27T18:22:55Z</time>
      </trkpt>
      <trkpt lat="40.487643" lon="-5.207901">
        <ele>1181.59</ele>
        <time>2021-03-27T18:22:56Z</time>
      </trkpt>
      <trkpt lat="40.488027" lon="-5.20844">
        <ele>1182.68</ele>
        <time>2021-03-27T18:22:58Z</time>
      </trkpt>
      <trkpt lat="40.488094" lon="-5.208486">
        <ele>1182.84</ele>
        <time>2021-03-27T18:23:00Z</time>
      </trkpt>
      <trkpt lat="40.488182" lon="-5.208515">
        <ele>1182.41</ele>
        <time>2021-03-27T18:23:01Z</time>
      </trkpt>
      <trkpt lat="40.488385" lon="-5.20853">
        <ele>1179.88</ele>
        <time>2021-03-27T18:23:03Z</time>
      </trkpt>
      <trkpt lat="40.488453" lon="-5.208562">
        <ele>1178.52</ele>
        <time>2021-03-27T18:23:05Z</time>
      </trkpt>
      <trkpt lat="40.488525" lon="-5.208619">
        <ele>1177.24</ele>
        <time>2021-03-27T18:23:07Z</time>
      </trkpt>
      <trkpt lat="40.488588" lon="-5.208702">
        <ele>1176.26</ele>
        <time>2021-03-27T18:23:08Z</time>
      </trkpt>
      <trkpt lat="40.488934" lon="-5.209544">
        <ele>1175.01</ele>
        <time>2021-03-27T18:23:10Z</time>
      </trkpt>
      <trkpt lat="40.489172" lon="-5.210518">
        <ele>1174.76</ele>
        <time>2021-03-27T18:23:12Z</time>
      </trkpt>
      <trkpt lat="40.489221" lon="-5.210663">
        <ele>1174.42</ele>
        <time>2021-03-27T18:23:13Z</time>
      </trkpt>
      <trkpt lat="40.489287" lon="-5.210785">
        <ele>1173.67</ele>
        <time>2021-03-27T18:23:15Z</time>
      </trkpt>
      <trkpt lat="40.489378" lon="-5.210932">
        <ele>1172.73</ele>
        <time>2021-03-27T18:23:17Z</time>
      </trkpt>
      <trkpt lat="40.490111" lon="-5.211871">
        <ele>1172.57</ele>
        <time>2021-03-27T18:23:18Z</time>
      </trkpt>
      <trkpt lat="40.490479" lon="-5.212282">
        <ele>1173.55</ele>
        <time>2021-03-27T18:23:20Z</time>
      </trkpt>
      <trkpt lat="40.490666" lon="-5.212522">
        <ele>1174.02</ele>
        <time>2021-03-27T18:23:22Z</time>
      </trkpt>
      <trkpt lat="40.490871" lon="-5.21291">
        <ele>1172.66</ele>
        <time>2021-03-27T18:23:24Z</time>
      </trkpt>
      <trkpt lat="40.49155" lon="-5.214025">
        <ele>1164.37</ele>
        <time>2021-03-27T18:23:25Z</time>
      </trkpt>
      <trkpt lat="40.492025" lon="-5.214916">
        <ele>1159.24</ele>
        <time>2021-03-27T18:23:27Z</time>
      </trkpt>
      <trkpt lat="40.492775" lon="-5.216575">
        <ele>1149.39</ele>
        <time>2021-03-27T18:23:29Z</time>
      </trkpt>
      <trkpt lat="40.492833" lon="-5.216744">
        <ele>1149.22</ele>
        <time>2021-03-27T18:23:30Z</time>
      </trkpt>
      <trkpt lat="40.49287" lon="-5.216908">
        <ele>1148.92</ele>
        <time>2021-03-27T18:23:32Z</time>
      </trkpt>
      <trkpt lat="40.492885" lon="-5.217059">
        <ele>1148.52</ele>
        <time>2021-03-27T18:23:34Z</time>
      </trkpt>
      <trkpt lat="40.49288" lon="-5.217808">
        <ele>1147.57</ele>
        <time>2021-03-27T18:23:35Z</time>
      </trkpt>
      <trkpt lat="40.492902" lon="-5.217952">
        <ele>1147.49</ele>
        <time>2021-03-27T18:23:37Z</time>
      </trkpt>
      <trkpt lat="40.492949" lon="-5.218077">
        <ele>1147.22</ele>
        <time>2021-03-27T18:23:39Z</time>
      </trkpt>
      <trkpt lat="40.493044" lon="-5.21821">
        <ele>1146.68</ele>
        <time>2021-03-27T18:23:41Z</time>
      </trkpt>
      <trkpt lat="40.493549" lon="-5.218658">
        <ele>1152.19</ele>
        <time>2021-03-27T18:23:42Z</time>
      </trkpt>
      <trkpt lat="40.493814" lon="-5.219026">
        <ele>1152.06</ele>
        <time>2021-03-27T18:23:44Z</time>
      </trkpt>
      <trkpt lat="40.494167" lon="-5.219667">
        <ele>1154.59</ele>
        <time>2021-03-27T18:23:46Z</time>
      </trkpt>
      <trkpt lat="40.494703" lon="-5.220818">
        <ele>1144.43</ele>
        <time>2021-03-27T18:23:47Z</time>
      </trkpt>
      <trkpt lat="40.494858" lon="-5.221107">
        <ele>1144.02</ele>
        <time>2021-03-27T18:23:49Z</time>
      </trkpt>
      <trkpt lat="40.495265" lon="-5.221576">
        <ele>1144.12</ele>
        <time>2021-03-27T18:23:51Z</time>
      </trkpt>
      <trkpt lat="40.495741" lon="-5.222168">
        <ele>1145.13</ele>
        <time>2021-03-27T18:23:52Z</time>
      </trkpt>
      <trkpt lat="40.496479" lon="-5.223385">
        <ele>1141.17</ele>
        <time>2021-03-27T18:23:54Z</time>
      </trkpt>
      <trkpt lat="40.496647" lon="-5.223695">
        <ele>1140.31</ele>
        <time>2021-03-27T18:23:56Z</time>
      </trkpt>
      <trkpt lat="40.49675" lon="-5.223946">
        <ele>1140.4</ele>
        <time>2021-03-27T18:23:58Z</time>
      </trkpt>
      <trkpt lat="40.496798" lon="-5.224115">
        <ele>1139.98</ele>
        <time>2021-03-27T18:23:59Z</time>
      </trkpt>
      <trkpt lat="40.496817" lon="-5.224382">
        <ele>1138.63</ele>
        <time>2021-03-27T18:24:01Z</time>
      </trkpt>
      <trkpt lat="40.496762" lon="-5.224806">
        <ele>1135.84</ele>
        <time>2021-03-27T18:24:03Z</time>
      </trkpt>
      <trkpt lat="40.496766" lon="-5.22493">
        <ele>1134.19</ele>
        <time>2021-03-27T18:24:04Z</time>
      </trkpt>
      <trkpt lat="40.496885" lon="-5.226044">
        <ele>1129.18</ele>
        <time>2021-03-27T18:24:06Z</time>
      </trkpt>
      <trkpt lat="40.496923" lon="-5.226244">
        <ele>1126.7</ele>
        <time>2021-03-27T18:24:08Z</time>
      </trkpt>
      <trkpt lat="40.497028" lon="-5.226639">
        <ele>1122.26</ele>
        <time>2021-03-27T18:24:09Z</time>
      </trkpt>
      <trkpt lat="40.497132" lon="-5.227535">
        <ele>1118.45</ele>
        <time>2021-03-27T18:24:11Z</time>
      </trkpt>
      <trkpt lat="40.497169" lon="-5.22774">
        <ele>1116.56</ele>
        <time>2021-03-27T18:24:13Z</time>
      </trkpt>
      <trkpt lat="40.497321" lon="-5.228184">
        <ele>1109.5</ele>
        <time>2021-03-27T18:24:15Z</time>
      </trkpt>
      <trkpt lat="40.497338" lon="-5.228282">
        <ele>1108.78</ele>
        <time>2021-03-27T18:24:16Z</time>
      </trkpt>
      <trkpt lat="40.497342" lon="-5.228358">
        <ele>1108.75</ele>
        <time>2021-03-27T18:24:18Z</time>
      </trkpt>
      <trkpt lat="40.497288" lon="-5.228667">
        <ele>1112.64</ele>
        <time>2021-03-27T18:24:20Z</time>
      </trkpt>
      <trkpt lat="40.497146" lon="-5.229302">
        <ele>1113.88</ele>
        <time>2021-03-27T18:24:21Z</time>
      </trkpt>
      <trkpt lat="40.497117" lon="-5.229584">
        <ele>1114.02</ele>
        <time>2021-03-27T18:24:23Z</time>
      </trkpt>
      <trkpt lat="40.49729" lon="-5.229569">
        <ele>1111.13</ele>
        <time>2021-03-27T18:24:26Z</time>
      </trkpt>
      <trkpt lat="40.497388" lon="-5.229656">
        <ele>1109.32</ele>
        <time>2021-03-27T18:24:29Z</time>
      </trkpt>
      <trkpt lat="40.497422" lon="-5.229713">
        <ele>1108.68</ele>
        <time>2021-03-27T18:24:31Z</time>
      </trkpt>
      <trkpt lat="40.497453" lon="-5.229818">
        <ele>1108.3</ele>
        <time>2021-03-27T18:24:34Z</time>
      </trkpt>
      <trkpt lat="40.49778" lon="-5.230062">
        <ele>1103.2</ele>
        <time>2021-03-27T18:24:37Z</time>
      </trkpt>
      <trkpt lat="40.497876" lon="-5.230182">
        <ele>1102.95</ele>
        <time>2021-03-27T18:24:40Z</time>
      </trkpt>
      <trkpt lat="40.497926" lon="-5.230274">
        <ele>1102.92</ele>
        <time>2021-03-27T18:24:42Z</time>
      </trkpt>
      <trkpt lat="40.498121" lon="-5.230185">
        <ele>1101.27</ele>
        <time>2021-03-27T18:24:46Z</time>
      </trkpt>
      <trkpt lat="40.498162" lon="-5.230115">
        <ele>1100.87</ele>
        <time>2021-03-27T18:24:48Z</time>
      </trkpt>
      <trkpt lat="40.498478" lon="-5.229867">
        <ele>1097.2</ele>
        <time>2021-03-27T18:24:50Z</time>
      </trkpt>
      <trkpt lat="40.49873" lon="-5.229608">
        <ele>1092.58</ele>
        <time>2021-03-27T18:24:52Z</time>
      </trkpt>
      <trkpt lat="40.498777" lon="-5.229577">
        <ele>1091.97</ele>
        <time>2021-03-27T18:24:54Z</time>
      </trkpt>
      <trkpt lat="40.498828" lon="-5.229594">
        <ele>1091.58</ele>
        <time>2021-03-27T18:24:57Z</time>
      </trkpt>
      <trkpt lat="40.498933" lon="-5.229715">
        <ele>1090.84</ele>
        <time>2021-03-27T18:25:00Z</time>
      </trkpt>
      <trkpt lat="40.499102" lon="-5.229857">
        <ele>1090.34</ele>
        <time>2021-03-27T18:25:02Z</time>
      </trkpt>
      <trkpt lat="40.499287" lon="-5.229965">
        <ele>1088.7</ele>
        <time>2021-03-27T18:25:05Z</time>
      </trkpt>
      <trkpt lat="40.499356" lon="-5.230069">
        <ele>1088.03</ele>
        <time>2021-03-27T18:25:08Z</time>
      </trkpt>
      <trkpt lat="40.499367" lon="-5.230226">
        <ele>1088.06</ele>
        <time>2021-03-27T18:25:10Z</time>
      </trkpt>
      <trkpt lat="40.499328" lon="-5.230454">
        <ele>1089.04</ele>
        <time>2021-03-27T18:25:13Z</time>
      </trkpt>
      <trkpt lat="40.499344" lon="-5.230641">
        <ele>1088.89</ele>
        <time>2021-03-27T18:25:16Z</time>
      </trkpt>
      <trkpt lat="40.499373" lon="-5.230694">
        <ele>1088.4</ele>
        <time>2021-03-27T18:25:18Z</time>
      </trkpt>
      <trkpt lat="40.49997" lon="-5.231096">
        <ele>1079.22</ele>
        <time>2021-03-27T18:25:21Z</time>
      </trkpt>
      <trkpt lat="40.500203" lon="-5.231308">
        <ele>1076.78</ele>
        <time>2021-03-27T18:25:24Z</time>
      </trkpt>
      <trkpt lat="40.500232" lon="-5.231373">
        <ele>1076.6</ele>
        <time>2021-03-27T18:25:26Z</time>
      </trkpt>
      <trkpt lat="40.500251" lon="-5.231872">
        <ele>1075.62</ele>
        <time>2021-03-27T18:25:29Z</time>
      </trkpt>
      <trkpt lat="40.500281" lon="-5.231972">
        <ele>1074.85</ele>
        <time>2021-03-27T18:25:32Z</time>
      </trkpt>
      <trkpt lat="40.500418" lon="-5.232279">
        <ele>1071.07</ele>
        <time>2021-03-27T18:25:34Z</time>
      </trkpt>
      <trkpt lat="40.500437" lon="-5.232384">
        <ele>1070.05</ele>
        <time>2021-03-27T18:25:37Z</time>
      </trkpt>
      <trkpt lat="40.500436" lon="-5.232487">
        <ele>1069.38</ele>
        <time>2021-03-27T18:25:40Z</time>
      </trkpt>
      <trkpt lat="40.500413" lon="-5.232609">
        <ele>1068.94</ele>
        <time>2021-03-27T18:25:42Z</time>
      </trkpt>
      <trkpt lat="40.50035" lon="-5.232816">
        <ele>1068.28</ele>
        <time>2021-03-27T18:25:45Z</time>
      </trkpt>
      <trkpt lat="40.50034" lon="-5.232911">
        <ele>1067.81</ele>
        <time>2021-03-27T18:25:48Z</time>
      </trkpt>
      <trkpt lat="40.50035" lon="-5.233025">
        <ele>1067.16</ele>
        <time>2021-03-27T18:25:50Z</time>
      </trkpt>
      <trkpt lat="40.500412" lon="-5.233196">
        <ele>1066.75</ele>
        <time>2021-03-27T18:25:53Z</time>
      </trkpt>
      <trkpt lat="40.500596" lon="-5.233468">
        <ele>1065.89</ele>
        <time>2021-03-27T18:25:56Z</time>
      </trkpt>
      <trkpt lat="40.50068" lon="-5.233647">
        <ele>1065.45</ele>
        <time>2021-03-27T18:25:58Z</time>
      </trkpt>
      <trkpt lat="40.500792" lon="-5.234068">
        <ele>1065.85</ele>
        <time>2021-03-27T18:26:01Z</time>
      </trkpt>
      <trkpt lat="40.500861" lon="-5.23419">
        <ele>1066.02</ele>
        <time>2021-03-27T18:26:03Z</time>
      </trkpt>
      <trkpt lat="40.501313" lon="-5.234416">
        <ele>1068.46</ele>
        <time>2021-03-27T18:26:06Z</time>
      </trkpt>
      <trkpt lat="40.501766" lon="-5.234914">
        <ele>1068.57</ele>
        <time>2021-03-27T18:26:09Z</time>
      </trkpt>
      <trkpt lat="40.502188" lon="-5.235472">
        <ele>1067.76</ele>
        <time>2021-03-27T18:26:11Z</time>
      </trkpt>
      <trkpt lat="40.502687" lon="-5.236238">
        <ele>1063.54</ele>
        <time>2021-03-27T18:26:14Z</time>
      </trkpt>
      <trkpt lat="40.502935" lon="-5.237037">
        <ele>1063.48</ele>
        <time>2021-03-27T18:26:17Z</time>
      </trkpt>
      <trkpt lat="40.503224" lon="-5.238285">
        <ele>1067.47</ele>
        <time>2021-03-27T18:26:19Z</time>
      </trkpt>
      <trkpt lat="40.503612" lon="-5.239303">
        <ele>1068.51</ele>
        <time>2021-03-27T18:26:22Z</time>
      </trkpt>
      <trkpt lat="40.50394" lon="-5.240489">
        <ele>1068.23</ele>
        <time>2021-03-27T18:26:25Z</time>
      </trkpt>
      <trkpt lat="40.504447" lon="-5.242059">
        <ele>1066.99</ele>
        <time>2021-03-27T18:26:27Z</time>
      </trkpt>
      <trkpt lat="40.504646" lon="-5.243062">
        <ele>1066.25</ele>
        <time>2021-03-27T18:26:30Z</time>
      </trkpt>
      <trkpt lat="40.504639" lon="-5.243407">
        <ele>1065.04</ele>
        <time>2021-03-27T18:26:33Z</time>
      </trkpt>
      <trkpt lat="40.504428" lon="-5.244707">
        <ele>1062.94</ele>
        <time>2021-03-27T18:26:35Z</time>
      </trkpt>
      <trkpt lat="40.504458" lon="-5.245254">
        <ele>1061.96</ele>
        <time>2021-03-27T18:26:38Z</time>
      </trkpt>
      <trkpt lat="40.504857" lon="-5.246667">
        <ele>1056.0</ele>
        <time>2021-03-27T18:26:41Z</time>
      </trkpt>
      <trkpt lat="40.505017" lon="-5.248044">
        <ele>1053.96</ele>
        <time>2021-03-27T18:26:43Z</time>
      </trkpt>
      <trkpt lat="40.505289" lon="-5.251006">
        <ele>1048.0</ele>
        <time>2021-03-27T18:26:46Z</time>
      </trkpt>
      <trkpt lat="40.505296" lon="-5.25128">
        <ele>1048.0</ele>
        <time>2021-03-27T18:26:49Z</time>
      </trkpt>
      <trkpt lat="40.505169" lon="-5.251152">
        <ele>1048.0</ele>
        <time>2021-03-27T18:26:54Z</time>
      </trkpt>
      <trkpt lat="40.505169" lon="-5.251152">
        <ele>1048.0</ele>
        <time>2021-03-27T18:26:54Z</time>
      </trkpt>
      <trkpt lat="40.505296" lon="-5.25128">
        <ele>1048.0</ele>
        <time>2021-03-27T18:26:58Z</time>
      </trkpt>
      <trkpt lat="40.505319" lon="-5.252211">
        <ele>1047.0</ele>
        <time>2021-03-27T18:27:07Z</time>
      </trkpt>
      <trkpt lat="40.505426" lon="-5.253027">
        <ele>1047.48</ele>
        <time>2021-03-27T18:27:15Z</time>
      </trkpt>
      <trkpt lat="40.50548" lon="-5.254289">
        <ele>1049.2</ele>
        <time>2021-03-27T18:27:23Z</time>
      </trkpt>
      <trkpt lat="40.505622" lon="-5.255063">
        <ele>1052.71</ele>
        <time>2021-03-27T18:27:31Z</time>
      </trkpt>
      <trkpt lat="40.505672" lon="-5.25519">
        <ele>1053.53</ele>
        <time>2021-03-27T18:27:39Z</time>
      </trkpt>
      <trkpt lat="40.505769" lon="-5.255369">
        <ele>1054.53</ele>
        <time>2021-03-27T18:27:48Z</time>
      </trkpt>
      <trkpt lat="40.505781" lon="-5.255494">
        <ele>1054.62</ele>
        <time>2021-03-27T18:27:56Z</time>
      </trkpt>
      <trkpt lat="40.505665" lon="-5.256015">
        <ele>1051.67</ele>
        <time>2021-03-27T18:28:04Z</time>
      </trkpt>
      <trkpt lat="40.505598" lon="-5.256443">
        <ele>1050.34</ele>
        <time>2021-03-27T18:28:12Z</time>
      </trkpt>
      <trkpt lat="40.505369" lon="-5.257409">
        <ele>1046.85</ele>
        <time>2021-03-27T18:28:20Z</time>
      </trkpt>
      <trkpt lat="40.505159" lon="-5.258155">
        <ele>1044.41</ele>
        <time>2021-03-27T18:28:29Z</time>
      </trkpt>
      <trkpt lat="40.503468" lon="-5.265705">
        <ele>1037.64</ele>
        <time>2021-03-27T18:28:37Z</time>
      </trkpt>
      <trkpt lat="40.503258" lon="-5.266737">
        <ele>1035.73</ele>
        <time>2021-03-27T18:28:45Z</time>
      </trkpt>
      <trkpt lat="40.503081" lon="-5.267456">
        <ele>1036.1</ele>
        <time>2021-03-27T18:28:53Z</time>
      </trkpt>
      <trkpt lat="40.502976" lon="-5.267749">
        <ele>1036.71</ele>
        <time>2021-03-27T18:29:01Z</time>
      </trkpt>
      <trkpt lat="40.502871" lon="-5.267951">
        <ele>1036.17</ele>
        <time>2021-03-27T18:29:09Z</time>
      </trkpt>
      <trkpt lat="40.502676" lon="-5.268222">
        <ele>1033.53</ele>
        <time>2021-03-27T18:29:18Z</time>
      </trkpt>
      <trkpt lat="40.501137" lon="-5.27001">
        <ele>1026.99</ele>
        <time>2021-03-27T18:29:26Z</time>
      </trkpt>
      <trkpt lat="40.500856" lon="-5.27036">
        <ele>1027.92</ele>
        <time>2021-03-27T18:29:34Z</time>
      </trkpt>
      <trkpt lat="40.496834" lon="-5.276757">
        <ele>1032.39</ele>
        <time>2021-03-27T18:29:42Z</time>
      </trkpt>
      <trkpt lat="40.496441" lon="-5.277472">
        <ele>1035.54</ele>
        <time>2021-03-27T18:29:50Z</time>
      </trkpt>
      <trkpt lat="40.495684" lon="-5.278693">
        <ele>1033.81</ele>
        <time>2021-03-27T18:29:59Z</time>
      </trkpt>
      <trkpt lat="40.495388" lon="-5.279138">
        <ele>1034.56</ele>
        <time>2021-03-27T18:30:07Z</time>
      </trkpt>
      <trkpt lat="40.495091" lon="-5.279532">
        <ele>1035.03</ele>
        <time>2021-03-27T18:30:15Z</time>
      </trkpt>
      <trkpt lat="40.4887" lon="-5.289469">
        <ele>1043.71</ele>
        <time>2021-03-27T18:30:23Z</time>
      </trkpt>
      <trkpt lat="40.488415" lon="-5.289976">
        <ele>1044.0</ele>
        <time>2021-03-27T18:30:31Z</time>
      </trkpt>
      <trkpt lat="40.487866" lon="-5.29087">
        <ele>1044.46</ele>
        <time>2021-03-27T18:30:40Z</time>
      </trkpt>
      <trkpt lat="40.487697" lon="-5.291063">
        <ele>1043.88</ele>
        <time>2021-03-27T18:30:42Z</time>
      </trkpt>
      <trkpt lat="40.487435" lon="-5.291461">
        <ele>1045.01</ele>
        <time>2021-03-27T18:30:44Z</time>
      </trkpt>
      <trkpt lat="40.487371" lon="-5.291508">
        <ele>1045.27</ele>
        <time>2021-03-27T18:30:47Z</time>
      </trkpt>
      <trkpt lat="40.487317" lon="-5.291372">
        <ele>1046.36</ele>
        <time>2021-03-27T18:30:50Z</time>
      </trkpt>
      <trkpt lat="40.487392" lon="-5.290343">
        <ele>1049.15</ele>
        <time>2021-03-27T18:30:53Z</time>
      </trkpt>
      <trkpt lat="40.487406" lon="-5.289968">
        <ele>1049.3</ele>
        <time>2021-03-27T18:30:56Z</time>
      </trkpt>
      <trkpt lat="40.487309" lon="-5.289408">
        <ele>1049.29</ele>
        <time>2021-03-27T18:30:59Z</time>
      </trkpt>
      <trkpt lat="40.487341" lon="-5.288754">
        <ele>1049.84</ele>
        <time>2021-03-27T18:31:02Z</time>
      </trkpt>
      <trkpt lat="40.487378" lon="-5.288359">
        <ele>1053.56</ele>
        <time>2021-03-27T18:31:04Z</time>
      </trkpt>
      <trkpt lat="40.487483" lon="-5.28799">
        <ele>1057.33</ele>
        <time>2021-03-27T18:31:07Z</time>
      </trkpt>
      <trkpt lat="40.48753" lon="-5.287641">
        <ele>1058.17</ele>
        <time>2021-03-27T18:31:10Z</time>
      </trkpt>
      <trkpt lat="40.487509" lon="-5.287498">
        <ele>1058.91</ele>
        <time>2021-03-27T18:31:13Z</time>
      </trkpt>
      <trkpt lat="40.48744" lon="-5.287356">
        <ele>1060.46</ele>
        <time>2021-03-27T18:31:16Z</time>
      </trkpt>
      <trkpt lat="40.487246" lon="-5.287077">
        <ele>1062.44</ele>
        <time>2021-03-27T18:31:19Z</time>
      </trkpt>
      <trkpt lat="40.487196" lon="-5.287052">
        <ele>1062.74</ele>
        <time>2021-03-27T18:31:22Z</time>
      </trkpt>
      <trkpt lat="40.486724" lon="-5.287122">
        <ele>1065.01</ele>
        <time>2021-03-27T18:31:25Z</time>
      </trkpt>
      <trkpt lat="40.486452" lon="-5.287135">
        <ele>1066.39</ele>
        <time>2021-03-27T18:31:28Z</time>
      </trkpt>
      <trkpt lat="40.486086" lon="-5.287181">
        <ele>1067.87</ele>
        <time>2021-03-27T18:31:31Z</time>
      </trkpt>
      <trkpt lat="40.485815" lon="-5.287256">
        <ele>1068.13</ele>
        <time>2021-03-27T18:31:34Z</time>
      </trkpt>
      <trkpt lat="40.485491" lon="-5.287531">
        <ele>1070.24</ele>
        <time>2021-03-27T18:31:37Z</time>
      </trkpt>
      <trkpt lat="40.484851" lon="-5.287988">
        <ele>1072.64</ele>
        <time>2021-03-27T18:31:40Z</time>
      </trkpt>
      <trkpt lat="40.484595" lon="-5.288113">
        <ele>1075.06</ele>
        <time>2021-03-27T18:31:43Z</time>
      </trkpt>
      <trkpt lat="40.48415" lon="-5.288108">
        <ele>1078.99</ele>
        <time>2021-03-27T18:31:46Z</time>
      </trkpt>
      <trkpt lat="40.484015" lon="-5.288063">
        <ele>1080.61</ele>
        <time>2021-03-27T18:31:49Z</time>
      </trkpt>
      <trkpt lat="40.483861" lon="-5.287894">
        <ele>1082.77</ele>
        <time>2021-03-27T18:31:52Z</time>
      </trkpt>
      <trkpt lat="40.483678" lon="-5.287618">
        <ele>1084.77</ele>
        <time>2021-03-27T18:31:55Z</time>
      </trkpt>
      <trkpt lat="40.483536" lon="-5.287506">
        <ele>1085.97</ele>
        <time>2021-03-27T18:31:58Z</time>
      </trkpt>
      <trkpt lat="40.483281" lon="-5.287425">
        <ele>1087.08</ele>
        <time>2021-03-27T18:32:01Z</time>
      </trkpt>
      <trkpt lat="40.483153" lon="-5.287327">
        <ele>1088.36</ele>
        <time>2021-03-27T18:32:04Z</time>
      </trkpt>
      <trkpt lat="40.483046" lon="-5.287203">
        <ele>1089.17</ele>
        <time>2021-03-27T18:32:07Z</time>
      </trkpt>
      <trkpt lat="40.482529" lon="-5.286176">
        <ele>1096.4</ele>
        <time>2021-03-27T18:32:10Z</time>
      </trkpt>
      <trkpt lat="40.482414" lon="-5.286059">
        <ele>1097.49</ele>
        <time>2021-03-27T18:32:13Z</time>
      </trkpt>
      <trkpt lat="40.481736" lon="-5.285757">
        <ele>1101.84</ele>
        <time>2021-03-27T18:32:16Z</time>
      </trkpt>
      <trkpt lat="40.481501" lon="-5.285707">
        <ele>1103.65</ele>
        <time>2021-03-27T18:32:19Z</time>
      </trkpt>
      <trkpt lat="40.480521" lon="-5.285705">
        <ele>1107.59</ele>
        <time>2021-03-27T18:32:22Z</time>
      </trkpt>
      <trkpt lat="40.480161" lon="-5.285759">
        <ele>1108.57</ele>
        <time>2021-03-27T18:32:25Z</time>
      </trkpt>
      <trkpt lat="40.478755" lon="-5.285723">
        <ele>1114.48</ele>
        <time>2021-03-27T18:32:28Z</time>
      </trkpt>
      <trkpt lat="40.478172" lon="-5.285535">
        <ele>1116.69</ele>
        <time>2021-03-27T18:32:31Z</time>
      </trkpt>
      <trkpt lat="40.477584" lon="-5.285299">
        <ele>1122.04</ele>
        <time>2021-03-27T18:32:34Z</time>
      </trkpt>
      <trkpt lat="40.476329" lon="-5.284489">
        <ele>1127.84</ele>
        <time>2021-03-27T18:32:36Z</time>
      </trkpt>
      <trkpt lat="40.475759" lon="-5.284336">
        <ele>1131.58</ele>
        <time>2021-03-27T18:32:39Z</time>
      </trkpt>
      <trkpt lat="40.475594" lon="-5.284246">
        <ele>1134.02</ele>
        <time>2021-03-27T18:32:42Z</time>
      </trkpt>
      <trkpt lat="40.474866" lon="-5.283085">
        <ele>1148.35</ele>
        <time>2021-03-27T18:32:45Z</time>
      </trkpt>
      <trkpt lat="40.474214" lon="-5.282093">
        <ele>1159.14</ele>
        <time>2021-03-27T18:32:48Z</time>
      </trkpt>
      <trkpt lat="40.473879" lon="-5.28191">
        <ele>1159.37</ele>
        <time>2021-03-27T18:32:51Z</time>
      </trkpt>
      <trkpt lat="40.473442" lon="-5.281774">
        <ele>1161.82</ele>
        <time>2021-03-27T18:32:54Z</time>
      </trkpt>
      <trkpt lat="40.473119" lon="-5.281597">
        <ele>1165.97</ele>
        <time>2021-03-27T18:32:57Z</time>
      </trkpt>
      <trkpt lat="40.472901" lon="-5.281384">
        <ele>1167.04</ele>
        <time>2021-03-27T18:33:00Z</time>
      </trkpt>
      <trkpt lat="40.472744" lon="-5.281166">
        <ele>1168.7</ele>
        <time>2021-03-27T18:33:03Z</time>
      </trkpt>
      <trkpt lat="40.472706" lon="-5.281031">
        <ele>1170.12</ele>
        <time>2021-03-27T18:33:06Z</time>
      </trkpt>
      <trkpt lat="40.472681" lon="-5.280729">
        <ele>1173.23</ele>
        <time>2021-03-27T18:33:09Z</time>
      </trkpt>
      <trkpt lat="40.472655" lon="-5.280665">
        <ele>1173.92</ele>
        <time>2021-03-27T18:33:12Z</time>
      </trkpt>
      <trkpt lat="40.472597" lon="-5.280681">
        <ele>1174.1</ele>
        <time>2021-03-27T18:33:15Z</time>
      </trkpt>
      <trkpt lat="40.472547" lon="-5.28064">
        <ele>1174.8</ele>
        <time>2021-03-27T18:33:18Z</time>
      </trkpt>
      <trkpt lat="40.47239" lon="-5.280843">
        <ele>1174.07</ele>
        <time>2021-03-27T18:33:21Z</time>
      </trkpt>
      <trkpt lat="40.472255" lon="-5.28112">
        <ele>1171.69</ele>
        <time>2021-03-27T18:33:24Z</time>
      </trkpt>
      <trkpt lat="40.472216" lon="-5.281295">
        <ele>1170.8</ele>
        <time>2021-03-27T18:33:27Z</time>
      </trkpt>
      <trkpt lat="40.472182" lon="-5.281734">
        <ele>1169.7</ele>
        <time>2021-03-27T18:33:29Z</time>
      </trkpt>
      <trkpt lat="40.472051" lon="-5.282487">
        <ele>1165.95</ele>
        <time>2021-03-27T18:33:32Z</time>
      </trkpt>
      <trkpt lat="40.472072" lon="-5.282986">
        <ele>1164.73</ele>
        <time>2021-03-27T18:33:35Z</time>
      </trkpt>
      <trkpt lat="40.472261" lon="-5.283705">
        <ele>1164.09</ele>
        <time>2021-03-27T18:33:38Z</time>
      </trkpt>
      <trkpt lat="40.472285" lon="-5.28415">
        <ele>1162.16</ele>
        <time>2021-03-27T18:33:41Z</time>
      </trkpt>
      <trkpt lat="40.472352" lon="-5.284735">
        <ele>1161.09</ele>
        <time>2021-03-27T18:33:44Z</time>
      </trkpt>
      <trkpt lat="40.472386" lon="-5.285705">
        <ele>1162.01</ele>
        <time>2021-03-27T18:33:47Z</time>
      </trkpt>
      <trkpt lat="40.47235" lon="-5.285968">
        <ele>1161.59</ele>
        <time>2021-03-27T18:33:50Z</time>
      </trkpt>
      <trkpt lat="40.47237" lon="-5.286377">
        <ele>1159.97</ele>
        <time>2021-03-27T18:33:52Z</time>
      </trkpt>
      <trkpt lat="40.472413" lon="-5.28656">
        <ele>1158.2</ele>
        <time>2021-03-27T18:33:55Z</time>
      </trkpt>
      <trkpt lat="40.472407" lon="-5.286711">
        <ele>1157.01</ele>
        <time>2021-03-27T18:33:58Z</time>
      </trkpt>
      <trkpt lat="40.472366" lon="-5.286865">
        <ele>1156.06</ele>
        <time>2021-03-27T18:34:01Z</time>
      </trkpt>
      <trkpt lat="40.472071" lon="-5.287714">
        <ele>1154.01</ele>
        <time>2021-03-27T18:34:04Z</time>
      </trkpt>
      <trkpt lat="40.47199" lon="-5.28783">
        <ele>1153.62</ele>
        <time>2021-03-27T18:34:07Z</time>
      </trkpt>
      <trkpt lat="40.471774" lon="-5.287969">
        <ele>1154.11</ele>
        <time>2021-03-27T18:34:10Z</time>
      </trkpt>
      <trkpt lat="40.471601" lon="-5.288134">
        <ele>1154.71</ele>
        <time>2021-03-27T18:34:13Z</time>
      </trkpt>
      <trkpt lat="40.471472" lon="-5.288335">
        <ele>1156.09</ele>
        <time>2021-03-27T18:34:16Z</time>
      </trkpt>
      <trkpt lat="40.471388" lon="-5.288565">
        <ele>1155.34</ele>
        <time>2021-03-27T18:34:18Z</time>
      </trkpt>
      <trkpt lat="40.471348" lon="-5.28877">
        <ele>1154.06</ele>
        <time>2021-03-27T18:34:21Z</time>
      </trkpt>
      <trkpt lat="40.471346" lon="-5.289295">
        <ele>1150.54</ele>
        <time>2021-03-27T18:34:24Z</time>
      </trkpt>
      <trkpt lat="40.471373" lon="-5.290169">
        <ele>1147.76</ele>
        <time>2021-03-27T18:34:27Z</time>
      </trkpt>
      <trkpt lat="40.471361" lon="-5.290921">
        <ele>1139.82</ele>
        <time>2021-03-27T18:34:30Z</time>
      </trkpt>
      <trkpt lat="40.47138" lon="-5.291228">
        <ele>1139.04</ele>
        <time>2021-03-27T18:34:33Z</time>
      </trkpt>
      <trkpt lat="40.471605" lon="-5.292156">
        <ele>1133.29</ele>
        <time>2021-03-27T18:34:36Z</time>
      </trkpt>
      <trkpt lat="40.471646" lon="-5.292467">
        <ele>1131.3</ele>
        <time>2021-03-27T18:34:39Z</time>
      </trkpt>
      <trkpt lat="40.471605" lon="-5.292872">
        <ele>1129.32</ele>
        <time>2021-03-27T18:34:41Z</time>
      </trkpt>
      <trkpt lat="40.471533" lon="-5.293111">
        <ele>1127.49</ele>
        <time>2021-03-27T18:34:44Z</time>
      </trkpt>
      <trkpt lat="40.471272" lon="-5.293566">
        <ele>1124.26</ele>
        <time>2021-03-27T18:34:47Z</time>
      </trkpt>
      <trkpt lat="40.471207" lon="-5.293729">
        <ele>1123.31</ele>
        <time>2021-03-27T18:34:50Z</time>
      </trkpt>
      <trkpt lat="40.470798" lon="-5.295397">
        <ele>1117.43</ele>
        <time>2021-03-27T18:34:53Z</time>
      </trkpt>
      <trkpt lat="40.470385" lon="-5.296861">
        <ele>1116.87</ele>
        <time>2021-03-27T18:34:56Z</time>
      </trkpt>
      <trkpt lat="40.469948" lon="-5.297553">
        <ele>1119.99</ele>
        <time>2021-03-27T18:34:59Z</time>
      </trkpt>
      <trkpt lat="40.469419" lon="-5.298752">
        <ele>1113.35</ele>
        <time>2021-03-27T18:35:02Z</time>
      </trkpt>
      <trkpt lat="40.468994" lon="-5.300323">
        <ele>1104.67</ele>
        <time>2021-03-27T18:35:05Z</time>
      </trkpt>
      <trkpt lat="40.469037" lon="-5.300632">
        <ele>1102.45</ele>
        <time>2021-03-27T18:35:07Z</time>
      </trkpt>
      <trkpt lat="40.469507" lon="-5.301314">
        <ele>1095.35</ele>
        <time>2021-03-27T18:35:10Z</time>
      </trkpt>
      <trkpt lat="40.469507" lon="-5.301478">
        <ele>1093.34</ele>
        <time>2021-03-27T18:35:13Z</time>
      </trkpt>
      <trkpt lat="40.469446" lon="-5.301631">
        <ele>1091.51</ele>
        <time>2021-03-27T18:35:16Z</time>
      </trkpt>
      <trkpt lat="40.469311" lon="-5.301725">
        <ele>1090.58</ele>
        <time>2021-03-27T18:35:19Z</time>
      </trkpt>
      <trkpt lat="40.468372" lon="-5.301913">
        <ele>1087.22</ele>
        <time>2021-03-27T18:35:22Z</time>
      </trkpt>
      <trkpt lat="40.468232" lon="-5.301964">
        <ele>1087.73</ele>
        <time>2021-03-27T18:35:25Z</time>
      </trkpt>
      <trkpt lat="40.468148" lon="-5.302112">
        <ele>1088.33</ele>
        <time>2021-03-27T18:35:28Z</time>
      </trkpt>
      <trkpt lat="40.468097" lon="-5.302335">
        <ele>1088.29</ele>
        <time>2021-03-27T18:35:30Z</time>
      </trkpt>
      <trkpt lat="40.46807" lon="-5.302657">
        <ele>1087.35</ele>
        <time>2021-03-27T18:35:33Z</time>
      </trkpt>
      <trkpt lat="40.468183" lon="-5.303624">
        <ele>1084.52</ele>
        <time>2021-03-27T18:35:36Z</time>
      </trkpt>
      <trkpt lat="40.468203" lon="-5.304164">
        <ele>1084.0</ele>
        <time>2021-03-27T18:35:39Z</time>
      </trkpt>
      <trkpt lat="40.468052" lon="-5.305912">
        <ele>1082.01</ele>
        <time>2021-03-27T18:35:42Z</time>
      </trkpt>
      <trkpt lat="40.467862" lon="-5.306886">
        <ele>1081.9</ele>
        <time>2021-03-27T18:35:45Z</time>
      </trkpt>
      <trkpt lat="40.467715" lon="-5.307347">
        <ele>1079.22</ele>
        <time>2021-03-27T18:35:48Z</time>
      </trkpt>
      <trkpt lat="40.467429" lon="-5.308102">
        <ele>1075.1</ele>
        <time>2021-03-27T18:35:51Z</time>
      </trkpt>
      <trkpt lat="40.467098" lon="-5.308583">
        <ele>1072.06</ele>
        <time>2021-03-27T18:35:54Z</time>
      </trkpt>
      <trkpt lat="40.467032" lon="-5.308885">
        <ele>1070.7</ele>
        <time>2021-03-27T18:35:56Z</time>
      </trkpt>
      <trkpt lat="40.467019" lon="-5.310138">
        <ele>1064.77</ele>
        <time>2021-03-27T18:35:59Z</time>
      </trkpt>
      <trkpt lat="40.466933" lon="-5.310609">
        <ele>1062.11</ele>
        <time>2021-03-27T18:36:02Z</time>
      </trkpt>
      <trkpt lat="40.466702" lon="-5.311589">
        <ele>1064.37</ele>
        <time>2021-03-27T18:36:05Z</time>
      </trkpt>
      <trkpt lat="40.46625" lon="-5.312529">
        <ele>1063.9</ele>
        <time>2021-03-27T18:36:08Z</time>
      </trkpt>
      <trkpt lat="40.46609" lon="-5.313165">
        <ele>1061.53</ele>
        <time>2021-03-27T18:36:11Z</time>
      </trkpt>
      <trkpt lat="40.465615" lon="-5.314359">
        <ele>1054.09</ele>
        <time>2021-03-27T18:36:14Z</time>
      </trkpt>
      <trkpt lat="40.465604" lon="-5.314577">
        <ele>1053.74</ele>
        <time>2021-03-27T18:36:17Z</time>
      </trkpt>
      <trkpt lat="40.465969" lon="-5.315491">
        <ele>1053.02</ele>
        <time>2021-03-27T18:36:20Z</time>
      </trkpt>
      <trkpt lat="40.46623" lon="-5.316519">
        <ele>1056.47</ele>
        <time>2021-03-27T18:36:22Z</time>
      </trkpt>
      <trkpt lat="40.466373" lon="-5.317348">
        <ele>1058.97</ele>
        <time>2021-03-27T18:36:25Z</time>
      </trkpt>
      <trkpt lat="40.466427" lon="-5.318558">
        <ele>1056.36</ele>
        <time>2021-03-27T18:36:28Z</time>
      </trkpt>
      <trkpt lat="40.46636" lon="-5.319544">
        <ele>1052.68</ele>
        <time>2021-03-27T18:36:31Z</time>
      </trkpt>
      <trkpt lat="40.466406" lon="-5.319704">
        <ele>1052.06</ele>
        <time>2021-03-27T18:36:34Z</time>
      </trkpt>
      <trkpt lat="40.466469" lon="-5.319694">
        <ele>1052.07</ele>
        <time>2021-03-27T18:36:41Z</time>
      </trkpt>
      <trkpt lat="40.46652" lon="-5.319723">
        <ele>1052.0</ele>
        <time>2021-03-27T18:36:47Z</time>
      </trkpt>
      <trkpt lat="40.466561" lon="-5.319798">
        <ele>1051.73</ele>
        <time>2021-03-27T18:36:54Z</time>
      </trkpt>
      <trkpt lat="40.466556" lon="-5.319907">
        <ele>1051.33</ele>
        <time>2021-03-27T18:37:00Z</time>
      </trkpt>
      <trkpt lat="40.466496" lon="-5.319984">
        <ele>1051.06</ele>
        <time>2021-03-27T18:37:07Z</time>
      </trkpt>
      <trkpt lat="40.46645" lon="-5.319997">
        <ele>1051.01</ele>
        <time>2021-03-27T18:37:13Z</time>
      </trkpt>
      <trkpt lat="40.466296" lon="-5.320169">
        <ele>1051.13</ele>
        <time>2021-03-27T18:37:20Z</time>
      </trkpt>
      <trkpt lat="40.464751" lon="-5.323406">
        <ele>1056.79</ele>
        <time>2021-03-27T18:37:26Z</time>
      </trkpt>
      <trkpt lat="40.464179" lon="-5.324341">
        <ele>1060.86</ele>
        <time>2021-03-27T18:37:33Z</time>
      </trkpt>
      <trkpt lat="40.464182" lon="-5.324614">
        <ele>1061.41</ele>
        <time>2021-03-27T18:37:39Z</time>
      </trkpt>
      <trkpt lat="40.464205" lon="-5.324689">
        <ele>1061.34</ele>
        <time>2021-03-27T18:37:41Z</time>
      </trkpt>
      <trkpt lat="40.464192" lon="-5.324785">
        <ele>1061.67</ele>
        <time>2021-03-27T18:37:43Z</time>
      </trkpt>
      <trkpt lat="40.464144" lon="-5.32485">
        <ele>1062.29</ele>
        <time>2021-03-27T18:37:45Z</time>
      </trkpt>
      <trkpt lat="40.464109" lon="-5.324868">
        <ele>1062.72</ele>
        <time>2021-03-27T18:37:47Z</time>
      </trkpt>
      <trkpt lat="40.464042" lon="-5.324861">
        <ele>1063.57</ele>
        <time>2021-03-27T18:37:48Z</time>
      </trkpt>
      <trkpt lat="40.463895" lon="-5.324908">
        <ele>1065.26</ele>
        <time>2021-03-27T18:37:50Z</time>
      </trkpt>
      <trkpt lat="40.463662" lon="-5.324941">
        <ele>1067.31</ele>
        <time>2021-03-27T18:37:52Z</time>
      </trkpt>
      <trkpt lat="40.463241" lon="-5.325288">
        <ele>1071.67</ele>
        <time>2021-03-27T18:37:58Z</time>
      </trkpt>
      <trkpt lat="40.463161" lon="-5.325374">
        <ele>1072.24</ele>
        <time>2021-03-27T18:38:04Z</time>
      </trkpt>
      <trkpt lat="40.462895" lon="-5.325805">
        <ele>1073.96</ele>
        <time>2021-03-27T18:38:09Z</time>
      </trkpt>
      <trkpt lat="40.462637" lon="-5.326107">
        <ele>1074.01</ele>
        <time>2021-03-27T18:38:15Z</time>
      </trkpt>
      <trkpt lat="40.462147" lon="-5.326604">
        <ele>1073.22</ele>
        <time>2021-03-27T18:38:21Z</time>
      </trkpt>
      <trkpt lat="40.461914" lon="-5.326895">
        <ele>1071.37</ele>
        <time>2021-03-27T18:38:27Z</time>
      </trkpt>
      <trkpt lat="40.461704" lon="-5.327199">
        <ele>1069.96</ele>
        <time>2021-03-27T18:38:32Z</time>
      </trkpt>
      <trkpt lat="40.461696" lon="-5.32729">
        <ele>1069.65</ele>
        <time>2021-03-27T18:38:38Z</time>
      </trkpt>
      <trkpt lat="40.461764" lon="-5.327402">
        <ele>1069.0</ele>
        <time>2021-03-27T18:38:44Z</time>
      </trkpt>
      <trkpt lat="40.461382" lon="-5.327563">
        <ele>1071.02</ele>
        <time>2021-03-27T18:38:45Z</time>
      </trkpt>
      <trkpt lat="40.460743" lon="-5.328003">
        <ele>1076.79</ele>
        <time>2021-03-27T18:38:46Z</time>
      </trkpt>
      <trkpt lat="40.460506" lon="-5.328112">
        <ele>1079.6</ele>
        <time>2021-03-27T18:38:48Z</time>
      </trkpt>
      <trkpt lat="40.460366" lon="-5.328145">
        <ele>1080.91</ele>
        <time>2021-03-27T18:38:49Z</time>
      </trkpt>
      <trkpt lat="40.458897" lon="-5.328014">
        <ele>1089.24</ele>
        <time>2021-03-27T18:38:51Z</time>
      </trkpt>
      <trkpt lat="40.458583" lon="-5.327953">
        <ele>1090.1</ele>
        <time>2021-03-27T18:38:52Z</time>
      </trkpt>
      <trkpt lat="40.458388" lon="-5.327891">
        <ele>1090.77</ele>
        <time>2021-03-27T18:38:53Z</time>
      </trkpt>
      <trkpt lat="40.45514" lon="-5.326389">
        <ele>1115.49</ele>
        <time>2021-03-27T18:38:55Z</time>
      </trkpt>
      <trkpt lat="40.455013" lon="-5.326308">
        <ele>1116.53</ele>
        <time>2021-03-27T18:38:56Z</time>
      </trkpt>
      <trkpt lat="40.454303" lon="-5.325465">
        <ele>1123.85</ele>
        <time>2021-03-27T18:38:57Z</time>
      </trkpt>
      <trkpt lat="40.453793" lon="-5.324981">
        <ele>1123.03</ele>
        <time>2021-03-27T18:38:59Z</time>
      </trkpt>
      <trkpt lat="40.453587" lon="-5.324757">
        <ele>1125.41</ele>
        <time>2021-03-27T18:39:00Z</time>
      </trkpt>
      <trkpt lat="40.453323" lon="-5.324358">
        <ele>1131.26</ele>
        <time>2021-03-27T18:39:01Z</time>
      </trkpt>
      <trkpt lat="40.453251" lon="-5.324165">
        <ele>1133.07</ele>
        <time>2021-03-27T18:39:03Z</time>
      </trkpt>
      <trkpt lat="40.453209" lon="-5.324">
        <ele>1134.14</ele>
        <time>2021-03-27T18:39:04Z</time>
      </trkpt>
      <trkpt lat="40.452655" lon="-5.320993">
        <ele>1150.92</ele>
        <time>2021-03-27T18:39:06Z</time>
      </trkpt>
      <trkpt lat="40.452529" lon="-5.320589">
        <ele>1151.52</ele>
        <time>2021-03-27T18:39:07Z</time>
      </trkpt>
      <trkpt lat="40.452428" lon="-5.320416">
        <ele>1152.57</ele>
        <time>2021-03-27T18:39:08Z</time>
      </trkpt>
      <trkpt lat="40.452221" lon="-5.320145">
        <ele>1155.08</ele>
        <time>2021-03-27T18:39:10Z</time>
      </trkpt>
      <trkpt lat="40.452187" lon="-5.320013">
        <ele>1155.11</ele>
        <time>2021-03-27T18:39:11Z</time>
      </trkpt>
      <trkpt lat="40.452187" lon="-5.319555">
        <ele>1153.05</ele>
        <time>2021-03-27T18:39:12Z</time>
      </trkpt>
      <trkpt lat="40.452166" lon="-5.31935">
        <ele>1153.74</ele>
        <time>2021-03-27T18:39:14Z</time>
      </trkpt>
      <trkpt lat="40.452114" lon="-5.31924">
        <ele>1154.51</ele>
        <time>2021-03-27T18:39:15Z</time>
      </trkpt>
      <trkpt lat="40.452011" lon="-5.319138">
        <ele>1155.88</ele>
        <time>2021-03-27T18:39:16Z</time>
      </trkpt>
      <trkpt lat="40.451543" lon="-5.318834">
        <ele>1158.84</ele>
        <time>2021-03-27T18:39:18Z</time>
      </trkpt>
      <trkpt lat="40.451399" lon="-5.3188">
        <ele>1159.6</ele>
        <time>2021-03-27T18:39:19Z</time>
      </trkpt>
      <trkpt lat="40.451306" lon="-5.318801">
        <ele>1160.73</ele>
        <time>2021-03-27T18:39:21Z</time>
      </trkpt>
      <trkpt lat="40.450883" lon="-5.318992">
        <ele>1166.14</ele>
        <time>2021-03-27T18:39:22Z</time>
      </trkpt>
      <trkpt lat="40.450736" lon="-5.319159">
        <ele>1168.31</ele>
        <time>2021-03-27T18:39:23Z</time>
      </trkpt>
      <trkpt lat="40.450649" lon="-5.319395">
        <ele>1168.66</ele>
        <time>2021-03-27T18:39:25Z</time>
      </trkpt>
      <trkpt lat="40.450453" lon="-5.320314">
        <ele>1172.92</ele>
        <time>2021-03-27T18:39:26Z</time>
      </trkpt>
      <trkpt lat="40.450342" lon="-5.320682">
        <ele>1176.57</ele>
        <time>2021-03-27T18:39:27Z</time>
      </trkpt>
      <trkpt lat="40.450049" lon="-5.32154">
        <ele>1181.75</ele>
        <time>2021-03-27T18:39:29Z</time>
      </trkpt>
      <trkpt lat="40.449937" lon="-5.321759">
        <ele>1182.83</ele>
        <time>2021-03-27T18:39:30Z</time>
      </trkpt>
      <trkpt lat="40.449876" lon="-5.321819">
        <ele>1183.54</ele>
        <time>2021-03-27T18:39:31Z</time>
      </trkpt>
      <trkpt lat="40.449439" lon="-5.322102">
        <ele>1187.45</ele>
        <time>2021-03-27T18:39:33Z</time>
      </trkpt>
      <trkpt lat="40.449307" lon="-5.322118">
        <ele>1187.99</ele>
        <time>2021-03-27T18:39:34Z</time>
      </trkpt>
      <trkpt lat="40.449251" lon="-5.322106">
        <ele>1188.22</ele>
        <time>2021-03-27T18:39:36Z</time>
      </trkpt>
      <trkpt lat="40.449202" lon="-5.322072">
        <ele>1188.34</ele>
        <time>2021-03-27T18:39:37Z</time>
      </trkpt>
      <trkpt lat="40.44913" lon="-5.321985">
        <ele>1188.28</ele>
        <time>2021-03-27T18:39:38Z</time>
      </trkpt>
      <trkpt lat="40.448857" lon="-5.321521">
        <ele>1190.86</ele>
        <time>2021-03-27T18:39:40Z</time>
      </trkpt>
      <trkpt lat="40.448733" lon="-5.321378">
        <ele>1192.7</ele>
        <time>2021-03-27T18:39:41Z</time>
      </trkpt>
      <trkpt lat="40.448632" lon="-5.321303">
        <ele>1193.79</ele>
        <time>2021-03-27T18:39:42Z</time>
      </trkpt>
      <trkpt lat="40.448481" lon="-5.321228">
        <ele>1194.94</ele>
        <time>2021-03-27T18:39:44Z</time>
      </trkpt>
      <trkpt lat="40.44812" lon="-5.321082">
        <ele>1196.66</ele>
        <time>2021-03-27T18:39:45Z</time>
      </trkpt>
      <trkpt lat="40.447925" lon="-5.32095">
        <ele>1197.83</ele>
        <time>2021-03-27T18:39:46Z</time>
      </trkpt>
      <trkpt lat="40.447792" lon="-5.32078">
        <ele>1198.47</ele>
        <time>2021-03-27T18:39:48Z</time>
      </trkpt>
      <trkpt lat="40.447278" lon="-5.319765">
        <ele>1203.57</ele>
        <time>2021-03-27T18:39:49Z</time>
      </trkpt>
      <trkpt lat="40.447212" lon="-5.319546">
        <ele>1205.42</ele>
        <time>2021-03-27T18:39:51Z</time>
      </trkpt>
      <trkpt lat="40.447224" lon="-5.319437">
        <ele>1206.01</ele>
        <time>2021-03-27T18:39:52Z</time>
      </trkpt>
      <trkpt lat="40.447318" lon="-5.319218">
        <ele>1205.78</ele>
        <time>2021-03-27T18:39:53Z</time>
      </trkpt>
      <trkpt lat="40.447624" lon="-5.318612">
        <ele>1207.65</ele>
        <time>2021-03-27T18:39:55Z</time>
      </trkpt>
      <trkpt lat="40.447703" lon="-5.318301">
        <ele>1209.39</ele>
        <time>2021-03-27T18:39:56Z</time>
      </trkpt>
      <trkpt lat="40.447722" lon="-5.318098">
        <ele>1211.18</ele>
        <time>2021-03-27T18:39:57Z</time>
      </trkpt>
      <trkpt lat="40.447719" lon="-5.316769">
        <ele>1217.47</ele>
        <time>2021-03-27T18:39:59Z</time>
      </trkpt>
      <trkpt lat="40.447686" lon="-5.316472">
        <ele>1219.02</ele>
        <time>2021-03-27T18:40:00Z</time>
      </trkpt>
      <trkpt lat="40.447649" lon="-5.316324">
        <ele>1220.19</ele>
        <time>2021-03-27T18:40:01Z</time>
      </trkpt>
      <trkpt lat="40.447353" lon="-5.315519">
        <ele>1225.19</ele>
        <time>2021-03-27T18:40:03Z</time>
      </trkpt>
      <trkpt lat="40.446925" lon="-5.314448">
        <ele>1235.27</ele>
        <time>2021-03-27T18:40:04Z</time>
      </trkpt>
      <trkpt lat="40.446857" lon="-5.314185">
        <ele>1238.72</ele>
        <time>2021-03-27T18:40:06Z</time>
      </trkpt>
      <trkpt lat="40.446846" lon="-5.314056">
        <ele>1240.46</ele>
        <time>2021-03-27T18:40:07Z</time>
      </trkpt>
      <trkpt lat="40.446883" lon="-5.313676">
        <ele>1243.09</ele>
        <time>2021-03-27T18:40:08Z</time>
      </trkpt>
      <trkpt lat="40.446931" lon="-5.313484">
        <ele>1243.69</ele>
        <time>2021-03-27T18:40:10Z</time>
      </trkpt>
      <trkpt lat="40.447048" lon="-5.313222">
        <ele>1244.74</ele>
        <time>2021-03-27T18:40:11Z</time>
      </trkpt>
      <trkpt lat="40.447143" lon="-5.313095">
        <ele>1244.85</ele>
        <time>2021-03-27T18:40:12Z</time>
      </trkpt>
      <trkpt lat="40.447469" lon="-5.31279">
        <ele>1243.55</ele>
        <time>2021-03-27T18:40:14Z</time>
      </trkpt>
      <trkpt lat="40.447524" lon="-5.312717">
        <ele>1243.63</ele>
        <time>2021-03-27T18:40:15Z</time>
      </trkpt>
      <trkpt lat="40.44756" lon="-5.312578">
        <ele>1245.39</ele>
        <time>2021-03-27T18:40:16Z</time>
      </trkpt>
      <trkpt lat="40.447554" lon="-5.31249">
        <ele>1246.71</ele>
        <time>2021-03-27T18:40:18Z</time>
      </trkpt>
      <trkpt lat="40.447522" lon="-5.312388">
        <ele>1248.05</ele>
        <time>2021-03-27T18:40:19Z</time>
      </trkpt>
      <trkpt lat="40.447355" lon="-5.312021">
        <ele>1252.92</ele>
        <time>2021-03-27T18:40:21Z</time>
      </trkpt>
      <trkpt lat="40.447304" lon="-5.311961">
        <ele>1253.42</ele>
        <time>2021-03-27T18:40:22Z</time>
      </trkpt>
      <trkpt lat="40.447246" lon="-5.311927">
        <ele>1253.89</ele>
        <time>2021-03-27T18:40:23Z</time>
      </trkpt>
      <trkpt lat="40.447194" lon="-5.311935">
        <ele>1254.43</ele>
        <time>2021-03-27T18:40:25Z</time>
      </trkpt>
      <trkpt lat="40.447094" lon="-5.312037">
        <ele>1256.03</ele>
        <time>2021-03-27T18:40:26Z</time>
      </trkpt>
      <trkpt lat="40.446899" lon="-5.312523">
        <ele>1258.34</ele>
        <time>2021-03-27T18:40:27Z</time>
      </trkpt>
      <trkpt lat="40.446833" lon="-5.312623">
        <ele>1258.0</ele>
        <time>2021-03-27T18:40:29Z</time>
      </trkpt>
      <trkpt lat="40.446107" lon="-5.31351">
        <ele>1265.5</ele>
        <time>2021-03-27T18:40:30Z</time>
      </trkpt>
      <trkpt lat="40.44516" lon="-5.314372">
        <ele>1269.79</ele>
        <time>2021-03-27T18:40:31Z</time>
      </trkpt>
      <trkpt lat="40.444738" lon="-5.314625">
        <ele>1272.85</ele>
        <time>2021-03-27T18:40:33Z</time>
      </trkpt>
      <trkpt lat="40.444485" lon="-5.314744">
        <ele>1273.38</ele>
        <time>2021-03-27T18:40:34Z</time>
      </trkpt>
      <trkpt lat="40.44425" lon="-5.314834">
        <ele>1273.08</ele>
        <time>2021-03-27T18:40:36Z</time>
      </trkpt>
      <trkpt lat="40.444091" lon="-5.31487">
        <ele>1273.28</ele>
        <time>2021-03-27T18:40:37Z</time>
      </trkpt>
      <trkpt lat="40.443723" lon="-5.314915">
        <ele>1275.29</ele>
        <time>2021-03-27T18:40:38Z</time>
      </trkpt>
      <trkpt lat="40.443557" lon="-5.314857">
        <ele>1277.34</ele>
        <time>2021-03-27T18:40:40Z</time>
      </trkpt>
      <trkpt lat="40.443451" lon="-5.314753">
        <ele>1279.64</ele>
        <time>2021-03-27T18:40:41Z</time>
      </trkpt>
      <trkpt lat="40.443408" lon="-5.314623">
        <ele>1281.53</ele>
        <time>2021-03-27T18:40:42Z</time>
      </trkpt>
      <trkpt lat="40.443431" lon="-5.314489">
        <ele>1282.82</ele>
        <time>2021-03-27T18:40:44Z</time>
      </trkpt>
      <trkpt lat="40.443477" lon="-5.314387">
        <ele>1283.69</ele>
        <time>2021-03-27T18:40:45Z</time>
      </trkpt>
      <trkpt lat="40.444096" lon="-5.313207">
        <ele>1289.9</ele>
        <time>2021-03-27T18:40:46Z</time>
      </trkpt>
      <trkpt lat="40.444367" lon="-5.312767">
        <ele>1290.93</ele>
        <time>2021-03-27T18:40:48Z</time>
      </trkpt>
      <trkpt lat="40.44469" lon="-5.312347">
        <ele>1292.35</ele>
        <time>2021-03-27T18:40:49Z</time>
      </trkpt>
      <trkpt lat="40.444726" lon="-5.312263">
        <ele>1292.69</ele>
        <time>2021-03-27T18:40:51Z</time>
      </trkpt>
      <trkpt lat="40.44475" lon="-5.312158">
        <ele>1293.33</ele>
        <time>2021-03-27T18:40:52Z</time>
      </trkpt>
      <trkpt lat="40.44475" lon="-5.312014">
        <ele>1294.31</ele>
        <time>2021-03-27T18:40:53Z</time>
      </trkpt>
      <trkpt lat="40.444723" lon="-5.31158">
        <ele>1298.6</ele>
        <time>2021-03-27T18:40:55Z</time>
      </trkpt>
      <trkpt lat="40.444698" lon="-5.311424">
        <ele>1300.1</ele>
        <time>2021-03-27T18:40:56Z</time>
      </trkpt>
      <trkpt lat="40.444657" lon="-5.311299">
        <ele>1300.36</ele>
        <time>2021-03-27T18:40:57Z</time>
      </trkpt>
      <trkpt lat="40.444607" lon="-5.311201">
        <ele>1300.58</ele>
        <time>2021-03-27T18:40:59Z</time>
      </trkpt>
      <trkpt lat="40.444299" lon="-5.310834">
        <ele>1306.19</ele>
        <time>2021-03-27T18:41:00Z</time>
      </trkpt>
      <trkpt lat="40.444206" lon="-5.310607">
        <ele>1309.69</ele>
        <time>2021-03-27T18:41:01Z</time>
      </trkpt>
      <trkpt lat="40.444182" lon="-5.310365">
        <ele>1311.84</ele>
        <time>2021-03-27T18:41:03Z</time>
      </trkpt>
      <trkpt lat="40.444183" lon="-5.309944">
        <ele>1312.97</ele>
        <time>2021-03-27T18:41:04Z</time>
      </trkpt>
      <trkpt lat="40.444155" lon="-5.309799">
        <ele>1312.92</ele>
        <time>2021-03-27T18:41:06Z</time>
      </trkpt>
      <trkpt lat="40.444104" lon="-5.309665">
        <ele>1313.04</ele>
        <time>2021-03-27T18:41:07Z</time>
      </trkpt>
      <trkpt lat="40.443988" lon="-5.309476">
        <ele>1313.93</ele>
        <time>2021-03-27T18:41:08Z</time>
      </trkpt>
      <trkpt lat="40.443772" lon="-5.309269">
        <ele>1317.96</ele>
        <time>2021-03-27T18:41:10Z</time>
      </trkpt>
      <trkpt lat="40.443697" lon="-5.309176">
        <ele>1319.29</ele>
        <time>2021-03-27T18:41:11Z</time>
      </trkpt>
      <trkpt lat="40.443644" lon="-5.309066">
        <ele>1320.78</ele>
        <time>2021-03-27T18:41:12Z</time>
      </trkpt>
      <trkpt lat="40.443255" lon="-5.308141">
        <ele>1326.86</ele>
        <time>2021-03-27T18:41:14Z</time>
      </trkpt>
      <trkpt lat="40.443011" lon="-5.307315">
        <ele>1329.87</ele>
        <time>2021-03-27T18:41:15Z</time>
      </trkpt>
      <trkpt lat="40.442944" lon="-5.307142">
        <ele>1331.3</ele>
        <time>2021-03-27T18:41:16Z</time>
      </trkpt>
      <trkpt lat="40.442627" lon="-5.306518">
        <ele>1338.04</ele>
        <time>2021-03-27T18:41:18Z</time>
      </trkpt>
      <trkpt lat="40.442315" lon="-5.30601">
        <ele>1346.12</ele>
        <time>2021-03-27T18:41:19Z</time>
      </trkpt>
      <trkpt lat="40.442186" lon="-5.30569">
        <ele>1351.96</ele>
        <time>2021-03-27T18:41:21Z</time>
      </trkpt>
      <trkpt lat="40.442161" lon="-5.305601">
        <ele>1353.12</ele>
        <time>2021-03-27T18:41:22Z</time>
      </trkpt>
      <trkpt lat="40.442159" lon="-5.305516">
        <ele>1353.58</ele>
        <time>2021-03-27T18:41:23Z</time>
      </trkpt>
      <trkpt lat="40.442169" lon="-5.305453">
        <ele>1353.74</ele>
        <time>2021-03-27T18:41:25Z</time>
      </trkpt>
      <trkpt lat="40.442244" lon="-5.305331">
        <ele>1352.9</ele>
        <time>2021-03-27T18:41:26Z</time>
      </trkpt>
      <trkpt lat="40.442346" lon="-5.305277">
        <ele>1351.32</ele>
        <time>2021-03-27T18:41:27Z</time>
      </trkpt>
      <trkpt lat="40.4424" lon="-5.305286">
        <ele>1350.0</ele>
        <time>2021-03-27T18:41:29Z</time>
      </trkpt>
      <trkpt lat="40.442577" lon="-5.305427">
        <ele>1343.82</ele>
        <time>2021-03-27T18:41:30Z</time>
      </trkpt>
      <trkpt lat="40.442689" lon="-5.305474">
        <ele>1342.17</ele>
        <time>2021-03-27T18:41:31Z</time>
      </trkpt>
      <trkpt lat="40.443454" lon="-5.30556">
        <ele>1347.91</ele>
        <time>2021-03-27T18:41:33Z</time>
      </trkpt>
      <trkpt lat="40.443558" lon="-5.305594">
        <ele>1347.28</ele>
        <time>2021-03-27T18:41:34Z</time>
      </trkpt>
      <trkpt lat="40.443731" lon="-5.305744">
        <ele>1345.9</ele>
        <time>2021-03-27T18:41:35Z</time>
      </trkpt>
      <trkpt lat="40.444137" lon="-5.306252">
        <ele>1340.53</ele>
        <time>2021-03-27T18:41:37Z</time>
      </trkpt>
      <trkpt lat="40.444216" lon="-5.306318">
        <ele>1339.55</ele>
        <time>2021-03-27T18:41:38Z</time>
      </trkpt>
      <trkpt lat="40.444267" lon="-5.306338">
        <ele>1339.12</ele>
        <time>2021-03-27T18:41:40Z</time>
      </trkpt>
      <trkpt lat="40.444324" lon="-5.306342">
        <ele>1338.84</ele>
        <time>2021-03-27T18:41:41Z</time>
      </trkpt>
      <trkpt lat="40.44438" lon="-5.306321">
        <ele>1338.78</ele>
        <time>2021-03-27T18:41:42Z</time>
      </trkpt>
      <trkpt lat="40.444433" lon="-5.306273">
        <ele>1338.89</ele>
        <time>2021-03-27T18:41:44Z</time>
      </trkpt>
      <trkpt lat="40.444473" lon="-5.306193">
        <ele>1339.45</ele>
        <time>2021-03-27T18:41:45Z</time>
      </trkpt>
      <trkpt lat="40.444488" lon="-5.306118">
        <ele>1340.1</ele>
        <time>2021-03-27T18:41:46Z</time>
      </trkpt>
      <trkpt lat="40.444476" lon="-5.306047">
        <ele>1341.47</ele>
        <time>2021-03-27T18:41:48Z</time>
      </trkpt>
      <trkpt lat="40.444427" lon="-5.305956">
        <ele>1343.43</ele>
        <time>2021-03-27T18:41:49Z</time>
      </trkpt>
      <trkpt lat="40.444199" lon="-5.305852">
        <ele>1346.54</ele>
        <time>2021-03-27T18:41:50Z</time>
      </trkpt>
      <trkpt lat="40.444118" lon="-5.305757">
        <ele>1348.42</ele>
        <time>2021-03-27T18:41:52Z</time>
      </trkpt>
      <trkpt lat="40.444083" lon="-5.305662">
        <ele>1350.21</ele>
        <time>2021-03-27T18:41:53Z</time>
      </trkpt>
      <trkpt lat="40.444027" lon="-5.305402">
        <ele>1354.2</ele>
        <time>2021-03-27T18:41:55Z</time>
      </trkpt>
      <trkpt lat="40.443994" lon="-5.305342">
        <ele>1354.84</ele>
        <time>2021-03-27T18:41:56Z</time>
      </trkpt>
      <trkpt lat="40.443935" lon="-5.305285">
        <ele>1355.22</ele>
        <time>2021-03-27T18:41:57Z</time>
      </trkpt>
      <trkpt lat="40.442606" lon="-5.304613">
        <ele>1365.74</ele>
        <time>2021-03-27T18:41:59Z</time>
      </trkpt>
      <trkpt lat="40.44229" lon="-5.304383">
        <ele>1369.51</ele>
        <time>2021-03-27T18:42:00Z</time>
      </trkpt>
      <trkpt lat="40.442174" lon="-5.304264">
        <ele>1371.21</ele>
        <time>2021-03-27T18:42:01Z</time>
      </trkpt>
      <trkpt lat="40.441262" lon="-5.303174">
        <ele>1381.1</ele>
        <time>2021-03-27T18:42:03Z</time>
      </trkpt>
      <trkpt lat="40.44097" lon="-5.302915">
        <ele>1385.04</ele>
        <time>2021-03-27T18:42:04Z</time>
      </trkpt>
      <trkpt lat="40.440679" lon="-5.302742">
        <ele>1389.93</ele>
        <time>2021-03-27T18:42:05Z</time>
      </trkpt>
      <trkpt lat="40.440432" lon="-5.302699">
        <ele>1394.21</ele>
        <time>2021-03-27T18:42:07Z</time>
      </trkpt>
      <trkpt lat="40.440166" lon="-5.30276">
        <ele>1396.48</ele>
        <time>2021-03-27T18:42:08Z</time>
      </trkpt>
      <trkpt lat="40.440101" lon="-5.302795">
        <ele>1397.14</ele>
        <time>2021-03-27T18:42:10Z</time>
      </trkpt>
      <trkpt lat="40.440027" lon="-5.3029">
        <ele>1398.44</ele>
        <time>2021-03-27T18:42:11Z</time>
      </trkpt>
      <trkpt lat="40.44003" lon="-5.302999">
        <ele>1398.08</ele>
        <time>2021-03-27T18:42:12Z</time>
      </trkpt>
      <trkpt lat="40.440115" lon="-5.303215">
        <ele>1397.25</ele>
        <time>2021-03-27T18:42:14Z</time>
      </trkpt>
      <trkpt lat="40.440357" lon="-5.303577">
        <ele>1394.59</ele>
        <time>2021-03-27T18:42:15Z</time>
      </trkpt>
      <trkpt lat="40.440438" lon="-5.303747">
        <ele>1395.41</ele>
        <time>2021-03-27T18:42:16Z</time>
      </trkpt>
      <trkpt lat="40.440654" lon="-5.304355">
        <ele>1399.93</ele>
        <time>2021-03-27T18:42:18Z</time>
      </trkpt>
      <trkpt lat="40.44084" lon="-5.304739">
        <ele>1397.95</ele>
        <time>2021-03-27T18:42:19Z</time>
      </trkpt>
      <trkpt lat="40.440911" lon="-5.304976">
        <ele>1398.29</ele>
        <time>2021-03-27T18:42:20Z</time>
      </trkpt>
      <trkpt lat="40.440955" lon="-5.305238">
        <ele>1399.3</ele>
        <time>2021-03-27T18:42:22Z</time>
      </trkpt>
      <trkpt lat="40.440968" lon="-5.305496">
        <ele>1399.95</ele>
        <time>2021-03-27T18:42:23Z</time>
      </trkpt>
      <trkpt lat="40.440953" lon="-5.305585">
        <ele>1400.64</ele>
        <time>2021-03-27T18:42:25Z</time>
      </trkpt>
      <trkpt lat="40.440885" lon="-5.305769">
        <ele>1402.35</ele>
        <time>2021-03-27T18:42:26Z</time>
      </trkpt>
      <trkpt lat="40.440847" lon="-5.305832">
        <ele>1403.48</ele>
        <time>2021-03-27T18:42:27Z</time>
      </trkpt>
      <trkpt lat="40.440431" lon="-5.306226">
        <ele>1409.04</ele>
        <time>2021-03-27T18:42:29Z</time>
      </trkpt>
      <trkpt lat="40.440226" lon="-5.306446">
        <ele>1414.2</ele>
        <time>2021-03-27T18:42:30Z</time>
      </trkpt>
      <trkpt lat="40.440118" lon="-5.306589">
        <ele>1416.04</ele>
        <time>2021-03-27T18:42:31Z</time>
      </trkpt>
      <trkpt lat="40.440047" lon="-5.306716">
        <ele>1416.81</ele>
        <time>2021-03-27T18:42:33Z</time>
      </trkpt>
      <trkpt lat="40.439969" lon="-5.30694">
        <ele>1417.9</ele>
        <time>2021-03-27T18:42:34Z</time>
      </trkpt>
      <trkpt lat="40.439955" lon="-5.307037">
        <ele>1418.35</ele>
        <time>2021-03-27T18:42:35Z</time>
      </trkpt>
      <trkpt lat="40.439961" lon="-5.307128">
        <ele>1418.21</ele>
        <time>2021-03-27T18:42:37Z</time>
      </trkpt>
      <trkpt lat="40.439986" lon="-5.307207">
        <ele>1417.45</ele>
        <time>2021-03-27T18:42:38Z</time>
      </trkpt>
      <trkpt lat="40.440188" lon="-5.307567">
        <ele>1416.58</ele>
        <time>2021-03-27T18:42:40Z</time>
      </trkpt>
      <trkpt lat="40.440268" lon="-5.307745">
        <ele>1416.82</ele>
        <time>2021-03-27T18:42:41Z</time>
      </trkpt>
      <trkpt lat="40.440293" lon="-5.307856">
        <ele>1417.13</ele>
        <time>2021-03-27T18:42:42Z</time>
      </trkpt>
      <trkpt lat="40.440303" lon="-5.308004">
        <ele>1417.96</ele>
        <time>2021-03-27T18:42:44Z</time>
      </trkpt>
      <trkpt lat="40.440293" lon="-5.308113">
        <ele>1418.2</ele>
        <time>2021-03-27T18:42:45Z</time>
      </trkpt>
      <trkpt lat="40.44023" lon="-5.308295">
        <ele>1418.4</ele>
        <time>2021-03-27T18:42:46Z</time>
      </trkpt>
      <trkpt lat="40.439636" lon="-5.309189">
        <ele>1427.22</ele>
        <time>2021-03-27T18:42:48Z</time>
      </trkpt>
      <trkpt lat="40.439481" lon="-5.309386">
        <ele>1428.88</ele>
        <time>2021-03-27T18:42:49Z</time>
      </trkpt>
      <trkpt lat="40.438908" lon="-5.309905">
        <ele>1430.43</ele>
        <time>2021-03-27T18:42:50Z</time>
      </trkpt>
      <trkpt lat="40.438762" lon="-5.309985">
        <ele>1430.67</ele>
        <time>2021-03-27T18:42:52Z</time>
      </trkpt>
      <trkpt lat="40.437774" lon="-5.31003">
        <ele>1438.18</ele>
        <time>2021-03-27T18:42:53Z</time>
      </trkpt>
      <trkpt lat="40.437428" lon="-5.310077">
        <ele>1442.41</ele>
        <time>2021-03-27T18:42:55Z</time>
      </trkpt>
      <trkpt lat="40.437278" lon="-5.310164">
        <ele>1443.34</ele>
        <time>2021-03-27T18:42:56Z</time>
      </trkpt>
      <trkpt lat="40.436994" lon="-5.310396">
        <ele>1444.1</ele>
        <time>2021-03-27T18:42:57Z</time>
      </trkpt>
      <trkpt lat="40.436758" lon="-5.310534">
        <ele>1443.64</ele>
        <time>2021-03-27T18:42:59Z</time>
      </trkpt>
      <trkpt lat="40.436145" lon="-5.310774">
        <ele>1445.02</ele>
        <time>2021-03-27T18:43:00Z</time>
      </trkpt>
      <trkpt lat="40.435913" lon="-5.310815">
        <ele>1447.28</ele>
        <time>2021-03-27T18:43:01Z</time>
      </trkpt>
      <trkpt lat="40.435811" lon="-5.310806">
        <ele>1448.73</ele>
        <time>2021-03-27T18:43:03Z</time>
      </trkpt>
      <trkpt lat="40.435572" lon="-5.310709">
        <ele>1451.73</ele>
        <time>2021-03-27T18:43:04Z</time>
      </trkpt>
      <trkpt lat="40.435324" lon="-5.310545">
        <ele>1453.32</ele>
        <time>2021-03-27T18:43:05Z</time>
      </trkpt>
      <trkpt lat="40.43523" lon="-5.310411">
        <ele>1454.92</ele>
        <time>2021-03-27T18:43:07Z</time>
      </trkpt>
      <trkpt lat="40.435083" lon="-5.310142">
        <ele>1458.25</ele>
        <time>2021-03-27T18:43:08Z</time>
      </trkpt>
      <trkpt lat="40.43497" lon="-5.31">
        <ele>1459.78</ele>
        <time>2021-03-27T18:43:10Z</time>
      </trkpt>
      <trkpt lat="40.434634" lon="-5.309717">
        <ele>1463.1</ele>
        <time>2021-03-27T18:43:11Z</time>
      </trkpt>
      <trkpt lat="40.434456" lon="-5.309619">
        <ele>1464.85</ele>
        <time>2021-03-27T18:43:12Z</time>
      </trkpt>
      <trkpt lat="40.433303" lon="-5.309173">
        <ele>1470.73</ele>
        <time>2021-03-27T18:43:14Z</time>
      </trkpt>
      <trkpt lat="40.43206" lon="-5.30848">
        <ele>1481.69</ele>
        <time>2021-03-27T18:43:15Z</time>
      </trkpt>
      <trkpt lat="40.43192" lon="-5.308456">
        <ele>1482.32</ele>
        <time>2021-03-27T18:43:16Z</time>
      </trkpt>
      <trkpt lat="40.431812" lon="-5.308516">
        <ele>1481.69</ele>
        <time>2021-03-27T18:43:18Z</time>
      </trkpt>
      <trkpt lat="40.431126" lon="-5.309362">
        <ele>1485.29</ele>
        <time>2021-03-27T18:43:19Z</time>
      </trkpt>
      <trkpt lat="40.431073" lon="-5.30951">
        <ele>1485.95</ele>
        <time>2021-03-27T18:43:20Z</time>
      </trkpt>
      <trkpt lat="40.431061" lon="-5.309668">
        <ele>1486.84</ele>
        <time>2021-03-27T18:43:22Z</time>
      </trkpt>
      <trkpt lat="40.431731" lon="-5.312186">
        <ele>1491.71</ele>
        <time>2021-03-27T18:43:23Z</time>
      </trkpt>
      <trkpt lat="40.431776" lon="-5.31248">
        <ele>1492.33</ele>
        <time>2021-03-27T18:43:25Z</time>
      </trkpt>
      <trkpt lat="40.431773" lon="-5.312703">
        <ele>1493.58</ele>
        <time>2021-03-27T18:43:26Z</time>
      </trkpt>
      <trkpt lat="40.431677" lon="-5.313291">
        <ele>1497.84</ele>
        <time>2021-03-27T18:43:27Z</time>
      </trkpt>
      <trkpt lat="40.431623" lon="-5.313445">
        <ele>1498.96</ele>
        <time>2021-03-27T18:43:29Z</time>
      </trkpt>
      <trkpt lat="40.431432" lon="-5.313823">
        <ele>1502.46</ele>
        <time>2021-03-27T18:43:30Z</time>
      </trkpt>
      <trkpt lat="40.431412" lon="-5.313912">
        <ele>1502.58</ele>
        <time>2021-03-27T18:43:31Z</time>
      </trkpt>
      <trkpt lat="40.431418" lon="-5.314003">
        <ele>1502.78</ele>
        <time>2021-03-27T18:43:33Z</time>
      </trkpt>
      <trkpt lat="40.431462" lon="-5.31415">
        <ele>1502.36</ele>
        <time>2021-03-27T18:43:34Z</time>
      </trkpt>
      <trkpt lat="40.431548" lon="-5.314312">
        <ele>1502.05</ele>
        <time>2021-03-27T18:43:35Z</time>
      </trkpt>
      <trkpt lat="40.431836" lon="-5.314671">
        <ele>1502.18</ele>
        <time>2021-03-27T18:43:37Z</time>
      </trkpt>
      <trkpt lat="40.431911" lon="-5.314787">
        <ele>1502.97</ele>
        <time>2021-03-27T18:43:38Z</time>
      </trkpt>
      <trkpt lat="40.432041" lon="-5.315052">
        <ele>1504.73</ele>
        <time>2021-03-27T18:43:40Z</time>
      </trkpt>
      <trkpt lat="40.432256" lon="-5.315616">
        <ele>1509.24</ele>
        <time>2021-03-27T18:43:41Z</time>
      </trkpt>
      <trkpt lat="40.432313" lon="-5.315842">
        <ele>1512.07</ele>
        <time>2021-03-27T18:43:42Z</time>
      </trkpt>
      <trkpt lat="40.432326" lon="-5.315969">
        <ele>1512.24</ele>
        <time>2021-03-27T18:43:44Z</time>
      </trkpt>
      <trkpt lat="40.43231" lon="-5.316207">
        <ele>1512.76</ele>
        <time>2021-03-27T18:43:45Z</time>
      </trkpt>
      <trkpt lat="40.432281" lon="-5.31631">
        <ele>1513.0</ele>
        <time>2021-03-27T18:43:46Z</time>
      </trkpt>
      <trkpt lat="40.432203" lon="-5.316493">
        <ele>1513.53</ele>
        <time>2021-03-27T18:43:48Z</time>
      </trkpt>
      <trkpt lat="40.432127" lon="-5.316609">
        <ele>1513.78</ele>
        <time>2021-03-27T18:43:49Z</time>
      </trkpt>
      <trkpt lat="40.43174" lon="-5.317089">
        <ele>1516.77</ele>
        <time>2021-03-27T18:43:50Z</time>
      </trkpt>
      <trkpt lat="40.431528" lon="-5.317442">
        <ele>1517.61</ele>
        <time>2021-03-27T18:43:52Z</time>
      </trkpt>
      <trkpt lat="40.431271" lon="-5.317919">
        <ele>1520.59</ele>
        <time>2021-03-27T18:43:53Z</time>
      </trkpt>
      <trkpt lat="40.43098" lon="-5.318511">
        <ele>1526.42</ele>
        <time>2021-03-27T18:43:55Z</time>
      </trkpt>
      <trkpt lat="40.43026" lon="-5.319581">
        <ele>1529.14</ele>
        <time>2021-03-27T18:43:56Z</time>
      </trkpt>
      <trkpt lat="40.43017" lon="-5.319688">
        <ele>1529.06</ele>
        <time>2021-03-27T18:43:57Z</time>
      </trkpt>
      <trkpt lat="40.430037" lon="-5.319749">
        <ele>1531.26</ele>
        <time>2021-03-27T18:43:59Z</time>
      </trkpt>
      <trkpt lat="40.429372" lon="-5.319781">
        <ele>1542.14</ele>
        <time>2021-03-27T18:44:00Z</time>
      </trkpt>
      <trkpt lat="40.429194" lon="-5.319758">
        <ele>1546.08</ele>
        <time>2021-03-27T18:44:01Z</time>
      </trkpt>
      <trkpt lat="40.428583" lon="-5.319585">
        <ele>1551.92</ele>
        <time>2021-03-27T18:44:03Z</time>
      </trkpt>
      <trkpt lat="40.428459" lon="-5.319611">
        <ele>1553.61</ele>
        <time>2021-03-27T18:44:04Z</time>
      </trkpt>
      <trkpt lat="40.428379" lon="-5.319709">
        <ele>1554.14</ele>
        <time>2021-03-27T18:44:05Z</time>
      </trkpt>
      <trkpt lat="40.428358" lon="-5.319837">
        <ele>1555.55</ele>
        <time>2021-03-27T18:44:07Z</time>
      </trkpt>
      <trkpt lat="40.428423" lon="-5.32036">
        <ele>1558.71</ele>
        <time>2021-03-27T18:44:08Z</time>
      </trkpt>
      <trkpt lat="40.42846" lon="-5.320491">
        <ele>1558.06</ele>
        <time>2021-03-27T18:44:10Z</time>
      </trkpt>
      <trkpt lat="40.428637" lon="-5.320773">
        <ele>1551.49</ele>
        <time>2021-03-27T18:44:11Z</time>
      </trkpt>
      <trkpt lat="40.428665" lon="-5.320944">
        <ele>1549.58</ele>
        <time>2021-03-27T18:44:12Z</time>
      </trkpt>
      <trkpt lat="40.42866" lon="-5.321061">
        <ele>1549.02</ele>
        <time>2021-03-27T18:44:14Z</time>
      </trkpt>
      <trkpt lat="40.428618" lon="-5.321208">
        <ele>1549.32</ele>
        <time>2021-03-27T18:44:15Z</time>
      </trkpt>
      <trkpt lat="40.428577" lon="-5.321262">
        <ele>1549.74</ele>
        <time>2021-03-27T18:44:16Z</time>
      </trkpt>
      <trkpt lat="40.428468" lon="-5.321326">
        <ele>1551.61</ele>
        <time>2021-03-27T18:44:18Z</time>
      </trkpt>
      <trkpt lat="40.428322" lon="-5.32133">
        <ele>1555.33</ele>
        <time>2021-03-27T18:44:19Z</time>
      </trkpt>
      <trkpt lat="40.428128" lon="-5.321279">
        <ele>1560.86</ele>
        <time>2021-03-27T18:44:20Z</time>
      </trkpt>
      <trkpt lat="40.428039" lon="-5.321292">
        <ele>1562.76</ele>
        <time>2021-03-27T18:44:22Z</time>
      </trkpt>
      <trkpt lat="40.428002" lon="-5.321316">
        <ele>1563.3</ele>
        <time>2021-03-27T18:44:23Z</time>
      </trkpt>
      <trkpt lat="40.427908" lon="-5.32145">
        <ele>1564.28</ele>
        <time>2021-03-27T18:44:25Z</time>
      </trkpt>
      <trkpt lat="40.427773" lon="-5.321754">
        <ele>1566.82</ele>
        <time>2021-03-27T18:44:26Z</time>
      </trkpt>
      <trkpt lat="40.427712" lon="-5.321972">
        <ele>1568.5</ele>
        <time>2021-03-27T18:44:27Z</time>
      </trkpt>
      <trkpt lat="40.427693" lon="-5.322097">
        <ele>1569.76</ele>
        <time>2021-03-27T18:44:29Z</time>
      </trkpt>
      <trkpt lat="40.427692" lon="-5.323074">
        <ele>1571.01</ele>
        <time>2021-03-27T18:44:30Z</time>
      </trkpt>
      <trkpt lat="40.427723" lon="-5.323704">
        <ele>1570.57</ele>
        <time>2021-03-27T18:44:31Z</time>
      </trkpt>
      <trkpt lat="40.427717" lon="-5.323812">
        <ele>1571.47</ele>
        <time>2021-03-27T18:44:33Z</time>
      </trkpt>
      <trkpt lat="40.427674" lon="-5.323911">
        <ele>1573.48</ele>
        <time>2021-03-27T18:44:34Z</time>
      </trkpt>
      <trkpt lat="40.427592" lon="-5.323922">
        <ele>1576.21</ele>
        <time>2021-03-27T18:44:35Z</time>
      </trkpt>
      <trkpt lat="40.427567" lon="-5.323895">
        <ele>1576.85</ele>
        <time>2021-03-27T18:44:37Z</time>
      </trkpt>
      <trkpt lat="40.427517" lon="-5.323756">
        <ele>1577.95</ele>
        <time>2021-03-27T18:44:38Z</time>
      </trkpt>
      <trkpt lat="40.427419" lon="-5.322924">
        <ele>1583.35</ele>
        <time>2021-03-27T18:44:40Z</time>
      </trkpt>
      <trkpt lat="40.427374" lon="-5.322681">
        <ele>1584.96</ele>
        <time>2021-03-27T18:44:41Z</time>
      </trkpt>
      <trkpt lat="40.42731" lon="-5.322435">
        <ele>1586.91</ele>
        <time>2021-03-27T18:44:42Z</time>
      </trkpt>
      <trkpt lat="40.427269" lon="-5.322352">
        <ele>1587.64</ele>
        <time>2021-03-27T18:44:44Z</time>
      </trkpt>
      <trkpt lat="40.427001" lon="-5.321955">
        <ele>1590.66</ele>
        <time>2021-03-27T18:44:45Z</time>
      </trkpt>
      <trkpt lat="40.426628" lon="-5.321295">
        <ele>1596.09</ele>
        <time>2021-03-27T18:44:46Z</time>
      </trkpt>
      <trkpt lat="40.426579" lon="-5.321135">
        <ele>1597.51</ele>
        <time>2021-03-27T18:44:48Z</time>
      </trkpt>
      <trkpt lat="40.42658" lon="-5.321068">
        <ele>1597.57</ele>
        <time>2021-03-27T18:44:49Z</time>
      </trkpt>
      <trkpt lat="40.426629" lon="-5.320869">
        <ele>1596.35</ele>
        <time>2021-03-27T18:44:50Z</time>
      </trkpt>
      <trkpt lat="40.426997" lon="-5.319913">
        <ele>1592.38</ele>
        <time>2021-03-27T18:44:52Z</time>
      </trkpt>
      <trkpt lat="40.427031" lon="-5.319788">
        <ele>1592.18</ele>
        <time>2021-03-27T18:44:53Z</time>
      </trkpt>
      <trkpt lat="40.427046" lon="-5.3196">
        <ele>1592.66</ele>
        <time>2021-03-27T18:44:54Z</time>
      </trkpt>
      <trkpt lat="40.427003" lon="-5.31929">
        <ele>1596.2</ele>
        <time>2021-03-27T18:44:56Z</time>
      </trkpt>
      <trkpt lat="40.427012" lon="-5.319111">
        <ele>1597.76</ele>
        <time>2021-03-27T18:44:57Z</time>
      </trkpt>
      <trkpt lat="40.427042" lon="-5.319012">
        <ele>1597.85</ele>
        <time>2021-03-27T18:44:59Z</time>
      </trkpt>
      <trkpt lat="40.427262" lon="-5.318516">
        <ele>1599.51</ele>
        <time>2021-03-27T18:45:00Z</time>
      </trkpt>
      <trkpt lat="40.42746" lon="-5.31817">
        <ele>1600.3</ele>
        <time>2021-03-27T18:45:01Z</time>
      </trkpt>
      <trkpt lat="40.427569" lon="-5.318049">
        <ele>1599.63</ele>
        <time>2021-03-27T18:45:03Z</time>
      </trkpt>
      <trkpt lat="40.427751" lon="-5.317903">
        <ele>1598.31</ele>
        <time>2021-03-27T18:45:04Z</time>
      </trkpt>
      <trkpt lat="40.427925" lon="-5.317805">
        <ele>1598.41</ele>
        <time>2021-03-27T18:45:05Z</time>
      </trkpt>
      <trkpt lat="40.428623" lon="-5.317512">
        <ele>1601.87</ele>
        <time>2021-03-27T18:45:07Z</time>
      </trkpt>
      <trkpt lat="40.42872" lon="-5.317457">
        <ele>1602.58</ele>
        <time>2021-03-27T18:45:08Z</time>
      </trkpt>
      <trkpt lat="40.42881" lon="-5.31734">
        <ele>1603.04</ele>
        <time>2021-03-27T18:45:09Z</time>
      </trkpt>
      <trkpt lat="40.428838" lon="-5.317242">
        <ele>1603.16</ele>
        <time>2021-03-27T18:45:11Z</time>
      </trkpt>
      <trkpt lat="40.428855" lon="-5.317096">
        <ele>1602.94</ele>
        <time>2021-03-27T18:45:12Z</time>
      </trkpt>
      <trkpt lat="40.428826" lon="-5.316174">
        <ele>1609.22</ele>
        <time>2021-03-27T18:45:14Z</time>
      </trkpt>
      <trkpt lat="40.428798" lon="-5.316065">
        <ele>1610.3</ele>
        <time>2021-03-27T18:45:15Z</time>
      </trkpt>
      <trkpt lat="40.428751" lon="-5.315963">
        <ele>1611.64</ele>
        <time>2021-03-27T18:45:16Z</time>
      </trkpt>
      <trkpt lat="40.428461" lon="-5.315547">
        <ele>1618.34</ele>
        <time>2021-03-27T18:45:18Z</time>
      </trkpt>
      <trkpt lat="40.428166" lon="-5.314995">
        <ele>1622.41</ele>
        <time>2021-03-27T18:45:19Z</time>
      </trkpt>
      <trkpt lat="40.428106" lon="-5.314773">
        <ele>1623.43</ele>
        <time>2021-03-27T18:45:20Z</time>
      </trkpt>
      <trkpt lat="40.428039" lon="-5.314349">
        <ele>1627.02</ele>
        <time>2021-03-27T18:45:22Z</time>
      </trkpt>
      <trkpt lat="40.428025" lon="-5.314173">
        <ele>1628.2</ele>
        <time>2021-03-27T18:45:23Z</time>
      </trkpt>
      <trkpt lat="40.428034" lon="-5.313605">
        <ele>1629.03</ele>
        <time>2021-03-27T18:45:24Z</time>
      </trkpt>
      <trkpt lat="40.428015" lon="-5.313021">
        <ele>1628.77</ele>
        <time>2021-03-27T18:45:26Z</time>
      </trkpt>
      <trkpt lat="40.427993" lon="-5.312793">
        <ele>1629.91</ele>
        <time>2021-03-27T18:45:27Z</time>
      </trkpt>
      <trkpt lat="40.427863" lon="-5.312298">
        <ele>1636.98</ele>
        <time>2021-03-27T18:45:29Z</time>
      </trkpt>
      <trkpt lat="40.427798" lon="-5.312128">
        <ele>1638.44</ele>
        <time>2021-03-27T18:45:30Z</time>
      </trkpt>
      <trkpt lat="40.427695" lon="-5.311977">
        <ele>1638.11</ele>
        <time>2021-03-27T18:45:31Z</time>
      </trkpt>
      <trkpt lat="40.427629" lon="-5.311932">
        <ele>1638.47</ele>
        <time>2021-03-27T18:45:33Z</time>
      </trkpt>
      <trkpt lat="40.427555" lon="-5.31191">
        <ele>1639.41</ele>
        <time>2021-03-27T18:45:34Z</time>
      </trkpt>
      <trkpt lat="40.427341" lon="-5.311912">
        <ele>1644.98</ele>
        <time>2021-03-27T18:45:35Z</time>
      </trkpt>
      <trkpt lat="40.427229" lon="-5.311832">
        <ele>1646.79</ele>
        <time>2021-03-27T18:45:37Z</time>
      </trkpt>
      <trkpt lat="40.427162" lon="-5.311705">
        <ele>1646.75</ele>
        <time>2021-03-27T18:45:38Z</time>
      </trkpt>
      <trkpt lat="40.42714" lon="-5.311612">
        <ele>1646.58</ele>
        <time>2021-03-27T18:45:39Z</time>
      </trkpt>
      <trkpt lat="40.427106" lon="-5.311103">
        <ele>1645.14</ele>
        <time>2021-03-27T18:45:41Z</time>
      </trkpt>
      <trkpt lat="40.427056" lon="-5.310949">
        <ele>1645.81</ele>
        <time>2021-03-27T18:45:42Z</time>
      </trkpt>
      <trkpt lat="40.426962" lon="-5.310851">
        <ele>1648.47</ele>
        <time>2021-03-27T18:45:44Z</time>
      </trkpt>
      <trkpt lat="40.426752" lon="-5.310737">
        <ele>1652.38</ele>
        <time>2021-03-27T18:45:45Z</time>
      </trkpt>
      <trkpt lat="40.426649" lon="-5.310637">
        <ele>1653.82</ele>
        <time>2021-03-27T18:45:46Z</time>
      </trkpt>
      <trkpt lat="40.426361" lon="-5.310032">
        <ele>1659.7</ele>
        <time>2021-03-27T18:45:48Z</time>
      </trkpt>
      <trkpt lat="40.426287" lon="-5.309742">
        <ele>1664.42</ele>
        <time>2021-03-27T18:45:49Z</time>
      </trkpt>
      <trkpt lat="40.426274" lon="-5.309465">
        <ele>1666.68</ele>
        <time>2021-03-27T18:45:50Z</time>
      </trkpt>
      <trkpt lat="40.426299" lon="-5.309337">
        <ele>1665.39</ele>
        <time>2021-03-27T18:45:52Z</time>
      </trkpt>
      <trkpt lat="40.42639" lon="-5.309112">
        <ele>1661.32</ele>
        <time>2021-03-27T18:45:53Z</time>
      </trkpt>
      <trkpt lat="40.426415" lon="-5.309007">
        <ele>1660.82</ele>
        <time>2021-03-27T18:45:54Z</time>
      </trkpt>
      <trkpt lat="40.426421" lon="-5.308908">
        <ele>1661.25</ele>
        <time>2021-03-27T18:45:56Z</time>
      </trkpt>
      <trkpt lat="40.426406" lon="-5.308787">
        <ele>1661.81</ele>
        <time>2021-03-27T18:45:57Z</time>
      </trkpt>
      <trkpt lat="40.426336" lon="-5.308604">
        <ele>1663.8</ele>
        <time>2021-03-27T18:45:59Z</time>
      </trkpt>
      <trkpt lat="40.426283" lon="-5.308542">
        <ele>1664.82</ele>
        <time>2021-03-27T18:46:00Z</time>
      </trkpt>
      <trkpt lat="40.426081" lon="-5.308402">
        <ele>1670.31</ele>
        <time>2021-03-27T18:46:01Z</time>
      </trkpt>
      <trkpt lat="40.425901" lon="-5.308059">
        <ele>1675.36</ele>
        <time>2021-03-27T18:46:03Z</time>
      </trkpt>
      <trkpt lat="40.425866" lon="-5.307957">
        <ele>1676.85</ele>
        <time>2021-03-27T18:46:04Z</time>
      </trkpt>
      <trkpt lat="40.425839" lon="-5.307772">
        <ele>1677.7</ele>
        <time>2021-03-27T18:46:05Z</time>
      </trkpt>
      <trkpt lat="40.425871" lon="-5.307339">
        <ele>1678.37</ele>
        <time>2021-03-27T18:46:07Z</time>
      </trkpt>
      <trkpt lat="40.425848" lon="-5.307092">
        <ele>1680.48</ele>
        <time>2021-03-27T18:46:08Z</time>
      </trkpt>
      <trkpt lat="40.425623" lon="-5.306428">
        <ele>1689.14</ele>
        <time>2021-03-27T18:46:09Z</time>
      </trkpt>
      <trkpt lat="40.425526" lon="-5.306074">
        <ele>1690.54</ele>
        <time>2021-03-27T18:46:11Z</time>
      </trkpt>
      <trkpt lat="40.425403" lon="-5.305484">
        <ele>1699.14</ele>
        <time>2021-03-27T18:46:12Z</time>
      </trkpt>
      <trkpt lat="40.425391" lon="-5.305264">
        <ele>1702.8</ele>
        <time>2021-03-27T18:46:14Z</time>
      </trkpt>
      <trkpt lat="40.425476" lon="-5.305121">
        <ele>1702.68</ele>
        <time>2021-03-27T18:46:15Z</time>
      </trkpt>
      <trkpt lat="40.425661" lon="-5.304956">
        <ele>1700.28</ele>
        <time>2021-03-27T18:46:16Z</time>
      </trkpt>
      <trkpt lat="40.426232" lon="-5.304378">
        <ele>1705.79</ele>
        <time>2021-03-27T18:46:18Z</time>
      </trkpt>
      <trkpt lat="40.426431" lon="-5.304266">
        <ele>1708.81</ele>
        <time>2021-03-27T18:46:19Z</time>
      </trkpt>
      <trkpt lat="40.427043" lon="-5.304148">
        <ele>1708.5</ele>
        <time>2021-03-27T18:46:20Z</time>
      </trkpt>
      <trkpt lat="40.42719" lon="-5.30404">
        <ele>1709.63</ele>
        <time>2021-03-27T18:46:22Z</time>
      </trkpt>
      <trkpt lat="40.427314" lon="-5.303859">
        <ele>1710.99</ele>
        <time>2021-03-27T18:46:23Z</time>
      </trkpt>
      <trkpt lat="40.427473" lon="-5.303521">
        <ele>1713.32</ele>
        <time>2021-03-27T18:46:24Z</time>
      </trkpt>
      <trkpt lat="40.427539" lon="-5.303262">
        <ele>1716.03</ele>
        <time>2021-03-27T18:46:26Z</time>
      </trkpt>
      <trkpt lat="40.427558" lon="-5.303068">
        <ele>1719.05</ele>
        <time>2021-03-27T18:46:27Z</time>
      </trkpt>
      <trkpt lat="40.42761" lon="-5.302935">
        <ele>1719.79</ele>
        <time>2021-03-27T18:46:29Z</time>
      </trkpt>
      <trkpt lat="40.427801" lon="-5.302723">
        <ele>1717.79</ele>
        <time>2021-03-27T18:46:30Z</time>
      </trkpt>
      <trkpt lat="40.427872" lon="-5.302621">
        <ele>1718.39</ele>
        <time>2021-03-27T18:46:31Z</time>
      </trkpt>
      <trkpt lat="40.428006" lon="-5.30234">
        <ele>1723.92</ele>
        <time>2021-03-27T18:46:33Z</time>
      </trkpt>
      <trkpt lat="40.428085" lon="-5.302246">
        <ele>1725.22</ele>
        <time>2021-03-27T18:46:34Z</time>
      </trkpt>
      <trkpt lat="40.42852" lon="-5.301873">
        <ele>1724.96</ele>
        <time>2021-03-27T18:46:35Z</time>
      </trkpt>
      <trkpt lat="40.429254" lon="-5.301336">
        <ele>1729.01</ele>
        <time>2021-03-27T18:46:37Z</time>
      </trkpt>
      <trkpt lat="40.429645" lon="-5.300973">
        <ele>1732.06</ele>
        <time>2021-03-27T18:46:38Z</time>
      </trkpt>
      <trkpt lat="40.430027" lon="-5.300548">
        <ele>1736.5</ele>
        <time>2021-03-27T18:46:39Z</time>
      </trkpt>
      <trkpt lat="40.430118" lon="-5.300413">
        <ele>1737.39</ele>
        <time>2021-03-27T18:46:41Z</time>
      </trkpt>
      <trkpt lat="40.430176" lon="-5.300288">
        <ele>1738.71</ele>
        <time>2021-03-27T18:46:42Z</time>
      </trkpt>
      <trkpt lat="40.430223" lon="-5.300134">
        <ele>1739.02</ele>
        <time>2021-03-27T18:46:44Z</time>
      </trkpt>
      <trkpt lat="40.43032" lon="-5.299682">
        <ele>1740.47</ele>
        <time>2021-03-27T18:46:45Z</time>
      </trkpt>
      <trkpt lat="40.430382" lon="-5.299245">
        <ele>1743.19</ele>
        <time>2021-03-27T18:46:46Z</time>
      </trkpt>
      <trkpt lat="40.430419" lon="-5.299144">
        <ele>1743.18</ele>
        <time>2021-03-27T18:46:48Z</time>
      </trkpt>
      <trkpt lat="40.430754" lon="-5.298482">
        <ele>1743.07</ele>
        <time>2021-03-27T18:46:49Z</time>
      </trkpt>
      <trkpt lat="40.430845" lon="-5.298194">
        <ele>1744.52</ele>
        <time>2021-03-27T18:46:50Z</time>
      </trkpt>
      <trkpt lat="40.430839" lon="-5.298119">
        <ele>1745.33</ele>
        <time>2021-03-27T18:46:52Z</time>
      </trkpt>
      <trkpt lat="40.430824" lon="-5.298068">
        <ele>1746.31</ele>
        <time>2021-03-27T18:46:53Z</time>
      </trkpt>
      <trkpt lat="40.430764" lon="-5.298022">
        <ele>1749.5</ele>
        <time>2021-03-27T18:46:54Z</time>
      </trkpt>
      <trkpt lat="40.430675" lon="-5.29806">
        <ele>1752.75</ele>
        <time>2021-03-27T18:46:56Z</time>
      </trkpt>
      <trkpt lat="40.430614" lon="-5.298183">
        <ele>1753.09</ele>
        <time>2021-03-27T18:46:57Z</time>
      </trkpt>
      <trkpt lat="40.430576" lon="-5.298384">
        <ele>1750.31</ele>
        <time>2021-03-27T18:46:59Z</time>
      </trkpt>
      <trkpt lat="40.430513" lon="-5.298566">
        <ele>1748.47</ele>
        <time>2021-03-27T18:47:00Z</time>
      </trkpt>
      <trkpt lat="40.430184" lon="-5.299055">
        <ele>1753.39</ele>
        <time>2021-03-27T18:47:01Z</time>
      </trkpt>
      <trkpt lat="40.42982" lon="-5.299739">
        <ele>1760.52</ele>
        <time>2021-03-27T18:47:03Z</time>
      </trkpt>
      <trkpt lat="40.42973" lon="-5.299874">
        <ele>1761.0</ele>
        <time>2021-03-27T18:47:04Z</time>
      </trkpt>
      <trkpt lat="40.429617" lon="-5.299997">
        <ele>1760.96</ele>
        <time>2021-03-27T18:47:05Z</time>
      </trkpt>
      <trkpt lat="40.429405" lon="-5.300176">
        <ele>1760.46</ele>
        <time>2021-03-27T18:47:07Z</time>
      </trkpt>
      <trkpt lat="40.429273" lon="-5.300263">
        <ele>1761.1</ele>
        <time>2021-03-27T18:47:08Z</time>
      </trkpt>
      <trkpt lat="40.429103" lon="-5.300366">
        <ele>1762.62</ele>
        <time>2021-03-27T18:47:09Z</time>
      </trkpt>
      <trkpt lat="40.428834" lon="-5.300487">
        <ele>1766.87</ele>
        <time>2021-03-27T18:47:11Z</time>
      </trkpt>
      <trkpt lat="40.42819" lon="-5.300718">
        <ele>1772.52</ele>
        <time>2021-03-27T18:47:12Z</time>
      </trkpt>
      <trkpt lat="40.427925" lon="-5.300798">
        <ele>1774.68</ele>
        <time>2021-03-27T18:47:14Z</time>
      </trkpt>
      <trkpt lat="40.427599" lon="-5.300857">
        <ele>1780.37</ele>
        <time>2021-03-27T18:47:15Z</time>
      </trkpt>
      <trkpt lat="40.427498" lon="-5.300915">
        <ele>1781.41</ele>
        <time>2021-03-27T18:47:16Z</time>
      </trkpt>
      <trkpt lat="40.427354" lon="-5.301031">
        <ele>1782.56</ele>
        <time>2021-03-27T18:47:18Z</time>
      </trkpt>
      <trkpt lat="40.42693" lon="-5.301441">
        <ele>1785.93</ele>
        <time>2021-03-27T18:47:19Z</time>
      </trkpt>
      <trkpt lat="40.426614" lon="-5.301649">
        <ele>1788.46</ele>
        <time>2021-03-27T18:47:20Z</time>
      </trkpt>
      <trkpt lat="40.426344" lon="-5.301756">
        <ele>1789.74</ele>
        <time>2021-03-27T18:47:22Z</time>
      </trkpt>
      <trkpt lat="40.425805" lon="-5.301899">
        <ele>1795.99</ele>
        <time>2021-03-27T18:47:23Z</time>
      </trkpt>
      <trkpt lat="40.424818" lon="-5.302408">
        <ele>1802.79</ele>
        <time>2021-03-27T18:47:24Z</time>
      </trkpt>
      <trkpt lat="40.424347" lon="-5.302476">
        <ele>1806.46</ele>
        <time>2021-03-27T18:47:26Z</time>
      </trkpt>
      <trkpt lat="40.42388" lon="-5.302597">
        <ele>1813.26</ele>
        <time>2021-03-27T18:47:27Z</time>
      </trkpt>
      <trkpt lat="40.423711" lon="-5.302697">
        <ele>1816.86</ele>
        <time>2021-03-27T18:47:29Z</time>
      </trkpt>
      <trkpt lat="40.423484" lon="-5.302893">
        <ele>1820.14</ele>
        <time>2021-03-27T18:47:30Z</time>
      </trkpt>
      <trkpt lat="40.423437" lon="-5.302954">
        <ele>1820.41</ele>
        <time>2021-03-27T18:47:31Z</time>
      </trkpt>
      <trkpt lat="40.423407" lon="-5.303033">
        <ele>1819.45</ele>
        <time>2021-03-27T18:47:33Z</time>
      </trkpt>
      <trkpt lat="40.423205" lon="-5.303934">
        <ele>1821.95</ele>
        <time>2021-03-27T18:47:34Z</time>
      </trkpt>
      <trkpt lat="40.423161" lon="-5.304076">
        <ele>1824.13</ele>
        <time>2021-03-27T18:47:35Z</time>
      </trkpt>
      <trkpt lat="40.42259" lon="-5.305399">
        <ele>1838.2</ele>
        <time>2021-03-27T18:47:37Z</time>
      </trkpt>
      <trkpt lat="40.42254" lon="-5.305523">
        <ele>1840.1</ele>
        <time>2021-03-27T18:47:38Z</time>
      </trkpt>
      <trkpt lat="40.42253" lon="-5.305586">
        <ele>1840.61</ele>
        <time>2021-03-27T18:47:39Z</time>
      </trkpt>
      <trkpt lat="40.422566" lon="-5.305735">
        <ele>1839.31</ele>
        <time>2021-03-27T18:47:41Z</time>
      </trkpt>
      <trkpt lat="40.422666" lon="-5.305882">
        <ele>1835.03</ele>
        <time>2021-03-27T18:47:42Z</time>
      </trkpt>
      <trkpt lat="40.422691" lon="-5.306007">
        <ele>1834.85</ele>
        <time>2021-03-27T18:47:44Z</time>
      </trkpt>
      <trkpt lat="40.422625" lon="-5.306537">
        <ele>1841.59</ele>
        <time>2021-03-27T18:47:45Z</time>
      </trkpt>
      <trkpt lat="40.422613" lon="-5.306867">
        <ele>1843.36</ele>
        <time>2021-03-27T18:47:46Z</time>
      </trkpt>
      <trkpt lat="40.422467" lon="-5.308267">
        <ele>1852.5</ele>
        <time>2021-03-27T18:47:48Z</time>
      </trkpt>
      <trkpt lat="40.422556" lon="-5.308919">
        <ele>1850.35</ele>
        <time>2021-03-27T18:47:49Z</time>
      </trkpt>
      <trkpt lat="40.422562" lon="-5.309099">
        <ele>1852.36</ele>
        <time>2021-03-27T18:47:50Z</time>
      </trkpt>
      <trkpt lat="40.422515" lon="-5.309897">
        <ele>1853.05</ele>
        <time>2021-03-27T18:47:52Z</time>
      </trkpt>
      <trkpt lat="40.422521" lon="-5.310356">
        <ele>1849.85</ele>
        <time>2021-03-27T18:47:53Z</time>
      </trkpt>
      <trkpt lat="40.422509" lon="-5.310446">
        <ele>1850.03</ele>
        <time>2021-03-27T18:47:54Z</time>
      </trkpt>
      <trkpt lat="40.42248" lon="-5.310513">
        <ele>1851.19</ele>
        <time>2021-03-27T18:47:56Z</time>
      </trkpt>
      <trkpt lat="40.422417" lon="-5.310568">
        <ele>1854.06</ele>
        <time>2021-03-27T18:47:57Z</time>
      </trkpt>
      <trkpt lat="40.42235" lon="-5.31054">
        <ele>1857.65</ele>
        <time>2021-03-27T18:47:59Z</time>
      </trkpt>
      <trkpt lat="40.422316" lon="-5.310414">
        <ele>1860.44</ele>
        <time>2021-03-27T18:48:00Z</time>
      </trkpt>
      <trkpt lat="40.422317" lon="-5.310347">
        <ele>1860.95</ele>
        <time>2021-03-27T18:48:01Z</time>
      </trkpt>
      <trkpt lat="40.422399" lon="-5.309996">
        <ele>1858.46</ele>
        <time>2021-03-27T18:48:03Z</time>
      </trkpt>
      <trkpt lat="40.422412" lon="-5.309812">
        <ele>1858.9</ele>
        <time>2021-03-27T18:48:04Z</time>
      </trkpt>
      <trkpt lat="40.422411" lon="-5.309594">
        <ele>1859.94</ele>
        <time>2021-03-27T18:48:05Z</time>
      </trkpt>
      <trkpt lat="40.422388" lon="-5.309349">
        <ele>1861.7</ele>
        <time>2021-03-27T18:48:07Z</time>
      </trkpt>
      <trkpt lat="40.422355" lon="-5.309214">
        <ele>1863.27</ele>
        <time>2021-03-27T18:48:08Z</time>
      </trkpt>
      <trkpt lat="40.422195" lon="-5.30883">
        <ele>1868.51</ele>
        <time>2021-03-27T18:48:09Z</time>
      </trkpt>
      <trkpt lat="40.422149" lon="-5.308682">
        <ele>1869.24</ele>
        <time>2021-03-27T18:48:11Z</time>
      </trkpt>
      <trkpt lat="40.421871" lon="-5.307182">
        <ele>1873.05</ele>
        <time>2021-03-27T18:48:12Z</time>
      </trkpt>
      <trkpt lat="40.421784" lon="-5.306983">
        <ele>1873.98</ele>
        <time>2021-03-27T18:48:13Z</time>
      </trkpt>
      <trkpt lat="40.421654" lon="-5.30682">
        <ele>1875.99</ele>
        <time>2021-03-27T18:48:15Z</time>
      </trkpt>
      <trkpt lat="40.42152" lon="-5.306697">
        <ele>1878.07</ele>
        <time>2021-03-27T18:48:16Z</time>
      </trkpt>
      <trkpt lat="40.421288" lon="-5.306522">
        <ele>1881.97</ele>
        <time>2021-03-27T18:48:18Z</time>
      </trkpt>
      <trkpt lat="40.421212" lon="-5.306436">
        <ele>1882.96</ele>
        <time>2021-03-27T18:48:19Z</time>
      </trkpt>
      <trkpt lat="40.421166" lon="-5.306354">
        <ele>1883.44</ele>
        <time>2021-03-27T18:48:20Z</time>
      </trkpt>
      <trkpt lat="40.421072" lon="-5.306071">
        <ele>1884.9</ele>
        <time>2021-03-27T18:48:22Z</time>
      </trkpt>
      <trkpt lat="40.421029" lon="-5.305586">
        <ele>1887.46</ele>
        <time>2021-03-27T18:48:23Z</time>
      </trkpt>
      <trkpt lat="40.421035" lon="-5.305457">
        <ele>1887.9</ele>
        <time>2021-03-27T18:48:24Z</time>
      </trkpt>
      <trkpt lat="40.42106" lon="-5.305332">
        <ele>1887.59</ele>
        <time>2021-03-27T18:48:26Z</time>
      </trkpt>
      <trkpt lat="40.421157" lon="-5.30502">
        <ele>1887.44</ele>
        <time>2021-03-27T18:48:27Z</time>
      </trkpt>
      <trkpt lat="40.421217" lon="-5.304877">
        <ele>1888.89</ele>
        <time>2021-03-27T18:48:28Z</time>
      </trkpt>
      <trkpt lat="40.421489" lon="-5.304387">
        <ele>1889.1</ele>
        <time>2021-03-27T18:48:30Z</time>
      </trkpt>
      <trkpt lat="40.421627" lon="-5.303886">
        <ele>1894.72</ele>
        <time>2021-03-27T18:48:31Z</time>
      </trkpt>
      <trkpt lat="40.421664" lon="-5.303591">
        <ele>1896.04</ele>
        <time>2021-03-27T18:48:33Z</time>
      </trkpt>
      <trkpt lat="40.421703" lon="-5.302158">
        <ele>1903.65</ele>
        <time>2021-03-27T18:48:34Z</time>
      </trkpt>
      <trkpt lat="40.421735" lon="-5.301931">
        <ele>1903.21</ele>
        <time>2021-03-27T18:48:35Z</time>
      </trkpt>
      <trkpt lat="40.421863" lon="-5.301556">
        <ele>1904.79</ele>
        <time>2021-03-27T18:48:37Z</time>
      </trkpt>
      <trkpt lat="40.42195" lon="-5.301362">
        <ele>1906.28</ele>
        <time>2021-03-27T18:48:38Z</time>
      </trkpt>
      <trkpt lat="40.422113" lon="-5.301069">
        <ele>1906.9</ele>
        <time>2021-03-27T18:48:39Z</time>
      </trkpt>
      <trkpt lat="40.422551" lon="-5.30036">
        <ele>1910.95</ele>
        <time>2021-03-27T18:48:41Z</time>
      </trkpt>
      <trkpt lat="40.422613" lon="-5.300234">
        <ele>1912.55</ele>
        <time>2021-03-27T18:48:42Z</time>
      </trkpt>
      <trkpt lat="40.422642" lon="-5.300117">
        <ele>1913.76</ele>
        <time>2021-03-27T18:48:43Z</time>
      </trkpt>
      <trkpt lat="40.422654" lon="-5.299902">
        <ele>1916.08</ele>
        <time>2021-03-27T18:48:45Z</time>
      </trkpt>
      <trkpt lat="40.422596" lon="-5.299698">
        <ele>1917.68</ele>
        <time>2021-03-27T18:48:46Z</time>
      </trkpt>
      <trkpt lat="40.422363" lon="-5.299306">
        <ele>1919.98</ele>
        <time>2021-03-27T18:48:48Z</time>
      </trkpt>
      <trkpt lat="40.422264" lon="-5.299091">
        <ele>1920.7</ele>
        <time>2021-03-27T18:48:49Z</time>
      </trkpt>
      <trkpt lat="40.422201" lon="-5.298808">
        <ele>1920.79</ele>
        <time>2021-03-27T18:48:50Z</time>
      </trkpt>
      <trkpt lat="40.422214" lon="-5.298502">
        <ele>1915.45</ele>
        <time>2021-03-27T18:48:52Z</time>
      </trkpt>
      <trkpt lat="40.422214" lon="-5.298502">
        <ele>1915.45</ele>
        <time>2021-03-27T18:48:52Z</time>
      </trkpt>
      <trkpt lat="40.422304" lon="-5.296473">
        <ele>1910.11</ele>
        <time>2021-03-27T18:48:54Z</time>
      </trkpt>
      <trkpt lat="40.423132" lon="-5.294174">
        <ele>1904.11</ele>
        <time>2021-03-27T18:48:57Z</time>
      </trkpt>
      <trkpt lat="40.423289" lon="-5.293597">
        <ele>1905.42</ele>
        <time>2021-03-27T18:48:59Z</time>
      </trkpt>
      <trkpt lat="40.423285" lon="-5.293401">
        <ele>1906.06</ele>
        <time>2021-03-27T18:49:02Z</time>
      </trkpt>
      <trkpt lat="40.423261" lon="-5.293266">
        <ele>1906.26</ele>
        <time>2021-03-27T18:49:04Z</time>
      </trkpt>
      <trkpt lat="40.423087" lon="-5.293131">
        <ele>1904.83</ele>
        <time>2021-03-27T18:49:07Z</time>
      </trkpt>
      <trkpt lat="40.420753" lon="-5.292671">
        <ele>1888.51</ele>
        <time>2021-03-27T18:49:09Z</time>
      </trkpt>
      <trkpt lat="40.42045" lon="-5.292345">
        <ele>1885.6</ele>
        <time>2021-03-27T18:49:12Z</time>
      </trkpt>
      <trkpt lat="40.420156" lon="-5.291944">
        <ele>1883.68</ele>
        <time>2021-03-27T18:49:14Z</time>
      </trkpt>
      <trkpt lat="40.419831" lon="-5.291044">
        <ele>1879.96</ele>
        <time>2021-03-27T18:49:17Z</time>
      </trkpt>
      <trkpt lat="40.419417" lon="-5.290114">
        <ele>1872.51</ele>
        <time>2021-03-27T18:49:19Z</time>
      </trkpt>
      <trkpt lat="40.419306" lon="-5.289793">
        <ele>1869.78</ele>
        <time>2021-03-27T18:49:22Z</time>
      </trkpt>
      <trkpt lat="40.419288" lon="-5.289475">
        <ele>1867.41</ele>
        <time>2021-03-27T18:49:24Z</time>
      </trkpt>
      <trkpt lat="40.419425" lon="-5.288613">
        <ele>1863.59</ele>
        <time>2021-03-27T18:49:27Z</time>
      </trkpt>
      <trkpt lat="40.419416" lon="-5.28832">
        <ele>1861.4</ele>
        <time>2021-03-27T18:49:29Z</time>
      </trkpt>
      <trkpt lat="40.419321" lon="-5.288134">
        <ele>1858.34</ele>
        <time>2021-03-27T18:49:32Z</time>
      </trkpt>
      <trkpt lat="40.418262" lon="-5.286799">
        <ele>1846.94</ele>
        <time>2021-03-27T18:49:34Z</time>
      </trkpt>
      <trkpt lat="40.418023" lon="-5.28575">
        <ele>1837.23</ele>
        <time>2021-03-27T18:49:37Z</time>
      </trkpt>
      <trkpt lat="40.417206" lon="-5.284464">
        <ele>1827.79</ele>
        <time>2021-03-27T18:49:39Z</time>
      </trkpt>
      <trkpt lat="40.416052" lon="-5.281793">
        <ele>1808.48</ele>
        <time>2021-03-27T18:49:42Z</time>
      </trkpt>
      <trkpt lat="40.416048" lon="-5.281516">
        <ele>1807.08</ele>
        <time>2021-03-27T18:49:44Z</time>
      </trkpt>
      <trkpt lat="40.416171" lon="-5.280855">
        <ele>1805.67</ele>
        <time>2021-03-27T18:49:46Z</time>
      </trkpt>
      <trkpt lat="40.416324" lon="-5.28014">
        <ele>1805.35</ele>
        <time>2021-03-27T18:49:49Z</time>
      </trkpt>
      <trkpt lat="40.416394" lon="-5.279442">
        <ele>1800.08</ele>
        <time>2021-03-27T18:49:51Z</time>
      </trkpt>
      <trkpt lat="40.416378" lon="-5.279336">
        <ele>1800.22</ele>
        <time>2021-03-27T18:49:54Z</time>
      </trkpt>
      <trkpt lat="40.416345" lon="-5.279247">
        <ele>1800.14</ele>
        <time>2021-03-27T18:49:56Z</time>
      </trkpt>
      <trkpt lat="40.41599" lon="-5.279121">
        <ele>1796.81</ele>
        <time>2021-03-27T18:49:59Z</time>
      </trkpt>
      <trkpt lat="40.415817" lon="-5.279079">
        <ele>1795.09</ele>
        <time>2021-03-27T18:50:01Z</time>
      </trkpt>
      <trkpt lat="40.414889" lon="-5.279095">
        <ele>1787.82</ele>
        <time>2021-03-27T18:50:04Z</time>
      </trkpt>
      <trkpt lat="40.412352" lon="-5.277974">
        <ele>1772.42</ele>
        <time>2021-03-27T18:50:06Z</time>
      </trkpt>
      <trkpt lat="40.411636" lon="-5.277592">
        <ele>1765.96</ele>
        <time>2021-03-27T18:50:09Z</time>
      </trkpt>
      <trkpt lat="40.411508" lon="-5.27749">
        <ele>1765.36</ele>
        <time>2021-03-27T18:50:11Z</time>
      </trkpt>
      <trkpt lat="40.411413" lon="-5.277312">
        <ele>1765.61</ele>
        <time>2021-03-27T18:50:14Z</time>
      </trkpt>
      <trkpt lat="40.410822" lon="-5.275396">
        <ele>1760.02</ele>
        <time>2021-03-27T18:50:16Z</time>
      </trkpt>
      <trkpt lat="40.410715" lon="-5.275266">
        <ele>1759.74</ele>
        <time>2021-03-27T18:50:19Z</time>
      </trkpt>
      <trkpt lat="40.409943" lon="-5.275073">
        <ele>1754.21</ele>
        <time>2021-03-27T18:50:21Z</time>
      </trkpt>
      <trkpt lat="40.409739" lon="-5.275099">
        <ele>1753.01</ele>
        <time>2021-03-27T18:50:24Z</time>
      </trkpt>
      <trkpt lat="40.409574" lon="-5.275254">
        <ele>1751.74</ele>
        <time>2021-03-27T18:50:26Z</time>
      </trkpt>
      <trkpt lat="40.407895" lon="-5.277958">
        <ele>1738.63</ele>
        <time>2021-03-27T18:50:29Z</time>
      </trkpt>
      <trkpt lat="40.40758" lon="-5.278337">
        <ele>1735.68</ele>
        <time>2021-03-27T18:50:31Z</time>
      </trkpt>
      <trkpt lat="40.407332" lon="-5.278549">
        <ele>1733.24</ele>
        <time>2021-03-27T18:50:34Z</time>
      </trkpt>
      <trkpt lat="40.407114" lon="-5.278608">
        <ele>1731.63</ele>
        <time>2021-03-27T18:50:36Z</time>
      </trkpt>
      <trkpt lat="40.40614" lon="-5.27844">
        <ele>1727.72</ele>
        <time>2021-03-27T18:50:39Z</time>
      </trkpt>
      <trkpt lat="40.405229" lon="-5.278321">
        <ele>1722.52</ele>
        <time>2021-03-27T18:50:41Z</time>
      </trkpt>
      <trkpt lat="40.404726" lon="-5.277881">
        <ele>1717.32</ele>
        <time>2021-03-27T18:50:44Z</time>
      </trkpt>
      <trkpt lat="40.403997" lon="-5.277664">
        <ele>1712.81</ele>
        <time>2021-03-27T18:50:46Z</time>
      </trkpt>
      <trkpt lat="40.403547" lon="-5.277764">
        <ele>1707.73</ele>
        <time>2021-03-27T18:50:49Z</time>
      </trkpt>
      <trkpt lat="40.402501" lon="-5.277422">
        <ele>1699.58</ele>
        <time>2021-03-27T18:50:51Z</time>
      </trkpt>
      <trkpt lat="40.402308" lon="-5.277231">
        <ele>1696.79</ele>
        <time>2021-03-27T18:50:54Z</time>
      </trkpt>
      <trkpt lat="40.402127" lon="-5.276988">
        <ele>1694.72</ele>
        <time>2021-03-27T18:50:56Z</time>
      </trkpt>
      <trkpt lat="40.402004" lon="-5.276639">
        <ele>1694.73</ele>
        <time>2021-03-27T18:50:58Z</time>
      </trkpt>
      <trkpt lat="40.401888" lon="-5.276227">
        <ele>1695.12</ele>
        <time>2021-03-27T18:51:01Z</time>
      </trkpt>
      <trkpt lat="40.401648" lon="-5.275634">
        <ele>1693.78</ele>
        <time>2021-03-27T18:51:03Z</time>
      </trkpt>
      <trkpt lat="40.40146" lon="-5.274708">
        <ele>1695.34</ele>
        <time>2021-03-27T18:51:06Z</time>
      </trkpt>
      <trkpt lat="40.401346" lon="-5.274444">
        <ele>1693.08</ele>
        <time>2021-03-27T18:51:08Z</time>
      </trkpt>
      <trkpt lat="40.401093" lon="-5.274151">
        <ele>1690.73</ele>
        <time>2021-03-27T18:51:11Z</time>
      </trkpt>
      <trkpt lat="40.401014" lon="-5.274019">
        <ele>1689.78</ele>
        <time>2021-03-27T18:51:13Z</time>
      </trkpt>
      <trkpt lat="40.400969" lon="-5.273855">
        <ele>1689.53</ele>
        <time>2021-03-27T18:51:16Z</time>
      </trkpt>
      <trkpt lat="40.40074" lon="-5.272396">
        <ele>1687.57</ele>
        <time>2021-03-27T18:51:18Z</time>
      </trkpt>
      <trkpt lat="40.400683" lon="-5.272216">
        <ele>1686.75</ele>
        <time>2021-03-27T18:51:21Z</time>
      </trkpt>
      <trkpt lat="40.400588" lon="-5.272025">
        <ele>1684.7</ele>
        <time>2021-03-27T18:51:23Z</time>
      </trkpt>
      <trkpt lat="40.400099" lon="-5.271247">
        <ele>1683.43</ele>
        <time>2021-03-27T18:51:26Z</time>
      </trkpt>
      <trkpt lat="40.40004" lon="-5.271115">
        <ele>1682.58</ele>
        <time>2021-03-27T18:51:28Z</time>
      </trkpt>
      <trkpt lat="40.399814" lon="-5.270176">
        <ele>1678.72</ele>
        <time>2021-03-27T18:51:31Z</time>
      </trkpt>
      <trkpt lat="40.399776" lon="-5.269955">
        <ele>1677.78</ele>
        <time>2021-03-27T18:51:33Z</time>
      </trkpt>
      <trkpt lat="40.399774" lon="-5.269808">
        <ele>1677.69</ele>
        <time>2021-03-27T18:51:36Z</time>
      </trkpt>
      <trkpt lat="40.400217" lon="-5.266333">
        <ele>1668.7</ele>
        <time>2021-03-27T18:51:38Z</time>
      </trkpt>
      <trkpt lat="40.400317" lon="-5.26611">
        <ele>1667.14</ele>
        <time>2021-03-27T18:51:41Z</time>
      </trkpt>
      <trkpt lat="40.400803" lon="-5.265219">
        <ele>1657.56</ele>
        <time>2021-03-27T18:51:43Z</time>
      </trkpt>
      <trkpt lat="40.401222" lon="-5.264351">
        <ele>1654.28</ele>
        <time>2021-03-27T18:51:46Z</time>
      </trkpt>
      <trkpt lat="40.401493" lon="-5.263125">
        <ele>1647.38</ele>
        <time>2021-03-27T18:51:48Z</time>
      </trkpt>
      <trkpt lat="40.401538" lon="-5.262726">
        <ele>1646.68</ele>
        <time>2021-03-27T18:51:51Z</time>
      </trkpt>
      <trkpt lat="40.401495" lon="-5.261471">
        <ele>1638.83</ele>
        <time>2021-03-27T18:51:53Z</time>
      </trkpt>
      <trkpt lat="40.401442" lon="-5.26116">
        <ele>1635.92</ele>
        <time>2021-03-27T18:51:56Z</time>
      </trkpt>
      <trkpt lat="40.401375" lon="-5.261006">
        <ele>1635.52</ele>
        <time>2021-03-27T18:51:58Z</time>
      </trkpt>
      <trkpt lat="40.401087" lon="-5.26067">
        <ele>1637.27</ele>
        <time>2021-03-27T18:52:01Z</time>
      </trkpt>
      <trkpt lat="40.400905" lon="-5.260381">
        <ele>1637.33</ele>
        <time>2021-03-27T18:52:03Z</time>
      </trkpt>
      <trkpt lat="40.400717" lon="-5.259834">
        <ele>1630.8</ele>
        <time>2021-03-27T18:52:06Z</time>
      </trkpt>
      <trkpt lat="40.400559" lon="-5.259567">
        <ele>1628.18</ele>
        <time>2021-03-27T18:52:08Z</time>
      </trkpt>
      <trkpt lat="40.400424" lon="-5.259515">
        <ele>1628.22</ele>
        <time>2021-03-27T18:52:11Z</time>
      </trkpt>
      <trkpt lat="40.400149" lon="-5.259496">
        <ele>1630.14</ele>
        <time>2021-03-27T18:52:13Z</time>
      </trkpt>
      <trkpt lat="40.399961" lon="-5.259416">
        <ele>1631.19</ele>
        <time>2021-03-27T18:52:15Z</time>
      </trkpt>
      <trkpt lat="40.398657" lon="-5.256968">
        <ele>1620.02</ele>
        <time>2021-03-27T18:52:18Z</time>
      </trkpt>
      <trkpt lat="40.398464" lon="-5.256447">
        <ele>1616.12</ele>
        <time>2021-03-27T18:52:20Z</time>
      </trkpt>
      <trkpt lat="40.398311" lon="-5.256159">
        <ele>1614.17</ele>
        <time>2021-03-27T18:52:23Z</time>
      </trkpt>
      <trkpt lat="40.397704" lon="-5.255407">
        <ele>1606.14</ele>
        <time>2021-03-27T18:52:25Z</time>
      </trkpt>
      <trkpt lat="40.397003" lon="-5.253733">
        <ele>1593.93</ele>
        <time>2021-03-27T18:52:28Z</time>
      </trkpt>
      <trkpt lat="40.396748" lon="-5.253346">
        <ele>1592.79</ele>
        <time>2021-03-27T18:52:30Z</time>
      </trkpt>
      <trkpt lat="40.396606" lon="-5.253207">
        <ele>1592.28</ele>
        <time>2021-03-27T18:52:33Z</time>
      </trkpt>
      <trkpt lat="40.396209" lon="-5.253052">
        <ele>1590.94</ele>
        <time>2021-03-27T18:52:35Z</time>
      </trkpt>
      <trkpt lat="40.396083" lon="-5.252973">
        <ele>1589.81</ele>
        <time>2021-03-27T18:52:38Z</time>
      </trkpt>
      <trkpt lat="40.395971" lon="-5.252848">
        <ele>1588.02</ele>
        <time>2021-03-27T18:52:40Z</time>
      </trkpt>
      <trkpt lat="40.395838" lon="-5.252527">
        <ele>1586.06</ele>
        <time>2021-03-27T18:52:43Z</time>
      </trkpt>
      <trkpt lat="40.39573" lon="-5.252101">
        <ele>1584.76</ele>
        <time>2021-03-27T18:52:45Z</time>
      </trkpt>
      <trkpt lat="40.395691" lon="-5.251745">
        <ele>1581.89</ele>
        <time>2021-03-27T18:52:48Z</time>
      </trkpt>
      <trkpt lat="40.395481" lon="-5.251266">
        <ele>1576.78</ele>
        <time>2021-03-27T18:52:50Z</time>
      </trkpt>
      <trkpt lat="40.395252" lon="-5.250861">
        <ele>1574.76</ele>
        <time>2021-03-27T18:52:53Z</time>
      </trkpt>
      <trkpt lat="40.395159" lon="-5.250756">
        <ele>1574.17</ele>
        <time>2021-03-27T18:52:55Z</time>
      </trkpt>
      <trkpt lat="40.395046" lon="-5.250683">
        <ele>1574.35</ele>
        <time>2021-03-27T18:52:58Z</time>
      </trkpt>
      <trkpt lat="40.394931" lon="-5.250677">
        <ele>1574.0</ele>
        <time>2021-03-27T18:53:00Z</time>
      </trkpt>
      <trkpt lat="40.394794" lon="-5.250726">
        <ele>1573.23</ele>
        <time>2021-03-27T18:53:03Z</time>
      </trkpt>
      <trkpt lat="40.394625" lon="-5.250868">
        <ele>1572.62</ele>
        <time>2021-03-27T18:53:05Z</time>
      </trkpt>
      <trkpt lat="40.394253" lon="-5.251615">
        <ele>1570.93</ele>
        <time>2021-03-27T18:53:08Z</time>
      </trkpt>
      <trkpt lat="40.39375" lon="-5.252207">
        <ele>1561.47</ele>
        <time>2021-03-27T18:53:10Z</time>
      </trkpt>
      <trkpt lat="40.393672" lon="-5.252501">
        <ele>1560.31</ele>
        <time>2021-03-27T18:53:13Z</time>
      </trkpt>
      <trkpt lat="40.393514" lon="-5.253487">
        <ele>1557.85</ele>
        <time>2021-03-27T18:53:15Z</time>
      </trkpt>
      <trkpt lat="40.393441" lon="-5.253739">
        <ele>1558.88</ele>
        <time>2021-03-27T18:53:18Z</time>
      </trkpt>
      <trkpt lat="40.393208" lon="-5.254167">
        <ele>1557.95</ele>
        <time>2021-03-27T18:53:20Z</time>
      </trkpt>
      <trkpt lat="40.393097" lon="-5.254498">
        <ele>1557.65</ele>
        <time>2021-03-27T18:53:23Z</time>
      </trkpt>
      <trkpt lat="40.393037" lon="-5.254865">
        <ele>1556.83</ele>
        <time>2021-03-27T18:53:25Z</time>
      </trkpt>
      <trkpt lat="40.393107" lon="-5.255367">
        <ele>1559.44</ele>
        <time>2021-03-27T18:53:27Z</time>
      </trkpt>
      <trkpt lat="40.39307" lon="-5.255509">
        <ele>1559.14</ele>
        <time>2021-03-27T18:53:30Z</time>
      </trkpt>
      <trkpt lat="40.392504" lon="-5.256163">
        <ele>1554.63</ele>
        <time>2021-03-27T18:53:32Z</time>
      </trkpt>
      <trkpt lat="40.391298" lon="-5.256332">
        <ele>1541.0</ele>
        <time>2021-03-27T18:53:35Z</time>
      </trkpt>
      <trkpt lat="40.390978" lon="-5.256287">
        <ele>1539.12</ele>
        <time>2021-03-27T18:53:37Z</time>
      </trkpt>
      <trkpt lat="40.390825" lon="-5.256213">
        <ele>1538.88</ele>
        <time>2021-03-27T18:53:40Z</time>
      </trkpt>
      <trkpt lat="40.390667" lon="-5.256083">
        <ele>1537.71</ele>
        <time>2021-03-27T18:53:42Z</time>
      </trkpt>
      <trkpt lat="40.390378" lon="-5.255796">
        <ele>1534.41</ele>
        <time>2021-03-27T18:53:45Z</time>
      </trkpt>
      <trkpt lat="40.390233" lon="-5.255736">
        <ele>1533.18</ele>
        <time>2021-03-27T18:53:47Z</time>
      </trkpt>
      <trkpt lat="40.390093" lon="-5.255764">
        <ele>1532.17</ele>
        <time>2021-03-27T18:53:50Z</time>
      </trkpt>
      <trkpt lat="40.389987" lon="-5.255846">
        <ele>1531.9</ele>
        <time>2021-03-27T18:53:52Z</time>
      </trkpt>
      <trkpt lat="40.389663" lon="-5.256397">
        <ele>1530.17</ele>
        <time>2021-03-27T18:53:55Z</time>
      </trkpt>
      <trkpt lat="40.388973" lon="-5.257141">
        <ele>1524.39</ele>
        <time>2021-03-27T18:53:57Z</time>
      </trkpt>
      <trkpt lat="40.388569" lon="-5.257768">
        <ele>1522.84</ele>
        <time>2021-03-27T18:54:00Z</time>
      </trkpt>
      <trkpt lat="40.388251" lon="-5.258155">
        <ele>1519.36</ele>
        <time>2021-03-27T18:54:02Z</time>
      </trkpt>
      <trkpt lat="40.388012" lon="-5.258402">
        <ele>1520.95</ele>
        <time>2021-03-27T18:54:05Z</time>
      </trkpt>
      <trkpt lat="40.387464" lon="-5.258597">
        <ele>1519.32</ele>
        <time>2021-03-27T18:54:07Z</time>
      </trkpt>
      <trkpt lat="40.387366" lon="-5.258593">
        <ele>1518.75</ele>
        <time>2021-03-27T18:54:10Z</time>
      </trkpt>
      <trkpt lat="40.387274" lon="-5.258557">
        <ele>1516.88</ele>
        <time>2021-03-27T18:54:12Z</time>
      </trkpt>
      <trkpt lat="40.387011" lon="-5.258333">
        <ele>1509.28</ele>
        <time>2021-03-27T18:54:15Z</time>
      </trkpt>
      <trkpt lat="40.386897" lon="-5.258302">
        <ele>1508.54</ele>
        <time>2021-03-27T18:54:17Z</time>
      </trkpt>
      <trkpt lat="40.3867" lon="-5.258328">
        <ele>1508.96</ele>
        <time>2021-03-27T18:54:20Z</time>
      </trkpt>
      <trkpt lat="40.386475" lon="-5.258387">
        <ele>1506.52</ele>
        <time>2021-03-27T18:54:22Z</time>
      </trkpt>
      <trkpt lat="40.386291" lon="-5.258542">
        <ele>1505.28</ele>
        <time>2021-03-27T18:54:25Z</time>
      </trkpt>
      <trkpt lat="40.38614" lon="-5.258783">
        <ele>1504.59</ele>
        <time>2021-03-27T18:54:27Z</time>
      </trkpt>
      <trkpt lat="40.385772" lon="-5.259662">
        <ele>1502.65</ele>
        <time>2021-03-27T18:54:30Z</time>
      </trkpt>
      <trkpt lat="40.385189" lon="-5.260908">
        <ele>1490.24</ele>
        <time>2021-03-27T18:54:32Z</time>
      </trkpt>
      <trkpt lat="40.385168" lon="-5.261162">
        <ele>1490.46</ele>
        <time>2021-03-27T18:54:35Z</time>
      </trkpt>
      <trkpt lat="40.385169" lon="-5.261388">
        <ele>1489.71</ele>
        <time>2021-03-27T18:54:37Z</time>
      </trkpt>
      <trkpt lat="40.38524" lon="-5.262338">
        <ele>1484.59</ele>
        <time>2021-03-27T18:54:39Z</time>
      </trkpt>
      <trkpt lat="40.385254" lon="-5.262464">
        <ele>1483.69</ele>
        <time>2021-03-27T18:54:42Z</time>
      </trkpt>
      <trkpt lat="40.385289" lon="-5.262573">
        <ele>1483.22</ele>
        <time>2021-03-27T18:54:44Z</time>
      </trkpt>
      <trkpt lat="40.385363" lon="-5.262705">
        <ele>1482.96</ele>
        <time>2021-03-27T18:54:47Z</time>
      </trkpt>
      <trkpt lat="40.385499" lon="-5.26283">
        <ele>1483.5</ele>
        <time>2021-03-27T18:54:49Z</time>
      </trkpt>
      <trkpt lat="40.38566" lon="-5.262931">
        <ele>1483.48</ele>
        <time>2021-03-27T18:54:52Z</time>
      </trkpt>
      <trkpt lat="40.386201" lon="-5.263193">
        <ele>1486.48</ele>
        <time>2021-03-27T18:54:54Z</time>
      </trkpt>
      <trkpt lat="40.386234" lon="-5.263255">
        <ele>1486.19</ele>
        <time>2021-03-27T18:54:57Z</time>
      </trkpt>
      <trkpt lat="40.386254" lon="-5.263407">
        <ele>1485.55</ele>
        <time>2021-03-27T18:54:59Z</time>
      </trkpt>
      <trkpt lat="40.386227" lon="-5.263456">
        <ele>1485.79</ele>
        <time>2021-03-27T18:55:02Z</time>
      </trkpt>
      <trkpt lat="40.386153" lon="-5.263508">
        <ele>1486.0</ele>
        <time>2021-03-27T18:55:04Z</time>
      </trkpt>
      <trkpt lat="40.385078" lon="-5.263745">
        <ele>1473.97</ele>
        <time>2021-03-27T18:55:07Z</time>
      </trkpt>
      <trkpt lat="40.384912" lon="-5.263886">
        <ele>1472.45</ele>
        <time>2021-03-27T18:55:09Z</time>
      </trkpt>
      <trkpt lat="40.384767" lon="-5.26411">
        <ele>1469.44</ele>
        <time>2021-03-27T18:55:12Z</time>
      </trkpt>
      <trkpt lat="40.383983" lon="-5.2663">
        <ele>1461.99</ele>
        <time>2021-03-27T18:55:14Z</time>
      </trkpt>
      <trkpt lat="40.383875" lon="-5.266438">
        <ele>1458.22</ele>
        <time>2021-03-27T18:55:17Z</time>
      </trkpt>
      <trkpt lat="40.383767" lon="-5.266484">
        <ele>1456.08</ele>
        <time>2021-03-27T18:55:19Z</time>
      </trkpt>
      <trkpt lat="40.383135" lon="-5.266478">
        <ele>1454.52</ele>
        <time>2021-03-27T18:55:22Z</time>
      </trkpt>
      <trkpt lat="40.383054" lon="-5.266544">
        <ele>1454.23</ele>
        <time>2021-03-27T18:55:24Z</time>
      </trkpt>
      <trkpt lat="40.382916" lon="-5.266843">
        <ele>1450.46</ele>
        <time>2021-03-27T18:55:27Z</time>
      </trkpt>
      <trkpt lat="40.382807" lon="-5.266972">
        <ele>1449.51</ele>
        <time>2021-03-27T18:55:29Z</time>
      </trkpt>
      <trkpt lat="40.382668" lon="-5.26707">
        <ele>1448.86</ele>
        <time>2021-03-27T18:55:32Z</time>
      </trkpt>
      <trkpt lat="40.382573" lon="-5.267102">
        <ele>1448.62</ele>
        <time>2021-03-27T18:55:34Z</time>
      </trkpt>
      <trkpt lat="40.382445" lon="-5.267097">
        <ele>1448.18</ele>
        <time>2021-03-27T18:55:37Z</time>
      </trkpt>
      <trkpt lat="40.381475" lon="-5.266774">
        <ele>1450.15</ele>
        <time>2021-03-27T18:55:39Z</time>
      </trkpt>
      <trkpt lat="40.381131" lon="-5.266802">
        <ele>1451.42</ele>
        <time>2021-03-27T18:55:42Z</time>
      </trkpt>
      <trkpt lat="40.380948" lon="-5.266889">
        <ele>1453.23</ele>
        <time>2021-03-27T18:55:44Z</time>
      </trkpt>
      <trkpt lat="40.380811" lon="-5.267061">
        <ele>1452.33</ele>
        <time>2021-03-27T18:55:47Z</time>
      </trkpt>
      <trkpt lat="40.380771" lon="-5.267231">
        <ele>1448.39</ele>
        <time>2021-03-27T18:55:49Z</time>
      </trkpt>
      <trkpt lat="40.380759" lon="-5.267391">
        <ele>1445.65</ele>
        <time>2021-03-27T18:55:51Z</time>
      </trkpt>
      <trkpt lat="40.38078" lon="-5.267675">
        <ele>1441.65</ele>
        <time>2021-03-27T18:55:54Z</time>
      </trkpt>
      <trkpt lat="40.380733" lon="-5.267811">
        <ele>1441.18</ele>
        <time>2021-03-27T18:55:56Z</time>
      </trkpt>
      <trkpt lat="40.380665" lon="-5.267852">
        <ele>1441.44</ele>
        <time>2021-03-27T18:55:59Z</time>
      </trkpt>
      <trkpt lat="40.380146" lon="-5.267901">
        <ele>1440.97</ele>
        <time>2021-03-27T18:56:01Z</time>
      </trkpt>
      <trkpt lat="40.379837" lon="-5.267899">
        <ele>1438.59</ele>
        <time>2021-03-27T18:56:04Z</time>
      </trkpt>
      <trkpt lat="40.379341" lon="-5.267625">
        <ele>1436.87</ele>
        <time>2021-03-27T18:56:06Z</time>
      </trkpt>
      <trkpt lat="40.379126" lon="-5.267532">
        <ele>1438.31</ele>
        <time>2021-03-27T18:56:09Z</time>
      </trkpt>
      <trkpt lat="40.379072" lon="-5.267531">
        <ele>1437.13</ele>
        <time>2021-03-27T18:56:11Z</time>
      </trkpt>
      <trkpt lat="40.379072" lon="-5.267531">
        <ele>1437.13</ele>
        <time>2021-03-27T12:36:57Z</time>
      </trkpt>
      <trkpt lat="40.378896" lon="-5.267529">
        <ele>1435.94</ele>
        <time>2021-03-27T12:36:58Z</time>
      </trkpt>
      <trkpt lat="40.378364" lon="-5.267684">
        <ele>1427.35</ele>
        <time>2021-03-27T12:37:00Z</time>
      </trkpt>
      <trkpt lat="40.37779" lon="-5.267652">
        <ele>1428.18</ele>
        <time>2021-03-27T12:37:02Z</time>
      </trkpt>
      <trkpt lat="40.377698" lon="-5.267594">
        <ele>1428.22</ele>
        <time>2021-03-27T12:37:04Z</time>
      </trkpt>
      <trkpt lat="40.377612" lon="-5.267494">
        <ele>1428.95</ele>
        <time>2021-03-27T12:37:05Z</time>
      </trkpt>
      <trkpt lat="40.377208" lon="-5.266897">
        <ele>1430.06</ele>
        <time>2021-03-27T12:37:07Z</time>
      </trkpt>
      <trkpt lat="40.376648" lon="-5.266401">
        <ele>1426.76</ele>
        <time>2021-03-27T12:37:09Z</time>
      </trkpt>
      <trkpt lat="40.376449" lon="-5.266065">
        <ele>1424.8</ele>
        <time>2021-03-27T12:37:11Z</time>
      </trkpt>
      <trkpt lat="40.376299" lon="-5.265584">
        <ele>1419.06</ele>
        <time>2021-03-27T12:37:12Z</time>
      </trkpt>
      <trkpt lat="40.376283" lon="-5.265467">
        <ele>1418.85</ele>
        <time>2021-03-27T12:37:14Z</time>
      </trkpt>
      <trkpt lat="40.376296" lon="-5.265348">
        <ele>1420.47</ele>
        <time>2021-03-27T12:37:16Z</time>
      </trkpt>
      <trkpt lat="40.376446" lon="-5.26485">
        <ele>1429.9</ele>
        <time>2021-03-27T12:37:18Z</time>
      </trkpt>
      <trkpt lat="40.376423" lon="-5.264738">
        <ele>1428.9</ele>
        <time>2021-03-27T12:37:19Z</time>
      </trkpt>
      <trkpt lat="40.376306" lon="-5.264604">
        <ele>1427.41</ele>
        <time>2021-03-27T12:37:21Z</time>
      </trkpt>
      <trkpt lat="40.376204" lon="-5.264565">
        <ele>1426.45</ele>
        <time>2021-03-27T12:37:23Z</time>
      </trkpt>
      <trkpt lat="40.376083" lon="-5.264586">
        <ele>1423.94</ele>
        <time>2021-03-27T12:37:25Z</time>
      </trkpt>
      <trkpt lat="40.375925" lon="-5.264562">
        <ele>1421.64</ele>
        <time>2021-03-27T12:37:26Z</time>
      </trkpt>
      <trkpt lat="40.375518" lon="-5.264316">
        <ele>1419.08</ele>
        <time>2021-03-27T12:37:28Z</time>
      </trkpt>
      <trkpt lat="40.375259" lon="-5.264192">
        <ele>1419.03</ele>
        <time>2021-03-27T12:37:30Z</time>
      </trkpt>
      <trkpt lat="40.375021" lon="-5.264192">
        <ele>1417.24</ele>
        <time>2021-03-27T12:37:32Z</time>
      </trkpt>
      <trkpt lat="40.374814" lon="-5.264239">
        <ele>1414.88</ele>
        <time>2021-03-27T12:37:33Z</time>
      </trkpt>
      <trkpt lat="40.374421" lon="-5.26437">
        <ele>1408.18</ele>
        <time>2021-03-27T12:37:35Z</time>
      </trkpt>
      <trkpt lat="40.374024" lon="-5.264571">
        <ele>1402.7</ele>
        <time>2021-03-27T12:37:37Z</time>
      </trkpt>
      <trkpt lat="40.373626" lon="-5.264867">
        <ele>1403.43</ele>
        <time>2021-03-27T12:37:39Z</time>
      </trkpt>
      <trkpt lat="40.37332" lon="-5.265135">
        <ele>1401.85</ele>
        <time>2021-03-27T12:37:40Z</time>
      </trkpt>
      <trkpt lat="40.372996" lon="-5.265368">
        <ele>1401.29</ele>
        <time>2021-03-27T12:37:42Z</time>
      </trkpt>
      <trkpt lat="40.37232" lon="-5.265699">
        <ele>1398.45</ele>
        <time>2021-03-27T12:37:44Z</time>
      </trkpt>
      <trkpt lat="40.371963" lon="-5.266185">
        <ele>1397.38</ele>
        <time>2021-03-27T12:37:46Z</time>
      </trkpt>
      <trkpt lat="40.371397" lon="-5.26674">
        <ele>1392.21</ele>
        <time>2021-03-27T12:37:47Z</time>
      </trkpt>
      <trkpt lat="40.37117" lon="-5.266933">
        <ele>1395.33</ele>
        <time>2021-03-27T12:37:49Z</time>
      </trkpt>
      <trkpt lat="40.370352" lon="-5.268136">
        <ele>1384.66</ele>
        <time>2021-03-27T12:37:51Z</time>
      </trkpt>
      <trkpt lat="40.370152" lon="-5.268464">
        <ele>1380.15</ele>
        <time>2021-03-27T12:37:53Z</time>
      </trkpt>
      <trkpt lat="40.369933" lon="-5.268695">
        <ele>1380.17</ele>
        <time>2021-03-27T12:37:54Z</time>
      </trkpt>
      <trkpt lat="40.369449" lon="-5.269008">
        <ele>1376.23</ele>
        <time>2021-03-27T12:37:56Z</time>
      </trkpt>
      <trkpt lat="40.368332" lon="-5.269414">
        <ele>1375.89</ele>
        <time>2021-03-27T12:37:58Z</time>
      </trkpt>
      <trkpt lat="40.368224" lon="-5.2695">
        <ele>1377.03</ele>
        <time>2021-03-27T12:38:00Z</time>
      </trkpt>
      <trkpt lat="40.368069" lon="-5.269778">
        <ele>1375.94</ele>
        <time>2021-03-27T12:38:01Z</time>
      </trkpt>
      <trkpt lat="40.3679" lon="-5.270193">
        <ele>1370.31</ele>
        <time>2021-03-27T12:38:03Z</time>
      </trkpt>
      <trkpt lat="40.367532" lon="-5.270496">
        <ele>1369.86</ele>
        <time>2021-03-27T12:38:05Z</time>
      </trkpt>
      <trkpt lat="40.367385" lon="-5.270548">
        <ele>1369.15</ele>
        <time>2021-03-27T12:38:07Z</time>
      </trkpt>
      <trkpt lat="40.367228" lon="-5.270523">
        <ele>1369.59</ele>
        <time>2021-03-27T12:38:08Z</time>
      </trkpt>
      <trkpt lat="40.36712" lon="-5.270442">
        <ele>1368.33</ele>
        <time>2021-03-27T12:38:10Z</time>
      </trkpt>
      <trkpt lat="40.367005" lon="-5.270295">
        <ele>1367.49</ele>
        <time>2021-03-27T12:38:12Z</time>
      </trkpt>
      <trkpt lat="40.36687" lon="-5.270015">
        <ele>1364.15</ele>
        <time>2021-03-27T12:38:14Z</time>
      </trkpt>
      <trkpt lat="40.366773" lon="-5.2696">
        <ele>1365.72</ele>
        <time>2021-03-27T12:38:15Z</time>
      </trkpt>
      <trkpt lat="40.366718" lon="-5.269264">
        <ele>1366.59</ele>
        <time>2021-03-27T12:38:17Z</time>
      </trkpt>
      <trkpt lat="40.366404" lon="-5.268738">
        <ele>1363.29</ele>
        <time>2021-03-27T12:38:19Z</time>
      </trkpt>
      <trkpt lat="40.365986" lon="-5.268441">
        <ele>1356.12</ele>
        <time>2021-03-27T12:38:21Z</time>
      </trkpt>
      <trkpt lat="40.365717" lon="-5.2681">
        <ele>1357.8</ele>
        <time>2021-03-27T12:38:23Z</time>
      </trkpt>
      <trkpt lat="40.365541" lon="-5.267959">
        <ele>1358.5</ele>
        <time>2021-03-27T12:38:24Z</time>
      </trkpt>
      <trkpt lat="40.365336" lon="-5.267943">
        <ele>1359.35</ele>
        <time>2021-03-27T12:38:26Z</time>
      </trkpt>
      <trkpt lat="40.365033" lon="-5.268077">
        <ele>1358.44</ele>
        <time>2021-03-27T12:38:28Z</time>
      </trkpt>
      <trkpt lat="40.364625" lon="-5.268365">
        <ele>1349.82</ele>
        <time>2021-03-27T12:38:30Z</time>
      </trkpt>
      <trkpt lat="40.364494" lon="-5.268401">
        <ele>1349.61</ele>
        <time>2021-03-27T12:38:31Z</time>
      </trkpt>
      <trkpt lat="40.364072" lon="-5.26834">
        <ele>1345.06</ele>
        <time>2021-03-27T12:38:33Z</time>
      </trkpt>
      <trkpt lat="40.363329" lon="-5.267967">
        <ele>1341.79</ele>
        <time>2021-03-27T12:38:35Z</time>
      </trkpt>
      <trkpt lat="40.363151" lon="-5.267801">
        <ele>1343.36</ele>
        <time>2021-03-27T12:38:37Z</time>
      </trkpt>
      <trkpt lat="40.362981" lon="-5.267595">
        <ele>1344.56</ele>
        <time>2021-03-27T12:38:38Z</time>
      </trkpt>
      <trkpt lat="40.362805" lon="-5.267216">
        <ele>1345.86</ele>
        <time>2021-03-27T12:38:40Z</time>
      </trkpt>
      <trkpt lat="40.362649" lon="-5.266804">
        <ele>1345.95</ele>
        <time>2021-03-27T12:38:42Z</time>
      </trkpt>
      <trkpt lat="40.362491" lon="-5.266503">
        <ele>1345.75</ele>
        <time>2021-03-27T12:38:44Z</time>
      </trkpt>
      <trkpt lat="40.362329" lon="-5.266251">
        <ele>1344.1</ele>
        <time>2021-03-27T12:38:45Z</time>
      </trkpt>
      <trkpt lat="40.361859" lon="-5.265787">
        <ele>1339.56</ele>
        <time>2021-03-27T12:38:47Z</time>
      </trkpt>
      <trkpt lat="40.361672" lon="-5.265687">
        <ele>1339.95</ele>
        <time>2021-03-27T12:38:49Z</time>
      </trkpt>
      <trkpt lat="40.361239" lon="-5.265764">
        <ele>1333.17</ele>
        <time>2021-03-27T12:38:51Z</time>
      </trkpt>
      <trkpt lat="40.360111" lon="-5.265386">
        <ele>1336.38</ele>
        <time>2021-03-27T12:38:52Z</time>
      </trkpt>
      <trkpt lat="40.359971" lon="-5.265369">
        <ele>1335.83</ele>
        <time>2021-03-27T12:38:54Z</time>
      </trkpt>
      <trkpt lat="40.358595" lon="-5.26538">
        <ele>1322.06</ele>
        <time>2021-03-27T12:38:56Z</time>
      </trkpt>
      <trkpt lat="40.358238" lon="-5.265341">
        <ele>1322.67</ele>
        <time>2021-03-27T12:38:58Z</time>
      </trkpt>
      <trkpt lat="40.357904" lon="-5.265276">
        <ele>1322.97</ele>
        <time>2021-03-27T12:38:59Z</time>
      </trkpt>
      <trkpt lat="40.357444" lon="-5.265145">
        <ele>1322.24</ele>
        <time>2021-03-27T12:39:01Z</time>
      </trkpt>
      <trkpt lat="40.357419" lon="-5.265251">
        <ele>1317.24</ele>
        <time>2021-03-27T12:39:02Z</time>
      </trkpt>
      <trkpt lat="40.357543" lon="-5.265329">
        <ele>1315.85</ele>
        <time>2021-03-27T12:39:05Z</time>
      </trkpt>
      <trkpt lat="40.35776" lon="-5.265428">
        <ele>1314.75</ele>
        <time>2021-03-27T12:39:08Z</time>
      </trkpt>
      <trkpt lat="40.358591" lon="-5.265701">
        <ele>1312.59</ele>
        <time>2021-03-27T12:39:11Z</time>
      </trkpt>
      <trkpt lat="40.359833" lon="-5.266068">
        <ele>1307.57</ele>
        <time>2021-03-27T12:39:15Z</time>
      </trkpt>
      <trkpt lat="40.359945" lon="-5.266119">
        <ele>1306.68</ele>
        <time>2021-03-27T12:39:18Z</time>
      </trkpt>
      <trkpt lat="40.360046" lon="-5.266198">
        <ele>1306.36</ele>
        <time>2021-03-27T12:39:21Z</time>
      </trkpt>
      <trkpt lat="40.360109" lon="-5.266298">
        <ele>1305.61</ele>
        <time>2021-03-27T12:39:25Z</time>
      </trkpt>
      <trkpt lat="40.360145" lon="-5.266413">
        <ele>1304.39</ele>
        <time>2021-03-27T12:39:28Z</time>
      </trkpt>
      <trkpt lat="40.360154" lon="-5.266539">
        <ele>1303.58</ele>
        <time>2021-03-27T12:39:31Z</time>
      </trkpt>
      <trkpt lat="40.360134" lon="-5.266658">
        <ele>1304.69</ele>
        <time>2021-03-27T12:39:35Z</time>
      </trkpt>
      <trkpt lat="40.360016" lon="-5.266949">
        <ele>1307.56</ele>
        <time>2021-03-27T12:39:38Z</time>
      </trkpt>
      <trkpt lat="40.359889" lon="-5.267162">
        <ele>1309.85</ele>
        <time>2021-03-27T12:39:41Z</time>
      </trkpt>
      <trkpt lat="40.359759" lon="-5.267228">
        <ele>1310.44</ele>
        <time>2021-03-27T12:39:45Z</time>
      </trkpt>
      <trkpt lat="40.358704" lon="-5.267376">
        <ele>1312.69</ele>
        <time>2021-03-27T12:39:48Z</time>
      </trkpt>
      <trkpt lat="40.358071" lon="-5.267323">
        <ele>1314.71</ele>
        <time>2021-03-27T12:39:51Z</time>
      </trkpt>
      <trkpt lat="40.35788" lon="-5.267346">
        <ele>1316.56</ele>
        <time>2021-03-27T12:39:55Z</time>
      </trkpt>
      <trkpt lat="40.35767" lon="-5.267434">
        <ele>1318.27</ele>
        <time>2021-03-27T12:39:58Z</time>
      </trkpt>
      <trkpt lat="40.357496" lon="-5.26758">
        <ele>1319.93</ele>
        <time>2021-03-27T12:40:01Z</time>
      </trkpt>
      <trkpt lat="40.357157" lon="-5.26802">
        <ele>1321.29</ele>
        <time>2021-03-27T12:40:04Z</time>
      </trkpt>
      <trkpt lat="40.356986" lon="-5.268333">
        <ele>1322.35</ele>
        <time>2021-03-27T12:40:08Z</time>
      </trkpt>
      <trkpt lat="40.356851" lon="-5.26865">
        <ele>1325.58</ele>
        <time>2021-03-27T12:40:11Z</time>
      </trkpt>
      <trkpt lat="40.356743" lon="-5.268954">
        <ele>1329.78</ele>
        <time>2021-03-27T12:40:14Z</time>
      </trkpt>
      <trkpt lat="40.355138" lon="-5.274346">
        <ele>1336.35</ele>
        <time>2021-03-27T12:40:18Z</time>
      </trkpt>
      <trkpt lat="40.354793" lon="-5.276448">
        <ele>1336.33</ele>
        <time>2021-03-27T12:40:21Z</time>
      </trkpt>
      <trkpt lat="40.354796" lon="-5.27705">
        <ele>1337.52</ele>
        <time>2021-03-27T12:40:24Z</time>
      </trkpt>
      <trkpt lat="40.354945" lon="-5.278362">
        <ele>1336.53</ele>
        <time>2021-03-27T12:40:28Z</time>
      </trkpt>
      <trkpt lat="40.35507" lon="-5.279062">
        <ele>1334.35</ele>
        <time>2021-03-27T12:40:31Z</time>
      </trkpt>
      <trkpt lat="40.355621" lon="-5.280517">
        <ele>1332.35</ele>
        <time>2021-03-27T12:40:34Z</time>
      </trkpt>
      <trkpt lat="40.35567" lon="-5.280776">
        <ele>1331.39</ele>
        <time>2021-03-27T12:40:38Z</time>
      </trkpt>
      <trkpt lat="40.355679" lon="-5.281048">
        <ele>1331.56</ele>
        <time>2021-03-27T12:40:41Z</time>
      </trkpt>
      <trkpt lat="40.355628" lon="-5.281318">
        <ele>1333.39</ele>
        <time>2021-03-27T12:40:44Z</time>
      </trkpt>
      <trkpt lat="40.355547" lon="-5.281587">
        <ele>1336.11</ele>
        <time>2021-03-27T12:40:47Z</time>
      </trkpt>
      <trkpt lat="40.35543" lon="-5.281807">
        <ele>1339.04</ele>
        <time>2021-03-27T12:40:51Z</time>
      </trkpt>
      <trkpt lat="40.354737" lon="-5.282495">
        <ele>1341.15</ele>
        <time>2021-03-27T12:40:54Z</time>
      </trkpt>
      <trkpt lat="40.354427" lon="-5.282932">
        <ele>1342.33</ele>
        <time>2021-03-27T12:40:57Z</time>
      </trkpt>
      <trkpt lat="40.35432" lon="-5.283187">
        <ele>1343.75</ele>
        <time>2021-03-27T12:41:01Z</time>
      </trkpt>
      <trkpt lat="40.354226" lon="-5.283504">
        <ele>1346.86</ele>
        <time>2021-03-27T12:41:04Z</time>
      </trkpt>
      <trkpt lat="40.354021" lon="-5.284421">
        <ele>1350.68</ele>
        <time>2021-03-27T12:41:07Z</time>
      </trkpt>
      <trkpt lat="40.353899" lon="-5.28489">
        <ele>1352.26</ele>
        <time>2021-03-27T12:41:11Z</time>
      </trkpt>
      <trkpt lat="40.353875" lon="-5.285334">
        <ele>1352.75</ele>
        <time>2021-03-27T12:41:14Z</time>
      </trkpt>
      <trkpt lat="40.353876" lon="-5.28568">
        <ele>1351.97</ele>
        <time>2021-03-27T12:41:17Z</time>
      </trkpt>
      <trkpt lat="40.353929" lon="-5.285993">
        <ele>1352.06</ele>
        <time>2021-03-27T12:41:21Z</time>
      </trkpt>
      <trkpt lat="40.354447" lon="-5.287401">
        <ele>1352.05</ele>
        <time>2021-03-27T12:41:24Z</time>
      </trkpt>
      <trkpt lat="40.354536" lon="-5.287757">
        <ele>1353.99</ele>
        <time>2021-03-27T12:41:27Z</time>
      </trkpt>
      <trkpt lat="40.354598" lon="-5.288183">
        <ele>1353.41</ele>
        <time>2021-03-27T12:41:31Z</time>
      </trkpt>
      <trkpt lat="40.355025" lon="-5.293075">
        <ele>1328.04</ele>
        <time>2021-03-27T12:41:34Z</time>
      </trkpt>
      <trkpt lat="40.35502" lon="-5.293397">
        <ele>1329.42</ele>
        <time>2021-03-27T12:41:37Z</time>
      </trkpt>
      <trkpt lat="40.354914" lon="-5.294333">
        <ele>1326.74</ele>
        <time>2021-03-27T12:41:40Z</time>
      </trkpt>
      <trkpt lat="40.35491" lon="-5.294712">
        <ele>1320.56</ele>
        <time>2021-03-27T12:41:44Z</time>
      </trkpt>
      <trkpt lat="40.355134" lon="-5.295764">
        <ele>1317.65</ele>
        <time>2021-03-27T12:41:47Z</time>
      </trkpt>
      <trkpt lat="40.35514" lon="-5.296161">
        <ele>1314.11</ele>
        <time>2021-03-27T12:41:50Z</time>
      </trkpt>
      <trkpt lat="40.355086" lon="-5.296443">
        <ele>1314.51</ele>
        <time>2021-03-27T12:41:54Z</time>
      </trkpt>
      <trkpt lat="40.354946" lon="-5.296805">
        <ele>1316.41</ele>
        <time>2021-03-27T12:41:57Z</time>
      </trkpt>
      <trkpt lat="40.354716" lon="-5.297153">
        <ele>1316.4</ele>
        <time>2021-03-27T12:42:00Z</time>
      </trkpt>
      <trkpt lat="40.35433" lon="-5.297667">
        <ele>1316.26</ele>
        <time>2021-03-27T12:42:04Z</time>
      </trkpt>
      <trkpt lat="40.354185" lon="-5.297915">
        <ele>1314.96</ele>
        <time>2021-03-27T12:42:07Z</time>
      </trkpt>
      <trkpt lat="40.354114" lon="-5.298169">
        <ele>1314.34</ele>
        <time>2021-03-27T12:42:10Z</time>
      </trkpt>
      <trkpt lat="40.353796" lon="-5.299689">
        <ele>1311.17</ele>
        <time>2021-03-27T12:42:14Z</time>
      </trkpt>
      <trkpt lat="40.353556" lon="-5.300642">
        <ele>1310.07</ele>
        <time>2021-03-27T12:42:17Z</time>
      </trkpt>
      <trkpt lat="40.353357" lon="-5.301601">
        <ele>1307.47</ele>
        <time>2021-03-27T12:42:20Z</time>
      </trkpt>
      <trkpt lat="40.353232" lon="-5.301961">
        <ele>1306.28</ele>
        <time>2021-03-27T12:42:24Z</time>
      </trkpt>
      <trkpt lat="40.352069" lon="-5.304436">
        <ele>1301.91</ele>
        <time>2021-03-27T12:42:27Z</time>
      </trkpt>
      <trkpt lat="40.351977" lon="-5.304683">
        <ele>1301.14</ele>
        <time>2021-03-27T12:42:30Z</time>
      </trkpt>
      <trkpt lat="40.351927" lon="-5.304962">
        <ele>1301.7</ele>
        <time>2021-03-27T12:42:33Z</time>
      </trkpt>
      <trkpt lat="40.351753" lon="-5.307677">
        <ele>1292.84</ele>
        <time>2021-03-27T12:42:37Z</time>
      </trkpt>
      <trkpt lat="40.351857" lon="-5.308565">
        <ele>1290.59</ele>
        <time>2021-03-27T12:42:40Z</time>
      </trkpt>
      <trkpt lat="40.35187" lon="-5.308873">
        <ele>1289.71</ele>
        <time>2021-03-27T12:42:43Z</time>
      </trkpt>
      <trkpt lat="40.351859" lon="-5.309398">
        <ele>1287.38</ele>
        <time>2021-03-27T12:42:47Z</time>
      </trkpt>
      <trkpt lat="40.351816" lon="-5.310202">
        <ele>1284.97</ele>
        <time>2021-03-27T12:42:50Z</time>
      </trkpt>
      <trkpt lat="40.351702" lon="-5.310861">
        <ele>1281.17</ele>
        <time>2021-03-27T12:42:53Z</time>
      </trkpt>
      <trkpt lat="40.351615" lon="-5.311112">
        <ele>1281.09</ele>
        <time>2021-03-27T12:42:57Z</time>
      </trkpt>
      <trkpt lat="40.351325" lon="-5.311529">
        <ele>1279.85</ele>
        <time>2021-03-27T12:43:00Z</time>
      </trkpt>
      <trkpt lat="40.350546" lon="-5.312559">
        <ele>1280.15</ele>
        <time>2021-03-27T12:43:03Z</time>
      </trkpt>
      <trkpt lat="40.350389" lon="-5.31292">
        <ele>1278.03</ele>
        <time>2021-03-27T12:43:07Z</time>
      </trkpt>
      <trkpt lat="40.350319" lon="-5.313209">
        <ele>1277.44</ele>
        <time>2021-03-27T12:43:10Z</time>
      </trkpt>
      <trkpt lat="40.350289" lon="-5.313661">
        <ele>1277.53</ele>
        <time>2021-03-27T12:43:13Z</time>
      </trkpt>
      <trkpt lat="40.35027" lon="-5.314865">
        <ele>1276.88</ele>
        <time>2021-03-27T12:43:16Z</time>
      </trkpt>
      <trkpt lat="40.350206" lon="-5.315156">
        <ele>1277.08</ele>
        <time>2021-03-27T12:43:20Z</time>
      </trkpt>
      <trkpt lat="40.350127" lon="-5.315352">
        <ele>1277.46</ele>
        <time>2021-03-27T12:43:23Z</time>
      </trkpt>
      <trkpt lat="40.350012" lon="-5.315515">
        <ele>1277.04</ele>
        <time>2021-03-27T12:43:26Z</time>
      </trkpt>
      <trkpt lat="40.349873" lon="-5.31566">
        <ele>1277.45</ele>
        <time>2021-03-27T12:43:30Z</time>
      </trkpt>
      <trkpt lat="40.3496" lon="-5.315865">
        <ele>1277.56</ele>
        <time>2021-03-27T12:43:33Z</time>
      </trkpt>
      <trkpt lat="40.349353" lon="-5.316085">
        <ele>1275.78</ele>
        <time>2021-03-27T12:43:36Z</time>
      </trkpt>
      <trkpt lat="40.349126" lon="-5.316336">
        <ele>1273.52</ele>
        <time>2021-03-27T12:43:40Z</time>
      </trkpt>
      <trkpt lat="40.349011" lon="-5.31656">
        <ele>1273.15</ele>
        <time>2021-03-27T12:43:43Z</time>
      </trkpt>
      <trkpt lat="40.348647" lon="-5.317587">
        <ele>1268.69</ele>
        <time>2021-03-27T12:43:46Z</time>
      </trkpt>
      <trkpt lat="40.34853" lon="-5.318036">
        <ele>1266.57</ele>
        <time>2021-03-27T12:43:50Z</time>
      </trkpt>
      <trkpt lat="40.348491" lon="-5.318313">
        <ele>1265.84</ele>
        <time>2021-03-27T12:43:53Z</time>
      </trkpt>
      <trkpt lat="40.348479" lon="-5.318839">
        <ele>1266.88</ele>
        <time>2021-03-27T12:43:56Z</time>
      </trkpt>
      <trkpt lat="40.348607" lon="-5.321487">
        <ele>1259.63</ele>
        <time>2021-03-27T12:44:00Z</time>
      </trkpt>
      <trkpt lat="40.348682" lon="-5.32182">
        <ele>1262.66</ele>
        <time>2021-03-27T12:44:03Z</time>
      </trkpt>
      <trkpt lat="40.348938" lon="-5.322482">
        <ele>1262.8</ele>
        <time>2021-03-27T12:44:06Z</time>
      </trkpt>
      <trkpt lat="40.349442" lon="-5.323658">
        <ele>1261.64</ele>
        <time>2021-03-27T12:44:09Z</time>
      </trkpt>
      <trkpt lat="40.349562" lon="-5.32415">
        <ele>1261.47</ele>
        <time>2021-03-27T12:44:13Z</time>
      </trkpt>
      <trkpt lat="40.349602" lon="-5.324391">
        <ele>1261.73</ele>
        <time>2021-03-27T12:44:16Z</time>
      </trkpt>
      <trkpt lat="40.349613" lon="-5.324905">
        <ele>1260.42</ele>
        <time>2021-03-27T12:44:19Z</time>
      </trkpt>
      <trkpt lat="40.349573" lon="-5.325828">
        <ele>1256.28</ele>
        <time>2021-03-27T12:44:23Z</time>
      </trkpt>
      <trkpt lat="40.349635" lon="-5.326159">
        <ele>1255.24</ele>
        <time>2021-03-27T12:44:26Z</time>
      </trkpt>
      <trkpt lat="40.3497" lon="-5.326361">
        <ele>1255.7</ele>
        <time>2021-03-27T12:44:29Z</time>
      </trkpt>
      <trkpt lat="40.349828" lon="-5.326562">
        <ele>1256.28</ele>
        <time>2021-03-27T12:44:33Z</time>
      </trkpt>
      <trkpt lat="40.350008" lon="-5.326763">
        <ele>1257.42</ele>
        <time>2021-03-27T12:44:36Z</time>
      </trkpt>
      <trkpt lat="40.350073" lon="-5.326925">
        <ele>1257.19</ele>
        <time>2021-03-27T12:44:39Z</time>
      </trkpt>
      <trkpt lat="40.350074" lon="-5.327079">
        <ele>1257.43</ele>
        <time>2021-03-27T12:44:43Z</time>
      </trkpt>
      <trkpt lat="40.35004" lon="-5.327267">
        <ele>1258.38</ele>
        <time>2021-03-27T12:44:46Z</time>
      </trkpt>
      <trkpt lat="40.349869" lon="-5.327425">
        <ele>1260.44</ele>
        <time>2021-03-27T12:44:49Z</time>
      </trkpt>
      <trkpt lat="40.349705" lon="-5.327458">
        <ele>1260.1</ele>
        <time>2021-03-27T12:44:52Z</time>
      </trkpt>
      <trkpt lat="40.349483" lon="-5.327423">
        <ele>1259.34</ele>
        <time>2021-03-27T12:44:56Z</time>
      </trkpt>
      <trkpt lat="40.348232" lon="-5.327124">
        <ele>1255.82</ele>
        <time>2021-03-27T12:44:59Z</time>
      </trkpt>
      <trkpt lat="40.347951" lon="-5.326977">
        <ele>1253.46</ele>
        <time>2021-03-27T12:45:02Z</time>
      </trkpt>
      <trkpt lat="40.347799" lon="-5.326857">
        <ele>1252.08</ele>
        <time>2021-03-27T12:45:06Z</time>
      </trkpt>
      <trkpt lat="40.347305" lon="-5.326337">
        <ele>1250.2</ele>
        <time>2021-03-27T12:45:09Z</time>
      </trkpt>
      <trkpt lat="40.34698" lon="-5.326154">
        <ele>1247.59</ele>
        <time>2021-03-27T12:45:12Z</time>
      </trkpt>
      <trkpt lat="40.346756" lon="-5.326092">
        <ele>1247.59</ele>
        <time>2021-03-27T12:45:16Z</time>
      </trkpt>
      <trkpt lat="40.346423" lon="-5.326072">
        <ele>1246.98</ele>
        <time>2021-03-27T12:45:19Z</time>
      </trkpt>
      <trkpt lat="40.346214" lon="-5.326133">
        <ele>1245.9</ele>
        <time>2021-03-27T12:45:22Z</time>
      </trkpt>
      <trkpt lat="40.34591" lon="-5.326275">
        <ele>1245.16</ele>
        <time>2021-03-27T12:45:26Z</time>
      </trkpt>
      <trkpt lat="40.345738" lon="-5.326435">
        <ele>1245.31</ele>
        <time>2021-03-27T12:45:29Z</time>
      </trkpt>
      <trkpt lat="40.345495" lon="-5.326711">
        <ele>1245.15</ele>
        <time>2021-03-27T12:45:32Z</time>
      </trkpt>
      <trkpt lat="40.34534" lon="-5.32699">
        <ele>1243.79</ele>
        <time>2021-03-27T12:45:36Z</time>
      </trkpt>
      <trkpt lat="40.344423" lon="-5.329024">
        <ele>1234.62</ele>
        <time>2021-03-27T12:45:39Z</time>
      </trkpt>
      <trkpt lat="40.344335" lon="-5.329367">
        <ele>1233.91</ele>
        <time>2021-03-27T12:45:42Z</time>
      </trkpt>
      <trkpt lat="40.344176" lon="-5.330678">
        <ele>1230.25</ele>
        <time>2021-03-27T12:45:45Z</time>
      </trkpt>
      <trkpt lat="40.344069" lon="-5.330948">
        <ele>1228.44</ele>
        <time>2021-03-27T12:45:49Z</time>
      </trkpt>
      <trkpt lat="40.343764" lon="-5.331524">
        <ele>1228.22</ele>
        <time>2021-03-27T12:45:52Z</time>
      </trkpt>
      <trkpt lat="40.343679" lon="-5.331815">
        <ele>1229.4</ele>
        <time>2021-03-27T12:45:55Z</time>
      </trkpt>
      <trkpt lat="40.343368" lon="-5.333232">
        <ele>1224.15</ele>
        <time>2021-03-27T12:45:59Z</time>
      </trkpt>
      <trkpt lat="40.342936" lon="-5.335603">
        <ele>1225.53</ele>
        <time>2021-03-27T12:46:02Z</time>
      </trkpt>
      <trkpt lat="40.342609" lon="-5.33767">
        <ele>1218.75</ele>
        <time>2021-03-27T12:46:05Z</time>
      </trkpt>
      <trkpt lat="40.342329" lon="-5.340566">
        <ele>1219.12</ele>
        <time>2021-03-27T12:46:09Z</time>
      </trkpt>
      <trkpt lat="40.342343" lon="-5.341842">
        <ele>1226.32</ele>
        <time>2021-03-27T12:46:12Z</time>
      </trkpt>
      <trkpt lat="40.342276" lon="-5.342199">
        <ele>1227.2</ele>
        <time>2021-03-27T12:46:15Z</time>
      </trkpt>
      <trkpt lat="40.34188" lon="-5.343497">
        <ele>1232.17</ele>
        <time>2021-03-27T12:46:19Z</time>
      </trkpt>
      <trkpt lat="40.341815" lon="-5.343932">
        <ele>1230.11</ele>
        <time>2021-03-27T12:46:22Z</time>
      </trkpt>
      <trkpt lat="40.34183" lon="-5.344212">
        <ele>1229.74</ele>
        <time>2021-03-27T12:46:25Z</time>
      </trkpt>
      <trkpt lat="40.341964" lon="-5.345153">
        <ele>1228.34</ele>
        <time>2021-03-27T12:46:29Z</time>
      </trkpt>
      <trkpt lat="40.341925" lon="-5.345767">
        <ele>1231.43</ele>
        <time>2021-03-27T12:46:32Z</time>
      </trkpt>
      <trkpt lat="40.340779" lon="-5.349036">
        <ele>1236.91</ele>
        <time>2021-03-27T12:46:35Z</time>
      </trkpt>
      <trkpt lat="40.340233" lon="-5.350499">
        <ele>1243.31</ele>
        <time>2021-03-27T12:46:38Z</time>
      </trkpt>
      <trkpt lat="40.339803" lon="-5.351769">
        <ele>1235.06</ele>
        <time>2021-03-27T12:46:42Z</time>
      </trkpt>
      <trkpt lat="40.339708" lon="-5.352311">
        <ele>1233.71</ele>
        <time>2021-03-27T12:46:45Z</time>
      </trkpt>
      <trkpt lat="40.339687" lon="-5.352631">
        <ele>1233.36</ele>
        <time>2021-03-27T12:46:48Z</time>
      </trkpt>
      <trkpt lat="40.339689" lon="-5.35295">
        <ele>1232.31</ele>
        <time>2021-03-27T12:46:52Z</time>
      </trkpt>
      <trkpt lat="40.340116" lon="-5.356818">
        <ele>1220.59</ele>
        <time>2021-03-27T12:46:55Z</time>
      </trkpt>
      <trkpt lat="40.340102" lon="-5.35729">
        <ele>1222.24</ele>
        <time>2021-03-27T12:46:58Z</time>
      </trkpt>
      <trkpt lat="40.340037" lon="-5.357612">
        <ele>1222.97</ele>
        <time>2021-03-27T12:47:02Z</time>
      </trkpt>
      <trkpt lat="40.339878" lon="-5.358116">
        <ele>1221.25</ele>
        <time>2021-03-27T12:47:05Z</time>
      </trkpt>
      <trkpt lat="40.339071" lon="-5.360222">
        <ele>1216.59</ele>
        <time>2021-03-27T12:47:08Z</time>
      </trkpt>
      <trkpt lat="40.338929" lon="-5.360503">
        <ele>1213.95</ele>
        <time>2021-03-27T12:47:12Z</time>
      </trkpt>
      <trkpt lat="40.338711" lon="-5.360813">
        <ele>1207.27</ele>
        <time>2021-03-27T12:47:15Z</time>
      </trkpt>
      <trkpt lat="40.337693" lon="-5.361784">
        <ele>1206.28</ele>
        <time>2021-03-27T12:47:18Z</time>
      </trkpt>
      <trkpt lat="40.337469" lon="-5.362126">
        <ele>1204.1</ele>
        <time>2021-03-27T12:47:21Z</time>
      </trkpt>
      <trkpt lat="40.33728" lon="-5.362747">
        <ele>1197.9</ele>
        <time>2021-03-27T12:47:25Z</time>
      </trkpt>
      <trkpt lat="40.337156" lon="-5.364165">
        <ele>1196.81</ele>
        <time>2021-03-27T12:47:28Z</time>
      </trkpt>
      <trkpt lat="40.337052" lon="-5.364685">
        <ele>1194.14</ele>
        <time>2021-03-27T12:47:31Z</time>
      </trkpt>
      <trkpt lat="40.336984" lon="-5.364907">
        <ele>1193.46</ele>
        <time>2021-03-27T12:47:35Z</time>
      </trkpt>
      <trkpt lat="40.336808" lon="-5.365309">
        <ele>1193.29</ele>
        <time>2021-03-27T12:47:38Z</time>
      </trkpt>
      <trkpt lat="40.33534" lon="-5.367379">
        <ele>1186.2</ele>
        <time>2021-03-27T12:47:41Z</time>
      </trkpt>
      <trkpt lat="40.334181" lon="-5.369478">
        <ele>1180.85</ele>
        <time>2021-03-27T12:47:45Z</time>
      </trkpt>
      <trkpt lat="40.333945" lon="-5.369819">
        <ele>1179.4</ele>
        <time>2021-03-27T12:47:48Z</time>
      </trkpt>
      <trkpt lat="40.33381" lon="-5.369975">
        <ele>1178.67</ele>
        <time>2021-03-27T12:47:51Z</time>
      </trkpt>
      <trkpt lat="40.332778" lon="-5.370947">
        <ele>1175.12</ele>
        <time>2021-03-27T12:47:55Z</time>
      </trkpt>
      <trkpt lat="40.331748" lon="-5.371988">
        <ele>1162.99</ele>
        <time>2021-03-27T12:47:58Z</time>
      </trkpt>
      <trkpt lat="40.331462" lon="-5.372398">
        <ele>1162.45</ele>
        <time>2021-03-27T12:48:01Z</time>
      </trkpt>
      <trkpt lat="40.331329" lon="-5.372678">
        <ele>1164.05</ele>
        <time>2021-03-27T12:48:05Z</time>
      </trkpt>
      <trkpt lat="40.33116" lon="-5.373199">
        <ele>1166.49</ele>
        <time>2021-03-27T12:48:08Z</time>
      </trkpt>
      <trkpt lat="40.330766" lon="-5.374667">
        <ele>1162.1</ele>
        <time>2021-03-27T12:48:11Z</time>
      </trkpt>
      <trkpt lat="40.330731" lon="-5.374928">
        <ele>1158.65</ele>
        <time>2021-03-27T12:48:14Z</time>
      </trkpt>
      <trkpt lat="40.330673" lon="-5.375972">
        <ele>1157.74</ele>
        <time>2021-03-27T12:48:18Z</time>
      </trkpt>
      <trkpt lat="40.330732" lon="-5.376465">
        <ele>1156.19</ele>
        <time>2021-03-27T12:48:21Z</time>
      </trkpt>
      <trkpt lat="40.330876" lon="-5.377213">
        <ele>1153.25</ele>
        <time>2021-03-27T12:48:24Z</time>
      </trkpt>
      <trkpt lat="40.331051" lon="-5.377604">
        <ele>1158.02</ele>
        <time>2021-03-27T12:48:28Z</time>
      </trkpt>
      <trkpt lat="40.33131" lon="-5.377924">
        <ele>1158.1</ele>
        <time>2021-03-27T12:48:31Z</time>
      </trkpt>
      <trkpt lat="40.331544" lon="-5.378152">
        <ele>1157.32</ele>
        <time>2021-03-27T12:48:34Z</time>
      </trkpt>
      <trkpt lat="40.331654" lon="-5.378309">
        <ele>1157.05</ele>
        <time>2021-03-27T12:48:38Z</time>
      </trkpt>
      <trkpt lat="40.331795" lon="-5.378665">
        <ele>1155.99</ele>
        <time>2021-03-27T12:48:41Z</time>
      </trkpt>
      <trkpt lat="40.331837" lon="-5.378933">
        <ele>1154.65</ele>
        <time>2021-03-27T12:48:44Z</time>
      </trkpt>
      <trkpt lat="40.331949" lon="-5.380082">
        <ele>1148.15</ele>
        <time>2021-03-27T12:48:48Z</time>
      </trkpt>
      <trkpt lat="40.332017" lon="-5.380944">
        <ele>1144.78</ele>
        <time>2021-03-27T12:48:51Z</time>
      </trkpt>
      <trkpt lat="40.332001" lon="-5.381419">
        <ele>1147.83</ele>
        <time>2021-03-27T12:48:54Z</time>
      </trkpt>
      <trkpt lat="40.331958" lon="-5.381709">
        <ele>1148.5</ele>
        <time>2021-03-27T12:48:58Z</time>
      </trkpt>
      <trkpt lat="40.331816" lon="-5.382246">
        <ele>1147.3</ele>
        <time>2021-03-27T12:49:01Z</time>
      </trkpt>
      <trkpt lat="40.331328" lon="-5.383804">
        <ele>1144.01</ele>
        <time>2021-03-27T12:49:04Z</time>
      </trkpt>
      <trkpt lat="40.331261" lon="-5.384245">
        <ele>1142.75</ele>
        <time>2021-03-27T12:49:07Z</time>
      </trkpt>
      <trkpt lat="40.331239" lon="-5.384594">
        <ele>1142.6</ele>
        <time>2021-03-27T12:49:11Z</time>
      </trkpt>
      <trkpt lat="40.33131" lon="-5.385495">
        <ele>1140.96</ele>
        <time>2021-03-27T12:49:14Z</time>
      </trkpt>
      <trkpt lat="40.332633" lon="-5.398306">
        <ele>1136.38</ele>
        <time>2021-03-27T12:49:17Z</time>
      </trkpt>
      <trkpt lat="40.332675" lon="-5.39896">
        <ele>1138.0</ele>
        <time>2021-03-27T12:49:21Z</time>
      </trkpt>
      <trkpt lat="40.332646" lon="-5.399272">
        <ele>1137.8</ele>
        <time>2021-03-27T12:49:24Z</time>
      </trkpt>
      <trkpt lat="40.332547" lon="-5.399758">
        <ele>1138.96</ele>
        <time>2021-03-27T12:49:27Z</time>
      </trkpt>
      <trkpt lat="40.332429" lon="-5.400243">
        <ele>1140.87</ele>
        <time>2021-03-27T12:49:31Z</time>
      </trkpt>
      <trkpt lat="40.332014" lon="-5.401911">
        <ele>1140.09</ele>
        <time>2021-03-27T12:49:34Z</time>
      </trkpt>
      <trkpt lat="40.331599" lon="-5.403485">
        <ele>1144.78</ele>
        <time>2021-03-27T12:49:37Z</time>
      </trkpt>
      <trkpt lat="40.330529" lon="-5.407688">
        <ele>1147.71</ele>
        <time>2021-03-27T12:49:41Z</time>
      </trkpt>
      <trkpt lat="40.329327" lon="-5.412547">
        <ele>1154.89</ele>
        <time>2021-03-27T12:49:44Z</time>
      </trkpt>
      <trkpt lat="40.329093" lon="-5.413419">
        <ele>1156.51</ele>
        <time>2021-03-27T12:49:47Z</time>
      </trkpt>
      <trkpt lat="40.329052" lon="-5.413837">
        <ele>1155.52</ele>
        <time>2021-03-27T12:49:50Z</time>
      </trkpt>
      <trkpt lat="40.329052" lon="-5.414119">
        <ele>1156.24</ele>
        <time>2021-03-27T12:49:54Z</time>
      </trkpt>
      <trkpt lat="40.329072" lon="-5.414402">
        <ele>1156.34</ele>
        <time>2021-03-27T12:49:57Z</time>
      </trkpt>
      <trkpt lat="40.32915" lon="-5.414808">
        <ele>1158.02</ele>
        <time>2021-03-27T12:50:00Z</time>
      </trkpt>
      <trkpt lat="40.32929" lon="-5.415219">
        <ele>1157.74</ele>
        <time>2021-03-27T12:50:04Z</time>
      </trkpt>
      <trkpt lat="40.32954" lon="-5.415648">
        <ele>1154.55</ele>
        <time>2021-03-27T12:50:07Z</time>
      </trkpt>
      <trkpt lat="40.329652" lon="-5.415809">
        <ele>1153.4</ele>
        <time>2021-03-27T12:50:10Z</time>
      </trkpt>
      <trkpt lat="40.330816" lon="-5.417225">
        <ele>1143.1</ele>
        <time>2021-03-27T12:50:14Z</time>
      </trkpt>
      <trkpt lat="40.331059" lon="-5.417672">
        <ele>1138.33</ele>
        <time>2021-03-27T12:50:17Z</time>
      </trkpt>
      <trkpt lat="40.331221" lon="-5.418236">
        <ele>1138.71</ele>
        <time>2021-03-27T12:50:20Z</time>
      </trkpt>
      <trkpt lat="40.331275" lon="-5.418598">
        <ele>1139.93</ele>
        <time>2021-03-27T12:50:24Z</time>
      </trkpt>
      <trkpt lat="40.331253" lon="-5.419257">
        <ele>1140.55</ele>
        <time>2021-03-27T12:50:27Z</time>
      </trkpt>
      <trkpt lat="40.331044" lon="-5.420755">
        <ele>1132.04</ele>
        <time>2021-03-27T12:50:30Z</time>
      </trkpt>
      <trkpt lat="40.330908" lon="-5.421324">
        <ele>1130.27</ele>
        <time>2021-03-27T12:50:34Z</time>
      </trkpt>
      <trkpt lat="40.330463" lon="-5.422796">
        <ele>1127.35</ele>
        <time>2021-03-27T12:50:37Z</time>
      </trkpt>
      <trkpt lat="40.330405" lon="-5.423246">
        <ele>1127.1</ele>
        <time>2021-03-27T12:50:40Z</time>
      </trkpt>
      <trkpt lat="40.330402" lon="-5.423574">
        <ele>1127.13</ele>
        <time>2021-03-27T12:50:43Z</time>
      </trkpt>
      <trkpt lat="40.330463" lon="-5.424107">
        <ele>1127.56</ele>
        <time>2021-03-27T12:50:47Z</time>
      </trkpt>
      <trkpt lat="40.33059" lon="-5.424942">
        <ele>1124.79</ele>
        <time>2021-03-27T12:50:50Z</time>
      </trkpt>
      <trkpt lat="40.330755" lon="-5.425472">
        <ele>1124.17</ele>
        <time>2021-03-27T12:50:53Z</time>
      </trkpt>
      <trkpt lat="40.330916" lon="-5.425828">
        <ele>1122.74</ele>
        <time>2021-03-27T12:50:57Z</time>
      </trkpt>
      <trkpt lat="40.331081" lon="-5.426109">
        <ele>1120.02</ele>
        <time>2021-03-27T12:51:00Z</time>
      </trkpt>
      <trkpt lat="40.332161" lon="-5.427122">
        <ele>1111.57</ele>
        <time>2021-03-27T12:51:03Z</time>
      </trkpt>
      <trkpt lat="40.332341" lon="-5.427341">
        <ele>1110.51</ele>
        <time>2021-03-27T12:51:07Z</time>
      </trkpt>
      <trkpt lat="40.332484" lon="-5.427648">
        <ele>1109.76</ele>
        <time>2021-03-27T12:51:10Z</time>
      </trkpt>
      <trkpt lat="40.332537" lon="-5.427822">
        <ele>1109.78</ele>
        <time>2021-03-27T12:51:13Z</time>
      </trkpt>
      <trkpt lat="40.332622" lon="-5.428272">
        <ele>1111.29</ele>
        <time>2021-03-27T12:51:17Z</time>
      </trkpt>
      <trkpt lat="40.332604" lon="-5.428539">
        <ele>1111.4</ele>
        <time>2021-03-27T12:51:20Z</time>
      </trkpt>
      <trkpt lat="40.332559" lon="-5.428863">
        <ele>1113.77</ele>
        <time>2021-03-27T12:51:23Z</time>
      </trkpt>
      <trkpt lat="40.332484" lon="-5.429118">
        <ele>1116.13</ele>
        <time>2021-03-27T12:51:27Z</time>
      </trkpt>
      <trkpt lat="40.331796" lon="-5.430916">
        <ele>1118.88</ele>
        <time>2021-03-27T12:51:30Z</time>
      </trkpt>
      <trkpt lat="40.331694" lon="-5.431328">
        <ele>1117.32</ele>
        <time>2021-03-27T12:51:33Z</time>
      </trkpt>
      <trkpt lat="40.33167" lon="-5.43169">
        <ele>1116.89</ele>
        <time>2021-03-27T12:51:36Z</time>
      </trkpt>
      <trkpt lat="40.331697" lon="-5.432014">
        <ele>1115.42</ele>
        <time>2021-03-27T12:51:40Z</time>
      </trkpt>
      <trkpt lat="40.331813" lon="-5.432691">
        <ele>1116.56</ele>
        <time>2021-03-27T12:51:43Z</time>
      </trkpt>
      <trkpt lat="40.332048" lon="-5.433811">
        <ele>1114.81</ele>
        <time>2021-03-27T12:51:46Z</time>
      </trkpt>
      <trkpt lat="40.332074" lon="-5.434199">
        <ele>1114.1</ele>
        <time>2021-03-27T12:51:50Z</time>
      </trkpt>
      <trkpt lat="40.331876" lon="-5.443046">
        <ele>1105.99</ele>
        <time>2021-03-27T12:51:53Z</time>
      </trkpt>
      <trkpt lat="40.331801" lon="-5.444219">
        <ele>1101.29</ele>
        <time>2021-03-27T12:51:56Z</time>
      </trkpt>
      <trkpt lat="40.331663" lon="-5.44556">
        <ele>1101.94</ele>
        <time>2021-03-27T12:52:00Z</time>
      </trkpt>
      <trkpt lat="40.331597" lon="-5.44795">
        <ele>1104.28</ele>
        <time>2021-03-27T12:52:03Z</time>
      </trkpt>
      <trkpt lat="40.331761" lon="-5.448443">
        <ele>1108.84</ele>
        <time>2021-03-27T12:52:04Z</time>
      </trkpt>
      <trkpt lat="40.331765" lon="-5.448521">
        <ele>1108.57</ele>
        <time>2021-03-27T12:52:06Z</time>
      </trkpt>
      <trkpt lat="40.331744" lon="-5.448635">
        <ele>1107.58</ele>
        <time>2021-03-27T12:52:07Z</time>
      </trkpt>
      <trkpt lat="40.331668" lon="-5.448669">
        <ele>1105.82</ele>
        <time>2021-03-27T12:52:08Z</time>
      </trkpt>
      <trkpt lat="40.331547" lon="-5.448648">
        <ele>1103.27</ele>
        <time>2021-03-27T12:52:08Z</time>
      </trkpt>
      <trkpt lat="40.331481" lon="-5.448611">
        <ele>1102.0</ele>
        <time>2021-03-27T12:52:09Z</time>
      </trkpt>
      <trkpt lat="40.331434" lon="-5.448451">
        <ele>1101.07</ele>
        <time>2021-03-27T12:52:10Z</time>
      </trkpt>
      <trkpt lat="40.331397" lon="-5.448156">
        <ele>1098.98</ele>
        <time>2021-03-27T12:52:11Z</time>
      </trkpt>
      <trkpt lat="40.331431" lon="-5.447804">
        <ele>1099.85</ele>
        <time>2021-03-27T12:52:13Z</time>
      </trkpt>
      <trkpt lat="40.331434" lon="-5.44761">
        <ele>1100.07</ele>
        <time>2021-03-27T12:52:15Z</time>
      </trkpt>
      <trkpt lat="40.331201" lon="-5.446666">
        <ele>1091.94</ele>
        <time>2021-03-27T12:52:17Z</time>
      </trkpt>
      <trkpt lat="40.331154" lon="-5.44633">
        <ele>1092.27</ele>
        <time>2021-03-27T12:52:19Z</time>
      </trkpt>
      <trkpt lat="40.331056" lon="-5.445243">
        <ele>1087.23</ele>
        <time>2021-03-27T12:52:22Z</time>
      </trkpt>
      <trkpt lat="40.330962" lon="-5.444982">
        <ele>1086.88</ele>
        <time>2021-03-27T12:52:24Z</time>
      </trkpt>
      <trkpt lat="40.33056" lon="-5.444486">
        <ele>1082.92</ele>
        <time>2021-03-27T12:52:26Z</time>
      </trkpt>
      <trkpt lat="40.330132" lon="-5.44376">
        <ele>1083.56</ele>
        <time>2021-03-27T12:52:28Z</time>
      </trkpt>
      <trkpt lat="40.329763" lon="-5.442878">
        <ele>1083.65</ele>
        <time>2021-03-27T12:52:30Z</time>
      </trkpt>
      <trkpt lat="40.329352" lon="-5.441461">
        <ele>1077.81</ele>
        <time>2021-03-27T12:52:32Z</time>
      </trkpt>
      <trkpt lat="40.329269" lon="-5.4413">
        <ele>1078.06</ele>
        <time>2021-03-27T12:52:34Z</time>
      </trkpt>
      <trkpt lat="40.329217" lon="-5.441272">
        <ele>1077.78</ele>
        <time>2021-03-27T12:52:37Z</time>
      </trkpt>
      <trkpt lat="40.328601" lon="-5.44132">
        <ele>1080.07</ele>
        <time>2021-03-27T12:52:39Z</time>
      </trkpt>
      <trkpt lat="40.328263" lon="-5.441412">
        <ele>1081.63</ele>
        <time>2021-03-27T12:52:41Z</time>
      </trkpt>
      <trkpt lat="40.327547" lon="-5.441893">
        <ele>1079.84</ele>
        <time>2021-03-27T12:52:43Z</time>
      </trkpt>
      <trkpt lat="40.327377" lon="-5.441938">
        <ele>1079.53</ele>
        <time>2021-03-27T12:52:45Z</time>
      </trkpt>
      <trkpt lat="40.327223" lon="-5.441907">
        <ele>1078.87</ele>
        <time>2021-03-27T12:52:47Z</time>
      </trkpt>
      <trkpt lat="40.327099" lon="-5.441828">
        <ele>1078.32</ele>
        <time>2021-03-27T12:52:49Z</time>
      </trkpt>
      <trkpt lat="40.326598" lon="-5.441427">
        <ele>1077.24</ele>
        <time>2021-03-27T12:52:52Z</time>
      </trkpt>
      <trkpt lat="40.326441" lon="-5.441399">
        <ele>1077.81</ele>
        <time>2021-03-27T12:52:54Z</time>
      </trkpt>
      <trkpt lat="40.326182" lon="-5.441404">
        <ele>1079.49</ele>
        <time>2021-03-27T12:52:56Z</time>
      </trkpt>
      <trkpt lat="40.325163" lon="-5.441095">
        <ele>1082.02</ele>
        <time>2021-03-27T12:52:58Z</time>
      </trkpt>
      <trkpt lat="40.325001" lon="-5.441116">
        <ele>1082.0</ele>
        <time>2021-03-27T12:53:00Z</time>
      </trkpt>
      <trkpt lat="40.324524" lon="-5.441417">
        <ele>1083.27</ele>
        <time>2021-03-27T12:53:02Z</time>
      </trkpt>
      <trkpt lat="40.324359" lon="-5.441469">
        <ele>1086.04</ele>
        <time>2021-03-27T12:53:04Z</time>
      </trkpt>
      <trkpt lat="40.324255" lon="-5.441485">
        <ele>1088.21</ele>
        <time>2021-03-27T12:53:07Z</time>
      </trkpt>
      <trkpt lat="40.32415" lon="-5.441477">
        <ele>1090.34</ele>
        <time>2021-03-27T12:53:09Z</time>
      </trkpt>
      <trkpt lat="40.324019" lon="-5.441427">
        <ele>1093.12</ele>
        <time>2021-03-27T12:53:11Z</time>
      </trkpt>
      <trkpt lat="40.323899" lon="-5.441355">
        <ele>1095.77</ele>
        <time>2021-03-27T12:53:13Z</time>
      </trkpt>
      <trkpt lat="40.323367" lon="-5.440965">
        <ele>1099.82</ele>
        <time>2021-03-27T12:53:15Z</time>
      </trkpt>
      <trkpt lat="40.323188" lon="-5.440886">
        <ele>1101.04</ele>
        <time>2021-03-27T12:53:17Z</time>
      </trkpt>
      <trkpt lat="40.322995" lon="-5.440829">
        <ele>1102.64</ele>
        <time>2021-03-27T12:53:19Z</time>
      </trkpt>
      <trkpt lat="40.32275" lon="-5.440839">
        <ele>1104.96</ele>
        <time>2021-03-27T12:53:22Z</time>
      </trkpt>
      <trkpt lat="40.322415" lon="-5.440904">
        <ele>1105.36</ele>
        <time>2021-03-27T12:53:24Z</time>
      </trkpt>
      <trkpt lat="40.322042" lon="-5.441003">
        <ele>1108.08</ele>
        <time>2021-03-27T12:53:26Z</time>
      </trkpt>
      <trkpt lat="40.32164" lon="-5.441175">
        <ele>1112.29</ele>
        <time>2021-03-27T12:53:28Z</time>
      </trkpt>
      <trkpt lat="40.321343" lon="-5.441152">
        <ele>1115.19</ele>
        <time>2021-03-27T12:53:30Z</time>
      </trkpt>
      <trkpt lat="40.320715" lon="-5.440933">
        <ele>1118.48</ele>
        <time>2021-03-27T12:53:32Z</time>
      </trkpt>
      <trkpt lat="40.320569" lon="-5.440916">
        <ele>1119.87</ele>
        <time>2021-03-27T12:53:34Z</time>
      </trkpt>
      <trkpt lat="40.3204" lon="-5.440957">
        <ele>1122.18</ele>
        <time>2021-03-27T12:53:37Z</time>
      </trkpt>
      <trkpt lat="40.319401" lon="-5.441683">
        <ele>1130.03</ele>
        <time>2021-03-27T12:53:39Z</time>
      </trkpt>
      <trkpt lat="40.319186" lon="-5.441767">
        <ele>1129.87</ele>
        <time>2021-03-27T12:53:41Z</time>
      </trkpt>
      <trkpt lat="40.319002" lon="-5.44174">
        <ele>1129.46</ele>
        <time>2021-03-27T12:53:43Z</time>
      </trkpt>
      <trkpt lat="40.318871" lon="-5.441677">
        <ele>1129.78</ele>
        <time>2021-03-27T12:53:45Z</time>
      </trkpt>
      <trkpt lat="40.318719" lon="-5.44154">
        <ele>1130.57</ele>
        <time>2021-03-27T12:53:47Z</time>
      </trkpt>
      <trkpt lat="40.31842" lon="-5.441129">
        <ele>1132.93</ele>
        <time>2021-03-27T12:53:49Z</time>
      </trkpt>
      <trkpt lat="40.318278" lon="-5.440983">
        <ele>1134.03</ele>
        <time>2021-03-27T12:53:52Z</time>
      </trkpt>
      <trkpt lat="40.318035" lon="-5.440847">
        <ele>1135.02</ele>
        <time>2021-03-27T12:53:54Z</time>
      </trkpt>
      <trkpt lat="40.317901" lon="-5.440837">
        <ele>1135.53</ele>
        <time>2021-03-27T12:53:56Z</time>
      </trkpt>
      <trkpt lat="40.317347" lon="-5.440895">
        <ele>1139.1</ele>
        <time>2021-03-27T12:53:58Z</time>
      </trkpt>
      <trkpt lat="40.317165" lon="-5.440946">
        <ele>1140.2</ele>
        <time>2021-03-27T12:54:00Z</time>
      </trkpt>
      <trkpt lat="40.316765" lon="-5.441105">
        <ele>1141.0</ele>
        <time>2021-03-27T12:54:02Z</time>
      </trkpt>
      <trkpt lat="40.316812" lon="-5.441402">
        <ele>1141.02</ele>
        <time>2021-03-27T12:54:04Z</time>
      </trkpt>
      <trkpt lat="40.316831" lon="-5.441646">
        <ele>1141.38</ele>
        <time>2021-03-27T12:54:06Z</time>
      </trkpt>
      <trkpt lat="40.31683" lon="-5.441936">
        <ele>1141.41</ele>
        <time>2021-03-27T12:54:08Z</time>
      </trkpt>
      <trkpt lat="40.316852" lon="-5.442277">
        <ele>1141.6</ele>
        <time>2021-03-27T12:54:10Z</time>
      </trkpt>
      <trkpt lat="40.316811" lon="-5.442632">
        <ele>1141.22</ele>
        <time>2021-03-27T12:54:12Z</time>
      </trkpt>
      <trkpt lat="40.316768" lon="-5.442722">
        <ele>1141.22</ele>
        <time>2021-03-27T12:54:14Z</time>
      </trkpt>
      <trkpt lat="40.316695" lon="-5.442748">
        <ele>1141.9</ele>
        <time>2021-03-27T12:54:16Z</time>
      </trkpt>
      <trkpt lat="40.316646" lon="-5.44318">
        <ele>1139.18</ele>
        <time>2021-03-27T12:54:18Z</time>
      </trkpt>
      <trkpt lat="40.316598" lon="-5.443372">
        <ele>1137.48</ele>
        <time>2021-03-27T12:54:19Z</time>
      </trkpt>
      <trkpt lat="40.316539" lon="-5.44352">
        <ele>1135.62</ele>
        <time>2021-03-27T12:54:21Z</time>
      </trkpt>
      <trkpt lat="40.316298" lon="-5.443809">
        <ele>1133.9</ele>
        <time>2021-03-27T12:54:23Z</time>
      </trkpt>
      <trkpt lat="40.316202" lon="-5.443877">
        <ele>1133.76</ele>
        <time>2021-03-27T12:54:25Z</time>
      </trkpt>
      <trkpt lat="40.316122" lon="-5.444067">
        <ele>1133.94</ele>
        <time>2021-03-27T12:54:27Z</time>
      </trkpt>
      <trkpt lat="40.316121" lon="-5.444229">
        <ele>1134.14</ele>
        <time>2021-03-27T12:54:28Z</time>
      </trkpt>
      <trkpt lat="40.316149" lon="-5.444287">
        <ele>1134.1</ele>
        <time>2021-03-27T12:54:30Z</time>
      </trkpt>
      <trkpt lat="40.316283" lon="-5.444289">
        <ele>1132.93</ele>
        <time>2021-03-27T12:54:33Z</time>
      </trkpt>
      <trkpt lat="40.316402" lon="-5.444366">
        <ele>1131.87</ele>
        <time>2021-03-27T12:54:35Z</time>
      </trkpt>
      <trkpt lat="40.316436" lon="-5.44441">
        <ele>1131.51</ele>
        <time>2021-03-27T12:54:38Z</time>
      </trkpt>
      <trkpt lat="40.316476" lon="-5.444538">
        <ele>1130.95</ele>
        <time>2021-03-27T12:54:40Z</time>
      </trkpt>
      <trkpt lat="40.316494" lon="-5.444779">
        <ele>1130.41</ele>
        <time>2021-03-27T12:54:43Z</time>
      </trkpt>
      <trkpt lat="40.316622" lon="-5.445356">
        <ele>1127.88</ele>
        <time>2021-03-27T12:54:45Z</time>
      </trkpt>
      <trkpt lat="40.316685" lon="-5.445483">
        <ele>1127.54</ele>
        <time>2021-03-27T12:54:48Z</time>
      </trkpt>
      <trkpt lat="40.31689" lon="-5.445782">
        <ele>1127.06</ele>
        <time>2021-03-27T12:54:50Z</time>
      </trkpt>
      <trkpt lat="40.316944" lon="-5.445897">
        <ele>1127.23</ele>
        <time>2021-03-27T12:54:53Z</time>
      </trkpt>
      <trkpt lat="40.316972" lon="-5.445997">
        <ele>1127.35</ele>
        <time>2021-03-27T12:54:55Z</time>
      </trkpt>
      <trkpt lat="40.31697" lon="-5.446137">
        <ele>1127.91</ele>
        <time>2021-03-27T12:54:58Z</time>
      </trkpt>
      <trkpt lat="40.316904" lon="-5.44644">
        <ele>1129.54</ele>
        <time>2021-03-27T12:55:00Z</time>
      </trkpt>
      <trkpt lat="40.316893" lon="-5.446676">
        <ele>1131.44</ele>
        <time>2021-03-27T12:55:03Z</time>
      </trkpt>
      <trkpt lat="40.316925" lon="-5.446772">
        <ele>1131.9</ele>
        <time>2021-03-27T12:55:05Z</time>
      </trkpt>
      <trkpt lat="40.317072" lon="-5.447022">
        <ele>1133.12</ele>
        <time>2021-03-27T12:55:08Z</time>
      </trkpt>
      <trkpt lat="40.317287" lon="-5.44769">
        <ele>1134.98</ele>
        <time>2021-03-27T12:55:10Z</time>
      </trkpt>
      <trkpt lat="40.317665" lon="-5.448355">
        <ele>1133.87</ele>
        <time>2021-03-27T12:55:12Z</time>
      </trkpt>
      <trkpt lat="40.318202" lon="-5.449458">
        <ele>1132.52</ele>
        <time>2021-03-27T12:55:15Z</time>
      </trkpt>
      <trkpt lat="40.318678" lon="-5.450064">
        <ele>1133.27</ele>
        <time>2021-03-27T12:55:17Z</time>
      </trkpt>
      <trkpt lat="40.318947" lon="-5.450713">
        <ele>1128.13</ele>
        <time>2021-03-27T12:55:20Z</time>
      </trkpt>
      <trkpt lat="40.318979" lon="-5.450843">
        <ele>1127.69</ele>
        <time>2021-03-27T12:55:22Z</time>
      </trkpt>
      <trkpt lat="40.31899" lon="-5.451313">
        <ele>1128.1</ele>
        <time>2021-03-27T12:55:25Z</time>
      </trkpt>
      <trkpt lat="40.318968" lon="-5.451638">
        <ele>1128.32</ele>
        <time>2021-03-27T12:55:27Z</time>
      </trkpt>
      <trkpt lat="40.318915" lon="-5.451938">
        <ele>1128.37</ele>
        <time>2021-03-27T12:55:30Z</time>
      </trkpt>
      <trkpt lat="40.318623" lon="-5.452775">
        <ele>1132.87</ele>
        <time>2021-03-27T12:55:32Z</time>
      </trkpt>
      <trkpt lat="40.318624" lon="-5.452877">
        <ele>1133.91</ele>
        <time>2021-03-27T12:55:35Z</time>
      </trkpt>
      <trkpt lat="40.318648" lon="-5.452966">
        <ele>1134.55</ele>
        <time>2021-03-27T12:55:37Z</time>
      </trkpt>
      <trkpt lat="40.318818" lon="-5.453373">
        <ele>1133.52</ele>
        <time>2021-03-27T12:55:40Z</time>
      </trkpt>
      <trkpt lat="40.318859" lon="-5.453544">
        <ele>1132.63</ele>
        <time>2021-03-27T12:55:42Z</time>
      </trkpt>
      <trkpt lat="40.318876" lon="-5.453746">
        <ele>1132.74</ele>
        <time>2021-03-27T12:55:45Z</time>
      </trkpt>
      <trkpt lat="40.31888" lon="-5.453993">
        <ele>1133.53</ele>
        <time>2021-03-27T12:55:47Z</time>
      </trkpt>
      <trkpt lat="40.318793" lon="-5.456068">
        <ele>1133.67</ele>
        <time>2021-03-27T12:55:50Z</time>
      </trkpt>
      <trkpt lat="40.318774" lon="-5.456335">
        <ele>1134.54</ele>
        <time>2021-03-27T12:55:52Z</time>
      </trkpt>
      <trkpt lat="40.318708" lon="-5.456642">
        <ele>1136.19</ele>
        <time>2021-03-27T12:55:55Z</time>
      </trkpt>
      <trkpt lat="40.318698" lon="-5.456823">
        <ele>1136.99</ele>
        <time>2021-03-27T12:55:57Z</time>
      </trkpt>
      <trkpt lat="40.318708" lon="-5.456977">
        <ele>1137.41</ele>
        <time>2021-03-27T12:56:00Z</time>
      </trkpt>
      <trkpt lat="40.318795" lon="-5.457509">
        <ele>1139.01</ele>
        <time>2021-03-27T12:56:02Z</time>
      </trkpt>
      <trkpt lat="40.318847" lon="-5.457721">
        <ele>1138.45</ele>
        <time>2021-03-27T12:56:05Z</time>
      </trkpt>
      <trkpt lat="40.319557" lon="-5.459648">
        <ele>1125.34</ele>
        <time>2021-03-27T12:56:07Z</time>
      </trkpt>
      <trkpt lat="40.319633" lon="-5.459891">
        <ele>1123.19</ele>
        <time>2021-03-27T12:56:10Z</time>
      </trkpt>
      <trkpt lat="40.319849" lon="-5.460868">
        <ele>1119.81</ele>
        <time>2021-03-27T12:56:12Z</time>
      </trkpt>
      <trkpt lat="40.319902" lon="-5.461058">
        <ele>1118.45</ele>
        <time>2021-03-27T12:56:15Z</time>
      </trkpt>
      <trkpt lat="40.3201" lon="-5.461497">
        <ele>1114.36</ele>
        <time>2021-03-27T12:56:17Z</time>
      </trkpt>
      <trkpt lat="40.32014" lon="-5.461618">
        <ele>1113.48</ele>
        <time>2021-03-27T12:56:20Z</time>
      </trkpt>
      <trkpt lat="40.320154" lon="-5.462047">
        <ele>1113.78</ele>
        <time>2021-03-27T12:56:22Z</time>
      </trkpt>
      <trkpt lat="40.320177" lon="-5.462156">
        <ele>1113.44</ele>
        <time>2021-03-27T12:56:25Z</time>
      </trkpt>
      <trkpt lat="40.320289" lon="-5.46231">
        <ele>1111.74</ele>
        <time>2021-03-27T12:56:27Z</time>
      </trkpt>
      <trkpt lat="40.320384" lon="-5.462368">
        <ele>1109.49</ele>
        <time>2021-03-27T12:56:30Z</time>
      </trkpt>
      <trkpt lat="40.321263" lon="-5.462651">
        <ele>1094.81</ele>
        <time>2021-03-27T12:56:32Z</time>
      </trkpt>
      <trkpt lat="40.321416" lon="-5.462721">
        <ele>1093.01</ele>
        <time>2021-03-27T12:56:35Z</time>
      </trkpt>
      <trkpt lat="40.321605" lon="-5.462853">
        <ele>1091.66</ele>
        <time>2021-03-27T12:56:37Z</time>
      </trkpt>
      <trkpt lat="40.321789" lon="-5.463119">
        <ele>1090.11</ele>
        <time>2021-03-27T12:56:40Z</time>
      </trkpt>
      <trkpt lat="40.322164" lon="-5.463755">
        <ele>1085.1</ele>
        <time>2021-03-27T12:56:42Z</time>
      </trkpt>
      <trkpt lat="40.322319" lon="-5.464053">
        <ele>1084.04</ele>
        <time>2021-03-27T12:56:45Z</time>
      </trkpt>
      <trkpt lat="40.322418" lon="-5.464601">
        <ele>1082.47</ele>
        <time>2021-03-27T12:56:47Z</time>
      </trkpt>
      <trkpt lat="40.322681" lon="-5.465165">
        <ele>1081.25</ele>
        <time>2021-03-27T12:56:50Z</time>
      </trkpt>
      <trkpt lat="40.323167" lon="-5.46699">
        <ele>1080.32</ele>
        <time>2021-03-27T12:56:52Z</time>
      </trkpt>
      <trkpt lat="40.323302" lon="-5.467395">
        <ele>1079.18</ele>
        <time>2021-03-27T12:56:55Z</time>
      </trkpt>
      <trkpt lat="40.323319" lon="-5.46771">
        <ele>1080.74</ele>
        <time>2021-03-27T12:56:57Z</time>
      </trkpt>
      <trkpt lat="40.323042" lon="-5.469112">
        <ele>1087.88</ele>
        <time>2021-03-27T12:57:00Z</time>
      </trkpt>
      <trkpt lat="40.323013" lon="-5.469815">
        <ele>1093.39</ele>
        <time>2021-03-27T12:57:02Z</time>
      </trkpt>
      <trkpt lat="40.322852" lon="-5.470449">
        <ele>1096.46</ele>
        <time>2021-03-27T12:57:05Z</time>
      </trkpt>
      <trkpt lat="40.322488" lon="-5.471486">
        <ele>1099.36</ele>
        <time>2021-03-27T12:57:07Z</time>
      </trkpt>
      <trkpt lat="40.322379" lon="-5.471696">
        <ele>1099.5</ele>
        <time>2021-03-27T12:57:10Z</time>
      </trkpt>
      <trkpt lat="40.32224" lon="-5.471881">
        <ele>1099.01</ele>
        <time>2021-03-27T12:57:12Z</time>
      </trkpt>
      <trkpt lat="40.322095" lon="-5.471995">
        <ele>1098.18</ele>
        <time>2021-03-27T12:57:15Z</time>
      </trkpt>
      <trkpt lat="40.321362" lon="-5.472386">
        <ele>1096.22</ele>
        <time>2021-03-27T12:57:17Z</time>
      </trkpt>
      <trkpt lat="40.32124" lon="-5.472576">
        <ele>1097.4</ele>
        <time>2021-03-27T12:57:20Z</time>
      </trkpt>
      <trkpt lat="40.321073" lon="-5.473119">
        <ele>1098.17</ele>
        <time>2021-03-27T12:57:22Z</time>
      </trkpt>
      <trkpt lat="40.320856" lon="-5.473434">
        <ele>1097.67</ele>
        <time>2021-03-27T12:57:25Z</time>
      </trkpt>
      <trkpt lat="40.320694" lon="-5.473602">
        <ele>1097.12</ele>
        <time>2021-03-27T12:57:27Z</time>
      </trkpt>
      <trkpt lat="40.320523" lon="-5.473697">
        <ele>1097.34</ele>
        <time>2021-03-27T12:57:30Z</time>
      </trkpt>
      <trkpt lat="40.320176" lon="-5.473813">
        <ele>1098.0</ele>
        <time>2021-03-27T12:57:32Z</time>
      </trkpt>
      <trkpt lat="40.319993" lon="-5.473903">
        <ele>1098.12</ele>
        <time>2021-03-27T12:57:35Z</time>
      </trkpt>
      <trkpt lat="40.319867" lon="-5.474056">
        <ele>1100.1</ele>
        <time>2021-03-27T12:57:37Z</time>
      </trkpt>
      <trkpt lat="40.31977" lon="-5.474262">
        <ele>1101.59</ele>
        <time>2021-03-27T12:57:40Z</time>
      </trkpt>
      <trkpt lat="40.31956" lon="-5.474504">
        <ele>1103.83</ele>
        <time>2021-03-27T12:57:42Z</time>
      </trkpt>
      <trkpt lat="40.318943" lon="-5.475038">
        <ele>1104.17</ele>
        <time>2021-03-27T12:57:45Z</time>
      </trkpt>
      <trkpt lat="40.318485" lon="-5.475582">
        <ele>1105.47</ele>
        <time>2021-03-27T12:57:47Z</time>
      </trkpt>
      <trkpt lat="40.317735" lon="-5.476579">
        <ele>1105.1</ele>
        <time>2021-03-27T12:57:49Z</time>
      </trkpt>
      <trkpt lat="40.316801" lon="-5.477713">
        <ele>1110.67</ele>
        <time>2021-03-27T12:57:52Z</time>
      </trkpt>
      <trkpt lat="40.316432" lon="-5.478571">
        <ele>1111.39</ele>
        <time>2021-03-27T12:57:54Z</time>
      </trkpt>
      <trkpt lat="40.315913" lon="-5.479387">
        <ele>1116.01</ele>
        <time>2021-03-27T12:57:57Z</time>
      </trkpt>
      <trkpt lat="40.31536" lon="-5.480491">
        <ele>1119.75</ele>
        <time>2021-03-27T12:57:59Z</time>
      </trkpt>
      <trkpt lat="40.315024" lon="-5.481094">
        <ele>1125.64</ele>
        <time>2021-03-27T12:58:02Z</time>
      </trkpt>
      <trkpt lat="40.314955" lon="-5.48128">
        <ele>1127.05</ele>
        <time>2021-03-27T12:58:04Z</time>
      </trkpt>
      <trkpt lat="40.314963" lon="-5.481529">
        <ele>1128.21</ele>
        <time>2021-03-27T12:58:07Z</time>
      </trkpt>
      <trkpt lat="40.31495" lon="-5.481615">
        <ele>1128.84</ele>
        <time>2021-03-27T12:58:09Z</time>
      </trkpt>
      <trkpt lat="40.314862" lon="-5.481807">
        <ele>1130.51</ele>
        <time>2021-03-27T12:58:12Z</time>
      </trkpt>
      <trkpt lat="40.314786" lon="-5.482225">
        <ele>1133.01</ele>
        <time>2021-03-27T12:58:14Z</time>
      </trkpt>
      <trkpt lat="40.31461" lon="-5.482659">
        <ele>1133.26</ele>
        <time>2021-03-27T12:58:17Z</time>
      </trkpt>
      <trkpt lat="40.314396" lon="-5.483379">
        <ele>1129.41</ele>
        <time>2021-03-27T12:58:19Z</time>
      </trkpt>
      <trkpt lat="40.314247" lon="-5.48384">
        <ele>1127.44</ele>
        <time>2021-03-27T12:58:22Z</time>
      </trkpt>
      <trkpt lat="40.314199" lon="-5.483946">
        <ele>1126.94</ele>
        <time>2021-03-27T12:58:24Z</time>
      </trkpt>
      <trkpt lat="40.314109" lon="-5.484046">
        <ele>1127.22</ele>
        <time>2021-03-27T12:58:27Z</time>
      </trkpt>
      <trkpt lat="40.313551" lon="-5.484231">
        <ele>1129.79</ele>
        <time>2021-03-27T12:58:29Z</time>
      </trkpt>
      <trkpt lat="40.3134" lon="-5.484383">
        <ele>1129.77</ele>
        <time>2021-03-27T12:58:32Z</time>
      </trkpt>
      <trkpt lat="40.313245" lon="-5.484657">
        <ele>1129.7</ele>
        <time>2021-03-27T12:58:34Z</time>
      </trkpt>
      <trkpt lat="40.313129" lon="-5.484916">
        <ele>1128.52</ele>
        <time>2021-03-27T12:58:37Z</time>
      </trkpt>
      <trkpt lat="40.313068" lon="-5.485175">
        <ele>1127.34</ele>
        <time>2021-03-27T12:58:39Z</time>
      </trkpt>
      <trkpt lat="40.312966" lon="-5.485757">
        <ele>1127.5</ele>
        <time>2021-03-27T12:58:42Z</time>
      </trkpt>
      <trkpt lat="40.312568" lon="-5.486836">
        <ele>1129.03</ele>
        <time>2021-03-27T12:58:44Z</time>
      </trkpt>
      <trkpt lat="40.312341" lon="-5.487172">
        <ele>1129.96</ele>
        <time>2021-03-27T12:58:47Z</time>
      </trkpt>
      <trkpt lat="40.311895" lon="-5.487603">
        <ele>1127.8</ele>
        <time>2021-03-27T12:58:49Z</time>
      </trkpt>
      <trkpt lat="40.311273" lon="-5.488435">
        <ele>1129.14</ele>
        <time>2021-03-27T12:58:52Z</time>
      </trkpt>
      <trkpt lat="40.311091" lon="-5.489241">
        <ele>1129.15</ele>
        <time>2021-03-27T12:58:54Z</time>
      </trkpt>
      <trkpt lat="40.3107" lon="-5.49029">
        <ele>1136.92</ele>
        <time>2021-03-27T12:58:57Z</time>
      </trkpt>
      <trkpt lat="40.31044" lon="-5.491476">
        <ele>1139.68</ele>
        <time>2021-03-27T12:58:59Z</time>
      </trkpt>
      <trkpt lat="40.310447" lon="-5.492933">
        <ele>1132.61</ele>
        <time>2021-03-27T12:59:02Z</time>
      </trkpt>
      <trkpt lat="40.310402" lon="-5.493832">
        <ele>1129.55</ele>
        <time>2021-03-27T12:59:04Z</time>
      </trkpt>
      <trkpt lat="40.310214" lon="-5.495484">
        <ele>1116.93</ele>
        <time>2021-03-27T12:59:07Z</time>
      </trkpt>
      <trkpt lat="40.309994" lon="-5.497073">
        <ele>1103.97</ele>
        <time>2021-03-27T12:59:09Z</time>
      </trkpt>
      <trkpt lat="40.310019" lon="-5.497525">
        <ele>1100.07</ele>
        <time>2021-03-27T12:59:12Z</time>
      </trkpt>
      <trkpt lat="40.31025" lon="-5.498536">
        <ele>1093.49</ele>
        <time>2021-03-27T12:59:14Z</time>
      </trkpt>
      <trkpt lat="40.310313" lon="-5.49873">
        <ele>1092.1</ele>
        <time>2021-03-27T12:59:17Z</time>
      </trkpt>
      <trkpt lat="40.310415" lon="-5.498944">
        <ele>1090.89</ele>
        <time>2021-03-27T12:59:19Z</time>
      </trkpt>
      <trkpt lat="40.310794" lon="-5.499372">
        <ele>1086.78</ele>
        <time>2021-03-27T12:59:22Z</time>
      </trkpt>
      <trkpt lat="40.311381" lon="-5.499913">
        <ele>1080.99</ele>
        <time>2021-03-27T12:59:24Z</time>
      </trkpt>
      <trkpt lat="40.31144" lon="-5.500001">
        <ele>1079.8</ele>
        <time>2021-03-27T12:59:27Z</time>
      </trkpt>
      <trkpt lat="40.311472" lon="-5.500132">
        <ele>1078.13</ele>
        <time>2021-03-27T12:59:29Z</time>
      </trkpt>
      <trkpt lat="40.311463" lon="-5.500328">
        <ele>1076.02</ele>
        <time>2021-03-27T12:59:32Z</time>
      </trkpt>
      <trkpt lat="40.311386" lon="-5.500493">
        <ele>1074.69</ele>
        <time>2021-03-27T12:59:34Z</time>
      </trkpt>
      <trkpt lat="40.311296" lon="-5.500602">
        <ele>1074.33</ele>
        <time>2021-03-27T12:59:37Z</time>
      </trkpt>
      <trkpt lat="40.310951" lon="-5.500929">
        <ele>1074.23</ele>
        <time>2021-03-27T12:59:39Z</time>
      </trkpt>
      <trkpt lat="40.310906" lon="-5.501049">
        <ele>1073.96</ele>
        <time>2021-03-27T12:59:42Z</time>
      </trkpt>
      <trkpt lat="40.310918" lon="-5.501279">
        <ele>1073.28</ele>
        <time>2021-03-27T12:59:44Z</time>
      </trkpt>
      <trkpt lat="40.31122" lon="-5.502168">
        <ele>1070.73</ele>
        <time>2021-03-27T12:59:47Z</time>
      </trkpt>
      <trkpt lat="40.311371" lon="-5.502554">
        <ele>1068.88</ele>
        <time>2021-03-27T12:59:49Z</time>
      </trkpt>
      <trkpt lat="40.311564" lon="-5.502878">
        <ele>1067.64</ele>
        <time>2021-03-27T12:59:52Z</time>
      </trkpt>
      <trkpt lat="40.311596" lon="-5.502986">
        <ele>1067.25</ele>
        <time>2021-03-27T12:59:54Z</time>
      </trkpt>
      <trkpt lat="40.311603" lon="-5.503087">
        <ele>1066.8</ele>
        <time>2021-03-27T12:59:57Z</time>
      </trkpt>
      <trkpt lat="40.31156" lon="-5.503144">
        <ele>1066.48</ele>
        <time>2021-03-27T13:00:01Z</time>
      </trkpt>
      <trkpt lat="40.31145" lon="-5.503191">
        <ele>1066.41</ele>
        <time>2021-03-27T13:00:05Z</time>
      </trkpt>
      <trkpt lat="40.311086" lon="-5.503564">
        <ele>1066.35</ele>
        <time>2021-03-27T13:00:10Z</time>
      </trkpt>
      <trkpt lat="40.310738" lon="-5.503857">
        <ele>1068.68</ele>
        <time>2021-03-27T13:00:14Z</time>
      </trkpt>
      <trkpt lat="40.310705" lon="-5.503946">
        <ele>1069.32</ele>
        <time>2021-03-27T13:00:19Z</time>
      </trkpt>
      <trkpt lat="40.310717" lon="-5.504041">
        <ele>1069.84</ele>
        <time>2021-03-27T13:00:23Z</time>
      </trkpt>
      <trkpt lat="40.310943" lon="-5.504446">
        <ele>1067.63</ele>
        <time>2021-03-27T13:00:27Z</time>
      </trkpt>
      <trkpt lat="40.311043" lon="-5.504746">
        <ele>1065.36</ele>
        <time>2021-03-27T13:00:32Z</time>
      </trkpt>
      <trkpt lat="40.311058" lon="-5.505003">
        <ele>1063.92</ele>
        <time>2021-03-27T13:00:36Z</time>
      </trkpt>
      <trkpt lat="40.311044" lon="-5.505296">
        <ele>1061.62</ele>
        <time>2021-03-27T13:00:40Z</time>
      </trkpt>
      <trkpt lat="40.310882" lon="-5.505845">
        <ele>1059.56</ele>
        <time>2021-03-27T13:00:45Z</time>
      </trkpt>
      <trkpt lat="40.310439" lon="-5.506935">
        <ele>1055.01</ele>
        <time>2021-03-27T13:00:49Z</time>
      </trkpt>
      <trkpt lat="40.310366" lon="-5.507301">
        <ele>1056.19</ele>
        <time>2021-03-27T13:00:54Z</time>
      </trkpt>
      <trkpt lat="40.31037" lon="-5.508251">
        <ele>1051.16</ele>
        <time>2021-03-27T13:00:58Z</time>
      </trkpt>
      <trkpt lat="40.310283" lon="-5.508449">
        <ele>1050.97</ele>
        <time>2021-03-27T13:01:02Z</time>
      </trkpt>
      <trkpt lat="40.309606" lon="-5.509585">
        <ele>1054.0</ele>
        <time>2021-03-27T13:01:07Z</time>
      </trkpt>
      <trkpt lat="40.309289" lon="-5.510176">
        <ele>1053.2</ele>
        <time>2021-03-27T13:01:11Z</time>
      </trkpt>
      <trkpt lat="40.308099" lon="-5.511118">
        <ele>1053.98</ele>
        <time>2021-03-27T13:01:15Z</time>
      </trkpt>
      <trkpt lat="40.307501" lon="-5.511728">
        <ele>1055.0</ele>
        <time>2021-03-27T13:01:20Z</time>
      </trkpt>
      <trkpt lat="40.307308" lon="-5.511883">
        <ele>1056.38</ele>
        <time>2021-03-27T13:01:24Z</time>
      </trkpt>
      <trkpt lat="40.307182" lon="-5.51192">
        <ele>1057.29</ele>
        <time>2021-03-27T13:01:29Z</time>
      </trkpt>
      <trkpt lat="40.307164" lon="-5.512032">
        <ele>1057.1</ele>
        <time>2021-03-27T13:01:30Z</time>
      </trkpt>
      <trkpt lat="40.307093" lon="-5.512097">
        <ele>1057.38</ele>
        <time>2021-03-27T13:01:31Z</time>
      </trkpt>
      <trkpt lat="40.307441" lon="-5.513141">
        <ele>1054.01</ele>
        <time>2021-03-27T13:01:33Z</time>
      </trkpt>
      <trkpt lat="40.307543" lon="-5.513359">
        <ele>1057.63</ele>
        <time>2021-03-27T13:01:34Z</time>
      </trkpt>
      <trkpt lat="40.30764" lon="-5.513407">
        <ele>1061.24</ele>
        <time>2021-03-27T13:01:36Z</time>
      </trkpt>
      <trkpt lat="40.307705" lon="-5.513407">
        <ele>1063.16</ele>
        <time>2021-03-27T13:01:37Z</time>
      </trkpt>
      <trkpt lat="40.307764" lon="-5.513367">
        <ele>1064.2</ele>
        <time>2021-03-27T13:01:38Z</time>
      </trkpt>
      <trkpt lat="40.307938" lon="-5.513187">
        <ele>1065.89</ele>
        <time>2021-03-27T13:01:40Z</time>
      </trkpt>
      <trkpt lat="40.308095" lon="-5.513101">
        <ele>1067.39</ele>
        <time>2021-03-27T13:01:41Z</time>
      </trkpt>
      <trkpt lat="40.308475" lon="-5.512983">
        <ele>1069.35</ele>
        <time>2021-03-27T13:01:43Z</time>
      </trkpt>
      <trkpt lat="40.308366" lon="-5.513141">
        <ele>1070.93</ele>
        <time>2021-03-27T13:01:46Z</time>
      </trkpt>
      <trkpt lat="40.308011" lon="-5.513356">
        <ele>1071.0</ele>
        <time>2021-03-27T13:01:49Z</time>
      </trkpt>
      <trkpt lat="40.307916" lon="-5.513521">
        <ele>1070.68</ele>
        <time>2021-03-27T13:01:52Z</time>
      </trkpt>
      <trkpt lat="40.307805" lon="-5.513833">
        <ele>1071.18</ele>
        <time>2021-03-27T13:01:55Z</time>
      </trkpt>
      <trkpt lat="40.307476" lon="-5.514565">
        <ele>1078.08</ele>
        <time>2021-03-27T13:01:58Z</time>
      </trkpt>
      <trkpt lat="40.307365" lon="-5.51489">
        <ele>1080.27</ele>
        <time>2021-03-27T13:02:01Z</time>
      </trkpt>
      <trkpt lat="40.307251" lon="-5.515747">
        <ele>1081.62</ele>
        <time>2021-03-27T13:02:05Z</time>
      </trkpt>
      <trkpt lat="40.306777" lon="-5.517589">
        <ele>1090.97</ele>
        <time>2021-03-27T13:02:08Z</time>
      </trkpt>
      <trkpt lat="40.30678" lon="-5.518352">
        <ele>1095.34</ele>
        <time>2021-03-27T13:02:11Z</time>
      </trkpt>
      <trkpt lat="40.306646" lon="-5.519485">
        <ele>1099.06</ele>
        <time>2021-03-27T13:02:14Z</time>
      </trkpt>
      <trkpt lat="40.306528" lon="-5.520249">
        <ele>1103.69</ele>
        <time>2021-03-27T13:02:17Z</time>
      </trkpt>
      <trkpt lat="40.30641" lon="-5.520668">
        <ele>1105.05</ele>
        <time>2021-03-27T13:02:20Z</time>
      </trkpt>
      <trkpt lat="40.306163" lon="-5.52121">
        <ele>1101.75</ele>
        <time>2021-03-27T13:02:24Z</time>
      </trkpt>
      <trkpt lat="40.305988" lon="-5.521693">
        <ele>1100.65</ele>
        <time>2021-03-27T13:02:27Z</time>
      </trkpt>
      <trkpt lat="40.305381" lon="-5.523013">
        <ele>1098.02</ele>
        <time>2021-03-27T13:02:30Z</time>
      </trkpt>
      <trkpt lat="40.305081" lon="-5.523587">
        <ele>1097.37</ele>
        <time>2021-03-27T13:02:33Z</time>
      </trkpt>
      <trkpt lat="40.305023" lon="-5.523794">
        <ele>1096.52</ele>
        <time>2021-03-27T13:02:36Z</time>
      </trkpt>
      <trkpt lat="40.304966" lon="-5.524112">
        <ele>1097.11</ele>
        <time>2021-03-27T13:02:39Z</time>
      </trkpt>
      <trkpt lat="40.3049" lon="-5.5243">
        <ele>1097.84</ele>
        <time>2021-03-27T13:02:43Z</time>
      </trkpt>
      <trkpt lat="40.304687" lon="-5.524584">
        <ele>1096.06</ele>
        <time>2021-03-27T13:02:46Z</time>
      </trkpt>
      <trkpt lat="40.304295" lon="-5.525427">
        <ele>1097.92</ele>
        <time>2021-03-27T13:02:49Z</time>
      </trkpt>
      <trkpt lat="40.304101" lon="-5.526167">
        <ele>1101.26</ele>
        <time>2021-03-27T13:02:52Z</time>
      </trkpt>
      <trkpt lat="40.303904" lon="-5.527017">
        <ele>1100.05</ele>
        <time>2021-03-27T13:02:55Z</time>
      </trkpt>
      <trkpt lat="40.303638" lon="-5.528625">
        <ele>1099.65</ele>
        <time>2021-03-27T13:02:58Z</time>
      </trkpt>
      <trkpt lat="40.303711" lon="-5.530213">
        <ele>1106.98</ele>
        <time>2021-03-27T13:03:02Z</time>
      </trkpt>
      <trkpt lat="40.303678" lon="-5.530585">
        <ele>1106.28</ele>
        <time>2021-03-27T13:03:05Z</time>
      </trkpt>
      <trkpt lat="40.303482" lon="-5.531152">
        <ele>1104.07</ele>
        <time>2021-03-27T13:03:08Z</time>
      </trkpt>
      <trkpt lat="40.303314" lon="-5.531432">
        <ele>1103.31</ele>
        <time>2021-03-27T13:03:11Z</time>
      </trkpt>
      <trkpt lat="40.303107" lon="-5.53166">
        <ele>1104.95</ele>
        <time>2021-03-27T13:03:14Z</time>
      </trkpt>
      <trkpt lat="40.302128" lon="-5.532184">
        <ele>1108.86</ele>
        <time>2021-03-27T13:03:17Z</time>
      </trkpt>
      <trkpt lat="40.301945" lon="-5.53234">
        <ele>1108.58</ele>
        <time>2021-03-27T13:03:21Z</time>
      </trkpt>
      <trkpt lat="40.301658" lon="-5.532928">
        <ele>1108.06</ele>
        <time>2021-03-27T13:03:24Z</time>
      </trkpt>
      <trkpt lat="40.301475" lon="-5.53359">
        <ele>1108.57</ele>
        <time>2021-03-27T13:03:27Z</time>
      </trkpt>
      <trkpt lat="40.300985" lon="-5.534624">
        <ele>1113.19</ele>
        <time>2021-03-27T13:03:30Z</time>
      </trkpt>
      <trkpt lat="40.300589" lon="-5.535923">
        <ele>1117.24</ele>
        <time>2021-03-27T13:03:33Z</time>
      </trkpt>
      <trkpt lat="40.300236" lon="-5.53677">
        <ele>1119.5</ele>
        <time>2021-03-27T13:03:36Z</time>
      </trkpt>
      <trkpt lat="40.299996" lon="-5.537582">
        <ele>1122.68</ele>
        <time>2021-03-27T13:03:40Z</time>
      </trkpt>
      <trkpt lat="40.299752" lon="-5.537986">
        <ele>1122.89</ele>
        <time>2021-03-27T13:03:43Z</time>
      </trkpt>
      <trkpt lat="40.299059" lon="-5.538601">
        <ele>1126.34</ele>
        <time>2021-03-27T13:03:46Z</time>
      </trkpt>
      <trkpt lat="40.298395" lon="-5.539371">
        <ele>1126.16</ele>
        <time>2021-03-27T13:03:49Z</time>
      </trkpt>
      <trkpt lat="40.298133" lon="-5.539478">
        <ele>1127.12</ele>
        <time>2021-03-27T13:03:52Z</time>
      </trkpt>
      <trkpt lat="40.29759" lon="-5.53947">
        <ele>1130.38</ele>
        <time>2021-03-27T13:03:55Z</time>
      </trkpt>
      <trkpt lat="40.296876" lon="-5.539541">
        <ele>1131.52</ele>
        <time>2021-03-27T13:03:59Z</time>
      </trkpt>
      <trkpt lat="40.295742" lon="-5.540073">
        <ele>1134.28</ele>
        <time>2021-03-27T13:04:02Z</time>
      </trkpt>
      <trkpt lat="40.295571" lon="-5.540301">
        <ele>1136.0</ele>
        <time>2021-03-27T13:04:05Z</time>
      </trkpt>
      <trkpt lat="40.295275" lon="-5.540773">
        <ele>1136.8</ele>
        <time>2021-03-27T13:04:08Z</time>
      </trkpt>
      <trkpt lat="40.29502" lon="-5.541084">
        <ele>1140.59</ele>
        <time>2021-03-27T13:04:11Z</time>
      </trkpt>
      <trkpt lat="40.294957" lon="-5.541131">
        <ele>1141.15</ele>
        <time>2021-03-27T13:04:14Z</time>
      </trkpt>
      <trkpt lat="40.294588" lon="-5.541234">
        <ele>1142.0</ele>
        <time>2021-03-27T13:04:18Z</time>
      </trkpt>
      <trkpt lat="40.294476" lon="-5.541226">
        <ele>1142.0</ele>
        <time>2021-03-27T13:04:21Z</time>
      </trkpt>
      <trkpt lat="40.294336" lon="-5.541175">
        <ele>1142.09</ele>
        <time>2021-03-27T13:04:24Z</time>
      </trkpt>
      <trkpt lat="40.294247" lon="-5.540946">
        <ele>1141.83</ele>
        <time>2021-03-27T13:04:27Z</time>
      </trkpt>
      <trkpt lat="40.294195" lon="-5.54088">
        <ele>1141.92</ele>
        <time>2021-03-27T13:04:30Z</time>
      </trkpt>
      <trkpt lat="40.294137" lon="-5.540852">
        <ele>1142.1</ele>
        <time>2021-03-27T13:04:33Z</time>
      </trkpt>
      <trkpt lat="40.29378" lon="-5.540898">
        <ele>1143.48</ele>
        <time>2021-03-27T13:04:37Z</time>
      </trkpt>
      <trkpt lat="40.293431" lon="-5.540877">
        <ele>1144.81</ele>
        <time>2021-03-27T13:04:40Z</time>
      </trkpt>
      <trkpt lat="40.293171" lon="-5.54084">
        <ele>1145.61</ele>
        <time>2021-03-27T13:04:43Z</time>
      </trkpt>
      <trkpt lat="40.2931" lon="-5.540861">
        <ele>1145.94</ele>
        <time>2021-03-27T13:04:46Z</time>
      </trkpt>
      <trkpt lat="40.293094" lon="-5.540968">
        <ele>1146.35</ele>
        <time>2021-03-27T13:04:48Z</time>
      </trkpt>
      <trkpt lat="40.293157" lon="-5.541295">
        <ele>1147.3</ele>
        <time>2021-03-27T13:04:50Z</time>
      </trkpt>
      <trkpt lat="40.293174" lon="-5.541485">
        <ele>1147.57</ele>
        <time>2021-03-27T13:04:52Z</time>
      </trkpt>
      <trkpt lat="40.293171" lon="-5.541632">
        <ele>1147.58</ele>
        <time>2021-03-27T13:04:54Z</time>
      </trkpt>
      <trkpt lat="40.293113" lon="-5.541806">
        <ele>1148.9</ele>
        <time>2021-03-27T13:04:56Z</time>
      </trkpt>
      <trkpt lat="40.29301" lon="-5.541918">
        <ele>1150.14</ele>
        <time>2021-03-27T13:04:58Z</time>
      </trkpt>
      <trkpt lat="40.292906" lon="-5.541945">
        <ele>1151.09</ele>
        <time>2021-03-27T13:05:00Z</time>
      </trkpt>
      <trkpt lat="40.292402" lon="-5.541987">
        <ele>1153.37</ele>
        <time>2021-03-27T13:05:01Z</time>
      </trkpt>
      <trkpt lat="40.29224" lon="-5.54205">
        <ele>1153.61</ele>
        <time>2021-03-27T13:05:03Z</time>
      </trkpt>
      <trkpt lat="40.291615" lon="-5.542452">
        <ele>1156.33</ele>
        <time>2021-03-27T13:05:05Z</time>
      </trkpt>
      <trkpt lat="40.291224" lon="-5.542561">
        <ele>1156.53</ele>
        <time>2021-03-27T13:05:07Z</time>
      </trkpt>
      <trkpt lat="40.290957" lon="-5.542698">
        <ele>1157.98</ele>
        <time>2021-03-27T13:05:09Z</time>
      </trkpt>
      <trkpt lat="40.290765" lon="-5.542879">
        <ele>1159.36</ele>
        <time>2021-03-27T13:05:11Z</time>
      </trkpt>
      <trkpt lat="40.290532" lon="-5.543168">
        <ele>1160.37</ele>
        <time>2021-03-27T13:05:13Z</time>
      </trkpt>
      <trkpt lat="40.290341" lon="-5.543456">
        <ele>1160.23</ele>
        <time>2021-03-27T13:05:15Z</time>
      </trkpt>
      <trkpt lat="40.289962" lon="-5.544273">
        <ele>1163.0</ele>
        <time>2021-03-27T13:05:17Z</time>
      </trkpt>
      <trkpt lat="40.289744" lon="-5.54478">
        <ele>1163.38</ele>
        <time>2021-03-27T13:05:19Z</time>
      </trkpt>
      <trkpt lat="40.289636" lon="-5.545645">
        <ele>1165.83</ele>
        <time>2021-03-27T13:05:21Z</time>
      </trkpt>
      <trkpt lat="40.28946" lon="-5.546166">
        <ele>1164.89</ele>
        <time>2021-03-27T13:05:23Z</time>
      </trkpt>
      <trkpt lat="40.28946" lon="-5.546376">
        <ele>1164.89</ele>
        <time>2021-03-27T13:05:24Z</time>
      </trkpt>
      <trkpt lat="40.289747" lon="-5.547396">
        <ele>1171.63</ele>
        <time>2021-03-27T13:05:26Z</time>
      </trkpt>
      <trkpt lat="40.289824" lon="-5.547831">
        <ele>1175.75</ele>
        <time>2021-03-27T13:05:28Z</time>
      </trkpt>
      <trkpt lat="40.289751" lon="-5.548493">
        <ele>1177.67</ele>
        <time>2021-03-27T13:05:30Z</time>
      </trkpt>
      <trkpt lat="40.289759" lon="-5.548787">
        <ele>1180.69</ele>
        <time>2021-03-27T13:05:32Z</time>
      </trkpt>
      <trkpt lat="40.289864" lon="-5.549159">
        <ele>1182.43</ele>
        <time>2021-03-27T13:05:34Z</time>
      </trkpt>
      <trkpt lat="40.291043" lon="-5.550705">
        <ele>1192.21</ele>
        <time>2021-03-27T13:05:36Z</time>
      </trkpt>
      <trkpt lat="40.291406" lon="-5.551568">
        <ele>1197.42</ele>
        <time>2021-03-27T13:05:38Z</time>
      </trkpt>
      <trkpt lat="40.291506" lon="-5.552141">
        <ele>1203.67</ele>
        <time>2021-03-27T13:05:40Z</time>
      </trkpt>
      <trkpt lat="40.291553" lon="-5.55228">
        <ele>1204.42</ele>
        <time>2021-03-27T13:05:42Z</time>
      </trkpt>
      <trkpt lat="40.292091" lon="-5.553051">
        <ele>1204.47</ele>
        <time>2021-03-27T13:05:44Z</time>
      </trkpt>
      <trkpt lat="40.29219" lon="-5.553126">
        <ele>1205.4</ele>
        <time>2021-03-27T13:05:46Z</time>
      </trkpt>
      <trkpt lat="40.292374" lon="-5.553164">
        <ele>1205.67</ele>
        <time>2021-03-27T13:05:47Z</time>
      </trkpt>
      <trkpt lat="40.292699" lon="-5.553184">
        <ele>1206.57</ele>
        <time>2021-03-27T13:05:49Z</time>
      </trkpt>
      <trkpt lat="40.293511" lon="-5.553512">
        <ele>1216.58</ele>
        <time>2021-03-27T13:05:51Z</time>
      </trkpt>
      <trkpt lat="40.29371" lon="-5.553651">
        <ele>1218.16</ele>
        <time>2021-03-27T13:05:53Z</time>
      </trkpt>
      <trkpt lat="40.293829" lon="-5.553818">
        <ele>1219.61</ele>
        <time>2021-03-27T13:05:55Z</time>
      </trkpt>
      <trkpt lat="40.293942" lon="-5.554384">
        <ele>1224.17</ele>
        <time>2021-03-27T13:05:57Z</time>
      </trkpt>
      <trkpt lat="40.294016" lon="-5.554574">
        <ele>1224.87</ele>
        <time>2021-03-27T13:05:59Z</time>
      </trkpt>
      <trkpt lat="40.29434" lon="-5.555118">
        <ele>1229.32</ele>
        <time>2021-03-27T13:06:01Z</time>
      </trkpt>
      <trkpt lat="40.294679" lon="-5.555927">
        <ele>1235.16</ele>
        <time>2021-03-27T13:06:03Z</time>
      </trkpt>
      <trkpt lat="40.294897" lon="-5.556246">
        <ele>1239.2</ele>
        <time>2021-03-27T13:06:05Z</time>
      </trkpt>
      <trkpt lat="40.295677" lon="-5.556942">
        <ele>1239.09</ele>
        <time>2021-03-27T13:06:07Z</time>
      </trkpt>
      <trkpt lat="40.295749" lon="-5.557049">
        <ele>1239.58</ele>
        <time>2021-03-27T13:06:09Z</time>
      </trkpt>
      <trkpt lat="40.295813" lon="-5.557193">
        <ele>1240.06</ele>
        <time>2021-03-27T13:06:10Z</time>
      </trkpt>
      <trkpt lat="40.295887" lon="-5.557517">
        <ele>1240.47</ele>
        <time>2021-03-27T13:06:12Z</time>
      </trkpt>
      <trkpt lat="40.296326" lon="-5.55809">
        <ele>1243.72</ele>
        <time>2021-03-27T13:06:14Z</time>
      </trkpt>
      <trkpt lat="40.296775" lon="-5.558472">
        <ele>1246.52</ele>
        <time>2021-03-27T13:06:16Z</time>
      </trkpt>
      <trkpt lat="40.296942" lon="-5.558682">
        <ele>1249.29</ele>
        <time>2021-03-27T13:06:18Z</time>
      </trkpt>
      <trkpt lat="40.297103" lon="-5.558941">
        <ele>1251.92</ele>
        <time>2021-03-27T13:06:20Z</time>
      </trkpt>
      <trkpt lat="40.297201" lon="-5.559165">
        <ele>1253.27</ele>
        <time>2021-03-27T13:06:22Z</time>
      </trkpt>
      <trkpt lat="40.297319" lon="-5.559297">
        <ele>1253.41</ele>
        <time>2021-03-27T13:06:24Z</time>
      </trkpt>
      <trkpt lat="40.297814" lon="-5.559465">
        <ele>1255.36</ele>
        <time>2021-03-27T13:06:26Z</time>
      </trkpt>
      <trkpt lat="40.298003" lon="-5.559418">
        <ele>1255.6</ele>
        <time>2021-03-27T13:06:28Z</time>
      </trkpt>
      <trkpt lat="40.298282" lon="-5.559242">
        <ele>1258.39</ele>
        <time>2021-03-27T13:06:30Z</time>
      </trkpt>
      <trkpt lat="40.298613" lon="-5.558998">
        <ele>1261.81</ele>
        <time>2021-03-27T13:06:32Z</time>
      </trkpt>
      <trkpt lat="40.298707" lon="-5.558876">
        <ele>1263.05</ele>
        <time>2021-03-27T13:06:33Z</time>
      </trkpt>
      <trkpt lat="40.29888" lon="-5.558027">
        <ele>1264.94</ele>
        <time>2021-03-27T13:06:35Z</time>
      </trkpt>
      <trkpt lat="40.299183" lon="-5.557234">
        <ele>1269.17</ele>
        <time>2021-03-27T13:06:37Z</time>
      </trkpt>
      <trkpt lat="40.299259" lon="-5.557091">
        <ele>1269.99</ele>
        <time>2021-03-27T13:06:39Z</time>
      </trkpt>
      <trkpt lat="40.299337" lon="-5.557007">
        <ele>1270.84</ele>
        <time>2021-03-27T13:06:41Z</time>
      </trkpt>
      <trkpt lat="40.299515" lon="-5.557018">
        <ele>1273.15</ele>
        <time>2021-03-27T13:06:43Z</time>
      </trkpt>
      <trkpt lat="40.299564" lon="-5.557106">
        <ele>1274.22</ele>
        <time>2021-03-27T13:06:45Z</time>
      </trkpt>
      <trkpt lat="40.299596" lon="-5.557298">
        <ele>1275.55</ele>
        <time>2021-03-27T13:06:47Z</time>
      </trkpt>
      <trkpt lat="40.299547" lon="-5.558187">
        <ele>1276.55</ele>
        <time>2021-03-27T13:06:49Z</time>
      </trkpt>
      <trkpt lat="40.299687" lon="-5.558727">
        <ele>1282.38</ele>
        <time>2021-03-27T13:06:51Z</time>
      </trkpt>
      <trkpt lat="40.299678" lon="-5.558967">
        <ele>1284.06</ele>
        <time>2021-03-27T13:06:53Z</time>
      </trkpt>
      <trkpt lat="40.299605" lon="-5.559346">
        <ele>1283.04</ele>
        <time>2021-03-27T13:06:55Z</time>
      </trkpt>
      <trkpt lat="40.299627" lon="-5.559499">
        <ele>1283.6</ele>
        <time>2021-03-27T13:06:56Z</time>
      </trkpt>
      <trkpt lat="40.299889" lon="-5.559846">
        <ele>1290.98</ele>
        <time>2021-03-27T13:06:58Z</time>
      </trkpt>
      <trkpt lat="40.300065" lon="-5.560187">
        <ele>1295.92</ele>
        <time>2021-03-27T13:07:00Z</time>
      </trkpt>
      <trkpt lat="40.300084" lon="-5.56034">
        <ele>1296.81</ele>
        <time>2021-03-27T13:07:02Z</time>
      </trkpt>
      <trkpt lat="40.300036" lon="-5.560545">
        <ele>1296.73</ele>
        <time>2021-03-27T13:07:04Z</time>
      </trkpt>
      <trkpt lat="40.29988" lon="-5.56081">
        <ele>1297.93</ele>
        <time>2021-03-27T13:07:06Z</time>
      </trkpt>
      <trkpt lat="40.299733" lon="-5.560964">
        <ele>1298.96</ele>
        <time>2021-03-27T13:07:08Z</time>
      </trkpt>
      <trkpt lat="40.299513" lon="-5.561064">
        <ele>1298.72</ele>
        <time>2021-03-27T13:07:10Z</time>
      </trkpt>
      <trkpt lat="40.299176" lon="-5.56117">
        <ele>1296.96</ele>
        <time>2021-03-27T13:07:12Z</time>
      </trkpt>
      <trkpt lat="40.299078" lon="-5.561222">
        <ele>1296.26</ele>
        <time>2021-03-27T13:07:14Z</time>
      </trkpt>
      <trkpt lat="40.298965" lon="-5.561406">
        <ele>1298.11</ele>
        <time>2021-03-27T13:07:16Z</time>
      </trkpt>
      <trkpt lat="40.29867" lon="-5.562185">
        <ele>1306.15</ele>
        <time>2021-03-27T13:07:18Z</time>
      </trkpt>
      <trkpt lat="40.298665" lon="-5.56227">
        <ele>1307.08</ele>
        <time>2021-03-27T13:07:19Z</time>
      </trkpt>
      <trkpt lat="40.298708" lon="-5.562354">
        <ele>1309.23</ele>
        <time>2021-03-27T13:07:21Z</time>
      </trkpt>
      <trkpt lat="40.298783" lon="-5.562395">
        <ele>1311.8</ele>
        <time>2021-03-27T13:07:23Z</time>
      </trkpt>
      <trkpt lat="40.298905" lon="-5.562343">
        <ele>1314.73</ele>
        <time>2021-03-27T13:07:25Z</time>
      </trkpt>
      <trkpt lat="40.299138" lon="-5.56182">
        <ele>1309.75</ele>
        <time>2021-03-27T13:07:27Z</time>
      </trkpt>
      <trkpt lat="40.299253" lon="-5.561705">
        <ele>1308.84</ele>
        <time>2021-03-27T13:07:29Z</time>
      </trkpt>
      <trkpt lat="40.299406" lon="-5.56165">
        <ele>1309.27</ele>
        <time>2021-03-27T13:07:31Z</time>
      </trkpt>
      <trkpt lat="40.299683" lon="-5.561647">
        <ele>1312.16</ele>
        <time>2021-03-27T13:07:33Z</time>
      </trkpt>
      <trkpt lat="40.299946" lon="-5.561617">
        <ele>1313.55</ele>
        <time>2021-03-27T13:07:35Z</time>
      </trkpt>
      <trkpt lat="40.30044" lon="-5.561419">
        <ele>1316.64</ele>
        <time>2021-03-27T13:07:37Z</time>
      </trkpt>
      <trkpt lat="40.300685" lon="-5.56124">
        <ele>1317.66</ele>
        <time>2021-03-27T13:07:39Z</time>
      </trkpt>
      <trkpt lat="40.30112" lon="-5.56081">
        <ele>1319.92</ele>
        <time>2021-03-27T13:07:41Z</time>
      </trkpt>
      <trkpt lat="40.301379" lon="-5.560066">
        <ele>1320.26</ele>
        <time>2021-03-27T13:07:42Z</time>
      </trkpt>
      <trkpt lat="40.301737" lon="-5.559378">
        <ele>1324.67</ele>
        <time>2021-03-27T13:07:44Z</time>
      </trkpt>
      <trkpt lat="40.302175" lon="-5.558909">
        <ele>1329.58</ele>
        <time>2021-03-27T13:07:46Z</time>
      </trkpt>
      <trkpt lat="40.302447" lon="-5.558148">
        <ele>1331.23</ele>
        <time>2021-03-27T13:07:48Z</time>
      </trkpt>
      <trkpt lat="40.302506" lon="-5.558081">
        <ele>1332.13</ele>
        <time>2021-03-27T13:07:50Z</time>
      </trkpt>
      <trkpt lat="40.302564" lon="-5.558051">
        <ele>1333.42</ele>
        <time>2021-03-27T13:07:52Z</time>
      </trkpt>
      <trkpt lat="40.302648" lon="-5.55807">
        <ele>1335.18</ele>
        <time>2021-03-27T13:07:54Z</time>
      </trkpt>
      <trkpt lat="40.302703" lon="-5.55813">
        <ele>1336.19</ele>
        <time>2021-03-27T13:07:56Z</time>
      </trkpt>
      <trkpt lat="40.302739" lon="-5.558301">
        <ele>1336.41</ele>
        <time>2021-03-27T13:07:58Z</time>
      </trkpt>
      <trkpt lat="40.302728" lon="-5.558553">
        <ele>1336.9</ele>
        <time>2021-03-27T13:08:00Z</time>
      </trkpt>
      <trkpt lat="40.302677" lon="-5.558773">
        <ele>1337.15</ele>
        <time>2021-03-27T13:08:02Z</time>
      </trkpt>
      <trkpt lat="40.302252" lon="-5.559814">
        <ele>1341.33</ele>
        <time>2021-03-27T13:08:04Z</time>
      </trkpt>
      <trkpt lat="40.302204" lon="-5.560042">
        <ele>1341.6</ele>
        <time>2021-03-27T13:08:05Z</time>
      </trkpt>
      <trkpt lat="40.302201" lon="-5.560252">
        <ele>1342.22</ele>
        <time>2021-03-27T13:08:07Z</time>
      </trkpt>
      <trkpt lat="40.302296" lon="-5.560469">
        <ele>1343.99</ele>
        <time>2021-03-27T13:08:09Z</time>
      </trkpt>
      <trkpt lat="40.30261" lon="-5.560719">
        <ele>1348.6</ele>
        <time>2021-03-27T13:08:11Z</time>
      </trkpt>
      <trkpt lat="40.302872" lon="-5.560832">
        <ele>1351.71</ele>
        <time>2021-03-27T13:08:13Z</time>
      </trkpt>
      <trkpt lat="40.303045" lon="-5.560959">
        <ele>1355.28</ele>
        <time>2021-03-27T13:08:15Z</time>
      </trkpt>
      <trkpt lat="40.303113" lon="-5.561064">
        <ele>1356.52</ele>
        <time>2021-03-27T13:08:17Z</time>
      </trkpt>
      <trkpt lat="40.303236" lon="-5.56136">
        <ele>1358.89</ele>
        <time>2021-03-27T13:08:19Z</time>
      </trkpt>
      <trkpt lat="40.303319" lon="-5.561414">
        <ele>1359.0</ele>
        <time>2021-03-27T13:08:21Z</time>
      </trkpt>
      <trkpt lat="40.303417" lon="-5.561447">
        <ele>1358.7</ele>
        <time>2021-03-27T13:08:23Z</time>
      </trkpt>
      <trkpt lat="40.303884" lon="-5.561499">
        <ele>1357.63</ele>
        <time>2021-03-27T13:08:25Z</time>
      </trkpt>
      <trkpt lat="40.303884" lon="-5.561499">
        <ele>1357.63</ele>
        <time>2021-03-27T13:08:25Z</time>
      </trkpt>
      <trkpt lat="40.30399" lon="-5.56155">
        <ele>1357.06</ele>
        <time>2021-03-27T13:08:26Z</time>
      </trkpt>
      <trkpt lat="40.304101" lon="-5.561669">
        <ele>1356.23</ele>
        <time>2021-03-27T13:08:28Z</time>
      </trkpt>
      <trkpt lat="40.304212" lon="-5.561856">
        <ele>1354.66</ele>
        <time>2021-03-27T13:08:29Z</time>
      </trkpt>
      <trkpt lat="40.304569" lon="-5.562686">
        <ele>1353.88</ele>
        <time>2021-03-27T13:08:31Z</time>
      </trkpt>
      <trkpt lat="40.304641" lon="-5.562906">
        <ele>1352.52</ele>
        <time>2021-03-27T13:08:32Z</time>
      </trkpt>
      <trkpt lat="40.304704" lon="-5.56331">
        <ele>1348.62</ele>
        <time>2021-03-27T13:08:34Z</time>
      </trkpt>
      <trkpt lat="40.304739" lon="-5.563774">
        <ele>1345.23</ele>
        <time>2021-03-27T13:08:35Z</time>
      </trkpt>
      <trkpt lat="40.30469" lon="-5.564032">
        <ele>1344.88</ele>
        <time>2021-03-27T13:08:36Z</time>
      </trkpt>
      <trkpt lat="40.304691" lon="-5.564164">
        <ele>1344.34</ele>
        <time>2021-03-27T13:08:38Z</time>
      </trkpt>
      <trkpt lat="40.304739" lon="-5.564249">
        <ele>1342.92</ele>
        <time>2021-03-27T13:08:39Z</time>
      </trkpt>
      <trkpt lat="40.304811" lon="-5.564267">
        <ele>1341.95</ele>
        <time>2021-03-27T13:08:41Z</time>
      </trkpt>
      <trkpt lat="40.304884" lon="-5.564235">
        <ele>1341.51</ele>
        <time>2021-03-27T13:08:42Z</time>
      </trkpt>
      <trkpt lat="40.30496" lon="-5.564168">
        <ele>1341.41</ele>
        <time>2021-03-27T13:08:44Z</time>
      </trkpt>
      <trkpt lat="40.305074" lon="-5.564013">
        <ele>1340.45</ele>
        <time>2021-03-27T13:08:45Z</time>
      </trkpt>
      <trkpt lat="40.305531" lon="-5.563204">
        <ele>1336.28</ele>
        <time>2021-03-27T13:08:47Z</time>
      </trkpt>
      <trkpt lat="40.305975" lon="-5.562274">
        <ele>1325.44</ele>
        <time>2021-03-27T13:08:48Z</time>
      </trkpt>
      <trkpt lat="40.306045" lon="-5.562222">
        <ele>1324.47</ele>
        <time>2021-03-27T13:08:50Z</time>
      </trkpt>
      <trkpt lat="40.306117" lon="-5.562201">
        <ele>1323.72</ele>
        <time>2021-03-27T13:08:51Z</time>
      </trkpt>
      <trkpt lat="40.306185" lon="-5.562249">
        <ele>1323.66</ele>
        <time>2021-03-27T13:08:53Z</time>
      </trkpt>
      <trkpt lat="40.306239" lon="-5.562315">
        <ele>1323.75</ele>
        <time>2021-03-27T13:08:54Z</time>
      </trkpt>
      <trkpt lat="40.306268" lon="-5.562447">
        <ele>1324.49</ele>
        <time>2021-03-27T13:08:56Z</time>
      </trkpt>
      <trkpt lat="40.306273" lon="-5.562818">
        <ele>1325.89</ele>
        <time>2021-03-27T13:08:57Z</time>
      </trkpt>
      <trkpt lat="40.306301" lon="-5.563292">
        <ele>1325.36</ele>
        <time>2021-03-27T13:08:58Z</time>
      </trkpt>
      <trkpt lat="40.306278" lon="-5.563528">
        <ele>1324.48</ele>
        <time>2021-03-27T13:09:00Z</time>
      </trkpt>
      <trkpt lat="40.3062" lon="-5.564003">
        <ele>1321.38</ele>
        <time>2021-03-27T13:09:01Z</time>
      </trkpt>
      <trkpt lat="40.306184" lon="-5.564483">
        <ele>1315.59</ele>
        <time>2021-03-27T13:09:03Z</time>
      </trkpt>
      <trkpt lat="40.306142" lon="-5.564814">
        <ele>1313.75</ele>
        <time>2021-03-27T13:09:04Z</time>
      </trkpt>
      <trkpt lat="40.306055" lon="-5.565102">
        <ele>1312.3</ele>
        <time>2021-03-27T13:09:06Z</time>
      </trkpt>
      <trkpt lat="40.305964" lon="-5.56532">
        <ele>1312.23</ele>
        <time>2021-03-27T13:09:07Z</time>
      </trkpt>
      <trkpt lat="40.305691" lon="-5.565618">
        <ele>1313.43</ele>
        <time>2021-03-27T13:09:09Z</time>
      </trkpt>
      <trkpt lat="40.305642" lon="-5.565701">
        <ele>1312.81</ele>
        <time>2021-03-27T13:09:10Z</time>
      </trkpt>
      <trkpt lat="40.305628" lon="-5.565781">
        <ele>1311.63</ele>
        <time>2021-03-27T13:09:12Z</time>
      </trkpt>
      <trkpt lat="40.305654" lon="-5.565878">
        <ele>1309.41</ele>
        <time>2021-03-27T13:09:13Z</time>
      </trkpt>
      <trkpt lat="40.305699" lon="-5.565928">
        <ele>1307.7</ele>
        <time>2021-03-27T13:09:15Z</time>
      </trkpt>
      <trkpt lat="40.305771" lon="-5.565942">
        <ele>1306.17</ele>
        <time>2021-03-27T13:09:16Z</time>
      </trkpt>
      <trkpt lat="40.305858" lon="-5.565923">
        <ele>1304.97</ele>
        <time>2021-03-27T13:09:18Z</time>
      </trkpt>
      <trkpt lat="40.306475" lon="-5.565324">
        <ele>1302.11</ele>
        <time>2021-03-27T13:09:19Z</time>
      </trkpt>
      <trkpt lat="40.306585" lon="-5.565178">
        <ele>1301.8</ele>
        <time>2021-03-27T13:09:21Z</time>
      </trkpt>
      <trkpt lat="40.306666" lon="-5.565017">
        <ele>1301.01</ele>
        <time>2021-03-27T13:09:22Z</time>
      </trkpt>
      <trkpt lat="40.306686" lon="-5.56491">
        <ele>1301.14</ele>
        <time>2021-03-27T13:09:23Z</time>
      </trkpt>
      <trkpt lat="40.306691" lon="-5.564725">
        <ele>1301.64</ele>
        <time>2021-03-27T13:09:25Z</time>
      </trkpt>
      <trkpt lat="40.306635" lon="-5.564269">
        <ele>1306.88</ele>
        <time>2021-03-27T13:09:26Z</time>
      </trkpt>
      <trkpt lat="40.30667" lon="-5.564139">
        <ele>1308.39</ele>
        <time>2021-03-27T13:09:28Z</time>
      </trkpt>
      <trkpt lat="40.306718" lon="-5.564079">
        <ele>1308.09</ele>
        <time>2021-03-27T13:09:29Z</time>
      </trkpt>
      <trkpt lat="40.30679" lon="-5.564046">
        <ele>1306.63</ele>
        <time>2021-03-27T13:09:31Z</time>
      </trkpt>
      <trkpt lat="40.306888" lon="-5.564062">
        <ele>1303.5</ele>
        <time>2021-03-27T13:09:32Z</time>
      </trkpt>
      <trkpt lat="40.306959" lon="-5.564177">
        <ele>1299.47</ele>
        <time>2021-03-27T13:09:34Z</time>
      </trkpt>
      <trkpt lat="40.307097" lon="-5.564636">
        <ele>1294.37</ele>
        <time>2021-03-27T13:09:35Z</time>
      </trkpt>
      <trkpt lat="40.307129" lon="-5.564847">
        <ele>1294.46</ele>
        <time>2021-03-27T13:09:37Z</time>
      </trkpt>
      <trkpt lat="40.307132" lon="-5.565055">
        <ele>1294.75</ele>
        <time>2021-03-27T13:09:38Z</time>
      </trkpt>
      <trkpt lat="40.307087" lon="-5.565681">
        <ele>1291.34</ele>
        <time>2021-03-27T13:09:40Z</time>
      </trkpt>
      <trkpt lat="40.307144" lon="-5.566174">
        <ele>1284.74</ele>
        <time>2021-03-27T13:09:41Z</time>
      </trkpt>
      <trkpt lat="40.307123" lon="-5.566432">
        <ele>1281.69</ele>
        <time>2021-03-27T13:09:43Z</time>
      </trkpt>
      <trkpt lat="40.307084" lon="-5.56658">
        <ele>1280.62</ele>
        <time>2021-03-27T13:09:44Z</time>
      </trkpt>
      <trkpt lat="40.307012" lon="-5.566732">
        <ele>1279.3</ele>
        <time>2021-03-27T13:09:45Z</time>
      </trkpt>
      <trkpt lat="40.306568" lon="-5.567225">
        <ele>1277.69</ele>
        <time>2021-03-27T13:09:47Z</time>
      </trkpt>
      <trkpt lat="40.306456" lon="-5.567509">
        <ele>1277.25</ele>
        <time>2021-03-27T13:09:48Z</time>
      </trkpt>
      <trkpt lat="40.306404" lon="-5.568103">
        <ele>1277.49</ele>
        <time>2021-03-27T13:09:50Z</time>
      </trkpt>
      <trkpt lat="40.30624" lon="-5.568578">
        <ele>1273.01</ele>
        <time>2021-03-27T13:09:51Z</time>
      </trkpt>
      <trkpt lat="40.306043" lon="-5.569031">
        <ele>1267.93</ele>
        <time>2021-03-27T13:09:53Z</time>
      </trkpt>
      <trkpt lat="40.305833" lon="-5.569167">
        <ele>1268.99</ele>
        <time>2021-03-27T13:09:54Z</time>
      </trkpt>
      <trkpt lat="40.305734" lon="-5.569254">
        <ele>1268.46</ele>
        <time>2021-03-27T13:09:56Z</time>
      </trkpt>
      <trkpt lat="40.305694" lon="-5.569353">
        <ele>1267.31</ele>
        <time>2021-03-27T13:09:57Z</time>
      </trkpt>
      <trkpt lat="40.305699" lon="-5.569428">
        <ele>1266.2</ele>
        <time>2021-03-27T13:09:59Z</time>
      </trkpt>
      <trkpt lat="40.305815" lon="-5.569523">
        <ele>1263.72</ele>
        <time>2021-03-27T13:10:00Z</time>
      </trkpt>
      <trkpt lat="40.305935" lon="-5.569477">
        <ele>1262.59</ele>
        <time>2021-03-27T13:10:02Z</time>
      </trkpt>
      <trkpt lat="40.306105" lon="-5.569329">
        <ele>1262.18</ele>
        <time>2021-03-27T13:10:03Z</time>
      </trkpt>
      <trkpt lat="40.306882" lon="-5.568973">
        <ele>1256.76</ele>
        <time>2021-03-27T13:10:05Z</time>
      </trkpt>
      <trkpt lat="40.307234" lon="-5.568949">
        <ele>1252.27</ele>
        <time>2021-03-27T13:10:06Z</time>
      </trkpt>
      <trkpt lat="40.307474" lon="-5.569016">
        <ele>1249.81</ele>
        <time>2021-03-27T13:10:07Z</time>
      </trkpt>
      <trkpt lat="40.307709" lon="-5.569013">
        <ele>1246.72</ele>
        <time>2021-03-27T13:10:09Z</time>
      </trkpt>
      <trkpt lat="40.307959" lon="-5.568915">
        <ele>1245.62</ele>
        <time>2021-03-27T13:10:10Z</time>
      </trkpt>
      <trkpt lat="40.308203" lon="-5.568722">
        <ele>1243.8</ele>
        <time>2021-03-27T13:10:12Z</time>
      </trkpt>
      <trkpt lat="40.308684" lon="-5.568245">
        <ele>1240.19</ele>
        <time>2021-03-27T13:10:13Z</time>
      </trkpt>
      <trkpt lat="40.308893" lon="-5.567856">
        <ele>1239.79</ele>
        <time>2021-03-27T13:10:15Z</time>
      </trkpt>
      <trkpt lat="40.308941" lon="-5.567739">
        <ele>1240.46</ele>
        <time>2021-03-27T13:10:16Z</time>
      </trkpt>
      <trkpt lat="40.308986" lon="-5.567339">
        <ele>1242.86</ele>
        <time>2021-03-27T13:10:18Z</time>
      </trkpt>
      <trkpt lat="40.309015" lon="-5.567206">
        <ele>1242.78</ele>
        <time>2021-03-27T13:10:19Z</time>
      </trkpt>
      <trkpt lat="40.30906" lon="-5.567128">
        <ele>1241.56</ele>
        <time>2021-03-27T13:10:21Z</time>
      </trkpt>
      <trkpt lat="40.309159" lon="-5.56708">
        <ele>1239.18</ele>
        <time>2021-03-27T13:10:22Z</time>
      </trkpt>
      <trkpt lat="40.309241" lon="-5.567153">
        <ele>1237.53</ele>
        <time>2021-03-27T13:10:24Z</time>
      </trkpt>
      <trkpt lat="40.309282" lon="-5.567258">
        <ele>1236.38</ele>
        <time>2021-03-27T13:10:25Z</time>
      </trkpt>
      <trkpt lat="40.309405" lon="-5.567702">
        <ele>1232.63</ele>
        <time>2021-03-27T13:10:27Z</time>
      </trkpt>
      <trkpt lat="40.30943" lon="-5.568504">
        <ele>1228.29</ele>
        <time>2021-03-27T13:10:28Z</time>
      </trkpt>
      <trkpt lat="40.309541" lon="-5.569337">
        <ele>1221.68</ele>
        <time>2021-03-27T13:10:30Z</time>
      </trkpt>
      <trkpt lat="40.30955" lon="-5.569633">
        <ele>1218.59</ele>
        <time>2021-03-27T13:10:31Z</time>
      </trkpt>
      <trkpt lat="40.309533" lon="-5.569746">
        <ele>1217.45</ele>
        <time>2021-03-27T13:10:32Z</time>
      </trkpt>
      <trkpt lat="40.30949" lon="-5.569869">
        <ele>1216.34</ele>
        <time>2021-03-27T13:10:34Z</time>
      </trkpt>
      <trkpt lat="40.309096" lon="-5.570278">
        <ele>1214.99</ele>
        <time>2021-03-27T13:10:35Z</time>
      </trkpt>
      <trkpt lat="40.30907" lon="-5.570392">
        <ele>1214.03</ele>
        <time>2021-03-27T13:10:37Z</time>
      </trkpt>
      <trkpt lat="40.309085" lon="-5.570587">
        <ele>1212.56</ele>
        <time>2021-03-27T13:10:38Z</time>
      </trkpt>
      <trkpt lat="40.309138" lon="-5.570743">
        <ele>1212.15</ele>
        <time>2021-03-27T13:10:40Z</time>
      </trkpt>
      <trkpt lat="40.309227" lon="-5.570858">
        <ele>1211.71</ele>
        <time>2021-03-27T13:10:41Z</time>
      </trkpt>
      <trkpt lat="40.309662" lon="-5.570961">
        <ele>1209.81</ele>
        <time>2021-03-27T13:10:43Z</time>
      </trkpt>
      <trkpt lat="40.310091" lon="-5.571122">
        <ele>1205.45</ele>
        <time>2021-03-27T13:10:44Z</time>
      </trkpt>
      <trkpt lat="40.310348" lon="-5.571264">
        <ele>1201.65</ele>
        <time>2021-03-27T13:10:46Z</time>
      </trkpt>
      <trkpt lat="40.310447" lon="-5.571396">
        <ele>1199.35</ele>
        <time>2021-03-27T13:10:47Z</time>
      </trkpt>
      <trkpt lat="40.31055" lon="-5.57167">
        <ele>1197.99</ele>
        <time>2021-03-27T13:10:49Z</time>
      </trkpt>
      <trkpt lat="40.310757" lon="-5.573173">
        <ele>1190.95</ele>
        <time>2021-03-27T13:10:50Z</time>
      </trkpt>
      <trkpt lat="40.31084" lon="-5.573379">
        <ele>1189.13</ele>
        <time>2021-03-27T13:10:52Z</time>
      </trkpt>
      <trkpt lat="40.311408" lon="-5.573513">
        <ele>1183.85</ele>
        <time>2021-03-27T13:10:53Z</time>
      </trkpt>
      <trkpt lat="40.311753" lon="-5.573545">
        <ele>1179.62</ele>
        <time>2021-03-27T13:10:54Z</time>
      </trkpt>
      <trkpt lat="40.311995" lon="-5.573508">
        <ele>1177.23</ele>
        <time>2021-03-27T13:10:56Z</time>
      </trkpt>
      <trkpt lat="40.312499" lon="-5.573178">
        <ele>1174.13</ele>
        <time>2021-03-27T13:10:57Z</time>
      </trkpt>
      <trkpt lat="40.312692" lon="-5.572961">
        <ele>1171.89</ele>
        <time>2021-03-27T13:10:59Z</time>
      </trkpt>
      <trkpt lat="40.312709" lon="-5.572865">
        <ele>1171.31</ele>
        <time>2021-03-27T13:11:00Z</time>
      </trkpt>
      <trkpt lat="40.312684" lon="-5.572764">
        <ele>1171.2</ele>
        <time>2021-03-27T13:11:02Z</time>
      </trkpt>
      <trkpt lat="40.31261" lon="-5.572654">
        <ele>1171.08</ele>
        <time>2021-03-27T13:11:03Z</time>
      </trkpt>
      <trkpt lat="40.312511" lon="-5.572578">
        <ele>1171.68</ele>
        <time>2021-03-27T13:11:05Z</time>
      </trkpt>
      <trkpt lat="40.312401" lon="-5.572445">
        <ele>1172.13</ele>
        <time>2021-03-27T13:11:06Z</time>
      </trkpt>
      <trkpt lat="40.312327" lon="-5.572289">
        <ele>1172.02</ele>
        <time>2021-03-27T13:11:08Z</time>
      </trkpt>
      <trkpt lat="40.312311" lon="-5.57209">
        <ele>1171.28</ele>
        <time>2021-03-27T13:11:09Z</time>
      </trkpt>
      <trkpt lat="40.312333" lon="-5.57187">
        <ele>1170.08</ele>
        <time>2021-03-27T13:11:11Z</time>
      </trkpt>
      <trkpt lat="40.312392" lon="-5.571701">
        <ele>1168.19</ele>
        <time>2021-03-27T13:11:12Z</time>
      </trkpt>
      <trkpt lat="40.312482" lon="-5.571537">
        <ele>1166.81</ele>
        <time>2021-03-27T13:11:14Z</time>
      </trkpt>
      <trkpt lat="40.312641" lon="-5.571463">
        <ele>1165.67</ele>
        <time>2021-03-27T13:11:15Z</time>
      </trkpt>
      <trkpt lat="40.312795" lon="-5.571441">
        <ele>1164.25</ele>
        <time>2021-03-27T13:11:16Z</time>
      </trkpt>
      <trkpt lat="40.312892" lon="-5.571454">
        <ele>1163.07</ele>
        <time>2021-03-27T13:11:18Z</time>
      </trkpt>
      <trkpt lat="40.31298" lon="-5.571503">
        <ele>1161.58</ele>
        <time>2021-03-27T13:11:19Z</time>
      </trkpt>
      <trkpt lat="40.313067" lon="-5.571746">
        <ele>1158.62</ele>
        <time>2021-03-27T13:11:21Z</time>
      </trkpt>
      <trkpt lat="40.31339" lon="-5.572821">
        <ele>1158.04</ele>
        <time>2021-03-27T13:11:22Z</time>
      </trkpt>
      <trkpt lat="40.313498" lon="-5.573481">
        <ele>1151.9</ele>
        <time>2021-03-27T13:11:24Z</time>
      </trkpt>
      <trkpt lat="40.313451" lon="-5.573703">
        <ele>1150.98</ele>
        <time>2021-03-27T13:11:25Z</time>
      </trkpt>
      <trkpt lat="40.3133" lon="-5.573876">
        <ele>1151.91</ele>
        <time>2021-03-27T13:11:27Z</time>
      </trkpt>
      <trkpt lat="40.313044" lon="-5.574059">
        <ele>1154.76</ele>
        <time>2021-03-27T13:11:28Z</time>
      </trkpt>
      <trkpt lat="40.312593" lon="-5.574807">
        <ele>1150.15</ele>
        <time>2021-03-27T13:11:30Z</time>
      </trkpt>
      <trkpt lat="40.312073" lon="-5.575312">
        <ele>1146.26</ele>
        <time>2021-03-27T13:11:31Z</time>
      </trkpt>
      <trkpt lat="40.311691" lon="-5.575483">
        <ele>1143.98</ele>
        <time>2021-03-27T13:11:33Z</time>
      </trkpt>
      <trkpt lat="40.311459" lon="-5.575643">
        <ele>1143.63</ele>
        <time>2021-03-27T13:11:34Z</time>
      </trkpt>
      <trkpt lat="40.311276" lon="-5.575796">
        <ele>1141.77</ele>
        <time>2021-03-27T13:11:36Z</time>
      </trkpt>
      <trkpt lat="40.311065" lon="-5.576014">
        <ele>1139.12</ele>
        <time>2021-03-27T13:11:37Z</time>
      </trkpt>
      <trkpt lat="40.311" lon="-5.576167">
        <ele>1137.99</ele>
        <time>2021-03-27T13:11:39Z</time>
      </trkpt>
      <trkpt lat="40.310942" lon="-5.576377">
        <ele>1137.86</ele>
        <time>2021-03-27T13:11:40Z</time>
      </trkpt>
      <trkpt lat="40.310965" lon="-5.576852">
        <ele>1136.08</ele>
        <time>2021-03-27T13:11:41Z</time>
      </trkpt>
      <trkpt lat="40.310995" lon="-5.576957">
        <ele>1135.19</ele>
        <time>2021-03-27T13:11:43Z</time>
      </trkpt>
      <trkpt lat="40.31106" lon="-5.576984">
        <ele>1134.38</ele>
        <time>2021-03-27T13:11:46Z</time>
      </trkpt>
      <trkpt lat="40.311169" lon="-5.576955">
        <ele>1133.13</ele>
        <time>2021-03-27T13:11:49Z</time>
      </trkpt>
      <trkpt lat="40.311492" lon="-5.576804">
        <ele>1128.89</ele>
        <time>2021-03-27T13:11:52Z</time>
      </trkpt>
      <trkpt lat="40.311693" lon="-5.576668">
        <ele>1127.7</ele>
        <time>2021-03-27T13:11:55Z</time>
      </trkpt>
      <trkpt lat="40.31182" lon="-5.576544">
        <ele>1127.47</ele>
        <time>2021-03-27T13:11:57Z</time>
      </trkpt>
      <trkpt lat="40.312063" lon="-5.576219">
        <ele>1128.97</ele>
        <time>2021-03-27T13:12:00Z</time>
      </trkpt>
      <trkpt lat="40.312165" lon="-5.576129">
        <ele>1129.22</ele>
        <time>2021-03-27T13:12:03Z</time>
      </trkpt>
      <trkpt lat="40.31224" lon="-5.576097">
        <ele>1129.06</ele>
        <time>2021-03-27T13:12:06Z</time>
      </trkpt>
      <trkpt lat="40.312353" lon="-5.576129">
        <ele>1127.39</ele>
        <time>2021-03-27T13:12:09Z</time>
      </trkpt>
      <trkpt lat="40.312452" lon="-5.576215">
        <ele>1125.39</ele>
        <time>2021-03-27T13:12:12Z</time>
      </trkpt>
      <trkpt lat="40.312593" lon="-5.576498">
        <ele>1121.28</ele>
        <time>2021-03-27T13:12:15Z</time>
      </trkpt>
      <trkpt lat="40.312864" lon="-5.576734">
        <ele>1118.03</ele>
        <time>2021-03-27T13:12:18Z</time>
      </trkpt>
      <trkpt lat="40.312994" lon="-5.576795">
        <ele>1117.19</ele>
        <time>2021-03-27T13:12:21Z</time>
      </trkpt>
      <trkpt lat="40.313115" lon="-5.57677">
        <ele>1116.96</ele>
        <time>2021-03-27T13:12:24Z</time>
      </trkpt>
      <trkpt lat="40.313334" lon="-5.57658">
        <ele>1117.93</ele>
        <time>2021-03-27T13:12:26Z</time>
      </trkpt>
      <trkpt lat="40.313415" lon="-5.576587">
        <ele>1117.35</ele>
        <time>2021-03-27T13:12:29Z</time>
      </trkpt>
      <trkpt lat="40.313461" lon="-5.576635">
        <ele>1116.47</ele>
        <time>2021-03-27T13:12:32Z</time>
      </trkpt>
      <trkpt lat="40.313489" lon="-5.576709">
        <ele>1115.34</ele>
        <time>2021-03-27T13:12:35Z</time>
      </trkpt>
      <trkpt lat="40.313494" lon="-5.576796">
        <ele>1114.17</ele>
        <time>2021-03-27T13:12:38Z</time>
      </trkpt>
      <trkpt lat="40.313408" lon="-5.577025">
        <ele>1112.24</ele>
        <time>2021-03-27T13:12:41Z</time>
      </trkpt>
      <trkpt lat="40.3133" lon="-5.577155">
        <ele>1111.97</ele>
        <time>2021-03-27T13:12:44Z</time>
      </trkpt>
      <trkpt lat="40.312503" lon="-5.577837">
        <ele>1105.13</ele>
        <time>2021-03-27T13:12:47Z</time>
      </trkpt>
      <trkpt lat="40.312156" lon="-5.578189">
        <ele>1100.92</ele>
        <time>2021-03-27T13:12:50Z</time>
      </trkpt>
      <trkpt lat="40.312052" lon="-5.578333">
        <ele>1099.62</ele>
        <time>2021-03-27T13:12:53Z</time>
      </trkpt>
      <trkpt lat="40.311883" lon="-5.578509">
        <ele>1100.36</ele>
        <time>2021-03-27T13:12:55Z</time>
      </trkpt>
      <trkpt lat="40.311587" lon="-5.579075">
        <ele>1101.53</ele>
        <time>2021-03-27T13:12:58Z</time>
      </trkpt>
      <trkpt lat="40.311554" lon="-5.579329">
        <ele>1102.8</ele>
        <time>2021-03-27T13:13:01Z</time>
      </trkpt>
      <trkpt lat="40.311568" lon="-5.579572">
        <ele>1103.07</ele>
        <time>2021-03-27T13:13:04Z</time>
      </trkpt>
      <trkpt lat="40.311518" lon="-5.579794">
        <ele>1103.22</ele>
        <time>2021-03-27T13:13:07Z</time>
      </trkpt>
      <trkpt lat="40.311156" lon="-5.580527">
        <ele>1100.19</ele>
        <time>2021-03-27T13:13:10Z</time>
      </trkpt>
      <trkpt lat="40.310907" lon="-5.580898">
        <ele>1099.26</ele>
        <time>2021-03-27T13:13:13Z</time>
      </trkpt>
      <trkpt lat="40.310336" lon="-5.581589">
        <ele>1099.98</ele>
        <time>2021-03-27T13:13:16Z</time>
      </trkpt>
      <trkpt lat="40.310115" lon="-5.581801">
        <ele>1101.27</ele>
        <time>2021-03-27T13:13:19Z</time>
      </trkpt>
      <trkpt lat="40.309948" lon="-5.581896">
        <ele>1102.55</ele>
        <time>2021-03-27T13:13:22Z</time>
      </trkpt>
      <trkpt lat="40.309483" lon="-5.582077">
        <ele>1104.38</ele>
        <time>2021-03-27T13:13:24Z</time>
      </trkpt>
      <trkpt lat="40.309408" lon="-5.582135">
        <ele>1104.35</ele>
        <time>2021-03-27T13:13:27Z</time>
      </trkpt>
      <trkpt lat="40.308893" lon="-5.582759">
        <ele>1100.14</ele>
        <time>2021-03-27T13:13:30Z</time>
      </trkpt>
      <trkpt lat="40.308848" lon="-5.582853">
        <ele>1099.91</ele>
        <time>2021-03-27T13:13:33Z</time>
      </trkpt>
      <trkpt lat="40.308824" lon="-5.582951">
        <ele>1099.76</ele>
        <time>2021-03-27T13:13:36Z</time>
      </trkpt>
      <trkpt lat="40.30881" lon="-5.583111">
        <ele>1099.31</ele>
        <time>2021-03-27T13:13:39Z</time>
      </trkpt>
      <trkpt lat="40.308763" lon="-5.583267">
        <ele>1098.8</ele>
        <time>2021-03-27T13:13:42Z</time>
      </trkpt>
      <trkpt lat="40.308656" lon="-5.583396">
        <ele>1098.61</ele>
        <time>2021-03-27T13:13:45Z</time>
      </trkpt>
      <trkpt lat="40.308442" lon="-5.583566">
        <ele>1099.38</ele>
        <time>2021-03-27T13:13:48Z</time>
      </trkpt>
      <trkpt lat="40.308396" lon="-5.583668">
        <ele>1099.34</ele>
        <time>2021-03-27T13:13:51Z</time>
      </trkpt>
      <trkpt lat="40.308394" lon="-5.5838">
        <ele>1098.89</ele>
        <time>2021-03-27T13:13:53Z</time>
      </trkpt>
      <trkpt lat="40.308605" lon="-5.585792">
        <ele>1097.87</ele>
        <time>2021-03-27T13:13:56Z</time>
      </trkpt>
      <trkpt lat="40.308608" lon="-5.586093">
        <ele>1097.08</ele>
        <time>2021-03-27T13:13:59Z</time>
      </trkpt>
      <trkpt lat="40.308543" lon="-5.586614">
        <ele>1095.68</ele>
        <time>2021-03-27T13:14:02Z</time>
      </trkpt>
      <trkpt lat="40.308378" lon="-5.587183">
        <ele>1098.54</ele>
        <time>2021-03-27T13:14:05Z</time>
      </trkpt>
      <trkpt lat="40.308253" lon="-5.588365">
        <ele>1099.92</ele>
        <time>2021-03-27T13:14:08Z</time>
      </trkpt>
      <trkpt lat="40.308083" lon="-5.588761">
        <ele>1099.31</ele>
        <time>2021-03-27T13:14:11Z</time>
      </trkpt>
      <trkpt lat="40.308087" lon="-5.588809">
        <ele>1099.09</ele>
        <time>2021-03-27T13:14:14Z</time>
      </trkpt>
      <trkpt lat="40.30812" lon="-5.588826">
        <ele>1098.82</ele>
        <time>2021-03-27T13:14:15Z</time>
      </trkpt>
      <trkpt lat="40.308373" lon="-5.588759">
        <ele>1097.71</ele>
        <time>2021-03-27T13:14:16Z</time>
      </trkpt>
      <trkpt lat="40.308508" lon="-5.588779">
        <ele>1096.78</ele>
        <time>2021-03-27T13:14:18Z</time>
      </trkpt>
      <trkpt lat="40.308675" lon="-5.588665">
        <ele>1097.0</ele>
        <time>2021-03-27T13:14:19Z</time>
      </trkpt>
      <trkpt lat="40.308744" lon="-5.588637">
        <ele>1096.8</ele>
        <time>2021-03-27T13:14:20Z</time>
      </trkpt>
      <trkpt lat="40.308812" lon="-5.588652">
        <ele>1096.22</ele>
        <time>2021-03-27T13:14:22Z</time>
      </trkpt>
      <trkpt lat="40.308905" lon="-5.58888">
        <ele>1093.78</ele>
        <time>2021-03-27T13:14:26Z</time>
      </trkpt>
      <trkpt lat="40.308924" lon="-5.589112">
        <ele>1091.66</ele>
        <time>2021-03-27T13:14:30Z</time>
      </trkpt>
      <trkpt lat="40.308904" lon="-5.589212">
        <ele>1091.33</ele>
        <time>2021-03-27T13:14:35Z</time>
      </trkpt>
      <trkpt lat="40.308635" lon="-5.589876">
        <ele>1089.03</ele>
        <time>2021-03-27T13:14:39Z</time>
      </trkpt>
      <trkpt lat="40.308591" lon="-5.590074">
        <ele>1087.42</ele>
        <time>2021-03-27T13:14:43Z</time>
      </trkpt>
      <trkpt lat="40.308553" lon="-5.590449">
        <ele>1084.26</ele>
        <time>2021-03-27T13:14:48Z</time>
      </trkpt>
      <trkpt lat="40.308562" lon="-5.590589">
        <ele>1083.33</ele>
        <time>2021-03-27T13:14:52Z</time>
      </trkpt>
      <trkpt lat="40.308807" lon="-5.591095">
        <ele>1083.0</ele>
        <time>2021-03-27T13:14:56Z</time>
      </trkpt>
      <trkpt lat="40.308836" lon="-5.591272">
        <ele>1083.69</ele>
        <time>2021-03-27T13:15:01Z</time>
      </trkpt>
      <trkpt lat="40.310167" lon="-5.592965">
        <ele>1085.4</ele>
        <time>2021-03-27T13:15:05Z</time>
      </trkpt>
      <trkpt lat="40.314331" lon="-5.595137">
        <ele>1085.79</ele>
        <time>2021-03-27T13:15:10Z</time>
      </trkpt>
      <trkpt lat="40.314535" lon="-5.595202">
        <ele>1086.56</ele>
        <time>2021-03-27T13:15:14Z</time>
      </trkpt>
      <trkpt lat="40.314665" lon="-5.595443">
        <ele>1088.19</ele>
        <time>2021-03-27T13:15:16Z</time>
      </trkpt>
      <trkpt lat="40.314747" lon="-5.59548">
        <ele>1088.84</ele>
        <time>2021-03-27T13:15:17Z</time>
      </trkpt>
      <trkpt lat="40.314819" lon="-5.595581">
        <ele>1089.32</ele>
        <time>2021-03-27T13:15:18Z</time>
      </trkpt>
      <trkpt lat="40.314837" lon="-5.595712">
        <ele>1089.18</ele>
        <time>2021-03-27T13:15:20Z</time>
      </trkpt>
      <trkpt lat="40.314812" lon="-5.595862">
        <ele>1088.93</ele>
        <time>2021-03-27T13:15:21Z</time>
      </trkpt>
      <trkpt lat="40.314746" lon="-5.596093">
        <ele>1088.15</ele>
        <time>2021-03-27T13:15:22Z</time>
      </trkpt>
      <trkpt lat="40.314257" lon="-5.5971">
        <ele>1090.18</ele>
        <time>2021-03-27T13:15:23Z</time>
      </trkpt>
      <trkpt lat="40.314225" lon="-5.597256">
        <ele>1090.21</ele>
        <time>2021-03-27T13:15:25Z</time>
      </trkpt>
      <trkpt lat="40.314229" lon="-5.597404">
        <ele>1090.22</ele>
        <time>2021-03-27T13:15:26Z</time>
      </trkpt>
      <trkpt lat="40.314284" lon="-5.59754">
        <ele>1090.59</ele>
        <time>2021-03-27T13:15:27Z</time>
      </trkpt>
      <trkpt lat="40.314377" lon="-5.597632">
        <ele>1090.99</ele>
        <time>2021-03-27T13:15:29Z</time>
      </trkpt>
      <trkpt lat="40.314548" lon="-5.597693">
        <ele>1091.11</ele>
        <time>2021-03-27T13:15:30Z</time>
      </trkpt>
      <trkpt lat="40.31527" lon="-5.597715">
        <ele>1087.51</ele>
        <time>2021-03-27T13:15:31Z</time>
      </trkpt>
      <trkpt lat="40.315369" lon="-5.597738">
        <ele>1087.19</ele>
        <time>2021-03-27T13:15:33Z</time>
      </trkpt>
      <trkpt lat="40.315467" lon="-5.597798">
        <ele>1086.98</ele>
        <time>2021-03-27T13:15:34Z</time>
      </trkpt>
      <trkpt lat="40.315511" lon="-5.597859">
        <ele>1086.95</ele>
        <time>2021-03-27T13:15:35Z</time>
      </trkpt>
      <trkpt lat="40.315672" lon="-5.598186">
        <ele>1088.09</ele>
        <time>2021-03-27T13:15:37Z</time>
      </trkpt>
      <trkpt lat="40.315763" lon="-5.598318">
        <ele>1089.4</ele>
        <time>2021-03-27T13:15:38Z</time>
      </trkpt>
      <trkpt lat="40.315855" lon="-5.598401">
        <ele>1090.26</ele>
        <time>2021-03-27T13:15:39Z</time>
      </trkpt>
      <trkpt lat="40.31597" lon="-5.598431">
        <ele>1090.53</ele>
        <time>2021-03-27T13:15:40Z</time>
      </trkpt>
      <trkpt lat="40.316216" lon="-5.598348">
        <ele>1090.09</ele>
        <time>2021-03-27T13:15:42Z</time>
      </trkpt>
      <trkpt lat="40.316293" lon="-5.598342">
        <ele>1090.04</ele>
        <time>2021-03-27T13:15:43Z</time>
      </trkpt>
      <trkpt lat="40.316432" lon="-5.598378">
        <ele>1090.21</ele>
        <time>2021-03-27T13:15:44Z</time>
      </trkpt>
      <trkpt lat="40.316909" lon="-5.598609">
        <ele>1093.86</ele>
        <time>2021-03-27T13:15:46Z</time>
      </trkpt>
      <trkpt lat="40.317064" lon="-5.598667">
        <ele>1094.23</ele>
        <time>2021-03-27T13:15:47Z</time>
      </trkpt>
      <trkpt lat="40.317642" lon="-5.59878">
        <ele>1091.57</ele>
        <time>2021-03-27T13:15:48Z</time>
      </trkpt>
      <trkpt lat="40.317727" lon="-5.598777">
        <ele>1091.09</ele>
        <time>2021-03-27T13:15:50Z</time>
      </trkpt>
      <trkpt lat="40.317946" lon="-5.598714">
        <ele>1090.88</ele>
        <time>2021-03-27T13:15:51Z</time>
      </trkpt>
      <trkpt lat="40.318028" lon="-5.598732">
        <ele>1090.62</ele>
        <time>2021-03-27T13:15:52Z</time>
      </trkpt>
      <trkpt lat="40.318072" lon="-5.598761">
        <ele>1090.46</ele>
        <time>2021-03-27T13:15:54Z</time>
      </trkpt>
      <trkpt lat="40.317877" lon="-5.599073">
        <ele>1089.57</ele>
        <time>2021-03-27T13:15:56Z</time>
      </trkpt>
      <trkpt lat="40.317677" lon="-5.599713">
        <ele>1091.33</ele>
        <time>2021-03-27T13:15:59Z</time>
      </trkpt>
      <trkpt lat="40.317291" lon="-5.601132">
        <ele>1097.09</ele>
        <time>2021-03-27T13:16:02Z</time>
      </trkpt>
      <trkpt lat="40.317188" lon="-5.60172">
        <ele>1099.46</ele>
        <time>2021-03-27T13:16:05Z</time>
      </trkpt>
      <trkpt lat="40.317049" lon="-5.601995">
        <ele>1102.05</ele>
        <time>2021-03-27T13:16:08Z</time>
      </trkpt>
      <trkpt lat="40.316839" lon="-5.60229">
        <ele>1104.24</ele>
        <time>2021-03-27T13:16:10Z</time>
      </trkpt>
      <trkpt lat="40.316014" lon="-5.603255">
        <ele>1106.35</ele>
        <time>2021-03-27T13:16:13Z</time>
      </trkpt>
      <trkpt lat="40.315846" lon="-5.603557">
        <ele>1106.99</ele>
        <time>2021-03-27T13:16:16Z</time>
      </trkpt>
      <trkpt lat="40.31574" lon="-5.603878">
        <ele>1108.31</ele>
        <time>2021-03-27T13:16:19Z</time>
      </trkpt>
      <trkpt lat="40.315687" lon="-5.60423">
        <ele>1109.23</ele>
        <time>2021-03-27T13:16:22Z</time>
      </trkpt>
      <trkpt lat="40.315693" lon="-5.604531">
        <ele>1110.31</ele>
        <time>2021-03-27T13:16:24Z</time>
      </trkpt>
      <trkpt lat="40.315862" lon="-5.605231">
        <ele>1111.93</ele>
        <time>2021-03-27T13:16:27Z</time>
      </trkpt>
      <trkpt lat="40.316297" lon="-5.606668">
        <ele>1116.68</ele>
        <time>2021-03-27T13:16:30Z</time>
      </trkpt>
      <trkpt lat="40.316259" lon="-5.607324">
        <ele>1119.8</ele>
        <time>2021-03-27T13:16:33Z</time>
      </trkpt>
      <trkpt lat="40.316302" lon="-5.607857">
        <ele>1123.15</ele>
        <time>2021-03-27T13:16:36Z</time>
      </trkpt>
      <trkpt lat="40.316302" lon="-5.608176">
        <ele>1122.65</ele>
        <time>2021-03-27T13:16:38Z</time>
      </trkpt>
      <trkpt lat="40.316055" lon="-5.608655">
        <ele>1121.58</ele>
        <time>2021-03-27T13:16:41Z</time>
      </trkpt>
      <trkpt lat="40.315914" lon="-5.609066">
        <ele>1121.32</ele>
        <time>2021-03-27T13:16:44Z</time>
      </trkpt>
      <trkpt lat="40.315815" lon="-5.609626">
        <ele>1123.92</ele>
        <time>2021-03-27T13:16:47Z</time>
      </trkpt>
      <trkpt lat="40.315682" lon="-5.610818">
        <ele>1136.17</ele>
        <time>2021-03-27T13:16:50Z</time>
      </trkpt>
      <trkpt lat="40.315615" lon="-5.611029">
        <ele>1138.31</ele>
        <time>2021-03-27T13:16:52Z</time>
      </trkpt>
      <trkpt lat="40.31544" lon="-5.611383">
        <ele>1140.12</ele>
        <time>2021-03-27T13:16:55Z</time>
      </trkpt>
      <trkpt lat="40.315493" lon="-5.611392">
        <ele>1140.58</ele>
        <time>2021-03-27T13:16:57Z</time>
      </trkpt>
      <trkpt lat="40.315549" lon="-5.611367">
        <ele>1140.8</ele>
        <time>2021-03-27T13:16:59Z</time>
      </trkpt>
      <trkpt lat="40.315773" lon="-5.611248">
        <ele>1141.94</ele>
        <time>2021-03-27T13:17:01Z</time>
      </trkpt>
      <trkpt lat="40.315939" lon="-5.611137">
        <ele>1142.88</ele>
        <time>2021-03-27T13:17:03Z</time>
      </trkpt>
      <trkpt lat="40.316751" lon="-5.610843">
        <ele>1150.36</ele>
        <time>2021-03-27T13:17:05Z</time>
      </trkpt>
      <trkpt lat="40.317082" lon="-5.610516">
        <ele>1150.85</ele>
        <time>2021-03-27T13:17:07Z</time>
      </trkpt>
      <trkpt lat="40.317299" lon="-5.610344">
        <ele>1150.79</ele>
        <time>2021-03-27T13:17:09Z</time>
      </trkpt>
      <trkpt lat="40.317578" lon="-5.610218">
        <ele>1152.58</ele>
        <time>2021-03-27T13:17:11Z</time>
      </trkpt>
      <trkpt lat="40.318091" lon="-5.610082">
        <ele>1155.84</ele>
        <time>2021-03-27T13:17:13Z</time>
      </trkpt>
      <trkpt lat="40.318794" lon="-5.609682">
        <ele>1159.67</ele>
        <time>2021-03-27T13:17:15Z</time>
      </trkpt>
      <trkpt lat="40.319007" lon="-5.609518">
        <ele>1161.61</ele>
        <time>2021-03-27T13:17:17Z</time>
      </trkpt>
      <trkpt lat="40.320464" lon="-5.607998">
        <ele>1169.72</ele>
        <time>2021-03-27T13:17:20Z</time>
      </trkpt>
      <trkpt lat="40.32061" lon="-5.607918">
        <ele>1169.52</ele>
        <time>2021-03-27T13:17:22Z</time>
      </trkpt>
      <trkpt lat="40.320737" lon="-5.607924">
        <ele>1169.58</ele>
        <time>2021-03-27T13:17:24Z</time>
      </trkpt>
      <trkpt lat="40.320898" lon="-5.608017">
        <ele>1170.15</ele>
        <time>2021-03-27T13:17:26Z</time>
      </trkpt>
      <trkpt lat="40.321061" lon="-5.608077">
        <ele>1169.58</ele>
        <time>2021-03-27T13:17:28Z</time>
      </trkpt>
      <trkpt lat="40.32119" lon="-5.608069">
        <ele>1169.43</ele>
        <time>2021-03-27T13:17:30Z</time>
      </trkpt>
      <trkpt lat="40.321419" lon="-5.607932">
        <ele>1169.21</ele>
        <time>2021-03-27T13:17:32Z</time>
      </trkpt>
      <trkpt lat="40.321624" lon="-5.607724">
        <ele>1170.65</ele>
        <time>2021-03-27T13:17:34Z</time>
      </trkpt>
      <trkpt lat="40.321763" lon="-5.607478">
        <ele>1170.08</ele>
        <time>2021-03-27T13:17:36Z</time>
      </trkpt>
      <trkpt lat="40.322074" lon="-5.607035">
        <ele>1168.17</ele>
        <time>2021-03-27T13:17:38Z</time>
      </trkpt>
      <trkpt lat="40.322856" lon="-5.60575">
        <ele>1170.14</ele>
        <time>2021-03-27T13:17:40Z</time>
      </trkpt>
      <trkpt lat="40.323235" lon="-5.60532">
        <ele>1170.6</ele>
        <time>2021-03-27T13:17:42Z</time>
      </trkpt>
      <trkpt lat="40.323603" lon="-5.604978">
        <ele>1173.8</ele>
        <time>2021-03-27T13:17:44Z</time>
      </trkpt>
      <trkpt lat="40.32424" lon="-5.604672">
        <ele>1179.16</ele>
        <time>2021-03-27T13:17:46Z</time>
      </trkpt>
      <trkpt lat="40.325206" lon="-5.603931">
        <ele>1183.09</ele>
        <time>2021-03-27T13:17:48Z</time>
      </trkpt>
      <trkpt lat="40.325394" lon="-5.60383">
        <ele>1184.81</ele>
        <time>2021-03-27T13:17:50Z</time>
      </trkpt>
      <trkpt lat="40.325642" lon="-5.603764">
        <ele>1187.54</ele>
        <time>2021-03-27T13:17:52Z</time>
      </trkpt>
      <trkpt lat="40.326322" lon="-5.603715">
        <ele>1189.75</ele>
        <time>2021-03-27T13:17:54Z</time>
      </trkpt>
      <trkpt lat="40.326534" lon="-5.603747">
        <ele>1189.38</ele>
        <time>2021-03-27T13:17:56Z</time>
      </trkpt>
      <trkpt lat="40.327039" lon="-5.604007">
        <ele>1196.41</ele>
        <time>2021-03-27T13:17:58Z</time>
      </trkpt>
      <trkpt lat="40.327193" lon="-5.604018">
        <ele>1196.73</ele>
        <time>2021-03-27T13:18:00Z</time>
      </trkpt>
      <trkpt lat="40.327833" lon="-5.603931">
        <ele>1198.48</ele>
        <time>2021-03-27T13:18:02Z</time>
      </trkpt>
      <trkpt lat="40.328154" lon="-5.603961">
        <ele>1202.14</ele>
        <time>2021-03-27T13:18:04Z</time>
      </trkpt>
      <trkpt lat="40.328909" lon="-5.604125">
        <ele>1209.03</ele>
        <time>2021-03-27T13:18:06Z</time>
      </trkpt>
      <trkpt lat="40.32913" lon="-5.604292">
        <ele>1211.5</ele>
        <time>2021-03-27T13:18:08Z</time>
      </trkpt>
      <trkpt lat="40.329357" lon="-5.604335">
        <ele>1212.31</ele>
        <time>2021-03-27T13:18:10Z</time>
      </trkpt>
      <trkpt lat="40.329518" lon="-5.604341">
        <ele>1213.21</ele>
        <time>2021-03-27T13:18:12Z</time>
      </trkpt>
      <trkpt lat="40.329656" lon="-5.604264">
        <ele>1213.19</ele>
        <time>2021-03-27T13:18:14Z</time>
      </trkpt>
      <trkpt lat="40.330071" lon="-5.603879">
        <ele>1214.92</ele>
        <time>2021-03-27T13:18:16Z</time>
      </trkpt>
      <trkpt lat="40.330327" lon="-5.603726">
        <ele>1215.49</ele>
        <time>2021-03-27T13:18:18Z</time>
      </trkpt>
      <trkpt lat="40.330734" lon="-5.603616">
        <ele>1217.04</ele>
        <time>2021-03-27T13:18:20Z</time>
      </trkpt>
      <trkpt lat="40.330863" lon="-5.603608">
        <ele>1217.93</ele>
        <time>2021-03-27T13:18:22Z</time>
      </trkpt>
      <trkpt lat="40.330988" lon="-5.603649">
        <ele>1219.19</ele>
        <time>2021-03-27T13:18:24Z</time>
      </trkpt>
      <trkpt lat="40.331472" lon="-5.603903">
        <ele>1224.54</ele>
        <time>2021-03-27T13:18:26Z</time>
      </trkpt>
      <trkpt lat="40.332429" lon="-5.604431">
        <ele>1225.84</ele>
        <time>2021-03-27T13:18:28Z</time>
      </trkpt>
      <trkpt lat="40.332948" lon="-5.604576">
        <ele>1228.01</ele>
        <time>2021-03-27T13:18:30Z</time>
      </trkpt>
      <trkpt lat="40.33309" lon="-5.604584">
        <ele>1228.91</ele>
        <time>2021-03-27T13:18:32Z</time>
      </trkpt>
      <trkpt lat="40.33325" lon="-5.604524">
        <ele>1228.56</ele>
        <time>2021-03-27T13:18:34Z</time>
      </trkpt>
      <trkpt lat="40.333415" lon="-5.604387">
        <ele>1227.62</ele>
        <time>2021-03-27T13:18:36Z</time>
      </trkpt>
      <trkpt lat="40.333729" lon="-5.603966">
        <ele>1226.26</ele>
        <time>2021-03-27T13:18:38Z</time>
      </trkpt>
      <trkpt lat="40.333861" lon="-5.60384">
        <ele>1227.95</ele>
        <time>2021-03-27T13:18:40Z</time>
      </trkpt>
      <trkpt lat="40.334726" lon="-5.603291">
        <ele>1236.15</ele>
        <time>2021-03-27T13:18:42Z</time>
      </trkpt>
      <trkpt lat="40.334851" lon="-5.603288">
        <ele>1236.16</ele>
        <time>2021-03-27T13:18:45Z</time>
      </trkpt>
      <trkpt lat="40.334964" lon="-5.603351">
        <ele>1236.06</ele>
        <time>2021-03-27T13:18:47Z</time>
      </trkpt>
      <trkpt lat="40.335118" lon="-5.603512">
        <ele>1236.22</ele>
        <time>2021-03-27T13:18:49Z</time>
      </trkpt>
      <trkpt lat="40.335258" lon="-5.603687">
        <ele>1237.4</ele>
        <time>2021-03-27T13:18:51Z</time>
      </trkpt>
      <trkpt lat="40.335383" lon="-5.603879">
        <ele>1240.05</ele>
        <time>2021-03-27T13:18:53Z</time>
      </trkpt>
      <trkpt lat="40.336021" lon="-5.604625">
        <ele>1246.77</ele>
        <time>2021-03-27T13:18:55Z</time>
      </trkpt>
      <trkpt lat="40.336331" lon="-5.605165">
        <ele>1245.71</ele>
        <time>2021-03-27T13:18:57Z</time>
      </trkpt>
      <trkpt lat="40.336402" lon="-5.605353">
        <ele>1246.98</ele>
        <time>2021-03-27T13:18:59Z</time>
      </trkpt>
      <trkpt lat="40.336453" lon="-5.605552">
        <ele>1249.48</ele>
        <time>2021-03-27T13:19:01Z</time>
      </trkpt>
      <trkpt lat="40.3365" lon="-5.605666">
        <ele>1250.87</ele>
        <time>2021-03-27T13:19:03Z</time>
      </trkpt>
      <trkpt lat="40.336567" lon="-5.605742">
        <ele>1251.22</ele>
        <time>2021-03-27T13:19:05Z</time>
      </trkpt>
      <trkpt lat="40.336678" lon="-5.605782">
        <ele>1250.44</ele>
        <time>2021-03-27T13:19:07Z</time>
      </trkpt>
      <trkpt lat="40.33687" lon="-5.605791">
        <ele>1250.54</ele>
        <time>2021-03-27T13:19:09Z</time>
      </trkpt>
      <trkpt lat="40.337068" lon="-5.60576">
        <ele>1249.88</ele>
        <time>2021-03-27T13:19:11Z</time>
      </trkpt>
      <trkpt lat="40.33727" lon="-5.605702">
        <ele>1248.88</ele>
        <time>2021-03-27T13:19:13Z</time>
      </trkpt>
      <trkpt lat="40.337552" lon="-5.605524">
        <ele>1246.49</ele>
        <time>2021-03-27T13:19:15Z</time>
      </trkpt>
      <trkpt lat="40.337594" lon="-5.605528">
        <ele>1246.19</ele>
        <time>2021-03-27T13:19:17Z</time>
      </trkpt>
      <trkpt lat="40.337625" lon="-5.605557">
        <ele>1246.11</ele>
        <time>2021-03-27T13:19:19Z</time>
      </trkpt>
      <trkpt lat="40.337757" lon="-5.605827">
        <ele>1247.1</ele>
        <time>2021-03-27T13:19:21Z</time>
      </trkpt>
      <trkpt lat="40.337836" lon="-5.605937">
        <ele>1247.91</ele>
        <time>2021-03-27T13:19:23Z</time>
      </trkpt>
      <trkpt lat="40.337895" lon="-5.605985">
        <ele>1248.22</ele>
        <time>2021-03-27T13:19:25Z</time>
      </trkpt>
      <trkpt lat="40.338138" lon="-5.606036">
        <ele>1246.78</ele>
        <time>2021-03-27T13:19:27Z</time>
      </trkpt>
      <trkpt lat="40.338323" lon="-5.606128">
        <ele>1244.31</ele>
        <time>2021-03-27T13:19:29Z</time>
      </trkpt>
      <trkpt lat="40.338547" lon="-5.606367">
        <ele>1242.06</ele>
        <time>2021-03-27T13:19:31Z</time>
      </trkpt>
      <trkpt lat="40.338727" lon="-5.606672">
        <ele>1237.5</ele>
        <time>2021-03-27T13:19:33Z</time>
      </trkpt>
      <trkpt lat="40.338821" lon="-5.606932">
        <ele>1236.19</ele>
        <time>2021-03-27T13:19:35Z</time>
      </trkpt>
      <trkpt lat="40.338894" lon="-5.607363">
        <ele>1236.93</ele>
        <time>2021-03-27T13:19:37Z</time>
      </trkpt>
      <trkpt lat="40.338985" lon="-5.607557">
        <ele>1237.31</ele>
        <time>2021-03-27T13:19:39Z</time>
      </trkpt>
      <trkpt lat="40.339092" lon="-5.607588">
        <ele>1236.64</ele>
        <time>2021-03-27T13:19:41Z</time>
      </trkpt>
      <trkpt lat="40.339225" lon="-5.60752">
        <ele>1233.98</ele>
        <time>2021-03-27T13:19:43Z</time>
      </trkpt>
      <trkpt lat="40.339363" lon="-5.607356">
        <ele>1231.03</ele>
        <time>2021-03-27T13:19:45Z</time>
      </trkpt>
      <trkpt lat="40.3396" lon="-5.607154">
        <ele>1228.82</ele>
        <time>2021-03-27T13:19:47Z</time>
      </trkpt>
      <trkpt lat="40.340022" lon="-5.606935">
        <ele>1225.44</ele>
        <time>2021-03-27T13:19:49Z</time>
      </trkpt>
      <trkpt lat="40.340158" lon="-5.606921">
        <ele>1222.84</ele>
        <time>2021-03-27T13:19:51Z</time>
      </trkpt>
      <trkpt lat="40.340262" lon="-5.606973">
        <ele>1221.6</ele>
        <time>2021-03-27T13:19:53Z</time>
      </trkpt>
      <trkpt lat="40.340332" lon="-5.607089">
        <ele>1221.97</ele>
        <time>2021-03-27T13:19:55Z</time>
      </trkpt>
      <trkpt lat="40.340389" lon="-5.6074">
        <ele>1225.35</ele>
        <time>2021-03-27T13:19:57Z</time>
      </trkpt>
      <trkpt lat="40.340455" lon="-5.607492">
        <ele>1225.98</ele>
        <time>2021-03-27T13:19:59Z</time>
      </trkpt>
      <trkpt lat="40.340569" lon="-5.607513">
        <ele>1225.14</ele>
        <time>2021-03-27T13:20:01Z</time>
      </trkpt>
      <trkpt lat="40.341059" lon="-5.60727">
        <ele>1217.05</ele>
        <time>2021-03-27T13:20:03Z</time>
      </trkpt>
      <trkpt lat="40.341208" lon="-5.607267">
        <ele>1214.21</ele>
        <time>2021-03-27T13:20:05Z</time>
      </trkpt>
      <trkpt lat="40.341346" lon="-5.607325">
        <ele>1212.43</ele>
        <time>2021-03-27T13:20:08Z</time>
      </trkpt>
      <trkpt lat="40.341575" lon="-5.607571">
        <ele>1212.08</ele>
        <time>2021-03-27T13:20:10Z</time>
      </trkpt>
      <trkpt lat="40.341695" lon="-5.607609">
        <ele>1210.99</ele>
        <time>2021-03-27T13:20:12Z</time>
      </trkpt>
      <trkpt lat="40.341776" lon="-5.607581">
        <ele>1211.37</ele>
        <time>2021-03-27T13:20:14Z</time>
      </trkpt>
      <trkpt lat="40.341927" lon="-5.607397">
        <ele>1211.48</ele>
        <time>2021-03-27T13:20:16Z</time>
      </trkpt>
      <trkpt lat="40.342003" lon="-5.60726">
        <ele>1212.33</ele>
        <time>2021-03-27T13:20:18Z</time>
      </trkpt>
      <trkpt lat="40.342" lon="-5.60712">
        <ele>1212.94</ele>
        <time>2021-03-27T13:20:20Z</time>
      </trkpt>
      <trkpt lat="40.341841" lon="-5.606692">
        <ele>1213.68</ele>
        <time>2021-03-27T13:20:22Z</time>
      </trkpt>
      <trkpt lat="40.341677" lon="-5.606361">
        <ele>1213.87</ele>
        <time>2021-03-27T13:20:24Z</time>
      </trkpt>
      <trkpt lat="40.341314" lon="-5.606005">
        <ele>1211.25</ele>
        <time>2021-03-27T13:20:26Z</time>
      </trkpt>
      <trkpt lat="40.341059" lon="-5.605585">
        <ele>1207.71</ele>
        <time>2021-03-27T13:20:28Z</time>
      </trkpt>
      <trkpt lat="40.341046" lon="-5.605373">
        <ele>1207.71</ele>
        <time>2021-03-27T13:20:30Z</time>
      </trkpt>
      <trkpt lat="40.341083" lon="-5.605106">
        <ele>1209.08</ele>
        <time>2021-03-27T13:20:32Z</time>
      </trkpt>
      <trkpt lat="40.341356" lon="-5.604501">
        <ele>1212.93</ele>
        <time>2021-03-27T13:20:34Z</time>
      </trkpt>
      <trkpt lat="40.34164" lon="-5.60408">
        <ele>1218.8</ele>
        <time>2021-03-27T13:20:36Z</time>
      </trkpt>
      <trkpt lat="40.342021" lon="-5.60327">
        <ele>1219.95</ele>
        <time>2021-03-27T13:20:38Z</time>
      </trkpt>
      <trkpt lat="40.342159" lon="-5.602771">
        <ele>1215.54</ele>
        <time>2021-03-27T13:20:40Z</time>
      </trkpt>
      <trkpt lat="40.342234" lon="-5.602597">
        <ele>1214.64</ele>
        <time>2021-03-27T13:20:42Z</time>
      </trkpt>
      <trkpt lat="40.342646" lon="-5.602152">
        <ele>1217.62</ele>
        <time>2021-03-27T13:20:44Z</time>
      </trkpt>
      <trkpt lat="40.34305" lon="-5.601903">
        <ele>1221.3</ele>
        <time>2021-03-27T13:20:46Z</time>
      </trkpt>
      <trkpt lat="40.343308" lon="-5.601783">
        <ele>1223.69</ele>
        <time>2021-03-27T13:20:48Z</time>
      </trkpt>
      <trkpt lat="40.343949" lon="-5.601742">
        <ele>1227.45</ele>
        <time>2021-03-27T13:20:50Z</time>
      </trkpt>
      <trkpt lat="40.344293" lon="-5.601571">
        <ele>1225.86</ele>
        <time>2021-03-27T13:20:52Z</time>
      </trkpt>
      <trkpt lat="40.344882" lon="-5.601164">
        <ele>1233.56</ele>
        <time>2021-03-27T13:20:54Z</time>
      </trkpt>
      <trkpt lat="40.345606" lon="-5.600347">
        <ele>1233.01</ele>
        <time>2021-03-27T13:20:56Z</time>
      </trkpt>
      <trkpt lat="40.345762" lon="-5.600204">
        <ele>1234.16</ele>
        <time>2021-03-27T13:20:58Z</time>
      </trkpt>
      <trkpt lat="40.346312" lon="-5.59994">
        <ele>1238.82</ele>
        <time>2021-03-27T13:21:00Z</time>
      </trkpt>
      <trkpt lat="40.346912" lon="-5.599578">
        <ele>1239.07</ele>
        <time>2021-03-27T13:21:02Z</time>
      </trkpt>
      <trkpt lat="40.346998" lon="-5.599542">
        <ele>1239.17</ele>
        <time>2021-03-27T13:21:04Z</time>
      </trkpt>
      <trkpt lat="40.347152" lon="-5.599515">
        <ele>1240.41</ele>
        <time>2021-03-27T13:21:06Z</time>
      </trkpt>
      <trkpt lat="40.347099" lon="-5.599585">
        <ele>1241.78</ele>
        <time>2021-03-27T13:21:08Z</time>
      </trkpt>
      <trkpt lat="40.346849" lon="-5.599719">
        <ele>1242.24</ele>
        <time>2021-03-27T13:21:10Z</time>
      </trkpt>
      <trkpt lat="40.346558" lon="-5.599949">
        <ele>1243.14</ele>
        <time>2021-03-27T13:21:12Z</time>
      </trkpt>
      <trkpt lat="40.346035" lon="-5.600428">
        <ele>1245.86</ele>
        <time>2021-03-27T13:21:14Z</time>
      </trkpt>
      <trkpt lat="40.345869" lon="-5.600632">
        <ele>1247.92</ele>
        <time>2021-03-27T13:21:15Z</time>
      </trkpt>
      <trkpt lat="40.345634" lon="-5.600973">
        <ele>1247.62</ele>
        <time>2021-03-27T13:21:17Z</time>
      </trkpt>
      <trkpt lat="40.345531" lon="-5.601161">
        <ele>1248.96</ele>
        <time>2021-03-27T13:21:19Z</time>
      </trkpt>
      <trkpt lat="40.344477" lon="-5.603331">
        <ele>1270.87</ele>
        <time>2021-03-27T13:21:21Z</time>
      </trkpt>
      <trkpt lat="40.344355" lon="-5.603643">
        <ele>1273.64</ele>
        <time>2021-03-27T13:21:23Z</time>
      </trkpt>
      <trkpt lat="40.344254" lon="-5.604068">
        <ele>1278.86</ele>
        <time>2021-03-27T13:21:25Z</time>
      </trkpt>
      <trkpt lat="40.344196" lon="-5.604497">
        <ele>1282.66</ele>
        <time>2021-03-27T13:21:26Z</time>
      </trkpt>
      <trkpt lat="40.344196" lon="-5.604785">
        <ele>1284.11</ele>
        <time>2021-03-27T13:21:28Z</time>
      </trkpt>
      <trkpt lat="40.344263" lon="-5.605126">
        <ele>1286.29</ele>
        <time>2021-03-27T13:21:30Z</time>
      </trkpt>
      <trkpt lat="40.344321" lon="-5.605292">
        <ele>1288.57</ele>
        <time>2021-03-27T13:21:32Z</time>
      </trkpt>
      <trkpt lat="40.344498" lon="-5.60563">
        <ele>1294.35</ele>
        <time>2021-03-27T13:21:34Z</time>
      </trkpt>
      <trkpt lat="40.344787" lon="-5.60601">
        <ele>1297.09</ele>
        <time>2021-03-27T13:21:36Z</time>
      </trkpt>
      <trkpt lat="40.344826" lon="-5.606035">
        <ele>1298.35</ele>
        <time>2021-03-27T13:21:37Z</time>
      </trkpt>
      <trkpt lat="40.344854" lon="-5.606028">
        <ele>1299.61</ele>
        <time>2021-03-27T13:21:39Z</time>
      </trkpt>
      <trkpt lat="40.344885" lon="-5.605972">
        <ele>1301.44</ele>
        <time>2021-03-27T13:21:41Z</time>
      </trkpt>
      <trkpt lat="40.344672" lon="-5.605436">
        <ele>1300.23</ele>
        <time>2021-03-27T13:21:43Z</time>
      </trkpt>
      <trkpt lat="40.344685" lon="-5.605357">
        <ele>1301.59</ele>
        <time>2021-03-27T13:21:45Z</time>
      </trkpt>
      <trkpt lat="40.344737" lon="-5.605328">
        <ele>1303.81</ele>
        <time>2021-03-27T13:21:47Z</time>
      </trkpt>
      <trkpt lat="40.344769" lon="-5.605352">
        <ele>1304.66</ele>
        <time>2021-03-27T13:21:48Z</time>
      </trkpt>
      <trkpt lat="40.344905" lon="-5.605617">
        <ele>1306.44</ele>
        <time>2021-03-27T13:21:50Z</time>
      </trkpt>
      <trkpt lat="40.345013" lon="-5.605785">
        <ele>1308.14</ele>
        <time>2021-03-27T13:21:52Z</time>
      </trkpt>
      <trkpt lat="40.345184" lon="-5.605974">
        <ele>1311.61</ele>
        <time>2021-03-27T13:21:54Z</time>
      </trkpt>
      <trkpt lat="40.346086" lon="-5.606682">
        <ele>1326.92</ele>
        <time>2021-03-27T13:21:56Z</time>
      </trkpt>
      <trkpt lat="40.346138" lon="-5.606748">
        <ele>1327.3</ele>
        <time>2021-03-27T13:21:58Z</time>
      </trkpt>
      <trkpt lat="40.346185" lon="-5.606846">
        <ele>1326.89</ele>
        <time>2021-03-27T13:21:59Z</time>
      </trkpt>
      <trkpt lat="40.346261" lon="-5.607105">
        <ele>1326.2</ele>
        <time>2021-03-27T13:22:01Z</time>
      </trkpt>
      <trkpt lat="40.346282" lon="-5.607329">
        <ele>1326.6</ele>
        <time>2021-03-27T13:22:03Z</time>
      </trkpt>
      <trkpt lat="40.346368" lon="-5.607696">
        <ele>1330.88</ele>
        <time>2021-03-27T13:22:05Z</time>
      </trkpt>
      <trkpt lat="40.346355" lon="-5.607877">
        <ele>1331.87</ele>
        <time>2021-03-27T13:22:07Z</time>
      </trkpt>
      <trkpt lat="40.346268" lon="-5.608115">
        <ele>1331.27</ele>
        <time>2021-03-27T13:22:09Z</time>
      </trkpt>
      <trkpt lat="40.346242" lon="-5.608229">
        <ele>1331.26</ele>
        <time>2021-03-27T13:22:10Z</time>
      </trkpt>
      <trkpt lat="40.346232" lon="-5.608519">
        <ele>1333.33</ele>
        <time>2021-03-27T13:22:12Z</time>
      </trkpt>
      <trkpt lat="40.346254" lon="-5.608808">
        <ele>1337.41</ele>
        <time>2021-03-27T13:22:14Z</time>
      </trkpt>
      <trkpt lat="40.346389" lon="-5.609858">
        <ele>1342.53</ele>
        <time>2021-03-27T13:22:16Z</time>
      </trkpt>
      <trkpt lat="40.346424" lon="-5.610656">
        <ele>1344.81</ele>
        <time>2021-03-27T13:22:18Z</time>
      </trkpt>
      <trkpt lat="40.346497" lon="-5.611186">
        <ele>1347.83</ele>
        <time>2021-03-27T13:22:20Z</time>
      </trkpt>
      <trkpt lat="40.346559" lon="-5.611411">
        <ele>1350.15</ele>
        <time>2021-03-27T13:22:21Z</time>
      </trkpt>
      <trkpt lat="40.346701" lon="-5.611796">
        <ele>1351.66</ele>
        <time>2021-03-27T13:22:23Z</time>
      </trkpt>
      <trkpt lat="40.346777" lon="-5.611923">
        <ele>1352.44</ele>
        <time>2021-03-27T13:22:25Z</time>
      </trkpt>
      <trkpt lat="40.346984" lon="-5.612185">
        <ele>1353.76</ele>
        <time>2021-03-27T13:22:27Z</time>
      </trkpt>
      <trkpt lat="40.347061" lon="-5.612313">
        <ele>1354.37</ele>
        <time>2021-03-27T13:22:29Z</time>
      </trkpt>
      <trkpt lat="40.347255" lon="-5.612848">
        <ele>1358.72</ele>
        <time>2021-03-27T13:22:31Z</time>
      </trkpt>
      <trkpt lat="40.347461" lon="-5.613251">
        <ele>1362.13</ele>
        <time>2021-03-27T13:22:32Z</time>
      </trkpt>
      <trkpt lat="40.34793" lon="-5.613952">
        <ele>1365.71</ele>
        <time>2021-03-27T13:22:34Z</time>
      </trkpt>
      <trkpt lat="40.34797" lon="-5.614044">
        <ele>1366.45</ele>
        <time>2021-03-27T13:22:36Z</time>
      </trkpt>
      <trkpt lat="40.348071" lon="-5.614404">
        <ele>1367.47</ele>
        <time>2021-03-27T13:22:38Z</time>
      </trkpt>
      <trkpt lat="40.348199" lon="-5.614715">
        <ele>1369.13</ele>
        <time>2021-03-27T13:22:40Z</time>
      </trkpt>
      <trkpt lat="40.348369" lon="-5.614953">
        <ele>1372.82</ele>
        <time>2021-03-27T13:22:42Z</time>
      </trkpt>
      <trkpt lat="40.348498" lon="-5.615067">
        <ele>1375.19</ele>
        <time>2021-03-27T13:22:43Z</time>
      </trkpt>
      <trkpt lat="40.348521" lon="-5.61506">
        <ele>1375.7</ele>
        <time>2021-03-27T13:22:45Z</time>
      </trkpt>
      <trkpt lat="40.348548" lon="-5.615005">
        <ele>1376.61</ele>
        <time>2021-03-27T13:22:47Z</time>
      </trkpt>
      <trkpt lat="40.34846" lon="-5.613701">
        <ele>1383.11</ele>
        <time>2021-03-27T13:22:49Z</time>
      </trkpt>
      <trkpt lat="40.348434" lon="-5.613555">
        <ele>1384.43</ele>
        <time>2021-03-27T13:22:51Z</time>
      </trkpt>
      <trkpt lat="40.348206" lon="-5.612847">
        <ele>1387.9</ele>
        <time>2021-03-27T13:22:53Z</time>
      </trkpt>
      <trkpt lat="40.348171" lon="-5.612682">
        <ele>1388.87</ele>
        <time>2021-03-27T13:22:54Z</time>
      </trkpt>
      <trkpt lat="40.347999" lon="-5.611537">
        <ele>1394.57</ele>
        <time>2021-03-27T13:22:56Z</time>
      </trkpt>
      <trkpt lat="40.347802" lon="-5.610988">
        <ele>1399.64</ele>
        <time>2021-03-27T13:22:58Z</time>
      </trkpt>
      <trkpt lat="40.347684" lon="-5.610545">
        <ele>1398.27</ele>
        <time>2021-03-27T13:23:00Z</time>
      </trkpt>
      <trkpt lat="40.347654" lon="-5.610326">
        <ele>1397.12</ele>
        <time>2021-03-27T13:23:02Z</time>
      </trkpt>
      <trkpt lat="40.347664" lon="-5.610258">
        <ele>1397.58</ele>
        <time>2021-03-27T13:23:04Z</time>
      </trkpt>
      <trkpt lat="40.347725" lon="-5.610163">
        <ele>1400.06</ele>
        <time>2021-03-27T13:23:05Z</time>
      </trkpt>
      <trkpt lat="40.347756" lon="-5.610156">
        <ele>1401.53</ele>
        <time>2021-03-27T13:23:07Z</time>
      </trkpt>
      <trkpt lat="40.347807" lon="-5.610196">
        <ele>1403.92</ele>
        <time>2021-03-27T13:23:09Z</time>
      </trkpt>
      <trkpt lat="40.348031" lon="-5.610672">
        <ele>1410.73</ele>
        <time>2021-03-27T13:23:11Z</time>
      </trkpt>
      <trkpt lat="40.348239" lon="-5.611057">
        <ele>1411.52</ele>
        <time>2021-03-27T13:23:13Z</time>
      </trkpt>
      <trkpt lat="40.34948" lon="-5.613192">
        <ele>1428.48</ele>
        <time>2021-03-27T13:23:15Z</time>
      </trkpt>
      <trkpt lat="40.349593" lon="-5.613348">
        <ele>1429.54</ele>
        <time>2021-03-27T13:23:16Z</time>
      </trkpt>
      <trkpt lat="40.350162" lon="-5.613903">
        <ele>1436.78</ele>
        <time>2021-03-27T13:23:18Z</time>
      </trkpt>
      <trkpt lat="40.350376" lon="-5.614049">
        <ele>1438.52</ele>
        <time>2021-03-27T13:23:20Z</time>
      </trkpt>
      <trkpt lat="40.35142" lon="-5.614517">
        <ele>1452.42</ele>
        <time>2021-03-27T13:23:22Z</time>
      </trkpt>
      <trkpt lat="40.351984" lon="-5.614678">
        <ele>1455.34</ele>
        <time>2021-03-27T13:23:24Z</time>
      </trkpt>
      <trkpt lat="40.352118" lon="-5.614737">
        <ele>1457.11</ele>
        <time>2021-03-27T13:23:26Z</time>
      </trkpt>
      <trkpt lat="40.352349" lon="-5.614878">
        <ele>1462.37</ele>
        <time>2021-03-27T13:23:27Z</time>
      </trkpt>
      <trkpt lat="40.352442" lon="-5.61496">
        <ele>1465.07</ele>
        <time>2021-03-27T13:23:29Z</time>
      </trkpt>
      <trkpt lat="40.352493" lon="-5.615081">
        <ele>1466.39</ele>
        <time>2021-03-27T13:23:31Z</time>
      </trkpt>
      <trkpt lat="40.352493" lon="-5.615301">
        <ele>1467.16</ele>
        <time>2021-03-27T13:23:33Z</time>
      </trkpt>
      <trkpt lat="40.352349" lon="-5.615668">
        <ele>1467.19</ele>
        <time>2021-03-27T13:23:35Z</time>
      </trkpt>
      <trkpt lat="40.352225" lon="-5.616132">
        <ele>1470.24</ele>
        <time>2021-03-27T13:23:37Z</time>
      </trkpt>
      <trkpt lat="40.352088" lon="-5.61704">
        <ele>1472.58</ele>
        <time>2021-03-27T13:23:38Z</time>
      </trkpt>
      <trkpt lat="40.35207" lon="-5.617265">
        <ele>1471.97</ele>
        <time>2021-03-27T13:23:40Z</time>
      </trkpt>
      <trkpt lat="40.352084" lon="-5.617442">
        <ele>1470.92</ele>
        <time>2021-03-27T13:23:42Z</time>
      </trkpt>
      <trkpt lat="40.352182" lon="-5.61771">
        <ele>1471.35</ele>
        <time>2021-03-27T13:23:44Z</time>
      </trkpt>
      <trkpt lat="40.352297" lon="-5.617896">
        <ele>1473.77</ele>
        <time>2021-03-27T13:23:46Z</time>
      </trkpt>
      <trkpt lat="40.352895" lon="-5.618512">
        <ele>1487.2</ele>
        <time>2021-03-27T13:23:48Z</time>
      </trkpt>
      <trkpt lat="40.353251" lon="-5.618779">
        <ele>1490.71</ele>
        <time>2021-03-27T13:23:49Z</time>
      </trkpt>
      <trkpt lat="40.353301" lon="-5.618852">
        <ele>1490.81</ele>
        <time>2021-03-27T13:23:51Z</time>
      </trkpt>
      <trkpt lat="40.353288" lon="-5.618953">
        <ele>1490.42</ele>
        <time>2021-03-27T13:23:53Z</time>
      </trkpt>
      <trkpt lat="40.353048" lon="-5.61935">
        <ele>1490.31</ele>
        <time>2021-03-27T13:23:55Z</time>
      </trkpt>
      <trkpt lat="40.352879" lon="-5.619536">
        <ele>1493.53</ele>
        <time>2021-03-27T13:23:57Z</time>
      </trkpt>
      <trkpt lat="40.352747" lon="-5.619607">
        <ele>1495.26</ele>
        <time>2021-03-27T13:23:59Z</time>
      </trkpt>
      <trkpt lat="40.352644" lon="-5.619635">
        <ele>1496.86</ele>
        <time>2021-03-27T13:24:00Z</time>
      </trkpt>
      <trkpt lat="40.352604" lon="-5.619663">
        <ele>1497.82</ele>
        <time>2021-03-27T13:24:02Z</time>
      </trkpt>
      <trkpt lat="40.352573" lon="-5.619721">
        <ele>1499.18</ele>
        <time>2021-03-27T13:24:04Z</time>
      </trkpt>
      <trkpt lat="40.352586" lon="-5.619806">
        <ele>1499.77</ele>
        <time>2021-03-27T13:24:06Z</time>
      </trkpt>
      <trkpt lat="40.352765" lon="-5.620244">
        <ele>1501.81</ele>
        <time>2021-03-27T13:24:09Z</time>
      </trkpt>
      <trkpt lat="40.352827" lon="-5.620284">
        <ele>1502.07</ele>
        <time>2021-03-27T13:24:10Z</time>
      </trkpt>
      <trkpt lat="40.353174" lon="-5.620367">
        <ele>1503.98</ele>
        <time>2021-03-27T13:24:12Z</time>
      </trkpt>
      <trkpt lat="40.353553" lon="-5.620329">
        <ele>1506.33</ele>
        <time>2021-03-27T13:24:13Z</time>
      </trkpt>
      <trkpt lat="40.353732" lon="-5.620288">
        <ele>1506.65</ele>
        <time>2021-03-27T13:24:15Z</time>
      </trkpt>
      <trkpt lat="40.354119" lon="-5.62032">
        <ele>1509.45</ele>
        <time>2021-03-27T13:24:17Z</time>
      </trkpt>
      <trkpt lat="40.354222" lon="-5.620298">
        <ele>1510.72</ele>
        <time>2021-03-27T13:24:18Z</time>
      </trkpt>
      <trkpt lat="40.354267" lon="-5.620255">
        <ele>1511.42</ele>
        <time>2021-03-27T13:24:20Z</time>
      </trkpt>
      <trkpt lat="40.354347" lon="-5.620116">
        <ele>1512.59</ele>
        <time>2021-03-27T13:24:21Z</time>
      </trkpt>
      <trkpt lat="40.354511" lon="-5.619609">
        <ele>1513.03</ele>
        <time>2021-03-27T13:24:23Z</time>
      </trkpt>
      <trkpt lat="40.354638" lon="-5.619377">
        <ele>1515.43</ele>
        <time>2021-03-27T13:24:25Z</time>
      </trkpt>
      <trkpt lat="40.354669" lon="-5.619259">
        <ele>1516.51</ele>
        <time>2021-03-27T13:24:26Z</time>
      </trkpt>
      <trkpt lat="40.354669" lon="-5.61918">
        <ele>1516.8</ele>
        <time>2021-03-27T13:24:28Z</time>
      </trkpt>
      <trkpt lat="40.354648" lon="-5.619105">
        <ele>1516.97</ele>
        <time>2021-03-27T13:24:29Z</time>
      </trkpt>
      <trkpt lat="40.354369" lon="-5.618471">
        <ele>1520.88</ele>
        <time>2021-03-27T13:24:31Z</time>
      </trkpt>
      <trkpt lat="40.35422" lon="-5.6182">
        <ele>1520.4</ele>
        <time>2021-03-27T13:24:32Z</time>
      </trkpt>
      <trkpt lat="40.353998" lon="-5.617856">
        <ele>1517.58</ele>
        <time>2021-03-27T13:24:34Z</time>
      </trkpt>
      <trkpt lat="40.353969" lon="-5.617783">
        <ele>1517.55</ele>
        <time>2021-03-27T13:24:36Z</time>
      </trkpt>
      <trkpt lat="40.353925" lon="-5.617559">
        <ele>1519.13</ele>
        <time>2021-03-27T13:24:37Z</time>
      </trkpt>
      <trkpt lat="40.353904" lon="-5.617265">
        <ele>1520.24</ele>
        <time>2021-03-27T13:24:39Z</time>
      </trkpt>
      <trkpt lat="40.353955" lon="-5.616809">
        <ele>1522.29</ele>
        <time>2021-03-27T13:24:40Z</time>
      </trkpt>
      <trkpt lat="40.353981" lon="-5.616694">
        <ele>1523.26</ele>
        <time>2021-03-27T13:24:42Z</time>
      </trkpt>
      <trkpt lat="40.354033" lon="-5.616563">
        <ele>1524.28</ele>
        <time>2021-03-27T13:24:44Z</time>
      </trkpt>
      <trkpt lat="40.354276" lon="-5.616119">
        <ele>1528.81</ele>
        <time>2021-03-27T13:24:45Z</time>
      </trkpt>
      <trkpt lat="40.354475" lon="-5.6158">
        <ele>1531.19</ele>
        <time>2021-03-27T13:24:47Z</time>
      </trkpt>
      <trkpt lat="40.354607" lon="-5.615647">
        <ele>1532.24</ele>
        <time>2021-03-27T13:24:48Z</time>
      </trkpt>
      <trkpt lat="40.354888" lon="-5.615392">
        <ele>1534.99</ele>
        <time>2021-03-27T13:24:50Z</time>
      </trkpt>
      <trkpt lat="40.354993" lon="-5.615328">
        <ele>1536.55</ele>
        <time>2021-03-27T13:24:51Z</time>
      </trkpt>
      <trkpt lat="40.355132" lon="-5.615293">
        <ele>1538.17</ele>
        <time>2021-03-27T13:24:53Z</time>
      </trkpt>
      <trkpt lat="40.355285" lon="-5.615287">
        <ele>1540.25</ele>
        <time>2021-03-27T13:24:55Z</time>
      </trkpt>
      <trkpt lat="40.355632" lon="-5.615315">
        <ele>1542.71</ele>
        <time>2021-03-27T13:24:56Z</time>
      </trkpt>
      <trkpt lat="40.356328" lon="-5.615433">
        <ele>1550.15</ele>
        <time>2021-03-27T13:24:58Z</time>
      </trkpt>
      <trkpt lat="40.356639" lon="-5.61553">
        <ele>1553.52</ele>
        <time>2021-03-27T13:24:59Z</time>
      </trkpt>
      <trkpt lat="40.356954" lon="-5.615591">
        <ele>1555.81</ele>
        <time>2021-03-27T13:25:01Z</time>
      </trkpt>
      <trkpt lat="40.357039" lon="-5.615629">
        <ele>1556.9</ele>
        <time>2021-03-27T13:25:03Z</time>
      </trkpt>
      <trkpt lat="40.357239" lon="-5.61581">
        <ele>1558.9</ele>
        <time>2021-03-27T13:25:04Z</time>
      </trkpt>
      <trkpt lat="40.35736" lon="-5.615868">
        <ele>1559.94</ele>
        <time>2021-03-27T13:25:06Z</time>
      </trkpt>
      <trkpt lat="40.357525" lon="-5.615856">
        <ele>1560.34</ele>
        <time>2021-03-27T13:25:07Z</time>
      </trkpt>
      <trkpt lat="40.357648" lon="-5.615773">
        <ele>1560.96</ele>
        <time>2021-03-27T13:25:09Z</time>
      </trkpt>
      <trkpt lat="40.357707" lon="-5.615626">
        <ele>1561.3</ele>
        <time>2021-03-27T13:25:11Z</time>
      </trkpt>
      <trkpt lat="40.357902" lon="-5.614478">
        <ele>1564.84</ele>
        <time>2021-03-27T13:25:12Z</time>
      </trkpt>
      <trkpt lat="40.3579" lon="-5.614327">
        <ele>1565.42</ele>
        <time>2021-03-27T13:25:14Z</time>
      </trkpt>
      <trkpt lat="40.357845" lon="-5.614163">
        <ele>1565.76</ele>
        <time>2021-03-27T13:25:15Z</time>
      </trkpt>
      <trkpt lat="40.357675" lon="-5.61382">
        <ele>1567.76</ele>
        <time>2021-03-27T13:25:17Z</time>
      </trkpt>
      <trkpt lat="40.357506" lon="-5.61349">
        <ele>1568.5</ele>
        <time>2021-03-27T13:25:18Z</time>
      </trkpt>
      <trkpt lat="40.357306" lon="-5.613166">
        <ele>1569.86</ele>
        <time>2021-03-27T13:25:20Z</time>
      </trkpt>
      <trkpt lat="40.357022" lon="-5.612842">
        <ele>1572.57</ele>
        <time>2021-03-27T13:25:22Z</time>
      </trkpt>
      <trkpt lat="40.35672" lon="-5.61257">
        <ele>1573.82</ele>
        <time>2021-03-27T13:25:23Z</time>
      </trkpt>
      <trkpt lat="40.356676" lon="-5.612512">
        <ele>1574.77</ele>
        <time>2021-03-27T13:25:25Z</time>
      </trkpt>
      <trkpt lat="40.356647" lon="-5.612373">
        <ele>1576.53</ele>
        <time>2021-03-27T13:25:26Z</time>
      </trkpt>
      <trkpt lat="40.356661" lon="-5.612291">
        <ele>1577.93</ele>
        <time>2021-03-27T13:25:28Z</time>
      </trkpt>
      <trkpt lat="40.356694" lon="-5.612222">
        <ele>1579.0</ele>
        <time>2021-03-27T13:25:30Z</time>
      </trkpt>
      <trkpt lat="40.356795" lon="-5.612118">
        <ele>1580.91</ele>
        <time>2021-03-27T13:25:31Z</time>
      </trkpt>
      <trkpt lat="40.356906" lon="-5.612086">
        <ele>1581.09</ele>
        <time>2021-03-27T13:25:33Z</time>
      </trkpt>
      <trkpt lat="40.356987" lon="-5.612092">
        <ele>1580.96</ele>
        <time>2021-03-27T13:25:34Z</time>
      </trkpt>
      <trkpt lat="40.357757" lon="-5.612415">
        <ele>1583.51</ele>
        <time>2021-03-27T13:25:36Z</time>
      </trkpt>
      <trkpt lat="40.358284" lon="-5.612583">
        <ele>1587.59</ele>
        <time>2021-03-27T13:25:37Z</time>
      </trkpt>
      <trkpt lat="40.358798" lon="-5.612663">
        <ele>1592.67</ele>
        <time>2021-03-27T13:25:39Z</time>
      </trkpt>
      <trkpt lat="40.359317" lon="-5.612634">
        <ele>1597.91</ele>
        <time>2021-03-27T13:25:41Z</time>
      </trkpt>
      <trkpt lat="40.359982" lon="-5.612559">
        <ele>1600.83</ele>
        <time>2021-03-27T13:25:42Z</time>
      </trkpt>
      <trkpt lat="40.360742" lon="-5.612208">
        <ele>1606.07</ele>
        <time>2021-03-27T13:25:44Z</time>
      </trkpt>
      <trkpt lat="40.361405" lon="-5.611871">
        <ele>1608.32</ele>
        <time>2021-03-27T13:25:45Z</time>
      </trkpt>
      <trkpt lat="40.361582" lon="-5.611827">
        <ele>1609.12</ele>
        <time>2021-03-27T13:25:47Z</time>
      </trkpt>
      <trkpt lat="40.361647" lon="-5.611829">
        <ele>1609.35</ele>
        <time>2021-03-27T13:25:49Z</time>
      </trkpt>
      <trkpt lat="40.361996" lon="-5.611928">
        <ele>1609.23</ele>
        <time>2021-03-27T13:25:50Z</time>
      </trkpt>
      <trkpt lat="40.362398" lon="-5.612155">
        <ele>1611.11</ele>
        <time>2021-03-27T13:25:52Z</time>
      </trkpt>
      <trkpt lat="40.362476" lon="-5.61222">
        <ele>1611.82</ele>
        <time>2021-03-27T13:25:53Z</time>
      </trkpt>
      <trkpt lat="40.362578" lon="-5.612365">
        <ele>1613.07</ele>
        <time>2021-03-27T13:25:55Z</time>
      </trkpt>
      <trkpt lat="40.362662" lon="-5.612567">
        <ele>1614.65</ele>
        <time>2021-03-27T13:25:57Z</time>
      </trkpt>
      <trkpt lat="40.362696" lon="-5.612752">
        <ele>1616.23</ele>
        <time>2021-03-27T13:25:58Z</time>
      </trkpt>
      <trkpt lat="40.362647" lon="-5.613473">
        <ele>1618.59</ele>
        <time>2021-03-27T13:26:00Z</time>
      </trkpt>
      <trkpt lat="40.362647" lon="-5.613651">
        <ele>1620.09</ele>
        <time>2021-03-27T13:26:01Z</time>
      </trkpt>
      <trkpt lat="40.362744" lon="-5.61462">
        <ele>1627.79</ele>
        <time>2021-03-27T13:26:03Z</time>
      </trkpt>
      <trkpt lat="40.362795" lon="-5.614937">
        <ele>1628.91</ele>
        <time>2021-03-27T13:26:04Z</time>
      </trkpt>
      <trkpt lat="40.362944" lon="-5.615327">
        <ele>1630.7</ele>
        <time>2021-03-27T13:26:06Z</time>
      </trkpt>
      <trkpt lat="40.363719" lon="-5.616977">
        <ele>1636.97</ele>
        <time>2021-03-27T13:26:08Z</time>
      </trkpt>
      <trkpt lat="40.363841" lon="-5.617129">
        <ele>1638.44</ele>
        <time>2021-03-27T13:26:09Z</time>
      </trkpt>
      <trkpt lat="40.364037" lon="-5.617243">
        <ele>1639.04</ele>
        <time>2021-03-27T13:26:11Z</time>
      </trkpt>
      <trkpt lat="40.365435" lon="-5.617652">
        <ele>1633.72</ele>
        <time>2021-03-27T13:26:12Z</time>
      </trkpt>
      <trkpt lat="40.365986" lon="-5.617754">
        <ele>1630.64</ele>
        <time>2021-03-27T13:26:14Z</time>
      </trkpt>
      <trkpt lat="40.36688" lon="-5.61801">
        <ele>1622.27</ele>
        <time>2021-03-27T13:26:16Z</time>
      </trkpt>
      <trkpt lat="40.367345" lon="-5.618202">
        <ele>1618.57</ele>
        <time>2021-03-27T13:26:17Z</time>
      </trkpt>
      <trkpt lat="40.367896" lon="-5.618497">
        <ele>1615.24</ele>
        <time>2021-03-27T13:26:19Z</time>
      </trkpt>
      <trkpt lat="40.368086" lon="-5.618619">
        <ele>1614.31</ele>
        <time>2021-03-27T13:26:20Z</time>
      </trkpt>
      <trkpt lat="40.368388" lon="-5.618894">
        <ele>1609.69</ele>
        <time>2021-03-27T13:26:22Z</time>
      </trkpt>
      <trkpt lat="40.368465" lon="-5.619001">
        <ele>1609.11</ele>
        <time>2021-03-27T13:26:23Z</time>
      </trkpt>
      <trkpt lat="40.368531" lon="-5.61912">
        <ele>1608.75</ele>
        <time>2021-03-27T13:26:25Z</time>
      </trkpt>
      <trkpt lat="40.368895" lon="-5.619933">
        <ele>1606.12</ele>
        <time>2021-03-27T13:26:27Z</time>
      </trkpt>
      <trkpt lat="40.369213" lon="-5.620456">
        <ele>1602.98</ele>
        <time>2021-03-27T13:26:28Z</time>
      </trkpt>
      <trkpt lat="40.369301" lon="-5.620682">
        <ele>1602.08</ele>
        <time>2021-03-27T13:26:30Z</time>
      </trkpt>
      <trkpt lat="40.369334" lon="-5.621005">
        <ele>1601.13</ele>
        <time>2021-03-27T13:26:31Z</time>
      </trkpt>
      <trkpt lat="40.369326" lon="-5.621258">
        <ele>1600.07</ele>
        <time>2021-03-27T13:26:33Z</time>
      </trkpt>
      <trkpt lat="40.3693" lon="-5.621468">
        <ele>1598.89</ele>
        <time>2021-03-27T13:26:35Z</time>
      </trkpt>
      <trkpt lat="40.369229" lon="-5.621804">
        <ele>1596.67</ele>
        <time>2021-03-27T13:26:36Z</time>
      </trkpt>
      <trkpt lat="40.36897" lon="-5.622708">
        <ele>1590.16</ele>
        <time>2021-03-27T13:26:38Z</time>
      </trkpt>
      <trkpt lat="40.36888" lon="-5.623097">
        <ele>1589.1</ele>
        <time>2021-03-27T13:26:39Z</time>
      </trkpt>
      <trkpt lat="40.368768" lon="-5.623727">
        <ele>1588.06</ele>
        <time>2021-03-27T13:26:41Z</time>
      </trkpt>
      <trkpt lat="40.368707" lon="-5.623962">
        <ele>1586.55</ele>
        <time>2021-03-27T13:26:43Z</time>
      </trkpt>
      <trkpt lat="40.368612" lon="-5.624234">
        <ele>1585.51</ele>
        <time>2021-03-27T13:26:44Z</time>
      </trkpt>
      <trkpt lat="40.368314" lon="-5.624922">
        <ele>1580.77</ele>
        <time>2021-03-27T13:26:46Z</time>
      </trkpt>
      <trkpt lat="40.368156" lon="-5.625241">
        <ele>1575.82</ele>
        <time>2021-03-27T13:26:47Z</time>
      </trkpt>
      <trkpt lat="40.368001" lon="-5.625482">
        <ele>1573.96</ele>
        <time>2021-03-27T13:26:49Z</time>
      </trkpt>
      <trkpt lat="40.367672" lon="-5.625884">
        <ele>1573.19</ele>
        <time>2021-03-27T13:26:50Z</time>
      </trkpt>
      <trkpt lat="40.367265" lon="-5.626314">
        <ele>1573.53</ele>
        <time>2021-03-27T13:26:52Z</time>
      </trkpt>
      <trkpt lat="40.366922" lon="-5.626628">
        <ele>1573.42</ele>
        <time>2021-03-27T13:26:54Z</time>
      </trkpt>
      <trkpt lat="40.366712" lon="-5.626864">
        <ele>1572.74</ele>
        <time>2021-03-27T13:26:55Z</time>
      </trkpt>
      <trkpt lat="40.366512" lon="-5.627183">
        <ele>1568.31</ele>
        <time>2021-03-27T13:26:57Z</time>
      </trkpt>
      <trkpt lat="40.366136" lon="-5.628093">
        <ele>1562.22</ele>
        <time>2021-03-27T13:26:58Z</time>
      </trkpt>
      <trkpt lat="40.366027" lon="-5.628658">
        <ele>1560.12</ele>
        <time>2021-03-27T13:27:00Z</time>
      </trkpt>
      <trkpt lat="40.365975" lon="-5.628822">
        <ele>1559.25</ele>
        <time>2021-03-27T13:27:02Z</time>
      </trkpt>
      <trkpt lat="40.365514" lon="-5.629954">
        <ele>1556.55</ele>
        <time>2021-03-27T13:27:03Z</time>
      </trkpt>
      <trkpt lat="40.36549" lon="-5.630132">
        <ele>1555.92</ele>
        <time>2021-03-27T13:27:05Z</time>
      </trkpt>
      <trkpt lat="40.365516" lon="-5.630348">
        <ele>1554.43</ele>
        <time>2021-03-27T13:27:06Z</time>
      </trkpt>
      <trkpt lat="40.365734" lon="-5.630858">
        <ele>1552.2</ele>
        <time>2021-03-27T13:27:08Z</time>
      </trkpt>
      <trkpt lat="40.365798" lon="-5.631261">
        <ele>1554.49</ele>
        <time>2021-03-27T13:27:09Z</time>
      </trkpt>
      <trkpt lat="40.366064" lon="-5.631933">
        <ele>1557.01</ele>
        <time>2021-03-27T13:27:11Z</time>
      </trkpt>
      <trkpt lat="40.36613" lon="-5.632057">
        <ele>1557.24</ele>
        <time>2021-03-27T13:27:13Z</time>
      </trkpt>
      <trkpt lat="40.366193" lon="-5.63213">
        <ele>1556.99</ele>
        <time>2021-03-27T13:27:14Z</time>
      </trkpt>
      <trkpt lat="40.366263" lon="-5.63218">
        <ele>1556.2</ele>
        <time>2021-03-27T13:27:16Z</time>
      </trkpt>
      <trkpt lat="40.366618" lon="-5.632297">
        <ele>1551.5</ele>
        <time>2021-03-27T13:27:17Z</time>
      </trkpt>
      <trkpt lat="40.366845" lon="-5.632497">
        <ele>1551.03</ele>
        <time>2021-03-27T13:27:19Z</time>
      </trkpt>
      <trkpt lat="40.366985" lon="-5.632654">
        <ele>1551.85</ele>
        <time>2021-03-27T13:27:21Z</time>
      </trkpt>
      <trkpt lat="40.367173" lon="-5.63293">
        <ele>1552.53</ele>
        <time>2021-03-27T13:27:22Z</time>
      </trkpt>
      <trkpt lat="40.367737" lon="-5.634062">
        <ele>1551.91</ele>
        <time>2021-03-27T13:27:24Z</time>
      </trkpt>
      <trkpt lat="40.367889" lon="-5.63429">
        <ele>1551.41</ele>
        <time>2021-03-27T13:27:25Z</time>
      </trkpt>
      <trkpt lat="40.368014" lon="-5.634369">
        <ele>1550.79</ele>
        <time>2021-03-27T13:27:27Z</time>
      </trkpt>
      <trkpt lat="40.368327" lon="-5.634409">
        <ele>1546.71</ele>
        <time>2021-03-27T13:27:29Z</time>
      </trkpt>
      <trkpt lat="40.368716" lon="-5.634418">
        <ele>1544.72</ele>
        <time>2021-03-27T13:27:30Z</time>
      </trkpt>
      <trkpt lat="40.368904" lon="-5.634354">
        <ele>1544.04</ele>
        <time>2021-03-27T13:27:32Z</time>
      </trkpt>
      <trkpt lat="40.369682" lon="-5.633932">
        <ele>1536.64</ele>
        <time>2021-03-27T13:27:33Z</time>
      </trkpt>
      <trkpt lat="40.36987" lon="-5.633847">
        <ele>1536.16</ele>
        <time>2021-03-27T13:27:35Z</time>
      </trkpt>
      <trkpt lat="40.370019" lon="-5.633807">
        <ele>1536.34</ele>
        <time>2021-03-27T13:27:36Z</time>
      </trkpt>
      <trkpt lat="40.370348" lon="-5.633794">
        <ele>1534.98</ele>
        <time>2021-03-27T13:27:38Z</time>
      </trkpt>
      <trkpt lat="40.371142" lon="-5.633818">
        <ele>1528.95</ele>
        <time>2021-03-27T13:27:40Z</time>
      </trkpt>
      <trkpt lat="40.371238" lon="-5.633828">
        <ele>1528.18</ele>
        <time>2021-03-27T13:27:41Z</time>
      </trkpt>
      <trkpt lat="40.371304" lon="-5.633858">
        <ele>1527.74</ele>
        <time>2021-03-27T13:27:43Z</time>
      </trkpt>
      <trkpt lat="40.371414" lon="-5.633953">
        <ele>1526.8</ele>
        <time>2021-03-27T13:27:44Z</time>
      </trkpt>
      <trkpt lat="40.371463" lon="-5.63402">
        <ele>1526.34</ele>
        <time>2021-03-27T13:27:46Z</time>
      </trkpt>
      <trkpt lat="40.371498" lon="-5.634103">
        <ele>1525.91</ele>
        <time>2021-03-27T13:27:48Z</time>
      </trkpt>
      <trkpt lat="40.371533" lon="-5.634287">
        <ele>1524.99</ele>
        <time>2021-03-27T13:27:49Z</time>
      </trkpt>
      <trkpt lat="40.371539" lon="-5.635744">
        <ele>1519.87</ele>
        <time>2021-03-27T13:27:51Z</time>
      </trkpt>
      <trkpt lat="40.371554" lon="-5.635979">
        <ele>1520.28</ele>
        <time>2021-03-27T13:27:52Z</time>
      </trkpt>
      <trkpt lat="40.371665" lon="-5.636474">
        <ele>1518.34</ele>
        <time>2021-03-27T13:27:54Z</time>
      </trkpt>
      <trkpt lat="40.371718" lon="-5.636888">
        <ele>1517.88</ele>
        <time>2021-03-27T13:27:55Z</time>
      </trkpt>
      <trkpt lat="40.371847" lon="-5.637274">
        <ele>1516.41</ele>
        <time>2021-03-27T13:27:57Z</time>
      </trkpt>
      <trkpt lat="40.371865" lon="-5.63744">
        <ele>1517.06</ele>
        <time>2021-03-27T13:27:59Z</time>
      </trkpt>
      <trkpt lat="40.371851" lon="-5.637705">
        <ele>1516.7</ele>
        <time>2021-03-27T13:28:00Z</time>
      </trkpt>
      <trkpt lat="40.37186" lon="-5.637768">
        <ele>1516.26</ele>
        <time>2021-03-27T13:28:02Z</time>
      </trkpt>
      <trkpt lat="40.371905" lon="-5.63785">
        <ele>1515.76</ele>
        <time>2021-03-27T13:28:03Z</time>
      </trkpt>
      <trkpt lat="40.371949" lon="-5.63789">
        <ele>1515.4</ele>
        <time>2021-03-27T13:28:05Z</time>
      </trkpt>
      <trkpt lat="40.372111" lon="-5.637956">
        <ele>1515.98</ele>
        <time>2021-03-27T13:28:07Z</time>
      </trkpt>
      <trkpt lat="40.372185" lon="-5.637918">
        <ele>1515.52</ele>
        <time>2021-03-27T13:28:08Z</time>
      </trkpt>
      <trkpt lat="40.372258" lon="-5.637813">
        <ele>1514.06</ele>
        <time>2021-03-27T13:28:10Z</time>
      </trkpt>
      <trkpt lat="40.372348" lon="-5.637618">
        <ele>1511.53</ele>
        <time>2021-03-27T13:28:11Z</time>
      </trkpt>
      <trkpt lat="40.372575" lon="-5.637199">
        <ele>1504.95</ele>
        <time>2021-03-27T13:28:13Z</time>
      </trkpt>
      <trkpt lat="40.372641" lon="-5.637108">
        <ele>1504.48</ele>
        <time>2021-03-27T13:28:15Z</time>
      </trkpt>
      <trkpt lat="40.372945" lon="-5.636829">
        <ele>1504.16</ele>
        <time>2021-03-27T13:28:16Z</time>
      </trkpt>
      <trkpt lat="40.373212" lon="-5.636697">
        <ele>1502.6</ele>
        <time>2021-03-27T13:28:18Z</time>
      </trkpt>
      <trkpt lat="40.373334" lon="-5.636661">
        <ele>1500.84</ele>
        <time>2021-03-27T13:28:19Z</time>
      </trkpt>
      <trkpt lat="40.373437" lon="-5.636655">
        <ele>1498.11</ele>
        <time>2021-03-27T13:28:21Z</time>
      </trkpt>
      <trkpt lat="40.373579" lon="-5.636693">
        <ele>1495.65</ele>
        <time>2021-03-27T13:28:22Z</time>
      </trkpt>
      <trkpt lat="40.373657" lon="-5.636737">
        <ele>1494.82</ele>
        <time>2021-03-27T13:28:24Z</time>
      </trkpt>
      <trkpt lat="40.373994" lon="-5.637017">
        <ele>1494.91</ele>
        <time>2021-03-27T13:28:26Z</time>
      </trkpt>
      <trkpt lat="40.374134" lon="-5.637102">
        <ele>1493.9</ele>
        <time>2021-03-27T13:28:27Z</time>
      </trkpt>
      <trkpt lat="40.374355" lon="-5.637206">
        <ele>1493.28</ele>
        <time>2021-03-27T13:28:29Z</time>
      </trkpt>
      <trkpt lat="40.37464" lon="-5.637287">
        <ele>1492.73</ele>
        <time>2021-03-27T13:28:30Z</time>
      </trkpt>
      <trkpt lat="40.374777" lon="-5.637292">
        <ele>1491.96</ele>
        <time>2021-03-27T13:28:32Z</time>
      </trkpt>
      <trkpt lat="40.375217" lon="-5.637159">
        <ele>1486.65</ele>
        <time>2021-03-27T13:28:34Z</time>
      </trkpt>
      <trkpt lat="40.375461" lon="-5.637138">
        <ele>1485.16</ele>
        <time>2021-03-27T13:28:35Z</time>
      </trkpt>
      <trkpt lat="40.375635" lon="-5.63719">
        <ele>1486.07</ele>
        <time>2021-03-27T13:28:37Z</time>
      </trkpt>
      <trkpt lat="40.376032" lon="-5.637367">
        <ele>1486.49</ele>
        <time>2021-03-27T13:28:38Z</time>
      </trkpt>
      <trkpt lat="40.376235" lon="-5.637418">
        <ele>1485.73</ele>
        <time>2021-03-27T13:28:40Z</time>
      </trkpt>
      <trkpt lat="40.376349" lon="-5.637417">
        <ele>1484.6</ele>
        <time>2021-03-27T13:28:41Z</time>
      </trkpt>
      <trkpt lat="40.376701" lon="-5.637347">
        <ele>1481.48</ele>
        <time>2021-03-27T13:28:43Z</time>
      </trkpt>
      <trkpt lat="40.376799" lon="-5.637303">
        <ele>1481.33</ele>
        <time>2021-03-27T13:28:45Z</time>
      </trkpt>
      <trkpt lat="40.376916" lon="-5.637175">
        <ele>1479.51</ele>
        <time>2021-03-27T13:28:46Z</time>
      </trkpt>
      <trkpt lat="40.377242" lon="-5.636695">
        <ele>1471.14</ele>
        <time>2021-03-27T13:28:48Z</time>
      </trkpt>
      <trkpt lat="40.377404" lon="-5.636509">
        <ele>1469.69</ele>
        <time>2021-03-27T13:28:49Z</time>
      </trkpt>
      <trkpt lat="40.377682" lon="-5.636255">
        <ele>1468.09</ele>
        <time>2021-03-27T13:28:51Z</time>
      </trkpt>
      <trkpt lat="40.378108" lon="-5.636011">
        <ele>1464.26</ele>
        <time>2021-03-27T13:28:53Z</time>
      </trkpt>
      <trkpt lat="40.378267" lon="-5.635943">
        <ele>1463.08</ele>
        <time>2021-03-27T13:28:54Z</time>
      </trkpt>
      <trkpt lat="40.379116" lon="-5.63569">
        <ele>1456.81</ele>
        <time>2021-03-27T13:28:56Z</time>
      </trkpt>
      <trkpt lat="40.37947" lon="-5.635494">
        <ele>1453.51</ele>
        <time>2021-03-27T13:28:57Z</time>
      </trkpt>
      <trkpt lat="40.379899" lon="-5.635339">
        <ele>1448.18</ele>
        <time>2021-03-27T13:28:59Z</time>
      </trkpt>
      <trkpt lat="40.380063" lon="-5.635254">
        <ele>1445.93</ele>
        <time>2021-03-27T13:29:00Z</time>
      </trkpt>
      <trkpt lat="40.380107" lon="-5.635171">
        <ele>1444.21</ele>
        <time>2021-03-27T13:29:02Z</time>
      </trkpt>
      <trkpt lat="40.380115" lon="-5.635104">
        <ele>1443.16</ele>
        <time>2021-03-27T13:29:04Z</time>
      </trkpt>
      <trkpt lat="40.380092" lon="-5.635022">
        <ele>1442.01</ele>
        <time>2021-03-27T13:29:05Z</time>
      </trkpt>
      <trkpt lat="40.380038" lon="-5.634933">
        <ele>1441.31</ele>
        <time>2021-03-27T13:29:07Z</time>
      </trkpt>
      <trkpt lat="40.37984" lon="-5.63475">
        <ele>1440.2</ele>
        <time>2021-03-27T13:29:08Z</time>
      </trkpt>
      <trkpt lat="40.379731" lon="-5.6347">
        <ele>1439.77</ele>
        <time>2021-03-27T13:29:10Z</time>
      </trkpt>
      <trkpt lat="40.379556" lon="-5.634657">
        <ele>1438.7</ele>
        <time>2021-03-27T13:29:12Z</time>
      </trkpt>
      <trkpt lat="40.379059" lon="-5.634581">
        <ele>1435.69</ele>
        <time>2021-03-27T13:29:13Z</time>
      </trkpt>
      <trkpt lat="40.378999" lon="-5.634551">
        <ele>1434.71</ele>
        <time>2021-03-27T13:29:15Z</time>
      </trkpt>
      <trkpt lat="40.378954" lon="-5.634462">
        <ele>1432.78</ele>
        <time>2021-03-27T13:29:16Z</time>
      </trkpt>
      <trkpt lat="40.378977" lon="-5.634346">
        <ele>1430.97</ele>
        <time>2021-03-27T13:29:18Z</time>
      </trkpt>
      <trkpt lat="40.37901" lon="-5.634297">
        <ele>1430.46</ele>
        <time>2021-03-27T13:29:20Z</time>
      </trkpt>
      <trkpt lat="40.380039" lon="-5.63376">
        <ele>1422.94</ele>
        <time>2021-03-27T13:29:21Z</time>
      </trkpt>
      <trkpt lat="40.380295" lon="-5.633688">
        <ele>1419.58</ele>
        <time>2021-03-27T13:29:23Z</time>
      </trkpt>
      <trkpt lat="40.38051" lon="-5.633711">
        <ele>1418.72</ele>
        <time>2021-03-27T13:29:24Z</time>
      </trkpt>
      <trkpt lat="40.380638" lon="-5.633767">
        <ele>1418.05</ele>
        <time>2021-03-27T13:29:26Z</time>
      </trkpt>
      <trkpt lat="40.380982" lon="-5.634008">
        <ele>1415.6</ele>
        <time>2021-03-27T13:29:27Z</time>
      </trkpt>
      <trkpt lat="40.381352" lon="-5.634392">
        <ele>1412.39</ele>
        <time>2021-03-27T13:29:29Z</time>
      </trkpt>
      <trkpt lat="40.381411" lon="-5.63443">
        <ele>1411.49</ele>
        <time>2021-03-27T13:29:31Z</time>
      </trkpt>
      <trkpt lat="40.381499" lon="-5.634421">
        <ele>1409.85</ele>
        <time>2021-03-27T13:29:32Z</time>
      </trkpt>
      <trkpt lat="40.381565" lon="-5.634336">
        <ele>1408.06</ele>
        <time>2021-03-27T13:29:34Z</time>
      </trkpt>
      <trkpt lat="40.381571" lon="-5.634227">
        <ele>1407.16</ele>
        <time>2021-03-27T13:29:35Z</time>
      </trkpt>
      <trkpt lat="40.381076" lon="-5.633139">
        <ele>1400.31</ele>
        <time>2021-03-27T13:29:37Z</time>
      </trkpt>
      <trkpt lat="40.3805" lon="-5.632417">
        <ele>1397.61</ele>
        <time>2021-03-27T13:29:39Z</time>
      </trkpt>
      <trkpt lat="40.380166" lon="-5.632202">
        <ele>1395.0</ele>
        <time>2021-03-27T13:29:40Z</time>
      </trkpt>
      <trkpt lat="40.380131" lon="-5.632145">
        <ele>1394.01</ele>
        <time>2021-03-27T13:29:42Z</time>
      </trkpt>
      <trkpt lat="40.380112" lon="-5.632026">
        <ele>1391.78</ele>
        <time>2021-03-27T13:29:43Z</time>
      </trkpt>
      <trkpt lat="40.380133" lon="-5.631967">
        <ele>1390.49</ele>
        <time>2021-03-27T13:29:45Z</time>
      </trkpt>
      <trkpt lat="40.380214" lon="-5.631882">
        <ele>1388.07</ele>
        <time>2021-03-27T13:29:46Z</time>
      </trkpt>
      <trkpt lat="40.380292" lon="-5.631873">
        <ele>1387.33</ele>
        <time>2021-03-27T13:29:48Z</time>
      </trkpt>
      <trkpt lat="40.380529" lon="-5.631919">
        <ele>1385.91</ele>
        <time>2021-03-27T13:29:50Z</time>
      </trkpt>
      <trkpt lat="40.380786" lon="-5.632014">
        <ele>1384.84</ele>
        <time>2021-03-27T13:29:51Z</time>
      </trkpt>
      <trkpt lat="40.380906" lon="-5.632117">
        <ele>1385.25</ele>
        <time>2021-03-27T13:29:53Z</time>
      </trkpt>
      <trkpt lat="40.381175" lon="-5.632461">
        <ele>1385.45</ele>
        <time>2021-03-27T13:29:54Z</time>
      </trkpt>
      <trkpt lat="40.381258" lon="-5.63254">
        <ele>1384.92</ele>
        <time>2021-03-27T13:29:56Z</time>
      </trkpt>
      <trkpt lat="40.381341" lon="-5.63259">
        <ele>1384.16</ele>
        <time>2021-03-27T13:29:58Z</time>
      </trkpt>
      <trkpt lat="40.381439" lon="-5.632626">
        <ele>1382.91</ele>
        <time>2021-03-27T13:29:59Z</time>
      </trkpt>
      <trkpt lat="40.382018" lon="-5.632742">
        <ele>1377.07</ele>
        <time>2021-03-27T13:30:01Z</time>
      </trkpt>
      <trkpt lat="40.382294" lon="-5.632843">
        <ele>1373.2</ele>
        <time>2021-03-27T13:30:02Z</time>
      </trkpt>
      <trkpt lat="40.382398" lon="-5.632896">
        <ele>1371.1</ele>
        <time>2021-03-27T13:30:04Z</time>
      </trkpt>
      <trkpt lat="40.38252" lon="-5.633003">
        <ele>1368.37</ele>
        <time>2021-03-27T13:30:06Z</time>
      </trkpt>
      <trkpt lat="40.383203" lon="-5.633937">
        <ele>1360.86</ele>
        <time>2021-03-27T13:30:07Z</time>
      </trkpt>
      <trkpt lat="40.38338" lon="-5.634204">
        <ele>1360.21</ele>
        <time>2021-03-27T13:30:09Z</time>
      </trkpt>
      <trkpt lat="40.383487" lon="-5.634439">
        <ele>1359.51</ele>
        <time>2021-03-27T13:30:10Z</time>
      </trkpt>
      <trkpt lat="40.383554" lon="-5.634625">
        <ele>1358.16</ele>
        <time>2021-03-27T13:30:12Z</time>
      </trkpt>
      <trkpt lat="40.383596" lon="-5.634854">
        <ele>1356.45</ele>
        <time>2021-03-27T13:30:13Z</time>
      </trkpt>
      <trkpt lat="40.38358" lon="-5.635109">
        <ele>1354.38</ele>
        <time>2021-03-27T13:30:15Z</time>
      </trkpt>
      <trkpt lat="40.383421" lon="-5.63554">
        <ele>1354.97</ele>
        <time>2021-03-27T13:30:17Z</time>
      </trkpt>
      <trkpt lat="40.383413" lon="-5.635614">
        <ele>1355.14</ele>
        <time>2021-03-27T13:30:18Z</time>
      </trkpt>
      <trkpt lat="40.383426" lon="-5.635689">
        <ele>1354.66</ele>
        <time>2021-03-27T13:30:20Z</time>
      </trkpt>
      <trkpt lat="40.383494" lon="-5.635757">
        <ele>1352.2</ele>
        <time>2021-03-27T13:30:21Z</time>
      </trkpt>
      <trkpt lat="40.383577" lon="-5.63574">
        <ele>1349.21</ele>
        <time>2021-03-27T13:30:23Z</time>
      </trkpt>
      <trkpt lat="40.383643" lon="-5.635669">
        <ele>1347.14</ele>
        <time>2021-03-27T13:30:25Z</time>
      </trkpt>
      <trkpt lat="40.383746" lon="-5.635512">
        <ele>1344.64</ele>
        <time>2021-03-27T13:30:26Z</time>
      </trkpt>
      <trkpt lat="40.383806" lon="-5.635394">
        <ele>1344.52</ele>
        <time>2021-03-27T13:30:28Z</time>
      </trkpt>
      <trkpt lat="40.383899" lon="-5.63514">
        <ele>1344.71</ele>
        <time>2021-03-27T13:30:29Z</time>
      </trkpt>
      <trkpt lat="40.38401" lon="-5.634673">
        <ele>1343.57</ele>
        <time>2021-03-27T13:30:31Z</time>
      </trkpt>
      <trkpt lat="40.384127" lon="-5.633765">
        <ele>1335.67</ele>
        <time>2021-03-27T13:30:32Z</time>
      </trkpt>
      <trkpt lat="40.38412" lon="-5.633394">
        <ele>1334.6</ele>
        <time>2021-03-27T13:30:34Z</time>
      </trkpt>
      <trkpt lat="40.384079" lon="-5.633233">
        <ele>1332.94</ele>
        <time>2021-03-27T13:30:36Z</time>
      </trkpt>
      <trkpt lat="40.383938" lon="-5.633006">
        <ele>1330.57</ele>
        <time>2021-03-27T13:30:37Z</time>
      </trkpt>
      <trkpt lat="40.383834" lon="-5.632885">
        <ele>1329.36</ele>
        <time>2021-03-27T13:30:39Z</time>
      </trkpt>
      <trkpt lat="40.38363" lon="-5.632694">
        <ele>1329.07</ele>
        <time>2021-03-27T13:30:40Z</time>
      </trkpt>
      <trkpt lat="40.383586" lon="-5.632628">
        <ele>1329.19</ele>
        <time>2021-03-27T13:30:42Z</time>
      </trkpt>
      <trkpt lat="40.383561" lon="-5.632527">
        <ele>1327.99</ele>
        <time>2021-03-27T13:30:44Z</time>
      </trkpt>
      <trkpt lat="40.383584" lon="-5.632482">
        <ele>1326.64</ele>
        <time>2021-03-27T13:30:45Z</time>
      </trkpt>
      <trkpt lat="40.383623" lon="-5.632456">
        <ele>1325.37</ele>
        <time>2021-03-27T13:30:47Z</time>
      </trkpt>
      <trkpt lat="40.383666" lon="-5.632452">
        <ele>1324.28</ele>
        <time>2021-03-27T13:30:48Z</time>
      </trkpt>
      <trkpt lat="40.383722" lon="-5.632476">
        <ele>1323.03</ele>
        <time>2021-03-27T13:30:50Z</time>
      </trkpt>
      <trkpt lat="40.384231" lon="-5.632801">
        <ele>1320.56</ele>
        <time>2021-03-27T13:30:52Z</time>
      </trkpt>
      <trkpt lat="40.384338" lon="-5.632887">
        <ele>1320.64</ele>
        <time>2021-03-27T13:30:53Z</time>
      </trkpt>
      <trkpt lat="40.384537" lon="-5.633115">
        <ele>1320.1</ele>
        <time>2021-03-27T13:30:55Z</time>
      </trkpt>
      <trkpt lat="40.38462" lon="-5.633249">
        <ele>1319.29</ele>
        <time>2021-03-27T13:30:56Z</time>
      </trkpt>
      <trkpt lat="40.384691" lon="-5.633401">
        <ele>1318.02</ele>
        <time>2021-03-27T13:30:58Z</time>
      </trkpt>
      <trkpt lat="40.38485" lon="-5.633855">
        <ele>1314.29</ele>
        <time>2021-03-27T13:30:59Z</time>
      </trkpt>
      <trkpt lat="40.38502" lon="-5.634246">
        <ele>1309.52</ele>
        <time>2021-03-27T13:31:01Z</time>
      </trkpt>
      <trkpt lat="40.385455" lon="-5.635059">
        <ele>1306.89</ele>
        <time>2021-03-27T13:31:03Z</time>
      </trkpt>
      <trkpt lat="40.385532" lon="-5.635248">
        <ele>1307.25</ele>
        <time>2021-03-27T13:31:04Z</time>
      </trkpt>
      <trkpt lat="40.385636" lon="-5.635576">
        <ele>1306.25</ele>
        <time>2021-03-27T13:31:06Z</time>
      </trkpt>
      <trkpt lat="40.385688" lon="-5.635854">
        <ele>1304.5</ele>
        <time>2021-03-27T13:31:07Z</time>
      </trkpt>
      <trkpt lat="40.385671" lon="-5.636197">
        <ele>1302.1</ele>
        <time>2021-03-27T13:31:09Z</time>
      </trkpt>
      <trkpt lat="40.385687" lon="-5.636402">
        <ele>1299.49</ele>
        <time>2021-03-27T13:31:11Z</time>
      </trkpt>
      <trkpt lat="40.385731" lon="-5.636524">
        <ele>1297.51</ele>
        <time>2021-03-27T13:31:12Z</time>
      </trkpt>
      <trkpt lat="40.385766" lon="-5.636562">
        <ele>1296.66</ele>
        <time>2021-03-27T13:31:14Z</time>
      </trkpt>
      <trkpt lat="40.385814" lon="-5.636581">
        <ele>1295.87</ele>
        <time>2021-03-27T13:31:15Z</time>
      </trkpt>
      <trkpt lat="40.385864" lon="-5.636574">
        <ele>1295.04</ele>
        <time>2021-03-27T13:31:17Z</time>
      </trkpt>
      <trkpt lat="40.385912" lon="-5.636541">
        <ele>1294.22</ele>
        <time>2021-03-27T13:31:18Z</time>
      </trkpt>
      <trkpt lat="40.386144" lon="-5.636095">
        <ele>1291.23</ele>
        <time>2021-03-27T13:31:20Z</time>
      </trkpt>
      <trkpt lat="40.386401" lon="-5.635526">
        <ele>1286.67</ele>
        <time>2021-03-27T13:31:22Z</time>
      </trkpt>
      <trkpt lat="40.38645" lon="-5.635292">
        <ele>1285.04</ele>
        <time>2021-03-27T13:31:23Z</time>
      </trkpt>
      <trkpt lat="40.386473" lon="-5.634971">
        <ele>1283.98</ele>
        <time>2021-03-27T13:31:25Z</time>
      </trkpt>
      <trkpt lat="40.386452" lon="-5.634703">
        <ele>1282.03</ele>
        <time>2021-03-27T13:31:26Z</time>
      </trkpt>
      <trkpt lat="40.386311" lon="-5.63365">
        <ele>1278.36</ele>
        <time>2021-03-27T13:31:28Z</time>
      </trkpt>
      <trkpt lat="40.386282" lon="-5.632643">
        <ele>1272.32</ele>
        <time>2021-03-27T13:31:30Z</time>
      </trkpt>
      <trkpt lat="40.386303" lon="-5.632534">
        <ele>1271.1</ele>
        <time>2021-03-27T13:31:31Z</time>
      </trkpt>
      <trkpt lat="40.386334" lon="-5.632475">
        <ele>1269.88</ele>
        <time>2021-03-27T13:31:33Z</time>
      </trkpt>
      <trkpt lat="40.386448" lon="-5.632368">
        <ele>1266.41</ele>
        <time>2021-03-27T13:31:34Z</time>
      </trkpt>
      <trkpt lat="40.386511" lon="-5.632348">
        <ele>1264.96</ele>
        <time>2021-03-27T13:31:36Z</time>
      </trkpt>
      <trkpt lat="40.386604" lon="-5.632374">
        <ele>1263.35</ele>
        <time>2021-03-27T13:31:38Z</time>
      </trkpt>
      <trkpt lat="40.386639" lon="-5.632424">
        <ele>1263.02</ele>
        <time>2021-03-27T13:31:39Z</time>
      </trkpt>
      <trkpt lat="40.386677" lon="-5.63253">
        <ele>1262.93</ele>
        <time>2021-03-27T13:31:41Z</time>
      </trkpt>
      <trkpt lat="40.386818" lon="-5.633225">
        <ele>1263.89</ele>
        <time>2021-03-27T13:31:42Z</time>
      </trkpt>
      <trkpt lat="40.387063" lon="-5.634012">
        <ele>1261.3</ele>
        <time>2021-03-27T13:31:44Z</time>
      </trkpt>
      <trkpt lat="40.387231" lon="-5.634613">
        <ele>1260.11</ele>
        <time>2021-03-27T13:31:45Z</time>
      </trkpt>
      <trkpt lat="40.387277" lon="-5.634734">
        <ele>1260.48</ele>
        <time>2021-03-27T13:31:47Z</time>
      </trkpt>
      <trkpt lat="40.387562" lon="-5.635273">
        <ele>1258.42</ele>
        <time>2021-03-27T13:31:49Z</time>
      </trkpt>
      <trkpt lat="40.387778" lon="-5.635754">
        <ele>1255.0</ele>
        <time>2021-03-27T13:31:50Z</time>
      </trkpt>
      <trkpt lat="40.387827" lon="-5.635899">
        <ele>1253.93</ele>
        <time>2021-03-27T13:31:52Z</time>
      </trkpt>
      <trkpt lat="40.387855" lon="-5.636101">
        <ele>1253.34</ele>
        <time>2021-03-27T13:31:53Z</time>
      </trkpt>
      <trkpt lat="40.387825" lon="-5.637211">
        <ele>1248.97</ele>
        <time>2021-03-27T13:31:55Z</time>
      </trkpt>
      <trkpt lat="40.387849" lon="-5.637323">
        <ele>1248.1</ele>
        <time>2021-03-27T13:31:57Z</time>
      </trkpt>
      <trkpt lat="40.387904" lon="-5.637403">
        <ele>1246.62</ele>
        <time>2021-03-27T13:31:58Z</time>
      </trkpt>
      <trkpt lat="40.387995" lon="-5.637412">
        <ele>1244.63</ele>
        <time>2021-03-27T13:32:00Z</time>
      </trkpt>
      <trkpt lat="40.388043" lon="-5.637395">
        <ele>1243.65</ele>
        <time>2021-03-27T13:32:01Z</time>
      </trkpt>
      <trkpt lat="40.38818" lon="-5.637307">
        <ele>1241.45</ele>
        <time>2021-03-27T13:32:03Z</time>
      </trkpt>
      <trkpt lat="40.388288" lon="-5.637211">
        <ele>1239.86</ele>
        <time>2021-03-27T13:32:04Z</time>
      </trkpt>
      <trkpt lat="40.388611" lon="-5.63685">
        <ele>1234.34</ele>
        <time>2021-03-27T13:32:06Z</time>
      </trkpt>
      <trkpt lat="40.389032" lon="-5.63623">
        <ele>1230.24</ele>
        <time>2021-03-27T13:32:08Z</time>
      </trkpt>
      <trkpt lat="40.389148" lon="-5.636096">
        <ele>1229.15</ele>
        <time>2021-03-27T13:32:09Z</time>
      </trkpt>
      <trkpt lat="40.389192" lon="-5.636074">
        <ele>1228.67</ele>
        <time>2021-03-27T13:32:11Z</time>
      </trkpt>
      <trkpt lat="40.38928" lon="-5.636068">
        <ele>1227.96</ele>
        <time>2021-03-27T13:32:12Z</time>
      </trkpt>
      <trkpt lat="40.389629" lon="-5.63611">
        <ele>1225.67</ele>
        <time>2021-03-27T13:32:14Z</time>
      </trkpt>
      <trkpt lat="40.390048" lon="-5.636186">
        <ele>1223.1</ele>
        <time>2021-03-27T13:32:16Z</time>
      </trkpt>
      <trkpt lat="40.391085" lon="-5.636521">
        <ele>1217.53</ele>
        <time>2021-03-27T13:32:17Z</time>
      </trkpt>
      <trkpt lat="40.391274" lon="-5.636555">
        <ele>1217.6</ele>
        <time>2021-03-27T13:32:19Z</time>
      </trkpt>
      <trkpt lat="40.391373" lon="-5.636527">
        <ele>1217.49</ele>
        <time>2021-03-27T13:32:20Z</time>
      </trkpt>
      <trkpt lat="40.391471" lon="-5.636447">
        <ele>1217.21</ele>
        <time>2021-03-27T13:32:22Z</time>
      </trkpt>
      <trkpt lat="40.392041" lon="-5.635754">
        <ele>1210.43</ele>
        <time>2021-03-27T13:32:24Z</time>
      </trkpt>
      <trkpt lat="40.392115" lon="-5.635683">
        <ele>1209.92</ele>
        <time>2021-03-27T13:32:25Z</time>
      </trkpt>
      <trkpt lat="40.392211" lon="-5.635613">
        <ele>1209.42</ele>
        <time>2021-03-27T13:32:27Z</time>
      </trkpt>
      <trkpt lat="40.392431" lon="-5.63552">
        <ele>1208.05</ele>
        <time>2021-03-27T13:32:28Z</time>
      </trkpt>
      <trkpt lat="40.392535" lon="-5.635503">
        <ele>1206.96</ele>
        <time>2021-03-27T13:32:30Z</time>
      </trkpt>
      <trkpt lat="40.392624" lon="-5.635515">
        <ele>1205.4</ele>
        <time>2021-03-27T13:32:31Z</time>
      </trkpt>
      <trkpt lat="40.392985" lon="-5.635608">
        <ele>1200.91</ele>
        <time>2021-03-27T13:32:33Z</time>
      </trkpt>
      <trkpt lat="40.393072" lon="-5.63561">
        <ele>1199.96</ele>
        <time>2021-03-27T13:32:35Z</time>
      </trkpt>
      <trkpt lat="40.393182" lon="-5.635573">
        <ele>1199.29</ele>
        <time>2021-03-27T13:32:36Z</time>
      </trkpt>
      <trkpt lat="40.393398" lon="-5.635419">
        <ele>1196.09</ele>
        <time>2021-03-27T13:32:38Z</time>
      </trkpt>
      <trkpt lat="40.393515" lon="-5.635405">
        <ele>1194.21</ele>
        <time>2021-03-27T13:32:39Z</time>
      </trkpt>
      <trkpt lat="40.393572" lon="-5.635436">
        <ele>1193.83</ele>
        <time>2021-03-27T13:32:41Z</time>
      </trkpt>
      <trkpt lat="40.393834" lon="-5.635667">
        <ele>1192.99</ele>
        <time>2021-03-27T13:32:43Z</time>
      </trkpt>
      <trkpt lat="40.393957" lon="-5.635751">
        <ele>1192.37</ele>
        <time>2021-03-27T13:32:44Z</time>
      </trkpt>
      <trkpt lat="40.394102" lon="-5.635795">
        <ele>1190.59</ele>
        <time>2021-03-27T13:32:46Z</time>
      </trkpt>
      <trkpt lat="40.394217" lon="-5.635766">
        <ele>1188.34</ele>
        <time>2021-03-27T13:32:47Z</time>
      </trkpt>
      <trkpt lat="40.394307" lon="-5.635681">
        <ele>1186.06</ele>
        <time>2021-03-27T13:32:49Z</time>
      </trkpt>
      <trkpt lat="40.394345" lon="-5.635561">
        <ele>1184.13</ele>
        <time>2021-03-27T13:32:50Z</time>
      </trkpt>
      <trkpt lat="40.394349" lon="-5.635461">
        <ele>1183.11</ele>
        <time>2021-03-27T13:32:52Z</time>
      </trkpt>
      <trkpt lat="40.394299" lon="-5.634891">
        <ele>1181.04</ele>
        <time>2021-03-27T13:32:54Z</time>
      </trkpt>
      <trkpt lat="40.394302" lon="-5.634762">
        <ele>1181.02</ele>
        <time>2021-03-27T13:32:55Z</time>
      </trkpt>
      <trkpt lat="40.39443" lon="-5.633844">
        <ele>1181.19</ele>
        <time>2021-03-27T13:32:57Z</time>
      </trkpt>
      <trkpt lat="40.394483" lon="-5.63374">
        <ele>1180.59</ele>
        <time>2021-03-27T13:32:58Z</time>
      </trkpt>
      <trkpt lat="40.39453" lon="-5.633711">
        <ele>1180.07</ele>
        <time>2021-03-27T13:33:00Z</time>
      </trkpt>
      <trkpt lat="40.394629" lon="-5.633717">
        <ele>1179.0</ele>
        <time>2021-03-27T13:33:02Z</time>
      </trkpt>
      <trkpt lat="40.395001" lon="-5.633934">
        <ele>1173.98</ele>
        <time>2021-03-27T13:33:03Z</time>
      </trkpt>
      <trkpt lat="40.395094" lon="-5.634002">
        <ele>1172.85</ele>
        <time>2021-03-27T13:33:05Z</time>
      </trkpt>
      <trkpt lat="40.395142" lon="-5.63406">
        <ele>1172.15</ele>
        <time>2021-03-27T13:33:06Z</time>
      </trkpt>
      <trkpt lat="40.395215" lon="-5.634221">
        <ele>1170.7</ele>
        <time>2021-03-27T13:33:08Z</time>
      </trkpt>
      <trkpt lat="40.395382" lon="-5.634767">
        <ele>1166.88</ele>
        <time>2021-03-27T13:33:09Z</time>
      </trkpt>
      <trkpt lat="40.395518" lon="-5.63512">
        <ele>1165.46</ele>
        <time>2021-03-27T13:33:11Z</time>
      </trkpt>
      <trkpt lat="40.3961" lon="-5.636331">
        <ele>1160.74</ele>
        <time>2021-03-27T13:33:13Z</time>
      </trkpt>
      <trkpt lat="40.396152" lon="-5.636424">
        <ele>1159.66</ele>
        <time>2021-03-27T13:33:14Z</time>
      </trkpt>
      <trkpt lat="40.39629" lon="-5.636554">
        <ele>1158.32</ele>
        <time>2021-03-27T13:33:16Z</time>
      </trkpt>
      <trkpt lat="40.396709" lon="-5.636763">
        <ele>1155.85</ele>
        <time>2021-03-27T13:33:17Z</time>
      </trkpt>
      <trkpt lat="40.396861" lon="-5.636786">
        <ele>1154.04</ele>
        <time>2021-03-27T13:33:19Z</time>
      </trkpt>
      <trkpt lat="40.396923" lon="-5.636764">
        <ele>1153.53</ele>
        <time>2021-03-27T13:33:21Z</time>
      </trkpt>
      <trkpt lat="40.396979" lon="-5.63671">
        <ele>1153.21</ele>
        <time>2021-03-27T13:33:22Z</time>
      </trkpt>
      <trkpt lat="40.397445" lon="-5.635925">
        <ele>1150.47</ele>
        <time>2021-03-27T13:33:24Z</time>
      </trkpt>
      <trkpt lat="40.39753" lon="-5.635814">
        <ele>1149.51</ele>
        <time>2021-03-27T13:33:25Z</time>
      </trkpt>
      <trkpt lat="40.397592" lon="-5.635764">
        <ele>1148.51</ele>
        <time>2021-03-27T13:33:27Z</time>
      </trkpt>
      <trkpt lat="40.397649" lon="-5.635748">
        <ele>1147.71</ele>
        <time>2021-03-27T13:33:29Z</time>
      </trkpt>
      <trkpt lat="40.397752" lon="-5.635787">
        <ele>1146.35</ele>
        <time>2021-03-27T13:33:30Z</time>
      </trkpt>
      <trkpt lat="40.397815" lon="-5.635848">
        <ele>1145.58</ele>
        <time>2021-03-27T13:33:32Z</time>
      </trkpt>
      <trkpt lat="40.398407" lon="-5.636789">
        <ele>1136.88</ele>
        <time>2021-03-27T13:33:33Z</time>
      </trkpt>
      <trkpt lat="40.398487" lon="-5.637">
        <ele>1135.58</ele>
        <time>2021-03-27T13:33:35Z</time>
      </trkpt>
      <trkpt lat="40.398478" lon="-5.637263">
        <ele>1134.07</ele>
        <time>2021-03-27T13:33:36Z</time>
      </trkpt>
      <trkpt lat="40.398397" lon="-5.63766">
        <ele>1131.52</ele>
        <time>2021-03-27T13:33:38Z</time>
      </trkpt>
      <trkpt lat="40.398399" lon="-5.63776">
        <ele>1130.87</ele>
        <time>2021-03-27T13:33:40Z</time>
      </trkpt>
      <trkpt lat="40.398435" lon="-5.637893">
        <ele>1130.52</ele>
        <time>2021-03-27T13:33:41Z</time>
      </trkpt>
      <trkpt lat="40.398465" lon="-5.63795">
        <ele>1130.49</ele>
        <time>2021-03-27T13:33:43Z</time>
      </trkpt>
      <trkpt lat="40.398559" lon="-5.63802">
        <ele>1130.73</ele>
        <time>2021-03-27T13:33:44Z</time>
      </trkpt>
      <trkpt lat="40.399038" lon="-5.638005">
        <ele>1130.66</ele>
        <time>2021-03-27T13:33:46Z</time>
      </trkpt>
      <trkpt lat="40.399605" lon="-5.637942">
        <ele>1125.68</ele>
        <time>2021-03-27T13:33:48Z</time>
      </trkpt>
      <trkpt lat="40.399918" lon="-5.637749">
        <ele>1123.16</ele>
        <time>2021-03-27T13:33:49Z</time>
      </trkpt>
      <trkpt lat="40.400304" lon="-5.637439">
        <ele>1122.08</ele>
        <time>2021-03-27T13:33:51Z</time>
      </trkpt>
      <trkpt lat="40.400375" lon="-5.637363">
        <ele>1121.8</ele>
        <time>2021-03-27T13:33:52Z</time>
      </trkpt>
      <trkpt lat="40.400632" lon="-5.636999">
        <ele>1118.31</ele>
        <time>2021-03-27T13:33:54Z</time>
      </trkpt>
      <trkpt lat="40.400815" lon="-5.636841">
        <ele>1116.15</ele>
        <time>2021-03-27T13:33:55Z</time>
      </trkpt>
      <trkpt lat="40.400977" lon="-5.636792">
        <ele>1115.25</ele>
        <time>2021-03-27T13:33:57Z</time>
      </trkpt>
      <trkpt lat="40.401024" lon="-5.636812">
        <ele>1114.95</ele>
        <time>2021-03-27T13:33:59Z</time>
      </trkpt>
      <trkpt lat="40.401057" lon="-5.636853">
        <ele>1114.66</ele>
        <time>2021-03-27T13:34:00Z</time>
      </trkpt>
      <trkpt lat="40.401076" lon="-5.636984">
        <ele>1114.25</ele>
        <time>2021-03-27T13:34:03Z</time>
      </trkpt>
      <trkpt lat="40.401068" lon="-5.637195">
        <ele>1114.31</ele>
        <time>2021-03-27T13:34:05Z</time>
      </trkpt>
      <trkpt lat="40.40111" lon="-5.637342">
        <ele>1114.01</ele>
        <time>2021-03-27T13:34:07Z</time>
      </trkpt>
      <trkpt lat="40.401285" lon="-5.637572">
        <ele>1113.74</ele>
        <time>2021-03-27T13:34:10Z</time>
      </trkpt>
      <trkpt lat="40.40138" lon="-5.637651">
        <ele>1113.46</ele>
        <time>2021-03-27T13:34:12Z</time>
      </trkpt>
      <trkpt lat="40.401497" lon="-5.637687">
        <ele>1113.59</ele>
        <time>2021-03-27T13:34:14Z</time>
      </trkpt>
      <trkpt lat="40.40165" lon="-5.6377">
        <ele>1113.96</ele>
        <time>2021-03-27T13:34:17Z</time>
      </trkpt>
      <trkpt lat="40.401847" lon="-5.637672">
        <ele>1114.0</ele>
        <time>2021-03-27T13:34:19Z</time>
      </trkpt>
      <trkpt lat="40.402467" lon="-5.637293">
        <ele>1112.03</ele>
        <time>2021-03-27T13:34:21Z</time>
      </trkpt>
      <trkpt lat="40.402649" lon="-5.636975">
        <ele>1110.99</ele>
        <time>2021-03-27T13:34:24Z</time>
      </trkpt>
      <trkpt lat="40.402835" lon="-5.6367">
        <ele>1110.77</ele>
        <time>2021-03-27T13:34:26Z</time>
      </trkpt>
      <trkpt lat="40.40312" lon="-5.636332">
        <ele>1109.33</ele>
        <time>2021-03-27T13:34:28Z</time>
      </trkpt>
      <trkpt lat="40.403172" lon="-5.636176">
        <ele>1108.4</ele>
        <time>2021-03-27T13:34:31Z</time>
      </trkpt>
      <trkpt lat="40.403293" lon="-5.635934">
        <ele>1106.47</ele>
        <time>2021-03-27T13:34:33Z</time>
      </trkpt>
      <trkpt lat="40.403533" lon="-5.635516">
        <ele>1104.1</ele>
        <time>2021-03-27T13:34:36Z</time>
      </trkpt>
      <trkpt lat="40.403629" lon="-5.635271">
        <ele>1102.89</ele>
        <time>2021-03-27T13:34:38Z</time>
      </trkpt>
      <trkpt lat="40.403639" lon="-5.635146">
        <ele>1101.95</ele>
        <time>2021-03-27T13:34:40Z</time>
      </trkpt>
      <trkpt lat="40.403567" lon="-5.634889">
        <ele>1100.6</ele>
        <time>2021-03-27T13:34:43Z</time>
      </trkpt>
      <trkpt lat="40.403618" lon="-5.634658">
        <ele>1099.52</ele>
        <time>2021-03-27T13:34:45Z</time>
      </trkpt>
      <trkpt lat="40.403679" lon="-5.634512">
        <ele>1098.43</ele>
        <time>2021-03-27T13:34:47Z</time>
      </trkpt>
      <trkpt lat="40.403842" lon="-5.634326">
        <ele>1098.0</ele>
        <time>2021-03-27T13:34:50Z</time>
      </trkpt>
      <trkpt lat="40.403931" lon="-5.634149">
        <ele>1097.79</ele>
        <time>2021-03-27T13:34:52Z</time>
      </trkpt>
      <trkpt lat="40.404153" lon="-5.633854">
        <ele>1096.88</ele>
        <time>2021-03-27T13:34:54Z</time>
      </trkpt>
      <trkpt lat="40.404485" lon="-5.633539">
        <ele>1096.52</ele>
        <time>2021-03-27T13:34:57Z</time>
      </trkpt>
      <trkpt lat="40.404606" lon="-5.633389">
        <ele>1095.87</ele>
        <time>2021-03-27T13:34:59Z</time>
      </trkpt>
      <trkpt lat="40.404698" lon="-5.633472">
        <ele>1096.46</ele>
        <time>2021-03-27T13:35:02Z</time>
      </trkpt>
      <trkpt lat="40.404794" lon="-5.633493">
        <ele>1096.35</ele>
        <time>2021-03-27T13:35:05Z</time>
      </trkpt>
      <trkpt lat="40.405014" lon="-5.633492">
        <ele>1095.6</ele>
        <time>2021-03-27T13:35:08Z</time>
      </trkpt>
      <trkpt lat="40.405148" lon="-5.633543">
        <ele>1094.92</ele>
        <time>2021-03-27T13:35:11Z</time>
      </trkpt>
      <trkpt lat="40.405224" lon="-5.633604">
        <ele>1094.54</ele>
        <time>2021-03-27T13:35:14Z</time>
      </trkpt>
      <trkpt lat="40.405437" lon="-5.633858">
        <ele>1093.92</ele>
        <time>2021-03-27T13:35:17Z</time>
      </trkpt>
      <trkpt lat="40.40556" lon="-5.634035">
        <ele>1091.94</ele>
        <time>2021-03-27T13:35:20Z</time>
      </trkpt>
      <trkpt lat="40.405662" lon="-5.634247">
        <ele>1090.64</ele>
        <time>2021-03-27T13:35:23Z</time>
      </trkpt>
      <trkpt lat="40.405721" lon="-5.634449">
        <ele>1090.03</ele>
        <time>2021-03-27T13:35:26Z</time>
      </trkpt>
      <trkpt lat="40.405755" lon="-5.634645">
        <ele>1089.61</ele>
        <time>2021-03-27T13:35:29Z</time>
      </trkpt>
      <trkpt lat="40.405779" lon="-5.63495">
        <ele>1088.34</ele>
        <time>2021-03-27T13:35:32Z</time>
      </trkpt>
      <trkpt lat="40.405763" lon="-5.635307">
        <ele>1088.47</ele>
        <time>2021-03-27T13:35:35Z</time>
      </trkpt>
      <trkpt lat="40.405293" lon="-5.637607">
        <ele>1090.26</ele>
        <time>2021-03-27T13:35:39Z</time>
      </trkpt>
      <trkpt lat="40.405215" lon="-5.638163">
        <ele>1087.87</ele>
        <time>2021-03-27T13:35:42Z</time>
      </trkpt>
      <trkpt lat="40.405134" lon="-5.638921">
        <ele>1085.43</ele>
        <time>2021-03-27T13:35:45Z</time>
      </trkpt>
      <trkpt lat="40.404965" lon="-5.6409">
        <ele>1089.85</ele>
        <time>2021-03-27T13:35:48Z</time>
      </trkpt>
      <trkpt lat="40.40498" lon="-5.641427">
        <ele>1088.5</ele>
        <time>2021-03-27T13:35:51Z</time>
      </trkpt>
      <trkpt lat="40.405058" lon="-5.641873">
        <ele>1087.7</ele>
        <time>2021-03-27T13:35:54Z</time>
      </trkpt>
      <trkpt lat="40.405114" lon="-5.642098">
        <ele>1087.51</ele>
        <time>2021-03-27T13:35:57Z</time>
      </trkpt>
      <trkpt lat="40.405202" lon="-5.642368">
        <ele>1087.55</ele>
        <time>2021-03-27T13:36:00Z</time>
      </trkpt>
      <trkpt lat="40.405829" lon="-5.643913">
        <ele>1091.96</ele>
        <time>2021-03-27T13:36:03Z</time>
      </trkpt>
      <trkpt lat="40.405892" lon="-5.644132">
        <ele>1089.82</ele>
        <time>2021-03-27T13:36:06Z</time>
      </trkpt>
      <trkpt lat="40.405934" lon="-5.644363">
        <ele>1087.67</ele>
        <time>2021-03-27T13:36:09Z</time>
      </trkpt>
      <trkpt lat="40.405951" lon="-5.644671">
        <ele>1086.06</ele>
        <time>2021-03-27T13:36:12Z</time>
      </trkpt>
      <trkpt lat="40.405934" lon="-5.644928">
        <ele>1085.98</ele>
        <time>2021-03-27T13:36:15Z</time>
      </trkpt>
      <trkpt lat="40.405882" lon="-5.645211">
        <ele>1087.23</ele>
        <time>2021-03-27T13:36:18Z</time>
      </trkpt>
      <trkpt lat="40.405799" lon="-5.645465">
        <ele>1088.2</ele>
        <time>2021-03-27T13:36:21Z</time>
      </trkpt>
      <trkpt lat="40.405692" lon="-5.645696">
        <ele>1087.51</ele>
        <time>2021-03-27T13:36:24Z</time>
      </trkpt>
      <trkpt lat="40.405261" lon="-5.646368">
        <ele>1087.33</ele>
        <time>2021-03-27T13:36:27Z</time>
      </trkpt>
      <trkpt lat="40.405156" lon="-5.646567">
        <ele>1087.4</ele>
        <time>2021-03-27T13:36:30Z</time>
      </trkpt>
      <trkpt lat="40.4051" lon="-5.646711">
        <ele>1087.22</ele>
        <time>2021-03-27T13:36:33Z</time>
      </trkpt>
      <trkpt lat="40.405011" lon="-5.64711">
        <ele>1087.89</ele>
        <time>2021-03-27T13:36:36Z</time>
      </trkpt>
      <trkpt lat="40.404277" lon="-5.654441">
        <ele>1119.01</ele>
        <time>2021-03-27T13:36:39Z</time>
      </trkpt>
      <trkpt lat="40.404246" lon="-5.654839">
        <ele>1122.69</ele>
        <time>2021-03-27T13:36:42Z</time>
      </trkpt>
      <trkpt lat="40.404226" lon="-5.655562">
        <ele>1124.88</ele>
        <time>2021-03-27T13:36:46Z</time>
      </trkpt>
      <trkpt lat="40.404251" lon="-5.655986">
        <ele>1126.38</ele>
        <time>2021-03-27T13:36:49Z</time>
      </trkpt>
      <trkpt lat="40.404297" lon="-5.656426">
        <ele>1128.78</ele>
        <time>2021-03-27T13:36:52Z</time>
      </trkpt>
      <trkpt lat="40.406024" lon="-5.667523">
        <ele>1144.19</ele>
        <time>2021-03-27T13:36:55Z</time>
      </trkpt>
      <trkpt lat="40.40624" lon="-5.668844">
        <ele>1157.49</ele>
        <time>2021-03-27T13:36:58Z</time>
      </trkpt>
      <trkpt lat="40.406356" lon="-5.669605">
        <ele>1162.97</ele>
        <time>2021-03-27T13:37:01Z</time>
      </trkpt>
      <trkpt lat="40.406424" lon="-5.670192">
        <ele>1167.27</ele>
        <time>2021-03-27T13:37:04Z</time>
      </trkpt>
      <trkpt lat="40.406455" lon="-5.67061">
        <ele>1168.77</ele>
        <time>2021-03-27T13:37:07Z</time>
      </trkpt>
      <trkpt lat="40.406465" lon="-5.671172">
        <ele>1172.39</ele>
        <time>2021-03-27T13:37:10Z</time>
      </trkpt>
      <trkpt lat="40.406435" lon="-5.671737">
        <ele>1172.42</ele>
        <time>2021-03-27T13:37:13Z</time>
      </trkpt>
      <trkpt lat="40.406379" lon="-5.672415">
        <ele>1172.43</ele>
        <time>2021-03-27T13:37:16Z</time>
      </trkpt>
      <trkpt lat="40.405975" lon="-5.676524">
        <ele>1190.2</ele>
        <time>2021-03-27T13:37:19Z</time>
      </trkpt>
      <trkpt lat="40.405966" lon="-5.676788">
        <ele>1191.48</ele>
        <time>2021-03-27T13:37:22Z</time>
      </trkpt>
      <trkpt lat="40.405983" lon="-5.67709">
        <ele>1192.48</ele>
        <time>2021-03-27T13:37:25Z</time>
      </trkpt>
      <trkpt lat="40.406015" lon="-5.677266">
        <ele>1193.1</ele>
        <time>2021-03-27T13:37:28Z</time>
      </trkpt>
      <trkpt lat="40.406086" lon="-5.677525">
        <ele>1194.08</ele>
        <time>2021-03-27T13:37:31Z</time>
      </trkpt>
      <trkpt lat="40.406183" lon="-5.677758">
        <ele>1196.38</ele>
        <time>2021-03-27T13:37:34Z</time>
      </trkpt>
      <trkpt lat="40.406315" lon="-5.677976">
        <ele>1199.09</ele>
        <time>2021-03-27T13:37:37Z</time>
      </trkpt>
      <trkpt lat="40.406447" lon="-5.678147">
        <ele>1200.89</ele>
        <time>2021-03-27T13:37:40Z</time>
      </trkpt>
      <trkpt lat="40.406606" lon="-5.678288">
        <ele>1201.78</ele>
        <time>2021-03-27T13:37:43Z</time>
      </trkpt>
      <trkpt lat="40.406805" lon="-5.678436">
        <ele>1201.85</ele>
        <time>2021-03-27T13:37:46Z</time>
      </trkpt>
      <trkpt lat="40.408867" lon="-5.679518">
        <ele>1204.72</ele>
        <time>2021-03-27T13:37:49Z</time>
      </trkpt>
      <trkpt lat="40.409235" lon="-5.679749">
        <ele>1209.44</ele>
        <time>2021-03-27T13:37:52Z</time>
      </trkpt>
      <trkpt lat="40.40952" lon="-5.68">
        <ele>1212.55</ele>
        <time>2021-03-27T13:37:56Z</time>
      </trkpt>
      <trkpt lat="40.409762" lon="-5.680318">
        <ele>1215.29</ele>
        <time>2021-03-27T13:37:59Z</time>
      </trkpt>
      <trkpt lat="40.409899" lon="-5.680575">
        <ele>1217.24</ele>
        <time>2021-03-27T13:38:02Z</time>
      </trkpt>
      <trkpt lat="40.410095" lon="-5.681044">
        <ele>1220.99</ele>
        <time>2021-03-27T13:38:05Z</time>
      </trkpt>
      <trkpt lat="40.410342" lon="-5.6817">
        <ele>1222.0</ele>
        <time>2021-03-27T13:38:08Z</time>
      </trkpt>
      <trkpt lat="40.41046" lon="-5.681918">
        <ele>1222.36</ele>
        <time>2021-03-27T13:38:11Z</time>
      </trkpt>
      <trkpt lat="40.410577" lon="-5.682072">
        <ele>1222.72</ele>
        <time>2021-03-27T13:38:14Z</time>
      </trkpt>
      <trkpt lat="40.410699" lon="-5.682198">
        <ele>1224.09</ele>
        <time>2021-03-27T13:38:17Z</time>
      </trkpt>
      <trkpt lat="40.410841" lon="-5.682288">
        <ele>1225.48</ele>
        <time>2021-03-27T13:38:20Z</time>
      </trkpt>
      <trkpt lat="40.410988" lon="-5.682352">
        <ele>1228.43</ele>
        <time>2021-03-27T13:38:23Z</time>
      </trkpt>
      <trkpt lat="40.411108" lon="-5.682371">
        <ele>1230.25</ele>
        <time>2021-03-27T13:38:26Z</time>
      </trkpt>
      <trkpt lat="40.411552" lon="-5.682368">
        <ele>1232.05</ele>
        <time>2021-03-27T13:38:29Z</time>
      </trkpt>
      <trkpt lat="40.411736" lon="-5.682394">
        <ele>1231.37</ele>
        <time>2021-03-27T13:38:32Z</time>
      </trkpt>
      <trkpt lat="40.411883" lon="-5.682445">
        <ele>1230.36</ele>
        <time>2021-03-27T13:38:35Z</time>
      </trkpt>
      <trkpt lat="40.412021" lon="-5.682521">
        <ele>1230.11</ele>
        <time>2021-03-27T13:38:38Z</time>
      </trkpt>
      <trkpt lat="40.412135" lon="-5.682615">
        <ele>1230.95</ele>
        <time>2021-03-27T13:38:41Z</time>
      </trkpt>
      <trkpt lat="40.412323" lon="-5.682853">
        <ele>1232.24</ele>
        <time>2021-03-27T13:38:44Z</time>
      </trkpt>
      <trkpt lat="40.412423" lon="-5.683081">
        <ele>1234.02</ele>
        <time>2021-03-27T13:38:47Z</time>
      </trkpt>
      <trkpt lat="40.412472" lon="-5.683267">
        <ele>1235.65</ele>
        <time>2021-03-27T13:38:50Z</time>
      </trkpt>
      <trkpt lat="40.412497" lon="-5.683505">
        <ele>1237.3</ele>
        <time>2021-03-27T13:38:53Z</time>
      </trkpt>
      <trkpt lat="40.412484" lon="-5.683823">
        <ele>1238.28</ele>
        <time>2021-03-27T13:38:56Z</time>
      </trkpt>
      <trkpt lat="40.411991" lon="-5.688004">
        <ele>1258.42</ele>
        <time>2021-03-27T13:38:59Z</time>
      </trkpt>
      <trkpt lat="40.411973" lon="-5.688264">
        <ele>1261.44</ele>
        <time>2021-03-27T13:39:02Z</time>
      </trkpt>
      <trkpt lat="40.412002" lon="-5.688576">
        <ele>1262.4</ele>
        <time>2021-03-27T13:39:06Z</time>
      </trkpt>
      <trkpt lat="40.412032" lon="-5.688753">
        <ele>1263.13</ele>
        <time>2021-03-27T13:39:09Z</time>
      </trkpt>
      <trkpt lat="40.412424" lon="-5.689899">
        <ele>1265.74</ele>
        <time>2021-03-27T13:39:12Z</time>
      </trkpt>
      <trkpt lat="40.412616" lon="-5.690305">
        <ele>1268.09</ele>
        <time>2021-03-27T13:39:15Z</time>
      </trkpt>
      <trkpt lat="40.412758" lon="-5.690511">
        <ele>1269.46</ele>
        <time>2021-03-27T13:39:18Z</time>
      </trkpt>
      <trkpt lat="40.413608" lon="-5.691595">
        <ele>1273.75</ele>
        <time>2021-03-27T13:39:21Z</time>
      </trkpt>
      <trkpt lat="40.413781" lon="-5.691892">
        <ele>1273.68</ele>
        <time>2021-03-27T13:39:24Z</time>
      </trkpt>
      <trkpt lat="40.413857" lon="-5.692144">
        <ele>1273.92</ele>
        <time>2021-03-27T13:39:27Z</time>
      </trkpt>
      <trkpt lat="40.413906" lon="-5.692428">
        <ele>1274.45</ele>
        <time>2021-03-27T13:39:30Z</time>
      </trkpt>
      <trkpt lat="40.413923" lon="-5.693392">
        <ele>1278.48</ele>
        <time>2021-03-27T13:39:33Z</time>
      </trkpt>
      <trkpt lat="40.413938" lon="-5.693562">
        <ele>1280.15</ele>
        <time>2021-03-27T13:39:36Z</time>
      </trkpt>
      <trkpt lat="40.413997" lon="-5.693949">
        <ele>1282.22</ele>
        <time>2021-03-27T13:39:39Z</time>
      </trkpt>
      <trkpt lat="40.414199" lon="-5.694863">
        <ele>1285.16</ele>
        <time>2021-03-27T13:39:42Z</time>
      </trkpt>
      <trkpt lat="40.414242" lon="-5.695134">
        <ele>1285.18</ele>
        <time>2021-03-27T13:39:45Z</time>
      </trkpt>
      <trkpt lat="40.414255" lon="-5.695328">
        <ele>1285.22</ele>
        <time>2021-03-27T13:39:48Z</time>
      </trkpt>
      <trkpt lat="40.414233" lon="-5.695654">
        <ele>1286.45</ele>
        <time>2021-03-27T13:39:51Z</time>
      </trkpt>
      <trkpt lat="40.414166" lon="-5.695927">
        <ele>1287.35</ele>
        <time>2021-03-27T13:39:54Z</time>
      </trkpt>
      <trkpt lat="40.414085" lon="-5.696124">
        <ele>1288.53</ele>
        <time>2021-03-27T13:39:57Z</time>
      </trkpt>
      <trkpt lat="40.413986" lon="-5.696301">
        <ele>1288.17</ele>
        <time>2021-03-27T13:40:00Z</time>
      </trkpt>
      <trkpt lat="40.413746" lon="-5.696594">
        <ele>1287.15</ele>
        <time>2021-03-27T13:40:03Z</time>
      </trkpt>
      <trkpt lat="40.413152" lon="-5.69721">
        <ele>1283.15</ele>
        <time>2021-03-27T13:40:06Z</time>
      </trkpt>
      <trkpt lat="40.412887" lon="-5.697413">
        <ele>1281.31</ele>
        <time>2021-03-27T13:40:09Z</time>
      </trkpt>
      <trkpt lat="40.412614" lon="-5.697527">
        <ele>1279.6</ele>
        <time>2021-03-27T13:40:13Z</time>
      </trkpt>
      <trkpt lat="40.412245" lon="-5.697582">
        <ele>1277.25</ele>
        <time>2021-03-27T13:40:16Z</time>
      </trkpt>
      <trkpt lat="40.410534" lon="-5.697522">
        <ele>1265.21</ele>
        <time>2021-03-27T13:40:19Z</time>
      </trkpt>
      <trkpt lat="40.410363" lon="-5.697554">
        <ele>1263.06</ele>
        <time>2021-03-27T13:40:22Z</time>
      </trkpt>
      <trkpt lat="40.410133" lon="-5.697591">
        <ele>1260.49</ele>
        <time>2021-03-27T13:40:23Z</time>
      </trkpt>
      <trkpt lat="40.410079" lon="-5.697574">
        <ele>1260.63</ele>
        <time>2021-03-27T13:40:23Z</time>
      </trkpt>
      <trkpt lat="40.410022" lon="-5.697447">
        <ele>1263.52</ele>
        <time>2021-03-27T13:40:25Z</time>
      </trkpt>
      <trkpt lat="40.410015" lon="-5.697328">
        <ele>1266.51</ele>
        <time>2021-03-27T13:40:27Z</time>
      </trkpt>
      <trkpt lat="40.409983" lon="-5.697239">
        <ele>1268.41</ele>
        <time>2021-03-27T13:40:29Z</time>
      </trkpt>
      <trkpt lat="40.409872" lon="-5.697163">
        <ele>1268.67</ele>
        <time>2021-03-27T13:40:31Z</time>
      </trkpt>
      <trkpt lat="40.409728" lon="-5.697159">
        <ele>1267.19</ele>
        <time>2021-03-27T13:40:32Z</time>
      </trkpt>
      <trkpt lat="40.409543" lon="-5.697222">
        <ele>1264.72</ele>
        <time>2021-03-27T13:40:34Z</time>
      </trkpt>
      <trkpt lat="40.409375" lon="-5.697231">
        <ele>1264.15</ele>
        <time>2021-03-27T13:40:36Z</time>
      </trkpt>
      <trkpt lat="40.409276" lon="-5.6972">
        <ele>1264.95</ele>
        <time>2021-03-27T13:40:38Z</time>
      </trkpt>
      <trkpt lat="40.409187" lon="-5.697141">
        <ele>1266.11</ele>
        <time>2021-03-27T13:40:40Z</time>
      </trkpt>
      <trkpt lat="40.409006" lon="-5.69692">
        <ele>1268.68</ele>
        <time>2021-03-27T13:40:41Z</time>
      </trkpt>
      <trkpt lat="40.408627" lon="-5.696313">
        <ele>1272.24</ele>
        <time>2021-03-27T13:40:43Z</time>
      </trkpt>
      <trkpt lat="40.408486" lon="-5.696132">
        <ele>1273.38</ele>
        <time>2021-03-27T13:40:45Z</time>
      </trkpt>
      <trkpt lat="40.408191" lon="-5.695829">
        <ele>1276.07</ele>
        <time>2021-03-27T13:40:47Z</time>
      </trkpt>
      <trkpt lat="40.407358" lon="-5.695066">
        <ele>1287.9</ele>
        <time>2021-03-27T13:40:49Z</time>
      </trkpt>
      <trkpt lat="40.407112" lon="-5.694923">
        <ele>1289.83</ele>
        <time>2021-03-27T13:40:50Z</time>
      </trkpt>
      <trkpt lat="40.406872" lon="-5.694857">
        <ele>1291.21</ele>
        <time>2021-03-27T13:40:52Z</time>
      </trkpt>
      <trkpt lat="40.406715" lon="-5.694844">
        <ele>1291.74</ele>
        <time>2021-03-27T13:40:54Z</time>
      </trkpt>
      <trkpt lat="40.406531" lon="-5.694855">
        <ele>1292.1</ele>
        <time>2021-03-27T13:40:56Z</time>
      </trkpt>
      <trkpt lat="40.40579" lon="-5.694975">
        <ele>1292.2</ele>
        <time>2021-03-27T13:40:58Z</time>
      </trkpt>
      <trkpt lat="40.405634" lon="-5.694947">
        <ele>1292.05</ele>
        <time>2021-03-27T13:40:59Z</time>
      </trkpt>
      <trkpt lat="40.405453" lon="-5.694882">
        <ele>1291.8</ele>
        <time>2021-03-27T13:41:01Z</time>
      </trkpt>
      <trkpt lat="40.405222" lon="-5.694742">
        <ele>1291.16</ele>
        <time>2021-03-27T13:41:03Z</time>
      </trkpt>
      <trkpt lat="40.405031" lon="-5.694564">
        <ele>1292.18</ele>
        <time>2021-03-27T13:41:05Z</time>
      </trkpt>
      <trkpt lat="40.404898" lon="-5.694394">
        <ele>1294.03</ele>
        <time>2021-03-27T13:41:07Z</time>
      </trkpt>
      <trkpt lat="40.404767" lon="-5.694153">
        <ele>1297.04</ele>
        <time>2021-03-27T13:41:08Z</time>
      </trkpt>
      <trkpt lat="40.404449" lon="-5.69344">
        <ele>1300.56</ele>
        <time>2021-03-27T13:41:10Z</time>
      </trkpt>
      <trkpt lat="40.403993" lon="-5.692515">
        <ele>1305.95</ele>
        <time>2021-03-27T13:41:12Z</time>
      </trkpt>
      <trkpt lat="40.403286" lon="-5.691256">
        <ele>1307.36</ele>
        <time>2021-03-27T13:41:14Z</time>
      </trkpt>
      <trkpt lat="40.402983" lon="-5.690851">
        <ele>1305.15</ele>
        <time>2021-03-27T13:41:15Z</time>
      </trkpt>
      <trkpt lat="40.401765" lon="-5.689473">
        <ele>1310.93</ele>
        <time>2021-03-27T13:41:17Z</time>
      </trkpt>
      <trkpt lat="40.401519" lon="-5.689249">
        <ele>1310.84</ele>
        <time>2021-03-27T13:41:19Z</time>
      </trkpt>
      <trkpt lat="40.401374" lon="-5.68916">
        <ele>1310.94</ele>
        <time>2021-03-27T13:41:21Z</time>
      </trkpt>
      <trkpt lat="40.401063" lon="-5.689095">
        <ele>1309.95</ele>
        <time>2021-03-27T13:41:23Z</time>
      </trkpt>
      <trkpt lat="40.400852" lon="-5.689114">
        <ele>1309.82</ele>
        <time>2021-03-27T13:41:24Z</time>
      </trkpt>
      <trkpt lat="40.400346" lon="-5.68926">
        <ele>1311.5</ele>
        <time>2021-03-27T13:41:26Z</time>
      </trkpt>
      <trkpt lat="40.400213" lon="-5.689276">
        <ele>1312.07</ele>
        <time>2021-03-27T13:41:28Z</time>
      </trkpt>
      <trkpt lat="40.399964" lon="-5.689258">
        <ele>1314.05</ele>
        <time>2021-03-27T13:41:30Z</time>
      </trkpt>
      <trkpt lat="40.399815" lon="-5.689214">
        <ele>1315.83</ele>
        <time>2021-03-27T13:41:32Z</time>
      </trkpt>
      <trkpt lat="40.398981" lon="-5.688712">
        <ele>1317.31</ele>
        <time>2021-03-27T13:41:33Z</time>
      </trkpt>
      <trkpt lat="40.398557" lon="-5.688408">
        <ele>1321.26</ele>
        <time>2021-03-27T13:41:35Z</time>
      </trkpt>
      <trkpt lat="40.398385" lon="-5.688237">
        <ele>1323.51</ele>
        <time>2021-03-27T13:41:37Z</time>
      </trkpt>
      <trkpt lat="40.398212" lon="-5.687993">
        <ele>1326.18</ele>
        <time>2021-03-27T13:41:39Z</time>
      </trkpt>
      <trkpt lat="40.397958" lon="-5.687572">
        <ele>1329.54</ele>
        <time>2021-03-27T13:41:41Z</time>
      </trkpt>
      <trkpt lat="40.397852" lon="-5.687466">
        <ele>1331.16</ele>
        <time>2021-03-27T13:41:42Z</time>
      </trkpt>
      <trkpt lat="40.39773" lon="-5.687391">
        <ele>1333.35</ele>
        <time>2021-03-27T13:41:44Z</time>
      </trkpt>
      <trkpt lat="40.397616" lon="-5.687377">
        <ele>1335.94</ele>
        <time>2021-03-27T13:41:46Z</time>
      </trkpt>
      <trkpt lat="40.3975" lon="-5.68743">
        <ele>1339.25</ele>
        <time>2021-03-27T13:41:48Z</time>
      </trkpt>
      <trkpt lat="40.397409" lon="-5.68751">
        <ele>1342.0</ele>
        <time>2021-03-27T13:41:50Z</time>
      </trkpt>
      <trkpt lat="40.397201" lon="-5.687876">
        <ele>1347.54</ele>
        <time>2021-03-27T13:41:51Z</time>
      </trkpt>
      <trkpt lat="40.39711" lon="-5.688101">
        <ele>1349.33</ele>
        <time>2021-03-27T13:41:53Z</time>
      </trkpt>
      <trkpt lat="40.397028" lon="-5.688168">
        <ele>1350.69</ele>
        <time>2021-03-27T13:41:55Z</time>
      </trkpt>
      <trkpt lat="40.396913" lon="-5.688165">
        <ele>1353.59</ele>
        <time>2021-03-27T13:41:57Z</time>
      </trkpt>
      <trkpt lat="40.396826" lon="-5.688041">
        <ele>1356.99</ele>
        <time>2021-03-27T13:41:59Z</time>
      </trkpt>
      <trkpt lat="40.396755" lon="-5.687639">
        <ele>1358.12</ele>
        <time>2021-03-27T13:42:00Z</time>
      </trkpt>
      <trkpt lat="40.396672" lon="-5.687422">
        <ele>1359.57</ele>
        <time>2021-03-27T13:42:02Z</time>
      </trkpt>
      <trkpt lat="40.396621" lon="-5.687319">
        <ele>1360.01</ele>
        <time>2021-03-27T13:42:04Z</time>
      </trkpt>
      <trkpt lat="40.39657" lon="-5.687256">
        <ele>1360.51</ele>
        <time>2021-03-27T13:42:06Z</time>
      </trkpt>
      <trkpt lat="40.396496" lon="-5.687234">
        <ele>1361.5</ele>
        <time>2021-03-27T13:42:08Z</time>
      </trkpt>
      <trkpt lat="40.396426" lon="-5.687243">
        <ele>1362.54</ele>
        <time>2021-03-27T13:42:09Z</time>
      </trkpt>
      <trkpt lat="40.396364" lon="-5.687292">
        <ele>1363.67</ele>
        <time>2021-03-27T13:42:11Z</time>
      </trkpt>
      <trkpt lat="40.396291" lon="-5.687389">
        <ele>1365.15</ele>
        <time>2021-03-27T13:42:13Z</time>
      </trkpt>
      <trkpt lat="40.395817" lon="-5.688186">
        <ele>1371.96</ele>
        <time>2021-03-27T13:42:15Z</time>
      </trkpt>
      <trkpt lat="40.395616" lon="-5.688604">
        <ele>1374.95</ele>
        <time>2021-03-27T13:42:17Z</time>
      </trkpt>
      <trkpt lat="40.395549" lon="-5.688691">
        <ele>1375.25</ele>
        <time>2021-03-27T13:42:18Z</time>
      </trkpt>
      <trkpt lat="40.395443" lon="-5.688698">
        <ele>1377.09</ele>
        <time>2021-03-27T13:42:20Z</time>
      </trkpt>
      <trkpt lat="40.3954" lon="-5.688656">
        <ele>1378.31</ele>
        <time>2021-03-27T13:42:22Z</time>
      </trkpt>
      <trkpt lat="40.395368" lon="-5.688549">
        <ele>1379.81</ele>
        <time>2021-03-27T13:42:24Z</time>
      </trkpt>
      <trkpt lat="40.395335" lon="-5.68815">
        <ele>1383.3</ele>
        <time>2021-03-27T13:42:26Z</time>
      </trkpt>
      <trkpt lat="40.395245" lon="-5.687548">
        <ele>1388.59</ele>
        <time>2021-03-27T13:42:27Z</time>
      </trkpt>
      <trkpt lat="40.395204" lon="-5.687418">
        <ele>1390.34</ele>
        <time>2021-03-27T13:42:29Z</time>
      </trkpt>
      <trkpt lat="40.395096" lon="-5.687267">
        <ele>1393.51</ele>
        <time>2021-03-27T13:42:31Z</time>
      </trkpt>
      <trkpt lat="40.395033" lon="-5.687227">
        <ele>1395.17</ele>
        <time>2021-03-27T13:42:33Z</time>
      </trkpt>
      <trkpt lat="40.394972" lon="-5.687224">
        <ele>1396.6</ele>
        <time>2021-03-27T13:42:35Z</time>
      </trkpt>
      <trkpt lat="40.394894" lon="-5.687258">
        <ele>1398.29</ele>
        <time>2021-03-27T13:42:36Z</time>
      </trkpt>
      <trkpt lat="40.394815" lon="-5.687352">
        <ele>1399.99</ele>
        <time>2021-03-27T13:42:38Z</time>
      </trkpt>
      <trkpt lat="40.394586" lon="-5.68776">
        <ele>1403.07</ele>
        <time>2021-03-27T13:42:40Z</time>
      </trkpt>
      <trkpt lat="40.394224" lon="-5.688197">
        <ele>1405.93</ele>
        <time>2021-03-27T13:42:42Z</time>
      </trkpt>
      <trkpt lat="40.394024" lon="-5.688471">
        <ele>1406.58</ele>
        <time>2021-03-27T13:42:44Z</time>
      </trkpt>
      <trkpt lat="40.393961" lon="-5.688481">
        <ele>1407.89</ele>
        <time>2021-03-27T13:42:45Z</time>
      </trkpt>
      <trkpt lat="40.393909" lon="-5.688459">
        <ele>1409.1</ele>
        <time>2021-03-27T13:42:47Z</time>
      </trkpt>
      <trkpt lat="40.393831" lon="-5.688323">
        <ele>1411.31</ele>
        <time>2021-03-27T13:42:49Z</time>
      </trkpt>
      <trkpt lat="40.393806" lon="-5.688214">
        <ele>1412.39</ele>
        <time>2021-03-27T13:42:51Z</time>
      </trkpt>
      <trkpt lat="40.39381" lon="-5.688124">
        <ele>1412.78</ele>
        <time>2021-03-27T13:42:53Z</time>
      </trkpt>
      <trkpt lat="40.393881" lon="-5.687863">
        <ele>1413.55</ele>
        <time>2021-03-27T13:42:54Z</time>
      </trkpt>
      <trkpt lat="40.393886" lon="-5.687697">
        <ele>1415.23</ele>
        <time>2021-03-27T13:42:56Z</time>
      </trkpt>
      <trkpt lat="40.393875" lon="-5.687437">
        <ele>1419.04</ele>
        <time>2021-03-27T13:42:58Z</time>
      </trkpt>
      <trkpt lat="40.393741" lon="-5.686404">
        <ele>1428.28</ele>
        <time>2021-03-27T13:43:00Z</time>
      </trkpt>
      <trkpt lat="40.393673" lon="-5.686084">
        <ele>1429.6</ele>
        <time>2021-03-27T13:43:02Z</time>
      </trkpt>
      <trkpt lat="40.393588" lon="-5.685786">
        <ele>1430.92</ele>
        <time>2021-03-27T13:43:03Z</time>
      </trkpt>
      <trkpt lat="40.393246" lon="-5.684821">
        <ele>1444.99</ele>
        <time>2021-03-27T13:43:05Z</time>
      </trkpt>
      <trkpt lat="40.393167" lon="-5.684473">
        <ele>1446.93</ele>
        <time>2021-03-27T13:43:07Z</time>
      </trkpt>
      <trkpt lat="40.393109" lon="-5.68437">
        <ele>1447.5</ele>
        <time>2021-03-27T13:43:09Z</time>
      </trkpt>
      <trkpt lat="40.39305" lon="-5.68434">
        <ele>1448.68</ele>
        <time>2021-03-27T13:43:11Z</time>
      </trkpt>
      <trkpt lat="40.392986" lon="-5.684343">
        <ele>1450.78</ele>
        <time>2021-03-27T13:43:12Z</time>
      </trkpt>
      <trkpt lat="40.392922" lon="-5.684382">
        <ele>1453.43</ele>
        <time>2021-03-27T13:43:14Z</time>
      </trkpt>
      <trkpt lat="40.392863" lon="-5.684497">
        <ele>1456.61</ele>
        <time>2021-03-27T13:43:16Z</time>
      </trkpt>
      <trkpt lat="40.392848" lon="-5.684602">
        <ele>1457.84</ele>
        <time>2021-03-27T13:43:18Z</time>
      </trkpt>
      <trkpt lat="40.392847" lon="-5.684949">
        <ele>1458.97</ele>
        <time>2021-03-27T13:43:20Z</time>
      </trkpt>
      <trkpt lat="40.392817" lon="-5.68515">
        <ele>1460.47</ele>
        <time>2021-03-27T13:43:21Z</time>
      </trkpt>
      <trkpt lat="40.392728" lon="-5.685647">
        <ele>1464.01</ele>
        <time>2021-03-27T13:43:23Z</time>
      </trkpt>
      <trkpt lat="40.392679" lon="-5.685857">
        <ele>1464.79</ele>
        <time>2021-03-27T13:43:25Z</time>
      </trkpt>
      <trkpt lat="40.392619" lon="-5.686028">
        <ele>1465.86</ele>
        <time>2021-03-27T13:43:27Z</time>
      </trkpt>
      <trkpt lat="40.392531" lon="-5.686192">
        <ele>1467.14</ele>
        <time>2021-03-27T13:43:29Z</time>
      </trkpt>
      <trkpt lat="40.392429" lon="-5.68631">
        <ele>1468.82</ele>
        <time>2021-03-27T13:43:30Z</time>
      </trkpt>
      <trkpt lat="40.392316" lon="-5.686384">
        <ele>1470.98</ele>
        <time>2021-03-27T13:43:32Z</time>
      </trkpt>
      <trkpt lat="40.392095" lon="-5.686455">
        <ele>1472.96</ele>
        <time>2021-03-27T13:43:34Z</time>
      </trkpt>
      <trkpt lat="40.391855" lon="-5.686434">
        <ele>1474.43</ele>
        <time>2021-03-27T13:43:36Z</time>
      </trkpt>
      <trkpt lat="40.391744" lon="-5.686384">
        <ele>1475.48</ele>
        <time>2021-03-27T13:43:38Z</time>
      </trkpt>
      <trkpt lat="40.391531" lon="-5.686211">
        <ele>1478.57</ele>
        <time>2021-03-27T13:43:39Z</time>
      </trkpt>
      <trkpt lat="40.391437" lon="-5.686104">
        <ele>1480.58</ele>
        <time>2021-03-27T13:43:41Z</time>
      </trkpt>
      <trkpt lat="40.39137" lon="-5.685987">
        <ele>1482.95</ele>
        <time>2021-03-27T13:43:43Z</time>
      </trkpt>
      <trkpt lat="40.391331" lon="-5.685868">
        <ele>1485.1</ele>
        <time>2021-03-27T13:43:45Z</time>
      </trkpt>
      <trkpt lat="40.391285" lon="-5.685416">
        <ele>1491.5</ele>
        <time>2021-03-27T13:43:47Z</time>
      </trkpt>
      <trkpt lat="40.391251" lon="-5.685278">
        <ele>1492.97</ele>
        <time>2021-03-27T13:43:48Z</time>
      </trkpt>
      <trkpt lat="40.391154" lon="-5.685115">
        <ele>1494.3</ele>
        <time>2021-03-27T13:43:50Z</time>
      </trkpt>
      <trkpt lat="40.391025" lon="-5.685031">
        <ele>1495.86</ele>
        <time>2021-03-27T13:43:52Z</time>
      </trkpt>
      <trkpt lat="40.39093" lon="-5.685024">
        <ele>1496.84</ele>
        <time>2021-03-27T13:43:54Z</time>
      </trkpt>
      <trkpt lat="40.390815" lon="-5.685051">
        <ele>1497.89</ele>
        <time>2021-03-27T13:43:56Z</time>
      </trkpt>
      <trkpt lat="40.390243" lon="-5.685448">
        <ele>1506.32</ele>
        <time>2021-03-27T13:43:57Z</time>
      </trkpt>
      <trkpt lat="40.390168" lon="-5.685477">
        <ele>1508.17</ele>
        <time>2021-03-27T13:43:59Z</time>
      </trkpt>
      <trkpt lat="40.390106" lon="-5.685475">
        <ele>1509.81</ele>
        <time>2021-03-27T13:44:01Z</time>
      </trkpt>
      <trkpt lat="40.390056" lon="-5.685444">
        <ele>1511.31</ele>
        <time>2021-03-27T13:44:03Z</time>
      </trkpt>
      <trkpt lat="40.39001" lon="-5.685379">
        <ele>1512.99</ele>
        <time>2021-03-27T13:44:05Z</time>
      </trkpt>
      <trkpt lat="40.389968" lon="-5.685278">
        <ele>1514.45</ele>
        <time>2021-03-27T13:44:06Z</time>
      </trkpt>
      <trkpt lat="40.389954" lon="-5.685174">
        <ele>1514.48</ele>
        <time>2021-03-27T13:44:08Z</time>
      </trkpt>
      <trkpt lat="40.389939" lon="-5.684647">
        <ele>1515.59</ele>
        <time>2021-03-27T13:44:10Z</time>
      </trkpt>
      <trkpt lat="40.389888" lon="-5.684538">
        <ele>1517.08</ele>
        <time>2021-03-27T13:44:12Z</time>
      </trkpt>
      <trkpt lat="40.389779" lon="-5.684498">
        <ele>1519.59</ele>
        <time>2021-03-27T13:44:13Z</time>
      </trkpt>
      <trkpt lat="40.389712" lon="-5.684526">
        <ele>1520.96</ele>
        <time>2021-03-27T13:44:15Z</time>
      </trkpt>
      <trkpt lat="40.389641" lon="-5.684605">
        <ele>1522.3</ele>
        <time>2021-03-27T13:44:17Z</time>
      </trkpt>
      <trkpt lat="40.389509" lon="-5.684845">
        <ele>1523.93</ele>
        <time>2021-03-27T13:44:19Z</time>
      </trkpt>
      <trkpt lat="40.38836" lon="-5.686337">
        <ele>1538.3</ele>
        <time>2021-03-27T13:44:21Z</time>
      </trkpt>
      <trkpt lat="40.387826" lon="-5.686739">
        <ele>1541.06</ele>
        <time>2021-03-27T13:44:22Z</time>
      </trkpt>
      <trkpt lat="40.387762" lon="-5.686766">
        <ele>1541.91</ele>
        <time>2021-03-27T13:44:24Z</time>
      </trkpt>
      <trkpt lat="40.387674" lon="-5.686763">
        <ele>1544.29</ele>
        <time>2021-03-27T13:44:26Z</time>
      </trkpt>
      <trkpt lat="40.387614" lon="-5.686725">
        <ele>1546.98</ele>
        <time>2021-03-27T13:44:28Z</time>
      </trkpt>
      <trkpt lat="40.38757" lon="-5.686671">
        <ele>1549.84</ele>
        <time>2021-03-27T13:44:30Z</time>
      </trkpt>
      <trkpt lat="40.387561" lon="-5.686598">
        <ele>1552.04</ele>
        <time>2021-03-27T13:44:31Z</time>
      </trkpt>
      <trkpt lat="40.387577" lon="-5.686515">
        <ele>1553.75</ele>
        <time>2021-03-27T13:44:33Z</time>
      </trkpt>
      <trkpt lat="40.387746" lon="-5.686312">
        <ele>1554.47</ele>
        <time>2021-03-27T13:44:35Z</time>
      </trkpt>
      <trkpt lat="40.387894" lon="-5.686191">
        <ele>1552.92</ele>
        <time>2021-03-27T13:44:37Z</time>
      </trkpt>
      <trkpt lat="40.387974" lon="-5.686095">
        <ele>1552.66</ele>
        <time>2021-03-27T13:44:39Z</time>
      </trkpt>
      <trkpt lat="40.388084" lon="-5.685852">
        <ele>1554.05</ele>
        <time>2021-03-27T13:44:40Z</time>
      </trkpt>
      <trkpt lat="40.388156" lon="-5.685524">
        <ele>1555.63</ele>
        <time>2021-03-27T13:44:42Z</time>
      </trkpt>
      <trkpt lat="40.388156" lon="-5.685209">
        <ele>1556.99</ele>
        <time>2021-03-27T13:44:44Z</time>
      </trkpt>
      <trkpt lat="40.388077" lon="-5.684614">
        <ele>1563.54</ele>
        <time>2021-03-27T13:44:46Z</time>
      </trkpt>
      <trkpt lat="40.388044" lon="-5.684143">
        <ele>1569.62</ele>
        <time>2021-03-27T13:44:48Z</time>
      </trkpt>
      <trkpt lat="40.388071" lon="-5.683796">
        <ele>1571.13</ele>
        <time>2021-03-27T13:44:49Z</time>
      </trkpt>
      <trkpt lat="40.388109" lon="-5.683565">
        <ele>1572.23</ele>
        <time>2021-03-27T13:44:51Z</time>
      </trkpt>
      <trkpt lat="40.388325" lon="-5.682603">
        <ele>1577.59</ele>
        <time>2021-03-27T13:44:53Z</time>
      </trkpt>
      <trkpt lat="40.388356" lon="-5.682287">
        <ele>1578.48</ele>
        <time>2021-03-27T13:44:55Z</time>
      </trkpt>
      <trkpt lat="40.388345" lon="-5.681734">
        <ele>1584.95</ele>
        <time>2021-03-27T13:44:57Z</time>
      </trkpt>
      <trkpt lat="40.388304" lon="-5.681156">
        <ele>1589.17</ele>
        <time>2021-03-27T13:44:58Z</time>
      </trkpt>
      <trkpt lat="40.388317" lon="-5.681021">
        <ele>1591.18</ele>
        <time>2021-03-27T13:45:00Z</time>
      </trkpt>
      <trkpt lat="40.388459" lon="-5.680462">
        <ele>1596.14</ele>
        <time>2021-03-27T13:45:02Z</time>
      </trkpt>
      <trkpt lat="40.388453" lon="-5.680367">
        <ele>1597.44</ele>
        <time>2021-03-27T13:45:04Z</time>
      </trkpt>
      <trkpt lat="40.388429" lon="-5.680303">
        <ele>1599.24</ele>
        <time>2021-03-27T13:45:06Z</time>
      </trkpt>
      <trkpt lat="40.388353" lon="-5.680261">
        <ele>1603.15</ele>
        <time>2021-03-27T13:45:07Z</time>
      </trkpt>
      <trkpt lat="40.388306" lon="-5.680291">
        <ele>1604.92</ele>
        <time>2021-03-27T13:45:09Z</time>
      </trkpt>
      <trkpt lat="40.38824" lon="-5.680373">
        <ele>1606.64</ele>
        <time>2021-03-27T13:45:11Z</time>
      </trkpt>
      <trkpt lat="40.388183" lon="-5.680479">
        <ele>1607.79</ele>
        <time>2021-03-27T13:45:13Z</time>
      </trkpt>
      <trkpt lat="40.388024" lon="-5.681155">
        <ele>1605.52</ele>
        <time>2021-03-27T13:45:15Z</time>
      </trkpt>
      <trkpt lat="40.387884" lon="-5.681555">
        <ele>1609.53</ele>
        <time>2021-03-27T13:45:16Z</time>
      </trkpt>
      <trkpt lat="40.387777" lon="-5.681789">
        <ele>1612.25</ele>
        <time>2021-03-27T13:45:18Z</time>
      </trkpt>
      <trkpt lat="40.387649" lon="-5.682014">
        <ele>1613.37</ele>
        <time>2021-03-27T13:45:20Z</time>
      </trkpt>
      <trkpt lat="40.386485" lon="-5.683862">
        <ele>1630.84</ele>
        <time>2021-03-27T13:45:22Z</time>
      </trkpt>
      <trkpt lat="40.386386" lon="-5.683979">
        <ele>1633.79</ele>
        <time>2021-03-27T13:45:24Z</time>
      </trkpt>
      <trkpt lat="40.386266" lon="-5.684084">
        <ele>1636.45</ele>
        <time>2021-03-27T13:45:25Z</time>
      </trkpt>
      <trkpt lat="40.385654" lon="-5.684506">
        <ele>1647.11</ele>
        <time>2021-03-27T13:45:27Z</time>
      </trkpt>
      <trkpt lat="40.383822" lon="-5.685846">
        <ele>1674.73</ele>
        <time>2021-03-27T13:45:29Z</time>
      </trkpt>
      <trkpt lat="40.383619" lon="-5.68607">
        <ele>1677.36</ele>
        <time>2021-03-27T13:45:31Z</time>
      </trkpt>
      <trkpt lat="40.383534" lon="-5.686249">
        <ele>1678.78</ele>
        <time>2021-03-27T13:45:33Z</time>
      </trkpt>
      <trkpt lat="40.383411" lon="-5.686754">
        <ele>1676.84</ele>
        <time>2021-03-27T13:45:34Z</time>
      </trkpt>
      <trkpt lat="40.383338" lon="-5.686845">
        <ele>1678.23</ele>
        <time>2021-03-27T13:45:36Z</time>
      </trkpt>
      <trkpt lat="40.383279" lon="-5.686861">
        <ele>1679.7</ele>
        <time>2021-03-27T13:45:38Z</time>
      </trkpt>
      <trkpt lat="40.383228" lon="-5.686849">
        <ele>1681.27</ele>
        <time>2021-03-27T13:45:40Z</time>
      </trkpt>
      <trkpt lat="40.383175" lon="-5.686806">
        <ele>1683.26</ele>
        <time>2021-03-27T13:45:42Z</time>
      </trkpt>
      <trkpt lat="40.383114" lon="-5.686645">
        <ele>1686.8</ele>
        <time>2021-03-27T13:45:43Z</time>
      </trkpt>
      <trkpt lat="40.383141" lon="-5.686486">
        <ele>1688.25</ele>
        <time>2021-03-27T13:45:45Z</time>
      </trkpt>
      <trkpt lat="40.383246" lon="-5.686222">
        <ele>1689.09</ele>
        <time>2021-03-27T13:45:47Z</time>
      </trkpt>
      <trkpt lat="40.383347" lon="-5.685506">
        <ele>1693.1</ele>
        <time>2021-03-27T13:45:49Z</time>
      </trkpt>
      <trkpt lat="40.383399" lon="-5.68536">
        <ele>1693.32</ele>
        <time>2021-03-27T13:45:51Z</time>
      </trkpt>
      <trkpt lat="40.38361" lon="-5.684965">
        <ele>1695.67</ele>
        <time>2021-03-27T13:45:52Z</time>
      </trkpt>
      <trkpt lat="40.384529" lon="-5.683551">
        <ele>1709.89</ele>
        <time>2021-03-27T13:45:54Z</time>
      </trkpt>
      <trkpt lat="40.384636" lon="-5.683344">
        <ele>1712.84</ele>
        <time>2021-03-27T13:45:56Z</time>
      </trkpt>
      <trkpt lat="40.384679" lon="-5.683197">
        <ele>1715.44</ele>
        <time>2021-03-27T13:45:58Z</time>
      </trkpt>
      <trkpt lat="40.384877" lon="-5.681991">
        <ele>1725.76</ele>
        <time>2021-03-27T13:46:00Z</time>
      </trkpt>
      <trkpt lat="40.384855" lon="-5.681827">
        <ele>1727.29</ele>
        <time>2021-03-27T13:46:01Z</time>
      </trkpt>
      <trkpt lat="40.384815" lon="-5.681766">
        <ele>1728.52</ele>
        <time>2021-03-27T13:46:03Z</time>
      </trkpt>
      <trkpt lat="40.384711" lon="-5.681724">
        <ele>1730.93</ele>
        <time>2021-03-27T13:46:05Z</time>
      </trkpt>
      <trkpt lat="40.38465" lon="-5.681754">
        <ele>1731.63</ele>
        <time>2021-03-27T13:46:07Z</time>
      </trkpt>
      <trkpt lat="40.384603" lon="-5.681801">
        <ele>1732.21</ele>
        <time>2021-03-27T13:46:09Z</time>
      </trkpt>
      <trkpt lat="40.38416" lon="-5.682482">
        <ele>1735.2</ele>
        <time>2021-03-27T13:46:10Z</time>
      </trkpt>
      <trkpt lat="40.384015" lon="-5.682639">
        <ele>1735.4</ele>
        <time>2021-03-27T13:46:12Z</time>
      </trkpt>
      <trkpt lat="40.3836" lon="-5.683008">
        <ele>1738.45</ele>
        <time>2021-03-27T13:46:14Z</time>
      </trkpt>
      <trkpt lat="40.38321" lon="-5.683515">
        <ele>1738.66</ele>
        <time>2021-03-27T13:46:16Z</time>
      </trkpt>
      <trkpt lat="40.383059" lon="-5.683651">
        <ele>1739.51</ele>
        <time>2021-03-27T13:46:18Z</time>
      </trkpt>
      <trkpt lat="40.382887" lon="-5.683756">
        <ele>1740.25</ele>
        <time>2021-03-27T13:46:19Z</time>
      </trkpt>
      <trkpt lat="40.382674" lon="-5.683837">
        <ele>1740.79</ele>
        <time>2021-03-27T13:46:21Z</time>
      </trkpt>
      <trkpt lat="40.382281" lon="-5.68393">
        <ele>1741.49</ele>
        <time>2021-03-27T13:46:23Z</time>
      </trkpt>
      <trkpt lat="40.381946" lon="-5.684082">
        <ele>1744.28</ele>
        <time>2021-03-27T13:46:25Z</time>
      </trkpt>
      <trkpt lat="40.381758" lon="-5.684188">
        <ele>1745.85</ele>
        <time>2021-03-27T13:46:27Z</time>
      </trkpt>
      <trkpt lat="40.38154" lon="-5.684363">
        <ele>1747.73</ele>
        <time>2021-03-27T13:46:28Z</time>
      </trkpt>
      <trkpt lat="40.381237" lon="-5.684653">
        <ele>1751.57</ele>
        <time>2021-03-27T13:46:30Z</time>
      </trkpt>
      <trkpt lat="40.380904" lon="-5.68512">
        <ele>1756.84</ele>
        <time>2021-03-27T13:46:32Z</time>
      </trkpt>
      <trkpt lat="40.380428" lon="-5.685888">
        <ele>1765.55</ele>
        <time>2021-03-27T13:46:34Z</time>
      </trkpt>
      <trkpt lat="40.380292" lon="-5.686134">
        <ele>1767.77</ele>
        <time>2021-03-27T13:46:36Z</time>
      </trkpt>
      <trkpt lat="40.379796" lon="-5.687199">
        <ele>1778.28</ele>
        <time>2021-03-27T13:46:37Z</time>
      </trkpt>
      <trkpt lat="40.37971" lon="-5.687309">
        <ele>1779.74</ele>
        <time>2021-03-27T13:46:39Z</time>
      </trkpt>
      <trkpt lat="40.379452" lon="-5.687443">
        <ele>1780.95</ele>
        <time>2021-03-27T13:46:41Z</time>
      </trkpt>
      <trkpt lat="40.37868" lon="-5.687725">
        <ele>1784.5</ele>
        <time>2021-03-27T13:46:43Z</time>
      </trkpt>
      <trkpt lat="40.378262" lon="-5.687963">
        <ele>1786.83</ele>
        <time>2021-03-27T13:46:45Z</time>
      </trkpt>
      <trkpt lat="40.377567" lon="-5.68844">
        <ele>1787.98</ele>
        <time>2021-03-27T13:46:46Z</time>
      </trkpt>
      <trkpt lat="40.376899" lon="-5.689037">
        <ele>1789.61</ele>
        <time>2021-03-27T13:46:48Z</time>
      </trkpt>
      <trkpt lat="40.376695" lon="-5.68917">
        <ele>1790.01</ele>
        <time>2021-03-27T13:46:50Z</time>
      </trkpt>
      <trkpt lat="40.376491" lon="-5.68927">
        <ele>1791.0</ele>
        <time>2021-03-27T13:46:52Z</time>
      </trkpt>
      <trkpt lat="40.375849" lon="-5.68949">
        <ele>1795.05</ele>
        <time>2021-03-27T13:46:54Z</time>
      </trkpt>
      <trkpt lat="40.375707" lon="-5.689529">
        <ele>1795.9</ele>
        <time>2021-03-27T13:46:55Z</time>
      </trkpt>
      <trkpt lat="40.375167" lon="-5.689621">
        <ele>1800.18</ele>
        <time>2021-03-27T13:46:57Z</time>
      </trkpt>
      <trkpt lat="40.375072" lon="-5.689663">
        <ele>1801.49</ele>
        <time>2021-03-27T13:46:59Z</time>
      </trkpt>
      <trkpt lat="40.375004" lon="-5.689747">
        <ele>1803.14</ele>
        <time>2021-03-27T13:47:01Z</time>
      </trkpt>
      <trkpt lat="40.374966" lon="-5.689831">
        <ele>1804.08</ele>
        <time>2021-03-27T13:47:03Z</time>
      </trkpt>
      <trkpt lat="40.374747" lon="-5.690815">
        <ele>1811.58</ele>
        <time>2021-03-27T13:47:04Z</time>
      </trkpt>
      <trkpt lat="40.374532" lon="-5.691548">
        <ele>1818.13</ele>
        <time>2021-03-27T13:47:06Z</time>
      </trkpt>
      <trkpt lat="40.374436" lon="-5.691816">
        <ele>1819.6</ele>
        <time>2021-03-27T13:47:08Z</time>
      </trkpt>
      <trkpt lat="40.374361" lon="-5.691959">
        <ele>1820.51</ele>
        <time>2021-03-27T13:47:10Z</time>
      </trkpt>
      <trkpt lat="40.374253" lon="-5.692114">
        <ele>1822.44</ele>
        <time>2021-03-27T13:47:12Z</time>
      </trkpt>
      <trkpt lat="40.373916" lon="-5.692479">
        <ele>1825.68</ele>
        <time>2021-03-27T13:47:13Z</time>
      </trkpt>
      <trkpt lat="40.373657" lon="-5.692621">
        <ele>1826.35</ele>
        <time>2021-03-27T13:47:15Z</time>
      </trkpt>
      <trkpt lat="40.37358" lon="-5.692636">
        <ele>1826.59</ele>
        <time>2021-03-27T13:47:17Z</time>
      </trkpt>
      <trkpt lat="40.373461" lon="-5.69262">
        <ele>1826.94</ele>
        <time>2021-03-27T13:47:19Z</time>
      </trkpt>
      <trkpt lat="40.373013" lon="-5.692501">
        <ele>1828.15</ele>
        <time>2021-03-27T13:47:20Z</time>
      </trkpt>
      <trkpt lat="40.372431" lon="-5.692418">
        <ele>1830.66</ele>
        <time>2021-03-27T13:47:22Z</time>
      </trkpt>
      <trkpt lat="40.372176" lon="-5.692421">
        <ele>1831.77</ele>
        <time>2021-03-27T13:47:24Z</time>
      </trkpt>
      <trkpt lat="40.371739" lon="-5.692563">
        <ele>1834.39</ele>
        <time>2021-03-27T13:47:26Z</time>
      </trkpt>
      <trkpt lat="40.371383" lon="-5.692593">
        <ele>1836.39</ele>
        <time>2021-03-27T13:47:28Z</time>
      </trkpt>
      <trkpt lat="40.371239" lon="-5.692564">
        <ele>1837.55</ele>
        <time>2021-03-27T13:47:29Z</time>
      </trkpt>
      <trkpt lat="40.370696" lon="-5.692362">
        <ele>1840.0</ele>
        <time>2021-03-27T13:47:31Z</time>
      </trkpt>
      <trkpt lat="40.370387" lon="-5.692303">
        <ele>1842.76</ele>
        <time>2021-03-27T13:47:33Z</time>
      </trkpt>
      <trkpt lat="40.369627" lon="-5.692347">
        <ele>1856.28</ele>
        <time>2021-03-27T13:47:35Z</time>
      </trkpt>
      <trkpt lat="40.369094" lon="-5.692339">
        <ele>1862.43</ele>
        <time>2021-03-27T13:47:37Z</time>
      </trkpt>
      <trkpt lat="40.368992" lon="-5.692299">
        <ele>1863.52</ele>
        <time>2021-03-27T13:47:38Z</time>
      </trkpt>
      <trkpt lat="40.368756" lon="-5.692119">
        <ele>1865.38</ele>
        <time>2021-03-27T13:47:40Z</time>
      </trkpt>
      <trkpt lat="40.368429" lon="-5.691764">
        <ele>1868.61</ele>
        <time>2021-03-27T13:47:42Z</time>
      </trkpt>
      <trkpt lat="40.36832" lon="-5.691672">
        <ele>1871.3</ele>
        <time>2021-03-27T13:47:44Z</time>
      </trkpt>
      <trkpt lat="40.367815" lon="-5.69144">
        <ele>1878.94</ele>
        <time>2021-03-27T13:47:46Z</time>
      </trkpt>
      <trkpt lat="40.367474" lon="-5.691356">
        <ele>1885.11</ele>
        <time>2021-03-27T13:47:47Z</time>
      </trkpt>
      <trkpt lat="40.367299" lon="-5.691341">
        <ele>1887.97</ele>
        <time>2021-03-27T13:47:49Z</time>
      </trkpt>
      <trkpt lat="40.367096" lon="-5.69134">
        <ele>1890.74</ele>
        <time>2021-03-27T13:47:51Z</time>
      </trkpt>
      <trkpt lat="40.366791" lon="-5.691394">
        <ele>1895.81</ele>
        <time>2021-03-27T13:47:53Z</time>
      </trkpt>
      <trkpt lat="40.365158" lon="-5.691806">
        <ele>1911.3</ele>
        <time>2021-03-27T13:47:55Z</time>
      </trkpt>
      <trkpt lat="40.36487" lon="-5.691839">
        <ele>1914.22</ele>
        <time>2021-03-27T13:47:56Z</time>
      </trkpt>
      <trkpt lat="40.364581" lon="-5.691837">
        <ele>1917.34</ele>
        <time>2021-03-27T13:47:58Z</time>
      </trkpt>
      <trkpt lat="40.364254" lon="-5.691751">
        <ele>1921.74</ele>
        <time>2021-03-27T13:48:00Z</time>
      </trkpt>
      <trkpt lat="40.364068" lon="-5.691667">
        <ele>1923.71</ele>
        <time>2021-03-27T13:48:02Z</time>
      </trkpt>
      <trkpt lat="40.363895" lon="-5.691566">
        <ele>1924.58</ele>
        <time>2021-03-27T13:48:04Z</time>
      </trkpt>
      <trkpt lat="40.362703" lon="-5.690692">
        <ele>1933.0</ele>
        <time>2021-03-27T13:48:05Z</time>
      </trkpt>
      <trkpt lat="40.362444" lon="-5.690605">
        <ele>1933.23</ele>
        <time>2021-03-27T13:48:07Z</time>
      </trkpt>
      <trkpt lat="40.36229" lon="-5.690594">
        <ele>1933.86</ele>
        <time>2021-03-27T13:48:09Z</time>
      </trkpt>
      <trkpt lat="40.362192" lon="-5.690618">
        <ele>1934.22</ele>
        <time>2021-03-27T13:48:11Z</time>
      </trkpt>
      <trkpt lat="40.361841" lon="-5.690777">
        <ele>1934.13</ele>
        <time>2021-03-27T13:48:13Z</time>
      </trkpt>
      <trkpt lat="40.361558" lon="-5.69085">
        <ele>1934.24</ele>
        <time>2021-03-27T13:48:14Z</time>
      </trkpt>
      <trkpt lat="40.361381" lon="-5.690876">
        <ele>1936.03</ele>
        <time>2021-03-27T13:48:16Z</time>
      </trkpt>
      <trkpt lat="40.361224" lon="-5.690871">
        <ele>1936.51</ele>
        <time>2021-03-27T13:48:18Z</time>
      </trkpt>
      <trkpt lat="40.360097" lon="-5.690621">
        <ele>1937.07</ele>
        <time>2021-03-27T13:48:20Z</time>
      </trkpt>
      <trkpt lat="40.359377" lon="-5.690255">
        <ele>1945.32</ele>
        <time>2021-03-27T13:48:22Z</time>
      </trkpt>
      <trkpt lat="40.359129" lon="-5.690247">
        <ele>1946.79</ele>
        <time>2021-03-27T13:48:23Z</time>
      </trkpt>
      <trkpt lat="40.358621" lon="-5.690412">
        <ele>1947.96</ele>
        <time>2021-03-27T13:48:25Z</time>
      </trkpt>
      <trkpt lat="40.358248" lon="-5.690461">
        <ele>1951.07</ele>
        <time>2021-03-27T13:48:27Z</time>
      </trkpt>
      <trkpt lat="40.358055" lon="-5.690446">
        <ele>1952.0</ele>
        <time>2021-03-27T13:48:29Z</time>
      </trkpt>
      <trkpt lat="40.357854" lon="-5.690405">
        <ele>1953.06</ele>
        <time>2021-03-27T13:48:31Z</time>
      </trkpt>
      <trkpt lat="40.357309" lon="-5.690234">
        <ele>1956.96</ele>
        <time>2021-03-27T13:48:32Z</time>
      </trkpt>
      <trkpt lat="40.357077" lon="-5.690205">
        <ele>1959.31</ele>
        <time>2021-03-27T13:48:34Z</time>
      </trkpt>
      <trkpt lat="40.355444" lon="-5.690196">
        <ele>1961.3</ele>
        <time>2021-03-27T13:48:36Z</time>
      </trkpt>
      <trkpt lat="40.354657" lon="-5.689822">
        <ele>1963.16</ele>
        <time>2021-03-27T13:48:38Z</time>
      </trkpt>
      <trkpt lat="40.354657" lon="-5.689822">
        <ele>1963.16</ele>
        <time>2021-03-27T13:48:38Z</time>
      </trkpt>
      <trkpt lat="40.355444" lon="-5.690196">
        <ele>1961.3</ele>
        <time>2021-03-27T13:48:40Z</time>
      </trkpt>
      <trkpt lat="40.357077" lon="-5.690205">
        <ele>1959.31</ele>
        <time>2021-03-27T13:48:41Z</time>
      </trkpt>
      <trkpt lat="40.357309" lon="-5.690234">
        <ele>1956.96</ele>
        <time>2021-03-27T13:48:43Z</time>
      </trkpt>
      <trkpt lat="40.357854" lon="-5.690405">
        <ele>1953.06</ele>
        <time>2021-03-27T13:48:45Z</time>
      </trkpt>
      <trkpt lat="40.358055" lon="-5.690446">
        <ele>1952.0</ele>
        <time>2021-03-27T13:48:47Z</time>
      </trkpt>
      <trkpt lat="40.358248" lon="-5.690461">
        <ele>1951.07</ele>
        <time>2021-03-27T13:48:49Z</time>
      </trkpt>
      <trkpt lat="40.358621" lon="-5.690412">
        <ele>1947.96</ele>
        <time>2021-03-27T13:48:50Z</time>
      </trkpt>
      <trkpt lat="40.359129" lon="-5.690247">
        <ele>1946.79</ele>
        <time>2021-03-27T13:48:52Z</time>
      </trkpt>
      <trkpt lat="40.359377" lon="-5.690255">
        <ele>1945.32</ele>
        <time>2021-03-27T13:48:54Z</time>
      </trkpt>
      <trkpt lat="40.360097" lon="-5.690621">
        <ele>1937.07</ele>
        <time>2021-03-27T13:48:56Z</time>
      </trkpt>
      <trkpt lat="40.361224" lon="-5.690871">
        <ele>1936.51</ele>
        <time>2021-03-27T13:48:58Z</time>
      </trkpt>
      <trkpt lat="40.361381" lon="-5.690876">
        <ele>1936.03</ele>
        <time>2021-03-27T13:48:59Z</time>
      </trkpt>
      <trkpt lat="40.361558" lon="-5.69085">
        <ele>1934.24</ele>
        <time>2021-03-27T13:49:01Z</time>
      </trkpt>
      <trkpt lat="40.361841" lon="-5.690777">
        <ele>1934.13</ele>
        <time>2021-03-27T13:49:03Z</time>
      </trkpt>
      <trkpt lat="40.362192" lon="-5.690618">
        <ele>1934.22</ele>
        <time>2021-03-27T13:49:05Z</time>
      </trkpt>
      <trkpt lat="40.36229" lon="-5.690594">
        <ele>1933.86</ele>
        <time>2021-03-27T13:49:07Z</time>
      </trkpt>
      <trkpt lat="40.362444" lon="-5.690605">
        <ele>1933.23</ele>
        <time>2021-03-27T13:49:08Z</time>
      </trkpt>
      <trkpt lat="40.362703" lon="-5.690692">
        <ele>1933.0</ele>
        <time>2021-03-27T13:49:10Z</time>
      </trkpt>
      <trkpt lat="40.363895" lon="-5.691566">
        <ele>1924.58</ele>
        <time>2021-03-27T13:49:12Z</time>
      </trkpt>
      <trkpt lat="40.364068" lon="-5.691667">
        <ele>1923.71</ele>
        <time>2021-03-27T13:49:14Z</time>
      </trkpt>
      <trkpt lat="40.364254" lon="-5.691751">
        <ele>1921.74</ele>
        <time>2021-03-27T13:49:16Z</time>
      </trkpt>
      <trkpt lat="40.364581" lon="-5.691837">
        <ele>1917.34</ele>
        <time>2021-03-27T13:49:17Z</time>
      </trkpt>
      <trkpt lat="40.36487" lon="-5.691839">
        <ele>1914.22</ele>
        <time>2021-03-27T13:49:19Z</time>
      </trkpt>
      <trkpt lat="40.365158" lon="-5.691806">
        <ele>1911.3</ele>
        <time>2021-03-27T13:49:21Z</time>
      </trkpt>
      <trkpt lat="40.366791" lon="-5.691394">
        <ele>1895.81</ele>
        <time>2021-03-27T13:49:23Z</time>
      </trkpt>
      <trkpt lat="40.367096" lon="-5.69134">
        <ele>1890.74</ele>
        <time>2021-03-27T13:49:25Z</time>
      </trkpt>
      <trkpt lat="40.367299" lon="-5.691341">
        <ele>1887.97</ele>
        <time>2021-03-27T13:49:26Z</time>
      </trkpt>
      <trkpt lat="40.367474" lon="-5.691356">
        <ele>1885.11</ele>
        <time>2021-03-27T13:49:28Z</time>
      </trkpt>
      <trkpt lat="40.367815" lon="-5.69144">
        <ele>1878.94</ele>
        <time>2021-03-27T13:49:30Z</time>
      </trkpt>
      <trkpt lat="40.36832" lon="-5.691672">
        <ele>1871.3</ele>
        <time>2021-03-27T13:49:32Z</time>
      </trkpt>
      <trkpt lat="40.368429" lon="-5.691764">
        <ele>1868.61</ele>
        <time>2021-03-27T13:49:34Z</time>
      </trkpt>
      <trkpt lat="40.368756" lon="-5.692119">
        <ele>1865.38</ele>
        <time>2021-03-27T13:49:35Z</time>
      </trkpt>
      <trkpt lat="40.368992" lon="-5.692299">
        <ele>1863.52</ele>
        <time>2021-03-27T13:49:37Z</time>
      </trkpt>
      <trkpt lat="40.369094" lon="-5.692339">
        <ele>1862.43</ele>
        <time>2021-03-27T13:49:39Z</time>
      </trkpt>
      <trkpt lat="40.369627" lon="-5.692347">
        <ele>1856.28</ele>
        <time>2021-03-27T13:49:41Z</time>
      </trkpt>
      <trkpt lat="40.370387" lon="-5.692303">
        <ele>1842.76</ele>
        <time>2021-03-27T13:49:43Z</time>
      </trkpt>
      <trkpt lat="40.370696" lon="-5.692362">
        <ele>1840.0</ele>
        <time>2021-03-27T13:49:44Z</time>
      </trkpt>
      <trkpt lat="40.371239" lon="-5.692564">
        <ele>1837.55</ele>
        <time>2021-03-27T13:49:46Z</time>
      </trkpt>
      <trkpt lat="40.371383" lon="-5.692593">
        <ele>1836.39</ele>
        <time>2021-03-27T13:49:48Z</time>
      </trkpt>
      <trkpt lat="40.371739" lon="-5.692563">
        <ele>1834.39</ele>
        <time>2021-03-27T13:49:50Z</time>
      </trkpt>
      <trkpt lat="40.372176" lon="-5.692421">
        <ele>1831.77</ele>
        <time>2021-03-27T13:49:52Z</time>
      </trkpt>
      <trkpt lat="40.372431" lon="-5.692418">
        <ele>1830.66</ele>
        <time>2021-03-27T13:49:53Z</time>
      </trkpt>
      <trkpt lat="40.373013" lon="-5.692501">
        <ele>1828.15</ele>
        <time>2021-03-27T13:49:55Z</time>
      </trkpt>
      <trkpt lat="40.373461" lon="-5.69262">
        <ele>1826.94</ele>
        <time>2021-03-27T13:49:57Z</time>
      </trkpt>
      <trkpt lat="40.37358" lon="-5.692636">
        <ele>1826.59</ele>
        <time>2021-03-27T13:49:59Z</time>
      </trkpt>
      <trkpt lat="40.373657" lon="-5.692621">
        <ele>1826.35</ele>
        <time>2021-03-27T13:50:00Z</time>
      </trkpt>
      <trkpt lat="40.373916" lon="-5.692479">
        <ele>1825.68</ele>
        <time>2021-03-27T13:50:02Z</time>
      </trkpt>
      <trkpt lat="40.374253" lon="-5.692114">
        <ele>1822.44</ele>
        <time>2021-03-27T13:50:04Z</time>
      </trkpt>
      <trkpt lat="40.374361" lon="-5.691959">
        <ele>1820.51</ele>
        <time>2021-03-27T13:50:06Z</time>
      </trkpt>
      <trkpt lat="40.374436" lon="-5.691816">
        <ele>1819.6</ele>
        <time>2021-03-27T13:50:08Z</time>
      </trkpt>
      <trkpt lat="40.374532" lon="-5.691548">
        <ele>1818.13</ele>
        <time>2021-03-27T13:50:09Z</time>
      </trkpt>
      <trkpt lat="40.374747" lon="-5.690815">
        <ele>1811.58</ele>
        <time>2021-03-27T13:50:11Z</time>
      </trkpt>
      <trkpt lat="40.374966" lon="-5.689831">
        <ele>1804.08</ele>
        <time>2021-03-27T13:50:13Z</time>
      </trkpt>
      <trkpt lat="40.375004" lon="-5.689747">
        <ele>1803.14</ele>
        <time>2021-03-27T13:50:15Z</time>
      </trkpt>
      <trkpt lat="40.375072" lon="-5.689663">
        <ele>1801.49</ele>
        <time>2021-03-27T13:50:17Z</time>
      </trkpt>
      <trkpt lat="40.375167" lon="-5.689621">
        <ele>1800.18</ele>
        <time>2021-03-27T13:50:18Z</time>
      </trkpt>
      <trkpt lat="40.375707" lon="-5.689529">
        <ele>1795.9</ele>
        <time>2021-03-27T13:50:20Z</time>
      </trkpt>
      <trkpt lat="40.375849" lon="-5.68949">
        <ele>1795.05</ele>
        <time>2021-03-27T13:50:22Z</time>
      </trkpt>
      <trkpt lat="40.376491" lon="-5.68927">
        <ele>1791.0</ele>
        <time>2021-03-27T13:50:24Z</time>
      </trkpt>
      <trkpt lat="40.376695" lon="-5.68917">
        <ele>1790.01</ele>
        <time>2021-03-27T13:50:26Z</time>
      </trkpt>
      <trkpt lat="40.376899" lon="-5.689037">
        <ele>1789.61</ele>
        <time>2021-03-27T13:50:27Z</time>
      </trkpt>
      <trkpt lat="40.377567" lon="-5.68844">
        <ele>1787.98</ele>
        <time>2021-03-27T13:50:29Z</time>
      </trkpt>
      <trkpt lat="40.378262" lon="-5.687963">
        <ele>1786.83</ele>
        <time>2021-03-27T13:50:31Z</time>
      </trkpt>
      <trkpt lat="40.37868" lon="-5.687725">
        <ele>1784.5</ele>
        <time>2021-03-27T13:50:33Z</time>
      </trkpt>
      <trkpt lat="40.379452" lon="-5.687443">
        <ele>1780.95</ele>
        <time>2021-03-27T13:50:35Z</time>
      </trkpt>
      <trkpt lat="40.37971" lon="-5.687309">
        <ele>1779.74</ele>
        <time>2021-03-27T13:50:36Z</time>
      </trkpt>
      <trkpt lat="40.379796" lon="-5.687199">
        <ele>1778.28</ele>
        <time>2021-03-27T13:50:38Z</time>
      </trkpt>
      <trkpt lat="40.380292" lon="-5.686134">
        <ele>1767.77</ele>
        <time>2021-03-27T13:50:40Z</time>
      </trkpt>
      <trkpt lat="40.380428" lon="-5.685888">
        <ele>1765.55</ele>
        <time>2021-03-27T13:50:42Z</time>
      </trkpt>
      <trkpt lat="40.380904" lon="-5.68512">
        <ele>1756.84</ele>
        <time>2021-03-27T13:50:44Z</time>
      </trkpt>
      <trkpt lat="40.381237" lon="-5.684653">
        <ele>1751.57</ele>
        <time>2021-03-27T13:50:45Z</time>
      </trkpt>
      <trkpt lat="40.38154" lon="-5.684363">
        <ele>1747.73</ele>
        <time>2021-03-27T13:50:47Z</time>
      </trkpt>
      <trkpt lat="40.381758" lon="-5.684188">
        <ele>1745.85</ele>
        <time>2021-03-27T13:50:49Z</time>
      </trkpt>
      <trkpt lat="40.381946" lon="-5.684082">
        <ele>1744.28</ele>
        <time>2021-03-27T13:50:51Z</time>
      </trkpt>
      <trkpt lat="40.382281" lon="-5.68393">
        <ele>1741.49</ele>
        <time>2021-03-27T13:50:53Z</time>
      </trkpt>
      <trkpt lat="40.382674" lon="-5.683837">
        <ele>1740.79</ele>
        <time>2021-03-27T13:50:54Z</time>
      </trkpt>
      <trkpt lat="40.382887" lon="-5.683756">
        <ele>1740.25</ele>
        <time>2021-03-27T13:50:56Z</time>
      </trkpt>
      <trkpt lat="40.383059" lon="-5.683651">
        <ele>1739.51</ele>
        <time>2021-03-27T13:50:58Z</time>
      </trkpt>
      <trkpt lat="40.38321" lon="-5.683515">
        <ele>1738.66</ele>
        <time>2021-03-27T13:51:00Z</time>
      </trkpt>
      <trkpt lat="40.3836" lon="-5.683008">
        <ele>1738.45</ele>
        <time>2021-03-27T13:51:02Z</time>
      </trkpt>
      <trkpt lat="40.384015" lon="-5.682639">
        <ele>1735.4</ele>
        <time>2021-03-27T13:51:03Z</time>
      </trkpt>
      <trkpt lat="40.38416" lon="-5.682482">
        <ele>1735.2</ele>
        <time>2021-03-27T13:51:05Z</time>
      </trkpt>
      <trkpt lat="40.384603" lon="-5.681801">
        <ele>1732.21</ele>
        <time>2021-03-27T13:51:07Z</time>
      </trkpt>
      <trkpt lat="40.38465" lon="-5.681754">
        <ele>1731.63</ele>
        <time>2021-03-27T13:51:09Z</time>
      </trkpt>
      <trkpt lat="40.384711" lon="-5.681724">
        <ele>1730.93</ele>
        <time>2021-03-27T13:51:11Z</time>
      </trkpt>
      <trkpt lat="40.384815" lon="-5.681766">
        <ele>1728.52</ele>
        <time>2021-03-27T13:51:12Z</time>
      </trkpt>
      <trkpt lat="40.384855" lon="-5.681827">
        <ele>1727.29</ele>
        <time>2021-03-27T13:51:14Z</time>
      </trkpt>
      <trkpt lat="40.384877" lon="-5.681991">
        <ele>1725.76</ele>
        <time>2021-03-27T13:51:16Z</time>
      </trkpt>
      <trkpt lat="40.384679" lon="-5.683197">
        <ele>1715.44</ele>
        <time>2021-03-27T13:51:18Z</time>
      </trkpt>
      <trkpt lat="40.384636" lon="-5.683344">
        <ele>1712.84</ele>
        <time>2021-03-27T13:51:20Z</time>
      </trkpt>
      <trkpt lat="40.384529" lon="-5.683551">
        <ele>1709.89</ele>
        <time>2021-03-27T13:51:21Z</time>
      </trkpt>
      <trkpt lat="40.38361" lon="-5.684965">
        <ele>1695.67</ele>
        <time>2021-03-27T13:51:23Z</time>
      </trkpt>
      <trkpt lat="40.383399" lon="-5.68536">
        <ele>1693.32</ele>
        <time>2021-03-27T13:51:25Z</time>
      </trkpt>
      <trkpt lat="40.383347" lon="-5.685506">
        <ele>1693.1</ele>
        <time>2021-03-27T13:51:27Z</time>
      </trkpt>
      <trkpt lat="40.383246" lon="-5.686222">
        <ele>1689.09</ele>
        <time>2021-03-27T13:51:28Z</time>
      </trkpt>
      <trkpt lat="40.383141" lon="-5.686486">
        <ele>1688.25</ele>
        <time>2021-03-27T13:51:30Z</time>
      </trkpt>
      <trkpt lat="40.383114" lon="-5.686645">
        <ele>1686.8</ele>
        <time>2021-03-27T13:51:32Z</time>
      </trkpt>
      <trkpt lat="40.383175" lon="-5.686806">
        <ele>1683.26</ele>
        <time>2021-03-27T13:51:34Z</time>
      </trkpt>
      <trkpt lat="40.383228" lon="-5.686849">
        <ele>1681.27</ele>
        <time>2021-03-27T13:51:36Z</time>
      </trkpt>
      <trkpt lat="40.383279" lon="-5.686861">
        <ele>1679.7</ele>
        <time>2021-03-27T13:51:37Z</time>
      </trkpt>
      <trkpt lat="40.383338" lon="-5.686845">
        <ele>1678.23</ele>
        <time>2021-03-27T13:51:39Z</time>
      </trkpt>
      <trkpt lat="40.383411" lon="-5.686754">
        <ele>1676.84</ele>
        <time>2021-03-27T13:51:41Z</time>
      </trkpt>
      <trkpt lat="40.383534" lon="-5.686249">
        <ele>1678.78</ele>
        <time>2021-03-27T13:51:43Z</time>
      </trkpt>
      <trkpt lat="40.383619" lon="-5.68607">
        <ele>1677.36</ele>
        <time>2021-03-27T13:51:45Z</time>
      </trkpt>
      <trkpt lat="40.383822" lon="-5.685846">
        <ele>1674.73</ele>
        <time>2021-03-27T13:51:46Z</time>
      </trkpt>
      <trkpt lat="40.385654" lon="-5.684506">
        <ele>1647.11</ele>
        <time>2021-03-27T13:51:48Z</time>
      </trkpt>
      <trkpt lat="40.386266" lon="-5.684084">
        <ele>1636.45</ele>
        <time>2021-03-27T13:51:50Z</time>
      </trkpt>
      <trkpt lat="40.386386" lon="-5.683979">
        <ele>1633.79</ele>
        <time>2021-03-27T13:51:52Z</time>
      </trkpt>
      <trkpt lat="40.386485" lon="-5.683862">
        <ele>1630.84</ele>
        <time>2021-03-27T13:51:54Z</time>
      </trkpt>
      <trkpt lat="40.387649" lon="-5.682014">
        <ele>1613.37</ele>
        <time>2021-03-27T13:51:55Z</time>
      </trkpt>
      <trkpt lat="40.387777" lon="-5.681789">
        <ele>1612.25</ele>
        <time>2021-03-27T13:51:57Z</time>
      </trkpt>
      <trkpt lat="40.387884" lon="-5.681555">
        <ele>1609.53</ele>
        <time>2021-03-27T13:51:59Z</time>
      </trkpt>
      <trkpt lat="40.388024" lon="-5.681155">
        <ele>1605.52</ele>
        <time>2021-03-27T13:52:01Z</time>
      </trkpt>
      <trkpt lat="40.388183" lon="-5.680479">
        <ele>1607.79</ele>
        <time>2021-03-27T13:52:03Z</time>
      </trkpt>
      <trkpt lat="40.38824" lon="-5.680373">
        <ele>1606.64</ele>
        <time>2021-03-27T13:52:04Z</time>
      </trkpt>
      <trkpt lat="40.388306" lon="-5.680291">
        <ele>1604.92</ele>
        <time>2021-03-27T13:52:06Z</time>
      </trkpt>
      <trkpt lat="40.388353" lon="-5.680261">
        <ele>1603.15</ele>
        <time>2021-03-27T13:52:08Z</time>
      </trkpt>
      <trkpt lat="40.388429" lon="-5.680303">
        <ele>1599.24</ele>
        <time>2021-03-27T13:52:10Z</time>
      </trkpt>
      <trkpt lat="40.388453" lon="-5.680367">
        <ele>1597.44</ele>
        <time>2021-03-27T13:52:12Z</time>
      </trkpt>
      <trkpt lat="40.388459" lon="-5.680462">
        <ele>1596.14</ele>
        <time>2021-03-27T13:52:13Z</time>
      </trkpt>
      <trkpt lat="40.388317" lon="-5.681021">
        <ele>1591.18</ele>
        <time>2021-03-27T13:52:15Z</time>
      </trkpt>
      <trkpt lat="40.388304" lon="-5.681156">
        <ele>1589.17</ele>
        <time>2021-03-27T13:52:17Z</time>
      </trkpt>
      <trkpt lat="40.388345" lon="-5.681734">
        <ele>1584.95</ele>
        <time>2021-03-27T13:52:19Z</time>
      </trkpt>
      <trkpt lat="40.388356" lon="-5.682287">
        <ele>1578.48</ele>
        <time>2021-03-27T13:52:21Z</time>
      </trkpt>
      <trkpt lat="40.388325" lon="-5.682603">
        <ele>1577.59</ele>
        <time>2021-03-27T13:52:22Z</time>
      </trkpt>
      <trkpt lat="40.388109" lon="-5.683565">
        <ele>1572.23</ele>
        <time>2021-03-27T13:52:24Z</time>
      </trkpt>
      <trkpt lat="40.388071" lon="-5.683796">
        <ele>1571.13</ele>
        <time>2021-03-27T13:52:26Z</time>
      </trkpt>
      <trkpt lat="40.388044" lon="-5.684143">
        <ele>1569.62</ele>
        <time>2021-03-27T13:52:28Z</time>
      </trkpt>
      <trkpt lat="40.388077" lon="-5.684614">
        <ele>1563.54</ele>
        <time>2021-03-27T13:52:30Z</time>
      </trkpt>
      <trkpt lat="40.388156" lon="-5.685209">
        <ele>1556.99</ele>
        <time>2021-03-27T13:52:31Z</time>
      </trkpt>
      <trkpt lat="40.388156" lon="-5.685524">
        <ele>1555.63</ele>
        <time>2021-03-27T13:52:33Z</time>
      </trkpt>
      <trkpt lat="40.388084" lon="-5.685852">
        <ele>1554.05</ele>
        <time>2021-03-27T13:52:35Z</time>
      </trkpt>
      <trkpt lat="40.387974" lon="-5.686095">
        <ele>1552.66</ele>
        <time>2021-03-27T13:52:37Z</time>
      </trkpt>
      <trkpt lat="40.387894" lon="-5.686191">
        <ele>1552.92</ele>
        <time>2021-03-27T13:52:39Z</time>
      </trkpt>
      <trkpt lat="40.387746" lon="-5.686312">
        <ele>1554.47</ele>
        <time>2021-03-27T13:52:40Z</time>
      </trkpt>
      <trkpt lat="40.387577" lon="-5.686515">
        <ele>1553.75</ele>
        <time>2021-03-27T13:52:42Z</time>
      </trkpt>
      <trkpt lat="40.387561" lon="-5.686598">
        <ele>1552.04</ele>
        <time>2021-03-27T13:52:44Z</time>
      </trkpt>
      <trkpt lat="40.38757" lon="-5.686671">
        <ele>1549.84</ele>
        <time>2021-03-27T13:52:46Z</time>
      </trkpt>
      <trkpt lat="40.387614" lon="-5.686725">
        <ele>1546.98</ele>
        <time>2021-03-27T13:52:48Z</time>
      </trkpt>
      <trkpt lat="40.387674" lon="-5.686763">
        <ele>1544.29</ele>
        <time>2021-03-27T13:52:49Z</time>
      </trkpt>
      <trkpt lat="40.387762" lon="-5.686766">
        <ele>1541.91</ele>
        <time>2021-03-27T13:52:51Z</time>
      </trkpt>
      <trkpt lat="40.387826" lon="-5.686739">
        <ele>1541.06</ele>
        <time>2021-03-27T13:52:53Z</time>
      </trkpt>
      <trkpt lat="40.38836" lon="-5.686337">
        <ele>1538.3</ele>
        <time>2021-03-27T13:52:55Z</time>
      </trkpt>
      <trkpt lat="40.389509" lon="-5.684845">
        <ele>1523.93</ele>
        <time>2021-03-27T13:52:56Z</time>
      </trkpt>
      <trkpt lat="40.389641" lon="-5.684605">
        <ele>1522.3</ele>
        <time>2021-03-27T13:52:58Z</time>
      </trkpt>
      <trkpt lat="40.389712" lon="-5.684526">
        <ele>1520.96</ele>
        <time>2021-03-27T13:53:00Z</time>
      </trkpt>
      <trkpt lat="40.389779" lon="-5.684498">
        <ele>1519.59</ele>
        <time>2021-03-27T13:53:02Z</time>
      </trkpt>
      <trkpt lat="40.389888" lon="-5.684538">
        <ele>1517.08</ele>
        <time>2021-03-27T13:53:04Z</time>
      </trkpt>
      <trkpt lat="40.389939" lon="-5.684647">
        <ele>1515.59</ele>
        <time>2021-03-27T13:53:05Z</time>
      </trkpt>
      <trkpt lat="40.389954" lon="-5.685174">
        <ele>1514.48</ele>
        <time>2021-03-27T13:53:07Z</time>
      </trkpt>
      <trkpt lat="40.389968" lon="-5.685278">
        <ele>1514.45</ele>
        <time>2021-03-27T13:53:09Z</time>
      </trkpt>
      <trkpt lat="40.39001" lon="-5.685379">
        <ele>1512.99</ele>
        <time>2021-03-27T13:53:11Z</time>
      </trkpt>
      <trkpt lat="40.390056" lon="-5.685444">
        <ele>1511.31</ele>
        <time>2021-03-27T13:53:13Z</time>
      </trkpt>
      <trkpt lat="40.390106" lon="-5.685475">
        <ele>1509.81</ele>
        <time>2021-03-27T13:53:14Z</time>
      </trkpt>
      <trkpt lat="40.390168" lon="-5.685477">
        <ele>1508.17</ele>
        <time>2021-03-27T13:53:16Z</time>
      </trkpt>
      <trkpt lat="40.390243" lon="-5.685448">
        <ele>1506.32</ele>
        <time>2021-03-27T13:53:18Z</time>
      </trkpt>
      <trkpt lat="40.390815" lon="-5.685051">
        <ele>1497.89</ele>
        <time>2021-03-27T13:53:20Z</time>
      </trkpt>
      <trkpt lat="40.39093" lon="-5.685024">
        <ele>1496.84</ele>
        <time>2021-03-27T13:53:22Z</time>
      </trkpt>
      <trkpt lat="40.391025" lon="-5.685031">
        <ele>1495.86</ele>
        <time>2021-03-27T13:53:23Z</time>
      </trkpt>
      <trkpt lat="40.391154" lon="-5.685115">
        <ele>1494.3</ele>
        <time>2021-03-27T13:53:25Z</time>
      </trkpt>
      <trkpt lat="40.391251" lon="-5.685278">
        <ele>1492.97</ele>
        <time>2021-03-27T13:53:27Z</time>
      </trkpt>
      <trkpt lat="40.391285" lon="-5.685416">
        <ele>1491.5</ele>
        <time>2021-03-27T13:53:29Z</time>
      </trkpt>
      <trkpt lat="40.391331" lon="-5.685868">
        <ele>1485.1</ele>
        <time>2021-03-27T13:53:31Z</time>
      </trkpt>
      <trkpt lat="40.39137" lon="-5.685987">
        <ele>1482.95</ele>
        <time>2021-03-27T13:53:32Z</time>
      </trkpt>
      <trkpt lat="40.391437" lon="-5.686104">
        <ele>1480.58</ele>
        <time>2021-03-27T13:53:34Z</time>
      </trkpt>
      <trkpt lat="40.391531" lon="-5.686211">
        <ele>1478.57</ele>
        <time>2021-03-27T13:53:36Z</time>
      </trkpt>
      <trkpt lat="40.391744" lon="-5.686384">
        <ele>1475.48</ele>
        <time>2021-03-27T13:53:38Z</time>
      </trkpt>
      <trkpt lat="40.391855" lon="-5.686434">
        <ele>1474.43</ele>
        <time>2021-03-27T13:53:40Z</time>
      </trkpt>
      <trkpt lat="40.392095" lon="-5.686455">
        <ele>1472.96</ele>
        <time>2021-03-27T13:53:41Z</time>
      </trkpt>
      <trkpt lat="40.392316" lon="-5.686384">
        <ele>1470.98</ele>
        <time>2021-03-27T13:53:43Z</time>
      </trkpt>
      <trkpt lat="40.392429" lon="-5.68631">
        <ele>1468.82</ele>
        <time>2021-03-27T13:53:45Z</time>
      </trkpt>
      <trkpt lat="40.392531" lon="-5.686192">
        <ele>1467.14</ele>
        <time>2021-03-27T13:53:47Z</time>
      </trkpt>
      <trkpt lat="40.392619" lon="-5.686028">
        <ele>1465.86</ele>
        <time>2021-03-27T13:53:49Z</time>
      </trkpt>
      <trkpt lat="40.392679" lon="-5.685857">
        <ele>1464.79</ele>
        <time>2021-03-27T13:53:50Z</time>
      </trkpt>
      <trkpt lat="40.392728" lon="-5.685647">
        <ele>1464.01</ele>
        <time>2021-03-27T13:53:52Z</time>
      </trkpt>
      <trkpt lat="40.392817" lon="-5.68515">
        <ele>1460.47</ele>
        <time>2021-03-27T13:53:54Z</time>
      </trkpt>
      <trkpt lat="40.392847" lon="-5.684949">
        <ele>1458.97</ele>
        <time>2021-03-27T13:53:56Z</time>
      </trkpt>
      <trkpt lat="40.392848" lon="-5.684602">
        <ele>1457.84</ele>
        <time>2021-03-27T13:53:58Z</time>
      </trkpt>
      <trkpt lat="40.392863" lon="-5.684497">
        <ele>1456.61</ele>
        <time>2021-03-27T13:53:59Z</time>
      </trkpt>
      <trkpt lat="40.392922" lon="-5.684382">
        <ele>1453.43</ele>
        <time>2021-03-27T13:54:01Z</time>
      </trkpt>
      <trkpt lat="40.392986" lon="-5.684343">
        <ele>1450.78</ele>
        <time>2021-03-27T13:54:03Z</time>
      </trkpt>
      <trkpt lat="40.39305" lon="-5.68434">
        <ele>1448.68</ele>
        <time>2021-03-27T13:54:05Z</time>
      </trkpt>
      <trkpt lat="40.393109" lon="-5.68437">
        <ele>1447.5</ele>
        <time>2021-03-27T13:54:07Z</time>
      </trkpt>
      <trkpt lat="40.393167" lon="-5.684473">
        <ele>1446.93</ele>
        <time>2021-03-27T13:54:08Z</time>
      </trkpt>
      <trkpt lat="40.393246" lon="-5.684821">
        <ele>1444.99</ele>
        <time>2021-03-27T13:54:10Z</time>
      </trkpt>
      <trkpt lat="40.393588" lon="-5.685786">
        <ele>1430.92</ele>
        <time>2021-03-27T13:54:12Z</time>
      </trkpt>
      <trkpt lat="40.393673" lon="-5.686084">
        <ele>1429.6</ele>
        <time>2021-03-27T13:54:14Z</time>
      </trkpt>
      <trkpt lat="40.393741" lon="-5.686404">
        <ele>1428.28</ele>
        <time>2021-03-27T13:54:16Z</time>
      </trkpt>
      <trkpt lat="40.393875" lon="-5.687437">
        <ele>1419.04</ele>
        <time>2021-03-27T13:54:17Z</time>
      </trkpt>
      <trkpt lat="40.393886" lon="-5.687697">
        <ele>1415.23</ele>
        <time>2021-03-27T13:54:19Z</time>
      </trkpt>
      <trkpt lat="40.393881" lon="-5.687863">
        <ele>1413.55</ele>
        <time>2021-03-27T13:54:21Z</time>
      </trkpt>
      <trkpt lat="40.39381" lon="-5.688124">
        <ele>1412.78</ele>
        <time>2021-03-27T13:54:23Z</time>
      </trkpt>
      <trkpt lat="40.393806" lon="-5.688214">
        <ele>1412.39</ele>
        <time>2021-03-27T13:54:24Z</time>
      </trkpt>
      <trkpt lat="40.393831" lon="-5.688323">
        <ele>1411.31</ele>
        <time>2021-03-27T13:54:26Z</time>
      </trkpt>
      <trkpt lat="40.393909" lon="-5.688459">
        <ele>1409.1</ele>
        <time>2021-03-27T13:54:28Z</time>
      </trkpt>
      <trkpt lat="40.393961" lon="-5.688481">
        <ele>1407.89</ele>
        <time>2021-03-27T13:54:30Z</time>
      </trkpt>
      <trkpt lat="40.394024" lon="-5.688471">
        <ele>1406.58</ele>
        <time>2021-03-27T13:54:32Z</time>
      </trkpt>
      <trkpt lat="40.394224" lon="-5.688197">
        <ele>1405.93</ele>
        <time>2021-03-27T13:54:33Z</time>
      </trkpt>
      <trkpt lat="40.394586" lon="-5.68776">
        <ele>1403.07</ele>
        <time>2021-03-27T13:54:35Z</time>
      </trkpt>
      <trkpt lat="40.394815" lon="-5.687352">
        <ele>1399.99</ele>
        <time>2021-03-27T13:54:37Z</time>
      </trkpt>
      <trkpt lat="40.394894" lon="-5.687258">
        <ele>1398.29</ele>
        <time>2021-03-27T13:54:39Z</time>
      </trkpt>
      <trkpt lat="40.394972" lon="-5.687224">
        <ele>1396.6</ele>
        <time>2021-03-27T13:54:41Z</time>
      </trkpt>
      <trkpt lat="40.395033" lon="-5.687227">
        <ele>1395.17</ele>
        <time>2021-03-27T13:54:42Z</time>
      </trkpt>
      <trkpt lat="40.395096" lon="-5.687267">
        <ele>1393.51</ele>
        <time>2021-03-27T13:54:44Z</time>
      </trkpt>
      <trkpt lat="40.395204" lon="-5.687418">
        <ele>1390.34</ele>
        <time>2021-03-27T13:54:46Z</time>
      </trkpt>
      <trkpt lat="40.395245" lon="-5.687548">
        <ele>1388.59</ele>
        <time>2021-03-27T13:54:48Z</time>
      </trkpt>
      <trkpt lat="40.395335" lon="-5.68815">
        <ele>1383.3</ele>
        <time>2021-03-27T13:54:50Z</time>
      </trkpt>
      <trkpt lat="40.395368" lon="-5.688549">
        <ele>1379.81</ele>
        <time>2021-03-27T13:54:51Z</time>
      </trkpt>
      <trkpt lat="40.3954" lon="-5.688656">
        <ele>1378.31</ele>
        <time>2021-03-27T13:54:53Z</time>
      </trkpt>
      <trkpt lat="40.395443" lon="-5.688698">
        <ele>1377.09</ele>
        <time>2021-03-27T13:54:55Z</time>
      </trkpt>
      <trkpt lat="40.395549" lon="-5.688691">
        <ele>1375.25</ele>
        <time>2021-03-27T13:54:57Z</time>
      </trkpt>
      <trkpt lat="40.395616" lon="-5.688604">
        <ele>1374.95</ele>
        <time>2021-03-27T13:54:59Z</time>
      </trkpt>
      <trkpt lat="40.395817" lon="-5.688186">
        <ele>1371.96</ele>
        <time>2021-03-27T13:55:00Z</time>
      </trkpt>
      <trkpt lat="40.396291" lon="-5.687389">
        <ele>1365.15</ele>
        <time>2021-03-27T13:55:02Z</time>
      </trkpt>
      <trkpt lat="40.396364" lon="-5.687292">
        <ele>1363.67</ele>
        <time>2021-03-27T13:55:04Z</time>
      </trkpt>
      <trkpt lat="40.396426" lon="-5.687243">
        <ele>1362.54</ele>
        <time>2021-03-27T13:55:06Z</time>
      </trkpt>
      <trkpt lat="40.396496" lon="-5.687234">
        <ele>1361.5</ele>
        <time>2021-03-27T13:55:08Z</time>
      </trkpt>
      <trkpt lat="40.39657" lon="-5.687256">
        <ele>1360.51</ele>
        <time>2021-03-27T13:55:09Z</time>
      </trkpt>
      <trkpt lat="40.396621" lon="-5.687319">
        <ele>1360.01</ele>
        <time>2021-03-27T13:55:11Z</time>
      </trkpt>
      <trkpt lat="40.396672" lon="-5.687422">
        <ele>1359.57</ele>
        <time>2021-03-27T13:55:13Z</time>
      </trkpt>
      <trkpt lat="40.396755" lon="-5.687639">
        <ele>1358.12</ele>
        <time>2021-03-27T13:55:15Z</time>
      </trkpt>
      <trkpt lat="40.396826" lon="-5.688041">
        <ele>1356.99</ele>
        <time>2021-03-27T13:55:17Z</time>
      </trkpt>
      <trkpt lat="40.396913" lon="-5.688165">
        <ele>1353.59</ele>
        <time>2021-03-27T13:55:18Z</time>
      </trkpt>
      <trkpt lat="40.397028" lon="-5.688168">
        <ele>1350.69</ele>
        <time>2021-03-27T13:55:20Z</time>
      </trkpt>
      <trkpt lat="40.39711" lon="-5.688101">
        <ele>1349.33</ele>
        <time>2021-03-27T13:55:22Z</time>
      </trkpt>
      <trkpt lat="40.397201" lon="-5.687876">
        <ele>1347.54</ele>
        <time>2021-03-27T13:55:24Z</time>
      </trkpt>
      <trkpt lat="40.397409" lon="-5.68751">
        <ele>1342.0</ele>
        <time>2021-03-27T13:55:26Z</time>
      </trkpt>
      <trkpt lat="40.3975" lon="-5.68743">
        <ele>1339.25</ele>
        <time>2021-03-27T13:55:27Z</time>
      </trkpt>
      <trkpt lat="40.397616" lon="-5.687377">
        <ele>1335.94</ele>
        <time>2021-03-27T13:55:29Z</time>
      </trkpt>
      <trkpt lat="40.39773" lon="-5.687391">
        <ele>1333.35</ele>
        <time>2021-03-27T13:55:31Z</time>
      </trkpt>
      <trkpt lat="40.397852" lon="-5.687466">
        <ele>1331.16</ele>
        <time>2021-03-27T13:55:33Z</time>
      </trkpt>
      <trkpt lat="40.397958" lon="-5.687572">
        <ele>1329.54</ele>
        <time>2021-03-27T13:55:35Z</time>
      </trkpt>
      <trkpt lat="40.398212" lon="-5.687993">
        <ele>1326.18</ele>
        <time>2021-03-27T13:55:36Z</time>
      </trkpt>
      <trkpt lat="40.398385" lon="-5.688237">
        <ele>1323.51</ele>
        <time>2021-03-27T13:55:38Z</time>
      </trkpt>
      <trkpt lat="40.398557" lon="-5.688408">
        <ele>1321.26</ele>
        <time>2021-03-27T13:55:40Z</time>
      </trkpt>
      <trkpt lat="40.398981" lon="-5.688712">
        <ele>1317.31</ele>
        <time>2021-03-27T13:55:42Z</time>
      </trkpt>
      <trkpt lat="40.399815" lon="-5.689214">
        <ele>1315.83</ele>
        <time>2021-03-27T13:55:44Z</time>
      </trkpt>
      <trkpt lat="40.399964" lon="-5.689258">
        <ele>1314.05</ele>
        <time>2021-03-27T13:55:45Z</time>
      </trkpt>
      <trkpt lat="40.400213" lon="-5.689276">
        <ele>1312.07</ele>
        <time>2021-03-27T13:55:47Z</time>
      </trkpt>
      <trkpt lat="40.400346" lon="-5.68926">
        <ele>1311.5</ele>
        <time>2021-03-27T13:55:49Z</time>
      </trkpt>
      <trkpt lat="40.400852" lon="-5.689114">
        <ele>1309.82</ele>
        <time>2021-03-27T13:55:51Z</time>
      </trkpt>
      <trkpt lat="40.401063" lon="-5.689095">
        <ele>1309.95</ele>
        <time>2021-03-27T13:55:53Z</time>
      </trkpt>
      <trkpt lat="40.401374" lon="-5.68916">
        <ele>1310.94</ele>
        <time>2021-03-27T13:55:54Z</time>
      </trkpt>
      <trkpt lat="40.401519" lon="-5.689249">
        <ele>1310.84</ele>
        <time>2021-03-27T13:55:56Z</time>
      </trkpt>
      <trkpt lat="40.401765" lon="-5.689473">
        <ele>1310.93</ele>
        <time>2021-03-27T13:55:58Z</time>
      </trkpt>
      <trkpt lat="40.402983" lon="-5.690851">
        <ele>1305.15</ele>
        <time>2021-03-27T13:56:00Z</time>
      </trkpt>
      <trkpt lat="40.403286" lon="-5.691256">
        <ele>1307.36</ele>
        <time>2021-03-27T13:56:01Z</time>
      </trkpt>
      <trkpt lat="40.403993" lon="-5.692515">
        <ele>1305.95</ele>
        <time>2021-03-27T13:56:03Z</time>
      </trkpt>
      <trkpt lat="40.404449" lon="-5.69344">
        <ele>1300.56</ele>
        <time>2021-03-27T13:56:05Z</time>
      </trkpt>
      <trkpt lat="40.404767" lon="-5.694153">
        <ele>1297.04</ele>
        <time>2021-03-27T13:56:07Z</time>
      </trkpt>
      <trkpt lat="40.404898" lon="-5.694394">
        <ele>1294.03</ele>
        <time>2021-03-27T13:56:09Z</time>
      </trkpt>
      <trkpt lat="40.405031" lon="-5.694564">
        <ele>1292.18</ele>
        <time>2021-03-27T13:56:10Z</time>
      </trkpt>
      <trkpt lat="40.405222" lon="-5.694742">
        <ele>1291.16</ele>
        <time>2021-03-27T13:56:12Z</time>
      </trkpt>
      <trkpt lat="40.405453" lon="-5.694882">
        <ele>1291.8</ele>
        <time>2021-03-27T13:56:14Z</time>
      </trkpt>
      <trkpt lat="40.405634" lon="-5.694947">
        <ele>1292.05</ele>
        <time>2021-03-27T13:56:16Z</time>
      </trkpt>
      <trkpt lat="40.40579" lon="-5.694975">
        <ele>1292.2</ele>
        <time>2021-03-27T13:56:18Z</time>
      </trkpt>
      <trkpt lat="40.406531" lon="-5.694855">
        <ele>1292.1</ele>
        <time>2021-03-27T13:56:19Z</time>
      </trkpt>
      <trkpt lat="40.406715" lon="-5.694844">
        <ele>1291.74</ele>
        <time>2021-03-27T13:56:21Z</time>
      </trkpt>
      <trkpt lat="40.406872" lon="-5.694857">
        <ele>1291.21</ele>
        <time>2021-03-27T13:56:23Z</time>
      </trkpt>
      <trkpt lat="40.407112" lon="-5.694923">
        <ele>1289.83</ele>
        <time>2021-03-27T13:56:25Z</time>
      </trkpt>
      <trkpt lat="40.407358" lon="-5.695066">
        <ele>1287.9</ele>
        <time>2021-03-27T13:56:27Z</time>
      </trkpt>
      <trkpt lat="40.407527" lon="-5.695207">
        <ele>1287.23</ele>
        <time>2021-03-27T13:56:28Z</time>
      </trkpt>
      <trkpt lat="40.408191" lon="-5.695829">
        <ele>1276.07</ele>
        <time>2021-03-27T13:56:30Z</time>
      </trkpt>
      <trkpt lat="40.408486" lon="-5.696132">
        <ele>1273.38</ele>
        <time>2021-03-27T13:56:32Z</time>
      </trkpt>
      <trkpt lat="40.408627" lon="-5.696313">
        <ele>1272.24</ele>
        <time>2021-03-27T13:56:34Z</time>
      </trkpt>
      <trkpt lat="40.409006" lon="-5.69692">
        <ele>1268.68</ele>
        <time>2021-03-27T13:56:36Z</time>
      </trkpt>
      <trkpt lat="40.409187" lon="-5.697141">
        <ele>1266.11</ele>
        <time>2021-03-27T13:56:37Z</time>
      </trkpt>
      <trkpt lat="40.409276" lon="-5.6972">
        <ele>1264.95</ele>
        <time>2021-03-27T13:56:39Z</time>
      </trkpt>
      <trkpt lat="40.409375" lon="-5.697231">
        <ele>1264.15</ele>
        <time>2021-03-27T13:56:41Z</time>
      </trkpt>
      <trkpt lat="40.409543" lon="-5.697222">
        <ele>1264.72</ele>
        <time>2021-03-27T13:56:43Z</time>
      </trkpt>
      <trkpt lat="40.409728" lon="-5.697159">
        <ele>1267.19</ele>
        <time>2021-03-27T13:56:45Z</time>
      </trkpt>
      <trkpt lat="40.409872" lon="-5.697163">
        <ele>1268.67</ele>
        <time>2021-03-27T13:56:46Z</time>
      </trkpt>
      <trkpt lat="40.410005" lon="-5.697234">
        <ele>1268.78</ele>
        <time>2021-03-27T13:56:48Z</time>
      </trkpt>
      <trkpt lat="40.410066" lon="-5.697323">
        <ele>1267.23</ele>
        <time>2021-03-27T13:56:50Z</time>
      </trkpt>
      <trkpt lat="40.410096" lon="-5.697409">
        <ele>1265.19</ele>
        <time>2021-03-27T13:56:52Z</time>
      </trkpt>
      <trkpt lat="40.410098" lon="-5.697499">
        <ele>1262.74</ele>
        <time>2021-03-27T13:56:54Z</time>
      </trkpt>
      <trkpt lat="40.410079" lon="-5.697574">
        <ele>1260.63</ele>
        <time>2021-03-27T13:56:55Z</time>
      </trkpt>
      <trkpt lat="40.410048" lon="-5.697615">
        <ele>1259.38</ele>
        <time>2021-03-27T13:56:57Z</time>
      </trkpt>
      <trkpt lat="40.409796" lon="-5.697744">
        <ele>1257.14</ele>
        <time>2021-03-27T13:56:59Z</time>
      </trkpt>
      <trkpt lat="40.4089" lon="-5.698084">
        <ele>1252.55</ele>
        <time>2021-03-27T13:57:01Z</time>
      </trkpt>
      <trkpt lat="40.408657" lon="-5.6982">
        <ele>1250.11</ele>
        <time>2021-03-27T13:57:03Z</time>
      </trkpt>
      <trkpt lat="40.408496" lon="-5.698307">
        <ele>1249.15</ele>
        <time>2021-03-27T13:57:05Z</time>
      </trkpt>
      <trkpt lat="40.408234" lon="-5.698564">
        <ele>1249.35</ele>
        <time>2021-03-27T13:57:06Z</time>
      </trkpt>
      <trkpt lat="40.408126" lon="-5.69874">
        <ele>1248.94</ele>
        <time>2021-03-27T13:57:08Z</time>
      </trkpt>
      <trkpt lat="40.407895" lon="-5.699344">
        <ele>1241.88</ele>
        <time>2021-03-27T13:57:10Z</time>
      </trkpt>
      <trkpt lat="40.407797" lon="-5.699509">
        <ele>1240.3</ele>
        <time>2021-03-27T13:57:12Z</time>
      </trkpt>
      <trkpt lat="40.407659" lon="-5.699658">
        <ele>1239.54</ele>
        <time>2021-03-27T13:57:14Z</time>
      </trkpt>
      <trkpt lat="40.407172" lon="-5.700017">
        <ele>1237.7</ele>
        <time>2021-03-27T13:57:16Z</time>
      </trkpt>
      <trkpt lat="40.407008" lon="-5.700099">
        <ele>1236.21</ele>
        <time>2021-03-27T13:57:17Z</time>
      </trkpt>
      <trkpt lat="40.406744" lon="-5.700182">
        <ele>1234.25</ele>
        <time>2021-03-27T13:57:19Z</time>
      </trkpt>
      <trkpt lat="40.405628" lon="-5.700207">
        <ele>1229.84</ele>
        <time>2021-03-27T13:57:21Z</time>
      </trkpt>
      <trkpt lat="40.405297" lon="-5.700169">
        <ele>1228.29</ele>
        <time>2021-03-27T13:57:23Z</time>
      </trkpt>
      <trkpt lat="40.40511" lon="-5.700111">
        <ele>1227.11</ele>
        <time>2021-03-27T13:57:25Z</time>
      </trkpt>
      <trkpt lat="40.404863" lon="-5.699946">
        <ele>1226.71</ele>
        <time>2021-03-27T13:57:27Z</time>
      </trkpt>
      <trkpt lat="40.403412" lon="-5.698526">
        <ele>1219.42</ele>
        <time>2021-03-27T13:57:28Z</time>
      </trkpt>
      <trkpt lat="40.403136" lon="-5.698276">
        <ele>1216.01</ele>
        <time>2021-03-27T13:57:30Z</time>
      </trkpt>
      <trkpt lat="40.40283" lon="-5.698083">
        <ele>1215.81</ele>
        <time>2021-03-27T13:57:32Z</time>
      </trkpt>
      <trkpt lat="40.402653" lon="-5.698015">
        <ele>1216.95</ele>
        <time>2021-03-27T13:57:34Z</time>
      </trkpt>
      <trkpt lat="40.402301" lon="-5.697945">
        <ele>1219.31</ele>
        <time>2021-03-27T13:57:36Z</time>
      </trkpt>
      <trkpt lat="40.401387" lon="-5.69785">
        <ele>1216.19</ele>
        <time>2021-03-27T13:57:38Z</time>
      </trkpt>
      <trkpt lat="40.401189" lon="-5.697843">
        <ele>1213.76</ele>
        <time>2021-03-27T13:57:39Z</time>
      </trkpt>
      <trkpt lat="40.401008" lon="-5.697861">
        <ele>1213.07</ele>
        <time>2021-03-27T13:57:41Z</time>
      </trkpt>
      <trkpt lat="40.400748" lon="-5.697951">
        <ele>1213.38</ele>
        <time>2021-03-27T13:57:43Z</time>
      </trkpt>
      <trkpt lat="40.400618" lon="-5.698028">
        <ele>1213.1</ele>
        <time>2021-03-27T13:57:45Z</time>
      </trkpt>
      <trkpt lat="40.400476" lon="-5.698134">
        <ele>1211.38</ele>
        <time>2021-03-27T13:57:47Z</time>
      </trkpt>
      <trkpt lat="40.40034" lon="-5.698279">
        <ele>1208.88</ele>
        <time>2021-03-27T13:57:49Z</time>
      </trkpt>
      <trkpt lat="40.400234" lon="-5.698435">
        <ele>1206.86</ele>
        <time>2021-03-27T13:57:50Z</time>
      </trkpt>
      <trkpt lat="40.400139" lon="-5.698623">
        <ele>1205.86</ele>
        <time>2021-03-27T13:57:52Z</time>
      </trkpt>
      <trkpt lat="40.400071" lon="-5.698802">
        <ele>1204.92</ele>
        <time>2021-03-27T13:57:54Z</time>
      </trkpt>
      <trkpt lat="40.400015" lon="-5.699024">
        <ele>1203.79</ele>
        <time>2021-03-27T13:57:56Z</time>
      </trkpt>
      <trkpt lat="40.399975" lon="-5.699416">
        <ele>1201.09</ele>
        <time>2021-03-27T13:57:58Z</time>
      </trkpt>
      <trkpt lat="40.400008" lon="-5.699826">
        <ele>1198.17</ele>
        <time>2021-03-27T13:57:59Z</time>
      </trkpt>
      <trkpt lat="40.400283" lon="-5.701099">
        <ele>1192.99</ele>
        <time>2021-03-27T13:58:01Z</time>
      </trkpt>
      <trkpt lat="40.400349" lon="-5.701278">
        <ele>1192.23</ele>
        <time>2021-03-27T13:58:03Z</time>
      </trkpt>
      <trkpt lat="40.40043" lon="-5.701443">
        <ele>1191.25</ele>
        <time>2021-03-27T13:58:05Z</time>
      </trkpt>
      <trkpt lat="40.400531" lon="-5.701601">
        <ele>1189.56</ele>
        <time>2021-03-27T13:58:07Z</time>
      </trkpt>
      <trkpt lat="40.400648" lon="-5.701728">
        <ele>1188.0</ele>
        <time>2021-03-27T13:58:09Z</time>
      </trkpt>
      <trkpt lat="40.40078" lon="-5.701848">
        <ele>1186.57</ele>
        <time>2021-03-27T13:58:10Z</time>
      </trkpt>
      <trkpt lat="40.401368" lon="-5.702237">
        <ele>1185.08</ele>
        <time>2021-03-27T13:58:12Z</time>
      </trkpt>
      <trkpt lat="40.401518" lon="-5.702374">
        <ele>1184.07</ele>
        <time>2021-03-27T13:58:14Z</time>
      </trkpt>
      <trkpt lat="40.401632" lon="-5.702519">
        <ele>1183.26</ele>
        <time>2021-03-27T13:58:16Z</time>
      </trkpt>
      <trkpt lat="40.401727" lon="-5.702679">
        <ele>1182.13</ele>
        <time>2021-03-27T13:58:18Z</time>
      </trkpt>
      <trkpt lat="40.401795" lon="-5.702833">
        <ele>1181.26</ele>
        <time>2021-03-27T13:58:20Z</time>
      </trkpt>
      <trkpt lat="40.40191" lon="-5.703275">
        <ele>1179.51</ele>
        <time>2021-03-27T13:58:21Z</time>
      </trkpt>
      <trkpt lat="40.402002" lon="-5.703705">
        <ele>1177.63</ele>
        <time>2021-03-27T13:58:23Z</time>
      </trkpt>
      <trkpt lat="40.402039" lon="-5.703949">
        <ele>1176.08</ele>
        <time>2021-03-27T13:58:25Z</time>
      </trkpt>
      <trkpt lat="40.402043" lon="-5.704167">
        <ele>1175.23</ele>
        <time>2021-03-27T13:58:27Z</time>
      </trkpt>
      <trkpt lat="40.402028" lon="-5.704378">
        <ele>1173.98</ele>
        <time>2021-03-27T13:58:29Z</time>
      </trkpt>
      <trkpt lat="40.401982" lon="-5.704599">
        <ele>1172.8</ele>
        <time>2021-03-27T13:58:31Z</time>
      </trkpt>
      <trkpt lat="40.401843" lon="-5.704958">
        <ele>1171.45</ele>
        <time>2021-03-27T13:58:32Z</time>
      </trkpt>
      <trkpt lat="40.400433" lon="-5.70732">
        <ele>1164.36</ele>
        <time>2021-03-27T13:58:34Z</time>
      </trkpt>
      <trkpt lat="40.40024" lon="-5.707695">
        <ele>1163.26</ele>
        <time>2021-03-27T13:58:36Z</time>
      </trkpt>
      <trkpt lat="40.400089" lon="-5.708074">
        <ele>1161.93</ele>
        <time>2021-03-27T13:58:38Z</time>
      </trkpt>
      <trkpt lat="40.399993" lon="-5.708439">
        <ele>1160.29</ele>
        <time>2021-03-27T13:58:40Z</time>
      </trkpt>
      <trkpt lat="40.399931" lon="-5.708805">
        <ele>1158.17</ele>
        <time>2021-03-27T13:58:42Z</time>
      </trkpt>
      <trkpt lat="40.399904" lon="-5.709229">
        <ele>1155.24</ele>
        <time>2021-03-27T13:58:43Z</time>
      </trkpt>
      <trkpt lat="40.39995" lon="-5.710077">
        <ele>1147.8</ele>
        <time>2021-03-27T13:58:45Z</time>
      </trkpt>
      <trkpt lat="40.400015" lon="-5.710635">
        <ele>1143.36</ele>
        <time>2021-03-27T13:58:47Z</time>
      </trkpt>
      <trkpt lat="40.4001" lon="-5.71099">
        <ele>1139.02</ele>
        <time>2021-03-27T13:58:49Z</time>
      </trkpt>
      <trkpt lat="40.400226" lon="-5.711314">
        <ele>1135.77</ele>
        <time>2021-03-27T13:58:51Z</time>
      </trkpt>
      <trkpt lat="40.400397" lon="-5.711636">
        <ele>1133.25</ele>
        <time>2021-03-27T13:58:53Z</time>
      </trkpt>
      <trkpt lat="40.400511" lon="-5.711796">
        <ele>1132.4</ele>
        <time>2021-03-27T13:58:54Z</time>
      </trkpt>
      <trkpt lat="40.400842" lon="-5.712138">
        <ele>1128.9</ele>
        <time>2021-03-27T13:58:56Z</time>
      </trkpt>
      <trkpt lat="40.401626" lon="-5.712699">
        <ele>1122.77</ele>
        <time>2021-03-27T13:58:58Z</time>
      </trkpt>
      <trkpt lat="40.401749" lon="-5.71282">
        <ele>1121.25</ele>
        <time>2021-03-27T13:59:00Z</time>
      </trkpt>
      <trkpt lat="40.401872" lon="-5.712977">
        <ele>1119.11</ele>
        <time>2021-03-27T13:59:02Z</time>
      </trkpt>
      <trkpt lat="40.401603" lon="-5.713129">
        <ele>1118.95</ele>
        <time>2021-03-27T13:59:03Z</time>
      </trkpt>
      <trkpt lat="40.401546" lon="-5.713179">
        <ele>1119.16</ele>
        <time>2021-03-27T13:59:05Z</time>
      </trkpt>
      <trkpt lat="40.401441" lon="-5.713409">
        <ele>1118.38</ele>
        <time>2021-03-27T13:59:06Z</time>
      </trkpt>
      <trkpt lat="40.401302" lon="-5.713879">
        <ele>1117.27</ele>
        <time>2021-03-27T13:59:07Z</time>
      </trkpt>
      <trkpt lat="40.401239" lon="-5.714033">
        <ele>1118.21</ele>
        <time>2021-03-27T13:59:09Z</time>
      </trkpt>
      <trkpt lat="40.401184" lon="-5.714113">
        <ele>1118.97</ele>
        <time>2021-03-27T13:59:10Z</time>
      </trkpt>
      <trkpt lat="40.401084" lon="-5.714226">
        <ele>1119.67</ele>
        <time>2021-03-27T13:59:12Z</time>
      </trkpt>
      <trkpt lat="40.400953" lon="-5.714313">
        <ele>1119.51</ele>
        <time>2021-03-27T13:59:13Z</time>
      </trkpt>
      <trkpt lat="40.40065" lon="-5.714438">
        <ele>1119.06</ele>
        <time>2021-03-27T13:59:15Z</time>
      </trkpt>
      <trkpt lat="40.400517" lon="-5.71446">
        <ele>1119.35</ele>
        <time>2021-03-27T13:59:16Z</time>
      </trkpt>
      <trkpt lat="40.400437" lon="-5.714451">
        <ele>1120.24</ele>
        <time>2021-03-27T13:59:17Z</time>
      </trkpt>
      <trkpt lat="40.4003" lon="-5.714394">
        <ele>1122.13</ele>
        <time>2021-03-27T13:59:19Z</time>
      </trkpt>
      <trkpt lat="40.39933" lon="-5.713714">
        <ele>1122.32</ele>
        <time>2021-03-27T13:59:20Z</time>
      </trkpt>
      <trkpt lat="40.399287" lon="-5.713822">
        <ele>1121.38</ele>
        <time>2021-03-27T13:59:25Z</time>
      </trkpt>
      <trkpt lat="40.398566" lon="-5.71512">
        <ele>1120.42</ele>
        <time>2021-03-27T13:59:30Z</time>
      </trkpt>
      <trkpt lat="40.398455" lon="-5.715277">
        <ele>1121.13</ele>
        <time>2021-03-27T13:59:35Z</time>
      </trkpt>
      <trkpt lat="40.39836" lon="-5.715234">
        <ele>1121.95</ele>
        <time>2021-03-27T13:59:37Z</time>
      </trkpt>
      <trkpt lat="40.397873" lon="-5.714519">
        <ele>1126.46</ele>
        <time>2021-03-27T13:59:40Z</time>
      </trkpt>
      <trkpt lat="40.397794" lon="-5.714484">
        <ele>1126.71</ele>
        <time>2021-03-27T13:59:42Z</time>
      </trkpt>
      <trkpt lat="40.397564" lon="-5.714457">
        <ele>1125.37</ele>
        <time>2021-03-27T13:59:44Z</time>
      </trkpt>
      <trkpt lat="40.397463" lon="-5.714409">
        <ele>1125.09</ele>
        <time>2021-03-27T13:59:46Z</time>
      </trkpt>
      <trkpt lat="40.397394" lon="-5.714344">
        <ele>1125.07</ele>
        <time>2021-03-27T13:59:48Z</time>
      </trkpt>
      <trkpt lat="40.39735" lon="-5.714257">
        <ele>1125.08</ele>
        <time>2021-03-27T13:59:50Z</time>
      </trkpt>
      <trkpt lat="40.397286" lon="-5.714245">
        <ele>1124.56</ele>
        <time>2021-03-27T13:59:52Z</time>
      </trkpt>
      <trkpt lat="40.397165" lon="-5.714284">
        <ele>1123.91</ele>
        <time>2021-03-27T13:59:53Z</time>
      </trkpt>
      <trkpt lat="40.397042" lon="-5.714383">
        <ele>1123.49</ele>
        <time>2021-03-27T13:59:55Z</time>
      </trkpt>
      <trkpt lat="40.397" lon="-5.714459">
        <ele>1123.14</ele>
        <time>2021-03-27T13:59:57Z</time>
      </trkpt>
      <trkpt lat="40.396934" lon="-5.714701">
        <ele>1122.19</ele>
        <time>2021-03-27T13:59:58Z</time>
      </trkpt>
      <trkpt lat="40.39687" lon="-5.714831">
        <ele>1122.59</ele>
        <time>2021-03-27T14:00:00Z</time>
      </trkpt>
      <trkpt lat="40.396425" lon="-5.715504">
        <ele>1125.84</ele>
        <time>2021-03-27T14:00:02Z</time>
      </trkpt>
      <trkpt lat="40.395811" lon="-5.716572">
        <ele>1131.42</ele>
        <time>2021-03-27T14:00:04Z</time>
      </trkpt>
      <trkpt lat="40.395414" lon="-5.717138">
        <ele>1128.25</ele>
        <time>2021-03-27T14:00:05Z</time>
      </trkpt>
      <trkpt lat="40.395345" lon="-5.717202">
        <ele>1127.44</ele>
        <time>2021-03-27T14:00:07Z</time>
      </trkpt>
      <trkpt lat="40.395275" lon="-5.717237">
        <ele>1126.78</ele>
        <time>2021-03-27T14:00:09Z</time>
      </trkpt>
      <trkpt lat="40.394731" lon="-5.717376">
        <ele>1126.03</ele>
        <time>2021-03-27T14:00:10Z</time>
      </trkpt>
      <trkpt lat="40.394365" lon="-5.717358">
        <ele>1127.15</ele>
        <time>2021-03-27T14:00:12Z</time>
      </trkpt>
      <trkpt lat="40.394055" lon="-5.717288">
        <ele>1127.17</ele>
        <time>2021-03-27T14:00:14Z</time>
      </trkpt>
      <trkpt lat="40.393439" lon="-5.717062">
        <ele>1126.33</ele>
        <time>2021-03-27T14:00:15Z</time>
      </trkpt>
      <trkpt lat="40.393343" lon="-5.716998">
        <ele>1126.48</ele>
        <time>2021-03-27T14:00:17Z</time>
      </trkpt>
      <trkpt lat="40.393191" lon="-5.716838">
        <ele>1126.93</ele>
        <time>2021-03-27T14:00:19Z</time>
      </trkpt>
      <trkpt lat="40.393139" lon="-5.716799">
        <ele>1127.01</ele>
        <time>2021-03-27T14:00:21Z</time>
      </trkpt>
      <trkpt lat="40.393062" lon="-5.716773">
        <ele>1126.88</ele>
        <time>2021-03-27T14:00:22Z</time>
      </trkpt>
      <trkpt lat="40.392992" lon="-5.716766">
        <ele>1127.16</ele>
        <time>2021-03-27T14:00:24Z</time>
      </trkpt>
      <trkpt lat="40.392819" lon="-5.716819">
        <ele>1127.21</ele>
        <time>2021-03-27T14:00:26Z</time>
      </trkpt>
      <trkpt lat="40.392737" lon="-5.716825">
        <ele>1127.73</ele>
        <time>2021-03-27T14:00:27Z</time>
      </trkpt>
      <trkpt lat="40.392677" lon="-5.716797">
        <ele>1128.68</ele>
        <time>2021-03-27T14:00:29Z</time>
      </trkpt>
      <trkpt lat="40.392016" lon="-5.716333">
        <ele>1130.92</ele>
        <time>2021-03-27T14:00:31Z</time>
      </trkpt>
      <trkpt lat="40.391907" lon="-5.716292">
        <ele>1130.7</ele>
        <time>2021-03-27T14:00:32Z</time>
      </trkpt>
      <trkpt lat="40.391763" lon="-5.716285">
        <ele>1130.74</ele>
        <time>2021-03-27T14:00:34Z</time>
      </trkpt>
      <trkpt lat="40.39109" lon="-5.716344">
        <ele>1137.42</ele>
        <time>2021-03-27T14:00:36Z</time>
      </trkpt>
      <trkpt lat="40.390884" lon="-5.716471">
        <ele>1138.35</ele>
        <time>2021-03-27T14:00:38Z</time>
      </trkpt>
      <trkpt lat="40.390636" lon="-5.716675">
        <ele>1135.64</ele>
        <time>2021-03-27T14:00:39Z</time>
      </trkpt>
      <trkpt lat="40.390288" lon="-5.716787">
        <ele>1138.22</ele>
        <time>2021-03-27T14:00:41Z</time>
      </trkpt>
      <trkpt lat="40.389837" lon="-5.716832">
        <ele>1144.78</ele>
        <time>2021-03-27T14:00:43Z</time>
      </trkpt>
      <trkpt lat="40.389702" lon="-5.71687">
        <ele>1145.86</ele>
        <time>2021-03-27T14:00:44Z</time>
      </trkpt>
      <trkpt lat="40.389485" lon="-5.716946">
        <ele>1147.41</ele>
        <time>2021-03-27T14:00:46Z</time>
      </trkpt>
      <trkpt lat="40.389091" lon="-5.717121">
        <ele>1151.47</ele>
        <time>2021-03-27T14:00:48Z</time>
      </trkpt>
      <trkpt lat="40.388922" lon="-5.71723">
        <ele>1151.73</ele>
        <time>2021-03-27T14:00:50Z</time>
      </trkpt>
      <trkpt lat="40.388895" lon="-5.717299">
        <ele>1151.68</ele>
        <time>2021-03-27T14:00:51Z</time>
      </trkpt>
      <trkpt lat="40.388895" lon="-5.717415">
        <ele>1151.26</ele>
        <time>2021-03-27T14:00:53Z</time>
      </trkpt>
      <trkpt lat="40.388916" lon="-5.71752">
        <ele>1150.81</ele>
        <time>2021-03-27T14:00:55Z</time>
      </trkpt>
      <trkpt lat="40.388963" lon="-5.717619">
        <ele>1150.47</ele>
        <time>2021-03-27T14:00:56Z</time>
      </trkpt>
      <trkpt lat="40.38909" lon="-5.717752">
        <ele>1149.55</ele>
        <time>2021-03-27T14:00:58Z</time>
      </trkpt>
      <trkpt lat="40.389144" lon="-5.717838">
        <ele>1149.39</ele>
        <time>2021-03-27T14:01:00Z</time>
      </trkpt>
      <trkpt lat="40.389174" lon="-5.717923">
        <ele>1149.44</ele>
        <time>2021-03-27T14:01:01Z</time>
      </trkpt>
      <trkpt lat="40.389171" lon="-5.718022">
        <ele>1149.84</ele>
        <time>2021-03-27T14:01:03Z</time>
      </trkpt>
      <trkpt lat="40.389147" lon="-5.718099">
        <ele>1150.67</ele>
        <time>2021-03-27T14:01:05Z</time>
      </trkpt>
      <trkpt lat="40.388307" lon="-5.719512">
        <ele>1158.94</ele>
        <time>2021-03-27T14:01:07Z</time>
      </trkpt>
      <trkpt lat="40.388224" lon="-5.719622">
        <ele>1159.84</ele>
        <time>2021-03-27T14:01:08Z</time>
      </trkpt>
      <trkpt lat="40.388112" lon="-5.719713">
        <ele>1161.69</ele>
        <time>2021-03-27T14:01:10Z</time>
      </trkpt>
      <trkpt lat="40.387547" lon="-5.720008">
        <ele>1163.7</ele>
        <time>2021-03-27T14:01:12Z</time>
      </trkpt>
      <trkpt lat="40.387471" lon="-5.720035">
        <ele>1163.59</ele>
        <time>2021-03-27T14:01:13Z</time>
      </trkpt>
      <trkpt lat="40.387386" lon="-5.720037">
        <ele>1164.21</ele>
        <time>2021-03-27T14:01:15Z</time>
      </trkpt>
      <trkpt lat="40.386928" lon="-5.719795">
        <ele>1171.51</ele>
        <time>2021-03-27T14:01:17Z</time>
      </trkpt>
      <trkpt lat="40.386708" lon="-5.719707">
        <ele>1174.16</ele>
        <time>2021-03-27T14:01:18Z</time>
      </trkpt>
      <trkpt lat="40.385904" lon="-5.719531">
        <ele>1186.19</ele>
        <time>2021-03-27T14:01:20Z</time>
      </trkpt>
      <trkpt lat="40.38546" lon="-5.71937">
        <ele>1192.46</ele>
        <time>2021-03-27T14:01:22Z</time>
      </trkpt>
      <trkpt lat="40.385369" lon="-5.719399">
        <ele>1192.2</ele>
        <time>2021-03-27T14:01:24Z</time>
      </trkpt>
      <trkpt lat="40.385074" lon="-5.719598">
        <ele>1192.59</ele>
        <time>2021-03-27T14:01:25Z</time>
      </trkpt>
      <trkpt lat="40.384993" lon="-5.719712">
        <ele>1193.07</ele>
        <time>2021-03-27T14:01:27Z</time>
      </trkpt>
      <trkpt lat="40.384965" lon="-5.719804">
        <ele>1193.97</ele>
        <time>2021-03-27T14:01:29Z</time>
      </trkpt>
      <trkpt lat="40.384956" lon="-5.719932">
        <ele>1194.98</ele>
        <time>2021-03-27T14:01:30Z</time>
      </trkpt>
      <trkpt lat="40.384993" lon="-5.720363">
        <ele>1196.05</ele>
        <time>2021-03-27T14:01:32Z</time>
      </trkpt>
      <trkpt lat="40.384972" lon="-5.720471">
        <ele>1196.2</ele>
        <time>2021-03-27T14:01:34Z</time>
      </trkpt>
      <trkpt lat="40.384945" lon="-5.720574">
        <ele>1196.38</ele>
        <time>2021-03-27T14:01:35Z</time>
      </trkpt>
      <trkpt lat="40.384773" lon="-5.721014">
        <ele>1197.47</ele>
        <time>2021-03-27T14:01:37Z</time>
      </trkpt>
      <trkpt lat="40.384625" lon="-5.721333">
        <ele>1199.22</ele>
        <time>2021-03-27T14:01:39Z</time>
      </trkpt>
      <trkpt lat="40.384551" lon="-5.721455">
        <ele>1199.47</ele>
        <time>2021-03-27T14:01:41Z</time>
      </trkpt>
      <trkpt lat="40.384454" lon="-5.721589">
        <ele>1199.27</ele>
        <time>2021-03-27T14:01:42Z</time>
      </trkpt>
      <trkpt lat="40.384057" lon="-5.722054">
        <ele>1199.84</ele>
        <time>2021-03-27T14:01:44Z</time>
      </trkpt>
      <trkpt lat="40.383742" lon="-5.722326">
        <ele>1198.39</ele>
        <time>2021-03-27T14:01:46Z</time>
      </trkpt>
      <trkpt lat="40.383396" lon="-5.722577">
        <ele>1196.78</ele>
        <time>2021-03-27T14:01:47Z</time>
      </trkpt>
      <trkpt lat="40.38154" lon="-5.724025">
        <ele>1189.33</ele>
        <time>2021-03-27T14:01:49Z</time>
      </trkpt>
      <trkpt lat="40.381048" lon="-5.724344">
        <ele>1186.3</ele>
        <time>2021-03-27T14:01:51Z</time>
      </trkpt>
      <trkpt lat="40.380664" lon="-5.724477">
        <ele>1183.52</ele>
        <time>2021-03-27T14:01:52Z</time>
      </trkpt>
      <trkpt lat="40.380438" lon="-5.724611">
        <ele>1181.03</ele>
        <time>2021-03-27T14:01:54Z</time>
      </trkpt>
      <trkpt lat="40.380203" lon="-5.724863">
        <ele>1180.03</ele>
        <time>2021-03-27T14:01:56Z</time>
      </trkpt>
      <trkpt lat="40.379982" lon="-5.725166">
        <ele>1180.52</ele>
        <time>2021-03-27T14:01:58Z</time>
      </trkpt>
      <trkpt lat="40.378799" lon="-5.726908">
        <ele>1174.26</ele>
        <time>2021-03-27T14:01:59Z</time>
      </trkpt>
      <trkpt lat="40.378663" lon="-5.727148">
        <ele>1173.27</ele>
        <time>2021-03-27T14:02:01Z</time>
      </trkpt>
      <trkpt lat="40.378517" lon="-5.727466">
        <ele>1170.37</ele>
        <time>2021-03-27T14:02:03Z</time>
      </trkpt>
      <trkpt lat="40.378451" lon="-5.727645">
        <ele>1168.43</ele>
        <time>2021-03-27T14:02:04Z</time>
      </trkpt>
      <trkpt lat="40.3784" lon="-5.72786">
        <ele>1166.48</ele>
        <time>2021-03-27T14:02:06Z</time>
      </trkpt>
      <trkpt lat="40.37821" lon="-5.728984">
        <ele>1161.81</ele>
        <time>2021-03-27T14:02:08Z</time>
      </trkpt>
      <trkpt lat="40.378176" lon="-5.72926">
        <ele>1161.57</ele>
        <time>2021-03-27T14:02:10Z</time>
      </trkpt>
      <trkpt lat="40.378121" lon="-5.730484">
        <ele>1157.28</ele>
        <time>2021-03-27T14:02:11Z</time>
      </trkpt>
      <trkpt lat="40.378098" lon="-5.730611">
        <ele>1156.61</ele>
        <time>2021-03-27T14:02:13Z</time>
      </trkpt>
      <trkpt lat="40.377898" lon="-5.73096">
        <ele>1155.54</ele>
        <time>2021-03-27T14:02:15Z</time>
      </trkpt>
      <trkpt lat="40.37767" lon="-5.731271">
        <ele>1153.07</ele>
        <time>2021-03-27T14:02:16Z</time>
      </trkpt>
      <trkpt lat="40.377445" lon="-5.731631">
        <ele>1149.01</ele>
        <time>2021-03-27T14:02:18Z</time>
      </trkpt>
      <trkpt lat="40.376744" lon="-5.733179">
        <ele>1142.28</ele>
        <time>2021-03-27T14:02:20Z</time>
      </trkpt>
      <trkpt lat="40.376273" lon="-5.734451">
        <ele>1138.34</ele>
        <time>2021-03-27T14:02:21Z</time>
      </trkpt>
      <trkpt lat="40.376186" lon="-5.734557">
        <ele>1137.2</ele>
        <time>2021-03-27T14:02:23Z</time>
      </trkpt>
      <trkpt lat="40.376107" lon="-5.734601">
        <ele>1135.95</ele>
        <time>2021-03-27T14:02:25Z</time>
      </trkpt>
      <trkpt lat="40.375973" lon="-5.734631">
        <ele>1134.51</ele>
        <time>2021-03-27T14:02:27Z</time>
      </trkpt>
      <trkpt lat="40.375807" lon="-5.734638">
        <ele>1132.84</ele>
        <time>2021-03-27T14:02:28Z</time>
      </trkpt>
      <trkpt lat="40.37568" lon="-5.73461">
        <ele>1132.12</ele>
        <time>2021-03-27T14:02:30Z</time>
      </trkpt>
      <trkpt lat="40.375439" lon="-5.7345">
        <ele>1130.8</ele>
        <time>2021-03-27T14:02:32Z</time>
      </trkpt>
      <trkpt lat="40.375335" lon="-5.734433">
        <ele>1130.46</ele>
        <time>2021-03-27T14:02:33Z</time>
      </trkpt>
      <trkpt lat="40.37525" lon="-5.734344">
        <ele>1129.9</ele>
        <time>2021-03-27T14:02:35Z</time>
      </trkpt>
      <trkpt lat="40.375191" lon="-5.73423">
        <ele>1129.45</ele>
        <time>2021-03-27T14:02:37Z</time>
      </trkpt>
      <trkpt lat="40.375123" lon="-5.733952">
        <ele>1129.54</ele>
        <time>2021-03-27T14:02:38Z</time>
      </trkpt>
      <trkpt lat="40.375116" lon="-5.733528">
        <ele>1127.09</ele>
        <time>2021-03-27T14:02:40Z</time>
      </trkpt>
      <trkpt lat="40.375151" lon="-5.732932">
        <ele>1124.93</ele>
        <time>2021-03-27T14:02:42Z</time>
      </trkpt>
      <trkpt lat="40.375146" lon="-5.732796">
        <ele>1124.61</ele>
        <time>2021-03-27T14:02:44Z</time>
      </trkpt>
      <trkpt lat="40.375107" lon="-5.732683">
        <ele>1124.03</ele>
        <time>2021-03-27T14:02:45Z</time>
      </trkpt>
      <trkpt lat="40.375021" lon="-5.732537">
        <ele>1123.16</ele>
        <time>2021-03-27T14:02:47Z</time>
      </trkpt>
      <trkpt lat="40.374951" lon="-5.732463">
        <ele>1122.52</ele>
        <time>2021-03-27T14:02:49Z</time>
      </trkpt>
      <trkpt lat="40.37485" lon="-5.732427">
        <ele>1121.66</ele>
        <time>2021-03-27T14:02:50Z</time>
      </trkpt>
      <trkpt lat="40.374779" lon="-5.732434">
        <ele>1120.99</ele>
        <time>2021-03-27T14:02:52Z</time>
      </trkpt>
      <trkpt lat="40.374419" lon="-5.732671">
        <ele>1114.84</ele>
        <time>2021-03-27T14:02:54Z</time>
      </trkpt>
      <trkpt lat="40.374296" lon="-5.732689">
        <ele>1113.18</ele>
        <time>2021-03-27T14:02:55Z</time>
      </trkpt>
      <trkpt lat="40.374149" lon="-5.732624">
        <ele>1112.07</ele>
        <time>2021-03-27T14:02:57Z</time>
      </trkpt>
      <trkpt lat="40.374014" lon="-5.732522">
        <ele>1112.34</ele>
        <time>2021-03-27T14:02:59Z</time>
      </trkpt>
      <trkpt lat="40.373951" lon="-5.732435">
        <ele>1112.74</ele>
        <time>2021-03-27T14:03:01Z</time>
      </trkpt>
      <trkpt lat="40.373929" lon="-5.732341">
        <ele>1113.37</ele>
        <time>2021-03-27T14:03:02Z</time>
      </trkpt>
      <trkpt lat="40.373918" lon="-5.732014">
        <ele>1117.88</ele>
        <time>2021-03-27T14:03:04Z</time>
      </trkpt>
      <trkpt lat="40.37389" lon="-5.731964">
        <ele>1118.65</ele>
        <time>2021-03-27T14:03:06Z</time>
      </trkpt>
      <trkpt lat="40.373828" lon="-5.731914">
        <ele>1119.7</ele>
        <time>2021-03-27T14:03:07Z</time>
      </trkpt>
      <trkpt lat="40.37372" lon="-5.731872">
        <ele>1120.34</ele>
        <time>2021-03-27T14:03:09Z</time>
      </trkpt>
      <trkpt lat="40.373618" lon="-5.731907">
        <ele>1119.7</ele>
        <time>2021-03-27T14:03:11Z</time>
      </trkpt>
      <trkpt lat="40.373572" lon="-5.731972">
        <ele>1119.22</ele>
        <time>2021-03-27T14:03:12Z</time>
      </trkpt>
      <trkpt lat="40.373558" lon="-5.732258">
        <ele>1116.16</ele>
        <time>2021-03-27T14:03:14Z</time>
      </trkpt>
      <trkpt lat="40.373519" lon="-5.73238">
        <ele>1116.38</ele>
        <time>2021-03-27T14:03:16Z</time>
      </trkpt>
      <trkpt lat="40.373453" lon="-5.732454">
        <ele>1117.2</ele>
        <time>2021-03-27T14:03:18Z</time>
      </trkpt>
      <trkpt lat="40.373154" lon="-5.732713">
        <ele>1118.79</ele>
        <time>2021-03-27T14:03:19Z</time>
      </trkpt>
      <trkpt lat="40.373018" lon="-5.73288">
        <ele>1119.3</ele>
        <time>2021-03-27T14:03:21Z</time>
      </trkpt>
      <trkpt lat="40.372805" lon="-5.73339">
        <ele>1123.04</ele>
        <time>2021-03-27T14:03:23Z</time>
      </trkpt>
      <trkpt lat="40.372747" lon="-5.733547">
        <ele>1124.06</ele>
        <time>2021-03-27T14:03:24Z</time>
      </trkpt>
      <trkpt lat="40.3727" lon="-5.733749">
        <ele>1124.31</ele>
        <time>2021-03-27T14:03:26Z</time>
      </trkpt>
      <trkpt lat="40.372695" lon="-5.734004">
        <ele>1123.9</ele>
        <time>2021-03-27T14:03:28Z</time>
      </trkpt>
      <trkpt lat="40.372672" lon="-5.734229">
        <ele>1124.46</ele>
        <time>2021-03-27T14:03:29Z</time>
      </trkpt>
      <trkpt lat="40.372604" lon="-5.734547">
        <ele>1125.51</ele>
        <time>2021-03-27T14:03:31Z</time>
      </trkpt>
      <trkpt lat="40.372518" lon="-5.734826">
        <ele>1126.94</ele>
        <time>2021-03-27T14:03:33Z</time>
      </trkpt>
      <trkpt lat="40.372111" lon="-5.735805">
        <ele>1125.45</ele>
        <time>2021-03-27T14:03:35Z</time>
      </trkpt>
      <trkpt lat="40.372031" lon="-5.735918">
        <ele>1125.66</ele>
        <time>2021-03-27T14:03:36Z</time>
      </trkpt>
      <trkpt lat="40.371958" lon="-5.735973">
        <ele>1126.32</ele>
        <time>2021-03-27T14:03:38Z</time>
      </trkpt>
      <trkpt lat="40.371868" lon="-5.736008">
        <ele>1126.92</ele>
        <time>2021-03-27T14:03:40Z</time>
      </trkpt>
      <trkpt lat="40.371068" lon="-5.73607">
        <ele>1131.03</ele>
        <time>2021-03-27T14:03:41Z</time>
      </trkpt>
      <trkpt lat="40.37088" lon="-5.735982">
        <ele>1133.96</ele>
        <time>2021-03-27T14:03:43Z</time>
      </trkpt>
      <trkpt lat="40.370311" lon="-5.735534">
        <ele>1138.08</ele>
        <time>2021-03-27T14:03:45Z</time>
      </trkpt>
      <trkpt lat="40.370235" lon="-5.735501">
        <ele>1138.22</ele>
        <time>2021-03-27T14:03:47Z</time>
      </trkpt>
      <trkpt lat="40.369087" lon="-5.735379">
        <ele>1141.22</ele>
        <time>2021-03-27T14:03:48Z</time>
      </trkpt>
      <trkpt lat="40.368533" lon="-5.735369">
        <ele>1138.63</ele>
        <time>2021-03-27T14:03:50Z</time>
      </trkpt>
      <trkpt lat="40.368467" lon="-5.735393">
        <ele>1139.11</ele>
        <time>2021-03-27T14:03:52Z</time>
      </trkpt>
      <trkpt lat="40.368416" lon="-5.735482">
        <ele>1138.68</ele>
        <time>2021-03-27T14:03:53Z</time>
      </trkpt>
      <trkpt lat="40.368384" lon="-5.73558">
        <ele>1138.02</ele>
        <time>2021-03-27T14:03:55Z</time>
      </trkpt>
      <trkpt lat="40.368325" lon="-5.736208">
        <ele>1136.15</ele>
        <time>2021-03-27T14:03:57Z</time>
      </trkpt>
      <trkpt lat="40.368291" lon="-5.736263">
        <ele>1136.75</ele>
        <time>2021-03-27T14:03:58Z</time>
      </trkpt>
      <trkpt lat="40.368179" lon="-5.736356">
        <ele>1138.35</ele>
        <time>2021-03-27T14:04:00Z</time>
      </trkpt>
      <trkpt lat="40.367643" lon="-5.736557">
        <ele>1138.67</ele>
        <time>2021-03-27T14:04:02Z</time>
      </trkpt>
      <trkpt lat="40.367643" lon="-5.736557">
        <ele>1138.67</ele>
        <time>2021-03-27T14:04:02Z</time>
      </trkpt>
      <trkpt lat="40.367347" lon="-5.736667">
        <ele>1138.99</ele>
        <time>2021-03-27T14:04:04Z</time>
      </trkpt>
      <trkpt lat="40.36654" lon="-5.737045">
        <ele>1142.97</ele>
        <time>2021-03-27T14:04:05Z</time>
      </trkpt>
      <trkpt lat="40.366379" lon="-5.737081">
        <ele>1143.54</ele>
        <time>2021-03-27T14:04:07Z</time>
      </trkpt>
      <trkpt lat="40.366136" lon="-5.737096">
        <ele>1143.77</ele>
        <time>2021-03-27T14:04:08Z</time>
      </trkpt>
      <trkpt lat="40.365903" lon="-5.737084">
        <ele>1142.86</ele>
        <time>2021-03-27T14:04:10Z</time>
      </trkpt>
      <trkpt lat="40.365534" lon="-5.737011">
        <ele>1142.18</ele>
        <time>2021-03-27T14:04:12Z</time>
      </trkpt>
      <trkpt lat="40.365355" lon="-5.737016">
        <ele>1143.22</ele>
        <time>2021-03-27T14:04:13Z</time>
      </trkpt>
      <trkpt lat="40.365223" lon="-5.7371">
        <ele>1142.19</ele>
        <time>2021-03-27T14:04:15Z</time>
      </trkpt>
      <trkpt lat="40.365129" lon="-5.737137">
        <ele>1141.53</ele>
        <time>2021-03-27T14:04:17Z</time>
      </trkpt>
      <trkpt lat="40.364893" lon="-5.737142">
        <ele>1141.82</ele>
        <time>2021-03-27T14:04:18Z</time>
      </trkpt>
      <trkpt lat="40.364845" lon="-5.737187">
        <ele>1141.19</ele>
        <time>2021-03-27T14:04:20Z</time>
      </trkpt>
      <trkpt lat="40.3648" lon="-5.73726">
        <ele>1140.44</ele>
        <time>2021-03-27T14:04:21Z</time>
      </trkpt>
      <trkpt lat="40.364717" lon="-5.737465">
        <ele>1139.29</ele>
        <time>2021-03-27T14:04:23Z</time>
      </trkpt>
      <trkpt lat="40.364663" lon="-5.737845">
        <ele>1137.42</ele>
        <time>2021-03-27T14:04:25Z</time>
      </trkpt>
      <trkpt lat="40.364624" lon="-5.737927">
        <ele>1137.53</ele>
        <time>2021-03-27T14:04:26Z</time>
      </trkpt>
      <trkpt lat="40.364549" lon="-5.738019">
        <ele>1138.29</ele>
        <time>2021-03-27T14:04:28Z</time>
      </trkpt>
      <trkpt lat="40.364519" lon="-5.738132">
        <ele>1138.46</ele>
        <time>2021-03-27T14:04:29Z</time>
      </trkpt>
      <trkpt lat="40.364427" lon="-5.738742">
        <ele>1140.22</ele>
        <time>2021-03-27T14:04:31Z</time>
      </trkpt>
      <trkpt lat="40.364411" lon="-5.738939">
        <ele>1141.84</ele>
        <time>2021-03-27T14:04:33Z</time>
      </trkpt>
      <trkpt lat="40.364454" lon="-5.739241">
        <ele>1143.74</ele>
        <time>2021-03-27T14:04:34Z</time>
      </trkpt>
      <trkpt lat="40.364514" lon="-5.739424">
        <ele>1145.51</ele>
        <time>2021-03-27T14:04:36Z</time>
      </trkpt>
      <trkpt lat="40.364561" lon="-5.739473">
        <ele>1146.0</ele>
        <time>2021-03-27T14:04:38Z</time>
      </trkpt>
      <trkpt lat="40.364855" lon="-5.739443">
        <ele>1143.54</ele>
        <time>2021-03-27T14:04:39Z</time>
      </trkpt>
      <trkpt lat="40.364921" lon="-5.739473">
        <ele>1143.09</ele>
        <time>2021-03-27T14:04:41Z</time>
      </trkpt>
      <trkpt lat="40.36502" lon="-5.739581">
        <ele>1142.77</ele>
        <time>2021-03-27T14:04:42Z</time>
      </trkpt>
      <trkpt lat="40.365106" lon="-5.739712">
        <ele>1142.77</ele>
        <time>2021-03-27T14:04:44Z</time>
      </trkpt>
      <trkpt lat="40.36516" lon="-5.739839">
        <ele>1143.11</ele>
        <time>2021-03-27T14:04:46Z</time>
      </trkpt>
      <trkpt lat="40.365261" lon="-5.740009">
        <ele>1143.21</ele>
        <time>2021-03-27T14:04:50Z</time>
      </trkpt>
      <trkpt lat="40.36551" lon="-5.740316">
        <ele>1141.49</ele>
        <time>2021-03-27T14:04:55Z</time>
      </trkpt>
      <trkpt lat="40.365554" lon="-5.740406">
        <ele>1141.02</ele>
        <time>2021-03-27T14:04:59Z</time>
      </trkpt>
      <trkpt lat="40.365652" lon="-5.740698">
        <ele>1138.74</ele>
        <time>2021-03-27T14:05:04Z</time>
      </trkpt>
      <trkpt lat="40.365699" lon="-5.740932">
        <ele>1137.06</ele>
        <time>2021-03-27T14:05:08Z</time>
      </trkpt>
      <trkpt lat="40.365826" lon="-5.741171">
        <ele>1133.92</ele>
        <time>2021-03-27T14:05:13Z</time>
      </trkpt>
      <trkpt lat="40.366124" lon="-5.741586">
        <ele>1128.4</ele>
        <time>2021-03-27T14:05:17Z</time>
      </trkpt>
      <trkpt lat="40.366344" lon="-5.741767">
        <ele>1123.86</ele>
        <time>2021-03-27T14:05:22Z</time>
      </trkpt>
      <trkpt lat="40.366206" lon="-5.741982">
        <ele>1123.61</ele>
        <time>2021-03-27T14:05:25Z</time>
      </trkpt>
      <trkpt lat="40.366426" lon="-5.7423">
        <ele>1118.89</ele>
        <time>2021-03-27T14:05:31Z</time>
      </trkpt>
      <trkpt lat="40.3666" lon="-5.742494">
        <ele>1115.55</ele>
        <time>2021-03-27T14:05:37Z</time>
      </trkpt>
      <trkpt lat="40.366643" lon="-5.742594">
        <ele>1113.79</ele>
        <time>2021-03-27T14:05:42Z</time>
      </trkpt>
      <trkpt lat="40.36693" lon="-5.742979">
        <ele>1107.16</ele>
        <time>2021-03-27T14:05:48Z</time>
      </trkpt>
      <trkpt lat="40.367066" lon="-5.743243">
        <ele>1104.65</ele>
        <time>2021-03-27T14:05:54Z</time>
      </trkpt>
      <trkpt lat="40.367472" lon="-5.743716">
        <ele>1100.91</ele>
        <time>2021-03-27T14:06:00Z</time>
      </trkpt>
      <trkpt lat="40.36727" lon="-5.744177">
        <ele>1095.83</ele>
        <time>2021-03-27T14:06:07Z</time>
      </trkpt>
      <trkpt lat="40.367503" lon="-5.744339">
        <ele>1092.89</ele>
        <time>2021-03-27T14:06:10Z</time>
      </trkpt>
      <trkpt lat="40.367639" lon="-5.744406">
        <ele>1091.13</ele>
        <time>2021-03-27T14:06:13Z</time>
      </trkpt>
      <trkpt lat="40.367694" lon="-5.744457">
        <ele>1090.21</ele>
        <time>2021-03-27T14:06:16Z</time>
      </trkpt>
      <trkpt lat="40.367929" lon="-5.744445">
        <ele>1090.0</ele>
        <time>2021-03-27T14:06:19Z</time>
      </trkpt>
      <trkpt lat="40.368022" lon="-5.744506">
        <ele>1089.75</ele>
        <time>2021-03-27T14:06:23Z</time>
      </trkpt>
      <trkpt lat="40.368077" lon="-5.744604">
        <ele>1089.5</ele>
        <time>2021-03-27T14:06:26Z</time>
      </trkpt>
      <trkpt lat="40.3683" lon="-5.745806">
        <ele>1081.96</ele>
        <time>2021-03-27T14:06:30Z</time>
      </trkpt>
      <trkpt lat="40.368347" lon="-5.746071">
        <ele>1082.15</ele>
        <time>2021-03-27T14:06:33Z</time>
      </trkpt>
      <trkpt lat="40.368455" lon="-5.746624">
        <ele>1079.78</ele>
        <time>2021-03-27T14:06:37Z</time>
      </trkpt>
      <trkpt lat="40.368673" lon="-5.747457">
        <ele>1073.14</ele>
        <time>2021-03-27T14:06:40Z</time>
      </trkpt>
      <trkpt lat="40.368906" lon="-5.748132">
        <ele>1068.37</ele>
        <time>2021-03-27T14:06:43Z</time>
      </trkpt>
      <trkpt lat="40.369257" lon="-5.748791">
        <ele>1064.46</ele>
        <time>2021-03-27T14:06:47Z</time>
      </trkpt>
      <trkpt lat="40.369325" lon="-5.749005">
        <ele>1063.14</ele>
        <time>2021-03-27T14:06:50Z</time>
      </trkpt>
      <trkpt lat="40.369415" lon="-5.749396">
        <ele>1058.22</ele>
        <time>2021-03-27T14:06:54Z</time>
      </trkpt>
      <trkpt lat="40.369436" lon="-5.749583">
        <ele>1056.21</ele>
        <time>2021-03-27T14:06:57Z</time>
      </trkpt>
      <trkpt lat="40.369437" lon="-5.749763">
        <ele>1054.61</ele>
        <time>2021-03-27T14:07:01Z</time>
      </trkpt>
      <trkpt lat="40.369417" lon="-5.749909">
        <ele>1053.01</ele>
        <time>2021-03-27T14:07:04Z</time>
      </trkpt>
      <trkpt lat="40.369336" lon="-5.750205">
        <ele>1049.89</ele>
        <time>2021-03-27T14:07:08Z</time>
      </trkpt>
      <trkpt lat="40.369222" lon="-5.75042">
        <ele>1049.62</ele>
        <time>2021-03-27T14:07:11Z</time>
      </trkpt>
      <trkpt lat="40.368991" lon="-5.750748">
        <ele>1051.46</ele>
        <time>2021-03-27T14:07:14Z</time>
      </trkpt>
      <trkpt lat="40.368938" lon="-5.750901">
        <ele>1051.54</ele>
        <time>2021-03-27T14:07:18Z</time>
      </trkpt>
      <trkpt lat="40.368915" lon="-5.751128">
        <ele>1049.92</ele>
        <time>2021-03-27T14:07:21Z</time>
      </trkpt>
      <trkpt lat="40.368902" lon="-5.751558">
        <ele>1044.81</ele>
        <time>2021-03-27T14:07:25Z</time>
      </trkpt>
      <trkpt lat="40.368861" lon="-5.75184">
        <ele>1043.85</ele>
        <time>2021-03-27T14:07:28Z</time>
      </trkpt>
      <trkpt lat="40.368753" lon="-5.752297">
        <ele>1042.12</ele>
        <time>2021-03-27T14:07:32Z</time>
      </trkpt>
      <trkpt lat="40.36869" lon="-5.752489">
        <ele>1041.4</ele>
        <time>2021-03-27T14:07:35Z</time>
      </trkpt>
      <trkpt lat="40.368555" lon="-5.752775">
        <ele>1040.26</ele>
        <time>2021-03-27T14:07:38Z</time>
      </trkpt>
      <trkpt lat="40.368491" lon="-5.752895">
        <ele>1039.13</ele>
        <time>2021-03-27T14:07:42Z</time>
      </trkpt>
      <trkpt lat="40.368423" lon="-5.752972">
        <ele>1038.61</ele>
        <time>2021-03-27T14:07:45Z</time>
      </trkpt>
      <trkpt lat="40.36796" lon="-5.753349">
        <ele>1042.63</ele>
        <time>2021-03-27T14:07:49Z</time>
      </trkpt>
      <trkpt lat="40.367902" lon="-5.753426">
        <ele>1043.74</ele>
        <time>2021-03-27T14:07:52Z</time>
      </trkpt>
      <trkpt lat="40.367861" lon="-5.753523">
        <ele>1044.23</ele>
        <time>2021-03-27T14:07:56Z</time>
      </trkpt>
      <trkpt lat="40.367811" lon="-5.753747">
        <ele>1044.42</ele>
        <time>2021-03-27T14:07:59Z</time>
      </trkpt>
      <trkpt lat="40.367829" lon="-5.753972">
        <ele>1042.81</ele>
        <time>2021-03-27T14:08:03Z</time>
      </trkpt>
      <trkpt lat="40.367863" lon="-5.754066">
        <ele>1041.09</ele>
        <time>2021-03-27T14:08:06Z</time>
      </trkpt>
      <trkpt lat="40.367927" lon="-5.754143">
        <ele>1038.21</ele>
        <time>2021-03-27T14:08:09Z</time>
      </trkpt>
      <trkpt lat="40.368003" lon="-5.754203">
        <ele>1034.57</ele>
        <time>2021-03-27T14:08:13Z</time>
      </trkpt>
      <trkpt lat="40.368073" lon="-5.754221">
        <ele>1031.72</ele>
        <time>2021-03-27T14:08:16Z</time>
      </trkpt>
      <trkpt lat="40.368156" lon="-5.7542">
        <ele>1029.68</ele>
        <time>2021-03-27T14:08:20Z</time>
      </trkpt>
      <trkpt lat="40.368255" lon="-5.754124">
        <ele>1027.66</ele>
        <time>2021-03-27T14:08:23Z</time>
      </trkpt>
      <trkpt lat="40.368322" lon="-5.754043">
        <ele>1026.64</ele>
        <time>2021-03-27T14:08:27Z</time>
      </trkpt>
      <trkpt lat="40.368623" lon="-5.753561">
        <ele>1023.61</ele>
        <time>2021-03-27T14:08:30Z</time>
      </trkpt>
      <trkpt lat="40.369049" lon="-5.752913">
        <ele>1023.43</ele>
        <time>2021-03-27T14:08:34Z</time>
      </trkpt>
      <trkpt lat="40.36978" lon="-5.751943">
        <ele>1017.56</ele>
        <time>2021-03-27T14:08:37Z</time>
      </trkpt>
      <trkpt lat="40.370023" lon="-5.751662">
        <ele>1015.33</ele>
        <time>2021-03-27T14:08:40Z</time>
      </trkpt>
      <trkpt lat="40.370108" lon="-5.751611">
        <ele>1013.12</ele>
        <time>2021-03-27T14:08:44Z</time>
      </trkpt>
      <trkpt lat="40.370195" lon="-5.751599">
        <ele>1010.9</ele>
        <time>2021-03-27T14:08:47Z</time>
      </trkpt>
      <trkpt lat="40.370284" lon="-5.751611">
        <ele>1008.5</ele>
        <time>2021-03-27T14:08:51Z</time>
      </trkpt>
      <trkpt lat="40.371023" lon="-5.752">
        <ele>1006.63</ele>
        <time>2021-03-27T14:08:54Z</time>
      </trkpt>
      <trkpt lat="40.371095" lon="-5.752009">
        <ele>1007.35</ele>
        <time>2021-03-27T14:08:58Z</time>
      </trkpt>
      <trkpt lat="40.371193" lon="-5.751982">
        <ele>1009.9</ele>
        <time>2021-03-27T14:09:01Z</time>
      </trkpt>
      <trkpt lat="40.371338" lon="-5.751863">
        <ele>1012.57</ele>
        <time>2021-03-27T14:09:05Z</time>
      </trkpt>
      <trkpt lat="40.372163" lon="-5.751">
        <ele>1017.52</ele>
        <time>2021-03-27T14:09:08Z</time>
      </trkpt>
      <trkpt lat="40.372415" lon="-5.75076">
        <ele>1017.02</ele>
        <time>2021-03-27T14:09:11Z</time>
      </trkpt>
      <trkpt lat="40.372662" lon="-5.750564">
        <ele>1015.96</ele>
        <time>2021-03-27T14:09:14Z</time>
      </trkpt>
      <trkpt lat="40.372883" lon="-5.75042">
        <ele>1014.53</ele>
        <time>2021-03-27T14:09:17Z</time>
      </trkpt>
      <trkpt lat="40.373141" lon="-5.750286">
        <ele>1014.43</ele>
        <time>2021-03-27T14:09:19Z</time>
      </trkpt>
      <trkpt lat="40.37334" lon="-5.750207">
        <ele>1014.71</ele>
        <time>2021-03-27T14:09:22Z</time>
      </trkpt>
      <trkpt lat="40.373569" lon="-5.750152">
        <ele>1012.54</ele>
        <time>2021-03-27T14:09:25Z</time>
      </trkpt>
      <trkpt lat="40.374608" lon="-5.749975">
        <ele>1007.49</ele>
        <time>2021-03-27T14:09:28Z</time>
      </trkpt>
      <trkpt lat="40.374717" lon="-5.749988">
        <ele>1006.7</ele>
        <time>2021-03-27T14:09:31Z</time>
      </trkpt>
      <trkpt lat="40.374823" lon="-5.750024">
        <ele>1005.19</ele>
        <time>2021-03-27T14:09:34Z</time>
      </trkpt>
      <trkpt lat="40.375286" lon="-5.750454">
        <ele>1006.86</ele>
        <time>2021-03-27T14:09:37Z</time>
      </trkpt>
      <trkpt lat="40.375508" lon="-5.750606">
        <ele>1010.3</ele>
        <time>2021-03-27T14:09:39Z</time>
      </trkpt>
      <trkpt lat="40.375618" lon="-5.750632">
        <ele>1012.21</ele>
        <time>2021-03-27T14:09:42Z</time>
      </trkpt>
      <trkpt lat="40.375802" lon="-5.750609">
        <ele>1014.16</ele>
        <time>2021-03-27T14:09:45Z</time>
      </trkpt>
      <trkpt lat="40.376144" lon="-5.750393">
        <ele>1006.78</ele>
        <time>2021-03-27T14:09:48Z</time>
      </trkpt>
      <trkpt lat="40.376639" lon="-5.750145">
        <ele>1009.29</ele>
        <time>2021-03-27T14:09:51Z</time>
      </trkpt>
      <trkpt lat="40.376756" lon="-5.750037">
        <ele>1008.56</ele>
        <time>2021-03-27T14:09:54Z</time>
      </trkpt>
      <trkpt lat="40.377098" lon="-5.749504">
        <ele>1008.59</ele>
        <time>2021-03-27T14:09:57Z</time>
      </trkpt>
      <trkpt lat="40.377181" lon="-5.749309">
        <ele>1006.48</ele>
        <time>2021-03-27T14:09:59Z</time>
      </trkpt>
      <trkpt lat="40.377369" lon="-5.748763">
        <ele>1000.46</ele>
        <time>2021-03-27T14:10:02Z</time>
      </trkpt>
      <trkpt lat="40.377442" lon="-5.748653">
        <ele>1002.29</ele>
        <time>2021-03-27T14:10:05Z</time>
      </trkpt>
      <trkpt lat="40.377652" lon="-5.748376">
        <ele>1003.98</ele>
        <time>2021-03-27T14:10:08Z</time>
      </trkpt>
      <trkpt lat="40.377814" lon="-5.748204">
        <ele>1002.76</ele>
        <time>2021-03-27T14:10:11Z</time>
      </trkpt>
      <trkpt lat="40.378241" lon="-5.747905">
        <ele>1002.03</ele>
        <time>2021-03-27T14:10:14Z</time>
      </trkpt>
      <trkpt lat="40.378333" lon="-5.747862">
        <ele>1003.33</ele>
        <time>2021-03-27T14:10:17Z</time>
      </trkpt>
      <trkpt lat="40.378421" lon="-5.74785">
        <ele>1002.55</ele>
        <time>2021-03-27T14:10:19Z</time>
      </trkpt>
      <trkpt lat="40.378511" lon="-5.747865">
        <ele>1002.83</ele>
        <time>2021-03-27T14:10:22Z</time>
      </trkpt>
      <trkpt lat="40.378594" lon="-5.747914">
        <ele>1004.46</ele>
        <time>2021-03-27T14:10:25Z</time>
      </trkpt>
      <trkpt lat="40.379486" lon="-5.748562">
        <ele>1003.74</ele>
        <time>2021-03-27T14:10:28Z</time>
      </trkpt>
      <trkpt lat="40.37968" lon="-5.748631">
        <ele>1002.33</ele>
        <time>2021-03-27T14:10:31Z</time>
      </trkpt>
      <trkpt lat="40.380007" lon="-5.748641">
        <ele>1001.45</ele>
        <time>2021-03-27T14:10:34Z</time>
      </trkpt>
      <trkpt lat="40.380095" lon="-5.748671">
        <ele>999.75</ele>
        <time>2021-03-27T14:10:36Z</time>
      </trkpt>
      <trkpt lat="40.380197" lon="-5.748766">
        <ele>998.6</ele>
        <time>2021-03-27T14:10:39Z</time>
      </trkpt>
      <trkpt lat="40.380271" lon="-5.748926">
        <ele>998.63</ele>
        <time>2021-03-27T14:10:42Z</time>
      </trkpt>
      <trkpt lat="40.380428" lon="-5.749668">
        <ele>994.4</ele>
        <time>2021-03-27T14:10:45Z</time>
      </trkpt>
      <trkpt lat="40.380474" lon="-5.750128">
        <ele>996.43</ele>
        <time>2021-03-27T14:10:48Z</time>
      </trkpt>
      <trkpt lat="40.380501" lon="-5.750239">
        <ele>995.39</ele>
        <time>2021-03-27T14:10:51Z</time>
      </trkpt>
      <trkpt lat="40.380582" lon="-5.750416">
        <ele>992.54</ele>
        <time>2021-03-27T14:10:54Z</time>
      </trkpt>
      <trkpt lat="40.380841" lon="-5.750858">
        <ele>983.09</ele>
        <time>2021-03-27T14:10:56Z</time>
      </trkpt>
      <trkpt lat="40.38093" lon="-5.751044">
        <ele>982.27</ele>
        <time>2021-03-27T14:10:59Z</time>
      </trkpt>
      <trkpt lat="40.381" lon="-5.751251">
        <ele>982.53</ele>
        <time>2021-03-27T14:11:02Z</time>
      </trkpt>
      <trkpt lat="40.38115" lon="-5.751817">
        <ele>982.54</ele>
        <time>2021-03-27T14:11:05Z</time>
      </trkpt>
      <trkpt lat="40.381574" lon="-5.75247">
        <ele>970.21</ele>
        <time>2021-03-27T14:11:08Z</time>
      </trkpt>
      <trkpt lat="40.381649" lon="-5.752607">
        <ele>967.7</ele>
        <time>2021-03-27T14:11:11Z</time>
      </trkpt>
      <trkpt lat="40.381708" lon="-5.752745">
        <ele>965.65</ele>
        <time>2021-03-27T14:11:14Z</time>
      </trkpt>
      <trkpt lat="40.381861" lon="-5.75323">
        <ele>966.22</ele>
        <time>2021-03-27T14:11:16Z</time>
      </trkpt>
      <trkpt lat="40.382462" lon="-5.754613">
        <ele>952.99</ele>
        <time>2021-03-27T14:11:19Z</time>
      </trkpt>
      <trkpt lat="40.382569" lon="-5.754814">
        <ele>952.74</ele>
        <time>2021-03-27T14:11:22Z</time>
      </trkpt>
      <trkpt lat="40.382656" lon="-5.754938">
        <ele>951.78</ele>
        <time>2021-03-27T14:11:25Z</time>
      </trkpt>
      <trkpt lat="40.382736" lon="-5.755022">
        <ele>950.13</ele>
        <time>2021-03-27T14:11:28Z</time>
      </trkpt>
      <trkpt lat="40.383469" lon="-5.755634">
        <ele>939.58</ele>
        <time>2021-03-27T14:11:31Z</time>
      </trkpt>
      <trkpt lat="40.383564" lon="-5.755781">
        <ele>937.18</ele>
        <time>2021-03-27T14:11:34Z</time>
      </trkpt>
      <trkpt lat="40.38361" lon="-5.755998">
        <ele>936.6</ele>
        <time>2021-03-27T14:11:36Z</time>
      </trkpt>
      <trkpt lat="40.383657" lon="-5.756501">
        <ele>934.93</ele>
        <time>2021-03-27T14:11:39Z</time>
      </trkpt>
      <trkpt lat="40.383643" lon="-5.757241">
        <ele>939.86</ele>
        <time>2021-03-27T14:11:42Z</time>
      </trkpt>
      <trkpt lat="40.383693" lon="-5.757538">
        <ele>939.98</ele>
        <time>2021-03-27T14:11:45Z</time>
      </trkpt>
      <trkpt lat="40.383808" lon="-5.757838">
        <ele>938.73</ele>
        <time>2021-03-27T14:11:48Z</time>
      </trkpt>
      <trkpt lat="40.38394" lon="-5.75804">
        <ele>937.47</ele>
        <time>2021-03-27T14:11:51Z</time>
      </trkpt>
      <trkpt lat="40.38431" lon="-5.758365">
        <ele>931.26</ele>
        <time>2021-03-27T14:11:53Z</time>
      </trkpt>
      <trkpt lat="40.384407" lon="-5.758479">
        <ele>930.1</ele>
        <time>2021-03-27T14:11:56Z</time>
      </trkpt>
      <trkpt lat="40.38453" lon="-5.758603">
        <ele>928.43</ele>
        <time>2021-03-27T14:11:59Z</time>
      </trkpt>
      <trkpt lat="40.385704" lon="-5.759995">
        <ele>924.89</ele>
        <time>2021-03-27T14:12:02Z</time>
      </trkpt>
      <trkpt lat="40.385905" lon="-5.760118">
        <ele>925.19</ele>
        <time>2021-03-27T14:12:05Z</time>
      </trkpt>
      <trkpt lat="40.386099" lon="-5.760118">
        <ele>923.79</ele>
        <time>2021-03-27T14:12:08Z</time>
      </trkpt>
      <trkpt lat="40.386273" lon="-5.760043">
        <ele>921.36</ele>
        <time>2021-03-27T14:12:11Z</time>
      </trkpt>
      <trkpt lat="40.386967" lon="-5.759654">
        <ele>922.78</ele>
        <time>2021-03-27T14:12:13Z</time>
      </trkpt>
      <trkpt lat="40.386992" lon="-5.759793">
        <ele>922.69</ele>
        <time>2021-03-27T14:12:17Z</time>
      </trkpt>
      <trkpt lat="40.387158" lon="-5.76037">
        <ele>920.38</ele>
        <time>2021-03-27T14:12:20Z</time>
      </trkpt>
      <trkpt lat="40.387248" lon="-5.760509">
        <ele>919.62</ele>
        <time>2021-03-27T14:12:23Z</time>
      </trkpt>
      <trkpt lat="40.387408" lon="-5.76062">
        <ele>919.05</ele>
        <time>2021-03-27T14:12:26Z</time>
      </trkpt>
      <trkpt lat="40.388052" lon="-5.760901">
        <ele>917.77</ele>
        <time>2021-03-27T14:12:29Z</time>
      </trkpt>
      <trkpt lat="40.388168" lon="-5.760984">
        <ele>916.33</ele>
        <time>2021-03-27T14:12:32Z</time>
      </trkpt>
      <trkpt lat="40.388387" lon="-5.761183">
        <ele>914.61</ele>
        <time>2021-03-27T14:12:35Z</time>
      </trkpt>
      <trkpt lat="40.389037" lon="-5.761917">
        <ele>907.82</ele>
        <time>2021-03-27T14:12:38Z</time>
      </trkpt>
      <trkpt lat="40.389193" lon="-5.762171">
        <ele>907.34</ele>
        <time>2021-03-27T14:12:41Z</time>
      </trkpt>
      <trkpt lat="40.38938" lon="-5.762542">
        <ele>904.46</ele>
        <time>2021-03-27T14:12:44Z</time>
      </trkpt>
      <trkpt lat="40.389509" lon="-5.762613">
        <ele>903.36</ele>
        <time>2021-03-27T14:12:47Z</time>
      </trkpt>
      <trkpt lat="40.389842" lon="-5.762644">
        <ele>903.76</ele>
        <time>2021-03-27T14:12:50Z</time>
      </trkpt>
      <trkpt lat="40.38988" lon="-5.762667">
        <ele>903.81</ele>
        <time>2021-03-27T14:12:53Z</time>
      </trkpt>
      <trkpt lat="40.389922" lon="-5.762771">
        <ele>904.35</ele>
        <time>2021-03-27T14:12:56Z</time>
      </trkpt>
      <trkpt lat="40.389897" lon="-5.766181">
        <ele>891.55</ele>
        <time>2021-03-27T14:12:59Z</time>
      </trkpt>
      <trkpt lat="40.389865" lon="-5.76649">
        <ele>892.02</ele>
        <time>2021-03-27T14:13:02Z</time>
      </trkpt>
      <trkpt lat="40.389761" lon="-5.76702">
        <ele>892.56</ele>
        <time>2021-03-27T14:13:05Z</time>
      </trkpt>
      <trkpt lat="40.389765" lon="-5.767183">
        <ele>893.37</ele>
        <time>2021-03-27T14:13:08Z</time>
      </trkpt>
      <trkpt lat="40.390071" lon="-5.768817">
        <ele>897.11</ele>
        <time>2021-03-27T14:13:11Z</time>
      </trkpt>
      <trkpt lat="40.390192" lon="-5.769973">
        <ele>895.14</ele>
        <time>2021-03-27T14:13:14Z</time>
      </trkpt>
      <trkpt lat="40.390227" lon="-5.770167">
        <ele>894.95</ele>
        <time>2021-03-27T14:13:17Z</time>
      </trkpt>
      <trkpt lat="40.390298" lon="-5.770427">
        <ele>894.42</ele>
        <time>2021-03-27T14:13:20Z</time>
      </trkpt>
      <trkpt lat="40.39058" lon="-5.770991">
        <ele>900.74</ele>
        <time>2021-03-27T14:13:23Z</time>
      </trkpt>
      <trkpt lat="40.390613" lon="-5.771095">
        <ele>902.64</ele>
        <time>2021-03-27T14:13:26Z</time>
      </trkpt>
      <trkpt lat="40.390623" lon="-5.771233">
        <ele>904.25</ele>
        <time>2021-03-27T14:13:29Z</time>
      </trkpt>
      <trkpt lat="40.390613" lon="-5.771374">
        <ele>905.15</ele>
        <time>2021-03-27T14:13:32Z</time>
      </trkpt>
      <trkpt lat="40.390444" lon="-5.772163">
        <ele>907.07</ele>
        <time>2021-03-27T14:13:35Z</time>
      </trkpt>
      <trkpt lat="40.390425" lon="-5.772576">
        <ele>906.64</ele>
        <time>2021-03-27T14:13:38Z</time>
      </trkpt>
      <trkpt lat="40.390538" lon="-5.773506">
        <ele>908.68</ele>
        <time>2021-03-27T14:13:41Z</time>
      </trkpt>
      <trkpt lat="40.390598" lon="-5.773725">
        <ele>910.17</ele>
        <time>2021-03-27T14:13:44Z</time>
      </trkpt>
      <trkpt lat="40.390981" lon="-5.774885">
        <ele>913.14</ele>
        <time>2021-03-27T14:13:47Z</time>
      </trkpt>
      <trkpt lat="40.391033" lon="-5.775105">
        <ele>913.3</ele>
        <time>2021-03-27T14:13:50Z</time>
      </trkpt>
      <trkpt lat="40.391058" lon="-5.775291">
        <ele>912.6</ele>
        <time>2021-03-27T14:13:53Z</time>
      </trkpt>
      <trkpt lat="40.391054" lon="-5.775495">
        <ele>910.96</ele>
        <time>2021-03-27T14:13:56Z</time>
      </trkpt>
      <trkpt lat="40.390971" lon="-5.776538">
        <ele>914.44</ele>
        <time>2021-03-27T14:13:59Z</time>
      </trkpt>
      <trkpt lat="40.390962" lon="-5.77673">
        <ele>913.62</ele>
        <time>2021-03-27T14:14:03Z</time>
      </trkpt>
      <trkpt lat="40.390971" lon="-5.776957">
        <ele>913.39</ele>
        <time>2021-03-27T14:14:06Z</time>
      </trkpt>
      <trkpt lat="40.39101" lon="-5.777206">
        <ele>915.11</ele>
        <time>2021-03-27T14:14:09Z</time>
      </trkpt>
      <trkpt lat="40.391121" lon="-5.777666">
        <ele>920.38</ele>
        <time>2021-03-27T14:14:12Z</time>
      </trkpt>
      <trkpt lat="40.391531" lon="-5.779988">
        <ele>933.46</ele>
        <time>2021-03-27T14:14:15Z</time>
      </trkpt>
      <trkpt lat="40.391543" lon="-5.780134">
        <ele>935.38</ele>
        <time>2021-03-27T14:14:18Z</time>
      </trkpt>
      <trkpt lat="40.391498" lon="-5.780459">
        <ele>936.02</ele>
        <time>2021-03-27T14:14:21Z</time>
      </trkpt>
      <trkpt lat="40.391404" lon="-5.780821">
        <ele>933.44</ele>
        <time>2021-03-27T14:14:24Z</time>
      </trkpt>
      <trkpt lat="40.391392" lon="-5.780934">
        <ele>932.02</ele>
        <time>2021-03-27T14:14:27Z</time>
      </trkpt>
      <trkpt lat="40.391404" lon="-5.781131">
        <ele>930.35</ele>
        <time>2021-03-27T14:14:30Z</time>
      </trkpt>
      <trkpt lat="40.391466" lon="-5.781417">
        <ele>930.44</ele>
        <time>2021-03-27T14:14:33Z</time>
      </trkpt>
      <trkpt lat="40.391552" lon="-5.781702">
        <ele>933.28</ele>
        <time>2021-03-27T14:14:36Z</time>
      </trkpt>
      <trkpt lat="40.391698" lon="-5.782041">
        <ele>936.03</ele>
        <time>2021-03-27T14:14:39Z</time>
      </trkpt>
      <trkpt lat="40.391806" lon="-5.782145">
        <ele>936.35</ele>
        <time>2021-03-27T14:14:42Z</time>
      </trkpt>
      <trkpt lat="40.394871" lon="-5.78356">
        <ele>938.74</ele>
        <time>2021-03-27T14:14:45Z</time>
      </trkpt>
      <trkpt lat="40.39943" lon="-5.785651">
        <ele>932.57</ele>
        <time>2021-03-27T14:14:48Z</time>
      </trkpt>
      <trkpt lat="40.400269" lon="-5.786035">
        <ele>937.94</ele>
        <time>2021-03-27T14:14:51Z</time>
      </trkpt>
      <trkpt lat="40.400439" lon="-5.786136">
        <ele>937.91</ele>
        <time>2021-03-27T14:14:54Z</time>
      </trkpt>
      <trkpt lat="40.401584" lon="-5.787112">
        <ele>936.57</ele>
        <time>2021-03-27T14:14:57Z</time>
      </trkpt>
      <trkpt lat="40.401709" lon="-5.787271">
        <ele>935.33</ele>
        <time>2021-03-27T14:15:00Z</time>
      </trkpt>
      <trkpt lat="40.401779" lon="-5.787438">
        <ele>936.18</ele>
        <time>2021-03-27T14:15:03Z</time>
      </trkpt>
      <trkpt lat="40.40184" lon="-5.787676">
        <ele>936.63</ele>
        <time>2021-03-27T14:15:06Z</time>
      </trkpt>
      <trkpt lat="40.40187" lon="-5.7879">
        <ele>936.73</ele>
        <time>2021-03-27T14:15:09Z</time>
      </trkpt>
      <trkpt lat="40.401873" lon="-5.788121">
        <ele>936.8</ele>
        <time>2021-03-27T14:15:12Z</time>
      </trkpt>
      <trkpt lat="40.401843" lon="-5.788349">
        <ele>937.04</ele>
        <time>2021-03-27T14:15:15Z</time>
      </trkpt>
      <trkpt lat="40.401581" lon="-5.789471">
        <ele>933.47</ele>
        <time>2021-03-27T14:15:18Z</time>
      </trkpt>
      <trkpt lat="40.40154" lon="-5.789837">
        <ele>930.49</ele>
        <time>2021-03-27T14:15:21Z</time>
      </trkpt>
      <trkpt lat="40.401551" lon="-5.789996">
        <ele>929.77</ele>
        <time>2021-03-27T14:15:24Z</time>
      </trkpt>
      <trkpt lat="40.401857" lon="-5.791723">
        <ele>931.57</ele>
        <time>2021-03-27T14:15:27Z</time>
      </trkpt>
      <trkpt lat="40.401933" lon="-5.792112">
        <ele>932.94</ele>
        <time>2021-03-27T14:15:30Z</time>
      </trkpt>
      <trkpt lat="40.402008" lon="-5.792316">
        <ele>933.3</ele>
        <time>2021-03-27T14:15:33Z</time>
      </trkpt>
      <trkpt lat="40.402158" lon="-5.792673">
        <ele>935.36</ele>
        <time>2021-03-27T14:15:36Z</time>
      </trkpt>
      <trkpt lat="40.402503" lon="-5.793311">
        <ele>936.19</ele>
        <time>2021-03-27T14:15:39Z</time>
      </trkpt>
      <trkpt lat="40.40268" lon="-5.793589">
        <ele>936.71</ele>
        <time>2021-03-27T14:15:42Z</time>
      </trkpt>
      <trkpt lat="40.402932" lon="-5.79387">
        <ele>938.18</ele>
        <time>2021-03-27T14:15:46Z</time>
      </trkpt>
      <trkpt lat="40.403143" lon="-5.794063">
        <ele>938.37</ele>
        <time>2021-03-27T14:15:49Z</time>
      </trkpt>
      <trkpt lat="40.403292" lon="-5.794162">
        <ele>938.73</ele>
        <time>2021-03-27T14:15:52Z</time>
      </trkpt>
      <trkpt lat="40.403469" lon="-5.794247">
        <ele>937.78</ele>
        <time>2021-03-27T14:15:55Z</time>
      </trkpt>
      <trkpt lat="40.404401" lon="-5.794583">
        <ele>933.27</ele>
        <time>2021-03-27T14:15:58Z</time>
      </trkpt>
      <trkpt lat="40.404538" lon="-5.794661">
        <ele>934.23</ele>
        <time>2021-03-27T14:16:01Z</time>
      </trkpt>
      <trkpt lat="40.404644" lon="-5.794792">
        <ele>934.72</ele>
        <time>2021-03-27T14:16:04Z</time>
      </trkpt>
      <trkpt lat="40.404702" lon="-5.794905">
        <ele>934.51</ele>
        <time>2021-03-27T14:16:07Z</time>
      </trkpt>
      <trkpt lat="40.404767" lon="-5.795098">
        <ele>933.78</ele>
        <time>2021-03-27T14:16:10Z</time>
      </trkpt>
      <trkpt lat="40.405118" lon="-5.796585">
        <ele>932.14</ele>
        <time>2021-03-27T14:16:13Z</time>
      </trkpt>
      <trkpt lat="40.405199" lon="-5.796805">
        <ele>932.07</ele>
        <time>2021-03-27T14:16:16Z</time>
      </trkpt>
      <trkpt lat="40.406663" lon="-5.79986">
        <ele>925.96</ele>
        <time>2021-03-27T14:16:19Z</time>
      </trkpt>
      <trkpt lat="40.406799" lon="-5.800095">
        <ele>926.43</ele>
        <time>2021-03-27T14:16:22Z</time>
      </trkpt>
      <trkpt lat="40.406969" lon="-5.800319">
        <ele>927.02</ele>
        <time>2021-03-27T14:16:25Z</time>
      </trkpt>
      <trkpt lat="40.407038" lon="-5.800383">
        <ele>927.17</ele>
        <time>2021-03-27T14:16:28Z</time>
      </trkpt>
      <trkpt lat="40.407213" lon="-5.800529">
        <ele>927.16</ele>
        <time>2021-03-27T14:16:31Z</time>
      </trkpt>
      <trkpt lat="40.407452" lon="-5.800651">
        <ele>926.17</ele>
        <time>2021-03-27T14:16:34Z</time>
      </trkpt>
      <trkpt lat="40.407669" lon="-5.800705">
        <ele>925.39</ele>
        <time>2021-03-27T14:16:37Z</time>
      </trkpt>
      <trkpt lat="40.407941" lon="-5.800739">
        <ele>925.59</ele>
        <time>2021-03-27T14:16:40Z</time>
      </trkpt>
      <trkpt lat="40.408475" lon="-5.800759">
        <ele>923.71</ele>
        <time>2021-03-27T14:16:43Z</time>
      </trkpt>
      <trkpt lat="40.408643" lon="-5.800804">
        <ele>922.68</ele>
        <time>2021-03-27T14:16:46Z</time>
      </trkpt>
      <trkpt lat="40.408919" lon="-5.800915">
        <ele>921.18</ele>
        <time>2021-03-27T14:16:49Z</time>
      </trkpt>
      <trkpt lat="40.409194" lon="-5.801059">
        <ele>920.5</ele>
        <time>2021-03-27T14:16:52Z</time>
      </trkpt>
      <trkpt lat="40.409273" lon="-5.801144">
        <ele>919.8</ele>
        <time>2021-03-27T14:16:55Z</time>
      </trkpt>
      <trkpt lat="40.409343" lon="-5.801255">
        <ele>918.77</ele>
        <time>2021-03-27T14:16:58Z</time>
      </trkpt>
      <trkpt lat="40.409382" lon="-5.801415">
        <ele>917.88</ele>
        <time>2021-03-27T14:17:01Z</time>
      </trkpt>
      <trkpt lat="40.409384" lon="-5.801677">
        <ele>917.61</ele>
        <time>2021-03-27T14:17:04Z</time>
      </trkpt>
      <trkpt lat="40.409107" lon="-5.804431">
        <ele>905.86</ele>
        <time>2021-03-27T14:17:07Z</time>
      </trkpt>
      <trkpt lat="40.409064" lon="-5.80472">
        <ele>904.86</ele>
        <time>2021-03-27T14:17:10Z</time>
      </trkpt>
      <trkpt lat="40.409001" lon="-5.804919">
        <ele>903.14</ele>
        <time>2021-03-27T14:17:13Z</time>
      </trkpt>
      <trkpt lat="40.4089" lon="-5.805075">
        <ele>902.18</ele>
        <time>2021-03-27T14:17:16Z</time>
      </trkpt>
      <trkpt lat="40.408682" lon="-5.805197">
        <ele>901.55</ele>
        <time>2021-03-27T14:17:19Z</time>
      </trkpt>
      <trkpt lat="40.407976" lon="-5.805435">
        <ele>903.73</ele>
        <time>2021-03-27T14:17:22Z</time>
      </trkpt>
      <trkpt lat="40.407861" lon="-5.805534">
        <ele>904.25</ele>
        <time>2021-03-27T14:17:25Z</time>
      </trkpt>
      <trkpt lat="40.407818" lon="-5.8056">
        <ele>904.36</ele>
        <time>2021-03-27T14:17:28Z</time>
      </trkpt>
      <trkpt lat="40.407773" lon="-5.80573">
        <ele>904.48</ele>
        <time>2021-03-27T14:17:32Z</time>
      </trkpt>
      <trkpt lat="40.407762" lon="-5.805863">
        <ele>904.3</ele>
        <time>2021-03-27T14:17:35Z</time>
      </trkpt>
      <trkpt lat="40.407857" lon="-5.806309">
        <ele>900.17</ele>
        <time>2021-03-27T14:17:38Z</time>
      </trkpt>
      <trkpt lat="40.407895" lon="-5.806631">
        <ele>899.48</ele>
        <time>2021-03-27T14:17:41Z</time>
      </trkpt>
      <trkpt lat="40.407754" lon="-5.808523">
        <ele>891.09</ele>
        <time>2021-03-27T14:17:44Z</time>
      </trkpt>
      <trkpt lat="40.407717" lon="-5.808742">
        <ele>890.16</ele>
        <time>2021-03-27T14:17:47Z</time>
      </trkpt>
      <trkpt lat="40.407637" lon="-5.808921">
        <ele>890.02</ele>
        <time>2021-03-27T14:17:50Z</time>
      </trkpt>
      <trkpt lat="40.407519" lon="-5.809119">
        <ele>888.58</ele>
        <time>2021-03-27T14:17:53Z</time>
      </trkpt>
      <trkpt lat="40.405909" lon="-5.811606">
        <ele>884.28</ele>
        <time>2021-03-27T14:17:56Z</time>
      </trkpt>
      <trkpt lat="40.405814" lon="-5.811839">
        <ele>883.9</ele>
        <time>2021-03-27T14:17:59Z</time>
      </trkpt>
      <trkpt lat="40.405823" lon="-5.811972">
        <ele>882.68</ele>
        <time>2021-03-27T14:18:02Z</time>
      </trkpt>
      <trkpt lat="40.405855" lon="-5.812071">
        <ele>881.01</ele>
        <time>2021-03-27T14:18:05Z</time>
      </trkpt>
      <trkpt lat="40.405911" lon="-5.812141">
        <ele>879.72</ele>
        <time>2021-03-27T14:18:08Z</time>
      </trkpt>
      <trkpt lat="40.405985" lon="-5.812173">
        <ele>878.97</ele>
        <time>2021-03-27T14:18:11Z</time>
      </trkpt>
      <trkpt lat="40.406082" lon="-5.812176">
        <ele>878.47</ele>
        <time>2021-03-27T14:18:14Z</time>
      </trkpt>
      <trkpt lat="40.406213" lon="-5.812097">
        <ele>877.59</ele>
        <time>2021-03-27T14:18:17Z</time>
      </trkpt>
      <trkpt lat="40.406893" lon="-5.811474">
        <ele>871.13</ele>
        <time>2021-03-27T14:18:20Z</time>
      </trkpt>
      <trkpt lat="40.407015" lon="-5.811286">
        <ele>871.16</ele>
        <time>2021-03-27T14:18:23Z</time>
      </trkpt>
      <trkpt lat="40.407332" lon="-5.810618">
        <ele>870.97</ele>
        <time>2021-03-27T14:18:26Z</time>
      </trkpt>
      <trkpt lat="40.407442" lon="-5.810475">
        <ele>870.47</ele>
        <time>2021-03-27T14:18:29Z</time>
      </trkpt>
      <trkpt lat="40.407561" lon="-5.810358">
        <ele>869.69</ele>
        <time>2021-03-27T14:18:32Z</time>
      </trkpt>
      <trkpt lat="40.408106" lon="-5.809955">
        <ele>867.86</ele>
        <time>2021-03-27T14:18:35Z</time>
      </trkpt>
      <trkpt lat="40.408308" lon="-5.809876">
        <ele>865.33</ele>
        <time>2021-03-27T14:18:38Z</time>
      </trkpt>
      <trkpt lat="40.409581" lon="-5.809569">
        <ele>859.55</ele>
        <time>2021-03-27T14:18:41Z</time>
      </trkpt>
      <trkpt lat="40.409731" lon="-5.809508">
        <ele>859.71</ele>
        <time>2021-03-27T14:18:44Z</time>
      </trkpt>
      <trkpt lat="40.409891" lon="-5.809357">
        <ele>858.72</ele>
        <time>2021-03-27T14:18:47Z</time>
      </trkpt>
      <trkpt lat="40.409962" lon="-5.809233">
        <ele>857.71</ele>
        <time>2021-03-27T14:18:50Z</time>
      </trkpt>
      <trkpt lat="40.410077" lon="-5.80885">
        <ele>854.03</ele>
        <time>2021-03-27T14:18:53Z</time>
      </trkpt>
      <trkpt lat="40.410204" lon="-5.808132">
        <ele>850.38</ele>
        <time>2021-03-27T14:18:56Z</time>
      </trkpt>
      <trkpt lat="40.410363" lon="-5.807635">
        <ele>851.23</ele>
        <time>2021-03-27T14:18:59Z</time>
      </trkpt>
      <trkpt lat="40.410472" lon="-5.807435">
        <ele>850.74</ele>
        <time>2021-03-27T14:19:02Z</time>
      </trkpt>
      <trkpt lat="40.410979" lon="-5.806686">
        <ele>845.6</ele>
        <time>2021-03-27T14:19:05Z</time>
      </trkpt>
      <trkpt lat="40.411588" lon="-5.80594">
        <ele>844.54</ele>
        <time>2021-03-27T14:19:08Z</time>
      </trkpt>
      <trkpt lat="40.411779" lon="-5.805593">
        <ele>843.47</ele>
        <time>2021-03-27T14:19:11Z</time>
      </trkpt>
      <trkpt lat="40.411895" lon="-5.80522">
        <ele>841.67</ele>
        <time>2021-03-27T14:19:15Z</time>
      </trkpt>
      <trkpt lat="40.411932" lon="-5.804992">
        <ele>840.49</ele>
        <time>2021-03-27T14:19:18Z</time>
      </trkpt>
      <trkpt lat="40.411951" lon="-5.804678">
        <ele>839.6</ele>
        <time>2021-03-27T14:19:21Z</time>
      </trkpt>
      <trkpt lat="40.411963" lon="-5.803838">
        <ele>837.51</ele>
        <time>2021-03-27T14:19:24Z</time>
      </trkpt>
      <trkpt lat="40.411979" lon="-5.803628">
        <ele>837.35</ele>
        <time>2021-03-27T14:19:27Z</time>
      </trkpt>
      <trkpt lat="40.412012" lon="-5.803464">
        <ele>839.45</ele>
        <time>2021-03-27T14:19:30Z</time>
      </trkpt>
      <trkpt lat="40.41205" lon="-5.803353">
        <ele>840.23</ele>
        <time>2021-03-27T14:19:33Z</time>
      </trkpt>
      <trkpt lat="40.412102" lon="-5.803266">
        <ele>839.65</ele>
        <time>2021-03-27T14:19:36Z</time>
      </trkpt>
      <trkpt lat="40.412234" lon="-5.803132">
        <ele>837.55</ele>
        <time>2021-03-27T14:19:39Z</time>
      </trkpt>
      <trkpt lat="40.412376" lon="-5.80303">
        <ele>834.89</ele>
        <time>2021-03-27T14:19:42Z</time>
      </trkpt>
      <trkpt lat="40.412685" lon="-5.802877">
        <ele>829.35</ele>
        <time>2021-03-27T14:19:45Z</time>
      </trkpt>
      <trkpt lat="40.412899" lon="-5.802704">
        <ele>827.08</ele>
        <time>2021-03-27T14:19:48Z</time>
      </trkpt>
      <trkpt lat="40.413274" lon="-5.802233">
        <ele>824.98</ele>
        <time>2021-03-27T14:19:51Z</time>
      </trkpt>
      <trkpt lat="40.413381" lon="-5.802069">
        <ele>824.71</ele>
        <time>2021-03-27T14:19:54Z</time>
      </trkpt>
      <trkpt lat="40.41348" lon="-5.801887">
        <ele>824.13</ele>
        <time>2021-03-27T14:19:57Z</time>
      </trkpt>
      <trkpt lat="40.413681" lon="-5.801348">
        <ele>821.29</ele>
        <time>2021-03-27T14:20:00Z</time>
      </trkpt>
      <trkpt lat="40.414232" lon="-5.79951">
        <ele>812.77</ele>
        <time>2021-03-27T14:20:03Z</time>
      </trkpt>
      <trkpt lat="40.414321" lon="-5.799348">
        <ele>811.89</ele>
        <time>2021-03-27T14:20:06Z</time>
      </trkpt>
      <trkpt lat="40.414422" lon="-5.799245">
        <ele>811.16</ele>
        <time>2021-03-27T14:20:09Z</time>
      </trkpt>
      <trkpt lat="40.414492" lon="-5.799205">
        <ele>810.8</ele>
        <time>2021-03-27T14:20:12Z</time>
      </trkpt>
      <trkpt lat="40.414719" lon="-5.799182">
        <ele>809.96</ele>
        <time>2021-03-27T14:20:15Z</time>
      </trkpt>
      <trkpt lat="40.415036" lon="-5.799224">
        <ele>809.92</ele>
        <time>2021-03-27T14:20:18Z</time>
      </trkpt>
      <trkpt lat="40.415184" lon="-5.799281">
        <ele>810.25</ele>
        <time>2021-03-27T14:20:21Z</time>
      </trkpt>
      <trkpt lat="40.415285" lon="-5.799377">
        <ele>810.27</ele>
        <time>2021-03-27T14:20:24Z</time>
      </trkpt>
      <trkpt lat="40.415356" lon="-5.799499">
        <ele>810.28</ele>
        <time>2021-03-27T14:20:27Z</time>
      </trkpt>
      <trkpt lat="40.41541" lon="-5.799709">
        <ele>810.48</ele>
        <time>2021-03-27T14:20:30Z</time>
      </trkpt>
      <trkpt lat="40.415406" lon="-5.799894">
        <ele>810.75</ele>
        <time>2021-03-27T14:20:33Z</time>
      </trkpt>
      <trkpt lat="40.415309" lon="-5.8007">
        <ele>805.5</ele>
        <time>2021-03-27T14:20:36Z</time>
      </trkpt>
      <trkpt lat="40.41524" lon="-5.801269">
        <ele>804.22</ele>
        <time>2021-03-27T14:20:39Z</time>
      </trkpt>
      <trkpt lat="40.415229" lon="-5.801666">
        <ele>804.47</ele>
        <time>2021-03-27T14:20:42Z</time>
      </trkpt>
      <trkpt lat="40.415269" lon="-5.801992">
        <ele>802.6</ele>
        <time>2021-03-27T14:20:45Z</time>
      </trkpt>
      <trkpt lat="40.415302" lon="-5.802128">
        <ele>801.91</ele>
        <time>2021-03-27T14:20:48Z</time>
      </trkpt>
      <trkpt lat="40.415391" lon="-5.802364">
        <ele>800.59</ele>
        <time>2021-03-27T14:20:51Z</time>
      </trkpt>
      <trkpt lat="40.419047" lon="-5.808305">
        <ele>784.43</ele>
        <time>2021-03-27T14:20:54Z</time>
      </trkpt>
      <trkpt lat="40.419373" lon="-5.808808">
        <ele>783.07</ele>
        <time>2021-03-27T14:20:57Z</time>
      </trkpt>
      <trkpt lat="40.419752" lon="-5.809311">
        <ele>781.89</ele>
        <time>2021-03-27T14:21:01Z</time>
      </trkpt>
      <trkpt lat="40.439734" lon="-5.833638">
        <ele>763.96</ele>
        <time>2021-03-27T14:21:04Z</time>
      </trkpt>
      <trkpt lat="40.445023" lon="-5.84006">
        <ele>767.4</ele>
        <time>2021-03-27T14:21:07Z</time>
      </trkpt>
      <trkpt lat="40.445628" lon="-5.840797">
        <ele>773.9</ele>
        <time>2021-03-27T14:21:10Z</time>
      </trkpt>
      <trkpt lat="40.445749" lon="-5.841014">
        <ele>775.1</ele>
        <time>2021-03-27T14:21:13Z</time>
      </trkpt>
      <trkpt lat="40.445814" lon="-5.841165">
        <ele>776.3</ele>
        <time>2021-03-27T14:21:16Z</time>
      </trkpt>
      <trkpt lat="40.445882" lon="-5.841516">
        <ele>779.42</ele>
        <time>2021-03-27T14:21:19Z</time>
      </trkpt>
      <trkpt lat="40.44588" lon="-5.841712">
        <ele>781.0</ele>
        <time>2021-03-27T14:21:22Z</time>
      </trkpt>
      <trkpt lat="40.445831" lon="-5.842076">
        <ele>782.9</ele>
        <time>2021-03-27T14:21:25Z</time>
      </trkpt>
      <trkpt lat="40.445675" lon="-5.842911">
        <ele>788.04</ele>
        <time>2021-03-27T14:21:28Z</time>
      </trkpt>
      <trkpt lat="40.445535" lon="-5.843297">
        <ele>790.03</ele>
        <time>2021-03-27T14:21:31Z</time>
      </trkpt>
      <trkpt lat="40.44471" lon="-5.84473">
        <ele>790.92</ele>
        <time>2021-03-27T14:21:34Z</time>
      </trkpt>
      <trkpt lat="40.444656" lon="-5.844906">
        <ele>792.97</ele>
        <time>2021-03-27T14:21:37Z</time>
      </trkpt>
      <trkpt lat="40.444617" lon="-5.845148">
        <ele>795.65</ele>
        <time>2021-03-27T14:21:40Z</time>
      </trkpt>
      <trkpt lat="40.444532" lon="-5.845944">
        <ele>807.1</ele>
        <time>2021-03-27T14:21:43Z</time>
      </trkpt>
      <trkpt lat="40.444468" lon="-5.846287">
        <ele>809.51</ele>
        <time>2021-03-27T14:21:46Z</time>
      </trkpt>
      <trkpt lat="40.444381" lon="-5.846585">
        <ele>809.52</ele>
        <time>2021-03-27T14:21:49Z</time>
      </trkpt>
      <trkpt lat="40.444288" lon="-5.846851">
        <ele>808.16</ele>
        <time>2021-03-27T14:21:52Z</time>
      </trkpt>
      <trkpt lat="40.444185" lon="-5.847066">
        <ele>806.38</ele>
        <time>2021-03-27T14:21:55Z</time>
      </trkpt>
      <trkpt lat="40.444005" lon="-5.847359">
        <ele>804.5</ele>
        <time>2021-03-27T14:21:58Z</time>
      </trkpt>
      <trkpt lat="40.443737" lon="-5.847726">
        <ele>803.8</ele>
        <time>2021-03-27T14:22:01Z</time>
      </trkpt>
      <trkpt lat="40.443631" lon="-5.847905">
        <ele>804.14</ele>
        <time>2021-03-27T14:22:04Z</time>
      </trkpt>
      <trkpt lat="40.443419" lon="-5.848439">
        <ele>807.38</ele>
        <time>2021-03-27T14:22:07Z</time>
      </trkpt>
      <trkpt lat="40.443359" lon="-5.848637">
        <ele>808.29</ele>
        <time>2021-03-27T14:22:10Z</time>
      </trkpt>
      <trkpt lat="40.443323" lon="-5.848947">
        <ele>808.96</ele>
        <time>2021-03-27T14:22:13Z</time>
      </trkpt>
      <trkpt lat="40.443334" lon="-5.849102">
        <ele>809.01</ele>
        <time>2021-03-27T14:22:16Z</time>
      </trkpt>
      <trkpt lat="40.443359" lon="-5.849268">
        <ele>808.91</ele>
        <time>2021-03-27T14:22:19Z</time>
      </trkpt>
      <trkpt lat="40.443413" lon="-5.849423">
        <ele>808.94</ele>
        <time>2021-03-27T14:22:22Z</time>
      </trkpt>
      <trkpt lat="40.44349" lon="-5.849588">
        <ele>808.95</ele>
        <time>2021-03-27T14:22:25Z</time>
      </trkpt>
      <trkpt lat="40.443668" lon="-5.849833">
        <ele>810.3</ele>
        <time>2021-03-27T14:22:28Z</time>
      </trkpt>
      <trkpt lat="40.443841" lon="-5.85015">
        <ele>811.77</ele>
        <time>2021-03-27T14:22:31Z</time>
      </trkpt>
      <trkpt lat="40.444041" lon="-5.850699">
        <ele>812.73</ele>
        <time>2021-03-27T14:22:34Z</time>
      </trkpt>
      <trkpt lat="40.444392" lon="-5.852856">
        <ele>815.79</ele>
        <time>2021-03-27T14:22:37Z</time>
      </trkpt>
      <trkpt lat="40.444447" lon="-5.853031">
        <ele>816.23</ele>
        <time>2021-03-27T14:22:40Z</time>
      </trkpt>
      <trkpt lat="40.444586" lon="-5.853326">
        <ele>815.17</ele>
        <time>2021-03-27T14:22:44Z</time>
      </trkpt>
      <trkpt lat="40.444783" lon="-5.853669">
        <ele>815.42</ele>
        <time>2021-03-27T14:22:47Z</time>
      </trkpt>
      <trkpt lat="40.444863" lon="-5.853776">
        <ele>815.45</ele>
        <time>2021-03-27T14:22:50Z</time>
      </trkpt>
      <trkpt lat="40.444943" lon="-5.853841">
        <ele>815.83</ele>
        <time>2021-03-27T14:22:53Z</time>
      </trkpt>
      <trkpt lat="40.445078" lon="-5.853912">
        <ele>816.29</ele>
        <time>2021-03-27T14:22:56Z</time>
      </trkpt>
      <trkpt lat="40.445633" lon="-5.853928">
        <ele>817.0</ele>
        <time>2021-03-27T14:22:59Z</time>
      </trkpt>
      <trkpt lat="40.445921" lon="-5.854053">
        <ele>817.32</ele>
        <time>2021-03-27T14:23:02Z</time>
      </trkpt>
      <trkpt lat="40.446042" lon="-5.854158">
        <ele>817.54</ele>
        <time>2021-03-27T14:23:05Z</time>
      </trkpt>
      <trkpt lat="40.446209" lon="-5.854407">
        <ele>817.49</ele>
        <time>2021-03-27T14:23:08Z</time>
      </trkpt>
      <trkpt lat="40.447111" lon="-5.856319">
        <ele>826.05</ele>
        <time>2021-03-27T14:23:11Z</time>
      </trkpt>
      <trkpt lat="40.44742" lon="-5.856794">
        <ele>829.95</ele>
        <time>2021-03-27T14:23:14Z</time>
      </trkpt>
      <trkpt lat="40.447514" lon="-5.857075">
        <ele>830.82</ele>
        <time>2021-03-27T14:23:17Z</time>
      </trkpt>
      <trkpt lat="40.44753" lon="-5.857259">
        <ele>830.52</ele>
        <time>2021-03-27T14:23:20Z</time>
      </trkpt>
      <trkpt lat="40.447523" lon="-5.857423">
        <ele>829.78</ele>
        <time>2021-03-27T14:23:23Z</time>
      </trkpt>
      <trkpt lat="40.447494" lon="-5.857586">
        <ele>829.53</ele>
        <time>2021-03-27T14:23:26Z</time>
      </trkpt>
      <trkpt lat="40.447423" lon="-5.857745">
        <ele>829.41</ele>
        <time>2021-03-27T14:23:29Z</time>
      </trkpt>
      <trkpt lat="40.447176" lon="-5.858119">
        <ele>828.8</ele>
        <time>2021-03-27T14:23:32Z</time>
      </trkpt>
      <trkpt lat="40.447139" lon="-5.858248">
        <ele>829.19</ele>
        <time>2021-03-27T14:23:35Z</time>
      </trkpt>
      <trkpt lat="40.447119" lon="-5.858375">
        <ele>829.8</ele>
        <time>2021-03-27T14:23:38Z</time>
      </trkpt>
      <trkpt lat="40.4471" lon="-5.859175">
        <ele>832.91</ele>
        <time>2021-03-27T14:23:41Z</time>
      </trkpt>
      <trkpt lat="40.44714" lon="-5.859494">
        <ele>833.57</ele>
        <time>2021-03-27T14:23:44Z</time>
      </trkpt>
      <trkpt lat="40.447201" lon="-5.859661">
        <ele>833.91</ele>
        <time>2021-03-27T14:23:47Z</time>
      </trkpt>
      <trkpt lat="40.447272" lon="-5.859808">
        <ele>834.46</ele>
        <time>2021-03-27T14:23:50Z</time>
      </trkpt>
      <trkpt lat="40.447524" lon="-5.860233">
        <ele>837.7</ele>
        <time>2021-03-27T14:23:53Z</time>
      </trkpt>
      <trkpt lat="40.447579" lon="-5.860392">
        <ele>838.59</ele>
        <time>2021-03-27T14:23:56Z</time>
      </trkpt>
      <trkpt lat="40.447615" lon="-5.860566">
        <ele>839.08</ele>
        <time>2021-03-27T14:23:59Z</time>
      </trkpt>
      <trkpt lat="40.447687" lon="-5.861466">
        <ele>842.42</ele>
        <time>2021-03-27T14:24:02Z</time>
      </trkpt>
      <trkpt lat="40.4481" lon="-5.86349">
        <ele>844.72</ele>
        <time>2021-03-27T14:24:05Z</time>
      </trkpt>
      <trkpt lat="40.448166" lon="-5.863745">
        <ele>845.4</ele>
        <time>2021-03-27T14:24:08Z</time>
      </trkpt>
      <trkpt lat="40.448341" lon="-5.864303">
        <ele>847.17</ele>
        <time>2021-03-27T14:24:11Z</time>
      </trkpt>
      <trkpt lat="40.448372" lon="-5.86446">
        <ele>847.91</ele>
        <time>2021-03-27T14:24:14Z</time>
      </trkpt>
      <trkpt lat="40.448388" lon="-5.864652">
        <ele>849.07</ele>
        <time>2021-03-27T14:24:17Z</time>
      </trkpt>
      <trkpt lat="40.448382" lon="-5.864839">
        <ele>850.85</ele>
        <time>2021-03-27T14:24:20Z</time>
      </trkpt>
      <trkpt lat="40.448294" lon="-5.865183">
        <ele>854.79</ele>
        <time>2021-03-27T14:24:23Z</time>
      </trkpt>
      <trkpt lat="40.448207" lon="-5.865343">
        <ele>856.0</ele>
        <time>2021-03-27T14:24:26Z</time>
      </trkpt>
      <trkpt lat="40.448089" lon="-5.865502">
        <ele>856.61</ele>
        <time>2021-03-27T14:24:30Z</time>
      </trkpt>
      <trkpt lat="40.447993" lon="-5.865596">
        <ele>857.13</ele>
        <time>2021-03-27T14:24:33Z</time>
      </trkpt>
      <trkpt lat="40.447685" lon="-5.865778">
        <ele>857.6</ele>
        <time>2021-03-27T14:24:36Z</time>
      </trkpt>
      <trkpt lat="40.447596" lon="-5.865866">
        <ele>858.04</ele>
        <time>2021-03-27T14:24:39Z</time>
      </trkpt>
      <trkpt lat="40.447455" lon="-5.866133">
        <ele>859.56</ele>
        <time>2021-03-27T14:24:42Z</time>
      </trkpt>
      <trkpt lat="40.447398" lon="-5.866337">
        <ele>860.39</ele>
        <time>2021-03-27T14:24:45Z</time>
      </trkpt>
      <trkpt lat="40.447275" lon="-5.867284">
        <ele>863.96</ele>
        <time>2021-03-27T14:24:48Z</time>
      </trkpt>
      <trkpt lat="40.447261" lon="-5.867493">
        <ele>865.77</ele>
        <time>2021-03-27T14:24:51Z</time>
      </trkpt>
      <trkpt lat="40.447322" lon="-5.868469">
        <ele>869.27</ele>
        <time>2021-03-27T14:24:54Z</time>
      </trkpt>
      <trkpt lat="40.447316" lon="-5.868816">
        <ele>871.82</ele>
        <time>2021-03-27T14:24:57Z</time>
      </trkpt>
      <trkpt lat="40.447231" lon="-5.869661">
        <ele>875.51</ele>
        <time>2021-03-27T14:25:00Z</time>
      </trkpt>
      <trkpt lat="40.447222" lon="-5.869925">
        <ele>877.46</ele>
        <time>2021-03-27T14:25:03Z</time>
      </trkpt>
      <trkpt lat="40.447291" lon="-5.871023">
        <ele>882.18</ele>
        <time>2021-03-27T14:25:06Z</time>
      </trkpt>
      <trkpt lat="40.447277" lon="-5.871323">
        <ele>882.8</ele>
        <time>2021-03-27T14:25:09Z</time>
      </trkpt>
      <trkpt lat="40.447228" lon="-5.871559">
        <ele>883.33</ele>
        <time>2021-03-27T14:25:12Z</time>
      </trkpt>
      <trkpt lat="40.446935" lon="-5.872373">
        <ele>887.07</ele>
        <time>2021-03-27T14:25:15Z</time>
      </trkpt>
      <trkpt lat="40.446903" lon="-5.872565">
        <ele>888.05</ele>
        <time>2021-03-27T14:25:18Z</time>
      </trkpt>
      <trkpt lat="40.446897" lon="-5.872712">
        <ele>888.46</ele>
        <time>2021-03-27T14:25:21Z</time>
      </trkpt>
      <trkpt lat="40.446952" lon="-5.872992">
        <ele>888.32</ele>
        <time>2021-03-27T14:25:24Z</time>
      </trkpt>
      <trkpt lat="40.447045" lon="-5.87318">
        <ele>888.64</ele>
        <time>2021-03-27T14:25:27Z</time>
      </trkpt>
      <trkpt lat="40.447223" lon="-5.873396">
        <ele>889.56</ele>
        <time>2021-03-27T14:25:30Z</time>
      </trkpt>
      <trkpt lat="40.447604" lon="-5.873788">
        <ele>891.24</ele>
        <time>2021-03-27T14:25:33Z</time>
      </trkpt>
      <trkpt lat="40.447675" lon="-5.873893">
        <ele>891.26</ele>
        <time>2021-03-27T14:25:36Z</time>
      </trkpt>
      <trkpt lat="40.447817" lon="-5.874234">
        <ele>892.92</ele>
        <time>2021-03-27T14:25:39Z</time>
      </trkpt>
      <trkpt lat="40.448051" lon="-5.875409">
        <ele>896.41</ele>
        <time>2021-03-27T14:25:42Z</time>
      </trkpt>
      <trkpt lat="40.448092" lon="-5.87592">
        <ele>898.84</ele>
        <time>2021-03-27T14:25:45Z</time>
      </trkpt>
      <trkpt lat="40.448092" lon="-5.876666">
        <ele>901.52</ele>
        <time>2021-03-27T14:25:48Z</time>
      </trkpt>
      <trkpt lat="40.448128" lon="-5.876971">
        <ele>902.35</ele>
        <time>2021-03-27T14:25:51Z</time>
      </trkpt>
      <trkpt lat="40.448201" lon="-5.877184">
        <ele>903.58</ele>
        <time>2021-03-27T14:25:54Z</time>
      </trkpt>
      <trkpt lat="40.448752" lon="-5.878225">
        <ele>905.6</ele>
        <time>2021-03-27T14:25:57Z</time>
      </trkpt>
      <trkpt lat="40.448895" lon="-5.878441">
        <ele>905.7</ele>
        <time>2021-03-27T14:26:00Z</time>
      </trkpt>
      <trkpt lat="40.448947" lon="-5.878489">
        <ele>906.27</ele>
        <time>2021-03-27T14:26:03Z</time>
      </trkpt>
      <trkpt lat="40.449076" lon="-5.878565">
        <ele>907.87</ele>
        <time>2021-03-27T14:26:06Z</time>
      </trkpt>
      <trkpt lat="40.449244" lon="-5.878624">
        <ele>909.75</ele>
        <time>2021-03-27T14:26:09Z</time>
      </trkpt>
      <trkpt lat="40.450105" lon="-5.878804">
        <ele>916.68</ele>
        <time>2021-03-27T14:26:13Z</time>
      </trkpt>
      <trkpt lat="40.450224" lon="-5.878825">
        <ele>917.04</ele>
        <time>2021-03-27T14:26:16Z</time>
      </trkpt>
      <trkpt lat="40.450579" lon="-5.878814">
        <ele>915.34</ele>
        <time>2021-03-27T14:26:19Z</time>
      </trkpt>
      <trkpt lat="40.450862" lon="-5.878741">
        <ele>913.37</ele>
        <time>2021-03-27T14:26:22Z</time>
      </trkpt>
      <trkpt lat="40.452326" lon="-5.878282">
        <ele>907.74</ele>
        <time>2021-03-27T14:26:25Z</time>
      </trkpt>
      <trkpt lat="40.452526" lon="-5.878204">
        <ele>906.86</ele>
        <time>2021-03-27T14:26:28Z</time>
      </trkpt>
      <trkpt lat="40.452658" lon="-5.878128">
        <ele>906.28</ele>
        <time>2021-03-27T14:26:31Z</time>
      </trkpt>
      <trkpt lat="40.452819" lon="-5.878006">
        <ele>905.73</ele>
        <time>2021-03-27T14:26:34Z</time>
      </trkpt>
      <trkpt lat="40.455145" lon="-5.875652">
        <ele>895.12</ele>
        <time>2021-03-27T14:26:37Z</time>
      </trkpt>
      <trkpt lat="40.455315" lon="-5.875518">
        <ele>893.62</ele>
        <time>2021-03-27T14:26:40Z</time>
      </trkpt>
      <trkpt lat="40.455536" lon="-5.875393">
        <ele>892.1</ele>
        <time>2021-03-27T14:26:43Z</time>
      </trkpt>
      <trkpt lat="40.455758" lon="-5.875296">
        <ele>891.95</ele>
        <time>2021-03-27T14:26:46Z</time>
      </trkpt>
      <trkpt lat="40.455893" lon="-5.875255">
        <ele>892.28</ele>
        <time>2021-03-27T14:26:49Z</time>
      </trkpt>
      <trkpt lat="40.456039" lon="-5.875261">
        <ele>892.76</ele>
        <time>2021-03-27T14:26:52Z</time>
      </trkpt>
      <trkpt lat="40.45612" lon="-5.875285">
        <ele>893.04</ele>
        <time>2021-03-27T14:26:55Z</time>
      </trkpt>
      <trkpt lat="40.456307" lon="-5.875414">
        <ele>894.27</ele>
        <time>2021-03-27T14:26:58Z</time>
      </trkpt>
      <trkpt lat="40.456409" lon="-5.875518">
        <ele>895.21</ele>
        <time>2021-03-27T14:27:01Z</time>
      </trkpt>
      <trkpt lat="40.456689" lon="-5.875871">
        <ele>896.93</ele>
        <time>2021-03-27T14:27:04Z</time>
      </trkpt>
      <trkpt lat="40.456881" lon="-5.876074">
        <ele>896.23</ele>
        <time>2021-03-27T14:27:07Z</time>
      </trkpt>
      <trkpt lat="40.458802" lon="-5.877852">
        <ele>902.13</ele>
        <time>2021-03-27T14:27:10Z</time>
      </trkpt>
      <trkpt lat="40.458974" lon="-5.877987">
        <ele>901.02</ele>
        <time>2021-03-27T14:27:13Z</time>
      </trkpt>
      <trkpt lat="40.459104" lon="-5.878071">
        <ele>900.22</ele>
        <time>2021-03-27T14:27:16Z</time>
      </trkpt>
      <trkpt lat="40.459249" lon="-5.878136">
        <ele>900.21</ele>
        <time>2021-03-27T14:27:19Z</time>
      </trkpt>
      <trkpt lat="40.460782" lon="-5.878618">
        <ele>896.97</ele>
        <time>2021-03-27T14:27:22Z</time>
      </trkpt>
      <trkpt lat="40.460987" lon="-5.878697">
        <ele>897.79</ele>
        <time>2021-03-27T14:27:25Z</time>
      </trkpt>
      <trkpt lat="40.461106" lon="-5.878768">
        <ele>898.4</ele>
        <time>2021-03-27T14:27:28Z</time>
      </trkpt>
      <trkpt lat="40.461286" lon="-5.878966">
        <ele>898.98</ele>
        <time>2021-03-27T14:27:31Z</time>
      </trkpt>
      <trkpt lat="40.461352" lon="-5.879074">
        <ele>899.07</ele>
        <time>2021-03-27T14:27:34Z</time>
      </trkpt>
      <trkpt lat="40.461408" lon="-5.87921">
        <ele>898.92</ele>
        <time>2021-03-27T14:27:37Z</time>
      </trkpt>
      <trkpt lat="40.461447" lon="-5.879381">
        <ele>898.6</ele>
        <time>2021-03-27T14:27:40Z</time>
      </trkpt>
      <trkpt lat="40.461526" lon="-5.880217">
        <ele>895.7</ele>
        <time>2021-03-27T14:27:43Z</time>
      </trkpt>
      <trkpt lat="40.46154" lon="-5.880949">
        <ele>896.18</ele>
        <time>2021-03-27T14:27:46Z</time>
      </trkpt>
      <trkpt lat="40.461558" lon="-5.881106">
        <ele>895.63</ele>
        <time>2021-03-27T14:27:49Z</time>
      </trkpt>
      <trkpt lat="40.461622" lon="-5.881326">
        <ele>894.94</ele>
        <time>2021-03-27T14:27:52Z</time>
      </trkpt>
      <trkpt lat="40.461739" lon="-5.881582">
        <ele>895.96</ele>
        <time>2021-03-27T14:27:55Z</time>
      </trkpt>
      <trkpt lat="40.461775" lon="-5.881722">
        <ele>896.56</ele>
        <time>2021-03-27T14:27:59Z</time>
      </trkpt>
      <trkpt lat="40.461868" lon="-5.88271">
        <ele>897.35</ele>
        <time>2021-03-27T14:28:02Z</time>
      </trkpt>
      <trkpt lat="40.461918" lon="-5.882856">
        <ele>897.17</ele>
        <time>2021-03-27T14:28:05Z</time>
      </trkpt>
      <trkpt lat="40.462107" lon="-5.883274">
        <ele>895.74</ele>
        <time>2021-03-27T14:28:08Z</time>
      </trkpt>
      <trkpt lat="40.46213" lon="-5.883429">
        <ele>895.33</ele>
        <time>2021-03-27T14:28:11Z</time>
      </trkpt>
      <trkpt lat="40.46214" lon="-5.884077">
        <ele>895.02</ele>
        <time>2021-03-27T14:28:14Z</time>
      </trkpt>
      <trkpt lat="40.462202" lon="-5.884346">
        <ele>895.83</ele>
        <time>2021-03-27T14:28:17Z</time>
      </trkpt>
      <trkpt lat="40.462306" lon="-5.884546">
        <ele>895.93</ele>
        <time>2021-03-27T14:28:20Z</time>
      </trkpt>
      <trkpt lat="40.462406" lon="-5.884661">
        <ele>895.88</ele>
        <time>2021-03-27T14:28:23Z</time>
      </trkpt>
      <trkpt lat="40.462543" lon="-5.884771">
        <ele>895.8</ele>
        <time>2021-03-27T14:28:26Z</time>
      </trkpt>
      <trkpt lat="40.464763" lon="-5.886354">
        <ele>888.73</ele>
        <time>2021-03-27T14:28:29Z</time>
      </trkpt>
      <trkpt lat="40.465077" lon="-5.886665">
        <ele>888.43</ele>
        <time>2021-03-27T14:28:32Z</time>
      </trkpt>
      <trkpt lat="40.465246" lon="-5.886874">
        <ele>888.05</ele>
        <time>2021-03-27T14:28:35Z</time>
      </trkpt>
      <trkpt lat="40.466071" lon="-5.888048">
        <ele>889.28</ele>
        <time>2021-03-27T14:28:38Z</time>
      </trkpt>
      <trkpt lat="40.466457" lon="-5.888606">
        <ele>886.53</ele>
        <time>2021-03-27T14:28:41Z</time>
      </trkpt>
      <trkpt lat="40.466594" lon="-5.888881">
        <ele>884.8</ele>
        <time>2021-03-27T14:28:44Z</time>
      </trkpt>
      <trkpt lat="40.466683" lon="-5.889177">
        <ele>884.98</ele>
        <time>2021-03-27T14:28:47Z</time>
      </trkpt>
      <trkpt lat="40.466995" lon="-5.891002">
        <ele>887.46</ele>
        <time>2021-03-27T14:28:50Z</time>
      </trkpt>
      <trkpt lat="40.467093" lon="-5.891732">
        <ele>888.04</ele>
        <time>2021-03-27T14:28:53Z</time>
      </trkpt>
      <trkpt lat="40.467283" lon="-5.894344">
        <ele>880.06</ele>
        <time>2021-03-27T14:28:56Z</time>
      </trkpt>
      <trkpt lat="40.467323" lon="-5.894871">
        <ele>879.36</ele>
        <time>2021-03-27T14:28:59Z</time>
      </trkpt>
      <trkpt lat="40.46735" lon="-5.895061">
        <ele>878.7</ele>
        <time>2021-03-27T14:29:02Z</time>
      </trkpt>
      <trkpt lat="40.467422" lon="-5.895299">
        <ele>877.53</ele>
        <time>2021-03-27T14:29:05Z</time>
      </trkpt>
      <trkpt lat="40.467506" lon="-5.895471">
        <ele>877.28</ele>
        <time>2021-03-27T14:29:08Z</time>
      </trkpt>
      <trkpt lat="40.468011" lon="-5.89635">
        <ele>876.25</ele>
        <time>2021-03-27T14:29:11Z</time>
      </trkpt>
      <trkpt lat="40.468162" lon="-5.896654">
        <ele>876.19</ele>
        <time>2021-03-27T14:29:14Z</time>
      </trkpt>
      <trkpt lat="40.468709" lon="-5.897965">
        <ele>868.1</ele>
        <time>2021-03-27T14:29:17Z</time>
      </trkpt>
      <trkpt lat="40.4688" lon="-5.898236">
        <ele>868.08</ele>
        <time>2021-03-27T14:29:20Z</time>
      </trkpt>
      <trkpt lat="40.468996" lon="-5.899105">
        <ele>867.93</ele>
        <time>2021-03-27T14:29:23Z</time>
      </trkpt>
      <trkpt lat="40.469288" lon="-5.900275">
        <ele>867.67</ele>
        <time>2021-03-27T14:29:26Z</time>
      </trkpt>
      <trkpt lat="40.46937" lon="-5.900419">
        <ele>866.94</ele>
        <time>2021-03-27T14:29:29Z</time>
      </trkpt>
      <trkpt lat="40.469476" lon="-5.90054">
        <ele>865.88</ele>
        <time>2021-03-27T14:29:32Z</time>
      </trkpt>
      <trkpt lat="40.46982" lon="-5.900796">
        <ele>865.68</ele>
        <time>2021-03-27T14:29:35Z</time>
      </trkpt>
      <trkpt lat="40.470055" lon="-5.90107">
        <ele>863.83</ele>
        <time>2021-03-27T14:29:38Z</time>
      </trkpt>
      <trkpt lat="40.470592" lon="-5.901997">
        <ele>863.93</ele>
        <time>2021-03-27T14:29:42Z</time>
      </trkpt>
      <trkpt lat="40.4707" lon="-5.902222">
        <ele>863.4</ele>
        <time>2021-03-27T14:29:45Z</time>
      </trkpt>
      <trkpt lat="40.47083" lon="-5.902582">
        <ele>862.36</ele>
        <time>2021-03-27T14:29:48Z</time>
      </trkpt>
      <trkpt lat="40.470929" lon="-5.90296">
        <ele>862.08</ele>
        <time>2021-03-27T14:29:51Z</time>
      </trkpt>
      <trkpt lat="40.47101" lon="-5.903353">
        <ele>861.05</ele>
        <time>2021-03-27T14:29:54Z</time>
      </trkpt>
      <trkpt lat="40.471032" lon="-5.903734">
        <ele>859.37</ele>
        <time>2021-03-27T14:29:57Z</time>
      </trkpt>
      <trkpt lat="40.470998" lon="-5.904088">
        <ele>857.6</ele>
        <time>2021-03-27T14:30:00Z</time>
      </trkpt>
      <trkpt lat="40.47076" lon="-5.905611">
        <ele>853.43</ele>
        <time>2021-03-27T14:30:03Z</time>
      </trkpt>
      <trkpt lat="40.470757" lon="-5.906046">
        <ele>852.35</ele>
        <time>2021-03-27T14:30:06Z</time>
      </trkpt>
      <trkpt lat="40.470771" lon="-5.906241">
        <ele>852.6</ele>
        <time>2021-03-27T14:30:09Z</time>
      </trkpt>
      <trkpt lat="40.470844" lon="-5.906659">
        <ele>851.57</ele>
        <time>2021-03-27T14:30:12Z</time>
      </trkpt>
      <trkpt lat="40.470889" lon="-5.906834">
        <ele>850.83</ele>
        <time>2021-03-27T14:30:15Z</time>
      </trkpt>
      <trkpt lat="40.470956" lon="-5.907003">
        <ele>849.89</ele>
        <time>2021-03-27T14:30:18Z</time>
      </trkpt>
      <trkpt lat="40.471099" lon="-5.907247">
        <ele>847.71</ele>
        <time>2021-03-27T14:30:21Z</time>
      </trkpt>
      <trkpt lat="40.471676" lon="-5.908064">
        <ele>841.03</ele>
        <time>2021-03-27T14:30:24Z</time>
      </trkpt>
      <trkpt lat="40.4718" lon="-5.908213">
        <ele>842.03</ele>
        <time>2021-03-27T14:30:27Z</time>
      </trkpt>
      <trkpt lat="40.471919" lon="-5.908321">
        <ele>841.41</ele>
        <time>2021-03-27T14:30:30Z</time>
      </trkpt>
      <trkpt lat="40.472092" lon="-5.908402">
        <ele>840.11</ele>
        <time>2021-03-27T14:30:33Z</time>
      </trkpt>
      <trkpt lat="40.472287" lon="-5.908409">
        <ele>837.82</ele>
        <time>2021-03-27T14:30:36Z</time>
      </trkpt>
      <trkpt lat="40.47253" lon="-5.908464">
        <ele>836.66</ele>
        <time>2021-03-27T14:30:39Z</time>
      </trkpt>
      <trkpt lat="40.473213" lon="-5.908782">
        <ele>835.98</ele>
        <time>2021-03-27T14:30:42Z</time>
      </trkpt>
      <trkpt lat="40.473418" lon="-5.908952">
        <ele>834.55</ele>
        <time>2021-03-27T14:30:45Z</time>
      </trkpt>
      <trkpt lat="40.473495" lon="-5.909099">
        <ele>832.91</ele>
        <time>2021-03-27T14:30:48Z</time>
      </trkpt>
      <trkpt lat="40.47353" lon="-5.909225">
        <ele>831.96</ele>
        <time>2021-03-27T14:30:51Z</time>
      </trkpt>
      <trkpt lat="40.473541" lon="-5.909602">
        <ele>830.44</ele>
        <time>2021-03-27T14:30:54Z</time>
      </trkpt>
      <trkpt lat="40.473425" lon="-5.910296">
        <ele>828.18</ele>
        <time>2021-03-27T14:30:57Z</time>
      </trkpt>
      <trkpt lat="40.473332" lon="-5.910624">
        <ele>827.54</ele>
        <time>2021-03-27T14:31:00Z</time>
      </trkpt>
      <trkpt lat="40.473334" lon="-5.910853">
        <ele>825.98</ele>
        <time>2021-03-27T14:31:03Z</time>
      </trkpt>
      <trkpt lat="40.473371" lon="-5.911001">
        <ele>825.18</ele>
        <time>2021-03-27T14:31:06Z</time>
      </trkpt>
      <trkpt lat="40.473433" lon="-5.911122">
        <ele>824.02</ele>
        <time>2021-03-27T14:31:09Z</time>
      </trkpt>
      <trkpt lat="40.47352" lon="-5.911226">
        <ele>824.18</ele>
        <time>2021-03-27T14:31:12Z</time>
      </trkpt>
      <trkpt lat="40.473622" lon="-5.911296">
        <ele>823.78</ele>
        <time>2021-03-27T14:31:15Z</time>
      </trkpt>
      <trkpt lat="40.4746" lon="-5.911757">
        <ele>818.85</ele>
        <time>2021-03-27T14:31:18Z</time>
      </trkpt>
      <trkpt lat="40.474767" lon="-5.911798">
        <ele>816.96</ele>
        <time>2021-03-27T14:31:21Z</time>
      </trkpt>
      <trkpt lat="40.474892" lon="-5.911798">
        <ele>814.49</ele>
        <time>2021-03-27T14:31:25Z</time>
      </trkpt>
      <trkpt lat="40.475338" lon="-5.911707">
        <ele>810.15</ele>
        <time>2021-03-27T14:31:28Z</time>
      </trkpt>
      <trkpt lat="40.47543" lon="-5.911707">
        <ele>809.49</ele>
        <time>2021-03-27T14:31:31Z</time>
      </trkpt>
      <trkpt lat="40.475586" lon="-5.911773">
        <ele>808.79</ele>
        <time>2021-03-27T14:31:34Z</time>
      </trkpt>
      <trkpt lat="40.475697" lon="-5.911928">
        <ele>807.74</ele>
        <time>2021-03-27T14:31:37Z</time>
      </trkpt>
      <trkpt lat="40.476512" lon="-5.913577">
        <ele>802.23</ele>
        <time>2021-03-27T14:31:40Z</time>
      </trkpt>
      <trkpt lat="40.476796" lon="-5.914469">
        <ele>796.76</ele>
        <time>2021-03-27T14:31:43Z</time>
      </trkpt>
      <trkpt lat="40.47687" lon="-5.914609">
        <ele>795.93</ele>
        <time>2021-03-27T14:31:46Z</time>
      </trkpt>
      <trkpt lat="40.476964" lon="-5.914728">
        <ele>794.81</ele>
        <time>2021-03-27T14:31:49Z</time>
      </trkpt>
      <trkpt lat="40.477061" lon="-5.914778">
        <ele>794.3</ele>
        <time>2021-03-27T14:31:52Z</time>
      </trkpt>
      <trkpt lat="40.477264" lon="-5.91481">
        <ele>792.99</ele>
        <time>2021-03-27T14:31:55Z</time>
      </trkpt>
      <trkpt lat="40.477444" lon="-5.914762">
        <ele>792.54</ele>
        <time>2021-03-27T14:31:58Z</time>
      </trkpt>
      <trkpt lat="40.478209" lon="-5.91444">
        <ele>790.02</ele>
        <time>2021-03-27T14:32:01Z</time>
      </trkpt>
      <trkpt lat="40.478668" lon="-5.914079">
        <ele>783.99</ele>
        <time>2021-03-27T14:32:04Z</time>
      </trkpt>
      <trkpt lat="40.47882" lon="-5.913991">
        <ele>782.32</ele>
        <time>2021-03-27T14:32:07Z</time>
      </trkpt>
      <trkpt lat="40.478998" lon="-5.913942">
        <ele>781.73</ele>
        <time>2021-03-27T14:32:10Z</time>
      </trkpt>
      <trkpt lat="40.479634" lon="-5.913887">
        <ele>779.29</ele>
        <time>2021-03-27T14:32:13Z</time>
      </trkpt>
      <trkpt lat="40.479726" lon="-5.913825">
        <ele>778.31</ele>
        <time>2021-03-27T14:32:16Z</time>
      </trkpt>
      <trkpt lat="40.479803" lon="-5.91373">
        <ele>777.46</ele>
        <time>2021-03-27T14:32:19Z</time>
      </trkpt>
      <trkpt lat="40.479862" lon="-5.913587">
        <ele>776.33</ele>
        <time>2021-03-27T14:32:22Z</time>
      </trkpt>
      <trkpt lat="40.479948" lon="-5.913106">
        <ele>772.36</ele>
        <time>2021-03-27T14:32:25Z</time>
      </trkpt>
      <trkpt lat="40.479998" lon="-5.912943">
        <ele>771.18</ele>
        <time>2021-03-27T14:32:28Z</time>
      </trkpt>
      <trkpt lat="40.480071" lon="-5.912785">
        <ele>770.56</ele>
        <time>2021-03-27T14:32:31Z</time>
      </trkpt>
      <trkpt lat="40.480176" lon="-5.912644">
        <ele>770.0</ele>
        <time>2021-03-27T14:32:34Z</time>
      </trkpt>
      <trkpt lat="40.480321" lon="-5.912499">
        <ele>769.3</ele>
        <time>2021-03-27T14:32:37Z</time>
      </trkpt>
      <trkpt lat="40.480849" lon="-5.912052">
        <ele>765.05</ele>
        <time>2021-03-27T14:32:40Z</time>
      </trkpt>
      <trkpt lat="40.481165" lon="-5.911859">
        <ele>763.21</ele>
        <time>2021-03-27T14:32:43Z</time>
      </trkpt>
      <trkpt lat="40.481344" lon="-5.911785">
        <ele>762.04</ele>
        <time>2021-03-27T14:32:46Z</time>
      </trkpt>
      <trkpt lat="40.481468" lon="-5.911775">
        <ele>761.85</ele>
        <time>2021-03-27T14:32:49Z</time>
      </trkpt>
      <trkpt lat="40.481685" lon="-5.911824">
        <ele>762.33</ele>
        <time>2021-03-27T14:32:52Z</time>
      </trkpt>
      <trkpt lat="40.481806" lon="-5.911828">
        <ele>762.74</ele>
        <time>2021-03-27T14:32:55Z</time>
      </trkpt>
      <trkpt lat="40.481913" lon="-5.911795">
        <ele>762.8</ele>
        <time>2021-03-27T14:32:58Z</time>
      </trkpt>
      <trkpt lat="40.482096" lon="-5.911623">
        <ele>762.93</ele>
        <time>2021-03-27T14:33:01Z</time>
      </trkpt>
      <trkpt lat="40.48257" lon="-5.910961">
        <ele>757.78</ele>
        <time>2021-03-27T14:33:04Z</time>
      </trkpt>
      <trkpt lat="40.48271" lon="-5.910803">
        <ele>756.28</ele>
        <time>2021-03-27T14:33:07Z</time>
      </trkpt>
      <trkpt lat="40.482838" lon="-5.910728">
        <ele>755.4</ele>
        <time>2021-03-27T14:33:11Z</time>
      </trkpt>
      <trkpt lat="40.48295" lon="-5.910689">
        <ele>754.34</ele>
        <time>2021-03-27T14:33:14Z</time>
      </trkpt>
      <trkpt lat="40.483093" lon="-5.910682">
        <ele>754.14</ele>
        <time>2021-03-27T14:33:17Z</time>
      </trkpt>
      <trkpt lat="40.48324" lon="-5.910706">
        <ele>754.78</ele>
        <time>2021-03-27T14:33:20Z</time>
      </trkpt>
      <trkpt lat="40.483375" lon="-5.910767">
        <ele>755.27</ele>
        <time>2021-03-27T14:33:23Z</time>
      </trkpt>
      <trkpt lat="40.483588" lon="-5.910943">
        <ele>754.12</ele>
        <time>2021-03-27T14:33:26Z</time>
      </trkpt>
      <trkpt lat="40.483957" lon="-5.91132">
        <ele>748.91</ele>
        <time>2021-03-27T14:33:29Z</time>
      </trkpt>
      <trkpt lat="40.484016" lon="-5.91144">
        <ele>747.79</ele>
        <time>2021-03-27T14:33:32Z</time>
      </trkpt>
      <trkpt lat="40.484125" lon="-5.912036">
        <ele>745.33</ele>
        <time>2021-03-27T14:33:35Z</time>
      </trkpt>
      <trkpt lat="40.484187" lon="-5.912156">
        <ele>744.6</ele>
        <time>2021-03-27T14:33:38Z</time>
      </trkpt>
      <trkpt lat="40.484276" lon="-5.912257">
        <ele>744.56</ele>
        <time>2021-03-27T14:33:41Z</time>
      </trkpt>
      <trkpt lat="40.484355" lon="-5.912309">
        <ele>744.69</ele>
        <time>2021-03-27T14:33:44Z</time>
      </trkpt>
      <trkpt lat="40.484476" lon="-5.912346">
        <ele>744.72</ele>
        <time>2021-03-27T14:33:47Z</time>
      </trkpt>
      <trkpt lat="40.484674" lon="-5.912338">
        <ele>744.19</ele>
        <time>2021-03-27T14:33:50Z</time>
      </trkpt>
      <trkpt lat="40.484915" lon="-5.912287">
        <ele>743.17</ele>
        <time>2021-03-27T14:33:53Z</time>
      </trkpt>
      <trkpt lat="40.485078" lon="-5.912228">
        <ele>742.65</ele>
        <time>2021-03-27T14:33:56Z</time>
      </trkpt>
      <trkpt lat="40.485978" lon="-5.911623">
        <ele>730.93</ele>
        <time>2021-03-27T14:33:59Z</time>
      </trkpt>
      <trkpt lat="40.486075" lon="-5.911616">
        <ele>730.56</ele>
        <time>2021-03-27T14:34:02Z</time>
      </trkpt>
      <trkpt lat="40.486166" lon="-5.911652">
        <ele>730.26</ele>
        <time>2021-03-27T14:34:05Z</time>
      </trkpt>
      <trkpt lat="40.486287" lon="-5.911748">
        <ele>729.4</ele>
        <time>2021-03-27T14:34:08Z</time>
      </trkpt>
      <trkpt lat="40.486523" lon="-5.912072">
        <ele>727.05</ele>
        <time>2021-03-27T14:34:11Z</time>
      </trkpt>
      <trkpt lat="40.486862" lon="-5.912416">
        <ele>722.89</ele>
        <time>2021-03-27T14:34:14Z</time>
      </trkpt>
      <trkpt lat="40.486939" lon="-5.912525">
        <ele>722.0</ele>
        <time>2021-03-27T14:34:17Z</time>
      </trkpt>
      <trkpt lat="40.487012" lon="-5.912693">
        <ele>720.25</ele>
        <time>2021-03-27T14:34:20Z</time>
      </trkpt>
      <trkpt lat="40.48705" lon="-5.912841">
        <ele>719.48</ele>
        <time>2021-03-27T14:34:23Z</time>
      </trkpt>
      <trkpt lat="40.487099" lon="-5.913386">
        <ele>718.03</ele>
        <time>2021-03-27T14:34:26Z</time>
      </trkpt>
      <trkpt lat="40.48709" lon="-5.913637">
        <ele>717.14</ele>
        <time>2021-03-27T14:34:29Z</time>
      </trkpt>
      <trkpt lat="40.486486" lon="-5.915895">
        <ele>705.81</ele>
        <time>2021-03-27T14:34:32Z</time>
      </trkpt>
      <trkpt lat="40.48648" lon="-5.916047">
        <ele>704.81</ele>
        <time>2021-03-27T14:34:35Z</time>
      </trkpt>
      <trkpt lat="40.486514" lon="-5.916231">
        <ele>704.18</ele>
        <time>2021-03-27T14:34:38Z</time>
      </trkpt>
      <trkpt lat="40.486582" lon="-5.916359">
        <ele>703.42</ele>
        <time>2021-03-27T14:34:41Z</time>
      </trkpt>
      <trkpt lat="40.486678" lon="-5.916483">
        <ele>702.55</ele>
        <time>2021-03-27T14:34:44Z</time>
      </trkpt>
      <trkpt lat="40.486775" lon="-5.916553">
        <ele>702.01</ele>
        <time>2021-03-27T14:34:47Z</time>
      </trkpt>
      <trkpt lat="40.487567" lon="-5.916961">
        <ele>697.04</ele>
        <time>2021-03-27T14:34:50Z</time>
      </trkpt>
      <trkpt lat="40.4877" lon="-5.917061">
        <ele>696.08</ele>
        <time>2021-03-27T14:34:54Z</time>
      </trkpt>
      <trkpt lat="40.487911" lon="-5.91728">
        <ele>693.48</ele>
        <time>2021-03-27T14:34:57Z</time>
      </trkpt>
      <trkpt lat="40.4884" lon="-5.91799">
        <ele>688.1</ele>
        <time>2021-03-27T14:35:00Z</time>
      </trkpt>
      <trkpt lat="40.488611" lon="-5.918348">
        <ele>685.95</ele>
        <time>2021-03-27T14:35:03Z</time>
      </trkpt>
      <trkpt lat="40.488742" lon="-5.918607">
        <ele>682.64</ele>
        <time>2021-03-27T14:35:06Z</time>
      </trkpt>
      <trkpt lat="40.489057" lon="-5.919314">
        <ele>679.77</ele>
        <time>2021-03-27T14:35:09Z</time>
      </trkpt>
      <trkpt lat="40.489096" lon="-5.919435">
        <ele>679.27</ele>
        <time>2021-03-27T14:35:12Z</time>
      </trkpt>
      <trkpt lat="40.48911" lon="-5.919572">
        <ele>677.92</ele>
        <time>2021-03-27T14:35:15Z</time>
      </trkpt>
      <trkpt lat="40.489088" lon="-5.919731">
        <ele>676.46</ele>
        <time>2021-03-27T14:35:18Z</time>
      </trkpt>
      <trkpt lat="40.488856" lon="-5.920189">
        <ele>673.83</ele>
        <time>2021-03-27T14:35:21Z</time>
      </trkpt>
      <trkpt lat="40.488824" lon="-5.920289">
        <ele>674.18</ele>
        <time>2021-03-27T14:35:24Z</time>
      </trkpt>
      <trkpt lat="40.488812" lon="-5.920414">
        <ele>674.65</ele>
        <time>2021-03-27T14:35:27Z</time>
      </trkpt>
      <trkpt lat="40.488809" lon="-5.920543">
        <ele>674.98</ele>
        <time>2021-03-27T14:35:30Z</time>
      </trkpt>
      <trkpt lat="40.488834" lon="-5.920699">
        <ele>675.83</ele>
        <time>2021-03-27T14:35:33Z</time>
      </trkpt>
      <trkpt lat="40.488908" lon="-5.920965">
        <ele>675.35</ele>
        <time>2021-03-27T14:35:36Z</time>
      </trkpt>
      <trkpt lat="40.488925" lon="-5.921128">
        <ele>674.51</ele>
        <time>2021-03-27T14:35:39Z</time>
      </trkpt>
      <trkpt lat="40.488918" lon="-5.92129">
        <ele>673.08</ele>
        <time>2021-03-27T14:35:42Z</time>
      </trkpt>
      <trkpt lat="40.488851" lon="-5.921699">
        <ele>669.96</ele>
        <time>2021-03-27T14:35:45Z</time>
      </trkpt>
      <trkpt lat="40.488848" lon="-5.921796">
        <ele>669.32</ele>
        <time>2021-03-27T14:35:48Z</time>
      </trkpt>
      <trkpt lat="40.488908" lon="-5.92205">
        <ele>667.53</ele>
        <time>2021-03-27T14:35:51Z</time>
      </trkpt>
      <trkpt lat="40.488972" lon="-5.922157">
        <ele>667.4</ele>
        <time>2021-03-27T14:35:54Z</time>
      </trkpt>
      <trkpt lat="40.489053" lon="-5.922245">
        <ele>666.8</ele>
        <time>2021-03-27T14:35:57Z</time>
      </trkpt>
      <trkpt lat="40.489432" lon="-5.922577">
        <ele>664.68</ele>
        <time>2021-03-27T14:36:00Z</time>
      </trkpt>
      <trkpt lat="40.489523" lon="-5.922645">
        <ele>664.04</ele>
        <time>2021-03-27T14:36:03Z</time>
      </trkpt>
      <trkpt lat="40.489639" lon="-5.922684">
        <ele>662.75</ele>
        <time>2021-03-27T14:36:06Z</time>
      </trkpt>
      <trkpt lat="40.48979" lon="-5.922671">
        <ele>661.28</ele>
        <time>2021-03-27T14:36:09Z</time>
      </trkpt>
      <trkpt lat="40.490104" lon="-5.922499">
        <ele>658.24</ele>
        <time>2021-03-27T14:36:12Z</time>
      </trkpt>
      <trkpt lat="40.490264" lon="-5.922437">
        <ele>656.21</ele>
        <time>2021-03-27T14:36:15Z</time>
      </trkpt>
      <trkpt lat="40.490371" lon="-5.922417">
        <ele>654.9</ele>
        <time>2021-03-27T14:36:18Z</time>
      </trkpt>
      <trkpt lat="40.490524" lon="-5.92244">
        <ele>653.67</ele>
        <time>2021-03-27T14:36:21Z</time>
      </trkpt>
      <trkpt lat="40.49063" lon="-5.922482">
        <ele>652.23</ele>
        <time>2021-03-27T14:36:24Z</time>
      </trkpt>
      <trkpt lat="40.490731" lon="-5.92257">
        <ele>651.05</ele>
        <time>2021-03-27T14:36:27Z</time>
      </trkpt>
      <trkpt lat="40.490806" lon="-5.922673">
        <ele>650.52</ele>
        <time>2021-03-27T14:36:30Z</time>
      </trkpt>
      <trkpt lat="40.490885" lon="-5.922827">
        <ele>650.71</ele>
        <time>2021-03-27T14:36:33Z</time>
      </trkpt>
      <trkpt lat="40.490966" lon="-5.923038">
        <ele>651.46</ele>
        <time>2021-03-27T14:36:36Z</time>
      </trkpt>
      <trkpt lat="40.491097" lon="-5.923255">
        <ele>651.16</ele>
        <time>2021-03-27T14:36:40Z</time>
      </trkpt>
      <trkpt lat="40.491287" lon="-5.923421">
        <ele>648.71</ele>
        <time>2021-03-27T14:36:43Z</time>
      </trkpt>
      <trkpt lat="40.49152" lon="-5.923522">
        <ele>646.34</ele>
        <time>2021-03-27T14:36:46Z</time>
      </trkpt>
      <trkpt lat="40.49164" lon="-5.923606">
        <ele>646.29</ele>
        <time>2021-03-27T14:36:49Z</time>
      </trkpt>
      <trkpt lat="40.491765" lon="-5.923737">
        <ele>645.76</ele>
        <time>2021-03-27T14:36:52Z</time>
      </trkpt>
      <trkpt lat="40.492166" lon="-5.924233">
        <ele>641.59</ele>
        <time>2021-03-27T14:36:55Z</time>
      </trkpt>
      <trkpt lat="40.492385" lon="-5.924497">
        <ele>637.78</ele>
        <time>2021-03-27T14:36:58Z</time>
      </trkpt>
      <trkpt lat="40.492456" lon="-5.924594">
        <ele>637.57</ele>
        <time>2021-03-27T14:37:01Z</time>
      </trkpt>
      <trkpt lat="40.492602" lon="-5.924877">
        <ele>640.12</ele>
        <time>2021-03-27T14:37:04Z</time>
      </trkpt>
      <trkpt lat="40.492699" lon="-5.925029">
        <ele>640.89</ele>
        <time>2021-03-27T14:37:07Z</time>
      </trkpt>
      <trkpt lat="40.492811" lon="-5.925091">
        <ele>639.06</ele>
        <time>2021-03-27T14:37:10Z</time>
      </trkpt>
      <trkpt lat="40.492967" lon="-5.925114">
        <ele>635.12</ele>
        <time>2021-03-27T14:37:13Z</time>
      </trkpt>
      <trkpt lat="40.493108" lon="-5.925315">
        <ele>634.2</ele>
        <time>2021-03-27T14:37:15Z</time>
      </trkpt>
      <trkpt lat="40.493308" lon="-5.925541">
        <ele>632.42</ele>
        <time>2021-03-27T14:37:17Z</time>
      </trkpt>
      <trkpt lat="40.493437" lon="-5.925657">
        <ele>633.21</ele>
        <time>2021-03-27T14:37:19Z</time>
      </trkpt>
      <trkpt lat="40.493595" lon="-5.925739">
        <ele>633.48</ele>
        <time>2021-03-27T14:37:20Z</time>
      </trkpt>
      <trkpt lat="40.494081" lon="-5.925862">
        <ele>629.16</ele>
        <time>2021-03-27T14:37:22Z</time>
      </trkpt>
      <trkpt lat="40.494235" lon="-5.925989">
        <ele>627.3</ele>
        <time>2021-03-27T14:37:24Z</time>
      </trkpt>
      <trkpt lat="40.494309" lon="-5.926071">
        <ele>625.78</ele>
        <time>2021-03-27T14:37:26Z</time>
      </trkpt>
      <trkpt lat="40.494393" lon="-5.926235">
        <ele>624.98</ele>
        <time>2021-03-27T14:37:28Z</time>
      </trkpt>
      <trkpt lat="40.494441" lon="-5.92639">
        <ele>625.18</ele>
        <time>2021-03-27T14:37:30Z</time>
      </trkpt>
      <trkpt lat="40.494601" lon="-5.927392">
        <ele>625.32</ele>
        <time>2021-03-27T14:37:32Z</time>
      </trkpt>
      <trkpt lat="40.494649" lon="-5.927582">
        <ele>626.47</ele>
        <time>2021-03-27T14:37:34Z</time>
      </trkpt>
      <trkpt lat="40.494713" lon="-5.927724">
        <ele>626.3</ele>
        <time>2021-03-27T14:37:35Z</time>
      </trkpt>
      <trkpt lat="40.495154" lon="-5.928417">
        <ele>618.46</ele>
        <time>2021-03-27T14:37:37Z</time>
      </trkpt>
      <trkpt lat="40.495257" lon="-5.928515">
        <ele>617.12</ele>
        <time>2021-03-27T14:37:39Z</time>
      </trkpt>
      <trkpt lat="40.495958" lon="-5.928852">
        <ele>609.88</ele>
        <time>2021-03-27T14:37:41Z</time>
      </trkpt>
      <trkpt lat="40.496238" lon="-5.929041">
        <ele>606.56</ele>
        <time>2021-03-27T14:37:43Z</time>
      </trkpt>
      <trkpt lat="40.496331" lon="-5.929149">
        <ele>605.63</ele>
        <time>2021-03-27T14:37:45Z</time>
      </trkpt>
      <trkpt lat="40.496421" lon="-5.92938">
        <ele>603.76</ele>
        <time>2021-03-27T14:37:47Z</time>
      </trkpt>
      <trkpt lat="40.496437" lon="-5.929508">
        <ele>603.41</ele>
        <time>2021-03-27T14:37:48Z</time>
      </trkpt>
      <trkpt lat="40.496434" lon="-5.929697">
        <ele>603.37</ele>
        <time>2021-03-27T14:37:50Z</time>
      </trkpt>
      <trkpt lat="40.496401" lon="-5.92991">
        <ele>603.17</ele>
        <time>2021-03-27T14:37:52Z</time>
      </trkpt>
      <trkpt lat="40.496175" lon="-5.930911">
        <ele>602.54</ele>
        <time>2021-03-27T14:37:54Z</time>
      </trkpt>
      <trkpt lat="40.496143" lon="-5.931159">
        <ele>601.49</ele>
        <time>2021-03-27T14:37:56Z</time>
      </trkpt>
      <trkpt lat="40.496136" lon="-5.931342">
        <ele>600.36</ele>
        <time>2021-03-27T14:37:58Z</time>
      </trkpt>
      <trkpt lat="40.496161" lon="-5.931506">
        <ele>599.98</ele>
        <time>2021-03-27T14:38:00Z</time>
      </trkpt>
      <trkpt lat="40.496335" lon="-5.931871">
        <ele>593.24</ele>
        <time>2021-03-27T14:38:02Z</time>
      </trkpt>
      <trkpt lat="40.496371" lon="-5.932014">
        <ele>591.64</ele>
        <time>2021-03-27T14:38:03Z</time>
      </trkpt>
      <trkpt lat="40.496376" lon="-5.932169">
        <ele>590.85</ele>
        <time>2021-03-27T14:38:05Z</time>
      </trkpt>
      <trkpt lat="40.496324" lon="-5.932487">
        <ele>590.42</ele>
        <time>2021-03-27T14:38:07Z</time>
      </trkpt>
      <trkpt lat="40.496319" lon="-5.932989">
        <ele>587.61</ele>
        <time>2021-03-27T14:38:09Z</time>
      </trkpt>
      <trkpt lat="40.496303" lon="-5.933155">
        <ele>586.91</ele>
        <time>2021-03-27T14:38:11Z</time>
      </trkpt>
      <trkpt lat="40.496199" lon="-5.933676">
        <ele>586.99</ele>
        <time>2021-03-27T14:38:13Z</time>
      </trkpt>
      <trkpt lat="40.49617" lon="-5.933961">
        <ele>587.03</ele>
        <time>2021-03-27T14:38:15Z</time>
      </trkpt>
      <trkpt lat="40.496177" lon="-5.934598">
        <ele>576.77</ele>
        <time>2021-03-27T14:38:16Z</time>
      </trkpt>
      <trkpt lat="40.496163" lon="-5.934871">
        <ele>571.61</ele>
        <time>2021-03-27T14:38:18Z</time>
      </trkpt>
      <trkpt lat="40.496097" lon="-5.935123">
        <ele>570.27</ele>
        <time>2021-03-27T14:38:20Z</time>
      </trkpt>
      <trkpt lat="40.496032" lon="-5.935233">
        <ele>570.21</ele>
        <time>2021-03-27T14:38:22Z</time>
      </trkpt>
      <trkpt lat="40.495942" lon="-5.93534">
        <ele>570.16</ele>
        <time>2021-03-27T14:38:24Z</time>
      </trkpt>
      <trkpt lat="40.495826" lon="-5.93543">
        <ele>570.63</ele>
        <time>2021-03-27T14:38:26Z</time>
      </trkpt>
      <trkpt lat="40.495687" lon="-5.935497">
        <ele>568.17</ele>
        <time>2021-03-27T14:38:28Z</time>
      </trkpt>
      <trkpt lat="40.495519" lon="-5.935525">
        <ele>566.47</ele>
        <time>2021-03-27T14:38:30Z</time>
      </trkpt>
      <trkpt lat="40.494261" lon="-5.935631">
        <ele>560.72</ele>
        <time>2021-03-27T14:38:31Z</time>
      </trkpt>
      <trkpt lat="40.493713" lon="-5.935504">
        <ele>559.92</ele>
        <time>2021-03-27T14:38:33Z</time>
      </trkpt>
      <trkpt lat="40.493557" lon="-5.93548">
        <ele>560.31</ele>
        <time>2021-03-27T14:38:35Z</time>
      </trkpt>
      <trkpt lat="40.493462" lon="-5.935492">
        <ele>560.24</ele>
        <time>2021-03-27T14:38:37Z</time>
      </trkpt>
      <trkpt lat="40.493374" lon="-5.935545">
        <ele>559.11</ele>
        <time>2021-03-27T14:38:39Z</time>
      </trkpt>
      <trkpt lat="40.493311" lon="-5.935613">
        <ele>559.45</ele>
        <time>2021-03-27T14:38:41Z</time>
      </trkpt>
      <trkpt lat="40.49327" lon="-5.935688">
        <ele>560.46</ele>
        <time>2021-03-27T14:38:43Z</time>
      </trkpt>
      <trkpt lat="40.493245" lon="-5.935801">
        <ele>560.94</ele>
        <time>2021-03-27T14:38:44Z</time>
      </trkpt>
      <trkpt lat="40.49324" lon="-5.935908">
        <ele>561.37</ele>
        <time>2021-03-27T14:38:46Z</time>
      </trkpt>
      <trkpt lat="40.493261" lon="-5.936033">
        <ele>561.26</ele>
        <time>2021-03-27T14:38:48Z</time>
      </trkpt>
      <trkpt lat="40.493304" lon="-5.936164">
        <ele>560.8</ele>
        <time>2021-03-27T14:38:50Z</time>
      </trkpt>
      <trkpt lat="40.493365" lon="-5.936265">
        <ele>560.21</ele>
        <time>2021-03-27T14:38:52Z</time>
      </trkpt>
      <trkpt lat="40.493543" lon="-5.936452">
        <ele>555.14</ele>
        <time>2021-03-27T14:38:54Z</time>
      </trkpt>
      <trkpt lat="40.493674" lon="-5.936639">
        <ele>551.84</ele>
        <time>2021-03-27T14:38:56Z</time>
      </trkpt>
      <trkpt lat="40.493774" lon="-5.936934">
        <ele>552.4</ele>
        <time>2021-03-27T14:38:58Z</time>
      </trkpt>
      <trkpt lat="40.493846" lon="-5.937305">
        <ele>554.14</ele>
        <time>2021-03-27T14:38:59Z</time>
      </trkpt>
      <trkpt lat="40.493891" lon="-5.937439">
        <ele>554.03</ele>
        <time>2021-03-27T14:39:01Z</time>
      </trkpt>
      <trkpt lat="40.493975" lon="-5.937573">
        <ele>552.94</ele>
        <time>2021-03-27T14:39:03Z</time>
      </trkpt>
      <trkpt lat="40.494511" lon="-5.938271">
        <ele>543.92</ele>
        <time>2021-03-27T14:39:05Z</time>
      </trkpt>
      <trkpt lat="40.495707" lon="-5.938927">
        <ele>533.33</ele>
        <time>2021-03-27T14:39:07Z</time>
      </trkpt>
      <trkpt lat="40.495811" lon="-5.939002">
        <ele>532.04</ele>
        <time>2021-03-27T14:39:09Z</time>
      </trkpt>
      <trkpt lat="40.495892" lon="-5.939107">
        <ele>532.19</ele>
        <time>2021-03-27T14:39:11Z</time>
      </trkpt>
      <trkpt lat="40.495958" lon="-5.939249">
        <ele>532.48</ele>
        <time>2021-03-27T14:39:13Z</time>
      </trkpt>
      <trkpt lat="40.496005" lon="-5.939454">
        <ele>533.5</ele>
        <time>2021-03-27T14:39:14Z</time>
      </trkpt>
      <trkpt lat="40.496043" lon="-5.939772">
        <ele>533.43</ele>
        <time>2021-03-27T14:39:16Z</time>
      </trkpt>
      <trkpt lat="40.496041" lon="-5.939948">
        <ele>533.51</ele>
        <time>2021-03-27T14:39:18Z</time>
      </trkpt>
      <trkpt lat="40.496016" lon="-5.940138">
        <ele>533.91</ele>
        <time>2021-03-27T14:39:20Z</time>
      </trkpt>
      <trkpt lat="40.495933" lon="-5.940447">
        <ele>536.03</ele>
        <time>2021-03-27T14:39:22Z</time>
      </trkpt>
      <trkpt lat="40.495917" lon="-5.940614">
        <ele>536.38</ele>
        <time>2021-03-27T14:39:24Z</time>
      </trkpt>
      <trkpt lat="40.495913" lon="-5.940737">
        <ele>536.69</ele>
        <time>2021-03-27T14:39:26Z</time>
      </trkpt>
      <trkpt lat="40.495944" lon="-5.940908">
        <ele>535.61</ele>
        <time>2021-03-27T14:39:27Z</time>
      </trkpt>
      <trkpt lat="40.496012" lon="-5.941077">
        <ele>532.93</ele>
        <time>2021-03-27T14:39:29Z</time>
      </trkpt>
      <trkpt lat="40.496132" lon="-5.941311">
        <ele>529.73</ele>
        <time>2021-03-27T14:39:31Z</time>
      </trkpt>
      <trkpt lat="40.496414" lon="-5.941791">
        <ele>527.37</ele>
        <time>2021-03-27T14:39:33Z</time>
      </trkpt>
      <trkpt lat="40.496507" lon="-5.941921">
        <ele>527.28</ele>
        <time>2021-03-27T14:39:35Z</time>
      </trkpt>
      <trkpt lat="40.49723" lon="-5.942544">
        <ele>517.45</ele>
        <time>2021-03-27T14:39:37Z</time>
      </trkpt>
      <trkpt lat="40.497418" lon="-5.942781">
        <ele>515.4</ele>
        <time>2021-03-27T14:39:39Z</time>
      </trkpt>
      <trkpt lat="40.497502" lon="-5.942948">
        <ele>514.82</ele>
        <time>2021-03-27T14:39:41Z</time>
      </trkpt>
      <trkpt lat="40.497569" lon="-5.943167">
        <ele>516.91</ele>
        <time>2021-03-27T14:39:42Z</time>
      </trkpt>
      <trkpt lat="40.497664" lon="-5.943628">
        <ele>517.66</ele>
        <time>2021-03-27T14:39:44Z</time>
      </trkpt>
      <trkpt lat="40.497723" lon="-5.943735">
        <ele>516.88</ele>
        <time>2021-03-27T14:39:46Z</time>
      </trkpt>
      <trkpt lat="40.497779" lon="-5.943772">
        <ele>515.99</ele>
        <time>2021-03-27T14:39:48Z</time>
      </trkpt>
      <trkpt lat="40.498297" lon="-5.943963">
        <ele>511.33</ele>
        <time>2021-03-27T14:39:50Z</time>
      </trkpt>
      <trkpt lat="40.498374" lon="-5.944036">
        <ele>512.84</ele>
        <time>2021-03-27T14:39:52Z</time>
      </trkpt>
      <trkpt lat="40.498456" lon="-5.944955">
        <ele>519.16</ele>
        <time>2021-03-27T14:39:54Z</time>
      </trkpt>
      <trkpt lat="40.498399" lon="-5.945263">
        <ele>517.88</ele>
        <time>2021-03-27T14:39:56Z</time>
      </trkpt>
      <trkpt lat="40.498349" lon="-5.945378">
        <ele>517.17</ele>
        <time>2021-03-27T14:39:58Z</time>
      </trkpt>
      <trkpt lat="40.497961" lon="-5.945855">
        <ele>513.47</ele>
        <time>2021-03-27T14:40:00Z</time>
      </trkpt>
      <trkpt lat="40.497705" lon="-5.946115">
        <ele>515.35</ele>
        <time>2021-03-27T14:40:02Z</time>
      </trkpt>
      <trkpt lat="40.496948" lon="-5.946683">
        <ele>519.62</ele>
        <time>2021-03-27T14:40:04Z</time>
      </trkpt>
      <trkpt lat="40.49661" lon="-5.946954">
        <ele>517.95</ele>
        <time>2021-03-27T14:40:07Z</time>
      </trkpt>
      <trkpt lat="40.496232" lon="-5.947364">
        <ele>520.95</ele>
        <time>2021-03-27T14:40:09Z</time>
      </trkpt>
      <trkpt lat="40.49596" lon="-5.947699">
        <ele>522.11</ele>
        <time>2021-03-27T14:40:11Z</time>
      </trkpt>
      <trkpt lat="40.495798" lon="-5.947923">
        <ele>523.33</ele>
        <time>2021-03-27T14:40:13Z</time>
      </trkpt>
      <trkpt lat="40.495734" lon="-5.948072">
        <ele>525.9</ele>
        <time>2021-03-27T14:40:15Z</time>
      </trkpt>
      <trkpt lat="40.495604" lon="-5.948504">
        <ele>531.9</ele>
        <time>2021-03-27T14:40:17Z</time>
      </trkpt>
      <trkpt lat="40.495485" lon="-5.948654">
        <ele>532.89</ele>
        <time>2021-03-27T14:40:19Z</time>
      </trkpt>
      <trkpt lat="40.495401" lon="-5.948698">
        <ele>532.74</ele>
        <time>2021-03-27T14:40:21Z</time>
      </trkpt>
      <trkpt lat="40.495025" lon="-5.948794">
        <ele>530.9</ele>
        <time>2021-03-27T14:40:24Z</time>
      </trkpt>
      <trkpt lat="40.494682" lon="-5.948958">
        <ele>533.45</ele>
        <time>2021-03-27T14:40:26Z</time>
      </trkpt>
      <trkpt lat="40.494409" lon="-5.94911">
        <ele>534.22</ele>
        <time>2021-03-27T14:40:28Z</time>
      </trkpt>
      <trkpt lat="40.494306" lon="-5.949188">
        <ele>534.82</ele>
        <time>2021-03-27T14:40:30Z</time>
      </trkpt>
      <trkpt lat="40.494227" lon="-5.949289">
        <ele>534.6</ele>
        <time>2021-03-27T14:40:32Z</time>
      </trkpt>
      <trkpt lat="40.494174" lon="-5.949442">
        <ele>535.17</ele>
        <time>2021-03-27T14:40:34Z</time>
      </trkpt>
      <trkpt lat="40.494156" lon="-5.9496">
        <ele>535.22</ele>
        <time>2021-03-27T14:40:36Z</time>
      </trkpt>
      <trkpt lat="40.494127" lon="-5.950274">
        <ele>540.39</ele>
        <time>2021-03-27T14:40:38Z</time>
      </trkpt>
      <trkpt lat="40.494062" lon="-5.950655">
        <ele>544.29</ele>
        <time>2021-03-27T14:40:41Z</time>
      </trkpt>
      <trkpt lat="40.493959" lon="-5.951046">
        <ele>546.81</ele>
        <time>2021-03-27T14:40:43Z</time>
      </trkpt>
      <trkpt lat="40.493831" lon="-5.951417">
        <ele>546.54</ele>
        <time>2021-03-27T14:40:45Z</time>
      </trkpt>
      <trkpt lat="40.493648" lon="-5.951858">
        <ele>547.68</ele>
        <time>2021-03-27T14:40:47Z</time>
      </trkpt>
      <trkpt lat="40.493587" lon="-5.95196">
        <ele>547.6</ele>
        <time>2021-03-27T14:40:49Z</time>
      </trkpt>
      <trkpt lat="40.493505" lon="-5.952055">
        <ele>547.54</ele>
        <time>2021-03-27T14:40:51Z</time>
      </trkpt>
      <trkpt lat="40.493256" lon="-5.952282">
        <ele>546.58</ele>
        <time>2021-03-27T14:40:53Z</time>
      </trkpt>
      <trkpt lat="40.493175" lon="-5.952406">
        <ele>547.65</ele>
        <time>2021-03-27T14:40:55Z</time>
      </trkpt>
      <trkpt lat="40.493079" lon="-5.952677">
        <ele>550.23</ele>
        <time>2021-03-27T14:40:58Z</time>
      </trkpt>
      <trkpt lat="40.493028" lon="-5.952994">
        <ele>554.86</ele>
        <time>2021-03-27T14:41:00Z</time>
      </trkpt>
      <trkpt lat="40.492964" lon="-5.953148">
        <ele>556.92</ele>
        <time>2021-03-27T14:41:02Z</time>
      </trkpt>
      <trkpt lat="40.492879" lon="-5.953256">
        <ele>557.89</ele>
        <time>2021-03-27T14:41:04Z</time>
      </trkpt>
      <trkpt lat="40.492794" lon="-5.953321">
        <ele>557.98</ele>
        <time>2021-03-27T14:41:06Z</time>
      </trkpt>
      <trkpt lat="40.4924" lon="-5.953472">
        <ele>554.55</ele>
        <time>2021-03-27T14:41:08Z</time>
      </trkpt>
      <trkpt lat="40.491938" lon="-5.953778">
        <ele>561.05</ele>
        <time>2021-03-27T14:41:10Z</time>
      </trkpt>
      <trkpt lat="40.491831" lon="-5.953799">
        <ele>562.46</ele>
        <time>2021-03-27T14:41:12Z</time>
      </trkpt>
      <trkpt lat="40.491664" lon="-5.953771">
        <ele>562.41</ele>
        <time>2021-03-27T14:41:15Z</time>
      </trkpt>
      <trkpt lat="40.491539" lon="-5.953689">
        <ele>561.72</ele>
        <time>2021-03-27T14:41:17Z</time>
      </trkpt>
      <trkpt lat="40.490967" lon="-5.953221">
        <ele>564.42</ele>
        <time>2021-03-27T14:41:19Z</time>
      </trkpt>
      <trkpt lat="40.49089" lon="-5.953126">
        <ele>564.68</ele>
        <time>2021-03-27T14:41:21Z</time>
      </trkpt>
      <trkpt lat="40.490436" lon="-5.952399">
        <ele>564.55</ele>
        <time>2021-03-27T14:41:23Z</time>
      </trkpt>
      <trkpt lat="40.490207" lon="-5.952175">
        <ele>567.51</ele>
        <time>2021-03-27T14:41:25Z</time>
      </trkpt>
      <trkpt lat="40.490047" lon="-5.952082">
        <ele>568.44</ele>
        <time>2021-03-27T14:41:27Z</time>
      </trkpt>
      <trkpt lat="40.489488" lon="-5.951838">
        <ele>570.09</ele>
        <time>2021-03-27T14:41:29Z</time>
      </trkpt>
      <trkpt lat="40.488932" lon="-5.951432">
        <ele>571.03</ele>
        <time>2021-03-27T14:41:31Z</time>
      </trkpt>
      <trkpt lat="40.488717" lon="-5.951303">
        <ele>570.39</ele>
        <time>2021-03-27T14:41:34Z</time>
      </trkpt>
      <trkpt lat="40.488596" lon="-5.951263">
        <ele>570.2</ele>
        <time>2021-03-27T14:41:36Z</time>
      </trkpt>
      <trkpt lat="40.488508" lon="-5.95126">
        <ele>569.62</ele>
        <time>2021-03-27T14:41:38Z</time>
      </trkpt>
      <trkpt lat="40.488401" lon="-5.951324">
        <ele>569.85</ele>
        <time>2021-03-27T14:41:40Z</time>
      </trkpt>
      <trkpt lat="40.488337" lon="-5.951384">
        <ele>569.99</ele>
        <time>2021-03-27T14:41:42Z</time>
      </trkpt>
      <trkpt lat="40.488274" lon="-5.951507">
        <ele>570.36</ele>
        <time>2021-03-27T14:41:44Z</time>
      </trkpt>
      <trkpt lat="40.488231" lon="-5.951649">
        <ele>570.89</ele>
        <time>2021-03-27T14:41:46Z</time>
      </trkpt>
      <trkpt lat="40.488205" lon="-5.951781">
        <ele>571.58</ele>
        <time>2021-03-27T14:41:48Z</time>
      </trkpt>
      <trkpt lat="40.488132" lon="-5.952924">
        <ele>572.7</ele>
        <time>2021-03-27T14:41:51Z</time>
      </trkpt>
      <trkpt lat="40.488164" lon="-5.953929">
        <ele>583.34</ele>
        <time>2021-03-27T14:41:53Z</time>
      </trkpt>
      <trkpt lat="40.488129" lon="-5.954066">
        <ele>583.7</ele>
        <time>2021-03-27T14:41:55Z</time>
      </trkpt>
      <trkpt lat="40.488058" lon="-5.954204">
        <ele>583.45</ele>
        <time>2021-03-27T14:41:57Z</time>
      </trkpt>
      <trkpt lat="40.4879" lon="-5.954344">
        <ele>583.19</ele>
        <time>2021-03-27T14:41:59Z</time>
      </trkpt>
      <trkpt lat="40.487799" lon="-5.954387">
        <ele>582.96</ele>
        <time>2021-03-27T14:42:01Z</time>
      </trkpt>
      <trkpt lat="40.48772" lon="-5.954407">
        <ele>583.59</ele>
        <time>2021-03-27T14:42:03Z</time>
      </trkpt>
      <trkpt lat="40.48762" lon="-5.954393">
        <ele>583.92</ele>
        <time>2021-03-27T14:42:05Z</time>
      </trkpt>
      <trkpt lat="40.487389" lon="-5.9543">
        <ele>584.93</ele>
        <time>2021-03-27T14:42:08Z</time>
      </trkpt>
      <trkpt lat="40.486594" lon="-5.953813">
        <ele>587.34</ele>
        <time>2021-03-27T14:42:10Z</time>
      </trkpt>
      <trkpt lat="40.486386" lon="-5.953726">
        <ele>588.6</ele>
        <time>2021-03-27T14:42:12Z</time>
      </trkpt>
      <trkpt lat="40.486027" lon="-5.953639">
        <ele>591.88</ele>
        <time>2021-03-27T14:42:14Z</time>
      </trkpt>
      <trkpt lat="40.485831" lon="-5.953612">
        <ele>593.04</ele>
        <time>2021-03-27T14:42:16Z</time>
      </trkpt>
      <trkpt lat="40.485214" lon="-5.953652">
        <ele>597.54</ele>
        <time>2021-03-27T14:42:18Z</time>
      </trkpt>
      <trkpt lat="40.484289" lon="-5.953515">
        <ele>600.96</ele>
        <time>2021-03-27T14:42:20Z</time>
      </trkpt>
      <trkpt lat="40.484162" lon="-5.953465">
        <ele>601.43</ele>
        <time>2021-03-27T14:42:22Z</time>
      </trkpt>
      <trkpt lat="40.484025" lon="-5.953325">
        <ele>601.91</ele>
        <time>2021-03-27T14:42:25Z</time>
      </trkpt>
      <trkpt lat="40.483803" lon="-5.952785">
        <ele>597.65</ele>
        <time>2021-03-27T14:42:27Z</time>
      </trkpt>
      <trkpt lat="40.483747" lon="-5.952709">
        <ele>597.36</ele>
        <time>2021-03-27T14:42:29Z</time>
      </trkpt>
      <trkpt lat="40.483601" lon="-5.952579">
        <ele>598.06</ele>
        <time>2021-03-27T14:42:31Z</time>
      </trkpt>
      <trkpt lat="40.483515" lon="-5.952549">
        <ele>597.98</ele>
        <time>2021-03-27T14:42:33Z</time>
      </trkpt>
      <trkpt lat="40.483407" lon="-5.952555">
        <ele>598.86</ele>
        <time>2021-03-27T14:42:35Z</time>
      </trkpt>
      <trkpt lat="40.483304" lon="-5.952604">
        <ele>598.84</ele>
        <time>2021-03-27T14:42:37Z</time>
      </trkpt>
      <trkpt lat="40.48321" lon="-5.952677">
        <ele>596.56</ele>
        <time>2021-03-27T14:42:39Z</time>
      </trkpt>
      <trkpt lat="40.483128" lon="-5.952785">
        <ele>595.24</ele>
        <time>2021-03-27T14:42:42Z</time>
      </trkpt>
      <trkpt lat="40.483059" lon="-5.95293">
        <ele>596.39</ele>
        <time>2021-03-27T14:42:44Z</time>
      </trkpt>
      <trkpt lat="40.482883" lon="-5.953691">
        <ele>595.24</ele>
        <time>2021-03-27T14:42:46Z</time>
      </trkpt>
      <trkpt lat="40.482786" lon="-5.954211">
        <ele>593.54</ele>
        <time>2021-03-27T14:42:48Z</time>
      </trkpt>
      <trkpt lat="40.482786" lon="-5.954401">
        <ele>593.56</ele>
        <time>2021-03-27T14:42:50Z</time>
      </trkpt>
      <trkpt lat="40.482798" lon="-5.954558">
        <ele>593.97</ele>
        <time>2021-03-27T14:42:52Z</time>
      </trkpt>
      <trkpt lat="40.482833" lon="-5.954725">
        <ele>595.58</ele>
        <time>2021-03-27T14:42:54Z</time>
      </trkpt>
      <trkpt lat="40.48292" lon="-5.95498">
        <ele>598.85</ele>
        <time>2021-03-27T14:42:56Z</time>
      </trkpt>
      <trkpt lat="40.482969" lon="-5.955077">
        <ele>599.84</ele>
        <time>2021-03-27T14:42:58Z</time>
      </trkpt>
      <trkpt lat="40.483125" lon="-5.955286">
        <ele>603.9</ele>
        <time>2021-03-27T14:43:01Z</time>
      </trkpt>
      <trkpt lat="40.483171" lon="-5.95537">
        <ele>605.06</ele>
        <time>2021-03-27T14:43:03Z</time>
      </trkpt>
      <trkpt lat="40.483216" lon="-5.955508">
        <ele>604.98</ele>
        <time>2021-03-27T14:43:05Z</time>
      </trkpt>
      <trkpt lat="40.483325" lon="-5.956068">
        <ele>605.68</ele>
        <time>2021-03-27T14:43:07Z</time>
      </trkpt>
      <trkpt lat="40.483472" lon="-5.957363">
        <ele>605.98</ele>
        <time>2021-03-27T14:43:09Z</time>
      </trkpt>
      <trkpt lat="40.483484" lon="-5.957581">
        <ele>607.17</ele>
        <time>2021-03-27T14:43:11Z</time>
      </trkpt>
      <trkpt lat="40.483389" lon="-5.958092">
        <ele>603.98</ele>
        <time>2021-03-27T14:43:13Z</time>
      </trkpt>
      <trkpt lat="40.483362" lon="-5.958387">
        <ele>605.31</ele>
        <time>2021-03-27T14:43:15Z</time>
      </trkpt>
      <trkpt lat="40.483331" lon="-5.959629">
        <ele>609.27</ele>
        <time>2021-03-27T14:43:18Z</time>
      </trkpt>
      <trkpt lat="40.483315" lon="-5.959774">
        <ele>608.93</ele>
        <time>2021-03-27T14:43:20Z</time>
      </trkpt>
      <trkpt lat="40.483268" lon="-5.959967">
        <ele>609.31</ele>
        <time>2021-03-27T14:43:22Z</time>
      </trkpt>
      <trkpt lat="40.482746" lon="-5.96127">
        <ele>613.5</ele>
        <time>2021-03-27T14:43:24Z</time>
      </trkpt>
      <trkpt lat="40.482485" lon="-5.961732">
        <ele>613.69</ele>
        <time>2021-03-27T14:43:26Z</time>
      </trkpt>
      <trkpt lat="40.48208" lon="-5.962292">
        <ele>608.13</ele>
        <time>2021-03-27T14:43:28Z</time>
      </trkpt>
      <trkpt lat="40.482051" lon="-5.962376">
        <ele>608.01</ele>
        <time>2021-03-27T14:43:30Z</time>
      </trkpt>
      <trkpt lat="40.482028" lon="-5.962533">
        <ele>608.72</ele>
        <time>2021-03-27T14:43:32Z</time>
      </trkpt>
      <trkpt lat="40.48206" lon="-5.962664">
        <ele>609.75</ele>
        <time>2021-03-27T14:43:35Z</time>
      </trkpt>
      <trkpt lat="40.482125" lon="-5.962782">
        <ele>611.78</ele>
        <time>2021-03-27T14:43:37Z</time>
      </trkpt>
      <trkpt lat="40.482193" lon="-5.962842">
        <ele>612.93</ele>
        <time>2021-03-27T14:43:39Z</time>
      </trkpt>
      <trkpt lat="40.482397" lon="-5.962928">
        <ele>617.38</ele>
        <time>2021-03-27T14:43:41Z</time>
      </trkpt>
      <trkpt lat="40.48249" lon="-5.962988">
        <ele>619.41</ele>
        <time>2021-03-27T14:43:43Z</time>
      </trkpt>
      <trkpt lat="40.482594" lon="-5.963139">
        <ele>619.5</ele>
        <time>2021-03-27T14:43:45Z</time>
      </trkpt>
      <trkpt lat="40.482631" lon="-5.963277">
        <ele>618.51</ele>
        <time>2021-03-27T14:43:47Z</time>
      </trkpt>
      <trkpt lat="40.482827" lon="-5.964672">
        <ele>614.35</ele>
        <time>2021-03-27T14:43:49Z</time>
      </trkpt>
      <trkpt lat="40.483" lon="-5.965377">
        <ele>615.96</ele>
        <time>2021-03-27T14:43:52Z</time>
      </trkpt>
      <trkpt lat="40.483002" lon="-5.965561">
        <ele>615.27</ele>
        <time>2021-03-27T14:43:54Z</time>
      </trkpt>
      <trkpt lat="40.482959" lon="-5.966241">
        <ele>611.48</ele>
        <time>2021-03-27T14:43:56Z</time>
      </trkpt>
      <trkpt lat="40.48299" lon="-5.966503">
        <ele>611.17</ele>
        <time>2021-03-27T14:43:58Z</time>
      </trkpt>
      <trkpt lat="40.483033" lon="-5.966628">
        <ele>611.49</ele>
        <time>2021-03-27T14:44:00Z</time>
      </trkpt>
      <trkpt lat="40.483095" lon="-5.966736">
        <ele>611.8</ele>
        <time>2021-03-27T14:44:02Z</time>
      </trkpt>
      <trkpt lat="40.483256" lon="-5.9669">
        <ele>612.36</ele>
        <time>2021-03-27T14:44:04Z</time>
      </trkpt>
      <trkpt lat="40.483825" lon="-5.967285">
        <ele>612.23</ele>
        <time>2021-03-27T14:44:06Z</time>
      </trkpt>
      <trkpt lat="40.484064" lon="-5.967423">
        <ele>610.56</ele>
        <time>2021-03-27T14:44:09Z</time>
      </trkpt>
      <trkpt lat="40.484247" lon="-5.967504">
        <ele>610.28</ele>
        <time>2021-03-27T14:44:11Z</time>
      </trkpt>
      <trkpt lat="40.484563" lon="-5.967586">
        <ele>611.11</ele>
        <time>2021-03-27T14:44:13Z</time>
      </trkpt>
      <trkpt lat="40.484692" lon="-5.967583">
        <ele>612.52</ele>
        <time>2021-03-27T14:44:15Z</time>
      </trkpt>
      <trkpt lat="40.48484" lon="-5.967537">
        <ele>613.12</ele>
        <time>2021-03-27T14:44:17Z</time>
      </trkpt>
      <trkpt lat="40.485419" lon="-5.967247">
        <ele>611.6</ele>
        <time>2021-03-27T14:44:19Z</time>
      </trkpt>
      <trkpt lat="40.486038" lon="-5.967029">
        <ele>618.79</ele>
        <time>2021-03-27T14:44:21Z</time>
      </trkpt>
      <trkpt lat="40.486363" lon="-5.966947">
        <ele>617.42</ele>
        <time>2021-03-27T14:44:23Z</time>
      </trkpt>
      <trkpt lat="40.486515" lon="-5.966928">
        <ele>615.89</ele>
        <time>2021-03-27T14:44:25Z</time>
      </trkpt>
      <trkpt lat="40.487053" lon="-5.966909">
        <ele>616.09</ele>
        <time>2021-03-27T14:44:28Z</time>
      </trkpt>
      <trkpt lat="40.487422" lon="-5.966867">
        <ele>613.12</ele>
        <time>2021-03-27T14:44:30Z</time>
      </trkpt>
      <trkpt lat="40.48774" lon="-5.966782">
        <ele>614.92</ele>
        <time>2021-03-27T14:44:32Z</time>
      </trkpt>
      <trkpt lat="40.488442" lon="-5.96649">
        <ele>617.21</ele>
        <time>2021-03-27T14:44:34Z</time>
      </trkpt>
      <trkpt lat="40.488563" lon="-5.966473">
        <ele>616.58</ele>
        <time>2021-03-27T14:44:36Z</time>
      </trkpt>
      <trkpt lat="40.488675" lon="-5.966484">
        <ele>616.33</ele>
        <time>2021-03-27T14:44:38Z</time>
      </trkpt>
      <trkpt lat="40.489675" lon="-5.96686">
        <ele>611.43</ele>
        <time>2021-03-27T14:44:40Z</time>
      </trkpt>
      <trkpt lat="40.489889" lon="-5.966899">
        <ele>610.66</ele>
        <time>2021-03-27T14:44:42Z</time>
      </trkpt>
      <trkpt lat="40.489988" lon="-5.966874">
        <ele>611.02</ele>
        <time>2021-03-27T14:44:45Z</time>
      </trkpt>
      <trkpt lat="40.490068" lon="-5.966823">
        <ele>610.77</ele>
        <time>2021-03-27T14:44:47Z</time>
      </trkpt>
      <trkpt lat="40.490154" lon="-5.96673">
        <ele>610.85</ele>
        <time>2021-03-27T14:44:49Z</time>
      </trkpt>
      <trkpt lat="40.490236" lon="-5.966562">
        <ele>611.04</ele>
        <time>2021-03-27T14:44:51Z</time>
      </trkpt>
      <trkpt lat="40.490279" lon="-5.966144">
        <ele>611.86</ele>
        <time>2021-03-27T14:44:53Z</time>
      </trkpt>
      <trkpt lat="40.490313" lon="-5.965956">
        <ele>612.6</ele>
        <time>2021-03-27T14:44:55Z</time>
      </trkpt>
      <trkpt lat="40.490352" lon="-5.965832">
        <ele>612.96</ele>
        <time>2021-03-27T14:44:57Z</time>
      </trkpt>
      <trkpt lat="40.490571" lon="-5.965445">
        <ele>618.13</ele>
        <time>2021-03-27T14:44:59Z</time>
      </trkpt>
      <trkpt lat="40.490646" lon="-5.965358">
        <ele>619.84</ele>
        <time>2021-03-27T14:45:02Z</time>
      </trkpt>
      <trkpt lat="40.490803" lon="-5.965253">
        <ele>619.65</ele>
        <time>2021-03-27T14:45:04Z</time>
      </trkpt>
      <trkpt lat="40.490885" lon="-5.965247">
        <ele>619.01</ele>
        <time>2021-03-27T14:45:06Z</time>
      </trkpt>
      <trkpt lat="40.490951" lon="-5.965279">
        <ele>618.56</ele>
        <time>2021-03-27T14:45:08Z</time>
      </trkpt>
      <trkpt lat="40.491027" lon="-5.965337">
        <ele>617.81</ele>
        <time>2021-03-27T14:45:10Z</time>
      </trkpt>
      <trkpt lat="40.491188" lon="-5.965684">
        <ele>616.01</ele>
        <time>2021-03-27T14:45:12Z</time>
      </trkpt>
      <trkpt lat="40.491209" lon="-5.965768">
        <ele>615.98</ele>
        <time>2021-03-27T14:45:14Z</time>
      </trkpt>
      <trkpt lat="40.491262" lon="-5.965978">
        <ele>616.47</ele>
        <time>2021-03-27T14:45:16Z</time>
      </trkpt>
      <trkpt lat="40.491311" lon="-5.966337">
        <ele>615.46</ele>
        <time>2021-03-27T14:45:19Z</time>
      </trkpt>
      <trkpt lat="40.491365" lon="-5.967255">
        <ele>616.29</ele>
        <time>2021-03-27T14:45:21Z</time>
      </trkpt>
      <trkpt lat="40.491389" lon="-5.967454">
        <ele>617.01</ele>
        <time>2021-03-27T14:45:23Z</time>
      </trkpt>
      <trkpt lat="40.49142" lon="-5.967572">
        <ele>617.13</ele>
        <time>2021-03-27T14:45:25Z</time>
      </trkpt>
      <trkpt lat="40.491488" lon="-5.967734">
        <ele>617.33</ele>
        <time>2021-03-27T14:45:27Z</time>
      </trkpt>
      <trkpt lat="40.491885" lon="-5.968481">
        <ele>618.24</ele>
        <time>2021-03-27T14:45:29Z</time>
      </trkpt>
      <trkpt lat="40.492052" lon="-5.968827">
        <ele>618.39</ele>
        <time>2021-03-27T14:45:31Z</time>
      </trkpt>
      <trkpt lat="40.492091" lon="-5.96905">
        <ele>618.06</ele>
        <time>2021-03-27T14:45:33Z</time>
      </trkpt>
      <trkpt lat="40.49207" lon="-5.969304">
        <ele>617.76</ele>
        <time>2021-03-27T14:45:36Z</time>
      </trkpt>
      <trkpt lat="40.49202" lon="-5.969454">
        <ele>617.47</ele>
        <time>2021-03-27T14:45:38Z</time>
      </trkpt>
      <trkpt lat="40.491786" lon="-5.969863">
        <ele>617.22</ele>
        <time>2021-03-27T14:45:40Z</time>
      </trkpt>
      <trkpt lat="40.491724" lon="-5.969975">
        <ele>616.74</ele>
        <time>2021-03-27T14:45:42Z</time>
      </trkpt>
      <trkpt lat="40.49167" lon="-5.970178">
        <ele>615.41</ele>
        <time>2021-03-27T14:45:44Z</time>
      </trkpt>
      <trkpt lat="40.49167" lon="-5.970396">
        <ele>614.22</ele>
        <time>2021-03-27T14:45:46Z</time>
      </trkpt>
      <trkpt lat="40.49178" lon="-5.970857">
        <ele>614.09</ele>
        <time>2021-03-27T14:45:48Z</time>
      </trkpt>
      <trkpt lat="40.491802" lon="-5.971047">
        <ele>613.36</ele>
        <time>2021-03-27T14:45:50Z</time>
      </trkpt>
      <trkpt lat="40.491798" lon="-5.971355">
        <ele>612.36</ele>
        <time>2021-03-27T14:45:52Z</time>
      </trkpt>
      <trkpt lat="40.491732" lon="-5.971892">
        <ele>610.03</ele>
        <time>2021-03-27T14:45:54Z</time>
      </trkpt>
      <trkpt lat="40.491582" lon="-5.972748">
        <ele>604.91</ele>
        <time>2021-03-27T14:45:56Z</time>
      </trkpt>
      <trkpt lat="40.491545" lon="-5.973033">
        <ele>605.05</ele>
        <time>2021-03-27T14:45:59Z</time>
      </trkpt>
      <trkpt lat="40.491542" lon="-5.973211">
        <ele>605.81</ele>
        <time>2021-03-27T14:46:01Z</time>
      </trkpt>
      <trkpt lat="40.49158" lon="-5.973403">
        <ele>607.33</ele>
        <time>2021-03-27T14:46:03Z</time>
      </trkpt>
      <trkpt lat="40.491675" lon="-5.973591">
        <ele>609.14</ele>
        <time>2021-03-27T14:46:05Z</time>
      </trkpt>
      <trkpt lat="40.491764" lon="-5.973695">
        <ele>608.38</ele>
        <time>2021-03-27T14:46:07Z</time>
      </trkpt>
      <trkpt lat="40.491874" lon="-5.973785">
        <ele>607.52</ele>
        <time>2021-03-27T14:46:09Z</time>
      </trkpt>
      <trkpt lat="40.4927" lon="-5.974132">
        <ele>602.47</ele>
        <time>2021-03-27T14:46:11Z</time>
      </trkpt>
      <trkpt lat="40.492883" lon="-5.974235">
        <ele>602.57</ele>
        <time>2021-03-27T14:46:13Z</time>
      </trkpt>
      <trkpt lat="40.493024" lon="-5.974343">
        <ele>602.68</ele>
        <time>2021-03-27T14:46:15Z</time>
      </trkpt>
      <trkpt lat="40.49328" lon="-5.974604">
        <ele>602.06</ele>
        <time>2021-03-27T14:46:17Z</time>
      </trkpt>
      <trkpt lat="40.49341" lon="-5.974778">
        <ele>601.91</ele>
        <time>2021-03-27T14:46:20Z</time>
      </trkpt>
      <trkpt lat="40.493534" lon="-5.974991">
        <ele>602.17</ele>
        <time>2021-03-27T14:46:22Z</time>
      </trkpt>
      <trkpt lat="40.493654" lon="-5.975246">
        <ele>601.23</ele>
        <time>2021-03-27T14:46:24Z</time>
      </trkpt>
      <trkpt lat="40.493732" lon="-5.97547">
        <ele>600.8</ele>
        <time>2021-03-27T14:46:26Z</time>
      </trkpt>
      <trkpt lat="40.49383" lon="-5.975937">
        <ele>599.22</ele>
        <time>2021-03-27T14:46:28Z</time>
      </trkpt>
      <trkpt lat="40.493846" lon="-5.976183">
        <ele>595.98</ele>
        <time>2021-03-27T14:46:30Z</time>
      </trkpt>
      <trkpt lat="40.49384" lon="-5.976565">
        <ele>592.83</ele>
        <time>2021-03-27T14:46:32Z</time>
      </trkpt>
      <trkpt lat="40.493803" lon="-5.976863">
        <ele>594.33</ele>
        <time>2021-03-27T14:46:34Z</time>
      </trkpt>
      <trkpt lat="40.493736" lon="-5.97715">
        <ele>597.96</ele>
        <time>2021-03-27T14:46:36Z</time>
      </trkpt>
      <trkpt lat="40.493651" lon="-5.977418">
        <ele>603.34</ele>
        <time>2021-03-27T14:46:38Z</time>
      </trkpt>
      <trkpt lat="40.493472" lon="-5.977782">
        <ele>608.53</ele>
        <time>2021-03-27T14:46:40Z</time>
      </trkpt>
      <trkpt lat="40.49321" lon="-5.978153">
        <ele>610.5</ele>
        <time>2021-03-27T14:46:43Z</time>
      </trkpt>
      <trkpt lat="40.492963" lon="-5.978374">
        <ele>613.44</ele>
        <time>2021-03-27T14:46:45Z</time>
      </trkpt>
      <trkpt lat="40.492589" lon="-5.978587">
        <ele>618.58</ele>
        <time>2021-03-27T14:46:47Z</time>
      </trkpt>
      <trkpt lat="40.488077" lon="-5.980424">
        <ele>647.18</ele>
        <time>2021-03-27T14:46:49Z</time>
      </trkpt>
      <trkpt lat="40.48766" lon="-5.980619">
        <ele>649.42</ele>
        <time>2021-03-27T14:46:51Z</time>
      </trkpt>
      <trkpt lat="40.487567" lon="-5.980688">
        <ele>651.22</ele>
        <time>2021-03-27T14:46:53Z</time>
      </trkpt>
      <trkpt lat="40.487434" lon="-5.980826">
        <ele>653.43</ele>
        <time>2021-03-27T14:46:55Z</time>
      </trkpt>
      <trkpt lat="40.487262" lon="-5.981097">
        <ele>654.85</ele>
        <time>2021-03-27T14:46:57Z</time>
      </trkpt>
      <trkpt lat="40.4872" lon="-5.981278">
        <ele>655.68</ele>
        <time>2021-03-27T14:46:59Z</time>
      </trkpt>
      <trkpt lat="40.487152" lon="-5.981578">
        <ele>656.25</ele>
        <time>2021-03-27T14:47:01Z</time>
      </trkpt>
      <trkpt lat="40.487152" lon="-5.981769">
        <ele>656.16</ele>
        <time>2021-03-27T14:47:03Z</time>
      </trkpt>
      <trkpt lat="40.487178" lon="-5.981987">
        <ele>655.84</ele>
        <time>2021-03-27T14:47:06Z</time>
      </trkpt>
      <trkpt lat="40.487214" lon="-5.982141">
        <ele>655.29</ele>
        <time>2021-03-27T14:47:08Z</time>
      </trkpt>
      <trkpt lat="40.487314" lon="-5.982402">
        <ele>654.02</ele>
        <time>2021-03-27T14:47:10Z</time>
      </trkpt>
      <trkpt lat="40.488238" lon="-5.984648">
        <ele>647.0</ele>
        <time>2021-03-27T14:47:12Z</time>
      </trkpt>
      <trkpt lat="40.488378" lon="-5.9851">
        <ele>646.48</ele>
        <time>2021-03-27T14:47:14Z</time>
      </trkpt>
      <trkpt lat="40.488387" lon="-5.985376">
        <ele>645.03</ele>
        <time>2021-03-27T14:47:16Z</time>
      </trkpt>
      <trkpt lat="40.488363" lon="-5.985524">
        <ele>644.02</ele>
        <time>2021-03-27T14:47:18Z</time>
      </trkpt>
      <trkpt lat="40.488262" lon="-5.985789">
        <ele>643.68</ele>
        <time>2021-03-27T14:47:20Z</time>
      </trkpt>
      <trkpt lat="40.488162" lon="-5.985925">
        <ele>643.37</ele>
        <time>2021-03-27T14:47:22Z</time>
      </trkpt>
      <trkpt lat="40.487819" lon="-5.986282">
        <ele>641.24</ele>
        <time>2021-03-27T14:47:24Z</time>
      </trkpt>
      <trkpt lat="40.48769" lon="-5.986476">
        <ele>639.7</ele>
        <time>2021-03-27T14:47:27Z</time>
      </trkpt>
      <trkpt lat="40.487591" lon="-5.986806">
        <ele>635.52</ele>
        <time>2021-03-27T14:47:29Z</time>
      </trkpt>
      <trkpt lat="40.487583" lon="-5.986957">
        <ele>633.46</ele>
        <time>2021-03-27T14:47:31Z</time>
      </trkpt>
      <trkpt lat="40.487598" lon="-5.987141">
        <ele>632.53</ele>
        <time>2021-03-27T14:47:33Z</time>
      </trkpt>
      <trkpt lat="40.487719" lon="-5.988041">
        <ele>628.32</ele>
        <time>2021-03-27T14:47:35Z</time>
      </trkpt>
      <trkpt lat="40.487715" lon="-5.988225">
        <ele>627.13</ele>
        <time>2021-03-27T14:47:37Z</time>
      </trkpt>
      <trkpt lat="40.487678" lon="-5.988439">
        <ele>625.52</ele>
        <time>2021-03-27T14:47:39Z</time>
      </trkpt>
      <trkpt lat="40.487626" lon="-5.988649">
        <ele>624.01</ele>
        <time>2021-03-27T14:47:41Z</time>
      </trkpt>
      <trkpt lat="40.487548" lon="-5.988866">
        <ele>624.01</ele>
        <time>2021-03-27T14:47:43Z</time>
      </trkpt>
      <trkpt lat="40.487341" lon="-5.989253">
        <ele>622.88</ele>
        <time>2021-03-27T14:47:45Z</time>
      </trkpt>
      <trkpt lat="40.486902" lon="-5.989673">
        <ele>619.16</ele>
        <time>2021-03-27T14:47:47Z</time>
      </trkpt>
      <trkpt lat="40.486802" lon="-5.989816">
        <ele>618.19</ele>
        <time>2021-03-27T14:47:50Z</time>
      </trkpt>
      <trkpt lat="40.486722" lon="-5.990001">
        <ele>616.4</ele>
        <time>2021-03-27T14:47:52Z</time>
      </trkpt>
      <trkpt lat="40.486681" lon="-5.990191">
        <ele>616.09</ele>
        <time>2021-03-27T14:47:54Z</time>
      </trkpt>
      <trkpt lat="40.486644" lon="-5.990891">
        <ele>616.42</ele>
        <time>2021-03-27T14:47:56Z</time>
      </trkpt>
      <trkpt lat="40.486588" lon="-5.99148">
        <ele>611.57</ele>
        <time>2021-03-27T14:47:58Z</time>
      </trkpt>
      <trkpt lat="40.486536" lon="-5.991759">
        <ele>610.06</ele>
        <time>2021-03-27T14:48:00Z</time>
      </trkpt>
      <trkpt lat="40.486038" lon="-5.993309">
        <ele>603.44</ele>
        <time>2021-03-27T14:48:02Z</time>
      </trkpt>
      <trkpt lat="40.485993" lon="-5.993506">
        <ele>603.07</ele>
        <time>2021-03-27T14:48:04Z</time>
      </trkpt>
      <trkpt lat="40.485984" lon="-5.993642">
        <ele>602.52</ele>
        <time>2021-03-27T14:48:06Z</time>
      </trkpt>
      <trkpt lat="40.48604" lon="-5.993915">
        <ele>600.38</ele>
        <time>2021-03-27T14:48:08Z</time>
      </trkpt>
      <trkpt lat="40.486103" lon="-5.994061">
        <ele>598.87</ele>
        <time>2021-03-27T14:48:11Z</time>
      </trkpt>
      <trkpt lat="40.486194" lon="-5.994171">
        <ele>596.34</ele>
        <time>2021-03-27T14:48:13Z</time>
      </trkpt>
      <trkpt lat="40.486371" lon="-5.994322">
        <ele>591.68</ele>
        <time>2021-03-27T14:48:15Z</time>
      </trkpt>
      <trkpt lat="40.486482" lon="-5.994476">
        <ele>589.14</ele>
        <time>2021-03-27T14:48:17Z</time>
      </trkpt>
      <trkpt lat="40.486523" lon="-5.994621">
        <ele>588.31</ele>
        <time>2021-03-27T14:48:19Z</time>
      </trkpt>
      <trkpt lat="40.486532" lon="-5.994794">
        <ele>588.22</ele>
        <time>2021-03-27T14:48:21Z</time>
      </trkpt>
      <trkpt lat="40.486501" lon="-5.99618">
        <ele>584.47</ele>
        <time>2021-03-27T14:48:23Z</time>
      </trkpt>
      <trkpt lat="40.486473" lon="-5.996377">
        <ele>582.28</ele>
        <time>2021-03-27T14:48:25Z</time>
      </trkpt>
      <trkpt lat="40.486265" lon="-5.99709">
        <ele>577.92</ele>
        <time>2021-03-27T14:48:27Z</time>
      </trkpt>
      <trkpt lat="40.486272" lon="-5.997873">
        <ele>577.05</ele>
        <time>2021-03-27T14:48:29Z</time>
      </trkpt>
      <trkpt lat="40.486291" lon="-5.998032">
        <ele>577.36</ele>
        <time>2021-03-27T14:48:31Z</time>
      </trkpt>
      <trkpt lat="40.486337" lon="-5.998183">
        <ele>576.35</ele>
        <time>2021-03-27T14:48:34Z</time>
      </trkpt>
      <trkpt lat="40.486421" lon="-5.998376">
        <ele>574.38</ele>
        <time>2021-03-27T14:48:36Z</time>
      </trkpt>
      <trkpt lat="40.486616" lon="-5.998621">
        <ele>570.43</ele>
        <time>2021-03-27T14:48:38Z</time>
      </trkpt>
      <trkpt lat="40.487096" lon="-5.99909">
        <ele>565.98</ele>
        <time>2021-03-27T14:48:40Z</time>
      </trkpt>
      <trkpt lat="40.487298" lon="-5.999358">
        <ele>563.85</ele>
        <time>2021-03-27T14:48:42Z</time>
      </trkpt>
      <trkpt lat="40.48749" lon="-5.999682">
        <ele>560.81</ele>
        <time>2021-03-27T14:48:44Z</time>
      </trkpt>
      <trkpt lat="40.487639" lon="-5.999984">
        <ele>558.77</ele>
        <time>2021-03-27T14:48:46Z</time>
      </trkpt>
      <trkpt lat="40.487787" lon="-6.000413">
        <ele>556.64</ele>
        <time>2021-03-27T14:48:48Z</time>
      </trkpt>
      <trkpt lat="40.487942" lon="-6.001093">
        <ele>553.44</ele>
        <time>2021-03-27T14:48:50Z</time>
      </trkpt>
      <trkpt lat="40.487988" lon="-6.001349">
        <ele>550.82</ele>
        <time>2021-03-27T14:48:52Z</time>
      </trkpt>
      <trkpt lat="40.487986" lon="-6.001702">
        <ele>548.23</ele>
        <time>2021-03-27T14:48:54Z</time>
      </trkpt>
      <trkpt lat="40.487908" lon="-6.002015">
        <ele>548.14</ele>
        <time>2021-03-27T14:48:57Z</time>
      </trkpt>
      <trkpt lat="40.487828" lon="-6.00218">
        <ele>548.99</ele>
        <time>2021-03-27T14:48:59Z</time>
      </trkpt>
      <trkpt lat="40.487525" lon="-6.002678">
        <ele>545.95</ele>
        <time>2021-03-27T14:49:01Z</time>
      </trkpt>
      <trkpt lat="40.487395" lon="-6.00292">
        <ele>544.78</ele>
        <time>2021-03-27T14:49:03Z</time>
      </trkpt>
      <trkpt lat="40.487263" lon="-6.003324">
        <ele>541.61</ele>
        <time>2021-03-27T14:49:05Z</time>
      </trkpt>
      <trkpt lat="40.48712" lon="-6.004046">
        <ele>533.81</ele>
        <time>2021-03-27T14:49:07Z</time>
      </trkpt>
      <trkpt lat="40.487027" lon="-6.004359">
        <ele>532.97</ele>
        <time>2021-03-27T14:49:09Z</time>
      </trkpt>
      <trkpt lat="40.486382" lon="-6.005332">
        <ele>526.79</ele>
        <time>2021-03-27T14:49:11Z</time>
      </trkpt>
      <trkpt lat="40.486084" lon="-6.005648">
        <ele>525.92</ele>
        <time>2021-03-27T14:49:13Z</time>
      </trkpt>
      <trkpt lat="40.485902" lon="-6.005802">
        <ele>527.88</ele>
        <time>2021-03-27T14:49:15Z</time>
      </trkpt>
      <trkpt lat="40.485715" lon="-6.005927">
        <ele>529.19</ele>
        <time>2021-03-27T14:49:18Z</time>
      </trkpt>
      <trkpt lat="40.485359" lon="-6.006109">
        <ele>526.65</ele>
        <time>2021-03-27T14:49:20Z</time>
      </trkpt>
      <trkpt lat="40.485309" lon="-6.00616">
        <ele>525.18</ele>
        <time>2021-03-27T14:49:22Z</time>
      </trkpt>
      <trkpt lat="40.485268" lon="-6.006245">
        <ele>523.04</ele>
        <time>2021-03-27T14:49:24Z</time>
      </trkpt>
      <trkpt lat="40.485259" lon="-6.006365">
        <ele>520.39</ele>
        <time>2021-03-27T14:49:26Z</time>
      </trkpt>
      <trkpt lat="40.485333" lon="-6.00705">
        <ele>527.45</ele>
        <time>2021-03-27T14:49:28Z</time>
      </trkpt>
      <trkpt lat="40.485618" lon="-6.007736">
        <ele>531.48</ele>
        <time>2021-03-27T14:49:30Z</time>
      </trkpt>
      <trkpt lat="40.485681" lon="-6.008058">
        <ele>531.74</ele>
        <time>2021-03-27T14:49:32Z</time>
      </trkpt>
      <trkpt lat="40.485677" lon="-6.008248">
        <ele>532.2</ele>
        <time>2021-03-27T14:49:34Z</time>
      </trkpt>
      <trkpt lat="40.485655" lon="-6.008365">
        <ele>532.62</ele>
        <time>2021-03-27T14:49:36Z</time>
      </trkpt>
      <trkpt lat="40.485621" lon="-6.008629">
        <ele>531.47</ele>
        <time>2021-03-27T14:49:38Z</time>
      </trkpt>
      <trkpt lat="40.485575" lon="-6.008849">
        <ele>530.92</ele>
        <time>2021-03-27T14:49:41Z</time>
      </trkpt>
      <trkpt lat="40.485582" lon="-6.008984">
        <ele>530.14</ele>
        <time>2021-03-27T14:49:43Z</time>
      </trkpt>
      <trkpt lat="40.485678" lon="-6.009261">
        <ele>526.26</ele>
        <time>2021-03-27T14:49:45Z</time>
      </trkpt>
      <trkpt lat="40.485738" lon="-6.00938">
        <ele>524.23</ele>
        <time>2021-03-27T14:49:47Z</time>
      </trkpt>
      <trkpt lat="40.485766" lon="-6.009484">
        <ele>523.37</ele>
        <time>2021-03-27T14:49:49Z</time>
      </trkpt>
      <trkpt lat="40.485776" lon="-6.00961">
        <ele>522.94</ele>
        <time>2021-03-27T14:49:51Z</time>
      </trkpt>
      <trkpt lat="40.485757" lon="-6.009742">
        <ele>522.82</ele>
        <time>2021-03-27T14:49:53Z</time>
      </trkpt>
      <trkpt lat="40.485652" lon="-6.010129">
        <ele>524.58</ele>
        <time>2021-03-27T14:49:55Z</time>
      </trkpt>
      <trkpt lat="40.485626" lon="-6.010273">
        <ele>525.47</ele>
        <time>2021-03-27T14:49:57Z</time>
      </trkpt>
      <trkpt lat="40.48564" lon="-6.010463">
        <ele>527.18</ele>
        <time>2021-03-27T14:49:59Z</time>
      </trkpt>
      <trkpt lat="40.485673" lon="-6.010598">
        <ele>527.97</ele>
        <time>2021-03-27T14:50:01Z</time>
      </trkpt>
      <trkpt lat="40.486093" lon="-6.011248">
        <ele>525.21</ele>
        <time>2021-03-27T14:50:03Z</time>
      </trkpt>
      <trkpt lat="40.486464" lon="-6.011736">
        <ele>521.44</ele>
        <time>2021-03-27T14:50:05Z</time>
      </trkpt>
      <trkpt lat="40.486578" lon="-6.011831">
        <ele>520.54</ele>
        <time>2021-03-27T14:50:07Z</time>
      </trkpt>
      <trkpt lat="40.488465" lon="-6.013061">
        <ele>525.53</ele>
        <time>2021-03-27T14:50:09Z</time>
      </trkpt>
      <trkpt lat="40.488612" lon="-6.013171">
        <ele>525.41</ele>
        <time>2021-03-27T14:50:11Z</time>
      </trkpt>
      <trkpt lat="40.489039" lon="-6.013594">
        <ele>526.45</ele>
        <time>2021-03-27T14:50:13Z</time>
      </trkpt>
      <trkpt lat="40.489209" lon="-6.013787">
        <ele>527.79</ele>
        <time>2021-03-27T14:50:15Z</time>
      </trkpt>
      <trkpt lat="40.489342" lon="-6.013972">
        <ele>528.85</ele>
        <time>2021-03-27T14:50:17Z</time>
      </trkpt>
      <trkpt lat="40.489856" lon="-6.014861">
        <ele>532.0</ele>
        <time>2021-03-27T14:50:19Z</time>
      </trkpt>
      <trkpt lat="40.490222" lon="-6.015735">
        <ele>535.72</ele>
        <time>2021-03-27T14:50:21Z</time>
      </trkpt>
      <trkpt lat="40.490282" lon="-6.01591">
        <ele>536.54</ele>
        <time>2021-03-27T14:50:23Z</time>
      </trkpt>
      <trkpt lat="40.490315" lon="-6.016076">
        <ele>537.51</ele>
        <time>2021-03-27T14:50:25Z</time>
      </trkpt>
      <trkpt lat="40.490287" lon="-6.016407">
        <ele>539.15</ele>
        <time>2021-03-27T14:50:27Z</time>
      </trkpt>
      <trkpt lat="40.49014" lon="-6.017121">
        <ele>542.81</ele>
        <time>2021-03-27T14:50:29Z</time>
      </trkpt>
      <trkpt lat="40.49007" lon="-6.017391">
        <ele>544.1</ele>
        <time>2021-03-27T14:50:31Z</time>
      </trkpt>
      <trkpt lat="40.489568" lon="-6.018756">
        <ele>547.13</ele>
        <time>2021-03-27T14:50:33Z</time>
      </trkpt>
      <trkpt lat="40.48952" lon="-6.01913">
        <ele>548.82</ele>
        <time>2021-03-27T14:50:35Z</time>
      </trkpt>
      <trkpt lat="40.489569" lon="-6.019391">
        <ele>549.01</ele>
        <time>2021-03-27T14:50:37Z</time>
      </trkpt>
      <trkpt lat="40.489678" lon="-6.019639">
        <ele>548.92</ele>
        <time>2021-03-27T14:50:39Z</time>
      </trkpt>
      <trkpt lat="40.49018" lon="-6.020262">
        <ele>550.26</ele>
        <time>2021-03-27T14:50:41Z</time>
      </trkpt>
      <trkpt lat="40.490702" lon="-6.020872">
        <ele>555.9</ele>
        <time>2021-03-27T14:50:43Z</time>
      </trkpt>
      <trkpt lat="40.490777" lon="-6.020989">
        <ele>556.07</ele>
        <time>2021-03-27T14:50:45Z</time>
      </trkpt>
      <trkpt lat="40.490854" lon="-6.021154">
        <ele>556.26</ele>
        <time>2021-03-27T14:50:47Z</time>
      </trkpt>
      <trkpt lat="40.491309" lon="-6.022575">
        <ele>564.92</ele>
        <time>2021-03-27T14:50:49Z</time>
      </trkpt>
      <trkpt lat="40.491395" lon="-6.02305">
        <ele>564.82</ele>
        <time>2021-03-27T14:50:51Z</time>
      </trkpt>
      <trkpt lat="40.491435" lon="-6.023605">
        <ele>565.17</ele>
        <time>2021-03-27T14:50:53Z</time>
      </trkpt>
      <trkpt lat="40.491474" lon="-6.023875">
        <ele>565.41</ele>
        <time>2021-03-27T14:50:55Z</time>
      </trkpt>
      <trkpt lat="40.49153" lon="-6.024034">
        <ele>565.76</ele>
        <time>2021-03-27T14:50:57Z</time>
      </trkpt>
      <trkpt lat="40.491747" lon="-6.024501">
        <ele>566.39</ele>
        <time>2021-03-27T14:50:59Z</time>
      </trkpt>
      <trkpt lat="40.491815" lon="-6.024749">
        <ele>567.38</ele>
        <time>2021-03-27T14:51:01Z</time>
      </trkpt>
      <trkpt lat="40.492043" lon="-6.027405">
        <ele>568.53</ele>
        <time>2021-03-27T14:51:03Z</time>
      </trkpt>
      <trkpt lat="40.492029" lon="-6.027647">
        <ele>569.84</ele>
        <time>2021-03-27T14:51:05Z</time>
      </trkpt>
      <trkpt lat="40.491778" lon="-6.029822">
        <ele>574.12</ele>
        <time>2021-03-27T14:51:07Z</time>
      </trkpt>
      <trkpt lat="40.491727" lon="-6.03016">
        <ele>578.91</ele>
        <time>2021-03-27T14:51:09Z</time>
      </trkpt>
      <trkpt lat="40.491661" lon="-6.030411">
        <ele>580.54</ele>
        <time>2021-03-27T14:51:11Z</time>
      </trkpt>
      <trkpt lat="40.491327" lon="-6.031319">
        <ele>576.39</ele>
        <time>2021-03-27T14:51:13Z</time>
      </trkpt>
      <trkpt lat="40.491281" lon="-6.031494">
        <ele>575.75</ele>
        <time>2021-03-27T14:51:15Z</time>
      </trkpt>
      <trkpt lat="40.491267" lon="-6.031632">
        <ele>575.58</ele>
        <time>2021-03-27T14:51:17Z</time>
      </trkpt>
      <trkpt lat="40.491281" lon="-6.0318">
        <ele>575.13</ele>
        <time>2021-03-27T14:51:19Z</time>
      </trkpt>
      <trkpt lat="40.491329" lon="-6.031957">
        <ele>574.78</ele>
        <time>2021-03-27T14:51:21Z</time>
      </trkpt>
      <trkpt lat="40.491397" lon="-6.032104">
        <ele>574.95</ele>
        <time>2021-03-27T14:51:23Z</time>
      </trkpt>
      <trkpt lat="40.491507" lon="-6.032242">
        <ele>574.22</ele>
        <time>2021-03-27T14:51:25Z</time>
      </trkpt>
      <trkpt lat="40.491616" lon="-6.032344">
        <ele>573.8</ele>
        <time>2021-03-27T14:51:27Z</time>
      </trkpt>
      <trkpt lat="40.492214" lon="-6.032684">
        <ele>576.99</ele>
        <time>2021-03-27T14:51:29Z</time>
      </trkpt>
      <trkpt lat="40.492339" lon="-6.032815">
        <ele>577.53</ele>
        <time>2021-03-27T14:51:31Z</time>
      </trkpt>
      <trkpt lat="40.492494" lon="-6.03303">
        <ele>577.02</ele>
        <time>2021-03-27T14:51:33Z</time>
      </trkpt>
      <trkpt lat="40.492593" lon="-6.033208">
        <ele>577.97</ele>
        <time>2021-03-27T14:51:35Z</time>
      </trkpt>
      <trkpt lat="40.493288" lon="-6.034633">
        <ele>587.64</ele>
        <time>2021-03-27T14:51:37Z</time>
      </trkpt>
      <trkpt lat="40.493506" lon="-6.035113">
        <ele>588.52</ele>
        <time>2021-03-27T14:51:39Z</time>
      </trkpt>
      <trkpt lat="40.493583" lon="-6.035351">
        <ele>590.55</ele>
        <time>2021-03-27T14:51:41Z</time>
      </trkpt>
      <trkpt lat="40.493958" lon="-6.037164">
        <ele>604.73</ele>
        <time>2021-03-27T14:51:43Z</time>
      </trkpt>
      <trkpt lat="40.494203" lon="-6.037876">
        <ele>609.91</ele>
        <time>2021-03-27T14:51:45Z</time>
      </trkpt>
      <trkpt lat="40.494576" lon="-6.038385">
        <ele>612.85</ele>
        <time>2021-03-27T14:51:47Z</time>
      </trkpt>
      <trkpt lat="40.494659" lon="-6.038571">
        <ele>613.71</ele>
        <time>2021-03-27T14:51:49Z</time>
      </trkpt>
      <trkpt lat="40.494691" lon="-6.038695">
        <ele>614.56</ele>
        <time>2021-03-27T14:51:51Z</time>
      </trkpt>
      <trkpt lat="40.494728" lon="-6.039045">
        <ele>619.7</ele>
        <time>2021-03-27T14:51:53Z</time>
      </trkpt>
      <trkpt lat="40.494792" lon="-6.039259">
        <ele>622.08</ele>
        <time>2021-03-27T14:51:55Z</time>
      </trkpt>
      <trkpt lat="40.494872" lon="-6.039414">
        <ele>622.34</ele>
        <time>2021-03-27T14:51:57Z</time>
      </trkpt>
      <trkpt lat="40.494982" lon="-6.039554">
        <ele>622.22</ele>
        <time>2021-03-27T14:51:59Z</time>
      </trkpt>
      <trkpt lat="40.495323" lon="-6.039898">
        <ele>622.14</ele>
        <time>2021-03-27T14:52:01Z</time>
      </trkpt>
      <trkpt lat="40.495397" lon="-6.040081">
        <ele>624.62</ele>
        <time>2021-03-27T14:52:03Z</time>
      </trkpt>
      <trkpt lat="40.495589" lon="-6.040741">
        <ele>628.54</ele>
        <time>2021-03-27T14:52:05Z</time>
      </trkpt>
      <trkpt lat="40.495672" lon="-6.040963">
        <ele>630.73</ele>
        <time>2021-03-27T14:52:07Z</time>
      </trkpt>
      <trkpt lat="40.495759" lon="-6.041133">
        <ele>631.24</ele>
        <time>2021-03-27T14:52:09Z</time>
      </trkpt>
      <trkpt lat="40.496149" lon="-6.041584">
        <ele>629.62</ele>
        <time>2021-03-27T14:52:11Z</time>
      </trkpt>
      <trkpt lat="40.496281" lon="-6.041771">
        <ele>631.42</ele>
        <time>2021-03-27T14:52:13Z</time>
      </trkpt>
      <trkpt lat="40.496397" lon="-6.041993">
        <ele>633.37</ele>
        <time>2021-03-27T14:52:15Z</time>
      </trkpt>
      <trkpt lat="40.496477" lon="-6.042283">
        <ele>634.75</ele>
        <time>2021-03-27T14:52:17Z</time>
      </trkpt>
      <trkpt lat="40.496514" lon="-6.042537">
        <ele>636.58</ele>
        <time>2021-03-27T14:52:19Z</time>
      </trkpt>
      <trkpt lat="40.496501" lon="-6.042857">
        <ele>639.69</ele>
        <time>2021-03-27T14:52:21Z</time>
      </trkpt>
      <trkpt lat="40.496464" lon="-6.043088">
        <ele>643.46</ele>
        <time>2021-03-27T14:52:23Z</time>
      </trkpt>
      <trkpt lat="40.496217" lon="-6.044243">
        <ele>656.3</ele>
        <time>2021-03-27T14:52:25Z</time>
      </trkpt>
      <trkpt lat="40.496197" lon="-6.044392">
        <ele>657.65</ele>
        <time>2021-03-27T14:52:27Z</time>
      </trkpt>
      <trkpt lat="40.496195" lon="-6.044664">
        <ele>658.76</ele>
        <time>2021-03-27T14:52:29Z</time>
      </trkpt>
      <trkpt lat="40.496224" lon="-6.044783">
        <ele>657.93</ele>
        <time>2021-03-27T14:52:31Z</time>
      </trkpt>
      <trkpt lat="40.496314" lon="-6.04498">
        <ele>654.7</ele>
        <time>2021-03-27T14:52:33Z</time>
      </trkpt>
      <trkpt lat="40.496362" lon="-6.045044">
        <ele>653.56</ele>
        <time>2021-03-27T14:52:35Z</time>
      </trkpt>
      <trkpt lat="40.496608" lon="-6.045185">
        <ele>648.35</ele>
        <time>2021-03-27T14:52:37Z</time>
      </trkpt>
      <trkpt lat="40.496757" lon="-6.045302">
        <ele>647.9</ele>
        <time>2021-03-27T14:52:39Z</time>
      </trkpt>
      <trkpt lat="40.497814" lon="-6.046374">
        <ele>661.48</ele>
        <time>2021-03-27T14:52:41Z</time>
      </trkpt>
      <trkpt lat="40.497968" lon="-6.046596">
        <ele>666.53</ele>
        <time>2021-03-27T14:52:43Z</time>
      </trkpt>
      <trkpt lat="40.498046" lon="-6.04668">
        <ele>668.47</ele>
        <time>2021-03-27T14:52:45Z</time>
      </trkpt>
      <trkpt lat="40.49814" lon="-6.046731">
        <ele>668.92</ele>
        <time>2021-03-27T14:52:47Z</time>
      </trkpt>
      <trkpt lat="40.498425" lon="-6.046807">
        <ele>667.74</ele>
        <time>2021-03-27T14:52:49Z</time>
      </trkpt>
      <trkpt lat="40.498495" lon="-6.04687">
        <ele>668.72</ele>
        <time>2021-03-27T14:52:51Z</time>
      </trkpt>
      <trkpt lat="40.498594" lon="-6.046979">
        <ele>670.07</ele>
        <time>2021-03-27T14:52:53Z</time>
      </trkpt>
      <trkpt lat="40.498888" lon="-6.047463">
        <ele>672.35</ele>
        <time>2021-03-27T14:52:55Z</time>
      </trkpt>
      <trkpt lat="40.499014" lon="-6.047559">
        <ele>673.61</ele>
        <time>2021-03-27T14:52:57Z</time>
      </trkpt>
      <trkpt lat="40.499076" lon="-6.047566">
        <ele>673.52</ele>
        <time>2021-03-27T14:52:59Z</time>
      </trkpt>
      <trkpt lat="40.499166" lon="-6.047529">
        <ele>672.53</ele>
        <time>2021-03-27T14:53:01Z</time>
      </trkpt>
      <trkpt lat="40.499269" lon="-6.047424">
        <ele>672.68</ele>
        <time>2021-03-27T14:53:03Z</time>
      </trkpt>
      <trkpt lat="40.499332" lon="-6.047304">
        <ele>672.29</ele>
        <time>2021-03-27T14:53:05Z</time>
      </trkpt>
      <trkpt lat="40.49942" lon="-6.047025">
        <ele>671.33</ele>
        <time>2021-03-27T14:53:07Z</time>
      </trkpt>
      <trkpt lat="40.499508" lon="-6.046676">
        <ele>669.87</ele>
        <time>2021-03-27T14:53:09Z</time>
      </trkpt>
      <trkpt lat="40.499573" lon="-6.046327">
        <ele>667.76</ele>
        <time>2021-03-27T14:53:11Z</time>
      </trkpt>
      <trkpt lat="40.499647" lon="-6.046237">
        <ele>669.1</ele>
        <time>2021-03-27T14:53:13Z</time>
      </trkpt>
      <trkpt lat="40.499719" lon="-6.046214">
        <ele>671.37</ele>
        <time>2021-03-27T14:53:15Z</time>
      </trkpt>
      <trkpt lat="40.499768" lon="-6.04624">
        <ele>673.59</ele>
        <time>2021-03-27T14:53:17Z</time>
      </trkpt>
      <trkpt lat="40.499814" lon="-6.046363">
        <ele>677.24</ele>
        <time>2021-03-27T14:53:20Z</time>
      </trkpt>
      <trkpt lat="40.4998" lon="-6.046434">
        <ele>677.96</ele>
        <time>2021-03-27T14:53:23Z</time>
      </trkpt>
      <trkpt lat="40.499777" lon="-6.046494">
        <ele>678.15</ele>
        <time>2021-03-27T14:53:26Z</time>
      </trkpt>
      <trkpt lat="40.499635" lon="-6.046649">
        <ele>674.95</ele>
        <time>2021-03-27T14:53:29Z</time>
      </trkpt>
      <trkpt lat="40.499586" lon="-6.04682">
        <ele>675.05</ele>
        <time>2021-03-27T14:53:32Z</time>
      </trkpt>
      <trkpt lat="40.499553" lon="-6.047721">
        <ele>684.16</ele>
        <time>2021-03-27T14:53:35Z</time>
      </trkpt>
      <trkpt lat="40.499526" lon="-6.047898">
        <ele>686.1</ele>
        <time>2021-03-27T14:53:38Z</time>
      </trkpt>
      <trkpt lat="40.499487" lon="-6.048038">
        <ele>687.21</ele>
        <time>2021-03-27T14:53:41Z</time>
      </trkpt>
      <trkpt lat="40.499414" lon="-6.048199">
        <ele>689.6</ele>
        <time>2021-03-27T14:53:44Z</time>
      </trkpt>
      <trkpt lat="40.499327" lon="-6.048315">
        <ele>691.0</ele>
        <time>2021-03-27T14:53:46Z</time>
      </trkpt>
      <trkpt lat="40.49882" lon="-6.048709">
        <ele>695.72</ele>
        <time>2021-03-27T14:53:49Z</time>
      </trkpt>
      <trkpt lat="40.498636" lon="-6.048903">
        <ele>698.58</ele>
        <time>2021-03-27T14:53:52Z</time>
      </trkpt>
      <trkpt lat="40.498576" lon="-6.048943">
        <ele>699.43</ele>
        <time>2021-03-27T14:53:55Z</time>
      </trkpt>
      <trkpt lat="40.498479" lon="-6.048956">
        <ele>700.41</ele>
        <time>2021-03-27T14:53:58Z</time>
      </trkpt>
      <trkpt lat="40.498324" lon="-6.048878">
        <ele>699.97</ele>
        <time>2021-03-27T14:54:01Z</time>
      </trkpt>
      <trkpt lat="40.49824" lon="-6.048789">
        <ele>699.86</ele>
        <time>2021-03-27T14:54:04Z</time>
      </trkpt>
      <trkpt lat="40.497995" lon="-6.048322">
        <ele>697.78</ele>
        <time>2021-03-27T14:54:07Z</time>
      </trkpt>
      <trkpt lat="40.497912" lon="-6.048219">
        <ele>698.03</ele>
        <time>2021-03-27T14:54:10Z</time>
      </trkpt>
      <trkpt lat="40.497772" lon="-6.048108">
        <ele>698.67</ele>
        <time>2021-03-27T14:54:13Z</time>
      </trkpt>
      <trkpt lat="40.497143" lon="-6.047895">
        <ele>705.71</ele>
        <time>2021-03-27T14:54:16Z</time>
      </trkpt>
      <trkpt lat="40.497" lon="-6.047823">
        <ele>706.72</ele>
        <time>2021-03-27T14:54:18Z</time>
      </trkpt>
      <trkpt lat="40.496597" lon="-6.047465">
        <ele>706.38</ele>
        <time>2021-03-27T14:54:21Z</time>
      </trkpt>
      <trkpt lat="40.496358" lon="-6.047326">
        <ele>706.84</ele>
        <time>2021-03-27T14:54:24Z</time>
      </trkpt>
      <trkpt lat="40.496266" lon="-6.047308">
        <ele>707.04</ele>
        <time>2021-03-27T14:54:27Z</time>
      </trkpt>
      <trkpt lat="40.496118" lon="-6.047349">
        <ele>709.16</ele>
        <time>2021-03-27T14:54:30Z</time>
      </trkpt>
      <trkpt lat="40.495406" lon="-6.047714">
        <ele>711.06</ele>
        <time>2021-03-27T14:54:33Z</time>
      </trkpt>
      <trkpt lat="40.495151" lon="-6.047772">
        <ele>714.27</ele>
        <time>2021-03-27T14:54:36Z</time>
      </trkpt>
      <trkpt lat="40.495042" lon="-6.047711">
        <ele>714.52</ele>
        <time>2021-03-27T14:54:39Z</time>
      </trkpt>
      <trkpt lat="40.494961" lon="-6.047602">
        <ele>714.48</ele>
        <time>2021-03-27T14:54:42Z</time>
      </trkpt>
      <trkpt lat="40.494875" lon="-6.047445">
        <ele>715.28</ele>
        <time>2021-03-27T14:54:45Z</time>
      </trkpt>
      <trkpt lat="40.49481" lon="-6.047144">
        <ele>715.58</ele>
        <time>2021-03-27T14:54:48Z</time>
      </trkpt>
      <trkpt lat="40.494622" lon="-6.045931">
        <ele>718.47</ele>
        <time>2021-03-27T14:54:50Z</time>
      </trkpt>
      <trkpt lat="40.494555" lon="-6.045417">
        <ele>720.32</ele>
        <time>2021-03-27T14:54:53Z</time>
      </trkpt>
      <trkpt lat="40.49455" lon="-6.044618">
        <ele>720.29</ele>
        <time>2021-03-27T14:54:56Z</time>
      </trkpt>
      <trkpt lat="40.494505" lon="-6.044301">
        <ele>721.74</ele>
        <time>2021-03-27T14:54:59Z</time>
      </trkpt>
      <trkpt lat="40.494433" lon="-6.044043">
        <ele>724.06</ele>
        <time>2021-03-27T14:55:02Z</time>
      </trkpt>
      <trkpt lat="40.494077" lon="-6.043106">
        <ele>726.4</ele>
        <time>2021-03-27T14:55:05Z</time>
      </trkpt>
      <trkpt lat="40.49396" lon="-6.042894">
        <ele>727.7</ele>
        <time>2021-03-27T14:55:08Z</time>
      </trkpt>
      <trkpt lat="40.493719" lon="-6.042525">
        <ele>729.78</ele>
        <time>2021-03-27T14:55:11Z</time>
      </trkpt>
      <trkpt lat="40.493489" lon="-6.042046">
        <ele>733.81</ele>
        <time>2021-03-27T14:55:14Z</time>
      </trkpt>
      <trkpt lat="40.493442" lon="-6.041899">
        <ele>734.78</ele>
        <time>2021-03-27T14:55:17Z</time>
      </trkpt>
      <trkpt lat="40.493357" lon="-6.041441">
        <ele>734.52</ele>
        <time>2021-03-27T14:55:20Z</time>
      </trkpt>
      <trkpt lat="40.493309" lon="-6.041235">
        <ele>733.46</ele>
        <time>2021-03-27T14:55:23Z</time>
      </trkpt>
      <trkpt lat="40.493242" lon="-6.041087">
        <ele>733.7</ele>
        <time>2021-03-27T14:55:25Z</time>
      </trkpt>
      <trkpt lat="40.492912" lon="-6.040576">
        <ele>735.18</ele>
        <time>2021-03-27T14:55:28Z</time>
      </trkpt>
      <trkpt lat="40.492838" lon="-6.040505">
        <ele>735.48</ele>
        <time>2021-03-27T14:55:31Z</time>
      </trkpt>
      <trkpt lat="40.492793" lon="-6.040489">
        <ele>735.86</ele>
        <time>2021-03-27T14:55:34Z</time>
      </trkpt>
      <trkpt lat="40.492714" lon="-6.040513">
        <ele>734.74</ele>
        <time>2021-03-27T14:55:37Z</time>
      </trkpt>
      <trkpt lat="40.492635" lon="-6.040598">
        <ele>732.92</ele>
        <time>2021-03-27T14:55:40Z</time>
      </trkpt>
      <trkpt lat="40.49262" lon="-6.040667">
        <ele>732.54</ele>
        <time>2021-03-27T14:55:43Z</time>
      </trkpt>
      <trkpt lat="40.492624" lon="-6.040798">
        <ele>732.59</ele>
        <time>2021-03-27T14:55:46Z</time>
      </trkpt>
      <trkpt lat="40.492699" lon="-6.041398">
        <ele>735.46</ele>
        <time>2021-03-27T14:55:49Z</time>
      </trkpt>
      <trkpt lat="40.492882" lon="-6.04222">
        <ele>739.12</ele>
        <time>2021-03-27T14:55:52Z</time>
      </trkpt>
      <trkpt lat="40.492954" lon="-6.042474">
        <ele>738.09</ele>
        <time>2021-03-27T14:55:55Z</time>
      </trkpt>
      <trkpt lat="40.493013" lon="-6.042617">
        <ele>738.05</ele>
        <time>2021-03-27T14:55:57Z</time>
      </trkpt>
      <trkpt lat="40.493338" lon="-6.043154">
        <ele>739.7</ele>
        <time>2021-03-27T14:56:00Z</time>
      </trkpt>
      <trkpt lat="40.493456" lon="-6.043391">
        <ele>741.48</ele>
        <time>2021-03-27T14:56:03Z</time>
      </trkpt>
      <trkpt lat="40.493539" lon="-6.043616">
        <ele>744.27</ele>
        <time>2021-03-27T14:56:06Z</time>
      </trkpt>
      <trkpt lat="40.493871" lon="-6.044745">
        <ele>750.22</ele>
        <time>2021-03-27T14:56:09Z</time>
      </trkpt>
      <trkpt lat="40.493926" lon="-6.045038">
        <ele>749.4</ele>
        <time>2021-03-27T14:56:12Z</time>
      </trkpt>
      <trkpt lat="40.493935" lon="-6.045273">
        <ele>748.19</ele>
        <time>2021-03-27T14:56:15Z</time>
      </trkpt>
      <trkpt lat="40.493915" lon="-6.045598">
        <ele>749.77</ele>
        <time>2021-03-27T14:56:18Z</time>
      </trkpt>
      <trkpt lat="40.493835" lon="-6.045935">
        <ele>753.27</ele>
        <time>2021-03-27T14:56:21Z</time>
      </trkpt>
      <trkpt lat="40.493698" lon="-6.046208">
        <ele>758.02</ele>
        <time>2021-03-27T14:56:24Z</time>
      </trkpt>
      <trkpt lat="40.493562" lon="-6.04642">
        <ele>758.86</ele>
        <time>2021-03-27T14:56:27Z</time>
      </trkpt>
      <trkpt lat="40.492968" lon="-6.047135">
        <ele>763.22</ele>
        <time>2021-03-27T14:56:29Z</time>
      </trkpt>
      <trkpt lat="40.492904" lon="-6.047284">
        <ele>764.09</ele>
        <time>2021-03-27T14:56:32Z</time>
      </trkpt>
      <trkpt lat="40.492878" lon="-6.047398">
        <ele>764.28</ele>
        <time>2021-03-27T14:56:35Z</time>
      </trkpt>
      <trkpt lat="40.492859" lon="-6.047544">
        <ele>764.3</ele>
        <time>2021-03-27T14:56:38Z</time>
      </trkpt>
      <trkpt lat="40.49286" lon="-6.04777">
        <ele>763.72</ele>
        <time>2021-03-27T14:56:41Z</time>
      </trkpt>
      <trkpt lat="40.49308" lon="-6.049754">
        <ele>777.55</ele>
        <time>2021-03-27T14:56:44Z</time>
      </trkpt>
      <trkpt lat="40.493128" lon="-6.050089">
        <ele>780.16</ele>
        <time>2021-03-27T14:56:47Z</time>
      </trkpt>
      <trkpt lat="40.493132" lon="-6.050576">
        <ele>782.94</ele>
        <time>2021-03-27T14:56:50Z</time>
      </trkpt>
      <trkpt lat="40.493146" lon="-6.050697">
        <ele>783.82</ele>
        <time>2021-03-27T14:56:53Z</time>
      </trkpt>
      <trkpt lat="40.493312" lon="-6.051324">
        <ele>786.77</ele>
        <time>2021-03-27T14:56:56Z</time>
      </trkpt>
      <trkpt lat="40.493353" lon="-6.051618">
        <ele>788.32</ele>
        <time>2021-03-27T14:56:59Z</time>
      </trkpt>
      <trkpt lat="40.493331" lon="-6.051907">
        <ele>789.69</ele>
        <time>2021-03-27T14:57:01Z</time>
      </trkpt>
      <trkpt lat="40.493195" lon="-6.052469">
        <ele>790.75</ele>
        <time>2021-03-27T14:57:04Z</time>
      </trkpt>
      <trkpt lat="40.493167" lon="-6.052707">
        <ele>792.14</ele>
        <time>2021-03-27T14:57:07Z</time>
      </trkpt>
      <trkpt lat="40.493194" lon="-6.053354">
        <ele>796.71</ele>
        <time>2021-03-27T14:57:10Z</time>
      </trkpt>
      <trkpt lat="40.493143" lon="-6.053523">
        <ele>797.62</ele>
        <time>2021-03-27T14:57:13Z</time>
      </trkpt>
      <trkpt lat="40.492747" lon="-6.053978">
        <ele>797.3</ele>
        <time>2021-03-27T14:57:16Z</time>
      </trkpt>
      <trkpt lat="40.492648" lon="-6.05415">
        <ele>797.02</ele>
        <time>2021-03-27T14:57:19Z</time>
      </trkpt>
      <trkpt lat="40.492559" lon="-6.05436">
        <ele>796.97</ele>
        <time>2021-03-27T14:57:22Z</time>
      </trkpt>
      <trkpt lat="40.492508" lon="-6.054553">
        <ele>797.42</ele>
        <time>2021-03-27T14:57:25Z</time>
      </trkpt>
      <trkpt lat="40.492343" lon="-6.055559">
        <ele>800.74</ele>
        <time>2021-03-27T14:57:28Z</time>
      </trkpt>
      <trkpt lat="40.492318" lon="-6.056049">
        <ele>800.52</ele>
        <time>2021-03-27T14:57:31Z</time>
      </trkpt>
      <trkpt lat="40.492267" lon="-6.056577">
        <ele>797.4</ele>
        <time>2021-03-27T14:57:34Z</time>
      </trkpt>
      <trkpt lat="40.492269" lon="-6.056694">
        <ele>796.82</ele>
        <time>2021-03-27T14:57:36Z</time>
      </trkpt>
      <trkpt lat="40.492299" lon="-6.056865">
        <ele>795.49</ele>
        <time>2021-03-27T14:57:39Z</time>
      </trkpt>
      <trkpt lat="40.492371" lon="-6.057141">
        <ele>793.98</ele>
        <time>2021-03-27T14:57:42Z</time>
      </trkpt>
      <trkpt lat="40.492554" lon="-6.057591">
        <ele>797.16</ele>
        <time>2021-03-27T14:57:45Z</time>
      </trkpt>
      <trkpt lat="40.492656" lon="-6.05777">
        <ele>798.97</ele>
        <time>2021-03-27T14:57:48Z</time>
      </trkpt>
      <trkpt lat="40.492944" lon="-6.058207">
        <ele>803.44</ele>
        <time>2021-03-27T14:57:51Z</time>
      </trkpt>
      <trkpt lat="40.492997" lon="-6.058361">
        <ele>804.89</ele>
        <time>2021-03-27T14:57:54Z</time>
      </trkpt>
      <trkpt lat="40.493036" lon="-6.058612">
        <ele>806.23</ele>
        <time>2021-03-27T14:57:57Z</time>
      </trkpt>
      <trkpt lat="40.493315" lon="-6.059385">
        <ele>816.33</ele>
        <time>2021-03-27T14:58:00Z</time>
      </trkpt>
      <trkpt lat="40.493337" lon="-6.059581">
        <ele>817.17</ele>
        <time>2021-03-27T14:58:03Z</time>
      </trkpt>
      <trkpt lat="40.493304" lon="-6.059896">
        <ele>815.93</ele>
        <time>2021-03-27T14:58:06Z</time>
      </trkpt>
      <trkpt lat="40.493313" lon="-6.060093">
        <ele>816.6</ele>
        <time>2021-03-27T14:58:08Z</time>
      </trkpt>
      <trkpt lat="40.493477" lon="-6.060952">
        <ele>822.22</ele>
        <time>2021-03-27T14:58:11Z</time>
      </trkpt>
      <trkpt lat="40.493642" lon="-6.061725">
        <ele>829.11</ele>
        <time>2021-03-27T14:58:14Z</time>
      </trkpt>
      <trkpt lat="40.493689" lon="-6.061929">
        <ele>831.19</ele>
        <time>2021-03-27T14:58:16Z</time>
      </trkpt>
      <trkpt lat="40.49371" lon="-6.062123">
        <ele>833.13</ele>
        <time>2021-03-27T14:58:18Z</time>
      </trkpt>
      <trkpt lat="40.493696" lon="-6.062268">
        <ele>833.89</ele>
        <time>2021-03-27T14:58:20Z</time>
      </trkpt>
      <trkpt lat="40.493648" lon="-6.062375">
        <ele>833.63</ele>
        <time>2021-03-27T14:58:22Z</time>
      </trkpt>
      <trkpt lat="40.493337" lon="-6.062851">
        <ele>826.12</ele>
        <time>2021-03-27T14:58:24Z</time>
      </trkpt>
      <trkpt lat="40.493282" lon="-6.062992">
        <ele>825.87</ele>
        <time>2021-03-27T14:58:26Z</time>
      </trkpt>
      <trkpt lat="40.493274" lon="-6.063061">
        <ele>826.06</ele>
        <time>2021-03-27T14:58:28Z</time>
      </trkpt>
      <trkpt lat="40.493275" lon="-6.063237">
        <ele>827.96</ele>
        <time>2021-03-27T14:58:30Z</time>
      </trkpt>
      <trkpt lat="40.493304" lon="-6.063451">
        <ele>829.47</ele>
        <time>2021-03-27T14:58:32Z</time>
      </trkpt>
      <trkpt lat="40.493574" lon="-6.064429">
        <ele>839.93</ele>
        <time>2021-03-27T14:58:34Z</time>
      </trkpt>
      <trkpt lat="40.493605" lon="-6.064469">
        <ele>841.02</ele>
        <time>2021-03-27T14:58:36Z</time>
      </trkpt>
      <trkpt lat="40.493646" lon="-6.064482">
        <ele>842.64</ele>
        <time>2021-03-27T14:58:38Z</time>
      </trkpt>
      <trkpt lat="40.49371" lon="-6.06444">
        <ele>844.92</ele>
        <time>2021-03-27T14:58:40Z</time>
      </trkpt>
      <trkpt lat="40.493728" lon="-6.064372">
        <ele>845.73</ele>
        <time>2021-03-27T14:58:42Z</time>
      </trkpt>
      <trkpt lat="40.493721" lon="-6.064081">
        <ele>845.87</ele>
        <time>2021-03-27T14:58:44Z</time>
      </trkpt>
      <trkpt lat="40.493749" lon="-6.063899">
        <ele>847.45</ele>
        <time>2021-03-27T14:58:46Z</time>
      </trkpt>
      <trkpt lat="40.493814" lon="-6.063673">
        <ele>849.17</ele>
        <time>2021-03-27T14:58:48Z</time>
      </trkpt>
      <trkpt lat="40.493956" lon="-6.063314">
        <ele>850.2</ele>
        <time>2021-03-27T14:58:50Z</time>
      </trkpt>
      <trkpt lat="40.494073" lon="-6.063078">
        <ele>850.65</ele>
        <time>2021-03-27T14:58:52Z</time>
      </trkpt>
      <trkpt lat="40.494251" lon="-6.062799">
        <ele>852.65</ele>
        <time>2021-03-27T14:58:54Z</time>
      </trkpt>
      <trkpt lat="40.494367" lon="-6.062564">
        <ele>854.78</ele>
        <time>2021-03-27T14:58:56Z</time>
      </trkpt>
      <trkpt lat="40.494511" lon="-6.062175">
        <ele>857.49</ele>
        <time>2021-03-27T14:58:58Z</time>
      </trkpt>
      <trkpt lat="40.494596" lon="-6.061736">
        <ele>859.42</ele>
        <time>2021-03-27T14:59:00Z</time>
      </trkpt>
      <trkpt lat="40.494538" lon="-6.061254">
        <ele>858.86</ele>
        <time>2021-03-27T14:59:02Z</time>
      </trkpt>
      <trkpt lat="40.494569" lon="-6.061166">
        <ele>860.62</ele>
        <time>2021-03-27T14:59:04Z</time>
      </trkpt>
      <trkpt lat="40.494617" lon="-6.061135">
        <ele>862.73</ele>
        <time>2021-03-27T14:59:05Z</time>
      </trkpt>
      <trkpt lat="40.494716" lon="-6.061171">
        <ele>866.55</ele>
        <time>2021-03-27T14:59:07Z</time>
      </trkpt>
      <trkpt lat="40.494735" lon="-6.061216">
        <ele>867.04</ele>
        <time>2021-03-27T14:59:09Z</time>
      </trkpt>
      <trkpt lat="40.494728" lon="-6.061799">
        <ele>864.71</ele>
        <time>2021-03-27T14:59:11Z</time>
      </trkpt>
      <trkpt lat="40.494797" lon="-6.062846">
        <ele>871.25</ele>
        <time>2021-03-27T14:59:13Z</time>
      </trkpt>
      <trkpt lat="40.494785" lon="-6.063035">
        <ele>872.34</ele>
        <time>2021-03-27T14:59:15Z</time>
      </trkpt>
      <trkpt lat="40.494549" lon="-6.064314">
        <ele>880.67</ele>
        <time>2021-03-27T14:59:17Z</time>
      </trkpt>
      <trkpt lat="40.494472" lon="-6.06483">
        <ele>884.17</ele>
        <time>2021-03-27T14:59:19Z</time>
      </trkpt>
      <trkpt lat="40.494445" lon="-6.065248">
        <ele>883.13</ele>
        <time>2021-03-27T14:59:21Z</time>
      </trkpt>
      <trkpt lat="40.494461" lon="-6.066122">
        <ele>887.78</ele>
        <time>2021-03-27T14:59:23Z</time>
      </trkpt>
      <trkpt lat="40.494418" lon="-6.066697">
        <ele>888.74</ele>
        <time>2021-03-27T14:59:25Z</time>
      </trkpt>
      <trkpt lat="40.494387" lon="-6.067358">
        <ele>892.54</ele>
        <time>2021-03-27T14:59:27Z</time>
      </trkpt>
      <trkpt lat="40.494351" lon="-6.067562">
        <ele>892.97</ele>
        <time>2021-03-27T14:59:29Z</time>
      </trkpt>
      <trkpt lat="40.494118" lon="-6.068521">
        <ele>898.07</ele>
        <time>2021-03-27T14:59:31Z</time>
      </trkpt>
      <trkpt lat="40.494076" lon="-6.068763">
        <ele>899.19</ele>
        <time>2021-03-27T14:59:33Z</time>
      </trkpt>
      <trkpt lat="40.494085" lon="-6.068979">
        <ele>901.52</ele>
        <time>2021-03-27T14:59:35Z</time>
      </trkpt>
      <trkpt lat="40.494146" lon="-6.069319">
        <ele>906.95</ele>
        <time>2021-03-27T14:59:37Z</time>
      </trkpt>
      <trkpt lat="40.494162" lon="-6.069507">
        <ele>910.19</ele>
        <time>2021-03-27T14:59:39Z</time>
      </trkpt>
      <trkpt lat="40.494139" lon="-6.069651">
        <ele>912.49</ele>
        <time>2021-03-27T14:59:41Z</time>
      </trkpt>
      <trkpt lat="40.494071" lon="-6.069835">
        <ele>914.02</ele>
        <time>2021-03-27T14:59:43Z</time>
      </trkpt>
      <trkpt lat="40.493956" lon="-6.070041">
        <ele>915.7</ele>
        <time>2021-03-27T14:59:45Z</time>
      </trkpt>
      <trkpt lat="40.493753" lon="-6.07029">
        <ele>915.3</ele>
        <time>2021-03-27T14:59:47Z</time>
      </trkpt>
      <trkpt lat="40.493613" lon="-6.070502">
        <ele>914.9</ele>
        <time>2021-03-27T14:59:49Z</time>
      </trkpt>
      <trkpt lat="40.493484" lon="-6.070805">
        <ele>916.33</ele>
        <time>2021-03-27T14:59:51Z</time>
      </trkpt>
      <trkpt lat="40.493418" lon="-6.071106">
        <ele>917.99</ele>
        <time>2021-03-27T14:59:53Z</time>
      </trkpt>
      <trkpt lat="40.493357" lon="-6.07154">
        <ele>918.58</ele>
        <time>2021-03-27T14:59:55Z</time>
      </trkpt>
      <trkpt lat="40.493284" lon="-6.071917">
        <ele>920.96</ele>
        <time>2021-03-27T14:59:57Z</time>
      </trkpt>
      <trkpt lat="40.493223" lon="-6.072095">
        <ele>924.76</ele>
        <time>2021-03-27T14:59:59Z</time>
      </trkpt>
      <trkpt lat="40.493163" lon="-6.072209">
        <ele>927.16</ele>
        <time>2021-03-27T15:00:01Z</time>
      </trkpt>
      <trkpt lat="40.492937" lon="-6.072557">
        <ele>932.57</ele>
        <time>2021-03-27T15:00:03Z</time>
      </trkpt>
      <trkpt lat="40.492865" lon="-6.072704">
        <ele>933.28</ele>
        <time>2021-03-27T15:00:05Z</time>
      </trkpt>
      <trkpt lat="40.492781" lon="-6.072981">
        <ele>935.24</ele>
        <time>2021-03-27T15:00:07Z</time>
      </trkpt>
      <trkpt lat="40.49273" lon="-6.073097">
        <ele>936.81</ele>
        <time>2021-03-27T15:00:08Z</time>
      </trkpt>
      <trkpt lat="40.492606" lon="-6.073214">
        <ele>939.57</ele>
        <time>2021-03-27T15:00:10Z</time>
      </trkpt>
      <trkpt lat="40.492518" lon="-6.073256">
        <ele>940.96</ele>
        <time>2021-03-27T15:00:12Z</time>
      </trkpt>
      <trkpt lat="40.49235" lon="-6.073293">
        <ele>944.23</ele>
        <time>2021-03-27T15:00:14Z</time>
      </trkpt>
      <trkpt lat="40.492255" lon="-6.073281">
        <ele>945.38</ele>
        <time>2021-03-27T15:00:16Z</time>
      </trkpt>
      <trkpt lat="40.492177" lon="-6.073248">
        <ele>946.29</ele>
        <time>2021-03-27T15:00:18Z</time>
      </trkpt>
      <trkpt lat="40.492029" lon="-6.073117">
        <ele>948.11</ele>
        <time>2021-03-27T15:00:20Z</time>
      </trkpt>
      <trkpt lat="40.491923" lon="-6.07296">
        <ele>949.67</ele>
        <time>2021-03-27T15:00:22Z</time>
      </trkpt>
      <trkpt lat="40.491843" lon="-6.072795">
        <ele>950.14</ele>
        <time>2021-03-27T15:00:24Z</time>
      </trkpt>
      <trkpt lat="40.49177" lon="-6.072503">
        <ele>947.3</ele>
        <time>2021-03-27T15:00:26Z</time>
      </trkpt>
      <trkpt lat="40.491617" lon="-6.070122">
        <ele>944.68</ele>
        <time>2021-03-27T15:00:28Z</time>
      </trkpt>
      <trkpt lat="40.491551" lon="-6.06973">
        <ele>945.61</ele>
        <time>2021-03-27T15:00:30Z</time>
      </trkpt>
      <trkpt lat="40.491473" lon="-6.069466">
        <ele>947.46</ele>
        <time>2021-03-27T15:00:32Z</time>
      </trkpt>
      <trkpt lat="40.491383" lon="-6.069233">
        <ele>950.54</ele>
        <time>2021-03-27T15:00:34Z</time>
      </trkpt>
      <trkpt lat="40.490977" lon="-6.068489">
        <ele>960.78</ele>
        <time>2021-03-27T15:00:36Z</time>
      </trkpt>
      <trkpt lat="40.490906" lon="-6.068328">
        <ele>963.64</ele>
        <time>2021-03-27T15:00:38Z</time>
      </trkpt>
      <trkpt lat="40.49086" lon="-6.068139">
        <ele>965.77</ele>
        <time>2021-03-27T15:00:40Z</time>
      </trkpt>
      <trkpt lat="40.490852" lon="-6.067708">
        <ele>961.9</ele>
        <time>2021-03-27T15:00:42Z</time>
      </trkpt>
      <trkpt lat="40.490796" lon="-6.06755">
        <ele>961.07</ele>
        <time>2021-03-27T15:00:44Z</time>
      </trkpt>
      <trkpt lat="40.49069" lon="-6.067412">
        <ele>960.94</ele>
        <time>2021-03-27T15:00:46Z</time>
      </trkpt>
      <trkpt lat="40.490597" lon="-6.06735">
        <ele>961.33</ele>
        <time>2021-03-27T15:00:48Z</time>
      </trkpt>
      <trkpt lat="40.490421" lon="-6.067342">
        <ele>962.41</ele>
        <time>2021-03-27T15:00:50Z</time>
      </trkpt>
      <trkpt lat="40.490106" lon="-6.06742">
        <ele>965.01</ele>
        <time>2021-03-27T15:00:52Z</time>
      </trkpt>
      <trkpt lat="40.489998" lon="-6.06748">
        <ele>966.56</ele>
        <time>2021-03-27T15:00:54Z</time>
      </trkpt>
      <trkpt lat="40.489877" lon="-6.067597">
        <ele>966.57</ele>
        <time>2021-03-27T15:00:56Z</time>
      </trkpt>
      <trkpt lat="40.489778" lon="-6.067744">
        <ele>966.54</ele>
        <time>2021-03-27T15:00:58Z</time>
      </trkpt>
      <trkpt lat="40.489739" lon="-6.067841">
        <ele>966.67</ele>
        <time>2021-03-27T15:01:00Z</time>
      </trkpt>
      <trkpt lat="40.489695" lon="-6.068059">
        <ele>967.71</ele>
        <time>2021-03-27T15:01:02Z</time>
      </trkpt>
      <trkpt lat="40.489687" lon="-6.068219">
        <ele>967.77</ele>
        <time>2021-03-27T15:01:04Z</time>
      </trkpt>
      <trkpt lat="40.489722" lon="-6.068478">
        <ele>967.48</ele>
        <time>2021-03-27T15:01:06Z</time>
      </trkpt>
      <trkpt lat="40.490628" lon="-6.072398">
        <ele>966.0</ele>
        <time>2021-03-27T15:01:08Z</time>
      </trkpt>
      <trkpt lat="40.490918" lon="-6.073759">
        <ele>968.19</ele>
        <time>2021-03-27T15:01:10Z</time>
      </trkpt>
      <trkpt lat="40.490951" lon="-6.074061">
        <ele>971.02</ele>
        <time>2021-03-27T15:01:12Z</time>
      </trkpt>
      <trkpt lat="40.490945" lon="-6.074274">
        <ele>972.93</ele>
        <time>2021-03-27T15:01:13Z</time>
      </trkpt>
      <trkpt lat="40.490575" lon="-6.076129">
        <ele>980.34</ele>
        <time>2021-03-27T15:01:15Z</time>
      </trkpt>
      <trkpt lat="40.490562" lon="-6.076245">
        <ele>980.57</ele>
        <time>2021-03-27T15:01:17Z</time>
      </trkpt>
      <trkpt lat="40.490576" lon="-6.076353">
        <ele>981.1</ele>
        <time>2021-03-27T15:01:19Z</time>
      </trkpt>
      <trkpt lat="40.490636" lon="-6.076539">
        <ele>982.25</ele>
        <time>2021-03-27T15:01:21Z</time>
      </trkpt>
      <trkpt lat="40.490697" lon="-6.076618">
        <ele>982.94</ele>
        <time>2021-03-27T15:01:23Z</time>
      </trkpt>
      <trkpt lat="40.490971" lon="-6.076811">
        <ele>984.24</ele>
        <time>2021-03-27T15:01:25Z</time>
      </trkpt>
      <trkpt lat="40.491051" lon="-6.076896">
        <ele>984.14</ele>
        <time>2021-03-27T15:01:27Z</time>
      </trkpt>
      <trkpt lat="40.491143" lon="-6.077056">
        <ele>984.87</ele>
        <time>2021-03-27T15:01:29Z</time>
      </trkpt>
      <trkpt lat="40.491161" lon="-6.077234">
        <ele>985.81</ele>
        <time>2021-03-27T15:01:31Z</time>
      </trkpt>
      <trkpt lat="40.491155" lon="-6.077394">
        <ele>986.86</ele>
        <time>2021-03-27T15:01:33Z</time>
      </trkpt>
      <trkpt lat="40.490987" lon="-6.078073">
        <ele>996.12</ele>
        <time>2021-03-27T15:01:35Z</time>
      </trkpt>
      <trkpt lat="40.490896" lon="-6.078288">
        <ele>998.13</ele>
        <time>2021-03-27T15:01:37Z</time>
      </trkpt>
      <trkpt lat="40.490825" lon="-6.078359">
        <ele>999.09</ele>
        <time>2021-03-27T15:01:39Z</time>
      </trkpt>
      <trkpt lat="40.490366" lon="-6.078644">
        <ele>1000.51</ele>
        <time>2021-03-27T15:01:41Z</time>
      </trkpt>
      <trkpt lat="40.49027" lon="-6.078767">
        <ele>1000.5</ele>
        <time>2021-03-27T15:01:43Z</time>
      </trkpt>
      <trkpt lat="40.490193" lon="-6.078951">
        <ele>1000.99</ele>
        <time>2021-03-27T15:01:45Z</time>
      </trkpt>
      <trkpt lat="40.490148" lon="-6.079229">
        <ele>1003.27</ele>
        <time>2021-03-27T15:01:47Z</time>
      </trkpt>
      <trkpt lat="40.490095" lon="-6.079908">
        <ele>1009.14</ele>
        <time>2021-03-27T15:01:49Z</time>
      </trkpt>
      <trkpt lat="40.490106" lon="-6.080057">
        <ele>1009.94</ele>
        <time>2021-03-27T15:01:51Z</time>
      </trkpt>
      <trkpt lat="40.490138" lon="-6.080219">
        <ele>1010.39</ele>
        <time>2021-03-27T15:01:53Z</time>
      </trkpt>
      <trkpt lat="40.49021" lon="-6.080392">
        <ele>1010.66</ele>
        <time>2021-03-27T15:01:55Z</time>
      </trkpt>
      <trkpt lat="40.490679" lon="-6.081193">
        <ele>1016.48</ele>
        <time>2021-03-27T15:01:57Z</time>
      </trkpt>
      <trkpt lat="40.490783" lon="-6.0815">
        <ele>1015.85</ele>
        <time>2021-03-27T15:01:59Z</time>
      </trkpt>
      <trkpt lat="40.490796" lon="-6.081698">
        <ele>1015.38</ele>
        <time>2021-03-27T15:02:01Z</time>
      </trkpt>
      <trkpt lat="40.490762" lon="-6.081956">
        <ele>1016.59</ele>
        <time>2021-03-27T15:02:03Z</time>
      </trkpt>
      <trkpt lat="40.490393" lon="-6.08351">
        <ele>1019.63</ele>
        <time>2021-03-27T15:02:05Z</time>
      </trkpt>
      <trkpt lat="40.490355" lon="-6.083808">
        <ele>1019.48</ele>
        <time>2021-03-27T15:02:07Z</time>
      </trkpt>
      <trkpt lat="40.490301" lon="-6.085545">
        <ele>1021.2</ele>
        <time>2021-03-27T15:02:09Z</time>
      </trkpt>
      <trkpt lat="40.489696" lon="-6.09149">
        <ele>1027.62</ele>
        <time>2021-03-27T15:02:11Z</time>
      </trkpt>
      <trkpt lat="40.489658" lon="-6.092253">
        <ele>1027.18</ele>
        <time>2021-03-27T15:02:13Z</time>
      </trkpt>
      <trkpt lat="40.489499" lon="-6.092335">
        <ele>1029.45</ele>
        <time>2021-03-27T15:02:14Z</time>
      </trkpt>
      <trkpt lat="40.489409" lon="-6.092344">
        <ele>1030.25</ele>
        <time>2021-03-27T15:02:16Z</time>
      </trkpt>
      <trkpt lat="40.48924" lon="-6.092288">
        <ele>1031.47</ele>
        <time>2021-03-27T15:02:18Z</time>
      </trkpt>
      <trkpt lat="40.489206" lon="-6.092195">
        <ele>1031.8</ele>
        <time>2021-03-27T15:02:21Z</time>
      </trkpt>
      <trkpt lat="40.488385" lon="-6.089927">
        <ele>1026.17</ele>
        <time>2021-03-27T15:02:25Z</time>
      </trkpt>
      <trkpt lat="40.488266" lon="-6.089632">
        <ele>1024.08</ele>
        <time>2021-03-27T15:02:28Z</time>
      </trkpt>
      <trkpt lat="40.488061" lon="-6.089226">
        <ele>1021.47</ele>
        <time>2021-03-27T15:02:31Z</time>
      </trkpt>
      <trkpt lat="40.487961" lon="-6.089068">
        <ele>1019.96</ele>
        <time>2021-03-27T15:02:34Z</time>
      </trkpt>
      <trkpt lat="40.487849" lon="-6.088915">
        <ele>1018.61</ele>
        <time>2021-03-27T15:02:37Z</time>
      </trkpt>
      <trkpt lat="40.487713" lon="-6.088766">
        <ele>1018.7</ele>
        <time>2021-03-27T15:02:40Z</time>
      </trkpt>
      <trkpt lat="40.487481" lon="-6.088534">
        <ele>1016.63</ele>
        <time>2021-03-27T15:02:43Z</time>
      </trkpt>
      <trkpt lat="40.487191" lon="-6.088334">
        <ele>1009.66</ele>
        <time>2021-03-27T15:02:46Z</time>
      </trkpt>
      <trkpt lat="40.486873" lon="-6.088172">
        <ele>1005.12</ele>
        <time>2021-03-27T15:02:49Z</time>
      </trkpt>
      <trkpt lat="40.48556" lon="-6.087659">
        <ele>994.14</ele>
        <time>2021-03-27T15:02:53Z</time>
      </trkpt>
      <trkpt lat="40.485371" lon="-6.087555">
        <ele>993.39</ele>
        <time>2021-03-27T15:02:56Z</time>
      </trkpt>
      <trkpt lat="40.484977" lon="-6.087268">
        <ele>990.0</ele>
        <time>2021-03-27T15:02:59Z</time>
      </trkpt>
      <trkpt lat="40.484489" lon="-6.086835">
        <ele>988.18</ele>
        <time>2021-03-27T15:03:02Z</time>
      </trkpt>
      <trkpt lat="40.484291" lon="-6.086591">
        <ele>989.61</ele>
        <time>2021-03-27T15:03:05Z</time>
      </trkpt>
      <trkpt lat="40.484165" lon="-6.086406">
        <ele>991.96</ele>
        <time>2021-03-27T15:03:08Z</time>
      </trkpt>
      <trkpt lat="40.4836" lon="-6.085365">
        <ele>992.02</ele>
        <time>2021-03-27T15:03:11Z</time>
      </trkpt>
      <trkpt lat="40.483251" lon="-6.084905">
        <ele>987.78</ele>
        <time>2021-03-27T15:03:14Z</time>
      </trkpt>
      <trkpt lat="40.483024" lon="-6.084681">
        <ele>984.55</ele>
        <time>2021-03-27T15:03:17Z</time>
      </trkpt>
      <trkpt lat="40.482625" lon="-6.0844">
        <ele>981.68</ele>
        <time>2021-03-27T15:03:20Z</time>
      </trkpt>
      <trkpt lat="40.481662" lon="-6.083938">
        <ele>976.41</ele>
        <time>2021-03-27T15:03:24Z</time>
      </trkpt>
      <trkpt lat="40.481376" lon="-6.083759">
        <ele>970.7</ele>
        <time>2021-03-27T15:03:27Z</time>
      </trkpt>
      <trkpt lat="40.481138" lon="-6.083526">
        <ele>961.73</ele>
        <time>2021-03-27T15:03:30Z</time>
      </trkpt>
      <trkpt lat="40.480767" lon="-6.083009">
        <ele>953.07</ele>
        <time>2021-03-27T15:03:33Z</time>
      </trkpt>
      <trkpt lat="40.480482" lon="-6.082532">
        <ele>953.76</ele>
        <time>2021-03-27T15:03:36Z</time>
      </trkpt>
      <trkpt lat="40.480284" lon="-6.082135">
        <ele>956.58</ele>
        <time>2021-03-27T15:03:39Z</time>
      </trkpt>
      <trkpt lat="40.480159" lon="-6.081741">
        <ele>962.63</ele>
        <time>2021-03-27T15:03:42Z</time>
      </trkpt>
      <trkpt lat="40.480108" lon="-6.081503">
        <ele>965.72</ele>
        <time>2021-03-27T15:03:45Z</time>
      </trkpt>
      <trkpt lat="40.480055" lon="-6.081094">
        <ele>967.4</ele>
        <time>2021-03-27T15:03:48Z</time>
      </trkpt>
      <trkpt lat="40.48005" lon="-6.080728">
        <ele>967.22</ele>
        <time>2021-03-27T15:03:52Z</time>
      </trkpt>
      <trkpt lat="40.48008" lon="-6.079011">
        <ele>978.7</ele>
        <time>2021-03-27T15:03:55Z</time>
      </trkpt>
      <trkpt lat="40.480033" lon="-6.078471">
        <ele>982.03</ele>
        <time>2021-03-27T15:03:58Z</time>
      </trkpt>
      <trkpt lat="40.479944" lon="-6.078092">
        <ele>984.3</ele>
        <time>2021-03-27T15:04:01Z</time>
      </trkpt>
      <trkpt lat="40.479853" lon="-6.077841">
        <ele>983.88</ele>
        <time>2021-03-27T15:04:04Z</time>
      </trkpt>
      <trkpt lat="40.479601" lon="-6.077244">
        <ele>983.43</ele>
        <time>2021-03-27T15:04:07Z</time>
      </trkpt>
      <trkpt lat="40.479385" lon="-6.076821">
        <ele>985.52</ele>
        <time>2021-03-27T15:04:10Z</time>
      </trkpt>
      <trkpt lat="40.47929" lon="-6.076668">
        <ele>986.66</ele>
        <time>2021-03-27T15:04:13Z</time>
      </trkpt>
      <trkpt lat="40.479074" lon="-6.076425">
        <ele>987.42</ele>
        <time>2021-03-27T15:04:16Z</time>
      </trkpt>
      <trkpt lat="40.478815" lon="-6.076229">
        <ele>988.42</ele>
        <time>2021-03-27T15:04:20Z</time>
      </trkpt>
      <trkpt lat="40.478498" lon="-6.076077">
        <ele>986.6</ele>
        <time>2021-03-27T15:04:23Z</time>
      </trkpt>
      <trkpt lat="40.478249" lon="-6.076021">
        <ele>984.05</ele>
        <time>2021-03-27T15:04:26Z</time>
      </trkpt>
      <trkpt lat="40.477866" lon="-6.076056">
        <ele>983.05</ele>
        <time>2021-03-27T15:04:29Z</time>
      </trkpt>
      <trkpt lat="40.477866" lon="-6.076056">
        <ele>983.05</ele>
        <time>2021-03-27T15:04:29Z</time>
      </trkpt>
      <trkpt lat="40.47756" lon="-6.076175">
        <ele>981.85</ele>
        <time>2021-03-27T15:04:32Z</time>
      </trkpt>
      <trkpt lat="40.476346" lon="-6.076922">
        <ele>972.86</ele>
        <time>2021-03-27T15:04:35Z</time>
      </trkpt>
      <trkpt lat="40.475724" lon="-6.077335">
        <ele>966.71</ele>
        <time>2021-03-27T15:04:38Z</time>
      </trkpt>
      <trkpt lat="40.475556" lon="-6.077477">
        <ele>965.0</ele>
        <time>2021-03-27T15:04:41Z</time>
      </trkpt>
      <trkpt lat="40.475186" lon="-6.07788">
        <ele>963.08</ele>
        <time>2021-03-27T15:04:44Z</time>
      </trkpt>
      <trkpt lat="40.474952" lon="-6.07819">
        <ele>961.82</ele>
        <time>2021-03-27T15:04:46Z</time>
      </trkpt>
      <trkpt lat="40.474761" lon="-6.07853">
        <ele>960.91</ele>
        <time>2021-03-27T15:04:49Z</time>
      </trkpt>
      <trkpt lat="40.474121" lon="-6.07982">
        <ele>952.47</ele>
        <time>2021-03-27T15:04:52Z</time>
      </trkpt>
      <trkpt lat="40.47401" lon="-6.079989">
        <ele>951.66</ele>
        <time>2021-03-27T15:04:55Z</time>
      </trkpt>
      <trkpt lat="40.473848" lon="-6.080193">
        <ele>951.51</ele>
        <time>2021-03-27T15:04:58Z</time>
      </trkpt>
      <trkpt lat="40.47357" lon="-6.080425">
        <ele>952.29</ele>
        <time>2021-03-27T15:05:01Z</time>
      </trkpt>
      <trkpt lat="40.4734" lon="-6.080532">
        <ele>950.94</ele>
        <time>2021-03-27T15:05:04Z</time>
      </trkpt>
      <trkpt lat="40.473102" lon="-6.080655">
        <ele>950.3</ele>
        <time>2021-03-27T15:05:07Z</time>
      </trkpt>
      <trkpt lat="40.472518" lon="-6.080813">
        <ele>945.91</ele>
        <time>2021-03-27T15:05:10Z</time>
      </trkpt>
      <trkpt lat="40.472294" lon="-6.080804">
        <ele>944.5</ele>
        <time>2021-03-27T15:05:13Z</time>
      </trkpt>
      <trkpt lat="40.472144" lon="-6.080766">
        <ele>943.47</ele>
        <time>2021-03-27T15:05:16Z</time>
      </trkpt>
      <trkpt lat="40.471905" lon="-6.080622">
        <ele>939.86</ele>
        <time>2021-03-27T15:05:19Z</time>
      </trkpt>
      <trkpt lat="40.471692" lon="-6.08042">
        <ele>937.3</ele>
        <time>2021-03-27T15:05:22Z</time>
      </trkpt>
      <trkpt lat="40.471299" lon="-6.079929">
        <ele>936.02</ele>
        <time>2021-03-27T15:05:24Z</time>
      </trkpt>
      <trkpt lat="40.471163" lon="-6.079787">
        <ele>936.9</ele>
        <time>2021-03-27T15:05:27Z</time>
      </trkpt>
      <trkpt lat="40.471036" lon="-6.079676">
        <ele>936.35</ele>
        <time>2021-03-27T15:05:30Z</time>
      </trkpt>
      <trkpt lat="40.470749" lon="-6.079508">
        <ele>933.59</ele>
        <time>2021-03-27T15:05:33Z</time>
      </trkpt>
      <trkpt lat="40.470621" lon="-6.079476">
        <ele>932.84</ele>
        <time>2021-03-27T15:05:36Z</time>
      </trkpt>
      <trkpt lat="40.4704" lon="-6.079458">
        <ele>931.77</ele>
        <time>2021-03-27T15:05:39Z</time>
      </trkpt>
      <trkpt lat="40.469871" lon="-6.079479">
        <ele>928.36</ele>
        <time>2021-03-27T15:05:42Z</time>
      </trkpt>
      <trkpt lat="40.469463" lon="-6.079461">
        <ele>923.63</ele>
        <time>2021-03-27T15:05:45Z</time>
      </trkpt>
      <trkpt lat="40.46919" lon="-6.079402">
        <ele>920.23</ele>
        <time>2021-03-27T15:05:48Z</time>
      </trkpt>
      <trkpt lat="40.468841" lon="-6.079193">
        <ele>919.91</ele>
        <time>2021-03-27T15:05:51Z</time>
      </trkpt>
      <trkpt lat="40.468625" lon="-6.078954">
        <ele>918.36</ele>
        <time>2021-03-27T15:05:54Z</time>
      </trkpt>
      <trkpt lat="40.468523" lon="-6.078811">
        <ele>917.13</ele>
        <time>2021-03-27T15:05:57Z</time>
      </trkpt>
      <trkpt lat="40.468378" lon="-6.078523">
        <ele>913.92</ele>
        <time>2021-03-27T15:06:00Z</time>
      </trkpt>
      <trkpt lat="40.468266" lon="-6.078153">
        <ele>910.93</ele>
        <time>2021-03-27T15:06:02Z</time>
      </trkpt>
      <trkpt lat="40.468214" lon="-6.077868">
        <ele>909.56</ele>
        <time>2021-03-27T15:06:05Z</time>
      </trkpt>
      <trkpt lat="40.468171" lon="-6.077379">
        <ele>908.19</ele>
        <time>2021-03-27T15:06:08Z</time>
      </trkpt>
      <trkpt lat="40.468137" lon="-6.076522">
        <ele>915.97</ele>
        <time>2021-03-27T15:06:11Z</time>
      </trkpt>
      <trkpt lat="40.468151" lon="-6.075556">
        <ele>914.16</ele>
        <time>2021-03-27T15:06:14Z</time>
      </trkpt>
      <trkpt lat="40.468137" lon="-6.075177">
        <ele>910.6</ele>
        <time>2021-03-27T15:06:17Z</time>
      </trkpt>
      <trkpt lat="40.468089" lon="-6.074622">
        <ele>908.83</ele>
        <time>2021-03-27T15:06:20Z</time>
      </trkpt>
      <trkpt lat="40.468009" lon="-6.074311">
        <ele>909.2</ele>
        <time>2021-03-27T15:06:23Z</time>
      </trkpt>
      <trkpt lat="40.467717" lon="-6.07337">
        <ele>908.45</ele>
        <time>2021-03-27T15:06:26Z</time>
      </trkpt>
      <trkpt lat="40.467664" lon="-6.07313">
        <ele>910.93</ele>
        <time>2021-03-27T15:06:29Z</time>
      </trkpt>
      <trkpt lat="40.467633" lon="-6.072899">
        <ele>910.81</ele>
        <time>2021-03-27T15:06:32Z</time>
      </trkpt>
      <trkpt lat="40.467624" lon="-6.072568">
        <ele>908.58</ele>
        <time>2021-03-27T15:06:35Z</time>
      </trkpt>
      <trkpt lat="40.467662" lon="-6.071853">
        <ele>906.05</ele>
        <time>2021-03-27T15:06:38Z</time>
      </trkpt>
      <trkpt lat="40.467741" lon="-6.071394">
        <ele>902.09</ele>
        <time>2021-03-27T15:06:40Z</time>
      </trkpt>
      <trkpt lat="40.467788" lon="-6.071207">
        <ele>902.08</ele>
        <time>2021-03-27T15:06:43Z</time>
      </trkpt>
      <trkpt lat="40.467915" lon="-6.070855">
        <ele>900.47</ele>
        <time>2021-03-27T15:06:46Z</time>
      </trkpt>
      <trkpt lat="40.468201" lon="-6.070257">
        <ele>896.51</ele>
        <time>2021-03-27T15:06:49Z</time>
      </trkpt>
      <trkpt lat="40.468345" lon="-6.069868">
        <ele>896.31</ele>
        <time>2021-03-27T15:06:52Z</time>
      </trkpt>
      <trkpt lat="40.468398" lon="-6.069659">
        <ele>895.38</ele>
        <time>2021-03-27T15:06:55Z</time>
      </trkpt>
      <trkpt lat="40.46846" lon="-6.069095">
        <ele>890.43</ele>
        <time>2021-03-27T15:06:58Z</time>
      </trkpt>
      <trkpt lat="40.468362" lon="-6.067707">
        <ele>878.16</ele>
        <time>2021-03-27T15:07:01Z</time>
      </trkpt>
      <trkpt lat="40.468376" lon="-6.06742">
        <ele>875.28</ele>
        <time>2021-03-27T15:07:04Z</time>
      </trkpt>
      <trkpt lat="40.468476" lon="-6.067038">
        <ele>874.57</ele>
        <time>2021-03-27T15:07:07Z</time>
      </trkpt>
      <trkpt lat="40.468551" lon="-6.066884">
        <ele>874.83</ele>
        <time>2021-03-27T15:07:10Z</time>
      </trkpt>
      <trkpt lat="40.468697" lon="-6.066659">
        <ele>875.17</ele>
        <time>2021-03-27T15:07:13Z</time>
      </trkpt>
      <trkpt lat="40.468865" lon="-6.066484">
        <ele>873.78</ele>
        <time>2021-03-27T15:07:16Z</time>
      </trkpt>
      <trkpt lat="40.46907" lon="-6.066359">
        <ele>872.06</ele>
        <time>2021-03-27T15:07:18Z</time>
      </trkpt>
      <trkpt lat="40.469211" lon="-6.066299">
        <ele>871.3</ele>
        <time>2021-03-27T15:07:21Z</time>
      </trkpt>
      <trkpt lat="40.469578" lon="-6.066244">
        <ele>870.52</ele>
        <time>2021-03-27T15:07:24Z</time>
      </trkpt>
      <trkpt lat="40.469983" lon="-6.066213">
        <ele>868.72</ele>
        <time>2021-03-27T15:07:27Z</time>
      </trkpt>
      <trkpt lat="40.470157" lon="-6.066178">
        <ele>868.19</ele>
        <time>2021-03-27T15:07:30Z</time>
      </trkpt>
      <trkpt lat="40.470414" lon="-6.066068">
        <ele>867.33</ele>
        <time>2021-03-27T15:07:33Z</time>
      </trkpt>
      <trkpt lat="40.470675" lon="-6.065822">
        <ele>865.54</ele>
        <time>2021-03-27T15:07:36Z</time>
      </trkpt>
      <trkpt lat="40.470866" lon="-6.065542">
        <ele>864.71</ele>
        <time>2021-03-27T15:07:39Z</time>
      </trkpt>
      <trkpt lat="40.471601" lon="-6.064024">
        <ele>860.08</ele>
        <time>2021-03-27T15:07:42Z</time>
      </trkpt>
      <trkpt lat="40.471725" lon="-6.063642">
        <ele>859.92</ele>
        <time>2021-03-27T15:07:45Z</time>
      </trkpt>
      <trkpt lat="40.471758" lon="-6.063477">
        <ele>860.02</ele>
        <time>2021-03-27T15:07:48Z</time>
      </trkpt>
      <trkpt lat="40.471785" lon="-6.063096">
        <ele>859.17</ele>
        <time>2021-03-27T15:07:51Z</time>
      </trkpt>
      <trkpt lat="40.471767" lon="-6.062685">
        <ele>853.74</ele>
        <time>2021-03-27T15:07:54Z</time>
      </trkpt>
      <trkpt lat="40.471736" lon="-6.062471">
        <ele>851.7</ele>
        <time>2021-03-27T15:07:56Z</time>
      </trkpt>
      <trkpt lat="40.47149" lon="-6.061182">
        <ele>842.09</ele>
        <time>2021-03-27T15:07:59Z</time>
      </trkpt>
      <trkpt lat="40.471429" lon="-6.060964">
        <ele>841.85</ele>
        <time>2021-03-27T15:08:02Z</time>
      </trkpt>
      <trkpt lat="40.471301" lon="-6.060671">
        <ele>842.17</ele>
        <time>2021-03-27T15:08:05Z</time>
      </trkpt>
      <trkpt lat="40.471124" lon="-6.060431">
        <ele>840.21</ele>
        <time>2021-03-27T15:08:08Z</time>
      </trkpt>
      <trkpt lat="40.471031" lon="-6.060342">
        <ele>839.39</ele>
        <time>2021-03-27T15:08:11Z</time>
      </trkpt>
      <trkpt lat="40.470852" lon="-6.060229">
        <ele>838.79</ele>
        <time>2021-03-27T15:08:14Z</time>
      </trkpt>
      <trkpt lat="40.470481" lon="-6.060081">
        <ele>835.94</ele>
        <time>2021-03-27T15:08:17Z</time>
      </trkpt>
      <trkpt lat="40.469997" lon="-6.059946">
        <ele>827.24</ele>
        <time>2021-03-27T15:08:20Z</time>
      </trkpt>
      <trkpt lat="40.469761" lon="-6.059937">
        <ele>825.43</ele>
        <time>2021-03-27T15:08:23Z</time>
      </trkpt>
      <trkpt lat="40.469572" lon="-6.059979">
        <ele>824.22</ele>
        <time>2021-03-27T15:08:26Z</time>
      </trkpt>
      <trkpt lat="40.469453" lon="-6.060049">
        <ele>824.38</ele>
        <time>2021-03-27T15:08:29Z</time>
      </trkpt>
      <trkpt lat="40.469234" lon="-6.060287">
        <ele>821.16</ele>
        <time>2021-03-27T15:08:32Z</time>
      </trkpt>
      <trkpt lat="40.468378" lon="-6.061518">
        <ele>811.37</ele>
        <time>2021-03-27T15:08:34Z</time>
      </trkpt>
      <trkpt lat="40.467945" lon="-6.06208">
        <ele>807.48</ele>
        <time>2021-03-27T15:08:37Z</time>
      </trkpt>
      <trkpt lat="40.467753" lon="-6.062387">
        <ele>805.83</ele>
        <time>2021-03-27T15:08:40Z</time>
      </trkpt>
      <trkpt lat="40.467688" lon="-6.06254">
        <ele>803.96</ele>
        <time>2021-03-27T15:08:43Z</time>
      </trkpt>
      <trkpt lat="40.467609" lon="-6.062836">
        <ele>802.47</ele>
        <time>2021-03-27T15:08:46Z</time>
      </trkpt>
      <trkpt lat="40.467455" lon="-6.063569">
        <ele>802.59</ele>
        <time>2021-03-27T15:08:49Z</time>
      </trkpt>
      <trkpt lat="40.467337" lon="-6.063938">
        <ele>800.77</ele>
        <time>2021-03-27T15:08:52Z</time>
      </trkpt>
      <trkpt lat="40.467262" lon="-6.064096">
        <ele>800.31</ele>
        <time>2021-03-27T15:08:55Z</time>
      </trkpt>
      <trkpt lat="40.465937" lon="-6.066095">
        <ele>785.64</ele>
        <time>2021-03-27T15:08:58Z</time>
      </trkpt>
      <trkpt lat="40.465831" lon="-6.066222">
        <ele>786.57</ele>
        <time>2021-03-27T15:09:01Z</time>
      </trkpt>
      <trkpt lat="40.465725" lon="-6.066318">
        <ele>788.16</ele>
        <time>2021-03-27T15:09:04Z</time>
      </trkpt>
      <trkpt lat="40.465623" lon="-6.066382">
        <ele>788.76</ele>
        <time>2021-03-27T15:09:07Z</time>
      </trkpt>
      <trkpt lat="40.465512" lon="-6.066418">
        <ele>788.52</ele>
        <time>2021-03-27T15:09:10Z</time>
      </trkpt>
      <trkpt lat="40.4653" lon="-6.066419">
        <ele>786.93</ele>
        <time>2021-03-27T15:09:12Z</time>
      </trkpt>
      <trkpt lat="40.465194" lon="-6.066381">
        <ele>787.3</ele>
        <time>2021-03-27T15:09:15Z</time>
      </trkpt>
      <trkpt lat="40.465023" lon="-6.066279">
        <ele>787.81</ele>
        <time>2021-03-27T15:09:18Z</time>
      </trkpt>
      <trkpt lat="40.4645" lon="-6.065764">
        <ele>775.25</ele>
        <time>2021-03-27T15:09:21Z</time>
      </trkpt>
      <trkpt lat="40.464419" lon="-6.065714">
        <ele>772.84</ele>
        <time>2021-03-27T15:09:24Z</time>
      </trkpt>
      <trkpt lat="40.464248" lon="-6.06568">
        <ele>766.85</ele>
        <time>2021-03-27T15:09:27Z</time>
      </trkpt>
      <trkpt lat="40.464172" lon="-6.065691">
        <ele>765.05</ele>
        <time>2021-03-27T15:09:30Z</time>
      </trkpt>
      <trkpt lat="40.464076" lon="-6.06574">
        <ele>764.25</ele>
        <time>2021-03-27T15:09:33Z</time>
      </trkpt>
      <trkpt lat="40.463966" lon="-6.065829">
        <ele>764.1</ele>
        <time>2021-03-27T15:09:36Z</time>
      </trkpt>
      <trkpt lat="40.463557" lon="-6.066313">
        <ele>764.53</ele>
        <time>2021-03-27T15:09:39Z</time>
      </trkpt>
      <trkpt lat="40.46336" lon="-6.066401">
        <ele>762.18</ele>
        <time>2021-03-27T15:09:42Z</time>
      </trkpt>
      <trkpt lat="40.46318" lon="-6.066362">
        <ele>760.31</ele>
        <time>2021-03-27T15:09:45Z</time>
      </trkpt>
      <trkpt lat="40.463041" lon="-6.066299">
        <ele>759.22</ele>
        <time>2021-03-27T15:09:48Z</time>
      </trkpt>
      <trkpt lat="40.462266" lon="-6.065869">
        <ele>756.46</ele>
        <time>2021-03-27T15:09:50Z</time>
      </trkpt>
      <trkpt lat="40.462066" lon="-6.065786">
        <ele>749.54</ele>
        <time>2021-03-27T15:09:53Z</time>
      </trkpt>
      <trkpt lat="40.461991" lon="-6.065778">
        <ele>747.73</ele>
        <time>2021-03-27T15:09:56Z</time>
      </trkpt>
      <trkpt lat="40.46181" lon="-6.065836">
        <ele>746.67</ele>
        <time>2021-03-27T15:09:59Z</time>
      </trkpt>
      <trkpt lat="40.46173" lon="-6.065898">
        <ele>747.29</ele>
        <time>2021-03-27T15:10:02Z</time>
      </trkpt>
      <trkpt lat="40.461649" lon="-6.066002">
        <ele>749.13</ele>
        <time>2021-03-27T15:10:05Z</time>
      </trkpt>
      <trkpt lat="40.461591" lon="-6.066126">
        <ele>751.69</ele>
        <time>2021-03-27T15:10:08Z</time>
      </trkpt>
      <trkpt lat="40.461417" lon="-6.066701">
        <ele>757.29</ele>
        <time>2021-03-27T15:10:11Z</time>
      </trkpt>
      <trkpt lat="40.461357" lon="-6.066824">
        <ele>757.74</ele>
        <time>2021-03-27T15:10:14Z</time>
      </trkpt>
      <trkpt lat="40.461282" lon="-6.066909">
        <ele>757.62</ele>
        <time>2021-03-27T15:10:17Z</time>
      </trkpt>
      <trkpt lat="40.461166" lon="-6.066985">
        <ele>756.69</ele>
        <time>2021-03-27T15:10:20Z</time>
      </trkpt>
      <trkpt lat="40.460998" lon="-6.067004">
        <ele>756.8</ele>
        <time>2021-03-27T15:10:23Z</time>
      </trkpt>
      <trkpt lat="40.46089" lon="-6.066973">
        <ele>757.03</ele>
        <time>2021-03-27T15:10:26Z</time>
      </trkpt>
      <trkpt lat="40.460805" lon="-6.066914">
        <ele>757.1</ele>
        <time>2021-03-27T15:10:28Z</time>
      </trkpt>
      <trkpt lat="40.460742" lon="-6.066832">
        <ele>757.22</ele>
        <time>2021-03-27T15:10:31Z</time>
      </trkpt>
      <trkpt lat="40.460625" lon="-6.066566">
        <ele>755.64</ele>
        <time>2021-03-27T15:10:34Z</time>
      </trkpt>
      <trkpt lat="40.460256" lon="-6.065402">
        <ele>739.98</ele>
        <time>2021-03-27T15:10:37Z</time>
      </trkpt>
      <trkpt lat="40.460179" lon="-6.065226">
        <ele>738.44</ele>
        <time>2021-03-27T15:10:40Z</time>
      </trkpt>
      <trkpt lat="40.46011" lon="-6.065122">
        <ele>737.8</ele>
        <time>2021-03-27T15:10:43Z</time>
      </trkpt>
      <trkpt lat="40.459911" lon="-6.064933">
        <ele>735.57</ele>
        <time>2021-03-27T15:10:46Z</time>
      </trkpt>
      <trkpt lat="40.459515" lon="-6.064749">
        <ele>729.36</ele>
        <time>2021-03-27T15:10:49Z</time>
      </trkpt>
      <trkpt lat="40.459211" lon="-6.06465">
        <ele>729.52</ele>
        <time>2021-03-27T15:10:52Z</time>
      </trkpt>
      <trkpt lat="40.459012" lon="-6.064648">
        <ele>729.89</ele>
        <time>2021-03-27T15:10:55Z</time>
      </trkpt>
      <trkpt lat="40.458839" lon="-6.064703">
        <ele>730.73</ele>
        <time>2021-03-27T15:10:58Z</time>
      </trkpt>
      <trkpt lat="40.458745" lon="-6.064757">
        <ele>730.81</ele>
        <time>2021-03-27T15:11:01Z</time>
      </trkpt>
      <trkpt lat="40.458483" lon="-6.065053">
        <ele>733.28</ele>
        <time>2021-03-27T15:11:04Z</time>
      </trkpt>
      <trkpt lat="40.458249" lon="-6.065337">
        <ele>734.56</ele>
        <time>2021-03-27T15:11:06Z</time>
      </trkpt>
      <trkpt lat="40.458062" lon="-6.065475">
        <ele>735.24</ele>
        <time>2021-03-27T15:11:09Z</time>
      </trkpt>
      <trkpt lat="40.45797" lon="-6.065493">
        <ele>735.6</ele>
        <time>2021-03-27T15:11:12Z</time>
      </trkpt>
      <trkpt lat="40.457893" lon="-6.065477">
        <ele>734.86</ele>
        <time>2021-03-27T15:11:15Z</time>
      </trkpt>
      <trkpt lat="40.45744" lon="-6.06527">
        <ele>725.15</ele>
        <time>2021-03-27T15:11:18Z</time>
      </trkpt>
      <trkpt lat="40.457365" lon="-6.065253">
        <ele>722.61</ele>
        <time>2021-03-27T15:11:21Z</time>
      </trkpt>
      <trkpt lat="40.457272" lon="-6.065274">
        <ele>721.14</ele>
        <time>2021-03-27T15:11:24Z</time>
      </trkpt>
      <trkpt lat="40.457128" lon="-6.065365">
        <ele>720.59</ele>
        <time>2021-03-27T15:11:27Z</time>
      </trkpt>
      <trkpt lat="40.456953" lon="-6.065627">
        <ele>720.6</ele>
        <time>2021-03-27T15:11:30Z</time>
      </trkpt>
      <trkpt lat="40.456783" lon="-6.065884">
        <ele>719.41</ele>
        <time>2021-03-27T15:11:33Z</time>
      </trkpt>
      <trkpt lat="40.456516" lon="-6.06622">
        <ele>717.35</ele>
        <time>2021-03-27T15:11:36Z</time>
      </trkpt>
      <trkpt lat="40.456388" lon="-6.066328">
        <ele>716.89</ele>
        <time>2021-03-27T15:11:39Z</time>
      </trkpt>
      <trkpt lat="40.456109" lon="-6.066482">
        <ele>715.32</ele>
        <time>2021-03-27T15:11:42Z</time>
      </trkpt>
      <trkpt lat="40.455908" lon="-6.066539">
        <ele>713.53</ele>
        <time>2021-03-27T15:11:44Z</time>
      </trkpt>
      <trkpt lat="40.454989" lon="-6.066611">
        <ele>707.96</ele>
        <time>2021-03-27T15:11:47Z</time>
      </trkpt>
      <trkpt lat="40.453616" lon="-6.066672">
        <ele>691.1</ele>
        <time>2021-03-27T15:11:50Z</time>
      </trkpt>
      <trkpt lat="40.453194" lon="-6.066671">
        <ele>684.56</ele>
        <time>2021-03-27T15:11:53Z</time>
      </trkpt>
      <trkpt lat="40.452907" lon="-6.066606">
        <ele>681.5</ele>
        <time>2021-03-27T15:11:56Z</time>
      </trkpt>
      <trkpt lat="40.452724" lon="-6.066523">
        <ele>680.13</ele>
        <time>2021-03-27T15:11:59Z</time>
      </trkpt>
      <trkpt lat="40.452516" lon="-6.066364">
        <ele>679.79</ele>
        <time>2021-03-27T15:12:02Z</time>
      </trkpt>
      <trkpt lat="40.452255" lon="-6.066049">
        <ele>685.41</ele>
        <time>2021-03-27T15:12:05Z</time>
      </trkpt>
      <trkpt lat="40.452185" lon="-6.066199">
        <ele>686.54</ele>
        <time>2021-03-27T15:12:07Z</time>
      </trkpt>
      <trkpt lat="40.452124" lon="-6.066408">
        <ele>686.67</ele>
        <time>2021-03-27T15:12:08Z</time>
      </trkpt>
      <trkpt lat="40.452121" lon="-6.066561">
        <ele>685.98</ele>
        <time>2021-03-27T15:12:10Z</time>
      </trkpt>
      <trkpt lat="40.452152" lon="-6.066706">
        <ele>684.83</ele>
        <time>2021-03-27T15:12:12Z</time>
      </trkpt>
      <trkpt lat="40.452274" lon="-6.067094">
        <ele>682.02</ele>
        <time>2021-03-27T15:12:14Z</time>
      </trkpt>
      <trkpt lat="40.452296" lon="-6.067248">
        <ele>681.36</ele>
        <time>2021-03-27T15:12:15Z</time>
      </trkpt>
      <trkpt lat="40.4523" lon="-6.067484">
        <ele>682.22</ele>
        <time>2021-03-27T15:12:17Z</time>
      </trkpt>
      <trkpt lat="40.452282" lon="-6.067671">
        <ele>683.36</ele>
        <time>2021-03-27T15:12:19Z</time>
      </trkpt>
      <trkpt lat="40.452192" lon="-6.067995">
        <ele>686.25</ele>
        <time>2021-03-27T15:12:20Z</time>
      </trkpt>
      <trkpt lat="40.452094" lon="-6.068247">
        <ele>685.08</ele>
        <time>2021-03-27T15:12:22Z</time>
      </trkpt>
      <trkpt lat="40.451776" lon="-6.068826">
        <ele>678.92</ele>
        <time>2021-03-27T15:12:24Z</time>
      </trkpt>
      <trkpt lat="40.45166" lon="-6.069108">
        <ele>676.38</ele>
        <time>2021-03-27T15:12:26Z</time>
      </trkpt>
      <trkpt lat="40.451323" lon="-6.070045">
        <ele>678.33</ele>
        <time>2021-03-27T15:12:27Z</time>
      </trkpt>
      <trkpt lat="40.451176" lon="-6.070347">
        <ele>678.47</ele>
        <time>2021-03-27T15:12:29Z</time>
      </trkpt>
      <trkpt lat="40.451073" lon="-6.070483">
        <ele>677.57</ele>
        <time>2021-03-27T15:12:31Z</time>
      </trkpt>
      <trkpt lat="40.450675" lon="-6.070797">
        <ele>670.3</ele>
        <time>2021-03-27T15:12:32Z</time>
      </trkpt>
      <trkpt lat="40.450338" lon="-6.071163">
        <ele>669.13</ele>
        <time>2021-03-27T15:12:34Z</time>
      </trkpt>
      <trkpt lat="40.450125" lon="-6.071706">
        <ele>673.16</ele>
        <time>2021-03-27T15:12:36Z</time>
      </trkpt>
      <trkpt lat="40.45006" lon="-6.071825">
        <ele>674.51</ele>
        <time>2021-03-27T15:12:38Z</time>
      </trkpt>
      <trkpt lat="40.450005" lon="-6.071887">
        <ele>674.52</ele>
        <time>2021-03-27T15:12:39Z</time>
      </trkpt>
      <trkpt lat="40.449698" lon="-6.072018">
        <ele>668.0</ele>
        <time>2021-03-27T15:12:41Z</time>
      </trkpt>
      <trkpt lat="40.449431" lon="-6.0721">
        <ele>663.17</ele>
        <time>2021-03-27T15:12:43Z</time>
      </trkpt>
      <trkpt lat="40.449319" lon="-6.072203">
        <ele>663.35</ele>
        <time>2021-03-27T15:12:45Z</time>
      </trkpt>
      <trkpt lat="40.44904" lon="-6.072568">
        <ele>665.07</ele>
        <time>2021-03-27T15:12:46Z</time>
      </trkpt>
      <trkpt lat="40.448944" lon="-6.072651">
        <ele>663.78</ele>
        <time>2021-03-27T15:12:48Z</time>
      </trkpt>
      <trkpt lat="40.448575" lon="-6.072808">
        <ele>657.34</ele>
        <time>2021-03-27T15:12:50Z</time>
      </trkpt>
      <trkpt lat="40.448364" lon="-6.07294">
        <ele>657.62</ele>
        <time>2021-03-27T15:12:51Z</time>
      </trkpt>
      <trkpt lat="40.448192" lon="-6.073075">
        <ele>658.45</ele>
        <time>2021-03-27T15:12:53Z</time>
      </trkpt>
      <trkpt lat="40.447981" lon="-6.073139">
        <ele>658.01</ele>
        <time>2021-03-27T15:12:55Z</time>
      </trkpt>
      <trkpt lat="40.447802" lon="-6.073093">
        <ele>656.83</ele>
        <time>2021-03-27T15:12:57Z</time>
      </trkpt>
      <trkpt lat="40.447554" lon="-6.072895">
        <ele>652.19</ele>
        <time>2021-03-27T15:12:58Z</time>
      </trkpt>
      <trkpt lat="40.447294" lon="-6.07263">
        <ele>648.27</ele>
        <time>2021-03-27T15:13:00Z</time>
      </trkpt>
      <trkpt lat="40.447168" lon="-6.072601">
        <ele>648.28</ele>
        <time>2021-03-27T15:13:02Z</time>
      </trkpt>
      <trkpt lat="40.446659" lon="-6.072656">
        <ele>650.2</ele>
        <time>2021-03-27T15:13:04Z</time>
      </trkpt>
      <trkpt lat="40.446426" lon="-6.072802">
        <ele>650.63</ele>
        <time>2021-03-27T15:13:05Z</time>
      </trkpt>
      <trkpt lat="40.44629" lon="-6.072844">
        <ele>650.25</ele>
        <time>2021-03-27T15:13:07Z</time>
      </trkpt>
      <trkpt lat="40.446193" lon="-6.07283">
        <ele>649.34</ele>
        <time>2021-03-27T15:13:09Z</time>
      </trkpt>
      <trkpt lat="40.446171" lon="-6.072892">
        <ele>650.08</ele>
        <time>2021-03-27T15:13:11Z</time>
      </trkpt>
      <trkpt lat="40.445938" lon="-6.073309">
        <ele>652.82</ele>
        <time>2021-03-27T15:13:14Z</time>
      </trkpt>
      <trkpt lat="40.44571" lon="-6.073938">
        <ele>659.47</ele>
        <time>2021-03-27T15:13:16Z</time>
      </trkpt>
      <trkpt lat="40.445644" lon="-6.074046">
        <ele>660.93</ele>
        <time>2021-03-27T15:13:18Z</time>
      </trkpt>
      <trkpt lat="40.445344" lon="-6.074279">
        <ele>661.38</ele>
        <time>2021-03-27T15:13:21Z</time>
      </trkpt>
      <trkpt lat="40.445076" lon="-6.074405">
        <ele>660.16</ele>
        <time>2021-03-27T15:13:23Z</time>
      </trkpt>
      <trkpt lat="40.444929" lon="-6.074446">
        <ele>658.98</ele>
        <time>2021-03-27T15:13:26Z</time>
      </trkpt>
      <trkpt lat="40.444651" lon="-6.074587">
        <ele>654.84</ele>
        <time>2021-03-27T15:13:28Z</time>
      </trkpt>
      <trkpt lat="40.444559" lon="-6.074675">
        <ele>653.16</ele>
        <time>2021-03-27T15:13:31Z</time>
      </trkpt>
      <trkpt lat="40.444498" lon="-6.074773">
        <ele>651.75</ele>
        <time>2021-03-27T15:13:33Z</time>
      </trkpt>
      <trkpt lat="40.444535" lon="-6.075001">
        <ele>651.3</ele>
        <time>2021-03-27T15:13:35Z</time>
      </trkpt>
      <trkpt lat="40.444603" lon="-6.075116">
        <ele>651.62</ele>
        <time>2021-03-27T15:13:36Z</time>
      </trkpt>
      <trkpt lat="40.444631" lon="-6.075196">
        <ele>651.51</ele>
        <time>2021-03-27T15:13:38Z</time>
      </trkpt>
      <trkpt lat="40.444612" lon="-6.075319">
        <ele>651.22</ele>
        <time>2021-03-27T15:13:40Z</time>
      </trkpt>
      <trkpt lat="40.444573" lon="-6.075354">
        <ele>651.23</ele>
        <time>2021-03-27T15:13:41Z</time>
      </trkpt>
      <trkpt lat="40.444514" lon="-6.07537">
        <ele>650.91</ele>
        <time>2021-03-27T15:13:43Z</time>
      </trkpt>
      <trkpt lat="40.444222" lon="-6.075378">
        <ele>648.55</ele>
        <time>2021-03-27T15:13:45Z</time>
      </trkpt>
      <trkpt lat="40.444153" lon="-6.075429">
        <ele>648.5</ele>
        <time>2021-03-27T15:13:46Z</time>
      </trkpt>
      <trkpt lat="40.444055" lon="-6.075592">
        <ele>649.14</ele>
        <time>2021-03-27T15:13:48Z</time>
      </trkpt>
      <trkpt lat="40.443983" lon="-6.075858">
        <ele>650.71</ele>
        <time>2021-03-27T15:13:49Z</time>
      </trkpt>
      <trkpt lat="40.443932" lon="-6.075952">
        <ele>651.33</ele>
        <time>2021-03-27T15:13:51Z</time>
      </trkpt>
      <trkpt lat="40.443846" lon="-6.076008">
        <ele>651.06</ele>
        <time>2021-03-27T15:13:53Z</time>
      </trkpt>
      <trkpt lat="40.443701" lon="-6.076056">
        <ele>650.19</ele>
        <time>2021-03-27T15:13:54Z</time>
      </trkpt>
      <trkpt lat="40.443285" lon="-6.076072">
        <ele>644.88</ele>
        <time>2021-03-27T15:13:56Z</time>
      </trkpt>
      <trkpt lat="40.443164" lon="-6.076091">
        <ele>643.8</ele>
        <time>2021-03-27T15:13:58Z</time>
      </trkpt>
      <trkpt lat="40.443058" lon="-6.07615">
        <ele>643.6</ele>
        <time>2021-03-27T15:13:59Z</time>
      </trkpt>
      <trkpt lat="40.442881" lon="-6.076303">
        <ele>644.55</ele>
        <time>2021-03-27T15:14:01Z</time>
      </trkpt>
      <trkpt lat="40.442441" lon="-6.076736">
        <ele>646.96</ele>
        <time>2021-03-27T15:14:03Z</time>
      </trkpt>
      <trkpt lat="40.442321" lon="-6.076874">
        <ele>645.8</ele>
        <time>2021-03-27T15:14:04Z</time>
      </trkpt>
      <trkpt lat="40.442265" lon="-6.077041">
        <ele>647.51</ele>
        <time>2021-03-27T15:14:06Z</time>
      </trkpt>
      <trkpt lat="40.442156" lon="-6.077147">
        <ele>647.16</ele>
        <time>2021-03-27T15:14:08Z</time>
      </trkpt>
      <trkpt lat="40.441966" lon="-6.07717">
        <ele>643.37</ele>
        <time>2021-03-27T15:14:09Z</time>
      </trkpt>
      <trkpt lat="40.441861" lon="-6.077221">
        <ele>641.87</ele>
        <time>2021-03-27T15:14:11Z</time>
      </trkpt>
      <trkpt lat="40.441696" lon="-6.077488">
        <ele>642.64</ele>
        <time>2021-03-27T15:14:12Z</time>
      </trkpt>
      <trkpt lat="40.441672" lon="-6.077618">
        <ele>644.68</ele>
        <time>2021-03-27T15:14:14Z</time>
      </trkpt>
      <trkpt lat="40.441514" lon="-6.077811">
        <ele>644.95</ele>
        <time>2021-03-27T15:14:16Z</time>
      </trkpt>
      <trkpt lat="40.441443" lon="-6.077853">
        <ele>644.38</ele>
        <time>2021-03-27T15:14:17Z</time>
      </trkpt>
      <trkpt lat="40.44124" lon="-6.077802">
        <ele>641.12</ele>
        <time>2021-03-27T15:14:19Z</time>
      </trkpt>
      <trkpt lat="40.441048" lon="-6.077804">
        <ele>640.14</ele>
        <time>2021-03-27T15:14:21Z</time>
      </trkpt>
      <trkpt lat="40.440894" lon="-6.077872">
        <ele>640.03</ele>
        <time>2021-03-27T15:14:22Z</time>
      </trkpt>
      <trkpt lat="40.440654" lon="-6.078052">
        <ele>638.75</ele>
        <time>2021-03-27T15:14:24Z</time>
      </trkpt>
      <trkpt lat="40.44053" lon="-6.078284">
        <ele>637.31</ele>
        <time>2021-03-27T15:14:26Z</time>
      </trkpt>
      <trkpt lat="40.440513" lon="-6.078526">
        <ele>636.28</ele>
        <time>2021-03-27T15:14:27Z</time>
      </trkpt>
      <trkpt lat="40.44071" lon="-6.079145">
        <ele>639.94</ele>
        <time>2021-03-27T15:14:29Z</time>
      </trkpt>
      <trkpt lat="40.440757" lon="-6.079438">
        <ele>640.64</ele>
        <time>2021-03-27T15:14:31Z</time>
      </trkpt>
      <trkpt lat="40.440706" lon="-6.079562">
        <ele>641.6</ele>
        <time>2021-03-27T15:14:32Z</time>
      </trkpt>
      <trkpt lat="40.440656" lon="-6.079623">
        <ele>641.79</ele>
        <time>2021-03-27T15:14:34Z</time>
      </trkpt>
      <trkpt lat="40.440384" lon="-6.079737">
        <ele>639.82</ele>
        <time>2021-03-27T15:14:35Z</time>
      </trkpt>
      <trkpt lat="40.439873" lon="-6.080146">
        <ele>638.2</ele>
        <time>2021-03-27T15:14:37Z</time>
      </trkpt>
      <trkpt lat="40.439706" lon="-6.080307">
        <ele>638.2</ele>
        <time>2021-03-27T15:14:39Z</time>
      </trkpt>
      <trkpt lat="40.439592" lon="-6.080539">
        <ele>638.56</ele>
        <time>2021-03-27T15:14:40Z</time>
      </trkpt>
      <trkpt lat="40.43957" lon="-6.080685">
        <ele>637.0</ele>
        <time>2021-03-27T15:14:42Z</time>
      </trkpt>
      <trkpt lat="40.439758" lon="-6.081889">
        <ele>625.97</ele>
        <time>2021-03-27T15:14:44Z</time>
      </trkpt>
      <trkpt lat="40.439844" lon="-6.082126">
        <ele>625.06</ele>
        <time>2021-03-27T15:14:45Z</time>
      </trkpt>
      <trkpt lat="40.440011" lon="-6.082278">
        <ele>627.13</ele>
        <time>2021-03-27T15:14:47Z</time>
      </trkpt>
      <trkpt lat="40.440226" lon="-6.082379">
        <ele>631.11</ele>
        <time>2021-03-27T15:14:49Z</time>
      </trkpt>
      <trkpt lat="40.440303" lon="-6.082514">
        <ele>630.28</ele>
        <time>2021-03-27T15:14:50Z</time>
      </trkpt>
      <trkpt lat="40.440277" lon="-6.082694">
        <ele>625.08</ele>
        <time>2021-03-27T15:14:52Z</time>
      </trkpt>
      <trkpt lat="40.440277" lon="-6.082909">
        <ele>620.16</ele>
        <time>2021-03-27T15:14:54Z</time>
      </trkpt>
      <trkpt lat="40.44038" lon="-6.083106">
        <ele>619.11</ele>
        <time>2021-03-27T15:14:55Z</time>
      </trkpt>
      <trkpt lat="40.44071" lon="-6.083427">
        <ele>624.67</ele>
        <time>2021-03-27T15:14:57Z</time>
      </trkpt>
      <trkpt lat="40.440749" lon="-6.083517">
        <ele>625.31</ele>
        <time>2021-03-27T15:14:58Z</time>
      </trkpt>
      <trkpt lat="40.440747" lon="-6.083621">
        <ele>624.55</ele>
        <time>2021-03-27T15:15:00Z</time>
      </trkpt>
      <trkpt lat="40.440687" lon="-6.083774">
        <ele>621.23</ele>
        <time>2021-03-27T15:15:02Z</time>
      </trkpt>
      <trkpt lat="40.440654" lon="-6.083945">
        <ele>619.23</ele>
        <time>2021-03-27T15:15:03Z</time>
      </trkpt>
      <trkpt lat="40.440612" lon="-6.084441">
        <ele>621.59</ele>
        <time>2021-03-27T15:15:05Z</time>
      </trkpt>
      <trkpt lat="40.440344" lon="-6.084936">
        <ele>619.15</ele>
        <time>2021-03-27T15:15:07Z</time>
      </trkpt>
      <trkpt lat="40.440257" lon="-6.085153">
        <ele>620.51</ele>
        <time>2021-03-27T15:15:08Z</time>
      </trkpt>
      <trkpt lat="40.440188" lon="-6.085201">
        <ele>622.19</ele>
        <time>2021-03-27T15:15:10Z</time>
      </trkpt>
      <trkpt lat="40.440109" lon="-6.085222">
        <ele>623.63</ele>
        <time>2021-03-27T15:15:12Z</time>
      </trkpt>
      <trkpt lat="40.440054" lon="-6.085211">
        <ele>624.26</ele>
        <time>2021-03-27T15:15:13Z</time>
      </trkpt>
      <trkpt lat="40.439994" lon="-6.085134">
        <ele>624.05</ele>
        <time>2021-03-27T15:15:15Z</time>
      </trkpt>
      <trkpt lat="40.439994" lon="-6.084903">
        <ele>621.39</ele>
        <time>2021-03-27T15:15:17Z</time>
      </trkpt>
      <trkpt lat="40.44005" lon="-6.084537">
        <ele>618.0</ele>
        <time>2021-03-27T15:15:18Z</time>
      </trkpt>
      <trkpt lat="40.439986" lon="-6.0843">
        <ele>616.46</ele>
        <time>2021-03-27T15:15:20Z</time>
      </trkpt>
      <trkpt lat="40.439887" lon="-6.08417">
        <ele>614.65</ele>
        <time>2021-03-27T15:15:21Z</time>
      </trkpt>
      <trkpt lat="40.439643" lon="-6.084069">
        <ele>610.74</ele>
        <time>2021-03-27T15:15:23Z</time>
      </trkpt>
      <trkpt lat="40.439047" lon="-6.084198">
        <ele>612.48</ele>
        <time>2021-03-27T15:15:25Z</time>
      </trkpt>
      <trkpt lat="40.438845" lon="-6.084345">
        <ele>611.54</ele>
        <time>2021-03-27T15:15:26Z</time>
      </trkpt>
      <trkpt lat="40.438494" lon="-6.084891">
        <ele>610.03</ele>
        <time>2021-03-27T15:15:28Z</time>
      </trkpt>
      <trkpt lat="40.438365" lon="-6.08519">
        <ele>608.48</ele>
        <time>2021-03-27T15:15:30Z</time>
      </trkpt>
      <trkpt lat="40.438331" lon="-6.085427">
        <ele>608.45</ele>
        <time>2021-03-27T15:15:31Z</time>
      </trkpt>
      <trkpt lat="40.438391" lon="-6.085703">
        <ele>611.71</ele>
        <time>2021-03-27T15:15:33Z</time>
      </trkpt>
      <trkpt lat="40.438382" lon="-6.085838">
        <ele>612.42</ele>
        <time>2021-03-27T15:15:35Z</time>
      </trkpt>
      <trkpt lat="40.438159" lon="-6.086046">
        <ele>607.09</ele>
        <time>2021-03-27T15:15:36Z</time>
      </trkpt>
      <trkpt lat="40.438116" lon="-6.086209">
        <ele>606.26</ele>
        <time>2021-03-27T15:15:38Z</time>
      </trkpt>
      <trkpt lat="40.438176" lon="-6.086514">
        <ele>606.83</ele>
        <time>2021-03-27T15:15:40Z</time>
      </trkpt>
      <trkpt lat="40.438331" lon="-6.086891">
        <ele>609.13</ele>
        <time>2021-03-27T15:15:41Z</time>
      </trkpt>
      <trkpt lat="40.438322" lon="-6.087021">
        <ele>609.06</ele>
        <time>2021-03-27T15:15:43Z</time>
      </trkpt>
      <trkpt lat="40.438198" lon="-6.08715">
        <ele>607.54</ele>
        <time>2021-03-27T15:15:44Z</time>
      </trkpt>
      <trkpt lat="40.437816" lon="-6.087241">
        <ele>604.61</ele>
        <time>2021-03-27T15:15:46Z</time>
      </trkpt>
      <trkpt lat="40.437658" lon="-6.087297">
        <ele>603.61</ele>
        <time>2021-03-27T15:15:48Z</time>
      </trkpt>
      <trkpt lat="40.437473" lon="-6.087443">
        <ele>603.52</ele>
        <time>2021-03-27T15:15:49Z</time>
      </trkpt>
      <trkpt lat="40.43731" lon="-6.087731">
        <ele>605.74</ele>
        <time>2021-03-27T15:15:51Z</time>
      </trkpt>
      <trkpt lat="40.437156" lon="-6.087781">
        <ele>604.1</ele>
        <time>2021-03-27T15:15:53Z</time>
      </trkpt>
      <trkpt lat="40.436851" lon="-6.087962">
        <ele>603.75</ele>
        <time>2021-03-27T15:15:54Z</time>
      </trkpt>
      <trkpt lat="40.436616" lon="-6.088006">
        <ele>603.37</ele>
        <time>2021-03-27T15:15:56Z</time>
      </trkpt>
      <trkpt lat="40.436278" lon="-6.087934">
        <ele>598.52</ele>
        <time>2021-03-27T15:15:58Z</time>
      </trkpt>
      <trkpt lat="40.436031" lon="-6.087927">
        <ele>595.97</ele>
        <time>2021-03-27T15:15:59Z</time>
      </trkpt>
      <trkpt lat="40.435404" lon="-6.088316">
        <ele>593.12</ele>
        <time>2021-03-27T15:16:01Z</time>
      </trkpt>
      <trkpt lat="40.43525" lon="-6.08859">
        <ele>590.66</ele>
        <time>2021-03-27T15:16:02Z</time>
      </trkpt>
      <trkpt lat="40.435188" lon="-6.089151">
        <ele>589.21</ele>
        <time>2021-03-27T15:16:04Z</time>
      </trkpt>
      <trkpt lat="40.435338" lon="-6.089705">
        <ele>598.38</ele>
        <time>2021-03-27T15:16:06Z</time>
      </trkpt>
      <trkpt lat="40.435354" lon="-6.089815">
        <ele>599.03</ele>
        <time>2021-03-27T15:16:07Z</time>
      </trkpt>
      <trkpt lat="40.435319" lon="-6.089929">
        <ele>597.64</ele>
        <time>2021-03-27T15:16:09Z</time>
      </trkpt>
      <trkpt lat="40.434911" lon="-6.090184">
        <ele>585.31</ele>
        <time>2021-03-27T15:16:11Z</time>
      </trkpt>
      <trkpt lat="40.434816" lon="-6.090363">
        <ele>585.08</ele>
        <time>2021-03-27T15:16:12Z</time>
      </trkpt>
      <trkpt lat="40.434801" lon="-6.090541">
        <ele>586.66</ele>
        <time>2021-03-27T15:16:14Z</time>
      </trkpt>
      <trkpt lat="40.434864" lon="-6.09081">
        <ele>591.39</ele>
        <time>2021-03-27T15:16:16Z</time>
      </trkpt>
      <trkpt lat="40.434853" lon="-6.090982">
        <ele>593.89</ele>
        <time>2021-03-27T15:16:17Z</time>
      </trkpt>
      <trkpt lat="40.434696" lon="-6.091099">
        <ele>590.52</ele>
        <time>2021-03-27T15:16:19Z</time>
      </trkpt>
      <trkpt lat="40.434513" lon="-6.091388">
        <ele>587.18</ele>
        <time>2021-03-27T15:16:21Z</time>
      </trkpt>
      <trkpt lat="40.434186" lon="-6.092207">
        <ele>586.73</ele>
        <time>2021-03-27T15:16:22Z</time>
      </trkpt>
      <trkpt lat="40.434005" lon="-6.093135">
        <ele>581.06</ele>
        <time>2021-03-27T15:16:24Z</time>
      </trkpt>
      <trkpt lat="40.434047" lon="-6.093376">
        <ele>583.73</ele>
        <time>2021-03-27T15:16:25Z</time>
      </trkpt>
      <trkpt lat="40.434049" lon="-6.093563">
        <ele>583.43</ele>
        <time>2021-03-27T15:16:27Z</time>
      </trkpt>
      <trkpt lat="40.434025" lon="-6.093657">
        <ele>582.42</ele>
        <time>2021-03-27T15:16:29Z</time>
      </trkpt>
      <trkpt lat="40.433967" lon="-6.093746">
        <ele>580.75</ele>
        <time>2021-03-27T15:16:30Z</time>
      </trkpt>
      <trkpt lat="40.433837" lon="-6.093837">
        <ele>580.08</ele>
        <time>2021-03-27T15:16:32Z</time>
      </trkpt>
      <trkpt lat="40.433704" lon="-6.093797">
        <ele>581.01</ele>
        <time>2021-03-27T15:16:34Z</time>
      </trkpt>
      <trkpt lat="40.433635" lon="-6.093715">
        <ele>580.07</ele>
        <time>2021-03-27T15:16:35Z</time>
      </trkpt>
      <trkpt lat="40.43345" lon="-6.093376">
        <ele>577.3</ele>
        <time>2021-03-27T15:16:37Z</time>
      </trkpt>
      <trkpt lat="40.433287" lon="-6.09317">
        <ele>574.89</ele>
        <time>2021-03-27T15:16:39Z</time>
      </trkpt>
      <trkpt lat="40.432669" lon="-6.092021">
        <ele>568.03</ele>
        <time>2021-03-27T15:16:40Z</time>
      </trkpt>
      <trkpt lat="40.432507" lon="-6.091807">
        <ele>567.39</ele>
        <time>2021-03-27T15:16:42Z</time>
      </trkpt>
      <trkpt lat="40.432119" lon="-6.091518">
        <ele>566.54</ele>
        <time>2021-03-27T15:16:44Z</time>
      </trkpt>
      <trkpt lat="40.43148" lon="-6.09125">
        <ele>565.68</ele>
        <time>2021-03-27T15:16:45Z</time>
      </trkpt>
      <trkpt lat="40.43113" lon="-6.091037">
        <ele>566.87</ele>
        <time>2021-03-27T15:16:47Z</time>
      </trkpt>
      <trkpt lat="40.430878" lon="-6.090789">
        <ele>566.54</ele>
        <time>2021-03-27T15:16:48Z</time>
      </trkpt>
      <trkpt lat="40.430627" lon="-6.090617">
        <ele>563.15</ele>
        <time>2021-03-27T15:16:50Z</time>
      </trkpt>
      <trkpt lat="40.430391" lon="-6.09061">
        <ele>561.47</ele>
        <time>2021-03-27T15:16:52Z</time>
      </trkpt>
      <trkpt lat="40.430129" lon="-6.090686">
        <ele>559.67</ele>
        <time>2021-03-27T15:16:53Z</time>
      </trkpt>
      <trkpt lat="40.429785" lon="-6.091115">
        <ele>569.28</ele>
        <time>2021-03-27T15:16:55Z</time>
      </trkpt>
      <trkpt lat="40.429651" lon="-6.091228">
        <ele>572.1</ele>
        <time>2021-03-27T15:16:57Z</time>
      </trkpt>
      <trkpt lat="40.429513" lon="-6.091193">
        <ele>571.72</ele>
        <time>2021-03-27T15:16:58Z</time>
      </trkpt>
      <trkpt lat="40.429381" lon="-6.090934">
        <ele>569.05</ele>
        <time>2021-03-27T15:17:00Z</time>
      </trkpt>
      <trkpt lat="40.429218" lon="-6.090493">
        <ele>562.57</ele>
        <time>2021-03-27T15:17:02Z</time>
      </trkpt>
      <trkpt lat="40.429061" lon="-6.09028">
        <ele>561.49</ele>
        <time>2021-03-27T15:17:03Z</time>
      </trkpt>
      <trkpt lat="40.428637" lon="-6.090025">
        <ele>566.16</ele>
        <time>2021-03-27T15:17:05Z</time>
      </trkpt>
      <trkpt lat="40.427694" lon="-6.089055">
        <ele>556.99</ele>
        <time>2021-03-27T15:17:07Z</time>
      </trkpt>
      <trkpt lat="40.427448" lon="-6.088924">
        <ele>554.35</ele>
        <time>2021-03-27T15:17:08Z</time>
      </trkpt>
      <trkpt lat="40.427217" lon="-6.088931">
        <ele>557.55</ele>
        <time>2021-03-27T15:17:10Z</time>
      </trkpt>
      <trkpt lat="40.42695" lon="-6.089062">
        <ele>562.61</ele>
        <time>2021-03-27T15:17:11Z</time>
      </trkpt>
      <trkpt lat="40.426809" lon="-6.089055">
        <ele>564.63</ele>
        <time>2021-03-27T15:17:13Z</time>
      </trkpt>
      <trkpt lat="40.426364" lon="-6.088691">
        <ele>559.99</ele>
        <time>2021-03-27T15:17:15Z</time>
      </trkpt>
      <trkpt lat="40.424567" lon="-6.087411">
        <ele>552.12</ele>
        <time>2021-03-27T15:17:16Z</time>
      </trkpt>
      <trkpt lat="40.424085" lon="-6.087198">
        <ele>550.27</ele>
        <time>2021-03-27T15:17:18Z</time>
      </trkpt>
      <trkpt lat="40.42319" lon="-6.086984">
        <ele>556.1</ele>
        <time>2021-03-27T15:17:20Z</time>
      </trkpt>
      <trkpt lat="40.422844" lon="-6.086709">
        <ele>543.16</ele>
        <time>2021-03-27T15:17:21Z</time>
      </trkpt>
      <trkpt lat="40.422333" lon="-6.086591">
        <ele>549.89</ele>
        <time>2021-03-27T15:17:23Z</time>
      </trkpt>
      <trkpt lat="40.421874" lon="-6.086317">
        <ele>555.0</ele>
        <time>2021-03-27T15:17:25Z</time>
      </trkpt>
      <trkpt lat="40.421694" lon="-6.086102">
        <ele>557.32</ele>
        <time>2021-03-27T15:17:26Z</time>
      </trkpt>
      <trkpt lat="40.421367" lon="-6.085515">
        <ele>537.57</ele>
        <time>2021-03-27T15:17:28Z</time>
      </trkpt>
      <trkpt lat="40.421223" lon="-6.085429">
        <ele>536.12</ele>
        <time>2021-03-27T15:17:30Z</time>
      </trkpt>
      <trkpt lat="40.420859" lon="-6.085408">
        <ele>543.48</ele>
        <time>2021-03-27T15:17:31Z</time>
      </trkpt>
      <trkpt lat="40.420708" lon="-6.085263">
        <ele>543.0</ele>
        <time>2021-03-27T15:17:33Z</time>
      </trkpt>
      <trkpt lat="40.420409" lon="-6.085171">
        <ele>549.42</ele>
        <time>2021-03-27T15:17:34Z</time>
      </trkpt>
      <trkpt lat="40.420102" lon="-6.084918">
        <ele>542.78</ele>
        <time>2021-03-27T15:17:36Z</time>
      </trkpt>
      <trkpt lat="40.419393" lon="-6.084666">
        <ele>538.76</ele>
        <time>2021-03-27T15:17:38Z</time>
      </trkpt>
      <trkpt lat="40.419094" lon="-6.084445">
        <ele>533.76</ele>
        <time>2021-03-27T15:17:39Z</time>
      </trkpt>
      <trkpt lat="40.418984" lon="-6.084424">
        <ele>532.94</ele>
        <time>2021-03-27T15:17:41Z</time>
      </trkpt>
      <trkpt lat="40.418894" lon="-6.084488">
        <ele>533.65</ele>
        <time>2021-03-27T15:17:43Z</time>
      </trkpt>
      <trkpt lat="40.41862" lon="-6.085198">
        <ele>531.73</ele>
        <time>2021-03-27T15:17:44Z</time>
      </trkpt>
      <trkpt lat="40.418591" lon="-6.085644">
        <ele>533.04</ele>
        <time>2021-03-27T15:17:46Z</time>
      </trkpt>
      <trkpt lat="40.418509" lon="-6.085956">
        <ele>531.74</ele>
        <time>2021-03-27T15:17:48Z</time>
      </trkpt>
      <trkpt lat="40.418476" lon="-6.086241">
        <ele>531.44</ele>
        <time>2021-03-27T15:17:49Z</time>
      </trkpt>
      <trkpt lat="40.418517" lon="-6.086537">
        <ele>533.79</ele>
        <time>2021-03-27T15:17:51Z</time>
      </trkpt>
      <trkpt lat="40.418468" lon="-6.086741">
        <ele>532.91</ele>
        <time>2021-03-27T15:17:53Z</time>
      </trkpt>
      <trkpt lat="40.418255" lon="-6.08708">
        <ele>531.68</ele>
        <time>2021-03-27T15:17:54Z</time>
      </trkpt>
      <trkpt lat="40.418153" lon="-6.087161">
        <ele>530.84</ele>
        <time>2021-03-27T15:17:56Z</time>
      </trkpt>
      <trkpt lat="40.417657" lon="-6.08722">
        <ele>519.79</ele>
        <time>2021-03-27T15:17:57Z</time>
      </trkpt>
      <trkpt lat="40.417555" lon="-6.087263">
        <ele>518.43</ele>
        <time>2021-03-27T15:17:59Z</time>
      </trkpt>
      <trkpt lat="40.41742" lon="-6.087828">
        <ele>519.12</ele>
        <time>2021-03-27T15:18:01Z</time>
      </trkpt>
      <trkpt lat="40.41735" lon="-6.088215">
        <ele>517.45</ele>
        <time>2021-03-27T15:18:02Z</time>
      </trkpt>
      <trkpt lat="40.417342" lon="-6.088742">
        <ele>518.61</ele>
        <time>2021-03-27T15:18:04Z</time>
      </trkpt>
      <trkpt lat="40.417273" lon="-6.089005">
        <ele>517.21</ele>
        <time>2021-03-27T15:18:06Z</time>
      </trkpt>
      <trkpt lat="40.416929" lon="-6.08935">
        <ele>513.38</ele>
        <time>2021-03-27T15:18:07Z</time>
      </trkpt>
      <trkpt lat="40.416871" lon="-6.089592">
        <ele>513.22</ele>
        <time>2021-03-27T15:18:09Z</time>
      </trkpt>
      <trkpt lat="40.416883" lon="-6.089973">
        <ele>511.89</ele>
        <time>2021-03-27T15:18:11Z</time>
      </trkpt>
      <trkpt lat="40.416941" lon="-6.090259">
        <ele>507.35</ele>
        <time>2021-03-27T15:18:12Z</time>
      </trkpt>
      <trkpt lat="40.417137" lon="-6.090576">
        <ele>505.59</ele>
        <time>2021-03-27T15:18:14Z</time>
      </trkpt>
      <trkpt lat="40.417317" lon="-6.090798">
        <ele>505.92</ele>
        <time>2021-03-27T15:18:15Z</time>
      </trkpt>
      <trkpt lat="40.417517" lon="-6.090964">
        <ele>507.71</ele>
        <time>2021-03-27T15:18:17Z</time>
      </trkpt>
      <trkpt lat="40.417571" lon="-6.091038">
        <ele>508.03</ele>
        <time>2021-03-27T15:18:19Z</time>
      </trkpt>
      <trkpt lat="40.417574" lon="-6.091114">
        <ele>507.86</ele>
        <time>2021-03-27T15:18:20Z</time>
      </trkpt>
      <trkpt lat="40.417551" lon="-6.091173">
        <ele>508.62</ele>
        <time>2021-03-27T15:18:22Z</time>
      </trkpt>
      <trkpt lat="40.417498" lon="-6.091231">
        <ele>509.14</ele>
        <time>2021-03-27T15:18:24Z</time>
      </trkpt>
      <trkpt lat="40.417359" lon="-6.09126">
        <ele>508.67</ele>
        <time>2021-03-27T15:18:25Z</time>
      </trkpt>
      <trkpt lat="40.417223" lon="-6.091232">
        <ele>507.19</ele>
        <time>2021-03-27T15:18:27Z</time>
      </trkpt>
      <trkpt lat="40.41668" lon="-6.090946">
        <ele>499.84</ele>
        <time>2021-03-27T15:18:29Z</time>
      </trkpt>
      <trkpt lat="40.416129" lon="-6.090727">
        <ele>494.21</ele>
        <time>2021-03-27T15:18:30Z</time>
      </trkpt>
      <trkpt lat="40.415942" lon="-6.090607">
        <ele>490.34</ele>
        <time>2021-03-27T15:18:32Z</time>
      </trkpt>
      <trkpt lat="40.415724" lon="-6.090542">
        <ele>488.24</ele>
        <time>2021-03-27T15:18:34Z</time>
      </trkpt>
      <trkpt lat="40.415475" lon="-6.090544">
        <ele>489.74</ele>
        <time>2021-03-27T15:18:35Z</time>
      </trkpt>
      <trkpt lat="40.414795" lon="-6.090715">
        <ele>488.09</ele>
        <time>2021-03-27T15:18:37Z</time>
      </trkpt>
      <trkpt lat="40.41464" lon="-6.090813">
        <ele>485.79</ele>
        <time>2021-03-27T15:18:38Z</time>
      </trkpt>
      <trkpt lat="40.414476" lon="-6.091119">
        <ele>483.83</ele>
        <time>2021-03-27T15:18:40Z</time>
      </trkpt>
      <trkpt lat="40.414095" lon="-6.091168">
        <ele>481.91</ele>
        <time>2021-03-27T15:18:42Z</time>
      </trkpt>
      <trkpt lat="40.413591" lon="-6.091366">
        <ele>478.88</ele>
        <time>2021-03-27T15:18:43Z</time>
      </trkpt>
      <trkpt lat="40.412371" lon="-6.09234">
        <ele>459.52</ele>
        <time>2021-03-27T15:18:45Z</time>
      </trkpt>
      <trkpt lat="40.412318" lon="-6.092539">
        <ele>457.6</ele>
        <time>2021-03-27T15:18:47Z</time>
      </trkpt>
      <trkpt lat="40.412326" lon="-6.092711">
        <ele>455.62</ele>
        <time>2021-03-27T15:18:48Z</time>
      </trkpt>
      <trkpt lat="40.412457" lon="-6.092878">
        <ele>456.53</ele>
        <time>2021-03-27T15:18:50Z</time>
      </trkpt>
      <trkpt lat="40.412842" lon="-6.093093">
        <ele>456.32</ele>
        <time>2021-03-27T15:18:52Z</time>
      </trkpt>
      <trkpt lat="40.413567" lon="-6.093663">
        <ele>453.49</ele>
        <time>2021-03-27T15:18:53Z</time>
      </trkpt>
      <trkpt lat="40.413723" lon="-6.093856">
        <ele>451.42</ele>
        <time>2021-03-27T15:18:55Z</time>
      </trkpt>
      <trkpt lat="40.413905" lon="-6.094169">
        <ele>445.37</ele>
        <time>2021-03-27T15:18:57Z</time>
      </trkpt>
      <trkpt lat="40.41402" lon="-6.094328">
        <ele>445.08</ele>
        <time>2021-03-27T15:18:58Z</time>
      </trkpt>
      <trkpt lat="40.41404" lon="-6.094385">
        <ele>444.5</ele>
        <time>2021-03-27T15:19:00Z</time>
      </trkpt>
      <trkpt lat="40.414065" lon="-6.094721">
        <ele>438.84</ele>
        <time>2021-03-27T15:19:01Z</time>
      </trkpt>
      <trkpt lat="40.414182" lon="-6.095069">
        <ele>437.03</ele>
        <time>2021-03-27T15:19:03Z</time>
      </trkpt>
      <trkpt lat="40.41421" lon="-6.095232">
        <ele>436.51</ele>
        <time>2021-03-27T15:19:05Z</time>
      </trkpt>
      <trkpt lat="40.414201" lon="-6.095439">
        <ele>435.36</ele>
        <time>2021-03-27T15:19:06Z</time>
      </trkpt>
      <trkpt lat="40.414179" lon="-6.095512">
        <ele>434.49</ele>
        <time>2021-03-27T15:19:08Z</time>
      </trkpt>
      <trkpt lat="40.414146" lon="-6.09556">
        <ele>433.72</ele>
        <time>2021-03-27T15:19:10Z</time>
      </trkpt>
      <trkpt lat="40.414084" lon="-6.095594">
        <ele>432.83</ele>
        <time>2021-03-27T15:19:11Z</time>
      </trkpt>
      <trkpt lat="40.414014" lon="-6.095568">
        <ele>431.78</ele>
        <time>2021-03-27T15:19:13Z</time>
      </trkpt>
      <trkpt lat="40.413908" lon="-6.095432">
        <ele>430.32</ele>
        <time>2021-03-27T15:19:15Z</time>
      </trkpt>
      <trkpt lat="40.413879" lon="-6.095439">
        <ele>429.86</ele>
        <time>2021-03-27T15:19:16Z</time>
      </trkpt>
      <trkpt lat="40.41357" lon="-6.095947">
        <ele>424.0</ele>
        <time>2021-03-27T15:19:18Z</time>
      </trkpt>
      <trkpt lat="40.413463" lon="-6.096092">
        <ele>421.94</ele>
        <time>2021-03-27T15:19:20Z</time>
      </trkpt>
      <trkpt lat="40.41327" lon="-6.096267">
        <ele>417.31</ele>
        <time>2021-03-27T15:19:21Z</time>
      </trkpt>
      <trkpt lat="40.413109" lon="-6.096365">
        <ele>413.96</ele>
        <time>2021-03-27T15:19:23Z</time>
      </trkpt>
      <trkpt lat="40.412763" lon="-6.096517">
        <ele>409.43</ele>
        <time>2021-03-27T15:19:25Z</time>
      </trkpt>
      <trkpt lat="40.412661" lon="-6.096584">
        <ele>408.46</ele>
        <time>2021-03-27T15:19:26Z</time>
      </trkpt>
      <trkpt lat="40.412607" lon="-6.096646">
        <ele>407.85</ele>
        <time>2021-03-27T15:19:28Z</time>
      </trkpt>
      <trkpt lat="40.412506" lon="-6.096873">
        <ele>405.56</ele>
        <time>2021-03-27T15:19:30Z</time>
      </trkpt>
      <trkpt lat="40.412023" lon="-6.098347">
        <ele>405.04</ele>
        <time>2021-03-27T15:19:31Z</time>
      </trkpt>
      <trkpt lat="40.411951" lon="-6.098435">
        <ele>405.36</ele>
        <time>2021-03-27T15:19:33Z</time>
      </trkpt>
      <trkpt lat="40.411876" lon="-6.098484">
        <ele>406.53</ele>
        <time>2021-03-27T15:19:34Z</time>
      </trkpt>
      <trkpt lat="40.411703" lon="-6.098511">
        <ele>409.11</ele>
        <time>2021-03-27T15:19:36Z</time>
      </trkpt>
      <trkpt lat="40.411809" lon="-6.100254">
        <ele>417.95</ele>
        <time>2021-03-27T15:19:38Z</time>
      </trkpt>
      <trkpt lat="40.411846" lon="-6.100436">
        <ele>418.76</ele>
        <time>2021-03-27T15:19:41Z</time>
      </trkpt>
      <trkpt lat="40.411906" lon="-6.1006">
        <ele>419.3</ele>
        <time>2021-03-27T15:19:43Z</time>
      </trkpt>
      <trkpt lat="40.411965" lon="-6.100737">
        <ele>420.55</ele>
        <time>2021-03-27T15:19:45Z</time>
      </trkpt>
      <trkpt lat="40.412093" lon="-6.100933">
        <ele>421.27</ele>
        <time>2021-03-27T15:19:47Z</time>
      </trkpt>
      <trkpt lat="40.41226" lon="-6.101129">
        <ele>419.97</ele>
        <time>2021-03-27T15:19:49Z</time>
      </trkpt>
      <trkpt lat="40.412735" lon="-6.101625">
        <ele>425.38</ele>
        <time>2021-03-27T15:19:52Z</time>
      </trkpt>
      <trkpt lat="40.413092" lon="-6.102041">
        <ele>422.15</ele>
        <time>2021-03-27T15:19:54Z</time>
      </trkpt>
      <trkpt lat="40.413202" lon="-6.102207">
        <ele>420.54</ele>
        <time>2021-03-27T15:19:56Z</time>
      </trkpt>
      <trkpt lat="40.413257" lon="-6.102341">
        <ele>420.25</ele>
        <time>2021-03-27T15:19:58Z</time>
      </trkpt>
      <trkpt lat="40.413331" lon="-6.102628">
        <ele>419.57</ele>
        <time>2021-03-27T15:20:01Z</time>
      </trkpt>
      <trkpt lat="40.413349" lon="-6.102913">
        <ele>418.95</ele>
        <time>2021-03-27T15:20:03Z</time>
      </trkpt>
      <trkpt lat="40.413331" lon="-6.103099">
        <ele>419.58</ele>
        <time>2021-03-27T15:20:05Z</time>
      </trkpt>
      <trkpt lat="40.413145" lon="-6.103851">
        <ele>425.76</ele>
        <time>2021-03-27T15:20:07Z</time>
      </trkpt>
      <trkpt lat="40.413118" lon="-6.103991">
        <ele>426.1</ele>
        <time>2021-03-27T15:20:09Z</time>
      </trkpt>
      <trkpt lat="40.413101" lon="-6.104254">
        <ele>426.87</ele>
        <time>2021-03-27T15:20:12Z</time>
      </trkpt>
      <trkpt lat="40.413117" lon="-6.104456">
        <ele>427.7</ele>
        <time>2021-03-27T15:20:14Z</time>
      </trkpt>
      <trkpt lat="40.41315" lon="-6.104608">
        <ele>427.55</ele>
        <time>2021-03-27T15:20:16Z</time>
      </trkpt>
      <trkpt lat="40.413393" lon="-6.105421">
        <ele>424.9</ele>
        <time>2021-03-27T15:20:18Z</time>
      </trkpt>
      <trkpt lat="40.413417" lon="-6.105734">
        <ele>424.83</ele>
        <time>2021-03-27T15:20:21Z</time>
      </trkpt>
      <trkpt lat="40.413398" lon="-6.105948">
        <ele>425.16</ele>
        <time>2021-03-27T15:20:23Z</time>
      </trkpt>
      <trkpt lat="40.413327" lon="-6.10623">
        <ele>426.77</ele>
        <time>2021-03-27T15:20:25Z</time>
      </trkpt>
      <trkpt lat="40.413222" lon="-6.106484">
        <ele>428.9</ele>
        <time>2021-03-27T15:20:27Z</time>
      </trkpt>
      <trkpt lat="40.412958" lon="-6.106996">
        <ele>432.05</ele>
        <time>2021-03-27T15:20:30Z</time>
      </trkpt>
      <trkpt lat="40.412805" lon="-6.107354">
        <ele>430.97</ele>
        <time>2021-03-27T15:20:32Z</time>
      </trkpt>
      <trkpt lat="40.412714" lon="-6.107665">
        <ele>431.15</ele>
        <time>2021-03-27T15:20:34Z</time>
      </trkpt>
      <trkpt lat="40.412653" lon="-6.107959">
        <ele>432.46</ele>
        <time>2021-03-27T15:20:36Z</time>
      </trkpt>
      <trkpt lat="40.412617" lon="-6.108282">
        <ele>431.13</ele>
        <time>2021-03-27T15:20:38Z</time>
      </trkpt>
      <trkpt lat="40.412614" lon="-6.108721">
        <ele>427.71</ele>
        <time>2021-03-27T15:20:41Z</time>
      </trkpt>
      <trkpt lat="40.412628" lon="-6.108935">
        <ele>427.05</ele>
        <time>2021-03-27T15:20:43Z</time>
      </trkpt>
      <trkpt lat="40.412679" lon="-6.109229">
        <ele>426.36</ele>
        <time>2021-03-27T15:20:45Z</time>
      </trkpt>
      <trkpt lat="40.41286" lon="-6.1099">
        <ele>427.79</ele>
        <time>2021-03-27T15:20:47Z</time>
      </trkpt>
      <trkpt lat="40.413186" lon="-6.11047">
        <ele>426.33</ele>
        <time>2021-03-27T15:20:50Z</time>
      </trkpt>
      <trkpt lat="40.413942" lon="-6.111494">
        <ele>424.49</ele>
        <time>2021-03-27T15:20:52Z</time>
      </trkpt>
      <trkpt lat="40.414104" lon="-6.111765">
        <ele>424.33</ele>
        <time>2021-03-27T15:20:54Z</time>
      </trkpt>
      <trkpt lat="40.414178" lon="-6.112032">
        <ele>424.28</ele>
        <time>2021-03-27T15:20:56Z</time>
      </trkpt>
      <trkpt lat="40.414223" lon="-6.112314">
        <ele>424.16</ele>
        <time>2021-03-27T15:20:58Z</time>
      </trkpt>
      <trkpt lat="40.414225" lon="-6.112557">
        <ele>424.08</ele>
        <time>2021-03-27T15:21:01Z</time>
      </trkpt>
      <trkpt lat="40.414185" lon="-6.112816">
        <ele>423.95</ele>
        <time>2021-03-27T15:21:03Z</time>
      </trkpt>
      <trkpt lat="40.414004" lon="-6.113582">
        <ele>423.02</ele>
        <time>2021-03-27T15:21:05Z</time>
      </trkpt>
      <trkpt lat="40.413921" lon="-6.114022">
        <ele>421.87</ele>
        <time>2021-03-27T15:21:07Z</time>
      </trkpt>
      <trkpt lat="40.413886" lon="-6.114474">
        <ele>423.05</ele>
        <time>2021-03-27T15:21:10Z</time>
      </trkpt>
      <trkpt lat="40.413874" lon="-6.115986">
        <ele>419.2</ele>
        <time>2021-03-27T15:21:12Z</time>
      </trkpt>
      <trkpt lat="40.413916" lon="-6.116396">
        <ele>415.79</ele>
        <time>2021-03-27T15:21:14Z</time>
      </trkpt>
      <trkpt lat="40.414" lon="-6.11685">
        <ele>416.71</ele>
        <time>2021-03-27T15:21:16Z</time>
      </trkpt>
      <trkpt lat="40.414624" lon="-6.118637">
        <ele>421.88</ele>
        <time>2021-03-27T15:21:19Z</time>
      </trkpt>
      <trkpt lat="40.4148" lon="-6.119541">
        <ele>420.26</ele>
        <time>2021-03-27T15:21:21Z</time>
      </trkpt>
      <trkpt lat="40.414885" lon="-6.120732">
        <ele>424.14</ele>
        <time>2021-03-27T15:21:23Z</time>
      </trkpt>
      <trkpt lat="40.4176" lon="-6.120591">
        <ele>435.73</ele>
        <time>2021-03-27T15:21:26Z</time>
      </trkpt>
      <trkpt lat="40.417758" lon="-6.120614">
        <ele>436.07</ele>
        <time>2021-03-27T15:21:29Z</time>
      </trkpt>
      <trkpt lat="40.417895" lon="-6.120702">
        <ele>437.17</ele>
        <time>2021-03-27T15:21:32Z</time>
      </trkpt>
      <trkpt lat="40.417974" lon="-6.120825">
        <ele>437.81</ele>
        <time>2021-03-27T15:21:35Z</time>
      </trkpt>
      <trkpt lat="40.418001" lon="-6.120958">
        <ele>437.3</ele>
        <time>2021-03-27T15:21:38Z</time>
      </trkpt>
      <trkpt lat="40.41797" lon="-6.121102">
        <ele>438.07</ele>
        <time>2021-03-27T15:21:40Z</time>
      </trkpt>
      <trkpt lat="40.417705" lon="-6.12172">
        <ele>450.79</ele>
        <time>2021-03-27T15:21:43Z</time>
      </trkpt>
      <trkpt lat="40.417661" lon="-6.121904">
        <ele>452.17</ele>
        <time>2021-03-27T15:21:46Z</time>
      </trkpt>
      <trkpt lat="40.417659" lon="-6.12211">
        <ele>451.84</ele>
        <time>2021-03-27T15:21:49Z</time>
      </trkpt>
      <trkpt lat="40.417695" lon="-6.122299">
        <ele>451.18</ele>
        <time>2021-03-27T15:21:52Z</time>
      </trkpt>
      <trkpt lat="40.417883" lon="-6.12283">
        <ele>457.71</ele>
        <time>2021-03-27T15:21:55Z</time>
      </trkpt>
      <trkpt lat="40.418167" lon="-6.123221">
        <ele>453.22</ele>
        <time>2021-03-27T15:21:58Z</time>
      </trkpt>
      <trkpt lat="40.418375" lon="-6.123472">
        <ele>453.18</ele>
        <time>2021-03-27T15:22:01Z</time>
      </trkpt>
      <trkpt lat="40.419348" lon="-6.12434">
        <ele>453.18</ele>
        <time>2021-03-27T15:22:04Z</time>
      </trkpt>
      <trkpt lat="40.419441" lon="-6.124481">
        <ele>453.49</ele>
        <time>2021-03-27T15:22:07Z</time>
      </trkpt>
      <trkpt lat="40.419497" lon="-6.124639">
        <ele>452.56</ele>
        <time>2021-03-27T15:22:10Z</time>
      </trkpt>
      <trkpt lat="40.419492" lon="-6.124839">
        <ele>452.64</ele>
        <time>2021-03-27T15:22:13Z</time>
      </trkpt>
      <trkpt lat="40.419443" lon="-6.125024">
        <ele>454.07</ele>
        <time>2021-03-27T15:22:15Z</time>
      </trkpt>
      <trkpt lat="40.419074" lon="-6.125901">
        <ele>459.64</ele>
        <time>2021-03-27T15:22:18Z</time>
      </trkpt>
      <trkpt lat="40.419024" lon="-6.126141">
        <ele>457.91</ele>
        <time>2021-03-27T15:22:21Z</time>
      </trkpt>
      <trkpt lat="40.419034" lon="-6.12649">
        <ele>454.57</ele>
        <time>2021-03-27T15:22:24Z</time>
      </trkpt>
      <trkpt lat="40.419189" lon="-6.127507">
        <ele>458.64</ele>
        <time>2021-03-27T15:22:27Z</time>
      </trkpt>
      <trkpt lat="40.420078" lon="-6.130163">
        <ele>458.48</ele>
        <time>2021-03-27T15:22:30Z</time>
      </trkpt>
      <trkpt lat="40.420249" lon="-6.130861">
        <ele>453.55</ele>
        <time>2021-03-27T15:22:33Z</time>
      </trkpt>
      <trkpt lat="40.420449" lon="-6.132392">
        <ele>453.03</ele>
        <time>2021-03-27T15:22:36Z</time>
      </trkpt>
      <trkpt lat="40.420443" lon="-6.133004">
        <ele>457.75</ele>
        <time>2021-03-27T15:22:39Z</time>
      </trkpt>
      <trkpt lat="40.420409" lon="-6.13346">
        <ele>460.13</ele>
        <time>2021-03-27T15:22:42Z</time>
      </trkpt>
      <trkpt lat="40.420343" lon="-6.133985">
        <ele>454.07</ele>
        <time>2021-03-27T15:22:45Z</time>
      </trkpt>
      <trkpt lat="40.420046" lon="-6.135166">
        <ele>464.42</ele>
        <time>2021-03-27T15:22:48Z</time>
      </trkpt>
      <trkpt lat="40.420031" lon="-6.13545">
        <ele>459.56</ele>
        <time>2021-03-27T15:22:50Z</time>
      </trkpt>
      <trkpt lat="40.420049" lon="-6.135777">
        <ele>457.89</ele>
        <time>2021-03-27T15:22:53Z</time>
      </trkpt>
      <trkpt lat="40.420149" lon="-6.136277">
        <ele>457.42</ele>
        <time>2021-03-27T15:22:56Z</time>
      </trkpt>
      <trkpt lat="40.420289" lon="-6.136837">
        <ele>452.18</ele>
        <time>2021-03-27T15:22:59Z</time>
      </trkpt>
      <trkpt lat="40.420358" lon="-6.137477">
        <ele>457.96</ele>
        <time>2021-03-27T15:23:02Z</time>
      </trkpt>
      <trkpt lat="40.420452" lon="-6.137909">
        <ele>459.93</ele>
        <time>2021-03-27T15:23:05Z</time>
      </trkpt>
      <trkpt lat="40.420515" lon="-6.138106">
        <ele>461.67</ele>
        <time>2021-03-27T15:23:08Z</time>
      </trkpt>
      <trkpt lat="40.420902" lon="-6.138971">
        <ele>460.37</ele>
        <time>2021-03-27T15:23:11Z</time>
      </trkpt>
      <trkpt lat="40.421589" lon="-6.139781">
        <ele>448.77</ele>
        <time>2021-03-27T15:23:14Z</time>
      </trkpt>
      <trkpt lat="40.422307" lon="-6.140551">
        <ele>447.48</ele>
        <time>2021-03-27T15:23:17Z</time>
      </trkpt>
      <trkpt lat="40.422432" lon="-6.140765">
        <ele>447.9</ele>
        <time>2021-03-27T15:23:20Z</time>
      </trkpt>
      <trkpt lat="40.422875" lon="-6.141677">
        <ele>446.44</ele>
        <time>2021-03-27T15:23:23Z</time>
      </trkpt>
      <trkpt lat="40.423273" lon="-6.142936">
        <ele>448.36</ele>
        <time>2021-03-27T15:23:25Z</time>
      </trkpt>
      <trkpt lat="40.423315" lon="-6.143148">
        <ele>448.05</ele>
        <time>2021-03-27T15:23:28Z</time>
      </trkpt>
      <trkpt lat="40.423441" lon="-6.144084">
        <ele>447.32</ele>
        <time>2021-03-27T15:23:31Z</time>
      </trkpt>
      <trkpt lat="40.423739" lon="-6.14449">
        <ele>444.42</ele>
        <time>2021-03-27T15:23:34Z</time>
      </trkpt>
      <trkpt lat="40.423856" lon="-6.14469">
        <ele>447.42</ele>
        <time>2021-03-27T15:23:37Z</time>
      </trkpt>
      <trkpt lat="40.424029" lon="-6.145315">
        <ele>448.68</ele>
        <time>2021-03-27T15:23:40Z</time>
      </trkpt>
      <trkpt lat="40.424094" lon="-6.145432">
        <ele>448.69</ele>
        <time>2021-03-27T15:23:43Z</time>
      </trkpt>
      <trkpt lat="40.424178" lon="-6.145523">
        <ele>449.39</ele>
        <time>2021-03-27T15:23:46Z</time>
      </trkpt>
      <trkpt lat="40.424315" lon="-6.14558">
        <ele>451.1</ele>
        <time>2021-03-27T15:23:49Z</time>
      </trkpt>
      <trkpt lat="40.425502" lon="-6.145781">
        <ele>465.43</ele>
        <time>2021-03-27T15:23:52Z</time>
      </trkpt>
      <trkpt lat="40.425741" lon="-6.145911">
        <ele>467.8</ele>
        <time>2021-03-27T15:23:55Z</time>
      </trkpt>
      <trkpt lat="40.425815" lon="-6.146017">
        <ele>468.61</ele>
        <time>2021-03-27T15:23:57Z</time>
      </trkpt>
      <trkpt lat="40.425922" lon="-6.146281">
        <ele>469.61</ele>
        <time>2021-03-27T15:24:00Z</time>
      </trkpt>
      <trkpt lat="40.426091" lon="-6.146285">
        <ele>469.63</ele>
        <time>2021-03-27T15:24:02Z</time>
      </trkpt>
      <trkpt lat="40.426604" lon="-6.146358">
        <ele>471.83</ele>
        <time>2021-03-27T15:24:03Z</time>
      </trkpt>
      <trkpt lat="40.426687" lon="-6.146385">
        <ele>472.16</ele>
        <time>2021-03-27T15:24:05Z</time>
      </trkpt>
      <trkpt lat="40.426849" lon="-6.146501">
        <ele>473.31</ele>
        <time>2021-03-27T15:24:06Z</time>
      </trkpt>
      <trkpt lat="40.427004" lon="-6.146692">
        <ele>475.13</ele>
        <time>2021-03-27T15:24:07Z</time>
      </trkpt>
      <trkpt lat="40.427408" lon="-6.147518">
        <ele>480.68</ele>
        <time>2021-03-27T15:24:09Z</time>
      </trkpt>
      <trkpt lat="40.427478" lon="-6.147634">
        <ele>480.48</ele>
        <time>2021-03-27T15:24:10Z</time>
      </trkpt>
      <trkpt lat="40.427627" lon="-6.147782">
        <ele>482.43</ele>
        <time>2021-03-27T15:24:11Z</time>
      </trkpt>
      <trkpt lat="40.427725" lon="-6.147838">
        <ele>484.14</ele>
        <time>2021-03-27T15:24:13Z</time>
      </trkpt>
      <trkpt lat="40.428187" lon="-6.147997">
        <ele>487.68</ele>
        <time>2021-03-27T15:24:14Z</time>
      </trkpt>
      <trkpt lat="40.428479" lon="-6.148042">
        <ele>492.73</ele>
        <time>2021-03-27T15:24:16Z</time>
      </trkpt>
      <trkpt lat="40.428908" lon="-6.148227">
        <ele>493.33</ele>
        <time>2021-03-27T15:24:17Z</time>
      </trkpt>
      <trkpt lat="40.429095" lon="-6.148322">
        <ele>495.31</ele>
        <time>2021-03-27T15:24:18Z</time>
      </trkpt>
      <trkpt lat="40.429657" lon="-6.148671">
        <ele>500.74</ele>
        <time>2021-03-27T15:24:20Z</time>
      </trkpt>
      <trkpt lat="40.430204" lon="-6.148962">
        <ele>504.11</ele>
        <time>2021-03-27T15:24:21Z</time>
      </trkpt>
      <trkpt lat="40.430368" lon="-6.148991">
        <ele>504.64</ele>
        <time>2021-03-27T15:24:23Z</time>
      </trkpt>
      <trkpt lat="40.430517" lon="-6.148953">
        <ele>504.83</ele>
        <time>2021-03-27T15:24:24Z</time>
      </trkpt>
      <trkpt lat="40.430896" lon="-6.148807">
        <ele>507.55</ele>
        <time>2021-03-27T15:24:25Z</time>
      </trkpt>
      <trkpt lat="40.431214" lon="-6.14856">
        <ele>513.85</ele>
        <time>2021-03-27T15:24:27Z</time>
      </trkpt>
      <trkpt lat="40.43132" lon="-6.148538">
        <ele>514.39</ele>
        <time>2021-03-27T15:24:28Z</time>
      </trkpt>
      <trkpt lat="40.431361" lon="-6.148559">
        <ele>513.92</ele>
        <time>2021-03-27T15:24:29Z</time>
      </trkpt>
      <trkpt lat="40.431407" lon="-6.148604">
        <ele>513.38</ele>
        <time>2021-03-27T15:24:31Z</time>
      </trkpt>
      <trkpt lat="40.43144" lon="-6.148716">
        <ele>513.11</ele>
        <time>2021-03-27T15:24:32Z</time>
      </trkpt>
      <trkpt lat="40.431396" lon="-6.14904">
        <ele>512.22</ele>
        <time>2021-03-27T15:24:34Z</time>
      </trkpt>
      <trkpt lat="40.431411" lon="-6.149301">
        <ele>512.84</ele>
        <time>2021-03-27T15:24:35Z</time>
      </trkpt>
      <trkpt lat="40.431514" lon="-6.149635">
        <ele>511.13</ele>
        <time>2021-03-27T15:24:36Z</time>
      </trkpt>
      <trkpt lat="40.43159" lon="-6.149738">
        <ele>510.07</ele>
        <time>2021-03-27T15:24:38Z</time>
      </trkpt>
      <trkpt lat="40.431682" lon="-6.149781">
        <ele>509.71</ele>
        <time>2021-03-27T15:24:39Z</time>
      </trkpt>
      <trkpt lat="40.432061" lon="-6.14982">
        <ele>512.21</ele>
        <time>2021-03-27T15:24:40Z</time>
      </trkpt>
      <trkpt lat="40.432177" lon="-6.149789">
        <ele>512.84</ele>
        <time>2021-03-27T15:24:42Z</time>
      </trkpt>
      <trkpt lat="40.432218" lon="-6.149761">
        <ele>513.3</ele>
        <time>2021-03-27T15:24:43Z</time>
      </trkpt>
      <trkpt lat="40.432363" lon="-6.149568">
        <ele>518.07</ele>
        <time>2021-03-27T15:24:45Z</time>
      </trkpt>
      <trkpt lat="40.432449" lon="-6.149557">
        <ele>519.09</ele>
        <time>2021-03-27T15:24:46Z</time>
      </trkpt>
      <trkpt lat="40.432494" lon="-6.149576">
        <ele>519.1</ele>
        <time>2021-03-27T15:24:47Z</time>
      </trkpt>
      <trkpt lat="40.432641" lon="-6.149714">
        <ele>519.74</ele>
        <time>2021-03-27T15:24:49Z</time>
      </trkpt>
      <trkpt lat="40.433025" lon="-6.150282">
        <ele>516.02</ele>
        <time>2021-03-27T15:24:50Z</time>
      </trkpt>
      <trkpt lat="40.433225" lon="-6.150493">
        <ele>516.93</ele>
        <time>2021-03-27T15:24:52Z</time>
      </trkpt>
      <trkpt lat="40.433365" lon="-6.150611">
        <ele>518.29</ele>
        <time>2021-03-27T15:24:53Z</time>
      </trkpt>
      <trkpt lat="40.433528" lon="-6.150738">
        <ele>518.59</ele>
        <time>2021-03-27T15:24:54Z</time>
      </trkpt>
      <trkpt lat="40.433786" lon="-6.150884">
        <ele>518.17</ele>
        <time>2021-03-27T15:24:56Z</time>
      </trkpt>
      <trkpt lat="40.43416" lon="-6.151037">
        <ele>515.82</ele>
        <time>2021-03-27T15:24:57Z</time>
      </trkpt>
      <trkpt lat="40.434345" lon="-6.151077">
        <ele>514.94</ele>
        <time>2021-03-27T15:24:58Z</time>
      </trkpt>
      <trkpt lat="40.43455" lon="-6.151036">
        <ele>515.04</ele>
        <time>2021-03-27T15:25:00Z</time>
      </trkpt>
      <trkpt lat="40.435295" lon="-6.150573">
        <ele>517.0</ele>
        <time>2021-03-27T15:25:01Z</time>
      </trkpt>
      <trkpt lat="40.435567" lon="-6.150358">
        <ele>517.39</ele>
        <time>2021-03-27T15:25:03Z</time>
      </trkpt>
      <trkpt lat="40.435695" lon="-6.150223">
        <ele>517.85</ele>
        <time>2021-03-27T15:25:04Z</time>
      </trkpt>
      <trkpt lat="40.435955" lon="-6.149868">
        <ele>519.55</ele>
        <time>2021-03-27T15:25:05Z</time>
      </trkpt>
      <trkpt lat="40.436185" lon="-6.149437">
        <ele>522.27</ele>
        <time>2021-03-27T15:25:07Z</time>
      </trkpt>
      <trkpt lat="40.436308" lon="-6.14916">
        <ele>524.01</ele>
        <time>2021-03-27T15:25:08Z</time>
      </trkpt>
      <trkpt lat="40.436407" lon="-6.1488">
        <ele>526.89</ele>
        <time>2021-03-27T15:25:09Z</time>
      </trkpt>
      <trkpt lat="40.436447" lon="-6.148703">
        <ele>527.04</ele>
        <time>2021-03-27T15:25:11Z</time>
      </trkpt>
      <trkpt lat="40.436611" lon="-6.148493">
        <ele>527.42</ele>
        <time>2021-03-27T15:25:12Z</time>
      </trkpt>
      <trkpt lat="40.436855" lon="-6.148242">
        <ele>524.63</ele>
        <time>2021-03-27T15:25:14Z</time>
      </trkpt>
      <trkpt lat="40.436971" lon="-6.148057">
        <ele>530.86</ele>
        <time>2021-03-27T15:25:15Z</time>
      </trkpt>
      <trkpt lat="40.437014" lon="-6.148014">
        <ele>531.72</ele>
        <time>2021-03-27T15:25:16Z</time>
      </trkpt>
      <trkpt lat="40.437064" lon="-6.147984">
        <ele>531.55</ele>
        <time>2021-03-27T15:25:18Z</time>
      </trkpt>
      <trkpt lat="40.437317" lon="-6.147913">
        <ele>526.11</ele>
        <time>2021-03-27T15:25:19Z</time>
      </trkpt>
      <trkpt lat="40.437514" lon="-6.147836">
        <ele>523.63</ele>
        <time>2021-03-27T15:25:20Z</time>
      </trkpt>
      <trkpt lat="40.438181" lon="-6.147381">
        <ele>521.49</ele>
        <time>2021-03-27T15:25:22Z</time>
      </trkpt>
      <trkpt lat="40.438284" lon="-6.147293">
        <ele>520.71</ele>
        <time>2021-03-27T15:25:23Z</time>
      </trkpt>
      <trkpt lat="40.438505" lon="-6.147001">
        <ele>520.21</ele>
        <time>2021-03-27T15:25:25Z</time>
      </trkpt>
      <trkpt lat="40.438549" lon="-6.1469">
        <ele>522.0</ele>
        <time>2021-03-27T15:25:26Z</time>
      </trkpt>
      <trkpt lat="40.438604" lon="-6.146461">
        <ele>537.36</ele>
        <time>2021-03-27T15:25:27Z</time>
      </trkpt>
      <trkpt lat="40.438685" lon="-6.1463">
        <ele>534.89</ele>
        <time>2021-03-27T15:25:29Z</time>
      </trkpt>
      <trkpt lat="40.438877" lon="-6.14608">
        <ele>525.03</ele>
        <time>2021-03-27T15:25:30Z</time>
      </trkpt>
      <trkpt lat="40.438965" lon="-6.145916">
        <ele>524.87</ele>
        <time>2021-03-27T15:25:32Z</time>
      </trkpt>
      <trkpt lat="40.439086" lon="-6.145514">
        <ele>529.87</ele>
        <time>2021-03-27T15:25:33Z</time>
      </trkpt>
      <trkpt lat="40.439174" lon="-6.145406">
        <ele>528.2</ele>
        <time>2021-03-27T15:25:34Z</time>
      </trkpt>
      <trkpt lat="40.43941" lon="-6.145251">
        <ele>527.31</ele>
        <time>2021-03-27T15:25:36Z</time>
      </trkpt>
      <trkpt lat="40.439526" lon="-6.145208">
        <ele>527.35</ele>
        <time>2021-03-27T15:25:37Z</time>
      </trkpt>
      <trkpt lat="40.439995" lon="-6.1451">
        <ele>528.92</ele>
        <time>2021-03-27T15:25:38Z</time>
      </trkpt>
      <trkpt lat="40.440282" lon="-6.145018">
        <ele>531.93</ele>
        <time>2021-03-27T15:25:40Z</time>
      </trkpt>
      <trkpt lat="40.440459" lon="-6.144947">
        <ele>536.4</ele>
        <time>2021-03-27T15:25:41Z</time>
      </trkpt>
      <trkpt lat="40.440633" lon="-6.144865">
        <ele>538.51</ele>
        <time>2021-03-27T15:25:43Z</time>
      </trkpt>
      <trkpt lat="40.440958" lon="-6.144637">
        <ele>543.3</ele>
        <time>2021-03-27T15:25:44Z</time>
      </trkpt>
      <trkpt lat="40.441032" lon="-6.144604">
        <ele>544.12</ele>
        <time>2021-03-27T15:25:45Z</time>
      </trkpt>
      <trkpt lat="40.44112" lon="-6.144588">
        <ele>544.28</ele>
        <time>2021-03-27T15:25:47Z</time>
      </trkpt>
      <trkpt lat="40.441204" lon="-6.14461">
        <ele>536.95</ele>
        <time>2021-03-27T15:25:48Z</time>
      </trkpt>
      <trkpt lat="40.441204" lon="-6.14461">
        <ele>536.95</ele>
        <time>2021-03-27T15:25:48Z</time>
      </trkpt>
      <trkpt lat="40.441537" lon="-6.144912">
        <ele>530.27</ele>
        <time>2021-03-27T15:25:50Z</time>
      </trkpt>
      <trkpt lat="40.441641" lon="-6.14494">
        <ele>530.57</ele>
        <time>2021-03-27T15:25:51Z</time>
      </trkpt>
      <trkpt lat="40.441715" lon="-6.144934">
        <ele>530.87</ele>
        <time>2021-03-27T15:25:53Z</time>
      </trkpt>
      <trkpt lat="40.441819" lon="-6.144865">
        <ele>532.29</ele>
        <time>2021-03-27T15:25:55Z</time>
      </trkpt>
      <trkpt lat="40.442204" lon="-6.144263">
        <ele>544.95</ele>
        <time>2021-03-27T15:25:56Z</time>
      </trkpt>
      <trkpt lat="40.442651" lon="-6.143662">
        <ele>548.96</ele>
        <time>2021-03-27T15:25:58Z</time>
      </trkpt>
      <trkpt lat="40.442806" lon="-6.143321">
        <ele>549.7</ele>
        <time>2021-03-27T15:26:00Z</time>
      </trkpt>
      <trkpt lat="40.442858" lon="-6.143305">
        <ele>550.7</ele>
        <time>2021-03-27T15:26:01Z</time>
      </trkpt>
      <trkpt lat="40.442977" lon="-6.143349">
        <ele>551.96</ele>
        <time>2021-03-27T15:26:03Z</time>
      </trkpt>
      <trkpt lat="40.443025" lon="-6.143343">
        <ele>552.45</ele>
        <time>2021-03-27T15:26:05Z</time>
      </trkpt>
      <trkpt lat="40.443063" lon="-6.143279">
        <ele>553.44</ele>
        <time>2021-03-27T15:26:06Z</time>
      </trkpt>
      <trkpt lat="40.443074" lon="-6.143228">
        <ele>553.86</ele>
        <time>2021-03-27T15:26:08Z</time>
      </trkpt>
      <trkpt lat="40.443071" lon="-6.143119">
        <ele>554.02</ele>
        <time>2021-03-27T15:26:10Z</time>
      </trkpt>
      <trkpt lat="40.443111" lon="-6.142905">
        <ele>552.66</ele>
        <time>2021-03-27T15:26:11Z</time>
      </trkpt>
      <trkpt lat="40.443226" lon="-6.142666">
        <ele>550.32</ele>
        <time>2021-03-27T15:26:13Z</time>
      </trkpt>
      <trkpt lat="40.443371" lon="-6.142504">
        <ele>547.21</ele>
        <time>2021-03-27T15:26:15Z</time>
      </trkpt>
      <trkpt lat="40.443543" lon="-6.142417">
        <ele>548.05</ele>
        <time>2021-03-27T15:26:16Z</time>
      </trkpt>
      <trkpt lat="40.443777" lon="-6.142383">
        <ele>546.99</ele>
        <time>2021-03-27T15:26:18Z</time>
      </trkpt>
      <trkpt lat="40.444216" lon="-6.142428">
        <ele>552.33</ele>
        <time>2021-03-27T15:26:20Z</time>
      </trkpt>
      <trkpt lat="40.444413" lon="-6.142359">
        <ele>554.77</ele>
        <time>2021-03-27T15:26:21Z</time>
      </trkpt>
      <trkpt lat="40.444983" lon="-6.141975">
        <ele>551.7</ele>
        <time>2021-03-27T15:26:23Z</time>
      </trkpt>
      <trkpt lat="40.445897" lon="-6.141431">
        <ele>559.9</ele>
        <time>2021-03-27T15:26:25Z</time>
      </trkpt>
      <trkpt lat="40.446691" lon="-6.14068">
        <ele>563.55</ele>
        <time>2021-03-27T15:26:26Z</time>
      </trkpt>
      <trkpt lat="40.446998" lon="-6.140361">
        <ele>566.63</ele>
        <time>2021-03-27T15:26:28Z</time>
      </trkpt>
      <trkpt lat="40.447524" lon="-6.140014">
        <ele>563.52</ele>
        <time>2021-03-27T15:26:30Z</time>
      </trkpt>
      <trkpt lat="40.448422" lon="-6.139552">
        <ele>565.66</ele>
        <time>2021-03-27T15:26:31Z</time>
      </trkpt>
      <trkpt lat="40.448594" lon="-6.139497">
        <ele>564.82</ele>
        <time>2021-03-27T15:26:33Z</time>
      </trkpt>
      <trkpt lat="40.448916" lon="-6.139436">
        <ele>563.35</ele>
        <time>2021-03-27T15:26:35Z</time>
      </trkpt>
      <trkpt lat="40.449148" lon="-6.139421">
        <ele>567.1</ele>
        <time>2021-03-27T15:26:36Z</time>
      </trkpt>
      <trkpt lat="40.449498" lon="-6.139441">
        <ele>572.27</ele>
        <time>2021-03-27T15:26:38Z</time>
      </trkpt>
      <trkpt lat="40.449642" lon="-6.139429">
        <ele>572.95</ele>
        <time>2021-03-27T15:26:40Z</time>
      </trkpt>
      <trkpt lat="40.449763" lon="-6.139387">
        <ele>573.11</ele>
        <time>2021-03-27T15:26:41Z</time>
      </trkpt>
      <trkpt lat="40.449876" lon="-6.139316">
        <ele>573.34</ele>
        <time>2021-03-27T15:26:43Z</time>
      </trkpt>
      <trkpt lat="40.450001" lon="-6.139197">
        <ele>572.78</ele>
        <time>2021-03-27T15:26:45Z</time>
      </trkpt>
      <trkpt lat="40.450092" lon="-6.139055">
        <ele>573.67</ele>
        <time>2021-03-27T15:26:46Z</time>
      </trkpt>
      <trkpt lat="40.450205" lon="-6.138707">
        <ele>573.73</ele>
        <time>2021-03-27T15:26:48Z</time>
      </trkpt>
      <trkpt lat="40.45026" lon="-6.138457">
        <ele>574.91</ele>
        <time>2021-03-27T15:26:49Z</time>
      </trkpt>
      <trkpt lat="40.450314" lon="-6.137905">
        <ele>570.32</ele>
        <time>2021-03-27T15:26:51Z</time>
      </trkpt>
      <trkpt lat="40.450369" lon="-6.137611">
        <ele>567.9</ele>
        <time>2021-03-27T15:26:53Z</time>
      </trkpt>
      <trkpt lat="40.450751" lon="-6.136915">
        <ele>567.43</ele>
        <time>2021-03-27T15:26:54Z</time>
      </trkpt>
      <trkpt lat="40.450905" lon="-6.136499">
        <ele>565.21</ele>
        <time>2021-03-27T15:26:56Z</time>
      </trkpt>
      <trkpt lat="40.451042" lon="-6.136311">
        <ele>567.04</ele>
        <time>2021-03-27T15:26:58Z</time>
      </trkpt>
      <trkpt lat="40.451078" lon="-6.136137">
        <ele>567.7</ele>
        <time>2021-03-27T15:26:59Z</time>
      </trkpt>
      <trkpt lat="40.451136" lon="-6.136058">
        <ele>568.07</ele>
        <time>2021-03-27T15:27:01Z</time>
      </trkpt>
      <trkpt lat="40.451191" lon="-6.13603">
        <ele>569.21</ele>
        <time>2021-03-27T15:27:03Z</time>
      </trkpt>
      <trkpt lat="40.451662" lon="-6.136022">
        <ele>571.87</ele>
        <time>2021-03-27T15:27:04Z</time>
      </trkpt>
      <trkpt lat="40.451821" lon="-6.135999">
        <ele>570.18</ele>
        <time>2021-03-27T15:27:06Z</time>
      </trkpt>
      <trkpt lat="40.451909" lon="-6.135936">
        <ele>569.62</ele>
        <time>2021-03-27T15:27:08Z</time>
      </trkpt>
      <trkpt lat="40.452087" lon="-6.135679">
        <ele>571.34</ele>
        <time>2021-03-27T15:27:09Z</time>
      </trkpt>
      <trkpt lat="40.452173" lon="-6.135588">
        <ele>568.58</ele>
        <time>2021-03-27T15:27:11Z</time>
      </trkpt>
      <trkpt lat="40.452537" lon="-6.135309">
        <ele>570.62</ele>
        <time>2021-03-27T15:27:13Z</time>
      </trkpt>
      <trkpt lat="40.452653" lon="-6.135258">
        <ele>572.26</ele>
        <time>2021-03-27T15:27:14Z</time>
      </trkpt>
      <trkpt lat="40.453161" lon="-6.135178">
        <ele>573.37</ele>
        <time>2021-03-27T15:27:16Z</time>
      </trkpt>
      <trkpt lat="40.453337" lon="-6.135118">
        <ele>572.69</ele>
        <time>2021-03-27T15:27:18Z</time>
      </trkpt>
      <trkpt lat="40.453884" lon="-6.134717">
        <ele>572.18</ele>
        <time>2021-03-27T15:27:19Z</time>
      </trkpt>
      <trkpt lat="40.454168" lon="-6.134565">
        <ele>572.83</ele>
        <time>2021-03-27T15:27:21Z</time>
      </trkpt>
      <trkpt lat="40.454731" lon="-6.134365">
        <ele>575.96</ele>
        <time>2021-03-27T15:27:23Z</time>
      </trkpt>
      <trkpt lat="40.454874" lon="-6.13434">
        <ele>576.01</ele>
        <time>2021-03-27T15:27:24Z</time>
      </trkpt>
      <trkpt lat="40.455003" lon="-6.134341">
        <ele>575.48</ele>
        <time>2021-03-27T15:27:26Z</time>
      </trkpt>
      <trkpt lat="40.455644" lon="-6.134449">
        <ele>577.92</ele>
        <time>2021-03-27T15:27:28Z</time>
      </trkpt>
      <trkpt lat="40.455886" lon="-6.134521">
        <ele>579.51</ele>
        <time>2021-03-27T15:27:29Z</time>
      </trkpt>
      <trkpt lat="40.456232" lon="-6.134728">
        <ele>578.8</ele>
        <time>2021-03-27T15:27:31Z</time>
      </trkpt>
      <trkpt lat="40.456551" lon="-6.135031">
        <ele>577.71</ele>
        <time>2021-03-27T15:27:33Z</time>
      </trkpt>
      <trkpt lat="40.456867" lon="-6.135406">
        <ele>580.56</ele>
        <time>2021-03-27T15:27:34Z</time>
      </trkpt>
      <trkpt lat="40.45698" lon="-6.13557">
        <ele>580.99</ele>
        <time>2021-03-27T15:27:36Z</time>
      </trkpt>
      <trkpt lat="40.457188" lon="-6.13596">
        <ele>582.0</ele>
        <time>2021-03-27T15:27:38Z</time>
      </trkpt>
      <trkpt lat="40.457637" lon="-6.13689">
        <ele>584.65</ele>
        <time>2021-03-27T15:27:39Z</time>
      </trkpt>
      <trkpt lat="40.457904" lon="-6.137275">
        <ele>584.12</ele>
        <time>2021-03-27T15:27:41Z</time>
      </trkpt>
      <trkpt lat="40.45817" lon="-6.137704">
        <ele>587.77</ele>
        <time>2021-03-27T15:27:43Z</time>
      </trkpt>
      <trkpt lat="40.458514" lon="-6.138289">
        <ele>590.83</ele>
        <time>2021-03-27T15:27:44Z</time>
      </trkpt>
      <trkpt lat="40.458584" lon="-6.138433">
        <ele>590.86</ele>
        <time>2021-03-27T15:27:46Z</time>
      </trkpt>
      <trkpt lat="40.458677" lon="-6.138721">
        <ele>591.7</ele>
        <time>2021-03-27T15:27:48Z</time>
      </trkpt>
      <trkpt lat="40.45875" lon="-6.139257">
        <ele>588.51</ele>
        <time>2021-03-27T15:27:49Z</time>
      </trkpt>
      <trkpt lat="40.458762" lon="-6.139643">
        <ele>588.03</ele>
        <time>2021-03-27T15:27:51Z</time>
      </trkpt>
      <trkpt lat="40.45875" lon="-6.140167">
        <ele>591.0</ele>
        <time>2021-03-27T15:27:52Z</time>
      </trkpt>
      <trkpt lat="40.458765" lon="-6.140228">
        <ele>591.65</ele>
        <time>2021-03-27T15:27:54Z</time>
      </trkpt>
      <trkpt lat="40.458798" lon="-6.140262">
        <ele>592.2</ele>
        <time>2021-03-27T15:27:56Z</time>
      </trkpt>
      <trkpt lat="40.458838" lon="-6.140269">
        <ele>592.55</ele>
        <time>2021-03-27T15:27:57Z</time>
      </trkpt>
      <trkpt lat="40.4589" lon="-6.14021">
        <ele>592.81</ele>
        <time>2021-03-27T15:27:59Z</time>
      </trkpt>
      <trkpt lat="40.458931" lon="-6.140137">
        <ele>593.52</ele>
        <time>2021-03-27T15:28:01Z</time>
      </trkpt>
      <trkpt lat="40.459019" lon="-6.139715">
        <ele>595.62</ele>
        <time>2021-03-27T15:28:02Z</time>
      </trkpt>
      <trkpt lat="40.459039" lon="-6.139497">
        <ele>596.1</ele>
        <time>2021-03-27T15:28:04Z</time>
      </trkpt>
      <trkpt lat="40.459008" lon="-6.1391">
        <ele>598.93</ele>
        <time>2021-03-27T15:28:06Z</time>
      </trkpt>
      <trkpt lat="40.458942" lon="-6.138664">
        <ele>604.3</ele>
        <time>2021-03-27T15:28:07Z</time>
      </trkpt>
      <trkpt lat="40.458897" lon="-6.138511">
        <ele>604.66</ele>
        <time>2021-03-27T15:28:09Z</time>
      </trkpt>
      <trkpt lat="40.458607" lon="-6.137789">
        <ele>602.57</ele>
        <time>2021-03-27T15:28:11Z</time>
      </trkpt>
      <trkpt lat="40.458565" lon="-6.137646">
        <ele>604.5</ele>
        <time>2021-03-27T15:28:12Z</time>
      </trkpt>
      <trkpt lat="40.458535" lon="-6.137492">
        <ele>606.75</ele>
        <time>2021-03-27T15:28:14Z</time>
      </trkpt>
      <trkpt lat="40.458376" lon="-6.136256">
        <ele>620.91</ele>
        <time>2021-03-27T15:28:16Z</time>
      </trkpt>
      <trkpt lat="40.458345" lon="-6.136129">
        <ele>621.29</ele>
        <time>2021-03-27T15:28:17Z</time>
      </trkpt>
      <trkpt lat="40.458299" lon="-6.136031">
        <ele>621.36</ele>
        <time>2021-03-27T15:28:19Z</time>
      </trkpt>
      <trkpt lat="40.458085" lon="-6.13577">
        <ele>618.73</ele>
        <time>2021-03-27T15:28:21Z</time>
      </trkpt>
      <trkpt lat="40.458018" lon="-6.135661">
        <ele>619.25</ele>
        <time>2021-03-27T15:28:22Z</time>
      </trkpt>
      <trkpt lat="40.45782" lon="-6.135175">
        <ele>621.85</ele>
        <time>2021-03-27T15:28:24Z</time>
      </trkpt>
      <trkpt lat="40.457737" lon="-6.134822">
        <ele>622.23</ele>
        <time>2021-03-27T15:28:26Z</time>
      </trkpt>
      <trkpt lat="40.457726" lon="-6.134721">
        <ele>622.8</ele>
        <time>2021-03-27T15:28:27Z</time>
      </trkpt>
      <trkpt lat="40.457751" lon="-6.134532">
        <ele>625.3</ele>
        <time>2021-03-27T15:28:29Z</time>
      </trkpt>
      <trkpt lat="40.458052" lon="-6.133688">
        <ele>645.76</ele>
        <time>2021-03-27T15:28:31Z</time>
      </trkpt>
      <trkpt lat="40.458096" lon="-6.133499">
        <ele>650.48</ele>
        <time>2021-03-27T15:28:32Z</time>
      </trkpt>
      <trkpt lat="40.458074" lon="-6.133434">
        <ele>650.06</ele>
        <time>2021-03-27T15:28:34Z</time>
      </trkpt>
      <trkpt lat="40.458002" lon="-6.133388">
        <ele>649.53</ele>
        <time>2021-03-27T15:28:36Z</time>
      </trkpt>
      <trkpt lat="40.457375" lon="-6.133383">
        <ele>639.14</ele>
        <time>2021-03-27T15:28:37Z</time>
      </trkpt>
      <trkpt lat="40.457108" lon="-6.133316">
        <ele>639.72</ele>
        <time>2021-03-27T15:28:39Z</time>
      </trkpt>
      <trkpt lat="40.456996" lon="-6.133264">
        <ele>641.81</ele>
        <time>2021-03-27T15:28:41Z</time>
      </trkpt>
      <trkpt lat="40.456873" lon="-6.133178">
        <ele>643.45</ele>
        <time>2021-03-27T15:28:42Z</time>
      </trkpt>
      <trkpt lat="40.45634" lon="-6.132764">
        <ele>646.54</ele>
        <time>2021-03-27T15:28:44Z</time>
      </trkpt>
      <trkpt lat="40.456202" lon="-6.132632">
        <ele>643.71</ele>
        <time>2021-03-27T15:28:46Z</time>
      </trkpt>
      <trkpt lat="40.456147" lon="-6.13252">
        <ele>643.24</ele>
        <time>2021-03-27T15:28:47Z</time>
      </trkpt>
      <trkpt lat="40.456129" lon="-6.132364">
        <ele>644.33</ele>
        <time>2021-03-27T15:28:49Z</time>
      </trkpt>
      <trkpt lat="40.456136" lon="-6.131983">
        <ele>650.76</ele>
        <time>2021-03-27T15:28:51Z</time>
      </trkpt>
      <trkpt lat="40.456123" lon="-6.131869">
        <ele>652.31</ele>
        <time>2021-03-27T15:28:52Z</time>
      </trkpt>
      <trkpt lat="40.456019" lon="-6.131454">
        <ele>656.71</ele>
        <time>2021-03-27T15:28:54Z</time>
      </trkpt>
      <trkpt lat="40.455899" lon="-6.131101">
        <ele>660.91</ele>
        <time>2021-03-27T15:28:55Z</time>
      </trkpt>
      <trkpt lat="40.45589" lon="-6.130923">
        <ele>665.51</ele>
        <time>2021-03-27T15:28:57Z</time>
      </trkpt>
      <trkpt lat="40.455921" lon="-6.130214">
        <ele>674.13</ele>
        <time>2021-03-27T15:28:59Z</time>
      </trkpt>
      <trkpt lat="40.4559" lon="-6.13009">
        <ele>675.16</ele>
        <time>2021-03-27T15:29:00Z</time>
      </trkpt>
      <trkpt lat="40.455874" lon="-6.130054">
        <ele>674.66</ele>
        <time>2021-03-27T15:29:02Z</time>
      </trkpt>
      <trkpt lat="40.455814" lon="-6.130021">
        <ele>673.88</ele>
        <time>2021-03-27T15:29:04Z</time>
      </trkpt>
      <trkpt lat="40.45573" lon="-6.130043">
        <ele>674.54</ele>
        <time>2021-03-27T15:29:05Z</time>
      </trkpt>
      <trkpt lat="40.455665" lon="-6.130089">
        <ele>674.24</ele>
        <time>2021-03-27T15:29:07Z</time>
      </trkpt>
      <trkpt lat="40.455214" lon="-6.13047">
        <ele>671.6</ele>
        <time>2021-03-27T15:29:09Z</time>
      </trkpt>
      <trkpt lat="40.454764" lon="-6.130931">
        <ele>673.42</ele>
        <time>2021-03-27T15:29:10Z</time>
      </trkpt>
      <trkpt lat="40.454148" lon="-6.131164">
        <ele>678.67</ele>
        <time>2021-03-27T15:29:12Z</time>
      </trkpt>
      <trkpt lat="40.454059" lon="-6.131145">
        <ele>677.99</ele>
        <time>2021-03-27T15:29:14Z</time>
      </trkpt>
      <trkpt lat="40.453994" lon="-6.131063">
        <ele>678.09</ele>
        <time>2021-03-27T15:29:15Z</time>
      </trkpt>
      <trkpt lat="40.45398" lon="-6.131012">
        <ele>678.49</ele>
        <time>2021-03-27T15:29:17Z</time>
      </trkpt>
      <trkpt lat="40.453975" lon="-6.130938">
        <ele>679.3</ele>
        <time>2021-03-27T15:29:19Z</time>
      </trkpt>
      <trkpt lat="40.454039" lon="-6.130379">
        <ele>686.39</ele>
        <time>2021-03-27T15:29:20Z</time>
      </trkpt>
      <trkpt lat="40.4541" lon="-6.130122">
        <ele>688.94</ele>
        <time>2021-03-27T15:29:22Z</time>
      </trkpt>
      <trkpt lat="40.454186" lon="-6.129916">
        <ele>690.63</ele>
        <time>2021-03-27T15:29:24Z</time>
      </trkpt>
      <trkpt lat="40.454255" lon="-6.129805">
        <ele>691.59</ele>
        <time>2021-03-27T15:29:25Z</time>
      </trkpt>
      <trkpt lat="40.454591" lon="-6.129497">
        <ele>699.4</ele>
        <time>2021-03-27T15:29:27Z</time>
      </trkpt>
      <trkpt lat="40.454809" lon="-6.129218">
        <ele>701.88</ele>
        <time>2021-03-27T15:29:29Z</time>
      </trkpt>
      <trkpt lat="40.455407" lon="-6.128228">
        <ele>707.54</ele>
        <time>2021-03-27T15:29:30Z</time>
      </trkpt>
      <trkpt lat="40.455587" lon="-6.127818">
        <ele>713.83</ele>
        <time>2021-03-27T15:29:32Z</time>
      </trkpt>
      <trkpt lat="40.45569" lon="-6.127464">
        <ele>716.86</ele>
        <time>2021-03-27T15:29:34Z</time>
      </trkpt>
      <trkpt lat="40.455895" lon="-6.126508">
        <ele>722.61</ele>
        <time>2021-03-27T15:29:35Z</time>
      </trkpt>
      <trkpt lat="40.456019" lon="-6.126036">
        <ele>726.27</ele>
        <time>2021-03-27T15:29:37Z</time>
      </trkpt>
      <trkpt lat="40.456125" lon="-6.125724">
        <ele>727.42</ele>
        <time>2021-03-27T15:29:39Z</time>
      </trkpt>
      <trkpt lat="40.456345" lon="-6.125253">
        <ele>732.21</ele>
        <time>2021-03-27T15:29:40Z</time>
      </trkpt>
      <trkpt lat="40.456373" lon="-6.125119">
        <ele>732.41</ele>
        <time>2021-03-27T15:29:42Z</time>
      </trkpt>
      <trkpt lat="40.45639" lon="-6.12493">
        <ele>732.31</ele>
        <time>2021-03-27T15:29:44Z</time>
      </trkpt>
      <trkpt lat="40.456427" lon="-6.123584">
        <ele>740.98</ele>
        <time>2021-03-27T15:29:45Z</time>
      </trkpt>
      <trkpt lat="40.456483" lon="-6.12279">
        <ele>739.21</ele>
        <time>2021-03-27T15:29:47Z</time>
      </trkpt>
      <trkpt lat="40.456502" lon="-6.12263">
        <ele>736.91</ele>
        <time>2021-03-27T15:29:49Z</time>
      </trkpt>
      <trkpt lat="40.456552" lon="-6.122468">
        <ele>735.09</ele>
        <time>2021-03-27T15:29:50Z</time>
      </trkpt>
      <trkpt lat="40.4566" lon="-6.122423">
        <ele>735.59</ele>
        <time>2021-03-27T15:29:52Z</time>
      </trkpt>
      <trkpt lat="40.456711" lon="-6.122409">
        <ele>737.61</ele>
        <time>2021-03-27T15:29:54Z</time>
      </trkpt>
      <trkpt lat="40.456764" lon="-6.122432">
        <ele>738.67</ele>
        <time>2021-03-27T15:29:55Z</time>
      </trkpt>
      <trkpt lat="40.45709" lon="-6.122724">
        <ele>748.12</ele>
        <time>2021-03-27T15:29:57Z</time>
      </trkpt>
      <trkpt lat="40.457226" lon="-6.122806">
        <ele>750.14</ele>
        <time>2021-03-27T15:29:58Z</time>
      </trkpt>
      <trkpt lat="40.457743" lon="-6.123004">
        <ele>763.12</ele>
        <time>2021-03-27T15:30:00Z</time>
      </trkpt>
      <trkpt lat="40.457912" lon="-6.123024">
        <ele>766.47</ele>
        <time>2021-03-27T15:30:02Z</time>
      </trkpt>
      <trkpt lat="40.457992" lon="-6.123016">
        <ele>767.22</ele>
        <time>2021-03-27T15:30:03Z</time>
      </trkpt>
      <trkpt lat="40.458175" lon="-6.122958">
        <ele>767.61</ele>
        <time>2021-03-27T15:30:05Z</time>
      </trkpt>
      <trkpt lat="40.458334" lon="-6.122835">
        <ele>766.09</ele>
        <time>2021-03-27T15:30:07Z</time>
      </trkpt>
      <trkpt lat="40.458431" lon="-6.122675">
        <ele>763.14</ele>
        <time>2021-03-27T15:30:08Z</time>
      </trkpt>
      <trkpt lat="40.458591" lon="-6.122466">
        <ele>760.83</ele>
        <time>2021-03-27T15:30:10Z</time>
      </trkpt>
      <trkpt lat="40.458759" lon="-6.122306">
        <ele>761.33</ele>
        <time>2021-03-27T15:30:12Z</time>
      </trkpt>
      <trkpt lat="40.458828" lon="-6.122151">
        <ele>761.73</ele>
        <time>2021-03-27T15:30:13Z</time>
      </trkpt>
      <trkpt lat="40.458857" lon="-6.121942">
        <ele>764.96</ele>
        <time>2021-03-27T15:30:15Z</time>
      </trkpt>
      <trkpt lat="40.458824" lon="-6.12172">
        <ele>768.68</ele>
        <time>2021-03-27T15:30:17Z</time>
      </trkpt>
      <trkpt lat="40.458767" lon="-6.121581">
        <ele>770.96</ele>
        <time>2021-03-27T15:30:18Z</time>
      </trkpt>
      <trkpt lat="40.45849" lon="-6.121062">
        <ele>778.83</ele>
        <time>2021-03-27T15:30:20Z</time>
      </trkpt>
      <trkpt lat="40.458003" lon="-6.120529">
        <ele>785.33</ele>
        <time>2021-03-27T15:30:22Z</time>
      </trkpt>
      <trkpt lat="40.457211" lon="-6.119534">
        <ele>784.64</ele>
        <time>2021-03-27T15:30:23Z</time>
      </trkpt>
      <trkpt lat="40.45712" lon="-6.119392">
        <ele>784.91</ele>
        <time>2021-03-27T15:30:25Z</time>
      </trkpt>
      <trkpt lat="40.457034" lon="-6.119216">
        <ele>785.73</ele>
        <time>2021-03-27T15:30:27Z</time>
      </trkpt>
      <trkpt lat="40.456967" lon="-6.119034">
        <ele>786.58</ele>
        <time>2021-03-27T15:30:28Z</time>
      </trkpt>
      <trkpt lat="40.456882" lon="-6.118753">
        <ele>789.11</ele>
        <time>2021-03-27T15:30:30Z</time>
      </trkpt>
      <trkpt lat="40.456719" lon="-6.11774">
        <ele>795.52</ele>
        <time>2021-03-27T15:30:32Z</time>
      </trkpt>
      <trkpt lat="40.456647" lon="-6.116959">
        <ele>798.36</ele>
        <time>2021-03-27T15:30:33Z</time>
      </trkpt>
      <trkpt lat="40.456651" lon="-6.116217">
        <ele>811.95</ele>
        <time>2021-03-27T15:30:35Z</time>
      </trkpt>
      <trkpt lat="40.456494" lon="-6.115317">
        <ele>821.24</ele>
        <time>2021-03-27T15:30:37Z</time>
      </trkpt>
      <trkpt lat="40.456457" lon="-6.115241">
        <ele>821.09</ele>
        <time>2021-03-27T15:30:38Z</time>
      </trkpt>
      <trkpt lat="40.456382" lon="-6.115194">
        <ele>820.94</ele>
        <time>2021-03-27T15:30:40Z</time>
      </trkpt>
      <trkpt lat="40.456312" lon="-6.115197">
        <ele>820.81</ele>
        <time>2021-03-27T15:30:42Z</time>
      </trkpt>
      <trkpt lat="40.455946" lon="-6.115341">
        <ele>820.16</ele>
        <time>2021-03-27T15:30:43Z</time>
      </trkpt>
      <trkpt lat="40.455692" lon="-6.115401">
        <ele>817.97</ele>
        <time>2021-03-27T15:30:45Z</time>
      </trkpt>
      <trkpt lat="40.455083" lon="-6.115333">
        <ele>824.11</ele>
        <time>2021-03-27T15:30:47Z</time>
      </trkpt>
      <trkpt lat="40.455019" lon="-6.115287">
        <ele>826.41</ele>
        <time>2021-03-27T15:30:48Z</time>
      </trkpt>
      <trkpt lat="40.454998" lon="-6.115187">
        <ele>829.29</ele>
        <time>2021-03-27T15:30:50Z</time>
      </trkpt>
      <trkpt lat="40.455042" lon="-6.115112">
        <ele>830.69</ele>
        <time>2021-03-27T15:30:52Z</time>
      </trkpt>
      <trkpt lat="40.455089" lon="-6.115093">
        <ele>830.7</ele>
        <time>2021-03-27T15:30:53Z</time>
      </trkpt>
      <trkpt lat="40.455566" lon="-6.115115">
        <ele>825.36</ele>
        <time>2021-03-27T15:30:55Z</time>
      </trkpt>
      <trkpt lat="40.455744" lon="-6.115057">
        <ele>828.25</ele>
        <time>2021-03-27T15:30:57Z</time>
      </trkpt>
      <trkpt lat="40.455835" lon="-6.114991">
        <ele>830.17</ele>
        <time>2021-03-27T15:30:58Z</time>
      </trkpt>
      <trkpt lat="40.456561" lon="-6.114305">
        <ele>838.07</ele>
        <time>2021-03-27T15:31:00Z</time>
      </trkpt>
      <trkpt lat="40.456642" lon="-6.114274">
        <ele>838.23</ele>
        <time>2021-03-27T15:31:01Z</time>
      </trkpt>
      <trkpt lat="40.456716" lon="-6.114269">
        <ele>839.24</ele>
        <time>2021-03-27T15:31:03Z</time>
      </trkpt>
      <trkpt lat="40.456818" lon="-6.114292">
        <ele>841.21</ele>
        <time>2021-03-27T15:31:05Z</time>
      </trkpt>
      <trkpt lat="40.456889" lon="-6.114338">
        <ele>842.39</ele>
        <time>2021-03-27T15:31:06Z</time>
      </trkpt>
      <trkpt lat="40.456967" lon="-6.114414">
        <ele>843.81</ele>
        <time>2021-03-27T15:31:08Z</time>
      </trkpt>
      <trkpt lat="40.457023" lon="-6.114536">
        <ele>845.55</ele>
        <time>2021-03-27T15:31:10Z</time>
      </trkpt>
      <trkpt lat="40.457344" lon="-6.116236">
        <ele>849.62</ele>
        <time>2021-03-27T15:31:11Z</time>
      </trkpt>
      <trkpt lat="40.457432" lon="-6.116669">
        <ele>849.57</ele>
        <time>2021-03-27T15:31:13Z</time>
      </trkpt>
      <trkpt lat="40.457517" lon="-6.116999">
        <ele>848.53</ele>
        <time>2021-03-27T15:31:15Z</time>
      </trkpt>
      <trkpt lat="40.457593" lon="-6.117218">
        <ele>847.43</ele>
        <time>2021-03-27T15:31:16Z</time>
      </trkpt>
      <trkpt lat="40.457807" lon="-6.117695">
        <ele>850.02</ele>
        <time>2021-03-27T15:31:18Z</time>
      </trkpt>
      <trkpt lat="40.457917" lon="-6.11785">
        <ele>854.45</ele>
        <time>2021-03-27T15:31:20Z</time>
      </trkpt>
      <trkpt lat="40.458054" lon="-6.118006">
        <ele>858.34</ele>
        <time>2021-03-27T15:31:21Z</time>
      </trkpt>
      <trkpt lat="40.458318" lon="-6.118226">
        <ele>859.93</ele>
        <time>2021-03-27T15:31:23Z</time>
      </trkpt>
      <trkpt lat="40.458472" lon="-6.118303">
        <ele>861.98</ele>
        <time>2021-03-27T15:31:25Z</time>
      </trkpt>
      <trkpt lat="40.458701" lon="-6.118381">
        <ele>866.11</ele>
        <time>2021-03-27T15:31:26Z</time>
      </trkpt>
      <trkpt lat="40.459108" lon="-6.118444">
        <ele>869.93</ele>
        <time>2021-03-27T15:31:28Z</time>
      </trkpt>
      <trkpt lat="40.459413" lon="-6.118461">
        <ele>870.33</ele>
        <time>2021-03-27T15:31:30Z</time>
      </trkpt>
      <trkpt lat="40.460402" lon="-6.118458">
        <ele>883.96</ele>
        <time>2021-03-27T15:31:31Z</time>
      </trkpt>
      <trkpt lat="40.460605" lon="-6.118477">
        <ele>886.49</ele>
        <time>2021-03-27T15:31:33Z</time>
      </trkpt>
      <trkpt lat="40.460938" lon="-6.118572">
        <ele>890.8</ele>
        <time>2021-03-27T15:31:35Z</time>
      </trkpt>
      <trkpt lat="40.460996" lon="-6.118628">
        <ele>891.57</ele>
        <time>2021-03-27T15:31:36Z</time>
      </trkpt>
      <trkpt lat="40.461016" lon="-6.118679">
        <ele>891.42</ele>
        <time>2021-03-27T15:31:38Z</time>
      </trkpt>
      <trkpt lat="40.461001" lon="-6.119142">
        <ele>883.04</ele>
        <time>2021-03-27T15:31:40Z</time>
      </trkpt>
      <trkpt lat="40.461029" lon="-6.119253">
        <ele>882.59</ele>
        <time>2021-03-27T15:31:41Z</time>
      </trkpt>
      <trkpt lat="40.461083" lon="-6.119364">
        <ele>883.11</ele>
        <time>2021-03-27T15:31:43Z</time>
      </trkpt>
      <trkpt lat="40.46151" lon="-6.119952">
        <ele>889.96</ele>
        <time>2021-03-27T15:31:45Z</time>
      </trkpt>
      <trkpt lat="40.461644" lon="-6.120124">
        <ele>891.66</ele>
        <time>2021-03-27T15:31:46Z</time>
      </trkpt>
      <trkpt lat="40.461779" lon="-6.120258">
        <ele>892.72</ele>
        <time>2021-03-27T15:31:48Z</time>
      </trkpt>
      <trkpt lat="40.46202" lon="-6.120473">
        <ele>894.99</ele>
        <time>2021-03-27T15:31:50Z</time>
      </trkpt>
      <trkpt lat="40.462279" lon="-6.120672">
        <ele>899.71</ele>
        <time>2021-03-27T15:31:51Z</time>
      </trkpt>
      <trkpt lat="40.462685" lon="-6.120876">
        <ele>902.25</ele>
        <time>2021-03-27T15:31:53Z</time>
      </trkpt>
      <trkpt lat="40.463005" lon="-6.120964">
        <ele>903.52</ele>
        <time>2021-03-27T15:31:55Z</time>
      </trkpt>
      <trkpt lat="40.463468" lon="-6.12098">
        <ele>911.96</ele>
        <time>2021-03-27T15:31:56Z</time>
      </trkpt>
      <trkpt lat="40.463551" lon="-6.12101">
        <ele>912.91</ele>
        <time>2021-03-27T15:31:58Z</time>
      </trkpt>
      <trkpt lat="40.463614" lon="-6.121046">
        <ele>913.45</ele>
        <time>2021-03-27T15:32:00Z</time>
      </trkpt>
      <trkpt lat="40.463659" lon="-6.121112">
        <ele>912.85</ele>
        <time>2021-03-27T15:32:01Z</time>
      </trkpt>
      <trkpt lat="40.463773" lon="-6.121395">
        <ele>907.51</ele>
        <time>2021-03-27T15:32:03Z</time>
      </trkpt>
      <trkpt lat="40.463838" lon="-6.121486">
        <ele>904.88</ele>
        <time>2021-03-27T15:32:04Z</time>
      </trkpt>
      <trkpt lat="40.463916" lon="-6.121547">
        <ele>904.02</ele>
        <time>2021-03-27T15:32:06Z</time>
      </trkpt>
      <trkpt lat="40.464307" lon="-6.121725">
        <ele>911.23</ele>
        <time>2021-03-27T15:32:08Z</time>
      </trkpt>
      <trkpt lat="40.464356" lon="-6.121713">
        <ele>912.99</ele>
        <time>2021-03-27T15:32:09Z</time>
      </trkpt>
      <trkpt lat="40.464382" lon="-6.121665">
        <ele>914.03</ele>
        <time>2021-03-27T15:32:11Z</time>
      </trkpt>
      <trkpt lat="40.464379" lon="-6.121602">
        <ele>915.55</ele>
        <time>2021-03-27T15:32:13Z</time>
      </trkpt>
      <trkpt lat="40.464339" lon="-6.121557">
        <ele>915.49</ele>
        <time>2021-03-27T15:32:14Z</time>
      </trkpt>
      <trkpt lat="40.464115" lon="-6.121464">
        <ele>911.63</ele>
        <time>2021-03-27T15:32:16Z</time>
      </trkpt>
      <trkpt lat="40.464041" lon="-6.121415">
        <ele>911.44</ele>
        <time>2021-03-27T15:32:18Z</time>
      </trkpt>
      <trkpt lat="40.463981" lon="-6.121327">
        <ele>912.76</ele>
        <time>2021-03-27T15:32:19Z</time>
      </trkpt>
      <trkpt lat="40.463938" lon="-6.121187">
        <ele>915.86</ele>
        <time>2021-03-27T15:32:21Z</time>
      </trkpt>
      <trkpt lat="40.463885" lon="-6.120845">
        <ele>924.57</ele>
        <time>2021-03-27T15:32:23Z</time>
      </trkpt>
      <trkpt lat="40.463851" lon="-6.12076">
        <ele>925.93</ele>
        <time>2021-03-27T15:32:24Z</time>
      </trkpt>
      <trkpt lat="40.463782" lon="-6.120663">
        <ele>926.83</ele>
        <time>2021-03-27T15:32:26Z</time>
      </trkpt>
      <trkpt lat="40.46365" lon="-6.120588">
        <ele>925.92</ele>
        <time>2021-03-27T15:32:28Z</time>
      </trkpt>
      <trkpt lat="40.463031" lon="-6.120351">
        <ele>924.61</ele>
        <time>2021-03-27T15:32:29Z</time>
      </trkpt>
      <trkpt lat="40.46278" lon="-6.120215">
        <ele>923.31</ele>
        <time>2021-03-27T15:32:31Z</time>
      </trkpt>
      <trkpt lat="40.462407" lon="-6.119883">
        <ele>923.64</ele>
        <time>2021-03-27T15:32:33Z</time>
      </trkpt>
      <trkpt lat="40.462188" lon="-6.11961">
        <ele>924.07</ele>
        <time>2021-03-27T15:32:34Z</time>
      </trkpt>
      <trkpt lat="40.462041" lon="-6.119368">
        <ele>925.53</ele>
        <time>2021-03-27T15:32:36Z</time>
      </trkpt>
      <trkpt lat="40.46192" lon="-6.119119">
        <ele>925.41</ele>
        <time>2021-03-27T15:32:38Z</time>
      </trkpt>
      <trkpt lat="40.461853" lon="-6.118931">
        <ele>924.74</ele>
        <time>2021-03-27T15:32:39Z</time>
      </trkpt>
      <trkpt lat="40.461798" lon="-6.118618">
        <ele>925.95</ele>
        <time>2021-03-27T15:32:41Z</time>
      </trkpt>
      <trkpt lat="40.46176" lon="-6.118141">
        <ele>932.32</ele>
        <time>2021-03-27T15:32:43Z</time>
      </trkpt>
      <trkpt lat="40.461766" lon="-6.118064">
        <ele>934.43</ele>
        <time>2021-03-27T15:32:44Z</time>
      </trkpt>
      <trkpt lat="40.461797" lon="-6.118019">
        <ele>936.83</ele>
        <time>2021-03-27T15:32:46Z</time>
      </trkpt>
      <trkpt lat="40.461829" lon="-6.11801">
        <ele>938.47</ele>
        <time>2021-03-27T15:32:48Z</time>
      </trkpt>
      <trkpt lat="40.461878" lon="-6.118053">
        <ele>939.92</ele>
        <time>2021-03-27T15:32:49Z</time>
      </trkpt>
      <trkpt lat="40.461915" lon="-6.118592">
        <ele>933.49</ele>
        <time>2021-03-27T15:32:51Z</time>
      </trkpt>
      <trkpt lat="40.46198" lon="-6.118792">
        <ele>933.69</ele>
        <time>2021-03-27T15:32:53Z</time>
      </trkpt>
      <trkpt lat="40.462048" lon="-6.118922">
        <ele>935.07</ele>
        <time>2021-03-27T15:32:54Z</time>
      </trkpt>
      <trkpt lat="40.462206" lon="-6.119145">
        <ele>939.56</ele>
        <time>2021-03-27T15:32:56Z</time>
      </trkpt>
      <trkpt lat="40.462335" lon="-6.119292">
        <ele>941.08</ele>
        <time>2021-03-27T15:32:58Z</time>
      </trkpt>
      <trkpt lat="40.46249" lon="-6.119417">
        <ele>943.49</ele>
        <time>2021-03-27T15:32:59Z</time>
      </trkpt>
      <trkpt lat="40.462793" lon="-6.119602">
        <ele>946.58</ele>
        <time>2021-03-27T15:33:01Z</time>
      </trkpt>
      <trkpt lat="40.462974" lon="-6.119662">
        <ele>947.12</ele>
        <time>2021-03-27T15:33:03Z</time>
      </trkpt>
      <trkpt lat="40.463182" lon="-6.119704">
        <ele>947.66</ele>
        <time>2021-03-27T15:33:04Z</time>
      </trkpt>
      <trkpt lat="40.464076" lon="-6.119653">
        <ele>964.09</ele>
        <time>2021-03-27T15:33:06Z</time>
      </trkpt>
      <trkpt lat="40.464267" lon="-6.119691">
        <ele>967.47</ele>
        <time>2021-03-27T15:33:08Z</time>
      </trkpt>
      <trkpt lat="40.464392" lon="-6.119798">
        <ele>969.15</ele>
        <time>2021-03-27T15:33:09Z</time>
      </trkpt>
      <trkpt lat="40.464702" lon="-6.120368">
        <ele>961.89</ele>
        <time>2021-03-27T15:33:11Z</time>
      </trkpt>
      <trkpt lat="40.464831" lon="-6.120545">
        <ele>962.64</ele>
        <time>2021-03-27T15:33:12Z</time>
      </trkpt>
      <trkpt lat="40.464918" lon="-6.120627">
        <ele>964.59</ele>
        <time>2021-03-27T15:33:14Z</time>
      </trkpt>
      <trkpt lat="40.465378" lon="-6.120944">
        <ele>968.19</ele>
        <time>2021-03-27T15:33:16Z</time>
      </trkpt>
      <trkpt lat="40.46557" lon="-6.121055">
        <ele>970.1</ele>
        <time>2021-03-27T15:33:17Z</time>
      </trkpt>
      <trkpt lat="40.465897" lon="-6.1212">
        <ele>979.05</ele>
        <time>2021-03-27T15:33:19Z</time>
      </trkpt>
      <trkpt lat="40.466139" lon="-6.121376">
        <ele>980.55</ele>
        <time>2021-03-27T15:33:21Z</time>
      </trkpt>
      <trkpt lat="40.466204" lon="-6.121362">
        <ele>983.7</ele>
        <time>2021-03-27T15:33:22Z</time>
      </trkpt>
      <trkpt lat="40.466227" lon="-6.121324">
        <ele>985.68</ele>
        <time>2021-03-27T15:33:24Z</time>
      </trkpt>
      <trkpt lat="40.46623" lon="-6.121251">
        <ele>987.68</ele>
        <time>2021-03-27T15:33:26Z</time>
      </trkpt>
      <trkpt lat="40.466185" lon="-6.12118">
        <ele>987.81</ele>
        <time>2021-03-27T15:33:27Z</time>
      </trkpt>
      <trkpt lat="40.46561" lon="-6.120821">
        <ele>982.16</ele>
        <time>2021-03-27T15:33:29Z</time>
      </trkpt>
      <trkpt lat="40.465432" lon="-6.120675">
        <ele>982.67</ele>
        <time>2021-03-27T15:33:31Z</time>
      </trkpt>
      <trkpt lat="40.465304" lon="-6.12053">
        <ele>985.78</ele>
        <time>2021-03-27T15:33:32Z</time>
      </trkpt>
      <trkpt lat="40.465211" lon="-6.120392">
        <ele>987.33</ele>
        <time>2021-03-27T15:33:34Z</time>
      </trkpt>
      <trkpt lat="40.465136" lon="-6.12024">
        <ele>988.8</ele>
        <time>2021-03-27T15:33:36Z</time>
      </trkpt>
      <trkpt lat="40.465056" lon="-6.120028">
        <ele>990.67</ele>
        <time>2021-03-27T15:33:37Z</time>
      </trkpt>
      <trkpt lat="40.464777" lon="-6.119067">
        <ele>1002.1</ele>
        <time>2021-03-27T15:33:39Z</time>
      </trkpt>
      <trkpt lat="40.46465" lon="-6.118901">
        <ele>1003.51</ele>
        <time>2021-03-27T15:33:41Z</time>
      </trkpt>
      <trkpt lat="40.46454" lon="-6.118807">
        <ele>1004.57</ele>
        <time>2021-03-27T15:33:42Z</time>
      </trkpt>
      <trkpt lat="40.464289" lon="-6.118705">
        <ele>1005.59</ele>
        <time>2021-03-27T15:33:44Z</time>
      </trkpt>
      <trkpt lat="40.463735" lon="-6.118631">
        <ele>1002.9</ele>
        <time>2021-03-27T15:33:46Z</time>
      </trkpt>
      <trkpt lat="40.463508" lon="-6.118572">
        <ele>1002.84</ele>
        <time>2021-03-27T15:33:47Z</time>
      </trkpt>
      <trkpt lat="40.463326" lon="-6.118489">
        <ele>1002.05</ele>
        <time>2021-03-27T15:33:49Z</time>
      </trkpt>
      <trkpt lat="40.463155" lon="-6.118376">
        <ele>1001.49</ele>
        <time>2021-03-27T15:33:51Z</time>
      </trkpt>
      <trkpt lat="40.462912" lon="-6.118132">
        <ele>997.3</ele>
        <time>2021-03-27T15:33:52Z</time>
      </trkpt>
      <trkpt lat="40.462895" lon="-6.118055">
        <ele>998.16</ele>
        <time>2021-03-27T15:33:54Z</time>
      </trkpt>
      <trkpt lat="40.462908" lon="-6.118001">
        <ele>1000.03</ele>
        <time>2021-03-27T15:33:56Z</time>
      </trkpt>
      <trkpt lat="40.462955" lon="-6.117964">
        <ele>1003.61</ele>
        <time>2021-03-27T15:33:57Z</time>
      </trkpt>
      <trkpt lat="40.463007" lon="-6.117979">
        <ele>1006.47</ele>
        <time>2021-03-27T15:33:59Z</time>
      </trkpt>
      <trkpt lat="40.463161" lon="-6.118169">
        <ele>1009.06</ele>
        <time>2021-03-27T15:34:01Z</time>
      </trkpt>
      <trkpt lat="40.463255" lon="-6.118242">
        <ele>1010.03</ele>
        <time>2021-03-27T15:34:02Z</time>
      </trkpt>
      <trkpt lat="40.463404" lon="-6.118319">
        <ele>1012.17</ele>
        <time>2021-03-27T15:34:04Z</time>
      </trkpt>
      <trkpt lat="40.463581" lon="-6.118364">
        <ele>1016.18</ele>
        <time>2021-03-27T15:34:06Z</time>
      </trkpt>
      <trkpt lat="40.463784" lon="-6.118376">
        <ele>1017.27</ele>
        <time>2021-03-27T15:34:07Z</time>
      </trkpt>
      <trkpt lat="40.463929" lon="-6.118361">
        <ele>1019.05</ele>
        <time>2021-03-27T15:34:09Z</time>
      </trkpt>
      <trkpt lat="40.464451" lon="-6.118225">
        <ele>1030.18</ele>
        <time>2021-03-27T15:34:11Z</time>
      </trkpt>
      <trkpt lat="40.464728" lon="-6.118222">
        <ele>1035.15</ele>
        <time>2021-03-27T15:34:12Z</time>
      </trkpt>
      <trkpt lat="40.464834" lon="-6.118254">
        <ele>1036.68</ele>
        <time>2021-03-27T15:34:14Z</time>
      </trkpt>
      <trkpt lat="40.465078" lon="-6.118419">
        <ele>1037.66</ele>
        <time>2021-03-27T15:34:15Z</time>
      </trkpt>
      <trkpt lat="40.465201" lon="-6.11854">
        <ele>1038.15</ele>
        <time>2021-03-27T15:34:17Z</time>
      </trkpt>
      <trkpt lat="40.465786" lon="-6.119647">
        <ele>1034.99</ele>
        <time>2021-03-27T15:34:19Z</time>
      </trkpt>
      <trkpt lat="40.465995" lon="-6.1199">
        <ele>1037.37</ele>
        <time>2021-03-27T15:34:20Z</time>
      </trkpt>
      <trkpt lat="40.466201" lon="-6.120039">
        <ele>1042.56</ele>
        <time>2021-03-27T15:34:22Z</time>
      </trkpt>
      <trkpt lat="40.467109" lon="-6.120428">
        <ele>1053.65</ele>
        <time>2021-03-27T15:34:24Z</time>
      </trkpt>
      <trkpt lat="40.467161" lon="-6.12043">
        <ele>1055.07</ele>
        <time>2021-03-27T15:34:25Z</time>
      </trkpt>
      <trkpt lat="40.467202" lon="-6.120394">
        <ele>1057.93</ele>
        <time>2021-03-27T15:34:27Z</time>
      </trkpt>
      <trkpt lat="40.467211" lon="-6.120357">
        <ele>1059.9</ele>
        <time>2021-03-27T15:34:29Z</time>
      </trkpt>
      <trkpt lat="40.467196" lon="-6.120299">
        <ele>1061.95</ele>
        <time>2021-03-27T15:34:30Z</time>
      </trkpt>
      <trkpt lat="40.467144" lon="-6.120243">
        <ele>1062.2</ele>
        <time>2021-03-27T15:34:32Z</time>
      </trkpt>
      <trkpt lat="40.466479" lon="-6.119855">
        <ele>1057.55</ele>
        <time>2021-03-27T15:34:34Z</time>
      </trkpt>
      <trkpt lat="40.466347" lon="-6.119758">
        <ele>1057.84</ele>
        <time>2021-03-27T15:34:35Z</time>
      </trkpt>
      <trkpt lat="40.466233" lon="-6.11963">
        <ele>1056.65</ele>
        <time>2021-03-27T15:34:37Z</time>
      </trkpt>
      <trkpt lat="40.466123" lon="-6.119449">
        <ele>1054.64</ele>
        <time>2021-03-27T15:34:39Z</time>
      </trkpt>
      <trkpt lat="40.465656" lon="-6.118132">
        <ele>1068.85</ele>
        <time>2021-03-27T15:34:40Z</time>
      </trkpt>
      <trkpt lat="40.465573" lon="-6.117972">
        <ele>1069.07</ele>
        <time>2021-03-27T15:34:42Z</time>
      </trkpt>
      <trkpt lat="40.465307" lon="-6.117582">
        <ele>1076.18</ele>
        <time>2021-03-27T15:34:44Z</time>
      </trkpt>
      <trkpt lat="40.465181" lon="-6.117433">
        <ele>1080.71</ele>
        <time>2021-03-27T15:34:45Z</time>
      </trkpt>
      <trkpt lat="40.465065" lon="-6.117343">
        <ele>1084.27</ele>
        <time>2021-03-27T15:34:47Z</time>
      </trkpt>
      <trkpt lat="40.464884" lon="-6.117266">
        <ele>1087.64</ele>
        <time>2021-03-27T15:34:49Z</time>
      </trkpt>
      <trkpt lat="40.464311" lon="-6.117206">
        <ele>1078.7</ele>
        <time>2021-03-27T15:34:50Z</time>
      </trkpt>
      <trkpt lat="40.464169" lon="-6.117166">
        <ele>1076.09</ele>
        <time>2021-03-27T15:34:52Z</time>
      </trkpt>
      <trkpt lat="40.464056" lon="-6.117099">
        <ele>1073.33</ele>
        <time>2021-03-27T15:34:54Z</time>
      </trkpt>
      <trkpt lat="40.463944" lon="-6.116966">
        <ele>1072.13</ele>
        <time>2021-03-27T15:34:55Z</time>
      </trkpt>
      <trkpt lat="40.463864" lon="-6.116783">
        <ele>1073.45</ele>
        <time>2021-03-27T15:34:57Z</time>
      </trkpt>
      <trkpt lat="40.463821" lon="-6.116627">
        <ele>1075.4</ele>
        <time>2021-03-27T15:34:59Z</time>
      </trkpt>
      <trkpt lat="40.463819" lon="-6.116573">
        <ele>1076.73</ele>
        <time>2021-03-27T15:35:00Z</time>
      </trkpt>
      <trkpt lat="40.463842" lon="-6.116529">
        <ele>1079.27</ele>
        <time>2021-03-27T15:35:02Z</time>
      </trkpt>
      <trkpt lat="40.463894" lon="-6.116517">
        <ele>1082.57</ele>
        <time>2021-03-27T15:35:04Z</time>
      </trkpt>
      <trkpt lat="40.463934" lon="-6.116557">
        <ele>1083.2</ele>
        <time>2021-03-27T15:35:05Z</time>
      </trkpt>
      <trkpt lat="40.46402" lon="-6.116816">
        <ele>1080.08</ele>
        <time>2021-03-27T15:35:07Z</time>
      </trkpt>
      <trkpt lat="40.464071" lon="-6.116886">
        <ele>1080.76</ele>
        <time>2021-03-27T15:35:09Z</time>
      </trkpt>
      <trkpt lat="40.464158" lon="-6.116934">
        <ele>1083.82</ele>
        <time>2021-03-27T15:35:10Z</time>
      </trkpt>
      <trkpt lat="40.464251" lon="-6.116942">
        <ele>1086.2</ele>
        <time>2021-03-27T15:35:12Z</time>
      </trkpt>
      <trkpt lat="40.464769" lon="-6.116892">
        <ele>1104.61</ele>
        <time>2021-03-27T15:35:14Z</time>
      </trkpt>
      <trkpt lat="40.465045" lon="-6.116894">
        <ele>1107.04</ele>
        <time>2021-03-27T15:35:15Z</time>
      </trkpt>
      <trkpt lat="40.465283" lon="-6.116965">
        <ele>1103.32</ele>
        <time>2021-03-27T15:35:17Z</time>
      </trkpt>
      <trkpt lat="40.465385" lon="-6.117019">
        <ele>1105.42</ele>
        <time>2021-03-27T15:35:18Z</time>
      </trkpt>
      <trkpt lat="40.465913" lon="-6.117467">
        <ele>1110.15</ele>
        <time>2021-03-27T15:35:20Z</time>
      </trkpt>
      <trkpt lat="40.466" lon="-6.117585">
        <ele>1112.03</ele>
        <time>2021-03-27T15:35:22Z</time>
      </trkpt>
      <trkpt lat="40.466704" lon="-6.118767">
        <ele>1111.15</ele>
        <time>2021-03-27T15:35:23Z</time>
      </trkpt>
      <trkpt lat="40.466799" lon="-6.118892">
        <ele>1110.02</ele>
        <time>2021-03-27T15:35:25Z</time>
      </trkpt>
      <trkpt lat="40.466879" lon="-6.118953">
        <ele>1110.72</ele>
        <time>2021-03-27T15:35:27Z</time>
      </trkpt>
      <trkpt lat="40.467721" lon="-6.119204">
        <ele>1125.45</ele>
        <time>2021-03-27T15:35:28Z</time>
      </trkpt>
      <trkpt lat="40.467785" lon="-6.119244">
        <ele>1126.72</ele>
        <time>2021-03-27T15:35:30Z</time>
      </trkpt>
      <trkpt lat="40.467839" lon="-6.119315">
        <ele>1128.1</ele>
        <time>2021-03-27T15:35:32Z</time>
      </trkpt>
      <trkpt lat="40.468063" lon="-6.119709">
        <ele>1130.56</ele>
        <time>2021-03-27T15:35:33Z</time>
      </trkpt>
      <trkpt lat="40.468133" lon="-6.119735">
        <ele>1132.46</ele>
        <time>2021-03-27T15:35:35Z</time>
      </trkpt>
      <trkpt lat="40.46817" lon="-6.119704">
        <ele>1134.56</ele>
        <time>2021-03-27T15:35:37Z</time>
      </trkpt>
      <trkpt lat="40.46818" lon="-6.119623">
        <ele>1136.95</ele>
        <time>2021-03-27T15:35:38Z</time>
      </trkpt>
      <trkpt lat="40.46795" lon="-6.119233">
        <ele>1136.17</ele>
        <time>2021-03-27T15:35:40Z</time>
      </trkpt>
      <trkpt lat="40.467844" lon="-6.119103">
        <ele>1134.39</ele>
        <time>2021-03-27T15:35:42Z</time>
      </trkpt>
      <trkpt lat="40.467738" lon="-6.119026">
        <ele>1132.72</ele>
        <time>2021-03-27T15:35:43Z</time>
      </trkpt>
      <trkpt lat="40.467146" lon="-6.118701">
        <ele>1136.58</ele>
        <time>2021-03-27T15:35:45Z</time>
      </trkpt>
      <trkpt lat="40.467062" lon="-6.118624">
        <ele>1136.8</ele>
        <time>2021-03-27T15:35:47Z</time>
      </trkpt>
      <trkpt lat="40.466962" lon="-6.11845">
        <ele>1138.08</ele>
        <time>2021-03-27T15:35:48Z</time>
      </trkpt>
      <trkpt lat="40.46668" lon="-6.117689">
        <ele>1143.15</ele>
        <time>2021-03-27T15:35:50Z</time>
      </trkpt>
      <trkpt lat="40.46638" lon="-6.117024">
        <ele>1149.32</ele>
        <time>2021-03-27T15:35:52Z</time>
      </trkpt>
      <trkpt lat="40.466088" lon="-6.116457">
        <ele>1153.21</ele>
        <time>2021-03-27T15:35:53Z</time>
      </trkpt>
      <trkpt lat="40.465818" lon="-6.116082">
        <ele>1156.98</ele>
        <time>2021-03-27T15:35:55Z</time>
      </trkpt>
      <trkpt lat="40.46568" lon="-6.115946">
        <ele>1160.69</ele>
        <time>2021-03-27T15:35:57Z</time>
      </trkpt>
      <trkpt lat="40.465543" lon="-6.115844">
        <ele>1163.18</ele>
        <time>2021-03-27T15:35:58Z</time>
      </trkpt>
      <trkpt lat="40.465059" lon="-6.115558">
        <ele>1163.99</ele>
        <time>2021-03-27T15:36:00Z</time>
      </trkpt>
      <trkpt lat="40.464917" lon="-6.115435">
        <ele>1163.09</ele>
        <time>2021-03-27T15:36:02Z</time>
      </trkpt>
      <trkpt lat="40.464822" lon="-6.115327">
        <ele>1162.42</ele>
        <time>2021-03-27T15:36:03Z</time>
      </trkpt>
      <trkpt lat="40.464597" lon="-6.115019">
        <ele>1160.67</ele>
        <time>2021-03-27T15:36:05Z</time>
      </trkpt>
      <trkpt lat="40.464212" lon="-6.114225">
        <ele>1164.78</ele>
        <time>2021-03-27T15:36:07Z</time>
      </trkpt>
      <trkpt lat="40.464184" lon="-6.114123">
        <ele>1166.19</ele>
        <time>2021-03-27T15:36:08Z</time>
      </trkpt>
      <trkpt lat="40.464187" lon="-6.114086">
        <ele>1167.97</ele>
        <time>2021-03-27T15:36:10Z</time>
      </trkpt>
      <trkpt lat="40.464218" lon="-6.114019">
        <ele>1172.95</ele>
        <time>2021-03-27T15:36:12Z</time>
      </trkpt>
      <trkpt lat="40.464281" lon="-6.114006">
        <ele>1177.89</ele>
        <time>2021-03-27T15:36:13Z</time>
      </trkpt>
      <trkpt lat="40.464344" lon="-6.114058">
        <ele>1180.38</ele>
        <time>2021-03-27T15:36:15Z</time>
      </trkpt>
      <trkpt lat="40.46448" lon="-6.114482">
        <ele>1171.84</ele>
        <time>2021-03-27T15:36:17Z</time>
      </trkpt>
      <trkpt lat="40.464535" lon="-6.114599">
        <ele>1170.96</ele>
        <time>2021-03-27T15:36:18Z</time>
      </trkpt>
      <trkpt lat="40.464667" lon="-6.114818">
        <ele>1171.29</ele>
        <time>2021-03-27T15:36:20Z</time>
      </trkpt>
      <trkpt lat="40.464773" lon="-6.114941">
        <ele>1172.94</ele>
        <time>2021-03-27T15:36:21Z</time>
      </trkpt>
      <trkpt lat="40.464919" lon="-6.115073">
        <ele>1176.06</ele>
        <time>2021-03-27T15:36:23Z</time>
      </trkpt>
      <trkpt lat="40.465019" lon="-6.11514">
        <ele>1178.82</ele>
        <time>2021-03-27T15:36:25Z</time>
      </trkpt>
      <trkpt lat="40.465432" lon="-6.11534">
        <ele>1184.85</ele>
        <time>2021-03-27T15:36:26Z</time>
      </trkpt>
      <trkpt lat="40.465844" lon="-6.115494">
        <ele>1187.86</ele>
        <time>2021-03-27T15:36:28Z</time>
      </trkpt>
      <trkpt lat="40.466062" lon="-6.115623">
        <ele>1191.48</ele>
        <time>2021-03-27T15:36:30Z</time>
      </trkpt>
      <trkpt lat="40.466248" lon="-6.115767">
        <ele>1191.09</ele>
        <time>2021-03-27T15:36:31Z</time>
      </trkpt>
      <trkpt lat="40.46677" lon="-6.116288">
        <ele>1196.66</ele>
        <time>2021-03-27T15:36:33Z</time>
      </trkpt>
      <trkpt lat="40.467172" lon="-6.116951">
        <ele>1195.82</ele>
        <time>2021-03-27T15:36:35Z</time>
      </trkpt>
      <trkpt lat="40.467311" lon="-6.117125">
        <ele>1196.4</ele>
        <time>2021-03-27T15:36:36Z</time>
      </trkpt>
      <trkpt lat="40.46757" lon="-6.117394">
        <ele>1201.91</ele>
        <time>2021-03-27T15:36:38Z</time>
      </trkpt>
      <trkpt lat="40.467788" lon="-6.117581">
        <ele>1204.89</ele>
        <time>2021-03-27T15:36:40Z</time>
      </trkpt>
      <trkpt lat="40.467927" lon="-6.117665">
        <ele>1205.94</ele>
        <time>2021-03-27T15:36:41Z</time>
      </trkpt>
      <trkpt lat="40.468565" lon="-6.117873">
        <ele>1221.65</ele>
        <time>2021-03-27T15:36:43Z</time>
      </trkpt>
      <trkpt lat="40.468656" lon="-6.11795">
        <ele>1222.23</ele>
        <time>2021-03-27T15:36:45Z</time>
      </trkpt>
      <trkpt lat="40.46887" lon="-6.118197">
        <ele>1218.69</ele>
        <time>2021-03-27T15:36:46Z</time>
      </trkpt>
      <trkpt lat="40.469312" lon="-6.118562">
        <ele>1225.21</ele>
        <time>2021-03-27T15:36:48Z</time>
      </trkpt>
      <trkpt lat="40.469788" lon="-6.119292">
        <ele>1230.5</ele>
        <time>2021-03-27T15:36:50Z</time>
      </trkpt>
      <trkpt lat="40.469898" lon="-6.119426">
        <ele>1231.46</ele>
        <time>2021-03-27T15:36:51Z</time>
      </trkpt>
      <trkpt lat="40.470061" lon="-6.119559">
        <ele>1233.2</ele>
        <time>2021-03-27T15:36:53Z</time>
      </trkpt>
      <trkpt lat="40.470301" lon="-6.119695">
        <ele>1234.54</ele>
        <time>2021-03-27T15:36:55Z</time>
      </trkpt>
      <trkpt lat="40.47058" lon="-6.119767">
        <ele>1240.8</ele>
        <time>2021-03-27T15:36:56Z</time>
      </trkpt>
      <trkpt lat="40.473391" lon="-6.119682">
        <ele>1249.82</ele>
        <time>2021-03-27T15:36:58Z</time>
      </trkpt>
      <trkpt lat="40.473713" lon="-6.119642">
        <ele>1248.52</ele>
        <time>2021-03-27T15:37:00Z</time>
      </trkpt>
      <trkpt lat="40.473861" lon="-6.119602">
        <ele>1247.5</ele>
        <time>2021-03-27T15:37:01Z</time>
      </trkpt>
      <trkpt lat="40.47415" lon="-6.119446">
        <ele>1244.93</ele>
        <time>2021-03-27T15:37:03Z</time>
      </trkpt>
      <trkpt lat="40.474635" lon="-6.118953">
        <ele>1235.24</ele>
        <time>2021-03-27T15:37:05Z</time>
      </trkpt>
      <trkpt lat="40.474815" lon="-6.118812">
        <ele>1230.74</ele>
        <time>2021-03-27T15:37:06Z</time>
      </trkpt>
      <trkpt lat="40.474926" lon="-6.118752">
        <ele>1228.34</ele>
        <time>2021-03-27T15:37:08Z</time>
      </trkpt>
      <trkpt lat="40.475095" lon="-6.118746">
        <ele>1227.87</ele>
        <time>2021-03-27T15:37:10Z</time>
      </trkpt>
      <trkpt lat="40.475666" lon="-6.11888">
        <ele>1229.16</ele>
        <time>2021-03-27T15:37:11Z</time>
      </trkpt>
      <trkpt lat="40.475902" lon="-6.118973">
        <ele>1227.98</ele>
        <time>2021-03-27T15:37:13Z</time>
      </trkpt>
      <trkpt lat="40.476132" lon="-6.119103">
        <ele>1226.63</ele>
        <time>2021-03-27T15:37:15Z</time>
      </trkpt>
      <trkpt lat="40.476321" lon="-6.119235">
        <ele>1227.03</ele>
        <time>2021-03-27T15:37:16Z</time>
      </trkpt>
      <trkpt lat="40.476614" lon="-6.119513">
        <ele>1227.14</ele>
        <time>2021-03-27T15:37:18Z</time>
      </trkpt>
      <trkpt lat="40.47675" lon="-6.11968">
        <ele>1224.34</ele>
        <time>2021-03-27T15:37:20Z</time>
      </trkpt>
      <trkpt lat="40.476862" lon="-6.119861">
        <ele>1221.87</ele>
        <time>2021-03-27T15:37:21Z</time>
      </trkpt>
      <trkpt lat="40.476941" lon="-6.120041">
        <ele>1220.23</ele>
        <time>2021-03-27T15:37:23Z</time>
      </trkpt>
      <trkpt lat="40.477212" lon="-6.120904">
        <ele>1221.57</ele>
        <time>2021-03-27T15:37:24Z</time>
      </trkpt>
      <trkpt lat="40.477361" lon="-6.121187">
        <ele>1221.81</ele>
        <time>2021-03-27T15:37:26Z</time>
      </trkpt>
      <trkpt lat="40.477773" lon="-6.121635">
        <ele>1217.55</ele>
        <time>2021-03-27T15:37:28Z</time>
      </trkpt>
      <trkpt lat="40.478285" lon="-6.12213">
        <ele>1213.74</ele>
        <time>2021-03-27T15:37:29Z</time>
      </trkpt>
      <trkpt lat="40.478817" lon="-6.122439">
        <ele>1208.0</ele>
        <time>2021-03-27T15:37:31Z</time>
      </trkpt>
      <trkpt lat="40.479125" lon="-6.122717">
        <ele>1202.72</ele>
        <time>2021-03-27T15:37:33Z</time>
      </trkpt>
      <trkpt lat="40.479594" lon="-6.123319">
        <ele>1199.35</ele>
        <time>2021-03-27T15:37:34Z</time>
      </trkpt>
      <trkpt lat="40.479865" lon="-6.123861">
        <ele>1200.3</ele>
        <time>2021-03-27T15:37:36Z</time>
      </trkpt>
      <trkpt lat="40.479937" lon="-6.123941">
        <ele>1199.86</ele>
        <time>2021-03-27T15:37:38Z</time>
      </trkpt>
      <trkpt lat="40.480007" lon="-6.123981">
        <ele>1198.92</ele>
        <time>2021-03-27T15:37:39Z</time>
      </trkpt>
      <trkpt lat="40.480081" lon="-6.123993">
        <ele>1198.49</ele>
        <time>2021-03-27T15:37:41Z</time>
      </trkpt>
      <trkpt lat="40.480728" lon="-6.123832">
        <ele>1192.32</ele>
        <time>2021-03-27T15:37:43Z</time>
      </trkpt>
      <trkpt lat="40.481244" lon="-6.123809">
        <ele>1189.41</ele>
        <time>2021-03-27T15:37:44Z</time>
      </trkpt>
      <trkpt lat="40.482183" lon="-6.123817">
        <ele>1183.76</ele>
        <time>2021-03-27T15:37:46Z</time>
      </trkpt>
      <trkpt lat="40.482302" lon="-6.123784">
        <ele>1182.46</ele>
        <time>2021-03-27T15:37:48Z</time>
      </trkpt>
      <trkpt lat="40.482435" lon="-6.12372">
        <ele>1180.32</ele>
        <time>2021-03-27T15:37:49Z</time>
      </trkpt>
      <trkpt lat="40.482633" lon="-6.123528">
        <ele>1176.75</ele>
        <time>2021-03-27T15:37:51Z</time>
      </trkpt>
      <trkpt lat="40.482713" lon="-6.123376">
        <ele>1175.18</ele>
        <time>2021-03-27T15:37:53Z</time>
      </trkpt>
      <trkpt lat="40.482766" lon="-6.123233">
        <ele>1174.18</ele>
        <time>2021-03-27T15:37:54Z</time>
      </trkpt>
      <trkpt lat="40.482794" lon="-6.123103">
        <ele>1173.94</ele>
        <time>2021-03-27T15:37:56Z</time>
      </trkpt>
      <trkpt lat="40.482805" lon="-6.122956">
        <ele>1173.29</ele>
        <time>2021-03-27T15:37:58Z</time>
      </trkpt>
      <trkpt lat="40.482779" lon="-6.12272">
        <ele>1172.01</ele>
        <time>2021-03-27T15:37:59Z</time>
      </trkpt>
      <trkpt lat="40.482743" lon="-6.122543">
        <ele>1172.29</ele>
        <time>2021-03-27T15:38:01Z</time>
      </trkpt>
      <trkpt lat="40.482525" lon="-6.121816">
        <ele>1170.46</ele>
        <time>2021-03-27T15:38:03Z</time>
      </trkpt>
      <trkpt lat="40.482448" lon="-6.121605">
        <ele>1168.61</ele>
        <time>2021-03-27T15:38:04Z</time>
      </trkpt>
      <trkpt lat="40.482353" lon="-6.121414">
        <ele>1167.84</ele>
        <time>2021-03-27T15:38:06Z</time>
      </trkpt>
      <trkpt lat="40.4822" lon="-6.121167">
        <ele>1166.64</ele>
        <time>2021-03-27T15:38:08Z</time>
      </trkpt>
      <trkpt lat="40.481617" lon="-6.12038">
        <ele>1164.8</ele>
        <time>2021-03-27T15:38:09Z</time>
      </trkpt>
      <trkpt lat="40.481456" lon="-6.120115">
        <ele>1162.35</ele>
        <time>2021-03-27T15:38:11Z</time>
      </trkpt>
      <trkpt lat="40.481321" lon="-6.119843">
        <ele>1159.78</ele>
        <time>2021-03-27T15:38:13Z</time>
      </trkpt>
      <trkpt lat="40.481053" lon="-6.119108">
        <ele>1156.92</ele>
        <time>2021-03-27T15:38:14Z</time>
      </trkpt>
      <trkpt lat="40.480866" lon="-6.118506">
        <ele>1154.94</ele>
        <time>2021-03-27T15:38:16Z</time>
      </trkpt>
      <trkpt lat="40.480781" lon="-6.118185">
        <ele>1152.68</ele>
        <time>2021-03-27T15:38:18Z</time>
      </trkpt>
      <trkpt lat="40.480727" lon="-6.117879">
        <ele>1151.94</ele>
        <time>2021-03-27T15:38:19Z</time>
      </trkpt>
      <trkpt lat="40.480693" lon="-6.117348">
        <ele>1148.94</ele>
        <time>2021-03-27T15:38:21Z</time>
      </trkpt>
      <trkpt lat="40.480743" lon="-6.116497">
        <ele>1146.35</ele>
        <time>2021-03-27T15:38:23Z</time>
      </trkpt>
      <trkpt lat="40.480784" lon="-6.11611">
        <ele>1141.93</ele>
        <time>2021-03-27T15:38:24Z</time>
      </trkpt>
      <trkpt lat="40.480872" lon="-6.115554">
        <ele>1136.83</ele>
        <time>2021-03-27T15:38:26Z</time>
      </trkpt>
      <trkpt lat="40.480979" lon="-6.115081">
        <ele>1134.88</ele>
        <time>2021-03-27T15:38:27Z</time>
      </trkpt>
      <trkpt lat="40.481129" lon="-6.114744">
        <ele>1134.43</ele>
        <time>2021-03-27T15:38:29Z</time>
      </trkpt>
      <trkpt lat="40.48126" lon="-6.114555">
        <ele>1134.41</ele>
        <time>2021-03-27T15:38:31Z</time>
      </trkpt>
      <trkpt lat="40.481789" lon="-6.113881">
        <ele>1131.72</ele>
        <time>2021-03-27T15:38:32Z</time>
      </trkpt>
      <trkpt lat="40.481908" lon="-6.113784">
        <ele>1130.81</ele>
        <time>2021-03-27T15:38:34Z</time>
      </trkpt>
      <trkpt lat="40.48202" lon="-6.113721">
        <ele>1130.35</ele>
        <time>2021-03-27T15:38:36Z</time>
      </trkpt>
      <trkpt lat="40.48223" lon="-6.113652">
        <ele>1129.93</ele>
        <time>2021-03-27T15:38:37Z</time>
      </trkpt>
      <trkpt lat="40.48241" lon="-6.113662">
        <ele>1131.03</ele>
        <time>2021-03-27T15:38:39Z</time>
      </trkpt>
      <trkpt lat="40.482522" lon="-6.113692">
        <ele>1132.06</ele>
        <time>2021-03-27T15:38:41Z</time>
      </trkpt>
      <trkpt lat="40.482658" lon="-6.113759">
        <ele>1131.96</ele>
        <time>2021-03-27T15:38:42Z</time>
      </trkpt>
      <trkpt lat="40.48311" lon="-6.114127">
        <ele>1126.97</ele>
        <time>2021-03-27T15:38:44Z</time>
      </trkpt>
      <trkpt lat="40.48332" lon="-6.114249">
        <ele>1125.1</ele>
        <time>2021-03-27T15:38:46Z</time>
      </trkpt>
      <trkpt lat="40.483398" lon="-6.114267">
        <ele>1124.86</ele>
        <time>2021-03-27T15:38:47Z</time>
      </trkpt>
      <trkpt lat="40.483488" lon="-6.114262">
        <ele>1124.32</ele>
        <time>2021-03-27T15:38:49Z</time>
      </trkpt>
      <trkpt lat="40.483589" lon="-6.114219">
        <ele>1122.64</ele>
        <time>2021-03-27T15:38:51Z</time>
      </trkpt>
      <trkpt lat="40.483975" lon="-6.113906">
        <ele>1117.97</ele>
        <time>2021-03-27T15:38:52Z</time>
      </trkpt>
      <trkpt lat="40.48409" lon="-6.113854">
        <ele>1117.98</ele>
        <time>2021-03-27T15:38:54Z</time>
      </trkpt>
      <trkpt lat="40.484239" lon="-6.11382">
        <ele>1118.07</ele>
        <time>2021-03-27T15:38:56Z</time>
      </trkpt>
      <trkpt lat="40.484902" lon="-6.113767">
        <ele>1116.39</ele>
        <time>2021-03-27T15:38:57Z</time>
      </trkpt>
      <trkpt lat="40.485197" lon="-6.113791">
        <ele>1116.62</ele>
        <time>2021-03-27T15:38:59Z</time>
      </trkpt>
      <trkpt lat="40.48622" lon="-6.114145">
        <ele>1109.06</ele>
        <time>2021-03-27T15:39:01Z</time>
      </trkpt>
      <trkpt lat="40.486485" lon="-6.114287">
        <ele>1105.67</ele>
        <time>2021-03-27T15:39:02Z</time>
      </trkpt>
      <trkpt lat="40.486639" lon="-6.114403">
        <ele>1103.13</ele>
        <time>2021-03-27T15:39:04Z</time>
      </trkpt>
      <trkpt lat="40.487806" lon="-6.115466">
        <ele>1092.94</ele>
        <time>2021-03-27T15:39:06Z</time>
      </trkpt>
      <trkpt lat="40.487895" lon="-6.115517">
        <ele>1090.04</ele>
        <time>2021-03-27T15:39:07Z</time>
      </trkpt>
      <trkpt lat="40.488068" lon="-6.115539">
        <ele>1082.82</ele>
        <time>2021-03-27T15:39:09Z</time>
      </trkpt>
      <trkpt lat="40.488164" lon="-6.11551">
        <ele>1081.44</ele>
        <time>2021-03-27T15:39:11Z</time>
      </trkpt>
      <trkpt lat="40.488289" lon="-6.115402">
        <ele>1079.63</ele>
        <time>2021-03-27T15:39:12Z</time>
      </trkpt>
      <trkpt lat="40.489715" lon="-6.113632">
        <ele>1066.13</ele>
        <time>2021-03-27T15:39:14Z</time>
      </trkpt>
      <trkpt lat="40.489764" lon="-6.113523">
        <ele>1064.44</ele>
        <time>2021-03-27T15:39:16Z</time>
      </trkpt>
      <trkpt lat="40.489812" lon="-6.113334">
        <ele>1061.71</ele>
        <time>2021-03-27T15:39:17Z</time>
      </trkpt>
      <trkpt lat="40.489806" lon="-6.113086">
        <ele>1059.74</ele>
        <time>2021-03-27T15:39:19Z</time>
      </trkpt>
      <trkpt lat="40.48963" lon="-6.112326">
        <ele>1057.87</ele>
        <time>2021-03-27T15:39:21Z</time>
      </trkpt>
      <trkpt lat="40.489618" lon="-6.11217">
        <ele>1057.05</ele>
        <time>2021-03-27T15:39:22Z</time>
      </trkpt>
      <trkpt lat="40.48964" lon="-6.112061">
        <ele>1056.71</ele>
        <time>2021-03-27T15:39:24Z</time>
      </trkpt>
      <trkpt lat="40.489734" lon="-6.111906">
        <ele>1056.09</ele>
        <time>2021-03-27T15:39:26Z</time>
      </trkpt>
      <trkpt lat="40.489872" lon="-6.111762">
        <ele>1056.12</ele>
        <time>2021-03-27T15:39:27Z</time>
      </trkpt>
      <trkpt lat="40.489945" lon="-6.111735">
        <ele>1055.95</ele>
        <time>2021-03-27T15:39:29Z</time>
      </trkpt>
      <trkpt lat="40.490056" lon="-6.111725">
        <ele>1055.43</ele>
        <time>2021-03-27T15:39:30Z</time>
      </trkpt>
      <trkpt lat="40.49079" lon="-6.111906">
        <ele>1044.66</ele>
        <time>2021-03-27T15:39:32Z</time>
      </trkpt>
      <trkpt lat="40.491308" lon="-6.112151">
        <ele>1042.78</ele>
        <time>2021-03-27T15:39:34Z</time>
      </trkpt>
      <trkpt lat="40.491405" lon="-6.112167">
        <ele>1042.59</ele>
        <time>2021-03-27T15:39:35Z</time>
      </trkpt>
      <trkpt lat="40.49157" lon="-6.112139">
        <ele>1042.21</ele>
        <time>2021-03-27T15:39:37Z</time>
      </trkpt>
      <trkpt lat="40.495244" lon="-6.110618">
        <ele>1044.25</ele>
        <time>2021-03-27T15:39:39Z</time>
      </trkpt>
      <trkpt lat="40.495528" lon="-6.110514">
        <ele>1042.95</ele>
        <time>2021-03-27T15:39:40Z</time>
      </trkpt>
      <trkpt lat="40.495837" lon="-6.110445">
        <ele>1041.22</ele>
        <time>2021-03-27T15:39:42Z</time>
      </trkpt>
      <trkpt lat="40.495966" lon="-6.110457">
        <ele>1041.94</ele>
        <time>2021-03-27T15:39:44Z</time>
      </trkpt>
      <trkpt lat="40.496218" lon="-6.110548">
        <ele>1042.61</ele>
        <time>2021-03-27T15:39:45Z</time>
      </trkpt>
      <trkpt lat="40.496423" lon="-6.110678">
        <ele>1041.75</ele>
        <time>2021-03-27T15:39:47Z</time>
      </trkpt>
      <trkpt lat="40.497601" lon="-6.111862">
        <ele>1027.97</ele>
        <time>2021-03-27T15:39:49Z</time>
      </trkpt>
      <trkpt lat="40.497736" lon="-6.111975">
        <ele>1025.06</ele>
        <time>2021-03-27T15:39:50Z</time>
      </trkpt>
      <trkpt lat="40.497978" lon="-6.112097">
        <ele>1022.23</ele>
        <time>2021-03-27T15:39:52Z</time>
      </trkpt>
      <trkpt lat="40.498162" lon="-6.112133">
        <ele>1023.47</ele>
        <time>2021-03-27T15:39:54Z</time>
      </trkpt>
      <trkpt lat="40.498697" lon="-6.112133">
        <ele>1028.78</ele>
        <time>2021-03-27T15:39:55Z</time>
      </trkpt>
      <trkpt lat="40.498989" lon="-6.112188">
        <ele>1030.36</ele>
        <time>2021-03-27T15:39:57Z</time>
      </trkpt>
      <trkpt lat="40.499095" lon="-6.112241">
        <ele>1031.88</ele>
        <time>2021-03-27T15:39:59Z</time>
      </trkpt>
      <trkpt lat="40.49921" lon="-6.112327">
        <ele>1032.09</ele>
        <time>2021-03-27T15:40:00Z</time>
      </trkpt>
      <trkpt lat="40.499332" lon="-6.112454">
        <ele>1030.74</ele>
        <time>2021-03-27T15:40:02Z</time>
      </trkpt>
      <trkpt lat="40.499487" lon="-6.112656">
        <ele>1030.02</ele>
        <time>2021-03-27T15:40:04Z</time>
      </trkpt>
      <trkpt lat="40.499786" lon="-6.113089">
        <ele>1028.78</ele>
        <time>2021-03-27T15:40:05Z</time>
      </trkpt>
      <trkpt lat="40.500303" lon="-6.11393">
        <ele>1029.19</ele>
        <time>2021-03-27T15:40:07Z</time>
      </trkpt>
      <trkpt lat="40.500473" lon="-6.114244">
        <ele>1029.96</ele>
        <time>2021-03-27T15:40:09Z</time>
      </trkpt>
      <trkpt lat="40.500852" lon="-6.115023">
        <ele>1035.03</ele>
        <time>2021-03-27T15:40:10Z</time>
      </trkpt>
      <trkpt lat="40.501309" lon="-6.116052">
        <ele>1036.36</ele>
        <time>2021-03-27T15:40:12Z</time>
      </trkpt>
      <trkpt lat="40.501415" lon="-6.11623">
        <ele>1036.09</ele>
        <time>2021-03-27T15:40:14Z</time>
      </trkpt>
      <trkpt lat="40.501736" lon="-6.116635">
        <ele>1033.83</ele>
        <time>2021-03-27T15:40:15Z</time>
      </trkpt>
      <trkpt lat="40.501875" lon="-6.116776">
        <ele>1033.47</ele>
        <time>2021-03-27T15:40:17Z</time>
      </trkpt>
      <trkpt lat="40.502278" lon="-6.117019">
        <ele>1036.03</ele>
        <time>2021-03-27T15:40:19Z</time>
      </trkpt>
      <trkpt lat="40.502904" lon="-6.117344">
        <ele>1037.33</ele>
        <time>2021-03-27T15:40:20Z</time>
      </trkpt>
      <trkpt lat="40.503342" lon="-6.117487">
        <ele>1039.01</ele>
        <time>2021-03-27T15:40:22Z</time>
      </trkpt>
      <trkpt lat="40.504114" lon="-6.117665">
        <ele>1043.3</ele>
        <time>2021-03-27T15:40:24Z</time>
      </trkpt>
      <trkpt lat="40.50461" lon="-6.11786">
        <ele>1043.99</ele>
        <time>2021-03-27T15:40:25Z</time>
      </trkpt>
      <trkpt lat="40.504943" lon="-6.11802">
        <ele>1043.95</ele>
        <time>2021-03-27T15:40:27Z</time>
      </trkpt>
      <trkpt lat="40.50563" lon="-6.118391">
        <ele>1040.3</ele>
        <time>2021-03-27T15:40:29Z</time>
      </trkpt>
      <trkpt lat="40.505876" lon="-6.118544">
        <ele>1039.69</ele>
        <time>2021-03-27T15:40:30Z</time>
      </trkpt>
      <trkpt lat="40.505994" lon="-6.118639">
        <ele>1038.89</ele>
        <time>2021-03-27T15:40:32Z</time>
      </trkpt>
      <trkpt lat="40.50624" lon="-6.118911">
        <ele>1037.11</ele>
        <time>2021-03-27T15:40:34Z</time>
      </trkpt>
      <trkpt lat="40.507251" lon="-6.120349">
        <ele>1032.63</ele>
        <time>2021-03-27T15:40:35Z</time>
      </trkpt>
      <trkpt lat="40.507406" lon="-6.120601">
        <ele>1029.86</ele>
        <time>2021-03-27T15:40:37Z</time>
      </trkpt>
      <trkpt lat="40.507544" lon="-6.120868">
        <ele>1028.6</ele>
        <time>2021-03-27T15:40:38Z</time>
      </trkpt>
      <trkpt lat="40.507997" lon="-6.122154">
        <ele>1029.28</ele>
        <time>2021-03-27T15:40:40Z</time>
      </trkpt>
      <trkpt lat="40.508155" lon="-6.122419">
        <ele>1030.03</ele>
        <time>2021-03-27T15:40:42Z</time>
      </trkpt>
      <trkpt lat="40.508316" lon="-6.122597">
        <ele>1029.13</ele>
        <time>2021-03-27T15:40:43Z</time>
      </trkpt>
      <trkpt lat="40.508897" lon="-6.12309">
        <ele>1027.34</ele>
        <time>2021-03-27T15:40:45Z</time>
      </trkpt>
      <trkpt lat="40.509152" lon="-6.123233">
        <ele>1025.42</ele>
        <time>2021-03-27T15:40:47Z</time>
      </trkpt>
      <trkpt lat="40.509518" lon="-6.123393">
        <ele>1023.38</ele>
        <time>2021-03-27T15:40:48Z</time>
      </trkpt>
      <trkpt lat="40.509601" lon="-6.123455">
        <ele>1023.33</ele>
        <time>2021-03-27T15:40:50Z</time>
      </trkpt>
      <trkpt lat="40.509811" lon="-6.123667">
        <ele>1023.59</ele>
        <time>2021-03-27T15:40:52Z</time>
      </trkpt>
      <trkpt lat="40.510164" lon="-6.124151">
        <ele>1021.52</ele>
        <time>2021-03-27T15:40:53Z</time>
      </trkpt>
      <trkpt lat="40.510249" lon="-6.124335">
        <ele>1020.62</ele>
        <time>2021-03-27T15:40:55Z</time>
      </trkpt>
      <trkpt lat="40.510288" lon="-6.124547">
        <ele>1020.25</ele>
        <time>2021-03-27T15:40:57Z</time>
      </trkpt>
      <trkpt lat="40.510289" lon="-6.124794">
        <ele>1021.09</ele>
        <time>2021-03-27T15:40:58Z</time>
      </trkpt>
      <trkpt lat="40.510118" lon="-6.125651">
        <ele>1022.17</ele>
        <time>2021-03-27T15:41:00Z</time>
      </trkpt>
      <trkpt lat="40.510071" lon="-6.126052">
        <ele>1021.52</ele>
        <time>2021-03-27T15:41:02Z</time>
      </trkpt>
      <trkpt lat="40.510089" lon="-6.126294">
        <ele>1019.52</ele>
        <time>2021-03-27T15:41:03Z</time>
      </trkpt>
      <trkpt lat="40.510159" lon="-6.126618">
        <ele>1017.36</ele>
        <time>2021-03-27T15:41:05Z</time>
      </trkpt>
      <trkpt lat="40.510268" lon="-6.126957">
        <ele>1015.22</ele>
        <time>2021-03-27T15:41:07Z</time>
      </trkpt>
      <trkpt lat="40.51052" lon="-6.127537">
        <ele>1013.57</ele>
        <time>2021-03-27T15:41:08Z</time>
      </trkpt>
      <trkpt lat="40.510667" lon="-6.12778">
        <ele>1013.02</ele>
        <time>2021-03-27T15:41:10Z</time>
      </trkpt>
      <trkpt lat="40.510805" lon="-6.127961">
        <ele>1010.67</ele>
        <time>2021-03-27T15:41:12Z</time>
      </trkpt>
      <trkpt lat="40.510984" lon="-6.128151">
        <ele>1008.04</ele>
        <time>2021-03-27T15:41:13Z</time>
      </trkpt>
      <trkpt lat="40.511699" lon="-6.128654">
        <ele>1003.87</ele>
        <time>2021-03-27T15:41:15Z</time>
      </trkpt>
      <trkpt lat="40.511795" lon="-6.128749">
        <ele>1002.51</ele>
        <time>2021-03-27T15:41:17Z</time>
      </trkpt>
      <trkpt lat="40.511942" lon="-6.129017">
        <ele>998.61</ele>
        <time>2021-03-27T15:41:18Z</time>
      </trkpt>
      <trkpt lat="40.511993" lon="-6.129174">
        <ele>996.61</ele>
        <time>2021-03-27T15:41:20Z</time>
      </trkpt>
      <trkpt lat="40.512153" lon="-6.12986">
        <ele>991.61</ele>
        <time>2021-03-27T15:41:22Z</time>
      </trkpt>
      <trkpt lat="40.512224" lon="-6.130018">
        <ele>989.04</ele>
        <time>2021-03-27T15:41:23Z</time>
      </trkpt>
      <trkpt lat="40.512314" lon="-6.130136">
        <ele>988.82</ele>
        <time>2021-03-27T15:41:25Z</time>
      </trkpt>
      <trkpt lat="40.512431" lon="-6.130242">
        <ele>988.92</ele>
        <time>2021-03-27T15:41:27Z</time>
      </trkpt>
      <trkpt lat="40.512619" lon="-6.130382">
        <ele>990.46</ele>
        <time>2021-03-27T15:41:28Z</time>
      </trkpt>
      <trkpt lat="40.514013" lon="-6.13103">
        <ele>998.01</ele>
        <time>2021-03-27T15:41:30Z</time>
      </trkpt>
      <trkpt lat="40.514795" lon="-6.131423">
        <ele>1005.29</ele>
        <time>2021-03-27T15:41:32Z</time>
      </trkpt>
      <trkpt lat="40.51481" lon="-6.131366">
        <ele>1005.32</ele>
        <time>2021-03-27T15:41:35Z</time>
      </trkpt>
      <trkpt lat="40.5148" lon="-6.131296">
        <ele>1005.31</ele>
        <time>2021-03-27T15:41:38Z</time>
      </trkpt>
      <trkpt lat="40.514606" lon="-6.131019">
        <ele>1003.1</ele>
        <time>2021-03-27T15:41:40Z</time>
      </trkpt>
      <trkpt lat="40.514554" lon="-6.130886">
        <ele>1003.73</ele>
        <time>2021-03-27T15:41:43Z</time>
      </trkpt>
      <trkpt lat="40.514427" lon="-6.129927">
        <ele>1009.98</ele>
        <time>2021-03-27T15:41:46Z</time>
      </trkpt>
      <trkpt lat="40.514373" lon="-6.129037">
        <ele>1014.86</ele>
        <time>2021-03-27T15:41:49Z</time>
      </trkpt>
      <trkpt lat="40.514382" lon="-6.128877">
        <ele>1014.63</ele>
        <time>2021-03-27T15:41:52Z</time>
      </trkpt>
      <trkpt lat="40.514434" lon="-6.128698">
        <ele>1015.14</ele>
        <time>2021-03-27T15:41:55Z</time>
      </trkpt>
      <trkpt lat="40.51459" lon="-6.128341">
        <ele>1017.62</ele>
        <time>2021-03-27T15:41:58Z</time>
      </trkpt>
      <trkpt lat="40.514649" lon="-6.12817">
        <ele>1018.68</ele>
        <time>2021-03-27T15:42:01Z</time>
      </trkpt>
      <trkpt lat="40.514719" lon="-6.126845">
        <ele>1022.29</ele>
        <time>2021-03-27T15:42:04Z</time>
      </trkpt>
      <trkpt lat="40.51476" lon="-6.126734">
        <ele>1023.37</ele>
        <time>2021-03-27T15:42:07Z</time>
      </trkpt>
      <trkpt lat="40.515185" lon="-6.126074">
        <ele>1031.28</ele>
        <time>2021-03-27T15:42:10Z</time>
      </trkpt>
      <trkpt lat="40.51524" lon="-6.125937">
        <ele>1032.23</ele>
        <time>2021-03-27T15:42:13Z</time>
      </trkpt>
      <trkpt lat="40.515269" lon="-6.125825">
        <ele>1032.77</ele>
        <time>2021-03-27T15:42:16Z</time>
      </trkpt>
      <trkpt lat="40.515344" lon="-6.124833">
        <ele>1033.25</ele>
        <time>2021-03-27T15:42:19Z</time>
      </trkpt>
      <trkpt lat="40.515382" lon="-6.124679">
        <ele>1034.34</ele>
        <time>2021-03-27T15:42:22Z</time>
      </trkpt>
      <trkpt lat="40.515469" lon="-6.124528">
        <ele>1035.06</ele>
        <time>2021-03-27T15:42:24Z</time>
      </trkpt>
      <trkpt lat="40.516137" lon="-6.123597">
        <ele>1041.32</ele>
        <time>2021-03-27T15:42:27Z</time>
      </trkpt>
      <trkpt lat="40.516199" lon="-6.123547">
        <ele>1042.04</ele>
        <time>2021-03-27T15:42:30Z</time>
      </trkpt>
      <trkpt lat="40.516291" lon="-6.123548">
        <ele>1043.37</ele>
        <time>2021-03-27T15:42:33Z</time>
      </trkpt>
      <trkpt lat="40.516361" lon="-6.123635">
        <ele>1044.62</ele>
        <time>2021-03-27T15:42:36Z</time>
      </trkpt>
      <trkpt lat="40.516652" lon="-6.124548">
        <ele>1047.84</ele>
        <time>2021-03-27T15:42:39Z</time>
      </trkpt>
      <trkpt lat="40.516724" lon="-6.124643">
        <ele>1048.62</ele>
        <time>2021-03-27T15:42:42Z</time>
      </trkpt>
      <trkpt lat="40.516812" lon="-6.124701">
        <ele>1049.57</ele>
        <time>2021-03-27T15:42:45Z</time>
      </trkpt>
      <trkpt lat="40.517442" lon="-6.124921">
        <ele>1055.94</ele>
        <time>2021-03-27T15:42:48Z</time>
      </trkpt>
      <trkpt lat="40.517612" lon="-6.12492">
        <ele>1056.4</ele>
        <time>2021-03-27T15:42:51Z</time>
      </trkpt>
      <trkpt lat="40.51776" lon="-6.12485">
        <ele>1056.94</ele>
        <time>2021-03-27T15:42:54Z</time>
      </trkpt>
      <trkpt lat="40.523197" lon="-6.11967">
        <ele>1066.04</ele>
        <time>2021-03-27T15:42:57Z</time>
      </trkpt>
      <trkpt lat="40.523389" lon="-6.119529">
        <ele>1064.78</ele>
        <time>2021-03-27T15:43:00Z</time>
      </trkpt>
      <trkpt lat="40.523788" lon="-6.119423">
        <ele>1064.15</ele>
        <time>2021-03-27T15:43:03Z</time>
      </trkpt>
      <trkpt lat="40.523913" lon="-6.119331">
        <ele>1064.34</ele>
        <time>2021-03-27T15:43:06Z</time>
      </trkpt>
      <trkpt lat="40.524413" lon="-6.125484">
        <ele>1063.11</ele>
        <time>2021-03-27T15:43:13Z</time>
      </trkpt>
      <trkpt lat="40.524886" lon="-6.13073">
        <ele>1076.21</ele>
        <time>2021-03-27T15:43:21Z</time>
      </trkpt>
      <trkpt lat="40.525063" lon="-6.133328">
        <ele>1079.77</ele>
        <time>2021-03-27T15:43:29Z</time>
      </trkpt>
      <trkpt lat="40.525059" lon="-6.133801">
        <ele>1082.15</ele>
        <time>2021-03-27T15:43:37Z</time>
      </trkpt>
      <trkpt lat="40.524937" lon="-6.134498">
        <ele>1083.03</ele>
        <time>2021-03-27T15:43:45Z</time>
      </trkpt>
      <trkpt lat="40.524787" lon="-6.134896">
        <ele>1082.14</ele>
        <time>2021-03-27T15:43:53Z</time>
      </trkpt>
      <trkpt lat="40.524417" lon="-6.135777">
        <ele>1085.8</ele>
        <time>2021-03-27T15:44:01Z</time>
      </trkpt>
      <trkpt lat="40.524321" lon="-6.136051">
        <ele>1086.0</ele>
        <time>2021-03-27T15:44:09Z</time>
      </trkpt>
      <trkpt lat="40.524221" lon="-6.136537">
        <ele>1084.09</ele>
        <time>2021-03-27T15:44:17Z</time>
      </trkpt>
      <trkpt lat="40.524202" lon="-6.136819">
        <ele>1084.0</ele>
        <time>2021-03-27T15:44:24Z</time>
      </trkpt>
      <trkpt lat="40.524267" lon="-6.136921">
        <ele>1084.0</ele>
        <time>2021-03-27T15:44:26Z</time>
      </trkpt>
      <trkpt lat="40.524376" lon="-6.137002">
        <ele>1084.0</ele>
        <time>2021-03-27T15:44:27Z</time>
      </trkpt>
      <trkpt lat="40.524607" lon="-6.136902">
        <ele>1083.41</ele>
        <time>2021-03-27T15:44:30Z</time>
      </trkpt>
      <trkpt lat="40.524917" lon="-6.136808">
        <ele>1082.66</ele>
        <time>2021-03-27T15:44:34Z</time>
      </trkpt>
      <trkpt lat="40.525217" lon="-6.13683">
        <ele>1082.45</ele>
        <time>2021-03-27T15:44:38Z</time>
      </trkpt>
      <trkpt lat="40.525394" lon="-6.136897">
        <ele>1082.17</ele>
        <time>2021-03-27T15:44:42Z</time>
      </trkpt>
      <trkpt lat="40.525678" lon="-6.137107">
        <ele>1080.97</ele>
        <time>2021-03-27T15:44:45Z</time>
      </trkpt>
      <trkpt lat="40.525839" lon="-6.137296">
        <ele>1079.98</ele>
        <time>2021-03-27T15:44:49Z</time>
      </trkpt>
      <trkpt lat="40.526167" lon="-6.137752">
        <ele>1080.13</ele>
        <time>2021-03-27T15:44:53Z</time>
      </trkpt>
      <trkpt lat="40.526433" lon="-6.138082">
        <ele>1080.98</ele>
        <time>2021-03-27T15:44:56Z</time>
      </trkpt>
      <trkpt lat="40.526669" lon="-6.138284">
        <ele>1080.18</ele>
        <time>2021-03-27T15:45:00Z</time>
      </trkpt>
      <trkpt lat="40.526772" lon="-6.138343">
        <ele>1080.0</ele>
        <time>2021-03-27T15:45:04Z</time>
      </trkpt>
      <trkpt lat="40.526717" lon="-6.138627">
        <ele>1080.04</ele>
        <time>2021-03-27T15:45:06Z</time>
      </trkpt>
      <trkpt lat="40.529208" lon="-6.144125">
        <ele>1076.55</ele>
        <time>2021-03-27T15:45:09Z</time>
      </trkpt>
      <trkpt lat="40.529465" lon="-6.144549">
        <ele>1075.58</ele>
        <time>2021-03-27T15:45:12Z</time>
      </trkpt>
      <trkpt lat="40.530241" lon="-6.145558">
        <ele>1078.02</ele>
        <time>2021-03-27T15:45:15Z</time>
      </trkpt>
      <trkpt lat="40.530706" lon="-6.145788">
        <ele>1078.76</ele>
        <time>2021-03-27T15:45:18Z</time>
      </trkpt>
      <trkpt lat="40.530787" lon="-6.145884">
        <ele>1079.39</ele>
        <time>2021-03-27T15:45:22Z</time>
      </trkpt>
      <trkpt lat="40.531094" lon="-6.146414">
        <ele>1080.03</ele>
        <time>2021-03-27T15:45:25Z</time>
      </trkpt>
      <trkpt lat="40.531151" lon="-6.146554">
        <ele>1079.2</ele>
        <time>2021-03-27T15:45:28Z</time>
      </trkpt>
      <trkpt lat="40.531193" lon="-6.146742">
        <ele>1078.7</ele>
        <time>2021-03-27T15:45:31Z</time>
      </trkpt>
      <trkpt lat="40.531208" lon="-6.147162">
        <ele>1078.65</ele>
        <time>2021-03-27T15:45:34Z</time>
      </trkpt>
      <trkpt lat="40.531228" lon="-6.147291">
        <ele>1078.58</ele>
        <time>2021-03-27T15:45:37Z</time>
      </trkpt>
      <trkpt lat="40.531277" lon="-6.147426">
        <ele>1078.4</ele>
        <time>2021-03-27T15:45:40Z</time>
      </trkpt>
      <trkpt lat="40.531358" lon="-6.147562">
        <ele>1077.89</ele>
        <time>2021-03-27T15:45:43Z</time>
      </trkpt>
      <trkpt lat="40.531696" lon="-6.147932">
        <ele>1072.59</ele>
        <time>2021-03-27T15:45:46Z</time>
      </trkpt>
      <trkpt lat="40.531801" lon="-6.148004">
        <ele>1071.22</ele>
        <time>2021-03-27T15:45:49Z</time>
      </trkpt>
      <trkpt lat="40.531902" lon="-6.148045">
        <ele>1070.31</ele>
        <time>2021-03-27T15:45:52Z</time>
      </trkpt>
      <trkpt lat="40.532032" lon="-6.148064">
        <ele>1069.72</ele>
        <time>2021-03-27T15:45:55Z</time>
      </trkpt>
      <trkpt lat="40.532868" lon="-6.148026">
        <ele>1066.02</ele>
        <time>2021-03-27T15:45:59Z</time>
      </trkpt>
      <trkpt lat="40.532963" lon="-6.148037">
        <ele>1065.0</ele>
        <time>2021-03-27T15:46:02Z</time>
      </trkpt>
      <trkpt lat="40.533125" lon="-6.148129">
        <ele>1064.03</ele>
        <time>2021-03-27T15:46:05Z</time>
      </trkpt>
      <trkpt lat="40.533225" lon="-6.148257">
        <ele>1064.23</ele>
        <time>2021-03-27T15:46:08Z</time>
      </trkpt>
      <trkpt lat="40.533612" lon="-6.148961">
        <ele>1063.26</ele>
        <time>2021-03-27T15:46:11Z</time>
      </trkpt>
      <trkpt lat="40.53432" lon="-6.149776">
        <ele>1064.03</ele>
        <time>2021-03-27T15:46:14Z</time>
      </trkpt>
      <trkpt lat="40.534442" lon="-6.149834">
        <ele>1064.8</ele>
        <time>2021-03-27T15:46:17Z</time>
      </trkpt>
      <trkpt lat="40.534337" lon="-6.149896">
        <ele>1065.1</ele>
        <time>2021-03-27T15:46:19Z</time>
      </trkpt>
      <trkpt lat="40.534207" lon="-6.14993">
        <ele>1065.28</ele>
        <time>2021-03-27T15:46:20Z</time>
      </trkpt>
      <trkpt lat="40.53366" lon="-6.150018">
        <ele>1067.92</ele>
        <time>2021-03-27T15:46:22Z</time>
      </trkpt>
      <trkpt lat="40.533594" lon="-6.150045">
        <ele>1068.71</ele>
        <time>2021-03-27T15:46:23Z</time>
      </trkpt>
      <trkpt lat="40.533241" lon="-6.150285">
        <ele>1072.78</ele>
        <time>2021-03-27T15:46:25Z</time>
      </trkpt>
      <trkpt lat="40.53286" lon="-6.15059">
        <ele>1075.76</ele>
        <time>2021-03-27T15:46:26Z</time>
      </trkpt>
      <trkpt lat="40.53255" lon="-6.15089">
        <ele>1079.82</ele>
        <time>2021-03-27T15:46:28Z</time>
      </trkpt>
      <trkpt lat="40.532493" lon="-6.150917">
        <ele>1080.27</ele>
        <time>2021-03-27T15:46:29Z</time>
      </trkpt>
      <trkpt lat="40.532349" lon="-6.150912">
        <ele>1081.61</ele>
        <time>2021-03-27T15:46:31Z</time>
      </trkpt>
      <trkpt lat="40.532256" lon="-6.150868">
        <ele>1082.03</ele>
        <time>2021-03-27T15:46:32Z</time>
      </trkpt>
      <trkpt lat="40.531959" lon="-6.150668">
        <ele>1081.52</ele>
        <time>2021-03-27T15:46:34Z</time>
      </trkpt>
      <trkpt lat="40.531812" lon="-6.150659">
        <ele>1082.09</ele>
        <time>2021-03-27T15:46:35Z</time>
      </trkpt>
      <trkpt lat="40.531763" lon="-6.15069">
        <ele>1082.61</ele>
        <time>2021-03-27T15:46:37Z</time>
      </trkpt>
      <trkpt lat="40.531716" lon="-6.150757">
        <ele>1083.35</ele>
        <time>2021-03-27T15:46:38Z</time>
      </trkpt>
      <trkpt lat="40.531692" lon="-6.150849">
        <ele>1084.22</ele>
        <time>2021-03-27T15:46:40Z</time>
      </trkpt>
      <trkpt lat="40.531634" lon="-6.151324">
        <ele>1089.42</ele>
        <time>2021-03-27T15:46:41Z</time>
      </trkpt>
      <trkpt lat="40.531615" lon="-6.1514">
        <ele>1089.89</ele>
        <time>2021-03-27T15:46:43Z</time>
      </trkpt>
      <trkpt lat="40.531523" lon="-6.151551">
        <ele>1090.65</ele>
        <time>2021-03-27T15:46:44Z</time>
      </trkpt>
      <trkpt lat="40.53141" lon="-6.151625">
        <ele>1090.78</ele>
        <time>2021-03-27T15:46:46Z</time>
      </trkpt>
      <trkpt lat="40.530909" lon="-6.151773">
        <ele>1094.95</ele>
        <time>2021-03-27T15:46:47Z</time>
      </trkpt>
      <trkpt lat="40.530456" lon="-6.152045">
        <ele>1100.17</ele>
        <time>2021-03-27T15:46:49Z</time>
      </trkpt>
      <trkpt lat="40.530296" lon="-6.152058">
        <ele>1102.03</ele>
        <time>2021-03-27T15:46:50Z</time>
      </trkpt>
      <trkpt lat="40.530226" lon="-6.152026">
        <ele>1102.62</ele>
        <time>2021-03-27T15:46:52Z</time>
      </trkpt>
      <trkpt lat="40.529912" lon="-6.151755">
        <ele>1103.74</ele>
        <time>2021-03-27T15:46:53Z</time>
      </trkpt>
      <trkpt lat="40.52984" lon="-6.151723">
        <ele>1103.53</ele>
        <time>2021-03-27T15:46:55Z</time>
      </trkpt>
      <trkpt lat="40.529413" lon="-6.151672">
        <ele>1103.2</ele>
        <time>2021-03-27T15:46:56Z</time>
      </trkpt>
      <trkpt lat="40.529167" lon="-6.151701">
        <ele>1104.37</ele>
        <time>2021-03-27T15:46:58Z</time>
      </trkpt>
      <trkpt lat="40.52898" lon="-6.151744">
        <ele>1105.51</ele>
        <time>2021-03-27T15:46:59Z</time>
      </trkpt>
      <trkpt lat="40.528856" lon="-6.151722">
        <ele>1106.19</ele>
        <time>2021-03-27T15:47:01Z</time>
      </trkpt>
      <trkpt lat="40.528511" lon="-6.1516">
        <ele>1110.73</ele>
        <time>2021-03-27T15:47:02Z</time>
      </trkpt>
      <trkpt lat="40.5283" lon="-6.151612">
        <ele>1113.46</ele>
        <time>2021-03-27T15:47:04Z</time>
      </trkpt>
      <trkpt lat="40.528188" lon="-6.151654">
        <ele>1113.91</ele>
        <time>2021-03-27T15:47:05Z</time>
      </trkpt>
      <trkpt lat="40.52809" lon="-6.151719">
        <ele>1114.19</ele>
        <time>2021-03-27T15:47:07Z</time>
      </trkpt>
      <trkpt lat="40.527045" lon="-6.152501">
        <ele>1125.65</ele>
        <time>2021-03-27T15:47:08Z</time>
      </trkpt>
      <trkpt lat="40.526774" lon="-6.152688">
        <ele>1128.03</ele>
        <time>2021-03-27T15:47:10Z</time>
      </trkpt>
      <trkpt lat="40.526595" lon="-6.152776">
        <ele>1128.98</ele>
        <time>2021-03-27T15:47:11Z</time>
      </trkpt>
      <trkpt lat="40.526098" lon="-6.152951">
        <ele>1131.53</ele>
        <time>2021-03-27T15:47:13Z</time>
      </trkpt>
      <trkpt lat="40.525993" lon="-6.152968">
        <ele>1132.04</ele>
        <time>2021-03-27T15:47:14Z</time>
      </trkpt>
      <trkpt lat="40.525553" lon="-6.152924">
        <ele>1132.67</ele>
        <time>2021-03-27T15:47:16Z</time>
      </trkpt>
      <trkpt lat="40.525262" lon="-6.152955">
        <ele>1136.6</ele>
        <time>2021-03-27T15:47:17Z</time>
      </trkpt>
      <trkpt lat="40.524698" lon="-6.153052">
        <ele>1139.96</ele>
        <time>2021-03-27T15:47:19Z</time>
      </trkpt>
      <trkpt lat="40.524292" lon="-6.153148">
        <ele>1141.21</ele>
        <time>2021-03-27T15:47:20Z</time>
      </trkpt>
      <trkpt lat="40.523727" lon="-6.153311">
        <ele>1148.18</ele>
        <time>2021-03-27T15:47:22Z</time>
      </trkpt>
      <trkpt lat="40.523676" lon="-6.153309">
        <ele>1148.81</ele>
        <time>2021-03-27T15:47:23Z</time>
      </trkpt>
      <trkpt lat="40.523588" lon="-6.153244">
        <ele>1150.15</ele>
        <time>2021-03-27T15:47:25Z</time>
      </trkpt>
      <trkpt lat="40.523467" lon="-6.152922">
        <ele>1150.86</ele>
        <time>2021-03-27T15:47:26Z</time>
      </trkpt>
      <trkpt lat="40.52334" lon="-6.152714">
        <ele>1151.44</ele>
        <time>2021-03-27T15:47:28Z</time>
      </trkpt>
      <trkpt lat="40.522473" lon="-6.151951">
        <ele>1152.49</ele>
        <time>2021-03-27T15:47:29Z</time>
      </trkpt>
      <trkpt lat="40.5224" lon="-6.151904">
        <ele>1153.01</ele>
        <time>2021-03-27T15:47:31Z</time>
      </trkpt>
      <trkpt lat="40.522286" lon="-6.151877">
        <ele>1154.35</ele>
        <time>2021-03-27T15:47:32Z</time>
      </trkpt>
      <trkpt lat="40.521398" lon="-6.151904">
        <ele>1170.3</ele>
        <time>2021-03-27T15:47:34Z</time>
      </trkpt>
      <trkpt lat="40.520868" lon="-6.152031">
        <ele>1174.51</ele>
        <time>2021-03-27T15:47:35Z</time>
      </trkpt>
      <trkpt lat="40.520511" lon="-6.15205">
        <ele>1176.54</ele>
        <time>2021-03-27T15:47:37Z</time>
      </trkpt>
      <trkpt lat="40.519991" lon="-6.151992">
        <ele>1180.78</ele>
        <time>2021-03-27T15:47:38Z</time>
      </trkpt>
      <trkpt lat="40.519382" lon="-6.151854">
        <ele>1184.18</ele>
        <time>2021-03-27T15:47:40Z</time>
      </trkpt>
      <trkpt lat="40.519102" lon="-6.15181">
        <ele>1185.31</ele>
        <time>2021-03-27T15:47:41Z</time>
      </trkpt>
      <trkpt lat="40.518026" lon="-6.151691">
        <ele>1193.02</ele>
        <time>2021-03-27T15:47:43Z</time>
      </trkpt>
      <trkpt lat="40.517936" lon="-6.151654">
        <ele>1193.04</ele>
        <time>2021-03-27T15:47:44Z</time>
      </trkpt>
      <trkpt lat="40.517863" lon="-6.151593">
        <ele>1192.58</ele>
        <time>2021-03-27T15:47:46Z</time>
      </trkpt>
      <trkpt lat="40.517741" lon="-6.151454">
        <ele>1191.09</ele>
        <time>2021-03-27T15:47:47Z</time>
      </trkpt>
      <trkpt lat="40.517347" lon="-6.150876">
        <ele>1193.6</ele>
        <time>2021-03-27T15:47:49Z</time>
      </trkpt>
      <trkpt lat="40.517252" lon="-6.150779">
        <ele>1194.74</ele>
        <time>2021-03-27T15:47:50Z</time>
      </trkpt>
      <trkpt lat="40.517132" lon="-6.150698">
        <ele>1195.19</ele>
        <time>2021-03-27T15:47:52Z</time>
      </trkpt>
      <trkpt lat="40.516882" lon="-6.1506">
        <ele>1194.84</ele>
        <time>2021-03-27T15:47:53Z</time>
      </trkpt>
      <trkpt lat="40.51664" lon="-6.150603">
        <ele>1195.32</ele>
        <time>2021-03-27T15:47:55Z</time>
      </trkpt>
      <trkpt lat="40.516473" lon="-6.150638">
        <ele>1197.87</ele>
        <time>2021-03-27T15:47:56Z</time>
      </trkpt>
      <trkpt lat="40.516287" lon="-6.150719">
        <ele>1200.83</ele>
        <time>2021-03-27T15:47:58Z</time>
      </trkpt>
      <trkpt lat="40.515851" lon="-6.150953">
        <ele>1204.34</ele>
        <time>2021-03-27T15:47:59Z</time>
      </trkpt>
      <trkpt lat="40.515464" lon="-6.151232">
        <ele>1208.88</ele>
        <time>2021-03-27T15:48:01Z</time>
      </trkpt>
      <trkpt lat="40.515303" lon="-6.151372">
        <ele>1211.6</ele>
        <time>2021-03-27T15:48:02Z</time>
      </trkpt>
      <trkpt lat="40.514743" lon="-6.151954">
        <ele>1219.17</ele>
        <time>2021-03-27T15:48:04Z</time>
      </trkpt>
      <trkpt lat="40.514481" lon="-6.152419">
        <ele>1223.25</ele>
        <time>2021-03-27T15:48:05Z</time>
      </trkpt>
      <trkpt lat="40.514426" lon="-6.152479">
        <ele>1223.78</ele>
        <time>2021-03-27T15:48:07Z</time>
      </trkpt>
      <trkpt lat="40.514286" lon="-6.152546">
        <ele>1224.52</ele>
        <time>2021-03-27T15:48:08Z</time>
      </trkpt>
      <trkpt lat="40.514171" lon="-6.152541">
        <ele>1224.58</ele>
        <time>2021-03-27T15:48:10Z</time>
      </trkpt>
      <trkpt lat="40.513628" lon="-6.152371">
        <ele>1228.95</ele>
        <time>2021-03-27T15:48:11Z</time>
      </trkpt>
      <trkpt lat="40.513142" lon="-6.152177">
        <ele>1233.0</ele>
        <time>2021-03-27T15:48:13Z</time>
      </trkpt>
      <trkpt lat="40.512886" lon="-6.152102">
        <ele>1235.88</ele>
        <time>2021-03-27T15:48:14Z</time>
      </trkpt>
      <trkpt lat="40.512113" lon="-6.15202">
        <ele>1243.94</ele>
        <time>2021-03-27T15:48:16Z</time>
      </trkpt>
      <trkpt lat="40.511984" lon="-6.15204">
        <ele>1246.15</ele>
        <time>2021-03-27T15:48:17Z</time>
      </trkpt>
      <trkpt lat="40.511924" lon="-6.152111">
        <ele>1248.09</ele>
        <time>2021-03-27T15:48:19Z</time>
      </trkpt>
      <trkpt lat="40.511939" lon="-6.152211">
        <ele>1249.81</ele>
        <time>2021-03-27T15:48:20Z</time>
      </trkpt>
      <trkpt lat="40.511989" lon="-6.152273">
        <ele>1249.94</ele>
        <time>2021-03-27T15:48:22Z</time>
      </trkpt>
      <trkpt lat="40.512389" lon="-6.152566">
        <ele>1247.34</ele>
        <time>2021-03-27T15:48:23Z</time>
      </trkpt>
      <trkpt lat="40.51253" lon="-6.152712">
        <ele>1246.83</ele>
        <time>2021-03-27T15:48:25Z</time>
      </trkpt>
      <trkpt lat="40.51267" lon="-6.15289">
        <ele>1247.9</ele>
        <time>2021-03-27T15:48:26Z</time>
      </trkpt>
      <trkpt lat="40.51315" lon="-6.153824">
        <ele>1253.71</ele>
        <time>2021-03-27T15:48:28Z</time>
      </trkpt>
      <trkpt lat="40.513265" lon="-6.153983">
        <ele>1254.85</ele>
        <time>2021-03-27T15:48:29Z</time>
      </trkpt>
      <trkpt lat="40.513487" lon="-6.154208">
        <ele>1257.94</ele>
        <time>2021-03-27T15:48:31Z</time>
      </trkpt>
      <trkpt lat="40.514327" lon="-6.154815">
        <ele>1265.57</ele>
        <time>2021-03-27T15:48:32Z</time>
      </trkpt>
      <trkpt lat="40.514458" lon="-6.154892">
        <ele>1266.71</ele>
        <time>2021-03-27T15:48:34Z</time>
      </trkpt>
      <trkpt lat="40.514619" lon="-6.154949">
        <ele>1268.41</ele>
        <time>2021-03-27T15:48:35Z</time>
      </trkpt>
      <trkpt lat="40.514781" lon="-6.154981">
        <ele>1270.58</ele>
        <time>2021-03-27T15:48:37Z</time>
      </trkpt>
      <trkpt lat="40.514954" lon="-6.154989">
        <ele>1273.86</ele>
        <time>2021-03-27T15:48:38Z</time>
      </trkpt>
      <trkpt lat="40.515112" lon="-6.154953">
        <ele>1274.86</ele>
        <time>2021-03-27T15:48:40Z</time>
      </trkpt>
      <trkpt lat="40.515529" lon="-6.154798">
        <ele>1273.99</ele>
        <time>2021-03-27T15:48:41Z</time>
      </trkpt>
      <trkpt lat="40.515697" lon="-6.15476">
        <ele>1274.98</ele>
        <time>2021-03-27T15:48:43Z</time>
      </trkpt>
      <trkpt lat="40.515847" lon="-6.154748">
        <ele>1276.61</ele>
        <time>2021-03-27T15:48:44Z</time>
      </trkpt>
      <trkpt lat="40.516079" lon="-6.154776">
        <ele>1277.87</ele>
        <time>2021-03-27T15:48:46Z</time>
      </trkpt>
      <trkpt lat="40.516208" lon="-6.154834">
        <ele>1278.59</ele>
        <time>2021-03-27T15:48:47Z</time>
      </trkpt>
      <trkpt lat="40.516629" lon="-6.155105">
        <ele>1280.62</ele>
        <time>2021-03-27T15:48:49Z</time>
      </trkpt>
      <trkpt lat="40.516832" lon="-6.155306">
        <ele>1282.74</ele>
        <time>2021-03-27T15:48:50Z</time>
      </trkpt>
      <trkpt lat="40.517071" lon="-6.155707">
        <ele>1285.39</ele>
        <time>2021-03-27T15:48:52Z</time>
      </trkpt>
      <trkpt lat="40.517263" lon="-6.156198">
        <ele>1289.86</ele>
        <time>2021-03-27T15:48:53Z</time>
      </trkpt>
      <trkpt lat="40.517312" lon="-6.156401">
        <ele>1291.84</ele>
        <time>2021-03-27T15:48:55Z</time>
      </trkpt>
      <trkpt lat="40.517349" lon="-6.156671">
        <ele>1294.57</ele>
        <time>2021-03-27T15:48:56Z</time>
      </trkpt>
      <trkpt lat="40.517348" lon="-6.156763">
        <ele>1295.11</ele>
        <time>2021-03-27T15:48:58Z</time>
      </trkpt>
      <trkpt lat="40.517318" lon="-6.156847">
        <ele>1295.93</ele>
        <time>2021-03-27T15:48:59Z</time>
      </trkpt>
      <trkpt lat="40.517269" lon="-6.156896">
        <ele>1296.89</ele>
        <time>2021-03-27T15:49:01Z</time>
      </trkpt>
      <trkpt lat="40.517218" lon="-6.156904">
        <ele>1297.58</ele>
        <time>2021-03-27T15:49:02Z</time>
      </trkpt>
      <trkpt lat="40.517152" lon="-6.156869">
        <ele>1297.57</ele>
        <time>2021-03-27T15:49:04Z</time>
      </trkpt>
      <trkpt lat="40.516461" lon="-6.156319">
        <ele>1302.76</ele>
        <time>2021-03-27T15:49:05Z</time>
      </trkpt>
      <trkpt lat="40.516118" lon="-6.156185">
        <ele>1304.73</ele>
        <time>2021-03-27T15:49:07Z</time>
      </trkpt>
      <trkpt lat="40.515894" lon="-6.156163">
        <ele>1304.99</ele>
        <time>2021-03-27T15:49:08Z</time>
      </trkpt>
      <trkpt lat="40.515633" lon="-6.15622">
        <ele>1305.92</ele>
        <time>2021-03-27T15:49:10Z</time>
      </trkpt>
      <trkpt lat="40.515428" lon="-6.156303">
        <ele>1306.28</ele>
        <time>2021-03-27T15:49:11Z</time>
      </trkpt>
      <trkpt lat="40.51518" lon="-6.156433">
        <ele>1307.25</ele>
        <time>2021-03-27T15:49:13Z</time>
      </trkpt>
      <trkpt lat="40.514548" lon="-6.156829">
        <ele>1321.85</ele>
        <time>2021-03-27T15:49:14Z</time>
      </trkpt>
      <trkpt lat="40.514314" lon="-6.156914">
        <ele>1326.31</ele>
        <time>2021-03-27T15:49:16Z</time>
      </trkpt>
      <trkpt lat="40.512948" lon="-6.15709">
        <ele>1328.86</ele>
        <time>2021-03-27T15:49:17Z</time>
      </trkpt>
      <trkpt lat="40.512379" lon="-6.157134">
        <ele>1332.0</ele>
        <time>2021-03-27T15:49:19Z</time>
      </trkpt>
      <trkpt lat="40.512225" lon="-6.157181">
        <ele>1334.1</ele>
        <time>2021-03-27T15:49:20Z</time>
      </trkpt>
      <trkpt lat="40.512093" lon="-6.157266">
        <ele>1333.53</ele>
        <time>2021-03-27T15:49:22Z</time>
      </trkpt>
      <trkpt lat="40.511994" lon="-6.157391">
        <ele>1333.42</ele>
        <time>2021-03-27T15:49:23Z</time>
      </trkpt>
      <trkpt lat="40.511843" lon="-6.157789">
        <ele>1332.53</ele>
        <time>2021-03-27T15:49:25Z</time>
      </trkpt>
      <trkpt lat="40.511811" lon="-6.157922">
        <ele>1332.67</ele>
        <time>2021-03-27T15:49:26Z</time>
      </trkpt>
      <trkpt lat="40.511812" lon="-6.157984">
        <ele>1333.16</ele>
        <time>2021-03-27T15:49:28Z</time>
      </trkpt>
      <trkpt lat="40.511848" lon="-6.158069">
        <ele>1334.78</ele>
        <time>2021-03-27T15:49:29Z</time>
      </trkpt>
      <trkpt lat="40.51189" lon="-6.158079">
        <ele>1335.96</ele>
        <time>2021-03-27T15:49:31Z</time>
      </trkpt>
      <trkpt lat="40.511923" lon="-6.158064">
        <ele>1336.57</ele>
        <time>2021-03-27T15:49:32Z</time>
      </trkpt>
      <trkpt lat="40.512039" lon="-6.157912">
        <ele>1337.31</ele>
        <time>2021-03-27T15:49:34Z</time>
      </trkpt>
      <trkpt lat="40.512114" lon="-6.157835">
        <ele>1337.5</ele>
        <time>2021-03-27T15:49:35Z</time>
      </trkpt>
      <trkpt lat="40.51219" lon="-6.15779">
        <ele>1337.82</ele>
        <time>2021-03-27T15:49:37Z</time>
      </trkpt>
      <trkpt lat="40.512333" lon="-6.157754">
        <ele>1339.83</ele>
        <time>2021-03-27T15:49:38Z</time>
      </trkpt>
      <trkpt lat="40.512666" lon="-6.157744">
        <ele>1344.29</ele>
        <time>2021-03-27T15:49:40Z</time>
      </trkpt>
      <trkpt lat="40.513042" lon="-6.157828">
        <ele>1349.36</ele>
        <time>2021-03-27T15:49:41Z</time>
      </trkpt>
      <trkpt lat="40.513821" lon="-6.158157">
        <ele>1362.17</ele>
        <time>2021-03-27T15:49:43Z</time>
      </trkpt>
      <trkpt lat="40.514033" lon="-6.158266">
        <ele>1363.94</ele>
        <time>2021-03-27T15:49:44Z</time>
      </trkpt>
      <trkpt lat="40.514281" lon="-6.158414">
        <ele>1367.8</ele>
        <time>2021-03-27T15:49:46Z</time>
      </trkpt>
      <trkpt lat="40.514845" lon="-6.158829">
        <ele>1372.83</ele>
        <time>2021-03-27T15:49:47Z</time>
      </trkpt>
      <trkpt lat="40.516188" lon="-6.160263">
        <ele>1375.13</ele>
        <time>2021-03-27T15:49:49Z</time>
      </trkpt>
      <trkpt lat="40.516243" lon="-6.160343">
        <ele>1375.02</ele>
        <time>2021-03-27T15:49:50Z</time>
      </trkpt>
      <trkpt lat="40.516248" lon="-6.160397">
        <ele>1375.92</ele>
        <time>2021-03-27T15:49:52Z</time>
      </trkpt>
      <trkpt lat="40.516197" lon="-6.160464">
        <ele>1379.01</ele>
        <time>2021-03-27T15:49:53Z</time>
      </trkpt>
      <trkpt lat="40.516148" lon="-6.160461">
        <ele>1380.67</ele>
        <time>2021-03-27T15:49:55Z</time>
      </trkpt>
      <trkpt lat="40.515792" lon="-6.160112">
        <ele>1384.78</ele>
        <time>2021-03-27T15:49:56Z</time>
      </trkpt>
      <trkpt lat="40.515453" lon="-6.159907">
        <ele>1385.88</ele>
        <time>2021-03-27T15:49:58Z</time>
      </trkpt>
      <trkpt lat="40.514924" lon="-6.159634">
        <ele>1389.1</ele>
        <time>2021-03-27T15:49:59Z</time>
      </trkpt>
      <trkpt lat="40.514327" lon="-6.159401">
        <ele>1396.16</ele>
        <time>2021-03-27T15:50:01Z</time>
      </trkpt>
      <trkpt lat="40.514141" lon="-6.159359">
        <ele>1396.57</ele>
        <time>2021-03-27T15:50:02Z</time>
      </trkpt>
      <trkpt lat="40.513834" lon="-6.159324">
        <ele>1395.0</ele>
        <time>2021-03-27T15:50:04Z</time>
      </trkpt>
      <trkpt lat="40.513649" lon="-6.159339">
        <ele>1395.06</ele>
        <time>2021-03-27T15:50:05Z</time>
      </trkpt>
      <trkpt lat="40.513344" lon="-6.159433">
        <ele>1397.68</ele>
        <time>2021-03-27T15:50:07Z</time>
      </trkpt>
      <trkpt lat="40.513169" lon="-6.15953">
        <ele>1397.09</ele>
        <time>2021-03-27T15:50:08Z</time>
      </trkpt>
      <trkpt lat="40.512986" lon="-6.159659">
        <ele>1398.14</ele>
        <time>2021-03-27T15:50:10Z</time>
      </trkpt>
      <trkpt lat="40.51283" lon="-6.1598">
        <ele>1400.91</ele>
        <time>2021-03-27T15:50:11Z</time>
      </trkpt>
      <trkpt lat="40.512576" lon="-6.160122">
        <ele>1402.42</ele>
        <time>2021-03-27T15:50:13Z</time>
      </trkpt>
      <trkpt lat="40.512383" lon="-6.160484">
        <ele>1403.01</ele>
        <time>2021-03-27T15:50:14Z</time>
      </trkpt>
      <trkpt lat="40.511673" lon="-6.162268">
        <ele>1419.92</ele>
        <time>2021-03-27T15:50:16Z</time>
      </trkpt>
      <trkpt lat="40.511176" lon="-6.163231">
        <ele>1431.33</ele>
        <time>2021-03-27T15:50:17Z</time>
      </trkpt>
      <trkpt lat="40.510604" lon="-6.164446">
        <ele>1433.84</ele>
        <time>2021-03-27T15:50:19Z</time>
      </trkpt>
      <trkpt lat="40.510419" lon="-6.164884">
        <ele>1439.92</ele>
        <time>2021-03-27T15:50:21Z</time>
      </trkpt>
      <trkpt lat="40.510246" lon="-6.165422">
        <ele>1448.52</ele>
        <time>2021-03-27T15:50:22Z</time>
      </trkpt>
      <trkpt lat="40.510095" lon="-6.165805">
        <ele>1453.21</ele>
        <time>2021-03-27T15:50:24Z</time>
      </trkpt>
      <trkpt lat="40.510025" lon="-6.165934">
        <ele>1453.27</ele>
        <time>2021-03-27T15:50:25Z</time>
      </trkpt>
      <trkpt lat="40.509572" lon="-6.166628">
        <ele>1456.05</ele>
        <time>2021-03-27T15:50:27Z</time>
      </trkpt>
      <trkpt lat="40.509409" lon="-6.166933">
        <ele>1456.28</ele>
        <time>2021-03-27T15:50:28Z</time>
      </trkpt>
      <trkpt lat="40.509323" lon="-6.167225">
        <ele>1456.88</ele>
        <time>2021-03-27T15:50:30Z</time>
      </trkpt>
      <trkpt lat="40.509226" lon="-6.167852">
        <ele>1460.82</ele>
        <time>2021-03-27T15:50:31Z</time>
      </trkpt>
      <trkpt lat="40.509176" lon="-6.168077">
        <ele>1462.37</ele>
        <time>2021-03-27T15:50:33Z</time>
      </trkpt>
      <trkpt lat="40.509036" lon="-6.168526">
        <ele>1457.02</ele>
        <time>2021-03-27T15:50:34Z</time>
      </trkpt>
      <trkpt lat="40.509059" lon="-6.168737">
        <ele>1460.05</ele>
        <time>2021-03-27T15:50:36Z</time>
      </trkpt>
      <trkpt lat="40.509164" lon="-6.169044">
        <ele>1469.39</ele>
        <time>2021-03-27T15:50:37Z</time>
      </trkpt>
      <trkpt lat="40.509257" lon="-6.169931">
        <ele>1477.5</ele>
        <time>2021-03-27T15:50:39Z</time>
      </trkpt>
      <trkpt lat="40.509251" lon="-6.170131">
        <ele>1478.55</ele>
        <time>2021-03-27T15:50:40Z</time>
      </trkpt>
      <trkpt lat="40.509225" lon="-6.170304">
        <ele>1478.2</ele>
        <time>2021-03-27T15:50:42Z</time>
      </trkpt>
      <trkpt lat="40.509141" lon="-6.171405">
        <ele>1483.58</ele>
        <time>2021-03-27T15:50:43Z</time>
      </trkpt>
      <trkpt lat="40.509118" lon="-6.171942">
        <ele>1484.57</ele>
        <time>2021-03-27T15:50:45Z</time>
      </trkpt>
      <trkpt lat="40.50911" lon="-6.172356">
        <ele>1488.0</ele>
        <time>2021-03-27T15:50:46Z</time>
      </trkpt>
      <trkpt lat="40.509125" lon="-6.173194">
        <ele>1493.42</ele>
        <time>2021-03-27T15:50:48Z</time>
      </trkpt>
      <trkpt lat="40.509097" lon="-6.174196">
        <ele>1495.64</ele>
        <time>2021-03-27T15:50:49Z</time>
      </trkpt>
      <trkpt lat="40.5091" lon="-6.174931">
        <ele>1498.19</ele>
        <time>2021-03-27T15:50:51Z</time>
      </trkpt>
      <trkpt lat="40.509081" lon="-6.175294">
        <ele>1498.37</ele>
        <time>2021-03-27T15:50:52Z</time>
      </trkpt>
      <trkpt lat="40.509034" lon="-6.175593">
        <ele>1496.57</ele>
        <time>2021-03-27T15:50:54Z</time>
      </trkpt>
      <trkpt lat="40.508945" lon="-6.176">
        <ele>1495.13</ele>
        <time>2021-03-27T15:50:55Z</time>
      </trkpt>
      <trkpt lat="40.508942" lon="-6.176089">
        <ele>1494.83</ele>
        <time>2021-03-27T15:50:57Z</time>
      </trkpt>
      <trkpt lat="40.508957" lon="-6.176177">
        <ele>1494.8</ele>
        <time>2021-03-27T15:50:58Z</time>
      </trkpt>
      <trkpt lat="40.508945" lon="-6.17633">
        <ele>1494.18</ele>
        <time>2021-03-27T15:50:59Z</time>
      </trkpt>
      <trkpt lat="40.508966" lon="-6.176387">
        <ele>1494.39</ele>
        <time>2021-03-27T15:51:00Z</time>
      </trkpt>
      <trkpt lat="40.509015" lon="-6.176453">
        <ele>1494.6</ele>
        <time>2021-03-27T15:51:01Z</time>
      </trkpt>
      <trkpt lat="40.509283" lon="-6.17669">
        <ele>1494.67</ele>
        <time>2021-03-27T15:51:01Z</time>
      </trkpt>
      <trkpt lat="40.509283" lon="-6.17669">
        <ele>1494.67</ele>
        <time>2021-03-27T15:51:01Z</time>
      </trkpt>
      <trkpt lat="40.509525" lon="-6.176877">
        <ele>1493.05</ele>
        <time>2021-03-27T15:51:04Z</time>
      </trkpt>
      <trkpt lat="40.509844" lon="-6.177067">
        <ele>1489.73</ele>
        <time>2021-03-27T15:51:06Z</time>
      </trkpt>
      <trkpt lat="40.510565" lon="-6.177268">
        <ele>1487.91</ele>
        <time>2021-03-27T15:51:09Z</time>
      </trkpt>
      <trkpt lat="40.511322" lon="-6.177512">
        <ele>1486.98</ele>
        <time>2021-03-27T15:51:11Z</time>
      </trkpt>
      <trkpt lat="40.511517" lon="-6.177603">
        <ele>1484.56</ele>
        <time>2021-03-27T15:51:13Z</time>
      </trkpt>
      <trkpt lat="40.511622" lon="-6.177672">
        <ele>1482.54</ele>
        <time>2021-03-27T15:51:16Z</time>
      </trkpt>
      <trkpt lat="40.51189" lon="-6.177904">
        <ele>1476.44</ele>
        <time>2021-03-27T15:51:18Z</time>
      </trkpt>
      <trkpt lat="40.512117" lon="-6.178051">
        <ele>1471.52</ele>
        <time>2021-03-27T15:51:21Z</time>
      </trkpt>
      <trkpt lat="40.512312" lon="-6.178118">
        <ele>1468.2</ele>
        <time>2021-03-27T15:51:23Z</time>
      </trkpt>
      <trkpt lat="40.512378" lon="-6.178103">
        <ele>1467.66</ele>
        <time>2021-03-27T15:51:26Z</time>
      </trkpt>
      <trkpt lat="40.512458" lon="-6.178014">
        <ele>1468.41</ele>
        <time>2021-03-27T15:51:28Z</time>
      </trkpt>
      <trkpt lat="40.512684" lon="-6.17732">
        <ele>1472.93</ele>
        <time>2021-03-27T15:51:30Z</time>
      </trkpt>
      <trkpt lat="40.512742" lon="-6.1772">
        <ele>1473.49</ele>
        <time>2021-03-27T15:51:33Z</time>
      </trkpt>
      <trkpt lat="40.512803" lon="-6.177106">
        <ele>1473.78</ele>
        <time>2021-03-27T15:51:35Z</time>
      </trkpt>
      <trkpt lat="40.513122" lon="-6.176734">
        <ele>1473.84</ele>
        <time>2021-03-27T15:51:38Z</time>
      </trkpt>
      <trkpt lat="40.513243" lon="-6.176626">
        <ele>1473.05</ele>
        <time>2021-03-27T15:51:40Z</time>
      </trkpt>
      <trkpt lat="40.514696" lon="-6.175769">
        <ele>1456.99</ele>
        <time>2021-03-27T15:51:42Z</time>
      </trkpt>
      <trkpt lat="40.514807" lon="-6.175728">
        <ele>1457.49</ele>
        <time>2021-03-27T15:51:45Z</time>
      </trkpt>
      <trkpt lat="40.514937" lon="-6.175707">
        <ele>1456.74</ele>
        <time>2021-03-27T15:51:47Z</time>
      </trkpt>
      <trkpt lat="40.515375" lon="-6.175685">
        <ele>1450.77</ele>
        <time>2021-03-27T15:51:50Z</time>
      </trkpt>
      <trkpt lat="40.51584" lon="-6.175597">
        <ele>1449.25</ele>
        <time>2021-03-27T15:51:52Z</time>
      </trkpt>
      <trkpt lat="40.516165" lon="-6.17556">
        <ele>1446.64</ele>
        <time>2021-03-27T15:51:54Z</time>
      </trkpt>
      <trkpt lat="40.516763" lon="-6.175645">
        <ele>1445.12</ele>
        <time>2021-03-27T15:51:57Z</time>
      </trkpt>
      <trkpt lat="40.517008" lon="-6.175626">
        <ele>1447.14</ele>
        <time>2021-03-27T15:51:59Z</time>
      </trkpt>
      <trkpt lat="40.517158" lon="-6.175635">
        <ele>1447.26</ele>
        <time>2021-03-27T15:52:02Z</time>
      </trkpt>
      <trkpt lat="40.517445" lon="-6.175735">
        <ele>1445.0</ele>
        <time>2021-03-27T15:52:04Z</time>
      </trkpt>
      <trkpt lat="40.517545" lon="-6.175809">
        <ele>1442.96</ele>
        <time>2021-03-27T15:52:07Z</time>
      </trkpt>
      <trkpt lat="40.518" lon="-6.176296">
        <ele>1433.28</ele>
        <time>2021-03-27T15:52:09Z</time>
      </trkpt>
      <trkpt lat="40.518355" lon="-6.176795">
        <ele>1431.5</ele>
        <time>2021-03-27T15:52:11Z</time>
      </trkpt>
      <trkpt lat="40.518771" lon="-6.177492">
        <ele>1427.04</ele>
        <time>2021-03-27T15:52:14Z</time>
      </trkpt>
      <trkpt lat="40.518969" lon="-6.177672">
        <ele>1426.79</ele>
        <time>2021-03-27T15:52:16Z</time>
      </trkpt>
      <trkpt lat="40.519225" lon="-6.177866">
        <ele>1426.55</ele>
        <time>2021-03-27T15:52:19Z</time>
      </trkpt>
      <trkpt lat="40.519711" lon="-6.178103">
        <ele>1426.11</ele>
        <time>2021-03-27T15:52:21Z</time>
      </trkpt>
      <trkpt lat="40.519919" lon="-6.178254">
        <ele>1423.89</ele>
        <time>2021-03-27T15:52:23Z</time>
      </trkpt>
      <trkpt lat="40.520276" lon="-6.178608">
        <ele>1421.03</ele>
        <time>2021-03-27T15:52:26Z</time>
      </trkpt>
      <trkpt lat="40.520615" lon="-6.178868">
        <ele>1420.94</ele>
        <time>2021-03-27T15:52:28Z</time>
      </trkpt>
      <trkpt lat="40.520685" lon="-6.178968">
        <ele>1421.4</ele>
        <time>2021-03-27T15:52:31Z</time>
      </trkpt>
      <trkpt lat="40.520823" lon="-6.179288">
        <ele>1419.09</ele>
        <time>2021-03-27T15:52:33Z</time>
      </trkpt>
      <trkpt lat="40.520902" lon="-6.179597">
        <ele>1414.49</ele>
        <time>2021-03-27T15:52:35Z</time>
      </trkpt>
      <trkpt lat="40.520952" lon="-6.18008">
        <ele>1410.26</ele>
        <time>2021-03-27T15:52:38Z</time>
      </trkpt>
      <trkpt lat="40.52109" lon="-6.180931">
        <ele>1412.35</ele>
        <time>2021-03-27T15:52:40Z</time>
      </trkpt>
      <trkpt lat="40.521125" lon="-6.18183">
        <ele>1409.65</ele>
        <time>2021-03-27T15:52:43Z</time>
      </trkpt>
      <trkpt lat="40.521115" lon="-6.182034">
        <ele>1409.83</ele>
        <time>2021-03-27T15:52:45Z</time>
      </trkpt>
      <trkpt lat="40.52108" lon="-6.182299">
        <ele>1409.58</ele>
        <time>2021-03-27T15:52:48Z</time>
      </trkpt>
      <trkpt lat="40.520917" lon="-6.183188">
        <ele>1402.72</ele>
        <time>2021-03-27T15:52:50Z</time>
      </trkpt>
      <trkpt lat="40.520828" lon="-6.183544">
        <ele>1400.51</ele>
        <time>2021-03-27T15:52:52Z</time>
      </trkpt>
      <trkpt lat="40.520614" lon="-6.184339">
        <ele>1396.36</ele>
        <time>2021-03-27T15:52:55Z</time>
      </trkpt>
      <trkpt lat="40.520235" lon="-6.185541">
        <ele>1389.21</ele>
        <time>2021-03-27T15:52:57Z</time>
      </trkpt>
      <trkpt lat="40.520034" lon="-6.186309">
        <ele>1386.66</ele>
        <time>2021-03-27T15:53:00Z</time>
      </trkpt>
      <trkpt lat="40.519502" lon="-6.18818">
        <ele>1372.84</ele>
        <time>2021-03-27T15:53:02Z</time>
      </trkpt>
      <trkpt lat="40.519449" lon="-6.188541">
        <ele>1370.75</ele>
        <time>2021-03-27T15:53:04Z</time>
      </trkpt>
      <trkpt lat="40.519449" lon="-6.188681">
        <ele>1370.99</ele>
        <time>2021-03-27T15:53:07Z</time>
      </trkpt>
      <trkpt lat="40.519486" lon="-6.189075">
        <ele>1370.04</ele>
        <time>2021-03-27T15:53:09Z</time>
      </trkpt>
      <trkpt lat="40.519597" lon="-6.189775">
        <ele>1369.19</ele>
        <time>2021-03-27T15:53:12Z</time>
      </trkpt>
      <trkpt lat="40.519668" lon="-6.190339">
        <ele>1367.89</ele>
        <time>2021-03-27T15:53:14Z</time>
      </trkpt>
      <trkpt lat="40.519688" lon="-6.190762">
        <ele>1366.14</ele>
        <time>2021-03-27T15:53:17Z</time>
      </trkpt>
      <trkpt lat="40.519713" lon="-6.192151">
        <ele>1363.58</ele>
        <time>2021-03-27T15:53:19Z</time>
      </trkpt>
      <trkpt lat="40.519723" lon="-6.192345">
        <ele>1360.41</ele>
        <time>2021-03-27T15:53:21Z</time>
      </trkpt>
      <trkpt lat="40.519803" lon="-6.193003">
        <ele>1358.15</ele>
        <time>2021-03-27T15:53:24Z</time>
      </trkpt>
      <trkpt lat="40.519763" lon="-6.193461">
        <ele>1356.28</ele>
        <time>2021-03-27T15:53:26Z</time>
      </trkpt>
      <trkpt lat="40.51978" lon="-6.193763">
        <ele>1356.92</ele>
        <time>2021-03-27T15:53:29Z</time>
      </trkpt>
      <trkpt lat="40.519906" lon="-6.194722">
        <ele>1359.61</ele>
        <time>2021-03-27T15:53:31Z</time>
      </trkpt>
      <trkpt lat="40.519954" lon="-6.195135">
        <ele>1360.41</ele>
        <time>2021-03-27T15:53:33Z</time>
      </trkpt>
      <trkpt lat="40.519971" lon="-6.195424">
        <ele>1361.5</ele>
        <time>2021-03-27T15:53:36Z</time>
      </trkpt>
      <trkpt lat="40.520063" lon="-6.195979">
        <ele>1359.02</ele>
        <time>2021-03-27T15:53:38Z</time>
      </trkpt>
      <trkpt lat="40.520213" lon="-6.196574">
        <ele>1354.58</ele>
        <time>2021-03-27T15:53:41Z</time>
      </trkpt>
      <trkpt lat="40.520583" lon="-6.197622">
        <ele>1356.04</ele>
        <time>2021-03-27T15:53:43Z</time>
      </trkpt>
      <trkpt lat="40.520751" lon="-6.197978">
        <ele>1353.19</ele>
        <time>2021-03-27T15:53:45Z</time>
      </trkpt>
      <trkpt lat="40.521255" lon="-6.198845">
        <ele>1353.38</ele>
        <time>2021-03-27T15:53:48Z</time>
      </trkpt>
      <trkpt lat="40.521495" lon="-6.199363">
        <ele>1353.69</ele>
        <time>2021-03-27T15:53:50Z</time>
      </trkpt>
      <trkpt lat="40.521521" lon="-6.199527">
        <ele>1352.48</ele>
        <time>2021-03-27T15:53:53Z</time>
      </trkpt>
      <trkpt lat="40.521521" lon="-6.199755">
        <ele>1349.52</ele>
        <time>2021-03-27T15:53:55Z</time>
      </trkpt>
      <trkpt lat="40.521479" lon="-6.200601">
        <ele>1345.4</ele>
        <time>2021-03-27T15:53:58Z</time>
      </trkpt>
      <trkpt lat="40.521527" lon="-6.20108">
        <ele>1345.66</ele>
        <time>2021-03-27T15:54:00Z</time>
      </trkpt>
      <trkpt lat="40.521556" lon="-6.201617">
        <ele>1345.61</ele>
        <time>2021-03-27T15:54:02Z</time>
      </trkpt>
      <trkpt lat="40.52169" lon="-6.202652">
        <ele>1342.51</ele>
        <time>2021-03-27T15:54:05Z</time>
      </trkpt>
      <trkpt lat="40.521903" lon="-6.203803">
        <ele>1339.02</ele>
        <time>2021-03-27T15:54:07Z</time>
      </trkpt>
      <trkpt lat="40.522091" lon="-6.204397">
        <ele>1337.62</ele>
        <time>2021-03-27T15:54:10Z</time>
      </trkpt>
      <trkpt lat="40.522293" lon="-6.204963">
        <ele>1336.82</ele>
        <time>2021-03-27T15:54:12Z</time>
      </trkpt>
      <trkpt lat="40.522418" lon="-6.20528">
        <ele>1336.41</ele>
        <time>2021-03-27T15:54:14Z</time>
      </trkpt>
      <trkpt lat="40.522735" lon="-6.205938">
        <ele>1336.28</ele>
        <time>2021-03-27T15:54:17Z</time>
      </trkpt>
      <trkpt lat="40.522877" lon="-6.206374">
        <ele>1330.69</ele>
        <time>2021-03-27T15:54:19Z</time>
      </trkpt>
      <trkpt lat="40.523378" lon="-6.20761">
        <ele>1331.69</ele>
        <time>2021-03-27T15:54:22Z</time>
      </trkpt>
      <trkpt lat="40.523474" lon="-6.207929">
        <ele>1333.9</ele>
        <time>2021-03-27T15:54:24Z</time>
      </trkpt>
      <trkpt lat="40.523622" lon="-6.208598">
        <ele>1332.83</ele>
        <time>2021-03-27T15:54:26Z</time>
      </trkpt>
      <trkpt lat="40.523677" lon="-6.209672">
        <ele>1325.24</ele>
        <time>2021-03-27T15:54:29Z</time>
      </trkpt>
      <trkpt lat="40.523719" lon="-6.210043">
        <ele>1322.7</ele>
        <time>2021-03-27T15:54:31Z</time>
      </trkpt>
      <trkpt lat="40.523931" lon="-6.211362">
        <ele>1325.79</ele>
        <time>2021-03-27T15:54:34Z</time>
      </trkpt>
      <trkpt lat="40.523862" lon="-6.212075">
        <ele>1326.48</ele>
        <time>2021-03-27T15:54:36Z</time>
      </trkpt>
      <trkpt lat="40.523823" lon="-6.212191">
        <ele>1326.51</ele>
        <time>2021-03-27T15:54:39Z</time>
      </trkpt>
      <trkpt lat="40.523739" lon="-6.212307">
        <ele>1325.88</ele>
        <time>2021-03-27T15:54:41Z</time>
      </trkpt>
      <trkpt lat="40.523515" lon="-6.212474">
        <ele>1324.58</ele>
        <time>2021-03-27T15:54:43Z</time>
      </trkpt>
      <trkpt lat="40.522865" lon="-6.212679">
        <ele>1321.63</ele>
        <time>2021-03-27T15:54:46Z</time>
      </trkpt>
      <trkpt lat="40.521758" lon="-6.21291">
        <ele>1315.79</ele>
        <time>2021-03-27T15:54:48Z</time>
      </trkpt>
      <trkpt lat="40.521551" lon="-6.212976">
        <ele>1315.48</ele>
        <time>2021-03-27T15:54:51Z</time>
      </trkpt>
      <trkpt lat="40.521417" lon="-6.213045">
        <ele>1315.99</ele>
        <time>2021-03-27T15:54:53Z</time>
      </trkpt>
      <trkpt lat="40.521258" lon="-6.213169">
        <ele>1316.25</ele>
        <time>2021-03-27T15:54:55Z</time>
      </trkpt>
      <trkpt lat="40.521081" lon="-6.213329">
        <ele>1316.25</ele>
        <time>2021-03-27T15:54:58Z</time>
      </trkpt>
      <trkpt lat="40.520804" lon="-6.213666">
        <ele>1315.1</ele>
        <time>2021-03-27T15:55:00Z</time>
      </trkpt>
      <trkpt lat="40.520601" lon="-6.213988">
        <ele>1311.98</ele>
        <time>2021-03-27T15:55:03Z</time>
      </trkpt>
      <trkpt lat="40.520325" lon="-6.214484">
        <ele>1309.76</ele>
        <time>2021-03-27T15:55:05Z</time>
      </trkpt>
      <trkpt lat="40.520146" lon="-6.214766">
        <ele>1311.05</ele>
        <time>2021-03-27T15:55:08Z</time>
      </trkpt>
      <trkpt lat="40.520006" lon="-6.214945">
        <ele>1311.8</ele>
        <time>2021-03-27T15:55:10Z</time>
      </trkpt>
      <trkpt lat="40.519392" lon="-6.215553">
        <ele>1307.42</ele>
        <time>2021-03-27T15:55:12Z</time>
      </trkpt>
      <trkpt lat="40.518964" lon="-6.216072">
        <ele>1306.62</ele>
        <time>2021-03-27T15:55:15Z</time>
      </trkpt>
      <trkpt lat="40.517961" lon="-6.217053">
        <ele>1302.89</ele>
        <time>2021-03-27T15:55:17Z</time>
      </trkpt>
      <trkpt lat="40.517819" lon="-6.217138">
        <ele>1302.21</ele>
        <time>2021-03-27T15:55:20Z</time>
      </trkpt>
      <trkpt lat="40.517661" lon="-6.217208">
        <ele>1302.7</ele>
        <time>2021-03-27T15:55:22Z</time>
      </trkpt>
      <trkpt lat="40.517526" lon="-6.217239">
        <ele>1302.9</ele>
        <time>2021-03-27T15:55:24Z</time>
      </trkpt>
      <trkpt lat="40.517386" lon="-6.217237">
        <ele>1302.99</ele>
        <time>2021-03-27T15:55:27Z</time>
      </trkpt>
      <trkpt lat="40.517251" lon="-6.21719">
        <ele>1301.42</ele>
        <time>2021-03-27T15:55:29Z</time>
      </trkpt>
      <trkpt lat="40.517006" lon="-6.217038">
        <ele>1296.97</ele>
        <time>2021-03-27T15:55:32Z</time>
      </trkpt>
      <trkpt lat="40.516645" lon="-6.216683">
        <ele>1294.59</ele>
        <time>2021-03-27T15:55:34Z</time>
      </trkpt>
      <trkpt lat="40.516465" lon="-6.216538">
        <ele>1293.52</ele>
        <time>2021-03-27T15:55:36Z</time>
      </trkpt>
      <trkpt lat="40.516333" lon="-6.216456">
        <ele>1293.1</ele>
        <time>2021-03-27T15:55:39Z</time>
      </trkpt>
      <trkpt lat="40.516185" lon="-6.216392">
        <ele>1293.29</ele>
        <time>2021-03-27T15:55:41Z</time>
      </trkpt>
      <trkpt lat="40.515631" lon="-6.216255">
        <ele>1290.3</ele>
        <time>2021-03-27T15:55:44Z</time>
      </trkpt>
      <trkpt lat="40.514971" lon="-6.215999">
        <ele>1284.11</ele>
        <time>2021-03-27T15:55:46Z</time>
      </trkpt>
      <trkpt lat="40.514727" lon="-6.21596">
        <ele>1285.53</ele>
        <time>2021-03-27T15:55:49Z</time>
      </trkpt>
      <trkpt lat="40.514608" lon="-6.215963">
        <ele>1285.24</ele>
        <time>2021-03-27T15:55:51Z</time>
      </trkpt>
      <trkpt lat="40.514493" lon="-6.21599">
        <ele>1285.8</ele>
        <time>2021-03-27T15:55:53Z</time>
      </trkpt>
      <trkpt lat="40.514403" lon="-6.216014">
        <ele>1285.28</ele>
        <time>2021-03-27T15:55:56Z</time>
      </trkpt>
      <trkpt lat="40.514158" lon="-6.216195">
        <ele>1282.55</ele>
        <time>2021-03-27T15:55:58Z</time>
      </trkpt>
      <trkpt lat="40.513947" lon="-6.216406">
        <ele>1279.33</ele>
        <time>2021-03-27T15:56:01Z</time>
      </trkpt>
      <trkpt lat="40.513393" lon="-6.217017">
        <ele>1273.07</ele>
        <time>2021-03-27T15:56:03Z</time>
      </trkpt>
      <trkpt lat="40.513248" lon="-6.217137">
        <ele>1272.13</ele>
        <time>2021-03-27T15:56:05Z</time>
      </trkpt>
      <trkpt lat="40.512445" lon="-6.217616">
        <ele>1268.82</ele>
        <time>2021-03-27T15:56:08Z</time>
      </trkpt>
      <trkpt lat="40.512203" lon="-6.217706">
        <ele>1266.48</ele>
        <time>2021-03-27T15:56:10Z</time>
      </trkpt>
      <trkpt lat="40.511144" lon="-6.217965">
        <ele>1259.64</ele>
        <time>2021-03-27T15:56:13Z</time>
      </trkpt>
      <trkpt lat="40.51091" lon="-6.217948">
        <ele>1257.01</ele>
        <time>2021-03-27T15:56:15Z</time>
      </trkpt>
      <trkpt lat="40.510532" lon="-6.217872">
        <ele>1252.58</ele>
        <time>2021-03-27T15:56:17Z</time>
      </trkpt>
      <trkpt lat="40.510391" lon="-6.217861">
        <ele>1249.68</ele>
        <time>2021-03-27T15:56:20Z</time>
      </trkpt>
      <trkpt lat="40.510272" lon="-6.217874">
        <ele>1247.64</ele>
        <time>2021-03-27T15:56:22Z</time>
      </trkpt>
      <trkpt lat="40.510131" lon="-6.217925">
        <ele>1246.26</ele>
        <time>2021-03-27T15:56:25Z</time>
      </trkpt>
      <trkpt lat="40.509982" lon="-6.218014">
        <ele>1244.88</ele>
        <time>2021-03-27T15:56:27Z</time>
      </trkpt>
      <trkpt lat="40.509836" lon="-6.218146">
        <ele>1242.44</ele>
        <time>2021-03-27T15:56:30Z</time>
      </trkpt>
      <trkpt lat="40.509656" lon="-6.21839">
        <ele>1240.85</ele>
        <time>2021-03-27T15:56:32Z</time>
      </trkpt>
      <trkpt lat="40.509525" lon="-6.21862">
        <ele>1239.73</ele>
        <time>2021-03-27T15:56:34Z</time>
      </trkpt>
      <trkpt lat="40.509284" lon="-6.219169">
        <ele>1235.91</ele>
        <time>2021-03-27T15:56:37Z</time>
      </trkpt>
      <trkpt lat="40.509188" lon="-6.219549">
        <ele>1233.22</ele>
        <time>2021-03-27T15:56:39Z</time>
      </trkpt>
      <trkpt lat="40.509144" lon="-6.219855">
        <ele>1233.03</ele>
        <time>2021-03-27T15:56:42Z</time>
      </trkpt>
      <trkpt lat="40.509092" lon="-6.220592">
        <ele>1231.83</ele>
        <time>2021-03-27T15:56:44Z</time>
      </trkpt>
      <trkpt lat="40.508852" lon="-6.222304">
        <ele>1217.74</ele>
        <time>2021-03-27T15:56:46Z</time>
      </trkpt>
      <trkpt lat="40.508847" lon="-6.222507">
        <ele>1217.28</ele>
        <time>2021-03-27T15:56:49Z</time>
      </trkpt>
      <trkpt lat="40.508872" lon="-6.223033">
        <ele>1213.56</ele>
        <time>2021-03-27T15:56:51Z</time>
      </trkpt>
      <trkpt lat="40.508959" lon="-6.223691">
        <ele>1209.94</ele>
        <time>2021-03-27T15:56:54Z</time>
      </trkpt>
      <trkpt lat="40.509023" lon="-6.224026">
        <ele>1207.58</ele>
        <time>2021-03-27T15:56:56Z</time>
      </trkpt>
      <trkpt lat="40.509248" lon="-6.224925">
        <ele>1202.66</ele>
        <time>2021-03-27T15:56:59Z</time>
      </trkpt>
      <trkpt lat="40.509356" lon="-6.225296">
        <ele>1198.41</ele>
        <time>2021-03-27T15:57:01Z</time>
      </trkpt>
      <trkpt lat="40.509443" lon="-6.225555">
        <ele>1194.98</ele>
        <time>2021-03-27T15:57:03Z</time>
      </trkpt>
      <trkpt lat="40.50965" lon="-6.22603">
        <ele>1192.66</ele>
        <time>2021-03-27T15:57:06Z</time>
      </trkpt>
      <trkpt lat="40.509924" lon="-6.226537">
        <ele>1190.62</ele>
        <time>2021-03-27T15:57:08Z</time>
      </trkpt>
      <trkpt lat="40.51007" lon="-6.226765">
        <ele>1190.71</ele>
        <time>2021-03-27T15:57:11Z</time>
      </trkpt>
      <trkpt lat="40.510546" lon="-6.227346">
        <ele>1189.21</ele>
        <time>2021-03-27T15:57:13Z</time>
      </trkpt>
      <trkpt lat="40.510993" lon="-6.227807">
        <ele>1187.56</ele>
        <time>2021-03-27T15:57:15Z</time>
      </trkpt>
      <trkpt lat="40.511129" lon="-6.227981">
        <ele>1188.47</ele>
        <time>2021-03-27T15:57:18Z</time>
      </trkpt>
      <trkpt lat="40.511245" lon="-6.228179">
        <ele>1188.77</ele>
        <time>2021-03-27T15:57:20Z</time>
      </trkpt>
      <trkpt lat="40.511289" lon="-6.228305">
        <ele>1188.73</ele>
        <time>2021-03-27T15:57:23Z</time>
      </trkpt>
      <trkpt lat="40.511303" lon="-6.228413">
        <ele>1188.75</ele>
        <time>2021-03-27T15:57:25Z</time>
      </trkpt>
      <trkpt lat="40.51129" lon="-6.228552">
        <ele>1188.21</ele>
        <time>2021-03-27T15:57:27Z</time>
      </trkpt>
      <trkpt lat="40.511209" lon="-6.228774">
        <ele>1186.23</ele>
        <time>2021-03-27T15:57:30Z</time>
      </trkpt>
      <trkpt lat="40.511024" lon="-6.229113">
        <ele>1181.71</ele>
        <time>2021-03-27T15:57:32Z</time>
      </trkpt>
      <trkpt lat="40.510851" lon="-6.229384">
        <ele>1178.61</ele>
        <time>2021-03-27T15:57:35Z</time>
      </trkpt>
      <trkpt lat="40.510667" lon="-6.229594">
        <ele>1176.09</ele>
        <time>2021-03-27T15:57:37Z</time>
      </trkpt>
      <trkpt lat="40.510249" lon="-6.229901">
        <ele>1169.81</ele>
        <time>2021-03-27T15:57:40Z</time>
      </trkpt>
      <trkpt lat="40.510189" lon="-6.230005">
        <ele>1169.8</ele>
        <time>2021-03-27T15:57:42Z</time>
      </trkpt>
      <trkpt lat="40.510146" lon="-6.230134">
        <ele>1169.68</ele>
        <time>2021-03-27T15:57:44Z</time>
      </trkpt>
      <trkpt lat="40.510111" lon="-6.230357">
        <ele>1169.41</ele>
        <time>2021-03-27T15:57:47Z</time>
      </trkpt>
      <trkpt lat="40.51009" lon="-6.230633">
        <ele>1168.16</ele>
        <time>2021-03-27T15:57:49Z</time>
      </trkpt>
      <trkpt lat="40.510053" lon="-6.231843">
        <ele>1162.46</ele>
        <time>2021-03-27T15:57:52Z</time>
      </trkpt>
      <trkpt lat="40.510089" lon="-6.232282">
        <ele>1161.44</ele>
        <time>2021-03-27T15:57:54Z</time>
      </trkpt>
      <trkpt lat="40.510239" lon="-6.233122">
        <ele>1160.13</ele>
        <time>2021-03-27T15:57:56Z</time>
      </trkpt>
      <trkpt lat="40.510347" lon="-6.23363">
        <ele>1158.76</ele>
        <time>2021-03-27T15:57:59Z</time>
      </trkpt>
      <trkpt lat="40.510417" lon="-6.233883">
        <ele>1157.1</ele>
        <time>2021-03-27T15:58:01Z</time>
      </trkpt>
      <trkpt lat="40.510481" lon="-6.23407">
        <ele>1155.48</ele>
        <time>2021-03-27T15:58:04Z</time>
      </trkpt>
      <trkpt lat="40.510577" lon="-6.234266">
        <ele>1153.61</ele>
        <time>2021-03-27T15:58:06Z</time>
      </trkpt>
      <trkpt lat="40.510659" lon="-6.234371">
        <ele>1153.0</ele>
        <time>2021-03-27T15:58:08Z</time>
      </trkpt>
      <trkpt lat="40.511076" lon="-6.234654">
        <ele>1153.29</ele>
        <time>2021-03-27T15:58:11Z</time>
      </trkpt>
      <trkpt lat="40.511222" lon="-6.234769">
        <ele>1151.92</ele>
        <time>2021-03-27T15:58:13Z</time>
      </trkpt>
      <trkpt lat="40.511366" lon="-6.234918">
        <ele>1150.9</ele>
        <time>2021-03-27T15:58:16Z</time>
      </trkpt>
      <trkpt lat="40.511423" lon="-6.235014">
        <ele>1150.54</ele>
        <time>2021-03-27T15:58:18Z</time>
      </trkpt>
      <trkpt lat="40.511693" lon="-6.235666">
        <ele>1147.97</ele>
        <time>2021-03-27T15:58:21Z</time>
      </trkpt>
      <trkpt lat="40.511895" lon="-6.236359">
        <ele>1144.81</ele>
        <time>2021-03-27T15:58:23Z</time>
      </trkpt>
      <trkpt lat="40.512072" lon="-6.236779">
        <ele>1142.42</ele>
        <time>2021-03-27T15:58:25Z</time>
      </trkpt>
      <trkpt lat="40.512186" lon="-6.237007">
        <ele>1141.88</ele>
        <time>2021-03-27T15:58:28Z</time>
      </trkpt>
      <trkpt lat="40.512338" lon="-6.237191">
        <ele>1141.8</ele>
        <time>2021-03-27T15:58:30Z</time>
      </trkpt>
      <trkpt lat="40.512435" lon="-6.237279">
        <ele>1141.29</ele>
        <time>2021-03-27T15:58:33Z</time>
      </trkpt>
      <trkpt lat="40.512698" lon="-6.237454">
        <ele>1144.77</ele>
        <time>2021-03-27T15:58:35Z</time>
      </trkpt>
      <trkpt lat="40.512753" lon="-6.237506">
        <ele>1145.28</ele>
        <time>2021-03-27T15:58:37Z</time>
      </trkpt>
      <trkpt lat="40.512782" lon="-6.237565">
        <ele>1145.21</ele>
        <time>2021-03-27T15:58:40Z</time>
      </trkpt>
      <trkpt lat="40.512801" lon="-6.237635">
        <ele>1144.82</ele>
        <time>2021-03-27T15:58:42Z</time>
      </trkpt>
      <trkpt lat="40.512802" lon="-6.237816">
        <ele>1142.75</ele>
        <time>2021-03-27T15:58:45Z</time>
      </trkpt>
      <trkpt lat="40.512747" lon="-6.238161">
        <ele>1139.94</ele>
        <time>2021-03-27T15:58:47Z</time>
      </trkpt>
      <trkpt lat="40.512594" lon="-6.238626">
        <ele>1134.38</ele>
        <time>2021-03-27T15:58:50Z</time>
      </trkpt>
      <trkpt lat="40.51256" lon="-6.238748">
        <ele>1132.91</ele>
        <time>2021-03-27T15:58:52Z</time>
      </trkpt>
      <trkpt lat="40.512551" lon="-6.238852">
        <ele>1132.61</ele>
        <time>2021-03-27T15:58:54Z</time>
      </trkpt>
      <trkpt lat="40.512574" lon="-6.239114">
        <ele>1132.36</ele>
        <time>2021-03-27T15:58:57Z</time>
      </trkpt>
      <trkpt lat="40.512605" lon="-6.23927">
        <ele>1132.28</ele>
        <time>2021-03-27T15:58:59Z</time>
      </trkpt>
      <trkpt lat="40.51268" lon="-6.239502">
        <ele>1132.09</ele>
        <time>2021-03-27T15:59:02Z</time>
      </trkpt>
      <trkpt lat="40.512772" lon="-6.239651">
        <ele>1131.39</ele>
        <time>2021-03-27T15:59:04Z</time>
      </trkpt>
      <trkpt lat="40.512843" lon="-6.239728">
        <ele>1131.2</ele>
        <time>2021-03-27T15:59:06Z</time>
      </trkpt>
      <trkpt lat="40.513142" lon="-6.239954">
        <ele>1130.35</ele>
        <time>2021-03-27T15:59:09Z</time>
      </trkpt>
      <trkpt lat="40.513531" lon="-6.240202">
        <ele>1133.03</ele>
        <time>2021-03-27T15:59:11Z</time>
      </trkpt>
      <trkpt lat="40.513597" lon="-6.240275">
        <ele>1132.61</ele>
        <time>2021-03-27T15:59:14Z</time>
      </trkpt>
      <trkpt lat="40.513689" lon="-6.240456">
        <ele>1129.82</ele>
        <time>2021-03-27T15:59:16Z</time>
      </trkpt>
      <trkpt lat="40.513823" lon="-6.240834">
        <ele>1129.63</ele>
        <time>2021-03-27T15:59:18Z</time>
      </trkpt>
      <trkpt lat="40.513823" lon="-6.240962">
        <ele>1130.11</ele>
        <time>2021-03-27T15:59:21Z</time>
      </trkpt>
      <trkpt lat="40.513777" lon="-6.24107">
        <ele>1128.83</ele>
        <time>2021-03-27T15:59:23Z</time>
      </trkpt>
      <trkpt lat="40.513527" lon="-6.24123">
        <ele>1122.13</ele>
        <time>2021-03-27T15:59:26Z</time>
      </trkpt>
      <trkpt lat="40.513203" lon="-6.241604">
        <ele>1118.42</ele>
        <time>2021-03-27T15:59:28Z</time>
      </trkpt>
      <trkpt lat="40.513016" lon="-6.241863">
        <ele>1118.06</ele>
        <time>2021-03-27T15:59:31Z</time>
      </trkpt>
      <trkpt lat="40.512558" lon="-6.242655">
        <ele>1114.77</ele>
        <time>2021-03-27T15:59:33Z</time>
      </trkpt>
      <trkpt lat="40.512324" lon="-6.243302">
        <ele>1113.4</ele>
        <time>2021-03-27T15:59:35Z</time>
      </trkpt>
      <trkpt lat="40.512159" lon="-6.243837">
        <ele>1112.19</ele>
        <time>2021-03-27T15:59:38Z</time>
      </trkpt>
      <trkpt lat="40.512109" lon="-6.244064">
        <ele>1111.45</ele>
        <time>2021-03-27T15:59:40Z</time>
      </trkpt>
      <trkpt lat="40.512021" lon="-6.244636">
        <ele>1106.8</ele>
        <time>2021-03-27T15:59:43Z</time>
      </trkpt>
      <trkpt lat="40.511953" lon="-6.24494">
        <ele>1104.27</ele>
        <time>2021-03-27T15:59:45Z</time>
      </trkpt>
      <trkpt lat="40.511934" lon="-6.245099">
        <ele>1103.35</ele>
        <time>2021-03-27T15:59:47Z</time>
      </trkpt>
      <trkpt lat="40.511926" lon="-6.245442">
        <ele>1102.51</ele>
        <time>2021-03-27T15:59:50Z</time>
      </trkpt>
      <trkpt lat="40.511974" lon="-6.245724">
        <ele>1102.11</ele>
        <time>2021-03-27T15:59:52Z</time>
      </trkpt>
      <trkpt lat="40.512151" lon="-6.246202">
        <ele>1102.5</ele>
        <time>2021-03-27T15:59:55Z</time>
      </trkpt>
      <trkpt lat="40.512543" lon="-6.246828">
        <ele>1098.66</ele>
        <time>2021-03-27T15:59:57Z</time>
      </trkpt>
      <trkpt lat="40.512728" lon="-6.247185">
        <ele>1095.39</ele>
        <time>2021-03-27T15:59:59Z</time>
      </trkpt>
      <trkpt lat="40.512981" lon="-6.247506">
        <ele>1093.97</ele>
        <time>2021-03-27T16:00:02Z</time>
      </trkpt>
      <trkpt lat="40.513141" lon="-6.247669">
        <ele>1092.68</ele>
        <time>2021-03-27T16:00:04Z</time>
      </trkpt>
      <trkpt lat="40.513328" lon="-6.247815">
        <ele>1091.83</ele>
        <time>2021-03-27T16:00:07Z</time>
      </trkpt>
      <trkpt lat="40.513407" lon="-6.247851">
        <ele>1092.14</ele>
        <time>2021-03-27T16:00:09Z</time>
      </trkpt>
      <trkpt lat="40.513648" lon="-6.247894">
        <ele>1094.6</ele>
        <time>2021-03-27T16:00:12Z</time>
      </trkpt>
      <trkpt lat="40.514038" lon="-6.247858">
        <ele>1102.89</ele>
        <time>2021-03-27T16:00:14Z</time>
      </trkpt>
      <trkpt lat="40.514098" lon="-6.247897">
        <ele>1104.29</ele>
        <time>2021-03-27T16:00:16Z</time>
      </trkpt>
      <trkpt lat="40.51412" lon="-6.247982">
        <ele>1103.98</ele>
        <time>2021-03-27T16:00:19Z</time>
      </trkpt>
      <trkpt lat="40.514095" lon="-6.248098">
        <ele>1101.62</ele>
        <time>2021-03-27T16:00:21Z</time>
      </trkpt>
      <trkpt lat="40.513919" lon="-6.248493">
        <ele>1094.41</ele>
        <time>2021-03-27T16:00:24Z</time>
      </trkpt>
      <trkpt lat="40.513719" lon="-6.249224">
        <ele>1095.42</ele>
        <time>2021-03-27T16:00:26Z</time>
      </trkpt>
      <trkpt lat="40.513631" lon="-6.249388">
        <ele>1096.14</ele>
        <time>2021-03-27T16:00:28Z</time>
      </trkpt>
      <trkpt lat="40.513567" lon="-6.249437">
        <ele>1095.71</ele>
        <time>2021-03-27T16:00:31Z</time>
      </trkpt>
      <trkpt lat="40.513114" lon="-6.249609">
        <ele>1090.48</ele>
        <time>2021-03-27T16:00:33Z</time>
      </trkpt>
      <trkpt lat="40.512854" lon="-6.249777">
        <ele>1089.62</ele>
        <time>2021-03-27T16:00:36Z</time>
      </trkpt>
      <trkpt lat="40.512732" lon="-6.24983">
        <ele>1088.8</ele>
        <time>2021-03-27T16:00:38Z</time>
      </trkpt>
      <trkpt lat="40.512436" lon="-6.249947">
        <ele>1089.63</ele>
        <time>2021-03-27T16:00:41Z</time>
      </trkpt>
      <trkpt lat="40.512166" lon="-6.250023">
        <ele>1090.02</ele>
        <time>2021-03-27T16:00:43Z</time>
      </trkpt>
      <trkpt lat="40.511627" lon="-6.250275">
        <ele>1086.18</ele>
        <time>2021-03-27T16:00:45Z</time>
      </trkpt>
      <trkpt lat="40.511391" lon="-6.250354">
        <ele>1084.8</ele>
        <time>2021-03-27T16:00:48Z</time>
      </trkpt>
      <trkpt lat="40.511228" lon="-6.250394">
        <ele>1083.43</ele>
        <time>2021-03-27T16:00:50Z</time>
      </trkpt>
      <trkpt lat="40.510503" lon="-6.250475">
        <ele>1075.78</ele>
        <time>2021-03-27T16:00:53Z</time>
      </trkpt>
      <trkpt lat="40.509815" lon="-6.250649">
        <ele>1075.35</ele>
        <time>2021-03-27T16:00:55Z</time>
      </trkpt>
      <trkpt lat="40.508992" lon="-6.250729">
        <ele>1069.58</ele>
        <time>2021-03-27T16:00:57Z</time>
      </trkpt>
      <trkpt lat="40.508877" lon="-6.250756">
        <ele>1069.22</ele>
        <time>2021-03-27T16:01:00Z</time>
      </trkpt>
      <trkpt lat="40.508722" lon="-6.250844">
        <ele>1069.41</ele>
        <time>2021-03-27T16:01:02Z</time>
      </trkpt>
      <trkpt lat="40.508489" lon="-6.251052">
        <ele>1069.3</ele>
        <time>2021-03-27T16:01:05Z</time>
      </trkpt>
      <trkpt lat="40.508148" lon="-6.25128">
        <ele>1066.02</ele>
        <time>2021-03-27T16:01:07Z</time>
      </trkpt>
      <trkpt lat="40.507985" lon="-6.251518">
        <ele>1065.15</ele>
        <time>2021-03-27T16:01:09Z</time>
      </trkpt>
      <trkpt lat="40.507699" lon="-6.252177">
        <ele>1063.27</ele>
        <time>2021-03-27T16:01:12Z</time>
      </trkpt>
      <trkpt lat="40.507658" lon="-6.252483">
        <ele>1062.17</ele>
        <time>2021-03-27T16:01:14Z</time>
      </trkpt>
      <trkpt lat="40.507664" lon="-6.252716">
        <ele>1061.68</ele>
        <time>2021-03-27T16:01:17Z</time>
      </trkpt>
      <trkpt lat="40.507689" lon="-6.252894">
        <ele>1061.66</ele>
        <time>2021-03-27T16:01:19Z</time>
      </trkpt>
      <trkpt lat="40.507772" lon="-6.253213">
        <ele>1060.8</ele>
        <time>2021-03-27T16:01:22Z</time>
      </trkpt>
      <trkpt lat="40.508059" lon="-6.253963">
        <ele>1059.25</ele>
        <time>2021-03-27T16:01:24Z</time>
      </trkpt>
      <trkpt lat="40.508211" lon="-6.254476">
        <ele>1055.27</ele>
        <time>2021-03-27T16:01:26Z</time>
      </trkpt>
      <trkpt lat="40.508256" lon="-6.254573">
        <ele>1054.42</ele>
        <time>2021-03-27T16:01:29Z</time>
      </trkpt>
      <trkpt lat="40.508372" lon="-6.254703">
        <ele>1053.49</ele>
        <time>2021-03-27T16:01:31Z</time>
      </trkpt>
      <trkpt lat="40.508446" lon="-6.254745">
        <ele>1052.78</ele>
        <time>2021-03-27T16:01:34Z</time>
      </trkpt>
      <trkpt lat="40.508663" lon="-6.254791">
        <ele>1052.65</ele>
        <time>2021-03-27T16:01:36Z</time>
      </trkpt>
      <trkpt lat="40.509327" lon="-6.25498">
        <ele>1050.54</ele>
        <time>2021-03-27T16:01:38Z</time>
      </trkpt>
      <trkpt lat="40.509416" lon="-6.255042">
        <ele>1050.48</ele>
        <time>2021-03-27T16:01:41Z</time>
      </trkpt>
      <trkpt lat="40.509461" lon="-6.255128">
        <ele>1050.53</ele>
        <time>2021-03-27T16:01:43Z</time>
      </trkpt>
      <trkpt lat="40.509465" lon="-6.255417">
        <ele>1050.06</ele>
        <time>2021-03-27T16:01:46Z</time>
      </trkpt>
      <trkpt lat="40.509437" lon="-6.255594">
        <ele>1050.17</ele>
        <time>2021-03-27T16:01:48Z</time>
      </trkpt>
      <trkpt lat="40.509405" lon="-6.255638">
        <ele>1050.03</ele>
        <time>2021-03-27T16:01:50Z</time>
      </trkpt>
      <trkpt lat="40.50922" lon="-6.255758">
        <ele>1048.22</ele>
        <time>2021-03-27T16:01:53Z</time>
      </trkpt>
      <trkpt lat="40.509154" lon="-6.25583">
        <ele>1047.66</ele>
        <time>2021-03-27T16:01:55Z</time>
      </trkpt>
      <trkpt lat="40.509059" lon="-6.255994">
        <ele>1045.86</ele>
        <time>2021-03-27T16:01:58Z</time>
      </trkpt>
      <trkpt lat="40.508964" lon="-6.256213">
        <ele>1044.07</ele>
        <time>2021-03-27T16:02:00Z</time>
      </trkpt>
      <trkpt lat="40.508851" lon="-6.256563">
        <ele>1041.72</ele>
        <time>2021-03-27T16:02:03Z</time>
      </trkpt>
      <trkpt lat="40.50882" lon="-6.256733">
        <ele>1041.13</ele>
        <time>2021-03-27T16:02:05Z</time>
      </trkpt>
      <trkpt lat="40.508821" lon="-6.256821">
        <ele>1041.31</ele>
        <time>2021-03-27T16:02:07Z</time>
      </trkpt>
      <trkpt lat="40.508877" lon="-6.257101">
        <ele>1042.17</ele>
        <time>2021-03-27T16:02:10Z</time>
      </trkpt>
      <trkpt lat="40.50901" lon="-6.257478">
        <ele>1040.01</ele>
        <time>2021-03-27T16:02:12Z</time>
      </trkpt>
      <trkpt lat="40.509472" lon="-6.258082">
        <ele>1037.2</ele>
        <time>2021-03-27T16:02:15Z</time>
      </trkpt>
      <trkpt lat="40.509755" lon="-6.258506">
        <ele>1033.76</ele>
        <time>2021-03-27T16:02:17Z</time>
      </trkpt>
      <trkpt lat="40.509986" lon="-6.258688">
        <ele>1033.39</ele>
        <time>2021-03-27T16:02:19Z</time>
      </trkpt>
      <trkpt lat="40.510118" lon="-6.25876">
        <ele>1034.47</ele>
        <time>2021-03-27T16:02:22Z</time>
      </trkpt>
      <trkpt lat="40.510271" lon="-6.25893">
        <ele>1035.56</ele>
        <time>2021-03-27T16:02:24Z</time>
      </trkpt>
      <trkpt lat="40.510286" lon="-6.258983">
        <ele>1035.55</ele>
        <time>2021-03-27T16:02:27Z</time>
      </trkpt>
      <trkpt lat="40.510287" lon="-6.259038">
        <ele>1035.19</ele>
        <time>2021-03-27T16:02:29Z</time>
      </trkpt>
      <trkpt lat="40.510259" lon="-6.25915">
        <ele>1033.66</ele>
        <time>2021-03-27T16:02:32Z</time>
      </trkpt>
      <trkpt lat="40.510035" lon="-6.259754">
        <ele>1029.66</ele>
        <time>2021-03-27T16:02:34Z</time>
      </trkpt>
      <trkpt lat="40.509907" lon="-6.25997">
        <ele>1027.44</ele>
        <time>2021-03-27T16:02:36Z</time>
      </trkpt>
      <trkpt lat="40.509661" lon="-6.2602">
        <ele>1024.79</ele>
        <time>2021-03-27T16:02:39Z</time>
      </trkpt>
      <trkpt lat="40.509311" lon="-6.260602">
        <ele>1022.05</ele>
        <time>2021-03-27T16:02:41Z</time>
      </trkpt>
      <trkpt lat="40.509245" lon="-6.260761">
        <ele>1021.65</ele>
        <time>2021-03-27T16:02:44Z</time>
      </trkpt>
      <trkpt lat="40.509192" lon="-6.260966">
        <ele>1021.17</ele>
        <time>2021-03-27T16:02:46Z</time>
      </trkpt>
      <trkpt lat="40.509173" lon="-6.261188">
        <ele>1020.34</ele>
        <time>2021-03-27T16:02:48Z</time>
      </trkpt>
      <trkpt lat="40.509173" lon="-6.261415">
        <ele>1018.02</ele>
        <time>2021-03-27T16:02:51Z</time>
      </trkpt>
      <trkpt lat="40.509188" lon="-6.261635">
        <ele>1016.98</ele>
        <time>2021-03-27T16:02:53Z</time>
      </trkpt>
      <trkpt lat="40.509237" lon="-6.261936">
        <ele>1017.31</ele>
        <time>2021-03-27T16:02:56Z</time>
      </trkpt>
      <trkpt lat="40.509227" lon="-6.262047">
        <ele>1017.16</ele>
        <time>2021-03-27T16:02:58Z</time>
      </trkpt>
      <trkpt lat="40.50917" lon="-6.262153">
        <ele>1015.84</ele>
        <time>2021-03-27T16:03:00Z</time>
      </trkpt>
      <trkpt lat="40.508879" lon="-6.262544">
        <ele>1011.62</ele>
        <time>2021-03-27T16:03:03Z</time>
      </trkpt>
      <trkpt lat="40.508791" lon="-6.262814">
        <ele>1009.24</ele>
        <time>2021-03-27T16:03:05Z</time>
      </trkpt>
      <trkpt lat="40.508788" lon="-6.263019">
        <ele>1009.18</ele>
        <time>2021-03-27T16:03:08Z</time>
      </trkpt>
      <trkpt lat="40.508801" lon="-6.263115">
        <ele>1009.63</ele>
        <time>2021-03-27T16:03:10Z</time>
      </trkpt>
      <trkpt lat="40.508838" lon="-6.263228">
        <ele>1010.7</ele>
        <time>2021-03-27T16:03:13Z</time>
      </trkpt>
      <trkpt lat="40.509137" lon="-6.263709">
        <ele>1017.07</ele>
        <time>2021-03-27T16:03:15Z</time>
      </trkpt>
      <trkpt lat="40.509141" lon="-6.263825">
        <ele>1017.56</ele>
        <time>2021-03-27T16:03:17Z</time>
      </trkpt>
      <trkpt lat="40.509123" lon="-6.263867">
        <ele>1017.59</ele>
        <time>2021-03-27T16:03:20Z</time>
      </trkpt>
      <trkpt lat="40.509093" lon="-6.263891">
        <ele>1017.48</ele>
        <time>2021-03-27T16:03:22Z</time>
      </trkpt>
      <trkpt lat="40.509051" lon="-6.263892">
        <ele>1017.19</ele>
        <time>2021-03-27T16:03:25Z</time>
      </trkpt>
      <trkpt lat="40.508497" lon="-6.263599">
        <ele>1007.22</ele>
        <time>2021-03-27T16:03:27Z</time>
      </trkpt>
      <trkpt lat="40.508019" lon="-6.263575">
        <ele>997.09</ele>
        <time>2021-03-27T16:03:29Z</time>
      </trkpt>
      <trkpt lat="40.507738" lon="-6.263482">
        <ele>992.53</ele>
        <time>2021-03-27T16:03:32Z</time>
      </trkpt>
      <trkpt lat="40.507608" lon="-6.263485">
        <ele>992.31</ele>
        <time>2021-03-27T16:03:34Z</time>
      </trkpt>
      <trkpt lat="40.507267" lon="-6.263661">
        <ele>993.41</ele>
        <time>2021-03-27T16:03:37Z</time>
      </trkpt>
      <trkpt lat="40.50714" lon="-6.263785">
        <ele>993.67</ele>
        <time>2021-03-27T16:03:39Z</time>
      </trkpt>
      <trkpt lat="40.506846" lon="-6.264277">
        <ele>993.98</ele>
        <time>2021-03-27T16:03:41Z</time>
      </trkpt>
      <trkpt lat="40.506727" lon="-6.264446">
        <ele>992.89</ele>
        <time>2021-03-27T16:03:44Z</time>
      </trkpt>
      <trkpt lat="40.5065" lon="-6.264618">
        <ele>991.1</ele>
        <time>2021-03-27T16:03:46Z</time>
      </trkpt>
      <trkpt lat="40.506243" lon="-6.26471">
        <ele>988.32</ele>
        <time>2021-03-27T16:03:49Z</time>
      </trkpt>
      <trkpt lat="40.50596" lon="-6.264859">
        <ele>987.11</ele>
        <time>2021-03-27T16:03:51Z</time>
      </trkpt>
      <trkpt lat="40.505608" lon="-6.265101">
        <ele>984.74</ele>
        <time>2021-03-27T16:03:54Z</time>
      </trkpt>
      <trkpt lat="40.505192" lon="-6.265497">
        <ele>981.5</ele>
        <time>2021-03-27T16:03:56Z</time>
      </trkpt>
      <trkpt lat="40.504838" lon="-6.265873">
        <ele>978.74</ele>
        <time>2021-03-27T16:03:58Z</time>
      </trkpt>
      <trkpt lat="40.50454" lon="-6.266087">
        <ele>975.23</ele>
        <time>2021-03-27T16:04:01Z</time>
      </trkpt>
      <trkpt lat="40.50439" lon="-6.266239">
        <ele>974.24</ele>
        <time>2021-03-27T16:04:03Z</time>
      </trkpt>
      <trkpt lat="40.504285" lon="-6.266379">
        <ele>973.66</ele>
        <time>2021-03-27T16:04:06Z</time>
      </trkpt>
      <trkpt lat="40.50412" lon="-6.266724">
        <ele>969.91</ele>
        <time>2021-03-27T16:04:08Z</time>
      </trkpt>
      <trkpt lat="40.50406" lon="-6.266906">
        <ele>967.74</ele>
        <time>2021-03-27T16:04:10Z</time>
      </trkpt>
      <trkpt lat="40.504053" lon="-6.267205">
        <ele>966.04</ele>
        <time>2021-03-27T16:04:13Z</time>
      </trkpt>
      <trkpt lat="40.50413" lon="-6.26831">
        <ele>958.71</ele>
        <time>2021-03-27T16:04:15Z</time>
      </trkpt>
      <trkpt lat="40.504151" lon="-6.268398">
        <ele>958.32</ele>
        <time>2021-03-27T16:04:18Z</time>
      </trkpt>
      <trkpt lat="40.50451" lon="-6.269383">
        <ele>955.79</ele>
        <time>2021-03-27T16:04:20Z</time>
      </trkpt>
      <trkpt lat="40.504589" lon="-6.269922">
        <ele>954.56</ele>
        <time>2021-03-27T16:04:23Z</time>
      </trkpt>
      <trkpt lat="40.504587" lon="-6.270071">
        <ele>954.92</ele>
        <time>2021-03-27T16:04:25Z</time>
      </trkpt>
      <trkpt lat="40.504528" lon="-6.270157">
        <ele>954.86</ele>
        <time>2021-03-27T16:04:27Z</time>
      </trkpt>
      <trkpt lat="40.504226" lon="-6.270392">
        <ele>954.48</ele>
        <time>2021-03-27T16:04:30Z</time>
      </trkpt>
      <trkpt lat="40.504185" lon="-6.270491">
        <ele>955.33</ele>
        <time>2021-03-27T16:04:32Z</time>
      </trkpt>
      <trkpt lat="40.504135" lon="-6.270701">
        <ele>956.99</ele>
        <time>2021-03-27T16:04:35Z</time>
      </trkpt>
      <trkpt lat="40.504086" lon="-6.270773">
        <ele>957.34</ele>
        <time>2021-03-27T16:04:37Z</time>
      </trkpt>
      <trkpt lat="40.503992" lon="-6.27083">
        <ele>957.35</ele>
        <time>2021-03-27T16:04:39Z</time>
      </trkpt>
      <trkpt lat="40.503941" lon="-6.270995">
        <ele>958.46</ele>
        <time>2021-03-27T16:04:42Z</time>
      </trkpt>
      <trkpt lat="40.503924" lon="-6.27122">
        <ele>959.7</ele>
        <time>2021-03-27T16:04:44Z</time>
      </trkpt>
      <trkpt lat="40.503968" lon="-6.271644">
        <ele>961.77</ele>
        <time>2021-03-27T16:04:47Z</time>
      </trkpt>
      <trkpt lat="40.504065" lon="-6.271875">
        <ele>963.18</ele>
        <time>2021-03-27T16:04:49Z</time>
      </trkpt>
      <trkpt lat="40.504179" lon="-6.271964">
        <ele>963.97</ele>
        <time>2021-03-27T16:04:51Z</time>
      </trkpt>
      <trkpt lat="40.504772" lon="-6.272345">
        <ele>966.74</ele>
        <time>2021-03-27T16:04:54Z</time>
      </trkpt>
      <trkpt lat="40.504894" lon="-6.27245">
        <ele>967.72</ele>
        <time>2021-03-27T16:04:56Z</time>
      </trkpt>
      <trkpt lat="40.505199" lon="-6.272811">
        <ele>971.23</ele>
        <time>2021-03-27T16:04:59Z</time>
      </trkpt>
      <trkpt lat="40.505352" lon="-6.272922">
        <ele>972.64</ele>
        <time>2021-03-27T16:05:01Z</time>
      </trkpt>
      <trkpt lat="40.505549" lon="-6.27302">
        <ele>975.15</ele>
        <time>2021-03-27T16:05:04Z</time>
      </trkpt>
      <trkpt lat="40.505747" lon="-6.273246">
        <ele>977.07</ele>
        <time>2021-03-27T16:05:06Z</time>
      </trkpt>
      <trkpt lat="40.505786" lon="-6.273362">
        <ele>977.56</ele>
        <time>2021-03-27T16:05:08Z</time>
      </trkpt>
      <trkpt lat="40.505792" lon="-6.27348">
        <ele>977.93</ele>
        <time>2021-03-27T16:05:11Z</time>
      </trkpt>
      <trkpt lat="40.505773" lon="-6.273599">
        <ele>977.88</ele>
        <time>2021-03-27T16:05:13Z</time>
      </trkpt>
      <trkpt lat="40.505542" lon="-6.275009">
        <ele>983.82</ele>
        <time>2021-03-27T16:05:16Z</time>
      </trkpt>
      <trkpt lat="40.50554" lon="-6.275138">
        <ele>984.74</ele>
        <time>2021-03-27T16:05:18Z</time>
      </trkpt>
      <trkpt lat="40.505565" lon="-6.275258">
        <ele>985.97</ele>
        <time>2021-03-27T16:05:20Z</time>
      </trkpt>
      <trkpt lat="40.50563" lon="-6.275341">
        <ele>987.14</ele>
        <time>2021-03-27T16:05:23Z</time>
      </trkpt>
      <trkpt lat="40.505721" lon="-6.275404">
        <ele>988.15</ele>
        <time>2021-03-27T16:05:25Z</time>
      </trkpt>
      <trkpt lat="40.507922" lon="-6.275855">
        <ele>1002.25</ele>
        <time>2021-03-27T16:05:28Z</time>
      </trkpt>
      <trkpt lat="40.508078" lon="-6.275845">
        <ele>1003.83</ele>
        <time>2021-03-27T16:05:30Z</time>
      </trkpt>
      <trkpt lat="40.508253" lon="-6.275777">
        <ele>1004.95</ele>
        <time>2021-03-27T16:05:32Z</time>
      </trkpt>
      <trkpt lat="40.508364" lon="-6.275694">
        <ele>1006.12</ele>
        <time>2021-03-27T16:05:35Z</time>
      </trkpt>
      <trkpt lat="40.508441" lon="-6.275601">
        <ele>1006.7</ele>
        <time>2021-03-27T16:05:37Z</time>
      </trkpt>
      <trkpt lat="40.508496" lon="-6.275453">
        <ele>1008.78</ele>
        <time>2021-03-27T16:05:40Z</time>
      </trkpt>
      <trkpt lat="40.508794" lon="-6.273941">
        <ele>1013.57</ele>
        <time>2021-03-27T16:05:42Z</time>
      </trkpt>
      <trkpt lat="40.508844" lon="-6.273884">
        <ele>1014.05</ele>
        <time>2021-03-27T16:05:45Z</time>
      </trkpt>
      <trkpt lat="40.50891" lon="-6.27386">
        <ele>1014.45</ele>
        <time>2021-03-27T16:05:47Z</time>
      </trkpt>
      <trkpt lat="40.508997" lon="-6.273878">
        <ele>1014.86</ele>
        <time>2021-03-27T16:05:49Z</time>
      </trkpt>
      <trkpt lat="40.509123" lon="-6.273948">
        <ele>1015.22</ele>
        <time>2021-03-27T16:05:52Z</time>
      </trkpt>
      <trkpt lat="40.5092" lon="-6.274052">
        <ele>1015.14</ele>
        <time>2021-03-27T16:05:54Z</time>
      </trkpt>
      <trkpt lat="40.509443" lon="-6.274498">
        <ele>1013.21</ele>
        <time>2021-03-27T16:05:57Z</time>
      </trkpt>
      <trkpt lat="40.50952" lon="-6.274571">
        <ele>1013.79</ele>
        <time>2021-03-27T16:05:59Z</time>
      </trkpt>
      <trkpt lat="40.509687" lon="-6.27468">
        <ele>1016.47</ele>
        <time>2021-03-27T16:06:01Z</time>
      </trkpt>
      <trkpt lat="40.509798" lon="-6.274799">
        <ele>1017.05</ele>
        <time>2021-03-27T16:06:04Z</time>
      </trkpt>
      <trkpt lat="40.509911" lon="-6.275041">
        <ele>1015.65</ele>
        <time>2021-03-27T16:06:06Z</time>
      </trkpt>
      <trkpt lat="40.510293" lon="-6.275619">
        <ele>1019.87</ele>
        <time>2021-03-27T16:06:09Z</time>
      </trkpt>
      <trkpt lat="40.510669" lon="-6.276251">
        <ele>1022.05</ele>
        <time>2021-03-27T16:06:11Z</time>
      </trkpt>
      <trkpt lat="40.510804" lon="-6.276418">
        <ele>1023.95</ele>
        <time>2021-03-27T16:06:14Z</time>
      </trkpt>
      <trkpt lat="40.5111" lon="-6.276683">
        <ele>1028.59</ele>
        <time>2021-03-27T16:06:16Z</time>
      </trkpt>
      <trkpt lat="40.511283" lon="-6.27697">
        <ele>1031.76</ele>
        <time>2021-03-27T16:06:18Z</time>
      </trkpt>
      <trkpt lat="40.511338" lon="-6.277129">
        <ele>1032.21</ele>
        <time>2021-03-27T16:06:21Z</time>
      </trkpt>
      <trkpt lat="40.511291" lon="-6.277663">
        <ele>1028.82</ele>
        <time>2021-03-27T16:06:23Z</time>
      </trkpt>
      <trkpt lat="40.511307" lon="-6.277842">
        <ele>1029.74</ele>
        <time>2021-03-27T16:06:26Z</time>
      </trkpt>
      <trkpt lat="40.511395" lon="-6.278394">
        <ele>1033.77</ele>
        <time>2021-03-27T16:06:28Z</time>
      </trkpt>
      <trkpt lat="40.511448" lon="-6.278839">
        <ele>1032.27</ele>
        <time>2021-03-27T16:06:30Z</time>
      </trkpt>
      <trkpt lat="40.51149" lon="-6.279048">
        <ele>1031.92</ele>
        <time>2021-03-27T16:06:33Z</time>
      </trkpt>
      <trkpt lat="40.511543" lon="-6.279197">
        <ele>1032.16</ele>
        <time>2021-03-27T16:06:35Z</time>
      </trkpt>
      <trkpt lat="40.511709" lon="-6.27952">
        <ele>1034.25</ele>
        <time>2021-03-27T16:06:38Z</time>
      </trkpt>
      <trkpt lat="40.51175" lon="-6.279712">
        <ele>1035.03</ele>
        <time>2021-03-27T16:06:40Z</time>
      </trkpt>
      <trkpt lat="40.511802" lon="-6.280164">
        <ele>1036.04</ele>
        <time>2021-03-27T16:06:42Z</time>
      </trkpt>
      <trkpt lat="40.51194" lon="-6.280548">
        <ele>1040.85</ele>
        <time>2021-03-27T16:06:45Z</time>
      </trkpt>
      <trkpt lat="40.511935" lon="-6.280742">
        <ele>1040.04</ele>
        <time>2021-03-27T16:06:47Z</time>
      </trkpt>
      <trkpt lat="40.511608" lon="-6.282473">
        <ele>1043.68</ele>
        <time>2021-03-27T16:06:50Z</time>
      </trkpt>
      <trkpt lat="40.511595" lon="-6.282659">
        <ele>1044.13</ele>
        <time>2021-03-27T16:06:52Z</time>
      </trkpt>
      <trkpt lat="40.511685" lon="-6.283157">
        <ele>1046.44</ele>
        <time>2021-03-27T16:06:55Z</time>
      </trkpt>
      <trkpt lat="40.511763" lon="-6.283364">
        <ele>1047.93</ele>
        <time>2021-03-27T16:06:57Z</time>
      </trkpt>
      <trkpt lat="40.511884" lon="-6.283598">
        <ele>1049.0</ele>
        <time>2021-03-27T16:06:59Z</time>
      </trkpt>
      <trkpt lat="40.511961" lon="-6.28371">
        <ele>1049.71</ele>
        <time>2021-03-27T16:07:02Z</time>
      </trkpt>
      <trkpt lat="40.512085" lon="-6.283836">
        <ele>1051.92</ele>
        <time>2021-03-27T16:07:04Z</time>
      </trkpt>
      <trkpt lat="40.512387" lon="-6.284049">
        <ele>1053.88</ele>
        <time>2021-03-27T16:07:07Z</time>
      </trkpt>
      <trkpt lat="40.512622" lon="-6.28426">
        <ele>1053.27</ele>
        <time>2021-03-27T16:07:09Z</time>
      </trkpt>
      <trkpt lat="40.512943" lon="-6.284502">
        <ele>1058.22</ele>
        <time>2021-03-27T16:07:11Z</time>
      </trkpt>
      <trkpt lat="40.513093" lon="-6.284649">
        <ele>1060.27</ele>
        <time>2021-03-27T16:07:14Z</time>
      </trkpt>
      <trkpt lat="40.513279" lon="-6.284926">
        <ele>1057.73</ele>
        <time>2021-03-27T16:07:16Z</time>
      </trkpt>
      <trkpt lat="40.513669" lon="-6.285261">
        <ele>1063.79</ele>
        <time>2021-03-27T16:07:19Z</time>
      </trkpt>
      <trkpt lat="40.513716" lon="-6.285354">
        <ele>1064.86</ele>
        <time>2021-03-27T16:07:21Z</time>
      </trkpt>
      <trkpt lat="40.513742" lon="-6.285455">
        <ele>1065.44</ele>
        <time>2021-03-27T16:07:23Z</time>
      </trkpt>
      <trkpt lat="40.513718" lon="-6.285839">
        <ele>1063.85</ele>
        <time>2021-03-27T16:07:26Z</time>
      </trkpt>
      <trkpt lat="40.513745" lon="-6.286114">
        <ele>1063.81</ele>
        <time>2021-03-27T16:07:28Z</time>
      </trkpt>
      <trkpt lat="40.513807" lon="-6.286441">
        <ele>1064.98</ele>
        <time>2021-03-27T16:07:31Z</time>
      </trkpt>
      <trkpt lat="40.513907" lon="-6.286759">
        <ele>1067.02</ele>
        <time>2021-03-27T16:07:33Z</time>
      </trkpt>
      <trkpt lat="40.514042" lon="-6.28711">
        <ele>1069.05</ele>
        <time>2021-03-27T16:07:36Z</time>
      </trkpt>
      <trkpt lat="40.514447" lon="-6.288893">
        <ele>1074.07</ele>
        <time>2021-03-27T16:07:38Z</time>
      </trkpt>
      <trkpt lat="40.514608" lon="-6.289305">
        <ele>1076.86</ele>
        <time>2021-03-27T16:07:40Z</time>
      </trkpt>
      <trkpt lat="40.51474" lon="-6.289538">
        <ele>1078.95</ele>
        <time>2021-03-27T16:07:43Z</time>
      </trkpt>
      <trkpt lat="40.514863" lon="-6.289687">
        <ele>1081.97</ele>
        <time>2021-03-27T16:07:45Z</time>
      </trkpt>
      <trkpt lat="40.515259" lon="-6.290037">
        <ele>1084.84</ele>
        <time>2021-03-27T16:07:48Z</time>
      </trkpt>
      <trkpt lat="40.515381" lon="-6.290112">
        <ele>1084.18</ele>
        <time>2021-03-27T16:07:50Z</time>
      </trkpt>
      <trkpt lat="40.515726" lon="-6.290177">
        <ele>1089.03</ele>
        <time>2021-03-27T16:07:52Z</time>
      </trkpt>
      <trkpt lat="40.515964" lon="-6.290262">
        <ele>1089.06</ele>
        <time>2021-03-27T16:07:55Z</time>
      </trkpt>
      <trkpt lat="40.51622" lon="-6.290262">
        <ele>1094.33</ele>
        <time>2021-03-27T16:07:57Z</time>
      </trkpt>
      <trkpt lat="40.516343" lon="-6.290312">
        <ele>1095.43</ele>
        <time>2021-03-27T16:08:00Z</time>
      </trkpt>
      <trkpt lat="40.516432" lon="-6.290428">
        <ele>1090.12</ele>
        <time>2021-03-27T16:08:02Z</time>
      </trkpt>
      <trkpt lat="40.516556" lon="-6.29049">
        <ele>1089.01</ele>
        <time>2021-03-27T16:08:05Z</time>
      </trkpt>
      <trkpt lat="40.516783" lon="-6.290558">
        <ele>1090.4</ele>
        <time>2021-03-27T16:08:07Z</time>
      </trkpt>
      <trkpt lat="40.517006" lon="-6.290822">
        <ele>1083.79</ele>
        <time>2021-03-27T16:08:09Z</time>
      </trkpt>
      <trkpt lat="40.517146" lon="-6.290913">
        <ele>1082.97</ele>
        <time>2021-03-27T16:08:12Z</time>
      </trkpt>
      <trkpt lat="40.517308" lon="-6.290957">
        <ele>1084.59</ele>
        <time>2021-03-27T16:08:14Z</time>
      </trkpt>
      <trkpt lat="40.517614" lon="-6.290956">
        <ele>1091.56</ele>
        <time>2021-03-27T16:08:17Z</time>
      </trkpt>
      <trkpt lat="40.517878" lon="-6.290906">
        <ele>1098.48</ele>
        <time>2021-03-27T16:08:19Z</time>
      </trkpt>
      <trkpt lat="40.518079" lon="-6.290886">
        <ele>1101.57</ele>
        <time>2021-03-27T16:08:21Z</time>
      </trkpt>
      <trkpt lat="40.518294" lon="-6.290908">
        <ele>1099.52</ele>
        <time>2021-03-27T16:08:24Z</time>
      </trkpt>
      <trkpt lat="40.518495" lon="-6.290851">
        <ele>1103.14</ele>
        <time>2021-03-27T16:08:26Z</time>
      </trkpt>
      <trkpt lat="40.518594" lon="-6.290858">
        <ele>1104.0</ele>
        <time>2021-03-27T16:08:29Z</time>
      </trkpt>
      <trkpt lat="40.518761" lon="-6.290965">
        <ele>1102.57</ele>
        <time>2021-03-27T16:08:31Z</time>
      </trkpt>
      <trkpt lat="40.519218" lon="-6.291092">
        <ele>1108.53</ele>
        <time>2021-03-27T16:08:33Z</time>
      </trkpt>
      <trkpt lat="40.519414" lon="-6.291222">
        <ele>1105.58</ele>
        <time>2021-03-27T16:08:36Z</time>
      </trkpt>
      <trkpt lat="40.519702" lon="-6.291476">
        <ele>1105.24</ele>
        <time>2021-03-27T16:08:38Z</time>
      </trkpt>
      <trkpt lat="40.519915" lon="-6.291572">
        <ele>1108.82</ele>
        <time>2021-03-27T16:08:41Z</time>
      </trkpt>
      <trkpt lat="40.520094" lon="-6.291618">
        <ele>1111.82</ele>
        <time>2021-03-27T16:08:43Z</time>
      </trkpt>
      <trkpt lat="40.520246" lon="-6.291598">
        <ele>1116.24</ele>
        <time>2021-03-27T16:08:46Z</time>
      </trkpt>
      <trkpt lat="40.520382" lon="-6.291541">
        <ele>1118.13</ele>
        <time>2021-03-27T16:08:48Z</time>
      </trkpt>
      <trkpt lat="40.520506" lon="-6.291426">
        <ele>1121.19</ele>
        <time>2021-03-27T16:08:50Z</time>
      </trkpt>
      <trkpt lat="40.520628" lon="-6.291261">
        <ele>1127.08</ele>
        <time>2021-03-27T16:08:53Z</time>
      </trkpt>
      <trkpt lat="40.520701" lon="-6.29122">
        <ele>1128.55</ele>
        <time>2021-03-27T16:08:55Z</time>
      </trkpt>
      <trkpt lat="40.520804" lon="-6.291256">
        <ele>1127.31</ele>
        <time>2021-03-27T16:08:58Z</time>
      </trkpt>
      <trkpt lat="40.520855" lon="-6.291323">
        <ele>1125.72</ele>
        <time>2021-03-27T16:09:00Z</time>
      </trkpt>
      <trkpt lat="40.52092" lon="-6.291555">
        <ele>1121.27</ele>
        <time>2021-03-27T16:09:02Z</time>
      </trkpt>
      <trkpt lat="40.521003" lon="-6.291749">
        <ele>1120.02</ele>
        <time>2021-03-27T16:09:05Z</time>
      </trkpt>
      <trkpt lat="40.521111" lon="-6.291907">
        <ele>1121.69</ele>
        <time>2021-03-27T16:09:07Z</time>
      </trkpt>
      <trkpt lat="40.521342" lon="-6.292156">
        <ele>1126.21</ele>
        <time>2021-03-27T16:09:10Z</time>
      </trkpt>
      <trkpt lat="40.521368" lon="-6.292247">
        <ele>1126.15</ele>
        <time>2021-03-27T16:09:12Z</time>
      </trkpt>
      <trkpt lat="40.521307" lon="-6.292732">
        <ele>1121.26</ele>
        <time>2021-03-27T16:09:14Z</time>
      </trkpt>
      <trkpt lat="40.521319" lon="-6.29289">
        <ele>1120.67</ele>
        <time>2021-03-27T16:09:17Z</time>
      </trkpt>
      <trkpt lat="40.521376" lon="-6.293042">
        <ele>1121.63</ele>
        <time>2021-03-27T16:09:19Z</time>
      </trkpt>
      <trkpt lat="40.521699" lon="-6.293593">
        <ele>1125.78</ele>
        <time>2021-03-27T16:09:22Z</time>
      </trkpt>
      <trkpt lat="40.521869" lon="-6.293785">
        <ele>1130.05</ele>
        <time>2021-03-27T16:09:24Z</time>
      </trkpt>
      <trkpt lat="40.522583" lon="-6.294287">
        <ele>1133.34</ele>
        <time>2021-03-27T16:09:27Z</time>
      </trkpt>
      <trkpt lat="40.522727" lon="-6.294415">
        <ele>1134.04</ele>
        <time>2021-03-27T16:09:29Z</time>
      </trkpt>
      <trkpt lat="40.52512" lon="-6.297406">
        <ele>1115.64</ele>
        <time>2021-03-27T16:09:31Z</time>
      </trkpt>
      <trkpt lat="40.525231" lon="-6.297566">
        <ele>1113.75</ele>
        <time>2021-03-27T16:09:34Z</time>
      </trkpt>
      <trkpt lat="40.525362" lon="-6.29782">
        <ele>1111.73</ele>
        <time>2021-03-27T16:09:36Z</time>
      </trkpt>
      <trkpt lat="40.525916" lon="-6.299351">
        <ele>1104.15</ele>
        <time>2021-03-27T16:09:39Z</time>
      </trkpt>
      <trkpt lat="40.526209" lon="-6.300219">
        <ele>1098.81</ele>
        <time>2021-03-27T16:09:41Z</time>
      </trkpt>
      <trkpt lat="40.52629" lon="-6.300917">
        <ele>1095.77</ele>
        <time>2021-03-27T16:09:43Z</time>
      </trkpt>
      <trkpt lat="40.526388" lon="-6.302086">
        <ele>1084.99</ele>
        <time>2021-03-27T16:09:46Z</time>
      </trkpt>
      <trkpt lat="40.526483" lon="-6.305723">
        <ele>1069.66</ele>
        <time>2021-03-27T16:09:48Z</time>
      </trkpt>
      <trkpt lat="40.526472" lon="-6.306122">
        <ele>1069.99</ele>
        <time>2021-03-27T16:09:51Z</time>
      </trkpt>
      <trkpt lat="40.526397" lon="-6.306734">
        <ele>1066.51</ele>
        <time>2021-03-27T16:09:53Z</time>
      </trkpt>
      <trkpt lat="40.526355" lon="-6.306908">
        <ele>1065.64</ele>
        <time>2021-03-27T16:09:56Z</time>
      </trkpt>
      <trkpt lat="40.526279" lon="-6.307077">
        <ele>1064.75</ele>
        <time>2021-03-27T16:09:58Z</time>
      </trkpt>
      <trkpt lat="40.526194" lon="-6.307208">
        <ele>1064.25</ele>
        <time>2021-03-27T16:10:00Z</time>
      </trkpt>
      <trkpt lat="40.525912" lon="-6.307441">
        <ele>1063.73</ele>
        <time>2021-03-27T16:10:03Z</time>
      </trkpt>
      <trkpt lat="40.52557" lon="-6.307613">
        <ele>1063.15</ele>
        <time>2021-03-27T16:10:05Z</time>
      </trkpt>
      <trkpt lat="40.525087" lon="-6.307731">
        <ele>1060.91</ele>
        <time>2021-03-27T16:10:08Z</time>
      </trkpt>
      <trkpt lat="40.524976" lon="-6.307774">
        <ele>1060.11</ele>
        <time>2021-03-27T16:10:10Z</time>
      </trkpt>
      <trkpt lat="40.524907" lon="-6.307841">
        <ele>1059.95</ele>
        <time>2021-03-27T16:10:12Z</time>
      </trkpt>
      <trkpt lat="40.524843" lon="-6.307947">
        <ele>1059.69</ele>
        <time>2021-03-27T16:10:15Z</time>
      </trkpt>
      <trkpt lat="40.524806" lon="-6.308104">
        <ele>1059.1</ele>
        <time>2021-03-27T16:10:17Z</time>
      </trkpt>
      <trkpt lat="40.524363" lon="-6.311015">
        <ele>1055.22</ele>
        <time>2021-03-27T16:10:20Z</time>
      </trkpt>
      <trkpt lat="40.524309" lon="-6.311273">
        <ele>1054.59</ele>
        <time>2021-03-27T16:10:22Z</time>
      </trkpt>
      <trkpt lat="40.524248" lon="-6.311448">
        <ele>1053.62</ele>
        <time>2021-03-27T16:10:24Z</time>
      </trkpt>
      <trkpt lat="40.524175" lon="-6.311567">
        <ele>1052.39</ele>
        <time>2021-03-27T16:10:27Z</time>
      </trkpt>
      <trkpt lat="40.524086" lon="-6.311653">
        <ele>1051.51</ele>
        <time>2021-03-27T16:10:29Z</time>
      </trkpt>
      <trkpt lat="40.522599" lon="-6.312568">
        <ele>1045.11</ele>
        <time>2021-03-27T16:10:32Z</time>
      </trkpt>
      <trkpt lat="40.522434" lon="-6.312708">
        <ele>1044.13</ele>
        <time>2021-03-27T16:10:34Z</time>
      </trkpt>
      <trkpt lat="40.522384" lon="-6.312805">
        <ele>1043.48</ele>
        <time>2021-03-27T16:10:37Z</time>
      </trkpt>
      <trkpt lat="40.52235" lon="-6.312944">
        <ele>1042.86</ele>
        <time>2021-03-27T16:10:39Z</time>
      </trkpt>
      <trkpt lat="40.522334" lon="-6.313176">
        <ele>1042.23</ele>
        <time>2021-03-27T16:10:41Z</time>
      </trkpt>
      <trkpt lat="40.522395" lon="-6.315778">
        <ele>1055.22</ele>
        <time>2021-03-27T16:10:44Z</time>
      </trkpt>
      <trkpt lat="40.522428" lon="-6.318258">
        <ele>1055.53</ele>
        <time>2021-03-27T16:10:46Z</time>
      </trkpt>
      <trkpt lat="40.522452" lon="-6.318547">
        <ele>1055.04</ele>
        <time>2021-03-27T16:10:49Z</time>
      </trkpt>
      <trkpt lat="40.52251" lon="-6.318764">
        <ele>1055.0</ele>
        <time>2021-03-27T16:10:51Z</time>
      </trkpt>
      <trkpt lat="40.52261" lon="-6.318966">
        <ele>1054.44</ele>
        <time>2021-03-27T16:10:53Z</time>
      </trkpt>
      <trkpt lat="40.523454" lon="-6.32028">
        <ele>1047.3</ele>
        <time>2021-03-27T16:10:56Z</time>
      </trkpt>
      <trkpt lat="40.523543" lon="-6.320465">
        <ele>1048.26</ele>
        <time>2021-03-27T16:10:58Z</time>
      </trkpt>
      <trkpt lat="40.523551" lon="-6.320583">
        <ele>1048.47</ele>
        <time>2021-03-27T16:11:01Z</time>
      </trkpt>
      <trkpt lat="40.523516" lon="-6.320665">
        <ele>1048.5</ele>
        <time>2021-03-27T16:11:03Z</time>
      </trkpt>
      <trkpt lat="40.523444" lon="-6.32071">
        <ele>1048.08</ele>
        <time>2021-03-27T16:11:05Z</time>
      </trkpt>
      <trkpt lat="40.523018" lon="-6.320769">
        <ele>1044.27</ele>
        <time>2021-03-27T16:11:08Z</time>
      </trkpt>
      <trkpt lat="40.522835" lon="-6.320829">
        <ele>1041.82</ele>
        <time>2021-03-27T16:11:10Z</time>
      </trkpt>
      <trkpt lat="40.522728" lon="-6.320881">
        <ele>1040.96</ele>
        <time>2021-03-27T16:11:13Z</time>
      </trkpt>
      <trkpt lat="40.522579" lon="-6.320987">
        <ele>1040.28</ele>
        <time>2021-03-27T16:11:15Z</time>
      </trkpt>
      <trkpt lat="40.522482" lon="-6.321085">
        <ele>1039.6</ele>
        <time>2021-03-27T16:11:18Z</time>
      </trkpt>
      <trkpt lat="40.52239" lon="-6.321191">
        <ele>1038.6</ele>
        <time>2021-03-27T16:11:20Z</time>
      </trkpt>
      <trkpt lat="40.521969" lon="-6.321935">
        <ele>1037.43</ele>
        <time>2021-03-27T16:11:22Z</time>
      </trkpt>
      <trkpt lat="40.521774" lon="-6.322241">
        <ele>1035.83</ele>
        <time>2021-03-27T16:11:25Z</time>
      </trkpt>
      <trkpt lat="40.521132" lon="-6.323054">
        <ele>1033.28</ele>
        <time>2021-03-27T16:11:27Z</time>
      </trkpt>
      <trkpt lat="40.520986" lon="-6.323264">
        <ele>1032.58</ele>
        <time>2021-03-27T16:11:30Z</time>
      </trkpt>
      <trkpt lat="40.520606" lon="-6.323923">
        <ele>1028.03</ele>
        <time>2021-03-27T16:11:32Z</time>
      </trkpt>
      <trkpt lat="40.519633" lon="-6.32554">
        <ele>1024.98</ele>
        <time>2021-03-27T16:11:34Z</time>
      </trkpt>
      <trkpt lat="40.519485" lon="-6.325863">
        <ele>1023.53</ele>
        <time>2021-03-27T16:11:37Z</time>
      </trkpt>
      <trkpt lat="40.519213" lon="-6.326584">
        <ele>1020.75</ele>
        <time>2021-03-27T16:11:39Z</time>
      </trkpt>
      <trkpt lat="40.519128" lon="-6.326862">
        <ele>1019.68</ele>
        <time>2021-03-27T16:11:42Z</time>
      </trkpt>
      <trkpt lat="40.51907" lon="-6.327123">
        <ele>1020.15</ele>
        <time>2021-03-27T16:11:44Z</time>
      </trkpt>
      <trkpt lat="40.518986" lon="-6.327634">
        <ele>1019.57</ele>
        <time>2021-03-27T16:11:47Z</time>
      </trkpt>
      <trkpt lat="40.518986" lon="-6.32783">
        <ele>1018.55</ele>
        <time>2021-03-27T16:11:49Z</time>
      </trkpt>
      <trkpt lat="40.519025" lon="-6.328272">
        <ele>1014.62</ele>
        <time>2021-03-27T16:11:51Z</time>
      </trkpt>
      <trkpt lat="40.519075" lon="-6.328485">
        <ele>1013.78</ele>
        <time>2021-03-27T16:11:54Z</time>
      </trkpt>
      <trkpt lat="40.519123" lon="-6.328597">
        <ele>1013.62</ele>
        <time>2021-03-27T16:11:56Z</time>
      </trkpt>
      <trkpt lat="40.519215" lon="-6.328774">
        <ele>1012.86</ele>
        <time>2021-03-27T16:11:59Z</time>
      </trkpt>
      <trkpt lat="40.519552" lon="-6.329284">
        <ele>1011.73</ele>
        <time>2021-03-27T16:12:01Z</time>
      </trkpt>
      <trkpt lat="40.519653" lon="-6.329404">
        <ele>1011.05</ele>
        <time>2021-03-27T16:12:03Z</time>
      </trkpt>
      <trkpt lat="40.519754" lon="-6.329469">
        <ele>1010.71</ele>
        <time>2021-03-27T16:12:06Z</time>
      </trkpt>
      <trkpt lat="40.519868" lon="-6.329501">
        <ele>1010.17</ele>
        <time>2021-03-27T16:12:08Z</time>
      </trkpt>
      <trkpt lat="40.519976" lon="-6.329501">
        <ele>1010.01</ele>
        <time>2021-03-27T16:12:11Z</time>
      </trkpt>
      <trkpt lat="40.520132" lon="-6.329455">
        <ele>1009.86</ele>
        <time>2021-03-27T16:12:13Z</time>
      </trkpt>
      <trkpt lat="40.520426" lon="-6.329287">
        <ele>1009.43</ele>
        <time>2021-03-27T16:12:15Z</time>
      </trkpt>
      <trkpt lat="40.520601" lon="-6.329229">
        <ele>1009.03</ele>
        <time>2021-03-27T16:12:18Z</time>
      </trkpt>
      <trkpt lat="40.521013" lon="-6.329142">
        <ele>1012.18</ele>
        <time>2021-03-27T16:12:20Z</time>
      </trkpt>
      <trkpt lat="40.521201" lon="-6.329145">
        <ele>1012.8</ele>
        <time>2021-03-27T16:12:23Z</time>
      </trkpt>
      <trkpt lat="40.521347" lon="-6.329196">
        <ele>1011.99</ele>
        <time>2021-03-27T16:12:25Z</time>
      </trkpt>
      <trkpt lat="40.521545" lon="-6.329324">
        <ele>1009.9</ele>
        <time>2021-03-27T16:12:28Z</time>
      </trkpt>
      <trkpt lat="40.521794" lon="-6.329543">
        <ele>1008.61</ele>
        <time>2021-03-27T16:12:30Z</time>
      </trkpt>
      <trkpt lat="40.521887" lon="-6.329658">
        <ele>1008.14</ele>
        <time>2021-03-27T16:12:32Z</time>
      </trkpt>
      <trkpt lat="40.522506" lon="-6.330925">
        <ele>1002.78</ele>
        <time>2021-03-27T16:12:35Z</time>
      </trkpt>
      <trkpt lat="40.522624" lon="-6.331095">
        <ele>1002.46</ele>
        <time>2021-03-27T16:12:37Z</time>
      </trkpt>
      <trkpt lat="40.522758" lon="-6.331237">
        <ele>1003.67</ele>
        <time>2021-03-27T16:12:40Z</time>
      </trkpt>
      <trkpt lat="40.522804" lon="-6.331351">
        <ele>1003.83</ele>
        <time>2021-03-27T16:12:42Z</time>
      </trkpt>
      <trkpt lat="40.522794" lon="-6.331475">
        <ele>1003.05</ele>
        <time>2021-03-27T16:12:44Z</time>
      </trkpt>
      <trkpt lat="40.52258" lon="-6.332079">
        <ele>996.54</ele>
        <time>2021-03-27T16:12:47Z</time>
      </trkpt>
      <trkpt lat="40.522542" lon="-6.332322">
        <ele>994.94</ele>
        <time>2021-03-27T16:12:49Z</time>
      </trkpt>
      <trkpt lat="40.522518" lon="-6.332574">
        <ele>994.1</ele>
        <time>2021-03-27T16:12:52Z</time>
      </trkpt>
      <trkpt lat="40.522468" lon="-6.334024">
        <ele>989.33</ele>
        <time>2021-03-27T16:12:54Z</time>
      </trkpt>
      <trkpt lat="40.522416" lon="-6.334452">
        <ele>985.84</ele>
        <time>2021-03-27T16:12:56Z</time>
      </trkpt>
      <trkpt lat="40.522431" lon="-6.334685">
        <ele>985.19</ele>
        <time>2021-03-27T16:12:59Z</time>
      </trkpt>
      <trkpt lat="40.522556" lon="-6.33527">
        <ele>983.09</ele>
        <time>2021-03-27T16:13:01Z</time>
      </trkpt>
      <trkpt lat="40.522663" lon="-6.335602">
        <ele>982.91</ele>
        <time>2021-03-27T16:13:04Z</time>
      </trkpt>
      <trkpt lat="40.522793" lon="-6.335813">
        <ele>982.28</ele>
        <time>2021-03-27T16:13:06Z</time>
      </trkpt>
      <trkpt lat="40.523333" lon="-6.33643">
        <ele>973.4</ele>
        <time>2021-03-27T16:13:09Z</time>
      </trkpt>
      <trkpt lat="40.523994" lon="-6.337266">
        <ele>965.65</ele>
        <time>2021-03-27T16:13:11Z</time>
      </trkpt>
      <trkpt lat="40.52459" lon="-6.33788">
        <ele>960.74</ele>
        <time>2021-03-27T16:13:13Z</time>
      </trkpt>
      <trkpt lat="40.525184" lon="-6.338697">
        <ele>954.49</ele>
        <time>2021-03-27T16:13:16Z</time>
      </trkpt>
      <trkpt lat="40.525262" lon="-6.33884">
        <ele>954.29</ele>
        <time>2021-03-27T16:13:18Z</time>
      </trkpt>
      <trkpt lat="40.525346" lon="-6.33909">
        <ele>952.39</ele>
        <time>2021-03-27T16:13:21Z</time>
      </trkpt>
      <trkpt lat="40.525693" lon="-6.34031">
        <ele>944.58</ele>
        <time>2021-03-27T16:13:23Z</time>
      </trkpt>
      <trkpt lat="40.525753" lon="-6.340463">
        <ele>943.79</ele>
        <time>2021-03-27T16:13:25Z</time>
      </trkpt>
      <trkpt lat="40.526249" lon="-6.341437">
        <ele>939.89</ele>
        <time>2021-03-27T16:13:28Z</time>
      </trkpt>
      <trkpt lat="40.528007" lon="-6.345527">
        <ele>912.86</ele>
        <time>2021-03-27T16:13:30Z</time>
      </trkpt>
      <trkpt lat="40.528071" lon="-6.345729">
        <ele>911.78</ele>
        <time>2021-03-27T16:13:33Z</time>
      </trkpt>
      <trkpt lat="40.528072" lon="-6.345908">
        <ele>910.77</ele>
        <time>2021-03-27T16:13:35Z</time>
      </trkpt>
      <trkpt lat="40.527982" lon="-6.34616">
        <ele>909.56</ele>
        <time>2021-03-27T16:13:37Z</time>
      </trkpt>
      <trkpt lat="40.527716" lon="-6.346752">
        <ele>905.4</ele>
        <time>2021-03-27T16:13:40Z</time>
      </trkpt>
      <trkpt lat="40.5276" lon="-6.346949">
        <ele>903.74</ele>
        <time>2021-03-27T16:13:42Z</time>
      </trkpt>
      <trkpt lat="40.527331" lon="-6.347185">
        <ele>902.21</ele>
        <time>2021-03-27T16:13:45Z</time>
      </trkpt>
      <trkpt lat="40.526232" lon="-6.347987">
        <ele>895.09</ele>
        <time>2021-03-27T16:13:47Z</time>
      </trkpt>
      <trkpt lat="40.526041" lon="-6.348196">
        <ele>895.51</ele>
        <time>2021-03-27T16:13:50Z</time>
      </trkpt>
      <trkpt lat="40.525867" lon="-6.348531">
        <ele>896.29</ele>
        <time>2021-03-27T16:13:52Z</time>
      </trkpt>
      <trkpt lat="40.525349" lon="-6.349814">
        <ele>889.61</ele>
        <time>2021-03-27T16:13:54Z</time>
      </trkpt>
      <trkpt lat="40.525231" lon="-6.350042">
        <ele>886.53</ele>
        <time>2021-03-27T16:13:57Z</time>
      </trkpt>
      <trkpt lat="40.525097" lon="-6.350245">
        <ele>884.59</ele>
        <time>2021-03-27T16:13:59Z</time>
      </trkpt>
      <trkpt lat="40.524445" lon="-6.350956">
        <ele>884.33</ele>
        <time>2021-03-27T16:14:02Z</time>
      </trkpt>
      <trkpt lat="40.524282" lon="-6.351177">
        <ele>883.56</ele>
        <time>2021-03-27T16:14:04Z</time>
      </trkpt>
      <trkpt lat="40.52392" lon="-6.351803">
        <ele>880.54</ele>
        <time>2021-03-27T16:14:06Z</time>
      </trkpt>
      <trkpt lat="40.52378" lon="-6.351993">
        <ele>879.56</ele>
        <time>2021-03-27T16:14:09Z</time>
      </trkpt>
      <trkpt lat="40.523237" lon="-6.352616">
        <ele>878.14</ele>
        <time>2021-03-27T16:14:11Z</time>
      </trkpt>
      <trkpt lat="40.522829" lon="-6.352899">
        <ele>874.28</ele>
        <time>2021-03-27T16:14:14Z</time>
      </trkpt>
      <trkpt lat="40.522631" lon="-6.353103">
        <ele>873.2</ele>
        <time>2021-03-27T16:14:16Z</time>
      </trkpt>
      <trkpt lat="40.522521" lon="-6.353266">
        <ele>873.61</ele>
        <time>2021-03-27T16:14:19Z</time>
      </trkpt>
      <trkpt lat="40.522376" lon="-6.35355">
        <ele>875.1</ele>
        <time>2021-03-27T16:14:21Z</time>
      </trkpt>
      <trkpt lat="40.522226" lon="-6.353958">
        <ele>874.54</ele>
        <time>2021-03-27T16:14:23Z</time>
      </trkpt>
      <trkpt lat="40.521934" lon="-6.355249">
        <ele>865.03</ele>
        <time>2021-03-27T16:14:26Z</time>
      </trkpt>
      <trkpt lat="40.521941" lon="-6.356288">
        <ele>865.05</ele>
        <time>2021-03-27T16:14:28Z</time>
      </trkpt>
      <trkpt lat="40.522144" lon="-6.357904">
        <ele>858.19</ele>
        <time>2021-03-27T16:14:31Z</time>
      </trkpt>
      <trkpt lat="40.522275" lon="-6.358803">
        <ele>857.63</ele>
        <time>2021-03-27T16:14:33Z</time>
      </trkpt>
      <trkpt lat="40.522299" lon="-6.359103">
        <ele>857.56</ele>
        <time>2021-03-27T16:14:35Z</time>
      </trkpt>
      <trkpt lat="40.522293" lon="-6.359361">
        <ele>858.03</ele>
        <time>2021-03-27T16:14:38Z</time>
      </trkpt>
      <trkpt lat="40.522096" lon="-6.359918">
        <ele>856.71</ele>
        <time>2021-03-27T16:14:40Z</time>
      </trkpt>
      <trkpt lat="40.522037" lon="-6.360151">
        <ele>855.97</ele>
        <time>2021-03-27T16:14:43Z</time>
      </trkpt>
      <trkpt lat="40.521992" lon="-6.360968">
        <ele>851.2</ele>
        <time>2021-03-27T16:14:45Z</time>
      </trkpt>
      <trkpt lat="40.521962" lon="-6.361114">
        <ele>850.05</ele>
        <time>2021-03-27T16:14:47Z</time>
      </trkpt>
      <trkpt lat="40.521928" lon="-6.361244">
        <ele>849.58</ele>
        <time>2021-03-27T16:14:50Z</time>
      </trkpt>
      <trkpt lat="40.52187" lon="-6.361384">
        <ele>849.28</ele>
        <time>2021-03-27T16:14:52Z</time>
      </trkpt>
      <trkpt lat="40.521757" lon="-6.361509">
        <ele>849.38</ele>
        <time>2021-03-27T16:14:55Z</time>
      </trkpt>
      <trkpt lat="40.521375" lon="-6.361935">
        <ele>850.0</ele>
        <time>2021-03-27T16:14:57Z</time>
      </trkpt>
      <trkpt lat="40.521354" lon="-6.361997">
        <ele>849.62</ele>
        <time>2021-03-27T16:15:00Z</time>
      </trkpt>
      <trkpt lat="40.521321" lon="-6.363289">
        <ele>843.16</ele>
        <time>2021-03-27T16:15:02Z</time>
      </trkpt>
      <trkpt lat="40.521219" lon="-6.363889">
        <ele>841.78</ele>
        <time>2021-03-27T16:15:04Z</time>
      </trkpt>
      <trkpt lat="40.521086" lon="-6.364505">
        <ele>840.91</ele>
        <time>2021-03-27T16:15:07Z</time>
      </trkpt>
      <trkpt lat="40.521038" lon="-6.36505">
        <ele>841.66</ele>
        <time>2021-03-27T16:15:09Z</time>
      </trkpt>
      <trkpt lat="40.520975" lon="-6.365295">
        <ele>842.09</ele>
        <time>2021-03-27T16:15:12Z</time>
      </trkpt>
      <trkpt lat="40.520813" lon="-6.365794">
        <ele>842.0</ele>
        <time>2021-03-27T16:15:14Z</time>
      </trkpt>
      <trkpt lat="40.520708" lon="-6.366171">
        <ele>842.81</ele>
        <time>2021-03-27T16:15:18Z</time>
      </trkpt>
      <trkpt lat="40.520562" lon="-6.367206">
        <ele>838.26</ele>
        <time>2021-03-27T16:15:21Z</time>
      </trkpt>
      <trkpt lat="40.520555" lon="-6.367337">
        <ele>837.59</ele>
        <time>2021-03-27T16:15:25Z</time>
      </trkpt>
      <trkpt lat="40.520609" lon="-6.3676">
        <ele>837.41</ele>
        <time>2021-03-27T16:15:28Z</time>
      </trkpt>
      <trkpt lat="40.52091" lon="-6.368458">
        <ele>837.01</ele>
        <time>2021-03-27T16:15:32Z</time>
      </trkpt>
      <trkpt lat="40.520925" lon="-6.368547">
        <ele>836.52</ele>
        <time>2021-03-27T16:15:35Z</time>
      </trkpt>
      <trkpt lat="40.52092" lon="-6.368674">
        <ele>835.8</ele>
        <time>2021-03-27T16:15:39Z</time>
      </trkpt>
      <trkpt lat="40.520879" lon="-6.36892">
        <ele>835.04</ele>
        <time>2021-03-27T16:15:42Z</time>
      </trkpt>
      <trkpt lat="40.520873" lon="-6.369291">
        <ele>837.6</ele>
        <time>2021-03-27T16:15:45Z</time>
      </trkpt>
      <trkpt lat="40.520953" lon="-6.371128">
        <ele>840.57</ele>
        <time>2021-03-27T16:15:49Z</time>
      </trkpt>
      <trkpt lat="40.520988" lon="-6.3715">
        <ele>840.34</ele>
        <time>2021-03-27T16:15:52Z</time>
      </trkpt>
      <trkpt lat="40.52102" lon="-6.371683">
        <ele>839.86</ele>
        <time>2021-03-27T16:15:56Z</time>
      </trkpt>
      <trkpt lat="40.521074" lon="-6.371848">
        <ele>838.73</ele>
        <time>2021-03-27T16:15:59Z</time>
      </trkpt>
      <trkpt lat="40.521159" lon="-6.372015">
        <ele>837.37</ele>
        <time>2021-03-27T16:16:03Z</time>
      </trkpt>
      <trkpt lat="40.521242" lon="-6.372124">
        <ele>835.91</ele>
        <time>2021-03-27T16:16:06Z</time>
      </trkpt>
      <trkpt lat="40.521339" lon="-6.372201">
        <ele>834.49</ele>
        <time>2021-03-27T16:16:09Z</time>
      </trkpt>
      <trkpt lat="40.52209" lon="-6.372549">
        <ele>832.81</ele>
        <time>2021-03-27T16:16:13Z</time>
      </trkpt>
      <trkpt lat="40.522534" lon="-6.373064">
        <ele>832.19</ele>
        <time>2021-03-27T16:16:16Z</time>
      </trkpt>
      <trkpt lat="40.522659" lon="-6.373287">
        <ele>834.72</ele>
        <time>2021-03-27T16:16:20Z</time>
      </trkpt>
      <trkpt lat="40.522651" lon="-6.373486">
        <ele>835.94</ele>
        <time>2021-03-27T16:16:23Z</time>
      </trkpt>
      <trkpt lat="40.522504" lon="-6.37389">
        <ele>838.05</ele>
        <time>2021-03-27T16:16:27Z</time>
      </trkpt>
      <trkpt lat="40.522423" lon="-6.374806">
        <ele>844.56</ele>
        <time>2021-03-27T16:16:30Z</time>
      </trkpt>
      <trkpt lat="40.522122" lon="-6.376365">
        <ele>850.64</ele>
        <time>2021-03-27T16:16:33Z</time>
      </trkpt>
      <trkpt lat="40.522506" lon="-6.378553">
        <ele>858.84</ele>
        <time>2021-03-27T16:16:37Z</time>
      </trkpt>
      <trkpt lat="40.522669" lon="-6.378888">
        <ele>860.61</ele>
        <time>2021-03-27T16:16:40Z</time>
      </trkpt>
      <trkpt lat="40.524064" lon="-6.380657">
        <ele>872.26</ele>
        <time>2021-03-27T16:16:44Z</time>
      </trkpt>
      <trkpt lat="40.525055" lon="-6.38203">
        <ele>880.48</ele>
        <time>2021-03-27T16:16:47Z</time>
      </trkpt>
      <trkpt lat="40.525734" lon="-6.382176">
        <ele>883.9</ele>
        <time>2021-03-27T16:16:51Z</time>
      </trkpt>
      <trkpt lat="40.526408" lon="-6.382476">
        <ele>886.7</ele>
        <time>2021-03-27T16:16:54Z</time>
      </trkpt>
      <trkpt lat="40.526945" lon="-6.382635">
        <ele>895.06</ele>
        <time>2021-03-27T16:16:57Z</time>
      </trkpt>
      <trkpt lat="40.527118" lon="-6.382932">
        <ele>895.43</ele>
        <time>2021-03-27T16:17:01Z</time>
      </trkpt>
      <trkpt lat="40.527371" lon="-6.383639">
        <ele>896.44</ele>
        <time>2021-03-27T16:17:04Z</time>
      </trkpt>
      <trkpt lat="40.527657" lon="-6.383936">
        <ele>898.48</ele>
        <time>2021-03-27T16:17:08Z</time>
      </trkpt>
      <trkpt lat="40.528979" lon="-6.384604">
        <ele>907.96</ele>
        <time>2021-03-27T16:17:11Z</time>
      </trkpt>
      <trkpt lat="40.53026" lon="-6.384818">
        <ele>914.89</ele>
        <time>2021-03-27T16:17:15Z</time>
      </trkpt>
      <trkpt lat="40.530624" lon="-6.384766">
        <ele>916.99</ele>
        <time>2021-03-27T16:17:18Z</time>
      </trkpt>
      <trkpt lat="40.530886" lon="-6.38463">
        <ele>921.64</ele>
        <time>2021-03-27T16:17:22Z</time>
      </trkpt>
      <trkpt lat="40.531452" lon="-6.383977">
        <ele>927.66</ele>
        <time>2021-03-27T16:17:25Z</time>
      </trkpt>
      <trkpt lat="40.531548" lon="-6.383925">
        <ele>927.53</ele>
        <time>2021-03-27T16:17:28Z</time>
      </trkpt>
      <trkpt lat="40.532135" lon="-6.383942">
        <ele>929.43</ele>
        <time>2021-03-27T16:17:32Z</time>
      </trkpt>
      <trkpt lat="40.532515" lon="-6.383732">
        <ele>932.67</ele>
        <time>2021-03-27T16:17:35Z</time>
      </trkpt>
      <trkpt lat="40.533083" lon="-6.383616">
        <ele>936.12</ele>
        <time>2021-03-27T16:17:39Z</time>
      </trkpt>
      <trkpt lat="40.534478" lon="-6.382842">
        <ele>944.27</ele>
        <time>2021-03-27T16:17:42Z</time>
      </trkpt>
      <trkpt lat="40.53466" lon="-6.382848">
        <ele>945.75</ele>
        <time>2021-03-27T16:17:46Z</time>
      </trkpt>
      <trkpt lat="40.537011" lon="-6.383448">
        <ele>950.24</ele>
        <time>2021-03-27T16:17:49Z</time>
      </trkpt>
      <trkpt lat="40.537975" lon="-6.384078">
        <ele>946.61</ele>
        <time>2021-03-27T16:17:52Z</time>
      </trkpt>
      <trkpt lat="40.538109" lon="-6.384064">
        <ele>946.18</ele>
        <time>2021-03-27T16:17:56Z</time>
      </trkpt>
      <trkpt lat="40.53845" lon="-6.383573">
        <ele>948.58</ele>
        <time>2021-03-27T16:17:59Z</time>
      </trkpt>
      <trkpt lat="40.53866" lon="-6.383495">
        <ele>948.21</ele>
        <time>2021-03-27T16:18:03Z</time>
      </trkpt>
      <trkpt lat="40.538832" lon="-6.383648">
        <ele>947.77</ele>
        <time>2021-03-27T16:18:06Z</time>
      </trkpt>
      <trkpt lat="40.539266" lon="-6.384734">
        <ele>946.01</ele>
        <time>2021-03-27T16:18:10Z</time>
      </trkpt>
      <trkpt lat="40.539771" lon="-6.385549">
        <ele>948.93</ele>
        <time>2021-03-27T16:18:13Z</time>
      </trkpt>
      <trkpt lat="40.539881" lon="-6.385918">
        <ele>948.58</ele>
        <time>2021-03-27T16:18:16Z</time>
      </trkpt>
      <trkpt lat="40.539962" lon="-6.38645">
        <ele>949.43</ele>
        <time>2021-03-27T16:18:20Z</time>
      </trkpt>
      <trkpt lat="40.540042" lon="-6.38645">
        <ele>950.08</ele>
        <time>2021-03-27T16:18:35Z</time>
      </trkpt>
      <trkpt lat="40.540132" lon="-6.386505">
        <ele>950.53</ele>
        <time>2021-03-27T16:18:50Z</time>
      </trkpt>
      <trkpt lat="40.544105" lon="-6.389301">
        <ele>958.56</ele>
        <time>2021-03-27T16:19:06Z</time>
      </trkpt>
      <trkpt lat="40.547224" lon="-6.391456">
        <ele>962.53</ele>
        <time>2021-03-27T16:19:21Z</time>
      </trkpt>
      <trkpt lat="40.550333" lon="-6.393565">
        <ele>958.76</ele>
        <time>2021-03-27T16:19:36Z</time>
      </trkpt>
      <trkpt lat="40.550863" lon="-6.393945">
        <ele>961.03</ele>
        <time>2021-03-27T16:19:52Z</time>
      </trkpt>
      <trkpt lat="40.554638" lon="-6.395715">
        <ele>948.85</ele>
        <time>2021-03-27T16:20:07Z</time>
      </trkpt>
      <trkpt lat="40.554908" lon="-6.395826">
        <ele>948.08</ele>
        <time>2021-03-27T16:20:22Z</time>
      </trkpt>
      <trkpt lat="40.555152" lon="-6.395899">
        <ele>947.55</ele>
        <time>2021-03-27T16:20:37Z</time>
      </trkpt>
      <trkpt lat="40.555717" lon="-6.39601">
        <ele>945.93</ele>
        <time>2021-03-27T16:20:53Z</time>
      </trkpt>
      <trkpt lat="40.559813" lon="-6.396757">
        <ele>928.7</ele>
        <time>2021-03-27T16:21:08Z</time>
      </trkpt>
      <trkpt lat="40.566252" lon="-6.397965">
        <ele>891.15</ele>
        <time>2021-03-27T16:21:23Z</time>
      </trkpt>
      <trkpt lat="40.575056" lon="-6.399591">
        <ele>873.27</ele>
        <time>2021-03-27T16:21:39Z</time>
      </trkpt>
      <trkpt lat="40.575272" lon="-6.399599">
        <ele>872.47</ele>
        <time>2021-03-27T16:21:54Z</time>
      </trkpt>
      <trkpt lat="40.577574" lon="-6.404108">
        <ele>870.47</ele>
        <time>2021-03-27T16:22:00Z</time>
      </trkpt>
      <trkpt lat="40.577807" lon="-6.404484">
        <ele>869.01</ele>
        <time>2021-03-27T16:22:06Z</time>
      </trkpt>
      <trkpt lat="40.577933" lon="-6.404668">
        <ele>869.45</ele>
        <time>2021-03-27T16:22:12Z</time>
      </trkpt>
      <trkpt lat="40.578329" lon="-6.405145">
        <ele>870.49</ele>
        <time>2021-03-27T16:22:18Z</time>
      </trkpt>
      <trkpt lat="40.579495" lon="-6.406483">
        <ele>867.12</ele>
        <time>2021-03-27T16:22:24Z</time>
      </trkpt>
      <trkpt lat="40.579682" lon="-6.406676">
        <ele>867.0</ele>
        <time>2021-03-27T16:22:30Z</time>
      </trkpt>
      <trkpt lat="40.579891" lon="-6.406834">
        <ele>865.66</ele>
        <time>2021-03-27T16:22:36Z</time>
      </trkpt>
      <trkpt lat="40.58031" lon="-6.407019">
        <ele>865.03</ele>
        <time>2021-03-27T16:22:42Z</time>
      </trkpt>
      <trkpt lat="40.580464" lon="-6.407052">
        <ele>865.26</ele>
        <time>2021-03-27T16:22:48Z</time>
      </trkpt>
      <trkpt lat="40.580677" lon="-6.407064">
        <ele>865.24</ele>
        <time>2021-03-27T16:22:53Z</time>
      </trkpt>
      <trkpt lat="40.583531" lon="-6.406832">
        <ele>865.17</ele>
        <time>2021-03-27T16:22:59Z</time>
      </trkpt>
      <trkpt lat="40.584372" lon="-6.406726">
        <ele>863.79</ele>
        <time>2021-03-27T16:23:05Z</time>
      </trkpt>
      <trkpt lat="40.595027" lon="-6.405125">
        <ele>860.71</ele>
        <time>2021-03-27T16:23:11Z</time>
      </trkpt>
      <trkpt lat="40.595291" lon="-6.405104">
        <ele>861.47</ele>
        <time>2021-03-27T16:23:17Z</time>
      </trkpt>
      <trkpt lat="40.595842" lon="-6.405152">
        <ele>860.86</ele>
        <time>2021-03-27T16:23:23Z</time>
      </trkpt>
      <trkpt lat="40.596118" lon="-6.40522">
        <ele>858.6</ele>
        <time>2021-03-27T16:23:29Z</time>
      </trkpt>
      <trkpt lat="40.598193" lon="-6.406037">
        <ele>853.63</ele>
        <time>2021-03-27T16:23:35Z</time>
      </trkpt>
      <trkpt lat="40.598653" lon="-6.406251">
        <ele>855.35</ele>
        <time>2021-03-27T16:23:41Z</time>
      </trkpt>
      <trkpt lat="40.598939" lon="-6.406452">
        <ele>854.64</ele>
        <time>2021-03-27T16:23:47Z</time>
      </trkpt>
      <trkpt lat="40.599983" lon="-6.407344">
        <ele>852.56</ele>
        <time>2021-03-27T16:23:53Z</time>
      </trkpt>
      <trkpt lat="40.600402" lon="-6.407666">
        <ele>851.67</ele>
        <time>2021-03-27T16:23:59Z</time>
      </trkpt>
      <trkpt lat="40.600736" lon="-6.40783">
        <ele>853.11</ele>
        <time>2021-03-27T16:24:05Z</time>
      </trkpt>
      <trkpt lat="40.601101" lon="-6.407937">
        <ele>854.94</ele>
        <time>2021-03-27T16:24:11Z</time>
      </trkpt>
      <trkpt lat="40.601269" lon="-6.407964">
        <ele>854.43</ele>
        <time>2021-03-27T16:24:17Z</time>
      </trkpt>
      <trkpt lat="40.603198" lon="-6.407979">
        <ele>850.72</ele>
        <time>2021-03-27T16:24:23Z</time>
      </trkpt>
      <trkpt lat="40.603592" lon="-6.407956">
        <ele>850.31</ele>
        <time>2021-03-27T16:24:29Z</time>
      </trkpt>
      <trkpt lat="40.603752" lon="-6.407927">
        <ele>850.85</ele>
        <time>2021-03-27T16:24:35Z</time>
      </trkpt>
      <trkpt lat="40.604086" lon="-6.407811">
        <ele>850.44</ele>
        <time>2021-03-27T16:24:41Z</time>
      </trkpt>
      <trkpt lat="40.604301" lon="-6.407697">
        <ele>850.04</ele>
        <time>2021-03-27T16:24:47Z</time>
      </trkpt>
      <trkpt lat="40.605498" lon="-6.406975">
        <ele>846.34</ele>
        <time>2021-03-27T16:24:53Z</time>
      </trkpt>
      <trkpt lat="40.605726" lon="-6.406902">
        <ele>846.52</ele>
        <time>2021-03-27T16:24:59Z</time>
      </trkpt>
      <trkpt lat="40.605992" lon="-6.406888">
        <ele>845.65</ele>
        <time>2021-03-27T16:25:05Z</time>
      </trkpt>
      <trkpt lat="40.60628" lon="-6.406975">
        <ele>842.52</ele>
        <time>2021-03-27T16:25:10Z</time>
      </trkpt>
      <trkpt lat="40.60654" lon="-6.407153">
        <ele>839.91</ele>
        <time>2021-03-27T16:25:16Z</time>
      </trkpt>
      <trkpt lat="40.610284" lon="-6.410431">
        <ele>843.52</ele>
        <time>2021-03-27T16:25:22Z</time>
      </trkpt>
      <trkpt lat="40.610759" lon="-6.410835">
        <ele>845.74</ele>
        <time>2021-03-27T16:25:28Z</time>
      </trkpt>
      <trkpt lat="40.610989" lon="-6.411001">
        <ele>846.6</ele>
        <time>2021-03-27T16:25:34Z</time>
      </trkpt>
      <trkpt lat="40.612408" lon="-6.41181">
        <ele>841.67</ele>
        <time>2021-03-27T16:25:40Z</time>
      </trkpt>
      <trkpt lat="40.613912" lon="-6.41264">
        <ele>843.63</ele>
        <time>2021-03-27T16:25:46Z</time>
      </trkpt>
      <trkpt lat="40.614569" lon="-6.412997">
        <ele>846.88</ele>
        <time>2021-03-27T16:25:52Z</time>
      </trkpt>
      <trkpt lat="40.614963" lon="-6.413175">
        <ele>847.43</ele>
        <time>2021-03-27T16:25:58Z</time>
      </trkpt>
      <trkpt lat="40.615162" lon="-6.413225">
        <ele>847.61</ele>
        <time>2021-03-27T16:26:04Z</time>
      </trkpt>
      <trkpt lat="40.615443" lon="-6.413246">
        <ele>846.68</ele>
        <time>2021-03-27T16:26:10Z</time>
      </trkpt>
      <trkpt lat="40.615797" lon="-6.413198">
        <ele>844.26</ele>
        <time>2021-03-27T16:26:16Z</time>
      </trkpt>
      <trkpt lat="40.616874" lon="-6.412825">
        <ele>844.74</ele>
        <time>2021-03-27T16:26:22Z</time>
      </trkpt>
      <trkpt lat="40.618182" lon="-6.412332">
        <ele>842.42</ele>
        <time>2021-03-27T16:26:28Z</time>
      </trkpt>
      <trkpt lat="40.618347" lon="-6.413072">
        <ele>842.99</ele>
        <time>2021-03-27T16:26:33Z</time>
      </trkpt>
      <trkpt lat="40.618391" lon="-6.413211">
        <ele>842.65</ele>
        <time>2021-03-27T16:26:38Z</time>
      </trkpt>
      <trkpt lat="40.618473" lon="-6.413445">
        <ele>841.9</ele>
        <time>2021-03-27T16:26:43Z</time>
      </trkpt>
      <trkpt lat="40.618693" lon="-6.413913">
        <ele>838.09</ele>
        <time>2021-03-27T16:26:49Z</time>
      </trkpt>
      <trkpt lat="40.618727" lon="-6.414013">
        <ele>837.46</ele>
        <time>2021-03-27T16:26:54Z</time>
      </trkpt>
      <trkpt lat="40.618766" lon="-6.414221">
        <ele>836.31</ele>
        <time>2021-03-27T16:26:59Z</time>
      </trkpt>
      <trkpt lat="40.618761" lon="-6.414371">
        <ele>835.21</ele>
        <time>2021-03-27T16:27:04Z</time>
      </trkpt>
      <trkpt lat="40.618683" lon="-6.414678">
        <ele>833.92</ele>
        <time>2021-03-27T16:27:09Z</time>
      </trkpt>
      <trkpt lat="40.617978" lon="-6.416837">
        <ele>821.27</ele>
        <time>2021-03-27T16:27:14Z</time>
      </trkpt>
      <trkpt lat="40.617886" lon="-6.417259">
        <ele>819.73</ele>
        <time>2021-03-27T16:27:20Z</time>
      </trkpt>
      <trkpt lat="40.617809" lon="-6.418033">
        <ele>815.49</ele>
        <time>2021-03-27T16:27:25Z</time>
      </trkpt>
      <trkpt lat="40.61772" lon="-6.418507">
        <ele>813.79</ele>
        <time>2021-03-27T16:27:30Z</time>
      </trkpt>
      <trkpt lat="40.616895" lon="-6.421727">
        <ele>805.68</ele>
        <time>2021-03-27T16:27:35Z</time>
      </trkpt>
      <trkpt lat="40.616734" lon="-6.422203">
        <ele>805.02</ele>
        <time>2021-03-27T16:27:40Z</time>
      </trkpt>
      <trkpt lat="40.61654" lon="-6.422578">
        <ele>804.53</ele>
        <time>2021-03-27T16:27:45Z</time>
      </trkpt>
      <trkpt lat="40.61642" lon="-6.42275">
        <ele>804.22</ele>
        <time>2021-03-27T16:27:51Z</time>
      </trkpt>
      <trkpt lat="40.616273" lon="-6.42292">
        <ele>801.92</ele>
        <time>2021-03-27T16:27:56Z</time>
      </trkpt>
      <trkpt lat="40.616124" lon="-6.42306">
        <ele>799.24</ele>
        <time>2021-03-27T16:28:01Z</time>
      </trkpt>
      <trkpt lat="40.615949" lon="-6.423187">
        <ele>797.72</ele>
        <time>2021-03-27T16:28:06Z</time>
      </trkpt>
      <trkpt lat="40.615672" lon="-6.423329">
        <ele>797.56</ele>
        <time>2021-03-27T16:28:11Z</time>
      </trkpt>
      <trkpt lat="40.615419" lon="-6.423402">
        <ele>799.35</ele>
        <time>2021-03-27T16:28:16Z</time>
      </trkpt>
      <trkpt lat="40.614519" lon="-6.423544">
        <ele>794.81</ele>
        <time>2021-03-27T16:28:22Z</time>
      </trkpt>
      <trkpt lat="40.614166" lon="-6.423685">
        <ele>792.27</ele>
        <time>2021-03-27T16:28:27Z</time>
      </trkpt>
      <trkpt lat="40.61395" lon="-6.423814">
        <ele>792.16</ele>
        <time>2021-03-27T16:28:32Z</time>
      </trkpt>
      <trkpt lat="40.613136" lon="-6.424366">
        <ele>787.31</ele>
        <time>2021-03-27T16:28:37Z</time>
      </trkpt>
      <trkpt lat="40.61289" lon="-6.424589">
        <ele>788.76</ele>
        <time>2021-03-27T16:28:42Z</time>
      </trkpt>
      <trkpt lat="40.61267" lon="-6.424857">
        <ele>789.51</ele>
        <time>2021-03-27T16:28:48Z</time>
      </trkpt>
      <trkpt lat="40.612554" lon="-6.425045">
        <ele>789.26</ele>
        <time>2021-03-27T16:28:53Z</time>
      </trkpt>
      <trkpt lat="40.612395" lon="-6.42539">
        <ele>787.64</ele>
        <time>2021-03-27T16:28:58Z</time>
      </trkpt>
      <trkpt lat="40.612279" lon="-6.42578">
        <ele>787.41</ele>
        <time>2021-03-27T16:29:03Z</time>
      </trkpt>
      <trkpt lat="40.612235" lon="-6.425987">
        <ele>786.54</ele>
        <time>2021-03-27T16:29:08Z</time>
      </trkpt>
      <trkpt lat="40.61203" lon="-6.427161">
        <ele>780.71</ele>
        <time>2021-03-27T16:29:13Z</time>
      </trkpt>
      <trkpt lat="40.611816" lon="-6.428241">
        <ele>777.72</ele>
        <time>2021-03-27T16:29:19Z</time>
      </trkpt>
      <trkpt lat="40.611723" lon="-6.428535">
        <ele>777.05</ele>
        <time>2021-03-27T16:29:24Z</time>
      </trkpt>
      <trkpt lat="40.6114" lon="-6.42921">
        <ele>776.85</ele>
        <time>2021-03-27T16:29:29Z</time>
      </trkpt>
      <trkpt lat="40.611343" lon="-6.429373">
        <ele>775.8</ele>
        <time>2021-03-27T16:29:34Z</time>
      </trkpt>
      <trkpt lat="40.611243" lon="-6.429869">
        <ele>770.87</ele>
        <time>2021-03-27T16:29:39Z</time>
      </trkpt>
      <trkpt lat="40.610551" lon="-6.436991">
        <ele>749.01</ele>
        <time>2021-03-27T16:29:44Z</time>
      </trkpt>
      <trkpt lat="40.610494" lon="-6.437406">
        <ele>749.52</ele>
        <time>2021-03-27T16:29:50Z</time>
      </trkpt>
      <trkpt lat="40.610453" lon="-6.437596">
        <ele>749.85</ele>
        <time>2021-03-27T16:29:55Z</time>
      </trkpt>
      <trkpt lat="40.610324" lon="-6.43794">
        <ele>749.53</ele>
        <time>2021-03-27T16:30:00Z</time>
      </trkpt>
      <trkpt lat="40.61015" lon="-6.438252">
        <ele>747.62</ele>
        <time>2021-03-27T16:30:05Z</time>
      </trkpt>
      <trkpt lat="40.609273" lon="-6.439483">
        <ele>746.47</ele>
        <time>2021-03-27T16:30:10Z</time>
      </trkpt>
      <trkpt lat="40.609129" lon="-6.439701">
        <ele>746.66</ele>
        <time>2021-03-27T16:30:15Z</time>
      </trkpt>
      <trkpt lat="40.608963" lon="-6.440013">
        <ele>745.23</ele>
        <time>2021-03-27T16:30:21Z</time>
      </trkpt>
      <trkpt lat="40.608917" lon="-6.440142">
        <ele>744.65</ele>
        <time>2021-03-27T16:30:26Z</time>
      </trkpt>
      <trkpt lat="40.608568" lon="-6.441466">
        <ele>739.97</ele>
        <time>2021-03-27T16:30:31Z</time>
      </trkpt>
      <trkpt lat="40.608429" lon="-6.442079">
        <ele>741.49</ele>
        <time>2021-03-27T16:30:36Z</time>
      </trkpt>
      <trkpt lat="40.608385" lon="-6.442546">
        <ele>742.1</ele>
        <time>2021-03-27T16:30:41Z</time>
      </trkpt>
      <trkpt lat="40.608392" lon="-6.442962">
        <ele>742.44</ele>
        <time>2021-03-27T16:30:46Z</time>
      </trkpt>
      <trkpt lat="40.609631" lon="-6.459501">
        <ele>735.53</ele>
        <time>2021-03-27T16:30:52Z</time>
      </trkpt>
      <trkpt lat="40.609626" lon="-6.459778">
        <ele>736.48</ele>
        <time>2021-03-27T16:30:57Z</time>
      </trkpt>
      <trkpt lat="40.609576" lon="-6.460133">
        <ele>737.0</ele>
        <time>2021-03-27T16:31:02Z</time>
      </trkpt>
      <trkpt lat="40.609205" lon="-6.46201">
        <ele>730.41</ele>
        <time>2021-03-27T16:31:07Z</time>
      </trkpt>
      <trkpt lat="40.609164" lon="-6.462439">
        <ele>730.17</ele>
        <time>2021-03-27T16:31:12Z</time>
      </trkpt>
      <trkpt lat="40.609175" lon="-6.462603">
        <ele>729.06</ele>
        <time>2021-03-27T16:31:17Z</time>
      </trkpt>
      <trkpt lat="40.60921" lon="-6.462784">
        <ele>727.84</ele>
        <time>2021-03-27T16:31:23Z</time>
      </trkpt>
      <trkpt lat="40.60931" lon="-6.463085">
        <ele>725.78</ele>
        <time>2021-03-27T16:31:28Z</time>
      </trkpt>
      <trkpt lat="40.609441" lon="-6.463369">
        <ele>725.29</ele>
        <time>2021-03-27T16:31:33Z</time>
      </trkpt>
      <trkpt lat="40.609557" lon="-6.463556">
        <ele>723.68</ele>
        <time>2021-03-27T16:31:38Z</time>
      </trkpt>
      <trkpt lat="40.610065" lon="-6.464263">
        <ele>718.89</ele>
        <time>2021-03-27T16:31:43Z</time>
      </trkpt>
      <trkpt lat="40.610167" lon="-6.464433">
        <ele>718.53</ele>
        <time>2021-03-27T16:31:48Z</time>
      </trkpt>
      <trkpt lat="40.610403" lon="-6.465094">
        <ele>717.03</ele>
        <time>2021-03-27T16:31:54Z</time>
      </trkpt>
      <trkpt lat="40.610955" lon="-6.466741">
        <ele>716.4</ele>
        <time>2021-03-27T16:31:59Z</time>
      </trkpt>
      <trkpt lat="40.611023" lon="-6.467023">
        <ele>716.25</ele>
        <time>2021-03-27T16:32:04Z</time>
      </trkpt>
      <trkpt lat="40.611049" lon="-6.467291">
        <ele>715.08</ele>
        <time>2021-03-27T16:32:09Z</time>
      </trkpt>
      <trkpt lat="40.611275" lon="-6.482929">
        <ele>676.32</ele>
        <time>2021-03-27T16:32:14Z</time>
      </trkpt>
      <trkpt lat="40.611275" lon="-6.483143">
        <ele>676.41</ele>
        <time>2021-03-27T16:32:19Z</time>
      </trkpt>
      <trkpt lat="40.611258" lon="-6.483296">
        <ele>676.07</ele>
        <time>2021-03-27T16:32:25Z</time>
      </trkpt>
      <trkpt lat="40.611195" lon="-6.483564">
        <ele>676.0</ele>
        <time>2021-03-27T16:32:30Z</time>
      </trkpt>
      <trkpt lat="40.609687" lon="-6.487236">
        <ele>669.87</ele>
        <time>2021-03-27T16:32:35Z</time>
      </trkpt>
      <trkpt lat="40.608817" lon="-6.48931">
        <ele>669.61</ele>
        <time>2021-03-27T16:32:40Z</time>
      </trkpt>
      <trkpt lat="40.60871" lon="-6.489504">
        <ele>669.57</ele>
        <time>2021-03-27T16:32:45Z</time>
      </trkpt>
      <trkpt lat="40.608535" lon="-6.489757">
        <ele>669.82</ele>
        <time>2021-03-27T16:32:51Z</time>
      </trkpt>
      <trkpt lat="40.606967" lon="-6.49162">
        <ele>666.99</ele>
        <time>2021-03-27T16:32:56Z</time>
      </trkpt>
      <trkpt lat="40.606663" lon="-6.492013">
        <ele>666.97</ele>
        <time>2021-03-27T16:33:01Z</time>
      </trkpt>
      <trkpt lat="40.606454" lon="-6.492377">
        <ele>665.77</ele>
        <time>2021-03-27T16:33:06Z</time>
      </trkpt>
      <trkpt lat="40.605466" lon="-6.494529">
        <ele>666.66</ele>
        <time>2021-03-27T16:33:11Z</time>
      </trkpt>
      <trkpt lat="40.605169" lon="-6.495235">
        <ele>668.13</ele>
        <time>2021-03-27T16:33:16Z</time>
      </trkpt>
      <trkpt lat="40.601302" lon="-6.506256">
        <ele>652.16</ele>
        <time>2021-03-27T16:33:22Z</time>
      </trkpt>
      <trkpt lat="40.601252" lon="-6.506442">
        <ele>651.22</ele>
        <time>2021-03-27T16:33:27Z</time>
      </trkpt>
      <trkpt lat="40.601232" lon="-6.506599">
        <ele>650.25</ele>
        <time>2021-03-27T16:33:32Z</time>
      </trkpt>
      <trkpt lat="40.601204" lon="-6.507431">
        <ele>642.74</ele>
        <time>2021-03-27T16:33:37Z</time>
      </trkpt>
      <trkpt lat="40.601175" lon="-6.507709">
        <ele>640.49</ele>
        <time>2021-03-27T16:33:42Z</time>
      </trkpt>
      <trkpt lat="40.601134" lon="-6.507904">
        <ele>639.13</ele>
        <time>2021-03-27T16:33:47Z</time>
      </trkpt>
      <trkpt lat="40.601079" lon="-6.508078">
        <ele>637.85</ele>
        <time>2021-03-27T16:33:53Z</time>
      </trkpt>
      <trkpt lat="40.600925" lon="-6.508386">
        <ele>633.89</ele>
        <time>2021-03-27T16:33:58Z</time>
      </trkpt>
      <trkpt lat="40.600307" lon="-6.509174">
        <ele>629.09</ele>
        <time>2021-03-27T16:34:03Z</time>
      </trkpt>
      <trkpt lat="40.600218" lon="-6.509345">
        <ele>628.94</ele>
        <time>2021-03-27T16:34:08Z</time>
      </trkpt>
      <trkpt lat="40.60017" lon="-6.509478">
        <ele>628.78</ele>
        <time>2021-03-27T16:34:13Z</time>
      </trkpt>
      <trkpt lat="40.600121" lon="-6.509757">
        <ele>629.2</ele>
        <time>2021-03-27T16:34:18Z</time>
      </trkpt>
      <trkpt lat="40.599924" lon="-6.512666">
        <ele>626.14</ele>
        <time>2021-03-27T16:34:24Z</time>
      </trkpt>
      <trkpt lat="40.599952" lon="-6.512904">
        <ele>627.28</ele>
        <time>2021-03-27T16:34:29Z</time>
      </trkpt>
      <trkpt lat="40.599982" lon="-6.513015">
        <ele>627.79</ele>
        <time>2021-03-27T16:34:34Z</time>
      </trkpt>
      <trkpt lat="40.600032" lon="-6.513094">
        <ele>627.87</ele>
        <time>2021-03-27T16:34:35Z</time>
      </trkpt>
      <trkpt lat="40.600046" lon="-6.513206">
        <ele>627.74</ele>
        <time>2021-03-27T16:34:35Z</time>
      </trkpt>
      <trkpt lat="40.600012" lon="-6.513309">
        <ele>627.91</ele>
        <time>2021-03-27T16:34:36Z</time>
      </trkpt>
      <trkpt lat="40.599943" lon="-6.513374">
        <ele>627.65</ele>
        <time>2021-03-27T16:34:37Z</time>
      </trkpt>
      <trkpt lat="40.599855" lon="-6.513621">
        <ele>626.44</ele>
        <time>2021-03-27T16:34:38Z</time>
      </trkpt>
      <trkpt lat="40.599807" lon="-6.514375">
        <ele>625.0</ele>
        <time>2021-03-27T16:34:39Z</time>
      </trkpt>
      <trkpt lat="40.599824" lon="-6.514527">
        <ele>625.11</ele>
        <time>2021-03-27T16:34:39Z</time>
      </trkpt>
      <trkpt lat="40.59986" lon="-6.514651">
        <ele>625.37</ele>
        <time>2021-03-27T16:34:40Z</time>
      </trkpt>
      <trkpt lat="40.5999" lon="-6.514697">
        <ele>625.58</ele>
        <time>2021-03-27T16:34:47Z</time>
      </trkpt>
      <trkpt lat="40.599926" lon="-6.514759">
        <ele>626.0</ele>
        <time>2021-03-27T16:34:53Z</time>
      </trkpt>
      <trkpt lat="40.599935" lon="-6.514828">
        <ele>626.53</ele>
        <time>2021-03-27T16:35:00Z</time>
      </trkpt>
      <trkpt lat="40.599922" lon="-6.514909">
        <ele>627.07</ele>
        <time>2021-03-27T16:35:07Z</time>
      </trkpt>
      <trkpt lat="40.599886" lon="-6.514978">
        <ele>627.43</ele>
        <time>2021-03-27T16:35:13Z</time>
      </trkpt>
      <trkpt lat="40.599833" lon="-6.515022">
        <ele>627.56</ele>
        <time>2021-03-27T16:35:20Z</time>
      </trkpt>
      <trkpt lat="40.599771" lon="-6.515175">
        <ele>628.44</ele>
        <time>2021-03-27T16:35:27Z</time>
      </trkpt>
      <trkpt lat="40.599737" lon="-6.515329">
        <ele>629.24</ele>
        <time>2021-03-27T16:35:33Z</time>
      </trkpt>
      <trkpt lat="40.599094" lon="-6.524554">
        <ele>646.0</ele>
        <time>2021-03-27T16:35:40Z</time>
      </trkpt>
      <trkpt lat="40.599019" lon="-6.52542">
        <ele>646.98</ele>
        <time>2021-03-27T16:35:46Z</time>
      </trkpt>
      <trkpt lat="40.598914" lon="-6.526405">
        <ele>649.91</ele>
        <time>2021-03-27T16:35:53Z</time>
      </trkpt>
      <trkpt lat="40.598881" lon="-6.526905">
        <ele>649.14</ele>
        <time>2021-03-27T16:36:00Z</time>
      </trkpt>
      <trkpt lat="40.598857" lon="-6.527839">
        <ele>647.82</ele>
        <time>2021-03-27T16:36:06Z</time>
      </trkpt>
      <trkpt lat="40.598874" lon="-6.528052">
        <ele>649.03</ele>
        <time>2021-03-27T16:36:13Z</time>
      </trkpt>
      <trkpt lat="40.599274" lon="-6.530219">
        <ele>648.39</ele>
        <time>2021-03-27T16:36:20Z</time>
      </trkpt>
      <trkpt lat="40.599414" lon="-6.530459">
        <ele>648.31</ele>
        <time>2021-03-27T16:36:26Z</time>
      </trkpt>
      <trkpt lat="40.599487" lon="-6.530484">
        <ele>648.53</ele>
        <time>2021-03-27T16:36:29Z</time>
      </trkpt>
      <trkpt lat="40.599541" lon="-6.530532">
        <ele>648.75</ele>
        <time>2021-03-27T16:36:31Z</time>
      </trkpt>
      <trkpt lat="40.59958" lon="-6.5306">
        <ele>648.81</ele>
        <time>2021-03-27T16:36:33Z</time>
      </trkpt>
      <trkpt lat="40.599601" lon="-6.53068">
        <ele>648.67</ele>
        <time>2021-03-27T16:36:36Z</time>
      </trkpt>
      <trkpt lat="40.599601" lon="-6.530766">
        <ele>648.37</ele>
        <time>2021-03-27T16:36:38Z</time>
      </trkpt>
      <trkpt lat="40.599688" lon="-6.530954">
        <ele>648.37</ele>
        <time>2021-03-27T16:36:41Z</time>
      </trkpt>
      <trkpt lat="40.599797" lon="-6.531044">
        <ele>648.78</ele>
        <time>2021-03-27T16:36:43Z</time>
      </trkpt>
      <trkpt lat="40.600339" lon="-6.531155">
        <ele>649.58</ele>
        <time>2021-03-27T16:36:45Z</time>
      </trkpt>
      <trkpt lat="40.600707" lon="-6.531145">
        <ele>648.82</ele>
        <time>2021-03-27T16:36:48Z</time>
      </trkpt>
      <trkpt lat="40.600805" lon="-6.531176">
        <ele>648.74</ele>
        <time>2021-03-27T16:36:50Z</time>
      </trkpt>
      <trkpt lat="40.60101" lon="-6.531301">
        <ele>648.11</ele>
        <time>2021-03-27T16:36:53Z</time>
      </trkpt>
      <trkpt lat="40.601875" lon="-6.531521">
        <ele>644.0</ele>
        <time>2021-03-27T16:36:55Z</time>
      </trkpt>
      <trkpt lat="40.602247" lon="-6.531737">
        <ele>644.09</ele>
        <time>2021-03-27T16:36:57Z</time>
      </trkpt>
      <trkpt lat="40.602393" lon="-6.531789">
        <ele>644.61</ele>
        <time>2021-03-27T16:37:00Z</time>
      </trkpt>
      <trkpt lat="40.602583" lon="-6.531772">
        <ele>645.3</ele>
        <time>2021-03-27T16:37:02Z</time>
      </trkpt>
      <trkpt lat="40.602627" lon="-6.531705">
        <ele>645.46</ele>
        <time>2021-03-27T16:37:09Z</time>
      </trkpt>
      <trkpt lat="40.602672" lon="-6.531671">
        <ele>645.62</ele>
        <time>2021-03-27T16:37:16Z</time>
      </trkpt>
      <trkpt lat="40.602778" lon="-6.531671">
        <ele>646.0</ele>
        <time>2021-03-27T16:37:22Z</time>
      </trkpt>
      <trkpt lat="40.602804" lon="-6.531706">
        <ele>646.19</ele>
        <time>2021-03-27T16:37:29Z</time>
      </trkpt>
      <trkpt lat="40.603156" lon="-6.531605">
        <ele>648.0</ele>
        <time>2021-03-27T16:37:36Z</time>
      </trkpt>
      <trkpt lat="40.60353" lon="-6.531637">
        <ele>649.68</ele>
        <time>2021-03-27T16:37:43Z</time>
      </trkpt>
      <trkpt lat="40.607311" lon="-6.532096">
        <ele>647.52</ele>
        <time>2021-03-27T16:37:49Z</time>
      </trkpt>
      <trkpt lat="40.607594" lon="-6.532152">
        <ele>647.34</ele>
        <time>2021-03-27T16:37:56Z</time>
      </trkpt>
      <trkpt lat="40.607822" lon="-6.532241">
        <ele>647.16</ele>
        <time>2021-03-27T16:38:03Z</time>
      </trkpt>
      <trkpt lat="40.610077" lon="-6.533708">
        <ele>653.6</ele>
        <time>2021-03-27T16:38:09Z</time>
      </trkpt>
      <trkpt lat="40.610223" lon="-6.533859">
        <ele>654.07</ele>
        <time>2021-03-27T16:38:16Z</time>
      </trkpt>
      <trkpt lat="40.613752" lon="-6.538635">
        <ele>639.93</ele>
        <time>2021-03-27T16:38:23Z</time>
      </trkpt>
      <trkpt lat="40.613967" lon="-6.538898">
        <ele>639.97</ele>
        <time>2021-03-27T16:38:30Z</time>
      </trkpt>
      <trkpt lat="40.614277" lon="-6.539198">
        <ele>638.6</ele>
        <time>2021-03-27T16:38:36Z</time>
      </trkpt>
      <trkpt lat="40.614639" lon="-6.53945">
        <ele>638.04</ele>
        <time>2021-03-27T16:38:43Z</time>
      </trkpt>
      <trkpt lat="40.614978" lon="-6.539642">
        <ele>638.11</ele>
        <time>2021-03-27T16:38:50Z</time>
      </trkpt>
      <trkpt lat="40.619596" lon="-6.542129">
        <ele>646.82</ele>
        <time>2021-03-27T16:38:57Z</time>
      </trkpt>
      <trkpt lat="40.61994" lon="-6.542344">
        <ele>649.01</ele>
        <time>2021-03-27T16:39:03Z</time>
      </trkpt>
      <trkpt lat="40.620265" lon="-6.542604">
        <ele>650.61</ele>
        <time>2021-03-27T16:39:10Z</time>
      </trkpt>
      <trkpt lat="40.620537" lon="-6.542879">
        <ele>650.02</ele>
        <time>2021-03-27T16:39:17Z</time>
      </trkpt>
      <trkpt lat="40.620756" lon="-6.543152">
        <ele>648.3</ele>
        <time>2021-03-27T16:39:23Z</time>
      </trkpt>
      <trkpt lat="40.621007" lon="-6.543547">
        <ele>646.38</ele>
        <time>2021-03-27T16:39:30Z</time>
      </trkpt>
      <trkpt lat="40.633873" lon="-6.566196">
        <ele>676.9</ele>
        <time>2021-03-27T16:39:37Z</time>
      </trkpt>
      <trkpt lat="40.646516" lon="-6.58825">
        <ele>683.7</ele>
        <time>2021-03-27T16:39:44Z</time>
      </trkpt>
      <trkpt lat="40.652261" lon="-6.598238">
        <ele>691.66</ele>
        <time>2021-03-27T16:39:50Z</time>
      </trkpt>
      <trkpt lat="40.661824" lon="-6.614778">
        <ele>696.78</ele>
        <time>2021-03-27T16:39:57Z</time>
      </trkpt>
      <trkpt lat="40.667483" lon="-6.624396">
        <ele>671.11</ele>
        <time>2021-03-27T16:40:04Z</time>
      </trkpt>
      <trkpt lat="40.669985" lon="-6.629393">
        <ele>661.64</ele>
        <time>2021-03-27T16:40:11Z</time>
      </trkpt>
      <trkpt lat="40.670099" lon="-6.629656">
        <ele>662.08</ele>
        <time>2021-03-27T16:40:17Z</time>
      </trkpt>
      <trkpt lat="40.670202" lon="-6.630058">
        <ele>660.57</ele>
        <time>2021-03-27T16:40:24Z</time>
      </trkpt>
      <trkpt lat="40.670289" lon="-6.63053">
        <ele>657.01</ele>
        <time>2021-03-27T16:40:31Z</time>
      </trkpt>
      <trkpt lat="40.670383" lon="-6.630706">
        <ele>656.11</ele>
        <time>2021-03-27T16:40:37Z</time>
      </trkpt>
      <trkpt lat="40.67116" lon="-6.631645">
        <ele>657.41</ele>
        <time>2021-03-27T16:40:44Z</time>
      </trkpt>
      <trkpt lat="40.671267" lon="-6.631738">
        <ele>657.61</ele>
        <time>2021-03-27T16:40:51Z</time>
      </trkpt>
      <trkpt lat="40.671811" lon="-6.632075">
        <ele>658.85</ele>
        <time>2021-03-27T16:40:58Z</time>
      </trkpt>
      <trkpt lat="40.69322" lon="-6.644747">
        <ele>686.22</ele>
        <time>2021-03-27T16:41:04Z</time>
      </trkpt>
      <trkpt lat="40.693622" lon="-6.644922">
        <ele>686.2</ele>
        <time>2021-03-27T16:41:11Z</time>
      </trkpt>
      <trkpt lat="40.693965" lon="-6.645045">
        <ele>683.49</ele>
        <time>2021-03-27T16:41:18Z</time>
      </trkpt>
      <trkpt lat="40.699384" lon="-6.646913">
        <ele>668.0</ele>
        <time>2021-03-27T16:41:24Z</time>
      </trkpt>
      <trkpt lat="40.70189" lon="-6.648064">
        <ele>668.57</ele>
        <time>2021-03-27T16:41:31Z</time>
      </trkpt>
      <trkpt lat="40.702417" lon="-6.648269">
        <ele>672.17</ele>
        <time>2021-03-27T16:41:38Z</time>
      </trkpt>
      <trkpt lat="40.702778" lon="-6.648355">
        <ele>673.77</ele>
        <time>2021-03-27T16:41:45Z</time>
      </trkpt>
      <trkpt lat="40.702936" lon="-6.648358">
        <ele>674.35</ele>
        <time>2021-03-27T16:41:51Z</time>
      </trkpt>
      <trkpt lat="40.703391" lon="-6.648343">
        <ele>672.73</ele>
        <time>2021-03-27T16:41:58Z</time>
      </trkpt>
      <trkpt lat="40.703637" lon="-6.648291">
        <ele>672.43</ele>
        <time>2021-03-27T16:42:05Z</time>
      </trkpt>
      <trkpt lat="40.704041" lon="-6.64811">
        <ele>677.89</ele>
        <time>2021-03-27T16:42:12Z</time>
      </trkpt>
      <trkpt lat="40.70427" lon="-6.647967">
        <ele>680.81</ele>
        <time>2021-03-27T16:42:18Z</time>
      </trkpt>
      <trkpt lat="40.704634" lon="-6.64765">
        <ele>684.6</ele>
        <time>2021-03-27T16:42:25Z</time>
      </trkpt>
      <trkpt lat="40.70479" lon="-6.647483">
        <ele>685.83</ele>
        <time>2021-03-27T16:42:32Z</time>
      </trkpt>
      <trkpt lat="40.705073" lon="-6.647106">
        <ele>686.01</ele>
        <time>2021-03-27T16:42:38Z</time>
      </trkpt>
      <trkpt lat="40.705498" lon="-6.64638">
        <ele>680.86</ele>
        <time>2021-03-27T16:42:45Z</time>
      </trkpt>
      <trkpt lat="40.706503" lon="-6.644578">
        <ele>671.8</ele>
        <time>2021-03-27T16:42:52Z</time>
      </trkpt>
      <trkpt lat="40.706646" lon="-6.644275">
        <ele>672.04</ele>
        <time>2021-03-27T16:42:59Z</time>
      </trkpt>
      <trkpt lat="40.70678" lon="-6.643933">
        <ele>670.0</ele>
        <time>2021-03-27T16:43:05Z</time>
      </trkpt>
      <trkpt lat="40.706875" lon="-6.64359">
        <ele>668.17</ele>
        <time>2021-03-27T16:43:12Z</time>
      </trkpt>
      <trkpt lat="40.706924" lon="-6.643348">
        <ele>666.41</ele>
        <time>2021-03-27T16:43:19Z</time>
      </trkpt>
      <trkpt lat="40.706985" lon="-6.642912">
        <ele>666.13</ele>
        <time>2021-03-27T16:43:26Z</time>
      </trkpt>
      <trkpt lat="40.706982" lon="-6.641489">
        <ele>654.23</ele>
        <time>2021-03-27T16:43:32Z</time>
      </trkpt>
      <trkpt lat="40.707013" lon="-6.641098">
        <ele>652.56</ele>
        <time>2021-03-27T16:43:39Z</time>
      </trkpt>
      <trkpt lat="40.707048" lon="-6.640908">
        <ele>653.25</ele>
        <time>2021-03-27T16:43:46Z</time>
      </trkpt>
      <trkpt lat="40.707169" lon="-6.6405">
        <ele>656.75</ele>
        <time>2021-03-27T16:43:52Z</time>
      </trkpt>
      <trkpt lat="40.707249" lon="-6.640317">
        <ele>658.4</ele>
        <time>2021-03-27T16:43:59Z</time>
      </trkpt>
      <trkpt lat="40.707419" lon="-6.640024">
        <ele>660.31</ele>
        <time>2021-03-27T16:44:06Z</time>
      </trkpt>
      <trkpt lat="40.707619" lon="-6.639779">
        <ele>658.86</ele>
        <time>2021-03-27T16:44:13Z</time>
      </trkpt>
      <trkpt lat="40.707765" lon="-6.639648">
        <ele>655.05</ele>
        <time>2021-03-27T16:44:19Z</time>
      </trkpt>
      <trkpt lat="40.708042" lon="-6.639463">
        <ele>643.73</ele>
        <time>2021-03-27T16:44:26Z</time>
      </trkpt>
      <trkpt lat="40.708452" lon="-6.639327">
        <ele>642.97</ele>
        <time>2021-03-27T16:44:33Z</time>
      </trkpt>
      <trkpt lat="40.708816" lon="-6.639303">
        <ele>643.79</ele>
        <time>2021-03-27T16:44:40Z</time>
      </trkpt>
      <trkpt lat="40.709026" lon="-6.639338">
        <ele>642.3</ele>
        <time>2021-03-27T16:44:46Z</time>
      </trkpt>
      <trkpt lat="40.70922" lon="-6.6394">
        <ele>640.1</ele>
        <time>2021-03-27T16:44:53Z</time>
      </trkpt>
      <trkpt lat="40.709594" lon="-6.63963">
        <ele>634.28</ele>
        <time>2021-03-27T16:45:00Z</time>
      </trkpt>
      <trkpt lat="40.711641" lon="-6.640987">
        <ele>643.32</ele>
        <time>2021-03-27T16:45:06Z</time>
      </trkpt>
      <trkpt lat="40.711988" lon="-6.641251">
        <ele>642.6</ele>
        <time>2021-03-27T16:45:13Z</time>
      </trkpt>
      <trkpt lat="40.712353" lon="-6.641596">
        <ele>643.43</ele>
        <time>2021-03-27T16:45:20Z</time>
      </trkpt>
      <trkpt lat="40.712647" lon="-6.641991">
        <ele>645.02</ele>
        <time>2021-03-27T16:45:27Z</time>
      </trkpt>
      <trkpt lat="40.71278" lon="-6.642207">
        <ele>648.04</ele>
        <time>2021-03-27T16:45:33Z</time>
      </trkpt>
      <trkpt lat="40.713261" lon="-6.643123">
        <ele>652.71</ele>
        <time>2021-03-27T16:45:40Z</time>
      </trkpt>
      <trkpt lat="40.713417" lon="-6.643361">
        <ele>653.61</ele>
        <time>2021-03-27T16:45:47Z</time>
      </trkpt>
      <trkpt lat="40.713603" lon="-6.643603">
        <ele>655.88</ele>
        <time>2021-03-27T16:45:54Z</time>
      </trkpt>
      <trkpt lat="40.713762" lon="-6.643758">
        <ele>658.51</ele>
        <time>2021-03-27T16:46:00Z</time>
      </trkpt>
      <trkpt lat="40.714194" lon="-6.644103">
        <ele>666.79</ele>
        <time>2021-03-27T16:46:07Z</time>
      </trkpt>
      <trkpt lat="40.714434" lon="-6.64423">
        <ele>666.99</ele>
        <time>2021-03-27T16:46:14Z</time>
      </trkpt>
      <trkpt lat="40.714659" lon="-6.644321">
        <ele>670.08</ele>
        <time>2021-03-27T16:46:20Z</time>
      </trkpt>
      <trkpt lat="40.715082" lon="-6.6444">
        <ele>672.8</ele>
        <time>2021-03-27T16:46:27Z</time>
      </trkpt>
      <trkpt lat="40.71557" lon="-6.644417">
        <ele>671.3</ele>
        <time>2021-03-27T16:46:34Z</time>
      </trkpt>
      <trkpt lat="40.715725" lon="-6.644385">
        <ele>671.64</ele>
        <time>2021-03-27T16:46:41Z</time>
      </trkpt>
      <trkpt lat="40.716022" lon="-6.644288">
        <ele>674.34</ele>
        <time>2021-03-27T16:46:47Z</time>
      </trkpt>
      <trkpt lat="40.716221" lon="-6.644197">
        <ele>675.83</ele>
        <time>2021-03-27T16:46:54Z</time>
      </trkpt>
      <trkpt lat="40.716539" lon="-6.644009">
        <ele>678.99</ele>
        <time>2021-03-27T16:47:01Z</time>
      </trkpt>
      <trkpt lat="40.71669" lon="-6.643887">
        <ele>681.34</ele>
        <time>2021-03-27T16:47:08Z</time>
      </trkpt>
      <trkpt lat="40.717049" lon="-6.643505">
        <ele>685.0</ele>
        <time>2021-03-27T16:47:14Z</time>
      </trkpt>
      <trkpt lat="40.71715" lon="-6.643362">
        <ele>685.0</ele>
        <time>2021-03-27T16:47:21Z</time>
      </trkpt>
      <trkpt lat="40.717963" lon="-6.642059">
        <ele>681.88</ele>
        <time>2021-03-27T16:47:28Z</time>
      </trkpt>
      <trkpt lat="40.718159" lon="-6.641809">
        <ele>680.37</ele>
        <time>2021-03-27T16:47:34Z</time>
      </trkpt>
      <trkpt lat="40.718435" lon="-6.641511">
        <ele>679.59</ele>
        <time>2021-03-27T16:47:41Z</time>
      </trkpt>
      <trkpt lat="40.718761" lon="-6.641225">
        <ele>681.45</ele>
        <time>2021-03-27T16:47:48Z</time>
      </trkpt>
      <trkpt lat="40.719185" lon="-6.640933">
        <ele>684.35</ele>
        <time>2021-03-27T16:47:55Z</time>
      </trkpt>
      <trkpt lat="40.722305" lon="-6.639079">
        <ele>678.7</ele>
        <time>2021-03-27T16:48:01Z</time>
      </trkpt>
      <trkpt lat="40.722748" lon="-6.638908">
        <ele>678.0</ele>
        <time>2021-03-27T16:48:08Z</time>
      </trkpt>
      <trkpt lat="40.723107" lon="-6.638873">
        <ele>676.59</ele>
        <time>2021-03-27T16:48:15Z</time>
      </trkpt>
      <trkpt lat="40.725357" lon="-6.638958">
        <ele>675.92</ele>
        <time>2021-03-27T16:48:22Z</time>
      </trkpt>
      <trkpt lat="40.725774" lon="-6.638936">
        <ele>679.09</ele>
        <time>2021-03-27T16:48:28Z</time>
      </trkpt>
      <trkpt lat="40.726075" lon="-6.638852">
        <ele>681.1</ele>
        <time>2021-03-27T16:48:35Z</time>
      </trkpt>
      <trkpt lat="40.726365" lon="-6.63869">
        <ele>681.26</ele>
        <time>2021-03-27T16:48:42Z</time>
      </trkpt>
      <trkpt lat="40.726647" lon="-6.638439">
        <ele>679.48</ele>
        <time>2021-03-27T16:48:48Z</time>
      </trkpt>
      <trkpt lat="40.726886" lon="-6.638141">
        <ele>682.48</ele>
        <time>2021-03-27T16:48:55Z</time>
      </trkpt>
      <trkpt lat="40.727314" lon="-6.637449">
        <ele>682.6</ele>
        <time>2021-03-27T16:49:02Z</time>
      </trkpt>
      <trkpt lat="40.72743" lon="-6.637303">
        <ele>680.26</ele>
        <time>2021-03-27T16:49:09Z</time>
      </trkpt>
      <trkpt lat="40.727606" lon="-6.637122">
        <ele>678.17</ele>
        <time>2021-03-27T16:49:15Z</time>
      </trkpt>
      <trkpt lat="40.728002" lon="-6.636858">
        <ele>678.56</ele>
        <time>2021-03-27T16:49:22Z</time>
      </trkpt>
      <trkpt lat="40.728158" lon="-6.636801">
        <ele>679.76</ele>
        <time>2021-03-27T16:49:29Z</time>
      </trkpt>
      <trkpt lat="40.7285" lon="-6.636741">
        <ele>681.37</ele>
        <time>2021-03-27T16:49:36Z</time>
      </trkpt>
      <trkpt lat="40.728749" lon="-6.636736">
        <ele>680.14</ele>
        <time>2021-03-27T16:49:42Z</time>
      </trkpt>
      <trkpt lat="40.730139" lon="-6.636904">
        <ele>675.14</ele>
        <time>2021-03-27T16:49:49Z</time>
      </trkpt>
      <trkpt lat="40.73067" lon="-6.637048">
        <ele>678.17</ele>
        <time>2021-03-27T16:49:56Z</time>
      </trkpt>
      <trkpt lat="40.735402" lon="-6.638563">
        <ele>696.9</ele>
        <time>2021-03-27T16:50:02Z</time>
      </trkpt>
      <trkpt lat="40.735684" lon="-6.638702">
        <ele>694.74</ele>
        <time>2021-03-27T16:50:09Z</time>
      </trkpt>
      <trkpt lat="40.735866" lon="-6.638825">
        <ele>693.51</ele>
        <time>2021-03-27T16:50:16Z</time>
      </trkpt>
      <trkpt lat="40.736071" lon="-6.639002">
        <ele>696.96</ele>
        <time>2021-03-27T16:50:23Z</time>
      </trkpt>
      <trkpt lat="40.736348" lon="-6.639376">
        <ele>704.92</ele>
        <time>2021-03-27T16:50:29Z</time>
      </trkpt>
      <trkpt lat="40.736468" lon="-6.639603">
        <ele>707.26</ele>
        <time>2021-03-27T16:50:36Z</time>
      </trkpt>
      <trkpt lat="40.736662" lon="-6.640102">
        <ele>708.58</ele>
        <time>2021-03-27T16:50:43Z</time>
      </trkpt>
      <trkpt lat="40.737101" lon="-6.641854">
        <ele>718.11</ele>
        <time>2021-03-27T16:50:50Z</time>
      </trkpt>
      <trkpt lat="40.737177" lon="-6.642087">
        <ele>719.87</ele>
        <time>2021-03-27T16:50:56Z</time>
      </trkpt>
      <trkpt lat="40.737363" lon="-6.642506">
        <ele>723.53</ele>
        <time>2021-03-27T16:51:03Z</time>
      </trkpt>
      <trkpt lat="40.73765" lon="-6.642898">
        <ele>727.93</ele>
        <time>2021-03-27T16:51:10Z</time>
      </trkpt>
      <trkpt lat="40.737786" lon="-6.643032">
        <ele>729.17</ele>
        <time>2021-03-27T16:51:16Z</time>
      </trkpt>
      <trkpt lat="40.738036" lon="-6.643212">
        <ele>730.7</ele>
        <time>2021-03-27T16:51:23Z</time>
      </trkpt>
      <trkpt lat="40.738228" lon="-6.643314">
        <ele>730.22</ele>
        <time>2021-03-27T16:51:30Z</time>
      </trkpt>
      <trkpt lat="40.738632" lon="-6.643419">
        <ele>730.15</ele>
        <time>2021-03-27T16:51:37Z</time>
      </trkpt>
      <trkpt lat="40.738829" lon="-6.643422">
        <ele>730.83</ele>
        <time>2021-03-27T16:51:43Z</time>
      </trkpt>
      <trkpt lat="40.739089" lon="-6.64338">
        <ele>732.22</ele>
        <time>2021-03-27T16:51:50Z</time>
      </trkpt>
      <trkpt lat="40.740927" lon="-6.642762">
        <ele>741.78</ele>
        <time>2021-03-27T16:51:57Z</time>
      </trkpt>
      <trkpt lat="40.741139" lon="-6.642712">
        <ele>741.37</ele>
        <time>2021-03-27T16:52:04Z</time>
      </trkpt>
      <trkpt lat="40.741498" lon="-6.642703">
        <ele>741.51</ele>
        <time>2021-03-27T16:52:10Z</time>
      </trkpt>
      <trkpt lat="40.741624" lon="-6.642718">
        <ele>742.6</ele>
        <time>2021-03-27T16:52:17Z</time>
      </trkpt>
      <trkpt lat="40.741993" lon="-6.642858">
        <ele>746.93</ele>
        <time>2021-03-27T16:52:24Z</time>
      </trkpt>
      <trkpt lat="40.742321" lon="-6.643072">
        <ele>748.32</ele>
        <time>2021-03-27T16:52:30Z</time>
      </trkpt>
      <trkpt lat="40.742571" lon="-6.643334">
        <ele>749.25</ele>
        <time>2021-03-27T16:52:37Z</time>
      </trkpt>
      <trkpt lat="40.743175" lon="-6.64416">
        <ele>751.29</ele>
        <time>2021-03-27T16:52:44Z</time>
      </trkpt>
      <trkpt lat="40.743495" lon="-6.644472">
        <ele>752.48</ele>
        <time>2021-03-27T16:52:51Z</time>
      </trkpt>
      <trkpt lat="40.743674" lon="-6.644607">
        <ele>752.74</ele>
        <time>2021-03-27T16:52:57Z</time>
      </trkpt>
      <trkpt lat="40.743871" lon="-6.644708">
        <ele>753.03</ele>
        <time>2021-03-27T16:53:04Z</time>
      </trkpt>
      <trkpt lat="40.744051" lon="-6.644768">
        <ele>753.91</ele>
        <time>2021-03-27T16:53:11Z</time>
      </trkpt>
      <trkpt lat="40.744425" lon="-6.644819">
        <ele>754.91</ele>
        <time>2021-03-27T16:53:18Z</time>
      </trkpt>
      <trkpt lat="40.744747" lon="-6.644781">
        <ele>753.51</ele>
        <time>2021-03-27T16:53:24Z</time>
      </trkpt>
      <trkpt lat="40.750913" lon="-6.64323">
        <ele>759.42</ele>
        <time>2021-03-27T16:53:31Z</time>
      </trkpt>
      <trkpt lat="40.757992" lon="-6.641525">
        <ele>739.77</ele>
        <time>2021-03-27T16:53:38Z</time>
      </trkpt>
      <trkpt lat="40.758377" lon="-6.641447">
        <ele>738.39</ele>
        <time>2021-03-27T16:53:44Z</time>
      </trkpt>
      <trkpt lat="40.758734" lon="-6.641453">
        <ele>735.45</ele>
        <time>2021-03-27T16:53:51Z</time>
      </trkpt>
      <trkpt lat="40.759061" lon="-6.641546">
        <ele>734.78</ele>
        <time>2021-03-27T16:53:58Z</time>
      </trkpt>
      <trkpt lat="40.759268" lon="-6.641662">
        <ele>734.62</ele>
        <time>2021-03-27T16:54:05Z</time>
      </trkpt>
      <trkpt lat="40.759466" lon="-6.641803">
        <ele>733.89</ele>
        <time>2021-03-27T16:54:11Z</time>
      </trkpt>
      <trkpt lat="40.759651" lon="-6.641985">
        <ele>732.36</ele>
        <time>2021-03-27T16:54:18Z</time>
      </trkpt>
      <trkpt lat="40.759796" lon="-6.642156">
        <ele>731.38</ele>
        <time>2021-03-27T16:54:25Z</time>
      </trkpt>
      <trkpt lat="40.761234" lon="-6.644412">
        <ele>736.43</ele>
        <time>2021-03-27T16:54:32Z</time>
      </trkpt>
      <trkpt lat="40.762602" lon="-6.646598">
        <ele>738.12</ele>
        <time>2021-03-27T16:54:38Z</time>
      </trkpt>
      <trkpt lat="40.762949" lon="-6.647102">
        <ele>738.93</ele>
        <time>2021-03-27T16:54:45Z</time>
      </trkpt>
      <trkpt lat="40.763132" lon="-6.647324">
        <ele>738.72</ele>
        <time>2021-03-27T16:54:52Z</time>
      </trkpt>
      <trkpt lat="40.763593" lon="-6.647755">
        <ele>736.24</ele>
        <time>2021-03-27T16:54:58Z</time>
      </trkpt>
      <trkpt lat="40.763823" lon="-6.647919">
        <ele>735.74</ele>
        <time>2021-03-27T16:55:05Z</time>
      </trkpt>
      <trkpt lat="40.764059" lon="-6.64806">
        <ele>734.99</ele>
        <time>2021-03-27T16:55:12Z</time>
      </trkpt>
      <trkpt lat="40.764601" lon="-6.64827">
        <ele>736.92</ele>
        <time>2021-03-27T16:55:19Z</time>
      </trkpt>
      <trkpt lat="40.7649" lon="-6.648327">
        <ele>738.31</ele>
        <time>2021-03-27T16:55:25Z</time>
      </trkpt>
      <trkpt lat="40.765176" lon="-6.648356">
        <ele>738.8</ele>
        <time>2021-03-27T16:55:32Z</time>
      </trkpt>
      <trkpt lat="40.765499" lon="-6.64835">
        <ele>738.83</ele>
        <time>2021-03-27T16:55:39Z</time>
      </trkpt>
      <trkpt lat="40.765726" lon="-6.648326">
        <ele>737.83</ele>
        <time>2021-03-27T16:55:46Z</time>
      </trkpt>
      <trkpt lat="40.766187" lon="-6.648198">
        <ele>737.49</ele>
        <time>2021-03-27T16:55:52Z</time>
      </trkpt>
      <trkpt lat="40.766405" lon="-6.648102">
        <ele>737.66</ele>
        <time>2021-03-27T16:55:59Z</time>
      </trkpt>
      <trkpt lat="40.766837" lon="-6.647851">
        <ele>733.77</ele>
        <time>2021-03-27T16:56:06Z</time>
      </trkpt>
      <trkpt lat="40.767097" lon="-6.647668">
        <ele>733.57</ele>
        <time>2021-03-27T16:56:12Z</time>
      </trkpt>
      <trkpt lat="40.768623" lon="-6.646484">
        <ele>727.61</ele>
        <time>2021-03-27T16:56:19Z</time>
      </trkpt>
      <trkpt lat="40.768812" lon="-6.646358">
        <ele>727.5</ele>
        <time>2021-03-27T16:56:26Z</time>
      </trkpt>
      <trkpt lat="40.768965" lon="-6.646286">
        <ele>727.91</ele>
        <time>2021-03-27T16:56:33Z</time>
      </trkpt>
      <trkpt lat="40.769157" lon="-6.646211">
        <ele>728.63</ele>
        <time>2021-03-27T16:56:39Z</time>
      </trkpt>
      <trkpt lat="40.769367" lon="-6.646164">
        <ele>728.09</ele>
        <time>2021-03-27T16:56:46Z</time>
      </trkpt>
      <trkpt lat="40.771106" lon="-6.646066">
        <ele>717.18</ele>
        <time>2021-03-27T16:56:53Z</time>
      </trkpt>
      <trkpt lat="40.771291" lon="-6.646032">
        <ele>717.93</ele>
        <time>2021-03-27T16:57:00Z</time>
      </trkpt>
      <trkpt lat="40.7716" lon="-6.64593">
        <ele>719.18</ele>
        <time>2021-03-27T16:57:06Z</time>
      </trkpt>
      <trkpt lat="40.771904" lon="-6.645742">
        <ele>717.86</ele>
        <time>2021-03-27T16:57:13Z</time>
      </trkpt>
      <trkpt lat="40.772041" lon="-6.64564">
        <ele>717.41</ele>
        <time>2021-03-27T16:57:20Z</time>
      </trkpt>
      <trkpt lat="40.773202" lon="-6.644601">
        <ele>710.54</ele>
        <time>2021-03-27T16:57:26Z</time>
      </trkpt>
      <trkpt lat="40.774135" lon="-6.643752">
        <ele>702.67</ele>
        <time>2021-03-27T16:57:33Z</time>
      </trkpt>
      <trkpt lat="40.774333" lon="-6.643541">
        <ele>701.7</ele>
        <time>2021-03-27T16:57:40Z</time>
      </trkpt>
      <trkpt lat="40.77467" lon="-6.643088">
        <ele>700.09</ele>
        <time>2021-03-27T16:57:47Z</time>
      </trkpt>
      <trkpt lat="40.775896" lon="-6.64127">
        <ele>684.49</ele>
        <time>2021-03-27T16:57:53Z</time>
      </trkpt>
      <trkpt lat="40.776119" lon="-6.640965">
        <ele>680.98</ele>
        <time>2021-03-27T16:58:00Z</time>
      </trkpt>
      <trkpt lat="40.776452" lon="-6.640609">
        <ele>680.92</ele>
        <time>2021-03-27T16:58:07Z</time>
      </trkpt>
      <trkpt lat="40.776649" lon="-6.640427">
        <ele>682.38</ele>
        <time>2021-03-27T16:58:14Z</time>
      </trkpt>
      <trkpt lat="40.776895" lon="-6.640236">
        <ele>681.85</ele>
        <time>2021-03-27T16:58:20Z</time>
      </trkpt>
      <trkpt lat="40.777115" lon="-6.640097">
        <ele>680.34</ele>
        <time>2021-03-27T16:58:27Z</time>
      </trkpt>
      <trkpt lat="40.777475" lon="-6.639921">
        <ele>678.74</ele>
        <time>2021-03-27T16:58:34Z</time>
      </trkpt>
      <trkpt lat="40.77779" lon="-6.639812">
        <ele>677.22</ele>
        <time>2021-03-27T16:58:40Z</time>
      </trkpt>
      <trkpt lat="40.779562" lon="-6.639308">
        <ele>671.0</ele>
        <time>2021-03-27T16:58:47Z</time>
      </trkpt>
      <trkpt lat="40.78018" lon="-6.639087">
        <ele>670.9</ele>
        <time>2021-03-27T16:58:54Z</time>
      </trkpt>
      <trkpt lat="40.781631" lon="-6.638453">
        <ele>681.95</ele>
        <time>2021-03-27T16:59:01Z</time>
      </trkpt>
      <trkpt lat="40.782549" lon="-6.63799">
        <ele>691.64</ele>
        <time>2021-03-27T16:59:07Z</time>
      </trkpt>
      <trkpt lat="40.783118" lon="-6.637786">
        <ele>700.36</ele>
        <time>2021-03-27T16:59:14Z</time>
      </trkpt>
      <trkpt lat="40.783493" lon="-6.637703">
        <ele>702.96</ele>
        <time>2021-03-27T16:59:21Z</time>
      </trkpt>
      <trkpt lat="40.784061" lon="-6.637663">
        <ele>704.36</ele>
        <time>2021-03-27T16:59:28Z</time>
      </trkpt>
      <trkpt lat="40.785081" lon="-6.637735">
        <ele>707.54</ele>
        <time>2021-03-27T16:59:34Z</time>
      </trkpt>
      <trkpt lat="40.787044" lon="-6.638011">
        <ele>707.42</ele>
        <time>2021-03-27T16:59:41Z</time>
      </trkpt>
      <trkpt lat="40.787562" lon="-6.638028">
        <ele>706.0</ele>
        <time>2021-03-27T16:59:48Z</time>
      </trkpt>
      <trkpt lat="40.788163" lon="-6.638021">
        <ele>707.0</ele>
        <time>2021-03-27T16:59:54Z</time>
      </trkpt>
      <trkpt lat="40.78893" lon="-6.637951">
        <ele>704.92</ele>
        <time>2021-03-27T17:00:01Z</time>
      </trkpt>
      <trkpt lat="40.790186" lon="-6.637768">
        <ele>703.33</ele>
        <time>2021-03-27T17:00:08Z</time>
      </trkpt>
      <trkpt lat="40.79077" lon="-6.637735">
        <ele>707.04</ele>
        <time>2021-03-27T17:00:15Z</time>
      </trkpt>
      <trkpt lat="40.792497" lon="-6.637732">
        <ele>716.8</ele>
        <time>2021-03-27T17:00:21Z</time>
      </trkpt>
      <trkpt lat="40.792941" lon="-6.6377">
        <ele>718.75</ele>
        <time>2021-03-27T17:00:28Z</time>
      </trkpt>
      <trkpt lat="40.79642" lon="-6.637053">
        <ele>726.15</ele>
        <time>2021-03-27T17:00:35Z</time>
      </trkpt>
      <trkpt lat="40.796616" lon="-6.637035">
        <ele>727.08</ele>
        <time>2021-03-27T17:00:42Z</time>
      </trkpt>
      <trkpt lat="40.797156" lon="-6.637038">
        <ele>730.6</ele>
        <time>2021-03-27T17:00:48Z</time>
      </trkpt>
      <trkpt lat="40.797623" lon="-6.637128">
        <ele>726.97</ele>
        <time>2021-03-27T17:00:55Z</time>
      </trkpt>
      <trkpt lat="40.798185" lon="-6.637322">
        <ele>727.93</ele>
        <time>2021-03-27T17:01:02Z</time>
      </trkpt>
      <trkpt lat="40.807756" lon="-6.641476">
        <ele>744.26</ele>
        <time>2021-03-27T17:01:08Z</time>
      </trkpt>
      <trkpt lat="40.80918" lon="-6.64211">
        <ele>750.78</ele>
        <time>2021-03-27T17:01:15Z</time>
      </trkpt>
      <trkpt lat="40.8094" lon="-6.64224">
        <ele>751.33</ele>
        <time>2021-03-27T17:01:22Z</time>
      </trkpt>
      <trkpt lat="40.809923" lon="-6.642668">
        <ele>754.78</ele>
        <time>2021-03-27T17:01:29Z</time>
      </trkpt>
      <trkpt lat="40.810164" lon="-6.642978">
        <ele>756.18</ele>
        <time>2021-03-27T17:01:35Z</time>
      </trkpt>
      <trkpt lat="40.810332" lon="-6.64324">
        <ele>756.73</ele>
        <time>2021-03-27T17:01:42Z</time>
      </trkpt>
      <trkpt lat="40.810557" lon="-6.643663">
        <ele>756.19</ele>
        <time>2021-03-27T17:01:49Z</time>
      </trkpt>
      <trkpt lat="40.810684" lon="-6.643984">
        <ele>756.7</ele>
        <time>2021-03-27T17:01:56Z</time>
      </trkpt>
      <trkpt lat="40.810854" lon="-6.644592">
        <ele>756.66</ele>
        <time>2021-03-27T17:02:02Z</time>
      </trkpt>
      <trkpt lat="40.815381" lon="-6.663755">
        <ele>726.93</ele>
        <time>2021-03-27T17:02:09Z</time>
      </trkpt>
      <trkpt lat="40.815497" lon="-6.664157">
        <ele>725.45</ele>
        <time>2021-03-27T17:02:16Z</time>
      </trkpt>
      <trkpt lat="40.81561" lon="-6.664471">
        <ele>725.26</ele>
        <time>2021-03-27T17:02:22Z</time>
      </trkpt>
      <trkpt lat="40.815786" lon="-6.664842">
        <ele>725.17</ele>
        <time>2021-03-27T17:02:29Z</time>
      </trkpt>
      <trkpt lat="40.815983" lon="-6.665175">
        <ele>724.46</ele>
        <time>2021-03-27T17:02:36Z</time>
      </trkpt>
      <trkpt lat="40.816169" lon="-6.665417">
        <ele>724.29</ele>
        <time>2021-03-27T17:02:43Z</time>
      </trkpt>
      <trkpt lat="40.816485" lon="-6.665753">
        <ele>724.71</ele>
        <time>2021-03-27T17:02:49Z</time>
      </trkpt>
      <trkpt lat="40.819848" lon="-6.668733">
        <ele>721.45</ele>
        <time>2021-03-27T17:02:56Z</time>
      </trkpt>
      <trkpt lat="40.820322" lon="-6.669201">
        <ele>721.56</ele>
        <time>2021-03-27T17:03:03Z</time>
      </trkpt>
      <trkpt lat="40.820744" lon="-6.669678">
        <ele>719.95</ele>
        <time>2021-03-27T17:03:10Z</time>
      </trkpt>
      <trkpt lat="40.821163" lon="-6.670212">
        <ele>719.67</ele>
        <time>2021-03-27T17:03:16Z</time>
      </trkpt>
      <trkpt lat="40.821547" lon="-6.670765">
        <ele>716.86</ele>
        <time>2021-03-27T17:03:23Z</time>
      </trkpt>
      <trkpt lat="40.821778" lon="-6.671136">
        <ele>717.49</ele>
        <time>2021-03-27T17:03:30Z</time>
      </trkpt>
      <trkpt lat="40.822194" lon="-6.671894">
        <ele>718.26</ele>
        <time>2021-03-27T17:03:36Z</time>
      </trkpt>
      <trkpt lat="40.822602" lon="-6.672746">
        <ele>720.58</ele>
        <time>2021-03-27T17:03:43Z</time>
      </trkpt>
      <trkpt lat="40.825427" lon="-6.678856">
        <ele>714.21</ele>
        <time>2021-03-27T17:03:50Z</time>
      </trkpt>
      <trkpt lat="40.825655" lon="-6.679393">
        <ele>714.61</ele>
        <time>2021-03-27T17:03:57Z</time>
      </trkpt>
      <trkpt lat="40.825772" lon="-6.679705">
        <ele>714.08</ele>
        <time>2021-03-27T17:04:03Z</time>
      </trkpt>
      <trkpt lat="40.825863" lon="-6.680012">
        <ele>710.96</ele>
        <time>2021-03-27T17:04:10Z</time>
      </trkpt>
      <trkpt lat="40.825931" lon="-6.680337">
        <ele>710.43</ele>
        <time>2021-03-27T17:04:17Z</time>
      </trkpt>
      <trkpt lat="40.82634" lon="-6.683075">
        <ele>707.23</ele>
        <time>2021-03-27T17:04:24Z</time>
      </trkpt>
      <trkpt lat="40.82642" lon="-6.683436">
        <ele>707.78</ele>
        <time>2021-03-27T17:04:30Z</time>
      </trkpt>
      <trkpt lat="40.82653" lon="-6.683775">
        <ele>707.28</ele>
        <time>2021-03-27T17:04:37Z</time>
      </trkpt>
      <trkpt lat="40.826643" lon="-6.684031">
        <ele>707.13</ele>
        <time>2021-03-27T17:04:44Z</time>
      </trkpt>
      <trkpt lat="40.826822" lon="-6.684351">
        <ele>707.1</ele>
        <time>2021-03-27T17:04:50Z</time>
      </trkpt>
      <trkpt lat="40.827049" lon="-6.684683">
        <ele>706.63</ele>
        <time>2021-03-27T17:04:57Z</time>
      </trkpt>
      <trkpt lat="40.830953" lon="-6.689822">
        <ele>703.42</ele>
        <time>2021-03-27T17:05:04Z</time>
      </trkpt>
      <trkpt lat="40.831162" lon="-6.690046">
        <ele>704.14</ele>
        <time>2021-03-27T17:05:11Z</time>
      </trkpt>
      <trkpt lat="40.831348" lon="-6.690226">
        <ele>701.47</ele>
        <time>2021-03-27T17:05:17Z</time>
      </trkpt>
      <trkpt lat="40.831667" lon="-6.690482">
        <ele>698.0</ele>
        <time>2021-03-27T17:05:24Z</time>
      </trkpt>
      <trkpt lat="40.835052" lon="-6.693019">
        <ele>692.24</ele>
        <time>2021-03-27T17:05:31Z</time>
      </trkpt>
      <trkpt lat="40.835251" lon="-6.693198">
        <ele>691.53</ele>
        <time>2021-03-27T17:05:38Z</time>
      </trkpt>
      <trkpt lat="40.835457" lon="-6.693428">
        <ele>690.01</ele>
        <time>2021-03-27T17:05:44Z</time>
      </trkpt>
      <trkpt lat="40.835637" lon="-6.693685">
        <ele>689.93</ele>
        <time>2021-03-27T17:05:51Z</time>
      </trkpt>
      <trkpt lat="40.839345" lon="-6.700192">
        <ele>706.23</ele>
        <time>2021-03-27T17:05:58Z</time>
      </trkpt>
      <trkpt lat="40.839503" lon="-6.700435">
        <ele>707.48</ele>
        <time>2021-03-27T17:06:04Z</time>
      </trkpt>
      <trkpt lat="40.839704" lon="-6.700696">
        <ele>708.44</ele>
        <time>2021-03-27T17:06:11Z</time>
      </trkpt>
      <trkpt lat="40.839903" lon="-6.700899">
        <ele>709.0</ele>
        <time>2021-03-27T17:06:18Z</time>
      </trkpt>
      <trkpt lat="40.840086" lon="-6.701069">
        <ele>708.74</ele>
        <time>2021-03-27T17:06:25Z</time>
      </trkpt>
      <trkpt lat="40.840488" lon="-6.701315">
        <ele>708.38</ele>
        <time>2021-03-27T17:06:31Z</time>
      </trkpt>
      <trkpt lat="40.840754" lon="-6.701421">
        <ele>707.32</ele>
        <time>2021-03-27T17:06:38Z</time>
      </trkpt>
      <trkpt lat="40.844097" lon="-6.702452">
        <ele>691.47</ele>
        <time>2021-03-27T17:06:45Z</time>
      </trkpt>
      <trkpt lat="40.848461" lon="-6.70379">
        <ele>675.99</ele>
        <time>2021-03-27T17:06:52Z</time>
      </trkpt>
      <trkpt lat="40.848757" lon="-6.70386">
        <ele>675.32</ele>
        <time>2021-03-27T17:06:58Z</time>
      </trkpt>
      <trkpt lat="40.849314" lon="-6.703888">
        <ele>669.94</ele>
        <time>2021-03-27T17:07:05Z</time>
      </trkpt>
      <trkpt lat="40.851591" lon="-6.703685">
        <ele>655.01</ele>
        <time>2021-03-27T17:07:12Z</time>
      </trkpt>
      <trkpt lat="40.853444" lon="-6.703497">
        <ele>661.04</ele>
        <time>2021-03-27T17:07:18Z</time>
      </trkpt>
      <trkpt lat="40.85383" lon="-6.703482">
        <ele>665.15</ele>
        <time>2021-03-27T17:07:25Z</time>
      </trkpt>
      <trkpt lat="40.854225" lon="-6.703509">
        <ele>669.76</ele>
        <time>2021-03-27T17:07:32Z</time>
      </trkpt>
      <trkpt lat="40.854569" lon="-6.703584">
        <ele>670.44</ele>
        <time>2021-03-27T17:07:39Z</time>
      </trkpt>
      <trkpt lat="40.855093" lon="-6.703801">
        <ele>670.0</ele>
        <time>2021-03-27T17:07:45Z</time>
      </trkpt>
      <trkpt lat="40.855943" lon="-6.704298">
        <ele>664.74</ele>
        <time>2021-03-27T17:07:52Z</time>
      </trkpt>
      <trkpt lat="40.856167" lon="-6.704407">
        <ele>662.78</ele>
        <time>2021-03-27T17:07:59Z</time>
      </trkpt>
      <trkpt lat="40.85646" lon="-6.704515">
        <ele>660.99</ele>
        <time>2021-03-27T17:08:06Z</time>
      </trkpt>
      <trkpt lat="40.857307" lon="-6.704706">
        <ele>656.15</ele>
        <time>2021-03-27T17:08:12Z</time>
      </trkpt>
      <trkpt lat="40.85828" lon="-6.704895">
        <ele>652.0</ele>
        <time>2021-03-27T17:08:19Z</time>
      </trkpt>
      <trkpt lat="40.859052" lon="-6.704955">
        <ele>658.42</ele>
        <time>2021-03-27T17:08:26Z</time>
      </trkpt>
      <trkpt lat="40.859548" lon="-6.704941">
        <ele>661.53</ele>
        <time>2021-03-27T17:08:32Z</time>
      </trkpt>
      <trkpt lat="40.862396" lon="-6.704634">
        <ele>665.88</ele>
        <time>2021-03-27T17:08:39Z</time>
      </trkpt>
      <trkpt lat="40.862969" lon="-6.704667">
        <ele>668.74</ele>
        <time>2021-03-27T17:08:46Z</time>
      </trkpt>
      <trkpt lat="40.863247" lon="-6.704724">
        <ele>668.32</ele>
        <time>2021-03-27T17:08:53Z</time>
      </trkpt>
      <trkpt lat="40.869234" lon="-6.706403">
        <ele>691.2</ele>
        <time>2021-03-27T17:08:59Z</time>
      </trkpt>
      <trkpt lat="40.869672" lon="-6.706571">
        <ele>693.08</ele>
        <time>2021-03-27T17:09:06Z</time>
      </trkpt>
      <trkpt lat="40.869975" lon="-6.706723">
        <ele>694.44</ele>
        <time>2021-03-27T17:09:13Z</time>
      </trkpt>
      <trkpt lat="40.870874" lon="-6.707271">
        <ele>694.45</ele>
        <time>2021-03-27T17:09:20Z</time>
      </trkpt>
      <trkpt lat="40.883787" lon="-6.715305">
        <ele>735.66</ele>
        <time>2021-03-27T17:09:26Z</time>
      </trkpt>
      <trkpt lat="40.884171" lon="-6.715518">
        <ele>736.87</ele>
        <time>2021-03-27T17:09:33Z</time>
      </trkpt>
      <trkpt lat="40.884459" lon="-6.715632">
        <ele>737.05</ele>
        <time>2021-03-27T17:09:40Z</time>
      </trkpt>
      <trkpt lat="40.884719" lon="-6.715707">
        <ele>737.99</ele>
        <time>2021-03-27T17:09:46Z</time>
      </trkpt>
      <trkpt lat="40.885042" lon="-6.715769">
        <ele>740.23</ele>
        <time>2021-03-27T17:09:53Z</time>
      </trkpt>
      <trkpt lat="40.920494" lon="-6.71585">
        <ele>690.79</ele>
        <time>2021-03-27T17:10:00Z</time>
      </trkpt>
      <trkpt lat="40.931831" lon="-6.715671">
        <ele>670.17</ele>
        <time>2021-03-27T17:10:07Z</time>
      </trkpt>
      <trkpt lat="40.932034" lon="-6.715727">
        <ele>669.28</ele>
        <time>2021-03-27T17:10:13Z</time>
      </trkpt>
      <trkpt lat="40.932869" lon="-6.716273">
        <ele>667.68</ele>
        <time>2021-03-27T17:10:20Z</time>
      </trkpt>
      <trkpt lat="40.933127" lon="-6.716413">
        <ele>670.43</ele>
        <time>2021-03-27T17:10:27Z</time>
      </trkpt>
      <trkpt lat="40.933271" lon="-6.716427">
        <ele>671.05</ele>
        <time>2021-03-27T17:10:34Z</time>
      </trkpt>
      <trkpt lat="40.934048" lon="-6.716295">
        <ele>673.81</ele>
        <time>2021-03-27T17:10:40Z</time>
      </trkpt>
      <trkpt lat="40.934133" lon="-6.716297">
        <ele>674.42</ele>
        <time>2021-03-27T17:10:47Z</time>
      </trkpt>
      <trkpt lat="40.93428" lon="-6.716355">
        <ele>674.52</ele>
        <time>2021-03-27T17:10:54Z</time>
      </trkpt>
      <trkpt lat="40.934888" lon="-6.717014">
        <ele>674.4</ele>
        <time>2021-03-27T17:11:00Z</time>
      </trkpt>
      <trkpt lat="40.935134" lon="-6.717162">
        <ele>674.1</ele>
        <time>2021-03-27T17:11:07Z</time>
      </trkpt>
      <trkpt lat="40.935367" lon="-6.717258">
        <ele>674.32</ele>
        <time>2021-03-27T17:11:14Z</time>
      </trkpt>
      <trkpt lat="40.935702" lon="-6.7173">
        <ele>675.53</ele>
        <time>2021-03-27T17:11:21Z</time>
      </trkpt>
      <trkpt lat="40.936138" lon="-6.717124">
        <ele>676.68</ele>
        <time>2021-03-27T17:11:27Z</time>
      </trkpt>
      <trkpt lat="40.936374" lon="-6.717035">
        <ele>676.96</ele>
        <time>2021-03-27T17:11:34Z</time>
      </trkpt>
      <trkpt lat="40.937285" lon="-6.716547">
        <ele>680.32</ele>
        <time>2021-03-27T17:11:41Z</time>
      </trkpt>
      <trkpt lat="40.937472" lon="-6.716534">
        <ele>681.33</ele>
        <time>2021-03-27T17:11:48Z</time>
      </trkpt>
      <trkpt lat="40.938172" lon="-6.716584">
        <ele>681.87</ele>
        <time>2021-03-27T17:11:51Z</time>
      </trkpt>
      <trkpt lat="40.938848" lon="-6.716635">
        <ele>681.89</ele>
        <time>2021-03-27T17:11:54Z</time>
      </trkpt>
      <trkpt lat="40.94083" lon="-6.716764">
        <ele>684.99</ele>
        <time>2021-03-27T17:11:57Z</time>
      </trkpt>
      <trkpt lat="40.941529" lon="-6.71679">
        <ele>684.72</ele>
        <time>2021-03-27T17:12:00Z</time>
      </trkpt>
      <trkpt lat="40.941743" lon="-6.716778">
        <ele>684.84</ele>
        <time>2021-03-27T17:12:03Z</time>
      </trkpt>
      <trkpt lat="40.94239" lon="-6.716643">
        <ele>684.95</ele>
        <time>2021-03-27T17:12:06Z</time>
      </trkpt>
      <trkpt lat="40.945107" lon="-6.716029">
        <ele>675.11</ele>
        <time>2021-03-27T17:12:09Z</time>
      </trkpt>
      <trkpt lat="40.945362" lon="-6.716026">
        <ele>675.3</ele>
        <time>2021-03-27T17:12:12Z</time>
      </trkpt>
      <trkpt lat="40.948066" lon="-6.71664">
        <ele>676.0</ele>
        <time>2021-03-27T17:12:15Z</time>
      </trkpt>
      <trkpt lat="40.948562" lon="-6.716781">
        <ele>676.48</ele>
        <time>2021-03-27T17:12:18Z</time>
      </trkpt>
      <trkpt lat="40.948856" lon="-6.716954">
        <ele>677.03</ele>
        <time>2021-03-27T17:12:21Z</time>
      </trkpt>
      <trkpt lat="40.949644" lon="-6.717591">
        <ele>674.14</ele>
        <time>2021-03-27T17:12:24Z</time>
      </trkpt>
      <trkpt lat="40.949994" lon="-6.717841">
        <ele>671.8</ele>
        <time>2021-03-27T17:12:27Z</time>
      </trkpt>
      <trkpt lat="40.950159" lon="-6.717933">
        <ele>671.76</ele>
        <time>2021-03-27T17:12:30Z</time>
      </trkpt>
      <trkpt lat="40.951291" lon="-6.718485">
        <ele>673.84</ele>
        <time>2021-03-27T17:12:33Z</time>
      </trkpt>
      <trkpt lat="40.951888" lon="-6.71877">
        <ele>673.54</ele>
        <time>2021-03-27T17:12:36Z</time>
      </trkpt>
      <trkpt lat="40.955117" lon="-6.719556">
        <ele>676.58</ele>
        <time>2021-03-27T17:12:39Z</time>
      </trkpt>
      <trkpt lat="40.955278" lon="-6.719625">
        <ele>676.0</ele>
        <time>2021-03-27T17:12:42Z</time>
      </trkpt>
      <trkpt lat="40.961944" lon="-6.723227">
        <ele>665.61</ele>
        <time>2021-03-27T17:12:45Z</time>
      </trkpt>
      <trkpt lat="40.962238" lon="-6.723454">
        <ele>666.06</ele>
        <time>2021-03-27T17:12:48Z</time>
      </trkpt>
      <trkpt lat="40.964505" lon="-6.725459">
        <ele>674.08</ele>
        <time>2021-03-27T17:12:51Z</time>
      </trkpt>
      <trkpt lat="40.964678" lon="-6.725612">
        <ele>673.79</ele>
        <time>2021-03-27T17:12:54Z</time>
      </trkpt>
      <trkpt lat="40.965493" lon="-6.726325">
        <ele>671.22</ele>
        <time>2021-03-27T17:12:57Z</time>
      </trkpt>
      <trkpt lat="40.965798" lon="-6.726504">
        <ele>671.41</ele>
        <time>2021-03-27T17:13:00Z</time>
      </trkpt>
      <trkpt lat="40.966083" lon="-6.726617">
        <ele>672.56</ele>
        <time>2021-03-27T17:13:03Z</time>
      </trkpt>
      <trkpt lat="40.96622" lon="-6.726646">
        <ele>672.49</ele>
        <time>2021-03-27T17:13:06Z</time>
      </trkpt>
      <trkpt lat="40.966446" lon="-6.726669">
        <ele>672.01</ele>
        <time>2021-03-27T17:13:09Z</time>
      </trkpt>
      <trkpt lat="40.973925" lon="-6.726921">
        <ele>652.26</ele>
        <time>2021-03-27T17:13:12Z</time>
      </trkpt>
      <trkpt lat="40.974269" lon="-6.727022">
        <ele>653.61</ele>
        <time>2021-03-27T17:13:14Z</time>
      </trkpt>
      <trkpt lat="40.974377" lon="-6.727078">
        <ele>653.16</ele>
        <time>2021-03-27T17:13:17Z</time>
      </trkpt>
      <trkpt lat="40.975429" lon="-6.727846">
        <ele>655.09</ele>
        <time>2021-03-27T17:13:20Z</time>
      </trkpt>
      <trkpt lat="40.97653" lon="-6.728331">
        <ele>654.0</ele>
        <time>2021-03-27T17:13:23Z</time>
      </trkpt>
      <trkpt lat="40.976764" lon="-6.728373">
        <ele>653.51</ele>
        <time>2021-03-27T17:13:26Z</time>
      </trkpt>
      <trkpt lat="40.977023" lon="-6.728336">
        <ele>652.7</ele>
        <time>2021-03-27T17:13:29Z</time>
      </trkpt>
      <trkpt lat="40.978203" lon="-6.727907">
        <ele>647.07</ele>
        <time>2021-03-27T17:13:32Z</time>
      </trkpt>
      <trkpt lat="40.978358" lon="-6.727906">
        <ele>647.45</ele>
        <time>2021-03-27T17:13:35Z</time>
      </trkpt>
      <trkpt lat="40.978414" lon="-6.727941">
        <ele>647.12</ele>
        <time>2021-03-27T17:13:38Z</time>
      </trkpt>
      <trkpt lat="40.978516" lon="-6.728081">
        <ele>646.25</ele>
        <time>2021-03-27T17:13:41Z</time>
      </trkpt>
      <trkpt lat="40.979141" lon="-6.729397">
        <ele>646.0</ele>
        <time>2021-03-27T17:13:44Z</time>
      </trkpt>
      <trkpt lat="40.979322" lon="-6.72971">
        <ele>644.62</ele>
        <time>2021-03-27T17:13:47Z</time>
      </trkpt>
      <trkpt lat="40.979496" lon="-6.729935">
        <ele>644.28</ele>
        <time>2021-03-27T17:13:50Z</time>
      </trkpt>
      <trkpt lat="40.980969" lon="-6.731097">
        <ele>643.05</ele>
        <time>2021-03-27T17:13:53Z</time>
      </trkpt>
      <trkpt lat="40.98103" lon="-6.731137">
        <ele>642.39</ele>
        <time>2021-03-27T17:13:56Z</time>
      </trkpt>
      <trkpt lat="40.981177" lon="-6.731181">
        <ele>640.78</ele>
        <time>2021-03-27T17:13:59Z</time>
      </trkpt>
      <trkpt lat="40.982573" lon="-6.73108">
        <ele>639.67</ele>
        <time>2021-03-27T17:14:02Z</time>
      </trkpt>
      <trkpt lat="40.982657" lon="-6.731051">
        <ele>639.18</ele>
        <time>2021-03-27T17:14:05Z</time>
      </trkpt>
      <trkpt lat="40.982735" lon="-6.730997">
        <ele>638.78</ele>
        <time>2021-03-27T17:14:08Z</time>
      </trkpt>
      <trkpt lat="40.982796" lon="-6.730907">
        <ele>638.4</ele>
        <time>2021-03-27T17:14:11Z</time>
      </trkpt>
      <trkpt lat="40.98283" lon="-6.730808">
        <ele>638.19</ele>
        <time>2021-03-27T17:14:14Z</time>
      </trkpt>
      <trkpt lat="40.983211" lon="-6.729239">
        <ele>636.5</ele>
        <time>2021-03-27T17:14:17Z</time>
      </trkpt>
      <trkpt lat="40.983311" lon="-6.728991">
        <ele>636.54</ele>
        <time>2021-03-27T17:14:20Z</time>
      </trkpt>
      <trkpt lat="40.983502" lon="-6.728728">
        <ele>636.33</ele>
        <time>2021-03-27T17:14:23Z</time>
      </trkpt>
      <trkpt lat="40.983974" lon="-6.72822">
        <ele>633.69</ele>
        <time>2021-03-27T17:14:26Z</time>
      </trkpt>
      <trkpt lat="40.984117" lon="-6.728123">
        <ele>633.18</ele>
        <time>2021-03-27T17:14:29Z</time>
      </trkpt>
      <trkpt lat="40.984188" lon="-6.728109">
        <ele>632.91</ele>
        <time>2021-03-27T17:14:32Z</time>
      </trkpt>
      <trkpt lat="40.984271" lon="-6.72812">
        <ele>632.54</ele>
        <time>2021-03-27T17:14:35Z</time>
      </trkpt>
      <trkpt lat="40.984374" lon="-6.728158">
        <ele>631.98</ele>
        <time>2021-03-27T17:14:38Z</time>
      </trkpt>
      <trkpt lat="40.985583" lon="-6.728715">
        <ele>627.74</ele>
        <time>2021-03-27T17:14:41Z</time>
      </trkpt>
      <trkpt lat="40.985751" lon="-6.728715">
        <ele>625.4</ele>
        <time>2021-03-27T17:14:44Z</time>
      </trkpt>
      <trkpt lat="40.987157" lon="-6.727841">
        <ele>616.65</ele>
        <time>2021-03-27T17:14:47Z</time>
      </trkpt>
      <trkpt lat="40.987291" lon="-6.727781">
        <ele>616.0</ele>
        <time>2021-03-27T17:14:50Z</time>
      </trkpt>
      <trkpt lat="40.987358" lon="-6.727781">
        <ele>616.0</ele>
        <time>2021-03-27T17:14:53Z</time>
      </trkpt>
      <trkpt lat="40.987419" lon="-6.727807">
        <ele>616.0</ele>
        <time>2021-03-27T17:14:56Z</time>
      </trkpt>
      <trkpt lat="40.987487" lon="-6.727866">
        <ele>616.0</ele>
        <time>2021-03-27T17:14:59Z</time>
      </trkpt>
      <trkpt lat="40.98884" lon="-6.7299">
        <ele>610.19</ele>
        <time>2021-03-27T17:15:02Z</time>
      </trkpt>
      <trkpt lat="40.98892" lon="-6.730015">
        <ele>608.88</ele>
        <time>2021-03-27T17:15:05Z</time>
      </trkpt>
      <trkpt lat="40.989043" lon="-6.730144">
        <ele>607.67</ele>
        <time>2021-03-27T17:15:08Z</time>
      </trkpt>
      <trkpt lat="40.989123" lon="-6.730189">
        <ele>607.06</ele>
        <time>2021-03-27T17:15:11Z</time>
      </trkpt>
      <trkpt lat="40.989265" lon="-6.730214">
        <ele>606.97</ele>
        <time>2021-03-27T17:15:14Z</time>
      </trkpt>
      <trkpt lat="40.989356" lon="-6.73021">
        <ele>607.24</ele>
        <time>2021-03-27T17:15:17Z</time>
      </trkpt>
      <trkpt lat="40.990094" lon="-6.730067">
        <ele>605.76</ele>
        <time>2021-03-27T17:15:20Z</time>
      </trkpt>
      <trkpt lat="40.990172" lon="-6.730073">
        <ele>605.74</ele>
        <time>2021-03-27T17:15:23Z</time>
      </trkpt>
      <trkpt lat="40.990272" lon="-6.730136">
        <ele>605.51</ele>
        <time>2021-03-27T17:15:26Z</time>
      </trkpt>
      <trkpt lat="40.990313" lon="-6.730218">
        <ele>605.58</ele>
        <time>2021-03-27T17:15:29Z</time>
      </trkpt>
      <trkpt lat="40.990669" lon="-6.731321">
        <ele>602.65</ele>
        <time>2021-03-27T17:15:32Z</time>
      </trkpt>
      <trkpt lat="40.990774" lon="-6.731527">
        <ele>601.68</ele>
        <time>2021-03-27T17:15:35Z</time>
      </trkpt>
      <trkpt lat="40.990891" lon="-6.731642">
        <ele>600.57</ele>
        <time>2021-03-27T17:15:38Z</time>
      </trkpt>
      <trkpt lat="40.991049" lon="-6.731707">
        <ele>598.16</ele>
        <time>2021-03-27T17:15:41Z</time>
      </trkpt>
      <trkpt lat="40.991174" lon="-6.731709">
        <ele>597.13</ele>
        <time>2021-03-27T17:15:44Z</time>
      </trkpt>
      <trkpt lat="40.992664" lon="-6.731427">
        <ele>589.08</ele>
        <time>2021-03-27T17:15:47Z</time>
      </trkpt>
      <trkpt lat="40.992789" lon="-6.731442">
        <ele>588.74</ele>
        <time>2021-03-27T17:15:50Z</time>
      </trkpt>
      <trkpt lat="40.992845" lon="-6.731482">
        <ele>589.06</ele>
        <time>2021-03-27T17:15:53Z</time>
      </trkpt>
      <trkpt lat="40.992908" lon="-6.731598">
        <ele>588.9</ele>
        <time>2021-03-27T17:15:56Z</time>
      </trkpt>
      <trkpt lat="40.99292" lon="-6.7317">
        <ele>588.42</ele>
        <time>2021-03-27T17:15:59Z</time>
      </trkpt>
      <trkpt lat="40.992858" lon="-6.732664">
        <ele>582.53</ele>
        <time>2021-03-27T17:16:02Z</time>
      </trkpt>
      <trkpt lat="40.992863" lon="-6.732864">
        <ele>582.09</ele>
        <time>2021-03-27T17:16:05Z</time>
      </trkpt>
      <trkpt lat="40.99289" lon="-6.732956">
        <ele>582.26</ele>
        <time>2021-03-27T17:16:08Z</time>
      </trkpt>
      <trkpt lat="40.992943" lon="-6.733051">
        <ele>582.59</ele>
        <time>2021-03-27T17:16:11Z</time>
      </trkpt>
      <trkpt lat="40.993238" lon="-6.733392">
        <ele>580.71</ele>
        <time>2021-03-27T17:16:14Z</time>
      </trkpt>
      <trkpt lat="40.993324" lon="-6.733469">
        <ele>579.57</ele>
        <time>2021-03-27T17:16:17Z</time>
      </trkpt>
      <trkpt lat="40.993458" lon="-6.733534">
        <ele>578.83</ele>
        <time>2021-03-27T17:16:20Z</time>
      </trkpt>
      <trkpt lat="40.993543" lon="-6.73354">
        <ele>578.77</ele>
        <time>2021-03-27T17:16:23Z</time>
      </trkpt>
      <trkpt lat="40.994266" lon="-6.733436">
        <ele>574.81</ele>
        <time>2021-03-27T17:16:26Z</time>
      </trkpt>
      <trkpt lat="40.994345" lon="-6.733436">
        <ele>574.24</ele>
        <time>2021-03-27T17:16:29Z</time>
      </trkpt>
      <trkpt lat="40.994458" lon="-6.733481">
        <ele>572.88</ele>
        <time>2021-03-27T17:16:32Z</time>
      </trkpt>
      <trkpt lat="40.99453" lon="-6.733549">
        <ele>572.06</ele>
        <time>2021-03-27T17:16:35Z</time>
      </trkpt>
      <trkpt lat="40.995181" lon="-6.734486">
        <ele>570.2</ele>
        <time>2021-03-27T17:16:38Z</time>
      </trkpt>
      <trkpt lat="40.995307" lon="-6.734572">
        <ele>569.52</ele>
        <time>2021-03-27T17:16:41Z</time>
      </trkpt>
      <trkpt lat="40.995393" lon="-6.73458">
        <ele>569.12</ele>
        <time>2021-03-27T17:16:44Z</time>
      </trkpt>
      <trkpt lat="40.995517" lon="-6.734537">
        <ele>569.13</ele>
        <time>2021-03-27T17:16:47Z</time>
      </trkpt>
      <trkpt lat="40.995934" lon="-6.734127">
        <ele>565.89</ele>
        <time>2021-03-27T17:16:50Z</time>
      </trkpt>
      <trkpt lat="40.996053" lon="-6.734083">
        <ele>564.68</ele>
        <time>2021-03-27T17:16:53Z</time>
      </trkpt>
      <trkpt lat="40.996106" lon="-6.734083">
        <ele>563.96</ele>
        <time>2021-03-27T17:16:56Z</time>
      </trkpt>
      <trkpt lat="40.996236" lon="-6.734146">
        <ele>562.77</ele>
        <time>2021-03-27T17:16:59Z</time>
      </trkpt>
      <trkpt lat="40.996556" lon="-6.734395">
        <ele>558.6</ele>
        <time>2021-03-27T17:17:02Z</time>
      </trkpt>
      <trkpt lat="40.996785" lon="-6.734499">
        <ele>557.09</ele>
        <time>2021-03-27T17:17:05Z</time>
      </trkpt>
      <trkpt lat="40.99762" lon="-6.734633">
        <ele>554.32</ele>
        <time>2021-03-27T17:17:08Z</time>
      </trkpt>
      <trkpt lat="40.997687" lon="-6.734657">
        <ele>554.23</ele>
        <time>2021-03-27T17:17:11Z</time>
      </trkpt>
      <trkpt lat="40.997761" lon="-6.734733">
        <ele>553.96</ele>
        <time>2021-03-27T17:17:14Z</time>
      </trkpt>
      <trkpt lat="40.99778" lon="-6.734854">
        <ele>553.53</ele>
        <time>2021-03-27T17:17:17Z</time>
      </trkpt>
      <trkpt lat="40.997735" lon="-6.734991">
        <ele>553.03</ele>
        <time>2021-03-27T17:17:20Z</time>
      </trkpt>
      <trkpt lat="40.996977" lon="-6.736776">
        <ele>550.42</ele>
        <time>2021-03-27T17:17:23Z</time>
      </trkpt>
      <trkpt lat="40.996953" lon="-6.736933">
        <ele>550.09</ele>
        <time>2021-03-27T17:17:26Z</time>
      </trkpt>
      <trkpt lat="40.996957" lon="-6.737034">
        <ele>549.79</ele>
        <time>2021-03-27T17:17:29Z</time>
      </trkpt>
      <trkpt lat="40.996978" lon="-6.73711">
        <ele>549.62</ele>
        <time>2021-03-27T17:17:32Z</time>
      </trkpt>
      <trkpt lat="40.997058" lon="-6.737236">
        <ele>549.24</ele>
        <time>2021-03-27T17:17:35Z</time>
      </trkpt>
      <trkpt lat="40.997123" lon="-6.73729">
        <ele>548.76</ele>
        <time>2021-03-27T17:17:38Z</time>
      </trkpt>
      <trkpt lat="40.998922" lon="-6.738606">
        <ele>542.14</ele>
        <time>2021-03-27T17:17:41Z</time>
      </trkpt>
      <trkpt lat="40.999212" lon="-6.738817">
        <ele>540.89</ele>
        <time>2021-03-27T17:17:44Z</time>
      </trkpt>
      <trkpt lat="40.999308" lon="-6.738867">
        <ele>540.7</ele>
        <time>2021-03-27T17:17:47Z</time>
      </trkpt>
      <trkpt lat="40.999487" lon="-6.738894">
        <ele>540.81</ele>
        <time>2021-03-27T17:17:50Z</time>
      </trkpt>
      <trkpt lat="40.999671" lon="-6.738826">
        <ele>540.27</ele>
        <time>2021-03-27T17:17:53Z</time>
      </trkpt>
      <trkpt lat="41.000436" lon="-6.738265">
        <ele>534.07</ele>
        <time>2021-03-27T17:17:56Z</time>
      </trkpt>
      <trkpt lat="41.000515" lon="-6.738151">
        <ele>533.48</ele>
        <time>2021-03-27T17:17:59Z</time>
      </trkpt>
      <trkpt lat="41.000565" lon="-6.738015">
        <ele>532.91</ele>
        <time>2021-03-27T17:18:02Z</time>
      </trkpt>
      <trkpt lat="41.000674" lon="-6.737402">
        <ele>529.14</ele>
        <time>2021-03-27T17:18:05Z</time>
      </trkpt>
      <trkpt lat="41.000711" lon="-6.737268">
        <ele>528.3</ele>
        <time>2021-03-27T17:18:08Z</time>
      </trkpt>
      <trkpt lat="41.000832" lon="-6.737034">
        <ele>527.37</ele>
        <time>2021-03-27T17:18:11Z</time>
      </trkpt>
      <trkpt lat="41.000927" lon="-6.736918">
        <ele>527.05</ele>
        <time>2021-03-27T17:18:13Z</time>
      </trkpt>
      <trkpt lat="41.001869" lon="-6.736028">
        <ele>520.05</ele>
        <time>2021-03-27T17:18:16Z</time>
      </trkpt>
      <trkpt lat="41.001974" lon="-6.735892">
        <ele>518.89</ele>
        <time>2021-03-27T17:18:19Z</time>
      </trkpt>
      <trkpt lat="41.002032" lon="-6.7357">
        <ele>518.05</ele>
        <time>2021-03-27T17:18:22Z</time>
      </trkpt>
      <trkpt lat="41.002086" lon="-6.73532">
        <ele>516.19</ele>
        <time>2021-03-27T17:18:25Z</time>
      </trkpt>
      <trkpt lat="41.00217" lon="-6.734908">
        <ele>512.33</ele>
        <time>2021-03-27T17:18:28Z</time>
      </trkpt>
      <trkpt lat="41.002507" lon="-6.734043">
        <ele>509.37</ele>
        <time>2021-03-27T17:18:31Z</time>
      </trkpt>
      <trkpt lat="41.002579" lon="-6.733921">
        <ele>509.02</ele>
        <time>2021-03-27T17:18:34Z</time>
      </trkpt>
      <trkpt lat="41.002624" lon="-6.73389">
        <ele>508.66</ele>
        <time>2021-03-27T17:18:37Z</time>
      </trkpt>
      <trkpt lat="41.002718" lon="-6.733897">
        <ele>507.62</ele>
        <time>2021-03-27T17:18:40Z</time>
      </trkpt>
      <trkpt lat="41.002946" lon="-6.73409">
        <ele>505.5</ele>
        <time>2021-03-27T17:18:43Z</time>
      </trkpt>
      <trkpt lat="41.003515" lon="-6.734579">
        <ele>501.86</ele>
        <time>2021-03-27T17:18:46Z</time>
      </trkpt>
      <trkpt lat="41.003685" lon="-6.73466">
        <ele>500.63</ele>
        <time>2021-03-27T17:18:49Z</time>
      </trkpt>
      <trkpt lat="41.003866" lon="-6.734659">
        <ele>499.18</ele>
        <time>2021-03-27T17:18:52Z</time>
      </trkpt>
      <trkpt lat="41.004475" lon="-6.734419">
        <ele>492.98</ele>
        <time>2021-03-27T17:18:55Z</time>
      </trkpt>
      <trkpt lat="41.005005" lon="-6.734414">
        <ele>492.11</ele>
        <time>2021-03-27T17:18:58Z</time>
      </trkpt>
      <trkpt lat="41.005118" lon="-6.734466">
        <ele>492.01</ele>
        <time>2021-03-27T17:19:01Z</time>
      </trkpt>
      <trkpt lat="41.005181" lon="-6.734525">
        <ele>491.91</ele>
        <time>2021-03-27T17:19:04Z</time>
      </trkpt>
      <trkpt lat="41.005255" lon="-6.734623">
        <ele>491.46</ele>
        <time>2021-03-27T17:19:07Z</time>
      </trkpt>
      <trkpt lat="41.005506" lon="-6.735074">
        <ele>489.42</ele>
        <time>2021-03-27T17:19:10Z</time>
      </trkpt>
      <trkpt lat="41.005558" lon="-6.735134">
        <ele>488.55</ele>
        <time>2021-03-27T17:19:13Z</time>
      </trkpt>
      <trkpt lat="41.005764" lon="-6.735262">
        <ele>487.13</ele>
        <time>2021-03-27T17:19:16Z</time>
      </trkpt>
      <trkpt lat="41.006575" lon="-6.735657">
        <ele>473.2</ele>
        <time>2021-03-27T17:19:19Z</time>
      </trkpt>
      <trkpt lat="41.006662" lon="-6.735676">
        <ele>471.52</ele>
        <time>2021-03-27T17:19:22Z</time>
      </trkpt>
      <trkpt lat="41.007161" lon="-6.735644">
        <ele>471.88</ele>
        <time>2021-03-27T17:19:25Z</time>
      </trkpt>
      <trkpt lat="41.007228" lon="-6.735663">
        <ele>472.56</ele>
        <time>2021-03-27T17:19:28Z</time>
      </trkpt>
      <trkpt lat="41.007278" lon="-6.735711">
        <ele>474.24</ele>
        <time>2021-03-27T17:19:31Z</time>
      </trkpt>
      <trkpt lat="41.00735" lon="-6.735854">
        <ele>476.26</ele>
        <time>2021-03-27T17:19:34Z</time>
      </trkpt>
      <trkpt lat="41.00757" lon="-6.73674">
        <ele>480.18</ele>
        <time>2021-03-27T17:19:37Z</time>
      </trkpt>
      <trkpt lat="41.008195" lon="-6.738443">
        <ele>482.52</ele>
        <time>2021-03-27T17:19:40Z</time>
      </trkpt>
      <trkpt lat="41.008321" lon="-6.738689">
        <ele>482.52</ele>
        <time>2021-03-27T17:19:43Z</time>
      </trkpt>
      <trkpt lat="41.008672" lon="-6.739025">
        <ele>485.27</ele>
        <time>2021-03-27T17:19:46Z</time>
      </trkpt>
      <trkpt lat="41.008731" lon="-6.739167">
        <ele>485.73</ele>
        <time>2021-03-27T17:19:49Z</time>
      </trkpt>
      <trkpt lat="41.008748" lon="-6.739294">
        <ele>485.97</ele>
        <time>2021-03-27T17:19:52Z</time>
      </trkpt>
      <trkpt lat="41.00875" lon="-6.740451">
        <ele>487.44</ele>
        <time>2021-03-27T17:19:55Z</time>
      </trkpt>
      <trkpt lat="41.008725" lon="-6.740864">
        <ele>489.92</ele>
        <time>2021-03-27T17:19:58Z</time>
      </trkpt>
      <trkpt lat="41.008659" lon="-6.741061">
        <ele>490.48</ele>
        <time>2021-03-27T17:20:01Z</time>
      </trkpt>
      <trkpt lat="41.008345" lon="-6.741512">
        <ele>489.98</ele>
        <time>2021-03-27T17:20:04Z</time>
      </trkpt>
      <trkpt lat="41.008183" lon="-6.741789">
        <ele>488.99</ele>
        <time>2021-03-27T17:20:07Z</time>
      </trkpt>
      <trkpt lat="41.008134" lon="-6.741906">
        <ele>488.83</ele>
        <time>2021-03-27T17:20:10Z</time>
      </trkpt>
      <trkpt lat="41.008099" lon="-6.742048">
        <ele>489.0</ele>
        <time>2021-03-27T17:20:13Z</time>
      </trkpt>
      <trkpt lat="41.008082" lon="-6.7422">
        <ele>489.61</ele>
        <time>2021-03-27T17:20:16Z</time>
      </trkpt>
      <trkpt lat="41.008089" lon="-6.74241">
        <ele>489.12</ele>
        <time>2021-03-27T17:20:19Z</time>
      </trkpt>
      <trkpt lat="41.008167" lon="-6.742672">
        <ele>486.44</ele>
        <time>2021-03-27T17:20:22Z</time>
      </trkpt>
      <trkpt lat="41.008225" lon="-6.742766">
        <ele>485.35</ele>
        <time>2021-03-27T17:20:25Z</time>
      </trkpt>
      <trkpt lat="41.008412" lon="-6.742943">
        <ele>482.51</ele>
        <time>2021-03-27T17:20:28Z</time>
      </trkpt>
      <trkpt lat="41.008498" lon="-6.74299">
        <ele>482.61</ele>
        <time>2021-03-27T17:20:31Z</time>
      </trkpt>
      <trkpt lat="41.008681" lon="-6.743024">
        <ele>483.48</ele>
        <time>2021-03-27T17:20:34Z</time>
      </trkpt>
      <trkpt lat="41.010143" lon="-6.74295">
        <ele>485.92</ele>
        <time>2021-03-27T17:20:37Z</time>
      </trkpt>
      <trkpt lat="41.010227" lon="-6.742959">
        <ele>485.93</ele>
        <time>2021-03-27T17:20:40Z</time>
      </trkpt>
      <trkpt lat="41.010363" lon="-6.743017">
        <ele>485.66</ele>
        <time>2021-03-27T17:20:43Z</time>
      </trkpt>
      <trkpt lat="41.011023" lon="-6.743535">
        <ele>481.28</ele>
        <time>2021-03-27T17:20:46Z</time>
      </trkpt>
      <trkpt lat="41.011126" lon="-6.743561">
        <ele>481.39</ele>
        <time>2021-03-27T17:20:49Z</time>
      </trkpt>
      <trkpt lat="41.011211" lon="-6.743514">
        <ele>480.82</ele>
        <time>2021-03-27T17:20:52Z</time>
      </trkpt>
      <trkpt lat="41.011256" lon="-6.743455">
        <ele>480.48</ele>
        <time>2021-03-27T17:20:55Z</time>
      </trkpt>
      <trkpt lat="41.011349" lon="-6.74324">
        <ele>479.81</ele>
        <time>2021-03-27T17:20:58Z</time>
      </trkpt>
      <trkpt lat="41.011571" lon="-6.742922">
        <ele>476.71</ele>
        <time>2021-03-27T17:21:01Z</time>
      </trkpt>
      <trkpt lat="41.011626" lon="-6.742763">
        <ele>475.66</ele>
        <time>2021-03-27T17:21:04Z</time>
      </trkpt>
      <trkpt lat="41.011627" lon="-6.742581">
        <ele>476.26</ele>
        <time>2021-03-27T17:21:07Z</time>
      </trkpt>
      <trkpt lat="41.011606" lon="-6.742474">
        <ele>477.25</ele>
        <time>2021-03-27T17:21:10Z</time>
      </trkpt>
      <trkpt lat="41.011459" lon="-6.742011">
        <ele>480.45</ele>
        <time>2021-03-27T17:21:13Z</time>
      </trkpt>
      <trkpt lat="41.011437" lon="-6.741765">
        <ele>478.79</ele>
        <time>2021-03-27T17:21:16Z</time>
      </trkpt>
      <trkpt lat="41.011428" lon="-6.741299">
        <ele>476.01</ele>
        <time>2021-03-27T17:21:19Z</time>
      </trkpt>
      <trkpt lat="41.01144" lon="-6.74107">
        <ele>475.07</ele>
        <time>2021-03-27T17:21:22Z</time>
      </trkpt>
      <trkpt lat="41.011479" lon="-6.7409">
        <ele>474.17</ele>
        <time>2021-03-27T17:21:25Z</time>
      </trkpt>
      <trkpt lat="41.011566" lon="-6.740749">
        <ele>473.31</ele>
        <time>2021-03-27T17:21:28Z</time>
      </trkpt>
      <trkpt lat="41.011673" lon="-6.740657">
        <ele>472.07</ele>
        <time>2021-03-27T17:21:31Z</time>
      </trkpt>
      <trkpt lat="41.01176" lon="-6.740624">
        <ele>471.33</ele>
        <time>2021-03-27T17:21:34Z</time>
      </trkpt>
      <trkpt lat="41.012058" lon="-6.740613">
        <ele>469.66</ele>
        <time>2021-03-27T17:21:37Z</time>
      </trkpt>
      <trkpt lat="41.012192" lon="-6.740659">
        <ele>469.89</ele>
        <time>2021-03-27T17:21:40Z</time>
      </trkpt>
      <trkpt lat="41.012228" lon="-6.740703">
        <ele>469.51</ele>
        <time>2021-03-27T17:21:43Z</time>
      </trkpt>
      <trkpt lat="41.012261" lon="-6.740812">
        <ele>468.74</ele>
        <time>2021-03-27T17:21:46Z</time>
      </trkpt>
      <trkpt lat="41.012202" lon="-6.741119">
        <ele>464.58</ele>
        <time>2021-03-27T17:21:49Z</time>
      </trkpt>
      <trkpt lat="41.012217" lon="-6.741324">
        <ele>461.13</ele>
        <time>2021-03-27T17:21:52Z</time>
      </trkpt>
      <trkpt lat="41.012341" lon="-6.741531">
        <ele>461.42</ele>
        <time>2021-03-27T17:21:55Z</time>
      </trkpt>
      <trkpt lat="41.012458" lon="-6.741689">
        <ele>460.74</ele>
        <time>2021-03-27T17:21:58Z</time>
      </trkpt>
      <trkpt lat="41.012833" lon="-6.742132">
        <ele>457.92</ele>
        <time>2021-03-27T17:22:01Z</time>
      </trkpt>
      <trkpt lat="41.013051" lon="-6.742441">
        <ele>455.17</ele>
        <time>2021-03-27T17:22:04Z</time>
      </trkpt>
      <trkpt lat="41.013353" lon="-6.742692">
        <ele>456.34</ele>
        <time>2021-03-27T17:22:07Z</time>
      </trkpt>
      <trkpt lat="41.013424" lon="-6.742795">
        <ele>456.93</ele>
        <time>2021-03-27T17:22:10Z</time>
      </trkpt>
      <trkpt lat="41.013429" lon="-6.742909">
        <ele>456.91</ele>
        <time>2021-03-27T17:22:13Z</time>
      </trkpt>
      <trkpt lat="41.013399" lon="-6.742974">
        <ele>456.26</ele>
        <time>2021-03-27T17:22:16Z</time>
      </trkpt>
      <trkpt lat="41.01319" lon="-6.743235">
        <ele>452.43</ele>
        <time>2021-03-27T17:22:19Z</time>
      </trkpt>
      <trkpt lat="41.01314" lon="-6.743372">
        <ele>451.23</ele>
        <time>2021-03-27T17:22:22Z</time>
      </trkpt>
      <trkpt lat="41.013134" lon="-6.743458">
        <ele>450.46</ele>
        <time>2021-03-27T17:22:25Z</time>
      </trkpt>
      <trkpt lat="41.013164" lon="-6.743631">
        <ele>449.9</ele>
        <time>2021-03-27T17:22:28Z</time>
      </trkpt>
      <trkpt lat="41.013293" lon="-6.744018">
        <ele>448.51</ele>
        <time>2021-03-27T17:22:31Z</time>
      </trkpt>
      <trkpt lat="41.013321" lon="-6.744093">
        <ele>447.98</ele>
        <time>2021-03-27T17:22:34Z</time>
      </trkpt>
      <trkpt lat="41.013392" lon="-6.744187">
        <ele>447.19</ele>
        <time>2021-03-27T17:22:37Z</time>
      </trkpt>
      <trkpt lat="41.013442" lon="-6.74422">
        <ele>447.02</ele>
        <time>2021-03-27T17:22:40Z</time>
      </trkpt>
      <trkpt lat="41.013514" lon="-6.744236">
        <ele>447.45</ele>
        <time>2021-03-27T17:22:43Z</time>
      </trkpt>
      <trkpt lat="41.013587" lon="-6.744224">
        <ele>448.49</ele>
        <time>2021-03-27T17:22:46Z</time>
      </trkpt>
      <trkpt lat="41.014308" lon="-6.743921">
        <ele>449.74</ele>
        <time>2021-03-27T17:22:49Z</time>
      </trkpt>
      <trkpt lat="41.014382" lon="-6.743908">
        <ele>449.84</ele>
        <time>2021-03-27T17:22:52Z</time>
      </trkpt>
      <trkpt lat="41.014434" lon="-6.743921">
        <ele>449.44</ele>
        <time>2021-03-27T17:22:55Z</time>
      </trkpt>
      <trkpt lat="41.014509" lon="-6.744008">
        <ele>448.51</ele>
        <time>2021-03-27T17:22:58Z</time>
      </trkpt>
      <trkpt lat="41.014564" lon="-6.744205">
        <ele>446.36</ele>
        <time>2021-03-27T17:23:01Z</time>
      </trkpt>
      <trkpt lat="41.014598" lon="-6.744732">
        <ele>441.51</ele>
        <time>2021-03-27T17:23:04Z</time>
      </trkpt>
      <trkpt lat="41.014658" lon="-6.744836">
        <ele>440.66</ele>
        <time>2021-03-27T17:23:07Z</time>
      </trkpt>
      <trkpt lat="41.014719" lon="-6.744875">
        <ele>440.77</ele>
        <time>2021-03-27T17:23:10Z</time>
      </trkpt>
      <trkpt lat="41.014847" lon="-6.744875">
        <ele>439.81</ele>
        <time>2021-03-27T17:23:12Z</time>
      </trkpt>
      <trkpt lat="41.015409" lon="-6.744712">
        <ele>438.79</ele>
        <time>2021-03-27T17:23:15Z</time>
      </trkpt>
      <trkpt lat="41.015616" lon="-6.74469">
        <ele>438.83</ele>
        <time>2021-03-27T17:23:18Z</time>
      </trkpt>
      <trkpt lat="41.015805" lon="-6.744732">
        <ele>437.98</ele>
        <time>2021-03-27T17:23:21Z</time>
      </trkpt>
      <trkpt lat="41.015893" lon="-6.744785">
        <ele>439.08</ele>
        <time>2021-03-27T17:23:24Z</time>
      </trkpt>
      <trkpt lat="41.015961" lon="-6.744875">
        <ele>440.29</ele>
        <time>2021-03-27T17:23:27Z</time>
      </trkpt>
      <trkpt lat="41.015976" lon="-6.744928">
        <ele>440.57</ele>
        <time>2021-03-27T17:23:30Z</time>
      </trkpt>
      <trkpt lat="41.015944" lon="-6.745045">
        <ele>440.51</ele>
        <time>2021-03-27T17:23:33Z</time>
      </trkpt>
      <trkpt lat="41.01563" lon="-6.745269">
        <ele>434.88</ele>
        <time>2021-03-27T17:23:36Z</time>
      </trkpt>
      <trkpt lat="41.015561" lon="-6.745373">
        <ele>433.51</ele>
        <time>2021-03-27T17:23:39Z</time>
      </trkpt>
      <trkpt lat="41.015447" lon="-6.745711">
        <ele>430.25</ele>
        <time>2021-03-27T17:23:42Z</time>
      </trkpt>
      <trkpt lat="41.015411" lon="-6.745856">
        <ele>428.75</ele>
        <time>2021-03-27T17:23:45Z</time>
      </trkpt>
      <trkpt lat="41.015401" lon="-6.745962">
        <ele>428.19</ele>
        <time>2021-03-27T17:23:48Z</time>
      </trkpt>
      <trkpt lat="41.015481" lon="-6.74665">
        <ele>428.13</ele>
        <time>2021-03-27T17:23:51Z</time>
      </trkpt>
      <trkpt lat="41.015478" lon="-6.746807">
        <ele>426.96</ele>
        <time>2021-03-27T17:23:54Z</time>
      </trkpt>
      <trkpt lat="41.015418" lon="-6.747345">
        <ele>422.39</ele>
        <time>2021-03-27T17:23:57Z</time>
      </trkpt>
      <trkpt lat="41.015429" lon="-6.747624">
        <ele>421.42</ele>
        <time>2021-03-27T17:24:00Z</time>
      </trkpt>
      <trkpt lat="41.015475" lon="-6.747927">
        <ele>421.13</ele>
        <time>2021-03-27T17:24:03Z</time>
      </trkpt>
      <trkpt lat="41.015554" lon="-6.748247">
        <ele>420.19</ele>
        <time>2021-03-27T17:24:06Z</time>
      </trkpt>
      <trkpt lat="41.015663" lon="-6.748442">
        <ele>419.83</ele>
        <time>2021-03-27T17:24:09Z</time>
      </trkpt>
      <trkpt lat="41.015732" lon="-6.748516">
        <ele>419.99</ele>
        <time>2021-03-27T17:24:12Z</time>
      </trkpt>
      <trkpt lat="41.015808" lon="-6.748559">
        <ele>420.62</ele>
        <time>2021-03-27T17:24:15Z</time>
      </trkpt>
      <trkpt lat="41.015885" lon="-6.748581">
        <ele>420.32</ele>
        <time>2021-03-27T17:24:18Z</time>
      </trkpt>
      <trkpt lat="41.016009" lon="-6.748583">
        <ele>419.53</ele>
        <time>2021-03-27T17:24:21Z</time>
      </trkpt>
      <trkpt lat="41.016339" lon="-6.748558">
        <ele>417.09</ele>
        <time>2021-03-27T17:24:24Z</time>
      </trkpt>
      <trkpt lat="41.016455" lon="-6.748519">
        <ele>417.08</ele>
        <time>2021-03-27T17:24:27Z</time>
      </trkpt>
      <trkpt lat="41.016828" lon="-6.748337">
        <ele>419.33</ele>
        <time>2021-03-27T17:24:30Z</time>
      </trkpt>
      <trkpt lat="41.016976" lon="-6.748343">
        <ele>419.02</ele>
        <time>2021-03-27T17:24:33Z</time>
      </trkpt>
      <trkpt lat="41.017046" lon="-6.748378">
        <ele>418.77</ele>
        <time>2021-03-27T17:24:36Z</time>
      </trkpt>
      <trkpt lat="41.01733" lon="-6.748626">
        <ele>417.07</ele>
        <time>2021-03-27T17:24:39Z</time>
      </trkpt>
      <trkpt lat="41.017467" lon="-6.748793">
        <ele>416.53</ele>
        <time>2021-03-27T17:24:42Z</time>
      </trkpt>
      <trkpt lat="41.017504" lon="-6.748874">
        <ele>415.42</ele>
        <time>2021-03-27T17:24:45Z</time>
      </trkpt>
      <trkpt lat="41.017522" lon="-6.749053">
        <ele>413.78</ele>
        <time>2021-03-27T17:24:48Z</time>
      </trkpt>
      <trkpt lat="41.017511" lon="-6.749458">
        <ele>408.09</ele>
        <time>2021-03-27T17:24:51Z</time>
      </trkpt>
      <trkpt lat="41.017548" lon="-6.74959">
        <ele>407.03</ele>
        <time>2021-03-27T17:24:54Z</time>
      </trkpt>
      <trkpt lat="41.01759" lon="-6.749655">
        <ele>406.99</ele>
        <time>2021-03-27T17:24:57Z</time>
      </trkpt>
      <trkpt lat="41.018019" lon="-6.749946">
        <ele>409.16</ele>
        <time>2021-03-27T17:25:00Z</time>
      </trkpt>
      <trkpt lat="41.018102" lon="-6.749985">
        <ele>409.06</ele>
        <time>2021-03-27T17:25:03Z</time>
      </trkpt>
      <trkpt lat="41.018707" lon="-6.75009">
        <ele>410.21</ele>
        <time>2021-03-27T17:25:06Z</time>
      </trkpt>
      <trkpt lat="41.018845" lon="-6.750152">
        <ele>411.95</ele>
        <time>2021-03-27T17:25:09Z</time>
      </trkpt>
      <trkpt lat="41.018958" lon="-6.750274">
        <ele>412.3</ele>
        <time>2021-03-27T17:25:12Z</time>
      </trkpt>
      <trkpt lat="41.019248" lon="-6.750701">
        <ele>409.03</ele>
        <time>2021-03-27T17:25:15Z</time>
      </trkpt>
      <trkpt lat="41.019388" lon="-6.750852">
        <ele>407.63</ele>
        <time>2021-03-27T17:25:18Z</time>
      </trkpt>
      <trkpt lat="41.019558" lon="-6.750929">
        <ele>407.05</ele>
        <time>2021-03-27T17:25:21Z</time>
      </trkpt>
      <trkpt lat="41.020086" lon="-6.751071">
        <ele>407.65</ele>
        <time>2021-03-27T17:25:24Z</time>
      </trkpt>
      <trkpt lat="41.020149" lon="-6.751102">
        <ele>407.77</ele>
        <time>2021-03-27T17:25:27Z</time>
      </trkpt>
      <trkpt lat="41.020244" lon="-6.751212">
        <ele>407.45</ele>
        <time>2021-03-27T17:25:30Z</time>
      </trkpt>
      <trkpt lat="41.020294" lon="-6.751379">
        <ele>406.39</ele>
        <time>2021-03-27T17:25:33Z</time>
      </trkpt>
      <trkpt lat="41.0203" lon="-6.751494">
        <ele>405.67</ele>
        <time>2021-03-27T17:25:36Z</time>
      </trkpt>
      <trkpt lat="41.020184" lon="-6.752314">
        <ele>394.73</ele>
        <time>2021-03-27T17:25:39Z</time>
      </trkpt>
      <trkpt lat="41.020244" lon="-6.752812">
        <ele>393.31</ele>
        <time>2021-03-27T17:25:42Z</time>
      </trkpt>
      <trkpt lat="41.020251" lon="-6.753522">
        <ele>380.46</ele>
        <time>2021-03-27T17:25:45Z</time>
      </trkpt>
      <trkpt lat="41.020265" lon="-6.7536">
        <ele>379.05</ele>
        <time>2021-03-27T17:25:48Z</time>
      </trkpt>
      <trkpt lat="41.020298" lon="-6.753671">
        <ele>376.11</ele>
        <time>2021-03-27T17:25:51Z</time>
      </trkpt>
      <trkpt lat="41.020336" lon="-6.753712">
        <ele>373.64</ele>
        <time>2021-03-27T17:25:54Z</time>
      </trkpt>
      <trkpt lat="41.020399" lon="-6.753731">
        <ele>371.55</ele>
        <time>2021-03-27T17:25:57Z</time>
      </trkpt>
      <trkpt lat="41.020528" lon="-6.75371">
        <ele>370.43</ele>
        <time>2021-03-27T17:26:00Z</time>
      </trkpt>
      <trkpt lat="41.02063" lon="-6.753625">
        <ele>373.09</ele>
        <time>2021-03-27T17:26:03Z</time>
      </trkpt>
      <trkpt lat="41.021063" lon="-6.752992">
        <ele>383.11</ele>
        <time>2021-03-27T17:26:06Z</time>
      </trkpt>
      <trkpt lat="41.021131" lon="-6.752884">
        <ele>384.46</ele>
        <time>2021-03-27T17:26:09Z</time>
      </trkpt>
      <trkpt lat="41.021179" lon="-6.752767">
        <ele>386.74</ele>
        <time>2021-03-27T17:26:12Z</time>
      </trkpt>
      <trkpt lat="41.021585" lon="-6.751402">
        <ele>373.4</ele>
        <time>2021-03-27T17:26:15Z</time>
      </trkpt>
      <trkpt lat="41.021723" lon="-6.750695">
        <ele>370.34</ele>
        <time>2021-03-27T17:26:18Z</time>
      </trkpt>
      <trkpt lat="41.021727" lon="-6.750594">
        <ele>371.35</ele>
        <time>2021-03-27T17:26:21Z</time>
      </trkpt>
      <trkpt lat="41.021692" lon="-6.750195">
        <ele>377.98</ele>
        <time>2021-03-27T17:26:24Z</time>
      </trkpt>
      <trkpt lat="41.021702" lon="-6.750076">
        <ele>379.86</ele>
        <time>2021-03-27T17:26:27Z</time>
      </trkpt>
      <trkpt lat="41.021743" lon="-6.749935">
        <ele>379.41</ele>
        <time>2021-03-27T17:26:30Z</time>
      </trkpt>
      <trkpt lat="41.021819" lon="-6.74978">
        <ele>376.43</ele>
        <time>2021-03-27T17:26:33Z</time>
      </trkpt>
      <trkpt lat="41.021893" lon="-6.749667">
        <ele>373.96</ele>
        <time>2021-03-27T17:26:36Z</time>
      </trkpt>
      <trkpt lat="41.021984" lon="-6.749569">
        <ele>370.97</ele>
        <time>2021-03-27T17:26:39Z</time>
      </trkpt>
      <trkpt lat="41.022212" lon="-6.749339">
        <ele>366.91</ele>
        <time>2021-03-27T17:26:42Z</time>
      </trkpt>
      <trkpt lat="41.022371" lon="-6.749206">
        <ele>365.98</ele>
        <time>2021-03-27T17:26:45Z</time>
      </trkpt>
      <trkpt lat="41.022473" lon="-6.74914">
        <ele>364.71</ele>
        <time>2021-03-27T17:26:48Z</time>
      </trkpt>
      <trkpt lat="41.023121" lon="-6.748833">
        <ele>352.72</ele>
        <time>2021-03-27T17:26:51Z</time>
      </trkpt>
      <trkpt lat="41.023481" lon="-6.748694">
        <ele>346.07</ele>
        <time>2021-03-27T17:26:54Z</time>
      </trkpt>
      <trkpt lat="41.023522" lon="-6.748669">
        <ele>345.5</ele>
        <time>2021-03-27T17:26:57Z</time>
      </trkpt>
      <trkpt lat="41.023553" lon="-6.74862">
        <ele>346.15</ele>
        <time>2021-03-27T17:27:00Z</time>
      </trkpt>
      <trkpt lat="41.023556" lon="-6.748453">
        <ele>349.55</ele>
        <time>2021-03-27T17:27:03Z</time>
      </trkpt>
      <trkpt lat="41.023491" lon="-6.748081">
        <ele>353.12</ele>
        <time>2021-03-27T17:27:06Z</time>
      </trkpt>
      <trkpt lat="41.023464" lon="-6.747996">
        <ele>352.25</ele>
        <time>2021-03-27T17:27:09Z</time>
      </trkpt>
      <trkpt lat="41.023421" lon="-6.747934">
        <ele>352.57</ele>
        <time>2021-03-27T17:27:12Z</time>
      </trkpt>
      <trkpt lat="41.023073" lon="-6.747567">
        <ele>359.81</ele>
        <time>2021-03-27T17:27:15Z</time>
      </trkpt>
      <trkpt lat="41.022974" lon="-6.747431">
        <ele>359.85</ele>
        <time>2021-03-27T17:27:18Z</time>
      </trkpt>
      <trkpt lat="41.022902" lon="-6.747309">
        <ele>359.5</ele>
        <time>2021-03-27T17:27:21Z</time>
      </trkpt>
      <trkpt lat="41.022871" lon="-6.747185">
        <ele>357.61</ele>
        <time>2021-03-27T17:27:24Z</time>
      </trkpt>
      <trkpt lat="41.022827" lon="-6.7466">
        <ele>355.78</ele>
        <time>2021-03-27T17:27:27Z</time>
      </trkpt>
      <trkpt lat="41.022795" lon="-6.746373">
        <ele>359.31</ele>
        <time>2021-03-27T17:27:30Z</time>
      </trkpt>
      <trkpt lat="41.022806" lon="-6.74606">
        <ele>357.3</ele>
        <time>2021-03-27T17:27:33Z</time>
      </trkpt>
      <trkpt lat="41.02289" lon="-6.745828">
        <ele>349.53</ele>
        <time>2021-03-27T17:27:36Z</time>
      </trkpt>
      <trkpt lat="41.023071" lon="-6.745455">
        <ele>343.24</ele>
        <time>2021-03-27T17:27:39Z</time>
      </trkpt>
      <trkpt lat="41.023161" lon="-6.745233">
        <ele>342.19</ele>
        <time>2021-03-27T17:27:42Z</time>
      </trkpt>
      <trkpt lat="41.023358" lon="-6.744583">
        <ele>340.87</ele>
        <time>2021-03-27T17:27:45Z</time>
      </trkpt>
      <trkpt lat="41.023394" lon="-6.744426">
        <ele>342.14</ele>
        <time>2021-03-27T17:27:48Z</time>
      </trkpt>
      <trkpt lat="41.023429" lon="-6.744035">
        <ele>343.8</ele>
        <time>2021-03-27T17:27:51Z</time>
      </trkpt>
      <trkpt lat="41.023477" lon="-6.743751">
        <ele>342.61</ele>
        <time>2021-03-27T17:27:54Z</time>
      </trkpt>
      <trkpt lat="41.023699" lon="-6.743199">
        <ele>339.44</ele>
        <time>2021-03-27T17:27:57Z</time>
      </trkpt>
      <trkpt lat="41.023843" lon="-6.742904">
        <ele>336.23</ele>
        <time>2021-03-27T17:28:00Z</time>
      </trkpt>
      <trkpt lat="41.023884" lon="-6.742792">
        <ele>334.28</ele>
        <time>2021-03-27T17:28:03Z</time>
      </trkpt>
      <trkpt lat="41.023942" lon="-6.742534">
        <ele>334.43</ele>
        <time>2021-03-27T17:28:06Z</time>
      </trkpt>
      <trkpt lat="41.023983" lon="-6.742452">
        <ele>333.36</ele>
        <time>2021-03-27T17:28:09Z</time>
      </trkpt>
      <trkpt lat="41.02418" lon="-6.742189">
        <ele>325.83</ele>
        <time>2021-03-27T17:28:11Z</time>
      </trkpt>
      <trkpt lat="41.024223" lon="-6.742086">
        <ele>325.39</ele>
        <time>2021-03-27T17:28:14Z</time>
      </trkpt>
      <trkpt lat="41.024265" lon="-6.741917">
        <ele>326.64</ele>
        <time>2021-03-27T17:28:17Z</time>
      </trkpt>
      <trkpt lat="41.024349" lon="-6.741419">
        <ele>334.04</ele>
        <time>2021-03-27T17:28:20Z</time>
      </trkpt>
      <trkpt lat="41.024382" lon="-6.741322">
        <ele>335.61</ele>
        <time>2021-03-27T17:28:23Z</time>
      </trkpt>
      <trkpt lat="41.024464" lon="-6.741244">
        <ele>335.29</ele>
        <time>2021-03-27T17:28:26Z</time>
      </trkpt>
      <trkpt lat="41.024836" lon="-6.741171">
        <ele>329.66</ele>
        <time>2021-03-27T17:28:29Z</time>
      </trkpt>
      <trkpt lat="41.024912" lon="-6.741147">
        <ele>327.83</ele>
        <time>2021-03-27T17:28:32Z</time>
      </trkpt>
      <trkpt lat="41.025011" lon="-6.741085">
        <ele>327.01</ele>
        <time>2021-03-27T17:28:35Z</time>
      </trkpt>
      <trkpt lat="41.025279" lon="-6.740793">
        <ele>325.67</ele>
        <time>2021-03-27T17:28:38Z</time>
      </trkpt>
      <trkpt lat="41.025504" lon="-6.740509">
        <ele>319.15</ele>
        <time>2021-03-27T17:28:41Z</time>
      </trkpt>
      <trkpt lat="41.02558" lon="-6.740366">
        <ele>317.51</ele>
        <time>2021-03-27T17:28:44Z</time>
      </trkpt>
      <trkpt lat="41.025593" lon="-6.740215">
        <ele>318.76</ele>
        <time>2021-03-27T17:28:47Z</time>
      </trkpt>
      <trkpt lat="41.025576" lon="-6.739585">
        <ele>323.16</ele>
        <time>2021-03-27T17:28:50Z</time>
      </trkpt>
      <trkpt lat="41.02563" lon="-6.739077">
        <ele>314.77</ele>
        <time>2021-03-27T17:28:53Z</time>
      </trkpt>
      <trkpt lat="41.025595" lon="-6.738896">
        <ele>317.86</ele>
        <time>2021-03-27T17:28:56Z</time>
      </trkpt>
      <trkpt lat="41.025491" lon="-6.738621">
        <ele>321.32</ele>
        <time>2021-03-27T17:28:59Z</time>
      </trkpt>
      <trkpt lat="41.025477" lon="-6.738536">
        <ele>321.34</ele>
        <time>2021-03-27T17:29:02Z</time>
      </trkpt>
      <trkpt lat="41.025479" lon="-6.738435">
        <ele>320.09</ele>
        <time>2021-03-27T17:29:05Z</time>
      </trkpt>
      <trkpt lat="41.025525" lon="-6.738224">
        <ele>316.17</ele>
        <time>2021-03-27T17:29:08Z</time>
      </trkpt>
      <trkpt lat="41.025681" lon="-6.737902">
        <ele>308.66</ele>
        <time>2021-03-27T17:29:11Z</time>
      </trkpt>
      <trkpt lat="41.025847" lon="-6.737271">
        <ele>308.26</ele>
        <time>2021-03-27T17:29:14Z</time>
      </trkpt>
      <trkpt lat="41.025905" lon="-6.737004">
        <ele>304.18</ele>
        <time>2021-03-27T17:29:17Z</time>
      </trkpt>
      <trkpt lat="41.025908" lon="-6.736892">
        <ele>302.85</ele>
        <time>2021-03-27T17:29:20Z</time>
      </trkpt>
      <trkpt lat="41.025807" lon="-6.736415">
        <ele>301.78</ele>
        <time>2021-03-27T17:29:23Z</time>
      </trkpt>
      <trkpt lat="41.025724" lon="-6.736215">
        <ele>304.45</ele>
        <time>2021-03-27T17:29:26Z</time>
      </trkpt>
      <trkpt lat="41.025541" lon="-6.735858">
        <ele>306.89</ele>
        <time>2021-03-27T17:29:29Z</time>
      </trkpt>
      <trkpt lat="41.025535" lon="-6.735693">
        <ele>306.7</ele>
        <time>2021-03-27T17:29:32Z</time>
      </trkpt>
      <trkpt lat="41.025554" lon="-6.735614">
        <ele>306.05</ele>
        <time>2021-03-27T17:29:35Z</time>
      </trkpt>
      <trkpt lat="41.025586" lon="-6.735554">
        <ele>305.48</ele>
        <time>2021-03-27T17:29:38Z</time>
      </trkpt>
      <trkpt lat="41.025686" lon="-6.735478">
        <ele>305.05</ele>
        <time>2021-03-27T17:29:41Z</time>
      </trkpt>
      <trkpt lat="41.02616" lon="-6.735333">
        <ele>297.92</ele>
        <time>2021-03-27T17:29:44Z</time>
      </trkpt>
      <trkpt lat="41.026351" lon="-6.735205">
        <ele>296.13</ele>
        <time>2021-03-27T17:29:47Z</time>
      </trkpt>
      <trkpt lat="41.026686" lon="-6.73479">
        <ele>294.51</ele>
        <time>2021-03-27T17:29:50Z</time>
      </trkpt>
      <trkpt lat="41.026938" lon="-6.734555">
        <ele>292.78</ele>
        <time>2021-03-27T17:29:53Z</time>
      </trkpt>
      <trkpt lat="41.027094" lon="-6.734379">
        <ele>292.75</ele>
        <time>2021-03-27T17:29:56Z</time>
      </trkpt>
      <trkpt lat="41.028756" lon="-6.732102">
        <ele>274.44</ele>
        <time>2021-03-27T17:29:59Z</time>
      </trkpt>
      <trkpt lat="41.028914" lon="-6.731815">
        <ele>275.51</ele>
        <time>2021-03-27T17:30:02Z</time>
      </trkpt>
      <trkpt lat="41.029" lon="-6.73162">
        <ele>275.6</ele>
        <time>2021-03-27T17:30:05Z</time>
      </trkpt>
      <trkpt lat="41.029329" lon="-6.73064">
        <ele>270.98</ele>
        <time>2021-03-27T17:30:08Z</time>
      </trkpt>
      <trkpt lat="41.029419" lon="-6.730485">
        <ele>267.11</ele>
        <time>2021-03-27T17:30:11Z</time>
      </trkpt>
      <trkpt lat="41.029472" lon="-6.730444">
        <ele>264.45</ele>
        <time>2021-03-27T17:30:14Z</time>
      </trkpt>
      <trkpt lat="41.02955" lon="-6.730436">
        <ele>260.15</ele>
        <time>2021-03-27T17:30:17Z</time>
      </trkpt>
      <trkpt lat="41.029851" lon="-6.730465">
        <ele>258.44</ele>
        <time>2021-03-27T17:30:20Z</time>
      </trkpt>
      <trkpt lat="41.029851" lon="-6.730465">
        <ele>258.44</ele>
        <time>2021-03-27T17:30:20Z</time>
      </trkpt>
      <trkpt lat="41.030361" lon="-6.730527">
        <ele>260.52</ele>
        <time>2021-03-27T17:30:23Z</time>
      </trkpt>
      <trkpt lat="41.030478" lon="-6.730632">
        <ele>267.89</ele>
        <time>2021-03-27T17:30:26Z</time>
      </trkpt>
      <trkpt lat="41.03053" lon="-6.730779">
        <ele>272.84</ele>
        <time>2021-03-27T17:30:29Z</time>
      </trkpt>
      <trkpt lat="41.03051" lon="-6.730917">
        <ele>273.96</ele>
        <time>2021-03-27T17:30:32Z</time>
      </trkpt>
      <trkpt lat="41.030248" lon="-6.731293">
        <ele>264.49</ele>
        <time>2021-03-27T17:30:35Z</time>
      </trkpt>
      <trkpt lat="41.030204" lon="-6.731478">
        <ele>265.42</ele>
        <time>2021-03-27T17:30:38Z</time>
      </trkpt>
      <trkpt lat="41.030171" lon="-6.731811">
        <ele>267.69</ele>
        <time>2021-03-27T17:30:41Z</time>
      </trkpt>
      <trkpt lat="41.030179" lon="-6.732054">
        <ele>270.07</ele>
        <time>2021-03-27T17:30:44Z</time>
      </trkpt>
      <trkpt lat="41.030241" lon="-6.732249">
        <ele>275.2</ele>
        <time>2021-03-27T17:30:47Z</time>
      </trkpt>
      <trkpt lat="41.030351" lon="-6.732468">
        <ele>282.28</ele>
        <time>2021-03-27T17:30:50Z</time>
      </trkpt>
      <trkpt lat="41.030344" lon="-6.732582">
        <ele>282.84</ele>
        <time>2021-03-27T17:30:53Z</time>
      </trkpt>
      <trkpt lat="41.03011" lon="-6.732839">
        <ele>275.6</ele>
        <time>2021-03-27T17:30:56Z</time>
      </trkpt>
      <trkpt lat="41.030058" lon="-6.73301">
        <ele>277.39</ele>
        <time>2021-03-27T17:30:59Z</time>
      </trkpt>
      <trkpt lat="41.029978" lon="-6.734081">
        <ele>286.01</ele>
        <time>2021-03-27T17:31:02Z</time>
      </trkpt>
      <trkpt lat="41.02995" lon="-6.734265">
        <ele>287.36</ele>
        <time>2021-03-27T17:31:05Z</time>
      </trkpt>
      <trkpt lat="41.029887" lon="-6.734497">
        <ele>288.1</ele>
        <time>2021-03-27T17:31:08Z</time>
      </trkpt>
      <trkpt lat="41.029597" lon="-6.735129">
        <ele>287.03</ele>
        <time>2021-03-27T17:31:11Z</time>
      </trkpt>
      <trkpt lat="41.029425" lon="-6.735776">
        <ele>292.13</ele>
        <time>2021-03-27T17:31:14Z</time>
      </trkpt>
      <trkpt lat="41.029138" lon="-6.736447">
        <ele>296.63</ele>
        <time>2021-03-27T17:31:17Z</time>
      </trkpt>
      <trkpt lat="41.028954" lon="-6.737041">
        <ele>301.46</ele>
        <time>2021-03-27T17:31:20Z</time>
      </trkpt>
      <trkpt lat="41.028718" lon="-6.73757">
        <ele>299.33</ele>
        <time>2021-03-27T17:31:23Z</time>
      </trkpt>
      <trkpt lat="41.028657" lon="-6.737779">
        <ele>299.5</ele>
        <time>2021-03-27T17:31:26Z</time>
      </trkpt>
      <trkpt lat="41.028657" lon="-6.737971">
        <ele>298.69</ele>
        <time>2021-03-27T17:31:29Z</time>
      </trkpt>
      <trkpt lat="41.028685" lon="-6.738038">
        <ele>299.21</ele>
        <time>2021-03-27T17:31:32Z</time>
      </trkpt>
      <trkpt lat="41.028727" lon="-6.738071">
        <ele>300.08</ele>
        <time>2021-03-27T17:31:35Z</time>
      </trkpt>
      <trkpt lat="41.028821" lon="-6.738093">
        <ele>302.39</ele>
        <time>2021-03-27T17:31:38Z</time>
      </trkpt>
      <trkpt lat="41.029322" lon="-6.738038">
        <ele>310.67</ele>
        <time>2021-03-27T17:31:41Z</time>
      </trkpt>
      <trkpt lat="41.029382" lon="-6.73806">
        <ele>311.61</ele>
        <time>2021-03-27T17:31:44Z</time>
      </trkpt>
      <trkpt lat="41.029454" lon="-6.738146">
        <ele>312.77</ele>
        <time>2021-03-27T17:31:47Z</time>
      </trkpt>
      <trkpt lat="41.029465" lon="-6.738293">
        <ele>312.36</ele>
        <time>2021-03-27T17:31:50Z</time>
      </trkpt>
      <trkpt lat="41.029311" lon="-6.738809">
        <ele>317.34</ele>
        <time>2021-03-27T17:31:53Z</time>
      </trkpt>
      <trkpt lat="41.029261" lon="-6.739054">
        <ele>321.75</ele>
        <time>2021-03-27T17:31:56Z</time>
      </trkpt>
      <trkpt lat="41.029214" lon="-6.739164">
        <ele>322.82</ele>
        <time>2021-03-27T17:31:59Z</time>
      </trkpt>
      <trkpt lat="41.029157" lon="-6.739258">
        <ele>321.95</ele>
        <time>2021-03-27T17:32:02Z</time>
      </trkpt>
      <trkpt lat="41.028707" lon="-6.739802">
        <ele>314.36</ele>
        <time>2021-03-27T17:32:05Z</time>
      </trkpt>
      <trkpt lat="41.028634" lon="-6.739943">
        <ele>313.22</ele>
        <time>2021-03-27T17:32:08Z</time>
      </trkpt>
      <trkpt lat="41.028616" lon="-6.740029">
        <ele>313.47</ele>
        <time>2021-03-27T17:32:11Z</time>
      </trkpt>
      <trkpt lat="41.028616" lon="-6.740121">
        <ele>314.15</ele>
        <time>2021-03-27T17:32:14Z</time>
      </trkpt>
      <trkpt lat="41.028628" lon="-6.740227">
        <ele>315.7</ele>
        <time>2021-03-27T17:32:17Z</time>
      </trkpt>
      <trkpt lat="41.028719" lon="-6.740588">
        <ele>325.52</ele>
        <time>2021-03-27T17:32:20Z</time>
      </trkpt>
      <trkpt lat="41.028737" lon="-6.740735">
        <ele>327.92</ele>
        <time>2021-03-27T17:32:23Z</time>
      </trkpt>
      <trkpt lat="41.02873" lon="-6.740841">
        <ele>328.48</ele>
        <time>2021-03-27T17:32:26Z</time>
      </trkpt>
      <trkpt lat="41.028661" lon="-6.740985">
        <ele>326.22</ele>
        <time>2021-03-27T17:32:29Z</time>
      </trkpt>
      <trkpt lat="41.028573" lon="-6.741079">
        <ele>322.71</ele>
        <time>2021-03-27T17:32:32Z</time>
      </trkpt>
      <trkpt lat="41.028544" lon="-6.741136">
        <ele>321.98</ele>
        <time>2021-03-27T17:32:35Z</time>
      </trkpt>
      <trkpt lat="41.027993" lon="-6.742884">
        <ele>333.47</ele>
        <time>2021-03-27T17:32:38Z</time>
      </trkpt>
      <trkpt lat="41.027936" lon="-6.743023">
        <ele>335.68</ele>
        <time>2021-03-27T17:32:41Z</time>
      </trkpt>
      <trkpt lat="41.027819" lon="-6.743254">
        <ele>336.05</ele>
        <time>2021-03-27T17:32:44Z</time>
      </trkpt>
      <trkpt lat="41.027513" lon="-6.743747">
        <ele>333.82</ele>
        <time>2021-03-27T17:32:47Z</time>
      </trkpt>
      <trkpt lat="41.027452" lon="-6.743892">
        <ele>333.42</ele>
        <time>2021-03-27T17:32:50Z</time>
      </trkpt>
      <trkpt lat="41.027462" lon="-6.744018">
        <ele>332.03</ele>
        <time>2021-03-27T17:32:53Z</time>
      </trkpt>
      <trkpt lat="41.027497" lon="-6.744076">
        <ele>332.23</ele>
        <time>2021-03-27T17:32:56Z</time>
      </trkpt>
      <trkpt lat="41.027548" lon="-6.744127">
        <ele>332.0</ele>
        <time>2021-03-27T17:32:59Z</time>
      </trkpt>
      <trkpt lat="41.027621" lon="-6.744162">
        <ele>331.96</ele>
        <time>2021-03-27T17:33:02Z</time>
      </trkpt>
      <trkpt lat="41.028693" lon="-6.744339">
        <ele>331.91</ele>
        <time>2021-03-27T17:33:05Z</time>
      </trkpt>
      <trkpt lat="41.028774" lon="-6.744343">
        <ele>332.3</ele>
        <time>2021-03-27T17:33:08Z</time>
      </trkpt>
      <trkpt lat="41.028936" lon="-6.744314">
        <ele>334.56</ele>
        <time>2021-03-27T17:33:11Z</time>
      </trkpt>
      <trkpt lat="41.029359" lon="-6.744161">
        <ele>340.24</ele>
        <time>2021-03-27T17:33:14Z</time>
      </trkpt>
      <trkpt lat="41.03015" lon="-6.744043">
        <ele>340.95</ele>
        <time>2021-03-27T17:33:17Z</time>
      </trkpt>
      <trkpt lat="41.030268" lon="-6.74397">
        <ele>343.87</ele>
        <time>2021-03-27T17:33:20Z</time>
      </trkpt>
      <trkpt lat="41.030527" lon="-6.743651">
        <ele>342.57</ele>
        <time>2021-03-27T17:33:23Z</time>
      </trkpt>
      <trkpt lat="41.030599" lon="-6.743545">
        <ele>341.73</ele>
        <time>2021-03-27T17:33:26Z</time>
      </trkpt>
      <trkpt lat="41.030641" lon="-6.743451">
        <ele>342.08</ele>
        <time>2021-03-27T17:33:29Z</time>
      </trkpt>
      <trkpt lat="41.03067" lon="-6.743349">
        <ele>343.01</ele>
        <time>2021-03-27T17:33:32Z</time>
      </trkpt>
      <trkpt lat="41.030776" lon="-6.742701">
        <ele>351.85</ele>
        <time>2021-03-27T17:33:35Z</time>
      </trkpt>
      <trkpt lat="41.030822" lon="-6.742495">
        <ele>353.86</ele>
        <time>2021-03-27T17:33:38Z</time>
      </trkpt>
      <trkpt lat="41.030864" lon="-6.742362">
        <ele>354.15</ele>
        <time>2021-03-27T17:33:41Z</time>
      </trkpt>
      <trkpt lat="41.030944" lon="-6.742185">
        <ele>353.99</ele>
        <time>2021-03-27T17:33:44Z</time>
      </trkpt>
      <trkpt lat="41.031102" lon="-6.741915">
        <ele>354.42</ele>
        <time>2021-03-27T17:33:47Z</time>
      </trkpt>
      <trkpt lat="41.031203" lon="-6.741807">
        <ele>355.45</ele>
        <time>2021-03-27T17:33:50Z</time>
      </trkpt>
      <trkpt lat="41.031715" lon="-6.741352">
        <ele>361.01</ele>
        <time>2021-03-27T17:33:53Z</time>
      </trkpt>
      <trkpt lat="41.031804" lon="-6.741296">
        <ele>362.38</ele>
        <time>2021-03-27T17:33:56Z</time>
      </trkpt>
      <trkpt lat="41.03197" lon="-6.741275">
        <ele>361.26</ele>
        <time>2021-03-27T17:33:59Z</time>
      </trkpt>
      <trkpt lat="41.032395" lon="-6.741339">
        <ele>356.61</ele>
        <time>2021-03-27T17:34:02Z</time>
      </trkpt>
      <trkpt lat="41.032479" lon="-6.74133">
        <ele>356.72</ele>
        <time>2021-03-27T17:34:05Z</time>
      </trkpt>
      <trkpt lat="41.032659" lon="-6.741269">
        <ele>357.33</ele>
        <time>2021-03-27T17:34:08Z</time>
      </trkpt>
      <trkpt lat="41.033134" lon="-6.740974">
        <ele>357.23</ele>
        <time>2021-03-27T17:34:11Z</time>
      </trkpt>
      <trkpt lat="41.033206" lon="-6.740892">
        <ele>357.94</ele>
        <time>2021-03-27T17:34:14Z</time>
      </trkpt>
      <trkpt lat="41.033496" lon="-6.740448">
        <ele>363.22</ele>
        <time>2021-03-27T17:34:17Z</time>
      </trkpt>
      <trkpt lat="41.0336" lon="-6.740119">
        <ele>376.49</ele>
        <time>2021-03-27T17:34:20Z</time>
      </trkpt>
      <trkpt lat="41.033702" lon="-6.739884">
        <ele>384.31</ele>
        <time>2021-03-27T17:34:23Z</time>
      </trkpt>
      <trkpt lat="41.03389" lon="-6.739656">
        <ele>384.28</ele>
        <time>2021-03-27T17:34:26Z</time>
      </trkpt>
      <trkpt lat="41.033996" lon="-6.739569">
        <ele>385.48</ele>
        <time>2021-03-27T17:34:29Z</time>
      </trkpt>
      <trkpt lat="41.034088" lon="-6.739517">
        <ele>385.44</ele>
        <time>2021-03-27T17:34:32Z</time>
      </trkpt>
      <trkpt lat="41.03459" lon="-6.739435">
        <ele>379.19</ele>
        <time>2021-03-27T17:34:35Z</time>
      </trkpt>
      <trkpt lat="41.034717" lon="-6.739428">
        <ele>379.18</ele>
        <time>2021-03-27T17:34:38Z</time>
      </trkpt>
      <trkpt lat="41.035404" lon="-6.739519">
        <ele>375.61</ele>
        <time>2021-03-27T17:34:41Z</time>
      </trkpt>
      <trkpt lat="41.035585" lon="-6.739496">
        <ele>373.02</ele>
        <time>2021-03-27T17:34:44Z</time>
      </trkpt>
      <trkpt lat="41.035657" lon="-6.739465">
        <ele>372.59</ele>
        <time>2021-03-27T17:34:47Z</time>
      </trkpt>
      <trkpt lat="41.035722" lon="-6.739399">
        <ele>373.57</ele>
        <time>2021-03-27T17:34:50Z</time>
      </trkpt>
      <trkpt lat="41.035765" lon="-6.739326">
        <ele>375.22</ele>
        <time>2021-03-27T17:34:53Z</time>
      </trkpt>
      <trkpt lat="41.035905" lon="-6.738918">
        <ele>387.53</ele>
        <time>2021-03-27T17:34:56Z</time>
      </trkpt>
      <trkpt lat="41.036059" lon="-6.738651">
        <ele>384.49</ele>
        <time>2021-03-27T17:34:59Z</time>
      </trkpt>
      <trkpt lat="41.036238" lon="-6.738248">
        <ele>389.53</ele>
        <time>2021-03-27T17:35:02Z</time>
      </trkpt>
      <trkpt lat="41.036307" lon="-6.738155">
        <ele>389.14</ele>
        <time>2021-03-27T17:35:05Z</time>
      </trkpt>
      <trkpt lat="41.03657" lon="-6.737912">
        <ele>381.82</ele>
        <time>2021-03-27T17:35:08Z</time>
      </trkpt>
      <trkpt lat="41.036621" lon="-6.737833">
        <ele>381.3</ele>
        <time>2021-03-27T17:35:11Z</time>
      </trkpt>
      <trkpt lat="41.036657" lon="-6.73774">
        <ele>381.3</ele>
        <time>2021-03-27T17:35:14Z</time>
      </trkpt>
      <trkpt lat="41.03676" lon="-6.737314">
        <ele>385.33</ele>
        <time>2021-03-27T17:35:17Z</time>
      </trkpt>
      <trkpt lat="41.036777" lon="-6.737223">
        <ele>387.0</ele>
        <time>2021-03-27T17:35:20Z</time>
      </trkpt>
      <trkpt lat="41.036782" lon="-6.736903">
        <ele>395.21</ele>
        <time>2021-03-27T17:35:23Z</time>
      </trkpt>
      <trkpt lat="41.036888" lon="-6.736489">
        <ele>403.12</ele>
        <time>2021-03-27T17:35:26Z</time>
      </trkpt>
      <trkpt lat="41.036924" lon="-6.736387">
        <ele>407.32</ele>
        <time>2021-03-27T17:35:29Z</time>
      </trkpt>
      <trkpt lat="41.036979" lon="-6.736305">
        <ele>410.4</ele>
        <time>2021-03-27T17:35:32Z</time>
      </trkpt>
      <trkpt lat="41.037069" lon="-6.736219">
        <ele>411.16</ele>
        <time>2021-03-27T17:35:35Z</time>
      </trkpt>
      <trkpt lat="41.037172" lon="-6.736147">
        <ele>409.27</ele>
        <time>2021-03-27T17:35:38Z</time>
      </trkpt>
      <trkpt lat="41.037293" lon="-6.736103">
        <ele>407.28</ele>
        <time>2021-03-27T17:35:41Z</time>
      </trkpt>
      <trkpt lat="41.037794" lon="-6.736042">
        <ele>414.74</ele>
        <time>2021-03-27T17:35:44Z</time>
      </trkpt>
      <trkpt lat="41.038309" lon="-6.736165">
        <ele>420.92</ele>
        <time>2021-03-27T17:35:47Z</time>
      </trkpt>
      <trkpt lat="41.038799" lon="-6.736169">
        <ele>423.6</ele>
        <time>2021-03-27T17:35:50Z</time>
      </trkpt>
      <trkpt lat="41.038873" lon="-6.736187">
        <ele>422.97</ele>
        <time>2021-03-27T17:35:53Z</time>
      </trkpt>
      <trkpt lat="41.038977" lon="-6.736294">
        <ele>421.23</ele>
        <time>2021-03-27T17:35:56Z</time>
      </trkpt>
      <trkpt lat="41.039023" lon="-6.736409">
        <ele>422.94</ele>
        <time>2021-03-27T17:35:59Z</time>
      </trkpt>
      <trkpt lat="41.039016" lon="-6.73648">
        <ele>426.21</ele>
        <time>2021-03-27T17:36:02Z</time>
      </trkpt>
      <trkpt lat="41.038946" lon="-6.736588">
        <ele>429.9</ele>
        <time>2021-03-27T17:36:05Z</time>
      </trkpt>
      <trkpt lat="41.038876" lon="-6.736634">
        <ele>430.22</ele>
        <time>2021-03-27T17:36:08Z</time>
      </trkpt>
      <trkpt lat="41.038775" lon="-6.736668">
        <ele>428.39</ele>
        <time>2021-03-27T17:36:11Z</time>
      </trkpt>
      <trkpt lat="41.038391" lon="-6.736729">
        <ele>414.13</ele>
        <time>2021-03-27T17:36:14Z</time>
      </trkpt>
      <trkpt lat="41.037878" lon="-6.736906">
        <ele>394.88</ele>
        <time>2021-03-27T17:36:17Z</time>
      </trkpt>
      <trkpt lat="41.037782" lon="-6.737012">
        <ele>390.8</ele>
        <time>2021-03-27T17:36:20Z</time>
      </trkpt>
      <trkpt lat="41.03776" lon="-6.737085">
        <ele>391.39</ele>
        <time>2021-03-27T17:36:23Z</time>
      </trkpt>
      <trkpt lat="41.037767" lon="-6.737638">
        <ele>406.12</ele>
        <time>2021-03-27T17:36:26Z</time>
      </trkpt>
      <trkpt lat="41.037683" lon="-6.738311">
        <ele>409.17</ele>
        <time>2021-03-27T17:36:29Z</time>
      </trkpt>
      <trkpt lat="41.037721" lon="-6.738472">
        <ele>412.2</ele>
        <time>2021-03-27T17:36:32Z</time>
      </trkpt>
      <trkpt lat="41.037845" lon="-6.73871">
        <ele>424.33</ele>
        <time>2021-03-27T17:36:35Z</time>
      </trkpt>
      <trkpt lat="41.037849" lon="-6.738853">
        <ele>427.84</ele>
        <time>2021-03-27T17:36:38Z</time>
      </trkpt>
      <trkpt lat="41.037801" lon="-6.7391">
        <ele>426.83</ele>
        <time>2021-03-27T17:36:41Z</time>
      </trkpt>
      <trkpt lat="41.037818" lon="-6.739428">
        <ele>431.59</ele>
        <time>2021-03-27T17:36:44Z</time>
      </trkpt>
      <trkpt lat="41.037809" lon="-6.739541">
        <ele>432.49</ele>
        <time>2021-03-27T17:36:47Z</time>
      </trkpt>
      <trkpt lat="41.037685" lon="-6.739999">
        <ele>429.96</ele>
        <time>2021-03-27T17:36:50Z</time>
      </trkpt>
      <trkpt lat="41.037582" lon="-6.740537">
        <ele>416.84</ele>
        <time>2021-03-27T17:36:53Z</time>
      </trkpt>
      <trkpt lat="41.037698" lon="-6.741135">
        <ele>447.46</ele>
        <time>2021-03-27T17:36:56Z</time>
      </trkpt>
      <trkpt lat="41.037774" lon="-6.741717">
        <ele>460.35</ele>
        <time>2021-03-27T17:36:59Z</time>
      </trkpt>
      <trkpt lat="41.03777" lon="-6.74181">
        <ele>461.24</ele>
        <time>2021-03-27T17:37:02Z</time>
      </trkpt>
      <trkpt lat="41.03775" lon="-6.741881">
        <ele>461.3</ele>
        <time>2021-03-27T17:37:05Z</time>
      </trkpt>
      <trkpt lat="41.037712" lon="-6.741937">
        <ele>460.76</ele>
        <time>2021-03-27T17:37:08Z</time>
      </trkpt>
      <trkpt lat="41.037656" lon="-6.741971">
        <ele>459.7</ele>
        <time>2021-03-27T17:37:11Z</time>
      </trkpt>
      <trkpt lat="41.037505" lon="-6.741994">
        <ele>455.58</ele>
        <time>2021-03-27T17:37:14Z</time>
      </trkpt>
      <trkpt lat="41.037281" lon="-6.741991">
        <ele>442.78</ele>
        <time>2021-03-27T17:37:17Z</time>
      </trkpt>
      <trkpt lat="41.037126" lon="-6.742048">
        <ele>437.63</ele>
        <time>2021-03-27T17:37:20Z</time>
      </trkpt>
      <trkpt lat="41.037011" lon="-6.74213">
        <ele>436.72</ele>
        <time>2021-03-27T17:37:23Z</time>
      </trkpt>
      <trkpt lat="41.036936" lon="-6.742209">
        <ele>437.94</ele>
        <time>2021-03-27T17:37:26Z</time>
      </trkpt>
      <trkpt lat="41.036736" lon="-6.74254">
        <ele>446.3</ele>
        <time>2021-03-27T17:37:29Z</time>
      </trkpt>
      <trkpt lat="41.036348" lon="-6.742909">
        <ele>443.99</ele>
        <time>2021-03-27T17:37:32Z</time>
      </trkpt>
      <trkpt lat="41.036122" lon="-6.743042">
        <ele>437.14</ele>
        <time>2021-03-27T17:37:35Z</time>
      </trkpt>
      <trkpt lat="41.036046" lon="-6.743119">
        <ele>436.03</ele>
        <time>2021-03-27T17:37:38Z</time>
      </trkpt>
      <trkpt lat="41.035999" lon="-6.743245">
        <ele>437.61</ele>
        <time>2021-03-27T17:37:41Z</time>
      </trkpt>
      <trkpt lat="41.035991" lon="-6.74334">
        <ele>439.97</ele>
        <time>2021-03-27T17:37:44Z</time>
      </trkpt>
      <trkpt lat="41.036005" lon="-6.744395">
        <ele>469.59</ele>
        <time>2021-03-27T17:37:46Z</time>
      </trkpt>
      <trkpt lat="41.035931" lon="-6.744501">
        <ele>468.07</ele>
        <time>2021-03-27T17:37:49Z</time>
      </trkpt>
      <trkpt lat="41.035619" lon="-6.74468">
        <ele>457.15</ele>
        <time>2021-03-27T17:37:52Z</time>
      </trkpt>
      <trkpt lat="41.035439" lon="-6.744917">
        <ele>460.26</ele>
        <time>2021-03-27T17:37:55Z</time>
      </trkpt>
      <trkpt lat="41.035269" lon="-6.74498">
        <ele>455.95</ele>
        <time>2021-03-27T17:37:58Z</time>
      </trkpt>
      <trkpt lat="41.035163" lon="-6.745073">
        <ele>455.92</ele>
        <time>2021-03-27T17:38:01Z</time>
      </trkpt>
      <trkpt lat="41.034855" lon="-6.745554">
        <ele>457.12</ele>
        <time>2021-03-27T17:38:04Z</time>
      </trkpt>
      <trkpt lat="41.034819" lon="-6.745644">
        <ele>457.07</ele>
        <time>2021-03-27T17:38:07Z</time>
      </trkpt>
      <trkpt lat="41.034798" lon="-6.745768">
        <ele>458.95</ele>
        <time>2021-03-27T17:38:10Z</time>
      </trkpt>
      <trkpt lat="41.034782" lon="-6.745992">
        <ele>463.78</ele>
        <time>2021-03-27T17:38:13Z</time>
      </trkpt>
      <trkpt lat="41.034736" lon="-6.746088">
        <ele>464.05</ele>
        <time>2021-03-27T17:38:16Z</time>
      </trkpt>
      <trkpt lat="41.034227" lon="-6.746863">
        <ele>458.73</ele>
        <time>2021-03-27T17:38:19Z</time>
      </trkpt>
      <trkpt lat="41.034193" lon="-6.747039">
        <ele>459.09</ele>
        <time>2021-03-27T17:38:22Z</time>
      </trkpt>
      <trkpt lat="41.034193" lon="-6.747155">
        <ele>459.92</ele>
        <time>2021-03-27T17:38:25Z</time>
      </trkpt>
      <trkpt lat="41.034339" lon="-6.747672">
        <ele>466.69</ele>
        <time>2021-03-27T17:38:28Z</time>
      </trkpt>
      <trkpt lat="41.034396" lon="-6.748115">
        <ele>464.87</ele>
        <time>2021-03-27T17:38:31Z</time>
      </trkpt>
      <trkpt lat="41.034471" lon="-6.748278">
        <ele>465.5</ele>
        <time>2021-03-27T17:38:34Z</time>
      </trkpt>
      <trkpt lat="41.034831" lon="-6.748827">
        <ele>479.3</ele>
        <time>2021-03-27T17:38:37Z</time>
      </trkpt>
      <trkpt lat="41.034867" lon="-6.748908">
        <ele>480.34</ele>
        <time>2021-03-27T17:38:40Z</time>
      </trkpt>
      <trkpt lat="41.034871" lon="-6.748991">
        <ele>481.21</ele>
        <time>2021-03-27T17:38:43Z</time>
      </trkpt>
      <trkpt lat="41.034852" lon="-6.749054">
        <ele>481.2</ele>
        <time>2021-03-27T17:38:46Z</time>
      </trkpt>
      <trkpt lat="41.034806" lon="-6.749117">
        <ele>480.31</ele>
        <time>2021-03-27T17:38:49Z</time>
      </trkpt>
      <trkpt lat="41.034546" lon="-6.749316">
        <ele>479.23</ele>
        <time>2021-03-27T17:38:52Z</time>
      </trkpt>
      <trkpt lat="41.0344" lon="-6.749422">
        <ele>478.36</ele>
        <time>2021-03-27T17:38:55Z</time>
      </trkpt>
      <trkpt lat="41.03425" lon="-6.7495">
        <ele>474.37</ele>
        <time>2021-03-27T17:38:58Z</time>
      </trkpt>
      <trkpt lat="41.034141" lon="-6.749613">
        <ele>473.15</ele>
        <time>2021-03-27T17:39:01Z</time>
      </trkpt>
      <trkpt lat="41.034113" lon="-6.749709">
        <ele>474.84</ele>
        <time>2021-03-27T17:39:04Z</time>
      </trkpt>
      <trkpt lat="41.034101" lon="-6.749832">
        <ele>477.37</ele>
        <time>2021-03-27T17:39:07Z</time>
      </trkpt>
      <trkpt lat="41.034094" lon="-6.750552">
        <ele>492.79</ele>
        <time>2021-03-27T17:39:10Z</time>
      </trkpt>
      <trkpt lat="41.034079" lon="-6.750726">
        <ele>494.85</ele>
        <time>2021-03-27T17:39:13Z</time>
      </trkpt>
      <trkpt lat="41.034016" lon="-6.75087">
        <ele>494.97</ele>
        <time>2021-03-27T17:39:16Z</time>
      </trkpt>
      <trkpt lat="41.033967" lon="-6.750912">
        <ele>494.32</ele>
        <time>2021-03-27T17:39:19Z</time>
      </trkpt>
      <trkpt lat="41.033537" lon="-6.751144">
        <ele>491.63</ele>
        <time>2021-03-27T17:39:22Z</time>
      </trkpt>
      <trkpt lat="41.033072" lon="-6.751119">
        <ele>481.41</ele>
        <time>2021-03-27T17:39:25Z</time>
      </trkpt>
      <trkpt lat="41.032967" lon="-6.751207">
        <ele>480.37</ele>
        <time>2021-03-27T17:39:28Z</time>
      </trkpt>
      <trkpt lat="41.032926" lon="-6.751272">
        <ele>480.43</ele>
        <time>2021-03-27T17:39:31Z</time>
      </trkpt>
      <trkpt lat="41.032877" lon="-6.751405">
        <ele>481.54</ele>
        <time>2021-03-27T17:39:34Z</time>
      </trkpt>
      <trkpt lat="41.032863" lon="-6.751494">
        <ele>482.2</ele>
        <time>2021-03-27T17:39:37Z</time>
      </trkpt>
      <trkpt lat="41.032863" lon="-6.751784">
        <ele>486.5</ele>
        <time>2021-03-27T17:39:40Z</time>
      </trkpt>
      <trkpt lat="41.033036" lon="-6.753199">
        <ele>504.21</ele>
        <time>2021-03-27T17:39:43Z</time>
      </trkpt>
      <trkpt lat="41.033036" lon="-6.753397">
        <ele>504.69</ele>
        <time>2021-03-27T17:39:46Z</time>
      </trkpt>
      <trkpt lat="41.032921" lon="-6.75364">
        <ele>502.81</ele>
        <time>2021-03-27T17:39:49Z</time>
      </trkpt>
      <trkpt lat="41.032584" lon="-6.754246">
        <ele>508.0</ele>
        <time>2021-03-27T17:39:52Z</time>
      </trkpt>
      <trkpt lat="41.032487" lon="-6.754366">
        <ele>508.45</ele>
        <time>2021-03-27T17:39:55Z</time>
      </trkpt>
      <trkpt lat="41.032291" lon="-6.75444">
        <ele>505.04</ele>
        <time>2021-03-27T17:39:58Z</time>
      </trkpt>
      <trkpt lat="41.032188" lon="-6.754514">
        <ele>504.4</ele>
        <time>2021-03-27T17:40:01Z</time>
      </trkpt>
      <trkpt lat="41.032135" lon="-6.75458">
        <ele>505.36</ele>
        <time>2021-03-27T17:40:04Z</time>
      </trkpt>
      <trkpt lat="41.031989" lon="-6.754902">
        <ele>514.22</ele>
        <time>2021-03-27T17:40:07Z</time>
      </trkpt>
      <trkpt lat="41.031913" lon="-6.75502">
        <ele>515.96</ele>
        <time>2021-03-27T17:40:10Z</time>
      </trkpt>
      <trkpt lat="41.031797" lon="-6.755119">
        <ele>516.31</ele>
        <time>2021-03-27T17:40:13Z</time>
      </trkpt>
      <trkpt lat="41.031199" lon="-6.755272">
        <ele>509.3</ele>
        <time>2021-03-27T17:40:16Z</time>
      </trkpt>
      <trkpt lat="41.031004" lon="-6.755304">
        <ele>503.57</ele>
        <time>2021-03-27T17:40:19Z</time>
      </trkpt>
      <trkpt lat="41.030943" lon="-6.755341">
        <ele>502.55</ele>
        <time>2021-03-27T17:40:22Z</time>
      </trkpt>
      <trkpt lat="41.030601" lon="-6.755814">
        <ele>508.92</ele>
        <time>2021-03-27T17:40:25Z</time>
      </trkpt>
      <trkpt lat="41.030494" lon="-6.755991">
        <ele>510.21</ele>
        <time>2021-03-27T17:40:28Z</time>
      </trkpt>
      <trkpt lat="41.030469" lon="-6.756147">
        <ele>512.41</ele>
        <time>2021-03-27T17:40:31Z</time>
      </trkpt>
      <trkpt lat="41.030482" lon="-6.756268">
        <ele>512.48</ele>
        <time>2021-03-27T17:40:34Z</time>
      </trkpt>
      <trkpt lat="41.030504" lon="-6.756321">
        <ele>512.91</ele>
        <time>2021-03-27T17:40:37Z</time>
      </trkpt>
      <trkpt lat="41.03061" lon="-6.756454">
        <ele>514.31</ele>
        <time>2021-03-27T17:40:40Z</time>
      </trkpt>
      <trkpt lat="41.031083" lon="-6.756807">
        <ele>520.45</ele>
        <time>2021-03-27T17:40:43Z</time>
      </trkpt>
      <trkpt lat="41.031292" lon="-6.756978">
        <ele>524.05</ele>
        <time>2021-03-27T17:40:46Z</time>
      </trkpt>
      <trkpt lat="41.031512" lon="-6.757248">
        <ele>525.22</ele>
        <time>2021-03-27T17:40:49Z</time>
      </trkpt>
      <trkpt lat="41.031604" lon="-6.757392">
        <ele>525.9</ele>
        <time>2021-03-27T17:40:52Z</time>
      </trkpt>
      <trkpt lat="41.031742" lon="-6.757683">
        <ele>527.87</ele>
        <time>2021-03-27T17:40:55Z</time>
      </trkpt>
      <trkpt lat="41.031959" lon="-6.75826">
        <ele>528.07</ele>
        <time>2021-03-27T17:40:58Z</time>
      </trkpt>
      <trkpt lat="41.032103" lon="-6.758764">
        <ele>524.1</ele>
        <time>2021-03-27T17:41:01Z</time>
      </trkpt>
      <trkpt lat="41.032308" lon="-6.759323">
        <ele>528.74</ele>
        <time>2021-03-27T17:41:04Z</time>
      </trkpt>
      <trkpt lat="41.032377" lon="-6.759708">
        <ele>529.51</ele>
        <time>2021-03-27T17:41:07Z</time>
      </trkpt>
      <trkpt lat="41.032458" lon="-6.760431">
        <ele>534.88</ele>
        <time>2021-03-27T17:41:10Z</time>
      </trkpt>
      <trkpt lat="41.032618" lon="-6.761184">
        <ele>545.59</ele>
        <time>2021-03-27T17:41:13Z</time>
      </trkpt>
      <trkpt lat="41.032705" lon="-6.76168">
        <ele>544.64</ele>
        <time>2021-03-27T17:41:16Z</time>
      </trkpt>
      <trkpt lat="41.032711" lon="-6.761914">
        <ele>546.31</ele>
        <time>2021-03-27T17:41:19Z</time>
      </trkpt>
      <trkpt lat="41.032388" lon="-6.76308">
        <ele>545.19</ele>
        <time>2021-03-27T17:41:22Z</time>
      </trkpt>
      <trkpt lat="41.032367" lon="-6.763294">
        <ele>543.96</ele>
        <time>2021-03-27T17:41:25Z</time>
      </trkpt>
      <trkpt lat="41.032553" lon="-6.764127">
        <ele>551.43</ele>
        <time>2021-03-27T17:41:28Z</time>
      </trkpt>
      <trkpt lat="41.032584" lon="-6.764339">
        <ele>550.85</ele>
        <time>2021-03-27T17:41:31Z</time>
      </trkpt>
      <trkpt lat="41.032622" lon="-6.764976">
        <ele>558.99</ele>
        <time>2021-03-27T17:41:34Z</time>
      </trkpt>
      <trkpt lat="41.032546" lon="-6.765578">
        <ele>559.56</ele>
        <time>2021-03-27T17:41:37Z</time>
      </trkpt>
      <trkpt lat="41.032555" lon="-6.766512">
        <ele>568.38</ele>
        <time>2021-03-27T17:41:40Z</time>
      </trkpt>
      <trkpt lat="41.032483" lon="-6.76729">
        <ele>571.22</ele>
        <time>2021-03-27T17:41:43Z</time>
      </trkpt>
      <trkpt lat="41.032453" lon="-6.768899">
        <ele>568.67</ele>
        <time>2021-03-27T17:41:46Z</time>
      </trkpt>
      <trkpt lat="41.032461" lon="-6.769083">
        <ele>569.96</ele>
        <time>2021-03-27T17:41:49Z</time>
      </trkpt>
      <trkpt lat="41.032563" lon="-6.769554">
        <ele>573.55</ele>
        <time>2021-03-27T17:41:52Z</time>
      </trkpt>
      <trkpt lat="41.032702" lon="-6.769844">
        <ele>574.74</ele>
        <time>2021-03-27T17:41:55Z</time>
      </trkpt>
      <trkpt lat="41.032788" lon="-6.769968">
        <ele>575.73</ele>
        <time>2021-03-27T17:41:58Z</time>
      </trkpt>
      <trkpt lat="41.033009" lon="-6.770186">
        <ele>576.25</ele>
        <time>2021-03-27T17:42:01Z</time>
      </trkpt>
      <trkpt lat="41.033186" lon="-6.770284">
        <ele>577.65</ele>
        <time>2021-03-27T17:42:04Z</time>
      </trkpt>
      <trkpt lat="41.033391" lon="-6.770357">
        <ele>579.61</ele>
        <time>2021-03-27T17:42:07Z</time>
      </trkpt>
      <trkpt lat="41.033635" lon="-6.770364">
        <ele>581.79</ele>
        <time>2021-03-27T17:42:10Z</time>
      </trkpt>
      <trkpt lat="41.033765" lon="-6.77034">
        <ele>582.13</ele>
        <time>2021-03-27T17:42:13Z</time>
      </trkpt>
      <trkpt lat="41.03391" lon="-6.770284">
        <ele>582.72</ele>
        <time>2021-03-27T17:42:16Z</time>
      </trkpt>
      <trkpt lat="41.034384" lon="-6.770023">
        <ele>584.16</ele>
        <time>2021-03-27T17:42:19Z</time>
      </trkpt>
      <trkpt lat="41.034561" lon="-6.769819">
        <ele>585.29</ele>
        <time>2021-03-27T17:42:22Z</time>
      </trkpt>
      <trkpt lat="41.034633" lon="-6.76969">
        <ele>586.66</ele>
        <time>2021-03-27T17:42:25Z</time>
      </trkpt>
      <trkpt lat="41.03469" lon="-6.769539">
        <ele>587.08</ele>
        <time>2021-03-27T17:42:28Z</time>
      </trkpt>
      <trkpt lat="41.034968" lon="-6.768358">
        <ele>590.83</ele>
        <time>2021-03-27T17:42:31Z</time>
      </trkpt>
      <trkpt lat="41.035015" lon="-6.768204">
        <ele>593.44</ele>
        <time>2021-03-27T17:42:34Z</time>
      </trkpt>
      <trkpt lat="41.035078" lon="-6.768073">
        <ele>595.84</ele>
        <time>2021-03-27T17:42:37Z</time>
      </trkpt>
      <trkpt lat="41.035235" lon="-6.767829">
        <ele>597.8</ele>
        <time>2021-03-27T17:42:40Z</time>
      </trkpt>
      <trkpt lat="41.035336" lon="-6.767723">
        <ele>598.18</ele>
        <time>2021-03-27T17:42:43Z</time>
      </trkpt>
      <trkpt lat="41.036073" lon="-6.767084">
        <ele>601.99</ele>
        <time>2021-03-27T17:42:46Z</time>
      </trkpt>
      <trkpt lat="41.036191" lon="-6.766935">
        <ele>602.77</ele>
        <time>2021-03-27T17:42:49Z</time>
      </trkpt>
      <trkpt lat="41.03761" lon="-6.764039">
        <ele>618.94</ele>
        <time>2021-03-27T17:42:52Z</time>
      </trkpt>
      <trkpt lat="41.038303" lon="-6.762352">
        <ele>633.62</ele>
        <time>2021-03-27T17:42:55Z</time>
      </trkpt>
      <trkpt lat="41.040122" lon="-6.759718">
        <ele>643.93</ele>
        <time>2021-03-27T17:42:58Z</time>
      </trkpt>
      <trkpt lat="41.040189" lon="-6.759675">
        <ele>644.86</ele>
        <time>2021-03-27T17:43:01Z</time>
      </trkpt>
      <trkpt lat="41.040328" lon="-6.759681">
        <ele>645.45</ele>
        <time>2021-03-27T17:43:04Z</time>
      </trkpt>
      <trkpt lat="41.040424" lon="-6.759774">
        <ele>645.17</ele>
        <time>2021-03-27T17:43:07Z</time>
      </trkpt>
      <trkpt lat="41.04069" lon="-6.760539">
        <ele>645.97</ele>
        <time>2021-03-27T17:43:10Z</time>
      </trkpt>
      <trkpt lat="41.040808" lon="-6.76066">
        <ele>647.23</ele>
        <time>2021-03-27T17:43:13Z</time>
      </trkpt>
      <trkpt lat="41.040873" lon="-6.76068">
        <ele>648.02</ele>
        <time>2021-03-27T17:43:16Z</time>
      </trkpt>
      <trkpt lat="41.04105" lon="-6.760627">
        <ele>650.38</ele>
        <time>2021-03-27T17:43:19Z</time>
      </trkpt>
      <trkpt lat="41.041291" lon="-6.760216">
        <ele>652.53</ele>
        <time>2021-03-27T17:43:22Z</time>
      </trkpt>
      <trkpt lat="41.042362" lon="-6.75829">
        <ele>656.37</ele>
        <time>2021-03-27T17:43:25Z</time>
      </trkpt>
      <trkpt lat="41.042567" lon="-6.757875">
        <ele>657.72</ele>
        <time>2021-03-27T17:43:28Z</time>
      </trkpt>
      <trkpt lat="41.043228" lon="-6.756233">
        <ele>659.99</ele>
        <time>2021-03-27T17:43:31Z</time>
      </trkpt>
      <trkpt lat="41.044215" lon="-6.753851">
        <ele>659.79</ele>
        <time>2021-03-27T17:43:34Z</time>
      </trkpt>
      <trkpt lat="41.044289" lon="-6.753723">
        <ele>660.4</ele>
        <time>2021-03-27T17:43:37Z</time>
      </trkpt>
      <trkpt lat="41.044474" lon="-6.753493">
        <ele>662.48</ele>
        <time>2021-03-27T17:43:40Z</time>
      </trkpt>
      <trkpt lat="41.04461" lon="-6.753405">
        <ele>662.77</ele>
        <time>2021-03-27T17:43:43Z</time>
      </trkpt>
      <trkpt lat="41.044782" lon="-6.753339">
        <ele>662.92</ele>
        <time>2021-03-27T17:43:46Z</time>
      </trkpt>
      <trkpt lat="41.044937" lon="-6.753312">
        <ele>663.24</ele>
        <time>2021-03-27T17:43:49Z</time>
      </trkpt>
      <trkpt lat="41.045731" lon="-6.75333">
        <ele>661.43</ele>
        <time>2021-03-27T17:43:52Z</time>
      </trkpt>
      <trkpt lat="41.045906" lon="-6.753317">
        <ele>661.52</ele>
        <time>2021-03-27T17:43:55Z</time>
      </trkpt>
      <trkpt lat="41.045963" lon="-6.753269">
        <ele>662.4</ele>
        <time>2021-03-27T17:43:58Z</time>
      </trkpt>
      <trkpt lat="41.046462" lon="-6.752703">
        <ele>662.91</ele>
        <time>2021-03-27T17:44:01Z</time>
      </trkpt>
      <trkpt lat="41.046965" lon="-6.752164">
        <ele>659.21</ele>
        <time>2021-03-27T17:44:04Z</time>
      </trkpt>
      <trkpt lat="41.047018" lon="-6.752083">
        <ele>658.56</ele>
        <time>2021-03-27T17:44:07Z</time>
      </trkpt>
      <trkpt lat="41.047085" lon="-6.751947">
        <ele>657.57</ele>
        <time>2021-03-27T17:44:10Z</time>
      </trkpt>
      <trkpt lat="41.047133" lon="-6.751804">
        <ele>656.36</ele>
        <time>2021-03-27T17:44:13Z</time>
      </trkpt>
      <trkpt lat="41.047299" lon="-6.750511">
        <ele>646.06</ele>
        <time>2021-03-27T17:44:16Z</time>
      </trkpt>
      <trkpt lat="41.047366" lon="-6.749998">
        <ele>644.6</ele>
        <time>2021-03-27T17:44:19Z</time>
      </trkpt>
      <trkpt lat="41.047455" lon="-6.749595">
        <ele>640.65</ele>
        <time>2021-03-27T17:44:22Z</time>
      </trkpt>
      <trkpt lat="41.047602" lon="-6.749157">
        <ele>639.1</ele>
        <time>2021-03-27T17:44:25Z</time>
      </trkpt>
      <trkpt lat="41.047776" lon="-6.7488">
        <ele>637.05</ele>
        <time>2021-03-27T17:44:28Z</time>
      </trkpt>
      <trkpt lat="41.048021" lon="-6.74844">
        <ele>632.34</ele>
        <time>2021-03-27T17:44:31Z</time>
      </trkpt>
      <trkpt lat="41.048164" lon="-6.748278">
        <ele>630.61</ele>
        <time>2021-03-27T17:44:34Z</time>
      </trkpt>
      <trkpt lat="41.048975" lon="-6.747558">
        <ele>625.69</ele>
        <time>2021-03-27T17:44:37Z</time>
      </trkpt>
      <trkpt lat="41.050879" lon="-6.745937">
        <ele>614.63</ele>
        <time>2021-03-27T17:44:40Z</time>
      </trkpt>
      <trkpt lat="41.054286" lon="-6.742987">
        <ele>605.89</ele>
        <time>2021-03-27T17:44:43Z</time>
      </trkpt>
      <trkpt lat="41.054565" lon="-6.742708">
        <ele>606.47</ele>
        <time>2021-03-27T17:44:46Z</time>
      </trkpt>
      <trkpt lat="41.054701" lon="-6.742538">
        <ele>606.19</ele>
        <time>2021-03-27T17:44:49Z</time>
      </trkpt>
      <trkpt lat="41.054904" lon="-6.742211">
        <ele>602.86</ele>
        <time>2021-03-27T17:44:52Z</time>
      </trkpt>
      <trkpt lat="41.05749" lon="-6.736204">
        <ele>600.34</ele>
        <time>2021-03-27T17:44:55Z</time>
      </trkpt>
      <trkpt lat="41.057922" lon="-6.735259">
        <ele>598.93</ele>
        <time>2021-03-27T17:44:58Z</time>
      </trkpt>
      <trkpt lat="41.058092" lon="-6.734979">
        <ele>598.41</ele>
        <time>2021-03-27T17:45:01Z</time>
      </trkpt>
      <trkpt lat="41.058255" lon="-6.734779">
        <ele>601.03</ele>
        <time>2021-03-27T17:45:04Z</time>
      </trkpt>
      <trkpt lat="41.058489" lon="-6.734536">
        <ele>602.85</ele>
        <time>2021-03-27T17:45:07Z</time>
      </trkpt>
      <trkpt lat="41.060183" lon="-6.732961">
        <ele>602.66</ele>
        <time>2021-03-27T17:45:10Z</time>
      </trkpt>
      <trkpt lat="41.06043" lon="-6.732648">
        <ele>599.26</ele>
        <time>2021-03-27T17:45:13Z</time>
      </trkpt>
      <trkpt lat="41.06067" lon="-6.732263">
        <ele>596.29</ele>
        <time>2021-03-27T17:45:16Z</time>
      </trkpt>
      <trkpt lat="41.060854" lon="-6.731872">
        <ele>595.74</ele>
        <time>2021-03-27T17:45:19Z</time>
      </trkpt>
      <trkpt lat="41.062074" lon="-6.7285">
        <ele>592.99</ele>
        <time>2021-03-27T17:45:22Z</time>
      </trkpt>
      <trkpt lat="41.06233" lon="-6.728028">
        <ele>591.93</ele>
        <time>2021-03-27T17:45:25Z</time>
      </trkpt>
      <trkpt lat="41.062734" lon="-6.72758">
        <ele>589.95</ele>
        <time>2021-03-27T17:45:28Z</time>
      </trkpt>
      <trkpt lat="41.063661" lon="-6.72684">
        <ele>588.24</ele>
        <time>2021-03-27T17:45:31Z</time>
      </trkpt>
      <trkpt lat="41.064499" lon="-6.725636">
        <ele>594.49</ele>
        <time>2021-03-27T17:45:34Z</time>
      </trkpt>
      <trkpt lat="41.065497" lon="-6.724875">
        <ele>590.32</ele>
        <time>2021-03-27T17:45:37Z</time>
      </trkpt>
      <trkpt lat="41.066422" lon="-6.72354">
        <ele>591.56</ele>
        <time>2021-03-27T17:45:40Z</time>
      </trkpt>
      <trkpt lat="41.066641" lon="-6.723122">
        <ele>594.01</ele>
        <time>2021-03-27T17:45:43Z</time>
      </trkpt>
      <trkpt lat="41.066828" lon="-6.722571">
        <ele>594.55</ele>
        <time>2021-03-27T17:45:46Z</time>
      </trkpt>
      <trkpt lat="41.066934" lon="-6.721904">
        <ele>587.63</ele>
        <time>2021-03-27T17:45:49Z</time>
      </trkpt>
      <trkpt lat="41.066934" lon="-6.721436">
        <ele>583.56</ele>
        <time>2021-03-27T17:45:52Z</time>
      </trkpt>
      <trkpt lat="41.066889" lon="-6.720023">
        <ele>583.67</ele>
        <time>2021-03-27T17:45:55Z</time>
      </trkpt>
      <trkpt lat="41.066907" lon="-6.719799">
        <ele>585.12</ele>
        <time>2021-03-27T17:45:58Z</time>
      </trkpt>
      <trkpt lat="41.06704" lon="-6.719284">
        <ele>587.15</ele>
        <time>2021-03-27T17:46:01Z</time>
      </trkpt>
      <trkpt lat="41.067298" lon="-6.718891">
        <ele>590.07</ele>
        <time>2021-03-27T17:46:03Z</time>
      </trkpt>
      <trkpt lat="41.068333" lon="-6.717599">
        <ele>596.35</ele>
        <time>2021-03-27T17:46:06Z</time>
      </trkpt>
      <trkpt lat="41.069006" lon="-6.715964">
        <ele>603.48</ele>
        <time>2021-03-27T17:46:09Z</time>
      </trkpt>
      <trkpt lat="41.069831" lon="-6.713116">
        <ele>620.95</ele>
        <time>2021-03-27T17:46:12Z</time>
      </trkpt>
      <trkpt lat="41.070282" lon="-6.71048">
        <ele>629.29</ele>
        <time>2021-03-27T17:46:15Z</time>
      </trkpt>
      <trkpt lat="41.070917" lon="-6.708695">
        <ele>630.61</ele>
        <time>2021-03-27T17:46:18Z</time>
      </trkpt>
      <trkpt lat="41.071241" lon="-6.707026">
        <ele>628.45</ele>
        <time>2021-03-27T17:46:21Z</time>
      </trkpt>
      <trkpt lat="41.071411" lon="-6.706385">
        <ele>627.35</ele>
        <time>2021-03-27T17:46:24Z</time>
      </trkpt>
      <trkpt lat="41.071905" lon="-6.705469">
        <ele>631.14</ele>
        <time>2021-03-27T17:46:27Z</time>
      </trkpt>
      <trkpt lat="41.073235" lon="-6.703252">
        <ele>635.42</ele>
        <time>2021-03-27T17:46:30Z</time>
      </trkpt>
      <trkpt lat="41.073588" lon="-6.70238">
        <ele>633.79</ele>
        <time>2021-03-27T17:46:33Z</time>
      </trkpt>
      <trkpt lat="41.074106" lon="-6.700628">
        <ele>632.17</ele>
        <time>2021-03-27T17:46:36Z</time>
      </trkpt>
      <trkpt lat="41.07427" lon="-6.699454">
        <ele>637.22</ele>
        <time>2021-03-27T17:46:39Z</time>
      </trkpt>
      <trkpt lat="41.074254" lon="-6.697764">
        <ele>639.14</ele>
        <time>2021-03-27T17:46:42Z</time>
      </trkpt>
      <trkpt lat="41.074176" lon="-6.696578">
        <ele>640.9</ele>
        <time>2021-03-27T17:46:45Z</time>
      </trkpt>
      <trkpt lat="41.073767" lon="-6.694588">
        <ele>641.82</ele>
        <time>2021-03-27T17:46:48Z</time>
      </trkpt>
      <trkpt lat="41.07344" lon="-6.693797">
        <ele>650.35</ele>
        <time>2021-03-27T17:46:51Z</time>
      </trkpt>
      <trkpt lat="41.07302" lon="-6.693278">
        <ele>653.46</ele>
        <time>2021-03-27T17:46:54Z</time>
      </trkpt>
      <trkpt lat="41.072372" lon="-6.692617">
        <ele>649.96</ele>
        <time>2021-03-27T17:46:57Z</time>
      </trkpt>
      <trkpt lat="41.072144" lon="-6.692252">
        <ele>647.91</ele>
        <time>2021-03-27T17:47:00Z</time>
      </trkpt>
      <trkpt lat="41.070698" lon="-6.688777">
        <ele>655.97</ele>
        <time>2021-03-27T17:47:03Z</time>
      </trkpt>
      <trkpt lat="41.070512" lon="-6.68819">
        <ele>657.16</ele>
        <time>2021-03-27T17:47:06Z</time>
      </trkpt>
      <trkpt lat="41.070459" lon="-6.687772">
        <ele>657.35</ele>
        <time>2021-03-27T17:47:09Z</time>
      </trkpt>
      <trkpt lat="41.07047" lon="-6.68731">
        <ele>657.31</ele>
        <time>2021-03-27T17:47:12Z</time>
      </trkpt>
      <trkpt lat="41.070537" lon="-6.68688">
        <ele>657.1</ele>
        <time>2021-03-27T17:47:15Z</time>
      </trkpt>
      <trkpt lat="41.071013" lon="-6.685033">
        <ele>658.75</ele>
        <time>2021-03-27T17:47:18Z</time>
      </trkpt>
      <trkpt lat="41.071107" lon="-6.684345">
        <ele>661.75</ele>
        <time>2021-03-27T17:47:21Z</time>
      </trkpt>
      <trkpt lat="41.071223" lon="-6.682836">
        <ele>665.91</ele>
        <time>2021-03-27T17:47:24Z</time>
      </trkpt>
      <trkpt lat="41.071406" lon="-6.68189">
        <ele>668.39</ele>
        <time>2021-03-27T17:47:27Z</time>
      </trkpt>
      <trkpt lat="41.073042" lon="-6.676893">
        <ele>679.19</ele>
        <time>2021-03-27T17:47:30Z</time>
      </trkpt>
      <trkpt lat="41.073188" lon="-6.676343">
        <ele>680.12</ele>
        <time>2021-03-27T17:47:33Z</time>
      </trkpt>
      <trkpt lat="41.073272" lon="-6.675756">
        <ele>681.28</ele>
        <time>2021-03-27T17:47:36Z</time>
      </trkpt>
      <trkpt lat="41.073286" lon="-6.675379">
        <ele>682.0</ele>
        <time>2021-03-27T17:47:39Z</time>
      </trkpt>
      <trkpt lat="41.073282" lon="-6.675061">
        <ele>682.78</ele>
        <time>2021-03-27T17:47:42Z</time>
      </trkpt>
      <trkpt lat="41.073112" lon="-6.673058">
        <ele>689.2</ele>
        <time>2021-03-27T17:47:45Z</time>
      </trkpt>
      <trkpt lat="41.073136" lon="-6.672349">
        <ele>688.22</ele>
        <time>2021-03-27T17:47:48Z</time>
      </trkpt>
      <trkpt lat="41.073233" lon="-6.67143">
        <ele>691.51</ele>
        <time>2021-03-27T17:47:51Z</time>
      </trkpt>
      <trkpt lat="41.073232" lon="-6.671224">
        <ele>690.77</ele>
        <time>2021-03-27T17:47:54Z</time>
      </trkpt>
      <trkpt lat="41.073201" lon="-6.671027">
        <ele>690.78</ele>
        <time>2021-03-27T17:47:57Z</time>
      </trkpt>
      <trkpt lat="41.072983" lon="-6.670268">
        <ele>695.29</ele>
        <time>2021-03-27T17:48:00Z</time>
      </trkpt>
      <trkpt lat="41.072653" lon="-6.669262">
        <ele>698.95</ele>
        <time>2021-03-27T17:48:03Z</time>
      </trkpt>
      <trkpt lat="41.072414" lon="-6.668505">
        <ele>702.12</ele>
        <time>2021-03-27T17:48:06Z</time>
      </trkpt>
      <trkpt lat="41.072373" lon="-6.668247">
        <ele>702.77</ele>
        <time>2021-03-27T17:48:09Z</time>
      </trkpt>
      <trkpt lat="41.072383" lon="-6.667834">
        <ele>703.88</ele>
        <time>2021-03-27T17:48:12Z</time>
      </trkpt>
      <trkpt lat="41.072316" lon="-6.667113">
        <ele>708.05</ele>
        <time>2021-03-27T17:48:15Z</time>
      </trkpt>
      <trkpt lat="41.072311" lon="-6.666963">
        <ele>708.61</ele>
        <time>2021-03-27T17:48:18Z</time>
      </trkpt>
      <trkpt lat="41.07233" lon="-6.666758">
        <ele>709.28</ele>
        <time>2021-03-27T17:48:21Z</time>
      </trkpt>
      <trkpt lat="41.072445" lon="-6.666234">
        <ele>708.08</ele>
        <time>2021-03-27T17:48:24Z</time>
      </trkpt>
      <trkpt lat="41.072486" lon="-6.665772">
        <ele>706.23</ele>
        <time>2021-03-27T17:48:27Z</time>
      </trkpt>
      <trkpt lat="41.072446" lon="-6.665594">
        <ele>707.03</ele>
        <time>2021-03-27T17:48:30Z</time>
      </trkpt>
      <trkpt lat="41.072044" lon="-6.664787">
        <ele>711.41</ele>
        <time>2021-03-27T17:48:33Z</time>
      </trkpt>
      <trkpt lat="41.071849" lon="-6.664222">
        <ele>713.34</ele>
        <time>2021-03-27T17:48:36Z</time>
      </trkpt>
      <trkpt lat="41.071724" lon="-6.663922">
        <ele>713.09</ele>
        <time>2021-03-27T17:48:39Z</time>
      </trkpt>
      <trkpt lat="41.071702" lon="-6.663846">
        <ele>713.13</ele>
        <time>2021-03-27T17:48:42Z</time>
      </trkpt>
      <trkpt lat="41.071704" lon="-6.663697">
        <ele>713.6</ele>
        <time>2021-03-27T17:48:45Z</time>
      </trkpt>
      <trkpt lat="41.071754" lon="-6.663245">
        <ele>714.57</ele>
        <time>2021-03-27T17:48:48Z</time>
      </trkpt>
      <trkpt lat="41.072391" lon="-6.662464">
        <ele>717.6</ele>
        <time>2021-03-27T17:48:56Z</time>
      </trkpt>
      <trkpt lat="41.072749" lon="-6.662108">
        <ele>717.57</ele>
        <time>2021-03-27T17:49:04Z</time>
      </trkpt>
      <trkpt lat="41.072898" lon="-6.661933">
        <ele>718.0</ele>
        <time>2021-03-27T17:49:12Z</time>
      </trkpt>
      <trkpt lat="41.073524" lon="-6.661109">
        <ele>717.01</ele>
        <time>2021-03-27T17:49:20Z</time>
      </trkpt>
      <trkpt lat="41.074158" lon="-6.660215">
        <ele>719.98</ele>
        <time>2021-03-27T17:49:28Z</time>
      </trkpt>
      <trkpt lat="41.074431" lon="-6.659781">
        <ele>720.16</ele>
        <time>2021-03-27T17:49:36Z</time>
      </trkpt>
      <trkpt lat="41.074656" lon="-6.659499">
        <ele>720.57</ele>
        <time>2021-03-27T17:49:45Z</time>
      </trkpt>
      <trkpt lat="41.074845" lon="-6.659297">
        <ele>720.94</ele>
        <time>2021-03-27T17:49:53Z</time>
      </trkpt>
      <trkpt lat="41.075107" lon="-6.659081">
        <ele>721.81</ele>
        <time>2021-03-27T17:50:01Z</time>
      </trkpt>
      <trkpt lat="41.075426" lon="-6.658908">
        <ele>722.03</ele>
        <time>2021-03-27T17:50:09Z</time>
      </trkpt>
      <trkpt lat="41.075558" lon="-6.658854">
        <ele>721.88</ele>
        <time>2021-03-27T17:50:17Z</time>
      </trkpt>
      <trkpt lat="41.077104" lon="-6.658295">
        <ele>719.13</ele>
        <time>2021-03-27T17:50:25Z</time>
      </trkpt>
      <trkpt lat="41.077662" lon="-6.658166">
        <ele>719.77</ele>
        <time>2021-03-27T17:50:33Z</time>
      </trkpt>
      <trkpt lat="41.078048" lon="-6.658122">
        <ele>718.79</ele>
        <time>2021-03-27T17:50:41Z</time>
      </trkpt>
      <trkpt lat="41.078513" lon="-6.658126">
        <ele>718.16</ele>
        <time>2021-03-27T17:50:49Z</time>
      </trkpt>
      <trkpt lat="41.080178" lon="-6.658357">
        <ele>720.73</ele>
        <time>2021-03-27T17:50:57Z</time>
      </trkpt>
      <trkpt lat="41.080637" lon="-6.658385">
        <ele>721.32</ele>
        <time>2021-03-27T17:51:05Z</time>
      </trkpt>
      <trkpt lat="41.080972" lon="-6.658353">
        <ele>721.07</ele>
        <time>2021-03-27T17:51:13Z</time>
      </trkpt>
      <trkpt lat="41.081567" lon="-6.658099">
        <ele>719.36</ele>
        <time>2021-03-27T17:51:21Z</time>
      </trkpt>
      <trkpt lat="41.08238" lon="-6.657649">
        <ele>717.59</ele>
        <time>2021-03-27T17:51:29Z</time>
      </trkpt>
      <trkpt lat="41.085879" lon="-6.655572">
        <ele>707.84</ele>
        <time>2021-03-27T17:51:37Z</time>
      </trkpt>
      <trkpt lat="41.086165" lon="-6.655423">
        <ele>706.81</ele>
        <time>2021-03-27T17:51:45Z</time>
      </trkpt>
      <trkpt lat="41.086366" lon="-6.655355">
        <ele>706.08</ele>
        <time>2021-03-27T17:51:53Z</time>
      </trkpt>
      <trkpt lat="41.086611" lon="-6.655331">
        <ele>705.85</ele>
        <time>2021-03-27T17:52:01Z</time>
      </trkpt>
      <trkpt lat="41.087005" lon="-6.655358">
        <ele>705.34</ele>
        <time>2021-03-27T17:52:09Z</time>
      </trkpt>
      <trkpt lat="41.088036" lon="-6.655496">
        <ele>701.0</ele>
        <time>2021-03-27T17:52:17Z</time>
      </trkpt>
      <trkpt lat="41.088266" lon="-6.655506">
        <ele>702.38</ele>
        <time>2021-03-27T17:52:25Z</time>
      </trkpt>
      <trkpt lat="41.088457" lon="-6.655484">
        <ele>702.86</ele>
        <time>2021-03-27T17:52:33Z</time>
      </trkpt>
      <trkpt lat="41.088778" lon="-6.655389">
        <ele>703.0</ele>
        <time>2021-03-27T17:52:42Z</time>
      </trkpt>
      <trkpt lat="41.089164" lon="-6.655228">
        <ele>702.82</ele>
        <time>2021-03-27T17:52:50Z</time>
      </trkpt>
      <trkpt lat="41.089926" lon="-6.654869">
        <ele>700.27</ele>
        <time>2021-03-27T17:52:58Z</time>
      </trkpt>
      <trkpt lat="41.092534" lon="-6.653578">
        <ele>708.1</ele>
        <time>2021-03-27T17:53:06Z</time>
      </trkpt>
      <trkpt lat="41.093165" lon="-6.653303">
        <ele>708.54</ele>
        <time>2021-03-27T17:53:14Z</time>
      </trkpt>
      <trkpt lat="41.094105" lon="-6.65295">
        <ele>713.14</ele>
        <time>2021-03-27T17:53:22Z</time>
      </trkpt>
      <trkpt lat="41.095757" lon="-6.652411">
        <ele>714.65</ele>
        <time>2021-03-27T17:53:30Z</time>
      </trkpt>
      <trkpt lat="41.096228" lon="-6.652287">
        <ele>718.47</ele>
        <time>2021-03-27T17:53:38Z</time>
      </trkpt>
      <trkpt lat="41.096832" lon="-6.652216">
        <ele>721.0</ele>
        <time>2021-03-27T17:53:46Z</time>
      </trkpt>
      <trkpt lat="41.101942" lon="-6.65189">
        <ele>746.01</ele>
        <time>2021-03-27T17:53:54Z</time>
      </trkpt>
      <trkpt lat="41.106402" lon="-6.651316">
        <ele>748.49</ele>
        <time>2021-03-27T17:54:02Z</time>
      </trkpt>
      <trkpt lat="41.106731" lon="-6.651236">
        <ele>748.32</ele>
        <time>2021-03-27T17:54:10Z</time>
      </trkpt>
      <trkpt lat="41.107106" lon="-6.651099">
        <ele>746.38</ele>
        <time>2021-03-27T17:54:18Z</time>
      </trkpt>
      <trkpt lat="41.111054" lon="-6.649288">
        <ele>743.03</ele>
        <time>2021-03-27T17:54:26Z</time>
      </trkpt>
      <trkpt lat="41.112811" lon="-6.648453">
        <ele>747.07</ele>
        <time>2021-03-27T17:54:34Z</time>
      </trkpt>
      <trkpt lat="41.113147" lon="-6.648253">
        <ele>748.29</ele>
        <time>2021-03-27T17:54:42Z</time>
      </trkpt>
      <trkpt lat="41.114881" lon="-6.646961">
        <ele>741.05</ele>
        <time>2021-03-27T17:54:50Z</time>
      </trkpt>
      <trkpt lat="41.115279" lon="-6.646718">
        <ele>739.8</ele>
        <time>2021-03-27T17:54:58Z</time>
      </trkpt>
      <trkpt lat="41.115803" lon="-6.646533">
        <ele>737.11</ele>
        <time>2021-03-27T17:55:06Z</time>
      </trkpt>
      <trkpt lat="41.120065" lon="-6.645538">
        <ele>726.27</ele>
        <time>2021-03-27T17:55:14Z</time>
      </trkpt>
      <trkpt lat="41.120711" lon="-6.645333">
        <ele>726.87</ele>
        <time>2021-03-27T17:55:22Z</time>
      </trkpt>
      <trkpt lat="41.121201" lon="-6.645128">
        <ele>728.24</ele>
        <time>2021-03-27T17:55:30Z</time>
      </trkpt>
      <trkpt lat="41.121682" lon="-6.644881">
        <ele>729.05</ele>
        <time>2021-03-27T17:55:38Z</time>
      </trkpt>
      <trkpt lat="41.123149" lon="-6.644028">
        <ele>723.5</ele>
        <time>2021-03-27T17:55:47Z</time>
      </trkpt>
      <trkpt lat="41.124628" lon="-6.643207">
        <ele>723.16</ele>
        <time>2021-03-27T17:55:55Z</time>
      </trkpt>
      <trkpt lat="41.128725" lon="-6.641155">
        <ele>727.82</ele>
        <time>2021-03-27T17:56:03Z</time>
      </trkpt>
      <trkpt lat="41.129521" lon="-6.640699">
        <ele>730.17</ele>
        <time>2021-03-27T17:56:11Z</time>
      </trkpt>
      <trkpt lat="41.131079" lon="-6.639653">
        <ele>723.2</ele>
        <time>2021-03-27T17:56:19Z</time>
      </trkpt>
      <trkpt lat="41.135155" lon="-6.636976">
        <ele>727.06</ele>
        <time>2021-03-27T17:56:27Z</time>
      </trkpt>
      <trkpt lat="41.137386" lon="-6.635553">
        <ele>730.99</ele>
        <time>2021-03-27T17:56:35Z</time>
      </trkpt>
      <trkpt lat="41.144023" lon="-6.631693">
        <ele>723.43</ele>
        <time>2021-03-27T17:56:43Z</time>
      </trkpt>
      <trkpt lat="41.144964" lon="-6.631217">
        <ele>726.62</ele>
        <time>2021-03-27T17:56:51Z</time>
      </trkpt>
      <trkpt lat="41.14841" lon="-6.629991">
        <ele>707.72</ele>
        <time>2021-03-27T17:56:59Z</time>
      </trkpt>
      <trkpt lat="41.149543" lon="-6.62965">
        <ele>708.52</ele>
        <time>2021-03-27T17:57:07Z</time>
      </trkpt>
      <trkpt lat="41.149936" lon="-6.629591">
        <ele>708.59</ele>
        <time>2021-03-27T17:57:15Z</time>
      </trkpt>
      <trkpt lat="41.153082" lon="-6.629533">
        <ele>714.26</ele>
        <time>2021-03-27T17:57:23Z</time>
      </trkpt>
      <trkpt lat="41.153358" lon="-6.629542">
        <ele>716.65</ele>
        <time>2021-03-27T17:57:31Z</time>
      </trkpt>
      <trkpt lat="41.156104" lon="-6.629811">
        <ele>710.32</ele>
        <time>2021-03-27T17:57:39Z</time>
      </trkpt>
      <trkpt lat="41.1565" lon="-6.629835">
        <ele>711.64</ele>
        <time>2021-03-27T17:57:47Z</time>
      </trkpt>
      <trkpt lat="41.157029" lon="-6.629804">
        <ele>710.49</ele>
        <time>2021-03-27T17:57:55Z</time>
      </trkpt>
      <trkpt lat="41.15759" lon="-6.629742">
        <ele>711.0</ele>
        <time>2021-03-27T17:58:03Z</time>
      </trkpt>
      <trkpt lat="41.158588" lon="-6.62959">
        <ele>708.08</ele>
        <time>2021-03-27T17:58:11Z</time>
      </trkpt>
      <trkpt lat="41.159132" lon="-6.629413">
        <ele>708.88</ele>
        <time>2021-03-27T17:58:19Z</time>
      </trkpt>
      <trkpt lat="41.159846" lon="-6.629154">
        <ele>709.98</ele>
        <time>2021-03-27T17:58:27Z</time>
      </trkpt>
      <trkpt lat="41.159997" lon="-6.629078">
        <ele>710.0</ele>
        <time>2021-03-27T17:58:35Z</time>
      </trkpt>
      <trkpt lat="41.16039" lon="-6.62872">
        <ele>709.84</ele>
        <time>2021-03-27T17:58:43Z</time>
      </trkpt>
      <trkpt lat="41.160682" lon="-6.628325">
        <ele>708.99</ele>
        <time>2021-03-27T17:58:52Z</time>
      </trkpt>
      <trkpt lat="41.161061" lon="-6.627916">
        <ele>707.91</ele>
        <time>2021-03-27T17:59:00Z</time>
      </trkpt>
      <trkpt lat="41.16108" lon="-6.627876">
        <ele>707.93</ele>
        <time>2021-03-27T17:59:08Z</time>
      </trkpt>
      <trkpt lat="41.161097" lon="-6.627628">
        <ele>707.41</ele>
        <time>2021-03-27T17:59:16Z</time>
      </trkpt>
      <trkpt lat="41.161121" lon="-6.627558">
        <ele>707.18</ele>
        <time>2021-03-27T17:59:24Z</time>
      </trkpt>
      <trkpt lat="41.161166" lon="-6.6275">
        <ele>706.8</ele>
        <time>2021-03-27T17:59:32Z</time>
      </trkpt>
      <trkpt lat="41.161377" lon="-6.627367">
        <ele>705.09</ele>
        <time>2021-03-27T17:59:40Z</time>
      </trkpt>
      <trkpt lat="41.161928" lon="-6.627082">
        <ele>704.0</ele>
        <time>2021-03-27T17:59:48Z</time>
      </trkpt>
      <trkpt lat="41.162828" lon="-6.626574">
        <ele>701.7</ele>
        <time>2021-03-27T17:59:56Z</time>
      </trkpt>
      <trkpt lat="41.163163" lon="-6.626293">
        <ele>701.34</ele>
        <time>2021-03-27T18:00:04Z</time>
      </trkpt>
      <trkpt lat="41.163337" lon="-6.626194">
        <ele>701.68</ele>
        <time>2021-03-27T18:00:12Z</time>
      </trkpt>
      <trkpt lat="41.163521" lon="-6.625802">
        <ele>702.43</ele>
        <time>2021-03-27T18:00:17Z</time>
      </trkpt>
      <trkpt lat="41.163652" lon="-6.625149">
        <ele>703.17</ele>
        <time>2021-03-27T18:00:22Z</time>
      </trkpt>
      <trkpt lat="41.163708" lon="-6.624991">
        <ele>703.32</ele>
        <time>2021-03-27T18:00:27Z</time>
      </trkpt>
      <trkpt lat="41.164216" lon="-6.624319">
        <ele>704.9</ele>
        <time>2021-03-27T18:00:32Z</time>
      </trkpt>
      <trkpt lat="41.164778" lon="-6.623628">
        <ele>709.93</ele>
        <time>2021-03-27T18:00:36Z</time>
      </trkpt>
      <trkpt lat="41.165286" lon="-6.622971">
        <ele>711.01</ele>
        <time>2021-03-27T18:00:41Z</time>
      </trkpt>
      <trkpt lat="41.165786" lon="-6.622383">
        <ele>713.32</ele>
        <time>2021-03-27T18:00:46Z</time>
      </trkpt>
      <trkpt lat="41.166141" lon="-6.622">
        <ele>713.69</ele>
        <time>2021-03-27T18:00:51Z</time>
      </trkpt>
      <trkpt lat="41.166294" lon="-6.62175">
        <ele>713.34</ele>
        <time>2021-03-27T18:00:56Z</time>
      </trkpt>
      <trkpt lat="41.167127" lon="-6.620233">
        <ele>715.71</ele>
        <time>2021-03-27T18:01:01Z</time>
      </trkpt>
      <trkpt lat="41.167275" lon="-6.62007">
        <ele>716.0</ele>
        <time>2021-03-27T18:01:06Z</time>
      </trkpt>
      <trkpt lat="41.167821" lon="-6.619636">
        <ele>717.11</ele>
        <time>2021-03-27T18:01:11Z</time>
      </trkpt>
      <trkpt lat="41.168256" lon="-6.61925">
        <ele>716.3</ele>
        <time>2021-03-27T18:01:16Z</time>
      </trkpt>
      <trkpt lat="41.168714" lon="-6.618732">
        <ele>718.45</ele>
        <time>2021-03-27T18:01:21Z</time>
      </trkpt>
      <trkpt lat="41.169175" lon="-6.618246">
        <ele>721.34</ele>
        <time>2021-03-27T18:01:25Z</time>
      </trkpt>
      <trkpt lat="41.169536" lon="-6.618015">
        <ele>723.47</ele>
        <time>2021-03-27T18:01:30Z</time>
      </trkpt>
      <trkpt lat="41.169782" lon="-6.617832">
        <ele>725.19</ele>
        <time>2021-03-27T18:01:35Z</time>
      </trkpt>
      <trkpt lat="41.169895" lon="-6.617694">
        <ele>726.36</ele>
        <time>2021-03-27T18:01:40Z</time>
      </trkpt>
      <trkpt lat="41.170728" lon="-6.616033">
        <ele>728.24</ele>
        <time>2021-03-27T18:01:45Z</time>
      </trkpt>
      <trkpt lat="41.170864" lon="-6.615813">
        <ele>729.11</ele>
        <time>2021-03-27T18:01:50Z</time>
      </trkpt>
      <trkpt lat="41.170959" lon="-6.615727">
        <ele>729.45</ele>
        <time>2021-03-27T18:01:55Z</time>
      </trkpt>
      <trkpt lat="41.171185" lon="-6.615657">
        <ele>730.43</ele>
        <time>2021-03-27T18:02:00Z</time>
      </trkpt>
      <trkpt lat="41.171371" lon="-6.61557">
        <ele>731.82</ele>
        <time>2021-03-27T18:02:05Z</time>
      </trkpt>
      <trkpt lat="41.171821" lon="-6.615053">
        <ele>733.45</ele>
        <time>2021-03-27T18:02:09Z</time>
      </trkpt>
      <trkpt lat="41.172047" lon="-6.614687">
        <ele>733.04</ele>
        <time>2021-03-27T18:02:14Z</time>
      </trkpt>
      <trkpt lat="41.173736" lon="-6.61177">
        <ele>736.0</ele>
        <time>2021-03-27T18:02:19Z</time>
      </trkpt>
      <trkpt lat="41.173954" lon="-6.611517">
        <ele>736.47</ele>
        <time>2021-03-27T18:02:24Z</time>
      </trkpt>
      <trkpt lat="41.174719" lon="-6.610768">
        <ele>736.53</ele>
        <time>2021-03-27T18:02:29Z</time>
      </trkpt>
      <trkpt lat="41.174892" lon="-6.610649">
        <ele>736.69</ele>
        <time>2021-03-27T18:02:34Z</time>
      </trkpt>
      <trkpt lat="41.176401" lon="-6.6098">
        <ele>732.32</ele>
        <time>2021-03-27T18:02:39Z</time>
      </trkpt>
      <trkpt lat="41.176649" lon="-6.609687">
        <ele>732.69</ele>
        <time>2021-03-27T18:02:44Z</time>
      </trkpt>
      <trkpt lat="41.176837" lon="-6.609638">
        <ele>733.01</ele>
        <time>2021-03-27T18:02:49Z</time>
      </trkpt>
      <trkpt lat="41.177111" lon="-6.609643">
        <ele>734.03</ele>
        <time>2021-03-27T18:02:54Z</time>
      </trkpt>
      <trkpt lat="41.182131" lon="-6.609467">
        <ele>736.05</ele>
        <time>2021-03-27T18:02:58Z</time>
      </trkpt>
      <trkpt lat="41.183588" lon="-6.6094">
        <ele>739.93</ele>
        <time>2021-03-27T18:03:03Z</time>
      </trkpt>
      <trkpt lat="41.18625" lon="-6.609323">
        <ele>738.43</ele>
        <time>2021-03-27T18:03:08Z</time>
      </trkpt>
      <trkpt lat="41.18662" lon="-6.609245">
        <ele>738.23</ele>
        <time>2021-03-27T18:03:13Z</time>
      </trkpt>
      <trkpt lat="41.18739" lon="-6.609033">
        <ele>742.0</ele>
        <time>2021-03-27T18:03:18Z</time>
      </trkpt>
      <trkpt lat="41.18806" lon="-6.608744">
        <ele>734.48</ele>
        <time>2021-03-27T18:03:23Z</time>
      </trkpt>
      <trkpt lat="41.188316" lon="-6.608579">
        <ele>734.0</ele>
        <time>2021-03-27T18:03:28Z</time>
      </trkpt>
      <trkpt lat="41.188441" lon="-6.60845">
        <ele>733.94</ele>
        <time>2021-03-27T18:03:33Z</time>
      </trkpt>
      <trkpt lat="41.188657" lon="-6.608159">
        <ele>732.21</ele>
        <time>2021-03-27T18:03:38Z</time>
      </trkpt>
      <trkpt lat="41.189932" lon="-6.606246">
        <ele>732.38</ele>
        <time>2021-03-27T18:03:42Z</time>
      </trkpt>
      <trkpt lat="41.190377" lon="-6.605858">
        <ele>731.6</ele>
        <time>2021-03-27T18:03:47Z</time>
      </trkpt>
      <trkpt lat="41.190536" lon="-6.605691">
        <ele>729.44</ele>
        <time>2021-03-27T18:03:52Z</time>
      </trkpt>
      <trkpt lat="41.191102" lon="-6.604754">
        <ele>729.13</ele>
        <time>2021-03-27T18:03:57Z</time>
      </trkpt>
      <trkpt lat="41.191249" lon="-6.604578">
        <ele>728.22</ele>
        <time>2021-03-27T18:04:02Z</time>
      </trkpt>
      <trkpt lat="41.191445" lon="-6.604413">
        <ele>727.91</ele>
        <time>2021-03-27T18:04:07Z</time>
      </trkpt>
      <trkpt lat="41.191935" lon="-6.604149">
        <ele>728.0</ele>
        <time>2021-03-27T18:04:12Z</time>
      </trkpt>
      <trkpt lat="41.192114" lon="-6.604016">
        <ele>728.61</ele>
        <time>2021-03-27T18:04:17Z</time>
      </trkpt>
      <trkpt lat="41.192255" lon="-6.603882">
        <ele>729.12</ele>
        <time>2021-03-27T18:04:22Z</time>
      </trkpt>
      <trkpt lat="41.1925" lon="-6.603547">
        <ele>731.0</ele>
        <time>2021-03-27T18:04:27Z</time>
      </trkpt>
      <trkpt lat="41.192779" lon="-6.603099">
        <ele>732.85</ele>
        <time>2021-03-27T18:04:31Z</time>
      </trkpt>
      <trkpt lat="41.192929" lon="-6.602781">
        <ele>734.53</ele>
        <time>2021-03-27T18:04:36Z</time>
      </trkpt>
      <trkpt lat="41.193002" lon="-6.602475">
        <ele>733.93</ele>
        <time>2021-03-27T18:04:41Z</time>
      </trkpt>
      <trkpt lat="41.193444" lon="-6.600161">
        <ele>734.77</ele>
        <time>2021-03-27T18:04:46Z</time>
      </trkpt>
      <trkpt lat="41.193544" lon="-6.599711">
        <ele>733.76</ele>
        <time>2021-03-27T18:04:51Z</time>
      </trkpt>
      <trkpt lat="41.19366" lon="-6.599443">
        <ele>734.0</ele>
        <time>2021-03-27T18:04:56Z</time>
      </trkpt>
      <trkpt lat="41.193888" lon="-6.599113">
        <ele>733.0</ele>
        <time>2021-03-27T18:05:01Z</time>
      </trkpt>
      <trkpt lat="41.194985" lon="-6.597769">
        <ele>733.0</ele>
        <time>2021-03-27T18:05:06Z</time>
      </trkpt>
      <trkpt lat="41.195216" lon="-6.597408">
        <ele>732.67</ele>
        <time>2021-03-27T18:05:11Z</time>
      </trkpt>
      <trkpt lat="41.195775" lon="-6.595883">
        <ele>727.35</ele>
        <time>2021-03-27T18:05:15Z</time>
      </trkpt>
      <trkpt lat="41.195908" lon="-6.595564">
        <ele>725.76</ele>
        <time>2021-03-27T18:05:20Z</time>
      </trkpt>
      <trkpt lat="41.196079" lon="-6.595332">
        <ele>724.4</ele>
        <time>2021-03-27T18:05:25Z</time>
      </trkpt>
      <trkpt lat="41.19636" lon="-6.595101">
        <ele>723.43</ele>
        <time>2021-03-27T18:05:30Z</time>
      </trkpt>
      <trkpt lat="41.198265" lon="-6.593789">
        <ele>715.0</ele>
        <time>2021-03-27T18:05:35Z</time>
      </trkpt>
      <trkpt lat="41.198572" lon="-6.59353">
        <ele>713.85</ele>
        <time>2021-03-27T18:05:40Z</time>
      </trkpt>
      <trkpt lat="41.19925" lon="-6.592692">
        <ele>713.22</ele>
        <time>2021-03-27T18:05:45Z</time>
      </trkpt>
      <trkpt lat="41.199317" lon="-6.59263">
        <ele>713.23</ele>
        <time>2021-03-27T18:05:50Z</time>
      </trkpt>
      <trkpt lat="41.199546" lon="-6.592583">
        <ele>712.96</ele>
        <time>2021-03-27T18:05:55Z</time>
      </trkpt>
      <trkpt lat="41.199875" lon="-6.592582">
        <ele>713.25</ele>
        <time>2021-03-27T18:05:59Z</time>
      </trkpt>
      <trkpt lat="41.200402" lon="-6.592385">
        <ele>711.16</ele>
        <time>2021-03-27T18:06:04Z</time>
      </trkpt>
      <trkpt lat="41.200772" lon="-6.592214">
        <ele>710.23</ele>
        <time>2021-03-27T18:06:09Z</time>
      </trkpt>
      <trkpt lat="41.200869" lon="-6.592097">
        <ele>709.87</ele>
        <time>2021-03-27T18:06:14Z</time>
      </trkpt>
      <trkpt lat="41.200917" lon="-6.591959">
        <ele>709.7</ele>
        <time>2021-03-27T18:06:19Z</time>
      </trkpt>
      <trkpt lat="41.200981" lon="-6.591601">
        <ele>709.4</ele>
        <time>2021-03-27T18:06:24Z</time>
      </trkpt>
      <trkpt lat="41.200968" lon="-6.591412">
        <ele>709.55</ele>
        <time>2021-03-27T18:06:29Z</time>
      </trkpt>
      <trkpt lat="41.200917" lon="-6.591168">
        <ele>709.3</ele>
        <time>2021-03-27T18:06:34Z</time>
      </trkpt>
      <trkpt lat="41.200889" lon="-6.590936">
        <ele>708.27</ele>
        <time>2021-03-27T18:06:39Z</time>
      </trkpt>
      <trkpt lat="41.200886" lon="-6.590791">
        <ele>707.47</ele>
        <time>2021-03-27T18:06:44Z</time>
      </trkpt>
      <trkpt lat="41.200913" lon="-6.590712">
        <ele>706.99</ele>
        <time>2021-03-27T18:06:48Z</time>
      </trkpt>
      <trkpt lat="41.200963" lon="-6.590667">
        <ele>706.47</ele>
        <time>2021-03-27T18:06:53Z</time>
      </trkpt>
      <trkpt lat="41.201096" lon="-6.590634">
        <ele>705.39</ele>
        <time>2021-03-27T18:06:58Z</time>
      </trkpt>
      <trkpt lat="41.201691" lon="-6.590579">
        <ele>702.07</ele>
        <time>2021-03-27T18:07:03Z</time>
      </trkpt>
      <trkpt lat="41.201941" lon="-6.590506">
        <ele>700.47</ele>
        <time>2021-03-27T18:07:08Z</time>
      </trkpt>
      <trkpt lat="41.202077" lon="-6.590372">
        <ele>698.38</ele>
        <time>2021-03-27T18:07:13Z</time>
      </trkpt>
      <trkpt lat="41.202426" lon="-6.58992">
        <ele>694.9</ele>
        <time>2021-03-27T18:07:18Z</time>
      </trkpt>
      <trkpt lat="41.203053" lon="-6.589195">
        <ele>690.21</ele>
        <time>2021-03-27T18:07:23Z</time>
      </trkpt>
      <trkpt lat="41.203169" lon="-6.589129">
        <ele>689.24</ele>
        <time>2021-03-27T18:07:28Z</time>
      </trkpt>
      <trkpt lat="41.2036" lon="-6.58906">
        <ele>688.6</ele>
        <time>2021-03-27T18:07:32Z</time>
      </trkpt>
      <trkpt lat="41.203313" lon="-6.588261">
        <ele>682.48</ele>
        <time>2021-03-27T18:07:35Z</time>
      </trkpt>
      <trkpt lat="41.202197" lon="-6.585792">
        <ele>676.76</ele>
        <time>2021-03-27T18:07:38Z</time>
      </trkpt>
      <trkpt lat="41.202052" lon="-6.585533">
        <ele>675.52</ele>
        <time>2021-03-27T18:07:41Z</time>
      </trkpt>
      <trkpt lat="41.201947" lon="-6.585384">
        <ele>676.24</ele>
        <time>2021-03-27T18:07:44Z</time>
      </trkpt>
      <trkpt lat="41.201459" lon="-6.584788">
        <ele>673.92</ele>
        <time>2021-03-27T18:07:47Z</time>
      </trkpt>
      <trkpt lat="41.201245" lon="-6.584463">
        <ele>670.1</ele>
        <time>2021-03-27T18:07:50Z</time>
      </trkpt>
      <trkpt lat="41.200252" lon="-6.582363">
        <ele>666.37</ele>
        <time>2021-03-27T18:07:53Z</time>
      </trkpt>
      <trkpt lat="41.199499" lon="-6.58014">
        <ele>659.41</ele>
        <time>2021-03-27T18:07:56Z</time>
      </trkpt>
      <trkpt lat="41.19947" lon="-6.579979">
        <ele>658.77</ele>
        <time>2021-03-27T18:07:58Z</time>
      </trkpt>
      <trkpt lat="41.199459" lon="-6.579805">
        <ele>657.58</ele>
        <time>2021-03-27T18:08:01Z</time>
      </trkpt>
      <trkpt lat="41.199468" lon="-6.579657">
        <ele>656.76</ele>
        <time>2021-03-27T18:08:04Z</time>
      </trkpt>
      <trkpt lat="41.199505" lon="-6.579473">
        <ele>656.1</ele>
        <time>2021-03-27T18:08:07Z</time>
      </trkpt>
      <trkpt lat="41.199582" lon="-6.579251">
        <ele>655.66</ele>
        <time>2021-03-27T18:08:10Z</time>
      </trkpt>
      <trkpt lat="41.201187" lon="-6.575507">
        <ele>643.26</ele>
        <time>2021-03-27T18:08:13Z</time>
      </trkpt>
      <trkpt lat="41.201222" lon="-6.575328">
        <ele>642.97</ele>
        <time>2021-03-27T18:08:16Z</time>
      </trkpt>
      <trkpt lat="41.201216" lon="-6.575014">
        <ele>640.62</ele>
        <time>2021-03-27T18:08:19Z</time>
      </trkpt>
      <trkpt lat="41.201193" lon="-6.574884">
        <ele>638.31</ele>
        <time>2021-03-27T18:08:21Z</time>
      </trkpt>
      <trkpt lat="41.201124" lon="-6.574693">
        <ele>635.09</ele>
        <time>2021-03-27T18:08:24Z</time>
      </trkpt>
      <trkpt lat="41.201014" lon="-6.574519">
        <ele>632.27</ele>
        <time>2021-03-27T18:08:27Z</time>
      </trkpt>
      <trkpt lat="41.20088" lon="-6.57439">
        <ele>631.42</ele>
        <time>2021-03-27T18:08:30Z</time>
      </trkpt>
      <trkpt lat="41.200165" lon="-6.573958">
        <ele>630.99</ele>
        <time>2021-03-27T18:08:33Z</time>
      </trkpt>
      <trkpt lat="41.199964" lon="-6.573772">
        <ele>631.56</ele>
        <time>2021-03-27T18:08:36Z</time>
      </trkpt>
      <trkpt lat="41.199661" lon="-6.573347">
        <ele>628.41</ele>
        <time>2021-03-27T18:08:39Z</time>
      </trkpt>
      <trkpt lat="41.199424" lon="-6.573092">
        <ele>624.53</ele>
        <time>2021-03-27T18:08:42Z</time>
      </trkpt>
      <trkpt lat="41.199286" lon="-6.573033">
        <ele>622.3</ele>
        <time>2021-03-27T18:08:45Z</time>
      </trkpt>
      <trkpt lat="41.199116" lon="-6.573004">
        <ele>620.88</ele>
        <time>2021-03-27T18:08:47Z</time>
      </trkpt>
      <trkpt lat="41.198551" lon="-6.57304">
        <ele>621.09</ele>
        <time>2021-03-27T18:08:50Z</time>
      </trkpt>
      <trkpt lat="41.198348" lon="-6.573114">
        <ele>619.38</ele>
        <time>2021-03-27T18:08:53Z</time>
      </trkpt>
      <trkpt lat="41.197998" lon="-6.573382">
        <ele>617.01</ele>
        <time>2021-03-27T18:08:56Z</time>
      </trkpt>
      <trkpt lat="41.19782" lon="-6.573445">
        <ele>616.9</ele>
        <time>2021-03-27T18:08:59Z</time>
      </trkpt>
      <trkpt lat="41.197652" lon="-6.573434">
        <ele>617.01</ele>
        <time>2021-03-27T18:09:02Z</time>
      </trkpt>
      <trkpt lat="41.197503" lon="-6.573387">
        <ele>617.18</ele>
        <time>2021-03-27T18:09:05Z</time>
      </trkpt>
      <trkpt lat="41.197375" lon="-6.573298">
        <ele>616.49</ele>
        <time>2021-03-27T18:09:08Z</time>
      </trkpt>
      <trkpt lat="41.197267" lon="-6.573187">
        <ele>614.9</ele>
        <time>2021-03-27T18:09:10Z</time>
      </trkpt>
      <trkpt lat="41.197005" lon="-6.572839">
        <ele>609.1</ele>
        <time>2021-03-27T18:09:13Z</time>
      </trkpt>
      <trkpt lat="41.196601" lon="-6.572514">
        <ele>606.21</ele>
        <time>2021-03-27T18:09:16Z</time>
      </trkpt>
      <trkpt lat="41.196478" lon="-6.57239">
        <ele>605.33</ele>
        <time>2021-03-27T18:09:18Z</time>
      </trkpt>
      <trkpt lat="41.196476" lon="-6.572194">
        <ele>604.11</ele>
        <time>2021-03-27T18:09:20Z</time>
      </trkpt>
      <trkpt lat="41.196506" lon="-6.572127">
        <ele>603.73</ele>
        <time>2021-03-27T18:09:23Z</time>
      </trkpt>
      <trkpt lat="41.196671" lon="-6.571734">
        <ele>601.49</ele>
        <time>2021-03-27T18:09:25Z</time>
      </trkpt>
      <trkpt lat="41.196749" lon="-6.571451">
        <ele>599.22</ele>
        <time>2021-03-27T18:09:27Z</time>
      </trkpt>
      <trkpt lat="41.196876" lon="-6.571085">
        <ele>595.72</ele>
        <time>2021-03-27T18:09:30Z</time>
      </trkpt>
      <trkpt lat="41.196995" lon="-6.570832">
        <ele>595.37</ele>
        <time>2021-03-27T18:09:32Z</time>
      </trkpt>
      <trkpt lat="41.197199" lon="-6.570486">
        <ele>596.1</ele>
        <time>2021-03-27T18:09:34Z</time>
      </trkpt>
      <trkpt lat="41.197422" lon="-6.570205">
        <ele>595.37</ele>
        <time>2021-03-27T18:09:37Z</time>
      </trkpt>
      <trkpt lat="41.197693" lon="-6.569934">
        <ele>593.36</ele>
        <time>2021-03-27T18:09:39Z</time>
      </trkpt>
      <trkpt lat="41.198028" lon="-6.569705">
        <ele>591.58</ele>
        <time>2021-03-27T18:09:42Z</time>
      </trkpt>
      <trkpt lat="41.198279" lon="-6.569645">
        <ele>590.62</ele>
        <time>2021-03-27T18:09:44Z</time>
      </trkpt>
      <trkpt lat="41.198637" lon="-6.569651">
        <ele>589.81</ele>
        <time>2021-03-27T18:09:46Z</time>
      </trkpt>
      <trkpt lat="41.198739" lon="-6.569628">
        <ele>588.88</ele>
        <time>2021-03-27T18:09:49Z</time>
      </trkpt>
      <trkpt lat="41.198821" lon="-6.569556">
        <ele>587.54</ele>
        <time>2021-03-27T18:09:51Z</time>
      </trkpt>
      <trkpt lat="41.198925" lon="-6.569358">
        <ele>586.35</ele>
        <time>2021-03-27T18:09:53Z</time>
      </trkpt>
      <trkpt lat="41.198939" lon="-6.569124">
        <ele>586.23</ele>
        <time>2021-03-27T18:09:56Z</time>
      </trkpt>
      <trkpt lat="41.198459" lon="-6.568093">
        <ele>575.88</ele>
        <time>2021-03-27T18:09:58Z</time>
      </trkpt>
      <trkpt lat="41.198246" lon="-6.56754">
        <ele>574.5</ele>
        <time>2021-03-27T18:10:00Z</time>
      </trkpt>
      <trkpt lat="41.198038" lon="-6.566893">
        <ele>569.56</ele>
        <time>2021-03-27T18:10:03Z</time>
      </trkpt>
      <trkpt lat="41.197966" lon="-6.566618">
        <ele>567.19</ele>
        <time>2021-03-27T18:10:05Z</time>
      </trkpt>
      <trkpt lat="41.197958" lon="-6.566377">
        <ele>564.49</ele>
        <time>2021-03-27T18:10:07Z</time>
      </trkpt>
      <trkpt lat="41.198004" lon="-6.566166">
        <ele>563.0</ele>
        <time>2021-03-27T18:10:10Z</time>
      </trkpt>
      <trkpt lat="41.198079" lon="-6.565992">
        <ele>562.36</ele>
        <time>2021-03-27T18:10:12Z</time>
      </trkpt>
      <trkpt lat="41.198207" lon="-6.565841">
        <ele>562.16</ele>
        <time>2021-03-27T18:10:14Z</time>
      </trkpt>
      <trkpt lat="41.198385" lon="-6.565755">
        <ele>561.95</ele>
        <time>2021-03-27T18:10:17Z</time>
      </trkpt>
      <trkpt lat="41.198526" lon="-6.56575">
        <ele>561.28</ele>
        <time>2021-03-27T18:10:19Z</time>
      </trkpt>
      <trkpt lat="41.198662" lon="-6.565778">
        <ele>560.74</ele>
        <time>2021-03-27T18:10:21Z</time>
      </trkpt>
      <trkpt lat="41.198942" lon="-6.565943">
        <ele>561.05</ele>
        <time>2021-03-27T18:10:24Z</time>
      </trkpt>
      <trkpt lat="41.199078" lon="-6.565951">
        <ele>560.91</ele>
        <time>2021-03-27T18:10:26Z</time>
      </trkpt>
      <trkpt lat="41.199222" lon="-6.565891">
        <ele>560.35</ele>
        <time>2021-03-27T18:10:28Z</time>
      </trkpt>
      <trkpt lat="41.199681" lon="-6.565443">
        <ele>556.66</ele>
        <time>2021-03-27T18:10:31Z</time>
      </trkpt>
      <trkpt lat="41.199807" lon="-6.565373">
        <ele>555.31</ele>
        <time>2021-03-27T18:10:33Z</time>
      </trkpt>
      <trkpt lat="41.199931" lon="-6.565373">
        <ele>554.27</ele>
        <time>2021-03-27T18:10:35Z</time>
      </trkpt>
      <trkpt lat="41.200054" lon="-6.565467">
        <ele>552.87</ele>
        <time>2021-03-27T18:10:38Z</time>
      </trkpt>
      <trkpt lat="41.200149" lon="-6.565596">
        <ele>550.93</ele>
        <time>2021-03-27T18:10:40Z</time>
      </trkpt>
      <trkpt lat="41.200265" lon="-6.565931">
        <ele>549.81</ele>
        <time>2021-03-27T18:10:42Z</time>
      </trkpt>
      <trkpt lat="41.200444" lon="-6.566215">
        <ele>545.94</ele>
        <time>2021-03-27T18:10:45Z</time>
      </trkpt>
      <trkpt lat="41.200561" lon="-6.566458">
        <ele>543.3</ele>
        <time>2021-03-27T18:10:47Z</time>
      </trkpt>
      <trkpt lat="41.20064" lon="-6.567116">
        <ele>543.6</ele>
        <time>2021-03-27T18:10:50Z</time>
      </trkpt>
      <trkpt lat="41.200678" lon="-6.567229">
        <ele>542.88</ele>
        <time>2021-03-27T18:10:52Z</time>
      </trkpt>
      <trkpt lat="41.200734" lon="-6.567331">
        <ele>542.65</ele>
        <time>2021-03-27T18:10:54Z</time>
      </trkpt>
      <trkpt lat="41.201009" lon="-6.567627">
        <ele>542.44</ele>
        <time>2021-03-27T18:10:57Z</time>
      </trkpt>
      <trkpt lat="41.201068" lon="-6.567643">
        <ele>541.51</ele>
        <time>2021-03-27T18:10:59Z</time>
      </trkpt>
      <trkpt lat="41.201155" lon="-6.567623">
        <ele>540.13</ele>
        <time>2021-03-27T18:11:01Z</time>
      </trkpt>
      <trkpt lat="41.201186" lon="-6.567595">
        <ele>539.53</ele>
        <time>2021-03-27T18:11:04Z</time>
      </trkpt>
      <trkpt lat="41.201494" lon="-6.566927">
        <ele>535.66</ele>
        <time>2021-03-27T18:11:06Z</time>
      </trkpt>
      <trkpt lat="41.201535" lon="-6.566785">
        <ele>537.56</ele>
        <time>2021-03-27T18:11:08Z</time>
      </trkpt>
      <trkpt lat="41.20153" lon="-6.566672">
        <ele>538.5</ele>
        <time>2021-03-27T18:11:11Z</time>
      </trkpt>
      <trkpt lat="41.201415" lon="-6.566146">
        <ele>541.47</ele>
        <time>2021-03-27T18:11:13Z</time>
      </trkpt>
      <trkpt lat="41.201187" lon="-6.56442">
        <ele>551.12</ele>
        <time>2021-03-27T18:11:15Z</time>
      </trkpt>
      <trkpt lat="41.201189" lon="-6.564322">
        <ele>551.59</ele>
        <time>2021-03-27T18:11:18Z</time>
      </trkpt>
      <trkpt lat="41.201206" lon="-6.564246">
        <ele>552.48</ele>
        <time>2021-03-27T18:11:20Z</time>
      </trkpt>
      <trkpt lat="41.201261" lon="-6.564207">
        <ele>554.28</ele>
        <time>2021-03-27T18:11:22Z</time>
      </trkpt>
      <trkpt lat="41.201312" lon="-6.564227">
        <ele>555.83</ele>
        <time>2021-03-27T18:11:25Z</time>
      </trkpt>
      <trkpt lat="41.201338" lon="-6.564292">
        <ele>556.73</ele>
        <time>2021-03-27T18:11:27Z</time>
      </trkpt>
      <trkpt lat="41.201345" lon="-6.564646">
        <ele>556.94</ele>
        <time>2021-03-27T18:11:29Z</time>
      </trkpt>
      <trkpt lat="41.201407" lon="-6.564801">
        <ele>558.47</ele>
        <time>2021-03-27T18:11:32Z</time>
      </trkpt>
      <trkpt lat="41.201892" lon="-6.56564">
        <ele>562.34</ele>
        <time>2021-03-27T18:11:34Z</time>
      </trkpt>
      <trkpt lat="41.202134" lon="-6.566146">
        <ele>562.73</ele>
        <time>2021-03-27T18:11:36Z</time>
      </trkpt>
      <trkpt lat="41.202401" lon="-6.566441">
        <ele>565.63</ele>
        <time>2021-03-27T18:11:39Z</time>
      </trkpt>
      <trkpt lat="41.202605" lon="-6.566584">
        <ele>566.36</ele>
        <time>2021-03-27T18:11:41Z</time>
      </trkpt>
      <trkpt lat="41.202701" lon="-6.566605">
        <ele>566.71</ele>
        <time>2021-03-27T18:11:43Z</time>
      </trkpt>
      <trkpt lat="41.202827" lon="-6.566562">
        <ele>567.73</ele>
        <time>2021-03-27T18:11:46Z</time>
      </trkpt>
      <trkpt lat="41.203022" lon="-6.566341">
        <ele>570.33</ele>
        <time>2021-03-27T18:11:48Z</time>
      </trkpt>
      <trkpt lat="41.203224" lon="-6.566231">
        <ele>570.07</ele>
        <time>2021-03-27T18:11:50Z</time>
      </trkpt>
      <trkpt lat="41.203768" lon="-6.565768">
        <ele>575.94</ele>
        <time>2021-03-27T18:11:53Z</time>
      </trkpt>
      <trkpt lat="41.204008" lon="-6.565722">
        <ele>573.11</ele>
        <time>2021-03-27T18:11:55Z</time>
      </trkpt>
      <trkpt lat="41.204149" lon="-6.565675">
        <ele>572.61</ele>
        <time>2021-03-27T18:11:58Z</time>
      </trkpt>
      <trkpt lat="41.204247" lon="-6.565619">
        <ele>571.1</ele>
        <time>2021-03-27T18:12:00Z</time>
      </trkpt>
      <trkpt lat="41.204363" lon="-6.5655">
        <ele>570.95</ele>
        <time>2021-03-27T18:12:02Z</time>
      </trkpt>
      <trkpt lat="41.204631" lon="-6.564973">
        <ele>578.23</ele>
        <time>2021-03-27T18:12:05Z</time>
      </trkpt>
      <trkpt lat="41.204699" lon="-6.564898">
        <ele>577.57</ele>
        <time>2021-03-27T18:12:07Z</time>
      </trkpt>
      <trkpt lat="41.204807" lon="-6.564839">
        <ele>577.18</ele>
        <time>2021-03-27T18:12:09Z</time>
      </trkpt>
      <trkpt lat="41.205942" lon="-6.564462">
        <ele>581.25</ele>
        <time>2021-03-27T18:12:12Z</time>
      </trkpt>
      <trkpt lat="41.206252" lon="-6.564484">
        <ele>586.07</ele>
        <time>2021-03-27T18:12:14Z</time>
      </trkpt>
      <trkpt lat="41.20656" lon="-6.564549">
        <ele>592.03</ele>
        <time>2021-03-27T18:12:16Z</time>
      </trkpt>
      <trkpt lat="41.207273" lon="-6.564818">
        <ele>593.51</ele>
        <time>2021-03-27T18:12:19Z</time>
      </trkpt>
      <trkpt lat="41.207473" lon="-6.56485">
        <ele>595.68</ele>
        <time>2021-03-27T18:12:21Z</time>
      </trkpt>
      <trkpt lat="41.207716" lon="-6.564853">
        <ele>595.89</ele>
        <time>2021-03-27T18:12:23Z</time>
      </trkpt>
      <trkpt lat="41.208034" lon="-6.564701">
        <ele>594.27</ele>
        <time>2021-03-27T18:12:26Z</time>
      </trkpt>
      <trkpt lat="41.208187" lon="-6.564679">
        <ele>595.58</ele>
        <time>2021-03-27T18:12:28Z</time>
      </trkpt>
      <trkpt lat="41.208551" lon="-6.564756">
        <ele>596.76</ele>
        <time>2021-03-27T18:12:30Z</time>
      </trkpt>
      <trkpt lat="41.208686" lon="-6.564745">
        <ele>597.76</ele>
        <time>2021-03-27T18:12:33Z</time>
      </trkpt>
      <trkpt lat="41.20891" lon="-6.564639">
        <ele>601.1</ele>
        <time>2021-03-27T18:12:35Z</time>
      </trkpt>
      <trkpt lat="41.209106" lon="-6.564455">
        <ele>605.74</ele>
        <time>2021-03-27T18:12:37Z</time>
      </trkpt>
      <trkpt lat="41.209646" lon="-6.563679">
        <ele>614.65</ele>
        <time>2021-03-27T18:12:40Z</time>
      </trkpt>
      <trkpt lat="41.210189" lon="-6.562748">
        <ele>616.63</ele>
        <time>2021-03-27T18:12:42Z</time>
      </trkpt>
      <trkpt lat="41.210285" lon="-6.562549">
        <ele>617.36</ele>
        <time>2021-03-27T18:12:44Z</time>
      </trkpt>
      <trkpt lat="41.210398" lon="-6.562212">
        <ele>618.92</ele>
        <time>2021-03-27T18:12:47Z</time>
      </trkpt>
      <trkpt lat="41.210425" lon="-6.56203">
        <ele>620.06</ele>
        <time>2021-03-27T18:12:49Z</time>
      </trkpt>
      <trkpt lat="41.210445" lon="-6.561454">
        <ele>626.24</ele>
        <time>2021-03-27T18:12:51Z</time>
      </trkpt>
      <trkpt lat="41.210519" lon="-6.561257">
        <ele>627.42</ele>
        <time>2021-03-27T18:12:54Z</time>
      </trkpt>
      <trkpt lat="41.210634" lon="-6.561077">
        <ele>628.57</ele>
        <time>2021-03-27T18:12:56Z</time>
      </trkpt>
      <trkpt lat="41.21096" lon="-6.560768">
        <ele>629.46</ele>
        <time>2021-03-27T18:12:59Z</time>
      </trkpt>
      <trkpt lat="41.21122" lon="-6.560812">
        <ele>625.27</ele>
        <time>2021-03-27T18:13:01Z</time>
      </trkpt>
      <trkpt lat="41.211338" lon="-6.560805">
        <ele>624.16</ele>
        <time>2021-03-27T18:13:03Z</time>
      </trkpt>
      <trkpt lat="41.211439" lon="-6.56073">
        <ele>625.11</ele>
        <time>2021-03-27T18:13:06Z</time>
      </trkpt>
      <trkpt lat="41.211526" lon="-6.560541">
        <ele>629.4</ele>
        <time>2021-03-27T18:13:08Z</time>
      </trkpt>
      <trkpt lat="41.211749" lon="-6.560206">
        <ele>635.98</ele>
        <time>2021-03-27T18:13:10Z</time>
      </trkpt>
      <trkpt lat="41.211921" lon="-6.559982">
        <ele>636.89</ele>
        <time>2021-03-27T18:13:13Z</time>
      </trkpt>
      <trkpt lat="41.212179" lon="-6.559412">
        <ele>641.59</ele>
        <time>2021-03-27T18:13:15Z</time>
      </trkpt>
      <trkpt lat="41.212245" lon="-6.55921">
        <ele>641.88</ele>
        <time>2021-03-27T18:13:17Z</time>
      </trkpt>
      <trkpt lat="41.212276" lon="-6.559056">
        <ele>642.33</ele>
        <time>2021-03-27T18:13:20Z</time>
      </trkpt>
      <trkpt lat="41.212232" lon="-6.558237">
        <ele>649.43</ele>
        <time>2021-03-27T18:13:22Z</time>
      </trkpt>
      <trkpt lat="41.212258" lon="-6.558006">
        <ele>650.79</ele>
        <time>2021-03-27T18:13:24Z</time>
      </trkpt>
      <trkpt lat="41.212353" lon="-6.557849">
        <ele>650.76</ele>
        <time>2021-03-27T18:13:27Z</time>
      </trkpt>
      <trkpt lat="41.213039" lon="-6.55719">
        <ele>648.77</ele>
        <time>2021-03-27T18:13:29Z</time>
      </trkpt>
      <trkpt lat="41.213128" lon="-6.556996">
        <ele>649.73</ele>
        <time>2021-03-27T18:13:31Z</time>
      </trkpt>
      <trkpt lat="41.213159" lon="-6.556799">
        <ele>652.39</ele>
        <time>2021-03-27T18:13:34Z</time>
      </trkpt>
      <trkpt lat="41.213158" lon="-6.556423">
        <ele>658.61</ele>
        <time>2021-03-27T18:13:36Z</time>
      </trkpt>
      <trkpt lat="41.213015" lon="-6.554744">
        <ele>667.06</ele>
        <time>2021-03-27T18:13:38Z</time>
      </trkpt>
      <trkpt lat="41.212936" lon="-6.55431">
        <ele>669.83</ele>
        <time>2021-03-27T18:13:41Z</time>
      </trkpt>
      <trkpt lat="41.21283" lon="-6.553959">
        <ele>673.12</ele>
        <time>2021-03-27T18:13:43Z</time>
      </trkpt>
      <trkpt lat="41.212704" lon="-6.553621">
        <ele>676.2</ele>
        <time>2021-03-27T18:13:45Z</time>
      </trkpt>
      <trkpt lat="41.212381" lon="-6.552911">
        <ele>681.61</ele>
        <time>2021-03-27T18:13:48Z</time>
      </trkpt>
      <trkpt lat="41.212281" lon="-6.552613">
        <ele>684.33</ele>
        <time>2021-03-27T18:13:50Z</time>
      </trkpt>
      <trkpt lat="41.212245" lon="-6.552397">
        <ele>686.29</ele>
        <time>2021-03-27T18:13:52Z</time>
      </trkpt>
      <trkpt lat="41.212256" lon="-6.552231">
        <ele>686.85</ele>
        <time>2021-03-27T18:13:55Z</time>
      </trkpt>
      <trkpt lat="41.212314" lon="-6.551961">
        <ele>687.61</ele>
        <time>2021-03-27T18:13:57Z</time>
      </trkpt>
      <trkpt lat="41.212404" lon="-6.551701">
        <ele>689.09</ele>
        <time>2021-03-27T18:13:59Z</time>
      </trkpt>
      <trkpt lat="41.212527" lon="-6.551496">
        <ele>690.17</ele>
        <time>2021-03-27T18:14:02Z</time>
      </trkpt>
      <trkpt lat="41.212756" lon="-6.551255">
        <ele>689.63</ele>
        <time>2021-03-27T18:14:04Z</time>
      </trkpt>
      <trkpt lat="41.214065" lon="-6.550048">
        <ele>698.13</ele>
        <time>2021-03-27T18:14:07Z</time>
      </trkpt>
      <trkpt lat="41.214277" lon="-6.54979">
        <ele>698.76</ele>
        <time>2021-03-27T18:14:09Z</time>
      </trkpt>
      <trkpt lat="41.214386" lon="-6.549612">
        <ele>700.1</ele>
        <time>2021-03-27T18:14:11Z</time>
      </trkpt>
      <trkpt lat="41.214535" lon="-6.549288">
        <ele>701.53</ele>
        <time>2021-03-27T18:14:14Z</time>
      </trkpt>
      <trkpt lat="41.21461" lon="-6.549023">
        <ele>701.61</ele>
        <time>2021-03-27T18:14:16Z</time>
      </trkpt>
      <trkpt lat="41.214666" lon="-6.548677">
        <ele>702.62</ele>
        <time>2021-03-27T18:14:18Z</time>
      </trkpt>
      <trkpt lat="41.214689" lon="-6.548407">
        <ele>703.17</ele>
        <time>2021-03-27T18:14:21Z</time>
      </trkpt>
      <trkpt lat="41.214612" lon="-6.547362">
        <ele>706.09</ele>
        <time>2021-03-27T18:14:23Z</time>
      </trkpt>
      <trkpt lat="41.214601" lon="-6.546659">
        <ele>708.89</ele>
        <time>2021-03-27T18:14:25Z</time>
      </trkpt>
      <trkpt lat="41.214633" lon="-6.546394">
        <ele>709.31</ele>
        <time>2021-03-27T18:14:28Z</time>
      </trkpt>
      <trkpt lat="41.214707" lon="-6.545997">
        <ele>711.41</ele>
        <time>2021-03-27T18:14:30Z</time>
      </trkpt>
      <trkpt lat="41.214818" lon="-6.545644">
        <ele>712.23</ele>
        <time>2021-03-27T18:14:32Z</time>
      </trkpt>
      <trkpt lat="41.214978" lon="-6.545282">
        <ele>713.08</ele>
        <time>2021-03-27T18:14:35Z</time>
      </trkpt>
      <trkpt lat="41.216074" lon="-6.543075">
        <ele>721.67</ele>
        <time>2021-03-27T18:14:37Z</time>
      </trkpt>
      <trkpt lat="41.216281" lon="-6.542575">
        <ele>721.38</ele>
        <time>2021-03-27T18:14:39Z</time>
      </trkpt>
      <trkpt lat="41.216404" lon="-6.542118">
        <ele>718.93</ele>
        <time>2021-03-27T18:14:42Z</time>
      </trkpt>
      <trkpt lat="41.216457" lon="-6.541411">
        <ele>717.36</ele>
        <time>2021-03-27T18:14:44Z</time>
      </trkpt>
      <trkpt lat="41.216489" lon="-6.541196">
        <ele>715.53</ele>
        <time>2021-03-27T18:14:46Z</time>
      </trkpt>
      <trkpt lat="41.216546" lon="-6.540963">
        <ele>714.23</ele>
        <time>2021-03-27T18:14:49Z</time>
      </trkpt>
      <trkpt lat="41.216626" lon="-6.540767">
        <ele>712.97</ele>
        <time>2021-03-27T18:14:51Z</time>
      </trkpt>
      <trkpt lat="41.216751" lon="-6.540571">
        <ele>711.74</ele>
        <time>2021-03-27T18:14:53Z</time>
      </trkpt>
      <trkpt lat="41.217273" lon="-6.540052">
        <ele>707.86</ele>
        <time>2021-03-27T18:14:56Z</time>
      </trkpt>
      <trkpt lat="41.217424" lon="-6.539866">
        <ele>707.05</ele>
        <time>2021-03-27T18:14:58Z</time>
      </trkpt>
      <trkpt lat="41.217527" lon="-6.539694">
        <ele>706.89</ele>
        <time>2021-03-27T18:15:00Z</time>
      </trkpt>
      <trkpt lat="41.217596" lon="-6.539532">
        <ele>706.41</ele>
        <time>2021-03-27T18:15:03Z</time>
      </trkpt>
      <trkpt lat="41.217664" lon="-6.539278">
        <ele>704.87</ele>
        <time>2021-03-27T18:15:05Z</time>
      </trkpt>
      <trkpt lat="41.217786" lon="-6.538452">
        <ele>699.96</ele>
        <time>2021-03-27T18:15:07Z</time>
      </trkpt>
      <trkpt lat="41.218107" lon="-6.536035">
        <ele>687.69</ele>
        <time>2021-03-27T18:15:10Z</time>
      </trkpt>
      <trkpt lat="41.218186" lon="-6.535665">
        <ele>686.05</ele>
        <time>2021-03-27T18:15:12Z</time>
      </trkpt>
      <trkpt lat="41.218302" lon="-6.535344">
        <ele>684.45</ele>
        <time>2021-03-27T18:15:15Z</time>
      </trkpt>
      <trkpt lat="41.218441" lon="-6.535059">
        <ele>682.81</ele>
        <time>2021-03-27T18:15:17Z</time>
      </trkpt>
      <trkpt lat="41.219057" lon="-6.534035">
        <ele>678.94</ele>
        <time>2021-03-27T18:15:19Z</time>
      </trkpt>
      <trkpt lat="41.220064" lon="-6.531947">
        <ele>669.01</ele>
        <time>2021-03-27T18:15:22Z</time>
      </trkpt>
      <trkpt lat="41.220151" lon="-6.531808">
        <ele>669.53</ele>
        <time>2021-03-27T18:15:24Z</time>
      </trkpt>
      <trkpt lat="41.220348" lon="-6.53157">
        <ele>671.61</ele>
        <time>2021-03-27T18:15:26Z</time>
      </trkpt>
      <trkpt lat="41.220709" lon="-6.531331">
        <ele>671.11</ele>
        <time>2021-03-27T18:15:29Z</time>
      </trkpt>
      <trkpt lat="41.22087" lon="-6.531267">
        <ele>670.25</ele>
        <time>2021-03-27T18:15:31Z</time>
      </trkpt>
      <trkpt lat="41.22134" lon="-6.531156">
        <ele>667.35</ele>
        <time>2021-03-27T18:15:33Z</time>
      </trkpt>
      <trkpt lat="41.221562" lon="-6.531073">
        <ele>665.84</ele>
        <time>2021-03-27T18:15:36Z</time>
      </trkpt>
      <trkpt lat="41.221787" lon="-6.530953">
        <ele>665.57</ele>
        <time>2021-03-27T18:15:38Z</time>
      </trkpt>
      <trkpt lat="41.222018" lon="-6.530766">
        <ele>666.36</ele>
        <time>2021-03-27T18:15:40Z</time>
      </trkpt>
      <trkpt lat="41.222222" lon="-6.530538">
        <ele>666.0</ele>
        <time>2021-03-27T18:15:43Z</time>
      </trkpt>
      <trkpt lat="41.222293" lon="-6.530432">
        <ele>665.51</ele>
        <time>2021-03-27T18:15:45Z</time>
      </trkpt>
      <trkpt lat="41.223226" lon="-6.528716">
        <ele>658.16</ele>
        <time>2021-03-27T18:15:47Z</time>
      </trkpt>
      <trkpt lat="41.22341" lon="-6.528491">
        <ele>657.45</ele>
        <time>2021-03-27T18:15:50Z</time>
      </trkpt>
      <trkpt lat="41.223644" lon="-6.528293">
        <ele>656.12</ele>
        <time>2021-03-27T18:15:52Z</time>
      </trkpt>
      <trkpt lat="41.223836" lon="-6.528178">
        <ele>656.16</ele>
        <time>2021-03-27T18:15:54Z</time>
      </trkpt>
      <trkpt lat="41.225374" lon="-6.527548">
        <ele>654.47</ele>
        <time>2021-03-27T18:15:57Z</time>
      </trkpt>
      <trkpt lat="41.22701" lon="-6.52679">
        <ele>663.1</ele>
        <time>2021-03-27T18:15:59Z</time>
      </trkpt>
      <trkpt lat="41.228101" lon="-6.526238">
        <ele>655.83</ele>
        <time>2021-03-27T18:16:01Z</time>
      </trkpt>
      <trkpt lat="41.228257" lon="-6.526141">
        <ele>655.41</ele>
        <time>2021-03-27T18:16:04Z</time>
      </trkpt>
      <trkpt lat="41.228523" lon="-6.525879">
        <ele>657.62</ele>
        <time>2021-03-27T18:16:06Z</time>
      </trkpt>
      <trkpt lat="41.228641" lon="-6.52573">
        <ele>658.59</ele>
        <time>2021-03-27T18:16:08Z</time>
      </trkpt>
      <trkpt lat="41.229011" lon="-6.525065">
        <ele>660.87</ele>
        <time>2021-03-27T18:16:11Z</time>
      </trkpt>
      <trkpt lat="41.229153" lon="-6.524836">
        <ele>663.32</ele>
        <time>2021-03-27T18:16:13Z</time>
      </trkpt>
      <trkpt lat="41.229296" lon="-6.524698">
        <ele>662.97</ele>
        <time>2021-03-27T18:16:15Z</time>
      </trkpt>
      <trkpt lat="41.231245" lon="-6.523557">
        <ele>659.29</ele>
        <time>2021-03-27T18:16:18Z</time>
      </trkpt>
      <trkpt lat="41.23172" lon="-6.523238">
        <ele>661.28</ele>
        <time>2021-03-27T18:16:20Z</time>
      </trkpt>
      <trkpt lat="41.232856" lon="-6.522379">
        <ele>665.06</ele>
        <time>2021-03-27T18:16:23Z</time>
      </trkpt>
      <trkpt lat="41.234053" lon="-6.521277">
        <ele>667.64</ele>
        <time>2021-03-27T18:16:25Z</time>
      </trkpt>
      <trkpt lat="41.23631" lon="-6.518968">
        <ele>682.14</ele>
        <time>2021-03-27T18:16:27Z</time>
      </trkpt>
      <trkpt lat="41.236722" lon="-6.518507">
        <ele>687.07</ele>
        <time>2021-03-27T18:16:30Z</time>
      </trkpt>
      <trkpt lat="41.23691" lon="-6.518261">
        <ele>689.1</ele>
        <time>2021-03-27T18:16:32Z</time>
      </trkpt>
      <trkpt lat="41.237313" lon="-6.517544">
        <ele>687.4</ele>
        <time>2021-03-27T18:16:34Z</time>
      </trkpt>
      <trkpt lat="41.237261" lon="-6.51742">
        <ele>687.76</ele>
        <time>2021-03-27T18:16:38Z</time>
      </trkpt>
      <trkpt lat="41.237251" lon="-6.517314">
        <ele>687.86</ele>
        <time>2021-03-27T18:16:42Z</time>
      </trkpt>
      <trkpt lat="41.237294" lon="-6.516873">
        <ele>688.71</ele>
        <time>2021-03-27T18:16:46Z</time>
      </trkpt>
      <trkpt lat="41.237283" lon="-6.516753">
        <ele>688.97</ele>
        <time>2021-03-27T18:16:49Z</time>
      </trkpt>
      <trkpt lat="41.237253" lon="-6.516634">
        <ele>689.23</ele>
        <time>2021-03-27T18:16:53Z</time>
      </trkpt>
      <trkpt lat="41.237206" lon="-6.51655">
        <ele>689.35</ele>
        <time>2021-03-27T18:16:57Z</time>
      </trkpt>
      <trkpt lat="41.23715" lon="-6.516489">
        <ele>689.45</ele>
        <time>2021-03-27T18:17:00Z</time>
      </trkpt>
      <trkpt lat="41.237016" lon="-6.516411">
        <ele>689.8</ele>
        <time>2021-03-27T18:17:04Z</time>
      </trkpt>
      <trkpt lat="41.23581" lon="-6.516023">
        <ele>696.8</ele>
        <time>2021-03-27T18:17:08Z</time>
      </trkpt>
      <trkpt lat="41.23567" lon="-6.515946">
        <ele>698.36</ele>
        <time>2021-03-27T18:17:11Z</time>
      </trkpt>
      <trkpt lat="41.235573" lon="-6.515841">
        <ele>699.82</ele>
        <time>2021-03-27T18:17:15Z</time>
      </trkpt>
      <trkpt lat="41.235469" lon="-6.515679">
        <ele>700.45</ele>
        <time>2021-03-27T18:17:19Z</time>
      </trkpt>
      <trkpt lat="41.235393" lon="-6.515509">
        <ele>700.46</ele>
        <time>2021-03-27T18:17:23Z</time>
      </trkpt>
      <trkpt lat="41.234722" lon="-6.513892">
        <ele>693.98</ele>
        <time>2021-03-27T18:17:26Z</time>
      </trkpt>
      <trkpt lat="41.234563" lon="-6.51355">
        <ele>698.66</ele>
        <time>2021-03-27T18:17:30Z</time>
      </trkpt>
      <trkpt lat="41.234352" lon="-6.513254">
        <ele>701.19</ele>
        <time>2021-03-27T18:17:34Z</time>
      </trkpt>
      <trkpt lat="41.233517" lon="-6.512235">
        <ele>706.67</ele>
        <time>2021-03-27T18:17:37Z</time>
      </trkpt>
      <trkpt lat="41.233379" lon="-6.511978">
        <ele>707.82</ele>
        <time>2021-03-27T18:17:41Z</time>
      </trkpt>
      <trkpt lat="41.233288" lon="-6.511717">
        <ele>709.67</ele>
        <time>2021-03-27T18:17:45Z</time>
      </trkpt>
      <trkpt lat="41.233104" lon="-6.511039">
        <ele>712.91</ele>
        <time>2021-03-27T18:17:48Z</time>
      </trkpt>
      <trkpt lat="41.233011" lon="-6.510881">
        <ele>712.97</ele>
        <time>2021-03-27T18:17:52Z</time>
      </trkpt>
      <trkpt lat="41.23222" lon="-6.51009">
        <ele>718.68</ele>
        <time>2021-03-27T18:17:56Z</time>
      </trkpt>
      <trkpt lat="41.232028" lon="-6.509872">
        <ele>720.62</ele>
        <time>2021-03-27T18:18:00Z</time>
      </trkpt>
      <trkpt lat="41.231036" lon="-6.508584">
        <ele>731.02</ele>
        <time>2021-03-27T18:18:03Z</time>
      </trkpt>
      <trkpt lat="41.230472" lon="-6.507739">
        <ele>735.49</ele>
        <time>2021-03-27T18:18:07Z</time>
      </trkpt>
      <trkpt lat="41.230279" lon="-6.50749">
        <ele>734.09</ele>
        <time>2021-03-27T18:18:11Z</time>
      </trkpt>
      <trkpt lat="41.229167" lon="-6.506278">
        <ele>743.4</ele>
        <time>2021-03-27T18:18:14Z</time>
      </trkpt>
      <trkpt lat="41.229104" lon="-6.506155">
        <ele>743.84</ele>
        <time>2021-03-27T18:18:18Z</time>
      </trkpt>
      <trkpt lat="41.229082" lon="-6.506019">
        <ele>744.56</ele>
        <time>2021-03-27T18:18:22Z</time>
      </trkpt>
      <trkpt lat="41.229157" lon="-6.50535">
        <ele>747.02</ele>
        <time>2021-03-27T18:18:26Z</time>
      </trkpt>
      <trkpt lat="41.229105" lon="-6.504809">
        <ele>748.47</ele>
        <time>2021-03-27T18:18:29Z</time>
      </trkpt>
      <trkpt lat="41.229067" lon="-6.50469">
        <ele>748.83</ele>
        <time>2021-03-27T18:18:33Z</time>
      </trkpt>
      <trkpt lat="41.228171" lon="-6.503604">
        <ele>752.44</ele>
        <time>2021-03-27T18:18:37Z</time>
      </trkpt>
      <trkpt lat="41.22795" lon="-6.503258">
        <ele>752.99</ele>
        <time>2021-03-27T18:18:40Z</time>
      </trkpt>
      <trkpt lat="41.227811" lon="-6.503075">
        <ele>753.87</ele>
        <time>2021-03-27T18:18:44Z</time>
      </trkpt>
      <trkpt lat="41.227147" lon="-6.502518">
        <ele>756.93</ele>
        <time>2021-03-27T18:18:48Z</time>
      </trkpt>
      <trkpt lat="41.227015" lon="-6.50237">
        <ele>757.59</ele>
        <time>2021-03-27T18:18:51Z</time>
      </trkpt>
      <trkpt lat="41.226682" lon="-6.501919">
        <ele>760.12</ele>
        <time>2021-03-27T18:18:55Z</time>
      </trkpt>
      <trkpt lat="41.226443" lon="-6.501562">
        <ele>762.45</ele>
        <time>2021-03-27T18:18:59Z</time>
      </trkpt>
      <trkpt lat="41.226327" lon="-6.501235">
        <ele>763.43</ele>
        <time>2021-03-27T18:19:03Z</time>
      </trkpt>
      <trkpt lat="41.225995" lon="-6.498726">
        <ele>770.58</ele>
        <time>2021-03-27T18:19:06Z</time>
      </trkpt>
      <trkpt lat="41.225988" lon="-6.498456">
        <ele>770.56</ele>
        <time>2021-03-27T18:19:10Z</time>
      </trkpt>
      <trkpt lat="41.226052" lon="-6.497469">
        <ele>768.02</ele>
        <time>2021-03-27T18:19:14Z</time>
      </trkpt>
      <trkpt lat="41.226081" lon="-6.497278">
        <ele>768.09</ele>
        <time>2021-03-27T18:19:17Z</time>
      </trkpt>
      <trkpt lat="41.226139" lon="-6.497101">
        <ele>767.42</ele>
        <time>2021-03-27T18:19:21Z</time>
      </trkpt>
      <trkpt lat="41.226728" lon="-6.496161">
        <ele>762.54</ele>
        <time>2021-03-27T18:19:25Z</time>
      </trkpt>
      <trkpt lat="41.226802" lon="-6.495896">
        <ele>762.11</ele>
        <time>2021-03-27T18:19:28Z</time>
      </trkpt>
      <trkpt lat="41.226805" lon="-6.495758">
        <ele>762.0</ele>
        <time>2021-03-27T18:19:32Z</time>
      </trkpt>
      <trkpt lat="41.22662" lon="-6.494059">
        <ele>758.0</ele>
        <time>2021-03-27T18:19:36Z</time>
      </trkpt>
      <trkpt lat="41.226645" lon="-6.493804">
        <ele>757.72</ele>
        <time>2021-03-27T18:19:40Z</time>
      </trkpt>
      <trkpt lat="41.226784" lon="-6.493432">
        <ele>756.88</ele>
        <time>2021-03-27T18:19:43Z</time>
      </trkpt>
      <trkpt lat="41.226992" lon="-6.49297">
        <ele>753.81</ele>
        <time>2021-03-27T18:19:47Z</time>
      </trkpt>
      <trkpt lat="41.227314" lon="-6.49245">
        <ele>753.78</ele>
        <time>2021-03-27T18:19:51Z</time>
      </trkpt>
      <trkpt lat="41.227341" lon="-6.492311">
        <ele>754.24</ele>
        <time>2021-03-27T18:19:54Z</time>
      </trkpt>
      <trkpt lat="41.22733" lon="-6.492217">
        <ele>754.39</ele>
        <time>2021-03-27T18:19:58Z</time>
      </trkpt>
      <trkpt lat="41.227256" lon="-6.492118">
        <ele>754.17</ele>
        <time>2021-03-27T18:20:02Z</time>
      </trkpt>
      <trkpt lat="41.227086" lon="-6.492031">
        <ele>752.03</ele>
        <time>2021-03-27T18:20:05Z</time>
      </trkpt>
      <trkpt lat="41.226955" lon="-6.491928">
        <ele>750.14</ele>
        <time>2021-03-27T18:20:09Z</time>
      </trkpt>
      <trkpt lat="41.226888" lon="-6.491822">
        <ele>749.51</ele>
        <time>2021-03-27T18:20:13Z</time>
      </trkpt>
      <trkpt lat="41.226786" lon="-6.491507">
        <ele>748.04</ele>
        <time>2021-03-27T18:20:17Z</time>
      </trkpt>
      <trkpt lat="41.226717" lon="-6.491442">
        <ele>747.4</ele>
        <time>2021-03-27T18:20:20Z</time>
      </trkpt>
      <trkpt lat="41.226474" lon="-6.49135">
        <ele>744.78</ele>
        <time>2021-03-27T18:20:24Z</time>
      </trkpt>
      <trkpt lat="41.226378" lon="-6.49125">
        <ele>743.48</ele>
        <time>2021-03-27T18:20:28Z</time>
      </trkpt>
      <trkpt lat="41.226117" lon="-6.490794">
        <ele>739.88</ele>
        <time>2021-03-27T18:20:31Z</time>
      </trkpt>
      <trkpt lat="41.225979" lon="-6.490508">
        <ele>738.66</ele>
        <time>2021-03-27T18:20:35Z</time>
      </trkpt>
      <trkpt lat="41.22581" lon="-6.490099">
        <ele>734.99</ele>
        <time>2021-03-27T18:20:39Z</time>
      </trkpt>
      <trkpt lat="41.225661" lon="-6.489622">
        <ele>732.98</ele>
        <time>2021-03-27T18:20:43Z</time>
      </trkpt>
      <trkpt lat="41.225411" lon="-6.489162">
        <ele>734.52</ele>
        <time>2021-03-27T18:20:46Z</time>
      </trkpt>
      <trkpt lat="41.225374" lon="-6.488954">
        <ele>734.65</ele>
        <time>2021-03-27T18:20:50Z</time>
      </trkpt>
      <trkpt lat="41.225388" lon="-6.488594">
        <ele>733.52</ele>
        <time>2021-03-27T18:20:54Z</time>
      </trkpt>
      <trkpt lat="41.225607" lon="-6.487009">
        <ele>728.72</ele>
        <time>2021-03-27T18:20:57Z</time>
      </trkpt>
      <trkpt lat="41.225815" lon="-6.486079">
        <ele>725.13</ele>
        <time>2021-03-27T18:21:01Z</time>
      </trkpt>
      <trkpt lat="41.225873" lon="-6.48554">
        <ele>723.42</ele>
        <time>2021-03-27T18:21:05Z</time>
      </trkpt>
      <trkpt lat="41.225919" lon="-6.484942">
        <ele>718.58</ele>
        <time>2021-03-27T18:21:08Z</time>
      </trkpt>
      <trkpt lat="41.225885" lon="-6.484765">
        <ele>717.31</ele>
        <time>2021-03-27T18:21:12Z</time>
      </trkpt>
      <trkpt lat="41.225771" lon="-6.484568">
        <ele>716.77</ele>
        <time>2021-03-27T18:21:16Z</time>
      </trkpt>
      <trkpt lat="41.225615" lon="-6.484382">
        <ele>716.39</ele>
        <time>2021-03-27T18:21:20Z</time>
      </trkpt>
      <trkpt lat="41.225522" lon="-6.484207">
        <ele>715.65</ele>
        <time>2021-03-27T18:21:23Z</time>
      </trkpt>
      <trkpt lat="41.225455" lon="-6.484012">
        <ele>714.77</ele>
        <time>2021-03-27T18:21:27Z</time>
      </trkpt>
      <trkpt lat="41.225407" lon="-6.483802">
        <ele>713.76</ele>
        <time>2021-03-27T18:21:31Z</time>
      </trkpt>
      <trkpt lat="41.22538" lon="-6.483592">
        <ele>713.19</ele>
        <time>2021-03-27T18:21:34Z</time>
      </trkpt>
      <trkpt lat="41.225394" lon="-6.482623">
        <ele>707.89</ele>
        <time>2021-03-27T18:21:38Z</time>
      </trkpt>
      <trkpt lat="41.225372" lon="-6.482404">
        <ele>706.31</ele>
        <time>2021-03-27T18:21:42Z</time>
      </trkpt>
      <trkpt lat="41.225313" lon="-6.482306">
        <ele>705.61</ele>
        <time>2021-03-27T18:21:45Z</time>
      </trkpt>
      <trkpt lat="41.225201" lon="-6.482241">
        <ele>705.14</ele>
        <time>2021-03-27T18:21:49Z</time>
      </trkpt>
      <trkpt lat="41.225085" lon="-6.482211">
        <ele>704.93</ele>
        <time>2021-03-27T18:21:53Z</time>
      </trkpt>
      <trkpt lat="41.225002" lon="-6.482153">
        <ele>704.51</ele>
        <time>2021-03-27T18:21:57Z</time>
      </trkpt>
      <trkpt lat="41.224941" lon="-6.482075">
        <ele>703.74</ele>
        <time>2021-03-27T18:22:00Z</time>
      </trkpt>
      <trkpt lat="41.224902" lon="-6.481918">
        <ele>702.84</ele>
        <time>2021-03-27T18:22:04Z</time>
      </trkpt>
      <trkpt lat="41.2249" lon="-6.481547">
        <ele>700.5</ele>
        <time>2021-03-27T18:22:08Z</time>
      </trkpt>
      <trkpt lat="41.224766" lon="-6.481123">
        <ele>698.88</ele>
        <time>2021-03-27T18:22:11Z</time>
      </trkpt>
      <trkpt lat="41.224713" lon="-6.481018">
        <ele>699.37</ele>
        <time>2021-03-27T18:22:15Z</time>
      </trkpt>
      <trkpt lat="41.224603" lon="-6.480901">
        <ele>700.18</ele>
        <time>2021-03-27T18:22:19Z</time>
      </trkpt>
      <trkpt lat="41.224419" lon="-6.480841">
        <ele>700.88</ele>
        <time>2021-03-27T18:22:23Z</time>
      </trkpt>
      <trkpt lat="41.223534" lon="-6.480894">
        <ele>700.78</ele>
        <time>2021-03-27T18:22:26Z</time>
      </trkpt>
      <trkpt lat="41.22302" lon="-6.480863">
        <ele>700.77</ele>
        <time>2021-03-27T18:22:30Z</time>
      </trkpt>
      <trkpt lat="41.222757" lon="-6.480752">
        <ele>700.66</ele>
        <time>2021-03-27T18:22:34Z</time>
      </trkpt>
      <trkpt lat="41.222653" lon="-6.480568">
        <ele>702.36</ele>
        <time>2021-03-27T18:22:37Z</time>
      </trkpt>
      <trkpt lat="41.222577" lon="-6.480251">
        <ele>703.85</ele>
        <time>2021-03-27T18:22:41Z</time>
      </trkpt>
      <trkpt lat="41.222298" lon="-6.478786">
        <ele>713.1</ele>
        <time>2021-03-27T18:22:45Z</time>
      </trkpt>
      <trkpt lat="41.222298" lon="-6.47862">
        <ele>715.33</ele>
        <time>2021-03-27T18:22:48Z</time>
      </trkpt>
      <trkpt lat="41.222321" lon="-6.478369">
        <ele>718.46</ele>
        <time>2021-03-27T18:22:52Z</time>
      </trkpt>
      <trkpt lat="41.22231" lon="-6.478083">
        <ele>720.24</ele>
        <time>2021-03-27T18:22:56Z</time>
      </trkpt>
      <trkpt lat="41.22225" lon="-6.477884">
        <ele>720.24</ele>
        <time>2021-03-27T18:23:00Z</time>
      </trkpt>
      <trkpt lat="41.221958" lon="-6.477266">
        <ele>722.58</ele>
        <time>2021-03-27T18:23:03Z</time>
      </trkpt>
      <trkpt lat="41.221816" lon="-6.477024">
        <ele>725.87</ele>
        <time>2021-03-27T18:23:07Z</time>
      </trkpt>
      <trkpt lat="41.22076" lon="-6.476168">
        <ele>732.8</ele>
        <time>2021-03-27T18:23:11Z</time>
      </trkpt>
      <trkpt lat="41.220107" lon="-6.475511">
        <ele>735.39</ele>
        <time>2021-03-27T18:23:14Z</time>
      </trkpt>
      <trkpt lat="41.220009" lon="-6.475452">
        <ele>736.3</ele>
        <time>2021-03-27T18:23:18Z</time>
      </trkpt>
      <trkpt lat="41.219832" lon="-6.475396">
        <ele>737.52</ele>
        <time>2021-03-27T18:23:22Z</time>
      </trkpt>
      <trkpt lat="41.219562" lon="-6.47535">
        <ele>737.9</ele>
        <time>2021-03-27T18:23:25Z</time>
      </trkpt>
      <trkpt lat="41.219429" lon="-6.475294">
        <ele>737.82</ele>
        <time>2021-03-27T18:23:29Z</time>
      </trkpt>
      <trkpt lat="41.21846" lon="-6.474417">
        <ele>743.1</ele>
        <time>2021-03-27T18:23:33Z</time>
      </trkpt>
      <trkpt lat="41.218347" lon="-6.474275">
        <ele>743.61</ele>
        <time>2021-03-27T18:23:37Z</time>
      </trkpt>
      <trkpt lat="41.217622" lon="-6.472743">
        <ele>755.68</ele>
        <time>2021-03-27T18:23:40Z</time>
      </trkpt>
      <trkpt lat="41.217465" lon="-6.472482">
        <ele>756.82</ele>
        <time>2021-03-27T18:23:44Z</time>
      </trkpt>
      <trkpt lat="41.215929" lon="-6.471156">
        <ele>760.73</ele>
        <time>2021-03-27T18:23:48Z</time>
      </trkpt>
      <trkpt lat="41.215103" lon="-6.470698">
        <ele>759.74</ele>
        <time>2021-03-27T18:23:51Z</time>
      </trkpt>
      <trkpt lat="41.214854" lon="-6.47053">
        <ele>756.9</ele>
        <time>2021-03-27T18:23:55Z</time>
      </trkpt>
      <trkpt lat="41.214519" lon="-6.470162">
        <ele>754.84</ele>
        <time>2021-03-27T18:23:59Z</time>
      </trkpt>
      <trkpt lat="41.214207" lon="-6.469767">
        <ele>754.86</ele>
        <time>2021-03-27T18:24:02Z</time>
      </trkpt>
      <trkpt lat="41.214021" lon="-6.469481">
        <ele>754.41</ele>
        <time>2021-03-27T18:24:06Z</time>
      </trkpt>
      <trkpt lat="41.212918" lon="-6.467605">
        <ele>752.13</ele>
        <time>2021-03-27T18:24:10Z</time>
      </trkpt>
      <trkpt lat="41.212815" lon="-6.467256">
        <ele>752.9</ele>
        <time>2021-03-27T18:24:14Z</time>
      </trkpt>
      <trkpt lat="41.212738" lon="-6.466689">
        <ele>754.35</ele>
        <time>2021-03-27T18:24:17Z</time>
      </trkpt>
      <trkpt lat="41.212683" lon="-6.466427">
        <ele>754.27</ele>
        <time>2021-03-27T18:24:21Z</time>
      </trkpt>
      <trkpt lat="41.211846" lon="-6.46408">
        <ele>757.96</ele>
        <time>2021-03-27T18:24:25Z</time>
      </trkpt>
      <trkpt lat="41.211733" lon="-6.463734">
        <ele>758.93</ele>
        <time>2021-03-27T18:24:28Z</time>
      </trkpt>
      <trkpt lat="41.211647" lon="-6.463366">
        <ele>757.98</ele>
        <time>2021-03-27T18:24:32Z</time>
      </trkpt>
      <trkpt lat="41.21102" lon="-6.460112">
        <ele>762.0</ele>
        <time>2021-03-27T18:24:36Z</time>
      </trkpt>
      <trkpt lat="41.210853" lon="-6.459152">
        <ele>762.07</ele>
        <time>2021-03-27T18:24:40Z</time>
      </trkpt>
      <trkpt lat="41.210701" lon="-6.456776">
        <ele>765.84</ele>
        <time>2021-03-27T18:24:43Z</time>
      </trkpt>
      <trkpt lat="41.210638" lon="-6.456416">
        <ele>765.59</ele>
        <time>2021-03-27T18:24:47Z</time>
      </trkpt>
      <trkpt lat="41.209901" lon="-6.454299">
        <ele>764.47</ele>
        <time>2021-03-27T18:24:51Z</time>
      </trkpt>
      <trkpt lat="41.208621" lon="-6.450436">
        <ele>766.41</ele>
        <time>2021-03-27T18:24:54Z</time>
      </trkpt>
      <trkpt lat="41.208575" lon="-6.45002">
        <ele>767.55</ele>
        <time>2021-03-27T18:24:58Z</time>
      </trkpt>
      <trkpt lat="41.208532" lon="-6.446733">
        <ele>766.17</ele>
        <time>2021-03-27T18:25:02Z</time>
      </trkpt>
      <trkpt lat="41.208565" lon="-6.446452">
        <ele>765.23</ele>
        <time>2021-03-27T18:25:05Z</time>
      </trkpt>
      <trkpt lat="41.208637" lon="-6.446161">
        <ele>765.09</ele>
        <time>2021-03-27T18:25:09Z</time>
      </trkpt>
      <trkpt lat="41.209227" lon="-6.444311">
        <ele>766.22</ele>
        <time>2021-03-27T18:25:13Z</time>
      </trkpt>
      <trkpt lat="41.209482" lon="-6.44363">
        <ele>767.14</ele>
        <time>2021-03-27T18:25:17Z</time>
      </trkpt>
      <trkpt lat="41.209702" lon="-6.443266">
        <ele>767.68</ele>
        <time>2021-03-27T18:25:20Z</time>
      </trkpt>
      <trkpt lat="41.210473" lon="-6.44209">
        <ele>766.37</ele>
        <time>2021-03-27T18:25:24Z</time>
      </trkpt>
      <trkpt lat="41.210656" lon="-6.441854">
        <ele>766.72</ele>
        <time>2021-03-27T18:25:28Z</time>
      </trkpt>
      <trkpt lat="41.210887" lon="-6.441636">
        <ele>768.1</ele>
        <time>2021-03-27T18:25:31Z</time>
      </trkpt>
      <trkpt lat="41.211364" lon="-6.441265">
        <ele>768.55</ele>
        <time>2021-03-27T18:25:35Z</time>
      </trkpt>
      <trkpt lat="41.211477" lon="-6.441117">
        <ele>768.02</ele>
        <time>2021-03-27T18:25:39Z</time>
      </trkpt>
      <trkpt lat="41.211679" lon="-6.44044">
        <ele>767.95</ele>
        <time>2021-03-27T18:25:42Z</time>
      </trkpt>
      <trkpt lat="41.212233" lon="-6.439587">
        <ele>764.96</ele>
        <time>2021-03-27T18:25:46Z</time>
      </trkpt>
      <trkpt lat="41.212359" lon="-6.439438">
        <ele>764.51</ele>
        <time>2021-03-27T18:25:50Z</time>
      </trkpt>
      <trkpt lat="41.212586" lon="-6.439171">
        <ele>763.69</ele>
        <time>2021-03-27T18:25:54Z</time>
      </trkpt>
      <trkpt lat="41.213025" lon="-6.43887">
        <ele>762.1</ele>
        <time>2021-03-27T18:25:57Z</time>
      </trkpt>
      <trkpt lat="41.213116" lon="-6.438787">
        <ele>762.0</ele>
        <time>2021-03-27T18:26:01Z</time>
      </trkpt>
      <trkpt lat="41.213203" lon="-6.438519">
        <ele>761.69</ele>
        <time>2021-03-27T18:26:05Z</time>
      </trkpt>
      <trkpt lat="41.213282" lon="-6.437451">
        <ele>757.82</ele>
        <time>2021-03-27T18:26:08Z</time>
      </trkpt>
      <trkpt lat="41.213255" lon="-6.437146">
        <ele>756.73</ele>
        <time>2021-03-27T18:26:12Z</time>
      </trkpt>
      <trkpt lat="41.213161" lon="-6.436262">
        <ele>754.88</ele>
        <time>2021-03-27T18:26:16Z</time>
      </trkpt>
      <trkpt lat="41.213141" lon="-6.435845">
        <ele>752.09</ele>
        <time>2021-03-27T18:26:19Z</time>
      </trkpt>
      <trkpt lat="41.213374" lon="-6.433645">
        <ele>745.91</ele>
        <time>2021-03-27T18:26:23Z</time>
      </trkpt>
      <trkpt lat="41.213417" lon="-6.43129">
        <ele>741.7</ele>
        <time>2021-03-27T18:26:27Z</time>
      </trkpt>
      <trkpt lat="41.213863" lon="-6.429538">
        <ele>737.94</ele>
        <time>2021-03-27T18:26:31Z</time>
      </trkpt>
      <trkpt lat="41.213906" lon="-6.428791">
        <ele>737.65</ele>
        <time>2021-03-27T18:26:34Z</time>
      </trkpt>
      <trkpt lat="41.214015" lon="-6.428491">
        <ele>736.37</ele>
        <time>2021-03-27T18:26:38Z</time>
      </trkpt>
      <trkpt lat="41.214705" lon="-6.427248">
        <ele>733.15</ele>
        <time>2021-03-27T18:26:42Z</time>
      </trkpt>
      <trkpt lat="41.214827" lon="-6.42716">
        <ele>732.54</ele>
        <time>2021-03-27T18:26:45Z</time>
      </trkpt>
      <trkpt lat="41.215643" lon="-6.426962">
        <ele>731.14</ele>
        <time>2021-03-27T18:26:49Z</time>
      </trkpt>
      <trkpt lat="41.215854" lon="-6.426833">
        <ele>732.34</ele>
        <time>2021-03-27T18:26:53Z</time>
      </trkpt>
      <trkpt lat="41.216066" lon="-6.426655">
        <ele>732.56</ele>
        <time>2021-03-27T18:26:57Z</time>
      </trkpt>
      <trkpt lat="41.216119" lon="-6.426466">
        <ele>730.85</ele>
        <time>2021-03-27T18:27:00Z</time>
      </trkpt>
      <trkpt lat="41.216192" lon="-6.425861">
        <ele>730.74</ele>
        <time>2021-03-27T18:27:04Z</time>
      </trkpt>
      <trkpt lat="41.216175" lon="-6.425629">
        <ele>731.99</ele>
        <time>2021-03-27T18:27:08Z</time>
      </trkpt>
      <trkpt lat="41.216098" lon="-6.42524">
        <ele>733.14</ele>
        <time>2021-03-27T18:27:11Z</time>
      </trkpt>
      <trkpt lat="41.216093" lon="-6.425148">
        <ele>733.47</ele>
        <time>2021-03-27T18:27:15Z</time>
      </trkpt>
      <trkpt lat="41.216645" lon="-6.423581">
        <ele>738.74</ele>
        <time>2021-03-27T18:27:19Z</time>
      </trkpt>
      <trkpt lat="41.216675" lon="-6.423287">
        <ele>738.07</ele>
        <time>2021-03-27T18:27:22Z</time>
      </trkpt>
      <trkpt lat="41.216683" lon="-6.422944">
        <ele>738.56</ele>
        <time>2021-03-27T18:27:26Z</time>
      </trkpt>
      <trkpt lat="41.216761" lon="-6.422673">
        <ele>740.18</ele>
        <time>2021-03-27T18:27:30Z</time>
      </trkpt>
      <trkpt lat="41.217616" lon="-6.42055">
        <ele>740.99</ele>
        <time>2021-03-27T18:27:34Z</time>
      </trkpt>
      <trkpt lat="41.218129" lon="-6.419635">
        <ele>738.52</ele>
        <time>2021-03-27T18:27:37Z</time>
      </trkpt>
      <trkpt lat="41.218269" lon="-6.41933">
        <ele>737.69</ele>
        <time>2021-03-27T18:27:41Z</time>
      </trkpt>
      <trkpt lat="41.2187" lon="-6.417737">
        <ele>739.15</ele>
        <time>2021-03-27T18:27:45Z</time>
      </trkpt>
      <trkpt lat="41.218807" lon="-6.417495">
        <ele>740.0</ele>
        <time>2021-03-27T18:27:48Z</time>
      </trkpt>
      <trkpt lat="41.21925" lon="-6.416739">
        <ele>738.7</ele>
        <time>2021-03-27T18:27:52Z</time>
      </trkpt>
      <trkpt lat="41.219436" lon="-6.416136">
        <ele>739.03</ele>
        <time>2021-03-27T18:27:56Z</time>
      </trkpt>
      <trkpt lat="41.220319" lon="-6.412218">
        <ele>738.3</ele>
        <time>2021-03-27T18:27:59Z</time>
      </trkpt>
      <trkpt lat="41.220349" lon="-6.411906">
        <ele>738.41</ele>
        <time>2021-03-27T18:28:03Z</time>
      </trkpt>
      <trkpt lat="41.22032" lon="-6.411562">
        <ele>737.78</ele>
        <time>2021-03-27T18:28:07Z</time>
      </trkpt>
      <trkpt lat="41.220317" lon="-6.411215">
        <ele>738.29</ele>
        <time>2021-03-27T18:28:11Z</time>
      </trkpt>
      <trkpt lat="41.22034" lon="-6.410953">
        <ele>738.89</ele>
        <time>2021-03-27T18:28:14Z</time>
      </trkpt>
      <trkpt lat="41.220517" lon="-6.410119">
        <ele>740.14</ele>
        <time>2021-03-27T18:28:18Z</time>
      </trkpt>
      <trkpt lat="41.220799" lon="-6.409221">
        <ele>741.68</ele>
        <time>2021-03-27T18:28:22Z</time>
      </trkpt>
      <trkpt lat="41.221373" lon="-6.407521">
        <ele>744.87</ele>
        <time>2021-03-27T18:28:25Z</time>
      </trkpt>
      <trkpt lat="41.222729" lon="-6.405041">
        <ele>744.3</ele>
        <time>2021-03-27T18:28:29Z</time>
      </trkpt>
      <trkpt lat="41.222988" lon="-6.404227">
        <ele>745.02</ele>
        <time>2021-03-27T18:28:33Z</time>
      </trkpt>
      <trkpt lat="41.223042" lon="-6.403838">
        <ele>746.4</ele>
        <time>2021-03-27T18:28:37Z</time>
      </trkpt>
      <trkpt lat="41.222943" lon="-6.402492">
        <ele>748.59</ele>
        <time>2021-03-27T18:28:40Z</time>
      </trkpt>
      <trkpt lat="41.223" lon="-6.402039">
        <ele>748.4</ele>
        <time>2021-03-27T18:28:44Z</time>
      </trkpt>
      <trkpt lat="41.223632" lon="-6.400965">
        <ele>749.92</ele>
        <time>2021-03-27T18:28:48Z</time>
      </trkpt>
      <trkpt lat="41.225642" lon="-6.398917">
        <ele>745.93</ele>
        <time>2021-03-27T18:28:51Z</time>
      </trkpt>
      <trkpt lat="41.22685" lon="-6.397161">
        <ele>748.85</ele>
        <time>2021-03-27T18:28:55Z</time>
      </trkpt>
      <trkpt lat="41.227642" lon="-6.396253">
        <ele>744.49</ele>
        <time>2021-03-27T18:28:59Z</time>
      </trkpt>
      <trkpt lat="41.227852" lon="-6.396088">
        <ele>743.89</ele>
        <time>2021-03-27T18:29:02Z</time>
      </trkpt>
      <trkpt lat="41.228108" lon="-6.396039">
        <ele>743.24</ele>
        <time>2021-03-27T18:29:06Z</time>
      </trkpt>
      <trkpt lat="41.228654" lon="-6.396186">
        <ele>740.23</ele>
        <time>2021-03-27T18:29:10Z</time>
      </trkpt>
      <trkpt lat="41.228991" lon="-6.396081">
        <ele>737.09</ele>
        <time>2021-03-27T18:29:14Z</time>
      </trkpt>
      <trkpt lat="41.229589" lon="-6.395771">
        <ele>733.06</ele>
        <time>2021-03-27T18:29:17Z</time>
      </trkpt>
      <trkpt lat="41.229862" lon="-6.395524">
        <ele>731.55</ele>
        <time>2021-03-27T18:29:21Z</time>
      </trkpt>
      <trkpt lat="41.230102" lon="-6.395161">
        <ele>732.57</ele>
        <time>2021-03-27T18:29:25Z</time>
      </trkpt>
      <trkpt lat="41.230268" lon="-6.394777">
        <ele>733.97</ele>
        <time>2021-03-27T18:29:28Z</time>
      </trkpt>
      <trkpt lat="41.23089" lon="-6.392739">
        <ele>734.52</ele>
        <time>2021-03-27T18:29:32Z</time>
      </trkpt>
      <trkpt lat="41.231047" lon="-6.392471">
        <ele>735.85</ele>
        <time>2021-03-27T18:29:36Z</time>
      </trkpt>
      <trkpt lat="41.231434" lon="-6.392053">
        <ele>738.71</ele>
        <time>2021-03-27T18:29:39Z</time>
      </trkpt>
      <trkpt lat="41.231677" lon="-6.391418">
        <ele>741.93</ele>
        <time>2021-03-27T18:29:43Z</time>
      </trkpt>
      <trkpt lat="41.232526" lon="-6.390078">
        <ele>744.97</ele>
        <time>2021-03-27T18:29:47Z</time>
      </trkpt>
      <trkpt lat="41.232621" lon="-6.389839">
        <ele>745.33</ele>
        <time>2021-03-27T18:29:51Z</time>
      </trkpt>
      <trkpt lat="41.232891" lon="-6.389098">
        <ele>746.49</ele>
        <time>2021-03-27T18:29:54Z</time>
      </trkpt>
      <trkpt lat="41.233361" lon="-6.388373">
        <ele>742.14</ele>
        <time>2021-03-27T18:29:58Z</time>
      </trkpt>
      <trkpt lat="41.233438" lon="-6.388239">
        <ele>741.87</ele>
        <time>2021-03-27T18:30:02Z</time>
      </trkpt>
      <trkpt lat="41.233476" lon="-6.388131">
        <ele>741.62</ele>
        <time>2021-03-27T18:30:05Z</time>
      </trkpt>
      <trkpt lat="41.23349" lon="-6.387955">
        <ele>741.23</ele>
        <time>2021-03-27T18:30:09Z</time>
      </trkpt>
      <trkpt lat="41.233473" lon="-6.387821">
        <ele>741.07</ele>
        <time>2021-03-27T18:30:13Z</time>
      </trkpt>
      <trkpt lat="41.233434" lon="-6.38771">
        <ele>741.36</ele>
        <time>2021-03-27T18:30:16Z</time>
      </trkpt>
      <trkpt lat="41.233414" lon="-6.387506">
        <ele>741.7</ele>
        <time>2021-03-27T18:30:20Z</time>
      </trkpt>
      <trkpt lat="41.233295" lon="-6.387075">
        <ele>742.14</ele>
        <time>2021-03-27T18:30:24Z</time>
      </trkpt>
      <trkpt lat="41.233272" lon="-6.38588">
        <ele>741.14</ele>
        <time>2021-03-27T18:30:28Z</time>
      </trkpt>
      <trkpt lat="41.233059" lon="-6.384312">
        <ele>744.45</ele>
        <time>2021-03-27T18:30:31Z</time>
      </trkpt>
      <trkpt lat="41.232977" lon="-6.383426">
        <ele>744.56</ele>
        <time>2021-03-27T18:30:35Z</time>
      </trkpt>
      <trkpt lat="41.233004" lon="-6.383241">
        <ele>744.64</ele>
        <time>2021-03-27T18:30:39Z</time>
      </trkpt>
      <trkpt lat="41.233391" lon="-6.382243">
        <ele>744.27</ele>
        <time>2021-03-27T18:30:43Z</time>
      </trkpt>
      <trkpt lat="41.235127" lon="-6.382866">
        <ele>746.37</ele>
        <time>2021-03-27T18:31:01Z</time>
      </trkpt>
      <trkpt lat="41.235443" lon="-6.382983">
        <ele>745.56</ele>
        <time>2021-03-27T18:31:03Z</time>
      </trkpt>
      <trkpt lat="41.235812" lon="-6.383007">
        <ele>744.41</ele>
        <time>2021-03-27T18:31:06Z</time>
      </trkpt>
      <trkpt lat="41.23777" lon="-6.382978">
        <ele>739.32</ele>
        <time>2021-03-27T18:31:08Z</time>
      </trkpt>
      <trkpt lat="41.237946" lon="-6.38301">
        <ele>739.07</ele>
        <time>2021-03-27T18:31:11Z</time>
      </trkpt>
      <trkpt lat="41.238088" lon="-6.383089">
        <ele>738.78</ele>
        <time>2021-03-27T18:31:13Z</time>
      </trkpt>
      <trkpt lat="41.239955" lon="-6.385845">
        <ele>742.03</ele>
        <time>2021-03-27T18:31:15Z</time>
      </trkpt>
      <trkpt lat="41.240289" lon="-6.386232">
        <ele>744.48</ele>
        <time>2021-03-27T18:31:18Z</time>
      </trkpt>
      <trkpt lat="41.240565" lon="-6.386471">
        <ele>746.3</ele>
        <time>2021-03-27T18:31:20Z</time>
      </trkpt>
      <trkpt lat="41.240923" lon="-6.386723">
        <ele>746.81</ele>
        <time>2021-03-27T18:31:22Z</time>
      </trkpt>
      <trkpt lat="41.248029" lon="-6.391261">
        <ele>734.05</ele>
        <time>2021-03-27T18:31:25Z</time>
      </trkpt>
      <trkpt lat="41.248238" lon="-6.391499">
        <ele>733.74</ele>
        <time>2021-03-27T18:31:27Z</time>
      </trkpt>
      <trkpt lat="41.248791" lon="-6.392522">
        <ele>729.35</ele>
        <time>2021-03-27T18:31:30Z</time>
      </trkpt>
      <trkpt lat="41.24906" lon="-6.392815">
        <ele>727.76</ele>
        <time>2021-03-27T18:31:32Z</time>
      </trkpt>
      <trkpt lat="41.249551" lon="-6.392955">
        <ele>725.23</ele>
        <time>2021-03-27T18:31:34Z</time>
      </trkpt>
      <trkpt lat="41.251963" lon="-6.393297">
        <ele>715.99</ele>
        <time>2021-03-27T18:31:37Z</time>
      </trkpt>
      <trkpt lat="41.252241" lon="-6.393105">
        <ele>714.0</ele>
        <time>2021-03-27T18:31:39Z</time>
      </trkpt>
      <trkpt lat="41.253208" lon="-6.391722">
        <ele>707.6</ele>
        <time>2021-03-27T18:31:41Z</time>
      </trkpt>
      <trkpt lat="41.253911" lon="-6.391351">
        <ele>702.86</ele>
        <time>2021-03-27T18:31:44Z</time>
      </trkpt>
      <trkpt lat="41.254074" lon="-6.391358">
        <ele>701.81</ele>
        <time>2021-03-27T18:31:46Z</time>
      </trkpt>
      <trkpt lat="41.254231" lon="-6.391504">
        <ele>700.12</ele>
        <time>2021-03-27T18:31:49Z</time>
      </trkpt>
      <trkpt lat="41.255409" lon="-6.393588">
        <ele>687.59</ele>
        <time>2021-03-27T18:31:51Z</time>
      </trkpt>
      <trkpt lat="41.256214" lon="-6.394173">
        <ele>683.03</ele>
        <time>2021-03-27T18:31:53Z</time>
      </trkpt>
      <trkpt lat="41.256425" lon="-6.394244">
        <ele>683.45</ele>
        <time>2021-03-27T18:31:56Z</time>
      </trkpt>
      <trkpt lat="41.25767" lon="-6.394324">
        <ele>674.81</ele>
        <time>2021-03-27T18:31:58Z</time>
      </trkpt>
      <trkpt lat="41.258702" lon="-6.394176">
        <ele>669.0</ele>
        <time>2021-03-27T18:32:01Z</time>
      </trkpt>
      <trkpt lat="41.261049" lon="-6.393612">
        <ele>662.0</ele>
        <time>2021-03-27T18:32:03Z</time>
      </trkpt>
      <trkpt lat="41.263694" lon="-6.392358">
        <ele>648.47</ele>
        <time>2021-03-27T18:32:05Z</time>
      </trkpt>
      <trkpt lat="41.263933" lon="-6.392335">
        <ele>646.28</ele>
        <time>2021-03-27T18:32:08Z</time>
      </trkpt>
      <trkpt lat="41.264256" lon="-6.392448">
        <ele>645.44</ele>
        <time>2021-03-27T18:32:10Z</time>
      </trkpt>
      <trkpt lat="41.264505" lon="-6.392451">
        <ele>644.45</ele>
        <time>2021-03-27T18:32:12Z</time>
      </trkpt>
      <trkpt lat="41.264657" lon="-6.392262">
        <ele>642.26</ele>
        <time>2021-03-27T18:32:15Z</time>
      </trkpt>
      <trkpt lat="41.2647" lon="-6.391706">
        <ele>640.49</ele>
        <time>2021-03-27T18:32:17Z</time>
      </trkpt>
      <trkpt lat="41.264758" lon="-6.391502">
        <ele>640.08</ele>
        <time>2021-03-27T18:32:20Z</time>
      </trkpt>
      <trkpt lat="41.265022" lon="-6.390962">
        <ele>640.87</ele>
        <time>2021-03-27T18:32:22Z</time>
      </trkpt>
      <trkpt lat="41.265265" lon="-6.390692">
        <ele>640.25</ele>
        <time>2021-03-27T18:32:24Z</time>
      </trkpt>
      <trkpt lat="41.266028" lon="-6.39005">
        <ele>634.77</ele>
        <time>2021-03-27T18:32:27Z</time>
      </trkpt>
      <trkpt lat="41.266929" lon="-6.389543">
        <ele>624.03</ele>
        <time>2021-03-27T18:32:29Z</time>
      </trkpt>
      <trkpt lat="41.267708" lon="-6.389203">
        <ele>615.76</ele>
        <time>2021-03-27T18:32:31Z</time>
      </trkpt>
      <trkpt lat="41.268376" lon="-6.389049">
        <ele>612.42</ele>
        <time>2021-03-27T18:32:34Z</time>
      </trkpt>
      <trkpt lat="41.269242" lon="-6.388291">
        <ele>597.44</ele>
        <time>2021-03-27T18:32:36Z</time>
      </trkpt>
      <trkpt lat="41.269333" lon="-6.388246">
        <ele>596.92</ele>
        <time>2021-03-27T18:32:39Z</time>
      </trkpt>
      <trkpt lat="41.270552" lon="-6.387849">
        <ele>592.76</ele>
        <time>2021-03-27T18:32:41Z</time>
      </trkpt>
      <trkpt lat="41.272565" lon="-6.386882">
        <ele>585.34</ele>
        <time>2021-03-27T18:32:43Z</time>
      </trkpt>
      <trkpt lat="41.273992" lon="-6.38576">
        <ele>565.63</ele>
        <time>2021-03-27T18:32:46Z</time>
      </trkpt>
      <trkpt lat="41.275068" lon="-6.384276">
        <ele>562.48</ele>
        <time>2021-03-27T18:32:48Z</time>
      </trkpt>
      <trkpt lat="41.275254" lon="-6.384262">
        <ele>561.42</ele>
        <time>2021-03-27T18:32:50Z</time>
      </trkpt>
      <trkpt lat="41.27565" lon="-6.384424">
        <ele>552.62</ele>
        <time>2021-03-27T18:32:53Z</time>
      </trkpt>
      <trkpt lat="41.277636" lon="-6.384596">
        <ele>536.01</ele>
        <time>2021-03-27T18:32:55Z</time>
      </trkpt>
      <trkpt lat="41.278706" lon="-6.384001">
        <ele>530.3</ele>
        <time>2021-03-27T18:32:58Z</time>
      </trkpt>
      <trkpt lat="41.279636" lon="-6.383391">
        <ele>522.43</ele>
        <time>2021-03-27T18:33:00Z</time>
      </trkpt>
      <trkpt lat="41.279732" lon="-6.383482">
        <ele>520.01</ele>
        <time>2021-03-27T18:33:02Z</time>
      </trkpt>
      <trkpt lat="41.279922" lon="-6.384318">
        <ele>510.45</ele>
        <time>2021-03-27T18:33:05Z</time>
      </trkpt>
      <trkpt lat="41.280069" lon="-6.384424">
        <ele>507.7</ele>
        <time>2021-03-27T18:33:07Z</time>
      </trkpt>
      <trkpt lat="41.280219" lon="-6.384387">
        <ele>506.88</ele>
        <time>2021-03-27T18:33:10Z</time>
      </trkpt>
      <trkpt lat="41.28102" lon="-6.382919">
        <ele>495.31</ele>
        <time>2021-03-27T18:33:12Z</time>
      </trkpt>
      <trkpt lat="41.281161" lon="-6.382123">
        <ele>500.53</ele>
        <time>2021-03-27T18:33:14Z</time>
      </trkpt>
      <trkpt lat="41.281405" lon="-6.381735">
        <ele>495.48</ele>
        <time>2021-03-27T18:33:17Z</time>
      </trkpt>
      <trkpt lat="41.281752" lon="-6.381022">
        <ele>495.32</ele>
        <time>2021-03-27T18:33:19Z</time>
      </trkpt>
      <trkpt lat="41.281932" lon="-6.380861">
        <ele>491.85</ele>
        <time>2021-03-27T18:33:21Z</time>
      </trkpt>
      <trkpt lat="41.282513" lon="-6.380545">
        <ele>485.14</ele>
        <time>2021-03-27T18:33:24Z</time>
      </trkpt>
      <trkpt lat="41.282965" lon="-6.380185">
        <ele>483.14</ele>
        <time>2021-03-27T18:33:26Z</time>
      </trkpt>
      <trkpt lat="41.283518" lon="-6.379423">
        <ele>479.85</ele>
        <time>2021-03-27T18:33:29Z</time>
      </trkpt>
      <trkpt lat="41.283961" lon="-6.378408">
        <ele>478.89</ele>
        <time>2021-03-27T18:33:31Z</time>
      </trkpt>
      <trkpt lat="41.284584" lon="-6.377321">
        <ele>474.34</ele>
        <time>2021-03-27T18:33:33Z</time>
      </trkpt>
      <trkpt lat="41.284818" lon="-6.376602">
        <ele>471.09</ele>
        <time>2021-03-27T18:33:36Z</time>
      </trkpt>
      <trkpt lat="41.284924" lon="-6.376049">
        <ele>471.51</ele>
        <time>2021-03-27T18:33:38Z</time>
      </trkpt>
      <trkpt lat="41.284951" lon="-6.375986">
        <ele>470.66</ele>
        <time>2021-03-27T18:33:40Z</time>
      </trkpt>
      <trkpt lat="41.285023" lon="-6.375942">
        <ele>467.83</ele>
        <time>2021-03-27T18:33:43Z</time>
      </trkpt>
      <trkpt lat="41.285084" lon="-6.375961">
        <ele>464.8</ele>
        <time>2021-03-27T18:33:45Z</time>
      </trkpt>
      <trkpt lat="41.285132" lon="-6.376022">
        <ele>462.19</ele>
        <time>2021-03-27T18:33:48Z</time>
      </trkpt>
      <trkpt lat="41.285147" lon="-6.376108">
        <ele>461.08</ele>
        <time>2021-03-27T18:33:50Z</time>
      </trkpt>
      <trkpt lat="41.285125" lon="-6.376239">
        <ele>461.54</ele>
        <time>2021-03-27T18:33:52Z</time>
      </trkpt>
      <trkpt lat="41.284643" lon="-6.377687">
        <ele>464.82</ele>
        <time>2021-03-27T18:33:55Z</time>
      </trkpt>
      <trkpt lat="41.283922" lon="-6.380145">
        <ele>453.8</ele>
        <time>2021-03-27T18:33:57Z</time>
      </trkpt>
      <trkpt lat="41.283046" lon="-6.382038">
        <ele>445.45</ele>
        <time>2021-03-27T18:34:00Z</time>
      </trkpt>
      <trkpt lat="41.281887" lon="-6.384036">
        <ele>434.36</ele>
        <time>2021-03-27T18:34:02Z</time>
      </trkpt>
      <trkpt lat="41.281669" lon="-6.384921">
        <ele>437.13</ele>
        <time>2021-03-27T18:34:04Z</time>
      </trkpt>
      <trkpt lat="41.281666" lon="-6.385145">
        <ele>436.51</ele>
        <time>2021-03-27T18:34:07Z</time>
      </trkpt>
      <trkpt lat="41.281723" lon="-6.385246">
        <ele>433.05</ele>
        <time>2021-03-27T18:34:09Z</time>
      </trkpt>
      <trkpt lat="41.282525" lon="-6.385661">
        <ele>427.1</ele>
        <time>2021-03-27T18:34:11Z</time>
      </trkpt>
      <trkpt lat="41.283013" lon="-6.385889">
        <ele>424.47</ele>
        <time>2021-03-27T18:34:14Z</time>
      </trkpt>
      <trkpt lat="41.283067" lon="-6.385955">
        <ele>426.34</ele>
        <time>2021-03-27T18:34:16Z</time>
      </trkpt>
      <trkpt lat="41.283126" lon="-6.386113">
        <ele>428.02</ele>
        <time>2021-03-27T18:34:19Z</time>
      </trkpt>
      <trkpt lat="41.28315" lon="-6.386366">
        <ele>426.89</ele>
        <time>2021-03-27T18:34:21Z</time>
      </trkpt>
      <trkpt lat="41.283145" lon="-6.386483">
        <ele>426.8</ele>
        <time>2021-03-27T18:34:23Z</time>
      </trkpt>
      <trkpt lat="41.283116" lon="-6.386697">
        <ele>426.7</ele>
        <time>2021-03-27T18:34:26Z</time>
      </trkpt>
      <trkpt lat="41.282877" lon="-6.387522">
        <ele>429.97</ele>
        <time>2021-03-27T18:34:28Z</time>
      </trkpt>
      <trkpt lat="41.282886" lon="-6.387633">
        <ele>432.0</ele>
        <time>2021-03-27T18:34:30Z</time>
      </trkpt>
      <trkpt lat="41.282928" lon="-6.387699">
        <ele>434.88</ele>
        <time>2021-03-27T18:34:33Z</time>
      </trkpt>
      <trkpt lat="41.282964" lon="-6.387718">
        <ele>436.85</ele>
        <time>2021-03-27T18:34:35Z</time>
      </trkpt>
      <trkpt lat="41.283048" lon="-6.387703">
        <ele>440.6</ele>
        <time>2021-03-27T18:34:38Z</time>
      </trkpt>
      <trkpt lat="41.283082" lon="-6.38767">
        <ele>441.48</ele>
        <time>2021-03-27T18:34:40Z</time>
      </trkpt>
      <trkpt lat="41.283127" lon="-6.387575">
        <ele>441.72</ele>
        <time>2021-03-27T18:34:42Z</time>
      </trkpt>
      <trkpt lat="41.283446" lon="-6.386502">
        <ele>436.62</ele>
        <time>2021-03-27T18:34:45Z</time>
      </trkpt>
      <trkpt lat="41.28347" lon="-6.386296">
        <ele>436.61</ele>
        <time>2021-03-27T18:34:47Z</time>
      </trkpt>
      <trkpt lat="41.283449" lon="-6.385746">
        <ele>435.69</ele>
        <time>2021-03-27T18:34:49Z</time>
      </trkpt>
      <trkpt lat="41.283456" lon="-6.385693">
        <ele>435.37</ele>
        <time>2021-03-27T18:34:52Z</time>
      </trkpt>
      <trkpt lat="41.283504" lon="-6.385606">
        <ele>435.74</ele>
        <time>2021-03-27T18:34:54Z</time>
      </trkpt>
      <trkpt lat="41.283572" lon="-6.385574">
        <ele>437.15</ele>
        <time>2021-03-27T18:34:57Z</time>
      </trkpt>
      <trkpt lat="41.283636" lon="-6.385602">
        <ele>438.73</ele>
        <time>2021-03-27T18:34:59Z</time>
      </trkpt>
      <trkpt lat="41.283658" lon="-6.385632">
        <ele>439.32</ele>
        <time>2021-03-27T18:35:01Z</time>
      </trkpt>
      <trkpt lat="41.283696" lon="-6.385737">
        <ele>440.93</ele>
        <time>2021-03-27T18:35:04Z</time>
      </trkpt>
      <trkpt lat="41.283726" lon="-6.386214">
        <ele>444.55</ele>
        <time>2021-03-27T18:35:06Z</time>
      </trkpt>
      <trkpt lat="41.283752" lon="-6.3864">
        <ele>447.26</ele>
        <time>2021-03-27T18:35:09Z</time>
      </trkpt>
      <trkpt lat="41.283799" lon="-6.386486">
        <ele>450.42</ele>
        <time>2021-03-27T18:35:11Z</time>
      </trkpt>
      <trkpt lat="41.283833" lon="-6.386515">
        <ele>452.32</ele>
        <time>2021-03-27T18:35:13Z</time>
      </trkpt>
      <trkpt lat="41.283921" lon="-6.386512">
        <ele>455.75</ele>
        <time>2021-03-27T18:35:16Z</time>
      </trkpt>
      <trkpt lat="41.283984" lon="-6.386433">
        <ele>456.45</ele>
        <time>2021-03-27T18:35:18Z</time>
      </trkpt>
      <trkpt lat="41.284014" lon="-6.386041">
        <ele>451.17</ele>
        <time>2021-03-27T18:35:20Z</time>
      </trkpt>
      <trkpt lat="41.284043" lon="-6.385972">
        <ele>450.83</ele>
        <time>2021-03-27T18:35:23Z</time>
      </trkpt>
      <trkpt lat="41.284086" lon="-6.38592">
        <ele>450.93</ele>
        <time>2021-03-27T18:35:25Z</time>
      </trkpt>
      <trkpt lat="41.2842" lon="-6.385861">
        <ele>452.2</ele>
        <time>2021-03-27T18:35:28Z</time>
      </trkpt>
      <trkpt lat="41.284385" lon="-6.385829">
        <ele>455.64</ele>
        <time>2021-03-27T18:35:30Z</time>
      </trkpt>
      <trkpt lat="41.284512" lon="-6.385773">
        <ele>457.37</ele>
        <time>2021-03-27T18:35:32Z</time>
      </trkpt>
      <trkpt lat="41.284557" lon="-6.385716">
        <ele>457.32</ele>
        <time>2021-03-27T18:35:35Z</time>
      </trkpt>
      <trkpt lat="41.284619" lon="-6.385555">
        <ele>455.77</ele>
        <time>2021-03-27T18:35:37Z</time>
      </trkpt>
      <trkpt lat="41.284724" lon="-6.385416">
        <ele>456.56</ele>
        <time>2021-03-27T18:35:39Z</time>
      </trkpt>
      <trkpt lat="41.285429" lon="-6.384845">
        <ele>462.8</ele>
        <time>2021-03-27T18:35:42Z</time>
      </trkpt>
      <trkpt lat="41.285555" lon="-6.384821">
        <ele>465.18</ele>
        <time>2021-03-27T18:35:44Z</time>
      </trkpt>
      <trkpt lat="41.285818" lon="-6.384899">
        <ele>473.14</ele>
        <time>2021-03-27T18:35:47Z</time>
      </trkpt>
      <trkpt lat="41.285908" lon="-6.384876">
        <ele>474.69</ele>
        <time>2021-03-27T18:35:49Z</time>
      </trkpt>
      <trkpt lat="41.285942" lon="-6.384843">
        <ele>474.91</ele>
        <time>2021-03-27T18:35:51Z</time>
      </trkpt>
      <trkpt lat="41.285986" lon="-6.384753">
        <ele>474.5</ele>
        <time>2021-03-27T18:35:54Z</time>
      </trkpt>
      <trkpt lat="41.285993" lon="-6.384676">
        <ele>473.92</ele>
        <time>2021-03-27T18:35:56Z</time>
      </trkpt>
      <trkpt lat="41.285972" lon="-6.384362">
        <ele>471.13</ele>
        <time>2021-03-27T18:35:59Z</time>
      </trkpt>
      <trkpt lat="41.285983" lon="-6.384173">
        <ele>469.53</ele>
        <time>2021-03-27T18:36:01Z</time>
      </trkpt>
      <trkpt lat="41.286091" lon="-6.383832">
        <ele>468.94</ele>
        <time>2021-03-27T18:36:03Z</time>
      </trkpt>
      <trkpt lat="41.286167" lon="-6.383721">
        <ele>468.91</ele>
        <time>2021-03-27T18:36:06Z</time>
      </trkpt>
      <trkpt lat="41.286262" lon="-6.383678">
        <ele>470.23</ele>
        <time>2021-03-27T18:36:08Z</time>
      </trkpt>
      <trkpt lat="41.286748" lon="-6.383731">
        <ele>479.45</ele>
        <time>2021-03-27T18:36:10Z</time>
      </trkpt>
      <trkpt lat="41.286866" lon="-6.383723">
        <ele>480.67</ele>
        <time>2021-03-27T18:36:13Z</time>
      </trkpt>
      <trkpt lat="41.287053" lon="-6.38366">
        <ele>481.15</ele>
        <time>2021-03-27T18:36:15Z</time>
      </trkpt>
      <trkpt lat="41.287469" lon="-6.383475">
        <ele>483.05</ele>
        <time>2021-03-27T18:36:18Z</time>
      </trkpt>
      <trkpt lat="41.288104" lon="-6.383366">
        <ele>486.79</ele>
        <time>2021-03-27T18:36:20Z</time>
      </trkpt>
      <trkpt lat="41.288241" lon="-6.383325">
        <ele>488.03</ele>
        <time>2021-03-27T18:36:22Z</time>
      </trkpt>
      <trkpt lat="41.288286" lon="-6.383294">
        <ele>488.63</ele>
        <time>2021-03-27T18:36:25Z</time>
      </trkpt>
      <trkpt lat="41.288323" lon="-6.383249">
        <ele>489.19</ele>
        <time>2021-03-27T18:36:27Z</time>
      </trkpt>
      <trkpt lat="41.288369" lon="-6.383121">
        <ele>490.65</ele>
        <time>2021-03-27T18:36:29Z</time>
      </trkpt>
      <trkpt lat="41.288367" lon="-6.382992">
        <ele>491.95</ele>
        <time>2021-03-27T18:36:32Z</time>
      </trkpt>
      <trkpt lat="41.288317" lon="-6.382865">
        <ele>493.25</ele>
        <time>2021-03-27T18:36:34Z</time>
      </trkpt>
      <trkpt lat="41.288105" lon="-6.38262">
        <ele>494.55</ele>
        <time>2021-03-27T18:36:37Z</time>
      </trkpt>
      <trkpt lat="41.28803" lon="-6.382504">
        <ele>494.21</ele>
        <time>2021-03-27T18:36:39Z</time>
      </trkpt>
      <trkpt lat="41.28801" lon="-6.382383">
        <ele>493.19</ele>
        <time>2021-03-27T18:36:41Z</time>
      </trkpt>
      <trkpt lat="41.288043" lon="-6.38226">
        <ele>493.75</ele>
        <time>2021-03-27T18:36:44Z</time>
      </trkpt>
      <trkpt lat="41.288081" lon="-6.382205">
        <ele>494.38</ele>
        <time>2021-03-27T18:36:46Z</time>
      </trkpt>
      <trkpt lat="41.288188" lon="-6.382135">
        <ele>495.78</ele>
        <time>2021-03-27T18:36:48Z</time>
      </trkpt>
      <trkpt lat="41.288642" lon="-6.381992">
        <ele>501.71</ele>
        <time>2021-03-27T18:36:51Z</time>
      </trkpt>
      <trkpt lat="41.288768" lon="-6.3819">
        <ele>503.89</ele>
        <time>2021-03-27T18:36:53Z</time>
      </trkpt>
      <trkpt lat="41.28885" lon="-6.381764">
        <ele>504.29</ele>
        <time>2021-03-27T18:36:56Z</time>
      </trkpt>
      <trkpt lat="41.289024" lon="-6.381107">
        <ele>503.32</ele>
        <time>2021-03-27T18:36:58Z</time>
      </trkpt>
      <trkpt lat="41.28911" lon="-6.380922">
        <ele>503.97</ele>
        <time>2021-03-27T18:37:00Z</time>
      </trkpt>
      <trkpt lat="41.289224" lon="-6.380795">
        <ele>505.58</ele>
        <time>2021-03-27T18:37:03Z</time>
      </trkpt>
      <trkpt lat="41.289755" lon="-6.380377">
        <ele>511.56</ele>
        <time>2021-03-27T18:37:05Z</time>
      </trkpt>
      <trkpt lat="41.290016" lon="-6.379977">
        <ele>515.63</ele>
        <time>2021-03-27T18:37:08Z</time>
      </trkpt>
      <trkpt lat="41.29009" lon="-6.379912">
        <ele>518.34</ele>
        <time>2021-03-27T18:37:10Z</time>
      </trkpt>
      <trkpt lat="41.290164" lon="-6.379918">
        <ele>520.51</ele>
        <time>2021-03-27T18:37:12Z</time>
      </trkpt>
      <trkpt lat="41.290221" lon="-6.379973">
        <ele>521.64</ele>
        <time>2021-03-27T18:37:15Z</time>
      </trkpt>
      <trkpt lat="41.290247" lon="-6.380096">
        <ele>522.15</ele>
        <time>2021-03-27T18:37:17Z</time>
      </trkpt>
      <trkpt lat="41.290219" lon="-6.380195">
        <ele>521.47</ele>
        <time>2021-03-27T18:37:19Z</time>
      </trkpt>
      <trkpt lat="41.29003" lon="-6.380435">
        <ele>519.01</ele>
        <time>2021-03-27T18:37:22Z</time>
      </trkpt>
      <trkpt lat="41.289605" lon="-6.38091">
        <ele>517.17</ele>
        <time>2021-03-27T18:37:24Z</time>
      </trkpt>
      <trkpt lat="41.289543" lon="-6.38104">
        <ele>517.83</ele>
        <time>2021-03-27T18:37:27Z</time>
      </trkpt>
      <trkpt lat="41.289528" lon="-6.381144">
        <ele>519.1</ele>
        <time>2021-03-27T18:37:29Z</time>
      </trkpt>
      <trkpt lat="41.289518" lon="-6.381777">
        <ele>524.24</ele>
        <time>2021-03-27T18:37:31Z</time>
      </trkpt>
      <trkpt lat="41.289552" lon="-6.38205">
        <ele>525.89</ele>
        <time>2021-03-27T18:37:34Z</time>
      </trkpt>
      <trkpt lat="41.289612" lon="-6.38221">
        <ele>526.48</ele>
        <time>2021-03-27T18:37:36Z</time>
      </trkpt>
      <trkpt lat="41.289667" lon="-6.382289">
        <ele>526.28</ele>
        <time>2021-03-27T18:37:38Z</time>
      </trkpt>
      <trkpt lat="41.289729" lon="-6.382361">
        <ele>526.14</ele>
        <time>2021-03-27T18:37:41Z</time>
      </trkpt>
      <trkpt lat="41.289904" lon="-6.382477">
        <ele>527.66</ele>
        <time>2021-03-27T18:37:43Z</time>
      </trkpt>
      <trkpt lat="41.290235" lon="-6.382601">
        <ele>530.31</ele>
        <time>2021-03-27T18:37:46Z</time>
      </trkpt>
      <trkpt lat="41.290624" lon="-6.382699">
        <ele>535.25</ele>
        <time>2021-03-27T18:37:48Z</time>
      </trkpt>
      <trkpt lat="41.290715" lon="-6.382672">
        <ele>538.05</ele>
        <time>2021-03-27T18:37:50Z</time>
      </trkpt>
      <trkpt lat="41.290788" lon="-6.382578">
        <ele>541.07</ele>
        <time>2021-03-27T18:37:53Z</time>
      </trkpt>
      <trkpt lat="41.290805" lon="-6.382509">
        <ele>542.28</ele>
        <time>2021-03-27T18:37:55Z</time>
      </trkpt>
      <trkpt lat="41.290795" lon="-6.382392">
        <ele>543.45</ele>
        <time>2021-03-27T18:37:58Z</time>
      </trkpt>
      <trkpt lat="41.290775" lon="-6.382337">
        <ele>543.75</ele>
        <time>2021-03-27T18:38:00Z</time>
      </trkpt>
      <trkpt lat="41.290698" lon="-6.382242">
        <ele>543.77</ele>
        <time>2021-03-27T18:38:02Z</time>
      </trkpt>
      <trkpt lat="41.290629" lon="-6.382195">
        <ele>543.33</ele>
        <time>2021-03-27T18:38:05Z</time>
      </trkpt>
      <trkpt lat="41.290203" lon="-6.38203">
        <ele>540.06</ele>
        <time>2021-03-27T18:38:07Z</time>
      </trkpt>
      <trkpt lat="41.290143" lon="-6.381995">
        <ele>539.04</ele>
        <time>2021-03-27T18:38:09Z</time>
      </trkpt>
      <trkpt lat="41.29005" lon="-6.381902">
        <ele>537.53</ele>
        <time>2021-03-27T18:38:12Z</time>
      </trkpt>
      <trkpt lat="41.290014" lon="-6.38182">
        <ele>537.21</ele>
        <time>2021-03-27T18:38:14Z</time>
      </trkpt>
      <trkpt lat="41.290002" lon="-6.3817">
        <ele>537.8</ele>
        <time>2021-03-27T18:38:17Z</time>
      </trkpt>
      <trkpt lat="41.290047" lon="-6.381592">
        <ele>538.57</ele>
        <time>2021-03-27T18:38:19Z</time>
      </trkpt>
      <trkpt lat="41.29013" lon="-6.381538">
        <ele>540.32</ele>
        <time>2021-03-27T18:38:21Z</time>
      </trkpt>
      <trkpt lat="41.291894" lon="-6.381595">
        <ele>556.57</ele>
        <time>2021-03-27T18:38:24Z</time>
      </trkpt>
      <trkpt lat="41.292053" lon="-6.381628">
        <ele>557.83</ele>
        <time>2021-03-27T18:38:26Z</time>
      </trkpt>
      <trkpt lat="41.292171" lon="-6.381696">
        <ele>559.34</ele>
        <time>2021-03-27T18:38:28Z</time>
      </trkpt>
      <trkpt lat="41.292264" lon="-6.381778">
        <ele>561.09</ele>
        <time>2021-03-27T18:38:31Z</time>
      </trkpt>
      <trkpt lat="41.293019" lon="-6.382505">
        <ele>569.04</ele>
        <time>2021-03-27T18:38:33Z</time>
      </trkpt>
      <trkpt lat="41.293142" lon="-6.382655">
        <ele>570.29</ele>
        <time>2021-03-27T18:38:36Z</time>
      </trkpt>
      <trkpt lat="41.293165" lon="-6.382792">
        <ele>571.6</ele>
        <time>2021-03-27T18:38:38Z</time>
      </trkpt>
      <trkpt lat="41.293137" lon="-6.382893">
        <ele>572.95</ele>
        <time>2021-03-27T18:38:40Z</time>
      </trkpt>
      <trkpt lat="41.293063" lon="-6.382976">
        <ele>573.88</ele>
        <time>2021-03-27T18:38:43Z</time>
      </trkpt>
      <trkpt lat="41.292988" lon="-6.382998">
        <ele>574.03</ele>
        <time>2021-03-27T18:38:45Z</time>
      </trkpt>
      <trkpt lat="41.292886" lon="-6.382959">
        <ele>573.43</ele>
        <time>2021-03-27T18:38:47Z</time>
      </trkpt>
      <trkpt lat="41.292491" lon="-6.38258">
        <ele>571.17</ele>
        <time>2021-03-27T18:38:50Z</time>
      </trkpt>
      <trkpt lat="41.292365" lon="-6.382495">
        <ele>570.43</ele>
        <time>2021-03-27T18:38:52Z</time>
      </trkpt>
      <trkpt lat="41.292267" lon="-6.382475">
        <ele>570.56</ele>
        <time>2021-03-27T18:38:55Z</time>
      </trkpt>
      <trkpt lat="41.292227" lon="-6.382491">
        <ele>570.88</ele>
        <time>2021-03-27T18:38:57Z</time>
      </trkpt>
      <trkpt lat="41.29216" lon="-6.382572">
        <ele>570.79</ele>
        <time>2021-03-27T18:38:59Z</time>
      </trkpt>
      <trkpt lat="41.292134" lon="-6.382672">
        <ele>571.09</ele>
        <time>2021-03-27T18:39:02Z</time>
      </trkpt>
      <trkpt lat="41.292149" lon="-6.38279">
        <ele>572.1</ele>
        <time>2021-03-27T18:39:04Z</time>
      </trkpt>
      <trkpt lat="41.292177" lon="-6.382844">
        <ele>573.11</ele>
        <time>2021-03-27T18:39:07Z</time>
      </trkpt>
      <trkpt lat="41.292619" lon="-6.383304">
        <ele>578.79</ele>
        <time>2021-03-27T18:39:09Z</time>
      </trkpt>
      <trkpt lat="41.29272" lon="-6.383452">
        <ele>580.46</ele>
        <time>2021-03-27T18:39:11Z</time>
      </trkpt>
      <trkpt lat="41.292906" lon="-6.383904">
        <ele>586.78</ele>
        <time>2021-03-27T18:39:14Z</time>
      </trkpt>
      <trkpt lat="41.292975" lon="-6.384003">
        <ele>588.22</ele>
        <time>2021-03-27T18:39:16Z</time>
      </trkpt>
      <trkpt lat="41.293026" lon="-6.384044">
        <ele>588.84</ele>
        <time>2021-03-27T18:39:18Z</time>
      </trkpt>
      <trkpt lat="41.293073" lon="-6.384056">
        <ele>589.09</ele>
        <time>2021-03-27T18:39:21Z</time>
      </trkpt>
      <trkpt lat="41.29318" lon="-6.384038">
        <ele>589.34</ele>
        <time>2021-03-27T18:39:23Z</time>
      </trkpt>
      <trkpt lat="41.29329" lon="-6.383952">
        <ele>588.64</ele>
        <time>2021-03-27T18:39:26Z</time>
      </trkpt>
      <trkpt lat="41.293508" lon="-6.383718">
        <ele>590.39</ele>
        <time>2021-03-27T18:39:28Z</time>
      </trkpt>
      <trkpt lat="41.293585" lon="-6.383659">
        <ele>591.11</ele>
        <time>2021-03-27T18:39:30Z</time>
      </trkpt>
      <trkpt lat="41.293718" lon="-6.38361">
        <ele>591.36</ele>
        <time>2021-03-27T18:39:33Z</time>
      </trkpt>
      <trkpt lat="41.293841" lon="-6.383619">
        <ele>591.97</ele>
        <time>2021-03-27T18:39:35Z</time>
      </trkpt>
      <trkpt lat="41.293997" lon="-6.383719">
        <ele>593.41</ele>
        <time>2021-03-27T18:39:37Z</time>
      </trkpt>
      <trkpt lat="41.294381" lon="-6.384265">
        <ele>599.31</ele>
        <time>2021-03-27T18:39:40Z</time>
      </trkpt>
      <trkpt lat="41.294435" lon="-6.384317">
        <ele>599.17</ele>
        <time>2021-03-27T18:39:42Z</time>
      </trkpt>
      <trkpt lat="41.294537" lon="-6.384353">
        <ele>599.78</ele>
        <time>2021-03-27T18:39:45Z</time>
      </trkpt>
      <trkpt lat="41.294623" lon="-6.384327">
        <ele>600.07</ele>
        <time>2021-03-27T18:39:47Z</time>
      </trkpt>
      <trkpt lat="41.294706" lon="-6.384236">
        <ele>600.15</ele>
        <time>2021-03-27T18:39:49Z</time>
      </trkpt>
      <trkpt lat="41.295453" lon="-6.382671">
        <ele>612.02</ele>
        <time>2021-03-27T18:39:52Z</time>
      </trkpt>
      <trkpt lat="41.295539" lon="-6.382575">
        <ele>613.66</ele>
        <time>2021-03-27T18:39:54Z</time>
      </trkpt>
      <trkpt lat="41.295588" lon="-6.382547">
        <ele>614.35</ele>
        <time>2021-03-27T18:39:57Z</time>
      </trkpt>
      <trkpt lat="41.295693" lon="-6.38252">
        <ele>615.48</ele>
        <time>2021-03-27T18:39:59Z</time>
      </trkpt>
      <trkpt lat="41.295773" lon="-6.382537">
        <ele>616.35</ele>
        <time>2021-03-27T18:40:01Z</time>
      </trkpt>
      <trkpt lat="41.297252" lon="-6.383657">
        <ele>632.85</ele>
        <time>2021-03-27T18:40:04Z</time>
      </trkpt>
      <trkpt lat="41.297602" lon="-6.383951">
        <ele>633.51</ele>
        <time>2021-03-27T18:40:06Z</time>
      </trkpt>
      <trkpt lat="41.298145" lon="-6.384814">
        <ele>636.68</ele>
        <time>2021-03-27T18:40:08Z</time>
      </trkpt>
      <trkpt lat="41.299922" lon="-6.387811">
        <ele>644.47</ele>
        <time>2021-03-27T18:40:11Z</time>
      </trkpt>
      <trkpt lat="41.300122" lon="-6.388009">
        <ele>645.81</ele>
        <time>2021-03-27T18:40:13Z</time>
      </trkpt>
      <trkpt lat="41.301716" lon="-6.38914">
        <ele>652.1</ele>
        <time>2021-03-27T18:40:16Z</time>
      </trkpt>
      <trkpt lat="41.302042" lon="-6.389353">
        <ele>653.59</ele>
        <time>2021-03-27T18:40:18Z</time>
      </trkpt>
      <trkpt lat="41.3023" lon="-6.389461">
        <ele>655.02</ele>
        <time>2021-03-27T18:40:20Z</time>
      </trkpt>
      <trkpt lat="41.304917" lon="-6.390361">
        <ele>663.39</ele>
        <time>2021-03-27T18:40:23Z</time>
      </trkpt>
      <trkpt lat="41.307289" lon="-6.391335">
        <ele>673.9</ele>
        <time>2021-03-27T18:40:25Z</time>
      </trkpt>
      <trkpt lat="41.309858" lon="-6.392215">
        <ele>663.0</ele>
        <time>2021-03-27T18:40:27Z</time>
      </trkpt>
      <trkpt lat="41.310074" lon="-6.392337">
        <ele>663.53</ele>
        <time>2021-03-27T18:40:30Z</time>
      </trkpt>
      <trkpt lat="41.310224" lon="-6.392474">
        <ele>664.61</ele>
        <time>2021-03-27T18:40:32Z</time>
      </trkpt>
      <trkpt lat="41.311361" lon="-6.393743">
        <ele>672.85</ele>
        <time>2021-03-27T18:40:35Z</time>
      </trkpt>
      <trkpt lat="41.311502" lon="-6.393858">
        <ele>673.81</ele>
        <time>2021-03-27T18:40:37Z</time>
      </trkpt>
      <trkpt lat="41.311646" lon="-6.393925">
        <ele>674.97</ele>
        <time>2021-03-27T18:40:39Z</time>
      </trkpt>
      <trkpt lat="41.313974" lon="-6.39444">
        <ele>685.29</ele>
        <time>2021-03-27T18:40:42Z</time>
      </trkpt>
      <trkpt lat="41.314064" lon="-6.394467">
        <ele>685.71</ele>
        <time>2021-03-27T18:40:44Z</time>
      </trkpt>
      <trkpt lat="41.31419" lon="-6.394559">
        <ele>686.54</ele>
        <time>2021-03-27T18:40:47Z</time>
      </trkpt>
      <trkpt lat="41.314226" lon="-6.394526">
        <ele>686.66</ele>
        <time>2021-03-27T18:40:50Z</time>
      </trkpt>
      <trkpt lat="41.314103" lon="-6.394312">
        <ele>685.29</ele>
        <time>2021-03-27T18:40:54Z</time>
      </trkpt>
      <trkpt lat="41.313708" lon="-6.393402">
        <ele>686.1</ele>
        <time>2021-03-27T18:40:58Z</time>
      </trkpt>
      <trkpt lat="41.313719" lon="-6.393276">
        <ele>686.67</ele>
        <time>2021-03-27T18:41:02Z</time>
      </trkpt>
      <trkpt lat="41.313776" lon="-6.393146">
        <ele>687.67</ele>
        <time>2021-03-27T18:41:06Z</time>
      </trkpt>
      <trkpt lat="41.314007" lon="-6.392761">
        <ele>690.76</ele>
        <time>2021-03-27T18:41:10Z</time>
      </trkpt>
      <trkpt lat="41.314171" lon="-6.392325">
        <ele>694.07</ele>
        <time>2021-03-27T18:41:15Z</time>
      </trkpt>
      <trkpt lat="41.314365" lon="-6.392035">
        <ele>696.85</ele>
        <time>2021-03-27T18:41:19Z</time>
      </trkpt>
      <trkpt lat="41.314456" lon="-6.391938">
        <ele>698.13</ele>
        <time>2021-03-27T18:41:24Z</time>
      </trkpt>
      <trkpt lat="41.314897" lon="-6.391754">
        <ele>702.26</ele>
        <time>2021-03-27T18:41:28Z</time>
      </trkpt>
      <trkpt lat="41.315081" lon="-6.391646">
        <ele>704.11</ele>
        <time>2021-03-27T18:41:33Z</time>
      </trkpt>
      <trkpt lat="41.315233" lon="-6.391604">
        <ele>706.31</ele>
        <time>2021-03-27T18:41:38Z</time>
      </trkpt>
      <trkpt lat="41.315764" lon="-6.391482">
        <ele>709.75</ele>
        <time>2021-03-27T18:41:42Z</time>
      </trkpt>
      <trkpt lat="41.315934" lon="-6.391546">
        <ele>709.59</ele>
        <time>2021-03-27T18:41:47Z</time>
      </trkpt>
      <trkpt lat="41.315966" lon="-6.391518">
        <ele>709.55</ele>
        <time>2021-03-27T18:41:48Z</time>
      </trkpt>
      <trkpt lat="41.315905" lon="-6.391238">
        <ele>711.09</ele>
        <time>2021-03-27T18:41:52Z</time>
      </trkpt>
      <trkpt lat="41.315872" lon="-6.390985">
        <ele>713.36</ele>
        <time>2021-03-27T18:41:56Z</time>
      </trkpt>
      <trkpt lat="41.315899" lon="-6.390759">
        <ele>715.39</ele>
        <time>2021-03-27T18:42:00Z</time>
      </trkpt>
      <trkpt lat="41.315966" lon="-6.390633">
        <ele>716.41</ele>
        <time>2021-03-27T18:42:04Z</time>
      </trkpt>
      <trkpt lat="41.316187" lon="-6.390469">
        <ele>717.66</ele>
        <time>2021-03-27T18:42:08Z</time>
      </trkpt>
      <trkpt lat="41.316272" lon="-6.390371">
        <ele>717.69</ele>
        <time>2021-03-27T18:42:12Z</time>
      </trkpt>
      <trkpt lat="41.316284" lon="-6.390204">
        <ele>718.81</ele>
        <time>2021-03-27T18:42:16Z</time>
      </trkpt>
      <trkpt lat="41.316132" lon="-6.389371">
        <ele>725.13</ele>
        <time>2021-03-27T18:42:21Z</time>
      </trkpt>
      <trkpt lat="41.315897" lon="-6.388471">
        <ele>725.99</ele>
        <time>2021-03-27T18:42:25Z</time>
      </trkpt>
      <trkpt lat="41.315834" lon="-6.388148">
        <ele>725.0</ele>
        <time>2021-03-27T18:42:29Z</time>
      </trkpt>
      <trkpt lat="41.31585" lon="-6.387771">
        <ele>726.09</ele>
        <time>2021-03-27T18:42:33Z</time>
      </trkpt>
      <trkpt lat="41.315909" lon="-6.387602">
        <ele>727.08</ele>
        <time>2021-03-27T18:42:37Z</time>
      </trkpt>
      <trkpt lat="41.316054" lon="-6.387284">
        <ele>729.37</ele>
        <time>2021-03-27T18:42:42Z</time>
      </trkpt>
      <trkpt lat="41.316164" lon="-6.386983">
        <ele>730.36</ele>
        <time>2021-03-27T18:42:47Z</time>
      </trkpt>
      <trkpt lat="41.316398" lon="-6.386209">
        <ele>726.1</ele>
        <time>2021-03-27T18:42:52Z</time>
      </trkpt>
      <trkpt lat="41.316799" lon="-6.385304">
        <ele>722.61</ele>
        <time>2021-03-27T18:42:57Z</time>
      </trkpt>
      <trkpt lat="41.317189" lon="-6.384478">
        <ele>724.88</ele>
        <time>2021-03-27T18:43:02Z</time>
      </trkpt>
      <trkpt lat="41.317428" lon="-6.384103">
        <ele>726.0</ele>
        <time>2021-03-27T18:43:07Z</time>
      </trkpt>
      <trkpt lat="41.317605" lon="-6.383888">
        <ele>724.86</ele>
        <time>2021-03-27T18:43:12Z</time>
      </trkpt>
      <trkpt lat="41.317799" lon="-6.383741">
        <ele>722.13</ele>
        <time>2021-03-27T18:43:17Z</time>
      </trkpt>
      <trkpt lat="41.31794" lon="-6.383602">
        <ele>719.66</ele>
        <time>2021-03-27T18:43:22Z</time>
      </trkpt>
      <trkpt lat="41.318491" lon="-6.382997">
        <ele>714.72</ele>
        <time>2021-03-27T18:43:27Z</time>
      </trkpt>
      <trkpt lat="41.318752" lon="-6.38278">
        <ele>713.97</ele>
        <time>2021-03-27T18:43:32Z</time>
      </trkpt>
      <trkpt lat="41.319154" lon="-6.382487">
        <ele>712.14</ele>
        <time>2021-03-27T18:43:37Z</time>
      </trkpt>
      <trkpt lat="41.319234" lon="-6.382188">
        <ele>711.73</ele>
        <time>2021-03-27T18:43:40Z</time>
      </trkpt>
      <trkpt lat="41.319348" lon="-6.38185">
        <ele>712.62</ele>
        <time>2021-03-27T18:43:43Z</time>
      </trkpt>
      <trkpt lat="41.31957" lon="-6.381415">
        <ele>712.49</ele>
        <time>2021-03-27T18:43:46Z</time>
      </trkpt>
      <trkpt lat="41.320625" lon="-6.380027">
        <ele>720.3</ele>
        <time>2021-03-27T18:43:49Z</time>
      </trkpt>
      <trkpt lat="41.320878" lon="-6.379568">
        <ele>721.07</ele>
        <time>2021-03-27T18:43:51Z</time>
      </trkpt>
      <trkpt lat="41.321152" lon="-6.378631">
        <ele>719.68</ele>
        <time>2021-03-27T18:43:54Z</time>
      </trkpt>
      <trkpt lat="41.321194" lon="-6.377897">
        <ele>720.97</ele>
        <time>2021-03-27T18:43:57Z</time>
      </trkpt>
      <trkpt lat="41.321158" lon="-6.377515">
        <ele>720.71</ele>
        <time>2021-03-27T18:44:00Z</time>
      </trkpt>
      <trkpt lat="41.321246" lon="-6.377533">
        <ele>720.15</ele>
        <time>2021-03-27T18:44:03Z</time>
      </trkpt>
      <trkpt lat="41.321402" lon="-6.377728">
        <ele>719.74</ele>
        <time>2021-03-27T18:44:06Z</time>
      </trkpt>
      <trkpt lat="41.321484" lon="-6.377868">
        <ele>718.99</ele>
        <time>2021-03-27T18:44:09Z</time>
      </trkpt>
      <trkpt lat="41.321536" lon="-6.378019">
        <ele>718.07</ele>
        <time>2021-03-27T18:44:12Z</time>
      </trkpt>
      <trkpt lat="41.321565" lon="-6.378175">
        <ele>717.57</ele>
        <time>2021-03-27T18:44:15Z</time>
      </trkpt>
      <trkpt lat="41.321578" lon="-6.37841">
        <ele>717.13</ele>
        <time>2021-03-27T18:44:18Z</time>
      </trkpt>
      <trkpt lat="41.32163" lon="-6.378522">
        <ele>716.54</ele>
        <time>2021-03-27T18:44:21Z</time>
      </trkpt>
      <trkpt lat="41.322245" lon="-6.378831">
        <ele>710.44</ele>
        <time>2021-03-27T18:44:24Z</time>
      </trkpt>
      <trkpt lat="41.322393" lon="-6.378863">
        <ele>708.0</ele>
        <time>2021-03-27T18:44:26Z</time>
      </trkpt>
      <trkpt lat="41.322516" lon="-6.378853">
        <ele>706.13</ele>
        <time>2021-03-27T18:44:29Z</time>
      </trkpt>
      <trkpt lat="41.322675" lon="-6.378808">
        <ele>705.14</ele>
        <time>2021-03-27T18:44:32Z</time>
      </trkpt>
      <trkpt lat="41.322888" lon="-6.378613">
        <ele>704.2</ele>
        <time>2021-03-27T18:44:35Z</time>
      </trkpt>
      <trkpt lat="41.323885" lon="-6.377647">
        <ele>701.02</ele>
        <time>2021-03-27T18:44:38Z</time>
      </trkpt>
      <trkpt lat="41.325014" lon="-6.376444">
        <ele>708.86</ele>
        <time>2021-03-27T18:44:41Z</time>
      </trkpt>
      <trkpt lat="41.325257" lon="-6.376117">
        <ele>710.83</ele>
        <time>2021-03-27T18:44:44Z</time>
      </trkpt>
      <trkpt lat="41.325545" lon="-6.375617">
        <ele>716.08</ele>
        <time>2021-03-27T18:44:47Z</time>
      </trkpt>
      <trkpt lat="41.325751" lon="-6.375307">
        <ele>719.68</ele>
        <time>2021-03-27T18:44:50Z</time>
      </trkpt>
      <trkpt lat="41.325993" lon="-6.374983">
        <ele>719.87</ele>
        <time>2021-03-27T18:44:53Z</time>
      </trkpt>
      <trkpt lat="41.326215" lon="-6.374544">
        <ele>717.87</ele>
        <time>2021-03-27T18:44:56Z</time>
      </trkpt>
      <trkpt lat="41.327038" lon="-6.372761">
        <ele>721.1</ele>
        <time>2021-03-27T18:44:59Z</time>
      </trkpt>
      <trkpt lat="41.327891" lon="-6.371099">
        <ele>729.05</ele>
        <time>2021-03-27T18:45:02Z</time>
      </trkpt>
      <trkpt lat="41.328057" lon="-6.370749">
        <ele>729.3</ele>
        <time>2021-03-27T18:45:05Z</time>
      </trkpt>
      <trkpt lat="41.328231" lon="-6.370276">
        <ele>730.37</ele>
        <time>2021-03-27T18:45:08Z</time>
      </trkpt>
      <trkpt lat="41.328366" lon="-6.369844">
        <ele>730.61</ele>
        <time>2021-03-27T18:45:11Z</time>
      </trkpt>
      <trkpt lat="41.328588" lon="-6.368379">
        <ele>733.84</ele>
        <time>2021-03-27T18:45:14Z</time>
      </trkpt>
      <trkpt lat="41.32879" lon="-6.36744">
        <ele>736.92</ele>
        <time>2021-03-27T18:45:17Z</time>
      </trkpt>
      <trkpt lat="41.328891" lon="-6.367162">
        <ele>736.8</ele>
        <time>2021-03-27T18:45:20Z</time>
      </trkpt>
      <trkpt lat="41.328993" lon="-6.366957">
        <ele>736.79</ele>
        <time>2021-03-27T18:45:23Z</time>
      </trkpt>
      <trkpt lat="41.32923" lon="-6.366637">
        <ele>735.87</ele>
        <time>2021-03-27T18:45:26Z</time>
      </trkpt>
      <trkpt lat="41.330438" lon="-6.365427">
        <ele>725.46</ele>
        <time>2021-03-27T18:45:28Z</time>
      </trkpt>
      <trkpt lat="41.330832" lon="-6.365014">
        <ele>724.96</ele>
        <time>2021-03-27T18:45:31Z</time>
      </trkpt>
      <trkpt lat="41.331413" lon="-6.364323">
        <ele>725.35</ele>
        <time>2021-03-27T18:45:34Z</time>
      </trkpt>
      <trkpt lat="41.332085" lon="-6.363632">
        <ele>723.49</ele>
        <time>2021-03-27T18:45:37Z</time>
      </trkpt>
      <trkpt lat="41.332177" lon="-6.363566">
        <ele>723.03</ele>
        <time>2021-03-27T18:45:40Z</time>
      </trkpt>
      <trkpt lat="41.332311" lon="-6.363587">
        <ele>723.18</ele>
        <time>2021-03-27T18:45:43Z</time>
      </trkpt>
      <trkpt lat="41.332505" lon="-6.363695">
        <ele>724.02</ele>
        <time>2021-03-27T18:45:46Z</time>
      </trkpt>
      <trkpt lat="41.333758" lon="-6.364839">
        <ele>721.16</ele>
        <time>2021-03-27T18:45:49Z</time>
      </trkpt>
      <trkpt lat="41.334988" lon="-6.365905">
        <ele>713.03</ele>
        <time>2021-03-27T18:45:52Z</time>
      </trkpt>
      <trkpt lat="41.335086" lon="-6.365972">
        <ele>712.53</ele>
        <time>2021-03-27T18:45:55Z</time>
      </trkpt>
      <trkpt lat="41.335201" lon="-6.365982">
        <ele>711.94</ele>
        <time>2021-03-27T18:45:58Z</time>
      </trkpt>
      <trkpt lat="41.340213" lon="-6.364099">
        <ele>663.69</ele>
        <time>2021-03-27T18:46:01Z</time>
      </trkpt>
      <trkpt lat="41.340309" lon="-6.364031">
        <ele>661.7</ele>
        <time>2021-03-27T18:46:04Z</time>
      </trkpt>
      <trkpt lat="41.340376" lon="-6.363923">
        <ele>660.13</ele>
        <time>2021-03-27T18:46:07Z</time>
      </trkpt>
      <trkpt lat="41.340435" lon="-6.363732">
        <ele>657.59</ele>
        <time>2021-03-27T18:46:10Z</time>
      </trkpt>
      <trkpt lat="41.340537" lon="-6.363217">
        <ele>653.5</ele>
        <time>2021-03-27T18:46:13Z</time>
      </trkpt>
      <trkpt lat="41.340576" lon="-6.363156">
        <ele>652.38</ele>
        <time>2021-03-27T18:46:16Z</time>
      </trkpt>
      <trkpt lat="41.34065" lon="-6.363127">
        <ele>650.91</ele>
        <time>2021-03-27T18:46:19Z</time>
      </trkpt>
      <trkpt lat="41.340704" lon="-6.363157">
        <ele>650.24</ele>
        <time>2021-03-27T18:46:22Z</time>
      </trkpt>
      <trkpt lat="41.340784" lon="-6.363266">
        <ele>650.02</ele>
        <time>2021-03-27T18:46:25Z</time>
      </trkpt>
      <trkpt lat="41.341138" lon="-6.363891">
        <ele>646.52</ele>
        <time>2021-03-27T18:46:28Z</time>
      </trkpt>
      <trkpt lat="41.341499" lon="-6.364478">
        <ele>643.97</ele>
        <time>2021-03-27T18:46:30Z</time>
      </trkpt>
      <trkpt lat="41.34159" lon="-6.364553">
        <ele>642.1</ele>
        <time>2021-03-27T18:46:33Z</time>
      </trkpt>
      <trkpt lat="41.341672" lon="-6.364521">
        <ele>640.59</ele>
        <time>2021-03-27T18:46:36Z</time>
      </trkpt>
      <trkpt lat="41.341764" lon="-6.364414">
        <ele>638.87</ele>
        <time>2021-03-27T18:46:39Z</time>
      </trkpt>
      <trkpt lat="41.342617" lon="-6.362857">
        <ele>640.26</ele>
        <time>2021-03-27T18:46:42Z</time>
      </trkpt>
      <trkpt lat="41.342701" lon="-6.362786">
        <ele>641.17</ele>
        <time>2021-03-27T18:46:45Z</time>
      </trkpt>
      <trkpt lat="41.342786" lon="-6.362763">
        <ele>641.98</ele>
        <time>2021-03-27T18:46:48Z</time>
      </trkpt>
      <trkpt lat="41.342873" lon="-6.36278">
        <ele>642.35</ele>
        <time>2021-03-27T18:46:51Z</time>
      </trkpt>
      <trkpt lat="41.343398" lon="-6.363122">
        <ele>647.65</ele>
        <time>2021-03-27T18:46:54Z</time>
      </trkpt>
      <trkpt lat="41.343539" lon="-6.363144">
        <ele>648.56</ele>
        <time>2021-03-27T18:46:57Z</time>
      </trkpt>
      <trkpt lat="41.343646" lon="-6.363125">
        <ele>649.5</ele>
        <time>2021-03-27T18:47:00Z</time>
      </trkpt>
      <trkpt lat="41.343772" lon="-6.363064">
        <ele>651.31</ele>
        <time>2021-03-27T18:47:03Z</time>
      </trkpt>
      <trkpt lat="41.34563" lon="-6.36176">
        <ele>671.42</ele>
        <time>2021-03-27T18:47:06Z</time>
      </trkpt>
      <trkpt lat="41.346199" lon="-6.361401">
        <ele>673.64</ele>
        <time>2021-03-27T18:47:09Z</time>
      </trkpt>
      <trkpt lat="41.348221" lon="-6.360248">
        <ele>684.4</ele>
        <time>2021-03-27T18:47:12Z</time>
      </trkpt>
      <trkpt lat="41.348457" lon="-6.360143">
        <ele>687.3</ele>
        <time>2021-03-27T18:47:15Z</time>
      </trkpt>
      <trkpt lat="41.348606" lon="-6.360114">
        <ele>689.13</ele>
        <time>2021-03-27T18:47:18Z</time>
      </trkpt>
      <trkpt lat="41.348758" lon="-6.360129">
        <ele>689.85</ele>
        <time>2021-03-27T18:47:21Z</time>
      </trkpt>
      <trkpt lat="41.349886" lon="-6.360448">
        <ele>688.77</ele>
        <time>2021-03-27T18:47:24Z</time>
      </trkpt>
      <trkpt lat="41.350975" lon="-6.360643">
        <ele>683.79</ele>
        <time>2021-03-27T18:47:27Z</time>
      </trkpt>
      <trkpt lat="41.351168" lon="-6.360713">
        <ele>682.04</ele>
        <time>2021-03-27T18:47:30Z</time>
      </trkpt>
      <trkpt lat="41.351363" lon="-6.360826">
        <ele>680.27</ele>
        <time>2021-03-27T18:47:32Z</time>
      </trkpt>
      <trkpt lat="41.352051" lon="-6.361335">
        <ele>676.73</ele>
        <time>2021-03-27T18:47:35Z</time>
      </trkpt>
      <trkpt lat="41.35305" lon="-6.362115">
        <ele>670.82</ele>
        <time>2021-03-27T18:47:38Z</time>
      </trkpt>
      <trkpt lat="41.353273" lon="-6.362263">
        <ele>667.47</ele>
        <time>2021-03-27T18:47:41Z</time>
      </trkpt>
      <trkpt lat="41.353458" lon="-6.362373">
        <ele>666.7</ele>
        <time>2021-03-27T18:47:44Z</time>
      </trkpt>
      <trkpt lat="41.354003" lon="-6.362558">
        <ele>663.77</ele>
        <time>2021-03-27T18:47:47Z</time>
      </trkpt>
      <trkpt lat="41.354235" lon="-6.362566">
        <ele>660.73</ele>
        <time>2021-03-27T18:47:50Z</time>
      </trkpt>
      <trkpt lat="41.354556" lon="-6.362526">
        <ele>658.11</ele>
        <time>2021-03-27T18:47:53Z</time>
      </trkpt>
      <trkpt lat="41.35585" lon="-6.36204">
        <ele>644.59</ele>
        <time>2021-03-27T18:47:56Z</time>
      </trkpt>
      <trkpt lat="41.356178" lon="-6.361948">
        <ele>643.99</ele>
        <time>2021-03-27T18:47:59Z</time>
      </trkpt>
      <trkpt lat="41.35638" lon="-6.36193">
        <ele>644.05</ele>
        <time>2021-03-27T18:48:02Z</time>
      </trkpt>
      <trkpt lat="41.356556" lon="-6.361939">
        <ele>644.62</ele>
        <time>2021-03-27T18:48:05Z</time>
      </trkpt>
      <trkpt lat="41.356683" lon="-6.362017">
        <ele>644.9</ele>
        <time>2021-03-27T18:48:08Z</time>
      </trkpt>
      <trkpt lat="41.356829" lon="-6.36217">
        <ele>645.46</ele>
        <time>2021-03-27T18:48:11Z</time>
      </trkpt>
      <trkpt lat="41.357834" lon="-6.363536">
        <ele>648.98</ele>
        <time>2021-03-27T18:48:14Z</time>
      </trkpt>
      <trkpt lat="41.358151" lon="-6.363908">
        <ele>651.98</ele>
        <time>2021-03-27T18:48:17Z</time>
      </trkpt>
      <trkpt lat="41.358259" lon="-6.36398">
        <ele>652.72</ele>
        <time>2021-03-27T18:48:20Z</time>
      </trkpt>
      <trkpt lat="41.358457" lon="-6.364073">
        <ele>653.71</ele>
        <time>2021-03-27T18:48:23Z</time>
      </trkpt>
      <trkpt lat="41.360089" lon="-6.36466">
        <ele>659.05</ele>
        <time>2021-03-27T18:48:26Z</time>
      </trkpt>
      <trkpt lat="41.36038" lon="-6.364799">
        <ele>656.98</ele>
        <time>2021-03-27T18:48:29Z</time>
      </trkpt>
      <trkpt lat="41.360688" lon="-6.364972">
        <ele>654.78</ele>
        <time>2021-03-27T18:48:32Z</time>
      </trkpt>
      <trkpt lat="41.361821" lon="-6.365713">
        <ele>659.04</ele>
        <time>2021-03-27T18:48:34Z</time>
      </trkpt>
      <trkpt lat="41.361978" lon="-6.365796">
        <ele>658.77</ele>
        <time>2021-03-27T18:48:37Z</time>
      </trkpt>
      <trkpt lat="41.362724" lon="-6.365961">
        <ele>661.71</ele>
        <time>2021-03-27T18:48:40Z</time>
      </trkpt>
      <trkpt lat="41.36308" lon="-6.366012">
        <ele>660.98</ele>
        <time>2021-03-27T18:48:43Z</time>
      </trkpt>
      <trkpt lat="41.363258" lon="-6.366022">
        <ele>660.23</ele>
        <time>2021-03-27T18:48:46Z</time>
      </trkpt>
      <trkpt lat="41.363381" lon="-6.366002">
        <ele>659.9</ele>
        <time>2021-03-27T18:48:49Z</time>
      </trkpt>
      <trkpt lat="41.363622" lon="-6.365875">
        <ele>660.33</ele>
        <time>2021-03-27T18:48:52Z</time>
      </trkpt>
      <trkpt lat="41.364682" lon="-6.365187">
        <ele>662.74</ele>
        <time>2021-03-27T18:48:55Z</time>
      </trkpt>
      <trkpt lat="41.364896" lon="-6.365143">
        <ele>664.39</ele>
        <time>2021-03-27T18:48:58Z</time>
      </trkpt>
      <trkpt lat="41.36504" lon="-6.365143">
        <ele>665.08</ele>
        <time>2021-03-27T18:49:01Z</time>
      </trkpt>
      <trkpt lat="41.366686" lon="-6.365436">
        <ele>670.93</ele>
        <time>2021-03-27T18:49:04Z</time>
      </trkpt>
      <trkpt lat="41.366914" lon="-6.3655">
        <ele>671.29</ele>
        <time>2021-03-27T18:49:07Z</time>
      </trkpt>
      <trkpt lat="41.368335" lon="-6.366223">
        <ele>664.38</ele>
        <time>2021-03-27T18:49:10Z</time>
      </trkpt>
      <trkpt lat="41.368545" lon="-6.366265">
        <ele>662.68</ele>
        <time>2021-03-27T18:49:13Z</time>
      </trkpt>
      <trkpt lat="41.368877" lon="-6.366265">
        <ele>660.95</ele>
        <time>2021-03-27T18:49:16Z</time>
      </trkpt>
      <trkpt lat="41.369308" lon="-6.366233">
        <ele>659.39</ele>
        <time>2021-03-27T18:49:19Z</time>
      </trkpt>
      <trkpt lat="41.369731" lon="-6.366133">
        <ele>657.75</ele>
        <time>2021-03-27T18:49:22Z</time>
      </trkpt>
      <trkpt lat="41.37011" lon="-6.366155">
        <ele>654.62</ele>
        <time>2021-03-27T18:49:25Z</time>
      </trkpt>
      <trkpt lat="41.371284" lon="-6.366505">
        <ele>649.86</ele>
        <time>2021-03-27T18:49:28Z</time>
      </trkpt>
      <trkpt lat="41.372785" lon="-6.366813">
        <ele>639.37</ele>
        <time>2021-03-27T18:49:31Z</time>
      </trkpt>
      <trkpt lat="41.372905" lon="-6.366857">
        <ele>638.02</ele>
        <time>2021-03-27T18:49:33Z</time>
      </trkpt>
      <trkpt lat="41.372987" lon="-6.366948">
        <ele>636.45</ele>
        <time>2021-03-27T18:49:36Z</time>
      </trkpt>
      <trkpt lat="41.37306" lon="-6.367095">
        <ele>634.34</ele>
        <time>2021-03-27T18:49:39Z</time>
      </trkpt>
      <trkpt lat="41.37335" lon="-6.368047">
        <ele>630.21</ele>
        <time>2021-03-27T18:49:42Z</time>
      </trkpt>
      <trkpt lat="41.373367" lon="-6.368234">
        <ele>630.37</ele>
        <time>2021-03-27T18:49:45Z</time>
      </trkpt>
      <trkpt lat="41.373321" lon="-6.368434">
        <ele>629.46</ele>
        <time>2021-03-27T18:49:48Z</time>
      </trkpt>
      <trkpt lat="41.372912" lon="-6.369452">
        <ele>628.47</ele>
        <time>2021-03-27T18:49:51Z</time>
      </trkpt>
      <trkpt lat="41.372809" lon="-6.369651">
        <ele>628.63</ele>
        <time>2021-03-27T18:49:54Z</time>
      </trkpt>
      <trkpt lat="41.372366" lon="-6.370393">
        <ele>631.7</ele>
        <time>2021-03-27T18:49:57Z</time>
      </trkpt>
      <trkpt lat="41.372252" lon="-6.370651">
        <ele>633.94</ele>
        <time>2021-03-27T18:50:00Z</time>
      </trkpt>
      <trkpt lat="41.372168" lon="-6.370891">
        <ele>634.38</ele>
        <time>2021-03-27T18:50:03Z</time>
      </trkpt>
      <trkpt lat="41.372142" lon="-6.371067">
        <ele>633.89</ele>
        <time>2021-03-27T18:50:06Z</time>
      </trkpt>
      <trkpt lat="41.372143" lon="-6.371213">
        <ele>633.86</ele>
        <time>2021-03-27T18:50:09Z</time>
      </trkpt>
      <trkpt lat="41.372182" lon="-6.371387">
        <ele>634.42</ele>
        <time>2021-03-27T18:50:12Z</time>
      </trkpt>
      <trkpt lat="41.372256" lon="-6.371539">
        <ele>634.7</ele>
        <time>2021-03-27T18:50:15Z</time>
      </trkpt>
      <trkpt lat="41.373029" lon="-6.372868">
        <ele>632.64</ele>
        <time>2021-03-27T18:50:18Z</time>
      </trkpt>
      <trkpt lat="41.3732" lon="-6.373084">
        <ele>632.72</ele>
        <time>2021-03-27T18:50:21Z</time>
      </trkpt>
      <trkpt lat="41.373447" lon="-6.373295">
        <ele>631.54</ele>
        <time>2021-03-27T18:50:24Z</time>
      </trkpt>
      <trkpt lat="41.373541" lon="-6.373404">
        <ele>630.24</ele>
        <time>2021-03-27T18:50:27Z</time>
      </trkpt>
      <trkpt lat="41.37383" lon="-6.373982">
        <ele>626.45</ele>
        <time>2021-03-27T18:50:30Z</time>
      </trkpt>
      <trkpt lat="41.373889" lon="-6.374207">
        <ele>626.0</ele>
        <time>2021-03-27T18:50:33Z</time>
      </trkpt>
      <trkpt lat="41.3739" lon="-6.374404">
        <ele>626.11</ele>
        <time>2021-03-27T18:50:35Z</time>
      </trkpt>
      <trkpt lat="41.373876" lon="-6.374618">
        <ele>626.53</ele>
        <time>2021-03-27T18:50:38Z</time>
      </trkpt>
      <trkpt lat="41.373626" lon="-6.375905">
        <ele>633.15</ele>
        <time>2021-03-27T18:50:41Z</time>
      </trkpt>
      <trkpt lat="41.373631" lon="-6.376039">
        <ele>633.16</ele>
        <time>2021-03-27T18:50:44Z</time>
      </trkpt>
      <trkpt lat="41.373741" lon="-6.376554">
        <ele>632.94</ele>
        <time>2021-03-27T18:50:47Z</time>
      </trkpt>
      <trkpt lat="41.373755" lon="-6.37672">
        <ele>633.23</ele>
        <time>2021-03-27T18:50:50Z</time>
      </trkpt>
      <trkpt lat="41.373746" lon="-6.376951">
        <ele>633.99</ele>
        <time>2021-03-27T18:50:53Z</time>
      </trkpt>
      <trkpt lat="41.37367" lon="-6.377397">
        <ele>634.85</ele>
        <time>2021-03-27T18:50:56Z</time>
      </trkpt>
      <trkpt lat="41.373144" lon="-6.378787">
        <ele>631.74</ele>
        <time>2021-03-27T18:50:59Z</time>
      </trkpt>
      <trkpt lat="41.372962" lon="-6.379237">
        <ele>632.16</ele>
        <time>2021-03-27T18:51:02Z</time>
      </trkpt>
      <trkpt lat="41.372889" lon="-6.379382">
        <ele>632.15</ele>
        <time>2021-03-27T18:51:05Z</time>
      </trkpt>
      <trkpt lat="41.372913" lon="-6.379676">
        <ele>633.8</ele>
        <time>2021-03-27T18:51:08Z</time>
      </trkpt>
      <trkpt lat="41.373014" lon="-6.379957">
        <ele>633.98</ele>
        <time>2021-03-27T18:51:11Z</time>
      </trkpt>
      <trkpt lat="41.37311" lon="-6.380037">
        <ele>633.93</ele>
        <time>2021-03-27T18:51:13Z</time>
      </trkpt>
      <trkpt lat="41.373174" lon="-6.380046">
        <ele>634.09</ele>
        <time>2021-03-27T18:51:16Z</time>
      </trkpt>
      <trkpt lat="41.373268" lon="-6.380026">
        <ele>634.58</ele>
        <time>2021-03-27T18:51:19Z</time>
      </trkpt>
      <trkpt lat="41.373344" lon="-6.37997">
        <ele>635.21</ele>
        <time>2021-03-27T18:51:22Z</time>
      </trkpt>
      <trkpt lat="41.373444" lon="-6.379828">
        <ele>636.24</ele>
        <time>2021-03-27T18:51:24Z</time>
      </trkpt>
      <trkpt lat="41.37382" lon="-6.379048">
        <ele>639.9</ele>
        <time>2021-03-27T18:51:27Z</time>
      </trkpt>
      <trkpt lat="41.373935" lon="-6.378892">
        <ele>640.33</ele>
        <time>2021-03-27T18:51:30Z</time>
      </trkpt>
      <trkpt lat="41.374507" lon="-6.378438">
        <ele>646.47</ele>
        <time>2021-03-27T18:51:33Z</time>
      </trkpt>
      <trkpt lat="41.374669" lon="-6.378226">
        <ele>648.51</ele>
        <time>2021-03-27T18:51:35Z</time>
      </trkpt>
      <trkpt lat="41.374867" lon="-6.377857">
        <ele>650.47</ele>
        <time>2021-03-27T18:51:38Z</time>
      </trkpt>
      <trkpt lat="41.375013" lon="-6.377667">
        <ele>650.25</ele>
        <time>2021-03-27T18:51:41Z</time>
      </trkpt>
      <trkpt lat="41.375396" lon="-6.377438">
        <ele>649.95</ele>
        <time>2021-03-27T18:51:44Z</time>
      </trkpt>
      <trkpt lat="41.375522" lon="-6.377325">
        <ele>650.1</ele>
        <time>2021-03-27T18:51:46Z</time>
      </trkpt>
      <trkpt lat="41.375653" lon="-6.377134">
        <ele>651.06</ele>
        <time>2021-03-27T18:51:49Z</time>
      </trkpt>
      <trkpt lat="41.375826" lon="-6.376705">
        <ele>653.77</ele>
        <time>2021-03-27T18:51:52Z</time>
      </trkpt>
      <trkpt lat="41.376" lon="-6.376373">
        <ele>655.22</ele>
        <time>2021-03-27T18:51:55Z</time>
      </trkpt>
      <trkpt lat="41.376199" lon="-6.376151">
        <ele>657.27</ele>
        <time>2021-03-27T18:51:57Z</time>
      </trkpt>
      <trkpt lat="41.376512" lon="-6.375888">
        <ele>659.28</ele>
        <time>2021-03-27T18:52:00Z</time>
      </trkpt>
      <trkpt lat="41.376668" lon="-6.375723">
        <ele>659.6</ele>
        <time>2021-03-27T18:52:03Z</time>
      </trkpt>
      <trkpt lat="41.3771" lon="-6.375134">
        <ele>658.44</ele>
        <time>2021-03-27T18:52:05Z</time>
      </trkpt>
      <trkpt lat="41.37731" lon="-6.374692">
        <ele>657.36</ele>
        <time>2021-03-27T18:52:08Z</time>
      </trkpt>
      <trkpt lat="41.377411" lon="-6.374362">
        <ele>656.93</ele>
        <time>2021-03-27T18:52:11Z</time>
      </trkpt>
      <trkpt lat="41.377505" lon="-6.373959">
        <ele>658.47</ele>
        <time>2021-03-27T18:52:14Z</time>
      </trkpt>
      <trkpt lat="41.377625" lon="-6.373196">
        <ele>659.05</ele>
        <time>2021-03-27T18:52:16Z</time>
      </trkpt>
      <trkpt lat="41.377858" lon="-6.372485">
        <ele>661.07</ele>
        <time>2021-03-27T18:52:19Z</time>
      </trkpt>
      <trkpt lat="41.378044" lon="-6.372042">
        <ele>662.96</ele>
        <time>2021-03-27T18:52:22Z</time>
      </trkpt>
      <trkpt lat="41.378595" lon="-6.3712">
        <ele>669.38</ele>
        <time>2021-03-27T18:52:25Z</time>
      </trkpt>
      <trkpt lat="41.378696" lon="-6.371015">
        <ele>670.73</ele>
        <time>2021-03-27T18:52:27Z</time>
      </trkpt>
      <trkpt lat="41.378747" lon="-6.370884">
        <ele>671.96</ele>
        <time>2021-03-27T18:52:30Z</time>
      </trkpt>
      <trkpt lat="41.378801" lon="-6.370666">
        <ele>674.31</ele>
        <time>2021-03-27T18:52:33Z</time>
      </trkpt>
      <trkpt lat="41.378833" lon="-6.370418">
        <ele>675.5</ele>
        <time>2021-03-27T18:52:36Z</time>
      </trkpt>
      <trkpt lat="41.378828" lon="-6.369722">
        <ele>675.09</ele>
        <time>2021-03-27T18:52:38Z</time>
      </trkpt>
      <trkpt lat="41.37881" lon="-6.369543">
        <ele>675.87</ele>
        <time>2021-03-27T18:52:41Z</time>
      </trkpt>
      <trkpt lat="41.378769" lon="-6.369361">
        <ele>676.47</ele>
        <time>2021-03-27T18:52:44Z</time>
      </trkpt>
      <trkpt lat="41.378694" lon="-6.369161">
        <ele>676.37</ele>
        <time>2021-03-27T18:52:47Z</time>
      </trkpt>
      <trkpt lat="41.378328" lon="-6.368374">
        <ele>669.59</ele>
        <time>2021-03-27T18:52:49Z</time>
      </trkpt>
      <trkpt lat="41.378234" lon="-6.368121">
        <ele>669.08</ele>
        <time>2021-03-27T18:52:52Z</time>
      </trkpt>
      <trkpt lat="41.378202" lon="-6.367973">
        <ele>669.16</ele>
        <time>2021-03-27T18:52:55Z</time>
      </trkpt>
      <trkpt lat="41.378188" lon="-6.367784">
        <ele>669.47</ele>
        <time>2021-03-27T18:52:58Z</time>
      </trkpt>
      <trkpt lat="41.378197" lon="-6.367538">
        <ele>669.07</ele>
        <time>2021-03-27T18:53:00Z</time>
      </trkpt>
      <trkpt lat="41.378285" lon="-6.366448">
        <ele>664.83</ele>
        <time>2021-03-27T18:53:03Z</time>
      </trkpt>
      <trkpt lat="41.378383" lon="-6.365712">
        <ele>664.74</ele>
        <time>2021-03-27T18:53:06Z</time>
      </trkpt>
      <trkpt lat="41.378393" lon="-6.365544">
        <ele>664.59</ele>
        <time>2021-03-27T18:53:09Z</time>
      </trkpt>
      <trkpt lat="41.378384" lon="-6.365394">
        <ele>665.01</ele>
        <time>2021-03-27T18:53:11Z</time>
      </trkpt>
      <trkpt lat="41.378352" lon="-6.365256">
        <ele>665.58</ele>
        <time>2021-03-27T18:53:14Z</time>
      </trkpt>
      <trkpt lat="41.377961" lon="-6.364113">
        <ele>662.16</ele>
        <time>2021-03-27T18:53:17Z</time>
      </trkpt>
      <trkpt lat="41.377827" lon="-6.363881">
        <ele>663.27</ele>
        <time>2021-03-27T18:53:20Z</time>
      </trkpt>
      <trkpt lat="41.37719" lon="-6.363254">
        <ele>668.18</ele>
        <time>2021-03-27T18:53:22Z</time>
      </trkpt>
      <trkpt lat="41.376886" lon="-6.36252">
        <ele>670.42</ele>
        <time>2021-03-27T18:53:25Z</time>
      </trkpt>
      <trkpt lat="41.376527" lon="-6.362143">
        <ele>671.58</ele>
        <time>2021-03-27T18:53:28Z</time>
      </trkpt>
      <trkpt lat="41.37604" lon="-6.361387">
        <ele>672.0</ele>
        <time>2021-03-27T18:53:31Z</time>
      </trkpt>
      <trkpt lat="41.375028" lon="-6.360579">
        <ele>674.72</ele>
        <time>2021-03-27T18:53:33Z</time>
      </trkpt>
      <trkpt lat="41.374232" lon="-6.360319">
        <ele>680.65</ele>
        <time>2021-03-27T18:53:36Z</time>
      </trkpt>
      <trkpt lat="41.373904" lon="-6.359941">
        <ele>681.46</ele>
        <time>2021-03-27T18:53:39Z</time>
      </trkpt>
      <trkpt lat="41.373029" lon="-6.359204">
        <ele>683.37</ele>
        <time>2021-03-27T18:53:41Z</time>
      </trkpt>
      <trkpt lat="41.372821" lon="-6.359142">
        <ele>686.48</ele>
        <time>2021-03-27T18:53:44Z</time>
      </trkpt>
      <trkpt lat="41.372467" lon="-6.359257">
        <ele>690.2</ele>
        <time>2021-03-27T18:53:47Z</time>
      </trkpt>
      <trkpt lat="41.372232" lon="-6.359238">
        <ele>691.68</ele>
        <time>2021-03-27T18:53:50Z</time>
      </trkpt>
      <trkpt lat="41.370977" lon="-6.358615">
        <ele>697.48</ele>
        <time>2021-03-27T18:53:52Z</time>
      </trkpt>
      <trkpt lat="41.370531" lon="-6.358293">
        <ele>696.63</ele>
        <time>2021-03-27T18:53:55Z</time>
      </trkpt>
      <trkpt lat="41.369226" lon="-6.357789">
        <ele>697.21</ele>
        <time>2021-03-27T18:53:58Z</time>
      </trkpt>
      <trkpt lat="41.368917" lon="-6.35771">
        <ele>697.8</ele>
        <time>2021-03-27T18:54:01Z</time>
      </trkpt>
      <trkpt lat="41.368017" lon="-6.357678">
        <ele>709.07</ele>
        <time>2021-03-27T18:54:03Z</time>
      </trkpt>
      <trkpt lat="41.36738" lon="-6.357479">
        <ele>711.96</ele>
        <time>2021-03-27T18:54:06Z</time>
      </trkpt>
      <trkpt lat="41.367019" lon="-6.357287">
        <ele>712.73</ele>
        <time>2021-03-27T18:54:09Z</time>
      </trkpt>
      <trkpt lat="41.366919" lon="-6.357158">
        <ele>713.11</ele>
        <time>2021-03-27T18:54:12Z</time>
      </trkpt>
      <trkpt lat="41.366751" lon="-6.356725">
        <ele>714.63</ele>
        <time>2021-03-27T18:54:14Z</time>
      </trkpt>
      <trkpt lat="41.36653" lon="-6.356011">
        <ele>716.31</ele>
        <time>2021-03-27T18:54:17Z</time>
      </trkpt>
      <trkpt lat="41.366422" lon="-6.354732">
        <ele>721.63</ele>
        <time>2021-03-27T18:54:20Z</time>
      </trkpt>
      <trkpt lat="41.366226" lon="-6.35373">
        <ele>719.66</ele>
        <time>2021-03-27T18:54:23Z</time>
      </trkpt>
      <trkpt lat="41.365552" lon="-6.35177">
        <ele>718.99</ele>
        <time>2021-03-27T18:54:25Z</time>
      </trkpt>
      <trkpt lat="41.365178" lon="-6.350932">
        <ele>720.87</ele>
        <time>2021-03-27T18:54:28Z</time>
      </trkpt>
      <trkpt lat="41.364148" lon="-6.347238">
        <ele>724.93</ele>
        <time>2021-03-27T18:54:31Z</time>
      </trkpt>
      <trkpt lat="41.364069" lon="-6.347081">
        <ele>724.65</ele>
        <time>2021-03-27T18:54:34Z</time>
      </trkpt>
      <trkpt lat="41.363884" lon="-6.346886">
        <ele>724.0</ele>
        <time>2021-03-27T18:54:36Z</time>
      </trkpt>
      <trkpt lat="41.362855" lon="-6.346197">
        <ele>723.22</ele>
        <time>2021-03-27T18:54:39Z</time>
      </trkpt>
      <trkpt lat="41.361891" lon="-6.345215">
        <ele>724.86</ele>
        <time>2021-03-27T18:54:42Z</time>
      </trkpt>
      <trkpt lat="41.361668" lon="-6.345035">
        <ele>725.86</ele>
        <time>2021-03-27T18:54:45Z</time>
      </trkpt>
      <trkpt lat="41.361389" lon="-6.344906">
        <ele>726.34</ele>
        <time>2021-03-27T18:54:47Z</time>
      </trkpt>
      <trkpt lat="41.360456" lon="-6.344608">
        <ele>727.15</ele>
        <time>2021-03-27T18:54:50Z</time>
      </trkpt>
      <trkpt lat="41.359783" lon="-6.344364">
        <ele>730.79</ele>
        <time>2021-03-27T18:54:53Z</time>
      </trkpt>
      <trkpt lat="41.359005" lon="-6.344158">
        <ele>737.2</ele>
        <time>2021-03-27T18:54:56Z</time>
      </trkpt>
      <trkpt lat="41.358371" lon="-6.343923">
        <ele>741.62</ele>
        <time>2021-03-27T18:54:58Z</time>
      </trkpt>
      <trkpt lat="41.358197" lon="-6.34384">
        <ele>742.66</ele>
        <time>2021-03-27T18:55:01Z</time>
      </trkpt>
      <trkpt lat="41.358065" lon="-6.34375">
        <ele>743.46</ele>
        <time>2021-03-27T18:55:04Z</time>
      </trkpt>
      <trkpt lat="41.357822" lon="-6.34349">
        <ele>744.0</ele>
        <time>2021-03-27T18:55:07Z</time>
      </trkpt>
      <trkpt lat="41.357632" lon="-6.343248">
        <ele>744.97</ele>
        <time>2021-03-27T18:55:09Z</time>
      </trkpt>
      <trkpt lat="41.357486" lon="-6.34301">
        <ele>746.1</ele>
        <time>2021-03-27T18:55:12Z</time>
      </trkpt>
      <trkpt lat="41.356819" lon="-6.3416">
        <ele>744.66</ele>
        <time>2021-03-27T18:55:15Z</time>
      </trkpt>
      <trkpt lat="41.356635" lon="-6.341305">
        <ele>745.41</ele>
        <time>2021-03-27T18:55:17Z</time>
      </trkpt>
      <trkpt lat="41.356466" lon="-6.341149">
        <ele>746.58</ele>
        <time>2021-03-27T18:55:20Z</time>
      </trkpt>
      <trkpt lat="41.35468" lon="-6.339976">
        <ele>750.69</ele>
        <time>2021-03-27T18:55:23Z</time>
      </trkpt>
      <trkpt lat="41.354513" lon="-6.339796">
        <ele>749.33</ele>
        <time>2021-03-27T18:55:26Z</time>
      </trkpt>
      <trkpt lat="41.354263" lon="-6.339418">
        <ele>749.65</ele>
        <time>2021-03-27T18:55:28Z</time>
      </trkpt>
      <trkpt lat="41.354151" lon="-6.339135">
        <ele>750.05</ele>
        <time>2021-03-27T18:55:31Z</time>
      </trkpt>
      <trkpt lat="41.353983" lon="-6.338175">
        <ele>747.09</ele>
        <time>2021-03-27T18:55:34Z</time>
      </trkpt>
      <trkpt lat="41.353957" lon="-6.337919">
        <ele>746.52</ele>
        <time>2021-03-27T18:55:37Z</time>
      </trkpt>
      <trkpt lat="41.353979" lon="-6.337609">
        <ele>746.02</ele>
        <time>2021-03-27T18:55:39Z</time>
      </trkpt>
      <trkpt lat="41.35415" lon="-6.336762">
        <ele>744.36</ele>
        <time>2021-03-27T18:55:42Z</time>
      </trkpt>
      <trkpt lat="41.354169" lon="-6.336605">
        <ele>743.53</ele>
        <time>2021-03-27T18:55:45Z</time>
      </trkpt>
      <trkpt lat="41.354169" lon="-6.33646">
        <ele>742.47</ele>
        <time>2021-03-27T18:55:48Z</time>
      </trkpt>
      <trkpt lat="41.35404" lon="-6.335003">
        <ele>739.99</ele>
        <time>2021-03-27T18:55:50Z</time>
      </trkpt>
      <trkpt lat="41.354018" lon="-6.33467">
        <ele>742.34</ele>
        <time>2021-03-27T18:55:53Z</time>
      </trkpt>
      <trkpt lat="41.354025" lon="-6.334517">
        <ele>743.12</ele>
        <time>2021-03-27T18:55:56Z</time>
      </trkpt>
      <trkpt lat="41.35409" lon="-6.334354">
        <ele>743.6</ele>
        <time>2021-03-27T18:55:59Z</time>
      </trkpt>
      <trkpt lat="41.354142" lon="-6.334273">
        <ele>743.7</ele>
        <time>2021-03-27T18:56:01Z</time>
      </trkpt>
      <trkpt lat="41.354326" lon="-6.334118">
        <ele>744.25</ele>
        <time>2021-03-27T18:56:04Z</time>
      </trkpt>
      <trkpt lat="41.354551" lon="-6.334028">
        <ele>743.92</ele>
        <time>2021-03-27T18:56:07Z</time>
      </trkpt>
      <trkpt lat="41.355076" lon="-6.333948">
        <ele>742.73</ele>
        <time>2021-03-27T18:56:10Z</time>
      </trkpt>
      <trkpt lat="41.355238" lon="-6.333847">
        <ele>743.15</ele>
        <time>2021-03-27T18:56:12Z</time>
      </trkpt>
      <trkpt lat="41.355309" lon="-6.333773">
        <ele>743.28</ele>
        <time>2021-03-27T18:56:15Z</time>
      </trkpt>
      <trkpt lat="41.356166" lon="-6.332514">
        <ele>739.22</ele>
        <time>2021-03-27T18:56:18Z</time>
      </trkpt>
      <trkpt lat="41.356402" lon="-6.332073">
        <ele>737.37</ele>
        <time>2021-03-27T18:56:21Z</time>
      </trkpt>
      <trkpt lat="41.356462" lon="-6.331925">
        <ele>737.27</ele>
        <time>2021-03-27T18:56:23Z</time>
      </trkpt>
      <trkpt lat="41.356496" lon="-6.331794">
        <ele>737.38</ele>
        <time>2021-03-27T18:56:26Z</time>
      </trkpt>
      <trkpt lat="41.356642" lon="-6.330613">
        <ele>736.09</ele>
        <time>2021-03-27T18:56:29Z</time>
      </trkpt>
      <trkpt lat="41.356633" lon="-6.330381">
        <ele>736.04</ele>
        <time>2021-03-27T18:56:32Z</time>
      </trkpt>
      <trkpt lat="41.356581" lon="-6.330144">
        <ele>736.48</ele>
        <time>2021-03-27T18:56:34Z</time>
      </trkpt>
      <trkpt lat="41.356625" lon="-6.330216">
        <ele>736.22</ele>
        <time>2021-03-27T18:56:38Z</time>
      </trkpt>
      <trkpt lat="41.356713" lon="-6.330283">
        <ele>735.83</ele>
        <time>2021-03-27T18:56:41Z</time>
      </trkpt>
      <trkpt lat="41.35685" lon="-6.330308">
        <ele>735.34</ele>
        <time>2021-03-27T18:56:44Z</time>
      </trkpt>
      <trkpt lat="41.35817" lon="-6.3307">
        <ele>726.78</ele>
        <time>2021-03-27T18:56:47Z</time>
      </trkpt>
      <trkpt lat="41.358915" lon="-6.330692">
        <ele>726.92</ele>
        <time>2021-03-27T18:56:50Z</time>
      </trkpt>
      <trkpt lat="41.359125" lon="-6.330744">
        <ele>725.8</ele>
        <time>2021-03-27T18:56:54Z</time>
      </trkpt>
      <trkpt lat="41.360206" lon="-6.331178">
        <ele>719.73</ele>
        <time>2021-03-27T18:56:57Z</time>
      </trkpt>
      <trkpt lat="41.360312" lon="-6.331197">
        <ele>718.74</ele>
        <time>2021-03-27T18:57:00Z</time>
      </trkpt>
      <trkpt lat="41.3604" lon="-6.331162">
        <ele>718.21</ele>
        <time>2021-03-27T18:57:03Z</time>
      </trkpt>
      <trkpt lat="41.361299" lon="-6.33033">
        <ele>717.98</ele>
        <time>2021-03-27T18:57:06Z</time>
      </trkpt>
      <trkpt lat="41.361424" lon="-6.330246">
        <ele>716.83</ele>
        <time>2021-03-27T18:57:09Z</time>
      </trkpt>
      <trkpt lat="41.36232" lon="-6.32984">
        <ele>711.82</ele>
        <time>2021-03-27T18:57:13Z</time>
      </trkpt>
      <trkpt lat="41.362567" lon="-6.329784">
        <ele>710.13</ele>
        <time>2021-03-27T18:57:16Z</time>
      </trkpt>
      <trkpt lat="41.362672" lon="-6.329732">
        <ele>709.71</ele>
        <time>2021-03-27T18:57:19Z</time>
      </trkpt>
      <trkpt lat="41.362785" lon="-6.329624">
        <ele>709.7</ele>
        <time>2021-03-27T18:57:22Z</time>
      </trkpt>
      <trkpt lat="41.363125" lon="-6.329414">
        <ele>710.19</ele>
        <time>2021-03-27T18:57:25Z</time>
      </trkpt>
      <trkpt lat="41.363265" lon="-6.329363">
        <ele>710.36</ele>
        <time>2021-03-27T18:57:29Z</time>
      </trkpt>
      <trkpt lat="41.364117" lon="-6.32892">
        <ele>711.89</ele>
        <time>2021-03-27T18:57:32Z</time>
      </trkpt>
      <trkpt lat="41.364348" lon="-6.328709">
        <ele>711.99</ele>
        <time>2021-03-27T18:57:35Z</time>
      </trkpt>
      <trkpt lat="41.36443" lon="-6.328597">
        <ele>712.1</ele>
        <time>2021-03-27T18:57:38Z</time>
      </trkpt>
      <trkpt lat="41.364579" lon="-6.328264">
        <ele>712.53</ele>
        <time>2021-03-27T18:57:41Z</time>
      </trkpt>
      <trkpt lat="41.364814" lon="-6.327948">
        <ele>713.32</ele>
        <time>2021-03-27T18:57:45Z</time>
      </trkpt>
      <trkpt lat="41.365091" lon="-6.327618">
        <ele>714.21</ele>
        <time>2021-03-27T18:57:48Z</time>
      </trkpt>
      <trkpt lat="41.365209" lon="-6.327524">
        <ele>714.3</ele>
        <time>2021-03-27T18:57:51Z</time>
      </trkpt>
      <trkpt lat="41.365346" lon="-6.327455">
        <ele>714.57</ele>
        <time>2021-03-27T18:57:54Z</time>
      </trkpt>
      <trkpt lat="41.365473" lon="-6.327314">
        <ele>716.04</ele>
        <time>2021-03-27T18:57:57Z</time>
      </trkpt>
      <trkpt lat="41.365537" lon="-6.327219">
        <ele>716.96</ele>
        <time>2021-03-27T18:58:01Z</time>
      </trkpt>
      <trkpt lat="41.365604" lon="-6.326953">
        <ele>719.29</ele>
        <time>2021-03-27T18:58:04Z</time>
      </trkpt>
      <trkpt lat="41.365781" lon="-6.326636">
        <ele>723.07</ele>
        <time>2021-03-27T18:58:07Z</time>
      </trkpt>
      <trkpt lat="41.366184" lon="-6.326219">
        <ele>726.43</ele>
        <time>2021-03-27T18:58:10Z</time>
      </trkpt>
      <trkpt lat="41.36635" lon="-6.326004">
        <ele>727.39</ele>
        <time>2021-03-27T18:58:13Z</time>
      </trkpt>
      <trkpt lat="41.36641" lon="-6.3259">
        <ele>727.93</ele>
        <time>2021-03-27T18:58:16Z</time>
      </trkpt>
      <trkpt lat="41.366464" lon="-6.325776">
        <ele>728.54</ele>
        <time>2021-03-27T18:58:20Z</time>
      </trkpt>
      <trkpt lat="41.36647" lon="-6.325609">
        <ele>728.59</ele>
        <time>2021-03-27T18:58:23Z</time>
      </trkpt>
      <trkpt lat="41.366444" lon="-6.324996">
        <ele>733.23</ele>
        <time>2021-03-27T18:58:26Z</time>
      </trkpt>
      <trkpt lat="41.366469" lon="-6.324854">
        <ele>734.56</ele>
        <time>2021-03-27T18:58:29Z</time>
      </trkpt>
      <trkpt lat="41.366897" lon="-6.323453">
        <ele>740.27</ele>
        <time>2021-03-27T18:58:32Z</time>
      </trkpt>
      <trkpt lat="41.367375" lon="-6.32218">
        <ele>747.62</ele>
        <time>2021-03-27T18:58:36Z</time>
      </trkpt>
      <trkpt lat="41.367554" lon="-6.321509">
        <ele>748.85</ele>
        <time>2021-03-27T18:58:39Z</time>
      </trkpt>
      <trkpt lat="41.367589" lon="-6.321247">
        <ele>749.67</ele>
        <time>2021-03-27T18:58:42Z</time>
      </trkpt>
      <trkpt lat="41.367593" lon="-6.321023">
        <ele>749.89</ele>
        <time>2021-03-27T18:58:45Z</time>
      </trkpt>
      <trkpt lat="41.367555" lon="-6.320451">
        <ele>749.5</ele>
        <time>2021-03-27T18:58:48Z</time>
      </trkpt>
      <trkpt lat="41.36783" lon="-6.317944">
        <ele>743.81</ele>
        <time>2021-03-27T18:58:52Z</time>
      </trkpt>
      <trkpt lat="41.367871" lon="-6.316611">
        <ele>741.46</ele>
        <time>2021-03-27T18:58:55Z</time>
      </trkpt>
      <trkpt lat="41.368025" lon="-6.315181">
        <ele>737.94</ele>
        <time>2021-03-27T18:58:58Z</time>
      </trkpt>
      <trkpt lat="41.36805" lon="-6.314687">
        <ele>736.75</ele>
        <time>2021-03-27T18:59:01Z</time>
      </trkpt>
      <trkpt lat="41.368086" lon="-6.314381">
        <ele>734.88</ele>
        <time>2021-03-27T18:59:04Z</time>
      </trkpt>
      <trkpt lat="41.368327" lon="-6.313134">
        <ele>729.3</ele>
        <time>2021-03-27T18:59:08Z</time>
      </trkpt>
      <trkpt lat="41.36842" lon="-6.312934">
        <ele>729.3</ele>
        <time>2021-03-27T18:59:11Z</time>
      </trkpt>
      <trkpt lat="41.368788" lon="-6.31242">
        <ele>730.29</ele>
        <time>2021-03-27T18:59:14Z</time>
      </trkpt>
      <trkpt lat="41.369034" lon="-6.311899">
        <ele>733.29</ele>
        <time>2021-03-27T18:59:17Z</time>
      </trkpt>
      <trkpt lat="41.369211" lon="-6.311569">
        <ele>735.81</ele>
        <time>2021-03-27T18:59:20Z</time>
      </trkpt>
      <trkpt lat="41.369722" lon="-6.310776">
        <ele>735.21</ele>
        <time>2021-03-27T18:59:23Z</time>
      </trkpt>
      <trkpt lat="41.369976" lon="-6.310183">
        <ele>736.43</ele>
        <time>2021-03-27T18:59:27Z</time>
      </trkpt>
      <trkpt lat="41.370167" lon="-6.309819">
        <ele>736.18</ele>
        <time>2021-03-27T18:59:30Z</time>
      </trkpt>
      <trkpt lat="41.370358" lon="-6.309371">
        <ele>737.26</ele>
        <time>2021-03-27T18:59:33Z</time>
      </trkpt>
      <trkpt lat="41.370401" lon="-6.30905">
        <ele>738.0</ele>
        <time>2021-03-27T18:59:36Z</time>
      </trkpt>
      <trkpt lat="41.37038" lon="-6.308828">
        <ele>737.78</ele>
        <time>2021-03-27T18:59:39Z</time>
      </trkpt>
      <trkpt lat="41.370211" lon="-6.307677">
        <ele>738.12</ele>
        <time>2021-03-27T18:59:43Z</time>
      </trkpt>
      <trkpt lat="41.370002" lon="-6.306916">
        <ele>734.88</ele>
        <time>2021-03-27T18:59:46Z</time>
      </trkpt>
      <trkpt lat="41.369982" lon="-6.306753">
        <ele>734.5</ele>
        <time>2021-03-27T18:59:49Z</time>
      </trkpt>
      <trkpt lat="41.369998" lon="-6.306539">
        <ele>734.02</ele>
        <time>2021-03-27T18:59:52Z</time>
      </trkpt>
      <trkpt lat="41.370365" lon="-6.304687">
        <ele>736.41</ele>
        <time>2021-03-27T18:59:55Z</time>
      </trkpt>
      <trkpt lat="41.370473" lon="-6.30424">
        <ele>736.82</ele>
        <time>2021-03-27T18:59:59Z</time>
      </trkpt>
      <trkpt lat="41.370532" lon="-6.30407">
        <ele>737.0</ele>
        <time>2021-03-27T19:00:02Z</time>
      </trkpt>
      <trkpt lat="41.370745" lon="-6.303726">
        <ele>735.73</ele>
        <time>2021-03-27T19:00:05Z</time>
      </trkpt>
      <trkpt lat="41.371657" lon="-6.302634">
        <ele>730.5</ele>
        <time>2021-03-27T19:00:08Z</time>
      </trkpt>
      <trkpt lat="41.371779" lon="-6.302501">
        <ele>730.0</ele>
        <time>2021-03-27T19:00:11Z</time>
      </trkpt>
      <trkpt lat="41.372242" lon="-6.302135">
        <ele>728.54</ele>
        <time>2021-03-27T19:00:15Z</time>
      </trkpt>
      <trkpt lat="41.372783" lon="-6.30167">
        <ele>723.98</ele>
        <time>2021-03-27T19:00:18Z</time>
      </trkpt>
      <trkpt lat="41.372874" lon="-6.301537">
        <ele>724.12</ele>
        <time>2021-03-27T19:00:21Z</time>
      </trkpt>
      <trkpt lat="41.372946" lon="-6.301386">
        <ele>724.42</ele>
        <time>2021-03-27T19:00:24Z</time>
      </trkpt>
      <trkpt lat="41.373207" lon="-6.300668">
        <ele>729.82</ele>
        <time>2021-03-27T19:00:27Z</time>
      </trkpt>
      <trkpt lat="41.373332" lon="-6.300173">
        <ele>730.0</ele>
        <time>2021-03-27T19:00:30Z</time>
      </trkpt>
      <trkpt lat="41.373428" lon="-6.299166">
        <ele>727.34</ele>
        <time>2021-03-27T19:00:34Z</time>
      </trkpt>
      <trkpt lat="41.373565" lon="-6.298268">
        <ele>723.8</ele>
        <time>2021-03-27T19:00:37Z</time>
      </trkpt>
      <trkpt lat="41.374112" lon="-6.295148">
        <ele>716.62</ele>
        <time>2021-03-27T19:00:40Z</time>
      </trkpt>
      <trkpt lat="41.374293" lon="-6.29452">
        <ele>714.54</ele>
        <time>2021-03-27T19:00:43Z</time>
      </trkpt>
      <trkpt lat="41.374371" lon="-6.29419">
        <ele>713.33</ele>
        <time>2021-03-27T19:00:46Z</time>
      </trkpt>
      <trkpt lat="41.374479" lon="-6.293467">
        <ele>711.0</ele>
        <time>2021-03-27T19:00:50Z</time>
      </trkpt>
      <trkpt lat="41.374588" lon="-6.292543">
        <ele>708.61</ele>
        <time>2021-03-27T19:00:53Z</time>
      </trkpt>
      <trkpt lat="41.374934" lon="-6.290518">
        <ele>703.03</ele>
        <time>2021-03-27T19:00:56Z</time>
      </trkpt>
      <trkpt lat="41.375049" lon="-6.290001">
        <ele>706.17</ele>
        <time>2021-03-27T19:00:59Z</time>
      </trkpt>
      <trkpt lat="41.375143" lon="-6.289679">
        <ele>707.0</ele>
        <time>2021-03-27T19:01:02Z</time>
      </trkpt>
      <trkpt lat="41.37523" lon="-6.289465">
        <ele>707.0</ele>
        <time>2021-03-27T19:01:06Z</time>
      </trkpt>
      <trkpt lat="41.375308" lon="-6.289335">
        <ele>707.04</ele>
        <time>2021-03-27T19:01:09Z</time>
      </trkpt>
      <trkpt lat="41.376272" lon="-6.2881">
        <ele>709.0</ele>
        <time>2021-03-27T19:01:12Z</time>
      </trkpt>
      <trkpt lat="41.376701" lon="-6.287488">
        <ele>709.96</ele>
        <time>2021-03-27T19:01:15Z</time>
      </trkpt>
      <trkpt lat="41.376924" lon="-6.287132">
        <ele>709.0</ele>
        <time>2021-03-27T19:01:18Z</time>
      </trkpt>
      <trkpt lat="41.376961" lon="-6.286952">
        <ele>708.94</ele>
        <time>2021-03-27T19:01:22Z</time>
      </trkpt>
      <trkpt lat="41.377094" lon="-6.286866">
        <ele>708.46</ele>
        <time>2021-03-27T19:01:26Z</time>
      </trkpt>
      <trkpt lat="41.377325" lon="-6.28665">
        <ele>707.69</ele>
        <time>2021-03-27T19:01:30Z</time>
      </trkpt>
      <trkpt lat="41.377689" lon="-6.286247">
        <ele>708.16</ele>
        <time>2021-03-27T19:01:34Z</time>
      </trkpt>
      <trkpt lat="41.378266" lon="-6.285522">
        <ele>711.36</ele>
        <time>2021-03-27T19:01:38Z</time>
      </trkpt>
      <trkpt lat="41.37865" lon="-6.284967">
        <ele>712.98</ele>
        <time>2021-03-27T19:01:42Z</time>
      </trkpt>
      <trkpt lat="41.378894" lon="-6.284535">
        <ele>710.67</ele>
        <time>2021-03-27T19:01:46Z</time>
      </trkpt>
      <trkpt lat="41.379104" lon="-6.284226">
        <ele>710.16</ele>
        <time>2021-03-27T19:01:50Z</time>
      </trkpt>
      <trkpt lat="41.379386" lon="-6.2839">
        <ele>708.28</ele>
        <time>2021-03-27T19:01:54Z</time>
      </trkpt>
      <trkpt lat="41.379785" lon="-6.283514">
        <ele>704.65</ele>
        <time>2021-03-27T19:01:58Z</time>
      </trkpt>
      <trkpt lat="41.379996" lon="-6.283268">
        <ele>704.0</ele>
        <time>2021-03-27T19:02:02Z</time>
      </trkpt>
      <trkpt lat="41.380192" lon="-6.283">
        <ele>704.0</ele>
        <time>2021-03-27T19:02:06Z</time>
      </trkpt>
      <trkpt lat="41.38117" lon="-6.282129">
        <ele>699.58</ele>
        <time>2021-03-27T19:02:10Z</time>
      </trkpt>
      <trkpt lat="41.381333" lon="-6.281964">
        <ele>698.4</ele>
        <time>2021-03-27T19:02:14Z</time>
      </trkpt>
      <trkpt lat="41.382235" lon="-6.280865">
        <ele>692.84</ele>
        <time>2021-03-27T19:02:18Z</time>
      </trkpt>
      <trkpt lat="41.382377" lon="-6.28076">
        <ele>692.41</ele>
        <time>2021-03-27T19:02:22Z</time>
      </trkpt>
      <trkpt lat="41.383259" lon="-6.280462">
        <ele>685.53</ele>
        <time>2021-03-27T19:02:26Z</time>
      </trkpt>
      <trkpt lat="41.383571" lon="-6.280449">
        <ele>685.0</ele>
        <time>2021-03-27T19:02:30Z</time>
      </trkpt>
      <trkpt lat="41.383926" lon="-6.280631">
        <ele>683.77</ele>
        <time>2021-03-27T19:02:34Z</time>
      </trkpt>
      <trkpt lat="41.384137" lon="-6.2807">
        <ele>682.67</ele>
        <time>2021-03-27T19:02:38Z</time>
      </trkpt>
      <trkpt lat="41.384895" lon="-6.280849">
        <ele>681.36</ele>
        <time>2021-03-27T19:02:42Z</time>
      </trkpt>
      <trkpt lat="41.385048" lon="-6.280823">
        <ele>680.96</ele>
        <time>2021-03-27T19:02:47Z</time>
      </trkpt>
      <trkpt lat="41.385248" lon="-6.280755">
        <ele>680.72</ele>
        <time>2021-03-27T19:02:51Z</time>
      </trkpt>
      <trkpt lat="41.385446" lon="-6.280742">
        <ele>680.67</ele>
        <time>2021-03-27T19:02:55Z</time>
      </trkpt>
      <trkpt lat="41.385697" lon="-6.280758">
        <ele>681.24</ele>
        <time>2021-03-27T19:02:59Z</time>
      </trkpt>
      <trkpt lat="41.385958" lon="-6.280809">
        <ele>682.36</ele>
        <time>2021-03-27T19:03:03Z</time>
      </trkpt>
      <trkpt lat="41.386357" lon="-6.280987">
        <ele>685.39</ele>
        <time>2021-03-27T19:03:07Z</time>
      </trkpt>
      <trkpt lat="41.386537" lon="-6.281034">
        <ele>686.25</ele>
        <time>2021-03-27T19:03:11Z</time>
      </trkpt>
      <trkpt lat="41.386751" lon="-6.28104">
        <ele>686.82</ele>
        <time>2021-03-27T19:03:15Z</time>
      </trkpt>
      <trkpt lat="41.386846" lon="-6.281098">
        <ele>686.98</ele>
        <time>2021-03-27T19:03:19Z</time>
      </trkpt>
      <trkpt lat="41.386898" lon="-6.281239">
        <ele>687.46</ele>
        <time>2021-03-27T19:03:23Z</time>
      </trkpt>
      <trkpt lat="41.386939" lon="-6.281704">
        <ele>689.0</ele>
        <time>2021-03-27T19:03:27Z</time>
      </trkpt>
      <trkpt lat="41.386985" lon="-6.281878">
        <ele>689.0</ele>
        <time>2021-03-27T19:03:31Z</time>
      </trkpt>
      <trkpt lat="41.387091" lon="-6.282058">
        <ele>689.0</ele>
        <time>2021-03-27T19:03:35Z</time>
      </trkpt>
      <trkpt lat="41.38724" lon="-6.282448">
        <ele>689.0</ele>
        <time>2021-03-27T19:03:39Z</time>
      </trkpt>
      <trkpt lat="41.387334" lon="-6.28257">
        <ele>689.1</ele>
        <time>2021-03-27T19:03:43Z</time>
      </trkpt>
      <trkpt lat="41.387744" lon="-6.282915">
        <ele>691.31</ele>
        <time>2021-03-27T19:03:47Z</time>
      </trkpt>
      <trkpt lat="41.387973" lon="-6.28308">
        <ele>692.73</ele>
        <time>2021-03-27T19:03:51Z</time>
      </trkpt>
      <trkpt lat="41.388063" lon="-6.283073">
        <ele>693.02</ele>
        <time>2021-03-27T19:03:55Z</time>
      </trkpt>
      <trkpt lat="41.38818" lon="-6.283031">
        <ele>693.49</ele>
        <time>2021-03-27T19:03:59Z</time>
      </trkpt>
      <trkpt lat="41.388296" lon="-6.282923">
        <ele>694.28</ele>
        <time>2021-03-27T19:04:03Z</time>
      </trkpt>
      <trkpt lat="41.388479" lon="-6.282666">
        <ele>694.69</ele>
        <time>2021-03-27T19:04:07Z</time>
      </trkpt>
      <trkpt lat="41.388644" lon="-6.282511">
        <ele>694.85</ele>
        <time>2021-03-27T19:04:11Z</time>
      </trkpt>
      <trkpt lat="41.388763" lon="-6.282447">
        <ele>694.17</ele>
        <time>2021-03-27T19:04:15Z</time>
      </trkpt>
      <trkpt lat="41.389173" lon="-6.282286">
        <ele>693.21</ele>
        <time>2021-03-27T19:04:19Z</time>
      </trkpt>
      <trkpt lat="41.39114" lon="-6.281221">
        <ele>698.1</ele>
        <time>2021-03-27T19:04:24Z</time>
      </trkpt>
      <trkpt lat="41.391417" lon="-6.281111">
        <ele>699.0</ele>
        <time>2021-03-27T19:04:28Z</time>
      </trkpt>
      <trkpt lat="41.393195" lon="-6.28057">
        <ele>703.05</ele>
        <time>2021-03-27T19:04:32Z</time>
      </trkpt>
      <trkpt lat="41.393362" lon="-6.280554">
        <ele>703.1</ele>
        <time>2021-03-27T19:04:36Z</time>
      </trkpt>
      <trkpt lat="41.393972" lon="-6.280561">
        <ele>705.01</ele>
        <time>2021-03-27T19:04:40Z</time>
      </trkpt>
      <trkpt lat="41.396406" lon="-6.280683">
        <ele>694.54</ele>
        <time>2021-03-27T19:04:44Z</time>
      </trkpt>
      <trkpt lat="41.397352" lon="-6.280929">
        <ele>690.0</ele>
        <time>2021-03-27T19:04:48Z</time>
      </trkpt>
      <trkpt lat="41.397635" lon="-6.280986">
        <ele>689.18</ele>
        <time>2021-03-27T19:04:52Z</time>
      </trkpt>
      <trkpt lat="41.397853" lon="-6.281005">
        <ele>688.39</ele>
        <time>2021-03-27T19:04:56Z</time>
      </trkpt>
      <trkpt lat="41.399664" lon="-6.280865">
        <ele>685.32</ele>
        <time>2021-03-27T19:05:00Z</time>
      </trkpt>
      <trkpt lat="41.399941" lon="-6.280787">
        <ele>686.08</ele>
        <time>2021-03-27T19:05:04Z</time>
      </trkpt>
      <trkpt lat="41.400039" lon="-6.280724">
        <ele>687.01</ele>
        <time>2021-03-27T19:05:08Z</time>
      </trkpt>
      <trkpt lat="41.400252" lon="-6.280571">
        <ele>688.84</ele>
        <time>2021-03-27T19:05:12Z</time>
      </trkpt>
      <trkpt lat="41.401482" lon="-6.279581">
        <ele>693.34</ele>
        <time>2021-03-27T19:05:16Z</time>
      </trkpt>
      <trkpt lat="41.40192" lon="-6.279291">
        <ele>694.55</ele>
        <time>2021-03-27T19:05:20Z</time>
      </trkpt>
      <trkpt lat="41.402216" lon="-6.279143">
        <ele>695.17</ele>
        <time>2021-03-27T19:05:24Z</time>
      </trkpt>
      <trkpt lat="41.403383" lon="-6.278804">
        <ele>700.23</ele>
        <time>2021-03-27T19:05:28Z</time>
      </trkpt>
      <trkpt lat="41.405343" lon="-6.278194">
        <ele>712.85</ele>
        <time>2021-03-27T19:05:32Z</time>
      </trkpt>
      <trkpt lat="41.405896" lon="-6.277976">
        <ele>714.51</ele>
        <time>2021-03-27T19:05:36Z</time>
      </trkpt>
      <trkpt lat="41.406188" lon="-6.2778">
        <ele>716.2</ele>
        <time>2021-03-27T19:05:40Z</time>
      </trkpt>
      <trkpt lat="41.407645" lon="-6.276681">
        <ele>718.47</ele>
        <time>2021-03-27T19:05:44Z</time>
      </trkpt>
      <trkpt lat="41.408419" lon="-6.276234">
        <ele>721.86</ele>
        <time>2021-03-27T19:05:48Z</time>
      </trkpt>
      <trkpt lat="41.411551" lon="-6.274534">
        <ele>718.0</ele>
        <time>2021-03-27T19:05:52Z</time>
      </trkpt>
      <trkpt lat="41.411746" lon="-6.274378">
        <ele>718.17</ele>
        <time>2021-03-27T19:05:56Z</time>
      </trkpt>
      <trkpt lat="41.411902" lon="-6.274225">
        <ele>718.12</ele>
        <time>2021-03-27T19:06:01Z</time>
      </trkpt>
      <trkpt lat="41.41217" lon="-6.273908">
        <ele>716.2</ele>
        <time>2021-03-27T19:06:05Z</time>
      </trkpt>
      <trkpt lat="41.412377" lon="-6.273749">
        <ele>715.49</ele>
        <time>2021-03-27T19:06:09Z</time>
      </trkpt>
      <trkpt lat="41.412565" lon="-6.273644">
        <ele>715.12</ele>
        <time>2021-03-27T19:06:13Z</time>
      </trkpt>
      <trkpt lat="41.413283" lon="-6.27333">
        <ele>713.99</ele>
        <time>2021-03-27T19:06:17Z</time>
      </trkpt>
      <trkpt lat="41.415206" lon="-6.272759">
        <ele>709.93</ele>
        <time>2021-03-27T19:06:21Z</time>
      </trkpt>
      <trkpt lat="41.415932" lon="-6.272568">
        <ele>709.0</ele>
        <time>2021-03-27T19:06:25Z</time>
      </trkpt>
      <trkpt lat="41.416277" lon="-6.272456">
        <ele>708.93</ele>
        <time>2021-03-27T19:06:29Z</time>
      </trkpt>
      <trkpt lat="41.416752" lon="-6.27225">
        <ele>710.0</ele>
        <time>2021-03-27T19:06:33Z</time>
      </trkpt>
      <trkpt lat="41.417011" lon="-6.27217">
        <ele>709.33</ele>
        <time>2021-03-27T19:06:37Z</time>
      </trkpt>
      <trkpt lat="41.417396" lon="-6.272121">
        <ele>706.61</ele>
        <time>2021-03-27T19:06:41Z</time>
      </trkpt>
      <trkpt lat="41.418332" lon="-6.272136">
        <ele>706.69</ele>
        <time>2021-03-27T19:06:45Z</time>
      </trkpt>
      <trkpt lat="41.418542" lon="-6.272113">
        <ele>705.85</ele>
        <time>2021-03-27T19:06:49Z</time>
      </trkpt>
      <trkpt lat="41.418693" lon="-6.272056">
        <ele>705.16</ele>
        <time>2021-03-27T19:06:53Z</time>
      </trkpt>
      <trkpt lat="41.419075" lon="-6.271829">
        <ele>703.94</ele>
        <time>2021-03-27T19:06:57Z</time>
      </trkpt>
      <trkpt lat="41.41984" lon="-6.271205">
        <ele>703.9</ele>
        <time>2021-03-27T19:07:01Z</time>
      </trkpt>
      <trkpt lat="41.420014" lon="-6.271093">
        <ele>704.01</ele>
        <time>2021-03-27T19:07:05Z</time>
      </trkpt>
      <trkpt lat="41.420018" lon="-6.270655">
        <ele>705.64</ele>
        <time>2021-03-27T19:07:08Z</time>
      </trkpt>
      <trkpt lat="41.42005" lon="-6.270495">
        <ele>706.22</ele>
        <time>2021-03-27T19:07:10Z</time>
      </trkpt>
      <trkpt lat="41.420277" lon="-6.270477">
        <ele>706.28</ele>
        <time>2021-03-27T19:07:15Z</time>
      </trkpt>
      <trkpt lat="41.420612" lon="-6.270387">
        <ele>705.28</ele>
        <time>2021-03-27T19:07:20Z</time>
      </trkpt>
      <trkpt lat="41.420842" lon="-6.270259">
        <ele>704.0</ele>
        <time>2021-03-27T19:07:25Z</time>
      </trkpt>
      <trkpt lat="41.420983" lon="-6.270241">
        <ele>702.99</ele>
        <time>2021-03-27T19:07:29Z</time>
      </trkpt>
      <trkpt lat="41.421512" lon="-6.270245">
        <ele>700.16</ele>
        <time>2021-03-27T19:07:34Z</time>
      </trkpt>
      <trkpt lat="41.421999" lon="-6.270078">
        <ele>698.6</ele>
        <time>2021-03-27T19:07:39Z</time>
      </trkpt>
      <trkpt lat="41.422161" lon="-6.269955">
        <ele>697.44</ele>
        <time>2021-03-27T19:07:44Z</time>
      </trkpt>
      <trkpt lat="41.422267" lon="-6.269918">
        <ele>696.84</ele>
        <time>2021-03-27T19:07:49Z</time>
      </trkpt>
      <trkpt lat="41.422556" lon="-6.269924">
        <ele>695.4</ele>
        <time>2021-03-27T19:07:54Z</time>
      </trkpt>
      <trkpt lat="41.422652" lon="-6.269901">
        <ele>694.36</ele>
        <time>2021-03-27T19:07:59Z</time>
      </trkpt>
      <trkpt lat="41.422991" lon="-6.269718">
        <ele>691.46</ele>
        <time>2021-03-27T19:08:04Z</time>
      </trkpt>
      <trkpt lat="41.423167" lon="-6.26956">
        <ele>691.4</ele>
        <time>2021-03-27T19:08:09Z</time>
      </trkpt>
      <trkpt lat="41.424583" lon="-6.267696">
        <ele>695.71</ele>
        <time>2021-03-27T19:08:14Z</time>
      </trkpt>
      <trkpt lat="41.424717" lon="-6.267568">
        <ele>695.24</ele>
        <time>2021-03-27T19:08:18Z</time>
      </trkpt>
      <trkpt lat="41.425401" lon="-6.267024">
        <ele>696.97</ele>
        <time>2021-03-27T19:08:23Z</time>
      </trkpt>
      <trkpt lat="41.426113" lon="-6.266484">
        <ele>699.01</ele>
        <time>2021-03-27T19:08:28Z</time>
      </trkpt>
      <trkpt lat="41.426397" lon="-6.26637">
        <ele>701.04</ele>
        <time>2021-03-27T19:08:33Z</time>
      </trkpt>
      <trkpt lat="41.427473" lon="-6.266346">
        <ele>703.07</ele>
        <time>2021-03-27T19:08:38Z</time>
      </trkpt>
      <trkpt lat="41.428195" lon="-6.2664">
        <ele>707.96</ele>
        <time>2021-03-27T19:08:43Z</time>
      </trkpt>
      <trkpt lat="41.428779" lon="-6.266493">
        <ele>707.85</ele>
        <time>2021-03-27T19:08:48Z</time>
      </trkpt>
      <trkpt lat="41.429384" lon="-6.266469">
        <ele>710.07</ele>
        <time>2021-03-27T19:08:53Z</time>
      </trkpt>
      <trkpt lat="41.431366" lon="-6.266238">
        <ele>704.46</ele>
        <time>2021-03-27T19:08:58Z</time>
      </trkpt>
      <trkpt lat="41.431952" lon="-6.266124">
        <ele>702.0</ele>
        <time>2021-03-27T19:09:03Z</time>
      </trkpt>
      <trkpt lat="41.432135" lon="-6.266076">
        <ele>702.13</ele>
        <time>2021-03-27T19:09:07Z</time>
      </trkpt>
      <trkpt lat="41.433321" lon="-6.265643">
        <ele>702.72</ele>
        <time>2021-03-27T19:09:12Z</time>
      </trkpt>
      <trkpt lat="41.437525" lon="-6.263472">
        <ele>704.54</ele>
        <time>2021-03-27T19:09:17Z</time>
      </trkpt>
      <trkpt lat="41.437795" lon="-6.263256">
        <ele>704.66</ele>
        <time>2021-03-27T19:09:22Z</time>
      </trkpt>
      <trkpt lat="41.440237" lon="-6.261016">
        <ele>702.03</ele>
        <time>2021-03-27T19:09:27Z</time>
      </trkpt>
      <trkpt lat="41.440589" lon="-6.260737">
        <ele>702.18</ele>
        <time>2021-03-27T19:09:32Z</time>
      </trkpt>
      <trkpt lat="41.441899" lon="-6.259803">
        <ele>695.57</ele>
        <time>2021-03-27T19:09:37Z</time>
      </trkpt>
      <trkpt lat="41.442374" lon="-6.259494">
        <ele>693.45</ele>
        <time>2021-03-27T19:09:42Z</time>
      </trkpt>
      <trkpt lat="41.445296" lon="-6.257819">
        <ele>693.79</ele>
        <time>2021-03-27T19:09:47Z</time>
      </trkpt>
      <trkpt lat="41.446496" lon="-6.257237">
        <ele>689.94</ele>
        <time>2021-03-27T19:09:51Z</time>
      </trkpt>
      <trkpt lat="41.446684" lon="-6.257163">
        <ele>690.15</ele>
        <time>2021-03-27T19:09:56Z</time>
      </trkpt>
      <trkpt lat="41.446795" lon="-6.257156">
        <ele>689.77</ele>
        <time>2021-03-27T19:10:01Z</time>
      </trkpt>
      <trkpt lat="41.447138" lon="-6.257232">
        <ele>688.96</ele>
        <time>2021-03-27T19:10:06Z</time>
      </trkpt>
      <trkpt lat="41.44726" lon="-6.257237">
        <ele>689.08</ele>
        <time>2021-03-27T19:10:11Z</time>
      </trkpt>
      <trkpt lat="41.447819" lon="-6.257166">
        <ele>691.41</ele>
        <time>2021-03-27T19:10:16Z</time>
      </trkpt>
      <trkpt lat="41.448343" lon="-6.256938">
        <ele>692.99</ele>
        <time>2021-03-27T19:10:21Z</time>
      </trkpt>
      <trkpt lat="41.448438" lon="-6.256842">
        <ele>692.99</ele>
        <time>2021-03-27T19:10:26Z</time>
      </trkpt>
      <trkpt lat="41.448556" lon="-6.256604">
        <ele>693.47</ele>
        <time>2021-03-27T19:10:31Z</time>
      </trkpt>
      <trkpt lat="41.448692" lon="-6.256245">
        <ele>693.71</ele>
        <time>2021-03-27T19:10:36Z</time>
      </trkpt>
      <trkpt lat="41.448729" lon="-6.255935">
        <ele>693.58</ele>
        <time>2021-03-27T19:10:40Z</time>
      </trkpt>
      <trkpt lat="41.44892" lon="-6.255818">
        <ele>692.66</ele>
        <time>2021-03-27T19:10:44Z</time>
      </trkpt>
      <trkpt lat="41.449037" lon="-6.255777">
        <ele>691.53</ele>
        <time>2021-03-27T19:10:48Z</time>
      </trkpt>
      <trkpt lat="41.449223" lon="-6.255828">
        <ele>690.55</ele>
        <time>2021-03-27T19:10:52Z</time>
      </trkpt>
      <trkpt lat="41.449429" lon="-6.255923">
        <ele>689.45</ele>
        <time>2021-03-27T19:10:56Z</time>
      </trkpt>
      <trkpt lat="41.449772" lon="-6.256188">
        <ele>687.05</ele>
        <time>2021-03-27T19:10:59Z</time>
      </trkpt>
      <trkpt lat="41.449906" lon="-6.256234">
        <ele>686.49</ele>
        <time>2021-03-27T19:11:03Z</time>
      </trkpt>
      <trkpt lat="41.450109" lon="-6.25624">
        <ele>685.61</ele>
        <time>2021-03-27T19:11:07Z</time>
      </trkpt>
      <trkpt lat="41.450585" lon="-6.256198">
        <ele>682.55</ele>
        <time>2021-03-27T19:11:11Z</time>
      </trkpt>
      <trkpt lat="41.450652" lon="-6.256174">
        <ele>682.35</ele>
        <time>2021-03-27T19:11:15Z</time>
      </trkpt>
      <trkpt lat="41.452175" lon="-6.255224">
        <ele>679.53</ele>
        <time>2021-03-27T19:11:18Z</time>
      </trkpt>
      <trkpt lat="41.452329" lon="-6.255486">
        <ele>678.71</ele>
        <time>2021-03-27T19:11:24Z</time>
      </trkpt>
      <trkpt lat="41.452519" lon="-6.255747">
        <ele>678.76</ele>
        <time>2021-03-27T19:11:29Z</time>
      </trkpt>
      <trkpt lat="41.452669" lon="-6.255912">
        <ele>680.17</ele>
        <time>2021-03-27T19:11:34Z</time>
      </trkpt>
      <trkpt lat="41.452854" lon="-6.256073">
        <ele>682.0</ele>
        <time>2021-03-27T19:11:39Z</time>
      </trkpt>
      <trkpt lat="41.453089" lon="-6.256206">
        <ele>684.1</ele>
        <time>2021-03-27T19:11:44Z</time>
      </trkpt>
      <trkpt lat="41.453186" lon="-6.256221">
        <ele>684.47</ele>
        <time>2021-03-27T19:11:49Z</time>
      </trkpt>
      <trkpt lat="41.453273" lon="-6.256207">
        <ele>684.55</ele>
        <time>2021-03-27T19:11:55Z</time>
      </trkpt>
      <trkpt lat="41.453399" lon="-6.256127">
        <ele>684.35</ele>
        <time>2021-03-27T19:12:00Z</time>
      </trkpt>
      <trkpt lat="41.453868" lon="-6.255726">
        <ele>686.04</ele>
        <time>2021-03-27T19:12:05Z</time>
      </trkpt>
      <trkpt lat="41.454118" lon="-6.255614">
        <ele>687.24</ele>
        <time>2021-03-27T19:12:10Z</time>
      </trkpt>
      <trkpt lat="41.455211" lon="-6.255196">
        <ele>690.17</ele>
        <time>2021-03-27T19:12:15Z</time>
      </trkpt>
      <trkpt lat="41.455341" lon="-6.25518">
        <ele>690.38</ele>
        <time>2021-03-27T19:12:20Z</time>
      </trkpt>
      <trkpt lat="41.455497" lon="-6.255205">
        <ele>690.68</ele>
        <time>2021-03-27T19:12:25Z</time>
      </trkpt>
      <trkpt lat="41.455923" lon="-6.255316">
        <ele>691.04</ele>
        <time>2021-03-27T19:12:31Z</time>
      </trkpt>
      <trkpt lat="41.456176" lon="-6.255292">
        <ele>691.28</ele>
        <time>2021-03-27T19:12:36Z</time>
      </trkpt>
      <trkpt lat="41.456308" lon="-6.255249">
        <ele>691.89</ele>
        <time>2021-03-27T19:12:41Z</time>
      </trkpt>
      <trkpt lat="41.45638" lon="-6.255191">
        <ele>692.58</ele>
        <time>2021-03-27T19:12:46Z</time>
      </trkpt>
      <trkpt lat="41.456425" lon="-6.255129">
        <ele>693.19</ele>
        <time>2021-03-27T19:12:51Z</time>
      </trkpt>
      <trkpt lat="41.456459" lon="-6.254973">
        <ele>694.1</ele>
        <time>2021-03-27T19:12:56Z</time>
      </trkpt>
      <trkpt lat="41.456502" lon="-6.254595">
        <ele>695.18</ele>
        <time>2021-03-27T19:13:02Z</time>
      </trkpt>
      <trkpt lat="41.457179" lon="-6.253187">
        <ele>694.58</ele>
        <time>2021-03-27T19:13:07Z</time>
      </trkpt>
      <trkpt lat="41.457271" lon="-6.253047">
        <ele>693.32</ele>
        <time>2021-03-27T19:13:12Z</time>
      </trkpt>
      <trkpt lat="41.457944" lon="-6.252291">
        <ele>691.79</ele>
        <time>2021-03-27T19:13:17Z</time>
      </trkpt>
      <trkpt lat="41.463038" lon="-6.247584">
        <ele>714.68</ele>
        <time>2021-03-27T19:13:22Z</time>
      </trkpt>
      <trkpt lat="41.468655" lon="-6.243286">
        <ele>730.98</ele>
        <time>2021-03-27T19:13:27Z</time>
      </trkpt>
      <trkpt lat="41.4688" lon="-6.243117">
        <ele>730.57</ele>
        <time>2021-03-27T19:13:33Z</time>
      </trkpt>
      <trkpt lat="41.469444" lon="-6.242239">
        <ele>730.94</ele>
        <time>2021-03-27T19:13:38Z</time>
      </trkpt>
      <trkpt lat="41.471006" lon="-6.240011">
        <ele>734.47</ele>
        <time>2021-03-27T19:13:43Z</time>
      </trkpt>
      <trkpt lat="41.472907" lon="-6.237783">
        <ele>737.06</ele>
        <time>2021-03-27T19:13:48Z</time>
      </trkpt>
      <trkpt lat="41.473001" lon="-6.237703">
        <ele>736.44</ele>
        <time>2021-03-27T19:13:53Z</time>
      </trkpt>
      <trkpt lat="41.475176" lon="-6.236467">
        <ele>731.74</ele>
        <time>2021-03-27T19:13:58Z</time>
      </trkpt>
      <trkpt lat="41.475377" lon="-6.236382">
        <ele>730.96</ele>
        <time>2021-03-27T19:14:04Z</time>
      </trkpt>
      <trkpt lat="41.475022" lon="-6.215446">
        <ele>764.64</ele>
        <time>2021-03-27T19:14:17Z</time>
      </trkpt>
      <trkpt lat="41.474964" lon="-6.210763">
        <ele>767.56</ele>
        <time>2021-03-27T19:14:31Z</time>
      </trkpt>
      <trkpt lat="41.474981" lon="-6.210056">
        <ele>766.2</ele>
        <time>2021-03-27T19:14:45Z</time>
      </trkpt>
      <trkpt lat="41.475073" lon="-6.208527">
        <ele>763.55</ele>
        <time>2021-03-27T19:14:59Z</time>
      </trkpt>
      <trkpt lat="41.475249" lon="-6.207072">
        <ele>764.9</ele>
        <time>2021-03-27T19:15:12Z</time>
      </trkpt>
      <trkpt lat="41.479257" lon="-6.178726">
        <ele>769.56</ele>
        <time>2021-03-27T19:15:26Z</time>
      </trkpt>
      <trkpt lat="41.480098" lon="-6.172777">
        <ele>767.0</ele>
        <time>2021-03-27T19:15:40Z</time>
      </trkpt>
      <trkpt lat="41.482232" lon="-6.157625">
        <ele>788.02</ele>
        <time>2021-03-27T19:15:53Z</time>
      </trkpt>
      <trkpt lat="41.482313" lon="-6.156905">
        <ele>786.3</ele>
        <time>2021-03-27T19:16:07Z</time>
      </trkpt>
      <trkpt lat="41.482358" lon="-6.155809">
        <ele>787.97</ele>
        <time>2021-03-27T19:16:21Z</time>
      </trkpt>
      <trkpt lat="41.482344" lon="-6.155164">
        <ele>787.18</ele>
        <time>2021-03-27T19:16:35Z</time>
      </trkpt>
      <trkpt lat="41.482269" lon="-6.153986">
        <ele>788.83</ele>
        <time>2021-03-27T19:16:48Z</time>
      </trkpt>
      <trkpt lat="41.482143" lon="-6.153117">
        <ele>784.44</ele>
        <time>2021-03-27T19:17:02Z</time>
      </trkpt>
      <trkpt lat="41.48201" lon="-6.152417">
        <ele>784.6</ele>
        <time>2021-03-27T19:17:16Z</time>
      </trkpt>
      <trkpt lat="41.481811" lon="-6.151628">
        <ele>784.72</ele>
        <time>2021-03-27T19:17:30Z</time>
      </trkpt>
      <trkpt lat="41.480974" lon="-6.148605">
        <ele>781.94</ele>
        <time>2021-03-27T19:17:43Z</time>
      </trkpt>
      <trkpt lat="41.48071" lon="-6.147594">
        <ele>780.59</ele>
        <time>2021-03-27T19:17:57Z</time>
      </trkpt>
      <trkpt lat="41.480565" lon="-6.146935">
        <ele>781.03</ele>
        <time>2021-03-27T19:18:11Z</time>
      </trkpt>
      <trkpt lat="41.480443" lon="-6.146179">
        <ele>780.84</ele>
        <time>2021-03-27T19:18:24Z</time>
      </trkpt>
      <trkpt lat="41.480364" lon="-6.145546">
        <ele>777.98</ele>
        <time>2021-03-27T19:18:38Z</time>
      </trkpt>
      <trkpt lat="41.480314" lon="-6.144959">
        <ele>776.85</ele>
        <time>2021-03-27T19:18:52Z</time>
      </trkpt>
      <trkpt lat="41.480288" lon="-6.144263">
        <ele>775.67</ele>
        <time>2021-03-27T19:19:06Z</time>
      </trkpt>
      <trkpt lat="41.480304" lon="-6.142304">
        <ele>770.93</ele>
        <time>2021-03-27T19:19:19Z</time>
      </trkpt>
      <trkpt lat="41.480351" lon="-6.139698">
        <ele>773.54</ele>
        <time>2021-03-27T19:19:33Z</time>
      </trkpt>
      <trkpt lat="41.480423" lon="-6.137839">
        <ele>771.1</ele>
        <time>2021-03-27T19:19:47Z</time>
      </trkpt>
      <trkpt lat="41.480401" lon="-6.137482">
        <ele>771.51</ele>
        <time>2021-03-27T19:20:01Z</time>
      </trkpt>
      <trkpt lat="41.480315" lon="-6.137397">
        <ele>771.5</ele>
        <time>2021-03-27T19:20:04Z</time>
      </trkpt>
      <trkpt lat="41.480287" lon="-6.137263">
        <ele>771.88</ele>
        <time>2021-03-27T19:20:08Z</time>
      </trkpt>
      <trkpt lat="41.480292" lon="-6.13722">
        <ele>772.06</ele>
        <time>2021-03-27T19:20:11Z</time>
      </trkpt>
      <trkpt lat="41.480348" lon="-6.137106">
        <ele>773.09</ele>
        <time>2021-03-27T19:20:15Z</time>
      </trkpt>
      <trkpt lat="41.480445" lon="-6.13706">
        <ele>773.77</ele>
        <time>2021-03-27T19:20:18Z</time>
      </trkpt>
      <trkpt lat="41.482623" lon="-6.12456">
        <ele>758.14</ele>
        <time>2021-03-27T19:20:22Z</time>
      </trkpt>
      <trkpt lat="41.48268" lon="-6.124134">
        <ele>759.12</ele>
        <time>2021-03-27T19:20:26Z</time>
      </trkpt>
      <trkpt lat="41.482767" lon="-6.123351">
        <ele>762.94</ele>
        <time>2021-03-27T19:20:29Z</time>
      </trkpt>
      <trkpt lat="41.482851" lon="-6.122414">
        <ele>766.23</ele>
        <time>2021-03-27T19:20:33Z</time>
      </trkpt>
      <trkpt lat="41.482901" lon="-6.121537">
        <ele>765.62</ele>
        <time>2021-03-27T19:20:36Z</time>
      </trkpt>
      <trkpt lat="41.482926" lon="-6.120365">
        <ele>768.17</ele>
        <time>2021-03-27T19:20:40Z</time>
      </trkpt>
      <trkpt lat="41.482975" lon="-6.116069">
        <ele>764.11</ele>
        <time>2021-03-27T19:20:44Z</time>
      </trkpt>
      <trkpt lat="41.483047" lon="-6.115048">
        <ele>765.95</ele>
        <time>2021-03-27T19:20:47Z</time>
      </trkpt>
      <trkpt lat="41.483101" lon="-6.114521">
        <ele>763.05</ele>
        <time>2021-03-27T19:20:51Z</time>
      </trkpt>
      <trkpt lat="41.4832" lon="-6.113835">
        <ele>762.42</ele>
        <time>2021-03-27T19:20:54Z</time>
      </trkpt>
      <trkpt lat="41.483289" lon="-6.113337">
        <ele>761.33</ele>
        <time>2021-03-27T19:20:58Z</time>
      </trkpt>
      <trkpt lat="41.483476" lon="-6.112458">
        <ele>765.15</ele>
        <time>2021-03-27T19:21:01Z</time>
      </trkpt>
      <trkpt lat="41.485775" lon="-6.102826">
        <ele>735.24</ele>
        <time>2021-03-27T19:21:05Z</time>
      </trkpt>
      <trkpt lat="41.485916" lon="-6.102291">
        <ele>733.05</ele>
        <time>2021-03-27T19:21:09Z</time>
      </trkpt>
      <trkpt lat="41.486071" lon="-6.101815">
        <ele>732.07</ele>
        <time>2021-03-27T19:21:12Z</time>
      </trkpt>
      <trkpt lat="41.486542" lon="-6.100525">
        <ele>727.7</ele>
        <time>2021-03-27T19:21:16Z</time>
      </trkpt>
      <trkpt lat="41.486857" lon="-6.09985">
        <ele>726.0</ele>
        <time>2021-03-27T19:21:19Z</time>
      </trkpt>
      <trkpt lat="41.48728" lon="-6.09914">
        <ele>721.66</ele>
        <time>2021-03-27T19:21:23Z</time>
      </trkpt>
      <trkpt lat="41.487712" lon="-6.098459">
        <ele>718.92</ele>
        <time>2021-03-27T19:21:27Z</time>
      </trkpt>
      <trkpt lat="41.489043" lon="-6.0966">
        <ele>705.64</ele>
        <time>2021-03-27T19:21:30Z</time>
      </trkpt>
      <trkpt lat="41.489161" lon="-6.096386">
        <ele>703.09</ele>
        <time>2021-03-27T19:21:34Z</time>
      </trkpt>
      <trkpt lat="41.489246" lon="-6.096178">
        <ele>699.41</ele>
        <time>2021-03-27T19:21:37Z</time>
      </trkpt>
      <trkpt lat="41.489293" lon="-6.095952">
        <ele>697.55</ele>
        <time>2021-03-27T19:21:41Z</time>
      </trkpt>
      <trkpt lat="41.489307" lon="-6.095781">
        <ele>696.66</ele>
        <time>2021-03-27T19:21:44Z</time>
      </trkpt>
      <trkpt lat="41.489265" lon="-6.095552">
        <ele>696.47</ele>
        <time>2021-03-27T19:21:48Z</time>
      </trkpt>
      <trkpt lat="41.489179" lon="-6.095245">
        <ele>694.1</ele>
        <time>2021-03-27T19:21:52Z</time>
      </trkpt>
      <trkpt lat="41.489052" lon="-6.095004">
        <ele>692.94</ele>
        <time>2021-03-27T19:21:55Z</time>
      </trkpt>
      <trkpt lat="41.488958" lon="-6.094877">
        <ele>693.61</ele>
        <time>2021-03-27T19:21:59Z</time>
      </trkpt>
      <trkpt lat="41.488675" lon="-6.094625">
        <ele>693.47</ele>
        <time>2021-03-27T19:22:02Z</time>
      </trkpt>
      <trkpt lat="41.486656" lon="-6.093189">
        <ele>670.92</ele>
        <time>2021-03-27T19:22:06Z</time>
      </trkpt>
      <trkpt lat="41.486325" lon="-6.09289">
        <ele>669.27</ele>
        <time>2021-03-27T19:22:09Z</time>
      </trkpt>
      <trkpt lat="41.486104" lon="-6.092556">
        <ele>668.52</ele>
        <time>2021-03-27T19:22:13Z</time>
      </trkpt>
      <trkpt lat="41.486026" lon="-6.092374">
        <ele>668.77</ele>
        <time>2021-03-27T19:22:17Z</time>
      </trkpt>
      <trkpt lat="41.485915" lon="-6.092002">
        <ele>668.09</ele>
        <time>2021-03-27T19:22:20Z</time>
      </trkpt>
      <trkpt lat="41.485877" lon="-6.091785">
        <ele>666.8</ele>
        <time>2021-03-27T19:22:24Z</time>
      </trkpt>
      <trkpt lat="41.485864" lon="-6.091556">
        <ele>665.57</ele>
        <time>2021-03-27T19:22:27Z</time>
      </trkpt>
      <trkpt lat="41.485875" lon="-6.091348">
        <ele>664.49</ele>
        <time>2021-03-27T19:22:31Z</time>
      </trkpt>
      <trkpt lat="41.485913" lon="-6.09109">
        <ele>664.12</ele>
        <time>2021-03-27T19:22:35Z</time>
      </trkpt>
      <trkpt lat="41.486026" lon="-6.090672">
        <ele>664.47</ele>
        <time>2021-03-27T19:22:38Z</time>
      </trkpt>
      <trkpt lat="41.48648" lon="-6.0892">
        <ele>657.72</ele>
        <time>2021-03-27T19:22:42Z</time>
      </trkpt>
      <trkpt lat="41.486533" lon="-6.088919">
        <ele>657.77</ele>
        <time>2021-03-27T19:22:45Z</time>
      </trkpt>
      <trkpt lat="41.486542" lon="-6.088667">
        <ele>656.89</ele>
        <time>2021-03-27T19:22:49Z</time>
      </trkpt>
      <trkpt lat="41.486518" lon="-6.088442">
        <ele>656.28</ele>
        <time>2021-03-27T19:22:52Z</time>
      </trkpt>
      <trkpt lat="41.486465" lon="-6.08821">
        <ele>655.73</ele>
        <time>2021-03-27T19:22:56Z</time>
      </trkpt>
      <trkpt lat="41.486374" lon="-6.087944">
        <ele>654.41</ele>
        <time>2021-03-27T19:23:00Z</time>
      </trkpt>
      <trkpt lat="41.486085" lon="-6.087255">
        <ele>647.03</ele>
        <time>2021-03-27T19:23:03Z</time>
      </trkpt>
      <trkpt lat="41.486012" lon="-6.087035">
        <ele>646.48</ele>
        <time>2021-03-27T19:23:07Z</time>
      </trkpt>
      <trkpt lat="41.485948" lon="-6.08679">
        <ele>644.89</ele>
        <time>2021-03-27T19:23:10Z</time>
      </trkpt>
      <trkpt lat="41.485919" lon="-6.086581">
        <ele>643.67</ele>
        <time>2021-03-27T19:23:14Z</time>
      </trkpt>
      <trkpt lat="41.485917" lon="-6.086397">
        <ele>643.21</ele>
        <time>2021-03-27T19:23:17Z</time>
      </trkpt>
      <trkpt lat="41.485958" lon="-6.086188">
        <ele>643.82</ele>
        <time>2021-03-27T19:23:21Z</time>
      </trkpt>
      <trkpt lat="41.486055" lon="-6.085977">
        <ele>644.99</ele>
        <time>2021-03-27T19:23:25Z</time>
      </trkpt>
      <trkpt lat="41.486987" lon="-6.084664">
        <ele>627.56</ele>
        <time>2021-03-27T19:23:28Z</time>
      </trkpt>
      <trkpt lat="41.487355" lon="-6.084237">
        <ele>630.67</ele>
        <time>2021-03-27T19:23:32Z</time>
      </trkpt>
      <trkpt lat="41.487554" lon="-6.084068">
        <ele>630.34</ele>
        <time>2021-03-27T19:23:35Z</time>
      </trkpt>
      <trkpt lat="41.488086" lon="-6.083726">
        <ele>622.45</ele>
        <time>2021-03-27T19:23:39Z</time>
      </trkpt>
      <trkpt lat="41.488332" lon="-6.083607">
        <ele>619.11</ele>
        <time>2021-03-27T19:23:43Z</time>
      </trkpt>
      <trkpt lat="41.488501" lon="-6.083553">
        <ele>618.27</ele>
        <time>2021-03-27T19:23:46Z</time>
      </trkpt>
      <trkpt lat="41.488694" lon="-6.083527">
        <ele>617.03</ele>
        <time>2021-03-27T19:23:50Z</time>
      </trkpt>
      <trkpt lat="41.488987" lon="-6.083545">
        <ele>616.31</ele>
        <time>2021-03-27T19:23:53Z</time>
      </trkpt>
      <trkpt lat="41.489483" lon="-6.083709">
        <ele>612.12</ele>
        <time>2021-03-27T19:23:57Z</time>
      </trkpt>
      <trkpt lat="41.489647" lon="-6.083756">
        <ele>609.16</ele>
        <time>2021-03-27T19:24:00Z</time>
      </trkpt>
      <trkpt lat="41.489932" lon="-6.083796">
        <ele>606.09</ele>
        <time>2021-03-27T19:24:04Z</time>
      </trkpt>
      <trkpt lat="41.49069" lon="-6.083751">
        <ele>610.94</ele>
        <time>2021-03-27T19:24:08Z</time>
      </trkpt>
      <trkpt lat="41.490802" lon="-6.083786">
        <ele>610.44</ele>
        <time>2021-03-27T19:24:11Z</time>
      </trkpt>
      <trkpt lat="41.490866" lon="-6.083845">
        <ele>608.96</ele>
        <time>2021-03-27T19:24:15Z</time>
      </trkpt>
      <trkpt lat="41.491161" lon="-6.084786">
        <ele>595.05</ele>
        <time>2021-03-27T19:24:18Z</time>
      </trkpt>
      <trkpt lat="41.49125" lon="-6.085142">
        <ele>591.44</ele>
        <time>2021-03-27T19:24:22Z</time>
      </trkpt>
      <trkpt lat="41.491359" lon="-6.085803">
        <ele>584.84</ele>
        <time>2021-03-27T19:24:26Z</time>
      </trkpt>
      <trkpt lat="41.491554" lon="-6.087304">
        <ele>604.02</ele>
        <time>2021-03-27T19:24:29Z</time>
      </trkpt>
      <trkpt lat="41.49168" lon="-6.087437">
        <ele>607.39</ele>
        <time>2021-03-27T19:24:33Z</time>
      </trkpt>
      <trkpt lat="41.491748" lon="-6.08745">
        <ele>607.61</ele>
        <time>2021-03-27T19:24:36Z</time>
      </trkpt>
      <trkpt lat="41.492274" lon="-6.087288">
        <ele>610.22</ele>
        <time>2021-03-27T19:24:40Z</time>
      </trkpt>
      <trkpt lat="41.49284" lon="-6.086994">
        <ele>609.41</ele>
        <time>2021-03-27T19:24:43Z</time>
      </trkpt>
      <trkpt lat="41.492938" lon="-6.086934">
        <ele>609.63</ele>
        <time>2021-03-27T19:24:47Z</time>
      </trkpt>
      <trkpt lat="41.493169" lon="-6.086843">
        <ele>613.97</ele>
        <time>2021-03-27T19:24:51Z</time>
      </trkpt>
      <trkpt lat="41.493281" lon="-6.086753">
        <ele>616.2</ele>
        <time>2021-03-27T19:24:54Z</time>
      </trkpt>
      <trkpt lat="41.493575" lon="-6.086418">
        <ele>621.36</ele>
        <time>2021-03-27T19:24:58Z</time>
      </trkpt>
      <trkpt lat="41.493738" lon="-6.085954">
        <ele>622.23</ele>
        <time>2021-03-27T19:25:01Z</time>
      </trkpt>
      <trkpt lat="41.493781" lon="-6.085883">
        <ele>623.38</ele>
        <time>2021-03-27T19:25:05Z</time>
      </trkpt>
      <trkpt lat="41.493836" lon="-6.085844">
        <ele>625.15</ele>
        <time>2021-03-27T19:25:08Z</time>
      </trkpt>
      <trkpt lat="41.493913" lon="-6.085839">
        <ele>627.71</ele>
        <time>2021-03-27T19:25:12Z</time>
      </trkpt>
      <trkpt lat="41.493995" lon="-6.085876">
        <ele>630.2</ele>
        <time>2021-03-27T19:25:16Z</time>
      </trkpt>
      <trkpt lat="41.494053" lon="-6.085956">
        <ele>632.16</ele>
        <time>2021-03-27T19:25:19Z</time>
      </trkpt>
      <trkpt lat="41.494081" lon="-6.086091">
        <ele>633.46</ele>
        <time>2021-03-27T19:25:23Z</time>
      </trkpt>
      <trkpt lat="41.494066" lon="-6.086207">
        <ele>634.37</ele>
        <time>2021-03-27T19:25:26Z</time>
      </trkpt>
      <trkpt lat="41.494003" lon="-6.086342">
        <ele>634.14</ele>
        <time>2021-03-27T19:25:30Z</time>
      </trkpt>
      <trkpt lat="41.49369" lon="-6.086823">
        <ele>630.92</ele>
        <time>2021-03-27T19:25:34Z</time>
      </trkpt>
      <trkpt lat="41.493623" lon="-6.086955">
        <ele>630.63</ele>
        <time>2021-03-27T19:25:37Z</time>
      </trkpt>
      <trkpt lat="41.493577" lon="-6.087079">
        <ele>631.93</ele>
        <time>2021-03-27T19:25:41Z</time>
      </trkpt>
      <trkpt lat="41.493513" lon="-6.08736">
        <ele>635.51</ele>
        <time>2021-03-27T19:25:44Z</time>
      </trkpt>
      <trkpt lat="41.493441" lon="-6.087531">
        <ele>636.69</ele>
        <time>2021-03-27T19:25:48Z</time>
      </trkpt>
      <trkpt lat="41.493358" lon="-6.087638">
        <ele>636.44</ele>
        <time>2021-03-27T19:25:51Z</time>
      </trkpt>
      <trkpt lat="41.493144" lon="-6.087798">
        <ele>636.36</ele>
        <time>2021-03-27T19:25:55Z</time>
      </trkpt>
      <trkpt lat="41.493052" lon="-6.087837">
        <ele>636.23</ele>
        <time>2021-03-27T19:25:59Z</time>
      </trkpt>
      <trkpt lat="41.492767" lon="-6.087858">
        <ele>632.84</ele>
        <time>2021-03-27T19:26:02Z</time>
      </trkpt>
      <trkpt lat="41.492654" lon="-6.087896">
        <ele>631.95</ele>
        <time>2021-03-27T19:26:06Z</time>
      </trkpt>
      <trkpt lat="41.492573" lon="-6.08802">
        <ele>634.06</ele>
        <time>2021-03-27T19:26:09Z</time>
      </trkpt>
      <trkpt lat="41.492563" lon="-6.088121">
        <ele>636.45</ele>
        <time>2021-03-27T19:26:13Z</time>
      </trkpt>
      <trkpt lat="41.492572" lon="-6.088219">
        <ele>638.86</ele>
        <time>2021-03-27T19:26:16Z</time>
      </trkpt>
      <trkpt lat="41.492628" lon="-6.088305">
        <ele>641.3</ele>
        <time>2021-03-27T19:26:20Z</time>
      </trkpt>
      <trkpt lat="41.492714" lon="-6.088362">
        <ele>643.11</ele>
        <time>2021-03-27T19:26:24Z</time>
      </trkpt>
      <trkpt lat="41.492795" lon="-6.088376">
        <ele>643.92</ele>
        <time>2021-03-27T19:26:27Z</time>
      </trkpt>
      <trkpt lat="41.493015" lon="-6.088319">
        <ele>645.3</ele>
        <time>2021-03-27T19:26:31Z</time>
      </trkpt>
      <trkpt lat="41.493494" lon="-6.088121">
        <ele>645.41</ele>
        <time>2021-03-27T19:26:34Z</time>
      </trkpt>
      <trkpt lat="41.493718" lon="-6.087935">
        <ele>645.15</ele>
        <time>2021-03-27T19:26:38Z</time>
      </trkpt>
      <trkpt lat="41.493826" lon="-6.087862">
        <ele>645.6</ele>
        <time>2021-03-27T19:26:42Z</time>
      </trkpt>
      <trkpt lat="41.493917" lon="-6.087827">
        <ele>646.31</ele>
        <time>2021-03-27T19:26:45Z</time>
      </trkpt>
      <trkpt lat="41.494004" lon="-6.087824">
        <ele>646.72</ele>
        <time>2021-03-27T19:26:49Z</time>
      </trkpt>
      <trkpt lat="41.494343" lon="-6.087924">
        <ele>646.99</ele>
        <time>2021-03-27T19:26:52Z</time>
      </trkpt>
      <trkpt lat="41.494479" lon="-6.08794">
        <ele>647.16</ele>
        <time>2021-03-27T19:26:56Z</time>
      </trkpt>
      <trkpt lat="41.494602" lon="-6.087907">
        <ele>648.87</ele>
        <time>2021-03-27T19:26:59Z</time>
      </trkpt>
      <trkpt lat="41.494908" lon="-6.087764">
        <ele>653.91</ele>
        <time>2021-03-27T19:27:03Z</time>
      </trkpt>
      <trkpt lat="41.495551" lon="-6.087279">
        <ele>655.68</ele>
        <time>2021-03-27T19:27:07Z</time>
      </trkpt>
      <trkpt lat="41.495822" lon="-6.087025">
        <ele>656.47</ele>
        <time>2021-03-27T19:27:10Z</time>
      </trkpt>
      <trkpt lat="41.495949" lon="-6.086872">
        <ele>658.51</ele>
        <time>2021-03-27T19:27:14Z</time>
      </trkpt>
      <trkpt lat="41.49605" lon="-6.086709">
        <ele>660.2</ele>
        <time>2021-03-27T19:27:17Z</time>
      </trkpt>
      <trkpt lat="41.496129" lon="-6.086523">
        <ele>661.9</ele>
        <time>2021-03-27T19:27:21Z</time>
      </trkpt>
      <trkpt lat="41.496179" lon="-6.086327">
        <ele>663.42</ele>
        <time>2021-03-27T19:27:25Z</time>
      </trkpt>
      <trkpt lat="41.4962" lon="-6.086139">
        <ele>664.22</ele>
        <time>2021-03-27T19:27:28Z</time>
      </trkpt>
      <trkpt lat="41.496183" lon="-6.085641">
        <ele>667.1</ele>
        <time>2021-03-27T19:27:32Z</time>
      </trkpt>
      <trkpt lat="41.496075" lon="-6.084722">
        <ele>671.0</ele>
        <time>2021-03-27T19:27:35Z</time>
      </trkpt>
      <trkpt lat="41.496124" lon="-6.084328">
        <ele>672.02</ele>
        <time>2021-03-27T19:27:39Z</time>
      </trkpt>
      <trkpt lat="41.496189" lon="-6.084142">
        <ele>672.27</ele>
        <time>2021-03-27T19:27:42Z</time>
      </trkpt>
      <trkpt lat="41.496272" lon="-6.083963">
        <ele>673.12</ele>
        <time>2021-03-27T19:27:46Z</time>
      </trkpt>
      <trkpt lat="41.496378" lon="-6.083803">
        <ele>675.13</ele>
        <time>2021-03-27T19:27:50Z</time>
      </trkpt>
      <trkpt lat="41.497649" lon="-6.082451">
        <ele>687.96</ele>
        <time>2021-03-27T19:27:53Z</time>
      </trkpt>
      <trkpt lat="41.497839" lon="-6.082199">
        <ele>689.73</ele>
        <time>2021-03-27T19:27:57Z</time>
      </trkpt>
      <trkpt lat="41.498095" lon="-6.081764">
        <ele>691.59</ele>
        <time>2021-03-27T19:28:00Z</time>
      </trkpt>
      <trkpt lat="41.499089" lon="-6.079779">
        <ele>703.2</ele>
        <time>2021-03-27T19:28:04Z</time>
      </trkpt>
      <trkpt lat="41.499197" lon="-6.079622">
        <ele>702.89</ele>
        <time>2021-03-27T19:28:07Z</time>
      </trkpt>
      <trkpt lat="41.499356" lon="-6.079446">
        <ele>701.94</ele>
        <time>2021-03-27T19:28:11Z</time>
      </trkpt>
      <trkpt lat="41.499571" lon="-6.079286">
        <ele>703.97</ele>
        <time>2021-03-27T19:28:15Z</time>
      </trkpt>
      <trkpt lat="41.499682" lon="-6.079225">
        <ele>704.89</ele>
        <time>2021-03-27T19:28:18Z</time>
      </trkpt>
      <trkpt lat="41.499934" lon="-6.07916">
        <ele>705.41</ele>
        <time>2021-03-27T19:28:22Z</time>
      </trkpt>
      <trkpt lat="41.500057" lon="-6.079153">
        <ele>705.92</ele>
        <time>2021-03-27T19:28:25Z</time>
      </trkpt>
      <trkpt lat="41.500309" lon="-6.07919">
        <ele>708.3</ele>
        <time>2021-03-27T19:28:29Z</time>
      </trkpt>
      <trkpt lat="41.500441" lon="-6.07926">
        <ele>709.73</ele>
        <time>2021-03-27T19:28:33Z</time>
      </trkpt>
      <trkpt lat="41.500812" lon="-6.079398">
        <ele>712.12</ele>
        <time>2021-03-27T19:28:36Z</time>
      </trkpt>
      <trkpt lat="41.50094" lon="-6.079414">
        <ele>712.6</ele>
        <time>2021-03-27T19:28:40Z</time>
      </trkpt>
      <trkpt lat="41.501056" lon="-6.079405">
        <ele>713.09</ele>
        <time>2021-03-27T19:28:43Z</time>
      </trkpt>
      <trkpt lat="41.501177" lon="-6.079361">
        <ele>712.96</ele>
        <time>2021-03-27T19:28:47Z</time>
      </trkpt>
      <trkpt lat="41.501362" lon="-6.079227">
        <ele>712.56</ele>
        <time>2021-03-27T19:28:50Z</time>
      </trkpt>
      <trkpt lat="41.50194" lon="-6.078535">
        <ele>714.4</ele>
        <time>2021-03-27T19:28:54Z</time>
      </trkpt>
      <trkpt lat="41.502077" lon="-6.078443">
        <ele>715.73</ele>
        <time>2021-03-27T19:28:58Z</time>
      </trkpt>
      <trkpt lat="41.502195" lon="-6.078401">
        <ele>716.09</ele>
        <time>2021-03-27T19:29:01Z</time>
      </trkpt>
      <trkpt lat="41.502332" lon="-6.078398">
        <ele>716.25</ele>
        <time>2021-03-27T19:29:05Z</time>
      </trkpt>
      <trkpt lat="41.502481" lon="-6.078435">
        <ele>716.21</ele>
        <time>2021-03-27T19:29:08Z</time>
      </trkpt>
      <trkpt lat="41.502681" lon="-6.078575">
        <ele>716.65</ele>
        <time>2021-03-27T19:29:12Z</time>
      </trkpt>
      <trkpt lat="41.503098" lon="-6.07896">
        <ele>718.39</ele>
        <time>2021-03-27T19:29:15Z</time>
      </trkpt>
      <trkpt lat="41.503267" lon="-6.079078">
        <ele>718.04</ele>
        <time>2021-03-27T19:29:19Z</time>
      </trkpt>
      <trkpt lat="41.503554" lon="-6.079196">
        <ele>717.28</ele>
        <time>2021-03-27T19:29:23Z</time>
      </trkpt>
      <trkpt lat="41.503698" lon="-6.079222">
        <ele>717.06</ele>
        <time>2021-03-27T19:29:26Z</time>
      </trkpt>
      <trkpt lat="41.503966" lon="-6.07921">
        <ele>717.57</ele>
        <time>2021-03-27T19:29:30Z</time>
      </trkpt>
      <trkpt lat="41.504227" lon="-6.079139">
        <ele>718.96</ele>
        <time>2021-03-27T19:29:33Z</time>
      </trkpt>
      <trkpt lat="41.50447" lon="-6.079004">
        <ele>719.18</ele>
        <time>2021-03-27T19:29:37Z</time>
      </trkpt>
      <trkpt lat="41.504675" lon="-6.07883">
        <ele>721.06</ele>
        <time>2021-03-27T19:29:41Z</time>
      </trkpt>
      <trkpt lat="41.504774" lon="-6.078718">
        <ele>722.08</ele>
        <time>2021-03-27T19:29:44Z</time>
      </trkpt>
      <trkpt lat="41.50494" lon="-6.078466">
        <ele>723.18</ele>
        <time>2021-03-27T19:29:48Z</time>
      </trkpt>
      <trkpt lat="41.505012" lon="-6.078325">
        <ele>722.66</ele>
        <time>2021-03-27T19:29:51Z</time>
      </trkpt>
      <trkpt lat="41.505073" lon="-6.078183">
        <ele>720.89</ele>
        <time>2021-03-27T19:29:55Z</time>
      </trkpt>
      <trkpt lat="41.505166" lon="-6.07785">
        <ele>720.14</ele>
        <time>2021-03-27T19:29:58Z</time>
      </trkpt>
      <trkpt lat="41.505216" lon="-6.077482">
        <ele>722.45</ele>
        <time>2021-03-27T19:30:02Z</time>
      </trkpt>
      <trkpt lat="41.505326" lon="-6.075339">
        <ele>716.88</ele>
        <time>2021-03-27T19:30:06Z</time>
      </trkpt>
      <trkpt lat="41.505421" lon="-6.074771">
        <ele>711.49</ele>
        <time>2021-03-27T19:30:09Z</time>
      </trkpt>
      <trkpt lat="41.505465" lon="-6.074595">
        <ele>710.04</ele>
        <time>2021-03-27T19:30:13Z</time>
      </trkpt>
      <trkpt lat="41.505587" lon="-6.074252">
        <ele>708.4</ele>
        <time>2021-03-27T19:30:16Z</time>
      </trkpt>
      <trkpt lat="41.506034" lon="-6.07328">
        <ele>710.47</ele>
        <time>2021-03-27T19:30:20Z</time>
      </trkpt>
      <trkpt lat="41.50634" lon="-6.072666">
        <ele>715.74</ele>
        <time>2021-03-27T19:30:24Z</time>
      </trkpt>
      <trkpt lat="41.506726" lon="-6.072029">
        <ele>718.39</ele>
        <time>2021-03-27T19:30:27Z</time>
      </trkpt>
      <trkpt lat="41.507017" lon="-6.071639">
        <ele>719.27</ele>
        <time>2021-03-27T19:30:31Z</time>
      </trkpt>
      <trkpt lat="41.507499" lon="-6.071115">
        <ele>720.97</ele>
        <time>2021-03-27T19:30:34Z</time>
      </trkpt>
      <trkpt lat="41.50766" lon="-6.070972">
        <ele>722.0</ele>
        <time>2021-03-27T19:30:38Z</time>
      </trkpt>
      <trkpt lat="41.508157" lon="-6.07059">
        <ele>723.34</ele>
        <time>2021-03-27T19:30:41Z</time>
      </trkpt>
      <trkpt lat="41.508639" lon="-6.070316">
        <ele>726.36</ele>
        <time>2021-03-27T19:30:45Z</time>
      </trkpt>
      <trkpt lat="41.509129" lon="-6.070102">
        <ele>725.54</ele>
        <time>2021-03-27T19:30:49Z</time>
      </trkpt>
      <trkpt lat="41.510054" lon="-6.069754">
        <ele>725.51</ele>
        <time>2021-03-27T19:30:52Z</time>
      </trkpt>
      <trkpt lat="41.510303" lon="-6.069643">
        <ele>726.28</ele>
        <time>2021-03-27T19:30:56Z</time>
      </trkpt>
      <trkpt lat="41.510452" lon="-6.069542">
        <ele>726.8</ele>
        <time>2021-03-27T19:30:59Z</time>
      </trkpt>
      <trkpt lat="41.510578" lon="-6.069431">
        <ele>727.03</ele>
        <time>2021-03-27T19:31:03Z</time>
      </trkpt>
      <trkpt lat="41.510686" lon="-6.069313">
        <ele>727.95</ele>
        <time>2021-03-27T19:31:06Z</time>
      </trkpt>
      <trkpt lat="41.510784" lon="-6.069173">
        <ele>729.26</ele>
        <time>2021-03-27T19:31:10Z</time>
      </trkpt>
      <trkpt lat="41.510865" lon="-6.069037">
        <ele>730.76</ele>
        <time>2021-03-27T19:31:14Z</time>
      </trkpt>
      <trkpt lat="41.510988" lon="-6.068756">
        <ele>733.35</ele>
        <time>2021-03-27T19:31:17Z</time>
      </trkpt>
      <trkpt lat="41.511063" lon="-6.068451">
        <ele>734.09</ele>
        <time>2021-03-27T19:31:21Z</time>
      </trkpt>
      <trkpt lat="41.511101" lon="-6.068126">
        <ele>734.08</ele>
        <time>2021-03-27T19:31:24Z</time>
      </trkpt>
      <trkpt lat="41.511124" lon="-6.067127">
        <ele>737.09</ele>
        <time>2021-03-27T19:31:28Z</time>
      </trkpt>
      <trkpt lat="41.511178" lon="-6.066677">
        <ele>737.48</ele>
        <time>2021-03-27T19:31:32Z</time>
      </trkpt>
      <trkpt lat="41.511279" lon="-6.066236">
        <ele>736.33</ele>
        <time>2021-03-27T19:31:35Z</time>
      </trkpt>
      <trkpt lat="41.51135" lon="-6.066014">
        <ele>735.86</ele>
        <time>2021-03-27T19:31:39Z</time>
      </trkpt>
      <trkpt lat="41.511509" lon="-6.06564">
        <ele>736.17</ele>
        <time>2021-03-27T19:31:42Z</time>
      </trkpt>
      <trkpt lat="41.512451" lon="-6.063904">
        <ele>742.6</ele>
        <time>2021-03-27T19:31:46Z</time>
      </trkpt>
      <trkpt lat="41.512767" lon="-6.063447">
        <ele>744.36</ele>
        <time>2021-03-27T19:31:49Z</time>
      </trkpt>
      <trkpt lat="41.513756" lon="-6.0623">
        <ele>748.24</ele>
        <time>2021-03-27T19:31:53Z</time>
      </trkpt>
      <trkpt lat="41.513933" lon="-6.062068">
        <ele>749.09</ele>
        <time>2021-03-27T19:31:57Z</time>
      </trkpt>
      <trkpt lat="41.516962" lon="-6.057554">
        <ele>766.8</ele>
        <time>2021-03-27T19:32:00Z</time>
      </trkpt>
      <trkpt lat="41.517078" lon="-6.057339">
        <ele>767.85</ele>
        <time>2021-03-27T19:32:04Z</time>
      </trkpt>
      <trkpt lat="41.518022" lon="-6.055338">
        <ele>776.78</ele>
        <time>2021-03-27T19:32:07Z</time>
      </trkpt>
      <trkpt lat="41.518156" lon="-6.05509">
        <ele>778.04</ele>
        <time>2021-03-27T19:32:11Z</time>
      </trkpt>
      <trkpt lat="41.518422" lon="-6.054673">
        <ele>779.5</ele>
        <time>2021-03-27T19:32:14Z</time>
      </trkpt>
      <trkpt lat="41.519504" lon="-6.05338">
        <ele>785.43</ele>
        <time>2021-03-27T19:32:18Z</time>
      </trkpt>
      <trkpt lat="41.519618" lon="-6.053224">
        <ele>786.25</ele>
        <time>2021-03-27T19:32:22Z</time>
      </trkpt>
      <trkpt lat="41.521177" lon="-6.050724">
        <ele>782.0</ele>
        <time>2021-03-27T19:32:25Z</time>
      </trkpt>
      <trkpt lat="41.521226" lon="-6.05059">
        <ele>782.0</ele>
        <time>2021-03-27T19:32:29Z</time>
      </trkpt>
      <trkpt lat="41.521281" lon="-6.050303">
        <ele>782.35</ele>
        <time>2021-03-27T19:32:32Z</time>
      </trkpt>
      <trkpt lat="41.521391" lon="-6.049402">
        <ele>781.0</ele>
        <time>2021-03-27T19:32:36Z</time>
      </trkpt>
      <trkpt lat="41.521452" lon="-6.049043">
        <ele>781.1</ele>
        <time>2021-03-27T19:32:40Z</time>
      </trkpt>
      <trkpt lat="41.521554" lon="-6.048816">
        <ele>781.7</ele>
        <time>2021-03-27T19:32:43Z</time>
      </trkpt>
      <trkpt lat="41.52204" lon="-6.04814">
        <ele>781.0</ele>
        <time>2021-03-27T19:32:47Z</time>
      </trkpt>
      <trkpt lat="41.522104" lon="-6.047921">
        <ele>780.52</ele>
        <time>2021-03-27T19:32:50Z</time>
      </trkpt>
      <trkpt lat="41.522104" lon="-6.047605">
        <ele>780.0</ele>
        <time>2021-03-27T19:32:54Z</time>
      </trkpt>
      <trkpt lat="41.521953" lon="-6.046371">
        <ele>776.93</ele>
        <time>2021-03-27T19:32:57Z</time>
      </trkpt>
      <trkpt lat="41.521948" lon="-6.046142">
        <ele>776.11</ele>
        <time>2021-03-27T19:33:01Z</time>
      </trkpt>
      <trkpt lat="41.521975" lon="-6.045947">
        <ele>776.0</ele>
        <time>2021-03-27T19:33:05Z</time>
      </trkpt>
      <trkpt lat="41.522142" lon="-6.045483">
        <ele>775.76</ele>
        <time>2021-03-27T19:33:08Z</time>
      </trkpt>
      <trkpt lat="41.522881" lon="-6.043664">
        <ele>773.88</ele>
        <time>2021-03-27T19:33:12Z</time>
      </trkpt>
      <trkpt lat="41.522962" lon="-6.043398">
        <ele>772.98</ele>
        <time>2021-03-27T19:33:15Z</time>
      </trkpt>
      <trkpt lat="41.523118" lon="-6.042417">
        <ele>771.78</ele>
        <time>2021-03-27T19:33:19Z</time>
      </trkpt>
      <trkpt lat="41.523178" lon="-6.042159">
        <ele>771.42</ele>
        <time>2021-03-27T19:33:23Z</time>
      </trkpt>
      <trkpt lat="41.523242" lon="-6.041975">
        <ele>770.4</ele>
        <time>2021-03-27T19:33:26Z</time>
      </trkpt>
      <trkpt lat="41.523318" lon="-6.04181">
        <ele>769.57</ele>
        <time>2021-03-27T19:33:30Z</time>
      </trkpt>
      <trkpt lat="41.524192" lon="-6.040323">
        <ele>762.66</ele>
        <time>2021-03-27T19:33:33Z</time>
      </trkpt>
      <trkpt lat="41.524936" lon="-6.039058">
        <ele>757.0</ele>
        <time>2021-03-27T19:33:37Z</time>
      </trkpt>
      <trkpt lat="41.525011" lon="-6.038895">
        <ele>757.04</ele>
        <time>2021-03-27T19:33:40Z</time>
      </trkpt>
      <trkpt lat="41.525065" lon="-6.038732">
        <ele>757.67</ele>
        <time>2021-03-27T19:33:44Z</time>
      </trkpt>
      <trkpt lat="41.525121" lon="-6.038412">
        <ele>757.69</ele>
        <time>2021-03-27T19:33:48Z</time>
      </trkpt>
      <trkpt lat="41.525126" lon="-6.038135">
        <ele>758.26</ele>
        <time>2021-03-27T19:33:51Z</time>
      </trkpt>
      <trkpt lat="41.525107" lon="-6.037915">
        <ele>759.82</ele>
        <time>2021-03-27T19:33:55Z</time>
      </trkpt>
      <trkpt lat="41.525076" lon="-6.037716">
        <ele>761.44</ele>
        <time>2021-03-27T19:33:58Z</time>
      </trkpt>
      <trkpt lat="41.524893" lon="-6.036885">
        <ele>765.47</ele>
        <time>2021-03-27T19:34:02Z</time>
      </trkpt>
      <trkpt lat="41.524714" lon="-6.035873">
        <ele>765.03</ele>
        <time>2021-03-27T19:34:05Z</time>
      </trkpt>
      <trkpt lat="41.524561" lon="-6.03468">
        <ele>770.14</ele>
        <time>2021-03-27T19:34:09Z</time>
      </trkpt>
      <trkpt lat="41.524512" lon="-6.033979">
        <ele>773.84</ele>
        <time>2021-03-27T19:34:13Z</time>
      </trkpt>
      <trkpt lat="41.524513" lon="-6.033309">
        <ele>774.41</ele>
        <time>2021-03-27T19:34:16Z</time>
      </trkpt>
      <trkpt lat="41.524565" lon="-6.03261">
        <ele>772.6</ele>
        <time>2021-03-27T19:34:20Z</time>
      </trkpt>
      <trkpt lat="41.52465" lon="-6.031963">
        <ele>771.05</ele>
        <time>2021-03-27T19:34:23Z</time>
      </trkpt>
      <trkpt lat="41.524752" lon="-6.031417">
        <ele>770.1</ele>
        <time>2021-03-27T19:34:27Z</time>
      </trkpt>
      <trkpt lat="41.524976" lon="-6.030513">
        <ele>766.23</ele>
        <time>2021-03-27T19:34:31Z</time>
      </trkpt>
      <trkpt lat="41.526618" lon="-6.024387">
        <ele>746.83</ele>
        <time>2021-03-27T19:34:34Z</time>
      </trkpt>
      <trkpt lat="41.526703" lon="-6.023968">
        <ele>746.28</ele>
        <time>2021-03-27T19:34:38Z</time>
      </trkpt>
      <trkpt lat="41.526729" lon="-6.023746">
        <ele>745.6</ele>
        <time>2021-03-27T19:34:41Z</time>
      </trkpt>
      <trkpt lat="41.526745" lon="-6.023298">
        <ele>746.02</ele>
        <time>2021-03-27T19:34:45Z</time>
      </trkpt>
      <trkpt lat="41.52672" lon="-6.0229">
        <ele>747.34</ele>
        <time>2021-03-27T19:34:48Z</time>
      </trkpt>
      <trkpt lat="41.526494" lon="-6.0214">
        <ele>752.69</ele>
        <time>2021-03-27T19:34:52Z</time>
      </trkpt>
      <trkpt lat="41.526458" lon="-6.020975">
        <ele>752.51</ele>
        <time>2021-03-27T19:34:56Z</time>
      </trkpt>
      <trkpt lat="41.526461" lon="-6.020548">
        <ele>751.5</ele>
        <time>2021-03-27T19:34:59Z</time>
      </trkpt>
      <trkpt lat="41.526489" lon="-6.020313">
        <ele>751.16</ele>
        <time>2021-03-27T19:35:03Z</time>
      </trkpt>
      <trkpt lat="41.526595" lon="-6.019789">
        <ele>750.16</ele>
        <time>2021-03-27T19:35:06Z</time>
      </trkpt>
      <trkpt lat="41.52744" lon="-6.016765">
        <ele>745.78</ele>
        <time>2021-03-27T19:35:10Z</time>
      </trkpt>
      <trkpt lat="41.527567" lon="-6.016175">
        <ele>746.83</ele>
        <time>2021-03-27T19:35:13Z</time>
      </trkpt>
      <trkpt lat="41.527611" lon="-6.015813">
        <ele>746.5</ele>
        <time>2021-03-27T19:35:17Z</time>
      </trkpt>
      <trkpt lat="41.527792" lon="-6.013532">
        <ele>756.53</ele>
        <time>2021-03-27T19:35:21Z</time>
      </trkpt>
      <trkpt lat="41.52782" lon="-6.013305">
        <ele>758.29</ele>
        <time>2021-03-27T19:35:24Z</time>
      </trkpt>
      <trkpt lat="41.527906" lon="-6.012901">
        <ele>761.09</ele>
        <time>2021-03-27T19:35:28Z</time>
      </trkpt>
      <trkpt lat="41.528031" lon="-6.012527">
        <ele>761.17</ele>
        <time>2021-03-27T19:35:31Z</time>
      </trkpt>
      <trkpt lat="41.52812" lon="-6.012312">
        <ele>760.77</ele>
        <time>2021-03-27T19:35:35Z</time>
      </trkpt>
      <trkpt lat="41.528537" lon="-6.01147">
        <ele>763.44</ele>
        <time>2021-03-27T19:35:39Z</time>
      </trkpt>
      <trkpt lat="41.528673" lon="-6.011143">
        <ele>764.89</ele>
        <time>2021-03-27T19:35:42Z</time>
      </trkpt>
      <trkpt lat="41.528774" lon="-6.010838">
        <ele>765.0</ele>
        <time>2021-03-27T19:35:46Z</time>
      </trkpt>
      <trkpt lat="41.528844" lon="-6.010529">
        <ele>764.76</ele>
        <time>2021-03-27T19:35:49Z</time>
      </trkpt>
      <trkpt lat="41.528882" lon="-6.010214">
        <ele>763.77</ele>
        <time>2021-03-27T19:35:53Z</time>
      </trkpt>
      <trkpt lat="41.528904" lon="-6.009831">
        <ele>762.45</ele>
        <time>2021-03-27T19:35:56Z</time>
      </trkpt>
      <trkpt lat="41.528898" lon="-6.00934">
        <ele>762.4</ele>
        <time>2021-03-27T19:36:00Z</time>
      </trkpt>
      <trkpt lat="41.528797" lon="-6.006394">
        <ele>753.02</ele>
        <time>2021-03-27T19:36:04Z</time>
      </trkpt>
      <trkpt lat="41.528757" lon="-6.003997">
        <ele>749.66</ele>
        <time>2021-03-27T19:36:07Z</time>
      </trkpt>
      <trkpt lat="41.528604" lon="-5.999998">
        <ele>741.95</ele>
        <time>2021-03-27T19:36:11Z</time>
      </trkpt>
      <trkpt lat="41.528577" lon="-5.998927">
        <ele>738.89</ele>
        <time>2021-03-27T19:36:14Z</time>
      </trkpt>
      <trkpt lat="41.528606" lon="-5.998504">
        <ele>738.99</ele>
        <time>2021-03-27T19:36:18Z</time>
      </trkpt>
      <trkpt lat="41.528716" lon="-5.997753">
        <ele>741.03</ele>
        <time>2021-03-27T19:36:22Z</time>
      </trkpt>
      <trkpt lat="41.5289" lon="-5.997111">
        <ele>739.32</ele>
        <time>2021-03-27T19:36:25Z</time>
      </trkpt>
      <trkpt lat="41.529023" lon="-5.996767">
        <ele>738.5</ele>
        <time>2021-03-27T19:36:29Z</time>
      </trkpt>
      <trkpt lat="41.529189" lon="-5.996394">
        <ele>740.06</ele>
        <time>2021-03-27T19:36:32Z</time>
      </trkpt>
      <trkpt lat="41.529374" lon="-5.996034">
        <ele>742.09</ele>
        <time>2021-03-27T19:36:36Z</time>
      </trkpt>
      <trkpt lat="41.529557" lon="-5.995738">
        <ele>744.29</ele>
        <time>2021-03-27T19:36:39Z</time>
      </trkpt>
      <trkpt lat="41.529924" lon="-5.995262">
        <ele>750.97</ele>
        <time>2021-03-27T19:36:43Z</time>
      </trkpt>
      <trkpt lat="41.530647" lon="-5.994404">
        <ele>746.18</ele>
        <time>2021-03-27T19:36:47Z</time>
      </trkpt>
      <trkpt lat="41.530949" lon="-5.99393">
        <ele>745.5</ele>
        <time>2021-03-27T19:36:50Z</time>
      </trkpt>
      <trkpt lat="41.531117" lon="-5.993595">
        <ele>744.98</ele>
        <time>2021-03-27T19:36:54Z</time>
      </trkpt>
      <trkpt lat="41.531256" lon="-5.993264">
        <ele>744.67</ele>
        <time>2021-03-27T19:36:57Z</time>
      </trkpt>
      <trkpt lat="41.532163" lon="-5.99062">
        <ele>743.82</ele>
        <time>2021-03-27T19:37:01Z</time>
      </trkpt>
      <trkpt lat="41.532285" lon="-5.990315">
        <ele>742.35</ele>
        <time>2021-03-27T19:37:04Z</time>
      </trkpt>
      <trkpt lat="41.532766" lon="-5.98937">
        <ele>738.08</ele>
        <time>2021-03-27T19:37:08Z</time>
      </trkpt>
      <trkpt lat="41.532871" lon="-5.989239">
        <ele>736.41</ele>
        <time>2021-03-27T19:37:12Z</time>
      </trkpt>
      <trkpt lat="41.533008" lon="-5.98913">
        <ele>734.07</ele>
        <time>2021-03-27T19:37:15Z</time>
      </trkpt>
      <trkpt lat="41.533436" lon="-5.988921">
        <ele>732.11</ele>
        <time>2021-03-27T19:37:19Z</time>
      </trkpt>
      <trkpt lat="41.533538" lon="-5.988854">
        <ele>731.56</ele>
        <time>2021-03-27T19:37:22Z</time>
      </trkpt>
      <trkpt lat="41.534491" lon="-5.987747">
        <ele>725.7</ele>
        <time>2021-03-27T19:37:26Z</time>
      </trkpt>
      <trkpt lat="41.534729" lon="-5.988285">
        <ele>727.84</ele>
        <time>2021-03-27T19:37:29Z</time>
      </trkpt>
      <trkpt lat="41.535133" lon="-5.988759">
        <ele>731.75</ele>
        <time>2021-03-27T19:37:32Z</time>
      </trkpt>
      <trkpt lat="41.535202" lon="-5.988929">
        <ele>733.22</ele>
        <time>2021-03-27T19:37:34Z</time>
      </trkpt>
      <trkpt lat="41.53523" lon="-5.989124">
        <ele>733.63</ele>
        <time>2021-03-27T19:37:37Z</time>
      </trkpt>
      <trkpt lat="41.535245" lon="-5.989582">
        <ele>734.94</ele>
        <time>2021-03-27T19:37:40Z</time>
      </trkpt>
      <trkpt lat="41.53519" lon="-5.990334">
        <ele>735.85</ele>
        <time>2021-03-27T19:37:43Z</time>
      </trkpt>
      <trkpt lat="41.535218" lon="-5.990459">
        <ele>736.8</ele>
        <time>2021-03-27T19:37:46Z</time>
      </trkpt>
      <trkpt lat="41.535268" lon="-5.990544">
        <ele>737.02</ele>
        <time>2021-03-27T19:37:48Z</time>
      </trkpt>
      <trkpt lat="41.535365" lon="-5.990631">
        <ele>737.65</ele>
        <time>2021-03-27T19:37:51Z</time>
      </trkpt>
      <trkpt lat="41.535498" lon="-5.990672">
        <ele>737.59</ele>
        <time>2021-03-27T19:37:54Z</time>
      </trkpt>
      <trkpt lat="41.535864" lon="-5.990704">
        <ele>740.4</ele>
        <time>2021-03-27T19:37:57Z</time>
      </trkpt>
      <trkpt lat="41.537175" lon="-5.990811">
        <ele>745.17</ele>
        <time>2021-03-27T19:38:03Z</time>
      </trkpt>
      <trkpt lat="41.537327" lon="-5.990792">
        <ele>745.0</ele>
        <time>2021-03-27T19:38:09Z</time>
      </trkpt>
      <trkpt lat="41.537442" lon="-5.990734">
        <ele>745.0</ele>
        <time>2021-03-27T19:38:16Z</time>
      </trkpt>
      <trkpt lat="41.537545" lon="-5.990636">
        <ele>745.11</ele>
        <time>2021-03-27T19:38:22Z</time>
      </trkpt>
      <trkpt lat="41.537596" lon="-5.990553">
        <ele>745.35</ele>
        <time>2021-03-27T19:38:28Z</time>
      </trkpt>
      <trkpt lat="41.537656" lon="-5.990375">
        <ele>745.48</ele>
        <time>2021-03-27T19:38:34Z</time>
      </trkpt>
      <trkpt lat="41.537658" lon="-5.9902">
        <ele>745.71</ele>
        <time>2021-03-27T19:38:41Z</time>
      </trkpt>
      <trkpt lat="41.537623" lon="-5.990041">
        <ele>746.41</ele>
        <time>2021-03-27T19:38:47Z</time>
      </trkpt>
      <trkpt lat="41.537501" lon="-5.989875">
        <ele>747.45</ele>
        <time>2021-03-27T19:38:53Z</time>
      </trkpt>
      <trkpt lat="41.537431" lon="-5.989813">
        <ele>747.51</ele>
        <time>2021-03-27T19:39:00Z</time>
      </trkpt>
      <trkpt lat="41.537327" lon="-5.989772">
        <ele>747.31</ele>
        <time>2021-03-27T19:39:06Z</time>
      </trkpt>
      <trkpt lat="41.537148" lon="-5.989781">
        <ele>746.79</ele>
        <time>2021-03-27T19:39:12Z</time>
      </trkpt>
      <trkpt lat="41.537056" lon="-5.989836">
        <ele>746.65</ele>
        <time>2021-03-27T19:39:18Z</time>
      </trkpt>
      <trkpt lat="41.536972" lon="-5.989936">
        <ele>746.79</ele>
        <time>2021-03-27T19:39:25Z</time>
      </trkpt>
      <trkpt lat="41.536906" lon="-5.990076">
        <ele>746.76</ele>
        <time>2021-03-27T19:39:31Z</time>
      </trkpt>
      <trkpt lat="41.536868" lon="-5.990435">
        <ele>746.32</ele>
        <time>2021-03-27T19:39:37Z</time>
      </trkpt>
      <trkpt lat="41.536818" lon="-5.990643">
        <ele>746.0</ele>
        <time>2021-03-27T19:39:43Z</time>
      </trkpt>
      <trkpt lat="41.536758" lon="-5.99379">
        <ele>754.46</ele>
        <time>2021-03-27T19:39:50Z</time>
      </trkpt>
      <trkpt lat="41.536757" lon="-5.994628">
        <ele>755.78</ele>
        <time>2021-03-27T19:39:56Z</time>
      </trkpt>
      <trkpt lat="41.536776" lon="-5.995062">
        <ele>756.52</ele>
        <time>2021-03-27T19:40:02Z</time>
      </trkpt>
      <trkpt lat="41.536807" lon="-5.995387">
        <ele>755.79</ele>
        <time>2021-03-27T19:40:08Z</time>
      </trkpt>
      <trkpt lat="41.53688" lon="-5.995796">
        <ele>755.03</ele>
        <time>2021-03-27T19:40:15Z</time>
      </trkpt>
      <trkpt lat="41.536999" lon="-5.99634">
        <ele>757.49</ele>
        <time>2021-03-27T19:40:21Z</time>
      </trkpt>
      <trkpt lat="41.537231" lon="-5.997194">
        <ele>754.07</ele>
        <time>2021-03-27T19:40:27Z</time>
      </trkpt>
      <trkpt lat="41.543522" lon="-6.014222">
        <ele>776.96</ele>
        <time>2021-03-27T19:40:34Z</time>
      </trkpt>
      <trkpt lat="41.543921" lon="-6.015008">
        <ele>778.91</ele>
        <time>2021-03-27T19:40:40Z</time>
      </trkpt>
      <trkpt lat="41.544095" lon="-6.015288">
        <ele>779.23</ele>
        <time>2021-03-27T19:40:46Z</time>
      </trkpt>
      <trkpt lat="41.544399" lon="-6.015707">
        <ele>776.78</ele>
        <time>2021-03-27T19:40:52Z</time>
      </trkpt>
      <trkpt lat="41.55093" lon="-6.024111">
        <ele>784.25</ele>
        <time>2021-03-27T19:40:59Z</time>
      </trkpt>
      <trkpt lat="41.551322" lon="-6.024486">
        <ele>785.03</ele>
        <time>2021-03-27T19:41:01Z</time>
      </trkpt>
      <trkpt lat="41.551453" lon="-6.024515">
        <ele>784.77</ele>
        <time>2021-03-27T19:41:04Z</time>
      </trkpt>
      <trkpt lat="41.55155" lon="-6.024499">
        <ele>784.42</ele>
        <time>2021-03-27T19:41:07Z</time>
      </trkpt>
      <trkpt lat="41.553676" lon="-6.023313">
        <ele>779.23</ele>
        <time>2021-03-27T19:41:09Z</time>
      </trkpt>
      <trkpt lat="41.554359" lon="-6.022985">
        <ele>779.75</ele>
        <time>2021-03-27T19:41:12Z</time>
      </trkpt>
      <trkpt lat="41.554466" lon="-6.022896">
        <ele>779.44</ele>
        <time>2021-03-27T19:41:15Z</time>
      </trkpt>
      <trkpt lat="41.554868" lon="-6.022293">
        <ele>781.53</ele>
        <time>2021-03-27T19:41:18Z</time>
      </trkpt>
      <trkpt lat="41.555224" lon="-6.021815">
        <ele>781.09</ele>
        <time>2021-03-27T19:41:20Z</time>
      </trkpt>
      <trkpt lat="41.555371" lon="-6.021648">
        <ele>781.38</ele>
        <time>2021-03-27T19:41:23Z</time>
      </trkpt>
      <trkpt lat="41.55551" lon="-6.021534">
        <ele>781.91</ele>
        <time>2021-03-27T19:41:26Z</time>
      </trkpt>
      <trkpt lat="41.556109" lon="-6.021158">
        <ele>783.16</ele>
        <time>2021-03-27T19:41:28Z</time>
      </trkpt>
      <trkpt lat="41.556361" lon="-6.020963">
        <ele>783.84</ele>
        <time>2021-03-27T19:41:31Z</time>
      </trkpt>
      <trkpt lat="41.556527" lon="-6.02079">
        <ele>783.99</ele>
        <time>2021-03-27T19:41:34Z</time>
      </trkpt>
      <trkpt lat="41.556712" lon="-6.020542">
        <ele>785.16</ele>
        <time>2021-03-27T19:41:36Z</time>
      </trkpt>
      <trkpt lat="41.55733" lon="-6.019611">
        <ele>785.4</ele>
        <time>2021-03-27T19:41:39Z</time>
      </trkpt>
      <trkpt lat="41.558338" lon="-6.018038">
        <ele>786.02</ele>
        <time>2021-03-27T19:41:42Z</time>
      </trkpt>
      <trkpt lat="41.558567" lon="-6.017728">
        <ele>786.66</ele>
        <time>2021-03-27T19:41:45Z</time>
      </trkpt>
      <trkpt lat="41.559564" lon="-6.016802">
        <ele>786.21</ele>
        <time>2021-03-27T19:41:47Z</time>
      </trkpt>
      <trkpt lat="41.559994" lon="-6.01633">
        <ele>786.21</ele>
        <time>2021-03-27T19:41:50Z</time>
      </trkpt>
      <trkpt lat="41.560317" lon="-6.015923">
        <ele>787.28</ele>
        <time>2021-03-27T19:41:53Z</time>
      </trkpt>
      <trkpt lat="41.56062" lon="-6.01542">
        <ele>782.91</ele>
        <time>2021-03-27T19:41:55Z</time>
      </trkpt>
      <trkpt lat="41.561081" lon="-6.014809">
        <ele>784.78</ele>
        <time>2021-03-27T19:41:58Z</time>
      </trkpt>
      <trkpt lat="41.561222" lon="-6.014652">
        <ele>785.1</ele>
        <time>2021-03-27T19:42:01Z</time>
      </trkpt>
      <trkpt lat="41.561567" lon="-6.014362">
        <ele>786.19</ele>
        <time>2021-03-27T19:42:03Z</time>
      </trkpt>
      <trkpt lat="41.562252" lon="-6.013891">
        <ele>786.9</ele>
        <time>2021-03-27T19:42:06Z</time>
      </trkpt>
      <trkpt lat="41.562393" lon="-6.013763">
        <ele>785.93</ele>
        <time>2021-03-27T19:42:09Z</time>
      </trkpt>
      <trkpt lat="41.562865" lon="-6.01325">
        <ele>783.48</ele>
        <time>2021-03-27T19:42:12Z</time>
      </trkpt>
      <trkpt lat="41.562999" lon="-6.013078">
        <ele>783.02</ele>
        <time>2021-03-27T19:42:14Z</time>
      </trkpt>
      <trkpt lat="41.563807" lon="-6.011867">
        <ele>783.77</ele>
        <time>2021-03-27T19:42:17Z</time>
      </trkpt>
      <trkpt lat="41.564419" lon="-6.010982">
        <ele>786.51</ele>
        <time>2021-03-27T19:42:20Z</time>
      </trkpt>
      <trkpt lat="41.564535" lon="-6.01075">
        <ele>787.22</ele>
        <time>2021-03-27T19:42:22Z</time>
      </trkpt>
      <trkpt lat="41.564625" lon="-6.010517">
        <ele>787.85</ele>
        <time>2021-03-27T19:42:25Z</time>
      </trkpt>
      <trkpt lat="41.564868" lon="-6.009578">
        <ele>788.35</ele>
        <time>2021-03-27T19:42:28Z</time>
      </trkpt>
      <trkpt lat="41.56493" lon="-6.009264">
        <ele>789.31</ele>
        <time>2021-03-27T19:42:30Z</time>
      </trkpt>
      <trkpt lat="41.564973" lon="-6.008923">
        <ele>790.42</ele>
        <time>2021-03-27T19:42:33Z</time>
      </trkpt>
      <trkpt lat="41.565092" lon="-6.007101">
        <ele>790.48</ele>
        <time>2021-03-27T19:42:36Z</time>
      </trkpt>
      <trkpt lat="41.565129" lon="-6.006789">
        <ele>792.35</ele>
        <time>2021-03-27T19:42:39Z</time>
      </trkpt>
      <trkpt lat="41.565213" lon="-6.006351">
        <ele>794.32</ele>
        <time>2021-03-27T19:42:41Z</time>
      </trkpt>
      <trkpt lat="41.565535" lon="-6.005197">
        <ele>787.64</ele>
        <time>2021-03-27T19:42:44Z</time>
      </trkpt>
      <trkpt lat="41.565931" lon="-6.003502">
        <ele>777.48</ele>
        <time>2021-03-27T19:42:47Z</time>
      </trkpt>
      <trkpt lat="41.565985" lon="-6.003326">
        <ele>777.92</ele>
        <time>2021-03-27T19:42:49Z</time>
      </trkpt>
      <trkpt lat="41.566041" lon="-6.003208">
        <ele>777.84</ele>
        <time>2021-03-27T19:42:52Z</time>
      </trkpt>
      <trkpt lat="41.566113" lon="-6.003111">
        <ele>777.8</ele>
        <time>2021-03-27T19:42:55Z</time>
      </trkpt>
      <trkpt lat="41.566839" lon="-6.002538">
        <ele>781.01</ele>
        <time>2021-03-27T19:42:57Z</time>
      </trkpt>
      <trkpt lat="41.566939" lon="-6.002365">
        <ele>781.97</ele>
        <time>2021-03-27T19:43:00Z</time>
      </trkpt>
      <trkpt lat="41.567023" lon="-6.002017">
        <ele>784.6</ele>
        <time>2021-03-27T19:43:03Z</time>
      </trkpt>
      <trkpt lat="41.56715" lon="-6.000601">
        <ele>794.01</ele>
        <time>2021-03-27T19:43:06Z</time>
      </trkpt>
      <trkpt lat="41.567273" lon="-6.000142">
        <ele>798.13</ele>
        <time>2021-03-27T19:43:08Z</time>
      </trkpt>
      <trkpt lat="41.567354" lon="-5.999946">
        <ele>799.42</ele>
        <time>2021-03-27T19:43:11Z</time>
      </trkpt>
      <trkpt lat="41.568259" lon="-5.998029">
        <ele>807.0</ele>
        <time>2021-03-27T19:43:14Z</time>
      </trkpt>
      <trkpt lat="41.568305" lon="-5.997841">
        <ele>807.0</ele>
        <time>2021-03-27T19:43:16Z</time>
      </trkpt>
      <trkpt lat="41.568328" lon="-5.997665">
        <ele>806.6</ele>
        <time>2021-03-27T19:43:19Z</time>
      </trkpt>
      <trkpt lat="41.56831" lon="-5.997281">
        <ele>805.36</ele>
        <time>2021-03-27T19:43:22Z</time>
      </trkpt>
      <trkpt lat="41.568207" lon="-5.99645">
        <ele>806.9</ele>
        <time>2021-03-27T19:43:24Z</time>
      </trkpt>
      <trkpt lat="41.568163" lon="-5.995573">
        <ele>806.61</ele>
        <time>2021-03-27T19:43:27Z</time>
      </trkpt>
      <trkpt lat="41.568175" lon="-5.995162">
        <ele>806.57</ele>
        <time>2021-03-27T19:43:30Z</time>
      </trkpt>
      <trkpt lat="41.56833" lon="-5.993638">
        <ele>807.0</ele>
        <time>2021-03-27T19:43:33Z</time>
      </trkpt>
      <trkpt lat="41.568423" lon="-5.991701">
        <ele>805.07</ele>
        <time>2021-03-27T19:43:35Z</time>
      </trkpt>
      <trkpt lat="41.568423" lon="-5.991259">
        <ele>804.89</ele>
        <time>2021-03-27T19:43:38Z</time>
      </trkpt>
      <trkpt lat="41.568361" lon="-5.99057">
        <ele>801.1</ele>
        <time>2021-03-27T19:43:41Z</time>
      </trkpt>
      <trkpt lat="41.568358" lon="-5.990363">
        <ele>800.88</ele>
        <time>2021-03-27T19:43:43Z</time>
      </trkpt>
      <trkpt lat="41.568499" lon="-5.989378">
        <ele>797.33</ele>
        <time>2021-03-27T19:43:46Z</time>
      </trkpt>
      <trkpt lat="41.568536" lon="-5.989224">
        <ele>795.95</ele>
        <time>2021-03-27T19:43:49Z</time>
      </trkpt>
      <trkpt lat="41.56876" lon="-5.988684">
        <ele>793.0</ele>
        <time>2021-03-27T19:43:51Z</time>
      </trkpt>
      <trkpt lat="41.568826" lon="-5.988573">
        <ele>793.11</ele>
        <time>2021-03-27T19:43:54Z</time>
      </trkpt>
      <trkpt lat="41.568929" lon="-5.98847">
        <ele>793.58</ele>
        <time>2021-03-27T19:43:57Z</time>
      </trkpt>
      <trkpt lat="41.568982" lon="-5.988451">
        <ele>793.72</ele>
        <time>2021-03-27T19:43:59Z</time>
      </trkpt>
      <trkpt lat="41.569127" lon="-5.988457">
        <ele>793.93</ele>
        <time>2021-03-27T19:44:02Z</time>
      </trkpt>
      <trkpt lat="41.569487" lon="-5.988536">
        <ele>796.19</ele>
        <time>2021-03-27T19:44:05Z</time>
      </trkpt>
      <trkpt lat="41.569712" lon="-5.98852">
        <ele>797.28</ele>
        <time>2021-03-27T19:44:08Z</time>
      </trkpt>
      <trkpt lat="41.569831" lon="-5.988469">
        <ele>798.09</ele>
        <time>2021-03-27T19:44:10Z</time>
      </trkpt>
      <trkpt lat="41.570317" lon="-5.988184">
        <ele>799.92</ele>
        <time>2021-03-27T19:44:13Z</time>
      </trkpt>
      <trkpt lat="41.570401" lon="-5.988154">
        <ele>799.71</ele>
        <time>2021-03-27T19:44:16Z</time>
      </trkpt>
      <trkpt lat="41.570475" lon="-5.988152">
        <ele>799.54</ele>
        <time>2021-03-27T19:44:18Z</time>
      </trkpt>
      <trkpt lat="41.570576" lon="-5.9882">
        <ele>799.45</ele>
        <time>2021-03-27T19:44:21Z</time>
      </trkpt>
      <trkpt lat="41.570699" lon="-5.988368">
        <ele>799.48</ele>
        <time>2021-03-27T19:44:24Z</time>
      </trkpt>
      <trkpt lat="41.570763" lon="-5.988508">
        <ele>799.25</ele>
        <time>2021-03-27T19:44:26Z</time>
      </trkpt>
      <trkpt lat="41.571629" lon="-5.990523">
        <ele>799.98</ele>
        <time>2021-03-27T19:44:29Z</time>
      </trkpt>
      <trkpt lat="41.572193" lon="-5.991411">
        <ele>798.98</ele>
        <time>2021-03-27T19:44:32Z</time>
      </trkpt>
      <trkpt lat="41.572356" lon="-5.991622">
        <ele>799.36</ele>
        <time>2021-03-27T19:44:35Z</time>
      </trkpt>
      <trkpt lat="41.572781" lon="-5.992004">
        <ele>795.2</ele>
        <time>2021-03-27T19:44:37Z</time>
      </trkpt>
      <trkpt lat="41.572988" lon="-5.99217">
        <ele>794.91</ele>
        <time>2021-03-27T19:44:40Z</time>
      </trkpt>
      <trkpt lat="41.573162" lon="-5.99228">
        <ele>794.95</ele>
        <time>2021-03-27T19:44:43Z</time>
      </trkpt>
      <trkpt lat="41.573342" lon="-5.992359">
        <ele>794.43</ele>
        <time>2021-03-27T19:44:45Z</time>
      </trkpt>
      <trkpt lat="41.573974" lon="-5.992568">
        <ele>789.29</ele>
        <time>2021-03-27T19:44:48Z</time>
      </trkpt>
      <trkpt lat="41.574148" lon="-5.992645">
        <ele>786.3</ele>
        <time>2021-03-27T19:44:51Z</time>
      </trkpt>
      <trkpt lat="41.574579" lon="-5.99289">
        <ele>779.75</ele>
        <time>2021-03-27T19:44:53Z</time>
      </trkpt>
      <trkpt lat="41.574788" lon="-5.993037">
        <ele>776.81</ele>
        <time>2021-03-27T19:44:56Z</time>
      </trkpt>
      <trkpt lat="41.574935" lon="-5.993166">
        <ele>773.87</ele>
        <time>2021-03-27T19:44:59Z</time>
      </trkpt>
      <trkpt lat="41.575058" lon="-5.993327">
        <ele>770.55</ele>
        <time>2021-03-27T19:45:02Z</time>
      </trkpt>
      <trkpt lat="41.575488" lon="-5.993987">
        <ele>759.02</ele>
        <time>2021-03-27T19:45:04Z</time>
      </trkpt>
      <trkpt lat="41.575816" lon="-5.994619">
        <ele>752.25</ele>
        <time>2021-03-27T19:45:07Z</time>
      </trkpt>
      <trkpt lat="41.575892" lon="-5.994722">
        <ele>751.37</ele>
        <time>2021-03-27T19:45:10Z</time>
      </trkpt>
      <trkpt lat="41.57597" lon="-5.994774">
        <ele>750.24</ele>
        <time>2021-03-27T19:45:12Z</time>
      </trkpt>
      <trkpt lat="41.576073" lon="-5.994813">
        <ele>748.8</ele>
        <time>2021-03-27T19:45:15Z</time>
      </trkpt>
      <trkpt lat="41.576356" lon="-5.994847">
        <ele>746.73</ele>
        <time>2021-03-27T19:45:18Z</time>
      </trkpt>
      <trkpt lat="41.576532" lon="-5.994765">
        <ele>745.82</ele>
        <time>2021-03-27T19:45:20Z</time>
      </trkpt>
      <trkpt lat="41.576915" lon="-5.994275">
        <ele>742.02</ele>
        <time>2021-03-27T19:45:23Z</time>
      </trkpt>
      <trkpt lat="41.577008" lon="-5.994127">
        <ele>740.4</ele>
        <time>2021-03-27T19:45:26Z</time>
      </trkpt>
      <trkpt lat="41.577422" lon="-5.993193">
        <ele>730.83</ele>
        <time>2021-03-27T19:45:29Z</time>
      </trkpt>
      <trkpt lat="41.577624" lon="-5.993213">
        <ele>728.99</ele>
        <time>2021-03-27T19:45:31Z</time>
      </trkpt>
      <trkpt lat="41.577906" lon="-5.993162">
        <ele>725.36</ele>
        <time>2021-03-27T19:45:33Z</time>
      </trkpt>
      <trkpt lat="41.578104" lon="-5.99316">
        <ele>722.06</ele>
        <time>2021-03-27T19:45:36Z</time>
      </trkpt>
      <trkpt lat="41.578221" lon="-5.993186">
        <ele>719.73</ele>
        <time>2021-03-27T19:45:38Z</time>
      </trkpt>
      <trkpt lat="41.578466" lon="-5.993303">
        <ele>715.26</ele>
        <time>2021-03-27T19:45:40Z</time>
      </trkpt>
      <trkpt lat="41.578883" lon="-5.993582">
        <ele>710.05</ele>
        <time>2021-03-27T19:45:43Z</time>
      </trkpt>
      <trkpt lat="41.579208" lon="-5.993932">
        <ele>703.91</ele>
        <time>2021-03-27T19:45:45Z</time>
      </trkpt>
      <trkpt lat="41.579243" lon="-5.994056">
        <ele>702.26</ele>
        <time>2021-03-27T19:45:47Z</time>
      </trkpt>
      <trkpt lat="41.579244" lon="-5.994168">
        <ele>701.31</ele>
        <time>2021-03-27T19:45:50Z</time>
      </trkpt>
      <trkpt lat="41.579157" lon="-5.994805">
        <ele>700.91</ele>
        <time>2021-03-27T19:45:52Z</time>
      </trkpt>
      <trkpt lat="41.579149" lon="-5.994944">
        <ele>700.62</ele>
        <time>2021-03-27T19:45:54Z</time>
      </trkpt>
      <trkpt lat="41.57917" lon="-5.99505">
        <ele>699.94</ele>
        <time>2021-03-27T19:45:57Z</time>
      </trkpt>
      <trkpt lat="41.579791" lon="-5.996585">
        <ele>711.26</ele>
        <time>2021-03-27T19:45:59Z</time>
      </trkpt>
      <trkpt lat="41.579843" lon="-5.996811">
        <ele>712.81</ele>
        <time>2021-03-27T19:46:02Z</time>
      </trkpt>
      <trkpt lat="41.579852" lon="-5.997032">
        <ele>714.18</ele>
        <time>2021-03-27T19:46:04Z</time>
      </trkpt>
      <trkpt lat="41.579809" lon="-5.997944">
        <ele>719.66</ele>
        <time>2021-03-27T19:46:06Z</time>
      </trkpt>
      <trkpt lat="41.579823" lon="-5.998247">
        <ele>721.03</ele>
        <time>2021-03-27T19:46:09Z</time>
      </trkpt>
      <trkpt lat="41.579886" lon="-5.998542">
        <ele>721.39</ele>
        <time>2021-03-27T19:46:11Z</time>
      </trkpt>
      <trkpt lat="41.580026" lon="-5.998941">
        <ele>717.64</ele>
        <time>2021-03-27T19:46:13Z</time>
      </trkpt>
      <trkpt lat="41.580185" lon="-5.999236">
        <ele>716.75</ele>
        <time>2021-03-27T19:46:16Z</time>
      </trkpt>
      <trkpt lat="41.580444" lon="-5.999649">
        <ele>717.66</ele>
        <time>2021-03-27T19:46:18Z</time>
      </trkpt>
      <trkpt lat="41.580502" lon="-5.999804">
        <ele>717.63</ele>
        <time>2021-03-27T19:46:20Z</time>
      </trkpt>
      <trkpt lat="41.580671" lon="-6.000391">
        <ele>717.56</ele>
        <time>2021-03-27T19:46:23Z</time>
      </trkpt>
      <trkpt lat="41.580779" lon="-6.000655">
        <ele>718.93</ele>
        <time>2021-03-27T19:46:25Z</time>
      </trkpt>
      <trkpt lat="41.580938" lon="-6.000943">
        <ele>718.38</ele>
        <time>2021-03-27T19:46:27Z</time>
      </trkpt>
      <trkpt lat="41.581042" lon="-6.001096">
        <ele>716.66</ele>
        <time>2021-03-27T19:46:30Z</time>
      </trkpt>
      <trkpt lat="41.58207" lon="-6.002079">
        <ele>710.89</ele>
        <time>2021-03-27T19:46:32Z</time>
      </trkpt>
      <trkpt lat="41.582302" lon="-6.00227">
        <ele>710.65</ele>
        <time>2021-03-27T19:46:35Z</time>
      </trkpt>
      <trkpt lat="41.583373" lon="-6.002912">
        <ele>707.56</ele>
        <time>2021-03-27T19:46:37Z</time>
      </trkpt>
      <trkpt lat="41.583662" lon="-6.003063">
        <ele>707.73</ele>
        <time>2021-03-27T19:46:39Z</time>
      </trkpt>
      <trkpt lat="41.583891" lon="-6.003151">
        <ele>706.67</ele>
        <time>2021-03-27T19:46:42Z</time>
      </trkpt>
      <trkpt lat="41.584151" lon="-6.003214">
        <ele>703.63</ele>
        <time>2021-03-27T19:46:44Z</time>
      </trkpt>
      <trkpt lat="41.584845" lon="-6.003341">
        <ele>694.0</ele>
        <time>2021-03-27T19:46:46Z</time>
      </trkpt>
      <trkpt lat="41.585025" lon="-6.0033">
        <ele>693.11</ele>
        <time>2021-03-27T19:46:49Z</time>
      </trkpt>
      <trkpt lat="41.585525" lon="-6.003123">
        <ele>687.74</ele>
        <time>2021-03-27T19:46:51Z</time>
      </trkpt>
      <trkpt lat="41.585525" lon="-6.003123">
        <ele>687.74</ele>
        <time>2021-03-27T12:37:30Z</time>
      </trkpt>
      <trkpt lat="41.587109" lon="-6.002535">
        <ele>685.17</ele>
        <time>2021-03-27T12:37:33Z</time>
      </trkpt>
      <trkpt lat="41.587182" lon="-6.002499">
        <ele>687.56</ele>
        <time>2021-03-27T12:37:35Z</time>
      </trkpt>
      <trkpt lat="41.587248" lon="-6.002424">
        <ele>689.98</ele>
        <time>2021-03-27T12:37:37Z</time>
      </trkpt>
      <trkpt lat="41.587336" lon="-6.002245">
        <ele>693.79</ele>
        <time>2021-03-27T12:37:39Z</time>
      </trkpt>
      <trkpt lat="41.587375" lon="-6.002033">
        <ele>696.01</ele>
        <time>2021-03-27T12:37:41Z</time>
      </trkpt>
      <trkpt lat="41.587386" lon="-6.001882">
        <ele>696.83</ele>
        <time>2021-03-27T12:37:43Z</time>
      </trkpt>
      <trkpt lat="41.587376" lon="-6.001689">
        <ele>697.04</ele>
        <time>2021-03-27T12:37:46Z</time>
      </trkpt>
      <trkpt lat="41.587324" lon="-6.001435">
        <ele>696.1</ele>
        <time>2021-03-27T12:37:48Z</time>
      </trkpt>
      <trkpt lat="41.587214" lon="-6.001046">
        <ele>696.82</ele>
        <time>2021-03-27T12:37:50Z</time>
      </trkpt>
      <trkpt lat="41.587006" lon="-6.000419">
        <ele>700.46</ele>
        <time>2021-03-27T12:37:52Z</time>
      </trkpt>
      <trkpt lat="41.586876" lon="-5.999924">
        <ele>702.45</ele>
        <time>2021-03-27T12:37:54Z</time>
      </trkpt>
      <trkpt lat="41.586789" lon="-5.999458">
        <ele>704.51</ele>
        <time>2021-03-27T12:37:57Z</time>
      </trkpt>
      <trkpt lat="41.586768" lon="-5.999226">
        <ele>706.25</ele>
        <time>2021-03-27T12:37:59Z</time>
      </trkpt>
      <trkpt lat="41.586789" lon="-5.999115">
        <ele>707.3</ele>
        <time>2021-03-27T12:38:01Z</time>
      </trkpt>
      <trkpt lat="41.586826" lon="-5.999066">
        <ele>708.03</ele>
        <time>2021-03-27T12:38:03Z</time>
      </trkpt>
      <trkpt lat="41.586876" lon="-5.999042">
        <ele>708.87</ele>
        <time>2021-03-27T12:38:05Z</time>
      </trkpt>
      <trkpt lat="41.58701" lon="-5.999037">
        <ele>710.84</ele>
        <time>2021-03-27T12:38:08Z</time>
      </trkpt>
      <trkpt lat="41.587064" lon="-5.99906">
        <ele>711.66</ele>
        <time>2021-03-27T12:38:10Z</time>
      </trkpt>
      <trkpt lat="41.587174" lon="-5.999133">
        <ele>713.82</ele>
        <time>2021-03-27T12:38:12Z</time>
      </trkpt>
      <trkpt lat="41.587314" lon="-5.999279">
        <ele>715.73</ele>
        <time>2021-03-27T12:38:14Z</time>
      </trkpt>
      <trkpt lat="41.587449" lon="-5.999435">
        <ele>718.19</ele>
        <time>2021-03-27T12:38:16Z</time>
      </trkpt>
      <trkpt lat="41.587846" lon="-6.000061">
        <ele>719.35</ele>
        <time>2021-03-27T12:38:19Z</time>
      </trkpt>
      <trkpt lat="41.588042" lon="-6.000324">
        <ele>720.8</ele>
        <time>2021-03-27T12:38:21Z</time>
      </trkpt>
      <trkpt lat="41.588223" lon="-6.000517">
        <ele>723.25</ele>
        <time>2021-03-27T12:38:23Z</time>
      </trkpt>
      <trkpt lat="41.58885" lon="-6.001">
        <ele>731.13</ele>
        <time>2021-03-27T12:38:25Z</time>
      </trkpt>
      <trkpt lat="41.589082" lon="-6.001141">
        <ele>733.94</ele>
        <time>2021-03-27T12:38:27Z</time>
      </trkpt>
      <trkpt lat="41.589573" lon="-6.001374">
        <ele>734.95</ele>
        <time>2021-03-27T12:38:29Z</time>
      </trkpt>
      <trkpt lat="41.58968" lon="-6.001485">
        <ele>735.0</ele>
        <time>2021-03-27T12:38:32Z</time>
      </trkpt>
      <trkpt lat="41.589751" lon="-6.001611">
        <ele>734.77</ele>
        <time>2021-03-27T12:38:34Z</time>
      </trkpt>
      <trkpt lat="41.590048" lon="-6.00251">
        <ele>730.79</ele>
        <time>2021-03-27T12:38:36Z</time>
      </trkpt>
      <trkpt lat="41.590104" lon="-6.002602">
        <ele>730.26</ele>
        <time>2021-03-27T12:38:38Z</time>
      </trkpt>
      <trkpt lat="41.590172" lon="-6.002658">
        <ele>729.81</ele>
        <time>2021-03-27T12:38:40Z</time>
      </trkpt>
      <trkpt lat="41.590285" lon="-6.002654">
        <ele>729.43</ele>
        <time>2021-03-27T12:38:43Z</time>
      </trkpt>
      <trkpt lat="41.59052" lon="-6.00251">
        <ele>729.12</ele>
        <time>2021-03-27T12:38:45Z</time>
      </trkpt>
      <trkpt lat="41.591183" lon="-6.001962">
        <ele>732.91</ele>
        <time>2021-03-27T12:38:47Z</time>
      </trkpt>
      <trkpt lat="41.591323" lon="-6.001748">
        <ele>731.83</ele>
        <time>2021-03-27T12:38:49Z</time>
      </trkpt>
      <trkpt lat="41.591478" lon="-6.00159">
        <ele>732.26</ele>
        <time>2021-03-27T12:38:51Z</time>
      </trkpt>
      <trkpt lat="41.591503" lon="-6.001534">
        <ele>731.94</ele>
        <time>2021-03-27T12:38:54Z</time>
      </trkpt>
      <trkpt lat="41.591516" lon="-6.001188">
        <ele>727.47</ele>
        <time>2021-03-27T12:38:56Z</time>
      </trkpt>
      <trkpt lat="41.591554" lon="-6.000893">
        <ele>724.89</ele>
        <time>2021-03-27T12:38:58Z</time>
      </trkpt>
      <trkpt lat="41.591624" lon="-6.000675">
        <ele>724.25</ele>
        <time>2021-03-27T12:39:00Z</time>
      </trkpt>
      <trkpt lat="41.591673" lon="-6.000578">
        <ele>724.22</ele>
        <time>2021-03-27T12:39:02Z</time>
      </trkpt>
      <trkpt lat="41.591801" lon="-6.000559">
        <ele>725.47</ele>
        <time>2021-03-27T12:39:05Z</time>
      </trkpt>
      <trkpt lat="41.591882" lon="-6.000585">
        <ele>726.46</ele>
        <time>2021-03-27T12:39:07Z</time>
      </trkpt>
      <trkpt lat="41.591969" lon="-6.000682">
        <ele>727.63</ele>
        <time>2021-03-27T12:39:09Z</time>
      </trkpt>
      <trkpt lat="41.592012" lon="-6.000659">
        <ele>727.86</ele>
        <time>2021-03-27T12:39:11Z</time>
      </trkpt>
      <trkpt lat="41.592172" lon="-6.000498">
        <ele>727.84</ele>
        <time>2021-03-27T12:39:13Z</time>
      </trkpt>
      <trkpt lat="41.592279" lon="-6.000496">
        <ele>728.39</ele>
        <time>2021-03-27T12:39:15Z</time>
      </trkpt>
      <trkpt lat="41.5924" lon="-6.000399">
        <ele>727.74</ele>
        <time>2021-03-27T12:39:18Z</time>
      </trkpt>
      <trkpt lat="41.59253" lon="-6.000338">
        <ele>727.97</ele>
        <time>2021-03-27T12:39:20Z</time>
      </trkpt>
      <trkpt lat="41.592838" lon="-6.000261">
        <ele>730.25</ele>
        <time>2021-03-27T12:39:22Z</time>
      </trkpt>
      <trkpt lat="41.593201" lon="-6.000002">
        <ele>727.57</ele>
        <time>2021-03-27T12:39:24Z</time>
      </trkpt>
      <trkpt lat="41.59343" lon="-5.999863">
        <ele>726.05</ele>
        <time>2021-03-27T12:39:26Z</time>
      </trkpt>
      <trkpt lat="41.593503" lon="-5.999846">
        <ele>726.17</ele>
        <time>2021-03-27T12:39:29Z</time>
      </trkpt>
      <trkpt lat="41.594049" lon="-5.999899">
        <ele>729.86</ele>
        <time>2021-03-27T12:39:31Z</time>
      </trkpt>
      <trkpt lat="41.594722" lon="-5.999818">
        <ele>738.72</ele>
        <time>2021-03-27T12:39:33Z</time>
      </trkpt>
      <trkpt lat="41.594847" lon="-5.999818">
        <ele>739.02</ele>
        <time>2021-03-27T12:39:35Z</time>
      </trkpt>
      <trkpt lat="41.594999" lon="-5.999842">
        <ele>739.73</ele>
        <time>2021-03-27T12:39:37Z</time>
      </trkpt>
      <trkpt lat="41.595117" lon="-5.999884">
        <ele>739.42</ele>
        <time>2021-03-27T12:39:40Z</time>
      </trkpt>
      <trkpt lat="41.595249" lon="-5.999969">
        <ele>739.06</ele>
        <time>2021-03-27T12:39:42Z</time>
      </trkpt>
      <trkpt lat="41.595366" lon="-6.000093">
        <ele>740.88</ele>
        <time>2021-03-27T12:39:44Z</time>
      </trkpt>
      <trkpt lat="41.596078" lon="-6.001046">
        <ele>745.4</ele>
        <time>2021-03-27T12:39:46Z</time>
      </trkpt>
      <trkpt lat="41.596973" lon="-6.001946">
        <ele>754.01</ele>
        <time>2021-03-27T12:39:48Z</time>
      </trkpt>
      <trkpt lat="41.5972" lon="-6.00215">
        <ele>754.12</ele>
        <time>2021-03-27T12:39:51Z</time>
      </trkpt>
      <trkpt lat="41.59729" lon="-6.002259">
        <ele>754.59</ele>
        <time>2021-03-27T12:39:53Z</time>
      </trkpt>
      <trkpt lat="41.597387" lon="-6.002418">
        <ele>755.47</ele>
        <time>2021-03-27T12:39:55Z</time>
      </trkpt>
      <trkpt lat="41.59764" lon="-6.002911">
        <ele>757.24</ele>
        <time>2021-03-27T12:39:57Z</time>
      </trkpt>
      <trkpt lat="41.597773" lon="-6.003105">
        <ele>757.2</ele>
        <time>2021-03-27T12:39:59Z</time>
      </trkpt>
      <trkpt lat="41.598007" lon="-6.003377">
        <ele>759.57</ele>
        <time>2021-03-27T12:40:01Z</time>
      </trkpt>
      <trkpt lat="41.598401" lon="-6.003794">
        <ele>761.49</ele>
        <time>2021-03-27T12:40:04Z</time>
      </trkpt>
      <trkpt lat="41.599366" lon="-6.004614">
        <ele>769.11</ele>
        <time>2021-03-27T12:40:06Z</time>
      </trkpt>
      <trkpt lat="41.599647" lon="-6.004943">
        <ele>771.16</ele>
        <time>2021-03-27T12:40:08Z</time>
      </trkpt>
      <trkpt lat="41.600212" lon="-6.005868">
        <ele>778.15</ele>
        <time>2021-03-27T12:40:10Z</time>
      </trkpt>
      <trkpt lat="41.601568" lon="-6.007727">
        <ele>787.88</ele>
        <time>2021-03-27T12:40:12Z</time>
      </trkpt>
      <trkpt lat="41.601726" lon="-6.007979">
        <ele>788.78</ele>
        <time>2021-03-27T12:40:15Z</time>
      </trkpt>
      <trkpt lat="41.601849" lon="-6.008214">
        <ele>789.2</ele>
        <time>2021-03-27T12:40:17Z</time>
      </trkpt>
      <trkpt lat="41.602088" lon="-6.008795">
        <ele>788.8</ele>
        <time>2021-03-27T12:40:19Z</time>
      </trkpt>
      <trkpt lat="41.602288" lon="-6.009421">
        <ele>788.52</ele>
        <time>2021-03-27T12:40:21Z</time>
      </trkpt>
      <trkpt lat="41.602613" lon="-6.010836">
        <ele>782.58</ele>
        <time>2021-03-27T12:40:23Z</time>
      </trkpt>
      <trkpt lat="41.602917" lon="-6.01205">
        <ele>782.5</ele>
        <time>2021-03-27T12:40:26Z</time>
      </trkpt>
      <trkpt lat="41.603271" lon="-6.013326">
        <ele>792.28</ele>
        <time>2021-03-27T12:40:28Z</time>
      </trkpt>
      <trkpt lat="41.603862" lon="-6.015696">
        <ele>787.35</ele>
        <time>2021-03-27T12:40:30Z</time>
      </trkpt>
      <trkpt lat="41.603993" lon="-6.016331">
        <ele>784.3</ele>
        <time>2021-03-27T12:40:32Z</time>
      </trkpt>
      <trkpt lat="41.604019" lon="-6.016541">
        <ele>783.1</ele>
        <time>2021-03-27T12:40:34Z</time>
      </trkpt>
      <trkpt lat="41.60402" lon="-6.01668">
        <ele>782.42</ele>
        <time>2021-03-27T12:40:36Z</time>
      </trkpt>
      <trkpt lat="41.604006" lon="-6.016805">
        <ele>782.27</ele>
        <time>2021-03-27T12:40:39Z</time>
      </trkpt>
      <trkpt lat="41.603867" lon="-6.017272">
        <ele>782.11</ele>
        <time>2021-03-27T12:40:41Z</time>
      </trkpt>
      <trkpt lat="41.603841" lon="-6.017433">
        <ele>782.87</ele>
        <time>2021-03-27T12:40:43Z</time>
      </trkpt>
      <trkpt lat="41.603841" lon="-6.017674">
        <ele>784.05</ele>
        <time>2021-03-27T12:40:45Z</time>
      </trkpt>
      <trkpt lat="41.60386" lon="-6.017887">
        <ele>785.08</ele>
        <time>2021-03-27T12:40:47Z</time>
      </trkpt>
      <trkpt lat="41.603993" lon="-6.018355">
        <ele>788.13</ele>
        <time>2021-03-27T12:40:50Z</time>
      </trkpt>
      <trkpt lat="41.604153" lon="-6.018788">
        <ele>789.24</ele>
        <time>2021-03-27T12:40:52Z</time>
      </trkpt>
      <trkpt lat="41.604389" lon="-6.01934">
        <ele>790.9</ele>
        <time>2021-03-27T12:40:54Z</time>
      </trkpt>
      <trkpt lat="41.604464" lon="-6.019624">
        <ele>791.17</ele>
        <time>2021-03-27T12:40:56Z</time>
      </trkpt>
      <trkpt lat="41.604532" lon="-6.020238">
        <ele>791.63</ele>
        <time>2021-03-27T12:40:58Z</time>
      </trkpt>
      <trkpt lat="41.604628" lon="-6.02072">
        <ele>792.32</ele>
        <time>2021-03-27T12:41:01Z</time>
      </trkpt>
      <trkpt lat="41.604757" lon="-6.021135">
        <ele>794.42</ele>
        <time>2021-03-27T12:41:03Z</time>
      </trkpt>
      <trkpt lat="41.604974" lon="-6.021755">
        <ele>797.91</ele>
        <time>2021-03-27T12:41:05Z</time>
      </trkpt>
      <trkpt lat="41.605675" lon="-6.023621">
        <ele>800.98</ele>
        <time>2021-03-27T12:41:07Z</time>
      </trkpt>
      <trkpt lat="41.605858" lon="-6.024043">
        <ele>800.13</ele>
        <time>2021-03-27T12:41:09Z</time>
      </trkpt>
      <trkpt lat="41.60595" lon="-6.024212">
        <ele>800.19</ele>
        <time>2021-03-27T12:41:12Z</time>
      </trkpt>
      <trkpt lat="41.606079" lon="-6.024389">
        <ele>799.37</ele>
        <time>2021-03-27T12:41:14Z</time>
      </trkpt>
      <trkpt lat="41.606792" lon="-6.025273">
        <ele>796.95</ele>
        <time>2021-03-27T12:41:16Z</time>
      </trkpt>
      <trkpt lat="41.60693" lon="-6.025457">
        <ele>795.99</ele>
        <time>2021-03-27T12:41:18Z</time>
      </trkpt>
      <trkpt lat="41.607108" lon="-6.025737">
        <ele>794.08</ele>
        <time>2021-03-27T12:41:20Z</time>
      </trkpt>
      <trkpt lat="41.607347" lon="-6.026153">
        <ele>793.15</ele>
        <time>2021-03-27T12:41:22Z</time>
      </trkpt>
      <trkpt lat="41.607889" lon="-6.027276">
        <ele>791.4</ele>
        <time>2021-03-27T12:41:25Z</time>
      </trkpt>
      <trkpt lat="41.60799" lon="-6.027521">
        <ele>791.71</ele>
        <time>2021-03-27T12:41:27Z</time>
      </trkpt>
      <trkpt lat="41.608053" lon="-6.027714">
        <ele>791.22</ele>
        <time>2021-03-27T12:41:29Z</time>
      </trkpt>
      <trkpt lat="41.608097" lon="-6.027934">
        <ele>791.07</ele>
        <time>2021-03-27T12:41:31Z</time>
      </trkpt>
      <trkpt lat="41.608106" lon="-6.028194">
        <ele>791.0</ele>
        <time>2021-03-27T12:41:33Z</time>
      </trkpt>
      <trkpt lat="41.608082" lon="-6.028469">
        <ele>791.53</ele>
        <time>2021-03-27T12:41:36Z</time>
      </trkpt>
      <trkpt lat="41.608041" lon="-6.028661">
        <ele>791.95</ele>
        <time>2021-03-27T12:41:38Z</time>
      </trkpt>
      <trkpt lat="41.607933" lon="-6.028981">
        <ele>792.22</ele>
        <time>2021-03-27T12:41:40Z</time>
      </trkpt>
      <trkpt lat="41.607872" lon="-6.029212">
        <ele>793.56</ele>
        <time>2021-03-27T12:41:42Z</time>
      </trkpt>
      <trkpt lat="41.60786" lon="-6.029426">
        <ele>794.51</ele>
        <time>2021-03-27T12:41:44Z</time>
      </trkpt>
      <trkpt lat="41.60788" lon="-6.029622">
        <ele>795.14</ele>
        <time>2021-03-27T12:41:47Z</time>
      </trkpt>
      <trkpt lat="41.607946" lon="-6.029871">
        <ele>795.93</ele>
        <time>2021-03-27T12:41:49Z</time>
      </trkpt>
      <trkpt lat="41.608383" lon="-6.030895">
        <ele>796.59</ele>
        <time>2021-03-27T12:41:51Z</time>
      </trkpt>
      <trkpt lat="41.608799" lon="-6.03162">
        <ele>795.84</ele>
        <time>2021-03-27T12:41:53Z</time>
      </trkpt>
      <trkpt lat="41.609451" lon="-6.032653">
        <ele>787.93</ele>
        <time>2021-03-27T12:41:55Z</time>
      </trkpt>
      <trkpt lat="41.609668" lon="-6.032883">
        <ele>786.67</ele>
        <time>2021-03-27T12:41:58Z</time>
      </trkpt>
      <trkpt lat="41.610603" lon="-6.033354">
        <ele>783.32</ele>
        <time>2021-03-27T12:42:00Z</time>
      </trkpt>
      <trkpt lat="41.610724" lon="-6.033476">
        <ele>783.59</ele>
        <time>2021-03-27T12:42:02Z</time>
      </trkpt>
      <trkpt lat="41.610787" lon="-6.033627">
        <ele>782.94</ele>
        <time>2021-03-27T12:42:04Z</time>
      </trkpt>
      <trkpt lat="41.610829" lon="-6.033784">
        <ele>782.38</ele>
        <time>2021-03-27T12:42:06Z</time>
      </trkpt>
      <trkpt lat="41.610851" lon="-6.033956">
        <ele>782.06</ele>
        <time>2021-03-27T12:42:08Z</time>
      </trkpt>
      <trkpt lat="41.610867" lon="-6.034445">
        <ele>783.0</ele>
        <time>2021-03-27T12:42:11Z</time>
      </trkpt>
      <trkpt lat="41.610947" lon="-6.034977">
        <ele>786.75</ele>
        <time>2021-03-27T12:42:13Z</time>
      </trkpt>
      <trkpt lat="41.611093" lon="-6.035685">
        <ele>793.39</ele>
        <time>2021-03-27T12:42:15Z</time>
      </trkpt>
      <trkpt lat="41.611313" lon="-6.036552">
        <ele>797.59</ele>
        <time>2021-03-27T12:42:17Z</time>
      </trkpt>
      <trkpt lat="41.611373" lon="-6.036851">
        <ele>797.96</ele>
        <time>2021-03-27T12:42:19Z</time>
      </trkpt>
      <trkpt lat="41.611409" lon="-6.037126">
        <ele>798.15</ele>
        <time>2021-03-27T12:42:22Z</time>
      </trkpt>
      <trkpt lat="41.611431" lon="-6.037413">
        <ele>797.62</ele>
        <time>2021-03-27T12:42:24Z</time>
      </trkpt>
      <trkpt lat="41.611362" lon="-6.038509">
        <ele>792.66</ele>
        <time>2021-03-27T12:42:26Z</time>
      </trkpt>
      <trkpt lat="41.611369" lon="-6.038818">
        <ele>791.95</ele>
        <time>2021-03-27T12:42:28Z</time>
      </trkpt>
      <trkpt lat="41.611409" lon="-6.03902">
        <ele>791.6</ele>
        <time>2021-03-27T12:42:30Z</time>
      </trkpt>
      <trkpt lat="41.611642" lon="-6.03953">
        <ele>791.6</ele>
        <time>2021-03-27T12:42:33Z</time>
      </trkpt>
      <trkpt lat="41.6117" lon="-6.039815">
        <ele>790.57</ele>
        <time>2021-03-27T12:42:35Z</time>
      </trkpt>
      <trkpt lat="41.611504" lon="-6.039905">
        <ele>789.09</ele>
        <time>2021-03-27T12:42:37Z</time>
      </trkpt>
      <trkpt lat="41.611416" lon="-6.040029">
        <ele>787.99</ele>
        <time>2021-03-27T12:42:39Z</time>
      </trkpt>
      <trkpt lat="41.611241" lon="-6.040369">
        <ele>786.5</ele>
        <time>2021-03-27T12:42:41Z</time>
      </trkpt>
      <trkpt lat="41.611671" lon="-6.040543">
        <ele>787.06</ele>
        <time>2021-03-27T12:42:44Z</time>
      </trkpt>
      <trkpt lat="41.61189" lon="-6.040556">
        <ele>787.8</ele>
        <time>2021-03-27T12:42:47Z</time>
      </trkpt>
      <trkpt lat="41.611941" lon="-6.040587">
        <ele>787.76</ele>
        <time>2021-03-27T12:42:49Z</time>
      </trkpt>
      <trkpt lat="41.612094" lon="-6.040853">
        <ele>785.89</ele>
        <time>2021-03-27T12:42:52Z</time>
      </trkpt>
      <trkpt lat="41.612152" lon="-6.040906">
        <ele>785.67</ele>
        <time>2021-03-27T12:42:54Z</time>
      </trkpt>
      <trkpt lat="41.612348" lon="-6.040976">
        <ele>785.27</ele>
        <time>2021-03-27T12:42:57Z</time>
      </trkpt>
      <trkpt lat="41.612404" lon="-6.040957">
        <ele>785.19</ele>
        <time>2021-03-27T12:42:59Z</time>
      </trkpt>
      <trkpt lat="41.612671" lon="-6.040718">
        <ele>783.77</ele>
        <time>2021-03-27T12:43:02Z</time>
      </trkpt>
      <trkpt lat="41.612812" lon="-6.040438">
        <ele>783.05</ele>
        <time>2021-03-27T12:43:04Z</time>
      </trkpt>
      <trkpt lat="41.613022" lon="-6.040196">
        <ele>781.62</ele>
        <time>2021-03-27T12:43:07Z</time>
      </trkpt>
      <trkpt lat="41.61308" lon="-6.040072">
        <ele>781.63</ele>
        <time>2021-03-27T12:43:09Z</time>
      </trkpt>
      <trkpt lat="41.613216" lon="-6.039863">
        <ele>782.41</ele>
        <time>2021-03-27T12:43:12Z</time>
      </trkpt>
      <trkpt lat="41.613372" lon="-6.039762">
        <ele>782.83</ele>
        <time>2021-03-27T12:43:14Z</time>
      </trkpt>
      <trkpt lat="41.613751" lon="-6.039675">
        <ele>784.6</ele>
        <time>2021-03-27T12:43:17Z</time>
      </trkpt>
      <trkpt lat="41.613925" lon="-6.039683">
        <ele>784.7</ele>
        <time>2021-03-27T12:43:20Z</time>
      </trkpt>
      <trkpt lat="41.614198" lon="-6.03981">
        <ele>783.73</ele>
        <time>2021-03-27T12:43:22Z</time>
      </trkpt>
      <trkpt lat="41.614477" lon="-6.039781">
        <ele>784.08</ele>
        <time>2021-03-27T12:43:25Z</time>
      </trkpt>
      <trkpt lat="41.614839" lon="-6.039875">
        <ele>783.32</ele>
        <time>2021-03-27T12:43:27Z</time>
      </trkpt>
      <trkpt lat="41.614979" lon="-6.039938">
        <ele>783.37</ele>
        <time>2021-03-27T12:43:30Z</time>
      </trkpt>
      <trkpt lat="41.615082" lon="-6.040002">
        <ele>782.7</ele>
        <time>2021-03-27T12:43:32Z</time>
      </trkpt>
      <trkpt lat="41.615175" lon="-6.040093">
        <ele>782.46</ele>
        <time>2021-03-27T12:43:35Z</time>
      </trkpt>
      <trkpt lat="41.615755" lon="-6.040843">
        <ele>792.45</ele>
        <time>2021-03-27T12:43:37Z</time>
      </trkpt>
      <trkpt lat="41.615848" lon="-6.040915">
        <ele>793.51</ele>
        <time>2021-03-27T12:43:40Z</time>
      </trkpt>
      <trkpt lat="41.616227" lon="-6.041121">
        <ele>798.81</ele>
        <time>2021-03-27T12:43:42Z</time>
      </trkpt>
      <trkpt lat="41.616415" lon="-6.041275">
        <ele>799.86</ele>
        <time>2021-03-27T12:43:45Z</time>
      </trkpt>
      <trkpt lat="41.617148" lon="-6.041796">
        <ele>803.47</ele>
        <time>2021-03-27T12:43:47Z</time>
      </trkpt>
      <trkpt lat="41.617367" lon="-6.041899">
        <ele>804.52</ele>
        <time>2021-03-27T12:43:50Z</time>
      </trkpt>
      <trkpt lat="41.61833" lon="-6.042262">
        <ele>807.99</ele>
        <time>2021-03-27T12:43:52Z</time>
      </trkpt>
      <trkpt lat="41.618555" lon="-6.04237">
        <ele>809.17</ele>
        <time>2021-03-27T12:43:55Z</time>
      </trkpt>
      <trkpt lat="41.618923" lon="-6.042612">
        <ele>810.05</ele>
        <time>2021-03-27T12:43:58Z</time>
      </trkpt>
      <trkpt lat="41.619215" lon="-6.042895">
        <ele>811.07</ele>
        <time>2021-03-27T12:44:00Z</time>
      </trkpt>
      <trkpt lat="41.619962" lon="-6.04374">
        <ele>814.34</ele>
        <time>2021-03-27T12:44:03Z</time>
      </trkpt>
      <trkpt lat="41.62048" lon="-6.044378">
        <ele>814.0</ele>
        <time>2021-03-27T12:44:05Z</time>
      </trkpt>
      <trkpt lat="41.621012" lon="-6.044862">
        <ele>815.18</ele>
        <time>2021-03-27T12:44:08Z</time>
      </trkpt>
      <trkpt lat="41.621728" lon="-6.04543">
        <ele>816.67</ele>
        <time>2021-03-27T12:44:10Z</time>
      </trkpt>
      <trkpt lat="41.623237" lon="-6.046345">
        <ele>818.6</ele>
        <time>2021-03-27T12:44:13Z</time>
      </trkpt>
      <trkpt lat="41.624194" lon="-6.046976">
        <ele>815.99</ele>
        <time>2021-03-27T12:44:15Z</time>
      </trkpt>
      <trkpt lat="41.625113" lon="-6.047547">
        <ele>820.71</ele>
        <time>2021-03-27T12:44:18Z</time>
      </trkpt>
      <trkpt lat="41.625413" lon="-6.04769">
        <ele>822.98</ele>
        <time>2021-03-27T12:44:20Z</time>
      </trkpt>
      <trkpt lat="41.625685" lon="-6.047773">
        <ele>824.0</ele>
        <time>2021-03-27T12:44:23Z</time>
      </trkpt>
      <trkpt lat="41.627315" lon="-6.048217">
        <ele>826.0</ele>
        <time>2021-03-27T12:44:25Z</time>
      </trkpt>
      <trkpt lat="41.627682" lon="-6.048422">
        <ele>826.66</ele>
        <time>2021-03-27T12:44:28Z</time>
      </trkpt>
      <trkpt lat="41.628444" lon="-6.04893">
        <ele>826.6</ele>
        <time>2021-03-27T12:44:31Z</time>
      </trkpt>
      <trkpt lat="41.628703" lon="-6.049125">
        <ele>825.67</ele>
        <time>2021-03-27T12:44:33Z</time>
      </trkpt>
      <trkpt lat="41.628917" lon="-6.049386">
        <ele>826.52</ele>
        <time>2021-03-27T12:44:36Z</time>
      </trkpt>
      <trkpt lat="41.629737" lon="-6.050622">
        <ele>819.03</ele>
        <time>2021-03-27T12:44:38Z</time>
      </trkpt>
      <trkpt lat="41.629935" lon="-6.050894">
        <ele>817.37</ele>
        <time>2021-03-27T12:44:41Z</time>
      </trkpt>
      <trkpt lat="41.630092" lon="-6.051082">
        <ele>816.8</ele>
        <time>2021-03-27T12:44:43Z</time>
      </trkpt>
      <trkpt lat="41.630604" lon="-6.051614">
        <ele>813.25</ele>
        <time>2021-03-27T12:44:46Z</time>
      </trkpt>
      <trkpt lat="41.630842" lon="-6.051844">
        <ele>812.23</ele>
        <time>2021-03-27T12:44:48Z</time>
      </trkpt>
      <trkpt lat="41.630998" lon="-6.051967">
        <ele>812.62</ele>
        <time>2021-03-27T12:44:51Z</time>
      </trkpt>
      <trkpt lat="41.631946" lon="-6.052501">
        <ele>813.99</ele>
        <time>2021-03-27T12:44:53Z</time>
      </trkpt>
      <trkpt lat="41.632229" lon="-6.052693">
        <ele>810.92</ele>
        <time>2021-03-27T12:44:56Z</time>
      </trkpt>
      <trkpt lat="41.63238" lon="-6.052846">
        <ele>808.93</ele>
        <time>2021-03-27T12:44:58Z</time>
      </trkpt>
      <trkpt lat="41.63249" lon="-6.053032">
        <ele>807.21</ele>
        <time>2021-03-27T12:45:01Z</time>
      </trkpt>
      <trkpt lat="41.632606" lon="-6.053379">
        <ele>804.63</ele>
        <time>2021-03-27T12:45:04Z</time>
      </trkpt>
      <trkpt lat="41.632742" lon="-6.053915">
        <ele>797.41</ele>
        <time>2021-03-27T12:45:06Z</time>
      </trkpt>
      <trkpt lat="41.632801" lon="-6.054013">
        <ele>797.34</ele>
        <time>2021-03-27T12:45:09Z</time>
      </trkpt>
      <trkpt lat="41.632871" lon="-6.05409">
        <ele>798.18</ele>
        <time>2021-03-27T12:45:11Z</time>
      </trkpt>
      <trkpt lat="41.633017" lon="-6.054155">
        <ele>798.88</ele>
        <time>2021-03-27T12:45:14Z</time>
      </trkpt>
      <trkpt lat="41.633103" lon="-6.054151">
        <ele>798.84</ele>
        <time>2021-03-27T12:45:16Z</time>
      </trkpt>
      <trkpt lat="41.633559" lon="-6.054015">
        <ele>798.21</ele>
        <time>2021-03-27T12:45:19Z</time>
      </trkpt>
      <trkpt lat="41.633698" lon="-6.054003">
        <ele>797.6</ele>
        <time>2021-03-27T12:45:21Z</time>
      </trkpt>
      <trkpt lat="41.634063" lon="-6.054086">
        <ele>797.3</ele>
        <time>2021-03-27T12:45:24Z</time>
      </trkpt>
      <trkpt lat="41.634346" lon="-6.054195">
        <ele>797.58</ele>
        <time>2021-03-27T12:45:26Z</time>
      </trkpt>
      <trkpt lat="41.634421" lon="-6.054233">
        <ele>797.45</ele>
        <time>2021-03-27T12:45:29Z</time>
      </trkpt>
      <trkpt lat="41.634615" lon="-6.0544">
        <ele>797.33</ele>
        <time>2021-03-27T12:45:31Z</time>
      </trkpt>
      <trkpt lat="41.63526" lon="-6.055186">
        <ele>795.31</ele>
        <time>2021-03-27T12:45:34Z</time>
      </trkpt>
      <trkpt lat="41.635632" lon="-6.055741">
        <ele>790.13</ele>
        <time>2021-03-27T12:45:36Z</time>
      </trkpt>
      <trkpt lat="41.635767" lon="-6.055969">
        <ele>788.56</ele>
        <time>2021-03-27T12:45:39Z</time>
      </trkpt>
      <trkpt lat="41.636136" lon="-6.056757">
        <ele>783.85</ele>
        <time>2021-03-27T12:45:42Z</time>
      </trkpt>
      <trkpt lat="41.636495" lon="-6.057383">
        <ele>787.54</ele>
        <time>2021-03-27T12:45:44Z</time>
      </trkpt>
      <trkpt lat="41.63663" lon="-6.057648">
        <ele>788.47</ele>
        <time>2021-03-27T12:45:47Z</time>
      </trkpt>
      <trkpt lat="41.636722" lon="-6.057879">
        <ele>788.69</ele>
        <time>2021-03-27T12:45:49Z</time>
      </trkpt>
      <trkpt lat="41.636745" lon="-6.058004">
        <ele>789.15</ele>
        <time>2021-03-27T12:45:52Z</time>
      </trkpt>
      <trkpt lat="41.636759" lon="-6.058226">
        <ele>790.35</ele>
        <time>2021-03-27T12:45:54Z</time>
      </trkpt>
      <trkpt lat="41.636831" lon="-6.058667">
        <ele>791.79</ele>
        <time>2021-03-27T12:45:57Z</time>
      </trkpt>
      <trkpt lat="41.636896" lon="-6.058904">
        <ele>792.84</ele>
        <time>2021-03-27T12:45:59Z</time>
      </trkpt>
      <trkpt lat="41.636974" lon="-6.059104">
        <ele>793.21</ele>
        <time>2021-03-27T12:46:02Z</time>
      </trkpt>
      <trkpt lat="41.637282" lon="-6.059652">
        <ele>795.82</ele>
        <time>2021-03-27T12:46:04Z</time>
      </trkpt>
      <trkpt lat="41.637422" lon="-6.059859">
        <ele>797.35</ele>
        <time>2021-03-27T12:46:07Z</time>
      </trkpt>
      <trkpt lat="41.637532" lon="-6.059968">
        <ele>798.01</ele>
        <time>2021-03-27T12:46:09Z</time>
      </trkpt>
      <trkpt lat="41.63763" lon="-6.060035">
        <ele>798.72</ele>
        <time>2021-03-27T12:46:12Z</time>
      </trkpt>
      <trkpt lat="41.637757" lon="-6.06009">
        <ele>799.57</ele>
        <time>2021-03-27T12:46:15Z</time>
      </trkpt>
      <trkpt lat="41.638158" lon="-6.06019">
        <ele>801.86</ele>
        <time>2021-03-27T12:46:17Z</time>
      </trkpt>
      <trkpt lat="41.638373" lon="-6.060221">
        <ele>803.63</ele>
        <time>2021-03-27T12:46:20Z</time>
      </trkpt>
      <trkpt lat="41.638746" lon="-6.060201">
        <ele>807.25</ele>
        <time>2021-03-27T12:46:22Z</time>
      </trkpt>
      <trkpt lat="41.63894" lon="-6.060249">
        <ele>808.47</ele>
        <time>2021-03-27T12:46:25Z</time>
      </trkpt>
      <trkpt lat="41.639162" lon="-6.060361">
        <ele>809.98</ele>
        <time>2021-03-27T12:46:27Z</time>
      </trkpt>
      <trkpt lat="41.639655" lon="-6.060728">
        <ele>812.2</ele>
        <time>2021-03-27T12:46:30Z</time>
      </trkpt>
      <trkpt lat="41.640172" lon="-6.061008">
        <ele>811.98</ele>
        <time>2021-03-27T12:46:32Z</time>
      </trkpt>
      <trkpt lat="41.641848" lon="-6.061719">
        <ele>817.46</ele>
        <time>2021-03-27T12:46:35Z</time>
      </trkpt>
      <trkpt lat="41.642365" lon="-6.061876">
        <ele>821.52</ele>
        <time>2021-03-27T12:46:37Z</time>
      </trkpt>
      <trkpt lat="41.642534" lon="-6.061954">
        <ele>822.06</ele>
        <time>2021-03-27T12:46:40Z</time>
      </trkpt>
      <trkpt lat="41.640752" lon="-6.062888">
        <ele>818.77</ele>
        <time>2021-03-27T12:46:48Z</time>
      </trkpt>
      <trkpt lat="41.640485" lon="-6.063033">
        <ele>821.53</ele>
        <time>2021-03-27T12:46:56Z</time>
      </trkpt>
      <trkpt lat="41.640345" lon="-6.063137">
        <ele>821.76</ele>
        <time>2021-03-27T12:47:04Z</time>
      </trkpt>
      <trkpt lat="41.64021" lon="-6.063258">
        <ele>822.7</ele>
        <time>2021-03-27T12:47:12Z</time>
      </trkpt>
      <trkpt lat="41.639952" lon="-6.063596">
        <ele>826.08</ele>
        <time>2021-03-27T12:47:20Z</time>
      </trkpt>
      <trkpt lat="41.639727" lon="-6.064003">
        <ele>827.98</ele>
        <time>2021-03-27T12:47:27Z</time>
      </trkpt>
      <trkpt lat="41.639642" lon="-6.064231">
        <ele>828.65</ele>
        <time>2021-03-27T12:47:35Z</time>
      </trkpt>
      <trkpt lat="41.639568" lon="-6.064546">
        <ele>830.2</ele>
        <time>2021-03-27T12:47:43Z</time>
      </trkpt>
      <trkpt lat="41.639424" lon="-6.065579">
        <ele>838.16</ele>
        <time>2021-03-27T12:47:51Z</time>
      </trkpt>
      <trkpt lat="41.638526" lon="-6.072434">
        <ele>837.07</ele>
        <time>2021-03-27T12:47:59Z</time>
      </trkpt>
      <trkpt lat="41.638478" lon="-6.073103">
        <ele>835.26</ele>
        <time>2021-03-27T12:48:07Z</time>
      </trkpt>
      <trkpt lat="41.638115" lon="-6.080001">
        <ele>834.42</ele>
        <time>2021-03-27T12:48:15Z</time>
      </trkpt>
      <trkpt lat="41.638093" lon="-6.080529">
        <ele>833.48</ele>
        <time>2021-03-27T12:48:23Z</time>
      </trkpt>
      <trkpt lat="41.638111" lon="-6.081152">
        <ele>833.45</ele>
        <time>2021-03-27T12:48:31Z</time>
      </trkpt>
      <trkpt lat="41.638152" lon="-6.081443">
        <ele>832.9</ele>
        <time>2021-03-27T12:48:39Z</time>
      </trkpt>
      <trkpt lat="41.638227" lon="-6.081788">
        <ele>832.45</ele>
        <time>2021-03-27T12:48:47Z</time>
      </trkpt>
      <trkpt lat="41.641013" lon="-6.092493">
        <ele>838.62</ele>
        <time>2021-03-27T12:48:55Z</time>
      </trkpt>
      <trkpt lat="41.6411" lon="-6.093132">
        <ele>841.27</ele>
        <time>2021-03-27T12:49:03Z</time>
      </trkpt>
      <trkpt lat="41.641117" lon="-6.093416">
        <ele>841.71</ele>
        <time>2021-03-27T12:49:11Z</time>
      </trkpt>
      <trkpt lat="41.641113" lon="-6.09371">
        <ele>840.29</ele>
        <time>2021-03-27T12:49:19Z</time>
      </trkpt>
      <trkpt lat="41.640814" lon="-6.097379">
        <ele>834.97</ele>
        <time>2021-03-27T12:49:27Z</time>
      </trkpt>
      <trkpt lat="41.640262" lon="-6.103773">
        <ele>841.02</ele>
        <time>2021-03-27T12:49:35Z</time>
      </trkpt>
      <trkpt lat="41.640229" lon="-6.10441">
        <ele>838.4</ele>
        <time>2021-03-27T12:49:42Z</time>
      </trkpt>
      <trkpt lat="41.640238" lon="-6.10475">
        <ele>836.03</ele>
        <time>2021-03-27T12:49:50Z</time>
      </trkpt>
      <trkpt lat="41.640637" lon="-6.108616">
        <ele>834.0</ele>
        <time>2021-03-27T12:49:58Z</time>
      </trkpt>
      <trkpt lat="41.64065" lon="-6.109162">
        <ele>833.02</ele>
        <time>2021-03-27T12:50:06Z</time>
      </trkpt>
      <trkpt lat="41.640628" lon="-6.109478">
        <ele>831.88</ele>
        <time>2021-03-27T12:50:14Z</time>
      </trkpt>
      <trkpt lat="41.640552" lon="-6.109962">
        <ele>830.16</ele>
        <time>2021-03-27T12:50:22Z</time>
      </trkpt>
      <trkpt lat="41.640458" lon="-6.110337">
        <ele>830.49</ele>
        <time>2021-03-27T12:50:30Z</time>
      </trkpt>
      <trkpt lat="41.639537" lon="-6.113773">
        <ele>820.5</ele>
        <time>2021-03-27T12:50:38Z</time>
      </trkpt>
      <trkpt lat="41.639538" lon="-6.114">
        <ele>819.26</ele>
        <time>2021-03-27T12:50:39Z</time>
      </trkpt>
      <trkpt lat="41.639562" lon="-6.114092">
        <ele>818.84</ele>
        <time>2021-03-27T12:50:40Z</time>
      </trkpt>
      <trkpt lat="41.639665" lon="-6.114231">
        <ele>817.97</ele>
        <time>2021-03-27T12:50:40Z</time>
      </trkpt>
      <trkpt lat="41.639928" lon="-6.114136">
        <ele>817.37</ele>
        <time>2021-03-27T12:50:43Z</time>
      </trkpt>
      <trkpt lat="41.640085" lon="-6.114011">
        <ele>817.42</ele>
        <time>2021-03-27T12:50:46Z</time>
      </trkpt>
      <trkpt lat="41.640225" lon="-6.113834">
        <ele>818.4</ele>
        <time>2021-03-27T12:50:48Z</time>
      </trkpt>
      <trkpt lat="41.641575" lon="-6.111867">
        <ele>820.03</ele>
        <time>2021-03-27T12:50:51Z</time>
      </trkpt>
      <trkpt lat="41.641658" lon="-6.111788">
        <ele>820.15</ele>
        <time>2021-03-27T12:50:54Z</time>
      </trkpt>
      <trkpt lat="41.641785" lon="-6.111716">
        <ele>820.22</ele>
        <time>2021-03-27T12:50:57Z</time>
      </trkpt>
      <trkpt lat="41.641904" lon="-6.111684">
        <ele>820.02</ele>
        <time>2021-03-27T12:50:59Z</time>
      </trkpt>
      <trkpt lat="41.642105" lon="-6.111716">
        <ele>819.64</ele>
        <time>2021-03-27T12:51:02Z</time>
      </trkpt>
      <trkpt lat="41.642207" lon="-6.111762">
        <ele>819.31</ele>
        <time>2021-03-27T12:51:05Z</time>
      </trkpt>
      <trkpt lat="41.643343" lon="-6.112509">
        <ele>816.97</ele>
        <time>2021-03-27T12:51:07Z</time>
      </trkpt>
      <trkpt lat="41.644418" lon="-6.113186">
        <ele>816.9</ele>
        <time>2021-03-27T12:51:10Z</time>
      </trkpt>
      <trkpt lat="41.644558" lon="-6.113244">
        <ele>816.59</ele>
        <time>2021-03-27T12:51:13Z</time>
      </trkpt>
      <trkpt lat="41.644742" lon="-6.113288">
        <ele>815.93</ele>
        <time>2021-03-27T12:51:15Z</time>
      </trkpt>
      <trkpt lat="41.644891" lon="-6.113291">
        <ele>815.39</ele>
        <time>2021-03-27T12:51:18Z</time>
      </trkpt>
      <trkpt lat="41.645183" lon="-6.113233">
        <ele>814.1</ele>
        <time>2021-03-27T12:51:21Z</time>
      </trkpt>
      <trkpt lat="41.647839" lon="-6.112338">
        <ele>803.58</ele>
        <time>2021-03-27T12:51:24Z</time>
      </trkpt>
      <trkpt lat="41.647966" lon="-6.112282">
        <ele>803.78</ele>
        <time>2021-03-27T12:51:26Z</time>
      </trkpt>
      <trkpt lat="41.648063" lon="-6.112198">
        <ele>803.77</ele>
        <time>2021-03-27T12:51:29Z</time>
      </trkpt>
      <trkpt lat="41.648137" lon="-6.11209">
        <ele>802.32</ele>
        <time>2021-03-27T12:51:32Z</time>
      </trkpt>
      <trkpt lat="41.648186" lon="-6.111968">
        <ele>800.79</ele>
        <time>2021-03-27T12:51:34Z</time>
      </trkpt>
      <trkpt lat="41.648221" lon="-6.111772">
        <ele>799.47</ele>
        <time>2021-03-27T12:51:37Z</time>
      </trkpt>
      <trkpt lat="41.648133" lon="-6.110001">
        <ele>795.45</ele>
        <time>2021-03-27T12:51:40Z</time>
      </trkpt>
      <trkpt lat="41.648164" lon="-6.109858">
        <ele>794.08</ele>
        <time>2021-03-27T12:51:43Z</time>
      </trkpt>
      <trkpt lat="41.648231" lon="-6.109725">
        <ele>793.02</ele>
        <time>2021-03-27T12:51:45Z</time>
      </trkpt>
      <trkpt lat="41.648309" lon="-6.109626">
        <ele>793.29</ele>
        <time>2021-03-27T12:51:48Z</time>
      </trkpt>
      <trkpt lat="41.648385" lon="-6.109569">
        <ele>794.23</ele>
        <time>2021-03-27T12:51:51Z</time>
      </trkpt>
      <trkpt lat="41.648502" lon="-6.109545">
        <ele>796.01</ele>
        <time>2021-03-27T12:51:53Z</time>
      </trkpt>
      <trkpt lat="41.648634" lon="-6.109546">
        <ele>797.79</ele>
        <time>2021-03-27T12:51:56Z</time>
      </trkpt>
      <trkpt lat="41.650246" lon="-6.110427">
        <ele>801.23</ele>
        <time>2021-03-27T12:51:59Z</time>
      </trkpt>
      <trkpt lat="41.650395" lon="-6.110531">
        <ele>802.36</ele>
        <time>2021-03-27T12:52:01Z</time>
      </trkpt>
      <trkpt lat="41.650534" lon="-6.110691">
        <ele>802.83</ele>
        <time>2021-03-27T12:52:04Z</time>
      </trkpt>
      <trkpt lat="41.651004" lon="-6.111468">
        <ele>806.67</ele>
        <time>2021-03-27T12:52:07Z</time>
      </trkpt>
      <trkpt lat="41.651133" lon="-6.111664">
        <ele>807.09</ele>
        <time>2021-03-27T12:52:10Z</time>
      </trkpt>
      <trkpt lat="41.651264" lon="-6.111814">
        <ele>806.97</ele>
        <time>2021-03-27T12:52:12Z</time>
      </trkpt>
      <trkpt lat="41.656205" lon="-6.116291">
        <ele>818.04</ele>
        <time>2021-03-27T12:52:15Z</time>
      </trkpt>
      <trkpt lat="41.656345" lon="-6.116386">
        <ele>817.86</ele>
        <time>2021-03-27T12:52:18Z</time>
      </trkpt>
      <trkpt lat="41.656464" lon="-6.116435">
        <ele>817.73</ele>
        <time>2021-03-27T12:52:20Z</time>
      </trkpt>
      <trkpt lat="41.656557" lon="-6.116445">
        <ele>817.87</ele>
        <time>2021-03-27T12:52:23Z</time>
      </trkpt>
      <trkpt lat="41.65705" lon="-6.116378">
        <ele>819.06</ele>
        <time>2021-03-27T12:52:26Z</time>
      </trkpt>
      <trkpt lat="41.657348" lon="-6.116316">
        <ele>818.02</ele>
        <time>2021-03-27T12:52:29Z</time>
      </trkpt>
      <trkpt lat="41.657449" lon="-6.116264">
        <ele>817.37</ele>
        <time>2021-03-27T12:52:31Z</time>
      </trkpt>
      <trkpt lat="41.657523" lon="-6.116192">
        <ele>817.28</ele>
        <time>2021-03-27T12:52:34Z</time>
      </trkpt>
      <trkpt lat="41.6576" lon="-6.116009">
        <ele>817.28</ele>
        <time>2021-03-27T12:52:37Z</time>
      </trkpt>
      <trkpt lat="41.657811" lon="-6.114835">
        <ele>816.35</ele>
        <time>2021-03-27T12:52:39Z</time>
      </trkpt>
      <trkpt lat="41.657827" lon="-6.114624">
        <ele>816.23</ele>
        <time>2021-03-27T12:52:42Z</time>
      </trkpt>
      <trkpt lat="41.657797" lon="-6.114352">
        <ele>815.1</ele>
        <time>2021-03-27T12:52:45Z</time>
      </trkpt>
      <trkpt lat="41.657468" lon="-6.113012">
        <ele>812.76</ele>
        <time>2021-03-27T12:52:47Z</time>
      </trkpt>
      <trkpt lat="41.657449" lon="-6.112677">
        <ele>809.56</ele>
        <time>2021-03-27T12:52:50Z</time>
      </trkpt>
      <trkpt lat="41.657433" lon="-6.111423">
        <ele>802.51</ele>
        <time>2021-03-27T12:52:53Z</time>
      </trkpt>
      <trkpt lat="41.657351" lon="-6.11063">
        <ele>797.02</ele>
        <time>2021-03-27T12:52:56Z</time>
      </trkpt>
      <trkpt lat="41.657338" lon="-6.11029">
        <ele>796.19</ele>
        <time>2021-03-27T12:52:58Z</time>
      </trkpt>
      <trkpt lat="41.657383" lon="-6.110083">
        <ele>795.15</ele>
        <time>2021-03-27T12:53:01Z</time>
      </trkpt>
      <trkpt lat="41.657473" lon="-6.109896">
        <ele>794.16</ele>
        <time>2021-03-27T12:53:04Z</time>
      </trkpt>
      <trkpt lat="41.658106" lon="-6.109007">
        <ele>790.17</ele>
        <time>2021-03-27T12:53:06Z</time>
      </trkpt>
      <trkpt lat="41.658376" lon="-6.108807">
        <ele>788.85</ele>
        <time>2021-03-27T12:53:09Z</time>
      </trkpt>
      <trkpt lat="41.659233" lon="-6.108368">
        <ele>789.87</ele>
        <time>2021-03-27T12:53:12Z</time>
      </trkpt>
      <trkpt lat="41.659478" lon="-6.108368">
        <ele>789.87</ele>
        <time>2021-03-27T12:53:15Z</time>
      </trkpt>
      <trkpt lat="41.659591" lon="-6.108396">
        <ele>789.78</ele>
        <time>2021-03-27T12:53:17Z</time>
      </trkpt>
      <trkpt lat="41.660313" lon="-6.108674">
        <ele>788.13</ele>
        <time>2021-03-27T12:53:20Z</time>
      </trkpt>
      <trkpt lat="41.660534" lon="-6.108832">
        <ele>789.23</ele>
        <time>2021-03-27T12:53:23Z</time>
      </trkpt>
      <trkpt lat="41.660631" lon="-6.108931">
        <ele>790.05</ele>
        <time>2021-03-27T12:53:25Z</time>
      </trkpt>
      <trkpt lat="41.661708" lon="-6.110385">
        <ele>795.68</ele>
        <time>2021-03-27T12:53:28Z</time>
      </trkpt>
      <trkpt lat="41.661852" lon="-6.110548">
        <ele>796.06</ele>
        <time>2021-03-27T12:53:31Z</time>
      </trkpt>
      <trkpt lat="41.662017" lon="-6.1107">
        <ele>796.22</ele>
        <time>2021-03-27T12:53:33Z</time>
      </trkpt>
      <trkpt lat="41.662582" lon="-6.111115">
        <ele>794.57</ele>
        <time>2021-03-27T12:53:36Z</time>
      </trkpt>
      <trkpt lat="41.662954" lon="-6.111316">
        <ele>796.06</ele>
        <time>2021-03-27T12:53:39Z</time>
      </trkpt>
      <trkpt lat="41.664189" lon="-6.111698">
        <ele>794.92</ele>
        <time>2021-03-27T12:53:42Z</time>
      </trkpt>
      <trkpt lat="41.664515" lon="-6.111782">
        <ele>793.59</ele>
        <time>2021-03-27T12:53:44Z</time>
      </trkpt>
      <trkpt lat="41.664621" lon="-6.111791">
        <ele>793.01</ele>
        <time>2021-03-27T12:53:47Z</time>
      </trkpt>
      <trkpt lat="41.664799" lon="-6.111742">
        <ele>791.71</ele>
        <time>2021-03-27T12:53:50Z</time>
      </trkpt>
      <trkpt lat="41.664919" lon="-6.111656">
        <ele>790.55</ele>
        <time>2021-03-27T12:53:52Z</time>
      </trkpt>
      <trkpt lat="41.665011" lon="-6.111552">
        <ele>789.57</ele>
        <time>2021-03-27T12:53:55Z</time>
      </trkpt>
      <trkpt lat="41.665146" lon="-6.111301">
        <ele>789.15</ele>
        <time>2021-03-27T12:53:58Z</time>
      </trkpt>
      <trkpt lat="41.6659" lon="-6.109552">
        <ele>785.52</ele>
        <time>2021-03-27T12:54:01Z</time>
      </trkpt>
      <trkpt lat="41.665966" lon="-6.109332">
        <ele>785.24</ele>
        <time>2021-03-27T12:54:03Z</time>
      </trkpt>
      <trkpt lat="41.666007" lon="-6.10905">
        <ele>785.11</ele>
        <time>2021-03-27T12:54:06Z</time>
      </trkpt>
      <trkpt lat="41.666016" lon="-6.108687">
        <ele>783.71</ele>
        <time>2021-03-27T12:54:09Z</time>
      </trkpt>
      <trkpt lat="41.665985" lon="-6.108471">
        <ele>783.45</ele>
        <time>2021-03-27T12:54:11Z</time>
      </trkpt>
      <trkpt lat="41.665925" lon="-6.108332">
        <ele>783.66</ele>
        <time>2021-03-27T12:54:14Z</time>
      </trkpt>
      <trkpt lat="41.665851" lon="-6.108218">
        <ele>783.13</ele>
        <time>2021-03-27T12:54:17Z</time>
      </trkpt>
      <trkpt lat="41.665718" lon="-6.108121">
        <ele>782.06</ele>
        <time>2021-03-27T12:54:19Z</time>
      </trkpt>
      <trkpt lat="41.665399" lon="-6.108024">
        <ele>781.21</ele>
        <time>2021-03-27T12:54:22Z</time>
      </trkpt>
      <trkpt lat="41.665266" lon="-6.107967">
        <ele>780.81</ele>
        <time>2021-03-27T12:54:25Z</time>
      </trkpt>
      <trkpt lat="41.665171" lon="-6.107895">
        <ele>780.46</ele>
        <time>2021-03-27T12:54:28Z</time>
      </trkpt>
      <trkpt lat="41.665105" lon="-6.10781">
        <ele>779.71</ele>
        <time>2021-03-27T12:54:30Z</time>
      </trkpt>
      <trkpt lat="41.665049" lon="-6.107688">
        <ele>778.73</ele>
        <time>2021-03-27T12:54:33Z</time>
      </trkpt>
      <trkpt lat="41.66502" lon="-6.107576">
        <ele>777.73</ele>
        <time>2021-03-27T12:54:36Z</time>
      </trkpt>
      <trkpt lat="41.665005" lon="-6.107452">
        <ele>776.97</ele>
        <time>2021-03-27T12:54:38Z</time>
      </trkpt>
      <trkpt lat="41.66504" lon="-6.107238">
        <ele>776.59</ele>
        <time>2021-03-27T12:54:41Z</time>
      </trkpt>
      <trkpt lat="41.665492" lon="-6.106099">
        <ele>769.96</ele>
        <time>2021-03-27T12:54:44Z</time>
      </trkpt>
      <trkpt lat="41.665634" lon="-6.105823">
        <ele>769.2</ele>
        <time>2021-03-27T12:54:47Z</time>
      </trkpt>
      <trkpt lat="41.666424" lon="-6.104752">
        <ele>765.4</ele>
        <time>2021-03-27T12:54:49Z</time>
      </trkpt>
      <trkpt lat="41.66652" lon="-6.10464">
        <ele>764.4</ele>
        <time>2021-03-27T12:54:52Z</time>
      </trkpt>
      <trkpt lat="41.666627" lon="-6.104559">
        <ele>763.16</ele>
        <time>2021-03-27T12:54:55Z</time>
      </trkpt>
      <trkpt lat="41.666736" lon="-6.104517">
        <ele>762.24</ele>
        <time>2021-03-27T12:54:57Z</time>
      </trkpt>
      <trkpt lat="41.666865" lon="-6.1045">
        <ele>761.37</ele>
        <time>2021-03-27T12:55:00Z</time>
      </trkpt>
      <trkpt lat="41.666956" lon="-6.104511">
        <ele>760.73</ele>
        <time>2021-03-27T12:55:03Z</time>
      </trkpt>
      <trkpt lat="41.669267" lon="-6.105096">
        <ele>745.53</ele>
        <time>2021-03-27T12:55:05Z</time>
      </trkpt>
      <trkpt lat="41.669392" lon="-6.105113">
        <ele>745.26</ele>
        <time>2021-03-27T12:55:08Z</time>
      </trkpt>
      <trkpt lat="41.669751" lon="-6.105087">
        <ele>743.27</ele>
        <time>2021-03-27T12:55:11Z</time>
      </trkpt>
      <trkpt lat="41.669885" lon="-6.105094">
        <ele>742.73</ele>
        <time>2021-03-27T12:55:14Z</time>
      </trkpt>
      <trkpt lat="41.670058" lon="-6.105161">
        <ele>741.72</ele>
        <time>2021-03-27T12:55:16Z</time>
      </trkpt>
      <trkpt lat="41.670156" lon="-6.10524">
        <ele>740.78</ele>
        <time>2021-03-27T12:55:19Z</time>
      </trkpt>
      <trkpt lat="41.670236" lon="-6.105339">
        <ele>739.93</ele>
        <time>2021-03-27T12:55:22Z</time>
      </trkpt>
      <trkpt lat="41.671049" lon="-6.106845">
        <ele>732.92</ele>
        <time>2021-03-27T12:55:24Z</time>
      </trkpt>
      <trkpt lat="41.671202" lon="-6.107094">
        <ele>731.65</ele>
        <time>2021-03-27T12:55:27Z</time>
      </trkpt>
      <trkpt lat="41.671375" lon="-6.107255">
        <ele>730.23</ele>
        <time>2021-03-27T12:55:30Z</time>
      </trkpt>
      <trkpt lat="41.671476" lon="-6.107301">
        <ele>729.61</ele>
        <time>2021-03-27T12:55:33Z</time>
      </trkpt>
      <trkpt lat="41.671564" lon="-6.107316">
        <ele>728.86</ele>
        <time>2021-03-27T12:55:35Z</time>
      </trkpt>
      <trkpt lat="41.671774" lon="-6.107297">
        <ele>726.75</ele>
        <time>2021-03-27T12:55:38Z</time>
      </trkpt>
      <trkpt lat="41.671997" lon="-6.107225">
        <ele>724.6</ele>
        <time>2021-03-27T12:55:41Z</time>
      </trkpt>
      <trkpt lat="41.672626" lon="-6.106864">
        <ele>720.97</ele>
        <time>2021-03-27T12:55:43Z</time>
      </trkpt>
      <trkpt lat="41.672821" lon="-6.106774">
        <ele>721.11</ele>
        <time>2021-03-27T12:55:46Z</time>
      </trkpt>
      <trkpt lat="41.673008" lon="-6.106717">
        <ele>721.33</ele>
        <time>2021-03-27T12:55:49Z</time>
      </trkpt>
      <trkpt lat="41.673724" lon="-6.106577">
        <ele>719.12</ele>
        <time>2021-03-27T12:55:51Z</time>
      </trkpt>
      <trkpt lat="41.67396" lon="-6.106604">
        <ele>717.35</ele>
        <time>2021-03-27T12:55:54Z</time>
      </trkpt>
      <trkpt lat="41.674224" lon="-6.106694">
        <ele>715.7</ele>
        <time>2021-03-27T12:55:57Z</time>
      </trkpt>
      <trkpt lat="41.674567" lon="-6.106781">
        <ele>714.14</ele>
        <time>2021-03-27T12:56:00Z</time>
      </trkpt>
      <trkpt lat="41.674926" lon="-6.106842">
        <ele>711.54</ele>
        <time>2021-03-27T12:56:02Z</time>
      </trkpt>
      <trkpt lat="41.675061" lon="-6.106829">
        <ele>711.05</ele>
        <time>2021-03-27T12:56:05Z</time>
      </trkpt>
      <trkpt lat="41.675538" lon="-6.106716">
        <ele>709.13</ele>
        <time>2021-03-27T12:56:08Z</time>
      </trkpt>
      <trkpt lat="41.676364" lon="-6.106651">
        <ele>700.31</ele>
        <time>2021-03-27T12:56:10Z</time>
      </trkpt>
      <trkpt lat="41.676601" lon="-6.106557">
        <ele>698.2</ele>
        <time>2021-03-27T12:56:13Z</time>
      </trkpt>
      <trkpt lat="41.676723" lon="-6.106453">
        <ele>697.05</ele>
        <time>2021-03-27T12:56:16Z</time>
      </trkpt>
      <trkpt lat="41.676868" lon="-6.106294">
        <ele>695.64</ele>
        <time>2021-03-27T12:56:19Z</time>
      </trkpt>
      <trkpt lat="41.677141" lon="-6.105935">
        <ele>694.66</ele>
        <time>2021-03-27T12:56:21Z</time>
      </trkpt>
      <trkpt lat="41.677352" lon="-6.10576">
        <ele>692.59</ele>
        <time>2021-03-27T12:56:24Z</time>
      </trkpt>
      <trkpt lat="41.677451" lon="-6.105717">
        <ele>691.52</ele>
        <time>2021-03-27T12:56:27Z</time>
      </trkpt>
      <trkpt lat="41.677956" lon="-6.1056">
        <ele>687.39</ele>
        <time>2021-03-27T12:56:29Z</time>
      </trkpt>
      <trkpt lat="41.678817" lon="-6.105431">
        <ele>683.85</ele>
        <time>2021-03-27T12:56:32Z</time>
      </trkpt>
      <trkpt lat="41.678912" lon="-6.105431">
        <ele>683.05</ele>
        <time>2021-03-27T12:56:35Z</time>
      </trkpt>
      <trkpt lat="41.679009" lon="-6.105471">
        <ele>681.48</ele>
        <time>2021-03-27T12:56:37Z</time>
      </trkpt>
      <trkpt lat="41.679923" lon="-6.106244">
        <ele>682.54</ele>
        <time>2021-03-27T12:56:40Z</time>
      </trkpt>
      <trkpt lat="41.680069" lon="-6.106335">
        <ele>683.66</ele>
        <time>2021-03-27T12:56:43Z</time>
      </trkpt>
      <trkpt lat="41.680234" lon="-6.106346">
        <ele>683.82</ele>
        <time>2021-03-27T12:56:46Z</time>
      </trkpt>
      <trkpt lat="41.680297" lon="-6.106324">
        <ele>683.77</ele>
        <time>2021-03-27T12:56:48Z</time>
      </trkpt>
      <trkpt lat="41.680498" lon="-6.106161">
        <ele>683.18</ele>
        <time>2021-03-27T12:56:51Z</time>
      </trkpt>
      <trkpt lat="41.680804" lon="-6.105845">
        <ele>684.69</ele>
        <time>2021-03-27T12:56:54Z</time>
      </trkpt>
      <trkpt lat="41.680889" lon="-6.105778">
        <ele>685.4</ele>
        <time>2021-03-27T12:56:56Z</time>
      </trkpt>
      <trkpt lat="41.681055" lon="-6.105702">
        <ele>686.59</ele>
        <time>2021-03-27T12:56:59Z</time>
      </trkpt>
      <trkpt lat="41.68139" lon="-6.105697">
        <ele>688.51</ele>
        <time>2021-03-27T12:57:02Z</time>
      </trkpt>
      <trkpt lat="41.685065" lon="-6.106329">
        <ele>713.55</ele>
        <time>2021-03-27T12:57:05Z</time>
      </trkpt>
      <trkpt lat="41.685289" lon="-6.106353">
        <ele>714.7</ele>
        <time>2021-03-27T12:57:07Z</time>
      </trkpt>
      <trkpt lat="41.68713" lon="-6.106101">
        <ele>729.19</ele>
        <time>2021-03-27T12:57:10Z</time>
      </trkpt>
      <trkpt lat="41.687453" lon="-6.106043">
        <ele>730.47</ele>
        <time>2021-03-27T12:57:13Z</time>
      </trkpt>
      <trkpt lat="41.687571" lon="-6.10599">
        <ele>731.51</ele>
        <time>2021-03-27T12:57:15Z</time>
      </trkpt>
      <trkpt lat="41.687657" lon="-6.105927">
        <ele>732.6</ele>
        <time>2021-03-27T12:57:18Z</time>
      </trkpt>
      <trkpt lat="41.687742" lon="-6.105804">
        <ele>734.37</ele>
        <time>2021-03-27T12:57:21Z</time>
      </trkpt>
      <trkpt lat="41.687785" lon="-6.105695">
        <ele>734.81</ele>
        <time>2021-03-27T12:57:23Z</time>
      </trkpt>
      <trkpt lat="41.687814" lon="-6.105569">
        <ele>734.86</ele>
        <time>2021-03-27T12:57:26Z</time>
      </trkpt>
      <trkpt lat="41.687818" lon="-6.105286">
        <ele>734.7</ele>
        <time>2021-03-27T12:57:29Z</time>
      </trkpt>
      <trkpt lat="41.687652" lon="-6.103999">
        <ele>738.63</ele>
        <time>2021-03-27T12:57:32Z</time>
      </trkpt>
      <trkpt lat="41.687616" lon="-6.103564">
        <ele>741.1</ele>
        <time>2021-03-27T12:57:34Z</time>
      </trkpt>
      <trkpt lat="41.687616" lon="-6.103329">
        <ele>742.44</ele>
        <time>2021-03-27T12:57:37Z</time>
      </trkpt>
      <trkpt lat="41.687668" lon="-6.102867">
        <ele>744.66</ele>
        <time>2021-03-27T12:57:40Z</time>
      </trkpt>
      <trkpt lat="41.68774" lon="-6.102431">
        <ele>747.05</ele>
        <time>2021-03-27T12:57:42Z</time>
      </trkpt>
      <trkpt lat="41.687793" lon="-6.102175">
        <ele>747.13</ele>
        <time>2021-03-27T12:57:45Z</time>
      </trkpt>
      <trkpt lat="41.687854" lon="-6.102011">
        <ele>747.63</ele>
        <time>2021-03-27T12:57:48Z</time>
      </trkpt>
      <trkpt lat="41.687944" lon="-6.101878">
        <ele>747.63</ele>
        <time>2021-03-27T12:57:51Z</time>
      </trkpt>
      <trkpt lat="41.688073" lon="-6.10173">
        <ele>748.24</ele>
        <time>2021-03-27T12:57:53Z</time>
      </trkpt>
      <trkpt lat="41.690074" lon="-6.099731">
        <ele>760.89</ele>
        <time>2021-03-27T12:57:56Z</time>
      </trkpt>
      <trkpt lat="41.690175" lon="-6.0996">
        <ele>760.42</ele>
        <time>2021-03-27T12:57:59Z</time>
      </trkpt>
      <trkpt lat="41.690262" lon="-6.099439">
        <ele>759.74</ele>
        <time>2021-03-27T12:58:01Z</time>
      </trkpt>
      <trkpt lat="41.690319" lon="-6.099283">
        <ele>759.43</ele>
        <time>2021-03-27T12:58:04Z</time>
      </trkpt>
      <trkpt lat="41.690472" lon="-6.098639">
        <ele>758.2</ele>
        <time>2021-03-27T12:58:07Z</time>
      </trkpt>
      <trkpt lat="41.690527" lon="-6.098494">
        <ele>757.98</ele>
        <time>2021-03-27T12:58:09Z</time>
      </trkpt>
      <trkpt lat="41.69063" lon="-6.098347">
        <ele>757.38</ele>
        <time>2021-03-27T12:58:12Z</time>
      </trkpt>
      <trkpt lat="41.690787" lon="-6.098263">
        <ele>756.9</ele>
        <time>2021-03-27T12:58:15Z</time>
      </trkpt>
      <trkpt lat="41.690885" lon="-6.098254">
        <ele>756.64</ele>
        <time>2021-03-27T12:58:18Z</time>
      </trkpt>
      <trkpt lat="41.692007" lon="-6.098306">
        <ele>749.74</ele>
        <time>2021-03-27T12:58:20Z</time>
      </trkpt>
      <trkpt lat="41.692109" lon="-6.098284">
        <ele>749.68</ele>
        <time>2021-03-27T12:58:23Z</time>
      </trkpt>
      <trkpt lat="41.692203" lon="-6.098225">
        <ele>749.55</ele>
        <time>2021-03-27T12:58:26Z</time>
      </trkpt>
      <trkpt lat="41.692278" lon="-6.098136">
        <ele>749.63</ele>
        <time>2021-03-27T12:58:28Z</time>
      </trkpt>
      <trkpt lat="41.692338" lon="-6.098008">
        <ele>749.8</ele>
        <time>2021-03-27T12:58:31Z</time>
      </trkpt>
      <trkpt lat="41.69239" lon="-6.097804">
        <ele>750.4</ele>
        <time>2021-03-27T12:58:34Z</time>
      </trkpt>
      <trkpt lat="41.69297" lon="-6.094495">
        <ele>755.62</ele>
        <time>2021-03-27T12:58:37Z</time>
      </trkpt>
      <trkpt lat="41.693002" lon="-6.094241">
        <ele>756.12</ele>
        <time>2021-03-27T12:58:39Z</time>
      </trkpt>
      <trkpt lat="41.693009" lon="-6.094029">
        <ele>756.25</ele>
        <time>2021-03-27T12:58:42Z</time>
      </trkpt>
      <trkpt lat="41.692589" lon="-6.084946">
        <ele>755.07</ele>
        <time>2021-03-27T12:58:45Z</time>
      </trkpt>
      <trkpt lat="41.692605" lon="-6.084796">
        <ele>755.18</ele>
        <time>2021-03-27T12:58:47Z</time>
      </trkpt>
      <trkpt lat="41.692656" lon="-6.084631">
        <ele>754.88</ele>
        <time>2021-03-27T12:58:50Z</time>
      </trkpt>
      <trkpt lat="41.692794" lon="-6.084452">
        <ele>754.0</ele>
        <time>2021-03-27T12:58:53Z</time>
      </trkpt>
      <trkpt lat="41.692894" lon="-6.084386">
        <ele>754.0</ele>
        <time>2021-03-27T12:58:55Z</time>
      </trkpt>
      <trkpt lat="41.693153" lon="-6.084327">
        <ele>754.0</ele>
        <time>2021-03-27T12:58:58Z</time>
      </trkpt>
      <trkpt lat="41.694723" lon="-6.084126">
        <ele>755.0</ele>
        <time>2021-03-27T12:59:01Z</time>
      </trkpt>
      <trkpt lat="41.694983" lon="-6.084125">
        <ele>755.0</ele>
        <time>2021-03-27T12:59:04Z</time>
      </trkpt>
      <trkpt lat="41.695098" lon="-6.084141">
        <ele>755.67</ele>
        <time>2021-03-27T12:59:06Z</time>
      </trkpt>
      <trkpt lat="41.695417" lon="-6.084241">
        <ele>756.87</ele>
        <time>2021-03-27T12:59:09Z</time>
      </trkpt>
      <trkpt lat="41.698169" lon="-6.085244">
        <ele>758.64</ele>
        <time>2021-03-27T12:59:12Z</time>
      </trkpt>
      <trkpt lat="41.698834" lon="-6.08548">
        <ele>757.27</ele>
        <time>2021-03-27T12:59:14Z</time>
      </trkpt>
      <trkpt lat="41.699056" lon="-6.085541">
        <ele>757.65</ele>
        <time>2021-03-27T12:59:17Z</time>
      </trkpt>
      <trkpt lat="41.699167" lon="-6.085548">
        <ele>758.03</ele>
        <time>2021-03-27T12:59:20Z</time>
      </trkpt>
      <trkpt lat="41.699282" lon="-6.085521">
        <ele>758.43</ele>
        <time>2021-03-27T12:59:23Z</time>
      </trkpt>
      <trkpt lat="41.699384" lon="-6.085452">
        <ele>758.57</ele>
        <time>2021-03-27T12:59:25Z</time>
      </trkpt>
      <trkpt lat="41.699528" lon="-6.085285">
        <ele>758.31</ele>
        <time>2021-03-27T12:59:28Z</time>
      </trkpt>
      <trkpt lat="41.699572" lon="-6.085185">
        <ele>758.64</ele>
        <time>2021-03-27T12:59:31Z</time>
      </trkpt>
      <trkpt lat="41.699617" lon="-6.085136">
        <ele>758.81</ele>
        <time>2021-03-27T12:59:31Z</time>
      </trkpt>
      <trkpt lat="41.699683" lon="-6.085112">
        <ele>758.94</ele>
        <time>2021-03-27T12:59:32Z</time>
      </trkpt>
      <trkpt lat="41.699803" lon="-6.085661">
        <ele>758.56</ele>
        <time>2021-03-27T12:59:35Z</time>
      </trkpt>
      <trkpt lat="41.699853" lon="-6.086306">
        <ele>760.7</ele>
        <time>2021-03-27T12:59:38Z</time>
      </trkpt>
      <trkpt lat="41.699986" lon="-6.090688">
        <ele>756.98</ele>
        <time>2021-03-27T12:59:42Z</time>
      </trkpt>
      <trkpt lat="41.699979" lon="-6.090906">
        <ele>756.93</ele>
        <time>2021-03-27T12:59:45Z</time>
      </trkpt>
      <trkpt lat="41.699961" lon="-6.091061">
        <ele>756.86</ele>
        <time>2021-03-27T12:59:49Z</time>
      </trkpt>
      <trkpt lat="41.699869" lon="-6.091449">
        <ele>756.0</ele>
        <time>2021-03-27T12:59:52Z</time>
      </trkpt>
      <trkpt lat="41.699625" lon="-6.092131">
        <ele>756.0</ele>
        <time>2021-03-27T12:59:56Z</time>
      </trkpt>
      <trkpt lat="41.699456" lon="-6.092735">
        <ele>754.23</ele>
        <time>2021-03-27T12:59:59Z</time>
      </trkpt>
      <trkpt lat="41.699137" lon="-6.094291">
        <ele>743.37</ele>
        <time>2021-03-27T13:00:03Z</time>
      </trkpt>
      <trkpt lat="41.699006" lon="-6.094995">
        <ele>742.02</ele>
        <time>2021-03-27T13:00:06Z</time>
      </trkpt>
      <trkpt lat="41.698958" lon="-6.095443">
        <ele>741.1</ele>
        <time>2021-03-27T13:00:09Z</time>
      </trkpt>
      <trkpt lat="41.698945" lon="-6.095732">
        <ele>740.87</ele>
        <time>2021-03-27T13:00:13Z</time>
      </trkpt>
      <trkpt lat="41.698977" lon="-6.096244">
        <ele>737.72</ele>
        <time>2021-03-27T13:00:16Z</time>
      </trkpt>
      <trkpt lat="41.699106" lon="-6.096882">
        <ele>731.41</ele>
        <time>2021-03-27T13:00:20Z</time>
      </trkpt>
      <trkpt lat="41.699283" lon="-6.09753">
        <ele>723.4</ele>
        <time>2021-03-27T13:00:23Z</time>
      </trkpt>
      <trkpt lat="41.699583" lon="-6.098541">
        <ele>715.13</ele>
        <time>2021-03-27T13:00:27Z</time>
      </trkpt>
      <trkpt lat="41.699782" lon="-6.099088">
        <ele>711.9</ele>
        <time>2021-03-27T13:00:30Z</time>
      </trkpt>
      <trkpt lat="41.70026" lon="-6.100083">
        <ele>703.57</ele>
        <time>2021-03-27T13:00:34Z</time>
      </trkpt>
      <trkpt lat="41.700395" lon="-6.100428">
        <ele>700.98</ele>
        <time>2021-03-27T13:00:37Z</time>
      </trkpt>
      <trkpt lat="41.700495" lon="-6.100869">
        <ele>697.59</ele>
        <time>2021-03-27T13:00:40Z</time>
      </trkpt>
      <trkpt lat="41.700583" lon="-6.101683">
        <ele>686.83</ele>
        <time>2021-03-27T13:00:44Z</time>
      </trkpt>
      <trkpt lat="41.700621" lon="-6.102111">
        <ele>684.9</ele>
        <time>2021-03-27T13:00:47Z</time>
      </trkpt>
      <trkpt lat="41.700618" lon="-6.102285">
        <ele>686.35</ele>
        <time>2021-03-27T13:00:51Z</time>
      </trkpt>
      <trkpt lat="41.70045" lon="-6.103275">
        <ele>696.07</ele>
        <time>2021-03-27T13:00:54Z</time>
      </trkpt>
      <trkpt lat="41.70026" lon="-6.104725">
        <ele>693.76</ele>
        <time>2021-03-27T13:00:58Z</time>
      </trkpt>
      <trkpt lat="41.700155" lon="-6.105345">
        <ele>691.84</ele>
        <time>2021-03-27T13:01:01Z</time>
      </trkpt>
      <trkpt lat="41.7" lon="-6.105729">
        <ele>688.63</ele>
        <time>2021-03-27T13:01:04Z</time>
      </trkpt>
      <trkpt lat="41.699963" lon="-6.105884">
        <ele>688.54</ele>
        <time>2021-03-27T13:01:08Z</time>
      </trkpt>
      <trkpt lat="41.699945" lon="-6.106042">
        <ele>688.91</ele>
        <time>2021-03-27T13:01:11Z</time>
      </trkpt>
      <trkpt lat="41.699949" lon="-6.106175">
        <ele>689.54</ele>
        <time>2021-03-27T13:01:15Z</time>
      </trkpt>
      <trkpt lat="41.699994" lon="-6.106391">
        <ele>690.94</ele>
        <time>2021-03-27T13:01:18Z</time>
      </trkpt>
      <trkpt lat="41.700158" lon="-6.106787">
        <ele>692.95</ele>
        <time>2021-03-27T13:01:22Z</time>
      </trkpt>
      <trkpt lat="41.700317" lon="-6.107001">
        <ele>694.46</ele>
        <time>2021-03-27T13:01:25Z</time>
      </trkpt>
      <trkpt lat="41.700691" lon="-6.107771">
        <ele>699.95</ele>
        <time>2021-03-27T13:01:29Z</time>
      </trkpt>
      <trkpt lat="41.70117" lon="-6.108954">
        <ele>708.24</ele>
        <time>2021-03-27T13:01:32Z</time>
      </trkpt>
      <trkpt lat="41.701592" lon="-6.109692">
        <ele>707.68</ele>
        <time>2021-03-27T13:01:35Z</time>
      </trkpt>
      <trkpt lat="41.701724" lon="-6.109857">
        <ele>708.21</ele>
        <time>2021-03-27T13:01:39Z</time>
      </trkpt>
      <trkpt lat="41.702668" lon="-6.110717">
        <ele>713.86</ele>
        <time>2021-03-27T13:01:42Z</time>
      </trkpt>
      <trkpt lat="41.70282" lon="-6.110815">
        <ele>714.24</ele>
        <time>2021-03-27T13:01:46Z</time>
      </trkpt>
      <trkpt lat="41.703137" lon="-6.110948">
        <ele>715.63</ele>
        <time>2021-03-27T13:01:49Z</time>
      </trkpt>
      <trkpt lat="41.703803" lon="-6.111079">
        <ele>723.06</ele>
        <time>2021-03-27T13:01:53Z</time>
      </trkpt>
      <trkpt lat="41.704139" lon="-6.111167">
        <ele>725.41</ele>
        <time>2021-03-27T13:01:56Z</time>
      </trkpt>
      <trkpt lat="41.705141" lon="-6.111533">
        <ele>730.73</ele>
        <time>2021-03-27T13:02:00Z</time>
      </trkpt>
      <trkpt lat="41.70552" lon="-6.111601">
        <ele>736.17</ele>
        <time>2021-03-27T13:02:03Z</time>
      </trkpt>
      <trkpt lat="41.705884" lon="-6.111556">
        <ele>739.56</ele>
        <time>2021-03-27T13:02:06Z</time>
      </trkpt>
      <trkpt lat="41.706068" lon="-6.11151">
        <ele>741.38</ele>
        <time>2021-03-27T13:02:10Z</time>
      </trkpt>
      <trkpt lat="41.706715" lon="-6.111228">
        <ele>751.48</ele>
        <time>2021-03-27T13:02:13Z</time>
      </trkpt>
      <trkpt lat="41.707042" lon="-6.111118">
        <ele>753.02</ele>
        <time>2021-03-27T13:02:17Z</time>
      </trkpt>
      <trkpt lat="41.707505" lon="-6.111073">
        <ele>755.19</ele>
        <time>2021-03-27T13:02:20Z</time>
      </trkpt>
      <trkpt lat="41.708337" lon="-6.111107">
        <ele>760.0</ele>
        <time>2021-03-27T13:02:24Z</time>
      </trkpt>
      <trkpt lat="41.708548" lon="-6.111145">
        <ele>759.97</ele>
        <time>2021-03-27T13:02:27Z</time>
      </trkpt>
      <trkpt lat="41.708954" lon="-6.111357">
        <ele>760.65</ele>
        <time>2021-03-27T13:02:31Z</time>
      </trkpt>
      <trkpt lat="41.70909" lon="-6.111472">
        <ele>760.57</ele>
        <time>2021-03-27T13:02:34Z</time>
      </trkpt>
      <trkpt lat="41.709383" lon="-6.111832">
        <ele>759.72</ele>
        <time>2021-03-27T13:02:37Z</time>
      </trkpt>
      <trkpt lat="41.710828" lon="-6.113917">
        <ele>768.1</ele>
        <time>2021-03-27T13:02:41Z</time>
      </trkpt>
      <trkpt lat="41.71108" lon="-6.11434">
        <ele>769.63</ele>
        <time>2021-03-27T13:02:44Z</time>
      </trkpt>
      <trkpt lat="41.711252" lon="-6.114671">
        <ele>770.41</ele>
        <time>2021-03-27T13:02:48Z</time>
      </trkpt>
      <trkpt lat="41.711611" lon="-6.115563">
        <ele>772.61</ele>
        <time>2021-03-27T13:02:51Z</time>
      </trkpt>
      <trkpt lat="41.712127" lon="-6.117019">
        <ele>774.39</ele>
        <time>2021-03-27T13:02:55Z</time>
      </trkpt>
      <trkpt lat="41.712436" lon="-6.11805">
        <ele>774.54</ele>
        <time>2021-03-27T13:02:58Z</time>
      </trkpt>
      <trkpt lat="41.712971" lon="-6.120029">
        <ele>778.5</ele>
        <time>2021-03-27T13:03:02Z</time>
      </trkpt>
      <trkpt lat="41.713088" lon="-6.120338">
        <ele>780.33</ele>
        <time>2021-03-27T13:03:05Z</time>
      </trkpt>
      <trkpt lat="41.713233" lon="-6.120651">
        <ele>781.64</ele>
        <time>2021-03-27T13:03:08Z</time>
      </trkpt>
      <trkpt lat="41.713525" lon="-6.121179">
        <ele>780.92</ele>
        <time>2021-03-27T13:03:12Z</time>
      </trkpt>
      <trkpt lat="41.715458" lon="-6.12452">
        <ele>779.82</ele>
        <time>2021-03-27T13:03:15Z</time>
      </trkpt>
      <trkpt lat="41.716465" lon="-6.126131">
        <ele>783.29</ele>
        <time>2021-03-27T13:03:19Z</time>
      </trkpt>
      <trkpt lat="41.716636" lon="-6.126446">
        <ele>784.8</ele>
        <time>2021-03-27T13:03:22Z</time>
      </trkpt>
      <trkpt lat="41.716888" lon="-6.127037">
        <ele>784.53</ele>
        <time>2021-03-27T13:03:26Z</time>
      </trkpt>
      <trkpt lat="41.717415" lon="-6.128644">
        <ele>784.65</ele>
        <time>2021-03-27T13:03:29Z</time>
      </trkpt>
      <trkpt lat="41.717497" lon="-6.128972">
        <ele>784.32</ele>
        <time>2021-03-27T13:03:32Z</time>
      </trkpt>
      <trkpt lat="41.717578" lon="-6.129586">
        <ele>783.29</ele>
        <time>2021-03-27T13:03:36Z</time>
      </trkpt>
      <trkpt lat="41.717598" lon="-6.13009">
        <ele>783.08</ele>
        <time>2021-03-27T13:03:39Z</time>
      </trkpt>
      <trkpt lat="41.7176" lon="-6.130618">
        <ele>781.92</ele>
        <time>2021-03-27T13:03:43Z</time>
      </trkpt>
      <trkpt lat="41.717584" lon="-6.13091">
        <ele>781.51</ele>
        <time>2021-03-27T13:03:46Z</time>
      </trkpt>
      <trkpt lat="41.717544" lon="-6.131116">
        <ele>781.0</ele>
        <time>2021-03-27T13:03:50Z</time>
      </trkpt>
      <trkpt lat="41.717419" lon="-6.131506">
        <ele>781.29</ele>
        <time>2021-03-27T13:03:53Z</time>
      </trkpt>
      <trkpt lat="41.716868" lon="-6.132612">
        <ele>780.64</ele>
        <time>2021-03-27T13:03:57Z</time>
      </trkpt>
      <trkpt lat="41.716724" lon="-6.132957">
        <ele>777.39</ele>
        <time>2021-03-27T13:04:00Z</time>
      </trkpt>
      <trkpt lat="41.716654" lon="-6.133192">
        <ele>775.34</ele>
        <time>2021-03-27T13:04:03Z</time>
      </trkpt>
      <trkpt lat="41.716593" lon="-6.133627">
        <ele>772.89</ele>
        <time>2021-03-27T13:04:07Z</time>
      </trkpt>
      <trkpt lat="41.716632" lon="-6.134353">
        <ele>769.53</ele>
        <time>2021-03-27T13:04:10Z</time>
      </trkpt>
      <trkpt lat="41.717005" lon="-6.138052">
        <ele>737.02</ele>
        <time>2021-03-27T13:04:14Z</time>
      </trkpt>
      <trkpt lat="41.717092" lon="-6.138419">
        <ele>734.33</ele>
        <time>2021-03-27T13:04:17Z</time>
      </trkpt>
      <trkpt lat="41.717183" lon="-6.138628">
        <ele>732.2</ele>
        <time>2021-03-27T13:04:21Z</time>
      </trkpt>
      <trkpt lat="41.71749" lon="-6.139187">
        <ele>728.0</ele>
        <time>2021-03-27T13:04:24Z</time>
      </trkpt>
      <trkpt lat="41.717568" lon="-6.139357">
        <ele>726.08</ele>
        <time>2021-03-27T13:04:28Z</time>
      </trkpt>
      <trkpt lat="41.717622" lon="-6.139521">
        <ele>724.36</ele>
        <time>2021-03-27T13:04:31Z</time>
      </trkpt>
      <trkpt lat="41.717674" lon="-6.139756">
        <ele>722.35</ele>
        <time>2021-03-27T13:04:34Z</time>
      </trkpt>
      <trkpt lat="41.717687" lon="-6.139951">
        <ele>721.5</ele>
        <time>2021-03-27T13:04:38Z</time>
      </trkpt>
      <trkpt lat="41.717682" lon="-6.140231">
        <ele>719.39</ele>
        <time>2021-03-27T13:04:41Z</time>
      </trkpt>
      <trkpt lat="41.717633" lon="-6.140486">
        <ele>717.5</ele>
        <time>2021-03-27T13:04:45Z</time>
      </trkpt>
      <trkpt lat="41.717552" lon="-6.140726">
        <ele>715.39</ele>
        <time>2021-03-27T13:04:48Z</time>
      </trkpt>
      <trkpt lat="41.717464" lon="-6.1409">
        <ele>713.1</ele>
        <time>2021-03-27T13:04:52Z</time>
      </trkpt>
      <trkpt lat="41.717365" lon="-6.141052">
        <ele>710.59</ele>
        <time>2021-03-27T13:04:55Z</time>
      </trkpt>
      <trkpt lat="41.717225" lon="-6.141202">
        <ele>707.39</ele>
        <time>2021-03-27T13:04:59Z</time>
      </trkpt>
      <trkpt lat="41.715762" lon="-6.142448">
        <ele>699.58</ele>
        <time>2021-03-27T13:05:02Z</time>
      </trkpt>
      <trkpt lat="41.715554" lon="-6.142601">
        <ele>701.66</ele>
        <time>2021-03-27T13:05:05Z</time>
      </trkpt>
      <trkpt lat="41.715311" lon="-6.142726">
        <ele>705.27</ele>
        <time>2021-03-27T13:05:09Z</time>
      </trkpt>
      <trkpt lat="41.714992" lon="-6.142764">
        <ele>706.98</ele>
        <time>2021-03-27T13:05:12Z</time>
      </trkpt>
      <trkpt lat="41.714793" lon="-6.142727">
        <ele>707.56</ele>
        <time>2021-03-27T13:05:16Z</time>
      </trkpt>
      <trkpt lat="41.714573" lon="-6.142633">
        <ele>708.02</ele>
        <time>2021-03-27T13:05:19Z</time>
      </trkpt>
      <trkpt lat="41.714404" lon="-6.142523">
        <ele>708.08</ele>
        <time>2021-03-27T13:05:23Z</time>
      </trkpt>
      <trkpt lat="41.714073" lon="-6.142903">
        <ele>709.45</ele>
        <time>2021-03-27T13:05:28Z</time>
      </trkpt>
      <trkpt lat="41.713665" lon="-6.143453">
        <ele>713.1</ele>
        <time>2021-03-27T13:05:33Z</time>
      </trkpt>
      <trkpt lat="41.713292" lon="-6.143898">
        <ele>716.91</ele>
        <time>2021-03-27T13:05:38Z</time>
      </trkpt>
      <trkpt lat="41.713362" lon="-6.14405">
        <ele>718.26</ele>
        <time>2021-03-27T13:05:41Z</time>
      </trkpt>
      <trkpt lat="41.713457" lon="-6.1445">
        <ele>720.55</ele>
        <time>2021-03-27T13:05:44Z</time>
      </trkpt>
      <trkpt lat="41.713594" lon="-6.144645">
        <ele>720.98</ele>
        <time>2021-03-27T13:05:48Z</time>
      </trkpt>
      <trkpt lat="41.713647" lon="-6.144752">
        <ele>721.49</ele>
        <time>2021-03-27T13:05:51Z</time>
      </trkpt>
      <trkpt lat="41.713665" lon="-6.145058">
        <ele>722.34</ele>
        <time>2021-03-27T13:05:54Z</time>
      </trkpt>
      <trkpt lat="41.713791" lon="-6.145772">
        <ele>721.65</ele>
        <time>2021-03-27T13:05:57Z</time>
      </trkpt>
      <trkpt lat="41.713829" lon="-6.146327">
        <ele>721.78</ele>
        <time>2021-03-27T13:06:00Z</time>
      </trkpt>
      <trkpt lat="41.713873" lon="-6.146681">
        <ele>722.06</ele>
        <time>2021-03-27T13:06:03Z</time>
      </trkpt>
      <trkpt lat="41.713924" lon="-6.147305">
        <ele>722.04</ele>
        <time>2021-03-27T13:06:06Z</time>
      </trkpt>
      <trkpt lat="41.713941" lon="-6.147792">
        <ele>723.28</ele>
        <time>2021-03-27T13:06:09Z</time>
      </trkpt>
      <trkpt lat="41.713928" lon="-6.14806">
        <ele>725.02</ele>
        <time>2021-03-27T13:06:12Z</time>
      </trkpt>
      <trkpt lat="41.713854" lon="-6.148613">
        <ele>726.25</ele>
        <time>2021-03-27T13:06:16Z</time>
      </trkpt>
      <trkpt lat="41.713809" lon="-6.149208">
        <ele>729.15</ele>
        <time>2021-03-27T13:06:19Z</time>
      </trkpt>
      <trkpt lat="41.713831" lon="-6.149418">
        <ele>729.91</ele>
        <time>2021-03-27T13:06:22Z</time>
      </trkpt>
      <trkpt lat="41.713893" lon="-6.149681">
        <ele>730.01</ele>
        <time>2021-03-27T13:06:25Z</time>
      </trkpt>
      <trkpt lat="41.713973" lon="-6.149891">
        <ele>730.91</ele>
        <time>2021-03-27T13:06:28Z</time>
      </trkpt>
      <trkpt lat="41.714083" lon="-6.150079">
        <ele>731.99</ele>
        <time>2021-03-27T13:06:31Z</time>
      </trkpt>
      <trkpt lat="41.714227" lon="-6.150267">
        <ele>733.18</ele>
        <time>2021-03-27T13:06:34Z</time>
      </trkpt>
      <trkpt lat="41.715464" lon="-6.151256">
        <ele>745.84</ele>
        <time>2021-03-27T13:06:37Z</time>
      </trkpt>
      <trkpt lat="41.716258" lon="-6.151966">
        <ele>751.1</ele>
        <time>2021-03-27T13:06:40Z</time>
      </trkpt>
      <trkpt lat="41.716701" lon="-6.152329">
        <ele>755.63</ele>
        <time>2021-03-27T13:06:44Z</time>
      </trkpt>
      <trkpt lat="41.717691" lon="-6.153057">
        <ele>765.01</ele>
        <time>2021-03-27T13:06:47Z</time>
      </trkpt>
      <trkpt lat="41.717993" lon="-6.15336">
        <ele>768.87</ele>
        <time>2021-03-27T13:06:50Z</time>
      </trkpt>
      <trkpt lat="41.718122" lon="-6.153548">
        <ele>769.35</ele>
        <time>2021-03-27T13:06:53Z</time>
      </trkpt>
      <trkpt lat="41.718304" lon="-6.153904">
        <ele>769.27</ele>
        <time>2021-03-27T13:06:56Z</time>
      </trkpt>
      <trkpt lat="41.718381" lon="-6.154116">
        <ele>769.44</ele>
        <time>2021-03-27T13:06:59Z</time>
      </trkpt>
      <trkpt lat="41.718448" lon="-6.154373">
        <ele>770.23</ele>
        <time>2021-03-27T13:07:02Z</time>
      </trkpt>
      <trkpt lat="41.718486" lon="-6.154623">
        <ele>771.09</ele>
        <time>2021-03-27T13:07:05Z</time>
      </trkpt>
      <trkpt lat="41.7185" lon="-6.154899">
        <ele>771.4</ele>
        <time>2021-03-27T13:07:08Z</time>
      </trkpt>
      <trkpt lat="41.718471" lon="-6.155355">
        <ele>770.09</ele>
        <time>2021-03-27T13:07:12Z</time>
      </trkpt>
      <trkpt lat="41.718292" lon="-6.156379">
        <ele>764.66</ele>
        <time>2021-03-27T13:07:15Z</time>
      </trkpt>
      <trkpt lat="41.718272" lon="-6.15661">
        <ele>764.08</ele>
        <time>2021-03-27T13:07:18Z</time>
      </trkpt>
      <trkpt lat="41.718282" lon="-6.15699">
        <ele>762.52</ele>
        <time>2021-03-27T13:07:21Z</time>
      </trkpt>
      <trkpt lat="41.718319" lon="-6.157211">
        <ele>762.1</ele>
        <time>2021-03-27T13:07:24Z</time>
      </trkpt>
      <trkpt lat="41.718385" lon="-6.157454">
        <ele>762.65</ele>
        <time>2021-03-27T13:07:27Z</time>
      </trkpt>
      <trkpt lat="41.718476" lon="-6.157689">
        <ele>763.17</ele>
        <time>2021-03-27T13:07:30Z</time>
      </trkpt>
      <trkpt lat="41.718648" lon="-6.158002">
        <ele>763.78</ele>
        <time>2021-03-27T13:07:33Z</time>
      </trkpt>
      <trkpt lat="41.719343" lon="-6.159145">
        <ele>762.08</ele>
        <time>2021-03-27T13:07:36Z</time>
      </trkpt>
      <trkpt lat="41.719673" lon="-6.159764">
        <ele>760.35</ele>
        <time>2021-03-27T13:07:40Z</time>
      </trkpt>
      <trkpt lat="41.720406" lon="-6.161255">
        <ele>752.48</ele>
        <time>2021-03-27T13:07:43Z</time>
      </trkpt>
      <trkpt lat="41.721334" lon="-6.16304">
        <ele>753.34</ele>
        <time>2021-03-27T13:07:46Z</time>
      </trkpt>
      <trkpt lat="41.72141" lon="-6.163213">
        <ele>752.97</ele>
        <time>2021-03-27T13:07:49Z</time>
      </trkpt>
      <trkpt lat="41.721512" lon="-6.163622">
        <ele>753.61</ele>
        <time>2021-03-27T13:07:52Z</time>
      </trkpt>
      <trkpt lat="41.721529" lon="-6.163814">
        <ele>754.6</ele>
        <time>2021-03-27T13:07:55Z</time>
      </trkpt>
      <trkpt lat="41.721537" lon="-6.16456">
        <ele>756.48</ele>
        <time>2021-03-27T13:07:58Z</time>
      </trkpt>
      <trkpt lat="41.721555" lon="-6.164799">
        <ele>757.31</ele>
        <time>2021-03-27T13:08:01Z</time>
      </trkpt>
      <trkpt lat="41.721601" lon="-6.165046">
        <ele>757.93</ele>
        <time>2021-03-27T13:08:04Z</time>
      </trkpt>
      <trkpt lat="41.721741" lon="-6.165445">
        <ele>759.16</ele>
        <time>2021-03-27T13:08:08Z</time>
      </trkpt>
      <trkpt lat="41.721941" lon="-6.165792">
        <ele>760.84</ele>
        <time>2021-03-27T13:08:11Z</time>
      </trkpt>
      <trkpt lat="41.723035" lon="-6.167373">
        <ele>769.44</ele>
        <time>2021-03-27T13:08:14Z</time>
      </trkpt>
      <trkpt lat="41.723418" lon="-6.167976">
        <ele>770.28</ele>
        <time>2021-03-27T13:08:17Z</time>
      </trkpt>
      <trkpt lat="41.723758" lon="-6.168634">
        <ele>767.86</ele>
        <time>2021-03-27T13:08:20Z</time>
      </trkpt>
      <trkpt lat="41.724392" lon="-6.170149">
        <ele>759.65</ele>
        <time>2021-03-27T13:08:23Z</time>
      </trkpt>
      <trkpt lat="41.72459" lon="-6.170548">
        <ele>758.5</ele>
        <time>2021-03-27T13:08:26Z</time>
      </trkpt>
      <trkpt lat="41.724814" lon="-6.170903">
        <ele>755.5</ele>
        <time>2021-03-27T13:08:29Z</time>
      </trkpt>
      <trkpt lat="41.72502" lon="-6.17119">
        <ele>752.75</ele>
        <time>2021-03-27T13:08:32Z</time>
      </trkpt>
      <trkpt lat="41.725339" lon="-6.171541">
        <ele>750.98</ele>
        <time>2021-03-27T13:08:36Z</time>
      </trkpt>
      <trkpt lat="41.725654" lon="-6.171806">
        <ele>749.82</ele>
        <time>2021-03-27T13:08:39Z</time>
      </trkpt>
      <trkpt lat="41.72853" lon="-6.173963">
        <ele>728.45</ele>
        <time>2021-03-27T13:08:42Z</time>
      </trkpt>
      <trkpt lat="41.729049" lon="-6.17443">
        <ele>728.62</ele>
        <time>2021-03-27T13:08:45Z</time>
      </trkpt>
      <trkpt lat="41.729503" lon="-6.174891">
        <ele>723.01</ele>
        <time>2021-03-27T13:08:48Z</time>
      </trkpt>
      <trkpt lat="41.729644" lon="-6.175002">
        <ele>721.15</ele>
        <time>2021-03-27T13:08:51Z</time>
      </trkpt>
      <trkpt lat="41.729772" lon="-6.175071">
        <ele>719.88</ele>
        <time>2021-03-27T13:08:54Z</time>
      </trkpt>
      <trkpt lat="41.729944" lon="-6.175131">
        <ele>717.79</ele>
        <time>2021-03-27T13:08:57Z</time>
      </trkpt>
      <trkpt lat="41.732201" lon="-6.17537">
        <ele>711.62</ele>
        <time>2021-03-27T13:09:00Z</time>
      </trkpt>
      <trkpt lat="41.732406" lon="-6.175371">
        <ele>711.45</ele>
        <time>2021-03-27T13:09:04Z</time>
      </trkpt>
      <trkpt lat="41.733913" lon="-6.174793">
        <ele>715.83</ele>
        <time>2021-03-27T13:09:07Z</time>
      </trkpt>
      <trkpt lat="41.734026" lon="-6.174735">
        <ele>716.45</ele>
        <time>2021-03-27T13:09:10Z</time>
      </trkpt>
      <trkpt lat="41.734301" lon="-6.174528">
        <ele>718.18</ele>
        <time>2021-03-27T13:09:13Z</time>
      </trkpt>
      <trkpt lat="41.734602" lon="-6.174191">
        <ele>719.52</ele>
        <time>2021-03-27T13:09:16Z</time>
      </trkpt>
      <trkpt lat="41.734705" lon="-6.174275">
        <ele>719.57</ele>
        <time>2021-03-27T13:09:18Z</time>
      </trkpt>
      <trkpt lat="41.734867" lon="-6.174341">
        <ele>719.04</ele>
        <time>2021-03-27T13:09:19Z</time>
      </trkpt>
      <trkpt lat="41.735216" lon="-6.17401">
        <ele>719.78</ele>
        <time>2021-03-27T13:09:23Z</time>
      </trkpt>
      <trkpt lat="41.735379" lon="-6.173978">
        <ele>719.43</ele>
        <time>2021-03-27T13:09:27Z</time>
      </trkpt>
      <trkpt lat="41.7355" lon="-6.173929">
        <ele>719.17</ele>
        <time>2021-03-27T13:09:31Z</time>
      </trkpt>
      <trkpt lat="41.73657" lon="-6.173214">
        <ele>719.43</ele>
        <time>2021-03-27T13:09:35Z</time>
      </trkpt>
      <trkpt lat="41.736738" lon="-6.17312">
        <ele>719.57</ele>
        <time>2021-03-27T13:09:38Z</time>
      </trkpt>
      <trkpt lat="41.73761" lon="-6.172855">
        <ele>718.72</ele>
        <time>2021-03-27T13:09:42Z</time>
      </trkpt>
      <trkpt lat="41.73809" lon="-6.17267">
        <ele>719.34</ele>
        <time>2021-03-27T13:09:46Z</time>
      </trkpt>
      <trkpt lat="41.738467" lon="-6.172484">
        <ele>718.57</ele>
        <time>2021-03-27T13:09:50Z</time>
      </trkpt>
      <trkpt lat="41.739525" lon="-6.171854">
        <ele>716.51</ele>
        <time>2021-03-27T13:09:54Z</time>
      </trkpt>
      <trkpt lat="41.740351" lon="-6.171323">
        <ele>716.17</ele>
        <time>2021-03-27T13:09:58Z</time>
      </trkpt>
      <trkpt lat="41.7407" lon="-6.171066">
        <ele>716.49</ele>
        <time>2021-03-27T13:10:02Z</time>
      </trkpt>
      <trkpt lat="41.741025" lon="-6.170803">
        <ele>717.76</ele>
        <time>2021-03-27T13:10:06Z</time>
      </trkpt>
      <trkpt lat="41.741232" lon="-6.170605">
        <ele>717.03</ele>
        <time>2021-03-27T13:10:09Z</time>
      </trkpt>
      <trkpt lat="41.741443" lon="-6.170368">
        <ele>717.35</ele>
        <time>2021-03-27T13:10:13Z</time>
      </trkpt>
      <trkpt lat="41.741649" lon="-6.1701">
        <ele>719.32</ele>
        <time>2021-03-27T13:10:17Z</time>
      </trkpt>
      <trkpt lat="41.741844" lon="-6.169804">
        <ele>720.18</ele>
        <time>2021-03-27T13:10:21Z</time>
      </trkpt>
      <trkpt lat="41.742823" lon="-6.168143">
        <ele>718.47</ele>
        <time>2021-03-27T13:10:25Z</time>
      </trkpt>
      <trkpt lat="41.74295" lon="-6.167953">
        <ele>719.26</ele>
        <time>2021-03-27T13:10:29Z</time>
      </trkpt>
      <trkpt lat="41.743178" lon="-6.16772">
        <ele>721.48</ele>
        <time>2021-03-27T13:10:33Z</time>
      </trkpt>
      <trkpt lat="41.743331" lon="-6.167635">
        <ele>723.56</ele>
        <time>2021-03-27T13:10:37Z</time>
      </trkpt>
      <trkpt lat="41.743602" lon="-6.167552">
        <ele>725.24</ele>
        <time>2021-03-27T13:10:41Z</time>
      </trkpt>
      <trkpt lat="41.74376" lon="-6.167547">
        <ele>725.85</ele>
        <time>2021-03-27T13:10:44Z</time>
      </trkpt>
      <trkpt lat="41.743915" lon="-6.167575">
        <ele>725.85</ele>
        <time>2021-03-27T13:10:48Z</time>
      </trkpt>
      <trkpt lat="41.744259" lon="-6.167727">
        <ele>723.27</ele>
        <time>2021-03-27T13:10:52Z</time>
      </trkpt>
      <trkpt lat="41.745609" lon="-6.168493">
        <ele>718.34</ele>
        <time>2021-03-27T13:10:56Z</time>
      </trkpt>
      <trkpt lat="41.74593" lon="-6.168749">
        <ele>718.0</ele>
        <time>2021-03-27T13:11:00Z</time>
      </trkpt>
      <trkpt lat="41.746152" lon="-6.169054">
        <ele>718.65</ele>
        <time>2021-03-27T13:11:04Z</time>
      </trkpt>
      <trkpt lat="41.746662" lon="-6.169929">
        <ele>719.0</ele>
        <time>2021-03-27T13:11:08Z</time>
      </trkpt>
      <trkpt lat="41.746828" lon="-6.170172">
        <ele>719.0</ele>
        <time>2021-03-27T13:11:12Z</time>
      </trkpt>
      <trkpt lat="41.747543" lon="-6.171046">
        <ele>721.23</ele>
        <time>2021-03-27T13:11:16Z</time>
      </trkpt>
      <trkpt lat="41.747673" lon="-6.171246">
        <ele>721.0</ele>
        <time>2021-03-27T13:11:19Z</time>
      </trkpt>
      <trkpt lat="41.748153" lon="-6.172299">
        <ele>720.25</ele>
        <time>2021-03-27T13:11:23Z</time>
      </trkpt>
      <trkpt lat="41.748417" lon="-6.172802">
        <ele>720.6</ele>
        <time>2021-03-27T13:11:27Z</time>
      </trkpt>
      <trkpt lat="41.74862" lon="-6.173078">
        <ele>721.99</ele>
        <time>2021-03-27T13:11:31Z</time>
      </trkpt>
      <trkpt lat="41.748839" lon="-6.173295">
        <ele>722.77</ele>
        <time>2021-03-27T13:11:35Z</time>
      </trkpt>
      <trkpt lat="41.749074" lon="-6.173475">
        <ele>722.49</ele>
        <time>2021-03-27T13:11:39Z</time>
      </trkpt>
      <trkpt lat="41.749268" lon="-6.173575">
        <ele>722.17</ele>
        <time>2021-03-27T13:11:43Z</time>
      </trkpt>
      <trkpt lat="41.749649" lon="-6.173713">
        <ele>722.73</ele>
        <time>2021-03-27T13:11:47Z</time>
      </trkpt>
      <trkpt lat="41.750343" lon="-6.173933">
        <ele>725.0</ele>
        <time>2021-03-27T13:11:50Z</time>
      </trkpt>
      <trkpt lat="41.750528" lon="-6.174043">
        <ele>725.0</ele>
        <time>2021-03-27T13:11:54Z</time>
      </trkpt>
      <trkpt lat="41.751068" lon="-6.174506">
        <ele>724.78</ele>
        <time>2021-03-27T13:11:58Z</time>
      </trkpt>
      <trkpt lat="41.75125" lon="-6.174644">
        <ele>724.42</ele>
        <time>2021-03-27T13:12:02Z</time>
      </trkpt>
      <trkpt lat="41.751454" lon="-6.174757">
        <ele>724.32</ele>
        <time>2021-03-27T13:12:06Z</time>
      </trkpt>
      <trkpt lat="41.751663" lon="-6.174824">
        <ele>725.24</ele>
        <time>2021-03-27T13:12:10Z</time>
      </trkpt>
      <trkpt lat="41.754024" lon="-6.175277">
        <ele>724.0</ele>
        <time>2021-03-27T13:12:14Z</time>
      </trkpt>
      <trkpt lat="41.754249" lon="-6.175294">
        <ele>723.96</ele>
        <time>2021-03-27T13:12:18Z</time>
      </trkpt>
      <trkpt lat="41.755233" lon="-6.175083">
        <ele>729.19</ele>
        <time>2021-03-27T13:12:22Z</time>
      </trkpt>
      <trkpt lat="41.755516" lon="-6.175079">
        <ele>730.29</ele>
        <time>2021-03-27T13:12:25Z</time>
      </trkpt>
      <trkpt lat="41.755764" lon="-6.175146">
        <ele>731.84</ele>
        <time>2021-03-27T13:12:29Z</time>
      </trkpt>
      <trkpt lat="41.755935" lon="-6.175232">
        <ele>733.26</ele>
        <time>2021-03-27T13:12:33Z</time>
      </trkpt>
      <trkpt lat="41.756225" lon="-6.175415">
        <ele>735.24</ele>
        <time>2021-03-27T13:12:37Z</time>
      </trkpt>
      <trkpt lat="41.756801" lon="-6.17584">
        <ele>736.91</ele>
        <time>2021-03-27T13:12:41Z</time>
      </trkpt>
      <trkpt lat="41.757161" lon="-6.176203">
        <ele>736.75</ele>
        <time>2021-03-27T13:12:45Z</time>
      </trkpt>
      <trkpt lat="41.757383" lon="-6.176521">
        <ele>737.49</ele>
        <time>2021-03-27T13:12:49Z</time>
      </trkpt>
      <trkpt lat="41.757606" lon="-6.176978">
        <ele>735.8</ele>
        <time>2021-03-27T13:12:53Z</time>
      </trkpt>
      <trkpt lat="41.757726" lon="-6.177305">
        <ele>734.03</ele>
        <time>2021-03-27T13:12:56Z</time>
      </trkpt>
      <trkpt lat="41.757792" lon="-6.177589">
        <ele>731.45</ele>
        <time>2021-03-27T13:13:00Z</time>
      </trkpt>
      <trkpt lat="41.757879" lon="-6.178165">
        <ele>728.61</ele>
        <time>2021-03-27T13:13:04Z</time>
      </trkpt>
      <trkpt lat="41.758152" lon="-6.180511">
        <ele>743.01</ele>
        <time>2021-03-27T13:13:08Z</time>
      </trkpt>
      <trkpt lat="41.758247" lon="-6.180804">
        <ele>747.1</ele>
        <time>2021-03-27T13:13:12Z</time>
      </trkpt>
      <trkpt lat="41.758382" lon="-6.181093">
        <ele>749.82</ele>
        <time>2021-03-27T13:13:16Z</time>
      </trkpt>
      <trkpt lat="41.758547" lon="-6.18134">
        <ele>752.67</ele>
        <time>2021-03-27T13:13:20Z</time>
      </trkpt>
      <trkpt lat="41.758739" lon="-6.181537">
        <ele>754.95</ele>
        <time>2021-03-27T13:13:24Z</time>
      </trkpt>
      <trkpt lat="41.758921" lon="-6.181669">
        <ele>754.71</ele>
        <time>2021-03-27T13:13:28Z</time>
      </trkpt>
      <trkpt lat="41.759319" lon="-6.18182">
        <ele>753.9</ele>
        <time>2021-03-27T13:13:31Z</time>
      </trkpt>
      <trkpt lat="41.760035" lon="-6.181976">
        <ele>759.98</ele>
        <time>2021-03-27T13:13:35Z</time>
      </trkpt>
      <trkpt lat="41.760309" lon="-6.18208">
        <ele>758.85</ele>
        <time>2021-03-27T13:13:39Z</time>
      </trkpt>
      <trkpt lat="41.760522" lon="-6.182223">
        <ele>760.13</ele>
        <time>2021-03-27T13:13:43Z</time>
      </trkpt>
      <trkpt lat="41.760748" lon="-6.182408">
        <ele>760.88</ele>
        <time>2021-03-27T13:13:47Z</time>
      </trkpt>
      <trkpt lat="41.76092" lon="-6.182615">
        <ele>763.52</ele>
        <time>2021-03-27T13:13:51Z</time>
      </trkpt>
      <trkpt lat="41.761142" lon="-6.182959">
        <ele>766.04</ele>
        <time>2021-03-27T13:13:55Z</time>
      </trkpt>
      <trkpt lat="41.761514" lon="-6.183727">
        <ele>769.05</ele>
        <time>2021-03-27T13:13:59Z</time>
      </trkpt>
      <trkpt lat="41.761701" lon="-6.184045">
        <ele>772.51</ele>
        <time>2021-03-27T13:14:03Z</time>
      </trkpt>
      <trkpt lat="41.761855" lon="-6.184242">
        <ele>773.69</ele>
        <time>2021-03-27T13:14:06Z</time>
      </trkpt>
      <trkpt lat="41.762009" lon="-6.184394">
        <ele>774.68</ele>
        <time>2021-03-27T13:14:10Z</time>
      </trkpt>
      <trkpt lat="41.762185" lon="-6.184512">
        <ele>774.93</ele>
        <time>2021-03-27T13:14:14Z</time>
      </trkpt>
      <trkpt lat="41.762505" lon="-6.184636">
        <ele>778.08</ele>
        <time>2021-03-27T13:14:18Z</time>
      </trkpt>
      <trkpt lat="41.762674" lon="-6.184655">
        <ele>780.51</ele>
        <time>2021-03-27T13:14:22Z</time>
      </trkpt>
      <trkpt lat="41.76412" lon="-6.184548">
        <ele>781.31</ele>
        <time>2021-03-27T13:14:26Z</time>
      </trkpt>
      <trkpt lat="41.764415" lon="-6.184542">
        <ele>782.2</ele>
        <time>2021-03-27T13:14:30Z</time>
      </trkpt>
      <trkpt lat="41.764634" lon="-6.184565">
        <ele>782.81</ele>
        <time>2021-03-27T13:14:34Z</time>
      </trkpt>
      <trkpt lat="41.764985" lon="-6.184638">
        <ele>784.78</ele>
        <time>2021-03-27T13:14:37Z</time>
      </trkpt>
      <trkpt lat="41.765474" lon="-6.184809">
        <ele>788.91</ele>
        <time>2021-03-27T13:14:41Z</time>
      </trkpt>
      <trkpt lat="41.765854" lon="-6.185001">
        <ele>790.07</ele>
        <time>2021-03-27T13:14:45Z</time>
      </trkpt>
      <trkpt lat="41.766144" lon="-6.185202">
        <ele>791.09</ele>
        <time>2021-03-27T13:14:49Z</time>
      </trkpt>
      <trkpt lat="41.766469" lon="-6.185461">
        <ele>792.0</ele>
        <time>2021-03-27T13:14:53Z</time>
      </trkpt>
      <trkpt lat="41.766872" lon="-6.185846">
        <ele>792.74</ele>
        <time>2021-03-27T13:14:57Z</time>
      </trkpt>
      <trkpt lat="41.771416" lon="-6.190559">
        <ele>792.09</ele>
        <time>2021-03-27T13:15:01Z</time>
      </trkpt>
      <trkpt lat="41.773693" lon="-6.192962">
        <ele>795.19</ele>
        <time>2021-03-27T13:15:05Z</time>
      </trkpt>
      <trkpt lat="41.774858" lon="-6.19411">
        <ele>794.1</ele>
        <time>2021-03-27T13:15:09Z</time>
      </trkpt>
      <trkpt lat="41.77698" lon="-6.196151">
        <ele>798.02</ele>
        <time>2021-03-27T13:15:12Z</time>
      </trkpt>
      <trkpt lat="41.777834" lon="-6.197004">
        <ele>796.83</ele>
        <time>2021-03-27T13:15:16Z</time>
      </trkpt>
      <trkpt lat="41.782215" lon="-6.201508">
        <ele>799.01</ele>
        <time>2021-03-27T13:15:20Z</time>
      </trkpt>
      <trkpt lat="41.782619" lon="-6.202002">
        <ele>800.86</ele>
        <time>2021-03-27T13:15:24Z</time>
      </trkpt>
      <trkpt lat="41.783743" lon="-6.203592">
        <ele>799.46</ele>
        <time>2021-03-27T13:15:28Z</time>
      </trkpt>
      <trkpt lat="41.784099" lon="-6.204225">
        <ele>800.16</ele>
        <time>2021-03-27T13:15:32Z</time>
      </trkpt>
      <trkpt lat="41.784298" lon="-6.204644">
        <ele>801.0</ele>
        <time>2021-03-27T13:15:36Z</time>
      </trkpt>
      <trkpt lat="41.784598" lon="-6.205475">
        <ele>801.13</ele>
        <time>2021-03-27T13:15:40Z</time>
      </trkpt>
      <trkpt lat="41.785061" lon="-6.207099">
        <ele>800.78</ele>
        <time>2021-03-27T13:15:44Z</time>
      </trkpt>
      <trkpt lat="41.785362" lon="-6.207909">
        <ele>801.33</ele>
        <time>2021-03-27T13:15:47Z</time>
      </trkpt>
      <trkpt lat="41.786225" lon="-6.209876">
        <ele>798.12</ele>
        <time>2021-03-27T13:15:51Z</time>
      </trkpt>
      <trkpt lat="41.786431" lon="-6.21039">
        <ele>798.36</ele>
        <time>2021-03-27T13:15:55Z</time>
      </trkpt>
      <trkpt lat="41.786584" lon="-6.21085">
        <ele>800.83</ele>
        <time>2021-03-27T13:15:59Z</time>
      </trkpt>
      <trkpt lat="41.786797" lon="-6.211622">
        <ele>802.84</ele>
        <time>2021-03-27T13:16:03Z</time>
      </trkpt>
      <trkpt lat="41.787537" lon="-6.214631">
        <ele>802.67</ele>
        <time>2021-03-27T13:16:07Z</time>
      </trkpt>
      <trkpt lat="41.788172" lon="-6.217395">
        <ele>802.9</ele>
        <time>2021-03-27T13:16:11Z</time>
      </trkpt>
      <trkpt lat="41.788338" lon="-6.218274">
        <ele>801.75</ele>
        <time>2021-03-27T13:16:15Z</time>
      </trkpt>
      <trkpt lat="41.788463" lon="-6.219245">
        <ele>802.15</ele>
        <time>2021-03-27T13:16:18Z</time>
      </trkpt>
      <trkpt lat="41.788515" lon="-6.220004">
        <ele>801.0</ele>
        <time>2021-03-27T13:16:22Z</time>
      </trkpt>
      <trkpt lat="41.788503" lon="-6.2207">
        <ele>801.78</ele>
        <time>2021-03-27T13:16:26Z</time>
      </trkpt>
      <trkpt lat="41.788425" lon="-6.221629">
        <ele>799.1</ele>
        <time>2021-03-27T13:16:30Z</time>
      </trkpt>
      <trkpt lat="41.78818" lon="-6.223288">
        <ele>793.38</ele>
        <time>2021-03-27T13:16:34Z</time>
      </trkpt>
      <trkpt lat="41.788158" lon="-6.223529">
        <ele>792.1</ele>
        <time>2021-03-27T13:16:38Z</time>
      </trkpt>
      <trkpt lat="41.78815" lon="-6.223773">
        <ele>791.0</ele>
        <time>2021-03-27T13:16:42Z</time>
      </trkpt>
      <trkpt lat="41.788169" lon="-6.224223">
        <ele>789.33</ele>
        <time>2021-03-27T13:16:46Z</time>
      </trkpt>
      <trkpt lat="41.788195" lon="-6.224529">
        <ele>788.03</ele>
        <time>2021-03-27T13:16:50Z</time>
      </trkpt>
      <trkpt lat="41.788241" lon="-6.224857">
        <ele>784.67</ele>
        <time>2021-03-27T13:16:53Z</time>
      </trkpt>
      <trkpt lat="41.788314" lon="-6.225207">
        <ele>782.24</ele>
        <time>2021-03-27T13:16:57Z</time>
      </trkpt>
      <trkpt lat="41.788431" lon="-6.225657">
        <ele>780.64</ele>
        <time>2021-03-27T13:17:01Z</time>
      </trkpt>
      <trkpt lat="41.788759" lon="-6.226729">
        <ele>773.0</ele>
        <time>2021-03-27T13:17:05Z</time>
      </trkpt>
      <trkpt lat="41.788923" lon="-6.227194">
        <ele>768.19</ele>
        <time>2021-03-27T13:17:09Z</time>
      </trkpt>
      <trkpt lat="41.789087" lon="-6.227454">
        <ele>768.0</ele>
        <time>2021-03-27T13:17:13Z</time>
      </trkpt>
      <trkpt lat="41.789324" lon="-6.228159">
        <ele>769.51</ele>
        <time>2021-03-27T13:17:17Z</time>
      </trkpt>
      <trkpt lat="41.789396" lon="-6.228325">
        <ele>770.63</ele>
        <time>2021-03-27T13:17:21Z</time>
      </trkpt>
      <trkpt lat="41.789485" lon="-6.228479">
        <ele>771.82</ele>
        <time>2021-03-27T13:17:24Z</time>
      </trkpt>
      <trkpt lat="41.789697" lon="-6.228708">
        <ele>774.14</ele>
        <time>2021-03-27T13:17:28Z</time>
      </trkpt>
      <trkpt lat="41.791014" lon="-6.229796">
        <ele>788.12</ele>
        <time>2021-03-27T13:17:32Z</time>
      </trkpt>
      <trkpt lat="41.791239" lon="-6.229929">
        <ele>791.24</ele>
        <time>2021-03-27T13:17:36Z</time>
      </trkpt>
      <trkpt lat="41.791341" lon="-6.229962">
        <ele>792.46</ele>
        <time>2021-03-27T13:17:40Z</time>
      </trkpt>
      <trkpt lat="41.791557" lon="-6.229977">
        <ele>795.37</ele>
        <time>2021-03-27T13:17:44Z</time>
      </trkpt>
      <trkpt lat="41.795319" lon="-6.229944">
        <ele>807.18</ele>
        <time>2021-03-27T13:17:48Z</time>
      </trkpt>
      <trkpt lat="41.796049" lon="-6.23004">
        <ele>808.22</ele>
        <time>2021-03-27T13:17:52Z</time>
      </trkpt>
      <trkpt lat="41.796418" lon="-6.230158">
        <ele>808.61</ele>
        <time>2021-03-27T13:17:56Z</time>
      </trkpt>
      <trkpt lat="41.796503" lon="-6.2305">
        <ele>809.8</ele>
        <time>2021-03-27T13:18:01Z</time>
      </trkpt>
      <trkpt lat="41.796866" lon="-6.230939">
        <ele>810.28</ele>
        <time>2021-03-27T13:18:05Z</time>
      </trkpt>
      <trkpt lat="41.801449" lon="-6.237107">
        <ele>811.43</ele>
        <time>2021-03-27T13:18:10Z</time>
      </trkpt>
      <trkpt lat="41.801663" lon="-6.237434">
        <ele>812.22</ele>
        <time>2021-03-27T13:18:15Z</time>
      </trkpt>
      <trkpt lat="41.80179" lon="-6.237758">
        <ele>810.04</ele>
        <time>2021-03-27T13:18:20Z</time>
      </trkpt>
      <trkpt lat="41.801832" lon="-6.237951">
        <ele>808.32</ele>
        <time>2021-03-27T13:18:25Z</time>
      </trkpt>
      <trkpt lat="41.801865" lon="-6.238214">
        <ele>806.12</ele>
        <time>2021-03-27T13:18:29Z</time>
      </trkpt>
      <trkpt lat="41.802034" lon="-6.240722">
        <ele>792.3</ele>
        <time>2021-03-27T13:18:34Z</time>
      </trkpt>
      <trkpt lat="41.802097" lon="-6.241038">
        <ele>790.96</ele>
        <time>2021-03-27T13:18:39Z</time>
      </trkpt>
      <trkpt lat="41.802144" lon="-6.241195">
        <ele>790.11</ele>
        <time>2021-03-27T13:18:44Z</time>
      </trkpt>
      <trkpt lat="41.80289" lon="-6.243196">
        <ele>775.71</ele>
        <time>2021-03-27T13:18:49Z</time>
      </trkpt>
      <trkpt lat="41.803145" lon="-6.244154">
        <ele>773.72</ele>
        <time>2021-03-27T13:18:54Z</time>
      </trkpt>
      <trkpt lat="41.803312" lon="-6.244604">
        <ele>773.28</ele>
        <time>2021-03-27T13:18:58Z</time>
      </trkpt>
      <trkpt lat="41.80351" lon="-6.24497">
        <ele>772.81</ele>
        <time>2021-03-27T13:19:03Z</time>
      </trkpt>
      <trkpt lat="41.80398" lon="-6.245644">
        <ele>771.71</ele>
        <time>2021-03-27T13:19:08Z</time>
      </trkpt>
      <trkpt lat="41.804326" lon="-6.2459">
        <ele>767.51</ele>
        <time>2021-03-27T13:19:13Z</time>
      </trkpt>
      <trkpt lat="41.804365" lon="-6.245959">
        <ele>766.99</ele>
        <time>2021-03-27T13:19:18Z</time>
      </trkpt>
      <trkpt lat="41.804377" lon="-6.246028">
        <ele>766.61</ele>
        <time>2021-03-27T13:19:23Z</time>
      </trkpt>
      <trkpt lat="41.804353" lon="-6.246172">
        <ele>766.11</ele>
        <time>2021-03-27T13:19:27Z</time>
      </trkpt>
      <trkpt lat="41.805726" lon="-6.248089">
        <ele>764.96</ele>
        <time>2021-03-27T13:19:31Z</time>
      </trkpt>
      <trkpt lat="41.806005" lon="-6.248437">
        <ele>769.23</ele>
        <time>2021-03-27T13:19:35Z</time>
      </trkpt>
      <trkpt lat="41.806341" lon="-6.248774">
        <ele>773.1</ele>
        <time>2021-03-27T13:19:39Z</time>
      </trkpt>
      <trkpt lat="41.80675" lon="-6.249092">
        <ele>771.25</ele>
        <time>2021-03-27T13:19:43Z</time>
      </trkpt>
      <trkpt lat="41.807233" lon="-6.249347">
        <ele>774.21</ele>
        <time>2021-03-27T13:19:47Z</time>
      </trkpt>
      <trkpt lat="41.807632" lon="-6.249489">
        <ele>776.36</ele>
        <time>2021-03-27T13:19:51Z</time>
      </trkpt>
      <trkpt lat="41.809432" lon="-6.249901">
        <ele>764.1</ele>
        <time>2021-03-27T13:19:55Z</time>
      </trkpt>
      <trkpt lat="41.810272" lon="-6.249994">
        <ele>764.09</ele>
        <time>2021-03-27T13:19:59Z</time>
      </trkpt>
      <trkpt lat="41.811171" lon="-6.250175">
        <ele>764.62</ele>
        <time>2021-03-27T13:20:03Z</time>
      </trkpt>
      <trkpt lat="41.811334" lon="-6.250226">
        <ele>765.32</ele>
        <time>2021-03-27T13:20:07Z</time>
      </trkpt>
      <trkpt lat="41.811644" lon="-6.250377">
        <ele>766.69</ele>
        <time>2021-03-27T13:20:11Z</time>
      </trkpt>
      <trkpt lat="41.811997" lon="-6.250644">
        <ele>765.42</ele>
        <time>2021-03-27T13:20:15Z</time>
      </trkpt>
      <trkpt lat="41.812264" lon="-6.250922">
        <ele>764.91</ele>
        <time>2021-03-27T13:20:19Z</time>
      </trkpt>
      <trkpt lat="41.812424" lon="-6.251128">
        <ele>765.03</ele>
        <time>2021-03-27T13:20:23Z</time>
      </trkpt>
      <trkpt lat="41.813233" lon="-6.252405">
        <ele>763.5</ele>
        <time>2021-03-27T13:20:27Z</time>
      </trkpt>
      <trkpt lat="41.814172" lon="-6.254099">
        <ele>760.77</ele>
        <time>2021-03-27T13:20:31Z</time>
      </trkpt>
      <trkpt lat="41.814422" lon="-6.254513">
        <ele>759.0</ele>
        <time>2021-03-27T13:20:35Z</time>
      </trkpt>
      <trkpt lat="41.81469" lon="-6.254934">
        <ele>759.97</ele>
        <time>2021-03-27T13:20:39Z</time>
      </trkpt>
      <trkpt lat="41.815572" lon="-6.256182">
        <ele>762.34</ele>
        <time>2021-03-27T13:20:43Z</time>
      </trkpt>
      <trkpt lat="41.815676" lon="-6.256361">
        <ele>763.82</ele>
        <time>2021-03-27T13:20:47Z</time>
      </trkpt>
      <trkpt lat="41.815806" lon="-6.256708">
        <ele>762.34</ele>
        <time>2021-03-27T13:20:51Z</time>
      </trkpt>
      <trkpt lat="41.815957" lon="-6.257353">
        <ele>761.12</ele>
        <time>2021-03-27T13:20:55Z</time>
      </trkpt>
      <trkpt lat="41.816028" lon="-6.25759">
        <ele>759.94</ele>
        <time>2021-03-27T13:20:59Z</time>
      </trkpt>
      <trkpt lat="41.816137" lon="-6.257854">
        <ele>758.98</ele>
        <time>2021-03-27T13:21:03Z</time>
      </trkpt>
      <trkpt lat="41.816222" lon="-6.257995">
        <ele>759.1</ele>
        <time>2021-03-27T13:21:07Z</time>
      </trkpt>
      <trkpt lat="41.816361" lon="-6.258164">
        <ele>759.84</ele>
        <time>2021-03-27T13:21:11Z</time>
      </trkpt>
      <trkpt lat="41.816599" lon="-6.258374">
        <ele>761.41</ele>
        <time>2021-03-27T13:21:15Z</time>
      </trkpt>
      <trkpt lat="41.816998" lon="-6.258685">
        <ele>762.86</ele>
        <time>2021-03-27T13:21:19Z</time>
      </trkpt>
      <trkpt lat="41.8172" lon="-6.2589">
        <ele>763.0</ele>
        <time>2021-03-27T13:21:23Z</time>
      </trkpt>
      <trkpt lat="41.817341" lon="-6.259114">
        <ele>762.92</ele>
        <time>2021-03-27T13:21:26Z</time>
      </trkpt>
      <trkpt lat="41.818525" lon="-6.261141">
        <ele>762.92</ele>
        <time>2021-03-27T13:21:30Z</time>
      </trkpt>
      <trkpt lat="41.819016" lon="-6.261988">
        <ele>762.91</ele>
        <time>2021-03-27T13:21:34Z</time>
      </trkpt>
      <trkpt lat="41.81921" lon="-6.262359">
        <ele>763.08</ele>
        <time>2021-03-27T13:21:38Z</time>
      </trkpt>
      <trkpt lat="41.81937" lon="-6.262792">
        <ele>762.63</ele>
        <time>2021-03-27T13:21:42Z</time>
      </trkpt>
      <trkpt lat="41.819439" lon="-6.26308">
        <ele>760.98</ele>
        <time>2021-03-27T13:21:46Z</time>
      </trkpt>
      <trkpt lat="41.819569" lon="-6.264017">
        <ele>763.45</ele>
        <time>2021-03-27T13:21:50Z</time>
      </trkpt>
      <trkpt lat="41.819615" lon="-6.264288">
        <ele>763.61</ele>
        <time>2021-03-27T13:21:54Z</time>
      </trkpt>
      <trkpt lat="41.81967" lon="-6.264503">
        <ele>763.81</ele>
        <time>2021-03-27T13:21:58Z</time>
      </trkpt>
      <trkpt lat="41.820151" lon="-6.265641">
        <ele>763.24</ele>
        <time>2021-03-27T13:22:02Z</time>
      </trkpt>
      <trkpt lat="41.820244" lon="-6.265921">
        <ele>762.6</ele>
        <time>2021-03-27T13:22:06Z</time>
      </trkpt>
      <trkpt lat="41.820557" lon="-6.267227">
        <ele>763.02</ele>
        <time>2021-03-27T13:22:10Z</time>
      </trkpt>
      <trkpt lat="41.820635" lon="-6.267471">
        <ele>763.93</ele>
        <time>2021-03-27T13:22:14Z</time>
      </trkpt>
      <trkpt lat="41.820719" lon="-6.267659">
        <ele>764.23</ele>
        <time>2021-03-27T13:22:18Z</time>
      </trkpt>
      <trkpt lat="41.820933" lon="-6.26805">
        <ele>764.99</ele>
        <time>2021-03-27T13:22:22Z</time>
      </trkpt>
      <trkpt lat="41.821037" lon="-6.268298">
        <ele>764.13</ele>
        <time>2021-03-27T13:22:26Z</time>
      </trkpt>
      <trkpt lat="41.82149" lon="-6.269824">
        <ele>765.0</ele>
        <time>2021-03-27T13:22:30Z</time>
      </trkpt>
      <trkpt lat="41.821097" lon="-6.269922">
        <ele>765.0</ele>
        <time>2021-03-27T13:22:36Z</time>
      </trkpt>
      <trkpt lat="41.821064" lon="-6.270421">
        <ele>765.0</ele>
        <time>2021-03-27T13:22:47Z</time>
      </trkpt>
      <trkpt lat="41.821098" lon="-6.271323">
        <ele>765.19</ele>
        <time>2021-03-27T13:22:58Z</time>
      </trkpt>
      <trkpt lat="41.821218" lon="-6.271828">
        <ele>763.64</ele>
        <time>2021-03-27T13:23:08Z</time>
      </trkpt>
      <trkpt lat="41.821399" lon="-6.273638">
        <ele>766.13</ele>
        <time>2021-03-27T13:23:19Z</time>
      </trkpt>
      <trkpt lat="41.821908" lon="-6.27479">
        <ele>765.53</ele>
        <time>2021-03-27T13:23:22Z</time>
      </trkpt>
      <trkpt lat="41.8221" lon="-6.275174">
        <ele>765.21</ele>
        <time>2021-03-27T13:23:25Z</time>
      </trkpt>
      <trkpt lat="41.82218" lon="-6.275293">
        <ele>765.05</ele>
        <time>2021-03-27T13:23:28Z</time>
      </trkpt>
      <trkpt lat="41.822451" lon="-6.275525">
        <ele>765.98</ele>
        <time>2021-03-27T13:23:31Z</time>
      </trkpt>
      <trkpt lat="41.823039" lon="-6.27593">
        <ele>767.02</ele>
        <time>2021-03-27T13:23:33Z</time>
      </trkpt>
      <trkpt lat="41.823374" lon="-6.276101">
        <ele>766.0</ele>
        <time>2021-03-27T13:23:36Z</time>
      </trkpt>
      <trkpt lat="41.823678" lon="-6.276284">
        <ele>766.62</ele>
        <time>2021-03-27T13:23:39Z</time>
      </trkpt>
      <trkpt lat="41.824077" lon="-6.276667">
        <ele>767.0</ele>
        <time>2021-03-27T13:23:42Z</time>
      </trkpt>
      <trkpt lat="41.824213" lon="-6.276778">
        <ele>767.17</ele>
        <time>2021-03-27T13:23:45Z</time>
      </trkpt>
      <trkpt lat="41.824789" lon="-6.277153">
        <ele>768.25</ele>
        <time>2021-03-27T13:23:48Z</time>
      </trkpt>
      <trkpt lat="41.82489" lon="-6.277242">
        <ele>767.9</ele>
        <time>2021-03-27T13:23:50Z</time>
      </trkpt>
      <trkpt lat="41.82509" lon="-6.277526">
        <ele>767.0</ele>
        <time>2021-03-27T13:23:53Z</time>
      </trkpt>
      <trkpt lat="41.825532" lon="-6.278413">
        <ele>768.74</ele>
        <time>2021-03-27T13:23:56Z</time>
      </trkpt>
      <trkpt lat="41.825791" lon="-6.278846">
        <ele>768.13</ele>
        <time>2021-03-27T13:23:59Z</time>
      </trkpt>
      <trkpt lat="41.826146" lon="-6.27936">
        <ele>768.04</ele>
        <time>2021-03-27T13:24:02Z</time>
      </trkpt>
      <trkpt lat="41.82636" lon="-6.279721">
        <ele>768.0</ele>
        <time>2021-03-27T13:24:05Z</time>
      </trkpt>
      <trkpt lat="41.826816" lon="-6.280568">
        <ele>768.51</ele>
        <time>2021-03-27T13:24:07Z</time>
      </trkpt>
      <trkpt lat="41.827416" lon="-6.281857">
        <ele>770.49</ele>
        <time>2021-03-27T13:24:10Z</time>
      </trkpt>
      <trkpt lat="41.827659" lon="-6.282248">
        <ele>770.96</ele>
        <time>2021-03-27T13:24:13Z</time>
      </trkpt>
      <trkpt lat="41.828026" lon="-6.282775">
        <ele>770.0</ele>
        <time>2021-03-27T13:24:16Z</time>
      </trkpt>
      <trkpt lat="41.828202" lon="-6.28299">
        <ele>769.88</ele>
        <time>2021-03-27T13:24:19Z</time>
      </trkpt>
      <trkpt lat="41.828352" lon="-6.28314">
        <ele>770.0</ele>
        <time>2021-03-27T13:24:22Z</time>
      </trkpt>
      <trkpt lat="41.828478" lon="-6.283239">
        <ele>770.0</ele>
        <time>2021-03-27T13:24:24Z</time>
      </trkpt>
      <trkpt lat="41.828954" lon="-6.283538">
        <ele>771.17</ele>
        <time>2021-03-27T13:24:27Z</time>
      </trkpt>
      <trkpt lat="41.829078" lon="-6.283639">
        <ele>771.65</ele>
        <time>2021-03-27T13:24:30Z</time>
      </trkpt>
      <trkpt lat="41.829195" lon="-6.283764">
        <ele>771.51</ele>
        <time>2021-03-27T13:24:33Z</time>
      </trkpt>
      <trkpt lat="41.82943" lon="-6.28409">
        <ele>771.98</ele>
        <time>2021-03-27T13:24:36Z</time>
      </trkpt>
      <trkpt lat="41.829741" lon="-6.284567">
        <ele>772.11</ele>
        <time>2021-03-27T13:24:39Z</time>
      </trkpt>
      <trkpt lat="41.830197" lon="-6.285307">
        <ele>773.6</ele>
        <time>2021-03-27T13:24:41Z</time>
      </trkpt>
      <trkpt lat="41.830311" lon="-6.285517">
        <ele>773.51</ele>
        <time>2021-03-27T13:24:44Z</time>
      </trkpt>
      <trkpt lat="41.830464" lon="-6.285869">
        <ele>772.58</ele>
        <time>2021-03-27T13:24:47Z</time>
      </trkpt>
      <trkpt lat="41.830859" lon="-6.287115">
        <ele>772.01</ele>
        <time>2021-03-27T13:24:50Z</time>
      </trkpt>
      <trkpt lat="41.8316" lon="-6.289067">
        <ele>773.43</ele>
        <time>2021-03-27T13:24:53Z</time>
      </trkpt>
      <trkpt lat="41.83164" lon="-6.289267">
        <ele>773.8</ele>
        <time>2021-03-27T13:24:56Z</time>
      </trkpt>
      <trkpt lat="41.831655" lon="-6.289632">
        <ele>773.3</ele>
        <time>2021-03-27T13:24:58Z</time>
      </trkpt>
      <trkpt lat="41.831636" lon="-6.289823">
        <ele>773.32</ele>
        <time>2021-03-27T13:25:01Z</time>
      </trkpt>
      <trkpt lat="41.831598" lon="-6.290058">
        <ele>773.7</ele>
        <time>2021-03-27T13:25:04Z</time>
      </trkpt>
      <trkpt lat="41.831377" lon="-6.291006">
        <ele>772.56</ele>
        <time>2021-03-27T13:25:07Z</time>
      </trkpt>
      <trkpt lat="41.831297" lon="-6.291588">
        <ele>774.15</ele>
        <time>2021-03-27T13:25:10Z</time>
      </trkpt>
      <trkpt lat="41.831193" lon="-6.293846">
        <ele>773.54</ele>
        <time>2021-03-27T13:25:13Z</time>
      </trkpt>
      <trkpt lat="41.831178" lon="-6.294354">
        <ele>774.4</ele>
        <time>2021-03-27T13:25:16Z</time>
      </trkpt>
      <trkpt lat="41.831194" lon="-6.294834">
        <ele>775.88</ele>
        <time>2021-03-27T13:25:18Z</time>
      </trkpt>
      <trkpt lat="41.831219" lon="-6.295092">
        <ele>776.39</ele>
        <time>2021-03-27T13:25:21Z</time>
      </trkpt>
      <trkpt lat="41.831506" lon="-6.297124">
        <ele>775.57</ele>
        <time>2021-03-27T13:25:24Z</time>
      </trkpt>
      <trkpt lat="41.832039" lon="-6.299285">
        <ele>778.34</ele>
        <time>2021-03-27T13:25:27Z</time>
      </trkpt>
      <trkpt lat="41.832083" lon="-6.299723">
        <ele>777.99</ele>
        <time>2021-03-27T13:25:30Z</time>
      </trkpt>
      <trkpt lat="41.832109" lon="-6.300496">
        <ele>777.0</ele>
        <time>2021-03-27T13:25:33Z</time>
      </trkpt>
      <trkpt lat="41.83214" lon="-6.300726">
        <ele>777.0</ele>
        <time>2021-03-27T13:25:35Z</time>
      </trkpt>
      <trkpt lat="41.832368" lon="-6.301721">
        <ele>779.05</ele>
        <time>2021-03-27T13:25:38Z</time>
      </trkpt>
      <trkpt lat="41.832427" lon="-6.302061">
        <ele>779.16</ele>
        <time>2021-03-27T13:25:41Z</time>
      </trkpt>
      <trkpt lat="41.832461" lon="-6.302393">
        <ele>778.86</ele>
        <time>2021-03-27T13:25:44Z</time>
      </trkpt>
      <trkpt lat="41.832487" lon="-6.303326">
        <ele>777.95</ele>
        <time>2021-03-27T13:25:47Z</time>
      </trkpt>
      <trkpt lat="41.832533" lon="-6.303752">
        <ele>779.0</ele>
        <time>2021-03-27T13:25:50Z</time>
      </trkpt>
      <trkpt lat="41.832686" lon="-6.304306">
        <ele>780.0</ele>
        <time>2021-03-27T13:25:52Z</time>
      </trkpt>
      <trkpt lat="41.83286" lon="-6.30485">
        <ele>780.11</ele>
        <time>2021-03-27T13:25:55Z</time>
      </trkpt>
      <trkpt lat="41.833065" lon="-6.305702">
        <ele>782.54</ele>
        <time>2021-03-27T13:25:58Z</time>
      </trkpt>
      <trkpt lat="41.833131" lon="-6.305898">
        <ele>782.08</ele>
        <time>2021-03-27T13:26:01Z</time>
      </trkpt>
      <trkpt lat="41.833311" lon="-6.30625">
        <ele>781.34</ele>
        <time>2021-03-27T13:26:04Z</time>
      </trkpt>
      <trkpt lat="41.834052" lon="-6.307346">
        <ele>781.77</ele>
        <time>2021-03-27T13:26:07Z</time>
      </trkpt>
      <trkpt lat="41.834184" lon="-6.307498">
        <ele>781.94</ele>
        <time>2021-03-27T13:26:09Z</time>
      </trkpt>
      <trkpt lat="41.834454" lon="-6.307721">
        <ele>780.21</ele>
        <time>2021-03-27T13:26:12Z</time>
      </trkpt>
      <trkpt lat="41.835009" lon="-6.308017">
        <ele>780.17</ele>
        <time>2021-03-27T13:26:15Z</time>
      </trkpt>
      <trkpt lat="41.835388" lon="-6.308246">
        <ele>780.44</ele>
        <time>2021-03-27T13:26:18Z</time>
      </trkpt>
      <trkpt lat="41.83556" lon="-6.308355">
        <ele>780.03</ele>
        <time>2021-03-27T13:26:21Z</time>
      </trkpt>
      <trkpt lat="41.835729" lon="-6.308497">
        <ele>780.88</ele>
        <time>2021-03-27T13:26:24Z</time>
      </trkpt>
      <trkpt lat="41.836105" lon="-6.308925">
        <ele>781.13</ele>
        <time>2021-03-27T13:26:26Z</time>
      </trkpt>
      <trkpt lat="41.83677" lon="-6.309811">
        <ele>782.51</ele>
        <time>2021-03-27T13:26:29Z</time>
      </trkpt>
      <trkpt lat="41.837282" lon="-6.310402">
        <ele>782.33</ele>
        <time>2021-03-27T13:26:32Z</time>
      </trkpt>
      <trkpt lat="41.837506" lon="-6.310773">
        <ele>782.22</ele>
        <time>2021-03-27T13:26:35Z</time>
      </trkpt>
      <trkpt lat="41.83762" lon="-6.310897">
        <ele>782.0</ele>
        <time>2021-03-27T13:26:38Z</time>
      </trkpt>
      <trkpt lat="41.837821" lon="-6.311032">
        <ele>782.15</ele>
        <time>2021-03-27T13:26:41Z</time>
      </trkpt>
      <trkpt lat="41.837963" lon="-6.311088">
        <ele>782.67</ele>
        <time>2021-03-27T13:26:43Z</time>
      </trkpt>
      <trkpt lat="41.838153" lon="-6.311059">
        <ele>784.06</ele>
        <time>2021-03-27T13:26:46Z</time>
      </trkpt>
      <trkpt lat="41.838282" lon="-6.310987">
        <ele>785.45</ele>
        <time>2021-03-27T13:26:49Z</time>
      </trkpt>
      <trkpt lat="41.838442" lon="-6.310932">
        <ele>787.17</ele>
        <time>2021-03-27T13:26:52Z</time>
      </trkpt>
      <trkpt lat="41.838559" lon="-6.310946">
        <ele>788.43</ele>
        <time>2021-03-27T13:26:55Z</time>
      </trkpt>
      <trkpt lat="41.838623" lon="-6.310995">
        <ele>789.13</ele>
        <time>2021-03-27T13:26:58Z</time>
      </trkpt>
      <trkpt lat="41.838801" lon="-6.311317">
        <ele>791.79</ele>
        <time>2021-03-27T13:27:01Z</time>
      </trkpt>
      <trkpt lat="41.838824" lon="-6.311639">
        <ele>792.09</ele>
        <time>2021-03-27T13:27:03Z</time>
      </trkpt>
      <trkpt lat="41.838896" lon="-6.312031">
        <ele>791.17</ele>
        <time>2021-03-27T13:27:06Z</time>
      </trkpt>
      <trkpt lat="41.838955" lon="-6.312559">
        <ele>787.23</ele>
        <time>2021-03-27T13:27:09Z</time>
      </trkpt>
      <trkpt lat="41.839102" lon="-6.313073">
        <ele>783.65</ele>
        <time>2021-03-27T13:27:12Z</time>
      </trkpt>
      <trkpt lat="41.839139" lon="-6.313156">
        <ele>783.22</ele>
        <time>2021-03-27T13:27:15Z</time>
      </trkpt>
      <trkpt lat="41.839331" lon="-6.313409">
        <ele>782.43</ele>
        <time>2021-03-27T13:27:18Z</time>
      </trkpt>
      <trkpt lat="41.839371" lon="-6.313395">
        <ele>782.57</ele>
        <time>2021-03-27T13:27:19Z</time>
      </trkpt>
      <trkpt lat="41.839544" lon="-6.313189">
        <ele>785.11</ele>
        <time>2021-03-27T13:27:21Z</time>
      </trkpt>
      <trkpt lat="41.839611" lon="-6.313134">
        <ele>786.18</ele>
        <time>2021-03-27T13:27:23Z</time>
      </trkpt>
      <trkpt lat="41.839705" lon="-6.313084">
        <ele>787.47</ele>
        <time>2021-03-27T13:27:25Z</time>
      </trkpt>
      <trkpt lat="41.839867" lon="-6.313069">
        <ele>788.86</ele>
        <time>2021-03-27T13:27:27Z</time>
      </trkpt>
      <trkpt lat="41.84009" lon="-6.31316">
        <ele>789.15</ele>
        <time>2021-03-27T13:27:29Z</time>
      </trkpt>
      <trkpt lat="41.840454" lon="-6.313374">
        <ele>789.52</ele>
        <time>2021-03-27T13:27:31Z</time>
      </trkpt>
      <trkpt lat="41.840635" lon="-6.313551">
        <ele>788.99</ele>
        <time>2021-03-27T13:27:32Z</time>
      </trkpt>
      <trkpt lat="41.840742" lon="-6.31369">
        <ele>787.54</ele>
        <time>2021-03-27T13:27:34Z</time>
      </trkpt>
      <trkpt lat="41.84095" lon="-6.31406">
        <ele>784.87</ele>
        <time>2021-03-27T13:27:41Z</time>
      </trkpt>
      <trkpt lat="41.848229" lon="-6.329033">
        <ele>800.14</ele>
        <time>2021-03-27T13:27:48Z</time>
      </trkpt>
      <trkpt lat="41.84832" lon="-6.329174">
        <ele>799.74</ele>
        <time>2021-03-27T13:27:55Z</time>
      </trkpt>
      <trkpt lat="41.848441" lon="-6.329296">
        <ele>798.32</ele>
        <time>2021-03-27T13:28:03Z</time>
      </trkpt>
      <trkpt lat="41.849019" lon="-6.329552">
        <ele>797.02</ele>
        <time>2021-03-27T13:28:10Z</time>
      </trkpt>
      <trkpt lat="41.849119" lon="-6.329637">
        <ele>796.49</ele>
        <time>2021-03-27T13:28:17Z</time>
      </trkpt>
      <trkpt lat="41.849196" lon="-6.329731">
        <ele>795.86</ele>
        <time>2021-03-27T13:28:24Z</time>
      </trkpt>
      <trkpt lat="41.849269" lon="-6.329877">
        <ele>795.07</ele>
        <time>2021-03-27T13:28:31Z</time>
      </trkpt>
      <trkpt lat="41.849308" lon="-6.330028">
        <ele>794.34</ele>
        <time>2021-03-27T13:28:38Z</time>
      </trkpt>
      <trkpt lat="41.849329" lon="-6.330186">
        <ele>793.47</ele>
        <time>2021-03-27T13:28:45Z</time>
      </trkpt>
      <trkpt lat="41.849322" lon="-6.330307">
        <ele>792.94</ele>
        <time>2021-03-27T13:28:52Z</time>
      </trkpt>
      <trkpt lat="41.84925" lon="-6.330586">
        <ele>792.7</ele>
        <time>2021-03-27T13:28:59Z</time>
      </trkpt>
      <trkpt lat="41.849102" lon="-6.330895">
        <ele>792.82</ele>
        <time>2021-03-27T13:29:06Z</time>
      </trkpt>
      <trkpt lat="41.84918" lon="-6.33102">
        <ele>792.98</ele>
        <time>2021-03-27T13:29:19Z</time>
      </trkpt>
      <trkpt lat="41.849828" lon="-6.331643">
        <ele>793.03</ele>
        <time>2021-03-27T13:29:31Z</time>
      </trkpt>
      <trkpt lat="41.850392" lon="-6.332378">
        <ele>792.67</ele>
        <time>2021-03-27T13:29:43Z</time>
      </trkpt>
      <trkpt lat="41.850588" lon="-6.332671">
        <ele>792.45</ele>
        <time>2021-03-27T13:29:55Z</time>
      </trkpt>
      <trkpt lat="41.850662" lon="-6.332875">
        <ele>792.38</ele>
        <time>2021-03-27T13:30:07Z</time>
      </trkpt>
      <trkpt lat="41.851083" lon="-6.334591">
        <ele>792.63</ele>
        <time>2021-03-27T13:30:19Z</time>
      </trkpt>
      <trkpt lat="41.851165" lon="-6.334664">
        <ele>792.83</ele>
        <time>2021-03-27T13:30:22Z</time>
      </trkpt>
      <trkpt lat="41.851294" lon="-6.33482">
        <ele>793.0</ele>
        <time>2021-03-27T13:30:25Z</time>
      </trkpt>
      <trkpt lat="41.85164" lon="-6.335291">
        <ele>793.86</ele>
        <time>2021-03-27T13:30:28Z</time>
      </trkpt>
      <trkpt lat="41.851938" lon="-6.335624">
        <ele>793.0</ele>
        <time>2021-03-27T13:30:31Z</time>
      </trkpt>
      <trkpt lat="41.852233" lon="-6.335884">
        <ele>792.04</ele>
        <time>2021-03-27T13:30:34Z</time>
      </trkpt>
      <trkpt lat="41.852489" lon="-6.336223">
        <ele>793.36</ele>
        <time>2021-03-27T13:30:37Z</time>
      </trkpt>
      <trkpt lat="41.852679" lon="-6.336581">
        <ele>794.65</ele>
        <time>2021-03-27T13:30:40Z</time>
      </trkpt>
      <trkpt lat="41.853106" lon="-6.337643">
        <ele>794.76</ele>
        <time>2021-03-27T13:30:43Z</time>
      </trkpt>
      <trkpt lat="41.853167" lon="-6.337849">
        <ele>794.96</ele>
        <time>2021-03-27T13:30:46Z</time>
      </trkpt>
      <trkpt lat="41.85323" lon="-6.338308">
        <ele>796.54</ele>
        <time>2021-03-27T13:30:48Z</time>
      </trkpt>
      <trkpt lat="41.853269" lon="-6.338495">
        <ele>796.77</ele>
        <time>2021-03-27T13:30:51Z</time>
      </trkpt>
      <trkpt lat="41.853392" lon="-6.338852">
        <ele>797.4</ele>
        <time>2021-03-27T13:30:54Z</time>
      </trkpt>
      <trkpt lat="41.853475" lon="-6.339">
        <ele>798.02</ele>
        <time>2021-03-27T13:30:57Z</time>
      </trkpt>
      <trkpt lat="41.853684" lon="-6.33929">
        <ele>798.82</ele>
        <time>2021-03-27T13:31:00Z</time>
      </trkpt>
      <trkpt lat="41.853996" lon="-6.339609">
        <ele>798.41</ele>
        <time>2021-03-27T13:31:03Z</time>
      </trkpt>
      <trkpt lat="41.854411" lon="-6.33998">
        <ele>796.19</ele>
        <time>2021-03-27T13:31:06Z</time>
      </trkpt>
      <trkpt lat="41.85464" lon="-6.340144">
        <ele>796.34</ele>
        <time>2021-03-27T13:31:09Z</time>
      </trkpt>
      <trkpt lat="41.854854" lon="-6.340345">
        <ele>796.59</ele>
        <time>2021-03-27T13:31:12Z</time>
      </trkpt>
      <trkpt lat="41.855118" lon="-6.340691">
        <ele>796.36</ele>
        <time>2021-03-27T13:31:15Z</time>
      </trkpt>
      <trkpt lat="41.855277" lon="-6.340928">
        <ele>796.99</ele>
        <time>2021-03-27T13:31:18Z</time>
      </trkpt>
      <trkpt lat="41.855641" lon="-6.341537">
        <ele>797.47</ele>
        <time>2021-03-27T13:31:20Z</time>
      </trkpt>
      <trkpt lat="41.856002" lon="-6.342075">
        <ele>797.74</ele>
        <time>2021-03-27T13:31:23Z</time>
      </trkpt>
      <trkpt lat="41.856132" lon="-6.342334">
        <ele>797.82</ele>
        <time>2021-03-27T13:31:26Z</time>
      </trkpt>
      <trkpt lat="41.856428" lon="-6.343072">
        <ele>799.13</ele>
        <time>2021-03-27T13:31:29Z</time>
      </trkpt>
      <trkpt lat="41.857064" lon="-6.344389">
        <ele>801.54</ele>
        <time>2021-03-27T13:31:32Z</time>
      </trkpt>
      <trkpt lat="41.857181" lon="-6.344566">
        <ele>801.48</ele>
        <time>2021-03-27T13:31:35Z</time>
      </trkpt>
      <trkpt lat="41.857317" lon="-6.344727">
        <ele>801.32</ele>
        <time>2021-03-27T13:31:38Z</time>
      </trkpt>
      <trkpt lat="41.857788" lon="-6.345142">
        <ele>802.09</ele>
        <time>2021-03-27T13:31:41Z</time>
      </trkpt>
      <trkpt lat="41.857952" lon="-6.345313">
        <ele>803.26</ele>
        <time>2021-03-27T13:31:44Z</time>
      </trkpt>
      <trkpt lat="41.858176" lon="-6.345646">
        <ele>803.49</ele>
        <time>2021-03-27T13:31:47Z</time>
      </trkpt>
      <trkpt lat="41.859334" lon="-6.347767">
        <ele>803.2</ele>
        <time>2021-03-27T13:31:49Z</time>
      </trkpt>
      <trkpt lat="41.859788" lon="-6.348655">
        <ele>803.63</ele>
        <time>2021-03-27T13:31:52Z</time>
      </trkpt>
      <trkpt lat="41.859949" lon="-6.349013">
        <ele>805.63</ele>
        <time>2021-03-27T13:31:55Z</time>
      </trkpt>
      <trkpt lat="41.860069" lon="-6.349332">
        <ele>805.91</ele>
        <time>2021-03-27T13:31:58Z</time>
      </trkpt>
      <trkpt lat="41.860205" lon="-6.349789">
        <ele>805.48</ele>
        <time>2021-03-27T13:32:01Z</time>
      </trkpt>
      <trkpt lat="41.860493" lon="-6.351188">
        <ele>805.78</ele>
        <time>2021-03-27T13:32:04Z</time>
      </trkpt>
      <trkpt lat="41.860568" lon="-6.351476">
        <ele>805.74</ele>
        <time>2021-03-27T13:32:07Z</time>
      </trkpt>
      <trkpt lat="41.861476" lon="-6.353896">
        <ele>807.31</ele>
        <time>2021-03-27T13:32:10Z</time>
      </trkpt>
      <trkpt lat="41.861591" lon="-6.354115">
        <ele>807.14</ele>
        <time>2021-03-27T13:32:13Z</time>
      </trkpt>
      <trkpt lat="41.861811" lon="-6.354403">
        <ele>806.67</ele>
        <time>2021-03-27T13:32:16Z</time>
      </trkpt>
      <trkpt lat="41.862172" lon="-6.354634">
        <ele>807.82</ele>
        <time>2021-03-27T13:32:18Z</time>
      </trkpt>
      <trkpt lat="41.862597" lon="-6.354857">
        <ele>808.73</ele>
        <time>2021-03-27T13:32:21Z</time>
      </trkpt>
      <trkpt lat="41.862763" lon="-6.354978">
        <ele>809.05</ele>
        <time>2021-03-27T13:32:24Z</time>
      </trkpt>
      <trkpt lat="41.863083" lon="-6.355284">
        <ele>810.2</ele>
        <time>2021-03-27T13:32:27Z</time>
      </trkpt>
      <trkpt lat="41.863181" lon="-6.355403">
        <ele>810.5</ele>
        <time>2021-03-27T13:32:30Z</time>
      </trkpt>
      <trkpt lat="41.863333" lon="-6.355683">
        <ele>809.54</ele>
        <time>2021-03-27T13:32:33Z</time>
      </trkpt>
      <trkpt lat="41.863928" lon="-6.357397">
        <ele>813.19</ele>
        <time>2021-03-27T13:32:36Z</time>
      </trkpt>
      <trkpt lat="41.864283" lon="-6.358477">
        <ele>811.1</ele>
        <time>2021-03-27T13:32:39Z</time>
      </trkpt>
      <trkpt lat="41.864355" lon="-6.358875">
        <ele>809.72</ele>
        <time>2021-03-27T13:32:42Z</time>
      </trkpt>
      <trkpt lat="41.864867" lon="-6.362548">
        <ele>812.17</ele>
        <time>2021-03-27T13:32:45Z</time>
      </trkpt>
      <trkpt lat="41.86494" lon="-6.362903">
        <ele>813.0</ele>
        <time>2021-03-27T13:32:47Z</time>
      </trkpt>
      <trkpt lat="41.865887" lon="-6.366399">
        <ele>817.8</ele>
        <time>2021-03-27T13:32:50Z</time>
      </trkpt>
      <trkpt lat="41.865989" lon="-6.366681">
        <ele>817.38</ele>
        <time>2021-03-27T13:32:53Z</time>
      </trkpt>
      <trkpt lat="41.866093" lon="-6.366905">
        <ele>816.21</ele>
        <time>2021-03-27T13:32:56Z</time>
      </trkpt>
      <trkpt lat="41.867982" lon="-6.370646">
        <ele>823.88</ele>
        <time>2021-03-27T13:32:59Z</time>
      </trkpt>
      <trkpt lat="41.868032" lon="-6.370775">
        <ele>823.96</ele>
        <time>2021-03-27T13:33:02Z</time>
      </trkpt>
      <trkpt lat="41.868091" lon="-6.370996">
        <ele>823.67</ele>
        <time>2021-03-27T13:33:05Z</time>
      </trkpt>
      <trkpt lat="41.868361" lon="-6.372078">
        <ele>819.87</ele>
        <time>2021-03-27T13:33:08Z</time>
      </trkpt>
      <trkpt lat="41.868602" lon="-6.372896">
        <ele>821.03</ele>
        <time>2021-03-27T13:33:11Z</time>
      </trkpt>
      <trkpt lat="41.868772" lon="-6.373269">
        <ele>819.95</ele>
        <time>2021-03-27T13:33:14Z</time>
      </trkpt>
      <trkpt lat="41.869544" lon="-6.374522">
        <ele>821.8</ele>
        <time>2021-03-27T13:33:16Z</time>
      </trkpt>
      <trkpt lat="41.869783" lon="-6.375016">
        <ele>821.12</ele>
        <time>2021-03-27T13:33:19Z</time>
      </trkpt>
      <trkpt lat="41.869857" lon="-6.375233">
        <ele>820.21</ele>
        <time>2021-03-27T13:33:22Z</time>
      </trkpt>
      <trkpt lat="41.86996" lon="-6.375648">
        <ele>819.38</ele>
        <time>2021-03-27T13:33:25Z</time>
      </trkpt>
      <trkpt lat="41.869956" lon="-6.375785">
        <ele>818.86</ele>
        <time>2021-03-27T13:33:28Z</time>
      </trkpt>
      <trkpt lat="41.869923" lon="-6.375975">
        <ele>818.96</ele>
        <time>2021-03-27T13:33:31Z</time>
      </trkpt>
      <trkpt lat="41.869786" lon="-6.376413">
        <ele>819.32</ele>
        <time>2021-03-27T13:33:34Z</time>
      </trkpt>
      <trkpt lat="41.869632" lon="-6.377112">
        <ele>822.53</ele>
        <time>2021-03-27T13:33:37Z</time>
      </trkpt>
      <trkpt lat="41.869594" lon="-6.377128">
        <ele>822.79</ele>
        <time>2021-03-27T13:33:40Z</time>
      </trkpt>
      <trkpt lat="41.869514" lon="-6.377117">
        <ele>822.99</ele>
        <time>2021-03-27T13:33:43Z</time>
      </trkpt>
      <trkpt lat="41.869468" lon="-6.377138">
        <ele>823.31</ele>
        <time>2021-03-27T13:33:46Z</time>
      </trkpt>
      <trkpt lat="41.869362" lon="-6.37725">
        <ele>824.57</ele>
        <time>2021-03-27T13:33:48Z</time>
      </trkpt>
      <trkpt lat="41.869334" lon="-6.377299">
        <ele>825.12</ele>
        <time>2021-03-27T13:33:51Z</time>
      </trkpt>
      <trkpt lat="41.869281" lon="-6.377689">
        <ele>827.68</ele>
        <time>2021-03-27T13:33:54Z</time>
      </trkpt>
      <trkpt lat="41.869328" lon="-6.377961">
        <ele>828.38</ele>
        <time>2021-03-27T13:33:57Z</time>
      </trkpt>
      <trkpt lat="41.869403" lon="-6.378196">
        <ele>829.28</ele>
        <time>2021-03-27T13:34:00Z</time>
      </trkpt>
      <trkpt lat="41.86947" lon="-6.378284">
        <ele>829.92</ele>
        <time>2021-03-27T13:34:03Z</time>
      </trkpt>
      <trkpt lat="41.86968" lon="-6.378478">
        <ele>830.85</ele>
        <time>2021-03-27T13:34:06Z</time>
      </trkpt>
      <trkpt lat="41.869911" lon="-6.378815">
        <ele>832.42</ele>
        <time>2021-03-27T13:34:09Z</time>
      </trkpt>
      <trkpt lat="41.869967" lon="-6.378836">
        <ele>832.69</ele>
        <time>2021-03-27T13:34:12Z</time>
      </trkpt>
      <trkpt lat="41.870165" lon="-6.378849">
        <ele>833.28</ele>
        <time>2021-03-27T13:34:15Z</time>
      </trkpt>
      <trkpt lat="41.870234" lon="-6.378891">
        <ele>833.85</ele>
        <time>2021-03-27T13:34:17Z</time>
      </trkpt>
      <trkpt lat="41.87031" lon="-6.37898">
        <ele>834.37</ele>
        <time>2021-03-27T13:34:20Z</time>
      </trkpt>
      <trkpt lat="41.870536" lon="-6.37941">
        <ele>836.81</ele>
        <time>2021-03-27T13:34:23Z</time>
      </trkpt>
      <trkpt lat="41.870599" lon="-6.379567">
        <ele>837.35</ele>
        <time>2021-03-27T13:34:26Z</time>
      </trkpt>
      <trkpt lat="41.870464" lon="-6.379629">
        <ele>837.11</ele>
        <time>2021-03-27T13:34:29Z</time>
      </trkpt>
      <trkpt lat="41.870328" lon="-6.379739">
        <ele>836.48</ele>
        <time>2021-03-27T13:34:32Z</time>
      </trkpt>
      <trkpt lat="41.869612" lon="-6.380414">
        <ele>834.79</ele>
        <time>2021-03-27T13:34:35Z</time>
      </trkpt>
      <trkpt lat="41.869393" lon="-6.380645">
        <ele>833.65</ele>
        <time>2021-03-27T13:34:38Z</time>
      </trkpt>
      <trkpt lat="41.869308" lon="-6.380775">
        <ele>832.74</ele>
        <time>2021-03-27T13:34:41Z</time>
      </trkpt>
      <trkpt lat="41.869229" lon="-6.380949">
        <ele>831.76</ele>
        <time>2021-03-27T13:34:44Z</time>
      </trkpt>
      <trkpt lat="41.869066" lon="-6.381466">
        <ele>828.55</ele>
        <time>2021-03-27T13:34:47Z</time>
      </trkpt>
      <trkpt lat="41.868961" lon="-6.381697">
        <ele>826.93</ele>
        <time>2021-03-27T13:34:50Z</time>
      </trkpt>
      <trkpt lat="41.868825" lon="-6.381828">
        <ele>824.49</ele>
        <time>2021-03-27T13:34:53Z</time>
      </trkpt>
      <trkpt lat="41.868648" lon="-6.381921">
        <ele>821.62</ele>
        <time>2021-03-27T13:34:56Z</time>
      </trkpt>
      <trkpt lat="41.868369" lon="-6.382002">
        <ele>821.9</ele>
        <time>2021-03-27T13:34:59Z</time>
      </trkpt>
      <trkpt lat="41.868171" lon="-6.38203">
        <ele>822.58</ele>
        <time>2021-03-27T13:35:02Z</time>
      </trkpt>
      <trkpt lat="41.86805" lon="-6.381993">
        <ele>822.98</ele>
        <time>2021-03-27T13:35:05Z</time>
      </trkpt>
      <trkpt lat="41.867945" lon="-6.381929">
        <ele>822.59</ele>
        <time>2021-03-27T13:35:08Z</time>
      </trkpt>
      <trkpt lat="41.867827" lon="-6.38183">
        <ele>822.44</ele>
        <time>2021-03-27T13:35:11Z</time>
      </trkpt>
      <trkpt lat="41.86708" lon="-6.38101">
        <ele>825.66</ele>
        <time>2021-03-27T13:35:14Z</time>
      </trkpt>
      <trkpt lat="41.866715" lon="-6.380637">
        <ele>824.58</ele>
        <time>2021-03-27T13:35:17Z</time>
      </trkpt>
      <trkpt lat="41.86665" lon="-6.380635">
        <ele>824.44</ele>
        <time>2021-03-27T13:35:21Z</time>
      </trkpt>
      <trkpt lat="41.86654" lon="-6.380693">
        <ele>823.85</ele>
        <time>2021-03-27T13:35:24Z</time>
      </trkpt>
      <trkpt lat="41.86644" lon="-6.380859">
        <ele>823.63</ele>
        <time>2021-03-27T13:35:27Z</time>
      </trkpt>
      <trkpt lat="41.866233" lon="-6.381611">
        <ele>826.13</ele>
        <time>2021-03-27T13:35:30Z</time>
      </trkpt>
      <trkpt lat="41.866131" lon="-6.382259">
        <ele>829.08</ele>
        <time>2021-03-27T13:35:33Z</time>
      </trkpt>
      <trkpt lat="41.866079" lon="-6.382811">
        <ele>829.77</ele>
        <time>2021-03-27T13:35:37Z</time>
      </trkpt>
      <trkpt lat="41.866018" lon="-6.383778">
        <ele>828.53</ele>
        <time>2021-03-27T13:35:40Z</time>
      </trkpt>
      <trkpt lat="41.866002" lon="-6.384631">
        <ele>828.57</ele>
        <time>2021-03-27T13:35:43Z</time>
      </trkpt>
      <trkpt lat="41.866042" lon="-6.385077">
        <ele>831.1</ele>
        <time>2021-03-27T13:35:46Z</time>
      </trkpt>
      <trkpt lat="41.866081" lon="-6.385342">
        <ele>832.61</ele>
        <time>2021-03-27T13:35:49Z</time>
      </trkpt>
      <trkpt lat="41.866734" lon="-6.388986">
        <ele>835.91</ele>
        <time>2021-03-27T13:35:53Z</time>
      </trkpt>
      <trkpt lat="41.866792" lon="-6.389369">
        <ele>835.55</ele>
        <time>2021-03-27T13:35:56Z</time>
      </trkpt>
      <trkpt lat="41.866824" lon="-6.389734">
        <ele>836.45</ele>
        <time>2021-03-27T13:35:59Z</time>
      </trkpt>
      <trkpt lat="41.866834" lon="-6.390073">
        <ele>836.79</ele>
        <time>2021-03-27T13:36:02Z</time>
      </trkpt>
      <trkpt lat="41.866822" lon="-6.39047">
        <ele>836.49</ele>
        <time>2021-03-27T13:36:05Z</time>
      </trkpt>
      <trkpt lat="41.866031" lon="-6.399096">
        <ele>851.58</ele>
        <time>2021-03-27T13:36:09Z</time>
      </trkpt>
      <trkpt lat="41.865946" lon="-6.399633">
        <ele>853.95</ele>
        <time>2021-03-27T13:36:12Z</time>
      </trkpt>
      <trkpt lat="41.865598" lon="-6.401082">
        <ele>859.98</ele>
        <time>2021-03-27T13:36:15Z</time>
      </trkpt>
      <trkpt lat="41.865544" lon="-6.40139">
        <ele>862.16</ele>
        <time>2021-03-27T13:36:18Z</time>
      </trkpt>
      <trkpt lat="41.865484" lon="-6.401986">
        <ele>864.03</ele>
        <time>2021-03-27T13:36:21Z</time>
      </trkpt>
      <trkpt lat="41.865476" lon="-6.402429">
        <ele>864.46</ele>
        <time>2021-03-27T13:36:25Z</time>
      </trkpt>
      <trkpt lat="41.86552" lon="-6.405232">
        <ele>874.87</ele>
        <time>2021-03-27T13:36:28Z</time>
      </trkpt>
      <trkpt lat="41.865544" lon="-6.405917">
        <ele>873.68</ele>
        <time>2021-03-27T13:36:31Z</time>
      </trkpt>
      <trkpt lat="41.865582" lon="-6.406257">
        <ele>873.1</ele>
        <time>2021-03-27T13:36:34Z</time>
      </trkpt>
      <trkpt lat="41.865655" lon="-6.406662">
        <ele>872.72</ele>
        <time>2021-03-27T13:36:37Z</time>
      </trkpt>
      <trkpt lat="41.866446" lon="-6.409574">
        <ele>866.48</ele>
        <time>2021-03-27T13:36:41Z</time>
      </trkpt>
      <trkpt lat="41.866509" lon="-6.409954">
        <ele>864.2</ele>
        <time>2021-03-27T13:36:44Z</time>
      </trkpt>
      <trkpt lat="41.866525" lon="-6.410321">
        <ele>862.75</ele>
        <time>2021-03-27T13:36:47Z</time>
      </trkpt>
      <trkpt lat="41.866497" lon="-6.410693">
        <ele>860.89</ele>
        <time>2021-03-27T13:36:50Z</time>
      </trkpt>
      <trkpt lat="41.866418" lon="-6.411117">
        <ele>859.21</ele>
        <time>2021-03-27T13:36:53Z</time>
      </trkpt>
      <trkpt lat="41.865522" lon="-6.414822">
        <ele>861.8</ele>
        <time>2021-03-27T13:36:57Z</time>
      </trkpt>
      <trkpt lat="41.865452" lon="-6.415259">
        <ele>861.63</ele>
        <time>2021-03-27T13:37:00Z</time>
      </trkpt>
      <trkpt lat="41.865432" lon="-6.415666">
        <ele>861.11</ele>
        <time>2021-03-27T13:37:03Z</time>
      </trkpt>
      <trkpt lat="41.865444" lon="-6.415939">
        <ele>860.82</ele>
        <time>2021-03-27T13:37:06Z</time>
      </trkpt>
      <trkpt lat="41.86602" lon="-6.423893">
        <ele>841.97</ele>
        <time>2021-03-27T13:37:09Z</time>
      </trkpt>
      <trkpt lat="41.86604" lon="-6.424479">
        <ele>839.74</ele>
        <time>2021-03-27T13:37:13Z</time>
      </trkpt>
      <trkpt lat="41.866003" lon="-6.424921">
        <ele>839.61</ele>
        <time>2021-03-27T13:37:16Z</time>
      </trkpt>
      <trkpt lat="41.865885" lon="-6.425351">
        <ele>839.4</ele>
        <time>2021-03-27T13:37:19Z</time>
      </trkpt>
      <trkpt lat="41.865485" lon="-6.42642">
        <ele>841.45</ele>
        <time>2021-03-27T13:37:22Z</time>
      </trkpt>
      <trkpt lat="41.865434" lon="-6.426614">
        <ele>842.7</ele>
        <time>2021-03-27T13:37:25Z</time>
      </trkpt>
      <trkpt lat="41.86537" lon="-6.426999">
        <ele>844.53</ele>
        <time>2021-03-27T13:37:29Z</time>
      </trkpt>
      <trkpt lat="41.865355" lon="-6.427439">
        <ele>844.93</ele>
        <time>2021-03-27T13:37:32Z</time>
      </trkpt>
      <trkpt lat="41.865417" lon="-6.430568">
        <ele>857.57</ele>
        <time>2021-03-27T13:37:35Z</time>
      </trkpt>
      <trkpt lat="41.865388" lon="-6.430894">
        <ele>859.36</ele>
        <time>2021-03-27T13:37:38Z</time>
      </trkpt>
      <trkpt lat="41.86511" lon="-6.432517">
        <ele>864.53</ele>
        <time>2021-03-27T13:37:41Z</time>
      </trkpt>
      <trkpt lat="41.865077" lon="-6.432801">
        <ele>863.09</ele>
        <time>2021-03-27T13:37:45Z</time>
      </trkpt>
      <trkpt lat="41.865074" lon="-6.433248">
        <ele>862.11</ele>
        <time>2021-03-27T13:37:48Z</time>
      </trkpt>
      <trkpt lat="41.865119" lon="-6.433612">
        <ele>860.85</ele>
        <time>2021-03-27T13:37:51Z</time>
      </trkpt>
      <trkpt lat="41.865206" lon="-6.433951">
        <ele>860.0</ele>
        <time>2021-03-27T13:37:54Z</time>
      </trkpt>
      <trkpt lat="41.866128" lon="-6.436615">
        <ele>859.31</ele>
        <time>2021-03-27T13:37:57Z</time>
      </trkpt>
      <trkpt lat="41.866265" lon="-6.436906">
        <ele>859.63</ele>
        <time>2021-03-27T13:38:01Z</time>
      </trkpt>
      <trkpt lat="41.866972" lon="-6.4382">
        <ele>858.76</ele>
        <time>2021-03-27T13:38:04Z</time>
      </trkpt>
      <trkpt lat="41.8676" lon="-6.439429">
        <ele>861.41</ele>
        <time>2021-03-27T13:38:07Z</time>
      </trkpt>
      <trkpt lat="41.868088" lon="-6.440288">
        <ele>863.12</ele>
        <time>2021-03-27T13:38:10Z</time>
      </trkpt>
      <trkpt lat="41.868469" lon="-6.441015">
        <ele>863.65</ele>
        <time>2021-03-27T13:38:13Z</time>
      </trkpt>
      <trkpt lat="41.868608" lon="-6.441333">
        <ele>864.16</ele>
        <time>2021-03-27T13:38:17Z</time>
      </trkpt>
      <trkpt lat="41.868659" lon="-6.441508">
        <ele>864.09</ele>
        <time>2021-03-27T13:38:20Z</time>
      </trkpt>
      <trkpt lat="41.86889" lon="-6.442627">
        <ele>865.56</ele>
        <time>2021-03-27T13:38:23Z</time>
      </trkpt>
      <trkpt lat="41.868921" lon="-6.442869">
        <ele>865.39</ele>
        <time>2021-03-27T13:38:26Z</time>
      </trkpt>
      <trkpt lat="41.869231" lon="-6.44461">
        <ele>864.56</ele>
        <time>2021-03-27T13:38:29Z</time>
      </trkpt>
      <trkpt lat="41.869253" lon="-6.444935">
        <ele>863.86</ele>
        <time>2021-03-27T13:38:33Z</time>
      </trkpt>
      <trkpt lat="41.869224" lon="-6.445482">
        <ele>863.41</ele>
        <time>2021-03-27T13:38:36Z</time>
      </trkpt>
      <trkpt lat="41.869227" lon="-6.445651">
        <ele>863.44</ele>
        <time>2021-03-27T13:38:39Z</time>
      </trkpt>
      <trkpt lat="41.86931" lon="-6.446178">
        <ele>863.43</ele>
        <time>2021-03-27T13:38:42Z</time>
      </trkpt>
      <trkpt lat="41.869341" lon="-6.446316">
        <ele>863.61</ele>
        <time>2021-03-27T13:38:45Z</time>
      </trkpt>
      <trkpt lat="41.869448" lon="-6.446629">
        <ele>865.03</ele>
        <time>2021-03-27T13:38:49Z</time>
      </trkpt>
      <trkpt lat="41.869595" lon="-6.446843">
        <ele>865.45</ele>
        <time>2021-03-27T13:38:52Z</time>
      </trkpt>
      <trkpt lat="41.869671" lon="-6.447032">
        <ele>865.63</ele>
        <time>2021-03-27T13:38:55Z</time>
      </trkpt>
      <trkpt lat="41.869771" lon="-6.447531">
        <ele>866.08</ele>
        <time>2021-03-27T13:38:58Z</time>
      </trkpt>
      <trkpt lat="41.869805" lon="-6.447794">
        <ele>865.53</ele>
        <time>2021-03-27T13:39:01Z</time>
      </trkpt>
      <trkpt lat="41.869807" lon="-6.448117">
        <ele>864.68</ele>
        <time>2021-03-27T13:39:05Z</time>
      </trkpt>
      <trkpt lat="41.869732" lon="-6.448482">
        <ele>864.66</ele>
        <time>2021-03-27T13:39:08Z</time>
      </trkpt>
      <trkpt lat="41.869356" lon="-6.449352">
        <ele>864.62</ele>
        <time>2021-03-27T13:39:11Z</time>
      </trkpt>
      <trkpt lat="41.869291" lon="-6.449537">
        <ele>864.39</ele>
        <time>2021-03-27T13:39:14Z</time>
      </trkpt>
      <trkpt lat="41.869256" lon="-6.449691">
        <ele>863.9</ele>
        <time>2021-03-27T13:39:17Z</time>
      </trkpt>
      <trkpt lat="41.869247" lon="-6.450015">
        <ele>865.13</ele>
        <time>2021-03-27T13:39:21Z</time>
      </trkpt>
      <trkpt lat="41.86927" lon="-6.451061">
        <ele>868.9</ele>
        <time>2021-03-27T13:39:24Z</time>
      </trkpt>
      <trkpt lat="41.869251" lon="-6.45158">
        <ele>870.71</ele>
        <time>2021-03-27T13:39:27Z</time>
      </trkpt>
      <trkpt lat="41.869295" lon="-6.452069">
        <ele>872.99</ele>
        <time>2021-03-27T13:39:30Z</time>
      </trkpt>
      <trkpt lat="41.869386" lon="-6.452558">
        <ele>875.53</ele>
        <time>2021-03-27T13:39:33Z</time>
      </trkpt>
      <trkpt lat="41.869518" lon="-6.452999">
        <ele>877.05</ele>
        <time>2021-03-27T13:39:37Z</time>
      </trkpt>
      <trkpt lat="41.86985" lon="-6.453806">
        <ele>878.66</ele>
        <time>2021-03-27T13:39:40Z</time>
      </trkpt>
      <trkpt lat="41.869915" lon="-6.454002">
        <ele>878.64</ele>
        <time>2021-03-27T13:39:43Z</time>
      </trkpt>
      <trkpt lat="41.870005" lon="-6.454415">
        <ele>879.24</ele>
        <time>2021-03-27T13:39:46Z</time>
      </trkpt>
      <trkpt lat="41.870049" lon="-6.454837">
        <ele>880.92</ele>
        <time>2021-03-27T13:39:49Z</time>
      </trkpt>
      <trkpt lat="41.870016" lon="-6.455542">
        <ele>882.17</ele>
        <time>2021-03-27T13:39:53Z</time>
      </trkpt>
      <trkpt lat="41.870026" lon="-6.45585">
        <ele>881.56</ele>
        <time>2021-03-27T13:39:56Z</time>
      </trkpt>
      <trkpt lat="41.870084" lon="-6.456183">
        <ele>882.55</ele>
        <time>2021-03-27T13:39:59Z</time>
      </trkpt>
      <trkpt lat="41.870204" lon="-6.456625">
        <ele>883.57</ele>
        <time>2021-03-27T13:40:02Z</time>
      </trkpt>
      <trkpt lat="41.870238" lon="-6.456844">
        <ele>884.24</ele>
        <time>2021-03-27T13:40:05Z</time>
      </trkpt>
      <trkpt lat="41.870243" lon="-6.456992">
        <ele>884.54</ele>
        <time>2021-03-27T13:40:09Z</time>
      </trkpt>
      <trkpt lat="41.870226" lon="-6.457177">
        <ele>884.91</ele>
        <time>2021-03-27T13:40:12Z</time>
      </trkpt>
      <trkpt lat="41.870187" lon="-6.457333">
        <ele>884.9</ele>
        <time>2021-03-27T13:40:15Z</time>
      </trkpt>
      <trkpt lat="41.869929" lon="-6.457912">
        <ele>884.3</ele>
        <time>2021-03-27T13:40:18Z</time>
      </trkpt>
      <trkpt lat="41.869844" lon="-6.458174">
        <ele>884.49</ele>
        <time>2021-03-27T13:40:21Z</time>
      </trkpt>
      <trkpt lat="41.869774" lon="-6.458458">
        <ele>885.02</ele>
        <time>2021-03-27T13:40:25Z</time>
      </trkpt>
      <trkpt lat="41.869705" lon="-6.459078">
        <ele>887.24</ele>
        <time>2021-03-27T13:40:28Z</time>
      </trkpt>
      <trkpt lat="41.869596" lon="-6.460958">
        <ele>881.15</ele>
        <time>2021-03-27T13:40:31Z</time>
      </trkpt>
      <trkpt lat="41.869585" lon="-6.461467">
        <ele>880.55</ele>
        <time>2021-03-27T13:40:34Z</time>
      </trkpt>
      <trkpt lat="41.869602" lon="-6.463002">
        <ele>887.21</ele>
        <time>2021-03-27T13:40:37Z</time>
      </trkpt>
      <trkpt lat="41.869554" lon="-6.463943">
        <ele>890.62</ele>
        <time>2021-03-27T13:40:41Z</time>
      </trkpt>
      <trkpt lat="41.869522" lon="-6.46424">
        <ele>892.0</ele>
        <time>2021-03-27T13:40:44Z</time>
      </trkpt>
      <trkpt lat="41.869472" lon="-6.46447">
        <ele>892.52</ele>
        <time>2021-03-27T13:40:47Z</time>
      </trkpt>
      <trkpt lat="41.869319" lon="-6.464828">
        <ele>892.63</ele>
        <time>2021-03-27T13:40:50Z</time>
      </trkpt>
      <trkpt lat="41.868974" lon="-6.465244">
        <ele>892.72</ele>
        <time>2021-03-27T13:40:53Z</time>
      </trkpt>
      <trkpt lat="41.868878" lon="-6.465374">
        <ele>892.87</ele>
        <time>2021-03-27T13:40:57Z</time>
      </trkpt>
      <trkpt lat="41.868806" lon="-6.465513">
        <ele>892.65</ele>
        <time>2021-03-27T13:41:00Z</time>
      </trkpt>
      <trkpt lat="41.868739" lon="-6.465699">
        <ele>893.3</ele>
        <time>2021-03-27T13:41:03Z</time>
      </trkpt>
      <trkpt lat="41.868683" lon="-6.465921">
        <ele>894.59</ele>
        <time>2021-03-27T13:41:06Z</time>
      </trkpt>
      <trkpt lat="41.868663" lon="-6.466155">
        <ele>895.15</ele>
        <time>2021-03-27T13:41:09Z</time>
      </trkpt>
      <trkpt lat="41.868674" lon="-6.466318">
        <ele>894.9</ele>
        <time>2021-03-27T13:41:13Z</time>
      </trkpt>
      <trkpt lat="41.86872" lon="-6.46662">
        <ele>893.48</ele>
        <time>2021-03-27T13:41:16Z</time>
      </trkpt>
      <trkpt lat="41.868809" lon="-6.467028">
        <ele>890.36</ele>
        <time>2021-03-27T13:41:19Z</time>
      </trkpt>
      <trkpt lat="41.869156" lon="-6.468188">
        <ele>886.78</ele>
        <time>2021-03-27T13:41:22Z</time>
      </trkpt>
      <trkpt lat="41.869215" lon="-6.468485">
        <ele>885.42</ele>
        <time>2021-03-27T13:41:25Z</time>
      </trkpt>
      <trkpt lat="41.869231" lon="-6.46865">
        <ele>885.83</ele>
        <time>2021-03-27T13:41:29Z</time>
      </trkpt>
      <trkpt lat="41.869223" lon="-6.468946">
        <ele>886.97</ele>
        <time>2021-03-27T13:41:32Z</time>
      </trkpt>
      <trkpt lat="41.869096" lon="-6.469906">
        <ele>881.95</ele>
        <time>2021-03-27T13:41:35Z</time>
      </trkpt>
      <trkpt lat="41.869111" lon="-6.470328">
        <ele>881.97</ele>
        <time>2021-03-27T13:41:38Z</time>
      </trkpt>
      <trkpt lat="41.869528" lon="-6.473288">
        <ele>867.63</ele>
        <time>2021-03-27T13:41:41Z</time>
      </trkpt>
      <trkpt lat="41.869554" lon="-6.474089">
        <ele>865.07</ele>
        <time>2021-03-27T13:41:45Z</time>
      </trkpt>
      <trkpt lat="41.869389" lon="-6.478093">
        <ele>843.17</ele>
        <time>2021-03-27T13:41:48Z</time>
      </trkpt>
      <trkpt lat="41.869439" lon="-6.478879">
        <ele>843.93</ele>
        <time>2021-03-27T13:41:51Z</time>
      </trkpt>
      <trkpt lat="41.870105" lon="-6.481185">
        <ele>842.28</ele>
        <time>2021-03-27T13:41:54Z</time>
      </trkpt>
      <trkpt lat="41.870485" lon="-6.482747">
        <ele>835.65</ele>
        <time>2021-03-27T13:41:57Z</time>
      </trkpt>
      <trkpt lat="41.870705" lon="-6.483355">
        <ele>835.96</ele>
        <time>2021-03-27T13:42:01Z</time>
      </trkpt>
      <trkpt lat="41.87147" lon="-6.484993">
        <ele>829.84</ele>
        <time>2021-03-27T13:42:04Z</time>
      </trkpt>
      <trkpt lat="41.87161" lon="-6.485417">
        <ele>828.86</ele>
        <time>2021-03-27T13:42:07Z</time>
      </trkpt>
      <trkpt lat="41.871835" lon="-6.486412">
        <ele>828.59</ele>
        <time>2021-03-27T13:42:10Z</time>
      </trkpt>
      <trkpt lat="41.872246" lon="-6.488947">
        <ele>818.48</ele>
        <time>2021-03-27T13:42:13Z</time>
      </trkpt>
      <trkpt lat="41.872343" lon="-6.489796">
        <ele>817.9</ele>
        <time>2021-03-27T13:42:17Z</time>
      </trkpt>
      <trkpt lat="41.872383" lon="-6.490685">
        <ele>815.16</ele>
        <time>2021-03-27T13:42:20Z</time>
      </trkpt>
      <trkpt lat="41.872323" lon="-6.492131">
        <ele>811.27</ele>
        <time>2021-03-27T13:42:23Z</time>
      </trkpt>
      <trkpt lat="41.87223" lon="-6.49239">
        <ele>807.32</ele>
        <time>2021-03-27T13:42:26Z</time>
      </trkpt>
      <trkpt lat="41.872104" lon="-6.492532">
        <ele>804.99</ele>
        <time>2021-03-27T13:42:29Z</time>
      </trkpt>
      <trkpt lat="41.871868" lon="-6.492604">
        <ele>803.46</ele>
        <time>2021-03-27T13:42:32Z</time>
      </trkpt>
      <trkpt lat="41.871677" lon="-6.49254">
        <ele>803.99</ele>
        <time>2021-03-27T13:42:36Z</time>
      </trkpt>
      <trkpt lat="41.871523" lon="-6.49238">
        <ele>803.13</ele>
        <time>2021-03-27T13:42:39Z</time>
      </trkpt>
      <trkpt lat="41.870986" lon="-6.49158">
        <ele>796.66</ele>
        <time>2021-03-27T13:42:42Z</time>
      </trkpt>
      <trkpt lat="41.870734" lon="-6.491456">
        <ele>795.96</ele>
        <time>2021-03-27T13:42:45Z</time>
      </trkpt>
      <trkpt lat="41.870536" lon="-6.491458">
        <ele>795.81</ele>
        <time>2021-03-27T13:42:48Z</time>
      </trkpt>
      <trkpt lat="41.870334" lon="-6.49155">
        <ele>794.34</ele>
        <time>2021-03-27T13:42:52Z</time>
      </trkpt>
      <trkpt lat="41.869415" lon="-6.49234">
        <ele>783.1</ele>
        <time>2021-03-27T13:42:55Z</time>
      </trkpt>
      <trkpt lat="41.869296" lon="-6.492586">
        <ele>781.94</ele>
        <time>2021-03-27T13:42:58Z</time>
      </trkpt>
      <trkpt lat="41.869288" lon="-6.492952">
        <ele>779.35</ele>
        <time>2021-03-27T13:43:01Z</time>
      </trkpt>
      <trkpt lat="41.86939" lon="-6.493193">
        <ele>776.53</ele>
        <time>2021-03-27T13:43:04Z</time>
      </trkpt>
      <trkpt lat="41.86957" lon="-6.49335">
        <ele>773.7</ele>
        <time>2021-03-27T13:43:08Z</time>
      </trkpt>
      <trkpt lat="41.87012" lon="-6.493442">
        <ele>772.91</ele>
        <time>2021-03-27T13:43:11Z</time>
      </trkpt>
      <trkpt lat="41.870282" lon="-6.49354">
        <ele>771.94</ele>
        <time>2021-03-27T13:43:14Z</time>
      </trkpt>
      <trkpt lat="41.870404" lon="-6.49373">
        <ele>771.51</ele>
        <time>2021-03-27T13:43:17Z</time>
      </trkpt>
      <trkpt lat="41.870543" lon="-6.494247">
        <ele>766.21</ele>
        <time>2021-03-27T13:43:20Z</time>
      </trkpt>
      <trkpt lat="41.870726" lon="-6.494513">
        <ele>763.1</ele>
        <time>2021-03-27T13:43:24Z</time>
      </trkpt>
      <trkpt lat="41.870956" lon="-6.494645">
        <ele>761.64</ele>
        <time>2021-03-27T13:43:27Z</time>
      </trkpt>
      <trkpt lat="41.871472" lon="-6.494758">
        <ele>764.34</ele>
        <time>2021-03-27T13:43:30Z</time>
      </trkpt>
      <trkpt lat="41.871626" lon="-6.494856">
        <ele>764.46</ele>
        <time>2021-03-27T13:43:33Z</time>
      </trkpt>
      <trkpt lat="41.871733" lon="-6.49501">
        <ele>763.53</ele>
        <time>2021-03-27T13:43:36Z</time>
      </trkpt>
      <trkpt lat="41.871807" lon="-6.495393">
        <ele>761.43</ele>
        <time>2021-03-27T13:43:40Z</time>
      </trkpt>
      <trkpt lat="41.871604" lon="-6.496226">
        <ele>750.72</ele>
        <time>2021-03-27T13:43:43Z</time>
      </trkpt>
      <trkpt lat="41.871588" lon="-6.496705">
        <ele>749.79</ele>
        <time>2021-03-27T13:43:46Z</time>
      </trkpt>
      <trkpt lat="41.871738" lon="-6.497166">
        <ele>747.27</ele>
        <time>2021-03-27T13:43:49Z</time>
      </trkpt>
      <trkpt lat="41.872276" lon="-6.497883">
        <ele>748.29</ele>
        <time>2021-03-27T13:43:52Z</time>
      </trkpt>
      <trkpt lat="41.872335" lon="-6.498114">
        <ele>746.49</ele>
        <time>2021-03-27T13:43:56Z</time>
      </trkpt>
      <trkpt lat="41.872334" lon="-6.498782">
        <ele>739.13</ele>
        <time>2021-03-27T13:43:59Z</time>
      </trkpt>
      <trkpt lat="41.872411" lon="-6.499042">
        <ele>738.04</ele>
        <time>2021-03-27T13:44:02Z</time>
      </trkpt>
      <trkpt lat="41.872618" lon="-6.499293">
        <ele>736.18</ele>
        <time>2021-03-27T13:44:05Z</time>
      </trkpt>
      <trkpt lat="41.872775" lon="-6.499364">
        <ele>735.03</ele>
        <time>2021-03-27T13:44:08Z</time>
      </trkpt>
      <trkpt lat="41.873439" lon="-6.499293">
        <ele>736.64</ele>
        <time>2021-03-27T13:44:12Z</time>
      </trkpt>
      <trkpt lat="41.873669" lon="-6.49933">
        <ele>737.34</ele>
        <time>2021-03-27T13:44:15Z</time>
      </trkpt>
      <trkpt lat="41.873861" lon="-6.499514">
        <ele>737.95</ele>
        <time>2021-03-27T13:44:18Z</time>
      </trkpt>
      <trkpt lat="41.873942" lon="-6.499734">
        <ele>738.61</ele>
        <time>2021-03-27T13:44:21Z</time>
      </trkpt>
      <trkpt lat="41.873953" lon="-6.500034">
        <ele>736.05</ele>
        <time>2021-03-27T13:44:24Z</time>
      </trkpt>
      <trkpt lat="41.873835" lon="-6.500846">
        <ele>727.39</ele>
        <time>2021-03-27T13:44:28Z</time>
      </trkpt>
      <trkpt lat="41.873966" lon="-6.501565">
        <ele>726.67</ele>
        <time>2021-03-27T13:44:31Z</time>
      </trkpt>
      <trkpt lat="41.873978" lon="-6.501857">
        <ele>726.47</ele>
        <time>2021-03-27T13:44:34Z</time>
      </trkpt>
      <trkpt lat="41.873861" lon="-6.502744">
        <ele>720.32</ele>
        <time>2021-03-27T13:44:37Z</time>
      </trkpt>
      <trkpt lat="41.873958" lon="-6.503992">
        <ele>716.52</ele>
        <time>2021-03-27T13:44:40Z</time>
      </trkpt>
      <trkpt lat="41.874044" lon="-6.504301">
        <ele>715.66</ele>
        <time>2021-03-27T13:44:44Z</time>
      </trkpt>
      <trkpt lat="41.874182" lon="-6.504549">
        <ele>713.28</ele>
        <time>2021-03-27T13:44:47Z</time>
      </trkpt>
      <trkpt lat="41.874429" lon="-6.504804">
        <ele>709.46</ele>
        <time>2021-03-27T13:44:50Z</time>
      </trkpt>
      <trkpt lat="41.875003" lon="-6.505319">
        <ele>710.43</ele>
        <time>2021-03-27T13:44:53Z</time>
      </trkpt>
      <trkpt lat="41.8756" lon="-6.505625">
        <ele>706.89</ele>
        <time>2021-03-27T13:44:56Z</time>
      </trkpt>
      <trkpt lat="41.87573" lon="-6.505882">
        <ele>703.94</ele>
        <time>2021-03-27T13:45:00Z</time>
      </trkpt>
      <trkpt lat="41.875732" lon="-6.5061">
        <ele>703.14</ele>
        <time>2021-03-27T13:45:03Z</time>
      </trkpt>
      <trkpt lat="41.87565" lon="-6.50632">
        <ele>701.97</ele>
        <time>2021-03-27T13:45:06Z</time>
      </trkpt>
      <trkpt lat="41.875492" lon="-6.506461">
        <ele>700.53</ele>
        <time>2021-03-27T13:45:09Z</time>
      </trkpt>
      <trkpt lat="41.87529" lon="-6.506476">
        <ele>699.78</ele>
        <time>2021-03-27T13:45:12Z</time>
      </trkpt>
      <trkpt lat="41.875052" lon="-6.5064">
        <ele>698.46</ele>
        <time>2021-03-27T13:45:16Z</time>
      </trkpt>
      <trkpt lat="41.874881" lon="-6.506258">
        <ele>696.38</ele>
        <time>2021-03-27T13:45:19Z</time>
      </trkpt>
      <trkpt lat="41.874618" lon="-6.50578">
        <ele>695.89</ele>
        <time>2021-03-27T13:45:22Z</time>
      </trkpt>
      <trkpt lat="41.87441" lon="-6.505587">
        <ele>695.28</ele>
        <time>2021-03-27T13:45:25Z</time>
      </trkpt>
      <trkpt lat="41.873493" lon="-6.505523">
        <ele>687.89</ele>
        <time>2021-03-27T13:45:28Z</time>
      </trkpt>
      <trkpt lat="41.873144" lon="-6.50538">
        <ele>685.68</ele>
        <time>2021-03-27T13:45:32Z</time>
      </trkpt>
      <trkpt lat="41.872892" lon="-6.505134">
        <ele>684.3</ele>
        <time>2021-03-27T13:45:35Z</time>
      </trkpt>
      <trkpt lat="41.872752" lon="-6.504821">
        <ele>682.92</ele>
        <time>2021-03-27T13:45:38Z</time>
      </trkpt>
      <trkpt lat="41.872725" lon="-6.504612">
        <ele>682.88</ele>
        <time>2021-03-27T13:45:41Z</time>
      </trkpt>
      <trkpt lat="41.872793" lon="-6.504016">
        <ele>686.49</ele>
        <time>2021-03-27T13:45:44Z</time>
      </trkpt>
      <trkpt lat="41.872755" lon="-6.503801">
        <ele>687.52</ele>
        <time>2021-03-27T13:45:48Z</time>
      </trkpt>
      <trkpt lat="41.872655" lon="-6.50366">
        <ele>686.89</ele>
        <time>2021-03-27T13:45:51Z</time>
      </trkpt>
      <trkpt lat="41.872531" lon="-6.503601">
        <ele>684.74</ele>
        <time>2021-03-27T13:45:54Z</time>
      </trkpt>
      <trkpt lat="41.872414" lon="-6.503621">
        <ele>681.75</ele>
        <time>2021-03-27T13:45:57Z</time>
      </trkpt>
      <trkpt lat="41.872296" lon="-6.503744">
        <ele>677.92</ele>
        <time>2021-03-27T13:46:00Z</time>
      </trkpt>
      <trkpt lat="41.872248" lon="-6.504042">
        <ele>674.5</ele>
        <time>2021-03-27T13:46:04Z</time>
      </trkpt>
      <trkpt lat="41.872409" lon="-6.505265">
        <ele>670.5</ele>
        <time>2021-03-27T13:46:07Z</time>
      </trkpt>
      <trkpt lat="41.872529" lon="-6.505599">
        <ele>670.12</ele>
        <time>2021-03-27T13:46:10Z</time>
      </trkpt>
      <trkpt lat="41.873125" lon="-6.506709">
        <ele>664.35</ele>
        <time>2021-03-27T13:46:13Z</time>
      </trkpt>
      <trkpt lat="41.873294" lon="-6.507309">
        <ele>658.05</ele>
        <time>2021-03-27T13:46:16Z</time>
      </trkpt>
      <trkpt lat="41.873309" lon="-6.507602">
        <ele>656.38</ele>
        <time>2021-03-27T13:46:20Z</time>
      </trkpt>
      <trkpt lat="41.873165" lon="-6.509579">
        <ele>650.29</ele>
        <time>2021-03-27T13:46:23Z</time>
      </trkpt>
      <trkpt lat="41.873264" lon="-6.51003">
        <ele>647.95</ele>
        <time>2021-03-27T13:46:26Z</time>
      </trkpt>
      <trkpt lat="41.873417" lon="-6.510252">
        <ele>646.6</ele>
        <time>2021-03-27T13:46:29Z</time>
      </trkpt>
      <trkpt lat="41.873635" lon="-6.510399">
        <ele>644.47</ele>
        <time>2021-03-27T13:46:32Z</time>
      </trkpt>
      <trkpt lat="41.874155" lon="-6.510523">
        <ele>644.51</ele>
        <time>2021-03-27T13:46:36Z</time>
      </trkpt>
      <trkpt lat="41.875402" lon="-6.510312">
        <ele>641.2</ele>
        <time>2021-03-27T13:46:39Z</time>
      </trkpt>
      <trkpt lat="41.875938" lon="-6.510169">
        <ele>641.65</ele>
        <time>2021-03-27T13:46:42Z</time>
      </trkpt>
      <trkpt lat="41.876313" lon="-6.510019">
        <ele>642.01</ele>
        <time>2021-03-27T13:46:45Z</time>
      </trkpt>
      <trkpt lat="41.876439" lon="-6.510023">
        <ele>642.29</ele>
        <time>2021-03-27T13:46:48Z</time>
      </trkpt>
      <trkpt lat="41.876478" lon="-6.510058">
        <ele>642.66</ele>
        <time>2021-03-27T13:46:52Z</time>
      </trkpt>
      <trkpt lat="41.876564" lon="-6.510202">
        <ele>644.27</ele>
        <time>2021-03-27T13:46:55Z</time>
      </trkpt>
      <trkpt lat="41.876578" lon="-6.510289">
        <ele>645.17</ele>
        <time>2021-03-27T13:46:58Z</time>
      </trkpt>
      <trkpt lat="41.877024" lon="-6.510162">
        <ele>650.06</ele>
        <time>2021-03-27T13:47:00Z</time>
      </trkpt>
      <trkpt lat="41.87713" lon="-6.510111">
        <ele>650.68</ele>
        <time>2021-03-27T13:47:02Z</time>
      </trkpt>
      <trkpt lat="41.877341" lon="-6.509914">
        <ele>650.76</ele>
        <time>2021-03-27T13:47:04Z</time>
      </trkpt>
      <trkpt lat="41.877435" lon="-6.509775">
        <ele>649.31</ele>
        <time>2021-03-27T13:47:06Z</time>
      </trkpt>
      <trkpt lat="41.877491" lon="-6.50965">
        <ele>647.35</ele>
        <time>2021-03-27T13:47:08Z</time>
      </trkpt>
      <trkpt lat="41.877525" lon="-6.509525">
        <ele>645.34</ele>
        <time>2021-03-27T13:47:10Z</time>
      </trkpt>
      <trkpt lat="41.877551" lon="-6.50923">
        <ele>643.37</ele>
        <time>2021-03-27T13:47:11Z</time>
      </trkpt>
      <trkpt lat="41.877452" lon="-6.508263">
        <ele>643.13</ele>
        <time>2021-03-27T13:47:13Z</time>
      </trkpt>
      <trkpt lat="41.87745" lon="-6.507765">
        <ele>645.04</ele>
        <time>2021-03-27T13:47:15Z</time>
      </trkpt>
      <trkpt lat="41.877492" lon="-6.507218">
        <ele>645.96</ele>
        <time>2021-03-27T13:47:17Z</time>
      </trkpt>
      <trkpt lat="41.87753" lon="-6.507051">
        <ele>645.6</ele>
        <time>2021-03-27T13:47:19Z</time>
      </trkpt>
      <trkpt lat="41.877601" lon="-6.506856">
        <ele>645.41</ele>
        <time>2021-03-27T13:47:21Z</time>
      </trkpt>
      <trkpt lat="41.877752" lon="-6.506574">
        <ele>645.81</ele>
        <time>2021-03-27T13:47:23Z</time>
      </trkpt>
      <trkpt lat="41.877936" lon="-6.506287">
        <ele>648.08</ele>
        <time>2021-03-27T13:47:25Z</time>
      </trkpt>
      <trkpt lat="41.878084" lon="-6.50609">
        <ele>649.14</ele>
        <time>2021-03-27T13:47:27Z</time>
      </trkpt>
      <trkpt lat="41.87898" lon="-6.50512">
        <ele>649.08</ele>
        <time>2021-03-27T13:47:29Z</time>
      </trkpt>
      <trkpt lat="41.879173" lon="-6.504877">
        <ele>649.76</ele>
        <time>2021-03-27T13:47:31Z</time>
      </trkpt>
      <trkpt lat="41.879353" lon="-6.504517">
        <ele>653.38</ele>
        <time>2021-03-27T13:47:32Z</time>
      </trkpt>
      <trkpt lat="41.879399" lon="-6.504364">
        <ele>653.54</ele>
        <time>2021-03-27T13:47:34Z</time>
      </trkpt>
      <trkpt lat="41.87946" lon="-6.504007">
        <ele>652.23</ele>
        <time>2021-03-27T13:47:36Z</time>
      </trkpt>
      <trkpt lat="41.879533" lon="-6.503187">
        <ele>649.92</ele>
        <time>2021-03-27T13:47:38Z</time>
      </trkpt>
      <trkpt lat="41.879528" lon="-6.503013">
        <ele>649.77</ele>
        <time>2021-03-27T13:47:40Z</time>
      </trkpt>
      <trkpt lat="41.879386" lon="-6.501817">
        <ele>649.49</ele>
        <time>2021-03-27T13:47:42Z</time>
      </trkpt>
      <trkpt lat="41.879254" lon="-6.500512">
        <ele>650.15</ele>
        <time>2021-03-27T13:47:44Z</time>
      </trkpt>
      <trkpt lat="41.879208" lon="-6.499991">
        <ele>651.63</ele>
        <time>2021-03-27T13:47:46Z</time>
      </trkpt>
      <trkpt lat="41.879217" lon="-6.499622">
        <ele>653.45</ele>
        <time>2021-03-27T13:47:48Z</time>
      </trkpt>
      <trkpt lat="41.879228" lon="-6.49949">
        <ele>654.15</ele>
        <time>2021-03-27T13:47:50Z</time>
      </trkpt>
      <trkpt lat="41.879301" lon="-6.499205">
        <ele>657.63</ele>
        <time>2021-03-27T13:47:52Z</time>
      </trkpt>
      <trkpt lat="41.879464" lon="-6.498932">
        <ele>660.3</ele>
        <time>2021-03-27T13:47:53Z</time>
      </trkpt>
      <trkpt lat="41.879641" lon="-6.498684">
        <ele>660.68</ele>
        <time>2021-03-27T13:47:55Z</time>
      </trkpt>
      <trkpt lat="41.879691" lon="-6.498636">
        <ele>660.86</ele>
        <time>2021-03-27T13:47:57Z</time>
      </trkpt>
      <trkpt lat="41.879719" lon="-6.498638">
        <ele>661.07</ele>
        <time>2021-03-27T13:48:00Z</time>
      </trkpt>
      <trkpt lat="41.879852" lon="-6.498782">
        <ele>662.55</ele>
        <time>2021-03-27T13:48:04Z</time>
      </trkpt>
      <trkpt lat="41.88035" lon="-6.49973">
        <ele>671.0</ele>
        <time>2021-03-27T13:48:07Z</time>
      </trkpt>
      <trkpt lat="41.880406" lon="-6.499807">
        <ele>671.0</ele>
        <time>2021-03-27T13:48:10Z</time>
      </trkpt>
      <trkpt lat="41.880445" lon="-6.499828">
        <ele>671.0</ele>
        <time>2021-03-27T13:48:13Z</time>
      </trkpt>
      <trkpt lat="41.880602" lon="-6.499846">
        <ele>670.83</ele>
        <time>2021-03-27T13:48:16Z</time>
      </trkpt>
      <trkpt lat="41.880878" lon="-6.500063">
        <ele>670.68</ele>
        <time>2021-03-27T13:48:19Z</time>
      </trkpt>
      <trkpt lat="41.881096" lon="-6.500212">
        <ele>672.88</ele>
        <time>2021-03-27T13:48:22Z</time>
      </trkpt>
      <trkpt lat="41.881883" lon="-6.500672">
        <ele>681.07</ele>
        <time>2021-03-27T13:48:26Z</time>
      </trkpt>
      <trkpt lat="41.882228" lon="-6.501022">
        <ele>683.35</ele>
        <time>2021-03-27T13:48:29Z</time>
      </trkpt>
      <trkpt lat="41.882353" lon="-6.50119">
        <ele>685.42</ele>
        <time>2021-03-27T13:48:32Z</time>
      </trkpt>
      <trkpt lat="41.882698" lon="-6.501745">
        <ele>694.27</ele>
        <time>2021-03-27T13:48:35Z</time>
      </trkpt>
      <trkpt lat="41.882807" lon="-6.501885">
        <ele>696.35</ele>
        <time>2021-03-27T13:48:38Z</time>
      </trkpt>
      <trkpt lat="41.882982" lon="-6.502065">
        <ele>698.42</ele>
        <time>2021-03-27T13:48:41Z</time>
      </trkpt>
      <trkpt lat="41.883176" lon="-6.502207">
        <ele>699.81</ele>
        <time>2021-03-27T13:48:44Z</time>
      </trkpt>
      <trkpt lat="41.883309" lon="-6.502274">
        <ele>700.93</ele>
        <time>2021-03-27T13:48:48Z</time>
      </trkpt>
      <trkpt lat="41.883356" lon="-6.502268">
        <ele>701.15</ele>
        <time>2021-03-27T13:48:51Z</time>
      </trkpt>
      <trkpt lat="41.883446" lon="-6.502191">
        <ele>701.14</ele>
        <time>2021-03-27T13:48:54Z</time>
      </trkpt>
      <trkpt lat="41.8836" lon="-6.501915">
        <ele>698.35</ele>
        <time>2021-03-27T13:48:57Z</time>
      </trkpt>
      <trkpt lat="41.883663" lon="-6.50183">
        <ele>697.79</ele>
        <time>2021-03-27T13:49:00Z</time>
      </trkpt>
      <trkpt lat="41.883766" lon="-6.501735">
        <ele>697.59</ele>
        <time>2021-03-27T13:49:03Z</time>
      </trkpt>
      <trkpt lat="41.88398" lon="-6.501587">
        <ele>698.55</ele>
        <time>2021-03-27T13:49:06Z</time>
      </trkpt>
      <trkpt lat="41.884072" lon="-6.501457">
        <ele>698.88</ele>
        <time>2021-03-27T13:49:10Z</time>
      </trkpt>
      <trkpt lat="41.884088" lon="-6.501282">
        <ele>698.76</ele>
        <time>2021-03-27T13:49:13Z</time>
      </trkpt>
      <trkpt lat="41.884066" lon="-6.501195">
        <ele>698.38</ele>
        <time>2021-03-27T13:49:16Z</time>
      </trkpt>
      <trkpt lat="41.883868" lon="-6.500914">
        <ele>695.06</ele>
        <time>2021-03-27T13:49:19Z</time>
      </trkpt>
      <trkpt lat="41.883788" lon="-6.500769">
        <ele>694.73</ele>
        <time>2021-03-27T13:49:22Z</time>
      </trkpt>
      <trkpt lat="41.883705" lon="-6.500559">
        <ele>695.32</ele>
        <time>2021-03-27T13:49:25Z</time>
      </trkpt>
      <trkpt lat="41.883684" lon="-6.500462">
        <ele>695.54</ele>
        <time>2021-03-27T13:49:28Z</time>
      </trkpt>
      <trkpt lat="41.883682" lon="-6.500367">
        <ele>696.03</ele>
        <time>2021-03-27T13:49:32Z</time>
      </trkpt>
      <trkpt lat="41.883699" lon="-6.500276">
        <ele>696.63</ele>
        <time>2021-03-27T13:49:35Z</time>
      </trkpt>
      <trkpt lat="41.883736" lon="-6.500221">
        <ele>696.55</ele>
        <time>2021-03-27T13:49:38Z</time>
      </trkpt>
      <trkpt lat="41.883824" lon="-6.500174">
        <ele>696.19</ele>
        <time>2021-03-27T13:49:41Z</time>
      </trkpt>
      <trkpt lat="41.883884" lon="-6.50018">
        <ele>696.24</ele>
        <time>2021-03-27T13:49:44Z</time>
      </trkpt>
      <trkpt lat="41.884237" lon="-6.500401">
        <ele>700.81</ele>
        <time>2021-03-27T13:49:47Z</time>
      </trkpt>
      <trkpt lat="41.884413" lon="-6.500492">
        <ele>703.56</ele>
        <time>2021-03-27T13:49:50Z</time>
      </trkpt>
      <trkpt lat="41.884772" lon="-6.500616">
        <ele>708.71</ele>
        <time>2021-03-27T13:49:54Z</time>
      </trkpt>
      <trkpt lat="41.886742" lon="-6.501181">
        <ele>730.72</ele>
        <time>2021-03-27T13:49:57Z</time>
      </trkpt>
      <trkpt lat="41.886918" lon="-6.501178">
        <ele>731.87</ele>
        <time>2021-03-27T13:50:00Z</time>
      </trkpt>
      <trkpt lat="41.888358" lon="-6.500714">
        <ele>745.38</ele>
        <time>2021-03-27T13:50:03Z</time>
      </trkpt>
      <trkpt lat="41.889334" lon="-6.500475">
        <ele>754.52</ele>
        <time>2021-03-27T13:50:06Z</time>
      </trkpt>
      <trkpt lat="41.893925" lon="-6.500668">
        <ele>809.8</ele>
        <time>2021-03-27T13:50:09Z</time>
      </trkpt>
      <trkpt lat="41.894121" lon="-6.500707">
        <ele>811.47</ele>
        <time>2021-03-27T13:50:12Z</time>
      </trkpt>
      <trkpt lat="41.894339" lon="-6.500787">
        <ele>811.92</ele>
        <time>2021-03-27T13:50:16Z</time>
      </trkpt>
      <trkpt lat="41.894953" lon="-6.501239">
        <ele>816.4</ele>
        <time>2021-03-27T13:50:19Z</time>
      </trkpt>
      <trkpt lat="41.895069" lon="-6.501293">
        <ele>817.28</ele>
        <time>2021-03-27T13:50:22Z</time>
      </trkpt>
      <trkpt lat="41.89554" lon="-6.501416">
        <ele>820.54</ele>
        <time>2021-03-27T13:50:25Z</time>
      </trkpt>
      <trkpt lat="41.896014" lon="-6.501598">
        <ele>822.87</ele>
        <time>2021-03-27T13:50:28Z</time>
      </trkpt>
      <trkpt lat="41.896257" lon="-6.50173">
        <ele>822.52</ele>
        <time>2021-03-27T13:50:31Z</time>
      </trkpt>
      <trkpt lat="41.8971" lon="-6.502318">
        <ele>820.71</ele>
        <time>2021-03-27T13:50:34Z</time>
      </trkpt>
      <trkpt lat="41.897395" lon="-6.50243">
        <ele>821.78</ele>
        <time>2021-03-27T13:50:38Z</time>
      </trkpt>
      <trkpt lat="41.897573" lon="-6.502463">
        <ele>822.39</ele>
        <time>2021-03-27T13:50:41Z</time>
      </trkpt>
      <trkpt lat="41.897734" lon="-6.502472">
        <ele>822.94</ele>
        <time>2021-03-27T13:50:44Z</time>
      </trkpt>
      <trkpt lat="41.898046" lon="-6.502417">
        <ele>825.52</ele>
        <time>2021-03-27T13:50:47Z</time>
      </trkpt>
      <trkpt lat="41.901667" lon="-6.501174">
        <ele>833.22</ele>
        <time>2021-03-27T13:50:50Z</time>
      </trkpt>
      <trkpt lat="41.905424" lon="-6.499911">
        <ele>834.53</ele>
        <time>2021-03-27T13:50:53Z</time>
      </trkpt>
      <trkpt lat="41.905597" lon="-6.499836">
        <ele>835.83</ele>
        <time>2021-03-27T13:50:56Z</time>
      </trkpt>
      <trkpt lat="41.905848" lon="-6.499656">
        <ele>838.29</ele>
        <time>2021-03-27T13:51:00Z</time>
      </trkpt>
      <trkpt lat="41.906707" lon="-6.498753">
        <ele>846.51</ele>
        <time>2021-03-27T13:51:03Z</time>
      </trkpt>
      <trkpt lat="41.907015" lon="-6.498456">
        <ele>849.7</ele>
        <time>2021-03-27T13:51:06Z</time>
      </trkpt>
      <trkpt lat="41.907295" lon="-6.498228">
        <ele>850.26</ele>
        <time>2021-03-27T13:51:09Z</time>
      </trkpt>
      <trkpt lat="41.907591" lon="-6.498057">
        <ele>850.99</ele>
        <time>2021-03-27T13:51:12Z</time>
      </trkpt>
      <trkpt lat="41.908332" lon="-6.497716">
        <ele>855.89</ele>
        <time>2021-03-27T13:51:15Z</time>
      </trkpt>
      <trkpt lat="41.908542" lon="-6.497567">
        <ele>856.54</ele>
        <time>2021-03-27T13:51:18Z</time>
      </trkpt>
      <trkpt lat="41.90913" lon="-6.497028">
        <ele>858.62</ele>
        <time>2021-03-27T13:51:22Z</time>
      </trkpt>
      <trkpt lat="41.909287" lon="-6.496774">
        <ele>857.1</ele>
        <time>2021-03-27T13:51:25Z</time>
      </trkpt>
      <trkpt lat="41.909405" lon="-6.496342">
        <ele>853.54</ele>
        <time>2021-03-27T13:51:28Z</time>
      </trkpt>
      <trkpt lat="41.909461" lon="-6.496202">
        <ele>852.15</ele>
        <time>2021-03-27T13:51:31Z</time>
      </trkpt>
      <trkpt lat="41.909519" lon="-6.496097">
        <ele>851.51</ele>
        <time>2021-03-27T13:51:34Z</time>
      </trkpt>
      <trkpt lat="41.909696" lon="-6.495912">
        <ele>850.9</ele>
        <time>2021-03-27T13:51:37Z</time>
      </trkpt>
      <trkpt lat="41.910258" lon="-6.495431">
        <ele>848.56</ele>
        <time>2021-03-27T13:51:40Z</time>
      </trkpt>
      <trkpt lat="41.910857" lon="-6.494955">
        <ele>848.65</ele>
        <time>2021-03-27T13:51:44Z</time>
      </trkpt>
      <trkpt lat="41.911029" lon="-6.494844">
        <ele>846.63</ele>
        <time>2021-03-27T13:51:47Z</time>
      </trkpt>
      <trkpt lat="41.911554" lon="-6.494578">
        <ele>840.98</ele>
        <time>2021-03-27T13:51:50Z</time>
      </trkpt>
      <trkpt lat="41.91171" lon="-6.494472">
        <ele>841.27</ele>
        <time>2021-03-27T13:51:53Z</time>
      </trkpt>
      <trkpt lat="41.911878" lon="-6.494313">
        <ele>842.88</ele>
        <time>2021-03-27T13:51:56Z</time>
      </trkpt>
      <trkpt lat="41.912152" lon="-6.493972">
        <ele>846.77</ele>
        <time>2021-03-27T13:51:59Z</time>
      </trkpt>
      <trkpt lat="41.912197" lon="-6.493893">
        <ele>847.63</ele>
        <time>2021-03-27T13:52:02Z</time>
      </trkpt>
      <trkpt lat="41.912248" lon="-6.493769">
        <ele>848.97</ele>
        <time>2021-03-27T13:52:06Z</time>
      </trkpt>
      <trkpt lat="41.912293" lon="-6.493598">
        <ele>850.85</ele>
        <time>2021-03-27T13:52:09Z</time>
      </trkpt>
      <trkpt lat="41.91236" lon="-6.493236">
        <ele>853.97</ele>
        <time>2021-03-27T13:52:12Z</time>
      </trkpt>
      <trkpt lat="41.912424" lon="-6.493007">
        <ele>855.46</ele>
        <time>2021-03-27T13:52:15Z</time>
      </trkpt>
      <trkpt lat="41.912485" lon="-6.492857">
        <ele>856.13</ele>
        <time>2021-03-27T13:52:18Z</time>
      </trkpt>
      <trkpt lat="41.912547" lon="-6.49275">
        <ele>856.8</ele>
        <time>2021-03-27T13:52:21Z</time>
      </trkpt>
      <trkpt lat="41.912681" lon="-6.492607">
        <ele>858.28</ele>
        <time>2021-03-27T13:52:24Z</time>
      </trkpt>
      <trkpt lat="41.91295" lon="-6.492477">
        <ele>861.68</ele>
        <time>2021-03-27T13:52:28Z</time>
      </trkpt>
      <trkpt lat="41.913392" lon="-6.492319">
        <ele>866.31</ele>
        <time>2021-03-27T13:52:31Z</time>
      </trkpt>
      <trkpt lat="41.913495" lon="-6.492308">
        <ele>867.06</ele>
        <time>2021-03-27T13:52:34Z</time>
      </trkpt>
      <trkpt lat="41.91447" lon="-6.492389">
        <ele>872.77</ele>
        <time>2021-03-27T13:52:37Z</time>
      </trkpt>
      <trkpt lat="41.914998" lon="-6.492361">
        <ele>874.49</ele>
        <time>2021-03-27T13:52:40Z</time>
      </trkpt>
      <trkpt lat="41.915166" lon="-6.492333">
        <ele>874.56</ele>
        <time>2021-03-27T13:52:43Z</time>
      </trkpt>
      <trkpt lat="41.915334" lon="-6.492267">
        <ele>874.49</ele>
        <time>2021-03-27T13:52:46Z</time>
      </trkpt>
      <trkpt lat="41.915496" lon="-6.492107">
        <ele>874.37</ele>
        <time>2021-03-27T13:52:50Z</time>
      </trkpt>
      <trkpt lat="41.915951" lon="-6.49135">
        <ele>877.35</ele>
        <time>2021-03-27T13:52:53Z</time>
      </trkpt>
      <trkpt lat="41.916262" lon="-6.490898">
        <ele>880.85</ele>
        <time>2021-03-27T13:52:56Z</time>
      </trkpt>
      <trkpt lat="41.916418" lon="-6.490722">
        <ele>883.22</ele>
        <time>2021-03-27T13:52:59Z</time>
      </trkpt>
      <trkpt lat="41.91662" lon="-6.490636">
        <ele>886.76</ele>
        <time>2021-03-27T13:53:02Z</time>
      </trkpt>
      <trkpt lat="41.917338" lon="-6.490541">
        <ele>895.85</ele>
        <time>2021-03-27T13:53:05Z</time>
      </trkpt>
      <trkpt lat="41.918479" lon="-6.49045">
        <ele>907.36</ele>
        <time>2021-03-27T13:53:08Z</time>
      </trkpt>
      <trkpt lat="41.918791" lon="-6.490475">
        <ele>910.93</ele>
        <time>2021-03-27T13:53:12Z</time>
      </trkpt>
      <trkpt lat="41.920214" lon="-6.490726">
        <ele>923.99</ele>
        <time>2021-03-27T13:53:15Z</time>
      </trkpt>
      <trkpt lat="41.920457" lon="-6.490728">
        <ele>925.8</ele>
        <time>2021-03-27T13:53:18Z</time>
      </trkpt>
      <trkpt lat="41.921055" lon="-6.490532">
        <ele>933.73</ele>
        <time>2021-03-27T13:53:21Z</time>
      </trkpt>
      <trkpt lat="41.921702" lon="-6.490591">
        <ele>940.88</ele>
        <time>2021-03-27T13:53:24Z</time>
      </trkpt>
      <trkpt lat="41.921848" lon="-6.490581">
        <ele>943.71</ele>
        <time>2021-03-27T13:53:27Z</time>
      </trkpt>
      <trkpt lat="41.92188" lon="-6.490551">
        <ele>944.9</ele>
        <time>2021-03-27T13:53:30Z</time>
      </trkpt>
      <trkpt lat="41.921898" lon="-6.490492">
        <ele>946.12</ele>
        <time>2021-03-27T13:53:34Z</time>
      </trkpt>
      <trkpt lat="41.921898" lon="-6.490407">
        <ele>947.4</ele>
        <time>2021-03-27T13:53:37Z</time>
      </trkpt>
      <trkpt lat="41.92186" lon="-6.490333">
        <ele>947.92</ele>
        <time>2021-03-27T13:53:40Z</time>
      </trkpt>
      <trkpt lat="41.921397" lon="-6.489831">
        <ele>949.18</ele>
        <time>2021-03-27T13:53:43Z</time>
      </trkpt>
      <trkpt lat="41.920557" lon="-6.488975">
        <ele>957.85</ele>
        <time>2021-03-27T13:53:46Z</time>
      </trkpt>
      <trkpt lat="41.919613" lon="-6.487403">
        <ele>968.99</ele>
        <time>2021-03-27T13:53:49Z</time>
      </trkpt>
      <trkpt lat="41.919369" lon="-6.486911">
        <ele>974.45</ele>
        <time>2021-03-27T13:53:52Z</time>
      </trkpt>
      <trkpt lat="41.91875" lon="-6.485358">
        <ele>984.7</ele>
        <time>2021-03-27T13:53:56Z</time>
      </trkpt>
      <trkpt lat="41.918587" lon="-6.484858">
        <ele>986.3</ele>
        <time>2021-03-27T13:53:59Z</time>
      </trkpt>
      <trkpt lat="41.918397" lon="-6.484038">
        <ele>992.32</ele>
        <time>2021-03-27T13:54:02Z</time>
      </trkpt>
      <trkpt lat="41.918295" lon="-6.483256">
        <ele>995.37</ele>
        <time>2021-03-27T13:54:05Z</time>
      </trkpt>
      <trkpt lat="41.91828" lon="-6.482895">
        <ele>998.56</ele>
        <time>2021-03-27T13:54:08Z</time>
      </trkpt>
      <trkpt lat="41.918309" lon="-6.482051">
        <ele>1002.26</ele>
        <time>2021-03-27T13:54:11Z</time>
      </trkpt>
      <trkpt lat="41.918348" lon="-6.481864">
        <ele>1002.9</ele>
        <time>2021-03-27T13:54:14Z</time>
      </trkpt>
      <trkpt lat="41.918427" lon="-6.481796">
        <ele>1005.15</ele>
        <time>2021-03-27T13:54:18Z</time>
      </trkpt>
      <trkpt lat="41.918471" lon="-6.481814">
        <ele>1007.41</ele>
        <time>2021-03-27T13:54:21Z</time>
      </trkpt>
      <trkpt lat="41.918471" lon="-6.481814">
        <ele>1007.41</ele>
        <time>2021-03-27T13:54:21Z</time>
      </trkpt>
      <trkpt lat="41.918427" lon="-6.481796">
        <ele>1005.15</ele>
        <time>2021-03-27T13:54:24Z</time>
      </trkpt>
      <trkpt lat="41.918348" lon="-6.481864">
        <ele>1002.9</ele>
        <time>2021-03-27T13:54:27Z</time>
      </trkpt>
      <trkpt lat="41.918309" lon="-6.482051">
        <ele>1002.26</ele>
        <time>2021-03-27T13:54:30Z</time>
      </trkpt>
      <trkpt lat="41.91828" lon="-6.482895">
        <ele>998.56</ele>
        <time>2021-03-27T13:54:33Z</time>
      </trkpt>
      <trkpt lat="41.918295" lon="-6.483256">
        <ele>995.37</ele>
        <time>2021-03-27T13:54:37Z</time>
      </trkpt>
      <trkpt lat="41.918397" lon="-6.484038">
        <ele>992.32</ele>
        <time>2021-03-27T13:54:40Z</time>
      </trkpt>
      <trkpt lat="41.918587" lon="-6.484858">
        <ele>986.3</ele>
        <time>2021-03-27T13:54:43Z</time>
      </trkpt>
      <trkpt lat="41.91875" lon="-6.485358">
        <ele>984.7</ele>
        <time>2021-03-27T13:54:46Z</time>
      </trkpt>
      <trkpt lat="41.919369" lon="-6.486911">
        <ele>974.45</ele>
        <time>2021-03-27T13:54:49Z</time>
      </trkpt>
      <trkpt lat="41.919613" lon="-6.487403">
        <ele>968.99</ele>
        <time>2021-03-27T13:54:52Z</time>
      </trkpt>
      <trkpt lat="41.920557" lon="-6.488975">
        <ele>957.85</ele>
        <time>2021-03-27T13:54:55Z</time>
      </trkpt>
      <trkpt lat="41.921397" lon="-6.489831">
        <ele>949.18</ele>
        <time>2021-03-27T13:54:59Z</time>
      </trkpt>
      <trkpt lat="41.92186" lon="-6.490333">
        <ele>947.92</ele>
        <time>2021-03-27T13:55:02Z</time>
      </trkpt>
      <trkpt lat="41.921898" lon="-6.490407">
        <ele>947.4</ele>
        <time>2021-03-27T13:55:05Z</time>
      </trkpt>
      <trkpt lat="41.921898" lon="-6.490492">
        <ele>946.12</ele>
        <time>2021-03-27T13:55:08Z</time>
      </trkpt>
      <trkpt lat="41.92188" lon="-6.490551">
        <ele>944.9</ele>
        <time>2021-03-27T13:55:11Z</time>
      </trkpt>
      <trkpt lat="41.921848" lon="-6.490581">
        <ele>943.71</ele>
        <time>2021-03-27T13:55:14Z</time>
      </trkpt>
      <trkpt lat="41.921702" lon="-6.490591">
        <ele>940.88</ele>
        <time>2021-03-27T13:55:17Z</time>
      </trkpt>
      <trkpt lat="41.921055" lon="-6.490532">
        <ele>933.73</ele>
        <time>2021-03-27T13:55:21Z</time>
      </trkpt>
      <trkpt lat="41.920457" lon="-6.490728">
        <ele>925.8</ele>
        <time>2021-03-27T13:55:24Z</time>
      </trkpt>
      <trkpt lat="41.920214" lon="-6.490726">
        <ele>923.99</ele>
        <time>2021-03-27T13:55:27Z</time>
      </trkpt>
      <trkpt lat="41.918791" lon="-6.490475">
        <ele>910.93</ele>
        <time>2021-03-27T13:55:30Z</time>
      </trkpt>
      <trkpt lat="41.918479" lon="-6.49045">
        <ele>907.36</ele>
        <time>2021-03-27T13:55:33Z</time>
      </trkpt>
      <trkpt lat="41.917338" lon="-6.490541">
        <ele>895.85</ele>
        <time>2021-03-27T13:55:36Z</time>
      </trkpt>
      <trkpt lat="41.91662" lon="-6.490636">
        <ele>886.76</ele>
        <time>2021-03-27T13:55:39Z</time>
      </trkpt>
      <trkpt lat="41.916418" lon="-6.490722">
        <ele>883.22</ele>
        <time>2021-03-27T13:55:43Z</time>
      </trkpt>
      <trkpt lat="41.916262" lon="-6.490898">
        <ele>880.85</ele>
        <time>2021-03-27T13:55:46Z</time>
      </trkpt>
      <trkpt lat="41.915951" lon="-6.49135">
        <ele>877.35</ele>
        <time>2021-03-27T13:55:49Z</time>
      </trkpt>
      <trkpt lat="41.915496" lon="-6.492107">
        <ele>874.37</ele>
        <time>2021-03-27T13:55:52Z</time>
      </trkpt>
      <trkpt lat="41.915334" lon="-6.492267">
        <ele>874.49</ele>
        <time>2021-03-27T13:55:55Z</time>
      </trkpt>
      <trkpt lat="41.915166" lon="-6.492333">
        <ele>874.56</ele>
        <time>2021-03-27T13:55:58Z</time>
      </trkpt>
      <trkpt lat="41.914998" lon="-6.492361">
        <ele>874.49</ele>
        <time>2021-03-27T13:56:01Z</time>
      </trkpt>
      <trkpt lat="41.91447" lon="-6.492389">
        <ele>872.77</ele>
        <time>2021-03-27T13:56:05Z</time>
      </trkpt>
      <trkpt lat="41.913495" lon="-6.492308">
        <ele>867.06</ele>
        <time>2021-03-27T13:56:08Z</time>
      </trkpt>
      <trkpt lat="41.913392" lon="-6.492319">
        <ele>866.31</ele>
        <time>2021-03-27T13:56:11Z</time>
      </trkpt>
      <trkpt lat="41.91295" lon="-6.492477">
        <ele>861.68</ele>
        <time>2021-03-27T13:56:14Z</time>
      </trkpt>
      <trkpt lat="41.912681" lon="-6.492607">
        <ele>858.28</ele>
        <time>2021-03-27T13:56:17Z</time>
      </trkpt>
      <trkpt lat="41.912547" lon="-6.49275">
        <ele>856.8</ele>
        <time>2021-03-27T13:56:20Z</time>
      </trkpt>
      <trkpt lat="41.912485" lon="-6.492857">
        <ele>856.13</ele>
        <time>2021-03-27T13:56:23Z</time>
      </trkpt>
      <trkpt lat="41.912424" lon="-6.493007">
        <ele>855.46</ele>
        <time>2021-03-27T13:56:27Z</time>
      </trkpt>
      <trkpt lat="41.91236" lon="-6.493236">
        <ele>853.97</ele>
        <time>2021-03-27T13:56:30Z</time>
      </trkpt>
      <trkpt lat="41.912293" lon="-6.493598">
        <ele>850.85</ele>
        <time>2021-03-27T13:56:33Z</time>
      </trkpt>
      <trkpt lat="41.912248" lon="-6.493769">
        <ele>848.97</ele>
        <time>2021-03-27T13:56:36Z</time>
      </trkpt>
      <trkpt lat="41.912197" lon="-6.493893">
        <ele>847.63</ele>
        <time>2021-03-27T13:56:39Z</time>
      </trkpt>
      <trkpt lat="41.912152" lon="-6.493972">
        <ele>846.77</ele>
        <time>2021-03-27T13:56:42Z</time>
      </trkpt>
      <trkpt lat="41.911878" lon="-6.494313">
        <ele>842.88</ele>
        <time>2021-03-27T13:56:45Z</time>
      </trkpt>
      <trkpt lat="41.91171" lon="-6.494472">
        <ele>841.27</ele>
        <time>2021-03-27T13:56:49Z</time>
      </trkpt>
      <trkpt lat="41.911554" lon="-6.494578">
        <ele>840.98</ele>
        <time>2021-03-27T13:56:52Z</time>
      </trkpt>
      <trkpt lat="41.911029" lon="-6.494844">
        <ele>846.63</ele>
        <time>2021-03-27T13:56:55Z</time>
      </trkpt>
      <trkpt lat="41.910857" lon="-6.494955">
        <ele>848.65</ele>
        <time>2021-03-27T13:56:58Z</time>
      </trkpt>
      <trkpt lat="41.910258" lon="-6.495431">
        <ele>848.56</ele>
        <time>2021-03-27T13:57:01Z</time>
      </trkpt>
      <trkpt lat="41.909696" lon="-6.495912">
        <ele>850.9</ele>
        <time>2021-03-27T13:57:04Z</time>
      </trkpt>
      <trkpt lat="41.909519" lon="-6.496097">
        <ele>851.51</ele>
        <time>2021-03-27T13:57:07Z</time>
      </trkpt>
      <trkpt lat="41.909461" lon="-6.496202">
        <ele>852.15</ele>
        <time>2021-03-27T13:57:11Z</time>
      </trkpt>
      <trkpt lat="41.909405" lon="-6.496342">
        <ele>853.54</ele>
        <time>2021-03-27T13:57:14Z</time>
      </trkpt>
      <trkpt lat="41.909287" lon="-6.496774">
        <ele>857.1</ele>
        <time>2021-03-27T13:57:17Z</time>
      </trkpt>
      <trkpt lat="41.90913" lon="-6.497028">
        <ele>858.62</ele>
        <time>2021-03-27T13:57:20Z</time>
      </trkpt>
      <trkpt lat="41.908542" lon="-6.497567">
        <ele>856.54</ele>
        <time>2021-03-27T13:57:23Z</time>
      </trkpt>
      <trkpt lat="41.908332" lon="-6.497716">
        <ele>855.89</ele>
        <time>2021-03-27T13:57:26Z</time>
      </trkpt>
      <trkpt lat="41.907591" lon="-6.498057">
        <ele>850.99</ele>
        <time>2021-03-27T13:57:29Z</time>
      </trkpt>
      <trkpt lat="41.907295" lon="-6.498228">
        <ele>850.26</ele>
        <time>2021-03-27T13:57:33Z</time>
      </trkpt>
      <trkpt lat="41.907015" lon="-6.498456">
        <ele>849.7</ele>
        <time>2021-03-27T13:57:36Z</time>
      </trkpt>
      <trkpt lat="41.906707" lon="-6.498753">
        <ele>846.51</ele>
        <time>2021-03-27T13:57:39Z</time>
      </trkpt>
      <trkpt lat="41.905848" lon="-6.499656">
        <ele>838.29</ele>
        <time>2021-03-27T13:57:42Z</time>
      </trkpt>
      <trkpt lat="41.905597" lon="-6.499836">
        <ele>835.83</ele>
        <time>2021-03-27T13:57:45Z</time>
      </trkpt>
      <trkpt lat="41.905424" lon="-6.499911">
        <ele>834.53</ele>
        <time>2021-03-27T13:57:48Z</time>
      </trkpt>
      <trkpt lat="41.901667" lon="-6.501174">
        <ele>833.22</ele>
        <time>2021-03-27T13:57:51Z</time>
      </trkpt>
      <trkpt lat="41.898046" lon="-6.502417">
        <ele>825.52</ele>
        <time>2021-03-27T13:57:55Z</time>
      </trkpt>
      <trkpt lat="41.897734" lon="-6.502472">
        <ele>822.94</ele>
        <time>2021-03-27T13:57:58Z</time>
      </trkpt>
      <trkpt lat="41.897573" lon="-6.502463">
        <ele>822.39</ele>
        <time>2021-03-27T13:58:01Z</time>
      </trkpt>
      <trkpt lat="41.897395" lon="-6.50243">
        <ele>821.78</ele>
        <time>2021-03-27T13:58:04Z</time>
      </trkpt>
      <trkpt lat="41.8971" lon="-6.502318">
        <ele>820.71</ele>
        <time>2021-03-27T13:58:07Z</time>
      </trkpt>
      <trkpt lat="41.896257" lon="-6.50173">
        <ele>822.52</ele>
        <time>2021-03-27T13:58:10Z</time>
      </trkpt>
      <trkpt lat="41.896014" lon="-6.501598">
        <ele>822.87</ele>
        <time>2021-03-27T13:58:13Z</time>
      </trkpt>
      <trkpt lat="41.89554" lon="-6.501416">
        <ele>820.54</ele>
        <time>2021-03-27T13:58:17Z</time>
      </trkpt>
      <trkpt lat="41.895069" lon="-6.501293">
        <ele>817.28</ele>
        <time>2021-03-27T13:58:20Z</time>
      </trkpt>
      <trkpt lat="41.894953" lon="-6.501239">
        <ele>816.4</ele>
        <time>2021-03-27T13:58:23Z</time>
      </trkpt>
      <trkpt lat="41.894339" lon="-6.500787">
        <ele>811.92</ele>
        <time>2021-03-27T13:58:26Z</time>
      </trkpt>
      <trkpt lat="41.894121" lon="-6.500707">
        <ele>811.47</ele>
        <time>2021-03-27T13:58:29Z</time>
      </trkpt>
      <trkpt lat="41.893925" lon="-6.500668">
        <ele>809.8</ele>
        <time>2021-03-27T13:58:32Z</time>
      </trkpt>
      <trkpt lat="41.889334" lon="-6.500475">
        <ele>754.52</ele>
        <time>2021-03-27T13:58:35Z</time>
      </trkpt>
      <trkpt lat="41.888358" lon="-6.500714">
        <ele>745.38</ele>
        <time>2021-03-27T13:58:39Z</time>
      </trkpt>
      <trkpt lat="41.886918" lon="-6.501178">
        <ele>731.87</ele>
        <time>2021-03-27T13:58:42Z</time>
      </trkpt>
      <trkpt lat="41.886742" lon="-6.501181">
        <ele>730.72</ele>
        <time>2021-03-27T13:58:45Z</time>
      </trkpt>
      <trkpt lat="41.884772" lon="-6.500616">
        <ele>708.71</ele>
        <time>2021-03-27T13:58:48Z</time>
      </trkpt>
      <trkpt lat="41.884413" lon="-6.500492">
        <ele>703.56</ele>
        <time>2021-03-27T13:58:51Z</time>
      </trkpt>
      <trkpt lat="41.884237" lon="-6.500401">
        <ele>700.81</ele>
        <time>2021-03-27T13:58:54Z</time>
      </trkpt>
      <trkpt lat="41.883884" lon="-6.50018">
        <ele>696.24</ele>
        <time>2021-03-27T13:58:57Z</time>
      </trkpt>
      <trkpt lat="41.883824" lon="-6.500174">
        <ele>696.19</ele>
        <time>2021-03-27T13:59:01Z</time>
      </trkpt>
      <trkpt lat="41.883736" lon="-6.500221">
        <ele>696.55</ele>
        <time>2021-03-27T13:59:04Z</time>
      </trkpt>
      <trkpt lat="41.883699" lon="-6.500276">
        <ele>696.63</ele>
        <time>2021-03-27T13:59:07Z</time>
      </trkpt>
      <trkpt lat="41.883682" lon="-6.500367">
        <ele>696.03</ele>
        <time>2021-03-27T13:59:10Z</time>
      </trkpt>
      <trkpt lat="41.883684" lon="-6.500462">
        <ele>695.54</ele>
        <time>2021-03-27T13:59:13Z</time>
      </trkpt>
      <trkpt lat="41.883705" lon="-6.500559">
        <ele>695.32</ele>
        <time>2021-03-27T13:59:16Z</time>
      </trkpt>
      <trkpt lat="41.883788" lon="-6.500769">
        <ele>694.73</ele>
        <time>2021-03-27T13:59:19Z</time>
      </trkpt>
      <trkpt lat="41.883868" lon="-6.500914">
        <ele>695.06</ele>
        <time>2021-03-27T13:59:23Z</time>
      </trkpt>
      <trkpt lat="41.884066" lon="-6.501195">
        <ele>698.38</ele>
        <time>2021-03-27T13:59:26Z</time>
      </trkpt>
      <trkpt lat="41.884088" lon="-6.501282">
        <ele>698.76</ele>
        <time>2021-03-27T13:59:29Z</time>
      </trkpt>
      <trkpt lat="41.884072" lon="-6.501457">
        <ele>698.88</ele>
        <time>2021-03-27T13:59:32Z</time>
      </trkpt>
      <trkpt lat="41.88398" lon="-6.501587">
        <ele>698.55</ele>
        <time>2021-03-27T13:59:35Z</time>
      </trkpt>
      <trkpt lat="41.883766" lon="-6.501735">
        <ele>697.59</ele>
        <time>2021-03-27T13:59:38Z</time>
      </trkpt>
      <trkpt lat="41.883663" lon="-6.50183">
        <ele>697.79</ele>
        <time>2021-03-27T13:59:41Z</time>
      </trkpt>
      <trkpt lat="41.8836" lon="-6.501915">
        <ele>698.35</ele>
        <time>2021-03-27T13:59:45Z</time>
      </trkpt>
      <trkpt lat="41.883446" lon="-6.502191">
        <ele>701.14</ele>
        <time>2021-03-27T13:59:48Z</time>
      </trkpt>
      <trkpt lat="41.883356" lon="-6.502268">
        <ele>701.15</ele>
        <time>2021-03-27T13:59:51Z</time>
      </trkpt>
      <trkpt lat="41.883309" lon="-6.502274">
        <ele>700.93</ele>
        <time>2021-03-27T13:59:54Z</time>
      </trkpt>
      <trkpt lat="41.883176" lon="-6.502207">
        <ele>699.81</ele>
        <time>2021-03-27T13:59:57Z</time>
      </trkpt>
      <trkpt lat="41.882982" lon="-6.502065">
        <ele>698.42</ele>
        <time>2021-03-27T14:00:00Z</time>
      </trkpt>
      <trkpt lat="41.882807" lon="-6.501885">
        <ele>696.35</ele>
        <time>2021-03-27T14:00:03Z</time>
      </trkpt>
      <trkpt lat="41.882698" lon="-6.501745">
        <ele>694.27</ele>
        <time>2021-03-27T14:00:07Z</time>
      </trkpt>
      <trkpt lat="41.882353" lon="-6.50119">
        <ele>685.42</ele>
        <time>2021-03-27T14:00:10Z</time>
      </trkpt>
      <trkpt lat="41.882228" lon="-6.501022">
        <ele>683.35</ele>
        <time>2021-03-27T14:00:13Z</time>
      </trkpt>
      <trkpt lat="41.881883" lon="-6.500672">
        <ele>681.07</ele>
        <time>2021-03-27T14:00:16Z</time>
      </trkpt>
      <trkpt lat="41.881096" lon="-6.500212">
        <ele>672.88</ele>
        <time>2021-03-27T14:00:19Z</time>
      </trkpt>
      <trkpt lat="41.880878" lon="-6.500063">
        <ele>670.68</ele>
        <time>2021-03-27T14:00:22Z</time>
      </trkpt>
      <trkpt lat="41.880602" lon="-6.499846">
        <ele>670.83</ele>
        <time>2021-03-27T14:00:25Z</time>
      </trkpt>
      <trkpt lat="41.880445" lon="-6.499828">
        <ele>671.0</ele>
        <time>2021-03-27T14:00:29Z</time>
      </trkpt>
      <trkpt lat="41.880406" lon="-6.499807">
        <ele>671.0</ele>
        <time>2021-03-27T14:00:32Z</time>
      </trkpt>
      <trkpt lat="41.88035" lon="-6.49973">
        <ele>671.0</ele>
        <time>2021-03-27T14:00:35Z</time>
      </trkpt>
      <trkpt lat="41.879852" lon="-6.498782">
        <ele>662.55</ele>
        <time>2021-03-27T14:00:38Z</time>
      </trkpt>
      <trkpt lat="41.879719" lon="-6.498638">
        <ele>661.07</ele>
        <time>2021-03-27T14:00:41Z</time>
      </trkpt>
      <trkpt lat="41.879691" lon="-6.498636">
        <ele>660.86</ele>
        <time>2021-03-27T14:00:44Z</time>
      </trkpt>
      <trkpt lat="41.879641" lon="-6.498684">
        <ele>660.68</ele>
        <time>2021-03-27T14:00:46Z</time>
      </trkpt>
      <trkpt lat="41.879464" lon="-6.498932">
        <ele>660.3</ele>
        <time>2021-03-27T14:00:48Z</time>
      </trkpt>
      <trkpt lat="41.879301" lon="-6.499205">
        <ele>657.63</ele>
        <time>2021-03-27T14:00:50Z</time>
      </trkpt>
      <trkpt lat="41.879228" lon="-6.49949">
        <ele>654.15</ele>
        <time>2021-03-27T14:00:52Z</time>
      </trkpt>
      <trkpt lat="41.879217" lon="-6.499622">
        <ele>653.45</ele>
        <time>2021-03-27T14:00:54Z</time>
      </trkpt>
      <trkpt lat="41.879208" lon="-6.499991">
        <ele>651.63</ele>
        <time>2021-03-27T14:00:56Z</time>
      </trkpt>
      <trkpt lat="41.879254" lon="-6.500512">
        <ele>650.15</ele>
        <time>2021-03-27T14:00:58Z</time>
      </trkpt>
      <trkpt lat="41.879386" lon="-6.501817">
        <ele>649.49</ele>
        <time>2021-03-27T14:01:00Z</time>
      </trkpt>
      <trkpt lat="41.879528" lon="-6.503013">
        <ele>649.77</ele>
        <time>2021-03-27T14:01:02Z</time>
      </trkpt>
      <trkpt lat="41.879533" lon="-6.503187">
        <ele>649.92</ele>
        <time>2021-03-27T14:01:04Z</time>
      </trkpt>
      <trkpt lat="41.87946" lon="-6.504007">
        <ele>652.23</ele>
        <time>2021-03-27T14:01:05Z</time>
      </trkpt>
      <trkpt lat="41.879399" lon="-6.504364">
        <ele>653.54</ele>
        <time>2021-03-27T14:01:07Z</time>
      </trkpt>
      <trkpt lat="41.879353" lon="-6.504517">
        <ele>653.38</ele>
        <time>2021-03-27T14:01:09Z</time>
      </trkpt>
      <trkpt lat="41.879173" lon="-6.504877">
        <ele>649.76</ele>
        <time>2021-03-27T14:01:11Z</time>
      </trkpt>
      <trkpt lat="41.87898" lon="-6.50512">
        <ele>649.08</ele>
        <time>2021-03-27T14:01:13Z</time>
      </trkpt>
      <trkpt lat="41.878084" lon="-6.50609">
        <ele>649.14</ele>
        <time>2021-03-27T14:01:15Z</time>
      </trkpt>
      <trkpt lat="41.877936" lon="-6.506287">
        <ele>648.08</ele>
        <time>2021-03-27T14:01:17Z</time>
      </trkpt>
      <trkpt lat="41.877752" lon="-6.506574">
        <ele>645.81</ele>
        <time>2021-03-27T14:01:19Z</time>
      </trkpt>
      <trkpt lat="41.877601" lon="-6.506856">
        <ele>645.41</ele>
        <time>2021-03-27T14:01:21Z</time>
      </trkpt>
      <trkpt lat="41.87753" lon="-6.507051">
        <ele>645.6</ele>
        <time>2021-03-27T14:01:23Z</time>
      </trkpt>
      <trkpt lat="41.877492" lon="-6.507218">
        <ele>645.96</ele>
        <time>2021-03-27T14:01:25Z</time>
      </trkpt>
      <trkpt lat="41.87745" lon="-6.507765">
        <ele>645.04</ele>
        <time>2021-03-27T14:01:26Z</time>
      </trkpt>
      <trkpt lat="41.877452" lon="-6.508263">
        <ele>643.13</ele>
        <time>2021-03-27T14:01:28Z</time>
      </trkpt>
      <trkpt lat="41.877551" lon="-6.50923">
        <ele>643.37</ele>
        <time>2021-03-27T14:01:30Z</time>
      </trkpt>
      <trkpt lat="41.877525" lon="-6.509525">
        <ele>645.34</ele>
        <time>2021-03-27T14:01:32Z</time>
      </trkpt>
      <trkpt lat="41.877491" lon="-6.50965">
        <ele>647.35</ele>
        <time>2021-03-27T14:01:34Z</time>
      </trkpt>
      <trkpt lat="41.877435" lon="-6.509775">
        <ele>649.31</ele>
        <time>2021-03-27T14:01:36Z</time>
      </trkpt>
      <trkpt lat="41.877341" lon="-6.509914">
        <ele>650.76</ele>
        <time>2021-03-27T14:01:38Z</time>
      </trkpt>
      <trkpt lat="41.87713" lon="-6.510111">
        <ele>650.68</ele>
        <time>2021-03-27T14:01:40Z</time>
      </trkpt>
      <trkpt lat="41.877024" lon="-6.510162">
        <ele>650.06</ele>
        <time>2021-03-27T14:01:42Z</time>
      </trkpt>
      <trkpt lat="41.876578" lon="-6.510289">
        <ele>645.17</ele>
        <time>2021-03-27T14:01:44Z</time>
      </trkpt>
      <trkpt lat="41.876545" lon="-6.510386">
        <ele>645.73</ele>
        <time>2021-03-27T14:01:44Z</time>
      </trkpt>
      <trkpt lat="41.876356" lon="-6.510623">
        <ele>644.02</ele>
        <time>2021-03-27T14:01:45Z</time>
      </trkpt>
      <trkpt lat="41.876311" lon="-6.510705">
        <ele>643.95</ele>
        <time>2021-03-27T14:01:46Z</time>
      </trkpt>
      <trkpt lat="41.876258" lon="-6.510865">
        <ele>644.28</ele>
        <time>2021-03-27T14:01:47Z</time>
      </trkpt>
      <trkpt lat="41.876246" lon="-6.510983">
        <ele>644.75</ele>
        <time>2021-03-27T14:01:48Z</time>
      </trkpt>
      <trkpt lat="41.876274" lon="-6.511245">
        <ele>645.76</ele>
        <time>2021-03-27T14:01:49Z</time>
      </trkpt>
      <trkpt lat="41.876326" lon="-6.511462">
        <ele>646.05</ele>
        <time>2021-03-27T14:01:50Z</time>
      </trkpt>
      <trkpt lat="41.876414" lon="-6.511699">
        <ele>646.23</ele>
        <time>2021-03-27T14:01:51Z</time>
      </trkpt>
      <trkpt lat="41.876291" lon="-6.511757">
        <ele>644.73</ele>
        <time>2021-03-27T14:01:53Z</time>
      </trkpt>
      <trkpt lat="41.875799" lon="-6.511718">
        <ele>643.4</ele>
        <time>2021-03-27T14:01:55Z</time>
      </trkpt>
      <trkpt lat="41.875152" lon="-6.51179">
        <ele>645.97</ele>
        <time>2021-03-27T14:01:57Z</time>
      </trkpt>
      <trkpt lat="41.874678" lon="-6.511906">
        <ele>647.7</ele>
        <time>2021-03-27T14:01:59Z</time>
      </trkpt>
      <trkpt lat="41.873822" lon="-6.51228">
        <ele>650.73</ele>
        <time>2021-03-27T14:02:01Z</time>
      </trkpt>
      <trkpt lat="41.873471" lon="-6.512506">
        <ele>650.95</ele>
        <time>2021-03-27T14:02:03Z</time>
      </trkpt>
      <trkpt lat="41.873173" lon="-6.513036">
        <ele>647.45</ele>
        <time>2021-03-27T14:02:05Z</time>
      </trkpt>
      <trkpt lat="41.872769" lon="-6.513381">
        <ele>646.89</ele>
        <time>2021-03-27T14:02:08Z</time>
      </trkpt>
      <trkpt lat="41.872232" lon="-6.513926">
        <ele>643.44</ele>
        <time>2021-03-27T14:02:10Z</time>
      </trkpt>
      <trkpt lat="41.871993" lon="-6.514418">
        <ele>640.72</ele>
        <time>2021-03-27T14:02:12Z</time>
      </trkpt>
      <trkpt lat="41.871864" lon="-6.51459">
        <ele>638.6</ele>
        <time>2021-03-27T14:02:14Z</time>
      </trkpt>
      <trkpt lat="41.871733" lon="-6.514717">
        <ele>636.74</ele>
        <time>2021-03-27T14:02:16Z</time>
      </trkpt>
      <trkpt lat="41.871539" lon="-6.514853">
        <ele>633.42</ele>
        <time>2021-03-27T14:02:18Z</time>
      </trkpt>
      <trkpt lat="41.870897" lon="-6.515191">
        <ele>631.08</ele>
        <time>2021-03-27T14:02:20Z</time>
      </trkpt>
      <trkpt lat="41.870742" lon="-6.515332">
        <ele>631.0</ele>
        <time>2021-03-27T14:02:23Z</time>
      </trkpt>
      <trkpt lat="41.870639" lon="-6.515519">
        <ele>631.0</ele>
        <time>2021-03-27T14:02:25Z</time>
      </trkpt>
      <trkpt lat="41.870519" lon="-6.516094">
        <ele>628.24</ele>
        <time>2021-03-27T14:02:27Z</time>
      </trkpt>
      <trkpt lat="41.870456" lon="-6.516218">
        <ele>628.58</ele>
        <time>2021-03-27T14:02:29Z</time>
      </trkpt>
      <trkpt lat="41.870368" lon="-6.516286">
        <ele>628.23</ele>
        <time>2021-03-27T14:02:31Z</time>
      </trkpt>
      <trkpt lat="41.87004" lon="-6.516411">
        <ele>627.96</ele>
        <time>2021-03-27T14:02:33Z</time>
      </trkpt>
      <trkpt lat="41.869096" lon="-6.517075">
        <ele>627.52</ele>
        <time>2021-03-27T14:02:35Z</time>
      </trkpt>
      <trkpt lat="41.868466" lon="-6.517694">
        <ele>628.01</ele>
        <time>2021-03-27T14:02:37Z</time>
      </trkpt>
      <trkpt lat="41.867815" lon="-6.518473">
        <ele>630.35</ele>
        <time>2021-03-27T14:02:40Z</time>
      </trkpt>
      <trkpt lat="41.867403" lon="-6.518925">
        <ele>630.03</ele>
        <time>2021-03-27T14:02:42Z</time>
      </trkpt>
      <trkpt lat="41.867198" lon="-6.519191">
        <ele>628.07</ele>
        <time>2021-03-27T14:02:44Z</time>
      </trkpt>
      <trkpt lat="41.867129" lon="-6.519328">
        <ele>628.98</ele>
        <time>2021-03-27T14:02:46Z</time>
      </trkpt>
      <trkpt lat="41.867051" lon="-6.519589">
        <ele>630.97</ele>
        <time>2021-03-27T14:02:48Z</time>
      </trkpt>
      <trkpt lat="41.866987" lon="-6.520026">
        <ele>634.49</ele>
        <time>2021-03-27T14:02:50Z</time>
      </trkpt>
      <trkpt lat="41.866928" lon="-6.52058">
        <ele>638.95</ele>
        <time>2021-03-27T14:02:52Z</time>
      </trkpt>
      <trkpt lat="41.866905" lon="-6.520677">
        <ele>639.49</ele>
        <time>2021-03-27T14:02:55Z</time>
      </trkpt>
      <trkpt lat="41.866844" lon="-6.520823">
        <ele>640.53</ele>
        <time>2021-03-27T14:02:57Z</time>
      </trkpt>
      <trkpt lat="41.866781" lon="-6.520899">
        <ele>641.36</ele>
        <time>2021-03-27T14:02:59Z</time>
      </trkpt>
      <trkpt lat="41.866702" lon="-6.520944">
        <ele>641.72</ele>
        <time>2021-03-27T14:03:01Z</time>
      </trkpt>
      <trkpt lat="41.866406" lon="-6.521048">
        <ele>642.15</ele>
        <time>2021-03-27T14:03:03Z</time>
      </trkpt>
      <trkpt lat="41.866336" lon="-6.521095">
        <ele>642.21</ele>
        <time>2021-03-27T14:03:05Z</time>
      </trkpt>
      <trkpt lat="41.866259" lon="-6.521233">
        <ele>642.71</ele>
        <time>2021-03-27T14:03:07Z</time>
      </trkpt>
      <trkpt lat="41.866247" lon="-6.52134">
        <ele>643.52</ele>
        <time>2021-03-27T14:03:09Z</time>
      </trkpt>
      <trkpt lat="41.866306" lon="-6.521541">
        <ele>645.36</ele>
        <time>2021-03-27T14:03:12Z</time>
      </trkpt>
      <trkpt lat="41.867001" lon="-6.522572">
        <ele>658.62</ele>
        <time>2021-03-27T14:03:14Z</time>
      </trkpt>
      <trkpt lat="41.867291" lon="-6.522895">
        <ele>663.2</ele>
        <time>2021-03-27T14:03:16Z</time>
      </trkpt>
      <trkpt lat="41.867415" lon="-6.523151">
        <ele>666.18</ele>
        <time>2021-03-27T14:03:18Z</time>
      </trkpt>
      <trkpt lat="41.867589" lon="-6.524521">
        <ele>678.28</ele>
        <time>2021-03-27T14:03:20Z</time>
      </trkpt>
      <trkpt lat="41.867626" lon="-6.524711">
        <ele>680.26</ele>
        <time>2021-03-27T14:03:22Z</time>
      </trkpt>
      <trkpt lat="41.867754" lon="-6.525126">
        <ele>685.28</ele>
        <time>2021-03-27T14:03:24Z</time>
      </trkpt>
      <trkpt lat="41.867803" lon="-6.5255">
        <ele>688.71</ele>
        <time>2021-03-27T14:03:27Z</time>
      </trkpt>
      <trkpt lat="41.867792" lon="-6.525658">
        <ele>690.14</ele>
        <time>2021-03-27T14:03:29Z</time>
      </trkpt>
      <trkpt lat="41.867755" lon="-6.525826">
        <ele>691.84</ele>
        <time>2021-03-27T14:03:31Z</time>
      </trkpt>
      <trkpt lat="41.867712" lon="-6.52592">
        <ele>692.0</ele>
        <time>2021-03-27T14:03:33Z</time>
      </trkpt>
      <trkpt lat="41.867697" lon="-6.526012">
        <ele>692.16</ele>
        <time>2021-03-27T14:03:35Z</time>
      </trkpt>
      <trkpt lat="41.867892" lon="-6.526333">
        <ele>693.41</ele>
        <time>2021-03-27T14:03:38Z</time>
      </trkpt>
      <trkpt lat="41.867924" lon="-6.526455">
        <ele>693.53</ele>
        <time>2021-03-27T14:03:41Z</time>
      </trkpt>
      <trkpt lat="41.867927" lon="-6.526557">
        <ele>693.54</ele>
        <time>2021-03-27T14:03:43Z</time>
      </trkpt>
      <trkpt lat="41.867837" lon="-6.526793">
        <ele>694.58</ele>
        <time>2021-03-27T14:03:46Z</time>
      </trkpt>
      <trkpt lat="41.867602" lon="-6.527143">
        <ele>696.88</ele>
        <time>2021-03-27T14:03:49Z</time>
      </trkpt>
      <trkpt lat="41.867533" lon="-6.52728">
        <ele>697.86</ele>
        <time>2021-03-27T14:03:52Z</time>
      </trkpt>
      <trkpt lat="41.867483" lon="-6.527421">
        <ele>698.86</ele>
        <time>2021-03-27T14:03:54Z</time>
      </trkpt>
      <trkpt lat="41.867477" lon="-6.527653">
        <ele>699.58</ele>
        <time>2021-03-27T14:03:57Z</time>
      </trkpt>
      <trkpt lat="41.867546" lon="-6.527825">
        <ele>700.49</ele>
        <time>2021-03-27T14:04:00Z</time>
      </trkpt>
      <trkpt lat="41.867613" lon="-6.52794">
        <ele>701.05</ele>
        <time>2021-03-27T14:04:02Z</time>
      </trkpt>
      <trkpt lat="41.867879" lon="-6.528209">
        <ele>703.34</ele>
        <time>2021-03-27T14:04:05Z</time>
      </trkpt>
      <trkpt lat="41.868056" lon="-6.52829">
        <ele>704.32</ele>
        <time>2021-03-27T14:04:08Z</time>
      </trkpt>
      <trkpt lat="41.868208" lon="-6.52833">
        <ele>706.21</ele>
        <time>2021-03-27T14:04:11Z</time>
      </trkpt>
      <trkpt lat="41.868743" lon="-6.528413">
        <ele>711.19</ele>
        <time>2021-03-27T14:04:13Z</time>
      </trkpt>
      <trkpt lat="41.869312" lon="-6.528412">
        <ele>714.43</ele>
        <time>2021-03-27T14:04:16Z</time>
      </trkpt>
      <trkpt lat="41.870299" lon="-6.528274">
        <ele>725.66</ele>
        <time>2021-03-27T14:04:19Z</time>
      </trkpt>
      <trkpt lat="41.870397" lon="-6.528283">
        <ele>726.65</ele>
        <time>2021-03-27T14:04:22Z</time>
      </trkpt>
      <trkpt lat="41.870572" lon="-6.528357">
        <ele>728.12</ele>
        <time>2021-03-27T14:04:24Z</time>
      </trkpt>
      <trkpt lat="41.871181" lon="-6.528749">
        <ele>735.51</ele>
        <time>2021-03-27T14:04:27Z</time>
      </trkpt>
      <trkpt lat="41.871529" lon="-6.529033">
        <ele>738.98</ele>
        <time>2021-03-27T14:04:30Z</time>
      </trkpt>
      <trkpt lat="41.871682" lon="-6.529209">
        <ele>740.13</ele>
        <time>2021-03-27T14:04:33Z</time>
      </trkpt>
      <trkpt lat="41.871823" lon="-6.529463">
        <ele>741.75</ele>
        <time>2021-03-27T14:04:35Z</time>
      </trkpt>
      <trkpt lat="41.873695" lon="-6.533405">
        <ele>769.18</ele>
        <time>2021-03-27T14:04:38Z</time>
      </trkpt>
      <trkpt lat="41.873773" lon="-6.533618">
        <ele>769.32</ele>
        <time>2021-03-27T14:04:41Z</time>
      </trkpt>
      <trkpt lat="41.873877" lon="-6.534033">
        <ele>769.87</ele>
        <time>2021-03-27T14:04:44Z</time>
      </trkpt>
      <trkpt lat="41.874316" lon="-6.536614">
        <ele>781.29</ele>
        <time>2021-03-27T14:04:46Z</time>
      </trkpt>
      <trkpt lat="41.874347" lon="-6.536913">
        <ele>784.02</ele>
        <time>2021-03-27T14:04:49Z</time>
      </trkpt>
      <trkpt lat="41.87433" lon="-6.537094">
        <ele>785.94</ele>
        <time>2021-03-27T14:04:52Z</time>
      </trkpt>
      <trkpt lat="41.874289" lon="-6.537295">
        <ele>787.83</ele>
        <time>2021-03-27T14:04:54Z</time>
      </trkpt>
      <trkpt lat="41.87424" lon="-6.537431">
        <ele>788.76</ele>
        <time>2021-03-27T14:04:57Z</time>
      </trkpt>
      <trkpt lat="41.874165" lon="-6.537572">
        <ele>789.75</ele>
        <time>2021-03-27T14:05:00Z</time>
      </trkpt>
      <trkpt lat="41.873883" lon="-6.537975">
        <ele>789.65</ele>
        <time>2021-03-27T14:05:03Z</time>
      </trkpt>
      <trkpt lat="41.87368" lon="-6.538448">
        <ele>792.42</ele>
        <time>2021-03-27T14:05:05Z</time>
      </trkpt>
      <trkpt lat="41.873641" lon="-6.538677">
        <ele>793.84</ele>
        <time>2021-03-27T14:05:08Z</time>
      </trkpt>
      <trkpt lat="41.873635" lon="-6.538868">
        <ele>794.66</ele>
        <time>2021-03-27T14:05:11Z</time>
      </trkpt>
      <trkpt lat="41.873677" lon="-6.539184">
        <ele>796.39</ele>
        <time>2021-03-27T14:05:14Z</time>
      </trkpt>
      <trkpt lat="41.873977" lon="-6.540717">
        <ele>794.39</ele>
        <time>2021-03-27T14:05:16Z</time>
      </trkpt>
      <trkpt lat="41.874153" lon="-6.541351">
        <ele>793.94</ele>
        <time>2021-03-27T14:05:19Z</time>
      </trkpt>
      <trkpt lat="41.874577" lon="-6.542354">
        <ele>788.5</ele>
        <time>2021-03-27T14:05:22Z</time>
      </trkpt>
      <trkpt lat="41.875978" lon="-6.545511">
        <ele>794.93</ele>
        <time>2021-03-27T14:05:25Z</time>
      </trkpt>
      <trkpt lat="41.876041" lon="-6.545711">
        <ele>796.16</ele>
        <time>2021-03-27T14:05:27Z</time>
      </trkpt>
      <trkpt lat="41.876096" lon="-6.546003">
        <ele>798.9</ele>
        <time>2021-03-27T14:05:30Z</time>
      </trkpt>
      <trkpt lat="41.876194" lon="-6.54679">
        <ele>801.57</ele>
        <time>2021-03-27T14:05:33Z</time>
      </trkpt>
      <trkpt lat="41.876286" lon="-6.547355">
        <ele>804.32</ele>
        <time>2021-03-27T14:05:36Z</time>
      </trkpt>
      <trkpt lat="41.876346" lon="-6.547539">
        <ele>805.4</ele>
        <time>2021-03-27T14:05:38Z</time>
      </trkpt>
      <trkpt lat="41.876514" lon="-6.547842">
        <ele>807.11</ele>
        <time>2021-03-27T14:05:41Z</time>
      </trkpt>
      <trkpt lat="41.877014" lon="-6.548535">
        <ele>810.75</ele>
        <time>2021-03-27T14:05:44Z</time>
      </trkpt>
      <trkpt lat="41.877119" lon="-6.548708">
        <ele>811.66</ele>
        <time>2021-03-27T14:05:46Z</time>
      </trkpt>
      <trkpt lat="41.87717" lon="-6.54884">
        <ele>811.77</ele>
        <time>2021-03-27T14:05:49Z</time>
      </trkpt>
      <trkpt lat="41.877224" lon="-6.549108">
        <ele>812.01</ele>
        <time>2021-03-27T14:05:52Z</time>
      </trkpt>
      <trkpt lat="41.877277" lon="-6.549686">
        <ele>811.77</ele>
        <time>2021-03-27T14:05:55Z</time>
      </trkpt>
      <trkpt lat="41.877385" lon="-6.551231">
        <ele>817.54</ele>
        <time>2021-03-27T14:05:57Z</time>
      </trkpt>
      <trkpt lat="41.877401" lon="-6.551636">
        <ele>820.04</ele>
        <time>2021-03-27T14:06:00Z</time>
      </trkpt>
      <trkpt lat="41.877389" lon="-6.55201">
        <ele>821.64</ele>
        <time>2021-03-27T14:06:03Z</time>
      </trkpt>
      <trkpt lat="41.877354" lon="-6.552301">
        <ele>822.19</ele>
        <time>2021-03-27T14:06:06Z</time>
      </trkpt>
      <trkpt lat="41.877241" lon="-6.552756">
        <ele>823.12</ele>
        <time>2021-03-27T14:06:08Z</time>
      </trkpt>
      <trkpt lat="41.876978" lon="-6.553296">
        <ele>829.92</ele>
        <time>2021-03-27T14:06:11Z</time>
      </trkpt>
      <trkpt lat="41.876876" lon="-6.553556">
        <ele>833.02</ele>
        <time>2021-03-27T14:06:14Z</time>
      </trkpt>
      <trkpt lat="41.876851" lon="-6.553737">
        <ele>835.18</ele>
        <time>2021-03-27T14:06:17Z</time>
      </trkpt>
      <trkpt lat="41.876868" lon="-6.553978">
        <ele>837.41</ele>
        <time>2021-03-27T14:06:19Z</time>
      </trkpt>
      <trkpt lat="41.876913" lon="-6.55423">
        <ele>838.75</ele>
        <time>2021-03-27T14:06:22Z</time>
      </trkpt>
      <trkpt lat="41.877066" lon="-6.554741">
        <ele>840.65</ele>
        <time>2021-03-27T14:06:25Z</time>
      </trkpt>
      <trkpt lat="41.877555" lon="-6.556153">
        <ele>843.01</ele>
        <time>2021-03-27T14:06:28Z</time>
      </trkpt>
      <trkpt lat="41.877985" lon="-6.556956">
        <ele>844.95</ele>
        <time>2021-03-27T14:06:30Z</time>
      </trkpt>
      <trkpt lat="41.878069" lon="-6.557137">
        <ele>845.54</ele>
        <time>2021-03-27T14:06:33Z</time>
      </trkpt>
      <trkpt lat="41.878126" lon="-6.557317">
        <ele>845.93</ele>
        <time>2021-03-27T14:06:36Z</time>
      </trkpt>
      <trkpt lat="41.878205" lon="-6.557647">
        <ele>846.41</ele>
        <time>2021-03-27T14:06:38Z</time>
      </trkpt>
      <trkpt lat="41.87847" lon="-6.559173">
        <ele>847.96</ele>
        <time>2021-03-27T14:06:41Z</time>
      </trkpt>
      <trkpt lat="41.878637" lon="-6.559967">
        <ele>848.9</ele>
        <time>2021-03-27T14:06:44Z</time>
      </trkpt>
      <trkpt lat="41.878857" lon="-6.56081">
        <ele>851.16</ele>
        <time>2021-03-27T14:06:47Z</time>
      </trkpt>
      <trkpt lat="41.879037" lon="-6.561307">
        <ele>851.95</ele>
        <time>2021-03-27T14:06:49Z</time>
      </trkpt>
      <trkpt lat="41.87914" lon="-6.561528">
        <ele>851.97</ele>
        <time>2021-03-27T14:06:52Z</time>
      </trkpt>
      <trkpt lat="41.879382" lon="-6.561937">
        <ele>852.4</ele>
        <time>2021-03-27T14:06:55Z</time>
      </trkpt>
      <trkpt lat="41.879553" lon="-6.562154">
        <ele>851.91</ele>
        <time>2021-03-27T14:06:58Z</time>
      </trkpt>
      <trkpt lat="41.880593" lon="-6.56336">
        <ele>857.21</ele>
        <time>2021-03-27T14:07:00Z</time>
      </trkpt>
      <trkpt lat="41.881026" lon="-6.56394">
        <ele>857.84</ele>
        <time>2021-03-27T14:07:03Z</time>
      </trkpt>
      <trkpt lat="41.881169" lon="-6.564186">
        <ele>858.61</ele>
        <time>2021-03-27T14:07:06Z</time>
      </trkpt>
      <trkpt lat="41.881781" lon="-6.565426">
        <ele>860.6</ele>
        <time>2021-03-27T14:07:09Z</time>
      </trkpt>
      <trkpt lat="41.882028" lon="-6.56605">
        <ele>862.08</ele>
        <time>2021-03-27T14:07:11Z</time>
      </trkpt>
      <trkpt lat="41.882447" lon="-6.567326">
        <ele>870.51</ele>
        <time>2021-03-27T14:07:14Z</time>
      </trkpt>
      <trkpt lat="41.882502" lon="-6.567587">
        <ele>871.29</ele>
        <time>2021-03-27T14:07:17Z</time>
      </trkpt>
      <trkpt lat="41.882548" lon="-6.568102">
        <ele>874.0</ele>
        <time>2021-03-27T14:07:20Z</time>
      </trkpt>
      <trkpt lat="41.882603" lon="-6.568448">
        <ele>873.39</ele>
        <time>2021-03-27T14:07:22Z</time>
      </trkpt>
      <trkpt lat="41.882678" lon="-6.568711">
        <ele>872.61</ele>
        <time>2021-03-27T14:07:25Z</time>
      </trkpt>
      <trkpt lat="41.882899" lon="-6.569298">
        <ele>875.38</ele>
        <time>2021-03-27T14:07:28Z</time>
      </trkpt>
      <trkpt lat="41.883363" lon="-6.570767">
        <ele>879.95</ele>
        <time>2021-03-27T14:07:30Z</time>
      </trkpt>
      <trkpt lat="41.883483" lon="-6.571278">
        <ele>881.96</ele>
        <time>2021-03-27T14:07:33Z</time>
      </trkpt>
      <trkpt lat="41.88359" lon="-6.571869">
        <ele>884.59</ele>
        <time>2021-03-27T14:07:36Z</time>
      </trkpt>
      <trkpt lat="41.883717" lon="-6.573103">
        <ele>894.84</ele>
        <time>2021-03-27T14:07:39Z</time>
      </trkpt>
      <trkpt lat="41.883933" lon="-6.574594">
        <ele>896.96</ele>
        <time>2021-03-27T14:07:41Z</time>
      </trkpt>
      <trkpt lat="41.883946" lon="-6.574846">
        <ele>896.4</ele>
        <time>2021-03-27T14:07:44Z</time>
      </trkpt>
      <trkpt lat="41.883896" lon="-6.576375">
        <ele>894.79</ele>
        <time>2021-03-27T14:07:47Z</time>
      </trkpt>
      <trkpt lat="41.883911" lon="-6.577684">
        <ele>897.39</ele>
        <time>2021-03-27T14:07:50Z</time>
      </trkpt>
      <trkpt lat="41.883896" lon="-6.577994">
        <ele>898.72</ele>
        <time>2021-03-27T14:07:52Z</time>
      </trkpt>
      <trkpt lat="41.883826" lon="-6.578445">
        <ele>900.0</ele>
        <time>2021-03-27T14:07:55Z</time>
      </trkpt>
      <trkpt lat="41.883769" lon="-6.578591">
        <ele>900.0</ele>
        <time>2021-03-27T14:07:58Z</time>
      </trkpt>
      <trkpt lat="41.883681" lon="-6.578709">
        <ele>900.35</ele>
        <time>2021-03-27T14:08:01Z</time>
      </trkpt>
      <trkpt lat="41.883342" lon="-6.57909">
        <ele>901.54</ele>
        <time>2021-03-27T14:08:03Z</time>
      </trkpt>
      <trkpt lat="41.883284" lon="-6.579205">
        <ele>901.23</ele>
        <time>2021-03-27T14:08:06Z</time>
      </trkpt>
      <trkpt lat="41.883277" lon="-6.579332">
        <ele>900.29</ele>
        <time>2021-03-27T14:08:09Z</time>
      </trkpt>
      <trkpt lat="41.883558" lon="-6.579076">
        <ele>901.12</ele>
        <time>2021-03-27T14:08:11Z</time>
      </trkpt>
      <trkpt lat="41.884102" lon="-6.578514">
        <ele>900.23</ele>
        <time>2021-03-27T14:08:13Z</time>
      </trkpt>
      <trkpt lat="41.884251" lon="-6.577962">
        <ele>896.02</ele>
        <time>2021-03-27T14:08:16Z</time>
      </trkpt>
      <trkpt lat="41.884485" lon="-6.5766">
        <ele>883.82</ele>
        <time>2021-03-27T14:08:18Z</time>
      </trkpt>
      <trkpt lat="41.884835" lon="-6.575012">
        <ele>880.45</ele>
        <time>2021-03-27T14:08:20Z</time>
      </trkpt>
      <trkpt lat="41.8853" lon="-6.574045">
        <ele>867.71</ele>
        <time>2021-03-27T14:08:22Z</time>
      </trkpt>
      <trkpt lat="41.885552" lon="-6.573849">
        <ele>865.18</ele>
        <time>2021-03-27T14:08:25Z</time>
      </trkpt>
      <trkpt lat="41.885871" lon="-6.573858">
        <ele>860.09</ele>
        <time>2021-03-27T14:08:27Z</time>
      </trkpt>
      <trkpt lat="41.886794" lon="-6.57409">
        <ele>852.53</ele>
        <time>2021-03-27T14:08:29Z</time>
      </trkpt>
      <trkpt lat="41.888676" lon="-6.574826">
        <ele>848.85</ele>
        <time>2021-03-27T14:08:31Z</time>
      </trkpt>
      <trkpt lat="41.889952" lon="-6.57563">
        <ele>835.88</ele>
        <time>2021-03-27T14:08:34Z</time>
      </trkpt>
      <trkpt lat="41.890212" lon="-6.57567">
        <ele>835.22</ele>
        <time>2021-03-27T14:08:36Z</time>
      </trkpt>
      <trkpt lat="41.890495" lon="-6.575637">
        <ele>835.18</ele>
        <time>2021-03-27T14:08:38Z</time>
      </trkpt>
      <trkpt lat="41.890735" lon="-6.575534">
        <ele>836.28</ele>
        <time>2021-03-27T14:08:41Z</time>
      </trkpt>
      <trkpt lat="41.890953" lon="-6.575634">
        <ele>835.7</ele>
        <time>2021-03-27T14:08:43Z</time>
      </trkpt>
      <trkpt lat="41.891047" lon="-6.575914">
        <ele>833.89</ele>
        <time>2021-03-27T14:08:45Z</time>
      </trkpt>
      <trkpt lat="41.891205" lon="-6.576861">
        <ele>829.05</ele>
        <time>2021-03-27T14:08:47Z</time>
      </trkpt>
      <trkpt lat="41.891288" lon="-6.577168">
        <ele>827.14</ele>
        <time>2021-03-27T14:08:50Z</time>
      </trkpt>
      <trkpt lat="41.89143" lon="-6.577378">
        <ele>826.8</ele>
        <time>2021-03-27T14:08:52Z</time>
      </trkpt>
      <trkpt lat="41.891604" lon="-6.577501">
        <ele>825.21</ele>
        <time>2021-03-27T14:08:54Z</time>
      </trkpt>
      <trkpt lat="41.891874" lon="-6.577517">
        <ele>822.56</ele>
        <time>2021-03-27T14:08:56Z</time>
      </trkpt>
      <trkpt lat="41.892158" lon="-6.577289">
        <ele>819.49</ele>
        <time>2021-03-27T14:08:59Z</time>
      </trkpt>
      <trkpt lat="41.892444" lon="-6.577023">
        <ele>819.02</ele>
        <time>2021-03-27T14:09:01Z</time>
      </trkpt>
      <trkpt lat="41.892721" lon="-6.576975">
        <ele>819.25</ele>
        <time>2021-03-27T14:09:03Z</time>
      </trkpt>
      <trkpt lat="41.892917" lon="-6.57724">
        <ele>813.65</ele>
        <time>2021-03-27T14:09:06Z</time>
      </trkpt>
      <trkpt lat="41.89408" lon="-6.579201">
        <ele>796.53</ele>
        <time>2021-03-27T14:09:08Z</time>
      </trkpt>
      <trkpt lat="41.894462" lon="-6.579405">
        <ele>795.38</ele>
        <time>2021-03-27T14:09:10Z</time>
      </trkpt>
      <trkpt lat="41.894824" lon="-6.579237">
        <ele>792.64</ele>
        <time>2021-03-27T14:09:12Z</time>
      </trkpt>
      <trkpt lat="41.895071" lon="-6.578498">
        <ele>792.56</ele>
        <time>2021-03-27T14:09:15Z</time>
      </trkpt>
      <trkpt lat="41.895362" lon="-6.577378">
        <ele>787.42</ele>
        <time>2021-03-27T14:09:17Z</time>
      </trkpt>
      <trkpt lat="41.895632" lon="-6.577239">
        <ele>787.14</ele>
        <time>2021-03-27T14:09:19Z</time>
      </trkpt>
      <trkpt lat="41.896463" lon="-6.577947">
        <ele>774.98</ele>
        <time>2021-03-27T14:09:21Z</time>
      </trkpt>
      <trkpt lat="41.896819" lon="-6.577982">
        <ele>772.6</ele>
        <time>2021-03-27T14:09:24Z</time>
      </trkpt>
      <trkpt lat="41.897509" lon="-6.577785">
        <ele>768.47</ele>
        <time>2021-03-27T14:09:26Z</time>
      </trkpt>
      <trkpt lat="41.897665" lon="-6.577697">
        <ele>764.95</ele>
        <time>2021-03-27T14:09:28Z</time>
      </trkpt>
      <trkpt lat="41.89777" lon="-6.577581">
        <ele>763.08</ele>
        <time>2021-03-27T14:09:30Z</time>
      </trkpt>
      <trkpt lat="41.897844" lon="-6.577383">
        <ele>762.01</ele>
        <time>2021-03-27T14:09:33Z</time>
      </trkpt>
      <trkpt lat="41.897876" lon="-6.577209">
        <ele>761.34</ele>
        <time>2021-03-27T14:09:35Z</time>
      </trkpt>
      <trkpt lat="41.897876" lon="-6.577066">
        <ele>760.81</ele>
        <time>2021-03-27T14:09:37Z</time>
      </trkpt>
      <trkpt lat="41.897854" lon="-6.576964">
        <ele>761.49</ele>
        <time>2021-03-27T14:09:40Z</time>
      </trkpt>
      <trkpt lat="41.897709" lon="-6.576659">
        <ele>765.39</ele>
        <time>2021-03-27T14:09:42Z</time>
      </trkpt>
      <trkpt lat="41.897685" lon="-6.576511">
        <ele>765.2</ele>
        <time>2021-03-27T14:09:44Z</time>
      </trkpt>
      <trkpt lat="41.897688" lon="-6.575438">
        <ele>762.14</ele>
        <time>2021-03-27T14:09:46Z</time>
      </trkpt>
      <trkpt lat="41.897698" lon="-6.575251">
        <ele>761.68</ele>
        <time>2021-03-27T14:09:49Z</time>
      </trkpt>
      <trkpt lat="41.897732" lon="-6.575081">
        <ele>760.43</ele>
        <time>2021-03-27T14:09:51Z</time>
      </trkpt>
      <trkpt lat="41.898567" lon="-6.573582">
        <ele>739.79</ele>
        <time>2021-03-27T14:09:53Z</time>
      </trkpt>
      <trkpt lat="41.898653" lon="-6.573263">
        <ele>738.83</ele>
        <time>2021-03-27T14:09:55Z</time>
      </trkpt>
      <trkpt lat="41.898675" lon="-6.572938">
        <ele>738.16</ele>
        <time>2021-03-27T14:09:58Z</time>
      </trkpt>
      <trkpt lat="41.898657" lon="-6.572694">
        <ele>738.48</ele>
        <time>2021-03-27T14:10:00Z</time>
      </trkpt>
      <trkpt lat="41.898679" lon="-6.572423">
        <ele>738.99</ele>
        <time>2021-03-27T14:10:02Z</time>
      </trkpt>
      <trkpt lat="41.898729" lon="-6.572225">
        <ele>738.45</ele>
        <time>2021-03-27T14:10:04Z</time>
      </trkpt>
      <trkpt lat="41.898882" lon="-6.571919">
        <ele>736.14</ele>
        <time>2021-03-27T14:10:07Z</time>
      </trkpt>
      <trkpt lat="41.898994" lon="-6.571804">
        <ele>733.73</ele>
        <time>2021-03-27T14:10:09Z</time>
      </trkpt>
      <trkpt lat="41.89921" lon="-6.571637">
        <ele>731.09</ele>
        <time>2021-03-27T14:10:11Z</time>
      </trkpt>
      <trkpt lat="41.900775" lon="-6.570699">
        <ele>719.19</ele>
        <time>2021-03-27T14:10:14Z</time>
      </trkpt>
      <trkpt lat="41.900891" lon="-6.570575">
        <ele>718.08</ele>
        <time>2021-03-27T14:10:16Z</time>
      </trkpt>
      <trkpt lat="41.900977" lon="-6.570431">
        <ele>717.67</ele>
        <time>2021-03-27T14:10:18Z</time>
      </trkpt>
      <trkpt lat="41.901196" lon="-6.569969">
        <ele>716.87</ele>
        <time>2021-03-27T14:10:20Z</time>
      </trkpt>
      <trkpt lat="41.901418" lon="-6.569591">
        <ele>716.32</ele>
        <time>2021-03-27T14:10:23Z</time>
      </trkpt>
      <trkpt lat="41.901598" lon="-6.56935">
        <ele>714.19</ele>
        <time>2021-03-27T14:10:25Z</time>
      </trkpt>
      <trkpt lat="41.903161" lon="-6.567746">
        <ele>696.72</ele>
        <time>2021-03-27T14:10:27Z</time>
      </trkpt>
      <trkpt lat="41.90337" lon="-6.567469">
        <ele>693.54</ele>
        <time>2021-03-27T14:10:29Z</time>
      </trkpt>
      <trkpt lat="41.90376" lon="-6.566777">
        <ele>690.96</ele>
        <time>2021-03-27T14:10:32Z</time>
      </trkpt>
      <trkpt lat="41.903811" lon="-6.566632">
        <ele>690.52</ele>
        <time>2021-03-27T14:10:34Z</time>
      </trkpt>
      <trkpt lat="41.903841" lon="-6.566439">
        <ele>690.67</ele>
        <time>2021-03-27T14:10:36Z</time>
      </trkpt>
      <trkpt lat="41.903827" lon="-6.565801">
        <ele>688.54</ele>
        <time>2021-03-27T14:10:38Z</time>
      </trkpt>
      <trkpt lat="41.903857" lon="-6.565578">
        <ele>685.7</ele>
        <time>2021-03-27T14:10:41Z</time>
      </trkpt>
      <trkpt lat="41.903907" lon="-6.56538">
        <ele>684.17</ele>
        <time>2021-03-27T14:10:43Z</time>
      </trkpt>
      <trkpt lat="41.904073" lon="-6.564942">
        <ele>683.27</ele>
        <time>2021-03-27T14:10:45Z</time>
      </trkpt>
      <trkpt lat="41.90418" lon="-6.564802">
        <ele>684.49</ele>
        <time>2021-03-27T14:10:48Z</time>
      </trkpt>
      <trkpt lat="41.904294" lon="-6.564718">
        <ele>685.97</ele>
        <time>2021-03-27T14:10:50Z</time>
      </trkpt>
      <trkpt lat="41.904899" lon="-6.564573">
        <ele>688.02</ele>
        <time>2021-03-27T14:10:52Z</time>
      </trkpt>
      <trkpt lat="41.905141" lon="-6.564428">
        <ele>688.98</ele>
        <time>2021-03-27T14:10:54Z</time>
      </trkpt>
      <trkpt lat="41.905658" lon="-6.564176">
        <ele>688.09</ele>
        <time>2021-03-27T14:10:57Z</time>
      </trkpt>
      <trkpt lat="41.905792" lon="-6.564173">
        <ele>687.2</ele>
        <time>2021-03-27T14:10:59Z</time>
      </trkpt>
      <trkpt lat="41.905919" lon="-6.564213">
        <ele>686.43</ele>
        <time>2021-03-27T14:11:01Z</time>
      </trkpt>
      <trkpt lat="41.905979" lon="-6.564256">
        <ele>686.05</ele>
        <time>2021-03-27T14:11:03Z</time>
      </trkpt>
      <trkpt lat="41.906213" lon="-6.564484">
        <ele>685.87</ele>
        <time>2021-03-27T14:11:06Z</time>
      </trkpt>
      <trkpt lat="41.906914" lon="-6.565316">
        <ele>690.94</ele>
        <time>2021-03-27T14:11:08Z</time>
      </trkpt>
      <trkpt lat="41.907061" lon="-6.565439">
        <ele>690.94</ele>
        <time>2021-03-27T14:11:10Z</time>
      </trkpt>
      <trkpt lat="41.907293" lon="-6.565557">
        <ele>691.24</ele>
        <time>2021-03-27T14:11:13Z</time>
      </trkpt>
      <trkpt lat="41.907441" lon="-6.565594">
        <ele>691.25</ele>
        <time>2021-03-27T14:11:15Z</time>
      </trkpt>
      <trkpt lat="41.907587" lon="-6.565597">
        <ele>691.71</ele>
        <time>2021-03-27T14:11:17Z</time>
      </trkpt>
      <trkpt lat="41.907746" lon="-6.565546">
        <ele>693.02</ele>
        <time>2021-03-27T14:11:19Z</time>
      </trkpt>
      <trkpt lat="41.908413" lon="-6.565165">
        <ele>695.31</ele>
        <time>2021-03-27T14:11:22Z</time>
      </trkpt>
      <trkpt lat="41.909" lon="-6.564959">
        <ele>697.03</ele>
        <time>2021-03-27T14:11:24Z</time>
      </trkpt>
      <trkpt lat="41.909197" lon="-6.564908">
        <ele>698.35</ele>
        <time>2021-03-27T14:11:26Z</time>
      </trkpt>
      <trkpt lat="41.909471" lon="-6.564927">
        <ele>698.27</ele>
        <time>2021-03-27T14:11:28Z</time>
      </trkpt>
      <trkpt lat="41.909692" lon="-6.564991">
        <ele>698.01</ele>
        <time>2021-03-27T14:11:31Z</time>
      </trkpt>
      <trkpt lat="41.909846" lon="-6.565071">
        <ele>698.56</ele>
        <time>2021-03-27T14:11:33Z</time>
      </trkpt>
      <trkpt lat="41.910014" lon="-6.565203">
        <ele>699.04</ele>
        <time>2021-03-27T14:11:35Z</time>
      </trkpt>
      <trkpt lat="41.910166" lon="-6.565361">
        <ele>700.38</ele>
        <time>2021-03-27T14:11:37Z</time>
      </trkpt>
      <trkpt lat="41.910465" lon="-6.565879">
        <ele>698.36</ele>
        <time>2021-03-27T14:11:40Z</time>
      </trkpt>
      <trkpt lat="41.910616" lon="-6.566048">
        <ele>697.4</ele>
        <time>2021-03-27T14:11:42Z</time>
      </trkpt>
      <trkpt lat="41.911784" lon="-6.566751">
        <ele>697.06</ele>
        <time>2021-03-27T14:11:44Z</time>
      </trkpt>
      <trkpt lat="41.911923" lon="-6.566863">
        <ele>696.94</ele>
        <time>2021-03-27T14:11:47Z</time>
      </trkpt>
      <trkpt lat="41.912805" lon="-6.567699">
        <ele>693.9</ele>
        <time>2021-03-27T14:11:49Z</time>
      </trkpt>
      <trkpt lat="41.912928" lon="-6.567738">
        <ele>693.82</ele>
        <time>2021-03-27T14:11:51Z</time>
      </trkpt>
      <trkpt lat="41.913406" lon="-6.567755">
        <ele>696.03</ele>
        <time>2021-03-27T14:11:53Z</time>
      </trkpt>
      <trkpt lat="41.913546" lon="-6.567779">
        <ele>697.3</ele>
        <time>2021-03-27T14:11:56Z</time>
      </trkpt>
      <trkpt lat="41.913839" lon="-6.567921">
        <ele>700.31</ele>
        <time>2021-03-27T14:11:58Z</time>
      </trkpt>
      <trkpt lat="41.914095" lon="-6.568183">
        <ele>699.57</ele>
        <time>2021-03-27T14:12:00Z</time>
      </trkpt>
      <trkpt lat="41.914206" lon="-6.568365">
        <ele>699.19</ele>
        <time>2021-03-27T14:12:02Z</time>
      </trkpt>
      <trkpt lat="41.914389" lon="-6.568848">
        <ele>698.55</ele>
        <time>2021-03-27T14:12:05Z</time>
      </trkpt>
      <trkpt lat="41.914629" lon="-6.569202">
        <ele>699.07</ele>
        <time>2021-03-27T14:12:07Z</time>
      </trkpt>
      <trkpt lat="41.915205" lon="-6.56971">
        <ele>697.83</ele>
        <time>2021-03-27T14:12:09Z</time>
      </trkpt>
      <trkpt lat="41.915195" lon="-6.570165">
        <ele>698.54</ele>
        <time>2021-03-27T14:12:12Z</time>
      </trkpt>
      <trkpt lat="41.915207" lon="-6.570298">
        <ele>699.18</ele>
        <time>2021-03-27T14:12:15Z</time>
      </trkpt>
      <trkpt lat="41.915494" lon="-6.571128">
        <ele>703.91</ele>
        <time>2021-03-27T14:12:17Z</time>
      </trkpt>
      <trkpt lat="41.915675" lon="-6.571511">
        <ele>707.08</ele>
        <time>2021-03-27T14:12:20Z</time>
      </trkpt>
      <trkpt lat="41.916073" lon="-6.572136">
        <ele>704.53</ele>
        <time>2021-03-27T14:12:23Z</time>
      </trkpt>
      <trkpt lat="41.916221" lon="-6.572418">
        <ele>705.51</ele>
        <time>2021-03-27T14:12:26Z</time>
      </trkpt>
      <trkpt lat="41.916292" lon="-6.572654">
        <ele>708.8</ele>
        <time>2021-03-27T14:12:28Z</time>
      </trkpt>
      <trkpt lat="41.916496" lon="-6.572912">
        <ele>710.45</ele>
        <time>2021-03-27T14:12:31Z</time>
      </trkpt>
      <trkpt lat="41.916789" lon="-6.57315">
        <ele>710.65</ele>
        <time>2021-03-27T14:12:34Z</time>
      </trkpt>
      <trkpt lat="41.917096" lon="-6.573365">
        <ele>709.46</ele>
        <time>2021-03-27T14:12:36Z</time>
      </trkpt>
      <trkpt lat="41.917398" lon="-6.573628">
        <ele>709.89</ele>
        <time>2021-03-27T14:12:39Z</time>
      </trkpt>
      <trkpt lat="41.917937" lon="-6.57428">
        <ele>715.72</ele>
        <time>2021-03-27T14:12:42Z</time>
      </trkpt>
      <trkpt lat="41.918197" lon="-6.574416">
        <ele>714.69</ele>
        <time>2021-03-27T14:12:45Z</time>
      </trkpt>
      <trkpt lat="41.918506" lon="-6.574497">
        <ele>712.67</ele>
        <time>2021-03-27T14:12:47Z</time>
      </trkpt>
      <trkpt lat="41.918801" lon="-6.574542">
        <ele>711.99</ele>
        <time>2021-03-27T14:12:50Z</time>
      </trkpt>
      <trkpt lat="41.919367" lon="-6.574542">
        <ele>707.53</ele>
        <time>2021-03-27T14:12:53Z</time>
      </trkpt>
      <trkpt lat="41.919786" lon="-6.574502">
        <ele>709.74</ele>
        <time>2021-03-27T14:12:56Z</time>
      </trkpt>
      <trkpt lat="41.919901" lon="-6.574553">
        <ele>711.18</ele>
        <time>2021-03-27T14:12:58Z</time>
      </trkpt>
      <trkpt lat="41.919972" lon="-6.574615">
        <ele>712.24</ele>
        <time>2021-03-27T14:13:01Z</time>
      </trkpt>
      <trkpt lat="41.920237" lon="-6.575008">
        <ele>718.0</ele>
        <time>2021-03-27T14:13:04Z</time>
      </trkpt>
      <trkpt lat="41.920431" lon="-6.57548">
        <ele>722.57</ele>
        <time>2021-03-27T14:13:06Z</time>
      </trkpt>
      <trkpt lat="41.92064" lon="-6.5758">
        <ele>725.6</ele>
        <time>2021-03-27T14:13:09Z</time>
      </trkpt>
      <trkpt lat="41.921604" lon="-6.576797">
        <ele>740.95</ele>
        <time>2021-03-27T14:13:12Z</time>
      </trkpt>
      <trkpt lat="41.923177" lon="-6.577986">
        <ele>764.49</ele>
        <time>2021-03-27T14:13:15Z</time>
      </trkpt>
      <trkpt lat="41.925079" lon="-6.578847">
        <ele>788.01</ele>
        <time>2021-03-27T14:13:17Z</time>
      </trkpt>
      <trkpt lat="41.925389" lon="-6.57901">
        <ele>792.23</ele>
        <time>2021-03-27T14:13:20Z</time>
      </trkpt>
      <trkpt lat="41.92561" lon="-6.579185">
        <ele>796.0</ele>
        <time>2021-03-27T14:13:23Z</time>
      </trkpt>
      <trkpt lat="41.925866" lon="-6.579507">
        <ele>798.85</ele>
        <time>2021-03-27T14:13:26Z</time>
      </trkpt>
      <trkpt lat="41.926003" lon="-6.579726">
        <ele>799.65</ele>
        <time>2021-03-27T14:13:28Z</time>
      </trkpt>
      <trkpt lat="41.926279" lon="-6.580333">
        <ele>803.15</ele>
        <time>2021-03-27T14:13:31Z</time>
      </trkpt>
      <trkpt lat="41.926365" lon="-6.580587">
        <ele>805.3</ele>
        <time>2021-03-27T14:13:34Z</time>
      </trkpt>
      <trkpt lat="41.926402" lon="-6.580807">
        <ele>806.39</ele>
        <time>2021-03-27T14:13:36Z</time>
      </trkpt>
      <trkpt lat="41.926437" lon="-6.581392">
        <ele>807.37</ele>
        <time>2021-03-27T14:13:39Z</time>
      </trkpt>
      <trkpt lat="41.926425" lon="-6.583031">
        <ele>807.28</ele>
        <time>2021-03-27T14:13:42Z</time>
      </trkpt>
      <trkpt lat="41.926476" lon="-6.583433">
        <ele>807.93</ele>
        <time>2021-03-27T14:13:45Z</time>
      </trkpt>
      <trkpt lat="41.926592" lon="-6.583836">
        <ele>809.46</ele>
        <time>2021-03-27T14:13:47Z</time>
      </trkpt>
      <trkpt lat="41.926676" lon="-6.584053">
        <ele>810.64</ele>
        <time>2021-03-27T14:13:50Z</time>
      </trkpt>
      <trkpt lat="41.9294" lon="-6.589125">
        <ele>837.43</ele>
        <time>2021-03-27T14:13:53Z</time>
      </trkpt>
      <trkpt lat="41.929573" lon="-6.58949">
        <ele>839.16</ele>
        <time>2021-03-27T14:13:56Z</time>
      </trkpt>
      <trkpt lat="41.929753" lon="-6.590023">
        <ele>843.55</ele>
        <time>2021-03-27T14:13:58Z</time>
      </trkpt>
      <trkpt lat="41.929823" lon="-6.590375">
        <ele>844.32</ele>
        <time>2021-03-27T14:14:01Z</time>
      </trkpt>
      <trkpt lat="41.929859" lon="-6.590713">
        <ele>844.48</ele>
        <time>2021-03-27T14:14:04Z</time>
      </trkpt>
      <trkpt lat="41.929859" lon="-6.591048">
        <ele>846.03</ele>
        <time>2021-03-27T14:14:06Z</time>
      </trkpt>
      <trkpt lat="41.929829" lon="-6.591464">
        <ele>848.43</ele>
        <time>2021-03-27T14:14:09Z</time>
      </trkpt>
      <trkpt lat="41.929691" lon="-6.592655">
        <ele>859.88</ele>
        <time>2021-03-27T14:14:12Z</time>
      </trkpt>
      <trkpt lat="41.929723" lon="-6.592966">
        <ele>861.68</ele>
        <time>2021-03-27T14:14:15Z</time>
      </trkpt>
      <trkpt lat="41.929773" lon="-6.593186">
        <ele>863.22</ele>
        <time>2021-03-27T14:14:17Z</time>
      </trkpt>
      <trkpt lat="41.929876" lon="-6.593428">
        <ele>865.39</ele>
        <time>2021-03-27T14:14:20Z</time>
      </trkpt>
      <trkpt lat="41.93004" lon="-6.593701">
        <ele>868.86</ele>
        <time>2021-03-27T14:14:23Z</time>
      </trkpt>
      <trkpt lat="41.93034" lon="-6.593953">
        <ele>873.91</ele>
        <time>2021-03-27T14:14:26Z</time>
      </trkpt>
      <trkpt lat="41.930519" lon="-6.594041">
        <ele>875.84</ele>
        <time>2021-03-27T14:14:28Z</time>
      </trkpt>
      <trkpt lat="41.931385" lon="-6.594304">
        <ele>879.48</ele>
        <time>2021-03-27T14:14:31Z</time>
      </trkpt>
      <trkpt lat="41.931636" lon="-6.594326">
        <ele>881.59</ele>
        <time>2021-03-27T14:14:34Z</time>
      </trkpt>
      <trkpt lat="41.931858" lon="-6.594312">
        <ele>882.28</ele>
        <time>2021-03-27T14:14:36Z</time>
      </trkpt>
      <trkpt lat="41.932064" lon="-6.594277">
        <ele>883.06</ele>
        <time>2021-03-27T14:14:39Z</time>
      </trkpt>
      <trkpt lat="41.932223" lon="-6.594224">
        <ele>884.17</ele>
        <time>2021-03-27T14:14:42Z</time>
      </trkpt>
      <trkpt lat="41.932417" lon="-6.594108">
        <ele>884.8</ele>
        <time>2021-03-27T14:14:45Z</time>
      </trkpt>
      <trkpt lat="41.932612" lon="-6.59395">
        <ele>885.43</ele>
        <time>2021-03-27T14:14:47Z</time>
      </trkpt>
      <trkpt lat="41.933235" lon="-6.59336">
        <ele>887.28</ele>
        <time>2021-03-27T14:14:50Z</time>
      </trkpt>
      <trkpt lat="41.933732" lon="-6.593215">
        <ele>884.45</ele>
        <time>2021-03-27T14:14:53Z</time>
      </trkpt>
      <trkpt lat="41.933895" lon="-6.593221">
        <ele>884.08</ele>
        <time>2021-03-27T14:14:56Z</time>
      </trkpt>
      <trkpt lat="41.934259" lon="-6.593352">
        <ele>885.36</ele>
        <time>2021-03-27T14:14:58Z</time>
      </trkpt>
      <trkpt lat="41.936207" lon="-6.594308">
        <ele>892.18</ele>
        <time>2021-03-27T14:15:01Z</time>
      </trkpt>
      <trkpt lat="41.936896" lon="-6.594676">
        <ele>895.0</ele>
        <time>2021-03-27T14:15:04Z</time>
      </trkpt>
      <trkpt lat="41.937239" lon="-6.594829">
        <ele>897.72</ele>
        <time>2021-03-27T14:15:06Z</time>
      </trkpt>
      <trkpt lat="41.937494" lon="-6.594909">
        <ele>898.63</ele>
        <time>2021-03-27T14:15:09Z</time>
      </trkpt>
      <trkpt lat="41.939236" lon="-6.594781">
        <ele>891.72</ele>
        <time>2021-03-27T14:15:12Z</time>
      </trkpt>
      <trkpt lat="41.93952" lon="-6.594847">
        <ele>889.13</ele>
        <time>2021-03-27T14:15:15Z</time>
      </trkpt>
      <trkpt lat="41.939936" lon="-6.594993">
        <ele>887.23</ele>
        <time>2021-03-27T14:15:17Z</time>
      </trkpt>
      <trkpt lat="41.940082" lon="-6.595133">
        <ele>887.44</ele>
        <time>2021-03-27T14:15:20Z</time>
      </trkpt>
      <trkpt lat="41.940177" lon="-6.595267">
        <ele>888.25</ele>
        <time>2021-03-27T14:15:23Z</time>
      </trkpt>
      <trkpt lat="41.940277" lon="-6.595517">
        <ele>888.13</ele>
        <time>2021-03-27T14:15:26Z</time>
      </trkpt>
      <trkpt lat="41.940366" lon="-6.596482">
        <ele>882.44</ele>
        <time>2021-03-27T14:15:28Z</time>
      </trkpt>
      <trkpt lat="41.940438" lon="-6.596897">
        <ele>879.49</ele>
        <time>2021-03-27T14:15:31Z</time>
      </trkpt>
      <trkpt lat="41.940713" lon="-6.598127">
        <ele>869.75</ele>
        <time>2021-03-27T14:15:34Z</time>
      </trkpt>
      <trkpt lat="41.941427" lon="-6.601029">
        <ele>858.94</ele>
        <time>2021-03-27T14:15:36Z</time>
      </trkpt>
      <trkpt lat="41.941505" lon="-6.601404">
        <ele>853.57</ele>
        <time>2021-03-27T14:15:39Z</time>
      </trkpt>
      <trkpt lat="41.941539" lon="-6.601729">
        <ele>850.77</ele>
        <time>2021-03-27T14:15:42Z</time>
      </trkpt>
      <trkpt lat="41.941517" lon="-6.602332">
        <ele>845.65</ele>
        <time>2021-03-27T14:15:45Z</time>
      </trkpt>
      <trkpt lat="41.941193" lon="-6.607942">
        <ele>802.82</ele>
        <time>2021-03-27T14:15:47Z</time>
      </trkpt>
      <trkpt lat="41.941058" lon="-6.608488">
        <ele>803.17</ele>
        <time>2021-03-27T14:15:50Z</time>
      </trkpt>
      <trkpt lat="41.94045" lon="-6.610368">
        <ele>790.09</ele>
        <time>2021-03-27T14:15:53Z</time>
      </trkpt>
      <trkpt lat="41.94038" lon="-6.610451">
        <ele>788.83</ele>
        <time>2021-03-27T14:15:56Z</time>
      </trkpt>
      <trkpt lat="41.940312" lon="-6.610492">
        <ele>787.61</ele>
        <time>2021-03-27T14:15:58Z</time>
      </trkpt>
      <trkpt lat="41.940246" lon="-6.610459">
        <ele>786.46</ele>
        <time>2021-03-27T14:16:01Z</time>
      </trkpt>
      <trkpt lat="41.940196" lon="-6.610339">
        <ele>785.37</ele>
        <time>2021-03-27T14:16:04Z</time>
      </trkpt>
      <trkpt lat="41.940204" lon="-6.610146">
        <ele>784.46</ele>
        <time>2021-03-27T14:16:06Z</time>
      </trkpt>
      <trkpt lat="41.940254" lon="-6.609995">
        <ele>784.47</ele>
        <time>2021-03-27T14:16:09Z</time>
      </trkpt>
      <trkpt lat="41.94026" lon="-6.609786">
        <ele>783.85</ele>
        <time>2021-03-27T14:16:12Z</time>
      </trkpt>
      <trkpt lat="41.940238" lon="-6.609561">
        <ele>782.65</ele>
        <time>2021-03-27T14:16:15Z</time>
      </trkpt>
      <trkpt lat="41.940166" lon="-6.609344">
        <ele>781.35</ele>
        <time>2021-03-27T14:16:17Z</time>
      </trkpt>
      <trkpt lat="41.939775" lon="-6.608729">
        <ele>778.1</ele>
        <time>2021-03-27T14:16:20Z</time>
      </trkpt>
      <trkpt lat="41.939428" lon="-6.608303">
        <ele>770.59</ele>
        <time>2021-03-27T14:16:23Z</time>
      </trkpt>
      <trkpt lat="41.939275" lon="-6.608204">
        <ele>767.21</ele>
        <time>2021-03-27T14:16:26Z</time>
      </trkpt>
      <trkpt lat="41.939134" lon="-6.608176">
        <ele>764.44</ele>
        <time>2021-03-27T14:16:28Z</time>
      </trkpt>
      <trkpt lat="41.938926" lon="-6.608211">
        <ele>762.13</ele>
        <time>2021-03-27T14:16:31Z</time>
      </trkpt>
      <trkpt lat="41.938613" lon="-6.608391">
        <ele>759.24</ele>
        <time>2021-03-27T14:16:34Z</time>
      </trkpt>
      <trkpt lat="41.938472" lon="-6.608561">
        <ele>756.9</ele>
        <time>2021-03-27T14:16:36Z</time>
      </trkpt>
      <trkpt lat="41.938385" lon="-6.608827">
        <ele>754.34</ele>
        <time>2021-03-27T14:16:39Z</time>
      </trkpt>
      <trkpt lat="41.938374" lon="-6.609117">
        <ele>752.24</ele>
        <time>2021-03-27T14:16:42Z</time>
      </trkpt>
      <trkpt lat="41.938423" lon="-6.609656">
        <ele>749.34</ele>
        <time>2021-03-27T14:16:45Z</time>
      </trkpt>
      <trkpt lat="41.938416" lon="-6.609895">
        <ele>748.78</ele>
        <time>2021-03-27T14:16:47Z</time>
      </trkpt>
      <trkpt lat="41.938168" lon="-6.611307">
        <ele>738.02</ele>
        <time>2021-03-27T14:16:50Z</time>
      </trkpt>
      <trkpt lat="41.93808" lon="-6.611967">
        <ele>735.35</ele>
        <time>2021-03-27T14:16:53Z</time>
      </trkpt>
      <trkpt lat="41.938025" lon="-6.613047">
        <ele>725.21</ele>
        <time>2021-03-27T14:16:56Z</time>
      </trkpt>
      <trkpt lat="41.93799" lon="-6.613447">
        <ele>720.09</ele>
        <time>2021-03-27T14:16:58Z</time>
      </trkpt>
      <trkpt lat="41.938002" lon="-6.613672">
        <ele>718.88</ele>
        <time>2021-03-27T14:17:01Z</time>
      </trkpt>
      <trkpt lat="41.938056" lon="-6.613898">
        <ele>717.95</ele>
        <time>2021-03-27T14:17:04Z</time>
      </trkpt>
      <trkpt lat="41.938193" lon="-6.614207">
        <ele>716.77</ele>
        <time>2021-03-27T14:17:06Z</time>
      </trkpt>
      <trkpt lat="41.938384" lon="-6.614555">
        <ele>715.31</ele>
        <time>2021-03-27T14:17:09Z</time>
      </trkpt>
      <trkpt lat="41.93853" lon="-6.614878">
        <ele>712.32</ele>
        <time>2021-03-27T14:17:12Z</time>
      </trkpt>
      <trkpt lat="41.938648" lon="-6.615356">
        <ele>708.85</ele>
        <time>2021-03-27T14:17:15Z</time>
      </trkpt>
      <trkpt lat="41.93869" lon="-6.615614">
        <ele>708.07</ele>
        <time>2021-03-27T14:17:17Z</time>
      </trkpt>
      <trkpt lat="41.938548" lon="-6.616288">
        <ele>705.77</ele>
        <time>2021-03-27T14:17:20Z</time>
      </trkpt>
      <trkpt lat="41.938446" lon="-6.616768">
        <ele>709.34</ele>
        <time>2021-03-27T14:17:23Z</time>
      </trkpt>
      <trkpt lat="41.938444" lon="-6.616892">
        <ele>712.19</ele>
        <time>2021-03-27T14:17:26Z</time>
      </trkpt>
      <trkpt lat="41.939216" lon="-6.616834">
        <ele>719.8</ele>
        <time>2021-03-27T14:17:28Z</time>
      </trkpt>
      <trkpt lat="41.939336" lon="-6.616807">
        <ele>720.79</ele>
        <time>2021-03-27T14:17:31Z</time>
      </trkpt>
      <trkpt lat="41.939565" lon="-6.616693">
        <ele>719.2</ele>
        <time>2021-03-27T14:17:33Z</time>
      </trkpt>
      <trkpt lat="41.939748" lon="-6.61664">
        <ele>718.43</ele>
        <time>2021-03-27T14:17:36Z</time>
      </trkpt>
      <trkpt lat="41.939811" lon="-6.61659">
        <ele>717.3</ele>
        <time>2021-03-27T14:17:38Z</time>
      </trkpt>
      <trkpt lat="41.939933" lon="-6.616553">
        <ele>716.2</ele>
        <time>2021-03-27T14:17:41Z</time>
      </trkpt>
      <trkpt lat="41.940094" lon="-6.616535">
        <ele>715.14</ele>
        <time>2021-03-27T14:17:44Z</time>
      </trkpt>
      <trkpt lat="41.940389" lon="-6.616417">
        <ele>711.56</ele>
        <time>2021-03-27T14:17:46Z</time>
      </trkpt>
      <trkpt lat="41.940613" lon="-6.616659">
        <ele>715.46</ele>
        <time>2021-03-27T14:17:48Z</time>
      </trkpt>
      <trkpt lat="41.940748" lon="-6.61691">
        <ele>716.91</ele>
        <time>2021-03-27T14:17:50Z</time>
      </trkpt>
      <trkpt lat="41.94086" lon="-6.616957">
        <ele>715.94</ele>
        <time>2021-03-27T14:17:52Z</time>
      </trkpt>
      <trkpt lat="41.94112" lon="-6.617304">
        <ele>717.62</ele>
        <time>2021-03-27T14:17:54Z</time>
      </trkpt>
      <trkpt lat="41.941254" lon="-6.617444">
        <ele>717.91</ele>
        <time>2021-03-27T14:17:56Z</time>
      </trkpt>
      <trkpt lat="41.941388" lon="-6.617622">
        <ele>718.22</ele>
        <time>2021-03-27T14:17:58Z</time>
      </trkpt>
      <trkpt lat="41.941593" lon="-6.618154">
        <ele>719.13</ele>
        <time>2021-03-27T14:18:00Z</time>
      </trkpt>
      <trkpt lat="41.941699" lon="-6.618353">
        <ele>717.43</ele>
        <time>2021-03-27T14:18:02Z</time>
      </trkpt>
      <trkpt lat="41.941759" lon="-6.61851">
        <ele>716.84</ele>
        <time>2021-03-27T14:18:04Z</time>
      </trkpt>
      <trkpt lat="41.941866" lon="-6.618905">
        <ele>715.92</ele>
        <time>2021-03-27T14:18:06Z</time>
      </trkpt>
      <trkpt lat="41.941902" lon="-6.618958">
        <ele>714.89</ele>
        <time>2021-03-27T14:18:08Z</time>
      </trkpt>
      <trkpt lat="41.941961" lon="-6.618977">
        <ele>713.13</ele>
        <time>2021-03-27T14:18:10Z</time>
      </trkpt>
      <trkpt lat="41.942181" lon="-6.618942">
        <ele>710.64</ele>
        <time>2021-03-27T14:18:12Z</time>
      </trkpt>
      <trkpt lat="41.942446" lon="-6.618857">
        <ele>713.23</ele>
        <time>2021-03-27T14:18:14Z</time>
      </trkpt>
      <trkpt lat="41.942521" lon="-6.618854">
        <ele>714.46</ele>
        <time>2021-03-27T14:18:16Z</time>
      </trkpt>
      <trkpt lat="41.942565" lon="-6.61889">
        <ele>715.41</ele>
        <time>2021-03-27T14:18:19Z</time>
      </trkpt>
      <trkpt lat="41.942634" lon="-6.619128">
        <ele>716.93</ele>
        <time>2021-03-27T14:18:21Z</time>
      </trkpt>
      <trkpt lat="41.942745" lon="-6.619384">
        <ele>718.53</ele>
        <time>2021-03-27T14:18:23Z</time>
      </trkpt>
      <trkpt lat="41.94287" lon="-6.61957">
        <ele>720.2</ele>
        <time>2021-03-27T14:18:25Z</time>
      </trkpt>
      <trkpt lat="41.943007" lon="-6.619758">
        <ele>721.9</ele>
        <time>2021-03-27T14:18:27Z</time>
      </trkpt>
      <trkpt lat="41.943188" lon="-6.619931">
        <ele>723.16</ele>
        <time>2021-03-27T14:18:29Z</time>
      </trkpt>
      <trkpt lat="41.943467" lon="-6.620293">
        <ele>719.31</ele>
        <time>2021-03-27T14:18:31Z</time>
      </trkpt>
      <trkpt lat="41.943599" lon="-6.62041">
        <ele>718.53</ele>
        <time>2021-03-27T14:18:33Z</time>
      </trkpt>
      <trkpt lat="41.943662" lon="-6.620426">
        <ele>717.95</ele>
        <time>2021-03-27T14:18:35Z</time>
      </trkpt>
      <trkpt lat="41.943737" lon="-6.620412">
        <ele>717.4</ele>
        <time>2021-03-27T14:18:37Z</time>
      </trkpt>
      <trkpt lat="41.943948" lon="-6.620271">
        <ele>716.47</ele>
        <time>2021-03-27T14:18:39Z</time>
      </trkpt>
      <trkpt lat="41.944188" lon="-6.620148">
        <ele>715.79</ele>
        <time>2021-03-27T14:18:41Z</time>
      </trkpt>
      <trkpt lat="41.944762" lon="-6.620087">
        <ele>716.04</ele>
        <time>2021-03-27T14:18:43Z</time>
      </trkpt>
      <trkpt lat="41.945041" lon="-6.620151">
        <ele>716.53</ele>
        <time>2021-03-27T14:18:45Z</time>
      </trkpt>
      <trkpt lat="41.945176" lon="-6.620137">
        <ele>716.5</ele>
        <time>2021-03-27T14:18:47Z</time>
      </trkpt>
      <trkpt lat="41.945603" lon="-6.619887">
        <ele>718.92</ele>
        <time>2021-03-27T14:18:49Z</time>
      </trkpt>
      <trkpt lat="41.945733" lon="-6.619895">
        <ele>720.29</ele>
        <time>2021-03-27T14:18:51Z</time>
      </trkpt>
      <trkpt lat="41.946032" lon="-6.620095">
        <ele>724.97</ele>
        <time>2021-03-27T14:18:53Z</time>
      </trkpt>
      <trkpt lat="41.946991" lon="-6.621041">
        <ele>728.69</ele>
        <time>2021-03-27T14:18:55Z</time>
      </trkpt>
      <trkpt lat="41.947199" lon="-6.621204">
        <ele>730.3</ele>
        <time>2021-03-27T14:18:57Z</time>
      </trkpt>
      <trkpt lat="41.94743" lon="-6.621318">
        <ele>732.04</ele>
        <time>2021-03-27T14:18:59Z</time>
      </trkpt>
      <trkpt lat="41.947694" lon="-6.621412">
        <ele>736.15</ele>
        <time>2021-03-27T14:19:01Z</time>
      </trkpt>
      <trkpt lat="41.948045" lon="-6.621467">
        <ele>741.17</ele>
        <time>2021-03-27T14:19:03Z</time>
      </trkpt>
      <trkpt lat="41.948624" lon="-6.621427">
        <ele>745.14</ele>
        <time>2021-03-27T14:19:05Z</time>
      </trkpt>
      <trkpt lat="41.949194" lon="-6.621529">
        <ele>753.02</ele>
        <time>2021-03-27T14:19:07Z</time>
      </trkpt>
      <trkpt lat="41.949541" lon="-6.621568">
        <ele>758.37</ele>
        <time>2021-03-27T14:19:09Z</time>
      </trkpt>
      <trkpt lat="41.949897" lon="-6.621564">
        <ele>765.27</ele>
        <time>2021-03-27T14:19:11Z</time>
      </trkpt>
      <trkpt lat="41.950239" lon="-6.621594">
        <ele>770.5</ele>
        <time>2021-03-27T14:19:13Z</time>
      </trkpt>
      <trkpt lat="41.950393" lon="-6.621641">
        <ele>771.32</ele>
        <time>2021-03-27T14:19:15Z</time>
      </trkpt>
      <trkpt lat="41.950579" lon="-6.621746">
        <ele>770.32</ele>
        <time>2021-03-27T14:19:17Z</time>
      </trkpt>
      <trkpt lat="41.950735" lon="-6.621766">
        <ele>770.99</ele>
        <time>2021-03-27T14:19:19Z</time>
      </trkpt>
      <trkpt lat="41.95089" lon="-6.621645">
        <ele>773.75</ele>
        <time>2021-03-27T14:19:21Z</time>
      </trkpt>
      <trkpt lat="41.950993" lon="-6.62144">
        <ele>775.89</ele>
        <time>2021-03-27T14:19:23Z</time>
      </trkpt>
      <trkpt lat="41.951074" lon="-6.621066">
        <ele>778.95</ele>
        <time>2021-03-27T14:19:25Z</time>
      </trkpt>
      <trkpt lat="41.951219" lon="-6.620834">
        <ele>779.22</ele>
        <time>2021-03-27T14:19:27Z</time>
      </trkpt>
      <trkpt lat="41.951475" lon="-6.620584">
        <ele>781.66</ele>
        <time>2021-03-27T14:19:29Z</time>
      </trkpt>
      <trkpt lat="41.952077" lon="-6.620135">
        <ele>793.32</ele>
        <time>2021-03-27T14:19:31Z</time>
      </trkpt>
      <trkpt lat="41.952368" lon="-6.620044">
        <ele>798.98</ele>
        <time>2021-03-27T14:19:33Z</time>
      </trkpt>
      <trkpt lat="41.95256" lon="-6.619904">
        <ele>801.92</ele>
        <time>2021-03-27T14:19:36Z</time>
      </trkpt>
      <trkpt lat="41.952838" lon="-6.619572">
        <ele>805.79</ele>
        <time>2021-03-27T14:19:38Z</time>
      </trkpt>
      <trkpt lat="41.952987" lon="-6.619427">
        <ele>808.11</ele>
        <time>2021-03-27T14:19:40Z</time>
      </trkpt>
      <trkpt lat="41.953107" lon="-6.619379">
        <ele>810.33</ele>
        <time>2021-03-27T14:19:42Z</time>
      </trkpt>
      <trkpt lat="41.953554" lon="-6.619335">
        <ele>815.46</ele>
        <time>2021-03-27T14:19:44Z</time>
      </trkpt>
      <trkpt lat="41.953766" lon="-6.619402">
        <ele>817.79</ele>
        <time>2021-03-27T14:19:46Z</time>
      </trkpt>
      <trkpt lat="41.954401" lon="-6.619926">
        <ele>822.63</ele>
        <time>2021-03-27T14:19:48Z</time>
      </trkpt>
      <trkpt lat="41.954622" lon="-6.62025">
        <ele>826.16</ele>
        <time>2021-03-27T14:19:50Z</time>
      </trkpt>
      <trkpt lat="41.954796" lon="-6.620655">
        <ele>831.54</ele>
        <time>2021-03-27T14:19:52Z</time>
      </trkpt>
      <trkpt lat="41.954933" lon="-6.620894">
        <ele>835.59</ele>
        <time>2021-03-27T14:19:54Z</time>
      </trkpt>
      <trkpt lat="41.955073" lon="-6.62112">
        <ele>839.4</ele>
        <time>2021-03-27T14:19:56Z</time>
      </trkpt>
      <trkpt lat="41.955338" lon="-6.621445">
        <ele>843.83</ele>
        <time>2021-03-27T14:19:58Z</time>
      </trkpt>
      <trkpt lat="41.955603" lon="-6.621686">
        <ele>846.08</ele>
        <time>2021-03-27T14:20:00Z</time>
      </trkpt>
      <trkpt lat="41.956061" lon="-6.622037">
        <ele>851.52</ele>
        <time>2021-03-27T14:20:02Z</time>
      </trkpt>
      <trkpt lat="41.956431" lon="-6.622282">
        <ele>853.47</ele>
        <time>2021-03-27T14:20:04Z</time>
      </trkpt>
      <trkpt lat="41.956832" lon="-6.622785">
        <ele>857.6</ele>
        <time>2021-03-27T14:20:06Z</time>
      </trkpt>
      <trkpt lat="41.957914" lon="-6.623875">
        <ele>864.23</ele>
        <time>2021-03-27T14:20:08Z</time>
      </trkpt>
      <trkpt lat="41.958053" lon="-6.623995">
        <ele>865.76</ele>
        <time>2021-03-27T14:20:10Z</time>
      </trkpt>
      <trkpt lat="41.95867" lon="-6.624323">
        <ele>869.13</ele>
        <time>2021-03-27T14:20:12Z</time>
      </trkpt>
      <trkpt lat="41.959248" lon="-6.624687">
        <ele>871.96</ele>
        <time>2021-03-27T14:20:14Z</time>
      </trkpt>
      <trkpt lat="41.960077" lon="-6.62529">
        <ele>877.43</ele>
        <time>2021-03-27T14:20:16Z</time>
      </trkpt>
      <trkpt lat="41.960596" lon="-6.625606">
        <ele>885.39</ele>
        <time>2021-03-27T14:20:18Z</time>
      </trkpt>
      <trkpt lat="41.960872" lon="-6.625718">
        <ele>886.67</ele>
        <time>2021-03-27T14:20:20Z</time>
      </trkpt>
      <trkpt lat="41.961341" lon="-6.625992">
        <ele>887.95</ele>
        <time>2021-03-27T14:20:22Z</time>
      </trkpt>
      <trkpt lat="41.961817" lon="-6.626241">
        <ele>893.73</ele>
        <time>2021-03-27T14:20:24Z</time>
      </trkpt>
      <trkpt lat="41.962361" lon="-6.626637">
        <ele>895.68</ele>
        <time>2021-03-27T14:20:26Z</time>
      </trkpt>
      <trkpt lat="41.962993" lon="-6.627275">
        <ele>901.33</ele>
        <time>2021-03-27T14:20:28Z</time>
      </trkpt>
      <trkpt lat="41.963455" lon="-6.627699">
        <ele>902.16</ele>
        <time>2021-03-27T14:20:30Z</time>
      </trkpt>
      <trkpt lat="41.963596" lon="-6.627858">
        <ele>902.88</ele>
        <time>2021-03-27T14:20:32Z</time>
      </trkpt>
      <trkpt lat="41.963721" lon="-6.628078">
        <ele>905.07</ele>
        <time>2021-03-27T14:20:34Z</time>
      </trkpt>
      <trkpt lat="41.964002" lon="-6.628748">
        <ele>909.62</ele>
        <time>2021-03-27T14:20:36Z</time>
      </trkpt>
      <trkpt lat="41.964143" lon="-6.629049">
        <ele>910.56</ele>
        <time>2021-03-27T14:20:38Z</time>
      </trkpt>
      <trkpt lat="41.964394" lon="-6.629343">
        <ele>911.19</ele>
        <time>2021-03-27T14:20:40Z</time>
      </trkpt>
      <trkpt lat="41.964884" lon="-6.629641">
        <ele>911.8</ele>
        <time>2021-03-27T14:20:42Z</time>
      </trkpt>
      <trkpt lat="41.965194" lon="-6.629867">
        <ele>910.48</ele>
        <time>2021-03-27T14:20:44Z</time>
      </trkpt>
      <trkpt lat="41.966072" lon="-6.630668">
        <ele>906.24</ele>
        <time>2021-03-27T14:20:46Z</time>
      </trkpt>
      <trkpt lat="41.96636" lon="-6.630885">
        <ele>904.57</ele>
        <time>2021-03-27T14:20:48Z</time>
      </trkpt>
      <trkpt lat="41.966708" lon="-6.631101">
        <ele>903.17</ele>
        <time>2021-03-27T14:20:50Z</time>
      </trkpt>
      <trkpt lat="41.967329" lon="-6.63138">
        <ele>898.92</ele>
        <time>2021-03-27T14:20:52Z</time>
      </trkpt>
      <trkpt lat="41.967542" lon="-6.631441">
        <ele>899.09</ele>
        <time>2021-03-27T14:20:55Z</time>
      </trkpt>
      <trkpt lat="41.967881" lon="-6.631486">
        <ele>896.73</ele>
        <time>2021-03-27T14:20:57Z</time>
      </trkpt>
      <trkpt lat="41.968333" lon="-6.631417">
        <ele>895.49</ele>
        <time>2021-03-27T14:20:59Z</time>
      </trkpt>
      <trkpt lat="41.968515" lon="-6.631425">
        <ele>894.61</ele>
        <time>2021-03-27T14:21:01Z</time>
      </trkpt>
      <trkpt lat="41.96983" lon="-6.631795">
        <ele>887.76</ele>
        <time>2021-03-27T14:21:03Z</time>
      </trkpt>
      <trkpt lat="41.96997" lon="-6.631786">
        <ele>886.79</ele>
        <time>2021-03-27T14:21:05Z</time>
      </trkpt>
      <trkpt lat="41.970051" lon="-6.631726">
        <ele>886.05</ele>
        <time>2021-03-27T14:21:07Z</time>
      </trkpt>
      <trkpt lat="41.970158" lon="-6.631533">
        <ele>884.79</ele>
        <time>2021-03-27T14:21:09Z</time>
      </trkpt>
      <trkpt lat="41.970191" lon="-6.631425">
        <ele>884.58</ele>
        <time>2021-03-27T14:21:11Z</time>
      </trkpt>
      <trkpt lat="41.970194" lon="-6.630869">
        <ele>881.9</ele>
        <time>2021-03-27T14:21:13Z</time>
      </trkpt>
      <trkpt lat="41.970223" lon="-6.630733">
        <ele>881.47</ele>
        <time>2021-03-27T14:21:15Z</time>
      </trkpt>
      <trkpt lat="41.97032" lon="-6.630505">
        <ele>880.44</ele>
        <time>2021-03-27T14:21:17Z</time>
      </trkpt>
      <trkpt lat="41.971043" lon="-6.62914">
        <ele>879.42</ele>
        <time>2021-03-27T14:21:19Z</time>
      </trkpt>
      <trkpt lat="41.9711" lon="-6.62894">
        <ele>878.3</ele>
        <time>2021-03-27T14:21:21Z</time>
      </trkpt>
      <trkpt lat="41.971147" lon="-6.628331">
        <ele>878.74</ele>
        <time>2021-03-27T14:21:23Z</time>
      </trkpt>
      <trkpt lat="41.97118" lon="-6.628217">
        <ele>878.61</ele>
        <time>2021-03-27T14:21:25Z</time>
      </trkpt>
      <trkpt lat="41.971259" lon="-6.628035">
        <ele>878.47</ele>
        <time>2021-03-27T14:21:27Z</time>
      </trkpt>
      <trkpt lat="41.971502" lon="-6.627812">
        <ele>877.54</ele>
        <time>2021-03-27T14:21:29Z</time>
      </trkpt>
      <trkpt lat="41.971632" lon="-6.627771">
        <ele>877.15</ele>
        <time>2021-03-27T14:21:31Z</time>
      </trkpt>
      <trkpt lat="41.971756" lon="-6.627759">
        <ele>877.39</ele>
        <time>2021-03-27T14:21:33Z</time>
      </trkpt>
      <trkpt lat="41.971963" lon="-6.627786">
        <ele>878.01</ele>
        <time>2021-03-27T14:21:35Z</time>
      </trkpt>
      <trkpt lat="41.972906" lon="-6.627975">
        <ele>882.5</ele>
        <time>2021-03-27T14:21:37Z</time>
      </trkpt>
      <trkpt lat="41.97397" lon="-6.628078">
        <ele>885.84</ele>
        <time>2021-03-27T14:21:39Z</time>
      </trkpt>
      <trkpt lat="41.974224" lon="-6.62807">
        <ele>885.91</ele>
        <time>2021-03-27T14:21:41Z</time>
      </trkpt>
      <trkpt lat="41.974367" lon="-6.628037">
        <ele>886.18</ele>
        <time>2021-03-27T14:21:43Z</time>
      </trkpt>
      <trkpt lat="41.974479" lon="-6.627984">
        <ele>886.99</ele>
        <time>2021-03-27T14:21:45Z</time>
      </trkpt>
      <trkpt lat="41.974763" lon="-6.62775">
        <ele>889.82</ele>
        <time>2021-03-27T14:21:47Z</time>
      </trkpt>
      <trkpt lat="41.974901" lon="-6.627709">
        <ele>889.04</ele>
        <time>2021-03-27T14:21:49Z</time>
      </trkpt>
      <trkpt lat="41.975039" lon="-6.627718">
        <ele>888.28</ele>
        <time>2021-03-27T14:21:51Z</time>
      </trkpt>
      <trkpt lat="41.975243" lon="-6.627769">
        <ele>887.18</ele>
        <time>2021-03-27T14:21:53Z</time>
      </trkpt>
      <trkpt lat="41.975428" lon="-6.627907">
        <ele>888.8</ele>
        <time>2021-03-27T14:21:55Z</time>
      </trkpt>
      <trkpt lat="41.976175" lon="-6.628803">
        <ele>898.92</ele>
        <time>2021-03-27T14:21:57Z</time>
      </trkpt>
      <trkpt lat="41.976446" lon="-6.629025">
        <ele>900.82</ele>
        <time>2021-03-27T14:21:59Z</time>
      </trkpt>
      <trkpt lat="41.976727" lon="-6.629194">
        <ele>901.43</ele>
        <time>2021-03-27T14:22:01Z</time>
      </trkpt>
      <trkpt lat="41.976969" lon="-6.629297">
        <ele>900.29</ele>
        <time>2021-03-27T14:22:03Z</time>
      </trkpt>
      <trkpt lat="41.977199" lon="-6.629349">
        <ele>901.84</ele>
        <time>2021-03-27T14:22:05Z</time>
      </trkpt>
      <trkpt lat="41.977854" lon="-6.629357">
        <ele>906.63</ele>
        <time>2021-03-27T14:22:07Z</time>
      </trkpt>
      <trkpt lat="41.978033" lon="-6.629376">
        <ele>906.49</ele>
        <time>2021-03-27T14:22:09Z</time>
      </trkpt>
      <trkpt lat="41.978194" lon="-6.629426">
        <ele>907.66</ele>
        <time>2021-03-27T14:22:12Z</time>
      </trkpt>
      <trkpt lat="41.978396" lon="-6.629546">
        <ele>908.72</ele>
        <time>2021-03-27T14:22:14Z</time>
      </trkpt>
      <trkpt lat="41.979536" lon="-6.630379">
        <ele>912.66</ele>
        <time>2021-03-27T14:22:16Z</time>
      </trkpt>
      <trkpt lat="41.979714" lon="-6.630479">
        <ele>912.32</ele>
        <time>2021-03-27T14:22:18Z</time>
      </trkpt>
      <trkpt lat="41.979813" lon="-6.630482">
        <ele>912.16</ele>
        <time>2021-03-27T14:22:20Z</time>
      </trkpt>
      <trkpt lat="41.980634" lon="-6.629876">
        <ele>919.21</ele>
        <time>2021-03-27T14:22:22Z</time>
      </trkpt>
      <trkpt lat="41.980867" lon="-6.629758">
        <ele>919.51</ele>
        <time>2021-03-27T14:22:24Z</time>
      </trkpt>
      <trkpt lat="41.981238" lon="-6.62973">
        <ele>921.3</ele>
        <time>2021-03-27T14:22:26Z</time>
      </trkpt>
      <trkpt lat="41.981362" lon="-6.629761">
        <ele>922.31</ele>
        <time>2021-03-27T14:22:28Z</time>
      </trkpt>
      <trkpt lat="41.981548" lon="-6.629838">
        <ele>922.9</ele>
        <time>2021-03-27T14:22:30Z</time>
      </trkpt>
      <trkpt lat="41.981723" lon="-6.629943">
        <ele>922.98</ele>
        <time>2021-03-27T14:22:32Z</time>
      </trkpt>
      <trkpt lat="41.98182" lon="-6.629972">
        <ele>923.35</ele>
        <time>2021-03-27T14:22:34Z</time>
      </trkpt>
      <trkpt lat="41.982126" lon="-6.629969">
        <ele>924.3</ele>
        <time>2021-03-27T14:22:36Z</time>
      </trkpt>
      <trkpt lat="41.98236" lon="-6.629887">
        <ele>925.22</ele>
        <time>2021-03-27T14:22:38Z</time>
      </trkpt>
      <trkpt lat="41.9825" lon="-6.629758">
        <ele>926.61</ele>
        <time>2021-03-27T14:22:40Z</time>
      </trkpt>
      <trkpt lat="41.982739" lon="-6.629396">
        <ele>929.35</ele>
        <time>2021-03-27T14:22:42Z</time>
      </trkpt>
      <trkpt lat="41.983282" lon="-6.628366">
        <ele>934.77</ele>
        <time>2021-03-27T14:22:44Z</time>
      </trkpt>
      <trkpt lat="41.983369" lon="-6.628239">
        <ele>935.21</ele>
        <time>2021-03-27T14:22:46Z</time>
      </trkpt>
      <trkpt lat="41.983455" lon="-6.628132">
        <ele>935.28</ele>
        <time>2021-03-27T14:22:48Z</time>
      </trkpt>
      <trkpt lat="41.984358" lon="-6.627458">
        <ele>941.84</ele>
        <time>2021-03-27T14:22:50Z</time>
      </trkpt>
      <trkpt lat="41.984465" lon="-6.62734">
        <ele>942.76</ele>
        <time>2021-03-27T14:22:52Z</time>
      </trkpt>
      <trkpt lat="41.984546" lon="-6.627162">
        <ele>944.45</ele>
        <time>2021-03-27T14:22:54Z</time>
      </trkpt>
      <trkpt lat="41.984661" lon="-6.626829">
        <ele>946.97</ele>
        <time>2021-03-27T14:22:56Z</time>
      </trkpt>
      <trkpt lat="41.984836" lon="-6.626514">
        <ele>948.45</ele>
        <time>2021-03-27T14:22:58Z</time>
      </trkpt>
      <trkpt lat="41.984953" lon="-6.626405">
        <ele>948.76</ele>
        <time>2021-03-27T14:23:00Z</time>
      </trkpt>
      <trkpt lat="41.985105" lon="-6.626327">
        <ele>949.47</ele>
        <time>2021-03-27T14:23:02Z</time>
      </trkpt>
      <trkpt lat="41.985305" lon="-6.626276">
        <ele>950.92</ele>
        <time>2021-03-27T14:23:04Z</time>
      </trkpt>
      <trkpt lat="41.985475" lon="-6.626263">
        <ele>951.67</ele>
        <time>2021-03-27T14:23:06Z</time>
      </trkpt>
      <trkpt lat="41.986221" lon="-6.626486">
        <ele>960.23</ele>
        <time>2021-03-27T14:23:08Z</time>
      </trkpt>
      <trkpt lat="41.986865" lon="-6.626645">
        <ele>964.54</ele>
        <time>2021-03-27T14:23:10Z</time>
      </trkpt>
      <trkpt lat="41.987992" lon="-6.626679">
        <ele>963.57</ele>
        <time>2021-03-27T14:23:12Z</time>
      </trkpt>
      <trkpt lat="41.989213" lon="-6.62675">
        <ele>969.62</ele>
        <time>2021-03-27T14:23:14Z</time>
      </trkpt>
      <trkpt lat="41.989457" lon="-6.62675">
        <ele>970.24</ele>
        <time>2021-03-27T14:23:16Z</time>
      </trkpt>
      <trkpt lat="41.989707" lon="-6.626681">
        <ele>972.62</ele>
        <time>2021-03-27T14:23:18Z</time>
      </trkpt>
      <trkpt lat="41.989941" lon="-6.626555">
        <ele>973.52</ele>
        <time>2021-03-27T14:23:20Z</time>
      </trkpt>
      <trkpt lat="41.990089" lon="-6.626441">
        <ele>973.58</ele>
        <time>2021-03-27T14:23:22Z</time>
      </trkpt>
      <trkpt lat="41.990194" lon="-6.626327">
        <ele>973.39</ele>
        <time>2021-03-27T14:23:24Z</time>
      </trkpt>
      <trkpt lat="41.990312" lon="-6.626151">
        <ele>973.98</ele>
        <time>2021-03-27T14:23:26Z</time>
      </trkpt>
      <trkpt lat="41.990539" lon="-6.625634">
        <ele>975.71</ele>
        <time>2021-03-27T14:23:28Z</time>
      </trkpt>
      <trkpt lat="41.990624" lon="-6.625383">
        <ele>976.53</ele>
        <time>2021-03-27T14:23:31Z</time>
      </trkpt>
      <trkpt lat="41.990651" lon="-6.625171">
        <ele>978.41</ele>
        <time>2021-03-27T14:23:33Z</time>
      </trkpt>
      <trkpt lat="41.990695" lon="-6.625055">
        <ele>979.8</ele>
        <time>2021-03-27T14:23:35Z</time>
      </trkpt>
      <trkpt lat="41.990778" lon="-6.625006">
        <ele>980.13</ele>
        <time>2021-03-27T14:23:37Z</time>
      </trkpt>
      <trkpt lat="41.990877" lon="-6.625014">
        <ele>980.31</ele>
        <time>2021-03-27T14:23:39Z</time>
      </trkpt>
      <trkpt lat="41.991472" lon="-6.625317">
        <ele>980.76</ele>
        <time>2021-03-27T14:23:41Z</time>
      </trkpt>
      <trkpt lat="41.991583" lon="-6.62534">
        <ele>980.71</ele>
        <time>2021-03-27T14:23:43Z</time>
      </trkpt>
      <trkpt lat="41.991698" lon="-6.625308">
        <ele>980.86</ele>
        <time>2021-03-27T14:23:45Z</time>
      </trkpt>
      <trkpt lat="41.991824" lon="-6.625235">
        <ele>981.46</ele>
        <time>2021-03-27T14:23:47Z</time>
      </trkpt>
      <trkpt lat="41.992368" lon="-6.624827">
        <ele>985.1</ele>
        <time>2021-03-27T14:23:49Z</time>
      </trkpt>
      <trkpt lat="41.99277" lon="-6.624336">
        <ele>987.51</ele>
        <time>2021-03-27T14:23:51Z</time>
      </trkpt>
      <trkpt lat="41.992919" lon="-6.624104">
        <ele>988.44</ele>
        <time>2021-03-27T14:23:53Z</time>
      </trkpt>
      <trkpt lat="41.992997" lon="-6.623916">
        <ele>989.28</ele>
        <time>2021-03-27T14:23:55Z</time>
      </trkpt>
      <trkpt lat="41.993147" lon="-6.62327">
        <ele>991.16</ele>
        <time>2021-03-27T14:23:57Z</time>
      </trkpt>
      <trkpt lat="41.993166" lon="-6.623104">
        <ele>991.86</ele>
        <time>2021-03-27T14:23:59Z</time>
      </trkpt>
      <trkpt lat="41.993162" lon="-6.622942">
        <ele>992.55</ele>
        <time>2021-03-27T14:24:01Z</time>
      </trkpt>
      <trkpt lat="41.993131" lon="-6.622802">
        <ele>993.77</ele>
        <time>2021-03-27T14:24:03Z</time>
      </trkpt>
      <trkpt lat="41.993051" lon="-6.622574">
        <ele>994.65</ele>
        <time>2021-03-27T14:24:05Z</time>
      </trkpt>
      <trkpt lat="41.992827" lon="-6.622122">
        <ele>997.17</ele>
        <time>2021-03-27T14:24:07Z</time>
      </trkpt>
      <trkpt lat="41.992758" lon="-6.621946">
        <ele>997.57</ele>
        <time>2021-03-27T14:24:09Z</time>
      </trkpt>
      <trkpt lat="41.992698" lon="-6.621735">
        <ele>998.54</ele>
        <time>2021-03-27T14:24:11Z</time>
      </trkpt>
      <trkpt lat="41.992634" lon="-6.621323">
        <ele>1000.61</ele>
        <time>2021-03-27T14:24:13Z</time>
      </trkpt>
      <trkpt lat="41.992628" lon="-6.62092">
        <ele>1000.64</ele>
        <time>2021-03-27T14:24:15Z</time>
      </trkpt>
      <trkpt lat="41.992634" lon="-6.620747">
        <ele>1000.7</ele>
        <time>2021-03-27T14:24:17Z</time>
      </trkpt>
      <trkpt lat="41.992683" lon="-6.620384">
        <ele>1001.49</ele>
        <time>2021-03-27T14:24:19Z</time>
      </trkpt>
      <trkpt lat="41.992738" lon="-6.620248">
        <ele>1002.2</ele>
        <time>2021-03-27T14:24:21Z</time>
      </trkpt>
      <trkpt lat="41.992946" lon="-6.62009">
        <ele>1003.96</ele>
        <time>2021-03-27T14:24:23Z</time>
      </trkpt>
      <trkpt lat="41.99322" lon="-6.620027">
        <ele>1004.86</ele>
        <time>2021-03-27T14:24:25Z</time>
      </trkpt>
      <trkpt lat="41.993494" lon="-6.620019">
        <ele>1005.47</ele>
        <time>2021-03-27T14:24:27Z</time>
      </trkpt>
      <trkpt lat="41.993629" lon="-6.620032">
        <ele>1005.84</ele>
        <time>2021-03-27T14:24:29Z</time>
      </trkpt>
      <trkpt lat="41.993774" lon="-6.620081">
        <ele>1006.17</ele>
        <time>2021-03-27T14:24:31Z</time>
      </trkpt>
      <trkpt lat="41.995095" lon="-6.620727">
        <ele>1009.42</ele>
        <time>2021-03-27T14:24:33Z</time>
      </trkpt>
      <trkpt lat="41.995903" lon="-6.621215">
        <ele>1012.88</ele>
        <time>2021-03-27T14:24:35Z</time>
      </trkpt>
      <trkpt lat="41.996279" lon="-6.621465">
        <ele>1013.0</ele>
        <time>2021-03-27T14:24:37Z</time>
      </trkpt>
      <trkpt lat="41.997001" lon="-6.622029">
        <ele>1013.55</ele>
        <time>2021-03-27T14:24:39Z</time>
      </trkpt>
      <trkpt lat="41.997305" lon="-6.622239">
        <ele>1013.3</ele>
        <time>2021-03-27T14:24:41Z</time>
      </trkpt>
      <trkpt lat="41.997493" lon="-6.622331">
        <ele>1013.97</ele>
        <time>2021-03-27T14:24:43Z</time>
      </trkpt>
      <trkpt lat="41.997716" lon="-6.62237">
        <ele>1014.41</ele>
        <time>2021-03-27T14:24:45Z</time>
      </trkpt>
      <trkpt lat="41.99801" lon="-6.622384">
        <ele>1014.58</ele>
        <time>2021-03-27T14:24:48Z</time>
      </trkpt>
      <trkpt lat="41.998691" lon="-6.622367">
        <ele>1014.81</ele>
        <time>2021-03-27T14:24:50Z</time>
      </trkpt>
      <trkpt lat="41.999611" lon="-6.622273">
        <ele>1014.78</ele>
        <time>2021-03-27T14:24:52Z</time>
      </trkpt>
      <trkpt lat="42.001501" lon="-6.62192">
        <ele>1025.61</ele>
        <time>2021-03-27T14:24:54Z</time>
      </trkpt>
      <trkpt lat="42.002611" lon="-6.621684">
        <ele>1034.72</ele>
        <time>2021-03-27T14:24:56Z</time>
      </trkpt>
      <trkpt lat="42.002757" lon="-6.621503">
        <ele>1035.31</ele>
        <time>2021-03-27T14:24:58Z</time>
      </trkpt>
      <trkpt lat="42.002817" lon="-6.621363">
        <ele>1035.27</ele>
        <time>2021-03-27T14:25:00Z</time>
      </trkpt>
      <trkpt lat="42.00305" lon="-6.620619">
        <ele>1039.28</ele>
        <time>2021-03-27T14:25:02Z</time>
      </trkpt>
      <trkpt lat="42.003099" lon="-6.620531">
        <ele>1040.65</ele>
        <time>2021-03-27T14:25:04Z</time>
      </trkpt>
      <trkpt lat="42.003183" lon="-6.620447">
        <ele>1042.16</ele>
        <time>2021-03-27T14:25:06Z</time>
      </trkpt>
      <trkpt lat="42.003297" lon="-6.62038">
        <ele>1043.88</ele>
        <time>2021-03-27T14:25:08Z</time>
      </trkpt>
      <trkpt lat="42.003525" lon="-6.620349">
        <ele>1047.25</ele>
        <time>2021-03-27T14:25:10Z</time>
      </trkpt>
      <trkpt lat="42.003775" lon="-6.620435">
        <ele>1049.38</ele>
        <time>2021-03-27T14:25:12Z</time>
      </trkpt>
      <trkpt lat="42.004714" lon="-6.620869">
        <ele>1058.07</ele>
        <time>2021-03-27T14:25:14Z</time>
      </trkpt>
      <trkpt lat="42.00553" lon="-6.621192">
        <ele>1066.48</ele>
        <time>2021-03-27T14:25:16Z</time>
      </trkpt>
      <trkpt lat="42.005674" lon="-6.621232">
        <ele>1066.56</ele>
        <time>2021-03-27T14:25:18Z</time>
      </trkpt>
      <trkpt lat="42.00587" lon="-6.621213">
        <ele>1066.63</ele>
        <time>2021-03-27T14:25:20Z</time>
      </trkpt>
      <trkpt lat="42.006105" lon="-6.621037">
        <ele>1067.27</ele>
        <time>2021-03-27T14:25:22Z</time>
      </trkpt>
      <trkpt lat="42.006615" lon="-6.620517">
        <ele>1069.0</ele>
        <time>2021-03-27T14:25:24Z</time>
      </trkpt>
      <trkpt lat="42.006888" lon="-6.620161">
        <ele>1069.88</ele>
        <time>2021-03-27T14:25:26Z</time>
      </trkpt>
      <trkpt lat="42.007009" lon="-6.620063">
        <ele>1070.0</ele>
        <time>2021-03-27T14:25:28Z</time>
      </trkpt>
      <trkpt lat="42.007125" lon="-6.620022">
        <ele>1070.0</ele>
        <time>2021-03-27T14:25:30Z</time>
      </trkpt>
      <trkpt lat="42.007226" lon="-6.620012">
        <ele>1069.97</ele>
        <time>2021-03-27T14:25:32Z</time>
      </trkpt>
      <trkpt lat="42.007359" lon="-6.620036">
        <ele>1069.14</ele>
        <time>2021-03-27T14:25:34Z</time>
      </trkpt>
      <trkpt lat="42.007497" lon="-6.620087">
        <ele>1068.65</ele>
        <time>2021-03-27T14:25:36Z</time>
      </trkpt>
      <trkpt lat="42.008678" lon="-6.62066">
        <ele>1065.32</ele>
        <time>2021-03-27T14:25:38Z</time>
      </trkpt>
      <trkpt lat="42.008773" lon="-6.620697">
        <ele>1065.44</ele>
        <time>2021-03-27T14:25:40Z</time>
      </trkpt>
      <trkpt lat="42.00887" lon="-6.620706">
        <ele>1065.16</ele>
        <time>2021-03-27T14:25:42Z</time>
      </trkpt>
      <trkpt lat="42.008938" lon="-6.620688">
        <ele>1065.31</ele>
        <time>2021-03-27T14:25:44Z</time>
      </trkpt>
      <trkpt lat="42.00904" lon="-6.620628">
        <ele>1065.61</ele>
        <time>2021-03-27T14:25:46Z</time>
      </trkpt>
      <trkpt lat="42.009132" lon="-6.620464">
        <ele>1065.09</ele>
        <time>2021-03-27T14:25:48Z</time>
      </trkpt>
      <trkpt lat="42.00917" lon="-6.620343">
        <ele>1064.49</ele>
        <time>2021-03-27T14:25:50Z</time>
      </trkpt>
      <trkpt lat="42.009212" lon="-6.619957">
        <ele>1061.02</ele>
        <time>2021-03-27T14:25:52Z</time>
      </trkpt>
      <trkpt lat="42.009313" lon="-6.619573">
        <ele>1058.98</ele>
        <time>2021-03-27T14:25:54Z</time>
      </trkpt>
      <trkpt lat="42.009382" lon="-6.619417">
        <ele>1058.07</ele>
        <time>2021-03-27T14:25:56Z</time>
      </trkpt>
      <trkpt lat="42.009443" lon="-6.61934">
        <ele>1057.11</ele>
        <time>2021-03-27T14:25:58Z</time>
      </trkpt>
      <trkpt lat="42.00951" lon="-6.619306">
        <ele>1056.27</ele>
        <time>2021-03-27T14:26:00Z</time>
      </trkpt>
      <trkpt lat="42.010148" lon="-6.619349">
        <ele>1053.61</ele>
        <time>2021-03-27T14:26:02Z</time>
      </trkpt>
      <trkpt lat="42.010319" lon="-6.619406">
        <ele>1052.72</ele>
        <time>2021-03-27T14:26:04Z</time>
      </trkpt>
      <trkpt lat="42.010893" lon="-6.619746">
        <ele>1048.52</ele>
        <time>2021-03-27T14:26:07Z</time>
      </trkpt>
      <trkpt lat="42.011129" lon="-6.619842">
        <ele>1046.67</ele>
        <time>2021-03-27T14:26:09Z</time>
      </trkpt>
      <trkpt lat="42.011742" lon="-6.620041">
        <ele>1040.28</ele>
        <time>2021-03-27T14:26:11Z</time>
      </trkpt>
      <trkpt lat="42.011848" lon="-6.620122">
        <ele>1039.14</ele>
        <time>2021-03-27T14:26:13Z</time>
      </trkpt>
      <trkpt lat="42.011977" lon="-6.620285">
        <ele>1037.29</ele>
        <time>2021-03-27T14:26:15Z</time>
      </trkpt>
      <trkpt lat="42.012159" lon="-6.620662">
        <ele>1034.26</ele>
        <time>2021-03-27T14:26:17Z</time>
      </trkpt>
      <trkpt lat="42.012261" lon="-6.620774">
        <ele>1033.97</ele>
        <time>2021-03-27T14:26:19Z</time>
      </trkpt>
      <trkpt lat="42.012389" lon="-6.620781">
        <ele>1032.74</ele>
        <time>2021-03-27T14:26:21Z</time>
      </trkpt>
      <trkpt lat="42.012802" lon="-6.620628">
        <ele>1028.13</ele>
        <time>2021-03-27T14:26:23Z</time>
      </trkpt>
      <trkpt lat="42.013523" lon="-6.620176">
        <ele>1023.47</ele>
        <time>2021-03-27T14:26:25Z</time>
      </trkpt>
      <trkpt lat="42.013919" lon="-6.620006">
        <ele>1020.56</ele>
        <time>2021-03-27T14:26:27Z</time>
      </trkpt>
      <trkpt lat="42.014014" lon="-6.619928">
        <ele>1019.05</ele>
        <time>2021-03-27T14:26:29Z</time>
      </trkpt>
      <trkpt lat="42.014077" lon="-6.619834">
        <ele>1018.09</ele>
        <time>2021-03-27T14:26:31Z</time>
      </trkpt>
      <trkpt lat="42.014157" lon="-6.619623">
        <ele>1016.38</ele>
        <time>2021-03-27T14:26:33Z</time>
      </trkpt>
      <trkpt lat="42.014192" lon="-6.619486">
        <ele>1014.73</ele>
        <time>2021-03-27T14:26:35Z</time>
      </trkpt>
      <trkpt lat="42.014203" lon="-6.619337">
        <ele>1013.2</ele>
        <time>2021-03-27T14:26:37Z</time>
      </trkpt>
      <trkpt lat="42.01413" lon="-6.618785">
        <ele>1010.97</ele>
        <time>2021-03-27T14:26:39Z</time>
      </trkpt>
      <trkpt lat="42.014129" lon="-6.618198">
        <ele>1006.72</ele>
        <time>2021-03-27T14:26:41Z</time>
      </trkpt>
      <trkpt lat="42.014155" lon="-6.618099">
        <ele>1006.21</ele>
        <time>2021-03-27T14:26:43Z</time>
      </trkpt>
      <trkpt lat="42.014219" lon="-6.617992">
        <ele>1005.58</ele>
        <time>2021-03-27T14:26:45Z</time>
      </trkpt>
      <trkpt lat="42.014298" lon="-6.617933">
        <ele>1004.85</ele>
        <time>2021-03-27T14:26:47Z</time>
      </trkpt>
      <trkpt lat="42.014889" lon="-6.617667">
        <ele>999.08</ele>
        <time>2021-03-27T14:26:49Z</time>
      </trkpt>
      <trkpt lat="42.015239" lon="-6.617579">
        <ele>996.32</ele>
        <time>2021-03-27T14:26:51Z</time>
      </trkpt>
      <trkpt lat="42.016129" lon="-6.617538">
        <ele>992.87</ele>
        <time>2021-03-27T14:26:53Z</time>
      </trkpt>
      <trkpt lat="42.016933" lon="-6.617628">
        <ele>986.02</ele>
        <time>2021-03-27T14:26:55Z</time>
      </trkpt>
      <trkpt lat="42.017195" lon="-6.61762">
        <ele>984.06</ele>
        <time>2021-03-27T14:26:57Z</time>
      </trkpt>
      <trkpt lat="42.017365" lon="-6.617564">
        <ele>982.95</ele>
        <time>2021-03-27T14:26:59Z</time>
      </trkpt>
      <trkpt lat="42.017504" lon="-6.617425">
        <ele>981.98</ele>
        <time>2021-03-27T14:27:01Z</time>
      </trkpt>
      <trkpt lat="42.017582" lon="-6.617377">
        <ele>981.57</ele>
        <time>2021-03-27T14:27:03Z</time>
      </trkpt>
      <trkpt lat="42.017672" lon="-6.61736">
        <ele>981.07</ele>
        <time>2021-03-27T14:27:05Z</time>
      </trkpt>
      <trkpt lat="42.01785" lon="-6.617397">
        <ele>980.04</ele>
        <time>2021-03-27T14:27:07Z</time>
      </trkpt>
      <trkpt lat="42.018111" lon="-6.61751">
        <ele>978.04</ele>
        <time>2021-03-27T14:27:09Z</time>
      </trkpt>
      <trkpt lat="42.018207" lon="-6.617486">
        <ele>978.02</ele>
        <time>2021-03-27T14:27:11Z</time>
      </trkpt>
      <trkpt lat="42.018456" lon="-6.617372">
        <ele>977.79</ele>
        <time>2021-03-27T14:27:13Z</time>
      </trkpt>
      <trkpt lat="42.01867" lon="-6.617319">
        <ele>977.56</ele>
        <time>2021-03-27T14:27:15Z</time>
      </trkpt>
      <trkpt lat="42.018847" lon="-6.617304">
        <ele>978.15</ele>
        <time>2021-03-27T14:27:17Z</time>
      </trkpt>
      <trkpt lat="42.019172" lon="-6.617337">
        <ele>979.86</ele>
        <time>2021-03-27T14:27:19Z</time>
      </trkpt>
      <trkpt lat="42.019317" lon="-6.617383">
        <ele>980.93</ele>
        <time>2021-03-27T14:27:21Z</time>
      </trkpt>
      <trkpt lat="42.019517" lon="-6.617487">
        <ele>981.69</ele>
        <time>2021-03-27T14:27:24Z</time>
      </trkpt>
      <trkpt lat="42.020107" lon="-6.617903">
        <ele>981.07</ele>
        <time>2021-03-27T14:27:26Z</time>
      </trkpt>
      <trkpt lat="42.020303" lon="-6.618009">
        <ele>980.83</ele>
        <time>2021-03-27T14:27:28Z</time>
      </trkpt>
      <trkpt lat="42.020509" lon="-6.61808">
        <ele>981.17</ele>
        <time>2021-03-27T14:27:30Z</time>
      </trkpt>
      <trkpt lat="42.020861" lon="-6.618162">
        <ele>981.94</ele>
        <time>2021-03-27T14:27:32Z</time>
      </trkpt>
      <trkpt lat="42.021206" lon="-6.618189">
        <ele>981.3</ele>
        <time>2021-03-27T14:27:34Z</time>
      </trkpt>
      <trkpt lat="42.02156" lon="-6.618139">
        <ele>980.42</ele>
        <time>2021-03-27T14:27:36Z</time>
      </trkpt>
      <trkpt lat="42.021916" lon="-6.617976">
        <ele>978.17</ele>
        <time>2021-03-27T14:27:38Z</time>
      </trkpt>
      <trkpt lat="42.022078" lon="-6.617923">
        <ele>977.27</ele>
        <time>2021-03-27T14:27:40Z</time>
      </trkpt>
      <trkpt lat="42.022331" lon="-6.617888">
        <ele>976.05</ele>
        <time>2021-03-27T14:27:42Z</time>
      </trkpt>
      <trkpt lat="42.022531" lon="-6.617887">
        <ele>975.03</ele>
        <time>2021-03-27T14:27:44Z</time>
      </trkpt>
      <trkpt lat="42.023424" lon="-6.618002">
        <ele>969.8</ele>
        <time>2021-03-27T14:27:46Z</time>
      </trkpt>
      <trkpt lat="42.023605" lon="-6.618009">
        <ele>969.02</ele>
        <time>2021-03-27T14:27:48Z</time>
      </trkpt>
      <trkpt lat="42.023736" lon="-6.617993">
        <ele>968.8</ele>
        <time>2021-03-27T14:27:50Z</time>
      </trkpt>
      <trkpt lat="42.024169" lon="-6.617794">
        <ele>966.11</ele>
        <time>2021-03-27T14:27:52Z</time>
      </trkpt>
      <trkpt lat="42.02427" lon="-6.617761">
        <ele>965.51</ele>
        <time>2021-03-27T14:27:54Z</time>
      </trkpt>
      <trkpt lat="42.024668" lon="-6.617711">
        <ele>965.14</ele>
        <time>2021-03-27T14:27:56Z</time>
      </trkpt>
      <trkpt lat="42.024786" lon="-6.61765">
        <ele>964.85</ele>
        <time>2021-03-27T14:27:58Z</time>
      </trkpt>
      <trkpt lat="42.025452" lon="-6.616947">
        <ele>961.28</ele>
        <time>2021-03-27T14:28:00Z</time>
      </trkpt>
      <trkpt lat="42.025515" lon="-6.616861">
        <ele>961.41</ele>
        <time>2021-03-27T14:28:02Z</time>
      </trkpt>
      <trkpt lat="42.025915" lon="-6.616157">
        <ele>961.24</ele>
        <time>2021-03-27T14:28:04Z</time>
      </trkpt>
      <trkpt lat="42.026115" lon="-6.615953">
        <ele>961.41</ele>
        <time>2021-03-27T14:28:06Z</time>
      </trkpt>
      <trkpt lat="42.026616" lon="-6.615536">
        <ele>959.75</ele>
        <time>2021-03-27T14:28:08Z</time>
      </trkpt>
      <trkpt lat="42.026658" lon="-6.615625">
        <ele>959.73</ele>
        <time>2021-03-27T14:28:11Z</time>
      </trkpt>
      <trkpt lat="42.026921" lon="-6.615992">
        <ele>957.96</ele>
        <time>2021-03-27T14:28:15Z</time>
      </trkpt>
      <trkpt lat="42.027573" lon="-6.616973">
        <ele>953.19</ele>
        <time>2021-03-27T14:28:18Z</time>
      </trkpt>
      <trkpt lat="42.028051" lon="-6.617387">
        <ele>948.81</ele>
        <time>2021-03-27T14:28:21Z</time>
      </trkpt>
      <trkpt lat="42.028136" lon="-6.617488">
        <ele>948.09</ele>
        <time>2021-03-27T14:28:24Z</time>
      </trkpt>
      <trkpt lat="42.02817" lon="-6.617554">
        <ele>947.81</ele>
        <time>2021-03-27T14:28:27Z</time>
      </trkpt>
      <trkpt lat="42.02822" lon="-6.617728">
        <ele>947.18</ele>
        <time>2021-03-27T14:28:30Z</time>
      </trkpt>
      <trkpt lat="42.028275" lon="-6.618247">
        <ele>945.24</ele>
        <time>2021-03-27T14:28:34Z</time>
      </trkpt>
      <trkpt lat="42.028306" lon="-6.618359">
        <ele>945.01</ele>
        <time>2021-03-27T14:28:37Z</time>
      </trkpt>
      <trkpt lat="42.028355" lon="-6.618449">
        <ele>945.0</ele>
        <time>2021-03-27T14:28:40Z</time>
      </trkpt>
      <trkpt lat="42.028458" lon="-6.618557">
        <ele>945.0</ele>
        <time>2021-03-27T14:28:43Z</time>
      </trkpt>
      <trkpt lat="42.030354" lon="-6.62002">
        <ele>950.44</ele>
        <time>2021-03-27T14:28:46Z</time>
      </trkpt>
      <trkpt lat="42.030483" lon="-6.620145">
        <ele>952.17</ele>
        <time>2021-03-27T14:28:49Z</time>
      </trkpt>
      <trkpt lat="42.031044" lon="-6.620983">
        <ele>957.37</ele>
        <time>2021-03-27T14:28:53Z</time>
      </trkpt>
      <trkpt lat="42.031828" lon="-6.621748">
        <ele>953.08</ele>
        <time>2021-03-27T14:28:56Z</time>
      </trkpt>
      <trkpt lat="42.032017" lon="-6.621876">
        <ele>951.28</ele>
        <time>2021-03-27T14:28:59Z</time>
      </trkpt>
      <trkpt lat="42.032161" lon="-6.621939">
        <ele>949.67</ele>
        <time>2021-03-27T14:29:02Z</time>
      </trkpt>
      <trkpt lat="42.032784" lon="-6.622037">
        <ele>946.02</ele>
        <time>2021-03-27T14:29:05Z</time>
      </trkpt>
      <trkpt lat="42.032929" lon="-6.622038">
        <ele>946.36</ele>
        <time>2021-03-27T14:29:08Z</time>
      </trkpt>
      <trkpt lat="42.033047" lon="-6.621982">
        <ele>946.84</ele>
        <time>2021-03-27T14:29:11Z</time>
      </trkpt>
      <trkpt lat="42.033146" lon="-6.62189">
        <ele>948.11</ele>
        <time>2021-03-27T14:29:15Z</time>
      </trkpt>
      <trkpt lat="42.033192" lon="-6.621784">
        <ele>948.77</ele>
        <time>2021-03-27T14:29:18Z</time>
      </trkpt>
      <trkpt lat="42.033457" lon="-6.620876">
        <ele>951.22</ele>
        <time>2021-03-27T14:29:21Z</time>
      </trkpt>
      <trkpt lat="42.033522" lon="-6.620743">
        <ele>952.17</ele>
        <time>2021-03-27T14:29:24Z</time>
      </trkpt>
      <trkpt lat="42.033619" lon="-6.62064">
        <ele>953.35</ele>
        <time>2021-03-27T14:29:27Z</time>
      </trkpt>
      <trkpt lat="42.033735" lon="-6.620591">
        <ele>953.97</ele>
        <time>2021-03-27T14:29:30Z</time>
      </trkpt>
      <trkpt lat="42.034587" lon="-6.620364">
        <ele>956.33</ele>
        <time>2021-03-27T14:29:34Z</time>
      </trkpt>
      <trkpt lat="42.034862" lon="-6.620312">
        <ele>957.13</ele>
        <time>2021-03-27T14:29:37Z</time>
      </trkpt>
      <trkpt lat="42.034983" lon="-6.620352">
        <ele>957.27</ele>
        <time>2021-03-27T14:29:40Z</time>
      </trkpt>
      <trkpt lat="42.035132" lon="-6.620452">
        <ele>955.72</ele>
        <time>2021-03-27T14:29:43Z</time>
      </trkpt>
      <trkpt lat="42.03604" lon="-6.621187">
        <ele>950.58</ele>
        <time>2021-03-27T14:29:46Z</time>
      </trkpt>
      <trkpt lat="42.036325" lon="-6.621388">
        <ele>950.46</ele>
        <time>2021-03-27T14:29:49Z</time>
      </trkpt>
      <trkpt lat="42.036453" lon="-6.621413">
        <ele>950.22</ele>
        <time>2021-03-27T14:29:53Z</time>
      </trkpt>
      <trkpt lat="42.03656" lon="-6.62139">
        <ele>950.01</ele>
        <time>2021-03-27T14:29:56Z</time>
      </trkpt>
      <trkpt lat="42.036672" lon="-6.621307">
        <ele>950.03</ele>
        <time>2021-03-27T14:29:59Z</time>
      </trkpt>
      <trkpt lat="42.036757" lon="-6.621175">
        <ele>950.58</ele>
        <time>2021-03-27T14:30:02Z</time>
      </trkpt>
      <trkpt lat="42.036807" lon="-6.621016">
        <ele>951.18</ele>
        <time>2021-03-27T14:30:05Z</time>
      </trkpt>
      <trkpt lat="42.036909" lon="-6.620383">
        <ele>954.1</ele>
        <time>2021-03-27T14:30:08Z</time>
      </trkpt>
      <trkpt lat="42.037012" lon="-6.620092">
        <ele>956.22</ele>
        <time>2021-03-27T14:30:11Z</time>
      </trkpt>
      <trkpt lat="42.037214" lon="-6.619695">
        <ele>958.78</ele>
        <time>2021-03-27T14:30:15Z</time>
      </trkpt>
      <trkpt lat="42.037319" lon="-6.619586">
        <ele>959.73</ele>
        <time>2021-03-27T14:30:18Z</time>
      </trkpt>
      <trkpt lat="42.037433" lon="-6.619551">
        <ele>960.95</ele>
        <time>2021-03-27T14:30:21Z</time>
      </trkpt>
      <trkpt lat="42.037563" lon="-6.619542">
        <ele>962.23</ele>
        <time>2021-03-27T14:30:24Z</time>
      </trkpt>
      <trkpt lat="42.037863" lon="-6.619603">
        <ele>966.2</ele>
        <time>2021-03-27T14:30:27Z</time>
      </trkpt>
      <trkpt lat="42.037988" lon="-6.619593">
        <ele>968.34</ele>
        <time>2021-03-27T14:30:30Z</time>
      </trkpt>
      <trkpt lat="42.038086" lon="-6.619523">
        <ele>969.42</ele>
        <time>2021-03-27T14:30:34Z</time>
      </trkpt>
      <trkpt lat="42.038156" lon="-6.619443">
        <ele>969.36</ele>
        <time>2021-03-27T14:30:37Z</time>
      </trkpt>
      <trkpt lat="42.038722" lon="-6.618624">
        <ele>969.4</ele>
        <time>2021-03-27T14:30:40Z</time>
      </trkpt>
      <trkpt lat="42.038861" lon="-6.618467">
        <ele>968.97</ele>
        <time>2021-03-27T14:30:43Z</time>
      </trkpt>
      <trkpt lat="42.038952" lon="-6.618403">
        <ele>967.99</ele>
        <time>2021-03-27T14:30:46Z</time>
      </trkpt>
      <trkpt lat="42.039082" lon="-6.61836">
        <ele>966.74</ele>
        <time>2021-03-27T14:30:49Z</time>
      </trkpt>
      <trkpt lat="42.039204" lon="-6.618381">
        <ele>965.47</ele>
        <time>2021-03-27T14:30:52Z</time>
      </trkpt>
      <trkpt lat="42.039329" lon="-6.618445">
        <ele>963.24</ele>
        <time>2021-03-27T14:30:56Z</time>
      </trkpt>
      <trkpt lat="42.042271" lon="-6.621418">
        <ele>945.51</ele>
        <time>2021-03-27T14:30:59Z</time>
      </trkpt>
      <trkpt lat="42.044457" lon="-6.623662">
        <ele>940.23</ele>
        <time>2021-03-27T14:31:02Z</time>
      </trkpt>
      <trkpt lat="42.044645" lon="-6.623912">
        <ele>941.86</ele>
        <time>2021-03-27T14:31:05Z</time>
      </trkpt>
      <trkpt lat="42.045633" lon="-6.625817">
        <ele>949.0</ele>
        <time>2021-03-27T14:31:08Z</time>
      </trkpt>
      <trkpt lat="42.04632" lon="-6.627187">
        <ele>950.0</ele>
        <time>2021-03-27T14:31:11Z</time>
      </trkpt>
      <trkpt lat="42.046825" lon="-6.6284">
        <ele>948.29</ele>
        <time>2021-03-27T14:31:15Z</time>
      </trkpt>
      <trkpt lat="42.046888" lon="-6.628647">
        <ele>947.58</ele>
        <time>2021-03-27T14:31:18Z</time>
      </trkpt>
      <trkpt lat="42.047324" lon="-6.630779">
        <ele>945.33</ele>
        <time>2021-03-27T14:31:21Z</time>
      </trkpt>
      <trkpt lat="42.047394" lon="-6.631053">
        <ele>944.03</ele>
        <time>2021-03-27T14:31:24Z</time>
      </trkpt>
      <trkpt lat="42.04778" lon="-6.632242">
        <ele>942.11</ele>
        <time>2021-03-27T14:31:27Z</time>
      </trkpt>
      <trkpt lat="42.048295" lon="-6.633758">
        <ele>935.6</ele>
        <time>2021-03-27T14:31:30Z</time>
      </trkpt>
      <trkpt lat="42.048407" lon="-6.633977">
        <ele>936.0</ele>
        <time>2021-03-27T14:31:34Z</time>
      </trkpt>
      <trkpt lat="42.048502" lon="-6.634102">
        <ele>936.65</ele>
        <time>2021-03-27T14:31:37Z</time>
      </trkpt>
      <trkpt lat="42.048762" lon="-6.634267">
        <ele>937.54</ele>
        <time>2021-03-27T14:31:40Z</time>
      </trkpt>
      <trkpt lat="42.04947" lon="-6.634539">
        <ele>936.71</ele>
        <time>2021-03-27T14:31:43Z</time>
      </trkpt>
      <trkpt lat="42.049911" lon="-6.634802">
        <ele>935.64</ele>
        <time>2021-03-27T14:31:46Z</time>
      </trkpt>
      <trkpt lat="42.05019" lon="-6.634944">
        <ele>931.04</ele>
        <time>2021-03-27T14:31:49Z</time>
      </trkpt>
      <trkpt lat="42.050926" lon="-6.635232">
        <ele>923.34</ele>
        <time>2021-03-27T14:31:52Z</time>
      </trkpt>
      <trkpt lat="42.051048" lon="-6.635243">
        <ele>922.98</ele>
        <time>2021-03-27T14:31:56Z</time>
      </trkpt>
      <trkpt lat="42.051134" lon="-6.635225">
        <ele>922.3</ele>
        <time>2021-03-27T14:31:59Z</time>
      </trkpt>
      <trkpt lat="42.051173" lon="-6.635179">
        <ele>921.47</ele>
        <time>2021-03-27T14:32:02Z</time>
      </trkpt>
      <trkpt lat="42.05125" lon="-6.634927">
        <ele>919.63</ele>
        <time>2021-03-27T14:32:06Z</time>
      </trkpt>
      <trkpt lat="42.051528" lon="-6.633744">
        <ele>918.75</ele>
        <time>2021-03-27T14:32:09Z</time>
      </trkpt>
      <trkpt lat="42.05162" lon="-6.633614">
        <ele>918.32</ele>
        <time>2021-03-27T14:32:13Z</time>
      </trkpt>
      <trkpt lat="42.051728" lon="-6.633545">
        <ele>917.96</ele>
        <time>2021-03-27T14:32:16Z</time>
      </trkpt>
      <trkpt lat="42.052263" lon="-6.633502">
        <ele>917.78</ele>
        <time>2021-03-27T14:32:20Z</time>
      </trkpt>
      <trkpt lat="42.052446" lon="-6.633462">
        <ele>918.21</ele>
        <time>2021-03-27T14:32:23Z</time>
      </trkpt>
      <trkpt lat="42.05257" lon="-6.633304">
        <ele>916.77</ele>
        <time>2021-03-27T14:32:27Z</time>
      </trkpt>
      <trkpt lat="42.052756" lon="-6.633219">
        <ele>915.51</ele>
        <time>2021-03-27T14:32:30Z</time>
      </trkpt>
      <trkpt lat="42.053337" lon="-6.633017">
        <ele>911.51</ele>
        <time>2021-03-27T14:32:34Z</time>
      </trkpt>
      <trkpt lat="42.054148" lon="-6.632793">
        <ele>908.66</ele>
        <time>2021-03-27T14:32:37Z</time>
      </trkpt>
      <trkpt lat="42.054285" lon="-6.632788">
        <ele>908.54</ele>
        <time>2021-03-27T14:32:41Z</time>
      </trkpt>
      <trkpt lat="42.054741" lon="-6.632833">
        <ele>908.08</ele>
        <time>2021-03-27T14:32:44Z</time>
      </trkpt>
      <trkpt lat="42.055192" lon="-6.632884">
        <ele>904.43</ele>
        <time>2021-03-27T14:32:48Z</time>
      </trkpt>
      <trkpt lat="42.055304" lon="-6.632913">
        <ele>904.38</ele>
        <time>2021-03-27T14:32:51Z</time>
      </trkpt>
      <trkpt lat="42.055315" lon="-6.632763">
        <ele>898.4</ele>
        <time>2021-03-27T14:32:56Z</time>
      </trkpt>
      <trkpt lat="42.055243" lon="-6.631649">
        <ele>893.24</ele>
        <time>2021-03-27T14:33:00Z</time>
      </trkpt>
      <trkpt lat="42.055226" lon="-6.631431">
        <ele>896.23</ele>
        <time>2021-03-27T14:33:05Z</time>
      </trkpt>
      <trkpt lat="42.055176" lon="-6.631216">
        <ele>897.88</ele>
        <time>2021-03-27T14:33:10Z</time>
      </trkpt>
      <trkpt lat="42.05506" lon="-6.630912">
        <ele>898.78</ele>
        <time>2021-03-27T14:33:15Z</time>
      </trkpt>
      <trkpt lat="42.05406" lon="-6.628817">
        <ele>909.52</ele>
        <time>2021-03-27T14:33:19Z</time>
      </trkpt>
      <trkpt lat="42.053754" lon="-6.628127">
        <ele>911.62</ele>
        <time>2021-03-27T14:33:24Z</time>
      </trkpt>
      <trkpt lat="42.053691" lon="-6.627931">
        <ele>912.13</ele>
        <time>2021-03-27T14:33:29Z</time>
      </trkpt>
      <trkpt lat="42.053645" lon="-6.627684">
        <ele>912.46</ele>
        <time>2021-03-27T14:33:33Z</time>
      </trkpt>
      <trkpt lat="42.05365" lon="-6.627201">
        <ele>914.0</ele>
        <time>2021-03-27T14:33:38Z</time>
      </trkpt>
      <trkpt lat="42.053693" lon="-6.627039">
        <ele>914.0</ele>
        <time>2021-03-27T14:33:43Z</time>
      </trkpt>
      <trkpt lat="42.053801" lon="-6.626738">
        <ele>913.77</ele>
        <time>2021-03-27T14:33:47Z</time>
      </trkpt>
      <trkpt lat="42.054253" lon="-6.625736">
        <ele>913.72</ele>
        <time>2021-03-27T14:33:52Z</time>
      </trkpt>
      <trkpt lat="42.054316" lon="-6.625561">
        <ele>913.1</ele>
        <time>2021-03-27T14:33:57Z</time>
      </trkpt>
      <trkpt lat="42.054326" lon="-6.6254">
        <ele>912.51</ele>
        <time>2021-03-27T14:34:01Z</time>
      </trkpt>
      <trkpt lat="42.05433" lon="-6.625324">
        <ele>912.2</ele>
        <time>2021-03-27T14:34:04Z</time>
      </trkpt>
      <trkpt lat="42.054368" lon="-6.625269">
        <ele>911.91</ele>
        <time>2021-03-27T14:34:07Z</time>
      </trkpt>
      <trkpt lat="42.054395" lon="-6.625256">
        <ele>911.78</ele>
        <time>2021-03-27T14:34:11Z</time>
      </trkpt>
      <trkpt lat="42.054501" lon="-6.625156">
        <ele>910.89</ele>
        <time>2021-03-27T14:34:14Z</time>
      </trkpt>
      <trkpt lat="42.054564" lon="-6.625054">
        <ele>910.01</ele>
        <time>2021-03-27T14:34:17Z</time>
      </trkpt>
      <trkpt lat="42.055387" lon="-6.623239">
        <ele>897.13</ele>
        <time>2021-03-27T14:34:20Z</time>
      </trkpt>
      <trkpt lat="42.055611" lon="-6.62286">
        <ele>897.88</ele>
        <time>2021-03-27T14:34:23Z</time>
      </trkpt>
      <trkpt lat="42.056975" lon="-6.620826">
        <ele>906.09</ele>
        <time>2021-03-27T14:34:26Z</time>
      </trkpt>
      <trkpt lat="42.057217" lon="-6.62061">
        <ele>907.76</ele>
        <time>2021-03-27T14:34:29Z</time>
      </trkpt>
      <trkpt lat="42.057412" lon="-6.620447">
        <ele>910.31</ele>
        <time>2021-03-27T14:34:32Z</time>
      </trkpt>
      <trkpt lat="42.05754" lon="-6.620237">
        <ele>912.14</ele>
        <time>2021-03-27T14:34:35Z</time>
      </trkpt>
      <trkpt lat="42.057616" lon="-6.620019">
        <ele>912.42</ele>
        <time>2021-03-27T14:34:39Z</time>
      </trkpt>
      <trkpt lat="42.057662" lon="-6.619952">
        <ele>912.59</ele>
        <time>2021-03-27T14:34:43Z</time>
      </trkpt>
      <trkpt lat="42.057758" lon="-6.619866">
        <ele>912.93</ele>
        <time>2021-03-27T14:34:47Z</time>
      </trkpt>
      <trkpt lat="42.057854" lon="-6.619824">
        <ele>913.28</ele>
        <time>2021-03-27T14:34:51Z</time>
      </trkpt>
      <trkpt lat="42.05802" lon="-6.619829">
        <ele>913.87</ele>
        <time>2021-03-27T14:34:55Z</time>
      </trkpt>
      <trkpt lat="42.058118" lon="-6.61988">
        <ele>913.97</ele>
        <time>2021-03-27T14:34:59Z</time>
      </trkpt>
      <trkpt lat="42.058239" lon="-6.620016">
        <ele>913.2</ele>
        <time>2021-03-27T14:35:03Z</time>
      </trkpt>
      <trkpt lat="42.058394" lon="-6.620102">
        <ele>910.97</ele>
        <time>2021-03-27T14:35:07Z</time>
      </trkpt>
      <trkpt lat="42.058546" lon="-6.620122">
        <ele>908.52</ele>
        <time>2021-03-27T14:35:11Z</time>
      </trkpt>
      <trkpt lat="42.058983" lon="-6.620008">
        <ele>905.99</ele>
        <time>2021-03-27T14:35:15Z</time>
      </trkpt>
      <trkpt lat="42.059108" lon="-6.620001">
        <ele>906.0</ele>
        <time>2021-03-27T14:35:19Z</time>
      </trkpt>
      <trkpt lat="42.059423" lon="-6.620017">
        <ele>907.96</ele>
        <time>2021-03-27T14:35:23Z</time>
      </trkpt>
      <trkpt lat="42.059624" lon="-6.620067">
        <ele>909.62</ele>
        <time>2021-03-27T14:35:27Z</time>
      </trkpt>
      <trkpt lat="42.059831" lon="-6.620163">
        <ele>910.59</ele>
        <time>2021-03-27T14:35:31Z</time>
      </trkpt>
      <trkpt lat="42.062465" lon="-6.621799">
        <ele>927.01</ele>
        <time>2021-03-27T14:35:35Z</time>
      </trkpt>
      <trkpt lat="42.06282" lon="-6.621964">
        <ele>926.28</ele>
        <time>2021-03-27T14:35:39Z</time>
      </trkpt>
      <trkpt lat="42.063209" lon="-6.622101">
        <ele>930.28</ele>
        <time>2021-03-27T14:35:43Z</time>
      </trkpt>
      <trkpt lat="42.063616" lon="-6.622197">
        <ele>934.32</ele>
        <time>2021-03-27T14:35:47Z</time>
      </trkpt>
      <trkpt lat="42.064214" lon="-6.622235">
        <ele>938.35</ele>
        <time>2021-03-27T14:35:51Z</time>
      </trkpt>
      <trkpt lat="42.06442" lon="-6.622219">
        <ele>939.81</ele>
        <time>2021-03-27T14:35:55Z</time>
      </trkpt>
      <trkpt lat="42.06476" lon="-6.622161">
        <ele>941.95</ele>
        <time>2021-03-27T14:35:59Z</time>
      </trkpt>
      <trkpt lat="42.065059" lon="-6.622079">
        <ele>943.0</ele>
        <time>2021-03-27T14:36:03Z</time>
      </trkpt>
      <trkpt lat="42.066422" lon="-6.621565">
        <ele>939.88</ele>
        <time>2021-03-27T14:36:07Z</time>
      </trkpt>
      <trkpt lat="42.066753" lon="-6.621509">
        <ele>938.69</ele>
        <time>2021-03-27T14:36:11Z</time>
      </trkpt>
      <trkpt lat="42.068928" lon="-6.621341">
        <ele>937.86</ele>
        <time>2021-03-27T14:36:15Z</time>
      </trkpt>
      <trkpt lat="42.069497" lon="-6.621322">
        <ele>936.58</ele>
        <time>2021-03-27T14:36:19Z</time>
      </trkpt>
      <trkpt lat="42.070034" lon="-6.62134">
        <ele>940.4</ele>
        <time>2021-03-27T14:36:23Z</time>
      </trkpt>
      <trkpt lat="42.070609" lon="-6.62132">
        <ele>943.75</ele>
        <time>2021-03-27T14:36:27Z</time>
      </trkpt>
      <trkpt lat="42.07145" lon="-6.621204">
        <ele>942.93</ele>
        <time>2021-03-27T14:36:31Z</time>
      </trkpt>
      <trkpt lat="42.072981" lon="-6.62082">
        <ele>948.83</ele>
        <time>2021-03-27T14:36:35Z</time>
      </trkpt>
      <trkpt lat="42.073294" lon="-6.620781">
        <ele>949.21</ele>
        <time>2021-03-27T14:36:39Z</time>
      </trkpt>
      <trkpt lat="42.07365" lon="-6.620787">
        <ele>949.47</ele>
        <time>2021-03-27T14:36:43Z</time>
      </trkpt>
      <trkpt lat="42.074218" lon="-6.620841">
        <ele>952.55</ele>
        <time>2021-03-27T14:36:47Z</time>
      </trkpt>
      <trkpt lat="42.075004" lon="-6.620858">
        <ele>958.92</ele>
        <time>2021-03-27T14:36:51Z</time>
      </trkpt>
      <trkpt lat="42.075398" lon="-6.6209">
        <ele>960.43</ele>
        <time>2021-03-27T14:36:55Z</time>
      </trkpt>
      <trkpt lat="42.077175" lon="-6.621481">
        <ele>972.67</ele>
        <time>2021-03-27T14:36:59Z</time>
      </trkpt>
      <trkpt lat="42.077331" lon="-6.621557">
        <ele>972.79</ele>
        <time>2021-03-27T14:37:03Z</time>
      </trkpt>
      <trkpt lat="42.07811" lon="-6.622096">
        <ele>975.65</ele>
        <time>2021-03-27T14:37:07Z</time>
      </trkpt>
      <trkpt lat="42.078326" lon="-6.622287">
        <ele>975.97</ele>
        <time>2021-03-27T14:37:11Z</time>
      </trkpt>
      <trkpt lat="42.078438" lon="-6.622436">
        <ele>976.46</ele>
        <time>2021-03-27T14:37:15Z</time>
      </trkpt>
      <trkpt lat="42.078819" lon="-6.623111">
        <ele>978.0</ele>
        <time>2021-03-27T14:37:19Z</time>
      </trkpt>
      <trkpt lat="42.07891" lon="-6.623242">
        <ele>978.0</ele>
        <time>2021-03-27T14:37:23Z</time>
      </trkpt>
      <trkpt lat="42.079136" lon="-6.623416">
        <ele>978.0</ele>
        <time>2021-03-27T14:37:27Z</time>
      </trkpt>
      <trkpt lat="42.079423" lon="-6.623599">
        <ele>977.08</ele>
        <time>2021-03-27T14:37:31Z</time>
      </trkpt>
      <trkpt lat="42.079564" lon="-6.623756">
        <ele>977.07</ele>
        <time>2021-03-27T14:37:35Z</time>
      </trkpt>
      <trkpt lat="42.079707" lon="-6.623958">
        <ele>976.36</ele>
        <time>2021-03-27T14:37:39Z</time>
      </trkpt>
      <trkpt lat="42.080374" lon="-6.625059">
        <ele>972.0</ele>
        <time>2021-03-27T14:37:43Z</time>
      </trkpt>
      <trkpt lat="42.080483" lon="-6.62529">
        <ele>971.99</ele>
        <time>2021-03-27T14:37:47Z</time>
      </trkpt>
      <trkpt lat="42.08055" lon="-6.625519">
        <ele>971.98</ele>
        <time>2021-03-27T14:37:51Z</time>
      </trkpt>
      <trkpt lat="42.080602" lon="-6.625871">
        <ele>969.15</ele>
        <time>2021-03-27T14:37:55Z</time>
      </trkpt>
      <trkpt lat="42.08064" lon="-6.626747">
        <ele>967.4</ele>
        <time>2021-03-27T14:37:59Z</time>
      </trkpt>
      <trkpt lat="42.080612" lon="-6.627485">
        <ele>963.3</ele>
        <time>2021-03-27T14:38:03Z</time>
      </trkpt>
      <trkpt lat="42.080638" lon="-6.62794">
        <ele>962.83</ele>
        <time>2021-03-27T14:38:07Z</time>
      </trkpt>
      <trkpt lat="42.080855" lon="-6.629416">
        <ele>953.49</ele>
        <time>2021-03-27T14:38:11Z</time>
      </trkpt>
      <trkpt lat="42.080909" lon="-6.630076">
        <ele>951.07</ele>
        <time>2021-03-27T14:38:15Z</time>
      </trkpt>
      <trkpt lat="42.080891" lon="-6.630957">
        <ele>951.18</ele>
        <time>2021-03-27T14:38:19Z</time>
      </trkpt>
      <trkpt lat="42.080867" lon="-6.631386">
        <ele>950.36</ele>
        <time>2021-03-27T14:38:23Z</time>
      </trkpt>
      <trkpt lat="42.080818" lon="-6.631635">
        <ele>949.84</ele>
        <time>2021-03-27T14:38:27Z</time>
      </trkpt>
      <trkpt lat="42.080667" lon="-6.632007">
        <ele>948.21</ele>
        <time>2021-03-27T14:38:31Z</time>
      </trkpt>
      <trkpt lat="42.080622" lon="-6.632137">
        <ele>947.72</ele>
        <time>2021-03-27T14:38:35Z</time>
      </trkpt>
      <trkpt lat="42.080589" lon="-6.632294">
        <ele>947.33</ele>
        <time>2021-03-27T14:38:39Z</time>
      </trkpt>
      <trkpt lat="42.080563" lon="-6.632495">
        <ele>947.05</ele>
        <time>2021-03-27T14:38:43Z</time>
      </trkpt>
      <trkpt lat="42.080495" lon="-6.633991">
        <ele>942.05</ele>
        <time>2021-03-27T14:38:47Z</time>
      </trkpt>
      <trkpt lat="42.080462" lon="-6.634266">
        <ele>941.57</ele>
        <time>2021-03-27T14:38:51Z</time>
      </trkpt>
      <trkpt lat="42.08042" lon="-6.634504">
        <ele>941.86</ele>
        <time>2021-03-27T14:38:55Z</time>
      </trkpt>
      <trkpt lat="42.080141" lon="-6.635596">
        <ele>941.04</ele>
        <time>2021-03-27T14:38:59Z</time>
      </trkpt>
      <trkpt lat="42.080101" lon="-6.635787">
        <ele>940.22</ele>
        <time>2021-03-27T14:39:03Z</time>
      </trkpt>
      <trkpt lat="42.080077" lon="-6.635986">
        <ele>939.82</ele>
        <time>2021-03-27T14:39:07Z</time>
      </trkpt>
      <trkpt lat="42.080078" lon="-6.636152">
        <ele>939.78</ele>
        <time>2021-03-27T14:39:11Z</time>
      </trkpt>
      <trkpt lat="42.080121" lon="-6.636449">
        <ele>939.07</ele>
        <time>2021-03-27T14:39:15Z</time>
      </trkpt>
      <trkpt lat="42.080384" lon="-6.637266">
        <ele>935.61</ele>
        <time>2021-03-27T14:39:19Z</time>
      </trkpt>
      <trkpt lat="42.080408" lon="-6.637561">
        <ele>934.82</ele>
        <time>2021-03-27T14:39:23Z</time>
      </trkpt>
      <trkpt lat="42.080395" lon="-6.63775">
        <ele>934.32</ele>
        <time>2021-03-27T14:39:27Z</time>
      </trkpt>
      <trkpt lat="42.080317" lon="-6.638033">
        <ele>931.84</ele>
        <time>2021-03-27T14:39:31Z</time>
      </trkpt>
      <trkpt lat="42.080165" lon="-6.638349">
        <ele>928.93</ele>
        <time>2021-03-27T14:39:35Z</time>
      </trkpt>
      <trkpt lat="42.080086" lon="-6.638589">
        <ele>927.26</ele>
        <time>2021-03-27T14:39:39Z</time>
      </trkpt>
      <trkpt lat="42.080041" lon="-6.638918">
        <ele>925.58</ele>
        <time>2021-03-27T14:39:43Z</time>
      </trkpt>
      <trkpt lat="42.08003" lon="-6.639342">
        <ele>924.7</ele>
        <time>2021-03-27T14:39:47Z</time>
      </trkpt>
      <trkpt lat="42.080041" lon="-6.639461">
        <ele>924.43</ele>
        <time>2021-03-27T14:39:51Z</time>
      </trkpt>
      <trkpt lat="42.080096" lon="-6.639716">
        <ele>924.7</ele>
        <time>2021-03-27T14:39:55Z</time>
      </trkpt>
      <trkpt lat="42.080188" lon="-6.639959">
        <ele>924.22</ele>
        <time>2021-03-27T14:39:59Z</time>
      </trkpt>
      <trkpt lat="42.080264" lon="-6.640086">
        <ele>923.64</ele>
        <time>2021-03-27T14:40:03Z</time>
      </trkpt>
      <trkpt lat="42.080423" lon="-6.640261">
        <ele>922.25</ele>
        <time>2021-03-27T14:40:07Z</time>
      </trkpt>
      <trkpt lat="42.080527" lon="-6.640334">
        <ele>922.01</ele>
        <time>2021-03-27T14:40:11Z</time>
      </trkpt>
      <trkpt lat="42.080668" lon="-6.640396">
        <ele>921.88</ele>
        <time>2021-03-27T14:40:15Z</time>
      </trkpt>
      <trkpt lat="42.081379" lon="-6.640566">
        <ele>919.96</ele>
        <time>2021-03-27T14:40:19Z</time>
      </trkpt>
      <trkpt lat="42.082748" lon="-6.640826">
        <ele>918.46</ele>
        <time>2021-03-27T14:40:23Z</time>
      </trkpt>
      <trkpt lat="42.082998" lon="-6.640869">
        <ele>916.95</ele>
        <time>2021-03-27T14:40:27Z</time>
      </trkpt>
      <trkpt lat="42.083078" lon="-6.640921">
        <ele>916.23</ele>
        <time>2021-03-27T14:40:31Z</time>
      </trkpt>
      <trkpt lat="42.083552" lon="-6.641611">
        <ele>916.59</ele>
        <time>2021-03-27T14:40:35Z</time>
      </trkpt>
      <trkpt lat="42.083617" lon="-6.641578">
        <ele>916.69</ele>
        <time>2021-03-27T14:40:39Z</time>
      </trkpt>
      <trkpt lat="42.083668" lon="-6.641623">
        <ele>916.88</ele>
        <time>2021-03-27T14:40:44Z</time>
      </trkpt>
      <trkpt lat="42.083677" lon="-6.641686">
        <ele>917.07</ele>
        <time>2021-03-27T14:40:48Z</time>
      </trkpt>
      <trkpt lat="42.08366" lon="-6.641737">
        <ele>917.25</ele>
        <time>2021-03-27T14:40:52Z</time>
      </trkpt>
      <trkpt lat="42.083784" lon="-6.642068">
        <ele>918.72</ele>
        <time>2021-03-27T14:40:57Z</time>
      </trkpt>
      <trkpt lat="42.08378" lon="-6.642224">
        <ele>919.61</ele>
        <time>2021-03-27T14:41:01Z</time>
      </trkpt>
      <trkpt lat="42.083794" lon="-6.642549">
        <ele>919.66</ele>
        <time>2021-03-27T14:41:06Z</time>
      </trkpt>
      <trkpt lat="42.08389" lon="-6.642838">
        <ele>920.01</ele>
        <time>2021-03-27T14:41:10Z</time>
      </trkpt>
      <trkpt lat="42.084127" lon="-6.643182">
        <ele>923.5</ele>
        <time>2021-03-27T14:41:15Z</time>
      </trkpt>
      <trkpt lat="42.084355" lon="-6.64335">
        <ele>927.39</ele>
        <time>2021-03-27T14:41:19Z</time>
      </trkpt>
      <trkpt lat="42.084508" lon="-6.643497">
        <ele>930.06</ele>
        <time>2021-03-27T14:41:24Z</time>
      </trkpt>
      <trkpt lat="42.084652" lon="-6.643668">
        <ele>932.53</ele>
        <time>2021-03-27T14:41:28Z</time>
      </trkpt>
      <trkpt lat="42.084745" lon="-6.643861">
        <ele>933.58</ele>
        <time>2021-03-27T14:41:33Z</time>
      </trkpt>
      <trkpt lat="42.084806" lon="-6.644039">
        <ele>934.45</ele>
        <time>2021-03-27T14:41:37Z</time>
      </trkpt>
      <trkpt lat="42.084897" lon="-6.644394">
        <ele>936.41</ele>
        <time>2021-03-27T14:41:42Z</time>
      </trkpt>
      <trkpt lat="42.084978" lon="-6.644611">
        <ele>937.84</ele>
        <time>2021-03-27T14:41:46Z</time>
      </trkpt>
      <trkpt lat="42.085131" lon="-6.644867">
        <ele>938.57</ele>
        <time>2021-03-27T14:41:50Z</time>
      </trkpt>
      <trkpt lat="42.085606" lon="-6.645337">
        <ele>943.29</ele>
        <time>2021-03-27T14:41:55Z</time>
      </trkpt>
      <trkpt lat="42.085988" lon="-6.645553">
        <ele>944.58</ele>
        <time>2021-03-27T14:41:59Z</time>
      </trkpt>
      <trkpt lat="42.086445" lon="-6.645761">
        <ele>946.2</ele>
        <time>2021-03-27T14:42:04Z</time>
      </trkpt>
      <trkpt lat="42.086717" lon="-6.645803">
        <ele>947.2</ele>
        <time>2021-03-27T14:42:08Z</time>
      </trkpt>
      <trkpt lat="42.087004" lon="-6.645747">
        <ele>948.95</ele>
        <time>2021-03-27T14:42:13Z</time>
      </trkpt>
      <trkpt lat="42.08738" lon="-6.645627">
        <ele>952.88</ele>
        <time>2021-03-27T14:42:17Z</time>
      </trkpt>
      <trkpt lat="42.087612" lon="-6.645619">
        <ele>953.55</ele>
        <time>2021-03-27T14:42:22Z</time>
      </trkpt>
      <trkpt lat="42.087913" lon="-6.645689">
        <ele>953.97</ele>
        <time>2021-03-27T14:42:26Z</time>
      </trkpt>
      <trkpt lat="42.088935" lon="-6.645987">
        <ele>961.0</ele>
        <time>2021-03-27T14:42:31Z</time>
      </trkpt>
      <trkpt lat="42.092673" lon="-6.646945">
        <ele>967.0</ele>
        <time>2021-03-27T14:42:35Z</time>
      </trkpt>
      <trkpt lat="42.093017" lon="-6.647042">
        <ele>966.95</ele>
        <time>2021-03-27T14:42:40Z</time>
      </trkpt>
      <trkpt lat="42.09326" lon="-6.646969">
        <ele>966.26</ele>
        <time>2021-03-27T14:42:44Z</time>
      </trkpt>
      <trkpt lat="42.093366" lon="-6.646848">
        <ele>966.12</ele>
        <time>2021-03-27T14:42:48Z</time>
      </trkpt>
      <trkpt lat="42.093481" lon="-6.64682">
        <ele>966.53</ele>
        <time>2021-03-27T14:42:52Z</time>
      </trkpt>
      <trkpt lat="42.093553" lon="-6.646842">
        <ele>966.79</ele>
        <time>2021-03-27T14:42:56Z</time>
      </trkpt>
      <trkpt lat="42.093617" lon="-6.646891">
        <ele>967.04</ele>
        <time>2021-03-27T14:42:59Z</time>
      </trkpt>
      <trkpt lat="42.093667" lon="-6.646964">
        <ele>967.39</ele>
        <time>2021-03-27T14:43:03Z</time>
      </trkpt>
      <trkpt lat="42.093699" lon="-6.647054">
        <ele>967.51</ele>
        <time>2021-03-27T14:43:07Z</time>
      </trkpt>
      <trkpt lat="42.093785" lon="-6.647158">
        <ele>967.77</ele>
        <time>2021-03-27T14:43:11Z</time>
      </trkpt>
      <trkpt lat="42.093936" lon="-6.647284">
        <ele>967.98</ele>
        <time>2021-03-27T14:43:15Z</time>
      </trkpt>
      <trkpt lat="42.095052" lon="-6.64756">
        <ele>973.4</ele>
        <time>2021-03-27T14:43:19Z</time>
      </trkpt>
      <trkpt lat="42.096467" lon="-6.647942">
        <ele>977.28</ele>
        <time>2021-03-27T14:43:23Z</time>
      </trkpt>
      <trkpt lat="42.09668" lon="-6.648078">
        <ele>978.13</ele>
        <time>2021-03-27T14:43:26Z</time>
      </trkpt>
      <trkpt lat="42.09687" lon="-6.648272">
        <ele>979.51</ele>
        <time>2021-03-27T14:43:30Z</time>
      </trkpt>
      <trkpt lat="42.096975" lon="-6.648437">
        <ele>980.49</ele>
        <time>2021-03-27T14:43:34Z</time>
      </trkpt>
      <trkpt lat="42.097075" lon="-6.64866">
        <ele>981.82</ele>
        <time>2021-03-27T14:43:38Z</time>
      </trkpt>
      <trkpt lat="42.097242" lon="-6.649298">
        <ele>985.61</ele>
        <time>2021-03-27T14:43:42Z</time>
      </trkpt>
      <trkpt lat="42.097357" lon="-6.649562">
        <ele>986.77</ele>
        <time>2021-03-27T14:43:46Z</time>
      </trkpt>
      <trkpt lat="42.097458" lon="-6.649747">
        <ele>986.85</ele>
        <time>2021-03-27T14:43:50Z</time>
      </trkpt>
      <trkpt lat="42.097824" lon="-6.650287">
        <ele>988.37</ele>
        <time>2021-03-27T14:43:53Z</time>
      </trkpt>
      <trkpt lat="42.098114" lon="-6.650554">
        <ele>992.41</ele>
        <time>2021-03-27T14:43:57Z</time>
      </trkpt>
      <trkpt lat="42.098428" lon="-6.65078">
        <ele>995.55</ele>
        <time>2021-03-27T14:44:01Z</time>
      </trkpt>
      <trkpt lat="42.099254" lon="-6.651275">
        <ele>1002.9</ele>
        <time>2021-03-27T14:44:05Z</time>
      </trkpt>
      <trkpt lat="42.09948" lon="-6.65147">
        <ele>1004.33</ele>
        <time>2021-03-27T14:44:09Z</time>
      </trkpt>
      <trkpt lat="42.099625" lon="-6.651715">
        <ele>1005.1</ele>
        <time>2021-03-27T14:44:13Z</time>
      </trkpt>
      <trkpt lat="42.099727" lon="-6.651914">
        <ele>1006.65</ele>
        <time>2021-03-27T14:44:17Z</time>
      </trkpt>
      <trkpt lat="42.099842" lon="-6.652053">
        <ele>1007.52</ele>
        <time>2021-03-27T14:44:20Z</time>
      </trkpt>
      <trkpt lat="42.100076" lon="-6.652117">
        <ele>1007.42</ele>
        <time>2021-03-27T14:44:24Z</time>
      </trkpt>
      <trkpt lat="42.100351" lon="-6.652107">
        <ele>1005.69</ele>
        <time>2021-03-27T14:44:28Z</time>
      </trkpt>
      <trkpt lat="42.100451" lon="-6.652126">
        <ele>1005.25</ele>
        <time>2021-03-27T14:44:32Z</time>
      </trkpt>
      <trkpt lat="42.100584" lon="-6.652181">
        <ele>1004.99</ele>
        <time>2021-03-27T14:44:36Z</time>
      </trkpt>
      <trkpt lat="42.100725" lon="-6.65227">
        <ele>1004.07</ele>
        <time>2021-03-27T14:44:40Z</time>
      </trkpt>
      <trkpt lat="42.100938" lon="-6.652457">
        <ele>1003.03</ele>
        <time>2021-03-27T14:44:44Z</time>
      </trkpt>
      <trkpt lat="42.101006" lon="-6.652555">
        <ele>1002.67</ele>
        <time>2021-03-27T14:44:47Z</time>
      </trkpt>
      <trkpt lat="42.10111" lon="-6.652783">
        <ele>1001.02</ele>
        <time>2021-03-27T14:44:51Z</time>
      </trkpt>
      <trkpt lat="42.101162" lon="-6.65298">
        <ele>1000.27</ele>
        <time>2021-03-27T14:44:55Z</time>
      </trkpt>
      <trkpt lat="42.101274" lon="-6.653591">
        <ele>1000.2</ele>
        <time>2021-03-27T14:44:59Z</time>
      </trkpt>
      <trkpt lat="42.101326" lon="-6.65375">
        <ele>999.79</ele>
        <time>2021-03-27T14:45:03Z</time>
      </trkpt>
      <trkpt lat="42.101399" lon="-6.653889">
        <ele>998.85</ele>
        <time>2021-03-27T14:45:07Z</time>
      </trkpt>
      <trkpt lat="42.101556" lon="-6.654071">
        <ele>998.04</ele>
        <time>2021-03-27T14:45:10Z</time>
      </trkpt>
      <trkpt lat="42.101648" lon="-6.654132">
        <ele>997.77</ele>
        <time>2021-03-27T14:45:14Z</time>
      </trkpt>
      <trkpt lat="42.101838" lon="-6.654195">
        <ele>996.97</ele>
        <time>2021-03-27T14:45:18Z</time>
      </trkpt>
      <trkpt lat="42.102415" lon="-6.654229">
        <ele>989.82</ele>
        <time>2021-03-27T14:45:22Z</time>
      </trkpt>
      <trkpt lat="42.102613" lon="-6.654313">
        <ele>988.32</ele>
        <time>2021-03-27T14:45:26Z</time>
      </trkpt>
      <trkpt lat="42.102772" lon="-6.65447">
        <ele>988.57</ele>
        <time>2021-03-27T14:45:30Z</time>
      </trkpt>
      <trkpt lat="42.102908" lon="-6.654689">
        <ele>989.08</ele>
        <time>2021-03-27T14:45:34Z</time>
      </trkpt>
      <trkpt lat="42.102986" lon="-6.654867">
        <ele>989.7</ele>
        <time>2021-03-27T14:45:37Z</time>
      </trkpt>
      <trkpt lat="42.103113" lon="-6.65521">
        <ele>989.58</ele>
        <time>2021-03-27T14:45:41Z</time>
      </trkpt>
      <trkpt lat="42.103394" lon="-6.656069">
        <ele>984.26</ele>
        <time>2021-03-27T14:45:45Z</time>
      </trkpt>
      <trkpt lat="42.103516" lon="-6.656521">
        <ele>981.06</ele>
        <time>2021-03-27T14:45:49Z</time>
      </trkpt>
      <trkpt lat="42.103711" lon="-6.6574">
        <ele>977.84</ele>
        <time>2021-03-27T14:45:53Z</time>
      </trkpt>
      <trkpt lat="42.103842" lon="-6.658128">
        <ele>974.91</ele>
        <time>2021-03-27T14:45:57Z</time>
      </trkpt>
      <trkpt lat="42.103851" lon="-6.658303">
        <ele>974.24</ele>
        <time>2021-03-27T14:46:01Z</time>
      </trkpt>
      <trkpt lat="42.103839" lon="-6.65844">
        <ele>973.73</ele>
        <time>2021-03-27T14:46:04Z</time>
      </trkpt>
      <trkpt lat="42.103775" lon="-6.658639">
        <ele>972.74</ele>
        <time>2021-03-27T14:46:08Z</time>
      </trkpt>
      <trkpt lat="42.103521" lon="-6.659056">
        <ele>969.3</ele>
        <time>2021-03-27T14:46:12Z</time>
      </trkpt>
      <trkpt lat="42.103482" lon="-6.659195">
        <ele>968.29</ele>
        <time>2021-03-27T14:46:16Z</time>
      </trkpt>
      <trkpt lat="42.103476" lon="-6.659333">
        <ele>967.86</ele>
        <time>2021-03-27T14:46:20Z</time>
      </trkpt>
      <trkpt lat="42.103601" lon="-6.659824">
        <ele>966.72</ele>
        <time>2021-03-27T14:46:24Z</time>
      </trkpt>
      <trkpt lat="42.103627" lon="-6.660027">
        <ele>965.72</ele>
        <time>2021-03-27T14:46:28Z</time>
      </trkpt>
      <trkpt lat="42.103584" lon="-6.66028">
        <ele>965.18</ele>
        <time>2021-03-27T14:46:31Z</time>
      </trkpt>
      <trkpt lat="42.103472" lon="-6.660519">
        <ele>966.0</ele>
        <time>2021-03-27T14:46:35Z</time>
      </trkpt>
      <trkpt lat="42.103424" lon="-6.660665">
        <ele>967.21</ele>
        <time>2021-03-27T14:46:39Z</time>
      </trkpt>
      <trkpt lat="42.103421" lon="-6.660779">
        <ele>967.8</ele>
        <time>2021-03-27T14:46:43Z</time>
      </trkpt>
      <trkpt lat="42.103468" lon="-6.660944">
        <ele>967.94</ele>
        <time>2021-03-27T14:46:47Z</time>
      </trkpt>
      <trkpt lat="42.103514" lon="-6.661035">
        <ele>967.78</ele>
        <time>2021-03-27T14:46:51Z</time>
      </trkpt>
      <trkpt lat="42.103972" lon="-6.661735">
        <ele>966.02</ele>
        <time>2021-03-27T14:46:55Z</time>
      </trkpt>
      <trkpt lat="42.10413" lon="-6.662033">
        <ele>963.41</ele>
        <time>2021-03-27T14:46:58Z</time>
      </trkpt>
      <trkpt lat="42.104159" lon="-6.662138">
        <ele>962.94</ele>
        <time>2021-03-27T14:47:02Z</time>
      </trkpt>
      <trkpt lat="42.104192" lon="-6.662622">
        <ele>962.5</ele>
        <time>2021-03-27T14:47:06Z</time>
      </trkpt>
      <trkpt lat="42.104217" lon="-6.662732">
        <ele>962.05</ele>
        <time>2021-03-27T14:47:10Z</time>
      </trkpt>
      <trkpt lat="42.104306" lon="-6.662865">
        <ele>961.43</ele>
        <time>2021-03-27T14:47:14Z</time>
      </trkpt>
      <trkpt lat="42.104512" lon="-6.663079">
        <ele>960.02</ele>
        <time>2021-03-27T14:47:18Z</time>
      </trkpt>
      <trkpt lat="42.104567" lon="-6.663174">
        <ele>959.88</ele>
        <time>2021-03-27T14:47:22Z</time>
      </trkpt>
      <trkpt lat="42.104648" lon="-6.663372">
        <ele>959.53</ele>
        <time>2021-03-27T14:47:25Z</time>
      </trkpt>
      <trkpt lat="42.104669" lon="-6.663483">
        <ele>958.82</ele>
        <time>2021-03-27T14:47:29Z</time>
      </trkpt>
      <trkpt lat="42.104666" lon="-6.663883">
        <ele>957.63</ele>
        <time>2021-03-27T14:47:33Z</time>
      </trkpt>
      <trkpt lat="42.104686" lon="-6.664176">
        <ele>957.11</ele>
        <time>2021-03-27T14:47:37Z</time>
      </trkpt>
      <trkpt lat="42.104791" lon="-6.664436">
        <ele>956.47</ele>
        <time>2021-03-27T14:47:41Z</time>
      </trkpt>
      <trkpt lat="42.10497" lon="-6.664721">
        <ele>956.75</ele>
        <time>2021-03-27T14:47:45Z</time>
      </trkpt>
      <trkpt lat="42.105073" lon="-6.66496">
        <ele>956.49</ele>
        <time>2021-03-27T14:47:48Z</time>
      </trkpt>
      <trkpt lat="42.105103" lon="-6.665071">
        <ele>956.54</ele>
        <time>2021-03-27T14:47:52Z</time>
      </trkpt>
      <trkpt lat="42.105147" lon="-6.665459">
        <ele>959.03</ele>
        <time>2021-03-27T14:47:56Z</time>
      </trkpt>
      <trkpt lat="42.10518" lon="-6.665614">
        <ele>960.44</ele>
        <time>2021-03-27T14:48:00Z</time>
      </trkpt>
      <trkpt lat="42.105245" lon="-6.665728">
        <ele>960.78</ele>
        <time>2021-03-27T14:48:04Z</time>
      </trkpt>
      <trkpt lat="42.105597" lon="-6.666143">
        <ele>961.85</ele>
        <time>2021-03-27T14:48:08Z</time>
      </trkpt>
      <trkpt lat="42.106192" lon="-6.66668">
        <ele>957.48</ele>
        <time>2021-03-27T14:48:12Z</time>
      </trkpt>
      <trkpt lat="42.106353" lon="-6.666847">
        <ele>955.41</ele>
        <time>2021-03-27T14:48:15Z</time>
      </trkpt>
      <trkpt lat="42.106532" lon="-6.66709">
        <ele>954.51</ele>
        <time>2021-03-27T14:48:19Z</time>
      </trkpt>
      <trkpt lat="42.106753" lon="-6.667471">
        <ele>955.37</ele>
        <time>2021-03-27T14:48:23Z</time>
      </trkpt>
      <trkpt lat="42.107081" lon="-6.668076">
        <ele>957.33</ele>
        <time>2021-03-27T14:48:27Z</time>
      </trkpt>
      <trkpt lat="42.107149" lon="-6.668244">
        <ele>957.32</ele>
        <time>2021-03-27T14:48:31Z</time>
      </trkpt>
      <trkpt lat="42.107192" lon="-6.66844">
        <ele>957.12</ele>
        <time>2021-03-27T14:48:35Z</time>
      </trkpt>
      <trkpt lat="42.10718" lon="-6.668759">
        <ele>958.08</ele>
        <time>2021-03-27T14:48:39Z</time>
      </trkpt>
      <trkpt lat="42.107027" lon="-6.669457">
        <ele>962.35</ele>
        <time>2021-03-27T14:48:42Z</time>
      </trkpt>
      <trkpt lat="42.107004" lon="-6.669651">
        <ele>962.24</ele>
        <time>2021-03-27T14:48:46Z</time>
      </trkpt>
      <trkpt lat="42.10701" lon="-6.669823">
        <ele>961.65</ele>
        <time>2021-03-27T14:48:50Z</time>
      </trkpt>
      <trkpt lat="42.107271" lon="-6.671155">
        <ele>963.29</ele>
        <time>2021-03-27T14:48:54Z</time>
      </trkpt>
      <trkpt lat="42.107645" lon="-6.672371">
        <ele>960.18</ele>
        <time>2021-03-27T14:48:58Z</time>
      </trkpt>
      <trkpt lat="42.10771" lon="-6.672732">
        <ele>960.51</ele>
        <time>2021-03-27T14:49:02Z</time>
      </trkpt>
      <trkpt lat="42.10774" lon="-6.673166">
        <ele>961.62</ele>
        <time>2021-03-27T14:49:06Z</time>
      </trkpt>
      <trkpt lat="42.107692" lon="-6.674294">
        <ele>964.62</ele>
        <time>2021-03-27T14:49:09Z</time>
      </trkpt>
      <trkpt lat="42.107709" lon="-6.674472">
        <ele>963.92</ele>
        <time>2021-03-27T14:49:13Z</time>
      </trkpt>
      <trkpt lat="42.10775" lon="-6.67463">
        <ele>962.67</ele>
        <time>2021-03-27T14:49:17Z</time>
      </trkpt>
      <trkpt lat="42.107926" lon="-6.67514">
        <ele>961.97</ele>
        <time>2021-03-27T14:49:21Z</time>
      </trkpt>
      <trkpt lat="42.108" lon="-6.675263">
        <ele>962.15</ele>
        <time>2021-03-27T14:49:25Z</time>
      </trkpt>
      <trkpt lat="42.108079" lon="-6.675356">
        <ele>961.34</ele>
        <time>2021-03-27T14:49:29Z</time>
      </trkpt>
      <trkpt lat="42.108187" lon="-6.675429">
        <ele>960.74</ele>
        <time>2021-03-27T14:49:33Z</time>
      </trkpt>
      <trkpt lat="42.108644" lon="-6.675554">
        <ele>959.88</ele>
        <time>2021-03-27T14:49:36Z</time>
      </trkpt>
      <trkpt lat="42.109346" lon="-6.675799">
        <ele>961.53</ele>
        <time>2021-03-27T14:49:40Z</time>
      </trkpt>
      <trkpt lat="42.109734" lon="-6.676016">
        <ele>967.41</ele>
        <time>2021-03-27T14:49:44Z</time>
      </trkpt>
      <trkpt lat="42.11032" lon="-6.676459">
        <ele>974.3</ele>
        <time>2021-03-27T14:49:48Z</time>
      </trkpt>
      <trkpt lat="42.110666" lon="-6.676756">
        <ele>975.54</ele>
        <time>2021-03-27T14:49:52Z</time>
      </trkpt>
      <trkpt lat="42.110783" lon="-6.67693">
        <ele>975.79</ele>
        <time>2021-03-27T14:49:56Z</time>
      </trkpt>
      <trkpt lat="42.111759" lon="-6.679418">
        <ele>985.87</ele>
        <time>2021-03-27T14:50:00Z</time>
      </trkpt>
      <trkpt lat="42.112111" lon="-6.680232">
        <ele>993.3</ele>
        <time>2021-03-27T14:50:03Z</time>
      </trkpt>
      <trkpt lat="42.112501" lon="-6.681002">
        <ele>993.99</ele>
        <time>2021-03-27T14:50:07Z</time>
      </trkpt>
      <trkpt lat="42.112616" lon="-6.681185">
        <ele>993.13</ele>
        <time>2021-03-27T14:50:11Z</time>
      </trkpt>
      <trkpt lat="42.113261" lon="-6.681986">
        <ele>993.04</ele>
        <time>2021-03-27T14:50:15Z</time>
      </trkpt>
      <trkpt lat="42.113377" lon="-6.682173">
        <ele>993.0</ele>
        <time>2021-03-27T14:50:19Z</time>
      </trkpt>
      <trkpt lat="42.113474" lon="-6.682368">
        <ele>993.26</ele>
        <time>2021-03-27T14:50:23Z</time>
      </trkpt>
      <trkpt lat="42.113596" lon="-6.682709">
        <ele>993.09</ele>
        <time>2021-03-27T14:50:27Z</time>
      </trkpt>
      <trkpt lat="42.113953" lon="-6.684223">
        <ele>996.49</ele>
        <time>2021-03-27T14:50:30Z</time>
      </trkpt>
      <trkpt lat="42.114047" lon="-6.684552">
        <ele>995.46</ele>
        <time>2021-03-27T14:50:34Z</time>
      </trkpt>
      <trkpt lat="42.114124" lon="-6.684763">
        <ele>994.91</ele>
        <time>2021-03-27T14:50:38Z</time>
      </trkpt>
      <trkpt lat="42.114268" lon="-6.685073">
        <ele>995.17</ele>
        <time>2021-03-27T14:50:42Z</time>
      </trkpt>
      <trkpt lat="42.114877" lon="-6.68632">
        <ele>996.95</ele>
        <time>2021-03-27T14:50:46Z</time>
      </trkpt>
      <trkpt lat="42.114983" lon="-6.686512">
        <ele>997.98</ele>
        <time>2021-03-27T14:50:50Z</time>
      </trkpt>
      <trkpt lat="42.115123" lon="-6.686692">
        <ele>998.61</ele>
        <time>2021-03-27T14:50:53Z</time>
      </trkpt>
      <trkpt lat="42.116087" lon="-6.687341">
        <ele>999.28</ele>
        <time>2021-03-27T14:50:57Z</time>
      </trkpt>
      <trkpt lat="42.116182" lon="-6.68743">
        <ele>999.79</ele>
        <time>2021-03-27T14:51:01Z</time>
      </trkpt>
      <trkpt lat="42.116262" lon="-6.687543">
        <ele>1000.37</ele>
        <time>2021-03-27T14:51:05Z</time>
      </trkpt>
      <trkpt lat="42.116719" lon="-6.688379">
        <ele>1001.29</ele>
        <time>2021-03-27T14:51:09Z</time>
      </trkpt>
      <trkpt lat="42.116852" lon="-6.688625">
        <ele>1001.42</ele>
        <time>2021-03-27T14:51:13Z</time>
      </trkpt>
      <trkpt lat="42.116958" lon="-6.688711">
        <ele>1001.93</ele>
        <time>2021-03-27T14:51:17Z</time>
      </trkpt>
      <trkpt lat="42.117061" lon="-6.688743">
        <ele>1003.64</ele>
        <time>2021-03-27T14:51:20Z</time>
      </trkpt>
      <trkpt lat="42.117108" lon="-6.688716">
        <ele>1004.26</ele>
        <time>2021-03-27T14:51:23Z</time>
      </trkpt>
      <trkpt lat="42.11716" lon="-6.688716">
        <ele>1005.04</ele>
        <time>2021-03-27T14:51:25Z</time>
      </trkpt>
      <trkpt lat="42.117347" lon="-6.68851">
        <ele>1007.96</ele>
        <time>2021-03-27T14:51:27Z</time>
      </trkpt>
      <trkpt lat="42.11747" lon="-6.688245">
        <ele>1010.46</ele>
        <time>2021-03-27T14:51:30Z</time>
      </trkpt>
      <trkpt lat="42.117669" lon="-6.687872">
        <ele>1010.69</ele>
        <time>2021-03-27T14:51:32Z</time>
      </trkpt>
      <trkpt lat="42.11795" lon="-6.687484">
        <ele>1008.86</ele>
        <time>2021-03-27T14:51:34Z</time>
      </trkpt>
      <trkpt lat="42.118502" lon="-6.686801">
        <ele>1006.5</ele>
        <time>2021-03-27T14:51:37Z</time>
      </trkpt>
      <trkpt lat="42.118756" lon="-6.686565">
        <ele>1006.67</ele>
        <time>2021-03-27T14:51:39Z</time>
      </trkpt>
      <trkpt lat="42.119563" lon="-6.686119">
        <ele>1006.44</ele>
        <time>2021-03-27T14:51:41Z</time>
      </trkpt>
      <trkpt lat="42.11972" lon="-6.686057">
        <ele>1006.8</ele>
        <time>2021-03-27T14:51:43Z</time>
      </trkpt>
      <trkpt lat="42.119894" lon="-6.686025">
        <ele>1007.11</ele>
        <time>2021-03-27T14:51:46Z</time>
      </trkpt>
      <trkpt lat="42.121622" lon="-6.68604">
        <ele>1005.16</ele>
        <time>2021-03-27T14:51:48Z</time>
      </trkpt>
      <trkpt lat="42.121978" lon="-6.685982">
        <ele>1002.94</ele>
        <time>2021-03-27T14:51:50Z</time>
      </trkpt>
      <trkpt lat="42.122851" lon="-6.685723">
        <ele>1006.23</ele>
        <time>2021-03-27T14:51:53Z</time>
      </trkpt>
      <trkpt lat="42.123257" lon="-6.685633">
        <ele>1009.45</ele>
        <time>2021-03-27T14:51:55Z</time>
      </trkpt>
      <trkpt lat="42.123587" lon="-6.685622">
        <ele>1009.31</ele>
        <time>2021-03-27T14:51:57Z</time>
      </trkpt>
      <trkpt lat="42.124853" lon="-6.68595">
        <ele>1014.32</ele>
        <time>2021-03-27T14:51:59Z</time>
      </trkpt>
      <trkpt lat="42.12503" lon="-6.686018">
        <ele>1014.99</ele>
        <time>2021-03-27T14:52:02Z</time>
      </trkpt>
      <trkpt lat="42.125157" lon="-6.686097">
        <ele>1015.79</ele>
        <time>2021-03-27T14:52:04Z</time>
      </trkpt>
      <trkpt lat="42.125322" lon="-6.68626">
        <ele>1016.16</ele>
        <time>2021-03-27T14:52:06Z</time>
      </trkpt>
      <trkpt lat="42.12662" lon="-6.687806">
        <ele>1025.13</ele>
        <time>2021-03-27T14:52:09Z</time>
      </trkpt>
      <trkpt lat="42.126823" lon="-6.688107">
        <ele>1028.93</ele>
        <time>2021-03-27T14:52:11Z</time>
      </trkpt>
      <trkpt lat="42.127177" lon="-6.688742">
        <ele>1033.66</ele>
        <time>2021-03-27T14:52:13Z</time>
      </trkpt>
      <trkpt lat="42.127303" lon="-6.689012">
        <ele>1034.22</ele>
        <time>2021-03-27T14:52:15Z</time>
      </trkpt>
      <trkpt lat="42.127684" lon="-6.690038">
        <ele>1033.74</ele>
        <time>2021-03-27T14:52:18Z</time>
      </trkpt>
      <trkpt lat="42.127984" lon="-6.691165">
        <ele>1036.74</ele>
        <time>2021-03-27T14:52:20Z</time>
      </trkpt>
      <trkpt lat="42.128033" lon="-6.69146">
        <ele>1037.12</ele>
        <time>2021-03-27T14:52:22Z</time>
      </trkpt>
      <trkpt lat="42.128197" lon="-6.692995">
        <ele>1040.77</ele>
        <time>2021-03-27T14:52:25Z</time>
      </trkpt>
      <trkpt lat="42.128227" lon="-6.693148">
        <ele>1040.76</ele>
        <time>2021-03-27T14:52:27Z</time>
      </trkpt>
      <trkpt lat="42.128279" lon="-6.693276">
        <ele>1041.23</ele>
        <time>2021-03-27T14:52:29Z</time>
      </trkpt>
      <trkpt lat="42.128639" lon="-6.693817">
        <ele>1043.78</ele>
        <time>2021-03-27T14:52:32Z</time>
      </trkpt>
      <trkpt lat="42.128781" lon="-6.693975">
        <ele>1045.51</ele>
        <time>2021-03-27T14:52:34Z</time>
      </trkpt>
      <trkpt lat="42.128874" lon="-6.69404">
        <ele>1047.12</ele>
        <time>2021-03-27T14:52:36Z</time>
      </trkpt>
      <trkpt lat="42.129771" lon="-6.694386">
        <ele>1052.46</ele>
        <time>2021-03-27T14:52:38Z</time>
      </trkpt>
      <trkpt lat="42.129886" lon="-6.694454">
        <ele>1053.89</ele>
        <time>2021-03-27T14:52:41Z</time>
      </trkpt>
      <trkpt lat="42.130093" lon="-6.694745">
        <ele>1055.12</ele>
        <time>2021-03-27T14:52:43Z</time>
      </trkpt>
      <trkpt lat="42.13064" lon="-6.695842">
        <ele>1058.5</ele>
        <time>2021-03-27T14:52:45Z</time>
      </trkpt>
      <trkpt lat="42.13155" lon="-6.698289">
        <ele>1067.65</ele>
        <time>2021-03-27T14:52:48Z</time>
      </trkpt>
      <trkpt lat="42.131686" lon="-6.698614">
        <ele>1070.19</ele>
        <time>2021-03-27T14:52:50Z</time>
      </trkpt>
      <trkpt lat="42.131781" lon="-6.698701">
        <ele>1070.72</ele>
        <time>2021-03-27T14:52:52Z</time>
      </trkpt>
      <trkpt lat="42.131859" lon="-6.698735">
        <ele>1071.49</ele>
        <time>2021-03-27T14:52:54Z</time>
      </trkpt>
      <trkpt lat="42.131924" lon="-6.698741">
        <ele>1072.28</ele>
        <time>2021-03-27T14:52:57Z</time>
      </trkpt>
      <trkpt lat="42.13206" lon="-6.698648">
        <ele>1075.41</ele>
        <time>2021-03-27T14:52:59Z</time>
      </trkpt>
      <trkpt lat="42.132121" lon="-6.698571">
        <ele>1077.09</ele>
        <time>2021-03-27T14:53:01Z</time>
      </trkpt>
      <trkpt lat="42.132147" lon="-6.698464">
        <ele>1078.44</ele>
        <time>2021-03-27T14:53:04Z</time>
      </trkpt>
      <trkpt lat="42.132138" lon="-6.698327">
        <ele>1079.2</ele>
        <time>2021-03-27T14:53:06Z</time>
      </trkpt>
      <trkpt lat="42.132102" lon="-6.698174">
        <ele>1078.99</ele>
        <time>2021-03-27T14:53:08Z</time>
      </trkpt>
      <trkpt lat="42.131863" lon="-6.697388">
        <ele>1080.05</ele>
        <time>2021-03-27T14:53:10Z</time>
      </trkpt>
      <trkpt lat="42.131817" lon="-6.697098">
        <ele>1080.25</ele>
        <time>2021-03-27T14:53:13Z</time>
      </trkpt>
      <trkpt lat="42.131816" lon="-6.69655">
        <ele>1080.5</ele>
        <time>2021-03-27T14:53:15Z</time>
      </trkpt>
      <trkpt lat="42.131835" lon="-6.6963">
        <ele>1080.76</ele>
        <time>2021-03-27T14:53:17Z</time>
      </trkpt>
      <trkpt lat="42.13188" lon="-6.696035">
        <ele>1082.05</ele>
        <time>2021-03-27T14:53:20Z</time>
      </trkpt>
      <trkpt lat="42.132122" lon="-6.694999">
        <ele>1089.56</ele>
        <time>2021-03-27T14:53:22Z</time>
      </trkpt>
      <trkpt lat="42.132132" lon="-6.694742">
        <ele>1090.96</ele>
        <time>2021-03-27T14:53:24Z</time>
      </trkpt>
      <trkpt lat="42.132063" lon="-6.69389">
        <ele>1092.56</ele>
        <time>2021-03-27T14:53:27Z</time>
      </trkpt>
      <trkpt lat="42.132011" lon="-6.693548">
        <ele>1095.64</ele>
        <time>2021-03-27T14:53:29Z</time>
      </trkpt>
      <trkpt lat="42.131919" lon="-6.693261">
        <ele>1097.23</ele>
        <time>2021-03-27T14:53:31Z</time>
      </trkpt>
      <trkpt lat="42.131763" lon="-6.692908">
        <ele>1097.14</ele>
        <time>2021-03-27T14:53:33Z</time>
      </trkpt>
      <trkpt lat="42.131664" lon="-6.692539">
        <ele>1096.81</ele>
        <time>2021-03-27T14:53:36Z</time>
      </trkpt>
      <trkpt lat="42.131622" lon="-6.692299">
        <ele>1096.86</ele>
        <time>2021-03-27T14:53:38Z</time>
      </trkpt>
      <trkpt lat="42.131607" lon="-6.691906">
        <ele>1098.96</ele>
        <time>2021-03-27T14:53:40Z</time>
      </trkpt>
      <trkpt lat="42.131631" lon="-6.691761">
        <ele>1099.44</ele>
        <time>2021-03-27T14:53:43Z</time>
      </trkpt>
      <trkpt lat="42.131682" lon="-6.691652">
        <ele>1100.17</ele>
        <time>2021-03-27T14:53:45Z</time>
      </trkpt>
      <trkpt lat="42.131772" lon="-6.691578">
        <ele>1101.02</ele>
        <time>2021-03-27T14:53:47Z</time>
      </trkpt>
      <trkpt lat="42.131859" lon="-6.691552">
        <ele>1101.8</ele>
        <time>2021-03-27T14:53:49Z</time>
      </trkpt>
      <trkpt lat="42.131961" lon="-6.691566">
        <ele>1102.7</ele>
        <time>2021-03-27T14:53:52Z</time>
      </trkpt>
      <trkpt lat="42.13202" lon="-6.691611">
        <ele>1103.07</ele>
        <time>2021-03-27T14:53:54Z</time>
      </trkpt>
      <trkpt lat="42.132098" lon="-6.691708">
        <ele>1103.63</ele>
        <time>2021-03-27T14:53:56Z</time>
      </trkpt>
      <trkpt lat="42.132306" lon="-6.69201">
        <ele>1104.86</ele>
        <time>2021-03-27T14:53:59Z</time>
      </trkpt>
      <trkpt lat="42.132578" lon="-6.69247">
        <ele>1104.33</ele>
        <time>2021-03-27T14:54:01Z</time>
      </trkpt>
      <trkpt lat="42.132666" lon="-6.692685">
        <ele>1104.6</ele>
        <time>2021-03-27T14:54:03Z</time>
      </trkpt>
      <trkpt lat="42.132731" lon="-6.692894">
        <ele>1105.35</ele>
        <time>2021-03-27T14:54:05Z</time>
      </trkpt>
      <trkpt lat="42.133329" lon="-6.695647">
        <ele>1105.93</ele>
        <time>2021-03-27T14:54:08Z</time>
      </trkpt>
      <trkpt lat="42.133372" lon="-6.695936">
        <ele>1106.79</ele>
        <time>2021-03-27T14:54:10Z</time>
      </trkpt>
      <trkpt lat="42.133385" lon="-6.696159">
        <ele>1107.62</ele>
        <time>2021-03-27T14:54:12Z</time>
      </trkpt>
      <trkpt lat="42.133412" lon="-6.698707">
        <ele>1115.22</ele>
        <time>2021-03-27T14:54:15Z</time>
      </trkpt>
      <trkpt lat="42.133442" lon="-6.698877">
        <ele>1115.57</ele>
        <time>2021-03-27T14:54:17Z</time>
      </trkpt>
      <trkpt lat="42.133494" lon="-6.699039">
        <ele>1116.68</ele>
        <time>2021-03-27T14:54:19Z</time>
      </trkpt>
      <trkpt lat="42.133909" lon="-6.6999">
        <ele>1127.59</ele>
        <time>2021-03-27T14:54:21Z</time>
      </trkpt>
      <trkpt lat="42.133971" lon="-6.70009">
        <ele>1126.97</ele>
        <time>2021-03-27T14:54:24Z</time>
      </trkpt>
      <trkpt lat="42.134123" lon="-6.70069">
        <ele>1127.33</ele>
        <time>2021-03-27T14:54:26Z</time>
      </trkpt>
      <trkpt lat="42.134183" lon="-6.701022">
        <ele>1129.28</ele>
        <time>2021-03-27T14:54:28Z</time>
      </trkpt>
      <trkpt lat="42.134231" lon="-6.701427">
        <ele>1133.69</ele>
        <time>2021-03-27T14:54:31Z</time>
      </trkpt>
      <trkpt lat="42.134201" lon="-6.701825">
        <ele>1136.98</ele>
        <time>2021-03-27T14:54:33Z</time>
      </trkpt>
      <trkpt lat="42.134057" lon="-6.702703">
        <ele>1138.88</ele>
        <time>2021-03-27T14:54:35Z</time>
      </trkpt>
      <trkpt lat="42.133974" lon="-6.702952">
        <ele>1141.02</ele>
        <time>2021-03-27T14:54:38Z</time>
      </trkpt>
      <trkpt lat="42.133714" lon="-6.703464">
        <ele>1142.9</ele>
        <time>2021-03-27T14:54:40Z</time>
      </trkpt>
      <trkpt lat="42.133658" lon="-6.703618">
        <ele>1142.92</ele>
        <time>2021-03-27T14:54:42Z</time>
      </trkpt>
      <trkpt lat="42.133616" lon="-6.70382">
        <ele>1142.7</ele>
        <time>2021-03-27T14:54:44Z</time>
      </trkpt>
      <trkpt lat="42.133559" lon="-6.704295">
        <ele>1146.02</ele>
        <time>2021-03-27T14:54:47Z</time>
      </trkpt>
      <trkpt lat="42.133386" lon="-6.705188">
        <ele>1147.28</ele>
        <time>2021-03-27T14:54:49Z</time>
      </trkpt>
      <trkpt lat="42.133318" lon="-6.705636">
        <ele>1147.01</ele>
        <time>2021-03-27T14:54:51Z</time>
      </trkpt>
      <trkpt lat="42.13325" lon="-6.706586">
        <ele>1149.84</ele>
        <time>2021-03-27T14:54:54Z</time>
      </trkpt>
      <trkpt lat="42.133226" lon="-6.70743">
        <ele>1154.69</ele>
        <time>2021-03-27T14:54:56Z</time>
      </trkpt>
      <trkpt lat="42.133266" lon="-6.70865">
        <ele>1161.46</ele>
        <time>2021-03-27T14:54:58Z</time>
      </trkpt>
      <trkpt lat="42.13331" lon="-6.7093">
        <ele>1165.19</ele>
        <time>2021-03-27T14:55:00Z</time>
      </trkpt>
      <trkpt lat="42.133317" lon="-6.710691">
        <ele>1167.64</ele>
        <time>2021-03-27T14:55:03Z</time>
      </trkpt>
      <trkpt lat="42.133343" lon="-6.711063">
        <ele>1167.67</ele>
        <time>2021-03-27T14:55:05Z</time>
      </trkpt>
      <trkpt lat="42.133662" lon="-6.712235">
        <ele>1172.83</ele>
        <time>2021-03-27T14:55:07Z</time>
      </trkpt>
      <trkpt lat="42.133782" lon="-6.712628">
        <ele>1171.99</ele>
        <time>2021-03-27T14:55:10Z</time>
      </trkpt>
      <trkpt lat="42.134198" lon="-6.713573">
        <ele>1176.7</ele>
        <time>2021-03-27T14:55:12Z</time>
      </trkpt>
      <trkpt lat="42.134267" lon="-6.713681">
        <ele>1177.57</ele>
        <time>2021-03-27T14:55:14Z</time>
      </trkpt>
      <trkpt lat="42.13433" lon="-6.713733">
        <ele>1178.78</ele>
        <time>2021-03-27T14:55:16Z</time>
      </trkpt>
      <trkpt lat="42.134677" lon="-6.713887">
        <ele>1184.06</ele>
        <time>2021-03-27T14:55:19Z</time>
      </trkpt>
      <trkpt lat="42.134833" lon="-6.714024">
        <ele>1185.56</ele>
        <time>2021-03-27T14:55:21Z</time>
      </trkpt>
      <trkpt lat="42.13497" lon="-6.714198">
        <ele>1185.78</ele>
        <time>2021-03-27T14:55:23Z</time>
      </trkpt>
      <trkpt lat="42.135364" lon="-6.714792">
        <ele>1187.1</ele>
        <time>2021-03-27T14:55:26Z</time>
      </trkpt>
      <trkpt lat="42.135767" lon="-6.715039">
        <ele>1191.01</ele>
        <time>2021-03-27T14:55:28Z</time>
      </trkpt>
      <trkpt lat="42.135933" lon="-6.715186">
        <ele>1191.86</ele>
        <time>2021-03-27T14:55:30Z</time>
      </trkpt>
      <trkpt lat="42.136136" lon="-6.715405">
        <ele>1192.71</ele>
        <time>2021-03-27T14:55:33Z</time>
      </trkpt>
      <trkpt lat="42.136457" lon="-6.715843">
        <ele>1193.02</ele>
        <time>2021-03-27T14:55:35Z</time>
      </trkpt>
      <trkpt lat="42.136562" lon="-6.715942">
        <ele>1194.64</ele>
        <time>2021-03-27T14:55:37Z</time>
      </trkpt>
      <trkpt lat="42.137055" lon="-6.71612">
        <ele>1199.13</ele>
        <time>2021-03-27T14:55:39Z</time>
      </trkpt>
      <trkpt lat="42.137183" lon="-6.716184">
        <ele>1200.06</ele>
        <time>2021-03-27T14:55:42Z</time>
      </trkpt>
      <trkpt lat="42.137311" lon="-6.716345">
        <ele>1201.02</ele>
        <time>2021-03-27T14:55:44Z</time>
      </trkpt>
      <trkpt lat="42.137491" lon="-6.7172">
        <ele>1203.83</ele>
        <time>2021-03-27T14:55:46Z</time>
      </trkpt>
      <trkpt lat="42.137881" lon="-6.718951">
        <ele>1213.74</ele>
        <time>2021-03-27T14:55:49Z</time>
      </trkpt>
      <trkpt lat="42.137902" lon="-6.719151">
        <ele>1215.68</ele>
        <time>2021-03-27T14:55:51Z</time>
      </trkpt>
      <trkpt lat="42.137894" lon="-6.719548">
        <ele>1217.47</ele>
        <time>2021-03-27T14:55:53Z</time>
      </trkpt>
      <trkpt lat="42.137855" lon="-6.719879">
        <ele>1217.72</ele>
        <time>2021-03-27T14:55:55Z</time>
      </trkpt>
      <trkpt lat="42.137801" lon="-6.720024">
        <ele>1217.34</ele>
        <time>2021-03-27T14:55:58Z</time>
      </trkpt>
      <trkpt lat="42.137744" lon="-6.720109">
        <ele>1217.25</ele>
        <time>2021-03-27T14:56:00Z</time>
      </trkpt>
      <trkpt lat="42.137326" lon="-6.720496">
        <ele>1221.94</ele>
        <time>2021-03-27T14:56:02Z</time>
      </trkpt>
      <trkpt lat="42.137211" lon="-6.720535">
        <ele>1222.67</ele>
        <time>2021-03-27T14:56:05Z</time>
      </trkpt>
      <trkpt lat="42.136067" lon="-6.720653">
        <ele>1224.15</ele>
        <time>2021-03-27T14:56:07Z</time>
      </trkpt>
      <trkpt lat="42.135568" lon="-6.720747">
        <ele>1226.05</ele>
        <time>2021-03-27T14:56:09Z</time>
      </trkpt>
      <trkpt lat="42.135111" lon="-6.720863">
        <ele>1226.81</ele>
        <time>2021-03-27T14:56:11Z</time>
      </trkpt>
      <trkpt lat="42.135001" lon="-6.720921">
        <ele>1226.96</ele>
        <time>2021-03-27T14:56:14Z</time>
      </trkpt>
      <trkpt lat="42.13474" lon="-6.721162">
        <ele>1226.94</ele>
        <time>2021-03-27T14:56:16Z</time>
      </trkpt>
      <trkpt lat="42.133268" lon="-6.722638">
        <ele>1242.83</ele>
        <time>2021-03-27T14:56:18Z</time>
      </trkpt>
      <trkpt lat="42.133089" lon="-6.722699">
        <ele>1244.71</ele>
        <time>2021-03-27T14:56:21Z</time>
      </trkpt>
      <trkpt lat="42.132982" lon="-6.722654">
        <ele>1245.8</ele>
        <time>2021-03-27T14:56:23Z</time>
      </trkpt>
      <trkpt lat="42.132892" lon="-6.722574">
        <ele>1246.6</ele>
        <time>2021-03-27T14:56:25Z</time>
      </trkpt>
      <trkpt lat="42.132819" lon="-6.722451">
        <ele>1246.44</ele>
        <time>2021-03-27T14:56:27Z</time>
      </trkpt>
      <trkpt lat="42.132799" lon="-6.722369">
        <ele>1245.7</ele>
        <time>2021-03-27T14:56:30Z</time>
      </trkpt>
      <trkpt lat="42.132754" lon="-6.721804">
        <ele>1243.95</ele>
        <time>2021-03-27T14:56:32Z</time>
      </trkpt>
      <trkpt lat="42.132742" lon="-6.721537">
        <ele>1243.08</ele>
        <time>2021-03-27T14:56:34Z</time>
      </trkpt>
      <trkpt lat="42.132754" lon="-6.72107">
        <ele>1240.54</ele>
        <time>2021-03-27T14:56:37Z</time>
      </trkpt>
      <trkpt lat="42.132747" lon="-6.720964">
        <ele>1240.18</ele>
        <time>2021-03-27T14:56:39Z</time>
      </trkpt>
      <trkpt lat="42.132725" lon="-6.72089">
        <ele>1240.15</ele>
        <time>2021-03-27T14:56:41Z</time>
      </trkpt>
      <trkpt lat="42.132687" lon="-6.720815">
        <ele>1240.09</ele>
        <time>2021-03-27T14:56:44Z</time>
      </trkpt>
      <trkpt lat="42.132626" lon="-6.720756">
        <ele>1240.01</ele>
        <time>2021-03-27T14:56:46Z</time>
      </trkpt>
      <trkpt lat="42.132568" lon="-6.720733">
        <ele>1240.21</ele>
        <time>2021-03-27T14:56:48Z</time>
      </trkpt>
      <trkpt lat="42.132504" lon="-6.720731">
        <ele>1240.76</ele>
        <time>2021-03-27T14:56:50Z</time>
      </trkpt>
      <trkpt lat="42.1324" lon="-6.720801">
        <ele>1240.01</ele>
        <time>2021-03-27T14:56:53Z</time>
      </trkpt>
      <trkpt lat="42.132349" lon="-6.720878">
        <ele>1240.7</ele>
        <time>2021-03-27T14:56:55Z</time>
      </trkpt>
      <trkpt lat="42.132306" lon="-6.720983">
        <ele>1242.05</ele>
        <time>2021-03-27T14:56:57Z</time>
      </trkpt>
      <trkpt lat="42.132209" lon="-6.72135">
        <ele>1246.6</ele>
        <time>2021-03-27T14:57:00Z</time>
      </trkpt>
      <trkpt lat="42.13209" lon="-6.721983">
        <ele>1247.48</ele>
        <time>2021-03-27T14:57:02Z</time>
      </trkpt>
      <trkpt lat="42.13206" lon="-6.72227">
        <ele>1247.92</ele>
        <time>2021-03-27T14:57:04Z</time>
      </trkpt>
      <trkpt lat="42.132062" lon="-6.722837">
        <ele>1249.28</ele>
        <time>2021-03-27T14:57:06Z</time>
      </trkpt>
      <trkpt lat="42.132144" lon="-6.723323">
        <ele>1250.44</ele>
        <time>2021-03-27T14:57:09Z</time>
      </trkpt>
      <trkpt lat="42.132186" lon="-6.723449">
        <ele>1251.12</ele>
        <time>2021-03-27T14:57:11Z</time>
      </trkpt>
      <trkpt lat="42.132234" lon="-6.723531">
        <ele>1252.14</ele>
        <time>2021-03-27T14:57:13Z</time>
      </trkpt>
      <trkpt lat="42.132378" lon="-6.723641">
        <ele>1254.72</ele>
        <time>2021-03-27T14:57:16Z</time>
      </trkpt>
      <trkpt lat="42.132629" lon="-6.72371">
        <ele>1259.32</ele>
        <time>2021-03-27T14:57:18Z</time>
      </trkpt>
      <trkpt lat="42.132727" lon="-6.723771">
        <ele>1260.58</ele>
        <time>2021-03-27T14:57:20Z</time>
      </trkpt>
      <trkpt lat="42.132768" lon="-6.723826">
        <ele>1261.05</ele>
        <time>2021-03-27T14:57:22Z</time>
      </trkpt>
      <trkpt lat="42.133169" lon="-6.724804">
        <ele>1271.45</ele>
        <time>2021-03-27T14:57:25Z</time>
      </trkpt>
      <trkpt lat="42.133284" lon="-6.725131">
        <ele>1275.1</ele>
        <time>2021-03-27T14:57:27Z</time>
      </trkpt>
      <trkpt lat="42.133298" lon="-6.72525">
        <ele>1276.59</ele>
        <time>2021-03-27T14:57:29Z</time>
      </trkpt>
      <trkpt lat="42.133295" lon="-6.72543">
        <ele>1278.56</ele>
        <time>2021-03-27T14:57:32Z</time>
      </trkpt>
      <trkpt lat="42.133251" lon="-6.725692">
        <ele>1282.49</ele>
        <time>2021-03-27T14:57:34Z</time>
      </trkpt>
      <trkpt lat="42.133149" lon="-6.725915">
        <ele>1285.89</ele>
        <time>2021-03-27T14:57:36Z</time>
      </trkpt>
      <trkpt lat="42.133031" lon="-6.726122">
        <ele>1288.54</ele>
        <time>2021-03-27T14:57:39Z</time>
      </trkpt>
      <trkpt lat="42.132765" lon="-6.72643">
        <ele>1289.81</ele>
        <time>2021-03-27T14:57:41Z</time>
      </trkpt>
      <trkpt lat="42.132655" lon="-6.726517">
        <ele>1290.01</ele>
        <time>2021-03-27T14:57:43Z</time>
      </trkpt>
      <trkpt lat="42.132555" lon="-6.726548">
        <ele>1289.0</ele>
        <time>2021-03-27T14:57:45Z</time>
      </trkpt>
      <trkpt lat="42.132117" lon="-6.726572">
        <ele>1286.04</ele>
        <time>2021-03-27T14:57:48Z</time>
      </trkpt>
      <trkpt lat="42.132016" lon="-6.726606">
        <ele>1285.26</ele>
        <time>2021-03-27T14:57:50Z</time>
      </trkpt>
      <trkpt lat="42.131938" lon="-6.726675">
        <ele>1284.92</ele>
        <time>2021-03-27T14:57:52Z</time>
      </trkpt>
      <trkpt lat="42.131883" lon="-6.726769">
        <ele>1284.25</ele>
        <time>2021-03-27T14:57:55Z</time>
      </trkpt>
      <trkpt lat="42.131845" lon="-6.726894">
        <ele>1284.18</ele>
        <time>2021-03-27T14:57:57Z</time>
      </trkpt>
      <trkpt lat="42.131837" lon="-6.727065">
        <ele>1285.32</ele>
        <time>2021-03-27T14:57:59Z</time>
      </trkpt>
      <trkpt lat="42.13185" lon="-6.727303">
        <ele>1287.44</ele>
        <time>2021-03-27T14:58:01Z</time>
      </trkpt>
      <trkpt lat="42.131919" lon="-6.727872">
        <ele>1288.57</ele>
        <time>2021-03-27T14:58:04Z</time>
      </trkpt>
      <trkpt lat="42.131983" lon="-6.728783">
        <ele>1293.07</ele>
        <time>2021-03-27T14:58:06Z</time>
      </trkpt>
      <trkpt lat="42.131993" lon="-6.728991">
        <ele>1294.29</ele>
        <time>2021-03-27T14:58:08Z</time>
      </trkpt>
      <trkpt lat="42.131982" lon="-6.729501">
        <ele>1296.86</ele>
        <time>2021-03-27T14:58:11Z</time>
      </trkpt>
      <trkpt lat="42.132" lon="-6.72959">
        <ele>1298.61</ele>
        <time>2021-03-27T14:58:13Z</time>
      </trkpt>
      <trkpt lat="42.132027" lon="-6.729642">
        <ele>1300.01</ele>
        <time>2021-03-27T14:58:15Z</time>
      </trkpt>
      <trkpt lat="42.132104" lon="-6.729745">
        <ele>1303.27</ele>
        <time>2021-03-27T14:58:17Z</time>
      </trkpt>
      <trkpt lat="42.132177" lon="-6.729791">
        <ele>1305.78</ele>
        <time>2021-03-27T14:58:20Z</time>
      </trkpt>
      <trkpt lat="42.132249" lon="-6.729803">
        <ele>1307.83</ele>
        <time>2021-03-27T14:58:22Z</time>
      </trkpt>
      <trkpt lat="42.132336" lon="-6.729782">
        <ele>1309.73</ele>
        <time>2021-03-27T14:58:24Z</time>
      </trkpt>
      <trkpt lat="42.132417" lon="-6.729726">
        <ele>1310.95</ele>
        <time>2021-03-27T14:58:27Z</time>
      </trkpt>
      <trkpt lat="42.132488" lon="-6.729631">
        <ele>1311.1</ele>
        <time>2021-03-27T14:58:29Z</time>
      </trkpt>
      <trkpt lat="42.13252" lon="-6.729512">
        <ele>1309.88</ele>
        <time>2021-03-27T14:58:31Z</time>
      </trkpt>
      <trkpt lat="42.132521" lon="-6.729372">
        <ele>1307.9</ele>
        <time>2021-03-27T14:58:33Z</time>
      </trkpt>
      <trkpt lat="42.132401" lon="-6.728648">
        <ele>1305.6</ele>
        <time>2021-03-27T14:58:36Z</time>
      </trkpt>
      <trkpt lat="42.132409" lon="-6.728512">
        <ele>1306.28</ele>
        <time>2021-03-27T14:58:38Z</time>
      </trkpt>
      <trkpt lat="42.132445" lon="-6.728408">
        <ele>1307.4</ele>
        <time>2021-03-27T14:58:40Z</time>
      </trkpt>
      <trkpt lat="42.132497" lon="-6.728327">
        <ele>1308.98</ele>
        <time>2021-03-27T14:58:43Z</time>
      </trkpt>
      <trkpt lat="42.132575" lon="-6.72826">
        <ele>1310.73</ele>
        <time>2021-03-27T14:58:45Z</time>
      </trkpt>
      <trkpt lat="42.132663" lon="-6.728248">
        <ele>1312.19</ele>
        <time>2021-03-27T14:58:47Z</time>
      </trkpt>
      <trkpt lat="42.132772" lon="-6.728273">
        <ele>1313.91</ele>
        <time>2021-03-27T14:58:50Z</time>
      </trkpt>
      <trkpt lat="42.132847" lon="-6.728345">
        <ele>1315.49</ele>
        <time>2021-03-27T14:58:52Z</time>
      </trkpt>
      <trkpt lat="42.13299" lon="-6.728624">
        <ele>1319.9</ele>
        <time>2021-03-27T14:58:54Z</time>
      </trkpt>
      <trkpt lat="42.133046" lon="-6.728904">
        <ele>1322.69</ele>
        <time>2021-03-27T14:58:56Z</time>
      </trkpt>
      <trkpt lat="42.133031" lon="-6.729053">
        <ele>1322.63</ele>
        <time>2021-03-27T14:58:59Z</time>
      </trkpt>
      <trkpt lat="42.132699" lon="-6.730349">
        <ele>1330.37</ele>
        <time>2021-03-27T14:59:01Z</time>
      </trkpt>
      <trkpt lat="42.132603" lon="-6.730578">
        <ele>1330.55</ele>
        <time>2021-03-27T14:59:03Z</time>
      </trkpt>
      <trkpt lat="42.132541" lon="-6.730645">
        <ele>1329.52</ele>
        <time>2021-03-27T14:59:06Z</time>
      </trkpt>
      <trkpt lat="42.132323" lon="-6.730746">
        <ele>1325.87</ele>
        <time>2021-03-27T14:59:08Z</time>
      </trkpt>
      <trkpt lat="42.132262" lon="-6.7308">
        <ele>1325.39</ele>
        <time>2021-03-27T14:59:10Z</time>
      </trkpt>
      <trkpt lat="42.132209" lon="-6.730898">
        <ele>1325.24</ele>
        <time>2021-03-27T14:59:12Z</time>
      </trkpt>
      <trkpt lat="42.132133" lon="-6.731201">
        <ele>1326.2</ele>
        <time>2021-03-27T14:59:15Z</time>
      </trkpt>
      <trkpt lat="42.13206" lon="-6.731578">
        <ele>1328.61</ele>
        <time>2021-03-27T14:59:17Z</time>
      </trkpt>
      <trkpt lat="42.132071" lon="-6.731725">
        <ele>1330.68</ele>
        <time>2021-03-27T14:59:19Z</time>
      </trkpt>
      <trkpt lat="42.132115" lon="-6.731887">
        <ele>1333.9</ele>
        <time>2021-03-27T14:59:22Z</time>
      </trkpt>
      <trkpt lat="42.132249" lon="-6.732227">
        <ele>1340.88</ele>
        <time>2021-03-27T14:59:24Z</time>
      </trkpt>
      <trkpt lat="42.132333" lon="-6.732494">
        <ele>1340.3</ele>
        <time>2021-03-27T14:59:26Z</time>
      </trkpt>
      <trkpt lat="42.132373" lon="-6.732649">
        <ele>1340.21</ele>
        <time>2021-03-27T14:59:28Z</time>
      </trkpt>
      <trkpt lat="42.132412" lon="-6.732951">
        <ele>1339.73</ele>
        <time>2021-03-27T14:59:31Z</time>
      </trkpt>
      <trkpt lat="42.132454" lon="-6.733153">
        <ele>1340.15</ele>
        <time>2021-03-27T14:59:33Z</time>
      </trkpt>
      <trkpt lat="42.132542" lon="-6.733468">
        <ele>1339.7</ele>
        <time>2021-03-27T14:59:35Z</time>
      </trkpt>
      <trkpt lat="42.13279" lon="-6.734084">
        <ele>1344.78</ele>
        <time>2021-03-27T14:59:38Z</time>
      </trkpt>
      <trkpt lat="42.132924" lon="-6.734273">
        <ele>1347.93</ele>
        <time>2021-03-27T14:59:40Z</time>
      </trkpt>
      <trkpt lat="42.133065" lon="-6.734414">
        <ele>1351.96</ele>
        <time>2021-03-27T14:59:42Z</time>
      </trkpt>
      <trkpt lat="42.133209" lon="-6.734625">
        <ele>1355.03</ele>
        <time>2021-03-27T14:59:45Z</time>
      </trkpt>
      <trkpt lat="42.133271" lon="-6.734817">
        <ele>1354.75</ele>
        <time>2021-03-27T14:59:47Z</time>
      </trkpt>
      <trkpt lat="42.133353" lon="-6.735299">
        <ele>1350.49</ele>
        <time>2021-03-27T14:59:49Z</time>
      </trkpt>
      <trkpt lat="42.133477" lon="-6.73571">
        <ele>1349.44</ele>
        <time>2021-03-27T14:59:51Z</time>
      </trkpt>
      <trkpt lat="42.133538" lon="-6.735832">
        <ele>1349.67</ele>
        <time>2021-03-27T14:59:54Z</time>
      </trkpt>
      <trkpt lat="42.133629" lon="-6.735936">
        <ele>1350.43</ele>
        <time>2021-03-27T14:59:56Z</time>
      </trkpt>
      <trkpt lat="42.134114" lon="-6.736242">
        <ele>1356.32</ele>
        <time>2021-03-27T14:59:58Z</time>
      </trkpt>
      <trkpt lat="42.134231" lon="-6.736271">
        <ele>1357.5</ele>
        <time>2021-03-27T15:00:01Z</time>
      </trkpt>
      <trkpt lat="42.1351" lon="-6.736333">
        <ele>1361.34</ele>
        <time>2021-03-27T15:00:03Z</time>
      </trkpt>
      <trkpt lat="42.135249" lon="-6.736324">
        <ele>1362.9</ele>
        <time>2021-03-27T15:00:05Z</time>
      </trkpt>
      <trkpt lat="42.135365" lon="-6.736295">
        <ele>1364.31</ele>
        <time>2021-03-27T15:00:07Z</time>
      </trkpt>
      <trkpt lat="42.13546" lon="-6.736231">
        <ele>1365.7</ele>
        <time>2021-03-27T15:00:10Z</time>
      </trkpt>
      <trkpt lat="42.135524" lon="-6.736135">
        <ele>1366.8</ele>
        <time>2021-03-27T15:00:12Z</time>
      </trkpt>
      <trkpt lat="42.135546" lon="-6.736014">
        <ele>1367.05</ele>
        <time>2021-03-27T15:00:14Z</time>
      </trkpt>
      <trkpt lat="42.135504" lon="-6.735837">
        <ele>1367.73</ele>
        <time>2021-03-27T15:00:17Z</time>
      </trkpt>
      <trkpt lat="42.134554" lon="-6.734068">
        <ele>1378.13</ele>
        <time>2021-03-27T15:00:19Z</time>
      </trkpt>
      <trkpt lat="42.134472" lon="-6.733882">
        <ele>1378.05</ele>
        <time>2021-03-27T15:00:21Z</time>
      </trkpt>
      <trkpt lat="42.134101" lon="-6.732539">
        <ele>1382.23</ele>
        <time>2021-03-27T15:00:23Z</time>
      </trkpt>
      <trkpt lat="42.134022" lon="-6.732129">
        <ele>1383.68</ele>
        <time>2021-03-27T15:00:26Z</time>
      </trkpt>
      <trkpt lat="42.134001" lon="-6.731891">
        <ele>1383.72</ele>
        <time>2021-03-27T15:00:28Z</time>
      </trkpt>
      <trkpt lat="42.134008" lon="-6.731634">
        <ele>1383.42</ele>
        <time>2021-03-27T15:00:30Z</time>
      </trkpt>
      <trkpt lat="42.134042" lon="-6.731319">
        <ele>1384.13</ele>
        <time>2021-03-27T15:00:33Z</time>
      </trkpt>
      <trkpt lat="42.134101" lon="-6.73102">
        <ele>1384.44</ele>
        <time>2021-03-27T15:00:35Z</time>
      </trkpt>
      <trkpt lat="42.134177" lon="-6.730724">
        <ele>1385.51</ele>
        <time>2021-03-27T15:00:37Z</time>
      </trkpt>
      <trkpt lat="42.134354" lon="-6.730211">
        <ele>1389.58</ele>
        <time>2021-03-27T15:00:39Z</time>
      </trkpt>
      <trkpt lat="42.135379" lon="-6.728083">
        <ele>1397.79</ele>
        <time>2021-03-27T15:00:42Z</time>
      </trkpt>
      <trkpt lat="42.135495" lon="-6.72791">
        <ele>1397.98</ele>
        <time>2021-03-27T15:00:44Z</time>
      </trkpt>
      <trkpt lat="42.1356" lon="-6.727794">
        <ele>1398.26</ele>
        <time>2021-03-27T15:00:46Z</time>
      </trkpt>
      <trkpt lat="42.136174" lon="-6.7273">
        <ele>1400.72</ele>
        <time>2021-03-27T15:00:49Z</time>
      </trkpt>
      <trkpt lat="42.136501" lon="-6.726926">
        <ele>1399.95</ele>
        <time>2021-03-27T15:00:51Z</time>
      </trkpt>
      <trkpt lat="42.136753" lon="-6.726759">
        <ele>1400.66</ele>
        <time>2021-03-27T15:00:53Z</time>
      </trkpt>
      <trkpt lat="42.136874" lon="-6.726728">
        <ele>1401.69</ele>
        <time>2021-03-27T15:00:56Z</time>
      </trkpt>
      <trkpt lat="42.137005" lon="-6.726736">
        <ele>1403.17</ele>
        <time>2021-03-27T15:00:58Z</time>
      </trkpt>
      <trkpt lat="42.137151" lon="-6.726792">
        <ele>1405.03</ele>
        <time>2021-03-27T15:01:00Z</time>
      </trkpt>
      <trkpt lat="42.137331" lon="-6.726884">
        <ele>1406.61</ele>
        <time>2021-03-27T15:01:02Z</time>
      </trkpt>
      <trkpt lat="42.137572" lon="-6.727063">
        <ele>1408.61</ele>
        <time>2021-03-27T15:01:05Z</time>
      </trkpt>
      <trkpt lat="42.137711" lon="-6.727214">
        <ele>1409.45</ele>
        <time>2021-03-27T15:01:07Z</time>
      </trkpt>
      <trkpt lat="42.13799" lon="-6.727589">
        <ele>1413.18</ele>
        <time>2021-03-27T15:01:09Z</time>
      </trkpt>
      <trkpt lat="42.138129" lon="-6.72772">
        <ele>1414.81</ele>
        <time>2021-03-27T15:01:12Z</time>
      </trkpt>
      <trkpt lat="42.138232" lon="-6.72779">
        <ele>1415.91</ele>
        <time>2021-03-27T15:01:14Z</time>
      </trkpt>
      <trkpt lat="42.138343" lon="-6.727818">
        <ele>1415.66</ele>
        <time>2021-03-27T15:01:16Z</time>
      </trkpt>
      <trkpt lat="42.138581" lon="-6.727827">
        <ele>1417.17</ele>
        <time>2021-03-27T15:01:18Z</time>
      </trkpt>
      <trkpt lat="42.139315" lon="-6.727784">
        <ele>1420.93</ele>
        <time>2021-03-27T15:01:21Z</time>
      </trkpt>
      <trkpt lat="42.139497" lon="-6.727726">
        <ele>1422.85</ele>
        <time>2021-03-27T15:01:23Z</time>
      </trkpt>
      <trkpt lat="42.139715" lon="-6.727552">
        <ele>1423.16</ele>
        <time>2021-03-27T15:01:25Z</time>
      </trkpt>
      <trkpt lat="42.139952" lon="-6.727174">
        <ele>1419.63</ele>
        <time>2021-03-27T15:01:28Z</time>
      </trkpt>
      <trkpt lat="42.14005" lon="-6.727049">
        <ele>1418.42</ele>
        <time>2021-03-27T15:01:30Z</time>
      </trkpt>
      <trkpt lat="42.140142" lon="-6.726984">
        <ele>1418.11</ele>
        <time>2021-03-27T15:01:32Z</time>
      </trkpt>
      <trkpt lat="42.140246" lon="-6.726954">
        <ele>1418.8</ele>
        <time>2021-03-27T15:01:34Z</time>
      </trkpt>
      <trkpt lat="42.140383" lon="-6.726951">
        <ele>1419.21</ele>
        <time>2021-03-27T15:01:37Z</time>
      </trkpt>
      <trkpt lat="42.140473" lon="-6.726985">
        <ele>1420.18</ele>
        <time>2021-03-27T15:01:39Z</time>
      </trkpt>
      <trkpt lat="42.140895" lon="-6.72722">
        <ele>1425.72</ele>
        <time>2021-03-27T15:01:41Z</time>
      </trkpt>
      <trkpt lat="42.141014" lon="-6.727228">
        <ele>1425.51</ele>
        <time>2021-03-27T15:01:44Z</time>
      </trkpt>
      <trkpt lat="42.141123" lon="-6.727198">
        <ele>1424.65</ele>
        <time>2021-03-27T15:01:46Z</time>
      </trkpt>
      <trkpt lat="42.141281" lon="-6.727115">
        <ele>1424.89</ele>
        <time>2021-03-27T15:01:48Z</time>
      </trkpt>
      <trkpt lat="42.141541" lon="-6.726927">
        <ele>1425.5</ele>
        <time>2021-03-27T15:01:51Z</time>
      </trkpt>
      <trkpt lat="42.141639" lon="-6.726819">
        <ele>1426.01</ele>
        <time>2021-03-27T15:01:53Z</time>
      </trkpt>
      <trkpt lat="42.141762" lon="-6.726605">
        <ele>1427.05</ele>
        <time>2021-03-27T15:01:55Z</time>
      </trkpt>
      <trkpt lat="42.141934" lon="-6.726072">
        <ele>1428.8</ele>
        <time>2021-03-27T15:01:57Z</time>
      </trkpt>
      <trkpt lat="42.14208" lon="-6.725503">
        <ele>1428.62</ele>
        <time>2021-03-27T15:02:00Z</time>
      </trkpt>
      <trkpt lat="42.142237" lon="-6.724791">
        <ele>1431.96</ele>
        <time>2021-03-27T15:02:02Z</time>
      </trkpt>
      <trkpt lat="42.142294" lon="-6.724629">
        <ele>1431.2</ele>
        <time>2021-03-27T15:02:04Z</time>
      </trkpt>
      <trkpt lat="42.142423" lon="-6.724405">
        <ele>1431.4</ele>
        <time>2021-03-27T15:02:07Z</time>
      </trkpt>
      <trkpt lat="42.142541" lon="-6.724299">
        <ele>1432.86</ele>
        <time>2021-03-27T15:02:09Z</time>
      </trkpt>
      <trkpt lat="42.142694" lon="-6.724237">
        <ele>1435.27</ele>
        <time>2021-03-27T15:02:11Z</time>
      </trkpt>
      <trkpt lat="42.143449" lon="-6.724072">
        <ele>1440.68</ele>
        <time>2021-03-27T15:02:13Z</time>
      </trkpt>
      <trkpt lat="42.143607" lon="-6.724017">
        <ele>1442.51</ele>
        <time>2021-03-27T15:02:16Z</time>
      </trkpt>
      <trkpt lat="42.143749" lon="-6.723922">
        <ele>1444.1</ele>
        <time>2021-03-27T15:02:18Z</time>
      </trkpt>
      <trkpt lat="42.14386" lon="-6.723788">
        <ele>1444.73</ele>
        <time>2021-03-27T15:02:20Z</time>
      </trkpt>
      <trkpt lat="42.143985" lon="-6.723584">
        <ele>1445.96</ele>
        <time>2021-03-27T15:02:23Z</time>
      </trkpt>
      <trkpt lat="42.14408" lon="-6.723328">
        <ele>1445.21</ele>
        <time>2021-03-27T15:02:25Z</time>
      </trkpt>
      <trkpt lat="42.144172" lon="-6.722983">
        <ele>1445.29</ele>
        <time>2021-03-27T15:02:27Z</time>
      </trkpt>
      <trkpt lat="42.144266" lon="-6.72254">
        <ele>1446.54</ele>
        <time>2021-03-27T15:02:29Z</time>
      </trkpt>
      <trkpt lat="42.144485" lon="-6.721012">
        <ele>1451.42</ele>
        <time>2021-03-27T15:02:32Z</time>
      </trkpt>
      <trkpt lat="42.144501" lon="-6.720626">
        <ele>1453.29</ele>
        <time>2021-03-27T15:02:34Z</time>
      </trkpt>
      <trkpt lat="42.1445" lon="-6.719684">
        <ele>1455.78</ele>
        <time>2021-03-27T15:02:36Z</time>
      </trkpt>
      <trkpt lat="42.14448" lon="-6.719337">
        <ele>1455.11</ele>
        <time>2021-03-27T15:02:39Z</time>
      </trkpt>
      <trkpt lat="42.144249" lon="-6.71723">
        <ele>1464.87</ele>
        <time>2021-03-27T15:02:41Z</time>
      </trkpt>
      <trkpt lat="42.144253" lon="-6.716942">
        <ele>1467.48</ele>
        <time>2021-03-27T15:02:43Z</time>
      </trkpt>
      <trkpt lat="42.144292" lon="-6.716744">
        <ele>1468.63</ele>
        <time>2021-03-27T15:02:46Z</time>
      </trkpt>
      <trkpt lat="42.14437" lon="-6.716499">
        <ele>1468.61</ele>
        <time>2021-03-27T15:02:48Z</time>
      </trkpt>
      <trkpt lat="42.144504" lon="-6.716276">
        <ele>1467.92</ele>
        <time>2021-03-27T15:02:50Z</time>
      </trkpt>
      <trkpt lat="42.144635" lon="-6.716154">
        <ele>1468.09</ele>
        <time>2021-03-27T15:02:52Z</time>
      </trkpt>
      <trkpt lat="42.14479" lon="-6.716058">
        <ele>1468.59</ele>
        <time>2021-03-27T15:02:55Z</time>
      </trkpt>
      <trkpt lat="42.14521" lon="-6.715949">
        <ele>1470.05</ele>
        <time>2021-03-27T15:02:57Z</time>
      </trkpt>
      <trkpt lat="42.145316" lon="-6.715957">
        <ele>1470.59</ele>
        <time>2021-03-27T15:02:59Z</time>
      </trkpt>
      <trkpt lat="42.145402" lon="-6.71599">
        <ele>1471.2</ele>
        <time>2021-03-27T15:03:02Z</time>
      </trkpt>
      <trkpt lat="42.145468" lon="-6.716051">
        <ele>1472.56</ele>
        <time>2021-03-27T15:03:04Z</time>
      </trkpt>
      <trkpt lat="42.14547" lon="-6.716214">
        <ele>1476.63</ele>
        <time>2021-03-27T15:03:06Z</time>
      </trkpt>
      <trkpt lat="42.145415" lon="-6.716302">
        <ele>1478.45</ele>
        <time>2021-03-27T15:03:08Z</time>
      </trkpt>
      <trkpt lat="42.145304" lon="-6.716353">
        <ele>1478.59</ele>
        <time>2021-03-27T15:03:11Z</time>
      </trkpt>
      <trkpt lat="42.144963" lon="-6.716447">
        <ele>1476.62</ele>
        <time>2021-03-27T15:03:13Z</time>
      </trkpt>
      <trkpt lat="42.144858" lon="-6.71655">
        <ele>1477.06</ele>
        <time>2021-03-27T15:03:15Z</time>
      </trkpt>
      <trkpt lat="42.144781" lon="-6.716703">
        <ele>1478.24</ele>
        <time>2021-03-27T15:03:18Z</time>
      </trkpt>
      <trkpt lat="42.144766" lon="-6.716927">
        <ele>1480.46</ele>
        <time>2021-03-27T15:03:20Z</time>
      </trkpt>
      <trkpt lat="42.144787" lon="-6.717184">
        <ele>1480.48</ele>
        <time>2021-03-27T15:03:22Z</time>
      </trkpt>
      <trkpt lat="42.145201" lon="-6.719003">
        <ele>1488.65</ele>
        <time>2021-03-27T15:03:24Z</time>
      </trkpt>
      <trkpt lat="42.1453" lon="-6.719495">
        <ele>1491.92</ele>
        <time>2021-03-27T15:03:27Z</time>
      </trkpt>
      <trkpt lat="42.14533" lon="-6.719743">
        <ele>1493.3</ele>
        <time>2021-03-27T15:03:29Z</time>
      </trkpt>
      <trkpt lat="42.145341" lon="-6.720088">
        <ele>1494.48</ele>
        <time>2021-03-27T15:03:31Z</time>
      </trkpt>
      <trkpt lat="42.14533" lon="-6.720656">
        <ele>1496.01</ele>
        <time>2021-03-27T15:03:34Z</time>
      </trkpt>
      <trkpt lat="42.145286" lon="-6.721804">
        <ele>1502.49</ele>
        <time>2021-03-27T15:03:36Z</time>
      </trkpt>
      <trkpt lat="42.145143" lon="-6.723083">
        <ele>1507.18</ele>
        <time>2021-03-27T15:03:38Z</time>
      </trkpt>
      <trkpt lat="42.145037" lon="-6.723785">
        <ele>1506.54</ele>
        <time>2021-03-27T15:03:40Z</time>
      </trkpt>
      <trkpt lat="42.144929" lon="-6.724326">
        <ele>1510.44</ele>
        <time>2021-03-27T15:03:43Z</time>
      </trkpt>
      <trkpt lat="42.144798" lon="-6.724835">
        <ele>1515.49</ele>
        <time>2021-03-27T15:03:45Z</time>
      </trkpt>
      <trkpt lat="42.144679" lon="-6.725198">
        <ele>1517.44</ele>
        <time>2021-03-27T15:03:47Z</time>
      </trkpt>
      <trkpt lat="42.144526" lon="-6.725529">
        <ele>1518.11</ele>
        <time>2021-03-27T15:03:50Z</time>
      </trkpt>
      <trkpt lat="42.144144" lon="-6.726173">
        <ele>1519.29</ele>
        <time>2021-03-27T15:03:52Z</time>
      </trkpt>
      <trkpt lat="42.144064" lon="-6.72637">
        <ele>1519.28</ele>
        <time>2021-03-27T15:03:54Z</time>
      </trkpt>
      <trkpt lat="42.144015" lon="-6.726716">
        <ele>1521.34</ele>
        <time>2021-03-27T15:03:57Z</time>
      </trkpt>
      <trkpt lat="42.144034" lon="-6.726913">
        <ele>1523.04</ele>
        <time>2021-03-27T15:03:59Z</time>
      </trkpt>
      <trkpt lat="42.14438" lon="-6.728217">
        <ele>1530.07</ele>
        <time>2021-03-27T15:04:01Z</time>
      </trkpt>
      <trkpt lat="42.144505" lon="-6.728517">
        <ele>1530.33</ele>
        <time>2021-03-27T15:04:03Z</time>
      </trkpt>
      <trkpt lat="42.144781" lon="-6.72899">
        <ele>1531.75</ele>
        <time>2021-03-27T15:04:06Z</time>
      </trkpt>
      <trkpt lat="42.144995" lon="-6.729246">
        <ele>1531.76</ele>
        <time>2021-03-27T15:04:08Z</time>
      </trkpt>
      <trkpt lat="42.145124" lon="-6.729346">
        <ele>1533.87</ele>
        <time>2021-03-27T15:04:10Z</time>
      </trkpt>
      <trkpt lat="42.145303" lon="-6.729457">
        <ele>1536.28</ele>
        <time>2021-03-27T15:04:13Z</time>
      </trkpt>
      <trkpt lat="42.145622" lon="-6.729567">
        <ele>1539.97</ele>
        <time>2021-03-27T15:04:15Z</time>
      </trkpt>
      <trkpt lat="42.145838" lon="-6.729664">
        <ele>1541.3</ele>
        <time>2021-03-27T15:04:17Z</time>
      </trkpt>
      <trkpt lat="42.146312" lon="-6.730016">
        <ele>1543.16</ele>
        <time>2021-03-27T15:04:19Z</time>
      </trkpt>
      <trkpt lat="42.146504" lon="-6.730197">
        <ele>1545.77</ele>
        <time>2021-03-27T15:04:22Z</time>
      </trkpt>
      <trkpt lat="42.146949" lon="-6.730882">
        <ele>1547.56</ele>
        <time>2021-03-27T15:04:24Z</time>
      </trkpt>
      <trkpt lat="42.147081" lon="-6.731036">
        <ele>1548.76</ele>
        <time>2021-03-27T15:04:26Z</time>
      </trkpt>
      <trkpt lat="42.147193" lon="-6.731106">
        <ele>1550.42</ele>
        <time>2021-03-27T15:04:29Z</time>
      </trkpt>
      <trkpt lat="42.147456" lon="-6.731194">
        <ele>1552.27</ele>
        <time>2021-03-27T15:04:31Z</time>
      </trkpt>
      <trkpt lat="42.147634" lon="-6.731229">
        <ele>1553.75</ele>
        <time>2021-03-27T15:04:33Z</time>
      </trkpt>
      <trkpt lat="42.147848" lon="-6.731226">
        <ele>1555.81</ele>
        <time>2021-03-27T15:04:35Z</time>
      </trkpt>
      <trkpt lat="42.148644" lon="-6.731106">
        <ele>1559.07</ele>
        <time>2021-03-27T15:04:38Z</time>
      </trkpt>
      <trkpt lat="42.148802" lon="-6.731052">
        <ele>1559.71</ele>
        <time>2021-03-27T15:04:40Z</time>
      </trkpt>
      <trkpt lat="42.14897" lon="-6.730912">
        <ele>1561.44</ele>
        <time>2021-03-27T15:04:42Z</time>
      </trkpt>
      <trkpt lat="42.149465" lon="-6.730368">
        <ele>1569.58</ele>
        <time>2021-03-27T15:04:45Z</time>
      </trkpt>
      <trkpt lat="42.149649" lon="-6.729999">
        <ele>1572.53</ele>
        <time>2021-03-27T15:04:47Z</time>
      </trkpt>
      <trkpt lat="42.149731" lon="-6.729797">
        <ele>1572.63</ele>
        <time>2021-03-27T15:04:49Z</time>
      </trkpt>
      <trkpt lat="42.149929" lon="-6.729492">
        <ele>1572.83</ele>
        <time>2021-03-27T15:04:52Z</time>
      </trkpt>
      <trkpt lat="42.150542" lon="-6.72888">
        <ele>1574.16</ele>
        <time>2021-03-27T15:04:54Z</time>
      </trkpt>
      <trkpt lat="42.150686" lon="-6.728711">
        <ele>1574.64</ele>
        <time>2021-03-27T15:04:56Z</time>
      </trkpt>
      <trkpt lat="42.150826" lon="-6.728488">
        <ele>1575.49</ele>
        <time>2021-03-27T15:04:58Z</time>
      </trkpt>
      <trkpt lat="42.151068" lon="-6.727732">
        <ele>1576.65</ele>
        <time>2021-03-27T15:05:01Z</time>
      </trkpt>
      <trkpt lat="42.151227" lon="-6.727178">
        <ele>1580.59</ele>
        <time>2021-03-27T15:05:03Z</time>
      </trkpt>
      <trkpt lat="42.151581" lon="-6.726139">
        <ele>1581.79</ele>
        <time>2021-03-27T15:05:05Z</time>
      </trkpt>
      <trkpt lat="42.151707" lon="-6.725883">
        <ele>1580.83</ele>
        <time>2021-03-27T15:05:08Z</time>
      </trkpt>
      <trkpt lat="42.15183" lon="-6.725698">
        <ele>1580.61</ele>
        <time>2021-03-27T15:05:10Z</time>
      </trkpt>
      <trkpt lat="42.151934" lon="-6.725612">
        <ele>1580.07</ele>
        <time>2021-03-27T15:05:12Z</time>
      </trkpt>
      <trkpt lat="42.152118" lon="-6.725561">
        <ele>1579.36</ele>
        <time>2021-03-27T15:05:14Z</time>
      </trkpt>
      <trkpt lat="42.152258" lon="-6.725587">
        <ele>1578.64</ele>
        <time>2021-03-27T15:05:17Z</time>
      </trkpt>
      <trkpt lat="42.152493" lon="-6.725673">
        <ele>1577.04</ele>
        <time>2021-03-27T15:05:19Z</time>
      </trkpt>
      <trkpt lat="42.154294" lon="-6.726582">
        <ele>1587.99</ele>
        <time>2021-03-27T15:05:21Z</time>
      </trkpt>
      <trkpt lat="42.154943" lon="-6.726831">
        <ele>1589.8</ele>
        <time>2021-03-27T15:05:24Z</time>
      </trkpt>
      <trkpt lat="42.155169" lon="-6.726863">
        <ele>1591.4</ele>
        <time>2021-03-27T15:05:26Z</time>
      </trkpt>
      <trkpt lat="42.15528" lon="-6.726786">
        <ele>1592.59</ele>
        <time>2021-03-27T15:05:28Z</time>
      </trkpt>
      <trkpt lat="42.155331" lon="-6.726687">
        <ele>1593.49</ele>
        <time>2021-03-27T15:05:30Z</time>
      </trkpt>
      <trkpt lat="42.155378" lon="-6.726531">
        <ele>1595.06</ele>
        <time>2021-03-27T15:05:33Z</time>
      </trkpt>
      <trkpt lat="42.155382" lon="-6.726359">
        <ele>1596.34</ele>
        <time>2021-03-27T15:05:35Z</time>
      </trkpt>
      <trkpt lat="42.155287" lon="-6.726122">
        <ele>1597.02</ele>
        <time>2021-03-27T15:05:37Z</time>
      </trkpt>
      <trkpt lat="42.155032" lon="-6.725624">
        <ele>1595.09</ele>
        <time>2021-03-27T15:05:40Z</time>
      </trkpt>
      <trkpt lat="42.154822" lon="-6.725174">
        <ele>1599.04</ele>
        <time>2021-03-27T15:05:42Z</time>
      </trkpt>
      <trkpt lat="42.154771" lon="-6.725035">
        <ele>1601.46</ele>
        <time>2021-03-27T15:05:44Z</time>
      </trkpt>
      <trkpt lat="42.154721" lon="-6.724831">
        <ele>1602.57</ele>
        <time>2021-03-27T15:05:46Z</time>
      </trkpt>
      <trkpt lat="42.154651" lon="-6.72442">
        <ele>1603.57</ele>
        <time>2021-03-27T15:05:49Z</time>
      </trkpt>
      <trkpt lat="42.15459" lon="-6.723764">
        <ele>1603.78</ele>
        <time>2021-03-27T15:05:51Z</time>
      </trkpt>
      <trkpt lat="42.154623" lon="-6.72327">
        <ele>1605.66</ele>
        <time>2021-03-27T15:05:53Z</time>
      </trkpt>
      <trkpt lat="42.154981" lon="-6.720866">
        <ele>1614.67</ele>
        <time>2021-03-27T15:05:56Z</time>
      </trkpt>
      <trkpt lat="42.155037" lon="-6.720202">
        <ele>1613.45</ele>
        <time>2021-03-27T15:05:58Z</time>
      </trkpt>
      <trkpt lat="42.155062" lon="-6.720062">
        <ele>1613.22</ele>
        <time>2021-03-27T15:06:00Z</time>
      </trkpt>
      <trkpt lat="42.155128" lon="-6.719991">
        <ele>1613.66</ele>
        <time>2021-03-27T15:06:03Z</time>
      </trkpt>
      <trkpt lat="42.155187" lon="-6.719985">
        <ele>1614.36</ele>
        <time>2021-03-27T15:06:05Z</time>
      </trkpt>
      <trkpt lat="42.155251" lon="-6.720031">
        <ele>1615.92</ele>
        <time>2021-03-27T15:06:07Z</time>
      </trkpt>
      <trkpt lat="42.155295" lon="-6.720134">
        <ele>1617.31</ele>
        <time>2021-03-27T15:06:09Z</time>
      </trkpt>
      <trkpt lat="42.155333" lon="-6.72053">
        <ele>1619.89</ele>
        <time>2021-03-27T15:06:12Z</time>
      </trkpt>
      <trkpt lat="42.155403" lon="-6.72078">
        <ele>1622.88</ele>
        <time>2021-03-27T15:06:14Z</time>
      </trkpt>
      <trkpt lat="42.155808" lon="-6.721727">
        <ele>1633.26</ele>
        <time>2021-03-27T15:06:16Z</time>
      </trkpt>
      <trkpt lat="42.156279" lon="-6.722763">
        <ele>1638.63</ele>
        <time>2021-03-27T15:06:19Z</time>
      </trkpt>
      <trkpt lat="42.156493" lon="-6.723152">
        <ele>1641.91</ele>
        <time>2021-03-27T15:06:21Z</time>
      </trkpt>
      <trkpt lat="42.15675" lon="-6.723486">
        <ele>1645.92</ele>
        <time>2021-03-27T15:06:23Z</time>
      </trkpt>
      <trkpt lat="42.157369" lon="-6.72419">
        <ele>1645.91</ele>
        <time>2021-03-27T15:06:25Z</time>
      </trkpt>
      <trkpt lat="42.15762" lon="-6.724405">
        <ele>1648.01</ele>
        <time>2021-03-27T15:06:28Z</time>
      </trkpt>
      <trkpt lat="42.158559" lon="-6.72508">
        <ele>1652.33</ele>
        <time>2021-03-27T15:06:30Z</time>
      </trkpt>
      <trkpt lat="42.159558" lon="-6.725622">
        <ele>1663.91</ele>
        <time>2021-03-27T15:06:32Z</time>
      </trkpt>
      <trkpt lat="42.159842" lon="-6.725818">
        <ele>1666.3</ele>
        <time>2021-03-27T15:06:35Z</time>
      </trkpt>
      <trkpt lat="42.159998" lon="-6.725961">
        <ele>1668.49</ele>
        <time>2021-03-27T15:06:37Z</time>
      </trkpt>
      <trkpt lat="42.160726" lon="-6.726744">
        <ele>1674.34</ele>
        <time>2021-03-27T15:06:39Z</time>
      </trkpt>
      <trkpt lat="42.161376" lon="-6.727183">
        <ele>1684.05</ele>
        <time>2021-03-27T15:06:41Z</time>
      </trkpt>
      <trkpt lat="42.161668" lon="-6.727484">
        <ele>1682.33</ele>
        <time>2021-03-27T15:06:44Z</time>
      </trkpt>
      <trkpt lat="42.162064" lon="-6.727951">
        <ele>1686.12</ele>
        <time>2021-03-27T15:06:46Z</time>
      </trkpt>
      <trkpt lat="42.162207" lon="-6.728148">
        <ele>1688.01</ele>
        <time>2021-03-27T15:06:48Z</time>
      </trkpt>
      <trkpt lat="42.16233" lon="-6.728416">
        <ele>1689.15</ele>
        <time>2021-03-27T15:06:51Z</time>
      </trkpt>
      <trkpt lat="42.162809" lon="-6.729896">
        <ele>1695.06</ele>
        <time>2021-03-27T15:06:53Z</time>
      </trkpt>
      <trkpt lat="42.162886" lon="-6.730166">
        <ele>1696.34</ele>
        <time>2021-03-27T15:06:55Z</time>
      </trkpt>
      <trkpt lat="42.162956" lon="-6.730753">
        <ele>1698.1</ele>
        <time>2021-03-27T15:06:58Z</time>
      </trkpt>
      <trkpt lat="42.16301" lon="-6.730944">
        <ele>1698.85</ele>
        <time>2021-03-27T15:07:00Z</time>
      </trkpt>
      <trkpt lat="42.163094" lon="-6.731149">
        <ele>1699.53</ele>
        <time>2021-03-27T15:07:02Z</time>
      </trkpt>
      <trkpt lat="42.163736" lon="-6.73223">
        <ele>1705.55</ele>
        <time>2021-03-27T15:07:04Z</time>
      </trkpt>
      <trkpt lat="42.163857" lon="-6.73253">
        <ele>1706.88</ele>
        <time>2021-03-27T15:07:07Z</time>
      </trkpt>
      <trkpt lat="42.164217" lon="-6.733538">
        <ele>1708.99</ele>
        <time>2021-03-27T15:07:09Z</time>
      </trkpt>
      <trkpt lat="42.164737" lon="-6.734685">
        <ele>1715.3</ele>
        <time>2021-03-27T15:07:11Z</time>
      </trkpt>
      <trkpt lat="42.16488" lon="-6.734904">
        <ele>1715.31</ele>
        <time>2021-03-27T15:07:14Z</time>
      </trkpt>
      <trkpt lat="42.164977" lon="-6.735002">
        <ele>1714.9</ele>
        <time>2021-03-27T15:07:16Z</time>
      </trkpt>
      <trkpt lat="42.165115" lon="-6.735064">
        <ele>1714.64</ele>
        <time>2021-03-27T15:07:18Z</time>
      </trkpt>
      <trkpt lat="42.165254" lon="-6.735054">
        <ele>1714.79</ele>
        <time>2021-03-27T15:07:20Z</time>
      </trkpt>
      <trkpt lat="42.16553" lon="-6.734942">
        <ele>1715.62</ele>
        <time>2021-03-27T15:07:23Z</time>
      </trkpt>
      <trkpt lat="42.165708" lon="-6.734899">
        <ele>1716.28</ele>
        <time>2021-03-27T15:07:25Z</time>
      </trkpt>
      <trkpt lat="42.166039" lon="-6.734865">
        <ele>1716.2</ele>
        <time>2021-03-27T15:07:27Z</time>
      </trkpt>
      <trkpt lat="42.166313" lon="-6.734874">
        <ele>1715.88</ele>
        <time>2021-03-27T15:07:30Z</time>
      </trkpt>
      <trkpt lat="42.168442" lon="-6.735097">
        <ele>1722.39</ele>
        <time>2021-03-27T15:07:32Z</time>
      </trkpt>
      <trkpt lat="42.168578" lon="-6.735097">
        <ele>1722.88</ele>
        <time>2021-03-27T15:07:34Z</time>
      </trkpt>
      <trkpt lat="42.168809" lon="-6.734995">
        <ele>1723.73</ele>
        <time>2021-03-27T15:07:36Z</time>
      </trkpt>
      <trkpt lat="42.169416" lon="-6.734604">
        <ele>1724.85</ele>
        <time>2021-03-27T15:07:39Z</time>
      </trkpt>
      <trkpt lat="42.169416" lon="-6.734604">
        <ele>1724.85</ele>
        <time>2021-03-27T15:07:39Z</time>
      </trkpt>
      <trkpt lat="42.168809" lon="-6.734995">
        <ele>1723.73</ele>
        <time>2021-03-27T15:07:41Z</time>
      </trkpt>
      <trkpt lat="42.168578" lon="-6.735097">
        <ele>1722.88</ele>
        <time>2021-03-27T15:07:43Z</time>
      </trkpt>
      <trkpt lat="42.168442" lon="-6.735097">
        <ele>1722.39</ele>
        <time>2021-03-27T15:07:46Z</time>
      </trkpt>
      <trkpt lat="42.166313" lon="-6.734874">
        <ele>1715.88</ele>
        <time>2021-03-27T15:07:48Z</time>
      </trkpt>
      <trkpt lat="42.166039" lon="-6.734865">
        <ele>1716.2</ele>
        <time>2021-03-27T15:07:50Z</time>
      </trkpt>
      <trkpt lat="42.165708" lon="-6.734899">
        <ele>1716.28</ele>
        <time>2021-03-27T15:07:53Z</time>
      </trkpt>
      <trkpt lat="42.16553" lon="-6.734942">
        <ele>1715.62</ele>
        <time>2021-03-27T15:07:55Z</time>
      </trkpt>
      <trkpt lat="42.165254" lon="-6.735054">
        <ele>1714.79</ele>
        <time>2021-03-27T15:07:57Z</time>
      </trkpt>
      <trkpt lat="42.165115" lon="-6.735064">
        <ele>1714.64</ele>
        <time>2021-03-27T15:08:00Z</time>
      </trkpt>
      <trkpt lat="42.164977" lon="-6.735002">
        <ele>1714.9</ele>
        <time>2021-03-27T15:08:02Z</time>
      </trkpt>
      <trkpt lat="42.16488" lon="-6.734904">
        <ele>1715.31</ele>
        <time>2021-03-27T15:08:04Z</time>
      </trkpt>
      <trkpt lat="42.164737" lon="-6.734685">
        <ele>1715.3</ele>
        <time>2021-03-27T15:08:06Z</time>
      </trkpt>
      <trkpt lat="42.164217" lon="-6.733538">
        <ele>1708.99</ele>
        <time>2021-03-27T15:08:09Z</time>
      </trkpt>
      <trkpt lat="42.163857" lon="-6.73253">
        <ele>1706.88</ele>
        <time>2021-03-27T15:08:11Z</time>
      </trkpt>
      <trkpt lat="42.163736" lon="-6.73223">
        <ele>1705.55</ele>
        <time>2021-03-27T15:08:13Z</time>
      </trkpt>
      <trkpt lat="42.163094" lon="-6.731149">
        <ele>1699.53</ele>
        <time>2021-03-27T15:08:16Z</time>
      </trkpt>
      <trkpt lat="42.16301" lon="-6.730944">
        <ele>1698.85</ele>
        <time>2021-03-27T15:08:18Z</time>
      </trkpt>
      <trkpt lat="42.162956" lon="-6.730753">
        <ele>1698.1</ele>
        <time>2021-03-27T15:08:20Z</time>
      </trkpt>
      <trkpt lat="42.162886" lon="-6.730166">
        <ele>1696.34</ele>
        <time>2021-03-27T15:08:23Z</time>
      </trkpt>
      <trkpt lat="42.162809" lon="-6.729896">
        <ele>1695.06</ele>
        <time>2021-03-27T15:08:25Z</time>
      </trkpt>
      <trkpt lat="42.16233" lon="-6.728416">
        <ele>1689.15</ele>
        <time>2021-03-27T15:08:27Z</time>
      </trkpt>
      <trkpt lat="42.162207" lon="-6.728148">
        <ele>1688.01</ele>
        <time>2021-03-27T15:08:30Z</time>
      </trkpt>
      <trkpt lat="42.162064" lon="-6.727951">
        <ele>1686.12</ele>
        <time>2021-03-27T15:08:32Z</time>
      </trkpt>
      <trkpt lat="42.161668" lon="-6.727484">
        <ele>1682.33</ele>
        <time>2021-03-27T15:08:34Z</time>
      </trkpt>
      <trkpt lat="42.161376" lon="-6.727183">
        <ele>1684.05</ele>
        <time>2021-03-27T15:08:36Z</time>
      </trkpt>
      <trkpt lat="42.160726" lon="-6.726744">
        <ele>1674.34</ele>
        <time>2021-03-27T15:08:39Z</time>
      </trkpt>
      <trkpt lat="42.159998" lon="-6.725961">
        <ele>1668.49</ele>
        <time>2021-03-27T15:08:41Z</time>
      </trkpt>
      <trkpt lat="42.159842" lon="-6.725818">
        <ele>1666.3</ele>
        <time>2021-03-27T15:08:43Z</time>
      </trkpt>
      <trkpt lat="42.159558" lon="-6.725622">
        <ele>1663.91</ele>
        <time>2021-03-27T15:08:46Z</time>
      </trkpt>
      <trkpt lat="42.158559" lon="-6.72508">
        <ele>1652.33</ele>
        <time>2021-03-27T15:08:48Z</time>
      </trkpt>
      <trkpt lat="42.15762" lon="-6.724405">
        <ele>1648.01</ele>
        <time>2021-03-27T15:08:50Z</time>
      </trkpt>
      <trkpt lat="42.157369" lon="-6.72419">
        <ele>1645.91</ele>
        <time>2021-03-27T15:08:53Z</time>
      </trkpt>
      <trkpt lat="42.15675" lon="-6.723486">
        <ele>1645.92</ele>
        <time>2021-03-27T15:08:55Z</time>
      </trkpt>
      <trkpt lat="42.156493" lon="-6.723152">
        <ele>1641.91</ele>
        <time>2021-03-27T15:08:57Z</time>
      </trkpt>
      <trkpt lat="42.156279" lon="-6.722763">
        <ele>1638.63</ele>
        <time>2021-03-27T15:08:59Z</time>
      </trkpt>
      <trkpt lat="42.155808" lon="-6.721727">
        <ele>1633.26</ele>
        <time>2021-03-27T15:09:02Z</time>
      </trkpt>
      <trkpt lat="42.155403" lon="-6.72078">
        <ele>1622.88</ele>
        <time>2021-03-27T15:09:04Z</time>
      </trkpt>
      <trkpt lat="42.155333" lon="-6.72053">
        <ele>1619.89</ele>
        <time>2021-03-27T15:09:06Z</time>
      </trkpt>
      <trkpt lat="42.155295" lon="-6.720134">
        <ele>1617.31</ele>
        <time>2021-03-27T15:09:09Z</time>
      </trkpt>
      <trkpt lat="42.155251" lon="-6.720031">
        <ele>1615.92</ele>
        <time>2021-03-27T15:09:11Z</time>
      </trkpt>
      <trkpt lat="42.155187" lon="-6.719985">
        <ele>1614.36</ele>
        <time>2021-03-27T15:09:13Z</time>
      </trkpt>
      <trkpt lat="42.155128" lon="-6.719991">
        <ele>1613.66</ele>
        <time>2021-03-27T15:09:16Z</time>
      </trkpt>
      <trkpt lat="42.155062" lon="-6.720062">
        <ele>1613.22</ele>
        <time>2021-03-27T15:09:18Z</time>
      </trkpt>
      <trkpt lat="42.155037" lon="-6.720202">
        <ele>1613.45</ele>
        <time>2021-03-27T15:09:20Z</time>
      </trkpt>
      <trkpt lat="42.154981" lon="-6.720866">
        <ele>1614.67</ele>
        <time>2021-03-27T15:09:23Z</time>
      </trkpt>
      <trkpt lat="42.154623" lon="-6.72327">
        <ele>1605.66</ele>
        <time>2021-03-27T15:09:25Z</time>
      </trkpt>
      <trkpt lat="42.15459" lon="-6.723764">
        <ele>1603.78</ele>
        <time>2021-03-27T15:09:27Z</time>
      </trkpt>
      <trkpt lat="42.154651" lon="-6.72442">
        <ele>1603.57</ele>
        <time>2021-03-27T15:09:29Z</time>
      </trkpt>
      <trkpt lat="42.154721" lon="-6.724831">
        <ele>1602.57</ele>
        <time>2021-03-27T15:09:32Z</time>
      </trkpt>
      <trkpt lat="42.154771" lon="-6.725035">
        <ele>1601.46</ele>
        <time>2021-03-27T15:09:34Z</time>
      </trkpt>
      <trkpt lat="42.154822" lon="-6.725174">
        <ele>1599.04</ele>
        <time>2021-03-27T15:09:36Z</time>
      </trkpt>
      <trkpt lat="42.155032" lon="-6.725624">
        <ele>1595.09</ele>
        <time>2021-03-27T15:09:39Z</time>
      </trkpt>
      <trkpt lat="42.155287" lon="-6.726122">
        <ele>1597.02</ele>
        <time>2021-03-27T15:09:41Z</time>
      </trkpt>
      <trkpt lat="42.155382" lon="-6.726359">
        <ele>1596.34</ele>
        <time>2021-03-27T15:09:43Z</time>
      </trkpt>
      <trkpt lat="42.155378" lon="-6.726531">
        <ele>1595.06</ele>
        <time>2021-03-27T15:09:46Z</time>
      </trkpt>
      <trkpt lat="42.155331" lon="-6.726687">
        <ele>1593.49</ele>
        <time>2021-03-27T15:09:48Z</time>
      </trkpt>
      <trkpt lat="42.15528" lon="-6.726786">
        <ele>1592.59</ele>
        <time>2021-03-27T15:09:50Z</time>
      </trkpt>
      <trkpt lat="42.155169" lon="-6.726863">
        <ele>1591.4</ele>
        <time>2021-03-27T15:09:52Z</time>
      </trkpt>
      <trkpt lat="42.154943" lon="-6.726831">
        <ele>1589.8</ele>
        <time>2021-03-27T15:09:55Z</time>
      </trkpt>
      <trkpt lat="42.154294" lon="-6.726582">
        <ele>1587.99</ele>
        <time>2021-03-27T15:09:57Z</time>
      </trkpt>
      <trkpt lat="42.152493" lon="-6.725673">
        <ele>1577.04</ele>
        <time>2021-03-27T15:09:59Z</time>
      </trkpt>
      <trkpt lat="42.152258" lon="-6.725587">
        <ele>1578.64</ele>
        <time>2021-03-27T15:10:02Z</time>
      </trkpt>
      <trkpt lat="42.152118" lon="-6.725561">
        <ele>1579.36</ele>
        <time>2021-03-27T15:10:04Z</time>
      </trkpt>
      <trkpt lat="42.151934" lon="-6.725612">
        <ele>1580.07</ele>
        <time>2021-03-27T15:10:06Z</time>
      </trkpt>
      <trkpt lat="42.15183" lon="-6.725698">
        <ele>1580.61</ele>
        <time>2021-03-27T15:10:09Z</time>
      </trkpt>
      <trkpt lat="42.151707" lon="-6.725883">
        <ele>1580.83</ele>
        <time>2021-03-27T15:10:11Z</time>
      </trkpt>
      <trkpt lat="42.151581" lon="-6.726139">
        <ele>1581.79</ele>
        <time>2021-03-27T15:10:13Z</time>
      </trkpt>
      <trkpt lat="42.151227" lon="-6.727178">
        <ele>1580.59</ele>
        <time>2021-03-27T15:10:16Z</time>
      </trkpt>
      <trkpt lat="42.151068" lon="-6.727732">
        <ele>1576.65</ele>
        <time>2021-03-27T15:10:18Z</time>
      </trkpt>
      <trkpt lat="42.150826" lon="-6.728488">
        <ele>1575.49</ele>
        <time>2021-03-27T15:10:20Z</time>
      </trkpt>
      <trkpt lat="42.150686" lon="-6.728711">
        <ele>1574.64</ele>
        <time>2021-03-27T15:10:22Z</time>
      </trkpt>
      <trkpt lat="42.150542" lon="-6.72888">
        <ele>1574.16</ele>
        <time>2021-03-27T15:10:25Z</time>
      </trkpt>
      <trkpt lat="42.149929" lon="-6.729492">
        <ele>1572.83</ele>
        <time>2021-03-27T15:10:27Z</time>
      </trkpt>
      <trkpt lat="42.149731" lon="-6.729797">
        <ele>1572.63</ele>
        <time>2021-03-27T15:10:29Z</time>
      </trkpt>
      <trkpt lat="42.149649" lon="-6.729999">
        <ele>1572.53</ele>
        <time>2021-03-27T15:10:32Z</time>
      </trkpt>
      <trkpt lat="42.149465" lon="-6.730368">
        <ele>1569.58</ele>
        <time>2021-03-27T15:10:34Z</time>
      </trkpt>
      <trkpt lat="42.14897" lon="-6.730912">
        <ele>1561.44</ele>
        <time>2021-03-27T15:10:36Z</time>
      </trkpt>
      <trkpt lat="42.148802" lon="-6.731052">
        <ele>1559.71</ele>
        <time>2021-03-27T15:10:39Z</time>
      </trkpt>
      <trkpt lat="42.148644" lon="-6.731106">
        <ele>1559.07</ele>
        <time>2021-03-27T15:10:41Z</time>
      </trkpt>
      <trkpt lat="42.147848" lon="-6.731226">
        <ele>1555.81</ele>
        <time>2021-03-27T15:10:43Z</time>
      </trkpt>
      <trkpt lat="42.147634" lon="-6.731229">
        <ele>1553.75</ele>
        <time>2021-03-27T15:10:45Z</time>
      </trkpt>
      <trkpt lat="42.147456" lon="-6.731194">
        <ele>1552.27</ele>
        <time>2021-03-27T15:10:48Z</time>
      </trkpt>
      <trkpt lat="42.147193" lon="-6.731106">
        <ele>1550.42</ele>
        <time>2021-03-27T15:10:50Z</time>
      </trkpt>
      <trkpt lat="42.147081" lon="-6.731036">
        <ele>1548.76</ele>
        <time>2021-03-27T15:10:52Z</time>
      </trkpt>
      <trkpt lat="42.146949" lon="-6.730882">
        <ele>1547.56</ele>
        <time>2021-03-27T15:10:55Z</time>
      </trkpt>
      <trkpt lat="42.146504" lon="-6.730197">
        <ele>1545.77</ele>
        <time>2021-03-27T15:10:57Z</time>
      </trkpt>
      <trkpt lat="42.146312" lon="-6.730016">
        <ele>1543.16</ele>
        <time>2021-03-27T15:10:59Z</time>
      </trkpt>
      <trkpt lat="42.145838" lon="-6.729664">
        <ele>1541.3</ele>
        <time>2021-03-27T15:11:02Z</time>
      </trkpt>
      <trkpt lat="42.145622" lon="-6.729567">
        <ele>1539.97</ele>
        <time>2021-03-27T15:11:04Z</time>
      </trkpt>
      <trkpt lat="42.145303" lon="-6.729457">
        <ele>1536.28</ele>
        <time>2021-03-27T15:11:06Z</time>
      </trkpt>
      <trkpt lat="42.145124" lon="-6.729346">
        <ele>1533.87</ele>
        <time>2021-03-27T15:11:09Z</time>
      </trkpt>
      <trkpt lat="42.144995" lon="-6.729246">
        <ele>1531.76</ele>
        <time>2021-03-27T15:11:11Z</time>
      </trkpt>
      <trkpt lat="42.144781" lon="-6.72899">
        <ele>1531.75</ele>
        <time>2021-03-27T15:11:13Z</time>
      </trkpt>
      <trkpt lat="42.144505" lon="-6.728517">
        <ele>1530.33</ele>
        <time>2021-03-27T15:11:15Z</time>
      </trkpt>
      <trkpt lat="42.14438" lon="-6.728217">
        <ele>1530.07</ele>
        <time>2021-03-27T15:11:18Z</time>
      </trkpt>
      <trkpt lat="42.144034" lon="-6.726913">
        <ele>1523.04</ele>
        <time>2021-03-27T15:11:20Z</time>
      </trkpt>
      <trkpt lat="42.144015" lon="-6.726716">
        <ele>1521.34</ele>
        <time>2021-03-27T15:11:22Z</time>
      </trkpt>
      <trkpt lat="42.144064" lon="-6.72637">
        <ele>1519.28</ele>
        <time>2021-03-27T15:11:25Z</time>
      </trkpt>
      <trkpt lat="42.144144" lon="-6.726173">
        <ele>1519.29</ele>
        <time>2021-03-27T15:11:27Z</time>
      </trkpt>
      <trkpt lat="42.144526" lon="-6.725529">
        <ele>1518.11</ele>
        <time>2021-03-27T15:11:29Z</time>
      </trkpt>
      <trkpt lat="42.144679" lon="-6.725198">
        <ele>1517.44</ele>
        <time>2021-03-27T15:11:32Z</time>
      </trkpt>
      <trkpt lat="42.144798" lon="-6.724835">
        <ele>1515.49</ele>
        <time>2021-03-27T15:11:34Z</time>
      </trkpt>
      <trkpt lat="42.144929" lon="-6.724326">
        <ele>1510.44</ele>
        <time>2021-03-27T15:11:36Z</time>
      </trkpt>
      <trkpt lat="42.145037" lon="-6.723785">
        <ele>1506.54</ele>
        <time>2021-03-27T15:11:38Z</time>
      </trkpt>
      <trkpt lat="42.145143" lon="-6.723083">
        <ele>1507.18</ele>
        <time>2021-03-27T15:11:41Z</time>
      </trkpt>
      <trkpt lat="42.145286" lon="-6.721804">
        <ele>1502.49</ele>
        <time>2021-03-27T15:11:43Z</time>
      </trkpt>
      <trkpt lat="42.14533" lon="-6.720656">
        <ele>1496.01</ele>
        <time>2021-03-27T15:11:45Z</time>
      </trkpt>
      <trkpt lat="42.145341" lon="-6.720088">
        <ele>1494.48</ele>
        <time>2021-03-27T15:11:48Z</time>
      </trkpt>
      <trkpt lat="42.14533" lon="-6.719743">
        <ele>1493.3</ele>
        <time>2021-03-27T15:11:50Z</time>
      </trkpt>
      <trkpt lat="42.1453" lon="-6.719495">
        <ele>1491.92</ele>
        <time>2021-03-27T15:11:52Z</time>
      </trkpt>
      <trkpt lat="42.145201" lon="-6.719003">
        <ele>1488.65</ele>
        <time>2021-03-27T15:11:55Z</time>
      </trkpt>
      <trkpt lat="42.144787" lon="-6.717184">
        <ele>1480.48</ele>
        <time>2021-03-27T15:11:57Z</time>
      </trkpt>
      <trkpt lat="42.144766" lon="-6.716927">
        <ele>1480.46</ele>
        <time>2021-03-27T15:11:59Z</time>
      </trkpt>
      <trkpt lat="42.144781" lon="-6.716703">
        <ele>1478.24</ele>
        <time>2021-03-27T15:12:01Z</time>
      </trkpt>
      <trkpt lat="42.144858" lon="-6.71655">
        <ele>1477.06</ele>
        <time>2021-03-27T15:12:04Z</time>
      </trkpt>
      <trkpt lat="42.144963" lon="-6.716447">
        <ele>1476.62</ele>
        <time>2021-03-27T15:12:06Z</time>
      </trkpt>
      <trkpt lat="42.145304" lon="-6.716353">
        <ele>1478.59</ele>
        <time>2021-03-27T15:12:08Z</time>
      </trkpt>
      <trkpt lat="42.145415" lon="-6.716302">
        <ele>1478.45</ele>
        <time>2021-03-27T15:12:11Z</time>
      </trkpt>
      <trkpt lat="42.14547" lon="-6.716214">
        <ele>1476.63</ele>
        <time>2021-03-27T15:12:13Z</time>
      </trkpt>
      <trkpt lat="42.145468" lon="-6.716051">
        <ele>1472.56</ele>
        <time>2021-03-27T15:12:15Z</time>
      </trkpt>
      <trkpt lat="42.145402" lon="-6.71599">
        <ele>1471.2</ele>
        <time>2021-03-27T15:12:18Z</time>
      </trkpt>
      <trkpt lat="42.145316" lon="-6.715957">
        <ele>1470.59</ele>
        <time>2021-03-27T15:12:20Z</time>
      </trkpt>
      <trkpt lat="42.14521" lon="-6.715949">
        <ele>1470.05</ele>
        <time>2021-03-27T15:12:22Z</time>
      </trkpt>
      <trkpt lat="42.14479" lon="-6.716058">
        <ele>1468.59</ele>
        <time>2021-03-27T15:12:25Z</time>
      </trkpt>
      <trkpt lat="42.144635" lon="-6.716154">
        <ele>1468.09</ele>
        <time>2021-03-27T15:12:27Z</time>
      </trkpt>
      <trkpt lat="42.144504" lon="-6.716276">
        <ele>1467.92</ele>
        <time>2021-03-27T15:12:29Z</time>
      </trkpt>
      <trkpt lat="42.14437" lon="-6.716499">
        <ele>1468.61</ele>
        <time>2021-03-27T15:12:31Z</time>
      </trkpt>
      <trkpt lat="42.144292" lon="-6.716744">
        <ele>1468.63</ele>
        <time>2021-03-27T15:12:34Z</time>
      </trkpt>
      <trkpt lat="42.144253" lon="-6.716942">
        <ele>1467.48</ele>
        <time>2021-03-27T15:12:36Z</time>
      </trkpt>
      <trkpt lat="42.144249" lon="-6.71723">
        <ele>1464.87</ele>
        <time>2021-03-27T15:12:38Z</time>
      </trkpt>
      <trkpt lat="42.14448" lon="-6.719337">
        <ele>1455.11</ele>
        <time>2021-03-27T15:12:41Z</time>
      </trkpt>
      <trkpt lat="42.1445" lon="-6.719684">
        <ele>1455.78</ele>
        <time>2021-03-27T15:12:43Z</time>
      </trkpt>
      <trkpt lat="42.144501" lon="-6.720626">
        <ele>1453.29</ele>
        <time>2021-03-27T15:12:45Z</time>
      </trkpt>
      <trkpt lat="42.144485" lon="-6.721012">
        <ele>1451.42</ele>
        <time>2021-03-27T15:12:48Z</time>
      </trkpt>
      <trkpt lat="42.144266" lon="-6.72254">
        <ele>1446.54</ele>
        <time>2021-03-27T15:12:50Z</time>
      </trkpt>
      <trkpt lat="42.144172" lon="-6.722983">
        <ele>1445.29</ele>
        <time>2021-03-27T15:12:52Z</time>
      </trkpt>
      <trkpt lat="42.14408" lon="-6.723328">
        <ele>1445.21</ele>
        <time>2021-03-27T15:12:54Z</time>
      </trkpt>
      <trkpt lat="42.143985" lon="-6.723584">
        <ele>1445.96</ele>
        <time>2021-03-27T15:12:57Z</time>
      </trkpt>
      <trkpt lat="42.14386" lon="-6.723788">
        <ele>1444.73</ele>
        <time>2021-03-27T15:12:59Z</time>
      </trkpt>
      <trkpt lat="42.143749" lon="-6.723922">
        <ele>1444.1</ele>
        <time>2021-03-27T15:13:01Z</time>
      </trkpt>
      <trkpt lat="42.143607" lon="-6.724017">
        <ele>1442.51</ele>
        <time>2021-03-27T15:13:04Z</time>
      </trkpt>
      <trkpt lat="42.143449" lon="-6.724072">
        <ele>1440.68</ele>
        <time>2021-03-27T15:13:06Z</time>
      </trkpt>
      <trkpt lat="42.142694" lon="-6.724237">
        <ele>1435.27</ele>
        <time>2021-03-27T15:13:08Z</time>
      </trkpt>
      <trkpt lat="42.142541" lon="-6.724299">
        <ele>1432.86</ele>
        <time>2021-03-27T15:13:11Z</time>
      </trkpt>
      <trkpt lat="42.142423" lon="-6.724405">
        <ele>1431.4</ele>
        <time>2021-03-27T15:13:13Z</time>
      </trkpt>
      <trkpt lat="42.142294" lon="-6.724629">
        <ele>1431.2</ele>
        <time>2021-03-27T15:13:15Z</time>
      </trkpt>
      <trkpt lat="42.142237" lon="-6.724791">
        <ele>1431.96</ele>
        <time>2021-03-27T15:13:18Z</time>
      </trkpt>
      <trkpt lat="42.14208" lon="-6.725503">
        <ele>1428.62</ele>
        <time>2021-03-27T15:13:20Z</time>
      </trkpt>
      <trkpt lat="42.141934" lon="-6.726072">
        <ele>1428.8</ele>
        <time>2021-03-27T15:13:22Z</time>
      </trkpt>
      <trkpt lat="42.141762" lon="-6.726605">
        <ele>1427.05</ele>
        <time>2021-03-27T15:13:24Z</time>
      </trkpt>
      <trkpt lat="42.141639" lon="-6.726819">
        <ele>1426.01</ele>
        <time>2021-03-27T15:13:27Z</time>
      </trkpt>
      <trkpt lat="42.141541" lon="-6.726927">
        <ele>1425.5</ele>
        <time>2021-03-27T15:13:29Z</time>
      </trkpt>
      <trkpt lat="42.141281" lon="-6.727115">
        <ele>1424.89</ele>
        <time>2021-03-27T15:13:31Z</time>
      </trkpt>
      <trkpt lat="42.141123" lon="-6.727198">
        <ele>1424.65</ele>
        <time>2021-03-27T15:13:34Z</time>
      </trkpt>
      <trkpt lat="42.141014" lon="-6.727228">
        <ele>1425.51</ele>
        <time>2021-03-27T15:13:36Z</time>
      </trkpt>
      <trkpt lat="42.140895" lon="-6.72722">
        <ele>1425.72</ele>
        <time>2021-03-27T15:13:38Z</time>
      </trkpt>
      <trkpt lat="42.140473" lon="-6.726985">
        <ele>1420.18</ele>
        <time>2021-03-27T15:13:41Z</time>
      </trkpt>
      <trkpt lat="42.140383" lon="-6.726951">
        <ele>1419.21</ele>
        <time>2021-03-27T15:13:43Z</time>
      </trkpt>
      <trkpt lat="42.140246" lon="-6.726954">
        <ele>1418.8</ele>
        <time>2021-03-27T15:13:45Z</time>
      </trkpt>
      <trkpt lat="42.140142" lon="-6.726984">
        <ele>1418.11</ele>
        <time>2021-03-27T15:13:47Z</time>
      </trkpt>
      <trkpt lat="42.14005" lon="-6.727049">
        <ele>1418.42</ele>
        <time>2021-03-27T15:13:50Z</time>
      </trkpt>
      <trkpt lat="42.139952" lon="-6.727174">
        <ele>1419.63</ele>
        <time>2021-03-27T15:13:52Z</time>
      </trkpt>
      <trkpt lat="42.139715" lon="-6.727552">
        <ele>1423.16</ele>
        <time>2021-03-27T15:13:54Z</time>
      </trkpt>
      <trkpt lat="42.139497" lon="-6.727726">
        <ele>1422.85</ele>
        <time>2021-03-27T15:13:57Z</time>
      </trkpt>
      <trkpt lat="42.139315" lon="-6.727784">
        <ele>1420.93</ele>
        <time>2021-03-27T15:13:59Z</time>
      </trkpt>
      <trkpt lat="42.138581" lon="-6.727827">
        <ele>1417.17</ele>
        <time>2021-03-27T15:14:01Z</time>
      </trkpt>
      <trkpt lat="42.138343" lon="-6.727818">
        <ele>1415.66</ele>
        <time>2021-03-27T15:14:04Z</time>
      </trkpt>
      <trkpt lat="42.138232" lon="-6.72779">
        <ele>1415.91</ele>
        <time>2021-03-27T15:14:06Z</time>
      </trkpt>
      <trkpt lat="42.138129" lon="-6.72772">
        <ele>1414.81</ele>
        <time>2021-03-27T15:14:08Z</time>
      </trkpt>
      <trkpt lat="42.13799" lon="-6.727589">
        <ele>1413.18</ele>
        <time>2021-03-27T15:14:11Z</time>
      </trkpt>
      <trkpt lat="42.137711" lon="-6.727214">
        <ele>1409.45</ele>
        <time>2021-03-27T15:14:13Z</time>
      </trkpt>
      <trkpt lat="42.137572" lon="-6.727063">
        <ele>1408.61</ele>
        <time>2021-03-27T15:14:15Z</time>
      </trkpt>
      <trkpt lat="42.137331" lon="-6.726884">
        <ele>1406.61</ele>
        <time>2021-03-27T15:14:17Z</time>
      </trkpt>
      <trkpt lat="42.137151" lon="-6.726792">
        <ele>1405.03</ele>
        <time>2021-03-27T15:14:20Z</time>
      </trkpt>
      <trkpt lat="42.137005" lon="-6.726736">
        <ele>1403.17</ele>
        <time>2021-03-27T15:14:22Z</time>
      </trkpt>
      <trkpt lat="42.136874" lon="-6.726728">
        <ele>1401.69</ele>
        <time>2021-03-27T15:14:24Z</time>
      </trkpt>
      <trkpt lat="42.136753" lon="-6.726759">
        <ele>1400.66</ele>
        <time>2021-03-27T15:14:27Z</time>
      </trkpt>
      <trkpt lat="42.136501" lon="-6.726926">
        <ele>1399.95</ele>
        <time>2021-03-27T15:14:29Z</time>
      </trkpt>
      <trkpt lat="42.136174" lon="-6.7273">
        <ele>1400.72</ele>
        <time>2021-03-27T15:14:31Z</time>
      </trkpt>
      <trkpt lat="42.1356" lon="-6.727794">
        <ele>1398.26</ele>
        <time>2021-03-27T15:14:34Z</time>
      </trkpt>
      <trkpt lat="42.135495" lon="-6.72791">
        <ele>1397.98</ele>
        <time>2021-03-27T15:14:36Z</time>
      </trkpt>
      <trkpt lat="42.135379" lon="-6.728083">
        <ele>1397.79</ele>
        <time>2021-03-27T15:14:38Z</time>
      </trkpt>
      <trkpt lat="42.134354" lon="-6.730211">
        <ele>1389.58</ele>
        <time>2021-03-27T15:14:40Z</time>
      </trkpt>
      <trkpt lat="42.134177" lon="-6.730724">
        <ele>1385.51</ele>
        <time>2021-03-27T15:14:43Z</time>
      </trkpt>
      <trkpt lat="42.134101" lon="-6.73102">
        <ele>1384.44</ele>
        <time>2021-03-27T15:14:45Z</time>
      </trkpt>
      <trkpt lat="42.134042" lon="-6.731319">
        <ele>1384.13</ele>
        <time>2021-03-27T15:14:47Z</time>
      </trkpt>
      <trkpt lat="42.134008" lon="-6.731634">
        <ele>1383.42</ele>
        <time>2021-03-27T15:14:50Z</time>
      </trkpt>
      <trkpt lat="42.134001" lon="-6.731891">
        <ele>1383.72</ele>
        <time>2021-03-27T15:14:52Z</time>
      </trkpt>
      <trkpt lat="42.134022" lon="-6.732129">
        <ele>1383.68</ele>
        <time>2021-03-27T15:14:54Z</time>
      </trkpt>
      <trkpt lat="42.134101" lon="-6.732539">
        <ele>1382.23</ele>
        <time>2021-03-27T15:14:57Z</time>
      </trkpt>
      <trkpt lat="42.134472" lon="-6.733882">
        <ele>1378.05</ele>
        <time>2021-03-27T15:14:59Z</time>
      </trkpt>
      <trkpt lat="42.134554" lon="-6.734068">
        <ele>1378.13</ele>
        <time>2021-03-27T15:15:01Z</time>
      </trkpt>
      <trkpt lat="42.135504" lon="-6.735837">
        <ele>1367.73</ele>
        <time>2021-03-27T15:15:04Z</time>
      </trkpt>
      <trkpt lat="42.135546" lon="-6.736014">
        <ele>1367.05</ele>
        <time>2021-03-27T15:15:06Z</time>
      </trkpt>
      <trkpt lat="42.135524" lon="-6.736135">
        <ele>1366.8</ele>
        <time>2021-03-27T15:15:08Z</time>
      </trkpt>
      <trkpt lat="42.13546" lon="-6.736231">
        <ele>1365.7</ele>
        <time>2021-03-27T15:15:10Z</time>
      </trkpt>
      <trkpt lat="42.135365" lon="-6.736295">
        <ele>1364.31</ele>
        <time>2021-03-27T15:15:13Z</time>
      </trkpt>
      <trkpt lat="42.135249" lon="-6.736324">
        <ele>1362.9</ele>
        <time>2021-03-27T15:15:15Z</time>
      </trkpt>
      <trkpt lat="42.1351" lon="-6.736333">
        <ele>1361.34</ele>
        <time>2021-03-27T15:15:17Z</time>
      </trkpt>
      <trkpt lat="42.134231" lon="-6.736271">
        <ele>1357.5</ele>
        <time>2021-03-27T15:15:20Z</time>
      </trkpt>
      <trkpt lat="42.134114" lon="-6.736242">
        <ele>1356.32</ele>
        <time>2021-03-27T15:15:22Z</time>
      </trkpt>
      <trkpt lat="42.133629" lon="-6.735936">
        <ele>1350.43</ele>
        <time>2021-03-27T15:15:24Z</time>
      </trkpt>
      <trkpt lat="42.133538" lon="-6.735832">
        <ele>1349.67</ele>
        <time>2021-03-27T15:15:27Z</time>
      </trkpt>
      <trkpt lat="42.133477" lon="-6.73571">
        <ele>1349.44</ele>
        <time>2021-03-27T15:15:29Z</time>
      </trkpt>
      <trkpt lat="42.133353" lon="-6.735299">
        <ele>1350.49</ele>
        <time>2021-03-27T15:15:31Z</time>
      </trkpt>
      <trkpt lat="42.133271" lon="-6.734817">
        <ele>1354.75</ele>
        <time>2021-03-27T15:15:33Z</time>
      </trkpt>
      <trkpt lat="42.133209" lon="-6.734625">
        <ele>1355.03</ele>
        <time>2021-03-27T15:15:36Z</time>
      </trkpt>
      <trkpt lat="42.133065" lon="-6.734414">
        <ele>1351.96</ele>
        <time>2021-03-27T15:15:38Z</time>
      </trkpt>
      <trkpt lat="42.132924" lon="-6.734273">
        <ele>1347.93</ele>
        <time>2021-03-27T15:15:40Z</time>
      </trkpt>
      <trkpt lat="42.13279" lon="-6.734084">
        <ele>1344.78</ele>
        <time>2021-03-27T15:15:43Z</time>
      </trkpt>
      <trkpt lat="42.132542" lon="-6.733468">
        <ele>1339.7</ele>
        <time>2021-03-27T15:15:45Z</time>
      </trkpt>
      <trkpt lat="42.132454" lon="-6.733153">
        <ele>1340.15</ele>
        <time>2021-03-27T15:15:47Z</time>
      </trkpt>
      <trkpt lat="42.132412" lon="-6.732951">
        <ele>1339.73</ele>
        <time>2021-03-27T15:15:50Z</time>
      </trkpt>
      <trkpt lat="42.132373" lon="-6.732649">
        <ele>1340.21</ele>
        <time>2021-03-27T15:15:52Z</time>
      </trkpt>
      <trkpt lat="42.132333" lon="-6.732494">
        <ele>1340.3</ele>
        <time>2021-03-27T15:15:54Z</time>
      </trkpt>
      <trkpt lat="42.132249" lon="-6.732227">
        <ele>1340.88</ele>
        <time>2021-03-27T15:15:57Z</time>
      </trkpt>
      <trkpt lat="42.132115" lon="-6.731887">
        <ele>1333.9</ele>
        <time>2021-03-27T15:15:59Z</time>
      </trkpt>
      <trkpt lat="42.132071" lon="-6.731725">
        <ele>1330.68</ele>
        <time>2021-03-27T15:16:01Z</time>
      </trkpt>
      <trkpt lat="42.13206" lon="-6.731578">
        <ele>1328.61</ele>
        <time>2021-03-27T15:16:03Z</time>
      </trkpt>
      <trkpt lat="42.132133" lon="-6.731201">
        <ele>1326.2</ele>
        <time>2021-03-27T15:16:06Z</time>
      </trkpt>
      <trkpt lat="42.132209" lon="-6.730898">
        <ele>1325.24</ele>
        <time>2021-03-27T15:16:08Z</time>
      </trkpt>
      <trkpt lat="42.132262" lon="-6.7308">
        <ele>1325.39</ele>
        <time>2021-03-27T15:16:10Z</time>
      </trkpt>
      <trkpt lat="42.132323" lon="-6.730746">
        <ele>1325.87</ele>
        <time>2021-03-27T15:16:13Z</time>
      </trkpt>
      <trkpt lat="42.132541" lon="-6.730645">
        <ele>1329.52</ele>
        <time>2021-03-27T15:16:15Z</time>
      </trkpt>
      <trkpt lat="42.132603" lon="-6.730578">
        <ele>1330.55</ele>
        <time>2021-03-27T15:16:17Z</time>
      </trkpt>
      <trkpt lat="42.132699" lon="-6.730349">
        <ele>1330.37</ele>
        <time>2021-03-27T15:16:20Z</time>
      </trkpt>
      <trkpt lat="42.133031" lon="-6.729053">
        <ele>1322.63</ele>
        <time>2021-03-27T15:16:22Z</time>
      </trkpt>
      <trkpt lat="42.133046" lon="-6.728904">
        <ele>1322.69</ele>
        <time>2021-03-27T15:16:24Z</time>
      </trkpt>
      <trkpt lat="42.13299" lon="-6.728624">
        <ele>1319.9</ele>
        <time>2021-03-27T15:16:26Z</time>
      </trkpt>
      <trkpt lat="42.132847" lon="-6.728345">
        <ele>1315.49</ele>
        <time>2021-03-27T15:16:29Z</time>
      </trkpt>
      <trkpt lat="42.132772" lon="-6.728273">
        <ele>1313.91</ele>
        <time>2021-03-27T15:16:31Z</time>
      </trkpt>
      <trkpt lat="42.132663" lon="-6.728248">
        <ele>1312.19</ele>
        <time>2021-03-27T15:16:33Z</time>
      </trkpt>
      <trkpt lat="42.132575" lon="-6.72826">
        <ele>1310.73</ele>
        <time>2021-03-27T15:16:36Z</time>
      </trkpt>
      <trkpt lat="42.132497" lon="-6.728327">
        <ele>1308.98</ele>
        <time>2021-03-27T15:16:38Z</time>
      </trkpt>
      <trkpt lat="42.132445" lon="-6.728408">
        <ele>1307.4</ele>
        <time>2021-03-27T15:16:40Z</time>
      </trkpt>
      <trkpt lat="42.132409" lon="-6.728512">
        <ele>1306.28</ele>
        <time>2021-03-27T15:16:43Z</time>
      </trkpt>
      <trkpt lat="42.132401" lon="-6.728648">
        <ele>1305.6</ele>
        <time>2021-03-27T15:16:45Z</time>
      </trkpt>
      <trkpt lat="42.132521" lon="-6.729372">
        <ele>1307.9</ele>
        <time>2021-03-27T15:16:47Z</time>
      </trkpt>
      <trkpt lat="42.13252" lon="-6.729512">
        <ele>1309.88</ele>
        <time>2021-03-27T15:16:49Z</time>
      </trkpt>
      <trkpt lat="42.132488" lon="-6.729631">
        <ele>1311.1</ele>
        <time>2021-03-27T15:16:52Z</time>
      </trkpt>
      <trkpt lat="42.132417" lon="-6.729726">
        <ele>1310.95</ele>
        <time>2021-03-27T15:16:54Z</time>
      </trkpt>
      <trkpt lat="42.132336" lon="-6.729782">
        <ele>1309.73</ele>
        <time>2021-03-27T15:16:56Z</time>
      </trkpt>
      <trkpt lat="42.132249" lon="-6.729803">
        <ele>1307.83</ele>
        <time>2021-03-27T15:16:59Z</time>
      </trkpt>
      <trkpt lat="42.132177" lon="-6.729791">
        <ele>1305.78</ele>
        <time>2021-03-27T15:17:01Z</time>
      </trkpt>
      <trkpt lat="42.132104" lon="-6.729745">
        <ele>1303.27</ele>
        <time>2021-03-27T15:17:03Z</time>
      </trkpt>
      <trkpt lat="42.132027" lon="-6.729642">
        <ele>1300.01</ele>
        <time>2021-03-27T15:17:06Z</time>
      </trkpt>
      <trkpt lat="42.132" lon="-6.72959">
        <ele>1298.61</ele>
        <time>2021-03-27T15:17:08Z</time>
      </trkpt>
      <trkpt lat="42.131982" lon="-6.729501">
        <ele>1296.86</ele>
        <time>2021-03-27T15:17:10Z</time>
      </trkpt>
      <trkpt lat="42.131993" lon="-6.728991">
        <ele>1294.29</ele>
        <time>2021-03-27T15:17:13Z</time>
      </trkpt>
      <trkpt lat="42.131983" lon="-6.728783">
        <ele>1293.07</ele>
        <time>2021-03-27T15:17:15Z</time>
      </trkpt>
      <trkpt lat="42.131919" lon="-6.727872">
        <ele>1288.57</ele>
        <time>2021-03-27T15:17:17Z</time>
      </trkpt>
      <trkpt lat="42.13185" lon="-6.727303">
        <ele>1287.44</ele>
        <time>2021-03-27T15:17:19Z</time>
      </trkpt>
      <trkpt lat="42.131837" lon="-6.727065">
        <ele>1285.32</ele>
        <time>2021-03-27T15:17:22Z</time>
      </trkpt>
      <trkpt lat="42.131845" lon="-6.726894">
        <ele>1284.18</ele>
        <time>2021-03-27T15:17:24Z</time>
      </trkpt>
      <trkpt lat="42.131883" lon="-6.726769">
        <ele>1284.25</ele>
        <time>2021-03-27T15:17:26Z</time>
      </trkpt>
      <trkpt lat="42.131938" lon="-6.726675">
        <ele>1284.92</ele>
        <time>2021-03-27T15:17:29Z</time>
      </trkpt>
      <trkpt lat="42.132016" lon="-6.726606">
        <ele>1285.26</ele>
        <time>2021-03-27T15:17:31Z</time>
      </trkpt>
      <trkpt lat="42.132117" lon="-6.726572">
        <ele>1286.04</ele>
        <time>2021-03-27T15:17:33Z</time>
      </trkpt>
      <trkpt lat="42.132555" lon="-6.726548">
        <ele>1289.0</ele>
        <time>2021-03-27T15:17:36Z</time>
      </trkpt>
      <trkpt lat="42.132655" lon="-6.726517">
        <ele>1290.01</ele>
        <time>2021-03-27T15:17:38Z</time>
      </trkpt>
      <trkpt lat="42.132765" lon="-6.72643">
        <ele>1289.81</ele>
        <time>2021-03-27T15:17:40Z</time>
      </trkpt>
      <trkpt lat="42.133031" lon="-6.726122">
        <ele>1288.54</ele>
        <time>2021-03-27T15:17:42Z</time>
      </trkpt>
      <trkpt lat="42.133149" lon="-6.725915">
        <ele>1285.89</ele>
        <time>2021-03-27T15:17:45Z</time>
      </trkpt>
      <trkpt lat="42.133251" lon="-6.725692">
        <ele>1282.49</ele>
        <time>2021-03-27T15:17:47Z</time>
      </trkpt>
      <trkpt lat="42.133295" lon="-6.72543">
        <ele>1278.56</ele>
        <time>2021-03-27T15:17:49Z</time>
      </trkpt>
      <trkpt lat="42.133298" lon="-6.72525">
        <ele>1276.59</ele>
        <time>2021-03-27T15:17:52Z</time>
      </trkpt>
      <trkpt lat="42.133284" lon="-6.725131">
        <ele>1275.1</ele>
        <time>2021-03-27T15:17:54Z</time>
      </trkpt>
      <trkpt lat="42.133169" lon="-6.724804">
        <ele>1271.45</ele>
        <time>2021-03-27T15:17:56Z</time>
      </trkpt>
      <trkpt lat="42.132768" lon="-6.723826">
        <ele>1261.05</ele>
        <time>2021-03-27T15:17:59Z</time>
      </trkpt>
      <trkpt lat="42.132727" lon="-6.723771">
        <ele>1260.58</ele>
        <time>2021-03-27T15:18:01Z</time>
      </trkpt>
      <trkpt lat="42.132629" lon="-6.72371">
        <ele>1259.32</ele>
        <time>2021-03-27T15:18:03Z</time>
      </trkpt>
      <trkpt lat="42.132378" lon="-6.723641">
        <ele>1254.72</ele>
        <time>2021-03-27T15:18:06Z</time>
      </trkpt>
      <trkpt lat="42.132234" lon="-6.723531">
        <ele>1252.14</ele>
        <time>2021-03-27T15:18:08Z</time>
      </trkpt>
      <trkpt lat="42.132186" lon="-6.723449">
        <ele>1251.12</ele>
        <time>2021-03-27T15:18:10Z</time>
      </trkpt>
      <trkpt lat="42.132144" lon="-6.723323">
        <ele>1250.44</ele>
        <time>2021-03-27T15:18:12Z</time>
      </trkpt>
      <trkpt lat="42.132062" lon="-6.722837">
        <ele>1249.28</ele>
        <time>2021-03-27T15:18:15Z</time>
      </trkpt>
      <trkpt lat="42.13206" lon="-6.72227">
        <ele>1247.92</ele>
        <time>2021-03-27T15:18:17Z</time>
      </trkpt>
      <trkpt lat="42.13209" lon="-6.721983">
        <ele>1247.48</ele>
        <time>2021-03-27T15:18:19Z</time>
      </trkpt>
      <trkpt lat="42.132209" lon="-6.72135">
        <ele>1246.6</ele>
        <time>2021-03-27T15:18:22Z</time>
      </trkpt>
      <trkpt lat="42.132306" lon="-6.720983">
        <ele>1242.05</ele>
        <time>2021-03-27T15:18:24Z</time>
      </trkpt>
      <trkpt lat="42.132349" lon="-6.720878">
        <ele>1240.7</ele>
        <time>2021-03-27T15:18:26Z</time>
      </trkpt>
      <trkpt lat="42.1324" lon="-6.720801">
        <ele>1240.01</ele>
        <time>2021-03-27T15:18:29Z</time>
      </trkpt>
      <trkpt lat="42.132504" lon="-6.720731">
        <ele>1240.76</ele>
        <time>2021-03-27T15:18:31Z</time>
      </trkpt>
      <trkpt lat="42.132568" lon="-6.720733">
        <ele>1240.21</ele>
        <time>2021-03-27T15:18:33Z</time>
      </trkpt>
      <trkpt lat="42.132626" lon="-6.720756">
        <ele>1240.01</ele>
        <time>2021-03-27T15:18:35Z</time>
      </trkpt>
      <trkpt lat="42.132687" lon="-6.720815">
        <ele>1240.09</ele>
        <time>2021-03-27T15:18:38Z</time>
      </trkpt>
      <trkpt lat="42.132725" lon="-6.72089">
        <ele>1240.15</ele>
        <time>2021-03-27T15:18:40Z</time>
      </trkpt>
      <trkpt lat="42.132747" lon="-6.720964">
        <ele>1240.18</ele>
        <time>2021-03-27T15:18:42Z</time>
      </trkpt>
      <trkpt lat="42.132754" lon="-6.72107">
        <ele>1240.54</ele>
        <time>2021-03-27T15:18:45Z</time>
      </trkpt>
      <trkpt lat="42.132742" lon="-6.721537">
        <ele>1243.08</ele>
        <time>2021-03-27T15:18:47Z</time>
      </trkpt>
      <trkpt lat="42.132754" lon="-6.721804">
        <ele>1243.95</ele>
        <time>2021-03-27T15:18:49Z</time>
      </trkpt>
      <trkpt lat="42.132799" lon="-6.722369">
        <ele>1245.7</ele>
        <time>2021-03-27T15:18:52Z</time>
      </trkpt>
      <trkpt lat="42.132819" lon="-6.722451">
        <ele>1246.44</ele>
        <time>2021-03-27T15:18:54Z</time>
      </trkpt>
      <trkpt lat="42.132892" lon="-6.722574">
        <ele>1246.6</ele>
        <time>2021-03-27T15:18:56Z</time>
      </trkpt>
      <trkpt lat="42.132982" lon="-6.722654">
        <ele>1245.8</ele>
        <time>2021-03-27T15:18:59Z</time>
      </trkpt>
      <trkpt lat="42.133089" lon="-6.722699">
        <ele>1244.71</ele>
        <time>2021-03-27T15:19:01Z</time>
      </trkpt>
      <trkpt lat="42.133268" lon="-6.722638">
        <ele>1242.83</ele>
        <time>2021-03-27T15:19:03Z</time>
      </trkpt>
      <trkpt lat="42.13474" lon="-6.721162">
        <ele>1226.94</ele>
        <time>2021-03-27T15:19:05Z</time>
      </trkpt>
      <trkpt lat="42.135001" lon="-6.720921">
        <ele>1226.96</ele>
        <time>2021-03-27T15:19:08Z</time>
      </trkpt>
      <trkpt lat="42.135111" lon="-6.720863">
        <ele>1226.81</ele>
        <time>2021-03-27T15:19:10Z</time>
      </trkpt>
      <trkpt lat="42.135568" lon="-6.720747">
        <ele>1226.05</ele>
        <time>2021-03-27T15:19:12Z</time>
      </trkpt>
      <trkpt lat="42.136067" lon="-6.720653">
        <ele>1224.15</ele>
        <time>2021-03-27T15:19:15Z</time>
      </trkpt>
      <trkpt lat="42.137211" lon="-6.720535">
        <ele>1222.67</ele>
        <time>2021-03-27T15:19:17Z</time>
      </trkpt>
      <trkpt lat="42.137326" lon="-6.720496">
        <ele>1221.94</ele>
        <time>2021-03-27T15:19:19Z</time>
      </trkpt>
      <trkpt lat="42.137744" lon="-6.720109">
        <ele>1217.25</ele>
        <time>2021-03-27T15:19:22Z</time>
      </trkpt>
      <trkpt lat="42.137801" lon="-6.720024">
        <ele>1217.34</ele>
        <time>2021-03-27T15:19:24Z</time>
      </trkpt>
      <trkpt lat="42.137855" lon="-6.719879">
        <ele>1217.72</ele>
        <time>2021-03-27T15:19:26Z</time>
      </trkpt>
      <trkpt lat="42.137894" lon="-6.719548">
        <ele>1217.47</ele>
        <time>2021-03-27T15:19:28Z</time>
      </trkpt>
      <trkpt lat="42.137902" lon="-6.719151">
        <ele>1215.68</ele>
        <time>2021-03-27T15:19:31Z</time>
      </trkpt>
      <trkpt lat="42.137881" lon="-6.718951">
        <ele>1213.74</ele>
        <time>2021-03-27T15:19:33Z</time>
      </trkpt>
      <trkpt lat="42.137491" lon="-6.7172">
        <ele>1203.83</ele>
        <time>2021-03-27T15:19:35Z</time>
      </trkpt>
      <trkpt lat="42.137311" lon="-6.716345">
        <ele>1201.02</ele>
        <time>2021-03-27T15:19:38Z</time>
      </trkpt>
      <trkpt lat="42.137183" lon="-6.716184">
        <ele>1200.06</ele>
        <time>2021-03-27T15:19:40Z</time>
      </trkpt>
      <trkpt lat="42.137055" lon="-6.71612">
        <ele>1199.13</ele>
        <time>2021-03-27T15:19:42Z</time>
      </trkpt>
      <trkpt lat="42.136562" lon="-6.715942">
        <ele>1194.64</ele>
        <time>2021-03-27T15:19:45Z</time>
      </trkpt>
      <trkpt lat="42.136457" lon="-6.715843">
        <ele>1193.02</ele>
        <time>2021-03-27T15:19:47Z</time>
      </trkpt>
      <trkpt lat="42.136136" lon="-6.715405">
        <ele>1192.71</ele>
        <time>2021-03-27T15:19:49Z</time>
      </trkpt>
      <trkpt lat="42.135933" lon="-6.715186">
        <ele>1191.86</ele>
        <time>2021-03-27T15:19:52Z</time>
      </trkpt>
      <trkpt lat="42.135767" lon="-6.715039">
        <ele>1191.01</ele>
        <time>2021-03-27T15:19:54Z</time>
      </trkpt>
      <trkpt lat="42.135364" lon="-6.714792">
        <ele>1187.1</ele>
        <time>2021-03-27T15:19:56Z</time>
      </trkpt>
      <trkpt lat="42.13497" lon="-6.714198">
        <ele>1185.78</ele>
        <time>2021-03-27T15:19:58Z</time>
      </trkpt>
      <trkpt lat="42.134833" lon="-6.714024">
        <ele>1185.56</ele>
        <time>2021-03-27T15:20:01Z</time>
      </trkpt>
      <trkpt lat="42.134677" lon="-6.713887">
        <ele>1184.06</ele>
        <time>2021-03-27T15:20:03Z</time>
      </trkpt>
      <trkpt lat="42.13433" lon="-6.713733">
        <ele>1178.78</ele>
        <time>2021-03-27T15:20:05Z</time>
      </trkpt>
      <trkpt lat="42.134267" lon="-6.713681">
        <ele>1177.57</ele>
        <time>2021-03-27T15:20:08Z</time>
      </trkpt>
      <trkpt lat="42.134198" lon="-6.713573">
        <ele>1176.7</ele>
        <time>2021-03-27T15:20:10Z</time>
      </trkpt>
      <trkpt lat="42.133782" lon="-6.712628">
        <ele>1171.99</ele>
        <time>2021-03-27T15:20:12Z</time>
      </trkpt>
      <trkpt lat="42.133662" lon="-6.712235">
        <ele>1172.83</ele>
        <time>2021-03-27T15:20:15Z</time>
      </trkpt>
      <trkpt lat="42.133343" lon="-6.711063">
        <ele>1167.67</ele>
        <time>2021-03-27T15:20:17Z</time>
      </trkpt>
      <trkpt lat="42.133317" lon="-6.710691">
        <ele>1167.64</ele>
        <time>2021-03-27T15:20:19Z</time>
      </trkpt>
      <trkpt lat="42.13331" lon="-6.7093">
        <ele>1165.19</ele>
        <time>2021-03-27T15:20:21Z</time>
      </trkpt>
      <trkpt lat="42.133266" lon="-6.70865">
        <ele>1161.46</ele>
        <time>2021-03-27T15:20:24Z</time>
      </trkpt>
      <trkpt lat="42.133226" lon="-6.70743">
        <ele>1154.69</ele>
        <time>2021-03-27T15:20:26Z</time>
      </trkpt>
      <trkpt lat="42.13325" lon="-6.706586">
        <ele>1149.84</ele>
        <time>2021-03-27T15:20:28Z</time>
      </trkpt>
      <trkpt lat="42.133318" lon="-6.705636">
        <ele>1147.01</ele>
        <time>2021-03-27T15:20:31Z</time>
      </trkpt>
      <trkpt lat="42.133386" lon="-6.705188">
        <ele>1147.28</ele>
        <time>2021-03-27T15:20:33Z</time>
      </trkpt>
      <trkpt lat="42.133559" lon="-6.704295">
        <ele>1146.02</ele>
        <time>2021-03-27T15:20:35Z</time>
      </trkpt>
      <trkpt lat="42.133616" lon="-6.70382">
        <ele>1142.7</ele>
        <time>2021-03-27T15:20:38Z</time>
      </trkpt>
      <trkpt lat="42.133658" lon="-6.703618">
        <ele>1142.92</ele>
        <time>2021-03-27T15:20:40Z</time>
      </trkpt>
      <trkpt lat="42.133714" lon="-6.703464">
        <ele>1142.9</ele>
        <time>2021-03-27T15:20:42Z</time>
      </trkpt>
      <trkpt lat="42.133974" lon="-6.702952">
        <ele>1141.02</ele>
        <time>2021-03-27T15:20:45Z</time>
      </trkpt>
      <trkpt lat="42.134057" lon="-6.702703">
        <ele>1138.88</ele>
        <time>2021-03-27T15:20:47Z</time>
      </trkpt>
      <trkpt lat="42.134201" lon="-6.701825">
        <ele>1136.98</ele>
        <time>2021-03-27T15:20:49Z</time>
      </trkpt>
      <trkpt lat="42.134231" lon="-6.701427">
        <ele>1133.69</ele>
        <time>2021-03-27T15:20:51Z</time>
      </trkpt>
      <trkpt lat="42.134183" lon="-6.701022">
        <ele>1129.28</ele>
        <time>2021-03-27T15:20:54Z</time>
      </trkpt>
      <trkpt lat="42.134123" lon="-6.70069">
        <ele>1127.33</ele>
        <time>2021-03-27T15:20:56Z</time>
      </trkpt>
      <trkpt lat="42.133971" lon="-6.70009">
        <ele>1126.97</ele>
        <time>2021-03-27T15:20:58Z</time>
      </trkpt>
      <trkpt lat="42.133909" lon="-6.6999">
        <ele>1127.59</ele>
        <time>2021-03-27T15:21:01Z</time>
      </trkpt>
      <trkpt lat="42.133494" lon="-6.699039">
        <ele>1116.68</ele>
        <time>2021-03-27T15:21:03Z</time>
      </trkpt>
      <trkpt lat="42.133442" lon="-6.698877">
        <ele>1115.57</ele>
        <time>2021-03-27T15:21:05Z</time>
      </trkpt>
      <trkpt lat="42.133412" lon="-6.698707">
        <ele>1115.22</ele>
        <time>2021-03-27T15:21:08Z</time>
      </trkpt>
      <trkpt lat="42.133385" lon="-6.696159">
        <ele>1107.62</ele>
        <time>2021-03-27T15:21:10Z</time>
      </trkpt>
      <trkpt lat="42.133372" lon="-6.695936">
        <ele>1106.79</ele>
        <time>2021-03-27T15:21:12Z</time>
      </trkpt>
      <trkpt lat="42.133329" lon="-6.695647">
        <ele>1105.93</ele>
        <time>2021-03-27T15:21:14Z</time>
      </trkpt>
      <trkpt lat="42.132731" lon="-6.692894">
        <ele>1105.35</ele>
        <time>2021-03-27T15:21:17Z</time>
      </trkpt>
      <trkpt lat="42.132666" lon="-6.692685">
        <ele>1104.6</ele>
        <time>2021-03-27T15:21:19Z</time>
      </trkpt>
      <trkpt lat="42.132578" lon="-6.69247">
        <ele>1104.33</ele>
        <time>2021-03-27T15:21:21Z</time>
      </trkpt>
      <trkpt lat="42.132306" lon="-6.69201">
        <ele>1104.86</ele>
        <time>2021-03-27T15:21:24Z</time>
      </trkpt>
      <trkpt lat="42.132098" lon="-6.691708">
        <ele>1103.63</ele>
        <time>2021-03-27T15:21:26Z</time>
      </trkpt>
      <trkpt lat="42.13202" lon="-6.691611">
        <ele>1103.07</ele>
        <time>2021-03-27T15:21:28Z</time>
      </trkpt>
      <trkpt lat="42.131961" lon="-6.691566">
        <ele>1102.7</ele>
        <time>2021-03-27T15:21:31Z</time>
      </trkpt>
      <trkpt lat="42.131859" lon="-6.691552">
        <ele>1101.8</ele>
        <time>2021-03-27T15:21:33Z</time>
      </trkpt>
      <trkpt lat="42.131772" lon="-6.691578">
        <ele>1101.02</ele>
        <time>2021-03-27T15:21:35Z</time>
      </trkpt>
      <trkpt lat="42.131682" lon="-6.691652">
        <ele>1100.17</ele>
        <time>2021-03-27T15:21:37Z</time>
      </trkpt>
      <trkpt lat="42.131631" lon="-6.691761">
        <ele>1099.44</ele>
        <time>2021-03-27T15:21:40Z</time>
      </trkpt>
      <trkpt lat="42.131607" lon="-6.691906">
        <ele>1098.96</ele>
        <time>2021-03-27T15:21:42Z</time>
      </trkpt>
      <trkpt lat="42.131622" lon="-6.692299">
        <ele>1096.86</ele>
        <time>2021-03-27T15:21:44Z</time>
      </trkpt>
      <trkpt lat="42.131664" lon="-6.692539">
        <ele>1096.81</ele>
        <time>2021-03-27T15:21:47Z</time>
      </trkpt>
      <trkpt lat="42.131763" lon="-6.692908">
        <ele>1097.14</ele>
        <time>2021-03-27T15:21:49Z</time>
      </trkpt>
      <trkpt lat="42.131919" lon="-6.693261">
        <ele>1097.23</ele>
        <time>2021-03-27T15:21:51Z</time>
      </trkpt>
      <trkpt lat="42.132011" lon="-6.693548">
        <ele>1095.64</ele>
        <time>2021-03-27T15:21:54Z</time>
      </trkpt>
      <trkpt lat="42.132063" lon="-6.69389">
        <ele>1092.56</ele>
        <time>2021-03-27T15:21:56Z</time>
      </trkpt>
      <trkpt lat="42.132132" lon="-6.694742">
        <ele>1090.96</ele>
        <time>2021-03-27T15:21:58Z</time>
      </trkpt>
      <trkpt lat="42.132122" lon="-6.694999">
        <ele>1089.56</ele>
        <time>2021-03-27T15:22:01Z</time>
      </trkpt>
      <trkpt lat="42.13188" lon="-6.696035">
        <ele>1082.05</ele>
        <time>2021-03-27T15:22:03Z</time>
      </trkpt>
      <trkpt lat="42.131835" lon="-6.6963">
        <ele>1080.76</ele>
        <time>2021-03-27T15:22:05Z</time>
      </trkpt>
      <trkpt lat="42.131816" lon="-6.69655">
        <ele>1080.5</ele>
        <time>2021-03-27T15:22:07Z</time>
      </trkpt>
      <trkpt lat="42.131817" lon="-6.697098">
        <ele>1080.25</ele>
        <time>2021-03-27T15:22:10Z</time>
      </trkpt>
      <trkpt lat="42.131863" lon="-6.697388">
        <ele>1080.05</ele>
        <time>2021-03-27T15:22:12Z</time>
      </trkpt>
      <trkpt lat="42.132102" lon="-6.698174">
        <ele>1078.99</ele>
        <time>2021-03-27T15:22:14Z</time>
      </trkpt>
      <trkpt lat="42.132138" lon="-6.698327">
        <ele>1079.2</ele>
        <time>2021-03-27T15:22:17Z</time>
      </trkpt>
      <trkpt lat="42.132147" lon="-6.698464">
        <ele>1078.44</ele>
        <time>2021-03-27T15:22:19Z</time>
      </trkpt>
      <trkpt lat="42.132121" lon="-6.698571">
        <ele>1077.09</ele>
        <time>2021-03-27T15:22:21Z</time>
      </trkpt>
      <trkpt lat="42.13206" lon="-6.698648">
        <ele>1075.41</ele>
        <time>2021-03-27T15:22:24Z</time>
      </trkpt>
      <trkpt lat="42.131924" lon="-6.698741">
        <ele>1072.28</ele>
        <time>2021-03-27T15:22:26Z</time>
      </trkpt>
      <trkpt lat="42.131859" lon="-6.698735">
        <ele>1071.49</ele>
        <time>2021-03-27T15:22:28Z</time>
      </trkpt>
      <trkpt lat="42.131781" lon="-6.698701">
        <ele>1070.72</ele>
        <time>2021-03-27T15:22:30Z</time>
      </trkpt>
      <trkpt lat="42.131686" lon="-6.698614">
        <ele>1070.19</ele>
        <time>2021-03-27T15:22:33Z</time>
      </trkpt>
      <trkpt lat="42.13155" lon="-6.698289">
        <ele>1067.65</ele>
        <time>2021-03-27T15:22:35Z</time>
      </trkpt>
      <trkpt lat="42.13064" lon="-6.695842">
        <ele>1058.5</ele>
        <time>2021-03-27T15:22:37Z</time>
      </trkpt>
      <trkpt lat="42.130093" lon="-6.694745">
        <ele>1055.12</ele>
        <time>2021-03-27T15:22:40Z</time>
      </trkpt>
      <trkpt lat="42.129886" lon="-6.694454">
        <ele>1053.89</ele>
        <time>2021-03-27T15:22:42Z</time>
      </trkpt>
      <trkpt lat="42.129771" lon="-6.694386">
        <ele>1052.46</ele>
        <time>2021-03-27T15:22:44Z</time>
      </trkpt>
      <trkpt lat="42.128874" lon="-6.69404">
        <ele>1047.12</ele>
        <time>2021-03-27T15:22:47Z</time>
      </trkpt>
      <trkpt lat="42.128781" lon="-6.693975">
        <ele>1045.51</ele>
        <time>2021-03-27T15:22:49Z</time>
      </trkpt>
      <trkpt lat="42.128639" lon="-6.693817">
        <ele>1043.78</ele>
        <time>2021-03-27T15:22:51Z</time>
      </trkpt>
      <trkpt lat="42.128279" lon="-6.693276">
        <ele>1041.23</ele>
        <time>2021-03-27T15:22:54Z</time>
      </trkpt>
      <trkpt lat="42.128227" lon="-6.693148">
        <ele>1040.76</ele>
        <time>2021-03-27T15:22:56Z</time>
      </trkpt>
      <trkpt lat="42.128197" lon="-6.692995">
        <ele>1040.77</ele>
        <time>2021-03-27T15:22:58Z</time>
      </trkpt>
      <trkpt lat="42.128033" lon="-6.69146">
        <ele>1037.12</ele>
        <time>2021-03-27T15:23:00Z</time>
      </trkpt>
      <trkpt lat="42.127984" lon="-6.691165">
        <ele>1036.74</ele>
        <time>2021-03-27T15:23:03Z</time>
      </trkpt>
      <trkpt lat="42.127684" lon="-6.690038">
        <ele>1033.74</ele>
        <time>2021-03-27T15:23:05Z</time>
      </trkpt>
      <trkpt lat="42.127303" lon="-6.689012">
        <ele>1034.22</ele>
        <time>2021-03-27T15:23:07Z</time>
      </trkpt>
      <trkpt lat="42.127177" lon="-6.688742">
        <ele>1033.66</ele>
        <time>2021-03-27T15:23:10Z</time>
      </trkpt>
      <trkpt lat="42.126823" lon="-6.688107">
        <ele>1028.93</ele>
        <time>2021-03-27T15:23:12Z</time>
      </trkpt>
      <trkpt lat="42.12662" lon="-6.687806">
        <ele>1025.13</ele>
        <time>2021-03-27T15:23:14Z</time>
      </trkpt>
      <trkpt lat="42.125322" lon="-6.68626">
        <ele>1016.16</ele>
        <time>2021-03-27T15:23:17Z</time>
      </trkpt>
      <trkpt lat="42.125157" lon="-6.686097">
        <ele>1015.79</ele>
        <time>2021-03-27T15:23:19Z</time>
      </trkpt>
      <trkpt lat="42.12503" lon="-6.686018">
        <ele>1014.99</ele>
        <time>2021-03-27T15:23:21Z</time>
      </trkpt>
      <trkpt lat="42.124853" lon="-6.68595">
        <ele>1014.32</ele>
        <time>2021-03-27T15:23:23Z</time>
      </trkpt>
      <trkpt lat="42.123587" lon="-6.685622">
        <ele>1009.31</ele>
        <time>2021-03-27T15:23:26Z</time>
      </trkpt>
      <trkpt lat="42.123257" lon="-6.685633">
        <ele>1009.45</ele>
        <time>2021-03-27T15:23:28Z</time>
      </trkpt>
      <trkpt lat="42.122851" lon="-6.685723">
        <ele>1006.23</ele>
        <time>2021-03-27T15:23:30Z</time>
      </trkpt>
      <trkpt lat="42.121978" lon="-6.685982">
        <ele>1002.94</ele>
        <time>2021-03-27T15:23:33Z</time>
      </trkpt>
      <trkpt lat="42.121622" lon="-6.68604">
        <ele>1005.16</ele>
        <time>2021-03-27T15:23:35Z</time>
      </trkpt>
      <trkpt lat="42.119894" lon="-6.686025">
        <ele>1007.11</ele>
        <time>2021-03-27T15:23:37Z</time>
      </trkpt>
      <trkpt lat="42.11972" lon="-6.686057">
        <ele>1006.8</ele>
        <time>2021-03-27T15:23:40Z</time>
      </trkpt>
      <trkpt lat="42.119563" lon="-6.686119">
        <ele>1006.44</ele>
        <time>2021-03-27T15:23:42Z</time>
      </trkpt>
      <trkpt lat="42.118756" lon="-6.686565">
        <ele>1006.67</ele>
        <time>2021-03-27T15:23:44Z</time>
      </trkpt>
      <trkpt lat="42.118502" lon="-6.686801">
        <ele>1006.5</ele>
        <time>2021-03-27T15:23:47Z</time>
      </trkpt>
      <trkpt lat="42.11795" lon="-6.687484">
        <ele>1008.86</ele>
        <time>2021-03-27T15:23:49Z</time>
      </trkpt>
      <trkpt lat="42.117669" lon="-6.687872">
        <ele>1010.69</ele>
        <time>2021-03-27T15:23:51Z</time>
      </trkpt>
      <trkpt lat="42.11747" lon="-6.688245">
        <ele>1010.46</ele>
        <time>2021-03-27T15:23:53Z</time>
      </trkpt>
      <trkpt lat="42.117347" lon="-6.68851">
        <ele>1007.96</ele>
        <time>2021-03-27T15:23:56Z</time>
      </trkpt>
      <trkpt lat="42.117261" lon="-6.688854">
        <ele>1006.56</ele>
        <time>2021-03-27T15:23:58Z</time>
      </trkpt>
      <trkpt lat="42.11726" lon="-6.688924">
        <ele>1006.77</ele>
        <time>2021-03-27T15:24:02Z</time>
      </trkpt>
      <trkpt lat="42.117239" lon="-6.688989">
        <ele>1006.92</ele>
        <time>2021-03-27T15:24:05Z</time>
      </trkpt>
      <trkpt lat="42.117201" lon="-6.689037">
        <ele>1006.87</ele>
        <time>2021-03-27T15:24:08Z</time>
      </trkpt>
      <trkpt lat="42.117116" lon="-6.68906">
        <ele>1006.32</ele>
        <time>2021-03-27T15:24:12Z</time>
      </trkpt>
      <trkpt lat="42.117074" lon="-6.689042">
        <ele>1005.8</ele>
        <time>2021-03-27T15:24:15Z</time>
      </trkpt>
      <trkpt lat="42.117018" lon="-6.688966">
        <ele>1004.55</ele>
        <time>2021-03-27T15:24:19Z</time>
      </trkpt>
      <trkpt lat="42.117005" lon="-6.688913">
        <ele>1003.9</ele>
        <time>2021-03-27T15:24:22Z</time>
      </trkpt>
      <trkpt lat="42.116916" lon="-6.688778">
        <ele>1002.24</ele>
        <time>2021-03-27T15:24:25Z</time>
      </trkpt>
      <trkpt lat="42.116852" lon="-6.688625">
        <ele>1001.42</ele>
        <time>2021-03-27T15:24:29Z</time>
      </trkpt>
      <trkpt lat="42.116719" lon="-6.688379">
        <ele>1001.29</ele>
        <time>2021-03-27T15:24:32Z</time>
      </trkpt>
      <trkpt lat="42.116262" lon="-6.687543">
        <ele>1000.37</ele>
        <time>2021-03-27T15:24:36Z</time>
      </trkpt>
      <trkpt lat="42.116182" lon="-6.68743">
        <ele>999.79</ele>
        <time>2021-03-27T15:24:39Z</time>
      </trkpt>
      <trkpt lat="42.116087" lon="-6.687341">
        <ele>999.28</ele>
        <time>2021-03-27T15:24:42Z</time>
      </trkpt>
      <trkpt lat="42.115123" lon="-6.686692">
        <ele>998.61</ele>
        <time>2021-03-27T15:24:46Z</time>
      </trkpt>
      <trkpt lat="42.114983" lon="-6.686512">
        <ele>997.98</ele>
        <time>2021-03-27T15:24:49Z</time>
      </trkpt>
      <trkpt lat="42.114877" lon="-6.68632">
        <ele>996.95</ele>
        <time>2021-03-27T15:24:53Z</time>
      </trkpt>
      <trkpt lat="42.114268" lon="-6.685073">
        <ele>995.17</ele>
        <time>2021-03-27T15:24:56Z</time>
      </trkpt>
      <trkpt lat="42.114124" lon="-6.684763">
        <ele>994.91</ele>
        <time>2021-03-27T15:24:59Z</time>
      </trkpt>
      <trkpt lat="42.114047" lon="-6.684552">
        <ele>995.46</ele>
        <time>2021-03-27T15:25:03Z</time>
      </trkpt>
      <trkpt lat="42.113953" lon="-6.684223">
        <ele>996.49</ele>
        <time>2021-03-27T15:25:06Z</time>
      </trkpt>
      <trkpt lat="42.113596" lon="-6.682709">
        <ele>993.09</ele>
        <time>2021-03-27T15:25:09Z</time>
      </trkpt>
      <trkpt lat="42.113474" lon="-6.682368">
        <ele>993.26</ele>
        <time>2021-03-27T15:25:13Z</time>
      </trkpt>
      <trkpt lat="42.113377" lon="-6.682173">
        <ele>993.0</ele>
        <time>2021-03-27T15:25:16Z</time>
      </trkpt>
      <trkpt lat="42.113261" lon="-6.681986">
        <ele>993.04</ele>
        <time>2021-03-27T15:25:20Z</time>
      </trkpt>
      <trkpt lat="42.112616" lon="-6.681185">
        <ele>993.13</ele>
        <time>2021-03-27T15:25:23Z</time>
      </trkpt>
      <trkpt lat="42.112501" lon="-6.681002">
        <ele>993.99</ele>
        <time>2021-03-27T15:25:26Z</time>
      </trkpt>
      <trkpt lat="42.112111" lon="-6.680232">
        <ele>993.3</ele>
        <time>2021-03-27T15:25:30Z</time>
      </trkpt>
      <trkpt lat="42.111759" lon="-6.679418">
        <ele>985.87</ele>
        <time>2021-03-27T15:25:33Z</time>
      </trkpt>
      <trkpt lat="42.110783" lon="-6.67693">
        <ele>975.79</ele>
        <time>2021-03-27T15:25:37Z</time>
      </trkpt>
      <trkpt lat="42.110666" lon="-6.676756">
        <ele>975.54</ele>
        <time>2021-03-27T15:25:40Z</time>
      </trkpt>
      <trkpt lat="42.11032" lon="-6.676459">
        <ele>974.3</ele>
        <time>2021-03-27T15:25:43Z</time>
      </trkpt>
      <trkpt lat="42.109734" lon="-6.676016">
        <ele>967.41</ele>
        <time>2021-03-27T15:25:47Z</time>
      </trkpt>
      <trkpt lat="42.109426" lon="-6.675836">
        <ele>962.83</ele>
        <time>2021-03-27T15:25:50Z</time>
      </trkpt>
      <trkpt lat="42.109291" lon="-6.675843">
        <ele>961.45</ele>
        <time>2021-03-27T15:25:51Z</time>
      </trkpt>
      <trkpt lat="42.109139" lon="-6.675808">
        <ele>959.92</ele>
        <time>2021-03-27T15:25:51Z</time>
      </trkpt>
      <trkpt lat="42.109068" lon="-6.675778">
        <ele>959.96</ele>
        <time>2021-03-27T15:25:52Z</time>
      </trkpt>
      <trkpt lat="42.109041" lon="-6.675739">
        <ele>959.77</ele>
        <time>2021-03-27T15:25:52Z</time>
      </trkpt>
      <trkpt lat="42.109033" lon="-6.675684">
        <ele>959.41</ele>
        <time>2021-03-27T15:25:53Z</time>
      </trkpt>
      <trkpt lat="42.109128" lon="-6.67556">
        <ele>958.17</ele>
        <time>2021-03-27T15:25:55Z</time>
      </trkpt>
      <trkpt lat="42.109203" lon="-6.675519">
        <ele>958.02</ele>
        <time>2021-03-27T15:25:57Z</time>
      </trkpt>
      <trkpt lat="42.110567" lon="-6.67437">
        <ele>966.77</ele>
        <time>2021-03-27T15:25:59Z</time>
      </trkpt>
      <trkpt lat="42.110769" lon="-6.674228">
        <ele>966.99</ele>
        <time>2021-03-27T15:26:01Z</time>
      </trkpt>
      <trkpt lat="42.111056" lon="-6.674136">
        <ele>966.2</ele>
        <time>2021-03-27T15:26:03Z</time>
      </trkpt>
      <trkpt lat="42.111544" lon="-6.67411">
        <ele>966.44</ele>
        <time>2021-03-27T15:26:05Z</time>
      </trkpt>
      <trkpt lat="42.111758" lon="-6.674072">
        <ele>966.87</ele>
        <time>2021-03-27T15:26:07Z</time>
      </trkpt>
      <trkpt lat="42.11185" lon="-6.674027">
        <ele>966.83</ele>
        <time>2021-03-27T15:26:09Z</time>
      </trkpt>
      <trkpt lat="42.113975" lon="-6.672461">
        <ele>970.21</ele>
        <time>2021-03-27T15:26:11Z</time>
      </trkpt>
      <trkpt lat="42.114201" lon="-6.672351">
        <ele>971.12</ele>
        <time>2021-03-27T15:26:13Z</time>
      </trkpt>
      <trkpt lat="42.114944" lon="-6.672063">
        <ele>976.54</ele>
        <time>2021-03-27T15:26:15Z</time>
      </trkpt>
      <trkpt lat="42.115405" lon="-6.671912">
        <ele>984.59</ele>
        <time>2021-03-27T15:26:17Z</time>
      </trkpt>
      <trkpt lat="42.11553" lon="-6.671913">
        <ele>986.41</ele>
        <time>2021-03-27T15:26:19Z</time>
      </trkpt>
      <trkpt lat="42.115608" lon="-6.671951">
        <ele>987.63</ele>
        <time>2021-03-27T15:26:21Z</time>
      </trkpt>
      <trkpt lat="42.116023" lon="-6.672261">
        <ele>995.02</ele>
        <time>2021-03-27T15:26:23Z</time>
      </trkpt>
      <trkpt lat="42.116202" lon="-6.672331">
        <ele>997.16</ele>
        <time>2021-03-27T15:26:25Z</time>
      </trkpt>
      <trkpt lat="42.116433" lon="-6.672367">
        <ele>1000.04</ele>
        <time>2021-03-27T15:26:26Z</time>
      </trkpt>
      <trkpt lat="42.116533" lon="-6.672338">
        <ele>1000.8</ele>
        <time>2021-03-27T15:26:28Z</time>
      </trkpt>
      <trkpt lat="42.116633" lon="-6.672251">
        <ele>1000.94</ele>
        <time>2021-03-27T15:26:30Z</time>
      </trkpt>
      <trkpt lat="42.116691" lon="-6.672159">
        <ele>1000.62</ele>
        <time>2021-03-27T15:26:32Z</time>
      </trkpt>
      <trkpt lat="42.116782" lon="-6.671768">
        <ele>999.43</ele>
        <time>2021-03-27T15:26:34Z</time>
      </trkpt>
      <trkpt lat="42.116875" lon="-6.671591">
        <ele>1000.69</ele>
        <time>2021-03-27T15:26:36Z</time>
      </trkpt>
      <trkpt lat="42.116974" lon="-6.67152">
        <ele>1002.52</ele>
        <time>2021-03-27T15:26:38Z</time>
      </trkpt>
      <trkpt lat="42.117098" lon="-6.671482">
        <ele>1004.58</ele>
        <time>2021-03-27T15:26:40Z</time>
      </trkpt>
      <trkpt lat="42.117402" lon="-6.671438">
        <ele>1009.07</ele>
        <time>2021-03-27T15:26:42Z</time>
      </trkpt>
      <trkpt lat="42.117523" lon="-6.67145">
        <ele>1010.89</ele>
        <time>2021-03-27T15:26:44Z</time>
      </trkpt>
      <trkpt lat="42.117927" lon="-6.671591">
        <ele>1016.22</ele>
        <time>2021-03-27T15:26:46Z</time>
      </trkpt>
      <trkpt lat="42.117969" lon="-6.671574">
        <ele>1016.63</ele>
        <time>2021-03-27T15:26:48Z</time>
      </trkpt>
      <trkpt lat="42.118046" lon="-6.671476">
        <ele>1017.19</ele>
        <time>2021-03-27T15:26:50Z</time>
      </trkpt>
      <trkpt lat="42.118075" lon="-6.671387">
        <ele>1017.28</ele>
        <time>2021-03-27T15:26:52Z</time>
      </trkpt>
      <trkpt lat="42.118069" lon="-6.671272">
        <ele>1016.78</ele>
        <time>2021-03-27T15:26:54Z</time>
      </trkpt>
      <trkpt lat="42.117927" lon="-6.670849">
        <ele>1015.56</ele>
        <time>2021-03-27T15:26:56Z</time>
      </trkpt>
      <trkpt lat="42.117901" lon="-6.670472">
        <ele>1015.85</ele>
        <time>2021-03-27T15:26:58Z</time>
      </trkpt>
      <trkpt lat="42.117934" lon="-6.670123">
        <ele>1015.7</ele>
        <time>2021-03-27T15:27:00Z</time>
      </trkpt>
      <trkpt lat="42.118045" lon="-6.669779">
        <ele>1016.85</ele>
        <time>2021-03-27T15:27:02Z</time>
      </trkpt>
      <trkpt lat="42.118095" lon="-6.669664">
        <ele>1017.61</ele>
        <time>2021-03-27T15:27:04Z</time>
      </trkpt>
      <trkpt lat="42.11811" lon="-6.669488">
        <ele>1018.27</ele>
        <time>2021-03-27T15:27:06Z</time>
      </trkpt>
      <trkpt lat="42.118074" lon="-6.669391">
        <ele>1018.52</ele>
        <time>2021-03-27T15:27:08Z</time>
      </trkpt>
      <trkpt lat="42.118002" lon="-6.66929">
        <ele>1018.64</ele>
        <time>2021-03-27T15:27:10Z</time>
      </trkpt>
      <trkpt lat="42.117857" lon="-6.669193">
        <ele>1018.31</ele>
        <time>2021-03-27T15:27:12Z</time>
      </trkpt>
      <trkpt lat="42.117727" lon="-6.669028">
        <ele>1020.12</ele>
        <time>2021-03-27T15:27:14Z</time>
      </trkpt>
      <trkpt lat="42.117641" lon="-6.668821">
        <ele>1022.51</ele>
        <time>2021-03-27T15:27:16Z</time>
      </trkpt>
      <trkpt lat="42.117613" lon="-6.668715">
        <ele>1022.95</ele>
        <time>2021-03-27T15:27:18Z</time>
      </trkpt>
      <trkpt lat="42.11731" lon="-6.668464">
        <ele>1018.74</ele>
        <time>2021-03-27T15:27:20Z</time>
      </trkpt>
      <trkpt lat="42.117144" lon="-6.668248">
        <ele>1015.98</ele>
        <time>2021-03-27T15:27:22Z</time>
      </trkpt>
      <trkpt lat="42.11694" lon="-6.668063">
        <ele>1013.89</ele>
        <time>2021-03-27T15:27:24Z</time>
      </trkpt>
      <trkpt lat="42.116818" lon="-6.667972">
        <ele>1013.22</ele>
        <time>2021-03-27T15:27:26Z</time>
      </trkpt>
      <trkpt lat="42.116509" lon="-6.667898">
        <ele>1011.13</ele>
        <time>2021-03-27T15:27:28Z</time>
      </trkpt>
      <trkpt lat="42.116362" lon="-6.667836">
        <ele>1010.9</ele>
        <time>2021-03-27T15:27:30Z</time>
      </trkpt>
      <trkpt lat="42.116286" lon="-6.667778">
        <ele>1010.88</ele>
        <time>2021-03-27T15:27:32Z</time>
      </trkpt>
      <trkpt lat="42.116172" lon="-6.667588">
        <ele>1012.4</ele>
        <time>2021-03-27T15:27:34Z</time>
      </trkpt>
      <trkpt lat="42.116141" lon="-6.667484">
        <ele>1013.54</ele>
        <time>2021-03-27T15:27:36Z</time>
      </trkpt>
      <trkpt lat="42.116056" lon="-6.667333">
        <ele>1014.77</ele>
        <time>2021-03-27T15:27:38Z</time>
      </trkpt>
      <trkpt lat="42.116006" lon="-6.667152">
        <ele>1015.99</ele>
        <time>2021-03-27T15:27:40Z</time>
      </trkpt>
      <trkpt lat="42.115856" lon="-6.666786">
        <ele>1016.47</ele>
        <time>2021-03-27T15:27:42Z</time>
      </trkpt>
      <trkpt lat="42.1158" lon="-6.666578">
        <ele>1017.17</ele>
        <time>2021-03-27T15:27:44Z</time>
      </trkpt>
      <trkpt lat="42.115781" lon="-6.666377">
        <ele>1018.32</ele>
        <time>2021-03-27T15:27:46Z</time>
      </trkpt>
      <trkpt lat="42.115794" lon="-6.666262">
        <ele>1019.28</ele>
        <time>2021-03-27T15:27:48Z</time>
      </trkpt>
      <trkpt lat="42.115924" lon="-6.665845">
        <ele>1021.33</ele>
        <time>2021-03-27T15:27:50Z</time>
      </trkpt>
      <trkpt lat="42.115869" lon="-6.665275">
        <ele>1021.38</ele>
        <time>2021-03-27T15:27:52Z</time>
      </trkpt>
      <trkpt lat="42.115848" lon="-6.661746">
        <ele>1026.16</ele>
        <time>2021-03-27T15:27:54Z</time>
      </trkpt>
      <trkpt lat="42.115859" lon="-6.661504">
        <ele>1027.44</ele>
        <time>2021-03-27T15:27:56Z</time>
      </trkpt>
      <trkpt lat="42.115891" lon="-6.661221">
        <ele>1029.96</ele>
        <time>2021-03-27T15:27:58Z</time>
      </trkpt>
      <trkpt lat="42.116125" lon="-6.659839">
        <ele>1031.49</ele>
        <time>2021-03-27T15:28:00Z</time>
      </trkpt>
      <trkpt lat="42.116167" lon="-6.659657">
        <ele>1030.96</ele>
        <time>2021-03-27T15:28:02Z</time>
      </trkpt>
      <trkpt lat="42.116222" lon="-6.659501">
        <ele>1030.6</ele>
        <time>2021-03-27T15:28:04Z</time>
      </trkpt>
      <trkpt lat="42.116534" lon="-6.658835">
        <ele>1030.13</ele>
        <time>2021-03-27T15:28:06Z</time>
      </trkpt>
      <trkpt lat="42.116619" lon="-6.658596">
        <ele>1028.01</ele>
        <time>2021-03-27T15:28:08Z</time>
      </trkpt>
      <trkpt lat="42.116867" lon="-6.65771">
        <ele>1021.62</ele>
        <time>2021-03-27T15:28:10Z</time>
      </trkpt>
      <trkpt lat="42.117133" lon="-6.657316">
        <ele>1019.44</ele>
        <time>2021-03-27T15:28:12Z</time>
      </trkpt>
      <trkpt lat="42.117274" lon="-6.657217">
        <ele>1018.79</ele>
        <time>2021-03-27T15:28:14Z</time>
      </trkpt>
      <trkpt lat="42.117424" lon="-6.65721">
        <ele>1018.2</ele>
        <time>2021-03-27T15:28:16Z</time>
      </trkpt>
      <trkpt lat="42.117699" lon="-6.657372">
        <ele>1018.03</ele>
        <time>2021-03-27T15:28:18Z</time>
      </trkpt>
      <trkpt lat="42.117866" lon="-6.657405">
        <ele>1017.98</ele>
        <time>2021-03-27T15:28:20Z</time>
      </trkpt>
      <trkpt lat="42.117921" lon="-6.657382">
        <ele>1017.73</ele>
        <time>2021-03-27T15:28:22Z</time>
      </trkpt>
      <trkpt lat="42.117964" lon="-6.657343">
        <ele>1017.3</ele>
        <time>2021-03-27T15:28:24Z</time>
      </trkpt>
      <trkpt lat="42.118193" lon="-6.65689">
        <ele>1013.99</ele>
        <time>2021-03-27T15:28:26Z</time>
      </trkpt>
      <trkpt lat="42.1183" lon="-6.656784">
        <ele>1013.98</ele>
        <time>2021-03-27T15:28:28Z</time>
      </trkpt>
      <trkpt lat="42.118943" lon="-6.656415">
        <ele>1009.76</ele>
        <time>2021-03-27T15:28:30Z</time>
      </trkpt>
      <trkpt lat="42.119121" lon="-6.656357">
        <ele>1008.21</ele>
        <time>2021-03-27T15:28:32Z</time>
      </trkpt>
      <trkpt lat="42.119256" lon="-6.656387">
        <ele>1006.7</ele>
        <time>2021-03-27T15:28:34Z</time>
      </trkpt>
      <trkpt lat="42.119315" lon="-6.656453">
        <ele>1006.12</ele>
        <time>2021-03-27T15:28:36Z</time>
      </trkpt>
      <trkpt lat="42.119364" lon="-6.656537">
        <ele>1005.91</ele>
        <time>2021-03-27T15:28:38Z</time>
      </trkpt>
      <trkpt lat="42.119471" lon="-6.656796">
        <ele>1005.8</ele>
        <time>2021-03-27T15:28:40Z</time>
      </trkpt>
      <trkpt lat="42.119597" lon="-6.657014">
        <ele>1006.09</ele>
        <time>2021-03-27T15:28:42Z</time>
      </trkpt>
      <trkpt lat="42.119665" lon="-6.657043">
        <ele>1006.19</ele>
        <time>2021-03-27T15:28:44Z</time>
      </trkpt>
      <trkpt lat="42.119796" lon="-6.657007">
        <ele>1005.73</ele>
        <time>2021-03-27T15:28:46Z</time>
      </trkpt>
      <trkpt lat="42.120059" lon="-6.656871">
        <ele>1004.41</ele>
        <time>2021-03-27T15:28:47Z</time>
      </trkpt>
      <trkpt lat="42.12013" lon="-6.656767">
        <ele>1003.42</ele>
        <time>2021-03-27T15:28:49Z</time>
      </trkpt>
      <trkpt lat="42.120182" lon="-6.655673">
        <ele>995.23</ele>
        <time>2021-03-27T15:28:51Z</time>
      </trkpt>
      <trkpt lat="42.120215" lon="-6.655491">
        <ele>993.8</ele>
        <time>2021-03-27T15:28:53Z</time>
      </trkpt>
      <trkpt lat="42.120339" lon="-6.655027">
        <ele>990.94</ele>
        <time>2021-03-27T15:28:55Z</time>
      </trkpt>
      <trkpt lat="42.120411" lon="-6.654873">
        <ele>990.07</ele>
        <time>2021-03-27T15:28:57Z</time>
      </trkpt>
      <trkpt lat="42.120478" lon="-6.654783">
        <ele>989.82</ele>
        <time>2021-03-27T15:28:59Z</time>
      </trkpt>
      <trkpt lat="42.120577" lon="-6.654689">
        <ele>989.51</ele>
        <time>2021-03-27T15:29:01Z</time>
      </trkpt>
      <trkpt lat="42.120794" lon="-6.654586">
        <ele>987.2</ele>
        <time>2021-03-27T15:29:03Z</time>
      </trkpt>
      <trkpt lat="42.120962" lon="-6.654629">
        <ele>986.6</ele>
        <time>2021-03-27T15:29:05Z</time>
      </trkpt>
      <trkpt lat="42.121233" lon="-6.654781">
        <ele>985.87</ele>
        <time>2021-03-27T15:29:07Z</time>
      </trkpt>
      <trkpt lat="42.121309" lon="-6.654766">
        <ele>984.22</ele>
        <time>2021-03-27T15:29:09Z</time>
      </trkpt>
      <trkpt lat="42.121359" lon="-6.654692">
        <ele>981.99</ele>
        <time>2021-03-27T15:29:11Z</time>
      </trkpt>
      <trkpt lat="42.121653" lon="-6.654052">
        <ele>973.15</ele>
        <time>2021-03-27T15:29:13Z</time>
      </trkpt>
      <trkpt lat="42.121643" lon="-6.653956">
        <ele>972.47</ele>
        <time>2021-03-27T15:29:17Z</time>
      </trkpt>
      <trkpt lat="42.121414" lon="-6.653594">
        <ele>971.94</ele>
        <time>2021-03-27T15:29:21Z</time>
      </trkpt>
      <trkpt lat="42.121299" lon="-6.653259">
        <ele>970.59</ele>
        <time>2021-03-27T15:29:25Z</time>
      </trkpt>
      <trkpt lat="42.121031" lon="-6.652688">
        <ele>968.94</ele>
        <time>2021-03-27T15:29:29Z</time>
      </trkpt>
      <trkpt lat="42.121042" lon="-6.652576">
        <ele>969.3</ele>
        <time>2021-03-27T15:29:33Z</time>
      </trkpt>
      <trkpt lat="42.121211" lon="-6.652378">
        <ele>970.12</ele>
        <time>2021-03-27T15:29:37Z</time>
      </trkpt>
      <trkpt lat="42.121315" lon="-6.652133">
        <ele>968.85</ele>
        <time>2021-03-27T15:29:40Z</time>
      </trkpt>
      <trkpt lat="42.121492" lon="-6.65187">
        <ele>967.28</ele>
        <time>2021-03-27T15:29:44Z</time>
      </trkpt>
      <trkpt lat="42.12154" lon="-6.651682">
        <ele>966.11</ele>
        <time>2021-03-27T15:29:48Z</time>
      </trkpt>
      <trkpt lat="42.121534" lon="-6.651584">
        <ele>965.86</ele>
        <time>2021-03-27T15:29:52Z</time>
      </trkpt>
      <trkpt lat="42.121504" lon="-6.651539">
        <ele>965.73</ele>
        <time>2021-03-27T15:29:56Z</time>
      </trkpt>
      <trkpt lat="42.121052" lon="-6.651088">
        <ele>966.0</ele>
        <time>2021-03-27T15:30:00Z</time>
      </trkpt>
      <trkpt lat="42.120545" lon="-6.650879">
        <ele>966.0</ele>
        <time>2021-03-27T15:30:04Z</time>
      </trkpt>
      <trkpt lat="42.120206" lon="-6.65082">
        <ele>965.79</ele>
        <time>2021-03-27T15:30:08Z</time>
      </trkpt>
      <trkpt lat="42.119893" lon="-6.650863">
        <ele>964.62</ele>
        <time>2021-03-27T15:30:12Z</time>
      </trkpt>
      <trkpt lat="42.119235" lon="-6.651267">
        <ele>966.19</ele>
        <time>2021-03-27T15:30:15Z</time>
      </trkpt>
      <trkpt lat="42.119148" lon="-6.651293">
        <ele>966.3</ele>
        <time>2021-03-27T15:30:19Z</time>
      </trkpt>
      <trkpt lat="42.118745" lon="-6.651299">
        <ele>965.65</ele>
        <time>2021-03-27T15:30:23Z</time>
      </trkpt>
      <trkpt lat="42.118613" lon="-6.651339">
        <ele>965.36</ele>
        <time>2021-03-27T15:30:27Z</time>
      </trkpt>
      <trkpt lat="42.117734" lon="-6.651862">
        <ele>965.37</ele>
        <time>2021-03-27T15:30:31Z</time>
      </trkpt>
      <trkpt lat="42.117601" lon="-6.651905">
        <ele>964.18</ele>
        <time>2021-03-27T15:30:35Z</time>
      </trkpt>
      <trkpt lat="42.116706" lon="-6.652059">
        <ele>958.6</ele>
        <time>2021-03-27T15:30:39Z</time>
      </trkpt>
      <trkpt lat="42.116366" lon="-6.652091">
        <ele>958.58</ele>
        <time>2021-03-27T15:30:43Z</time>
      </trkpt>
      <trkpt lat="42.114857" lon="-6.652133">
        <ele>956.32</ele>
        <time>2021-03-27T15:30:46Z</time>
      </trkpt>
      <trkpt lat="42.114372" lon="-6.651987">
        <ele>956.04</ele>
        <time>2021-03-27T15:30:50Z</time>
      </trkpt>
      <trkpt lat="42.113851" lon="-6.651763">
        <ele>953.35</ele>
        <time>2021-03-27T15:30:54Z</time>
      </trkpt>
      <trkpt lat="42.113529" lon="-6.651593">
        <ele>953.3</ele>
        <time>2021-03-27T15:30:58Z</time>
      </trkpt>
      <trkpt lat="42.113278" lon="-6.651429">
        <ele>953.8</ele>
        <time>2021-03-27T15:31:02Z</time>
      </trkpt>
      <trkpt lat="42.111603" lon="-6.650173">
        <ele>948.01</ele>
        <time>2021-03-27T15:31:06Z</time>
      </trkpt>
      <trkpt lat="42.111422" lon="-6.650049">
        <ele>947.78</ele>
        <time>2021-03-27T15:31:10Z</time>
      </trkpt>
      <trkpt lat="42.111283" lon="-6.649978">
        <ele>947.74</ele>
        <time>2021-03-27T15:31:14Z</time>
      </trkpt>
      <trkpt lat="42.111077" lon="-6.649939">
        <ele>947.19</ele>
        <time>2021-03-27T15:31:18Z</time>
      </trkpt>
      <trkpt lat="42.110317" lon="-6.650005">
        <ele>949.02</ele>
        <time>2021-03-27T15:31:21Z</time>
      </trkpt>
      <trkpt lat="42.109854" lon="-6.649987">
        <ele>948.43</ele>
        <time>2021-03-27T15:31:25Z</time>
      </trkpt>
      <trkpt lat="42.10942" lon="-6.649861">
        <ele>946.87</ele>
        <time>2021-03-27T15:31:29Z</time>
      </trkpt>
      <trkpt lat="42.107937" lon="-6.64931">
        <ele>941.66</ele>
        <time>2021-03-27T15:31:33Z</time>
      </trkpt>
      <trkpt lat="42.105625" lon="-6.648738">
        <ele>941.52</ele>
        <time>2021-03-27T15:31:37Z</time>
      </trkpt>
      <trkpt lat="42.105487" lon="-6.648675">
        <ele>941.77</ele>
        <time>2021-03-27T15:31:41Z</time>
      </trkpt>
      <trkpt lat="42.105317" lon="-6.648528">
        <ele>942.26</ele>
        <time>2021-03-27T15:31:45Z</time>
      </trkpt>
      <trkpt lat="42.105192" lon="-6.648365">
        <ele>942.88</ele>
        <time>2021-03-27T15:31:49Z</time>
      </trkpt>
      <trkpt lat="42.104918" lon="-6.647928">
        <ele>943.03</ele>
        <time>2021-03-27T15:31:52Z</time>
      </trkpt>
      <trkpt lat="42.104803" lon="-6.647791">
        <ele>942.78</ele>
        <time>2021-03-27T15:31:56Z</time>
      </trkpt>
      <trkpt lat="42.10466" lon="-6.647682">
        <ele>942.46</ele>
        <time>2021-03-27T15:32:00Z</time>
      </trkpt>
      <trkpt lat="42.104357" lon="-6.647533">
        <ele>941.55</ele>
        <time>2021-03-27T15:32:04Z</time>
      </trkpt>
      <trkpt lat="42.104246" lon="-6.647425">
        <ele>940.49</ele>
        <time>2021-03-27T15:32:08Z</time>
      </trkpt>
      <trkpt lat="42.104147" lon="-6.647292">
        <ele>939.33</ele>
        <time>2021-03-27T15:32:12Z</time>
      </trkpt>
      <trkpt lat="42.104024" lon="-6.647002">
        <ele>936.92</ele>
        <time>2021-03-27T15:32:16Z</time>
      </trkpt>
      <trkpt lat="42.103901" lon="-6.646633">
        <ele>934.48</ele>
        <time>2021-03-27T15:32:20Z</time>
      </trkpt>
      <trkpt lat="42.103613" lon="-6.645416">
        <ele>932.04</ele>
        <time>2021-03-27T15:32:23Z</time>
      </trkpt>
      <trkpt lat="42.103428" lon="-6.644726">
        <ele>931.34</ele>
        <time>2021-03-27T15:32:27Z</time>
      </trkpt>
      <trkpt lat="42.103172" lon="-6.644197">
        <ele>929.26</ele>
        <time>2021-03-27T15:32:31Z</time>
      </trkpt>
      <trkpt lat="42.102949" lon="-6.643866">
        <ele>928.26</ele>
        <time>2021-03-27T15:32:35Z</time>
      </trkpt>
      <trkpt lat="42.100951" lon="-6.641628">
        <ele>927.72</ele>
        <time>2021-03-27T15:32:39Z</time>
      </trkpt>
      <trkpt lat="42.100666" lon="-6.641215">
        <ele>928.63</ele>
        <time>2021-03-27T15:32:43Z</time>
      </trkpt>
      <trkpt lat="42.099581" lon="-6.639422">
        <ele>927.03</ele>
        <time>2021-03-27T15:32:47Z</time>
      </trkpt>
      <trkpt lat="42.099459" lon="-6.639281">
        <ele>926.66</ele>
        <time>2021-03-27T15:32:51Z</time>
      </trkpt>
      <trkpt lat="42.099282" lon="-6.63913">
        <ele>926.49</ele>
        <time>2021-03-27T15:32:55Z</time>
      </trkpt>
      <trkpt lat="42.099103" lon="-6.639022">
        <ele>926.4</ele>
        <time>2021-03-27T15:32:58Z</time>
      </trkpt>
      <trkpt lat="42.098889" lon="-6.638917">
        <ele>926.0</ele>
        <time>2021-03-27T15:33:02Z</time>
      </trkpt>
      <trkpt lat="42.098771" lon="-6.638882">
        <ele>925.56</ele>
        <time>2021-03-27T15:33:06Z</time>
      </trkpt>
      <trkpt lat="42.098394" lon="-6.638835">
        <ele>924.91</ele>
        <time>2021-03-27T15:33:10Z</time>
      </trkpt>
      <trkpt lat="42.098226" lon="-6.638787">
        <ele>925.39</ele>
        <time>2021-03-27T15:33:14Z</time>
      </trkpt>
      <trkpt lat="42.09762" lon="-6.638457">
        <ele>924.99</ele>
        <time>2021-03-27T15:33:18Z</time>
      </trkpt>
      <trkpt lat="42.097447" lon="-6.638377">
        <ele>924.84</ele>
        <time>2021-03-27T15:33:22Z</time>
      </trkpt>
      <trkpt lat="42.097263" lon="-6.63834">
        <ele>924.97</ele>
        <time>2021-03-27T15:33:26Z</time>
      </trkpt>
      <trkpt lat="42.096872" lon="-6.638325">
        <ele>925.02</ele>
        <time>2021-03-27T15:33:29Z</time>
      </trkpt>
      <trkpt lat="42.096733" lon="-6.638358">
        <ele>924.91</ele>
        <time>2021-03-27T15:33:33Z</time>
      </trkpt>
      <trkpt lat="42.096079" lon="-6.638598">
        <ele>922.05</ele>
        <time>2021-03-27T15:33:37Z</time>
      </trkpt>
      <trkpt lat="42.095741" lon="-6.638641">
        <ele>922.3</ele>
        <time>2021-03-27T15:33:41Z</time>
      </trkpt>
      <trkpt lat="42.095314" lon="-6.638641">
        <ele>922.02</ele>
        <time>2021-03-27T15:33:45Z</time>
      </trkpt>
      <trkpt lat="42.094537" lon="-6.6386">
        <ele>922.37</ele>
        <time>2021-03-27T15:33:49Z</time>
      </trkpt>
      <trkpt lat="42.094113" lon="-6.638538">
        <ele>922.0</ele>
        <time>2021-03-27T15:33:53Z</time>
      </trkpt>
      <trkpt lat="42.09334" lon="-6.638289">
        <ele>920.34</ele>
        <time>2021-03-27T15:33:57Z</time>
      </trkpt>
      <trkpt lat="42.093094" lon="-6.638171">
        <ele>920.66</ele>
        <time>2021-03-27T15:34:01Z</time>
      </trkpt>
      <trkpt lat="42.092584" lon="-6.637801">
        <ele>919.22</ele>
        <time>2021-03-27T15:34:04Z</time>
      </trkpt>
      <trkpt lat="42.092416" lon="-6.637645">
        <ele>919.62</ele>
        <time>2021-03-27T15:34:08Z</time>
      </trkpt>
      <trkpt lat="42.091692" lon="-6.637089">
        <ele>922.53</ele>
        <time>2021-03-27T15:34:12Z</time>
      </trkpt>
      <trkpt lat="42.091512" lon="-6.636978">
        <ele>922.39</ele>
        <time>2021-03-27T15:34:16Z</time>
      </trkpt>
      <trkpt lat="42.090954" lon="-6.63673">
        <ele>923.67</ele>
        <time>2021-03-27T15:34:20Z</time>
      </trkpt>
      <trkpt lat="42.090806" lon="-6.636696">
        <ele>923.98</ele>
        <time>2021-03-27T15:34:24Z</time>
      </trkpt>
      <trkpt lat="42.090455" lon="-6.636667">
        <ele>925.0</ele>
        <time>2021-03-27T15:34:28Z</time>
      </trkpt>
      <trkpt lat="42.08992" lon="-6.636675">
        <ele>926.19</ele>
        <time>2021-03-27T15:34:32Z</time>
      </trkpt>
      <trkpt lat="42.089372" lon="-6.636632">
        <ele>926.8</ele>
        <time>2021-03-27T15:34:35Z</time>
      </trkpt>
      <trkpt lat="42.087932" lon="-6.636354">
        <ele>923.68</ele>
        <time>2021-03-27T15:34:39Z</time>
      </trkpt>
      <trkpt lat="42.087735" lon="-6.63634">
        <ele>923.2</ele>
        <time>2021-03-27T15:34:43Z</time>
      </trkpt>
      <trkpt lat="42.087045" lon="-6.636528">
        <ele>923.63</ele>
        <time>2021-03-27T15:34:47Z</time>
      </trkpt>
      <trkpt lat="42.086971" lon="-6.636523">
        <ele>923.94</ele>
        <time>2021-03-27T15:34:51Z</time>
      </trkpt>
      <trkpt lat="42.086937" lon="-6.636487">
        <ele>924.26</ele>
        <time>2021-03-27T15:34:55Z</time>
      </trkpt>
      <trkpt lat="42.087686" lon="-6.635144">
        <ele>933.6</ele>
        <time>2021-03-27T15:34:59Z</time>
      </trkpt>
      <trkpt lat="42.087917" lon="-6.634689">
        <ele>938.68</ele>
        <time>2021-03-27T15:35:02Z</time>
      </trkpt>
      <trkpt lat="42.088003" lon="-6.634424">
        <ele>940.07</ele>
        <time>2021-03-27T15:35:06Z</time>
      </trkpt>
      <trkpt lat="42.088048" lon="-6.634196">
        <ele>940.89</ele>
        <time>2021-03-27T15:35:10Z</time>
      </trkpt>
      <trkpt lat="42.088167" lon="-6.633242">
        <ele>946.52</ele>
        <time>2021-03-27T15:35:14Z</time>
      </trkpt>
      <trkpt lat="42.088267" lon="-6.632713">
        <ele>953.23</ele>
        <time>2021-03-27T15:35:17Z</time>
      </trkpt>
      <trkpt lat="42.088371" lon="-6.632334">
        <ele>955.73</ele>
        <time>2021-03-27T15:35:21Z</time>
      </trkpt>
      <trkpt lat="42.088558" lon="-6.631798">
        <ele>956.0</ele>
        <time>2021-03-27T15:35:25Z</time>
      </trkpt>
      <trkpt lat="42.088834" lon="-6.631091">
        <ele>956.88</ele>
        <time>2021-03-27T15:35:29Z</time>
      </trkpt>
      <trkpt lat="42.088957" lon="-6.630865">
        <ele>957.94</ele>
        <time>2021-03-27T15:35:32Z</time>
      </trkpt>
      <trkpt lat="42.089059" lon="-6.630731">
        <ele>957.77</ele>
        <time>2021-03-27T15:35:36Z</time>
      </trkpt>
      <trkpt lat="42.089202" lon="-6.630584">
        <ele>957.61</ele>
        <time>2021-03-27T15:35:40Z</time>
      </trkpt>
      <trkpt lat="42.08949" lon="-6.630416">
        <ele>961.58</ele>
        <time>2021-03-27T15:35:44Z</time>
      </trkpt>
      <trkpt lat="42.094286" lon="-6.628087">
        <ele>994.11</ele>
        <time>2021-03-27T15:35:47Z</time>
      </trkpt>
      <trkpt lat="42.094917" lon="-6.627761">
        <ele>998.06</ele>
        <time>2021-03-27T15:35:51Z</time>
      </trkpt>
      <trkpt lat="42.095088" lon="-6.627613">
        <ele>999.35</ele>
        <time>2021-03-27T15:35:55Z</time>
      </trkpt>
      <trkpt lat="42.095267" lon="-6.627395">
        <ele>1000.52</ele>
        <time>2021-03-27T15:35:59Z</time>
      </trkpt>
      <trkpt lat="42.09542" lon="-6.627105">
        <ele>1001.83</ele>
        <time>2021-03-27T15:36:02Z</time>
      </trkpt>
      <trkpt lat="42.095511" lon="-6.626788">
        <ele>1001.58</ele>
        <time>2021-03-27T15:36:06Z</time>
      </trkpt>
      <trkpt lat="42.09566" lon="-6.626027">
        <ele>999.36</ele>
        <time>2021-03-27T15:36:10Z</time>
      </trkpt>
      <trkpt lat="42.095731" lon="-6.625798">
        <ele>1001.52</ele>
        <time>2021-03-27T15:36:14Z</time>
      </trkpt>
      <trkpt lat="42.095892" lon="-6.625412">
        <ele>1004.83</ele>
        <time>2021-03-27T15:36:18Z</time>
      </trkpt>
      <trkpt lat="42.096063" lon="-6.625068">
        <ele>1005.7</ele>
        <time>2021-03-27T15:36:21Z</time>
      </trkpt>
      <trkpt lat="42.096699" lon="-6.62511">
        <ele>1011.16</ele>
        <time>2021-03-27T15:36:24Z</time>
      </trkpt>
      <trkpt lat="42.097854" lon="-6.624935">
        <ele>1015.51</ele>
        <time>2021-03-27T15:36:28Z</time>
      </trkpt>
      <trkpt lat="42.098177" lon="-6.62493">
        <ele>1017.02</ele>
        <time>2021-03-27T15:36:31Z</time>
      </trkpt>
      <trkpt lat="42.098334" lon="-6.624958">
        <ele>1018.0</ele>
        <time>2021-03-27T15:36:34Z</time>
      </trkpt>
      <trkpt lat="42.100627" lon="-6.625702">
        <ele>1033.39</ele>
        <time>2021-03-27T15:36:37Z</time>
      </trkpt>
      <trkpt lat="42.100851" lon="-6.625737">
        <ele>1034.81</ele>
        <time>2021-03-27T15:36:40Z</time>
      </trkpt>
      <trkpt lat="42.10098" lon="-6.625728">
        <ele>1035.88</ele>
        <time>2021-03-27T15:36:43Z</time>
      </trkpt>
      <trkpt lat="42.101129" lon="-6.625691">
        <ele>1037.16</ele>
        <time>2021-03-27T15:36:46Z</time>
      </trkpt>
      <trkpt lat="42.101347" lon="-6.625572">
        <ele>1038.74</ele>
        <time>2021-03-27T15:36:50Z</time>
      </trkpt>
      <trkpt lat="42.102478" lon="-6.624475">
        <ele>1051.84</ele>
        <time>2021-03-27T15:36:53Z</time>
      </trkpt>
      <trkpt lat="42.10331" lon="-6.623744">
        <ele>1054.0</ele>
        <time>2021-03-27T15:36:56Z</time>
      </trkpt>
      <trkpt lat="42.103737" lon="-6.623323">
        <ele>1055.96</ele>
        <time>2021-03-27T15:36:59Z</time>
      </trkpt>
      <trkpt lat="42.104851" lon="-6.621958">
        <ele>1063.41</ele>
        <time>2021-03-27T15:37:02Z</time>
      </trkpt>
      <trkpt lat="42.106368" lon="-6.62002">
        <ele>1065.93</ele>
        <time>2021-03-27T15:37:05Z</time>
      </trkpt>
      <trkpt lat="42.106757" lon="-6.619547">
        <ele>1070.29</ele>
        <time>2021-03-27T15:37:08Z</time>
      </trkpt>
      <trkpt lat="42.107013" lon="-6.619268">
        <ele>1072.4</ele>
        <time>2021-03-27T15:37:12Z</time>
      </trkpt>
      <trkpt lat="42.107265" lon="-6.619038">
        <ele>1074.46</ele>
        <time>2021-03-27T15:37:15Z</time>
      </trkpt>
      <trkpt lat="42.108341" lon="-6.618328">
        <ele>1079.99</ele>
        <time>2021-03-27T15:37:18Z</time>
      </trkpt>
      <trkpt lat="42.108914" lon="-6.618002">
        <ele>1080.2</ele>
        <time>2021-03-27T15:37:21Z</time>
      </trkpt>
      <trkpt lat="42.109138" lon="-6.617819">
        <ele>1079.91</ele>
        <time>2021-03-27T15:37:24Z</time>
      </trkpt>
      <trkpt lat="42.10928" lon="-6.617671">
        <ele>1079.95</ele>
        <time>2021-03-27T15:37:27Z</time>
      </trkpt>
      <trkpt lat="42.109456" lon="-6.617398">
        <ele>1080.64</ele>
        <time>2021-03-27T15:37:31Z</time>
      </trkpt>
      <trkpt lat="42.109582" lon="-6.617086">
        <ele>1081.25</ele>
        <time>2021-03-27T15:37:34Z</time>
      </trkpt>
      <trkpt lat="42.10966" lon="-6.616737">
        <ele>1081.39</ele>
        <time>2021-03-27T15:37:37Z</time>
      </trkpt>
      <trkpt lat="42.109699" lon="-6.616449">
        <ele>1081.95</ele>
        <time>2021-03-27T15:37:40Z</time>
      </trkpt>
      <trkpt lat="42.109695" lon="-6.615915">
        <ele>1083.89</ele>
        <time>2021-03-27T15:37:43Z</time>
      </trkpt>
      <trkpt lat="42.109719" lon="-6.615608">
        <ele>1085.69</ele>
        <time>2021-03-27T15:37:46Z</time>
      </trkpt>
      <trkpt lat="42.109776" lon="-6.615351">
        <ele>1086.69</ele>
        <time>2021-03-27T15:37:49Z</time>
      </trkpt>
      <trkpt lat="42.109848" lon="-6.615149">
        <ele>1088.0</ele>
        <time>2021-03-27T15:37:53Z</time>
      </trkpt>
      <trkpt lat="42.110004" lon="-6.614885">
        <ele>1091.02</ele>
        <time>2021-03-27T15:37:56Z</time>
      </trkpt>
      <trkpt lat="42.110538" lon="-6.614152">
        <ele>1094.42</ele>
        <time>2021-03-27T15:37:59Z</time>
      </trkpt>
      <trkpt lat="42.110706" lon="-6.613839">
        <ele>1094.99</ele>
        <time>2021-03-27T15:38:02Z</time>
      </trkpt>
      <trkpt lat="42.110867" lon="-6.613474">
        <ele>1096.86</ele>
        <time>2021-03-27T15:38:05Z</time>
      </trkpt>
      <trkpt lat="42.110988" lon="-6.613059">
        <ele>1096.64</ele>
        <time>2021-03-27T15:38:08Z</time>
      </trkpt>
      <trkpt lat="42.111141" lon="-6.612446">
        <ele>1096.74</ele>
        <time>2021-03-27T15:38:11Z</time>
      </trkpt>
      <trkpt lat="42.111267" lon="-6.612043">
        <ele>1096.92</ele>
        <time>2021-03-27T15:38:15Z</time>
      </trkpt>
      <trkpt lat="42.111628" lon="-6.611211">
        <ele>1098.65</ele>
        <time>2021-03-27T15:38:18Z</time>
      </trkpt>
      <trkpt lat="42.111791" lon="-6.610885">
        <ele>1099.28</ele>
        <time>2021-03-27T15:38:21Z</time>
      </trkpt>
      <trkpt lat="42.11212" lon="-6.61043">
        <ele>1100.27</ele>
        <time>2021-03-27T15:38:24Z</time>
      </trkpt>
      <trkpt lat="42.112299" lon="-6.610254">
        <ele>1100.53</ele>
        <time>2021-03-27T15:38:27Z</time>
      </trkpt>
      <trkpt lat="42.112448" lon="-6.61014">
        <ele>1099.87</ele>
        <time>2021-03-27T15:38:30Z</time>
      </trkpt>
      <trkpt lat="42.112676" lon="-6.610021">
        <ele>1098.07</ele>
        <time>2021-03-27T15:38:33Z</time>
      </trkpt>
      <trkpt lat="42.113122" lon="-6.609885">
        <ele>1100.36</ele>
        <time>2021-03-27T15:38:37Z</time>
      </trkpt>
      <trkpt lat="42.113409" lon="-6.609882">
        <ele>1102.51</ele>
        <time>2021-03-27T15:38:40Z</time>
      </trkpt>
      <trkpt lat="42.113872" lon="-6.609973">
        <ele>1102.6</ele>
        <time>2021-03-27T15:38:43Z</time>
      </trkpt>
      <trkpt lat="42.114774" lon="-6.610244">
        <ele>1098.82</ele>
        <time>2021-03-27T15:38:46Z</time>
      </trkpt>
      <trkpt lat="42.114984" lon="-6.610244">
        <ele>1099.66</ele>
        <time>2021-03-27T15:38:49Z</time>
      </trkpt>
      <trkpt lat="42.115196" lon="-6.610201">
        <ele>1101.55</ele>
        <time>2021-03-27T15:38:52Z</time>
      </trkpt>
      <trkpt lat="42.115397" lon="-6.610125">
        <ele>1103.6</ele>
        <time>2021-03-27T15:38:55Z</time>
      </trkpt>
      <trkpt lat="42.115559" lon="-6.609986">
        <ele>1106.26</ele>
        <time>2021-03-27T15:38:59Z</time>
      </trkpt>
      <trkpt lat="42.115736" lon="-6.609802">
        <ele>1107.41</ele>
        <time>2021-03-27T15:39:02Z</time>
      </trkpt>
      <trkpt lat="42.115894" lon="-6.609508">
        <ele>1107.89</ele>
        <time>2021-03-27T15:39:05Z</time>
      </trkpt>
      <trkpt lat="42.116104" lon="-6.609">
        <ele>1103.77</ele>
        <time>2021-03-27T15:39:08Z</time>
      </trkpt>
      <trkpt lat="42.116251" lon="-6.608709">
        <ele>1102.27</ele>
        <time>2021-03-27T15:39:11Z</time>
      </trkpt>
      <trkpt lat="42.116437" lon="-6.608476">
        <ele>1101.27</ele>
        <time>2021-03-27T15:39:14Z</time>
      </trkpt>
      <trkpt lat="42.116541" lon="-6.608395">
        <ele>1100.67</ele>
        <time>2021-03-27T15:39:18Z</time>
      </trkpt>
      <trkpt lat="42.116787" lon="-6.608251">
        <ele>1100.18</ele>
        <time>2021-03-27T15:39:21Z</time>
      </trkpt>
      <trkpt lat="42.116981" lon="-6.6082">
        <ele>1099.44</ele>
        <time>2021-03-27T15:39:24Z</time>
      </trkpt>
      <trkpt lat="42.11737" lon="-6.608234">
        <ele>1099.6</ele>
        <time>2021-03-27T15:39:27Z</time>
      </trkpt>
      <trkpt lat="42.117959" lon="-6.608423">
        <ele>1101.32</ele>
        <time>2021-03-27T15:39:30Z</time>
      </trkpt>
      <trkpt lat="42.118172" lon="-6.608463">
        <ele>1101.45</ele>
        <time>2021-03-27T15:39:33Z</time>
      </trkpt>
      <trkpt lat="42.118337" lon="-6.608466">
        <ele>1100.55</ele>
        <time>2021-03-27T15:39:36Z</time>
      </trkpt>
      <trkpt lat="42.118696" lon="-6.608402">
        <ele>1100.8</ele>
        <time>2021-03-27T15:39:40Z</time>
      </trkpt>
      <trkpt lat="42.119033" lon="-6.608254">
        <ele>1104.89</ele>
        <time>2021-03-27T15:39:43Z</time>
      </trkpt>
      <trkpt lat="42.119338" lon="-6.60806">
        <ele>1107.94</ele>
        <time>2021-03-27T15:39:46Z</time>
      </trkpt>
      <trkpt lat="42.119575" lon="-6.607881">
        <ele>1108.14</ele>
        <time>2021-03-27T15:39:49Z</time>
      </trkpt>
      <trkpt lat="42.119781" lon="-6.607759">
        <ele>1108.22</ele>
        <time>2021-03-27T15:39:52Z</time>
      </trkpt>
      <trkpt lat="42.120113" lon="-6.607676">
        <ele>1110.02</ele>
        <time>2021-03-27T15:39:55Z</time>
      </trkpt>
      <trkpt lat="42.121027" lon="-6.607736">
        <ele>1110.17</ele>
        <time>2021-03-27T15:39:58Z</time>
      </trkpt>
      <trkpt lat="42.121336" lon="-6.607659">
        <ele>1107.81</ele>
        <time>2021-03-27T15:40:02Z</time>
      </trkpt>
      <trkpt lat="42.121503" lon="-6.607566">
        <ele>1106.96</ele>
        <time>2021-03-27T15:40:05Z</time>
      </trkpt>
      <trkpt lat="42.121787" lon="-6.607313">
        <ele>1106.58</ele>
        <time>2021-03-27T15:40:08Z</time>
      </trkpt>
      <trkpt lat="42.122066" lon="-6.606995">
        <ele>1109.01</ele>
        <time>2021-03-27T15:40:11Z</time>
      </trkpt>
      <trkpt lat="42.122434" lon="-6.606463">
        <ele>1113.05</ele>
        <time>2021-03-27T15:40:14Z</time>
      </trkpt>
      <trkpt lat="42.122606" lon="-6.606121">
        <ele>1113.22</ele>
        <time>2021-03-27T15:40:17Z</time>
      </trkpt>
      <trkpt lat="42.122691" lon="-6.605918">
        <ele>1112.73</ele>
        <time>2021-03-27T15:40:20Z</time>
      </trkpt>
      <trkpt lat="42.122787" lon="-6.605582">
        <ele>1111.42</ele>
        <time>2021-03-27T15:40:24Z</time>
      </trkpt>
      <trkpt lat="42.122855" lon="-6.60519">
        <ele>1112.65</ele>
        <time>2021-03-27T15:40:27Z</time>
      </trkpt>
      <trkpt lat="42.123239" lon="-6.60069">
        <ele>1112.03</ele>
        <time>2021-03-27T15:40:30Z</time>
      </trkpt>
      <trkpt lat="42.123341" lon="-6.600063">
        <ele>1112.11</ele>
        <time>2021-03-27T15:40:33Z</time>
      </trkpt>
      <trkpt lat="42.1235" lon="-6.599565">
        <ele>1115.81</ele>
        <time>2021-03-27T15:40:36Z</time>
      </trkpt>
      <trkpt lat="42.123709" lon="-6.599122">
        <ele>1120.64</ele>
        <time>2021-03-27T15:40:39Z</time>
      </trkpt>
      <trkpt lat="42.124235" lon="-6.598145">
        <ele>1122.72</ele>
        <time>2021-03-27T15:40:42Z</time>
      </trkpt>
      <trkpt lat="42.125048" lon="-6.59702">
        <ele>1126.9</ele>
        <time>2021-03-27T15:40:46Z</time>
      </trkpt>
      <trkpt lat="42.125251" lon="-6.596673">
        <ele>1129.29</ele>
        <time>2021-03-27T15:40:49Z</time>
      </trkpt>
      <trkpt lat="42.125349" lon="-6.596428">
        <ele>1129.46</ele>
        <time>2021-03-27T15:40:52Z</time>
      </trkpt>
      <trkpt lat="42.12542" lon="-6.596124">
        <ele>1130.32</ele>
        <time>2021-03-27T15:40:55Z</time>
      </trkpt>
      <trkpt lat="42.125484" lon="-6.595709">
        <ele>1129.69</ele>
        <time>2021-03-27T15:40:58Z</time>
      </trkpt>
      <trkpt lat="42.125503" lon="-6.595373">
        <ele>1128.59</ele>
        <time>2021-03-27T15:41:01Z</time>
      </trkpt>
      <trkpt lat="42.125484" lon="-6.59501">
        <ele>1128.56</ele>
        <time>2021-03-27T15:41:05Z</time>
      </trkpt>
      <trkpt lat="42.125434" lon="-6.594695">
        <ele>1128.92</ele>
        <time>2021-03-27T15:41:08Z</time>
      </trkpt>
      <trkpt lat="42.125364" lon="-6.594411">
        <ele>1129.24</ele>
        <time>2021-03-27T15:41:11Z</time>
      </trkpt>
      <trkpt lat="42.125221" lon="-6.594081">
        <ele>1129.23</ele>
        <time>2021-03-27T15:41:14Z</time>
      </trkpt>
      <trkpt lat="42.124167" lon="-6.59225">
        <ele>1125.19</ele>
        <time>2021-03-27T15:41:17Z</time>
      </trkpt>
      <trkpt lat="42.124048" lon="-6.591961">
        <ele>1124.34</ele>
        <time>2021-03-27T15:41:20Z</time>
      </trkpt>
      <trkpt lat="42.123955" lon="-6.591621">
        <ele>1121.26</ele>
        <time>2021-03-27T15:41:23Z</time>
      </trkpt>
      <trkpt lat="42.123878" lon="-6.59101">
        <ele>1116.48</ele>
        <time>2021-03-27T15:41:27Z</time>
      </trkpt>
      <trkpt lat="42.123611" lon="-6.587781">
        <ele>1110.0</ele>
        <time>2021-03-27T15:41:30Z</time>
      </trkpt>
      <trkpt lat="42.123576" lon="-6.587163">
        <ele>1109.26</ele>
        <time>2021-03-27T15:41:33Z</time>
      </trkpt>
      <trkpt lat="42.123593" lon="-6.586203">
        <ele>1102.41</ele>
        <time>2021-03-27T15:41:36Z</time>
      </trkpt>
      <trkpt lat="42.123686" lon="-6.585491">
        <ele>1102.4</ele>
        <time>2021-03-27T15:41:39Z</time>
      </trkpt>
      <trkpt lat="42.123753" lon="-6.58514">
        <ele>1104.48</ele>
        <time>2021-03-27T15:41:42Z</time>
      </trkpt>
      <trkpt lat="42.12387" lon="-6.584734">
        <ele>1106.09</ele>
        <time>2021-03-27T15:41:45Z</time>
      </trkpt>
      <trkpt lat="42.124047" lon="-6.584197">
        <ele>1105.81</ele>
        <time>2021-03-27T15:41:49Z</time>
      </trkpt>
      <trkpt lat="42.124303" lon="-6.583591">
        <ele>1105.85</ele>
        <time>2021-03-27T15:41:52Z</time>
      </trkpt>
      <trkpt lat="42.127088" lon="-6.577292">
        <ele>1080.75</ele>
        <time>2021-03-27T15:41:55Z</time>
      </trkpt>
      <trkpt lat="42.127264" lon="-6.576842">
        <ele>1080.86</ele>
        <time>2021-03-27T15:41:58Z</time>
      </trkpt>
      <trkpt lat="42.127401" lon="-6.57639">
        <ele>1076.36</ele>
        <time>2021-03-27T15:42:01Z</time>
      </trkpt>
      <trkpt lat="42.127507" lon="-6.575936">
        <ele>1075.64</ele>
        <time>2021-03-27T15:42:04Z</time>
      </trkpt>
      <trkpt lat="42.127558" lon="-6.575544">
        <ele>1076.21</ele>
        <time>2021-03-27T15:42:07Z</time>
      </trkpt>
      <trkpt lat="42.127596" lon="-6.575066">
        <ele>1076.08</ele>
        <time>2021-03-27T15:42:11Z</time>
      </trkpt>
      <trkpt lat="42.127585" lon="-6.574657">
        <ele>1075.6</ele>
        <time>2021-03-27T15:42:14Z</time>
      </trkpt>
      <trkpt lat="42.127513" lon="-6.573916">
        <ele>1071.28</ele>
        <time>2021-03-27T15:42:17Z</time>
      </trkpt>
      <trkpt lat="42.127231" lon="-6.572108">
        <ele>1069.87</ele>
        <time>2021-03-27T15:42:20Z</time>
      </trkpt>
      <trkpt lat="42.127202" lon="-6.571657">
        <ele>1070.65</ele>
        <time>2021-03-27T15:42:23Z</time>
      </trkpt>
      <trkpt lat="42.127203" lon="-6.571281">
        <ele>1068.5</ele>
        <time>2021-03-27T15:42:26Z</time>
      </trkpt>
      <trkpt lat="42.127267" lon="-6.570754">
        <ele>1067.0</ele>
        <time>2021-03-27T15:42:30Z</time>
      </trkpt>
      <trkpt lat="42.12733" lon="-6.570396">
        <ele>1067.57</ele>
        <time>2021-03-27T15:42:33Z</time>
      </trkpt>
      <trkpt lat="42.127398" lon="-6.570144">
        <ele>1068.66</ele>
        <time>2021-03-27T15:42:35Z</time>
      </trkpt>
      <trkpt lat="42.127587" lon="-6.569583">
        <ele>1066.53</ele>
        <time>2021-03-27T15:42:38Z</time>
      </trkpt>
      <trkpt lat="42.128191" lon="-6.568023">
        <ele>1057.36</ele>
        <time>2021-03-27T15:42:41Z</time>
      </trkpt>
      <trkpt lat="42.128435" lon="-6.567475">
        <ele>1051.9</ele>
        <time>2021-03-27T15:42:44Z</time>
      </trkpt>
      <trkpt lat="42.128644" lon="-6.567126">
        <ele>1049.96</ele>
        <time>2021-03-27T15:42:47Z</time>
      </trkpt>
      <trkpt lat="42.128907" lon="-6.566782">
        <ele>1049.57</ele>
        <time>2021-03-27T15:42:50Z</time>
      </trkpt>
      <trkpt lat="42.130253" lon="-6.565153">
        <ele>1045.54</ele>
        <time>2021-03-27T15:42:53Z</time>
      </trkpt>
      <trkpt lat="42.131101" lon="-6.564155">
        <ele>1051.04</ele>
        <time>2021-03-27T15:42:56Z</time>
      </trkpt>
      <trkpt lat="42.131354" lon="-6.563913">
        <ele>1051.91</ele>
        <time>2021-03-27T15:42:59Z</time>
      </trkpt>
      <trkpt lat="42.1316" lon="-6.563727">
        <ele>1054.82</ele>
        <time>2021-03-27T15:43:02Z</time>
      </trkpt>
      <trkpt lat="42.132019" lon="-6.563501">
        <ele>1058.61</ele>
        <time>2021-03-27T15:43:05Z</time>
      </trkpt>
      <trkpt lat="42.133774" lon="-6.562865">
        <ele>1069.14</ele>
        <time>2021-03-27T15:43:08Z</time>
      </trkpt>
      <trkpt lat="42.134067" lon="-6.562699">
        <ele>1071.85</ele>
        <time>2021-03-27T15:43:10Z</time>
      </trkpt>
      <trkpt lat="42.134901" lon="-6.562105">
        <ele>1076.07</ele>
        <time>2021-03-27T15:43:13Z</time>
      </trkpt>
      <trkpt lat="42.13533" lon="-6.561828">
        <ele>1078.69</ele>
        <time>2021-03-27T15:43:16Z</time>
      </trkpt>
      <trkpt lat="42.135564" lon="-6.561629">
        <ele>1081.04</ele>
        <time>2021-03-27T15:43:19Z</time>
      </trkpt>
      <trkpt lat="42.135649" lon="-6.561469">
        <ele>1081.57</ele>
        <time>2021-03-27T15:43:22Z</time>
      </trkpt>
      <trkpt lat="42.13585" lon="-6.560904">
        <ele>1084.06</ele>
        <time>2021-03-27T15:43:25Z</time>
      </trkpt>
      <trkpt lat="42.136056" lon="-6.56013">
        <ele>1084.8</ele>
        <time>2021-03-27T15:43:28Z</time>
      </trkpt>
      <trkpt lat="42.136072" lon="-6.559853">
        <ele>1084.86</ele>
        <time>2021-03-27T15:43:31Z</time>
      </trkpt>
      <trkpt lat="42.136036" lon="-6.559183">
        <ele>1084.0</ele>
        <time>2021-03-27T15:43:34Z</time>
      </trkpt>
      <trkpt lat="42.135713" lon="-6.555928">
        <ele>1084.71</ele>
        <time>2021-03-27T15:43:37Z</time>
      </trkpt>
      <trkpt lat="42.135694" lon="-6.555479">
        <ele>1083.22</ele>
        <time>2021-03-27T15:43:40Z</time>
      </trkpt>
      <trkpt lat="42.135727" lon="-6.555235">
        <ele>1082.08</ele>
        <time>2021-03-27T15:43:43Z</time>
      </trkpt>
      <trkpt lat="42.135813" lon="-6.555008">
        <ele>1080.13</ele>
        <time>2021-03-27T15:43:45Z</time>
      </trkpt>
      <trkpt lat="42.135943" lon="-6.554826">
        <ele>1080.15</ele>
        <time>2021-03-27T15:43:48Z</time>
      </trkpt>
      <trkpt lat="42.136103" lon="-6.554702">
        <ele>1079.93</ele>
        <time>2021-03-27T15:43:51Z</time>
      </trkpt>
      <trkpt lat="42.13624" lon="-6.554638">
        <ele>1079.88</ele>
        <time>2021-03-27T15:43:54Z</time>
      </trkpt>
      <trkpt lat="42.136735" lon="-6.5545">
        <ele>1079.7</ele>
        <time>2021-03-27T15:43:57Z</time>
      </trkpt>
      <trkpt lat="42.136852" lon="-6.554442">
        <ele>1079.66</ele>
        <time>2021-03-27T15:44:00Z</time>
      </trkpt>
      <trkpt lat="42.136919" lon="-6.554367">
        <ele>1079.63</ele>
        <time>2021-03-27T15:44:03Z</time>
      </trkpt>
      <trkpt lat="42.136976" lon="-6.554212">
        <ele>1079.3</ele>
        <time>2021-03-27T15:44:06Z</time>
      </trkpt>
      <trkpt lat="42.136989" lon="-6.554048">
        <ele>1078.73</ele>
        <time>2021-03-27T15:44:09Z</time>
      </trkpt>
      <trkpt lat="42.136959" lon="-6.553848">
        <ele>1078.05</ele>
        <time>2021-03-27T15:44:12Z</time>
      </trkpt>
      <trkpt lat="42.136905" lon="-6.55371">
        <ele>1077.86</ele>
        <time>2021-03-27T15:44:15Z</time>
      </trkpt>
      <trkpt lat="42.13683" lon="-6.55358">
        <ele>1077.7</ele>
        <time>2021-03-27T15:44:18Z</time>
      </trkpt>
      <trkpt lat="42.136503" lon="-6.553171">
        <ele>1078.58</ele>
        <time>2021-03-27T15:44:20Z</time>
      </trkpt>
      <trkpt lat="42.136147" lon="-6.552678">
        <ele>1080.85</ele>
        <time>2021-03-27T15:44:23Z</time>
      </trkpt>
      <trkpt lat="42.135789" lon="-6.552131">
        <ele>1082.33</ele>
        <time>2021-03-27T15:44:26Z</time>
      </trkpt>
      <trkpt lat="42.1356" lon="-6.55181">
        <ele>1083.21</ele>
        <time>2021-03-27T15:44:29Z</time>
      </trkpt>
      <trkpt lat="42.134386" lon="-6.549315">
        <ele>1081.75</ele>
        <time>2021-03-27T15:44:32Z</time>
      </trkpt>
      <trkpt lat="42.133317" lon="-6.547041">
        <ele>1077.67</ele>
        <time>2021-03-27T15:44:35Z</time>
      </trkpt>
      <trkpt lat="42.133251" lon="-6.546874">
        <ele>1076.57</ele>
        <time>2021-03-27T15:44:38Z</time>
      </trkpt>
      <trkpt lat="42.133185" lon="-6.546625">
        <ele>1075.45</ele>
        <time>2021-03-27T15:44:41Z</time>
      </trkpt>
      <trkpt lat="42.133201" lon="-6.546375">
        <ele>1074.95</ele>
        <time>2021-03-27T15:44:44Z</time>
      </trkpt>
      <trkpt lat="42.133253" lon="-6.546245">
        <ele>1074.48</ele>
        <time>2021-03-27T15:44:47Z</time>
      </trkpt>
      <trkpt lat="42.133356" lon="-6.54617">
        <ele>1074.05</ele>
        <time>2021-03-27T15:44:50Z</time>
      </trkpt>
      <trkpt lat="42.133475" lon="-6.546176">
        <ele>1073.21</ele>
        <time>2021-03-27T15:44:53Z</time>
      </trkpt>
      <trkpt lat="42.133585" lon="-6.546239">
        <ele>1072.65</ele>
        <time>2021-03-27T15:44:55Z</time>
      </trkpt>
      <trkpt lat="42.133677" lon="-6.546377">
        <ele>1071.28</ele>
        <time>2021-03-27T15:44:58Z</time>
      </trkpt>
      <trkpt lat="42.133921" lon="-6.546829">
        <ele>1070.94</ele>
        <time>2021-03-27T15:45:01Z</time>
      </trkpt>
      <trkpt lat="42.13425" lon="-6.547309">
        <ele>1067.64</ele>
        <time>2021-03-27T15:45:04Z</time>
      </trkpt>
      <trkpt lat="42.134434" lon="-6.547536">
        <ele>1065.78</ele>
        <time>2021-03-27T15:45:07Z</time>
      </trkpt>
      <trkpt lat="42.13457" lon="-6.547661">
        <ele>1064.67</ele>
        <time>2021-03-27T15:45:10Z</time>
      </trkpt>
      <trkpt lat="42.13475" lon="-6.547785">
        <ele>1063.66</ele>
        <time>2021-03-27T15:45:13Z</time>
      </trkpt>
      <trkpt lat="42.135273" lon="-6.54806">
        <ele>1064.1</ele>
        <time>2021-03-27T15:45:16Z</time>
      </trkpt>
      <trkpt lat="42.135465" lon="-6.548104">
        <ele>1062.41</ele>
        <time>2021-03-27T15:45:19Z</time>
      </trkpt>
      <trkpt lat="42.135764" lon="-6.548122">
        <ele>1058.69</ele>
        <time>2021-03-27T15:45:22Z</time>
      </trkpt>
      <trkpt lat="42.136491" lon="-6.548212">
        <ele>1056.71</ele>
        <time>2021-03-27T15:45:25Z</time>
      </trkpt>
      <trkpt lat="42.136641" lon="-6.548203">
        <ele>1057.45</ele>
        <time>2021-03-27T15:45:28Z</time>
      </trkpt>
      <trkpt lat="42.136907" lon="-6.548093">
        <ele>1054.9</ele>
        <time>2021-03-27T15:45:31Z</time>
      </trkpt>
      <trkpt lat="42.137499" lon="-6.547687">
        <ele>1051.7</ele>
        <time>2021-03-27T15:45:33Z</time>
      </trkpt>
      <trkpt lat="42.13754" lon="-6.547644">
        <ele>1051.44</ele>
        <time>2021-03-27T15:45:36Z</time>
      </trkpt>
      <trkpt lat="42.137578" lon="-6.547534">
        <ele>1050.3</ele>
        <time>2021-03-27T15:45:39Z</time>
      </trkpt>
      <trkpt lat="42.137644" lon="-6.547454">
        <ele>1050.06</ele>
        <time>2021-03-27T15:45:42Z</time>
      </trkpt>
      <trkpt lat="42.137779" lon="-6.547349">
        <ele>1049.83</ele>
        <time>2021-03-27T15:45:45Z</time>
      </trkpt>
      <trkpt lat="42.137948" lon="-6.547258">
        <ele>1048.52</ele>
        <time>2021-03-27T15:45:48Z</time>
      </trkpt>
      <trkpt lat="42.138092" lon="-6.547209">
        <ele>1047.56</ele>
        <time>2021-03-27T15:45:51Z</time>
      </trkpt>
      <trkpt lat="42.138173" lon="-6.547203">
        <ele>1046.94</ele>
        <time>2021-03-27T15:45:54Z</time>
      </trkpt>
      <trkpt lat="42.138322" lon="-6.547251">
        <ele>1046.49</ele>
        <time>2021-03-27T15:45:57Z</time>
      </trkpt>
      <trkpt lat="42.138416" lon="-6.54724">
        <ele>1046.28</ele>
        <time>2021-03-27T15:46:00Z</time>
      </trkpt>
      <trkpt lat="42.13851" lon="-6.547151">
        <ele>1045.65</ele>
        <time>2021-03-27T15:46:03Z</time>
      </trkpt>
      <trkpt lat="42.138603" lon="-6.547111">
        <ele>1045.59</ele>
        <time>2021-03-27T15:46:06Z</time>
      </trkpt>
      <trkpt lat="42.138769" lon="-6.547098">
        <ele>1046.94</ele>
        <time>2021-03-27T15:46:08Z</time>
      </trkpt>
      <trkpt lat="42.139342" lon="-6.54737">
        <ele>1052.62</ele>
        <time>2021-03-27T15:46:11Z</time>
      </trkpt>
      <trkpt lat="42.139731" lon="-6.547487">
        <ele>1053.93</ele>
        <time>2021-03-27T15:46:14Z</time>
      </trkpt>
      <trkpt lat="42.140123" lon="-6.547416">
        <ele>1052.88</ele>
        <time>2021-03-27T15:46:17Z</time>
      </trkpt>
      <trkpt lat="42.140525" lon="-6.547506">
        <ele>1054.72</ele>
        <time>2021-03-27T15:46:20Z</time>
      </trkpt>
      <trkpt lat="42.141282" lon="-6.547479">
        <ele>1058.76</ele>
        <time>2021-03-27T15:46:23Z</time>
      </trkpt>
      <trkpt lat="42.141692" lon="-6.547534">
        <ele>1060.51</ele>
        <time>2021-03-27T15:46:26Z</time>
      </trkpt>
      <trkpt lat="42.142098" lon="-6.547644">
        <ele>1061.62</ele>
        <time>2021-03-27T15:46:29Z</time>
      </trkpt>
      <trkpt lat="42.142498" lon="-6.547815">
        <ele>1065.43</ele>
        <time>2021-03-27T15:46:32Z</time>
      </trkpt>
      <trkpt lat="42.142847" lon="-6.548002">
        <ele>1068.57</ele>
        <time>2021-03-27T15:46:35Z</time>
      </trkpt>
      <trkpt lat="42.143279" lon="-6.548287">
        <ele>1070.92</ele>
        <time>2021-03-27T15:46:38Z</time>
      </trkpt>
      <trkpt lat="42.143388" lon="-6.548338">
        <ele>1070.92</ele>
        <time>2021-03-27T15:46:41Z</time>
      </trkpt>
      <trkpt lat="42.143586" lon="-6.548351">
        <ele>1070.74</ele>
        <time>2021-03-27T15:46:43Z</time>
      </trkpt>
      <trkpt lat="42.143836" lon="-6.548282">
        <ele>1074.23</ele>
        <time>2021-03-27T15:46:46Z</time>
      </trkpt>
      <trkpt lat="42.14411" lon="-6.548135">
        <ele>1077.19</ele>
        <time>2021-03-27T15:46:49Z</time>
      </trkpt>
      <trkpt lat="42.144387" lon="-6.54794">
        <ele>1078.28</ele>
        <time>2021-03-27T15:46:52Z</time>
      </trkpt>
      <trkpt lat="42.144484" lon="-6.547799">
        <ele>1079.41</ele>
        <time>2021-03-27T15:46:55Z</time>
      </trkpt>
      <trkpt lat="42.144607" lon="-6.547521">
        <ele>1082.14</ele>
        <time>2021-03-27T15:46:58Z</time>
      </trkpt>
      <trkpt lat="42.144901" lon="-6.546704">
        <ele>1087.51</ele>
        <time>2021-03-27T15:47:01Z</time>
      </trkpt>
      <trkpt lat="42.145074" lon="-6.546333">
        <ele>1087.36</ele>
        <time>2021-03-27T15:47:04Z</time>
      </trkpt>
      <trkpt lat="42.145202" lon="-6.546178">
        <ele>1087.38</ele>
        <time>2021-03-27T15:47:07Z</time>
      </trkpt>
      <trkpt lat="42.145352" lon="-6.546069">
        <ele>1088.11</ele>
        <time>2021-03-27T15:47:10Z</time>
      </trkpt>
      <trkpt lat="42.145602" lon="-6.545967">
        <ele>1091.96</ele>
        <time>2021-03-27T15:47:13Z</time>
      </trkpt>
      <trkpt lat="42.145732" lon="-6.545992">
        <ele>1094.4</ele>
        <time>2021-03-27T15:47:16Z</time>
      </trkpt>
      <trkpt lat="42.145836" lon="-6.546087">
        <ele>1096.11</ele>
        <time>2021-03-27T15:47:18Z</time>
      </trkpt>
      <trkpt lat="42.14589" lon="-6.546263">
        <ele>1096.07</ele>
        <time>2021-03-27T15:47:21Z</time>
      </trkpt>
      <trkpt lat="42.146034" lon="-6.547055">
        <ele>1095.49</ele>
        <time>2021-03-27T15:47:24Z</time>
      </trkpt>
      <trkpt lat="42.146161" lon="-6.547324">
        <ele>1096.35</ele>
        <time>2021-03-27T15:47:27Z</time>
      </trkpt>
      <trkpt lat="42.146453" lon="-6.547755">
        <ele>1098.81</ele>
        <time>2021-03-27T15:47:30Z</time>
      </trkpt>
      <trkpt lat="42.14689" lon="-6.548217">
        <ele>1102.84</ele>
        <time>2021-03-27T15:47:33Z</time>
      </trkpt>
      <trkpt lat="42.14731" lon="-6.548552">
        <ele>1104.9</ele>
        <time>2021-03-27T15:47:36Z</time>
      </trkpt>
      <trkpt lat="42.147681" lon="-6.548801">
        <ele>1108.66</ele>
        <time>2021-03-27T15:47:39Z</time>
      </trkpt>
      <trkpt lat="42.148166" lon="-6.549069">
        <ele>1112.71</ele>
        <time>2021-03-27T15:47:42Z</time>
      </trkpt>
      <trkpt lat="42.148502" lon="-6.549197">
        <ele>1111.5</ele>
        <time>2021-03-27T15:47:45Z</time>
      </trkpt>
      <trkpt lat="42.14876" lon="-6.549229">
        <ele>1111.85</ele>
        <time>2021-03-27T15:47:48Z</time>
      </trkpt>
      <trkpt lat="42.149025" lon="-6.549201">
        <ele>1114.78</ele>
        <time>2021-03-27T15:47:51Z</time>
      </trkpt>
      <trkpt lat="42.149639" lon="-6.54906">
        <ele>1120.33</ele>
        <time>2021-03-27T15:47:53Z</time>
      </trkpt>
      <trkpt lat="42.149864" lon="-6.549035">
        <ele>1121.75</ele>
        <time>2021-03-27T15:47:56Z</time>
      </trkpt>
      <trkpt lat="42.150575" lon="-6.549126">
        <ele>1125.93</ele>
        <time>2021-03-27T15:47:59Z</time>
      </trkpt>
      <trkpt lat="42.151096" lon="-6.549248">
        <ele>1128.6</ele>
        <time>2021-03-27T15:48:02Z</time>
      </trkpt>
      <trkpt lat="42.152727" lon="-6.54989">
        <ele>1134.6</ele>
        <time>2021-03-27T15:48:05Z</time>
      </trkpt>
      <trkpt lat="42.156894" lon="-6.551441">
        <ele>1149.63</ele>
        <time>2021-03-27T15:48:08Z</time>
      </trkpt>
      <trkpt lat="42.15718" lon="-6.551642">
        <ele>1150.79</ele>
        <time>2021-03-27T15:48:11Z</time>
      </trkpt>
      <trkpt lat="42.157312" lon="-6.55177">
        <ele>1152.22</ele>
        <time>2021-03-27T15:48:14Z</time>
      </trkpt>
      <trkpt lat="42.157958" lon="-6.55251">
        <ele>1155.96</ele>
        <time>2021-03-27T15:48:17Z</time>
      </trkpt>
      <trkpt lat="42.158497" lon="-6.553077">
        <ele>1153.28</ele>
        <time>2021-03-27T15:48:20Z</time>
      </trkpt>
      <trkpt lat="42.158742" lon="-6.553312">
        <ele>1151.63</ele>
        <time>2021-03-27T15:48:23Z</time>
      </trkpt>
      <trkpt lat="42.158942" lon="-6.553437">
        <ele>1151.06</ele>
        <time>2021-03-27T15:48:26Z</time>
      </trkpt>
      <trkpt lat="42.159088" lon="-6.553481">
        <ele>1150.22</ele>
        <time>2021-03-27T15:48:29Z</time>
      </trkpt>
      <trkpt lat="42.159451" lon="-6.553519">
        <ele>1151.05</ele>
        <time>2021-03-27T15:48:31Z</time>
      </trkpt>
      <trkpt lat="42.159609" lon="-6.553575">
        <ele>1152.18</ele>
        <time>2021-03-27T15:48:34Z</time>
      </trkpt>
      <trkpt lat="42.159732" lon="-6.553665">
        <ele>1153.45</ele>
        <time>2021-03-27T15:48:37Z</time>
      </trkpt>
      <trkpt lat="42.159896" lon="-6.553877">
        <ele>1155.56</ele>
        <time>2021-03-27T15:48:40Z</time>
      </trkpt>
      <trkpt lat="42.159968" lon="-6.553912">
        <ele>1155.81</ele>
        <time>2021-03-27T15:48:43Z</time>
      </trkpt>
      <trkpt lat="42.160108" lon="-6.553951">
        <ele>1156.25</ele>
        <time>2021-03-27T15:48:46Z</time>
      </trkpt>
      <trkpt lat="42.160763" lon="-6.554042">
        <ele>1160.9</ele>
        <time>2021-03-27T15:48:49Z</time>
      </trkpt>
      <trkpt lat="42.161231" lon="-6.554135">
        <ele>1163.48</ele>
        <time>2021-03-27T15:48:52Z</time>
      </trkpt>
      <trkpt lat="42.161527" lon="-6.554238">
        <ele>1164.75</ele>
        <time>2021-03-27T15:48:55Z</time>
      </trkpt>
      <trkpt lat="42.161742" lon="-6.554379">
        <ele>1167.95</ele>
        <time>2021-03-27T15:48:58Z</time>
      </trkpt>
      <trkpt lat="42.161918" lon="-6.554551">
        <ele>1171.98</ele>
        <time>2021-03-27T15:49:01Z</time>
      </trkpt>
      <trkpt lat="42.16209" lon="-6.554783">
        <ele>1175.32</ele>
        <time>2021-03-27T15:49:04Z</time>
      </trkpt>
      <trkpt lat="42.162682" lon="-6.555784">
        <ele>1186.33</ele>
        <time>2021-03-27T15:49:06Z</time>
      </trkpt>
      <trkpt lat="42.162848" lon="-6.555973">
        <ele>1187.24</ele>
        <time>2021-03-27T15:49:09Z</time>
      </trkpt>
      <trkpt lat="42.163007" lon="-6.556062">
        <ele>1187.18</ele>
        <time>2021-03-27T15:49:12Z</time>
      </trkpt>
      <trkpt lat="42.163202" lon="-6.556099">
        <ele>1188.14</ele>
        <time>2021-03-27T15:49:15Z</time>
      </trkpt>
      <trkpt lat="42.163458" lon="-6.556068">
        <ele>1189.82</ele>
        <time>2021-03-27T15:49:18Z</time>
      </trkpt>
      <trkpt lat="42.164131" lon="-6.555794">
        <ele>1199.91</ele>
        <time>2021-03-27T15:49:21Z</time>
      </trkpt>
      <trkpt lat="42.164411" lon="-6.55566">
        <ele>1204.52</ele>
        <time>2021-03-27T15:49:24Z</time>
      </trkpt>
      <trkpt lat="42.166028" lon="-6.554558">
        <ele>1227.58</ele>
        <time>2021-03-27T15:49:27Z</time>
      </trkpt>
      <trkpt lat="42.166247" lon="-6.55444">
        <ele>1232.0</ele>
        <time>2021-03-27T15:49:30Z</time>
      </trkpt>
      <trkpt lat="42.166445" lon="-6.554398">
        <ele>1235.52</ele>
        <time>2021-03-27T15:49:33Z</time>
      </trkpt>
      <trkpt lat="42.166615" lon="-6.554406">
        <ele>1239.05</ele>
        <time>2021-03-27T15:49:36Z</time>
      </trkpt>
      <trkpt lat="42.167068" lon="-6.554595">
        <ele>1244.34</ele>
        <time>2021-03-27T15:49:39Z</time>
      </trkpt>
      <trkpt lat="42.16814" lon="-6.555146">
        <ele>1255.02</ele>
        <time>2021-03-27T15:49:41Z</time>
      </trkpt>
      <trkpt lat="42.168538" lon="-6.55541">
        <ele>1259.9</ele>
        <time>2021-03-27T15:49:44Z</time>
      </trkpt>
      <trkpt lat="42.168783" lon="-6.55568">
        <ele>1262.16</ele>
        <time>2021-03-27T15:49:47Z</time>
      </trkpt>
      <trkpt lat="42.168922" lon="-6.555936">
        <ele>1264.4</ele>
        <time>2021-03-27T15:49:50Z</time>
      </trkpt>
      <trkpt lat="42.169146" lon="-6.556521">
        <ele>1270.93</ele>
        <time>2021-03-27T15:49:53Z</time>
      </trkpt>
      <trkpt lat="42.169243" lon="-6.556718">
        <ele>1274.79</ele>
        <time>2021-03-27T15:49:56Z</time>
      </trkpt>
      <trkpt lat="42.169621" lon="-6.557211">
        <ele>1282.2</ele>
        <time>2021-03-27T15:49:59Z</time>
      </trkpt>
      <trkpt lat="42.169928" lon="-6.557473">
        <ele>1283.38</ele>
        <time>2021-03-27T15:50:02Z</time>
      </trkpt>
      <trkpt lat="42.172424" lon="-6.559237">
        <ele>1311.67</ele>
        <time>2021-03-27T15:50:05Z</time>
      </trkpt>
      <trkpt lat="42.172962" lon="-6.55967">
        <ele>1318.56</ele>
        <time>2021-03-27T15:50:08Z</time>
      </trkpt>
      <trkpt lat="42.173113" lon="-6.559807">
        <ele>1320.38</ele>
        <time>2021-03-27T15:50:11Z</time>
      </trkpt>
      <trkpt lat="42.173458" lon="-6.560169">
        <ele>1325.52</ele>
        <time>2021-03-27T15:50:14Z</time>
      </trkpt>
      <trkpt lat="42.175877" lon="-6.56279">
        <ele>1363.09</ele>
        <time>2021-03-27T15:50:16Z</time>
      </trkpt>
      <trkpt lat="42.176216" lon="-6.563105">
        <ele>1367.67</ele>
        <time>2021-03-27T15:50:19Z</time>
      </trkpt>
      <trkpt lat="42.176459" lon="-6.563306">
        <ele>1369.15</ele>
        <time>2021-03-27T15:50:22Z</time>
      </trkpt>
      <trkpt lat="42.177615" lon="-6.563909">
        <ele>1381.29</ele>
        <time>2021-03-27T15:50:25Z</time>
      </trkpt>
      <trkpt lat="42.177793" lon="-6.563962">
        <ele>1382.64</ele>
        <time>2021-03-27T15:50:28Z</time>
      </trkpt>
      <trkpt lat="42.177964" lon="-6.563988">
        <ele>1381.78</ele>
        <time>2021-03-27T15:50:31Z</time>
      </trkpt>
      <trkpt lat="42.178207" lon="-6.563973">
        <ele>1382.34</ele>
        <time>2021-03-27T15:50:34Z</time>
      </trkpt>
      <trkpt lat="42.179157" lon="-6.563822">
        <ele>1394.14</ele>
        <time>2021-03-27T15:50:37Z</time>
      </trkpt>
      <trkpt lat="42.179556" lon="-6.563712">
        <ele>1400.13</ele>
        <time>2021-03-27T15:50:40Z</time>
      </trkpt>
      <trkpt lat="42.179824" lon="-6.563614">
        <ele>1403.32</ele>
        <time>2021-03-27T15:50:43Z</time>
      </trkpt>
      <trkpt lat="42.180233" lon="-6.563371">
        <ele>1406.73</ele>
        <time>2021-03-27T15:50:46Z</time>
      </trkpt>
      <trkpt lat="42.188068" lon="-6.557293">
        <ele>1488.57</ele>
        <time>2021-03-27T15:50:49Z</time>
      </trkpt>
      <trkpt lat="42.188361" lon="-6.557121">
        <ele>1491.1</ele>
        <time>2021-03-27T15:50:51Z</time>
      </trkpt>
      <trkpt lat="42.188641" lon="-6.556984">
        <ele>1492.52</ele>
        <time>2021-03-27T15:50:54Z</time>
      </trkpt>
      <trkpt lat="42.188886" lon="-6.556915">
        <ele>1496.74</ele>
        <time>2021-03-27T15:50:57Z</time>
      </trkpt>
      <trkpt lat="42.189397" lon="-6.556861">
        <ele>1500.6</ele>
        <time>2021-03-27T15:51:00Z</time>
      </trkpt>
      <trkpt lat="42.197924" lon="-6.557312">
        <ele>1598.07</ele>
        <time>2021-03-27T15:51:03Z</time>
      </trkpt>
      <trkpt lat="42.198554" lon="-6.557479">
        <ele>1603.2</ele>
        <time>2021-03-27T15:51:06Z</time>
      </trkpt>
      <trkpt lat="42.198766" lon="-6.557573">
        <ele>1606.59</ele>
        <time>2021-03-27T15:51:09Z</time>
      </trkpt>
      <trkpt lat="42.198958" lon="-6.557693">
        <ele>1609.2</ele>
        <time>2021-03-27T15:51:12Z</time>
      </trkpt>
      <trkpt lat="42.199208" lon="-6.557885">
        <ele>1612.68</ele>
        <time>2021-03-27T15:51:15Z</time>
      </trkpt>
      <trkpt lat="42.199473" lon="-6.558161">
        <ele>1615.37</ele>
        <time>2021-03-27T15:51:18Z</time>
      </trkpt>
      <trkpt lat="42.199945" lon="-6.558746">
        <ele>1624.98</ele>
        <time>2021-03-27T15:51:21Z</time>
      </trkpt>
      <trkpt lat="42.200951" lon="-6.56023">
        <ele>1635.59</ele>
        <time>2021-03-27T15:51:24Z</time>
      </trkpt>
      <trkpt lat="42.201496" lon="-6.56107">
        <ele>1644.77</ele>
        <time>2021-03-27T15:51:27Z</time>
      </trkpt>
      <trkpt lat="42.201834" lon="-6.561632">
        <ele>1650.94</ele>
        <time>2021-03-27T15:51:29Z</time>
      </trkpt>
      <trkpt lat="42.201993" lon="-6.561926">
        <ele>1653.96</ele>
        <time>2021-03-27T15:51:32Z</time>
      </trkpt>
      <trkpt lat="42.20214" lon="-6.562244">
        <ele>1659.11</ele>
        <time>2021-03-27T15:51:35Z</time>
      </trkpt>
      <trkpt lat="42.20224" lon="-6.562563">
        <ele>1663.43</ele>
        <time>2021-03-27T15:51:38Z</time>
      </trkpt>
      <trkpt lat="42.202291" lon="-6.562844">
        <ele>1664.48</ele>
        <time>2021-03-27T15:51:41Z</time>
      </trkpt>
      <trkpt lat="42.202297" lon="-6.563105">
        <ele>1663.96</ele>
        <time>2021-03-27T15:51:44Z</time>
      </trkpt>
      <trkpt lat="42.202244" lon="-6.56349">
        <ele>1662.43</ele>
        <time>2021-03-27T15:51:47Z</time>
      </trkpt>
      <trkpt lat="42.202159" lon="-6.563788">
        <ele>1662.49</ele>
        <time>2021-03-27T15:51:50Z</time>
      </trkpt>
      <trkpt lat="42.201957" lon="-6.564325">
        <ele>1666.18</ele>
        <time>2021-03-27T15:51:53Z</time>
      </trkpt>
      <trkpt lat="42.201363" lon="-6.565651">
        <ele>1675.79</ele>
        <time>2021-03-27T15:51:56Z</time>
      </trkpt>
      <trkpt lat="42.201356" lon="-6.565776">
        <ele>1677.54</ele>
        <time>2021-03-27T15:51:59Z</time>
      </trkpt>
      <trkpt lat="42.201378" lon="-6.565889">
        <ele>1679.81</ele>
        <time>2021-03-27T15:52:02Z</time>
      </trkpt>
      <trkpt lat="42.201427" lon="-6.565986">
        <ele>1682.63</ele>
        <time>2021-03-27T15:52:04Z</time>
      </trkpt>
      <trkpt lat="42.20152" lon="-6.566055">
        <ele>1685.91</ele>
        <time>2021-03-27T15:52:07Z</time>
      </trkpt>
      <trkpt lat="42.201649" lon="-6.566065">
        <ele>1688.95</ele>
        <time>2021-03-27T15:52:10Z</time>
      </trkpt>
      <trkpt lat="42.201882" lon="-6.565998">
        <ele>1693.02</ele>
        <time>2021-03-27T15:52:13Z</time>
      </trkpt>
      <trkpt lat="42.202022" lon="-6.565875">
        <ele>1694.51</ele>
        <time>2021-03-27T15:52:16Z</time>
      </trkpt>
      <trkpt lat="42.202188" lon="-6.565669">
        <ele>1695.84</ele>
        <time>2021-03-27T15:52:19Z</time>
      </trkpt>
      <trkpt lat="42.202429" lon="-6.565247">
        <ele>1697.13</ele>
        <time>2021-03-27T15:52:22Z</time>
      </trkpt>
      <trkpt lat="42.202761" lon="-6.56458">
        <ele>1699.27</ele>
        <time>2021-03-27T15:52:25Z</time>
      </trkpt>
      <trkpt lat="42.203011" lon="-6.564036">
        <ele>1700.3</ele>
        <time>2021-03-27T15:52:28Z</time>
      </trkpt>
      <trkpt lat="42.203175" lon="-6.563632">
        <ele>1700.55</ele>
        <time>2021-03-27T15:52:31Z</time>
      </trkpt>
      <trkpt lat="42.203261" lon="-6.563334">
        <ele>1703.4</ele>
        <time>2021-03-27T15:52:34Z</time>
      </trkpt>
      <trkpt lat="42.203314" lon="-6.56299">
        <ele>1706.5</ele>
        <time>2021-03-27T15:52:37Z</time>
      </trkpt>
      <trkpt lat="42.203318" lon="-6.562524">
        <ele>1708.34</ele>
        <time>2021-03-27T15:52:39Z</time>
      </trkpt>
      <trkpt lat="42.203259" lon="-6.56187">
        <ele>1711.62</ele>
        <time>2021-03-27T15:52:42Z</time>
      </trkpt>
      <trkpt lat="42.202524" lon="-6.557018">
        <ele>1738.11</ele>
        <time>2021-03-27T15:52:45Z</time>
      </trkpt>
      <trkpt lat="42.202507" lon="-6.55634">
        <ele>1740.16</ele>
        <time>2021-03-27T15:52:48Z</time>
      </trkpt>
      <trkpt lat="42.202638" lon="-6.555717">
        <ele>1742.56</ele>
        <time>2021-03-27T15:52:51Z</time>
      </trkpt>
      <trkpt lat="42.203215" lon="-6.554026">
        <ele>1755.81</ele>
        <time>2021-03-27T15:52:54Z</time>
      </trkpt>
      <trkpt lat="42.203323" lon="-6.553652">
        <ele>1757.88</ele>
        <time>2021-03-27T15:52:57Z</time>
      </trkpt>
      <trkpt lat="42.20343" lon="-6.553161">
        <ele>1762.58</ele>
        <time>2021-03-27T15:53:00Z</time>
      </trkpt>
      <trkpt lat="42.203502" lon="-6.552238">
        <ele>1765.35</ele>
        <time>2021-03-27T15:53:03Z</time>
      </trkpt>
      <trkpt lat="42.20355" lon="-6.551123">
        <ele>1771.75</ele>
        <time>2021-03-27T15:53:06Z</time>
      </trkpt>
      <trkpt lat="42.20363" lon="-6.546506">
        <ele>1800.65</ele>
        <time>2021-03-27T15:53:09Z</time>
      </trkpt>
      <trkpt lat="42.203662" lon="-6.546235">
        <ele>1803.94</ele>
        <time>2021-03-27T15:53:12Z</time>
      </trkpt>
      <trkpt lat="42.203706" lon="-6.546085">
        <ele>1806.71</ele>
        <time>2021-03-27T15:53:14Z</time>
      </trkpt>
      <trkpt lat="42.203788" lon="-6.545984">
        <ele>1810.11</ele>
        <time>2021-03-27T15:53:17Z</time>
      </trkpt>
      <trkpt lat="42.203926" lon="-6.545978">
        <ele>1813.65</ele>
        <time>2021-03-27T15:53:20Z</time>
      </trkpt>
      <trkpt lat="42.204019" lon="-6.546021">
        <ele>1814.78</ele>
        <time>2021-03-27T15:53:23Z</time>
      </trkpt>
      <trkpt lat="42.204098" lon="-6.546112">
        <ele>1814.76</ele>
        <time>2021-03-27T15:53:26Z</time>
      </trkpt>
      <trkpt lat="42.204249" lon="-6.546364">
        <ele>1818.1</ele>
        <time>2021-03-27T15:53:29Z</time>
      </trkpt>
      <trkpt lat="42.204354" lon="-6.546662">
        <ele>1821.76</ele>
        <time>2021-03-27T15:53:32Z</time>
      </trkpt>
      <trkpt lat="42.204583" lon="-6.548177">
        <ele>1825.51</ele>
        <time>2021-03-27T15:53:35Z</time>
      </trkpt>
      <trkpt lat="42.20476" lon="-6.548783">
        <ele>1829.19</ele>
        <time>2021-03-27T15:53:38Z</time>
      </trkpt>
      <trkpt lat="42.205103" lon="-6.549691">
        <ele>1834.83</ele>
        <time>2021-03-27T15:53:41Z</time>
      </trkpt>
      <trkpt lat="42.205433" lon="-6.550505">
        <ele>1835.52</ele>
        <time>2021-03-27T15:53:44Z</time>
      </trkpt>
      <trkpt lat="42.205734" lon="-6.55115">
        <ele>1837.73</ele>
        <time>2021-03-27T15:53:47Z</time>
      </trkpt>
      <trkpt lat="42.206004" lon="-6.551571">
        <ele>1838.09</ele>
        <time>2021-03-27T15:53:49Z</time>
      </trkpt>
      <trkpt lat="42.206347" lon="-6.551928">
        <ele>1840.64</ele>
        <time>2021-03-27T15:53:52Z</time>
      </trkpt>
      <trkpt lat="42.206698" lon="-6.552211">
        <ele>1840.66</ele>
        <time>2021-03-27T15:53:55Z</time>
      </trkpt>
      <trkpt lat="42.207556" lon="-6.552793">
        <ele>1831.11</ele>
        <time>2021-03-27T15:53:58Z</time>
      </trkpt>
      <trkpt lat="42.209192" lon="-6.554051">
        <ele>1821.44</ele>
        <time>2021-03-27T15:54:01Z</time>
      </trkpt>
      <trkpt lat="42.209431" lon="-6.554183">
        <ele>1820.32</ele>
        <time>2021-03-27T15:54:04Z</time>
      </trkpt>
      <trkpt lat="42.209628" lon="-6.554257">
        <ele>1818.97</ele>
        <time>2021-03-27T15:54:07Z</time>
      </trkpt>
      <trkpt lat="42.209987" lon="-6.554316">
        <ele>1816.36</ele>
        <time>2021-03-27T15:54:10Z</time>
      </trkpt>
      <trkpt lat="42.210398" lon="-6.554349">
        <ele>1814.79</ele>
        <time>2021-03-27T15:54:13Z</time>
      </trkpt>
      <trkpt lat="42.210739" lon="-6.554334">
        <ele>1814.36</ele>
        <time>2021-03-27T15:54:16Z</time>
      </trkpt>
      <trkpt lat="42.210917" lon="-6.554264">
        <ele>1812.34</ele>
        <time>2021-03-27T15:54:19Z</time>
      </trkpt>
      <trkpt lat="42.211495" lon="-6.553868">
        <ele>1800.36</ele>
        <time>2021-03-27T15:54:22Z</time>
      </trkpt>
      <trkpt lat="42.213308" lon="-6.553305">
        <ele>1777.48</ele>
        <time>2021-03-27T15:54:24Z</time>
      </trkpt>
      <trkpt lat="42.214419" lon="-6.553079">
        <ele>1766.94</ele>
        <time>2021-03-27T15:54:27Z</time>
      </trkpt>
      <trkpt lat="42.215097" lon="-6.552903">
        <ele>1756.95</ele>
        <time>2021-03-27T15:54:30Z</time>
      </trkpt>
      <trkpt lat="42.21539" lon="-6.552778">
        <ele>1752.82</ele>
        <time>2021-03-27T15:54:33Z</time>
      </trkpt>
      <trkpt lat="42.215594" lon="-6.552613">
        <ele>1746.71</ele>
        <time>2021-03-27T15:54:36Z</time>
      </trkpt>
      <trkpt lat="42.215952" lon="-6.552194">
        <ele>1738.71</ele>
        <time>2021-03-27T15:54:39Z</time>
      </trkpt>
      <trkpt lat="42.216527" lon="-6.551669">
        <ele>1730.06</ele>
        <time>2021-03-27T15:54:42Z</time>
      </trkpt>
      <trkpt lat="42.216661" lon="-6.551576">
        <ele>1727.7</ele>
        <time>2021-03-27T15:54:45Z</time>
      </trkpt>
      <trkpt lat="42.216851" lon="-6.551497">
        <ele>1723.88</ele>
        <time>2021-03-27T15:54:48Z</time>
      </trkpt>
      <trkpt lat="42.216933" lon="-6.551487">
        <ele>1722.88</ele>
        <time>2021-03-27T15:54:51Z</time>
      </trkpt>
      <trkpt lat="42.217305" lon="-6.551578">
        <ele>1722.7</ele>
        <time>2021-03-27T15:54:54Z</time>
      </trkpt>
      <trkpt lat="42.21737" lon="-6.551538">
        <ele>1721.45</ele>
        <time>2021-03-27T15:54:57Z</time>
      </trkpt>
      <trkpt lat="42.217412" lon="-6.55146">
        <ele>1719.33</ele>
        <time>2021-03-27T15:55:00Z</time>
      </trkpt>
      <trkpt lat="42.217416" lon="-6.551358">
        <ele>1716.7</ele>
        <time>2021-03-27T15:55:02Z</time>
      </trkpt>
      <trkpt lat="42.217344" lon="-6.551214">
        <ele>1713.1</ele>
        <time>2021-03-27T15:55:05Z</time>
      </trkpt>
      <trkpt lat="42.217285" lon="-6.551157">
        <ele>1711.86</ele>
        <time>2021-03-27T15:55:08Z</time>
      </trkpt>
      <trkpt lat="42.216919" lon="-6.55091">
        <ele>1705.62</ele>
        <time>2021-03-27T15:55:11Z</time>
      </trkpt>
      <trkpt lat="42.216736" lon="-6.550825">
        <ele>1701.21</ele>
        <time>2021-03-27T15:55:14Z</time>
      </trkpt>
      <trkpt lat="42.216532" lon="-6.550792">
        <ele>1698.54</ele>
        <time>2021-03-27T15:55:17Z</time>
      </trkpt>
      <trkpt lat="42.215738" lon="-6.55081">
        <ele>1690.6</ele>
        <time>2021-03-27T15:55:20Z</time>
      </trkpt>
      <trkpt lat="42.215225" lon="-6.550782">
        <ele>1686.49</ele>
        <time>2021-03-27T15:55:23Z</time>
      </trkpt>
      <trkpt lat="42.21502" lon="-6.550712">
        <ele>1685.07</ele>
        <time>2021-03-27T15:55:26Z</time>
      </trkpt>
      <trkpt lat="42.21486" lon="-6.550604">
        <ele>1681.41</ele>
        <time>2021-03-27T15:55:29Z</time>
      </trkpt>
      <trkpt lat="42.214751" lon="-6.550452">
        <ele>1677.51</ele>
        <time>2021-03-27T15:55:32Z</time>
      </trkpt>
      <trkpt lat="42.214717" lon="-6.550361">
        <ele>1675.93</ele>
        <time>2021-03-27T15:55:35Z</time>
      </trkpt>
      <trkpt lat="42.214426" lon="-6.549232">
        <ele>1663.95</ele>
        <time>2021-03-27T15:55:37Z</time>
      </trkpt>
      <trkpt lat="42.214368" lon="-6.549059">
        <ele>1662.05</ele>
        <time>2021-03-27T15:55:40Z</time>
      </trkpt>
      <trkpt lat="42.214285" lon="-6.548858">
        <ele>1659.85</ele>
        <time>2021-03-27T15:55:43Z</time>
      </trkpt>
      <trkpt lat="42.214067" lon="-6.548422">
        <ele>1654.23</ele>
        <time>2021-03-27T15:55:46Z</time>
      </trkpt>
      <trkpt lat="42.213738" lon="-6.547963">
        <ele>1644.3</ele>
        <time>2021-03-27T15:55:49Z</time>
      </trkpt>
      <trkpt lat="42.213716" lon="-6.5479">
        <ele>1642.81</ele>
        <time>2021-03-27T15:55:52Z</time>
      </trkpt>
      <trkpt lat="42.213709" lon="-6.547774">
        <ele>1639.92</ele>
        <time>2021-03-27T15:55:55Z</time>
      </trkpt>
      <trkpt lat="42.213725" lon="-6.547721">
        <ele>1638.98</ele>
        <time>2021-03-27T15:55:58Z</time>
      </trkpt>
      <trkpt lat="42.213789" lon="-6.547626">
        <ele>1637.27</ele>
        <time>2021-03-27T15:56:01Z</time>
      </trkpt>
      <trkpt lat="42.21393" lon="-6.547528">
        <ele>1635.07</ele>
        <time>2021-03-27T15:56:04Z</time>
      </trkpt>
      <trkpt lat="42.214101" lon="-6.547487">
        <ele>1632.56</ele>
        <time>2021-03-27T15:56:07Z</time>
      </trkpt>
      <trkpt lat="42.214186" lon="-6.547497">
        <ele>1631.62</ele>
        <time>2021-03-27T15:56:10Z</time>
      </trkpt>
      <trkpt lat="42.2143" lon="-6.547546">
        <ele>1630.51</ele>
        <time>2021-03-27T15:56:12Z</time>
      </trkpt>
      <trkpt lat="42.214405" lon="-6.547618">
        <ele>1630.19</ele>
        <time>2021-03-27T15:56:15Z</time>
      </trkpt>
      <trkpt lat="42.214524" lon="-6.547736">
        <ele>1630.79</ele>
        <time>2021-03-27T15:56:18Z</time>
      </trkpt>
      <trkpt lat="42.215249" lon="-6.548717">
        <ele>1630.11</ele>
        <time>2021-03-27T15:56:21Z</time>
      </trkpt>
      <trkpt lat="42.215376" lon="-6.54879">
        <ele>1630.8</ele>
        <time>2021-03-27T15:56:24Z</time>
      </trkpt>
      <trkpt lat="42.215512" lon="-6.548764">
        <ele>1629.16</ele>
        <time>2021-03-27T15:56:27Z</time>
      </trkpt>
      <trkpt lat="42.215669" lon="-6.548651">
        <ele>1627.05</ele>
        <time>2021-03-27T15:56:30Z</time>
      </trkpt>
      <trkpt lat="42.215763" lon="-6.54855">
        <ele>1625.82</ele>
        <time>2021-03-27T15:56:33Z</time>
      </trkpt>
      <trkpt lat="42.216267" lon="-6.547883">
        <ele>1610.95</ele>
        <time>2021-03-27T15:56:36Z</time>
      </trkpt>
      <trkpt lat="42.216633" lon="-6.547315">
        <ele>1599.93</ele>
        <time>2021-03-27T15:56:39Z</time>
      </trkpt>
      <trkpt lat="42.216785" lon="-6.547166">
        <ele>1596.84</ele>
        <time>2021-03-27T15:56:42Z</time>
      </trkpt>
      <trkpt lat="42.21699" lon="-6.547028">
        <ele>1592.92</ele>
        <time>2021-03-27T15:56:45Z</time>
      </trkpt>
      <trkpt lat="42.217273" lon="-6.546902">
        <ele>1590.31</ele>
        <time>2021-03-27T15:56:47Z</time>
      </trkpt>
      <trkpt lat="42.217381" lon="-6.546766">
        <ele>1587.2</ele>
        <time>2021-03-27T15:56:50Z</time>
      </trkpt>
      <trkpt lat="42.217553" lon="-6.545904">
        <ele>1575.91</ele>
        <time>2021-03-27T15:56:53Z</time>
      </trkpt>
      <trkpt lat="42.217572" lon="-6.545626">
        <ele>1573.46</ele>
        <time>2021-03-27T15:56:56Z</time>
      </trkpt>
      <trkpt lat="42.217566" lon="-6.54541">
        <ele>1570.97</ele>
        <time>2021-03-27T15:56:59Z</time>
      </trkpt>
      <trkpt lat="42.217512" lon="-6.544833">
        <ele>1561.98</ele>
        <time>2021-03-27T15:57:02Z</time>
      </trkpt>
      <trkpt lat="42.217507" lon="-6.544017">
        <ele>1552.63</ele>
        <time>2021-03-27T15:57:05Z</time>
      </trkpt>
      <trkpt lat="42.21758" lon="-6.543466">
        <ele>1546.53</ele>
        <time>2021-03-27T15:57:08Z</time>
      </trkpt>
      <trkpt lat="42.217705" lon="-6.543074">
        <ele>1545.94</ele>
        <time>2021-03-27T15:57:11Z</time>
      </trkpt>
      <trkpt lat="42.217817" lon="-6.542563">
        <ele>1541.58</ele>
        <time>2021-03-27T15:57:14Z</time>
      </trkpt>
      <trkpt lat="42.21793" lon="-6.541629">
        <ele>1529.89</ele>
        <time>2021-03-27T15:57:17Z</time>
      </trkpt>
      <trkpt lat="42.217958" lon="-6.541493">
        <ele>1529.02</ele>
        <time>2021-03-27T15:57:20Z</time>
      </trkpt>
      <trkpt lat="42.218259" lon="-6.540745">
        <ele>1522.04</ele>
        <time>2021-03-27T15:57:22Z</time>
      </trkpt>
      <trkpt lat="42.218317" lon="-6.540552">
        <ele>1520.55</ele>
        <time>2021-03-27T15:57:25Z</time>
      </trkpt>
      <trkpt lat="42.218376" lon="-6.540217">
        <ele>1518.44</ele>
        <time>2021-03-27T15:57:28Z</time>
      </trkpt>
      <trkpt lat="42.218476" lon="-6.53947">
        <ele>1508.06</ele>
        <time>2021-03-27T15:57:31Z</time>
      </trkpt>
      <trkpt lat="42.218602" lon="-6.538856">
        <ele>1504.31</ele>
        <time>2021-03-27T15:57:34Z</time>
      </trkpt>
      <trkpt lat="42.21873" lon="-6.538436">
        <ele>1499.99</ele>
        <time>2021-03-27T15:57:37Z</time>
      </trkpt>
      <trkpt lat="42.218924" lon="-6.537947">
        <ele>1495.14</ele>
        <time>2021-03-27T15:57:40Z</time>
      </trkpt>
      <trkpt lat="42.219011" lon="-6.53767">
        <ele>1492.87</ele>
        <time>2021-03-27T15:57:43Z</time>
      </trkpt>
      <trkpt lat="42.219015" lon="-6.537463">
        <ele>1490.42</ele>
        <time>2021-03-27T15:57:46Z</time>
      </trkpt>
      <trkpt lat="42.218843" lon="-6.536268">
        <ele>1480.64</ele>
        <time>2021-03-27T15:57:49Z</time>
      </trkpt>
      <trkpt lat="42.218824" lon="-6.536058">
        <ele>1480.31</ele>
        <time>2021-03-27T15:57:52Z</time>
      </trkpt>
      <trkpt lat="42.218795" lon="-6.534734">
        <ele>1471.04</ele>
        <time>2021-03-27T15:57:55Z</time>
      </trkpt>
      <trkpt lat="42.218747" lon="-6.534061">
        <ele>1462.42</ele>
        <time>2021-03-27T15:57:58Z</time>
      </trkpt>
      <trkpt lat="42.218757" lon="-6.533727">
        <ele>1458.42</ele>
        <time>2021-03-27T15:58:00Z</time>
      </trkpt>
      <trkpt lat="42.21889" lon="-6.531638">
        <ele>1440.64</ele>
        <time>2021-03-27T15:58:03Z</time>
      </trkpt>
      <trkpt lat="42.21892" lon="-6.531363">
        <ele>1437.51</ele>
        <time>2021-03-27T15:58:06Z</time>
      </trkpt>
      <trkpt lat="42.21899" lon="-6.530999">
        <ele>1433.8</ele>
        <time>2021-03-27T15:58:09Z</time>
      </trkpt>
      <trkpt lat="42.219061" lon="-6.530738">
        <ele>1431.9</ele>
        <time>2021-03-27T15:58:12Z</time>
      </trkpt>
      <trkpt lat="42.219425" lon="-6.529516">
        <ele>1421.99</ele>
        <time>2021-03-27T15:58:15Z</time>
      </trkpt>
      <trkpt lat="42.219679" lon="-6.528919">
        <ele>1420.48</ele>
        <time>2021-03-27T15:58:18Z</time>
      </trkpt>
      <trkpt lat="42.219705" lon="-6.528817">
        <ele>1420.46</ele>
        <time>2021-03-27T15:58:21Z</time>
      </trkpt>
      <trkpt lat="42.219725" lon="-6.528603">
        <ele>1420.06</ele>
        <time>2021-03-27T15:58:24Z</time>
      </trkpt>
      <trkpt lat="42.219701" lon="-6.528381">
        <ele>1419.41</ele>
        <time>2021-03-27T15:58:27Z</time>
      </trkpt>
      <trkpt lat="42.219492" lon="-6.527322">
        <ele>1409.88</ele>
        <time>2021-03-27T15:58:30Z</time>
      </trkpt>
      <trkpt lat="42.219455" lon="-6.526911">
        <ele>1408.29</ele>
        <time>2021-03-27T15:58:33Z</time>
      </trkpt>
      <trkpt lat="42.219422" lon="-6.526283">
        <ele>1404.18</ele>
        <time>2021-03-27T15:58:35Z</time>
      </trkpt>
      <trkpt lat="42.219472" lon="-6.525481">
        <ele>1400.99</ele>
        <time>2021-03-27T15:58:38Z</time>
      </trkpt>
      <trkpt lat="42.219475" lon="-6.525038">
        <ele>1397.05</ele>
        <time>2021-03-27T15:58:41Z</time>
      </trkpt>
      <trkpt lat="42.219431" lon="-6.524796">
        <ele>1395.65</ele>
        <time>2021-03-27T15:58:44Z</time>
      </trkpt>
      <trkpt lat="42.218999" lon="-6.523436">
        <ele>1389.38</ele>
        <time>2021-03-27T15:58:47Z</time>
      </trkpt>
      <trkpt lat="42.218885" lon="-6.52295">
        <ele>1385.47</ele>
        <time>2021-03-27T15:58:50Z</time>
      </trkpt>
      <trkpt lat="42.218747" lon="-6.522212">
        <ele>1379.43</ele>
        <time>2021-03-27T15:58:53Z</time>
      </trkpt>
      <trkpt lat="42.218697" lon="-6.521365">
        <ele>1377.24</ele>
        <time>2021-03-27T15:58:56Z</time>
      </trkpt>
      <trkpt lat="42.218681" lon="-6.519985">
        <ele>1373.71</ele>
        <time>2021-03-27T15:58:59Z</time>
      </trkpt>
      <trkpt lat="42.21865" lon="-6.519766">
        <ele>1371.71</ele>
        <time>2021-03-27T15:59:02Z</time>
      </trkpt>
      <trkpt lat="42.218589" lon="-6.519506">
        <ele>1368.6</ele>
        <time>2021-03-27T15:59:05Z</time>
      </trkpt>
      <trkpt lat="42.218316" lon="-6.518482">
        <ele>1357.85</ele>
        <time>2021-03-27T15:59:08Z</time>
      </trkpt>
      <trkpt lat="42.218174" lon="-6.517861">
        <ele>1352.7</ele>
        <time>2021-03-27T15:59:10Z</time>
      </trkpt>
      <trkpt lat="42.218011" lon="-6.516504">
        <ele>1350.19</ele>
        <time>2021-03-27T15:59:13Z</time>
      </trkpt>
      <trkpt lat="42.217994" lon="-6.515828">
        <ele>1344.74</ele>
        <time>2021-03-27T15:59:16Z</time>
      </trkpt>
      <trkpt lat="42.218033" lon="-6.515444">
        <ele>1342.61</ele>
        <time>2021-03-27T15:59:19Z</time>
      </trkpt>
      <trkpt lat="42.218117" lon="-6.515201">
        <ele>1341.98</ele>
        <time>2021-03-27T15:59:22Z</time>
      </trkpt>
      <trkpt lat="42.218382" lon="-6.514811">
        <ele>1339.1</ele>
        <time>2021-03-27T15:59:25Z</time>
      </trkpt>
      <trkpt lat="42.218542" lon="-6.514508">
        <ele>1337.38</ele>
        <time>2021-03-27T15:59:28Z</time>
      </trkpt>
      <trkpt lat="42.218881" lon="-6.513695">
        <ele>1335.72</ele>
        <time>2021-03-27T15:59:31Z</time>
      </trkpt>
      <trkpt lat="42.218972" lon="-6.513319">
        <ele>1333.53</ele>
        <time>2021-03-27T15:59:34Z</time>
      </trkpt>
      <trkpt lat="42.219066" lon="-6.512351">
        <ele>1325.12</ele>
        <time>2021-03-27T15:59:37Z</time>
      </trkpt>
      <trkpt lat="42.219242" lon="-6.511939">
        <ele>1326.11</ele>
        <time>2021-03-27T15:59:40Z</time>
      </trkpt>
      <trkpt lat="42.219323" lon="-6.511658">
        <ele>1325.35</ele>
        <time>2021-03-27T15:59:43Z</time>
      </trkpt>
      <trkpt lat="42.219345" lon="-6.511408">
        <ele>1324.91</ele>
        <time>2021-03-27T15:59:45Z</time>
      </trkpt>
      <trkpt lat="42.219354" lon="-6.51087">
        <ele>1323.7</ele>
        <time>2021-03-27T15:59:48Z</time>
      </trkpt>
      <trkpt lat="42.219383" lon="-6.510509">
        <ele>1324.29</ele>
        <time>2021-03-27T15:59:51Z</time>
      </trkpt>
      <trkpt lat="42.21945" lon="-6.510149">
        <ele>1321.75</ele>
        <time>2021-03-27T15:59:54Z</time>
      </trkpt>
      <trkpt lat="42.219614" lon="-6.509781">
        <ele>1320.51</ele>
        <time>2021-03-27T15:59:57Z</time>
      </trkpt>
      <trkpt lat="42.219849" lon="-6.509387">
        <ele>1320.18</ele>
        <time>2021-03-27T16:00:00Z</time>
      </trkpt>
      <trkpt lat="42.219972" lon="-6.50899">
        <ele>1316.52</ele>
        <time>2021-03-27T16:00:03Z</time>
      </trkpt>
      <trkpt lat="42.22002" lon="-6.508755">
        <ele>1313.33</ele>
        <time>2021-03-27T16:00:06Z</time>
      </trkpt>
      <trkpt lat="42.220043" lon="-6.508328">
        <ele>1309.36</ele>
        <time>2021-03-27T16:00:09Z</time>
      </trkpt>
      <trkpt lat="42.220023" lon="-6.507484">
        <ele>1303.33</ele>
        <time>2021-03-27T16:00:12Z</time>
      </trkpt>
      <trkpt lat="42.219942" lon="-6.506388">
        <ele>1294.58</ele>
        <time>2021-03-27T16:00:15Z</time>
      </trkpt>
      <trkpt lat="42.219937" lon="-6.505799">
        <ele>1295.15</ele>
        <time>2021-03-27T16:00:18Z</time>
      </trkpt>
      <trkpt lat="42.219957" lon="-6.505229">
        <ele>1295.52</ele>
        <time>2021-03-27T16:00:20Z</time>
      </trkpt>
      <trkpt lat="42.220234" lon="-6.50413">
        <ele>1295.25</ele>
        <time>2021-03-27T16:00:23Z</time>
      </trkpt>
      <trkpt lat="42.220355" lon="-6.503541">
        <ele>1291.22</ele>
        <time>2021-03-27T16:00:26Z</time>
      </trkpt>
      <trkpt lat="42.220365" lon="-6.503336">
        <ele>1289.83</ele>
        <time>2021-03-27T16:00:29Z</time>
      </trkpt>
      <trkpt lat="42.220317" lon="-6.502679">
        <ele>1288.08</ele>
        <time>2021-03-27T16:00:32Z</time>
      </trkpt>
      <trkpt lat="42.220412" lon="-6.501924">
        <ele>1285.77</ele>
        <time>2021-03-27T16:00:35Z</time>
      </trkpt>
      <trkpt lat="42.220473" lon="-6.501621">
        <ele>1285.76</ele>
        <time>2021-03-27T16:00:38Z</time>
      </trkpt>
      <trkpt lat="42.22056" lon="-6.501368">
        <ele>1284.81</ele>
        <time>2021-03-27T16:00:41Z</time>
      </trkpt>
      <trkpt lat="42.220977" lon="-6.500486">
        <ele>1275.67</ele>
        <time>2021-03-27T16:00:44Z</time>
      </trkpt>
      <trkpt lat="42.221132" lon="-6.500283">
        <ele>1274.39</ele>
        <time>2021-03-27T16:00:47Z</time>
      </trkpt>
      <trkpt lat="42.221623" lon="-6.499786">
        <ele>1273.03</ele>
        <time>2021-03-27T16:00:50Z</time>
      </trkpt>
      <trkpt lat="42.221974" lon="-6.499282">
        <ele>1271.28</ele>
        <time>2021-03-27T16:00:53Z</time>
      </trkpt>
      <trkpt lat="42.222225" lon="-6.498686">
        <ele>1265.68</ele>
        <time>2021-03-27T16:00:56Z</time>
      </trkpt>
      <trkpt lat="42.222364" lon="-6.498421">
        <ele>1263.28</ele>
        <time>2021-03-27T16:00:58Z</time>
      </trkpt>
      <trkpt lat="42.222515" lon="-6.498248">
        <ele>1261.25</ele>
        <time>2021-03-27T16:01:01Z</time>
      </trkpt>
      <trkpt lat="42.222958" lon="-6.497879">
        <ele>1258.78</ele>
        <time>2021-03-27T16:01:04Z</time>
      </trkpt>
      <trkpt lat="42.223175" lon="-6.497626">
        <ele>1256.41</ele>
        <time>2021-03-27T16:01:07Z</time>
      </trkpt>
      <trkpt lat="42.223403" lon="-6.497266">
        <ele>1255.64</ele>
        <time>2021-03-27T16:01:10Z</time>
      </trkpt>
      <trkpt lat="42.223684" lon="-6.496626">
        <ele>1251.85</ele>
        <time>2021-03-27T16:01:13Z</time>
      </trkpt>
      <trkpt lat="42.223728" lon="-6.496411">
        <ele>1250.75</ele>
        <time>2021-03-27T16:01:16Z</time>
      </trkpt>
      <trkpt lat="42.223766" lon="-6.496105">
        <ele>1248.9</ele>
        <time>2021-03-27T16:01:19Z</time>
      </trkpt>
      <trkpt lat="42.223783" lon="-6.495749">
        <ele>1250.84</ele>
        <time>2021-03-27T16:01:22Z</time>
      </trkpt>
      <trkpt lat="42.22381" lon="-6.495556">
        <ele>1253.41</ele>
        <time>2021-03-27T16:01:25Z</time>
      </trkpt>
      <trkpt lat="42.22387" lon="-6.495419">
        <ele>1253.96</ele>
        <time>2021-03-27T16:01:28Z</time>
      </trkpt>
      <trkpt lat="42.223947" lon="-6.495323">
        <ele>1253.36</ele>
        <time>2021-03-27T16:01:31Z</time>
      </trkpt>
      <trkpt lat="42.224404" lon="-6.494879">
        <ele>1247.65</ele>
        <time>2021-03-27T16:01:33Z</time>
      </trkpt>
      <trkpt lat="42.224527" lon="-6.494686">
        <ele>1246.07</ele>
        <time>2021-03-27T16:01:36Z</time>
      </trkpt>
      <trkpt lat="42.224808" lon="-6.4941">
        <ele>1243.56</ele>
        <time>2021-03-27T16:01:39Z</time>
      </trkpt>
      <trkpt lat="42.225047" lon="-6.493276">
        <ele>1242.83</ele>
        <time>2021-03-27T16:01:42Z</time>
      </trkpt>
      <trkpt lat="42.226323" lon="-6.487602">
        <ele>1229.64</ele>
        <time>2021-03-27T16:01:45Z</time>
      </trkpt>
      <trkpt lat="42.226607" lon="-6.48642">
        <ele>1226.93</ele>
        <time>2021-03-27T16:01:48Z</time>
      </trkpt>
      <trkpt lat="42.226849" lon="-6.485505">
        <ele>1224.96</ele>
        <time>2021-03-27T16:01:51Z</time>
      </trkpt>
      <trkpt lat="42.227" lon="-6.485221">
        <ele>1224.4</ele>
        <time>2021-03-27T16:01:54Z</time>
      </trkpt>
      <trkpt lat="42.22761" lon="-6.48428">
        <ele>1220.16</ele>
        <time>2021-03-27T16:01:57Z</time>
      </trkpt>
      <trkpt lat="42.228588" lon="-6.483005">
        <ele>1219.18</ele>
        <time>2021-03-27T16:02:00Z</time>
      </trkpt>
      <trkpt lat="42.228718" lon="-6.482775">
        <ele>1217.84</ele>
        <time>2021-03-27T16:02:03Z</time>
      </trkpt>
      <trkpt lat="42.228861" lon="-6.482407">
        <ele>1215.33</ele>
        <time>2021-03-27T16:02:06Z</time>
      </trkpt>
      <trkpt lat="42.229253" lon="-6.480556">
        <ele>1212.69</ele>
        <time>2021-03-27T16:02:08Z</time>
      </trkpt>
      <trkpt lat="42.229925" lon="-6.477534">
        <ele>1201.23</ele>
        <time>2021-03-27T16:02:11Z</time>
      </trkpt>
      <trkpt lat="42.230272" lon="-6.476503">
        <ele>1200.62</ele>
        <time>2021-03-27T16:02:14Z</time>
      </trkpt>
      <trkpt lat="42.230322" lon="-6.476272">
        <ele>1201.1</ele>
        <time>2021-03-27T16:02:17Z</time>
      </trkpt>
      <trkpt lat="42.230342" lon="-6.475941">
        <ele>1202.9</ele>
        <time>2021-03-27T16:02:20Z</time>
      </trkpt>
      <trkpt lat="42.230316" lon="-6.475427">
        <ele>1206.65</ele>
        <time>2021-03-27T16:02:23Z</time>
      </trkpt>
      <trkpt lat="42.230271" lon="-6.475096">
        <ele>1208.65</ele>
        <time>2021-03-27T16:02:26Z</time>
      </trkpt>
      <trkpt lat="42.230127" lon="-6.474368">
        <ele>1209.55</ele>
        <time>2021-03-27T16:02:29Z</time>
      </trkpt>
      <trkpt lat="42.230052" lon="-6.473878">
        <ele>1212.26</ele>
        <time>2021-03-27T16:02:32Z</time>
      </trkpt>
      <trkpt lat="42.23004" lon="-6.473692">
        <ele>1213.46</ele>
        <time>2021-03-27T16:02:35Z</time>
      </trkpt>
      <trkpt lat="42.230055" lon="-6.473335">
        <ele>1214.99</ele>
        <time>2021-03-27T16:02:38Z</time>
      </trkpt>
      <trkpt lat="42.230137" lon="-6.472839">
        <ele>1215.49</ele>
        <time>2021-03-27T16:02:41Z</time>
      </trkpt>
      <trkpt lat="42.230358" lon="-6.471929">
        <ele>1212.73</ele>
        <time>2021-03-27T16:02:43Z</time>
      </trkpt>
      <trkpt lat="42.230489" lon="-6.471509">
        <ele>1208.39</ele>
        <time>2021-03-27T16:02:46Z</time>
      </trkpt>
      <trkpt lat="42.230624" lon="-6.47125">
        <ele>1206.51</ele>
        <time>2021-03-27T16:02:49Z</time>
      </trkpt>
      <trkpt lat="42.230701" lon="-6.471158">
        <ele>1205.95</ele>
        <time>2021-03-27T16:02:52Z</time>
      </trkpt>
      <trkpt lat="42.231514" lon="-6.470563">
        <ele>1208.52</ele>
        <time>2021-03-27T16:02:55Z</time>
      </trkpt>
      <trkpt lat="42.232264" lon="-6.469952">
        <ele>1203.59</ele>
        <time>2021-03-27T16:02:58Z</time>
      </trkpt>
      <trkpt lat="42.232541" lon="-6.469749">
        <ele>1199.23</ele>
        <time>2021-03-27T16:03:01Z</time>
      </trkpt>
      <trkpt lat="42.232737" lon="-6.469572">
        <ele>1197.75</ele>
        <time>2021-03-27T16:03:04Z</time>
      </trkpt>
      <trkpt lat="42.23286" lon="-6.469423">
        <ele>1196.67</ele>
        <time>2021-03-27T16:03:07Z</time>
      </trkpt>
      <trkpt lat="42.233011" lon="-6.469128">
        <ele>1194.69</ele>
        <time>2021-03-27T16:03:10Z</time>
      </trkpt>
      <trkpt lat="42.233415" lon="-6.468045">
        <ele>1197.67</ele>
        <time>2021-03-27T16:03:13Z</time>
      </trkpt>
      <trkpt lat="42.233669" lon="-6.467417">
        <ele>1198.37</ele>
        <time>2021-03-27T16:03:16Z</time>
      </trkpt>
      <trkpt lat="42.233978" lon="-6.466798">
        <ele>1196.57</ele>
        <time>2021-03-27T16:03:18Z</time>
      </trkpt>
      <trkpt lat="42.234112" lon="-6.466571">
        <ele>1193.86</ele>
        <time>2021-03-27T16:03:21Z</time>
      </trkpt>
      <trkpt lat="42.234475" lon="-6.466035">
        <ele>1194.57</ele>
        <time>2021-03-27T16:03:24Z</time>
      </trkpt>
      <trkpt lat="42.235209" lon="-6.465119">
        <ele>1194.13</ele>
        <time>2021-03-27T16:03:27Z</time>
      </trkpt>
      <trkpt lat="42.235365" lon="-6.464903">
        <ele>1192.68</ele>
        <time>2021-03-27T16:03:30Z</time>
      </trkpt>
      <trkpt lat="42.235599" lon="-6.464484">
        <ele>1191.95</ele>
        <time>2021-03-27T16:03:33Z</time>
      </trkpt>
      <trkpt lat="42.235701" lon="-6.46423">
        <ele>1190.76</ele>
        <time>2021-03-27T16:03:36Z</time>
      </trkpt>
      <trkpt lat="42.235984" lon="-6.463292">
        <ele>1189.67</ele>
        <time>2021-03-27T16:03:39Z</time>
      </trkpt>
      <trkpt lat="42.236193" lon="-6.462671">
        <ele>1184.7</ele>
        <time>2021-03-27T16:03:42Z</time>
      </trkpt>
      <trkpt lat="42.236323" lon="-6.462182">
        <ele>1182.15</ele>
        <time>2021-03-27T16:03:45Z</time>
      </trkpt>
      <trkpt lat="42.236366" lon="-6.461902">
        <ele>1181.16</ele>
        <time>2021-03-27T16:03:48Z</time>
      </trkpt>
      <trkpt lat="42.236332" lon="-6.461627">
        <ele>1180.33</ele>
        <time>2021-03-27T16:03:51Z</time>
      </trkpt>
      <trkpt lat="42.236368" lon="-6.461572">
        <ele>1179.55</ele>
        <time>2021-03-27T16:03:53Z</time>
      </trkpt>
      <trkpt lat="42.236441" lon="-6.461543">
        <ele>1178.53</ele>
        <time>2021-03-27T16:03:55Z</time>
      </trkpt>
      <trkpt lat="42.236696" lon="-6.461374">
        <ele>1175.95</ele>
        <time>2021-03-27T16:03:58Z</time>
      </trkpt>
      <trkpt lat="42.237116" lon="-6.461304">
        <ele>1174.5</ele>
        <time>2021-03-27T16:04:00Z</time>
      </trkpt>
      <trkpt lat="42.237388" lon="-6.461015">
        <ele>1173.4</ele>
        <time>2021-03-27T16:04:02Z</time>
      </trkpt>
      <trkpt lat="42.238042" lon="-6.460141">
        <ele>1170.61</ele>
        <time>2021-03-27T16:04:04Z</time>
      </trkpt>
      <trkpt lat="42.238117" lon="-6.459915">
        <ele>1170.64</ele>
        <time>2021-03-27T16:04:06Z</time>
      </trkpt>
      <trkpt lat="42.238149" lon="-6.459412">
        <ele>1171.37</ele>
        <time>2021-03-27T16:04:09Z</time>
      </trkpt>
      <trkpt lat="42.238249" lon="-6.459128">
        <ele>1171.3</ele>
        <time>2021-03-27T16:04:11Z</time>
      </trkpt>
      <trkpt lat="42.238727" lon="-6.45833">
        <ele>1167.98</ele>
        <time>2021-03-27T16:04:13Z</time>
      </trkpt>
      <trkpt lat="42.238929" lon="-6.457965">
        <ele>1166.72</ele>
        <time>2021-03-27T16:04:15Z</time>
      </trkpt>
      <trkpt lat="42.239165" lon="-6.457457">
        <ele>1167.0</ele>
        <time>2021-03-27T16:04:17Z</time>
      </trkpt>
      <trkpt lat="42.239207" lon="-6.457306">
        <ele>1166.85</ele>
        <time>2021-03-27T16:04:20Z</time>
      </trkpt>
      <trkpt lat="42.239333" lon="-6.456604">
        <ele>1167.9</ele>
        <time>2021-03-27T16:04:22Z</time>
      </trkpt>
      <trkpt lat="42.239396" lon="-6.456389">
        <ele>1167.52</ele>
        <time>2021-03-27T16:04:24Z</time>
      </trkpt>
      <trkpt lat="42.239529" lon="-6.456107">
        <ele>1165.08</ele>
        <time>2021-03-27T16:04:26Z</time>
      </trkpt>
      <trkpt lat="42.239592" lon="-6.45603">
        <ele>1164.25</ele>
        <time>2021-03-27T16:04:29Z</time>
      </trkpt>
      <trkpt lat="42.239748" lon="-6.45594">
        <ele>1162.19</ele>
        <time>2021-03-27T16:04:31Z</time>
      </trkpt>
      <trkpt lat="42.24031" lon="-6.455959">
        <ele>1159.4</ele>
        <time>2021-03-27T16:04:33Z</time>
      </trkpt>
      <trkpt lat="42.24081" lon="-6.456001">
        <ele>1159.0</ele>
        <time>2021-03-27T16:04:35Z</time>
      </trkpt>
      <trkpt lat="42.240912" lon="-6.455985">
        <ele>1160.57</ele>
        <time>2021-03-27T16:04:37Z</time>
      </trkpt>
      <trkpt lat="42.240964" lon="-6.455953">
        <ele>1161.56</ele>
        <time>2021-03-27T16:04:40Z</time>
      </trkpt>
      <trkpt lat="42.241054" lon="-6.455821">
        <ele>1162.9</ele>
        <time>2021-03-27T16:04:42Z</time>
      </trkpt>
      <trkpt lat="42.241172" lon="-6.455544">
        <ele>1163.03</ele>
        <time>2021-03-27T16:04:44Z</time>
      </trkpt>
      <trkpt lat="42.24127" lon="-6.455358">
        <ele>1163.34</ele>
        <time>2021-03-27T16:04:46Z</time>
      </trkpt>
      <trkpt lat="42.241457" lon="-6.455046">
        <ele>1163.15</ele>
        <time>2021-03-27T16:04:48Z</time>
      </trkpt>
      <trkpt lat="42.241754" lon="-6.454616">
        <ele>1162.12</ele>
        <time>2021-03-27T16:04:51Z</time>
      </trkpt>
      <trkpt lat="42.24208" lon="-6.454057">
        <ele>1162.57</ele>
        <time>2021-03-27T16:04:53Z</time>
      </trkpt>
      <trkpt lat="42.242163" lon="-6.45388">
        <ele>1162.53</ele>
        <time>2021-03-27T16:04:55Z</time>
      </trkpt>
      <trkpt lat="42.242257" lon="-6.453585">
        <ele>1161.84</ele>
        <time>2021-03-27T16:04:57Z</time>
      </trkpt>
      <trkpt lat="42.242333" lon="-6.453444">
        <ele>1160.59</ele>
        <time>2021-03-27T16:04:59Z</time>
      </trkpt>
      <trkpt lat="42.24262" lon="-6.453175">
        <ele>1159.91</ele>
        <time>2021-03-27T16:05:02Z</time>
      </trkpt>
      <trkpt lat="42.242819" lon="-6.452879">
        <ele>1159.38</ele>
        <time>2021-03-27T16:05:04Z</time>
      </trkpt>
      <trkpt lat="42.243187" lon="-6.452594">
        <ele>1161.74</ele>
        <time>2021-03-27T16:05:06Z</time>
      </trkpt>
      <trkpt lat="42.243798" lon="-6.451933">
        <ele>1158.92</ele>
        <time>2021-03-27T16:05:08Z</time>
      </trkpt>
      <trkpt lat="42.243946" lon="-6.451832">
        <ele>1158.52</ele>
        <time>2021-03-27T16:05:10Z</time>
      </trkpt>
      <trkpt lat="42.244187" lon="-6.451732">
        <ele>1158.71</ele>
        <time>2021-03-27T16:05:13Z</time>
      </trkpt>
      <trkpt lat="42.24456" lon="-6.451627">
        <ele>1157.57</ele>
        <time>2021-03-27T16:05:15Z</time>
      </trkpt>
      <trkpt lat="42.245166" lon="-6.451304">
        <ele>1156.98</ele>
        <time>2021-03-27T16:05:17Z</time>
      </trkpt>
      <trkpt lat="42.245526" lon="-6.451008">
        <ele>1155.59</ele>
        <time>2021-03-27T16:05:19Z</time>
      </trkpt>
      <trkpt lat="42.245642" lon="-6.450949">
        <ele>1155.55</ele>
        <time>2021-03-27T16:05:21Z</time>
      </trkpt>
      <trkpt lat="42.245888" lon="-6.450876">
        <ele>1155.08</ele>
        <time>2021-03-27T16:05:24Z</time>
      </trkpt>
      <trkpt lat="42.246032" lon="-6.450879">
        <ele>1154.49</ele>
        <time>2021-03-27T16:05:26Z</time>
      </trkpt>
      <trkpt lat="42.246126" lon="-6.450939">
        <ele>1154.31</ele>
        <time>2021-03-27T16:05:28Z</time>
      </trkpt>
      <trkpt lat="42.246323" lon="-6.45125">
        <ele>1156.0</ele>
        <time>2021-03-27T16:05:30Z</time>
      </trkpt>
      <trkpt lat="42.246364" lon="-6.451279">
        <ele>1156.21</ele>
        <time>2021-03-27T16:05:32Z</time>
      </trkpt>
      <trkpt lat="42.246439" lon="-6.451273">
        <ele>1156.61</ele>
        <time>2021-03-27T16:05:35Z</time>
      </trkpt>
      <trkpt lat="42.246485" lon="-6.451241">
        <ele>1156.81</ele>
        <time>2021-03-27T16:05:37Z</time>
      </trkpt>
      <trkpt lat="42.246554" lon="-6.451132">
        <ele>1156.89</ele>
        <time>2021-03-27T16:05:39Z</time>
      </trkpt>
      <trkpt lat="42.24675" lon="-6.450628">
        <ele>1154.68</ele>
        <time>2021-03-27T16:05:41Z</time>
      </trkpt>
      <trkpt lat="42.247033" lon="-6.450325">
        <ele>1155.35</ele>
        <time>2021-03-27T16:05:44Z</time>
      </trkpt>
      <trkpt lat="42.247234" lon="-6.450194">
        <ele>1156.5</ele>
        <time>2021-03-27T16:05:46Z</time>
      </trkpt>
      <trkpt lat="42.247378" lon="-6.450156">
        <ele>1157.32</ele>
        <time>2021-03-27T16:05:48Z</time>
      </trkpt>
      <trkpt lat="42.247517" lon="-6.450143">
        <ele>1158.1</ele>
        <time>2021-03-27T16:05:50Z</time>
      </trkpt>
      <trkpt lat="42.247922" lon="-6.450153">
        <ele>1159.18</ele>
        <time>2021-03-27T16:05:52Z</time>
      </trkpt>
      <trkpt lat="42.248067" lon="-6.450098">
        <ele>1159.14</ele>
        <time>2021-03-27T16:05:55Z</time>
      </trkpt>
      <trkpt lat="42.248371" lon="-6.449918">
        <ele>1158.43</ele>
        <time>2021-03-27T16:05:57Z</time>
      </trkpt>
      <trkpt lat="42.248628" lon="-6.449797">
        <ele>1156.0</ele>
        <time>2021-03-27T16:05:59Z</time>
      </trkpt>
      <trkpt lat="42.248753" lon="-6.449771">
        <ele>1155.1</ele>
        <time>2021-03-27T16:06:01Z</time>
      </trkpt>
      <trkpt lat="42.248869" lon="-6.449795">
        <ele>1154.88</ele>
        <time>2021-03-27T16:06:03Z</time>
      </trkpt>
      <trkpt lat="42.248978" lon="-6.449885">
        <ele>1154.55</ele>
        <time>2021-03-27T16:06:06Z</time>
      </trkpt>
      <trkpt lat="42.24933" lon="-6.450562">
        <ele>1157.49</ele>
        <time>2021-03-27T16:06:08Z</time>
      </trkpt>
      <trkpt lat="42.249436" lon="-6.450688">
        <ele>1158.49</ele>
        <time>2021-03-27T16:06:10Z</time>
      </trkpt>
      <trkpt lat="42.249494" lon="-6.450727">
        <ele>1158.92</ele>
        <time>2021-03-27T16:06:12Z</time>
      </trkpt>
      <trkpt lat="42.249623" lon="-6.450757">
        <ele>1159.35</ele>
        <time>2021-03-27T16:06:14Z</time>
      </trkpt>
      <trkpt lat="42.249693" lon="-6.450751">
        <ele>1159.37</ele>
        <time>2021-03-27T16:06:17Z</time>
      </trkpt>
      <trkpt lat="42.249784" lon="-6.450708">
        <ele>1159.63</ele>
        <time>2021-03-27T16:06:19Z</time>
      </trkpt>
      <trkpt lat="42.249812" lon="-6.450663">
        <ele>1159.69</ele>
        <time>2021-03-27T16:06:21Z</time>
      </trkpt>
      <trkpt lat="42.249831" lon="-6.45059">
        <ele>1159.67</ele>
        <time>2021-03-27T16:06:23Z</time>
      </trkpt>
      <trkpt lat="42.249885" lon="-6.449947">
        <ele>1157.23</ele>
        <time>2021-03-27T16:06:25Z</time>
      </trkpt>
      <trkpt lat="42.250015" lon="-6.448842">
        <ele>1156.95</ele>
        <time>2021-03-27T16:06:28Z</time>
      </trkpt>
      <trkpt lat="42.25006" lon="-6.44857">
        <ele>1157.01</ele>
        <time>2021-03-27T16:06:30Z</time>
      </trkpt>
      <trkpt lat="42.25009" lon="-6.448457">
        <ele>1157.85</ele>
        <time>2021-03-27T16:06:32Z</time>
      </trkpt>
      <trkpt lat="42.250339" lon="-6.447908">
        <ele>1161.02</ele>
        <time>2021-03-27T16:06:34Z</time>
      </trkpt>
      <trkpt lat="42.250457" lon="-6.447514">
        <ele>1160.04</ele>
        <time>2021-03-27T16:06:36Z</time>
      </trkpt>
      <trkpt lat="42.250513" lon="-6.447376">
        <ele>1159.72</ele>
        <time>2021-03-27T16:06:39Z</time>
      </trkpt>
      <trkpt lat="42.250591" lon="-6.447242">
        <ele>1159.28</ele>
        <time>2021-03-27T16:06:41Z</time>
      </trkpt>
      <trkpt lat="42.250744" lon="-6.44709">
        <ele>1157.77</ele>
        <time>2021-03-27T16:06:43Z</time>
      </trkpt>
      <trkpt lat="42.251233" lon="-6.446713">
        <ele>1151.67</ele>
        <time>2021-03-27T16:06:45Z</time>
      </trkpt>
      <trkpt lat="42.251534" lon="-6.446593">
        <ele>1149.81</ele>
        <time>2021-03-27T16:06:47Z</time>
      </trkpt>
      <trkpt lat="42.251955" lon="-6.446587">
        <ele>1147.83</ele>
        <time>2021-03-27T16:06:50Z</time>
      </trkpt>
      <trkpt lat="42.252206" lon="-6.446539">
        <ele>1146.65</ele>
        <time>2021-03-27T16:06:52Z</time>
      </trkpt>
      <trkpt lat="42.253244" lon="-6.44623">
        <ele>1144.99</ele>
        <time>2021-03-27T16:06:54Z</time>
      </trkpt>
      <trkpt lat="42.253342" lon="-6.446136">
        <ele>1144.17</ele>
        <time>2021-03-27T16:06:56Z</time>
      </trkpt>
      <trkpt lat="42.253682" lon="-6.445369">
        <ele>1140.6</ele>
        <time>2021-03-27T16:06:59Z</time>
      </trkpt>
      <trkpt lat="42.253972" lon="-6.445018">
        <ele>1141.71</ele>
        <time>2021-03-27T16:07:01Z</time>
      </trkpt>
      <trkpt lat="42.254514" lon="-6.444186">
        <ele>1136.99</ele>
        <time>2021-03-27T16:07:03Z</time>
      </trkpt>
      <trkpt lat="42.255072" lon="-6.443278">
        <ele>1136.46</ele>
        <time>2021-03-27T16:07:05Z</time>
      </trkpt>
      <trkpt lat="42.255575" lon="-6.442161">
        <ele>1133.09</ele>
        <time>2021-03-27T16:07:07Z</time>
      </trkpt>
      <trkpt lat="42.255868" lon="-6.441575">
        <ele>1133.67</ele>
        <time>2021-03-27T16:07:10Z</time>
      </trkpt>
      <trkpt lat="42.256391" lon="-6.440881">
        <ele>1132.17</ele>
        <time>2021-03-27T16:07:12Z</time>
      </trkpt>
      <trkpt lat="42.256863" lon="-6.440166">
        <ele>1129.71</ele>
        <time>2021-03-27T16:07:14Z</time>
      </trkpt>
      <trkpt lat="42.257281" lon="-6.439455">
        <ele>1129.96</ele>
        <time>2021-03-27T16:07:16Z</time>
      </trkpt>
      <trkpt lat="42.257837" lon="-6.438768">
        <ele>1129.12</ele>
        <time>2021-03-27T16:07:18Z</time>
      </trkpt>
      <trkpt lat="42.258814" lon="-6.437652">
        <ele>1125.33</ele>
        <time>2021-03-27T16:07:21Z</time>
      </trkpt>
      <trkpt lat="42.259052" lon="-6.437498">
        <ele>1123.41</ele>
        <time>2021-03-27T16:07:23Z</time>
      </trkpt>
      <trkpt lat="42.259398" lon="-6.437331">
        <ele>1123.0</ele>
        <time>2021-03-27T16:07:25Z</time>
      </trkpt>
      <trkpt lat="42.259525" lon="-6.437283">
        <ele>1122.77</ele>
        <time>2021-03-27T16:07:27Z</time>
      </trkpt>
      <trkpt lat="42.259647" lon="-6.43727">
        <ele>1122.4</ele>
        <time>2021-03-27T16:07:29Z</time>
      </trkpt>
      <trkpt lat="42.261279" lon="-6.437314">
        <ele>1125.33</ele>
        <time>2021-03-27T16:07:32Z</time>
      </trkpt>
      <trkpt lat="42.261552" lon="-6.437246">
        <ele>1123.91</ele>
        <time>2021-03-27T16:07:34Z</time>
      </trkpt>
      <trkpt lat="42.261645" lon="-6.437236">
        <ele>1123.2</ele>
        <time>2021-03-27T16:07:35Z</time>
      </trkpt>
      <trkpt lat="42.261704" lon="-6.437254">
        <ele>1122.96</ele>
        <time>2021-03-27T16:07:35Z</time>
      </trkpt>
      <trkpt lat="42.261766" lon="-6.437324">
        <ele>1122.88</ele>
        <time>2021-03-27T16:07:36Z</time>
      </trkpt>
      <trkpt lat="42.261859" lon="-6.437795">
        <ele>1123.69</ele>
        <time>2021-03-27T16:07:39Z</time>
      </trkpt>
      <trkpt lat="42.261934" lon="-6.43831">
        <ele>1125.03</ele>
        <time>2021-03-27T16:07:41Z</time>
      </trkpt>
      <trkpt lat="42.261946" lon="-6.438485">
        <ele>1125.54</ele>
        <time>2021-03-27T16:07:43Z</time>
      </trkpt>
      <trkpt lat="42.261938" lon="-6.43894">
        <ele>1124.06</ele>
        <time>2021-03-27T16:07:45Z</time>
      </trkpt>
      <trkpt lat="42.26189" lon="-6.439384">
        <ele>1125.02</ele>
        <time>2021-03-27T16:07:48Z</time>
      </trkpt>
      <trkpt lat="42.261801" lon="-6.439894">
        <ele>1127.03</ele>
        <time>2021-03-27T16:07:50Z</time>
      </trkpt>
      <trkpt lat="42.261699" lon="-6.4407">
        <ele>1128.78</ele>
        <time>2021-03-27T16:07:52Z</time>
      </trkpt>
      <trkpt lat="42.261685" lon="-6.441163">
        <ele>1128.36</ele>
        <time>2021-03-27T16:07:55Z</time>
      </trkpt>
      <trkpt lat="42.261699" lon="-6.441474">
        <ele>1127.91</ele>
        <time>2021-03-27T16:07:57Z</time>
      </trkpt>
      <trkpt lat="42.261986" lon="-6.443083">
        <ele>1129.0</ele>
        <time>2021-03-27T16:07:59Z</time>
      </trkpt>
      <trkpt lat="42.262204" lon="-6.444123">
        <ele>1129.93</ele>
        <time>2021-03-27T16:08:01Z</time>
      </trkpt>
      <trkpt lat="42.263519" lon="-6.447718">
        <ele>1147.8</ele>
        <time>2021-03-27T16:08:04Z</time>
      </trkpt>
      <trkpt lat="42.263655" lon="-6.448125">
        <ele>1150.76</ele>
        <time>2021-03-27T16:08:06Z</time>
      </trkpt>
      <trkpt lat="42.263705" lon="-6.448334">
        <ele>1151.64</ele>
        <time>2021-03-27T16:08:08Z</time>
      </trkpt>
      <trkpt lat="42.263732" lon="-6.448538">
        <ele>1152.1</ele>
        <time>2021-03-27T16:08:11Z</time>
      </trkpt>
      <trkpt lat="42.263725" lon="-6.448955">
        <ele>1154.46</ele>
        <time>2021-03-27T16:08:13Z</time>
      </trkpt>
      <trkpt lat="42.263668" lon="-6.44928">
        <ele>1155.39</ele>
        <time>2021-03-27T16:08:15Z</time>
      </trkpt>
      <trkpt lat="42.263618" lon="-6.449435">
        <ele>1155.93</ele>
        <time>2021-03-27T16:08:17Z</time>
      </trkpt>
      <trkpt lat="42.263477" lon="-6.449709">
        <ele>1155.99</ele>
        <time>2021-03-27T16:08:20Z</time>
      </trkpt>
      <trkpt lat="42.263265" lon="-6.449977">
        <ele>1156.53</ele>
        <time>2021-03-27T16:08:22Z</time>
      </trkpt>
      <trkpt lat="42.262718" lon="-6.450429">
        <ele>1161.76</ele>
        <time>2021-03-27T16:08:24Z</time>
      </trkpt>
      <trkpt lat="42.262614" lon="-6.450547">
        <ele>1162.56</ele>
        <time>2021-03-27T16:08:26Z</time>
      </trkpt>
      <trkpt lat="42.26248" lon="-6.450738">
        <ele>1165.14</ele>
        <time>2021-03-27T16:08:29Z</time>
      </trkpt>
      <trkpt lat="42.262396" lon="-6.450893">
        <ele>1166.96</ele>
        <time>2021-03-27T16:08:31Z</time>
      </trkpt>
      <trkpt lat="42.262343" lon="-6.451028">
        <ele>1167.83</ele>
        <time>2021-03-27T16:08:33Z</time>
      </trkpt>
      <trkpt lat="42.262263" lon="-6.451341">
        <ele>1171.65</ele>
        <time>2021-03-27T16:08:36Z</time>
      </trkpt>
      <trkpt lat="42.262234" lon="-6.451662">
        <ele>1175.69</ele>
        <time>2021-03-27T16:08:38Z</time>
      </trkpt>
      <trkpt lat="42.262245" lon="-6.451952">
        <ele>1176.64</ele>
        <time>2021-03-27T16:08:40Z</time>
      </trkpt>
      <trkpt lat="42.262308" lon="-6.452276">
        <ele>1176.96</ele>
        <time>2021-03-27T16:08:42Z</time>
      </trkpt>
      <trkpt lat="42.26265" lon="-6.45368">
        <ele>1184.85</ele>
        <time>2021-03-27T16:08:45Z</time>
      </trkpt>
      <trkpt lat="42.262819" lon="-6.454165">
        <ele>1189.54</ele>
        <time>2021-03-27T16:08:47Z</time>
      </trkpt>
      <trkpt lat="42.263121" lon="-6.454898">
        <ele>1190.7</ele>
        <time>2021-03-27T16:08:49Z</time>
      </trkpt>
      <trkpt lat="42.263204" lon="-6.455147">
        <ele>1190.35</ele>
        <time>2021-03-27T16:08:52Z</time>
      </trkpt>
      <trkpt lat="42.263277" lon="-6.455502">
        <ele>1191.46</ele>
        <time>2021-03-27T16:08:54Z</time>
      </trkpt>
      <trkpt lat="42.2633" lon="-6.455892">
        <ele>1195.81</ele>
        <time>2021-03-27T16:08:56Z</time>
      </trkpt>
      <trkpt lat="42.263261" lon="-6.457278">
        <ele>1199.69</ele>
        <time>2021-03-27T16:08:58Z</time>
      </trkpt>
      <trkpt lat="42.263276" lon="-6.457761">
        <ele>1204.66</ele>
        <time>2021-03-27T16:09:01Z</time>
      </trkpt>
      <trkpt lat="42.263302" lon="-6.458008">
        <ele>1206.5</ele>
        <time>2021-03-27T16:09:03Z</time>
      </trkpt>
      <trkpt lat="42.263436" lon="-6.458752">
        <ele>1208.32</ele>
        <time>2021-03-27T16:09:05Z</time>
      </trkpt>
      <trkpt lat="42.263884" lon="-6.460811">
        <ele>1210.11</ele>
        <time>2021-03-27T16:09:08Z</time>
      </trkpt>
      <trkpt lat="42.263942" lon="-6.461218">
        <ele>1209.11</ele>
        <time>2021-03-27T16:09:10Z</time>
      </trkpt>
      <trkpt lat="42.264017" lon="-6.461489">
        <ele>1208.56</ele>
        <time>2021-03-27T16:09:12Z</time>
      </trkpt>
      <trkpt lat="42.264167" lon="-6.462211">
        <ele>1206.04</ele>
        <time>2021-03-27T16:09:14Z</time>
      </trkpt>
      <trkpt lat="42.264217" lon="-6.462566">
        <ele>1206.36</ele>
        <time>2021-03-27T16:09:17Z</time>
      </trkpt>
      <trkpt lat="42.264241" lon="-6.463095">
        <ele>1206.54</ele>
        <time>2021-03-27T16:09:19Z</time>
      </trkpt>
      <trkpt lat="42.264205" lon="-6.463568">
        <ele>1204.58</ele>
        <time>2021-03-27T16:09:21Z</time>
      </trkpt>
      <trkpt lat="42.264095" lon="-6.464074">
        <ele>1203.07</ele>
        <time>2021-03-27T16:09:24Z</time>
      </trkpt>
      <trkpt lat="42.263572" lon="-6.466111">
        <ele>1191.86</ele>
        <time>2021-03-27T16:09:26Z</time>
      </trkpt>
      <trkpt lat="42.261795" lon="-6.472812">
        <ele>1175.82</ele>
        <time>2021-03-27T16:09:28Z</time>
      </trkpt>
      <trkpt lat="42.261063" lon="-6.475517">
        <ele>1171.43</ele>
        <time>2021-03-27T16:09:30Z</time>
      </trkpt>
      <trkpt lat="42.260994" lon="-6.475969">
        <ele>1169.35</ele>
        <time>2021-03-27T16:09:33Z</time>
      </trkpt>
      <trkpt lat="42.260965" lon="-6.476495">
        <ele>1168.05</ele>
        <time>2021-03-27T16:09:35Z</time>
      </trkpt>
      <trkpt lat="42.260983" lon="-6.476924">
        <ele>1167.92</ele>
        <time>2021-03-27T16:09:37Z</time>
      </trkpt>
      <trkpt lat="42.261064" lon="-6.477363">
        <ele>1166.76</ele>
        <time>2021-03-27T16:09:40Z</time>
      </trkpt>
      <trkpt lat="42.261482" lon="-6.478804">
        <ele>1170.46</ele>
        <time>2021-03-27T16:09:42Z</time>
      </trkpt>
      <trkpt lat="42.261545" lon="-6.479075">
        <ele>1171.5</ele>
        <time>2021-03-27T16:09:44Z</time>
      </trkpt>
      <trkpt lat="42.261597" lon="-6.479498">
        <ele>1172.74</ele>
        <time>2021-03-27T16:09:46Z</time>
      </trkpt>
      <trkpt lat="42.261609" lon="-6.480044">
        <ele>1173.74</ele>
        <time>2021-03-27T16:09:49Z</time>
      </trkpt>
      <trkpt lat="42.261554" lon="-6.484383">
        <ele>1182.29</ele>
        <time>2021-03-27T16:09:51Z</time>
      </trkpt>
      <trkpt lat="42.261573" lon="-6.484881">
        <ele>1181.6</ele>
        <time>2021-03-27T16:09:53Z</time>
      </trkpt>
      <trkpt lat="42.261602" lon="-6.485134">
        <ele>1180.98</ele>
        <time>2021-03-27T16:09:56Z</time>
      </trkpt>
      <trkpt lat="42.261696" lon="-6.485634">
        <ele>1179.96</ele>
        <time>2021-03-27T16:09:58Z</time>
      </trkpt>
      <trkpt lat="42.262128" lon="-6.487412">
        <ele>1184.07</ele>
        <time>2021-03-27T16:10:00Z</time>
      </trkpt>
      <trkpt lat="42.262402" lon="-6.48869">
        <ele>1186.3</ele>
        <time>2021-03-27T16:10:02Z</time>
      </trkpt>
      <trkpt lat="42.263145" lon="-6.493903">
        <ele>1196.56</ele>
        <time>2021-03-27T16:10:05Z</time>
      </trkpt>
      <trkpt lat="42.263255" lon="-6.494462">
        <ele>1196.89</ele>
        <time>2021-03-27T16:10:07Z</time>
      </trkpt>
      <trkpt lat="42.263338" lon="-6.494699">
        <ele>1198.08</ele>
        <time>2021-03-27T16:10:09Z</time>
      </trkpt>
      <trkpt lat="42.263512" lon="-6.495058">
        <ele>1199.8</ele>
        <time>2021-03-27T16:10:12Z</time>
      </trkpt>
      <trkpt lat="42.263648" lon="-6.495284">
        <ele>1200.71</ele>
        <time>2021-03-27T16:10:14Z</time>
      </trkpt>
      <trkpt lat="42.264001" lon="-6.495748">
        <ele>1202.65</ele>
        <time>2021-03-27T16:10:16Z</time>
      </trkpt>
      <trkpt lat="42.264138" lon="-6.495963">
        <ele>1202.14</ele>
        <time>2021-03-27T16:10:18Z</time>
      </trkpt>
      <trkpt lat="42.264218" lon="-6.496183">
        <ele>1199.89</ele>
        <time>2021-03-27T16:10:21Z</time>
      </trkpt>
      <trkpt lat="42.264248" lon="-6.496379">
        <ele>1197.6</ele>
        <time>2021-03-27T16:10:23Z</time>
      </trkpt>
      <trkpt lat="42.264244" lon="-6.496655">
        <ele>1196.43</ele>
        <time>2021-03-27T16:10:25Z</time>
      </trkpt>
      <trkpt lat="42.26418" lon="-6.496927">
        <ele>1197.07</ele>
        <time>2021-03-27T16:10:27Z</time>
      </trkpt>
      <trkpt lat="42.264142" lon="-6.497018">
        <ele>1198.3</ele>
        <time>2021-03-27T16:10:30Z</time>
      </trkpt>
      <trkpt lat="42.263998" lon="-6.497235">
        <ele>1201.6</ele>
        <time>2021-03-27T16:10:32Z</time>
      </trkpt>
      <trkpt lat="42.263872" lon="-6.497366">
        <ele>1203.71</ele>
        <time>2021-03-27T16:10:34Z</time>
      </trkpt>
      <trkpt lat="42.263526" lon="-6.49766">
        <ele>1208.95</ele>
        <time>2021-03-27T16:10:37Z</time>
      </trkpt>
      <trkpt lat="42.263396" lon="-6.497824">
        <ele>1209.69</ele>
        <time>2021-03-27T16:10:39Z</time>
      </trkpt>
      <trkpt lat="42.263284" lon="-6.498061">
        <ele>1208.98</ele>
        <time>2021-03-27T16:10:41Z</time>
      </trkpt>
      <trkpt lat="42.262985" lon="-6.499206">
        <ele>1210.99</ele>
        <time>2021-03-27T16:10:43Z</time>
      </trkpt>
      <trkpt lat="42.262943" lon="-6.499519">
        <ele>1211.59</ele>
        <time>2021-03-27T16:10:46Z</time>
      </trkpt>
      <trkpt lat="42.262918" lon="-6.499974">
        <ele>1211.97</ele>
        <time>2021-03-27T16:10:48Z</time>
      </trkpt>
      <trkpt lat="42.262951" lon="-6.500745">
        <ele>1216.37</ele>
        <time>2021-03-27T16:10:50Z</time>
      </trkpt>
      <trkpt lat="42.262876" lon="-6.501405">
        <ele>1217.64</ele>
        <time>2021-03-27T16:10:53Z</time>
      </trkpt>
      <trkpt lat="42.262919" lon="-6.501939">
        <ele>1213.6</ele>
        <time>2021-03-27T16:10:55Z</time>
      </trkpt>
      <trkpt lat="42.262974" lon="-6.502264">
        <ele>1214.64</ele>
        <time>2021-03-27T16:10:57Z</time>
      </trkpt>
      <trkpt lat="42.263012" lon="-6.502402">
        <ele>1215.76</ele>
        <time>2021-03-27T16:10:59Z</time>
      </trkpt>
      <trkpt lat="42.263093" lon="-6.502587">
        <ele>1217.09</ele>
        <time>2021-03-27T16:11:02Z</time>
      </trkpt>
      <trkpt lat="42.263229" lon="-6.502759">
        <ele>1217.94</ele>
        <time>2021-03-27T16:11:04Z</time>
      </trkpt>
      <trkpt lat="42.264184" lon="-6.503708">
        <ele>1223.61</ele>
        <time>2021-03-27T16:11:06Z</time>
      </trkpt>
      <trkpt lat="42.265105" lon="-6.504686">
        <ele>1227.95</ele>
        <time>2021-03-27T16:11:09Z</time>
      </trkpt>
      <trkpt lat="42.265317" lon="-6.504987">
        <ele>1228.52</ele>
        <time>2021-03-27T16:11:11Z</time>
      </trkpt>
      <trkpt lat="42.265388" lon="-6.505192">
        <ele>1228.5</ele>
        <time>2021-03-27T16:11:13Z</time>
      </trkpt>
      <trkpt lat="42.265423" lon="-6.50539">
        <ele>1229.17</ele>
        <time>2021-03-27T16:11:15Z</time>
      </trkpt>
      <trkpt lat="42.265432" lon="-6.50558">
        <ele>1230.28</ele>
        <time>2021-03-27T16:11:18Z</time>
      </trkpt>
      <trkpt lat="42.26542" lon="-6.505744">
        <ele>1231.36</ele>
        <time>2021-03-27T16:11:20Z</time>
      </trkpt>
      <trkpt lat="42.265377" lon="-6.505919">
        <ele>1233.54</ele>
        <time>2021-03-27T16:11:22Z</time>
      </trkpt>
      <trkpt lat="42.265322" lon="-6.506082">
        <ele>1236.47</ele>
        <time>2021-03-27T16:11:25Z</time>
      </trkpt>
      <trkpt lat="42.265148" lon="-6.506467">
        <ele>1241.16</ele>
        <time>2021-03-27T16:11:27Z</time>
      </trkpt>
      <trkpt lat="42.265054" lon="-6.506758">
        <ele>1242.37</ele>
        <time>2021-03-27T16:11:29Z</time>
      </trkpt>
      <trkpt lat="42.265011" lon="-6.507169">
        <ele>1244.84</ele>
        <time>2021-03-27T16:11:31Z</time>
      </trkpt>
      <trkpt lat="42.265016" lon="-6.507822">
        <ele>1248.68</ele>
        <time>2021-03-27T16:11:34Z</time>
      </trkpt>
      <trkpt lat="42.265046" lon="-6.508179">
        <ele>1250.05</ele>
        <time>2021-03-27T16:11:36Z</time>
      </trkpt>
      <trkpt lat="42.265087" lon="-6.508349">
        <ele>1249.86</ele>
        <time>2021-03-27T16:11:38Z</time>
      </trkpt>
      <trkpt lat="42.265142" lon="-6.508497">
        <ele>1249.96</ele>
        <time>2021-03-27T16:11:41Z</time>
      </trkpt>
      <trkpt lat="42.265283" lon="-6.508788">
        <ele>1251.44</ele>
        <time>2021-03-27T16:11:43Z</time>
      </trkpt>
      <trkpt lat="42.265648" lon="-6.509376">
        <ele>1251.57</ele>
        <time>2021-03-27T16:11:45Z</time>
      </trkpt>
      <trkpt lat="42.265707" lon="-6.509559">
        <ele>1250.4</ele>
        <time>2021-03-27T16:11:47Z</time>
      </trkpt>
      <trkpt lat="42.265738" lon="-6.509727">
        <ele>1248.92</ele>
        <time>2021-03-27T16:11:50Z</time>
      </trkpt>
      <trkpt lat="42.265743" lon="-6.509866">
        <ele>1247.47</ele>
        <time>2021-03-27T16:11:52Z</time>
      </trkpt>
      <trkpt lat="42.265695" lon="-6.51021">
        <ele>1245.13</ele>
        <time>2021-03-27T16:11:54Z</time>
      </trkpt>
      <trkpt lat="42.265657" lon="-6.510337">
        <ele>1245.29</ele>
        <time>2021-03-27T16:11:57Z</time>
      </trkpt>
      <trkpt lat="42.265474" lon="-6.510649">
        <ele>1248.63</ele>
        <time>2021-03-27T16:11:59Z</time>
      </trkpt>
      <trkpt lat="42.265225" lon="-6.511">
        <ele>1252.23</ele>
        <time>2021-03-27T16:12:01Z</time>
      </trkpt>
      <trkpt lat="42.265085" lon="-6.511277">
        <ele>1253.71</ele>
        <time>2021-03-27T16:12:03Z</time>
      </trkpt>
      <trkpt lat="42.265046" lon="-6.511417">
        <ele>1254.73</ele>
        <time>2021-03-27T16:12:06Z</time>
      </trkpt>
      <trkpt lat="42.265015" lon="-6.5118">
        <ele>1256.8</ele>
        <time>2021-03-27T16:12:08Z</time>
      </trkpt>
      <trkpt lat="42.265073" lon="-6.514511">
        <ele>1265.44</ele>
        <time>2021-03-27T16:12:10Z</time>
      </trkpt>
      <trkpt lat="42.265096" lon="-6.514707">
        <ele>1265.47</ele>
        <time>2021-03-27T16:12:13Z</time>
      </trkpt>
      <trkpt lat="42.265132" lon="-6.514852">
        <ele>1265.86</ele>
        <time>2021-03-27T16:12:15Z</time>
      </trkpt>
      <trkpt lat="42.265256" lon="-6.515169">
        <ele>1267.19</ele>
        <time>2021-03-27T16:12:17Z</time>
      </trkpt>
      <trkpt lat="42.265405" lon="-6.515396">
        <ele>1267.56</ele>
        <time>2021-03-27T16:12:19Z</time>
      </trkpt>
      <trkpt lat="42.265979" lon="-6.515999">
        <ele>1265.05</ele>
        <time>2021-03-27T16:12:22Z</time>
      </trkpt>
      <trkpt lat="42.266122" lon="-6.516259">
        <ele>1261.99</ele>
        <time>2021-03-27T16:12:24Z</time>
      </trkpt>
      <trkpt lat="42.266163" lon="-6.516404">
        <ele>1260.51</ele>
        <time>2021-03-27T16:12:26Z</time>
      </trkpt>
      <trkpt lat="42.266189" lon="-6.516574">
        <ele>1260.17</ele>
        <time>2021-03-27T16:12:28Z</time>
      </trkpt>
      <trkpt lat="42.266184" lon="-6.516874">
        <ele>1262.03</ele>
        <time>2021-03-27T16:12:31Z</time>
      </trkpt>
      <trkpt lat="42.266141" lon="-6.517092">
        <ele>1264.5</ele>
        <time>2021-03-27T16:12:33Z</time>
      </trkpt>
      <trkpt lat="42.265773" lon="-6.518002">
        <ele>1268.94</ele>
        <time>2021-03-27T16:12:35Z</time>
      </trkpt>
      <trkpt lat="42.265652" lon="-6.518259">
        <ele>1272.61</ele>
        <time>2021-03-27T16:12:38Z</time>
      </trkpt>
      <trkpt lat="42.265492" lon="-6.518421">
        <ele>1274.83</ele>
        <time>2021-03-27T16:12:40Z</time>
      </trkpt>
      <trkpt lat="42.265076" lon="-6.518724">
        <ele>1279.25</ele>
        <time>2021-03-27T16:12:42Z</time>
      </trkpt>
      <trkpt lat="42.264996" lon="-6.518823">
        <ele>1280.75</ele>
        <time>2021-03-27T16:12:44Z</time>
      </trkpt>
      <trkpt lat="42.264918" lon="-6.518974">
        <ele>1282.35</ele>
        <time>2021-03-27T16:12:47Z</time>
      </trkpt>
      <trkpt lat="42.264832" lon="-6.51923">
        <ele>1285.13</ele>
        <time>2021-03-27T16:12:49Z</time>
      </trkpt>
      <trkpt lat="42.264813" lon="-6.519571">
        <ele>1287.23</ele>
        <time>2021-03-27T16:12:51Z</time>
      </trkpt>
      <trkpt lat="42.264829" lon="-6.521307">
        <ele>1297.76</ele>
        <time>2021-03-27T16:12:54Z</time>
      </trkpt>
      <trkpt lat="42.264847" lon="-6.521717">
        <ele>1299.21</ele>
        <time>2021-03-27T16:12:56Z</time>
      </trkpt>
      <trkpt lat="42.264894" lon="-6.522085">
        <ele>1301.18</ele>
        <time>2021-03-27T16:12:58Z</time>
      </trkpt>
      <trkpt lat="42.265165" lon="-6.52311">
        <ele>1308.81</ele>
        <time>2021-03-27T16:13:00Z</time>
      </trkpt>
      <trkpt lat="42.265234" lon="-6.523429">
        <ele>1309.92</ele>
        <time>2021-03-27T16:13:03Z</time>
      </trkpt>
      <trkpt lat="42.26527" lon="-6.523639">
        <ele>1310.79</ele>
        <time>2021-03-27T16:13:05Z</time>
      </trkpt>
      <trkpt lat="42.265281" lon="-6.52383">
        <ele>1311.95</ele>
        <time>2021-03-27T16:13:07Z</time>
      </trkpt>
      <trkpt lat="42.265277" lon="-6.524098">
        <ele>1314.97</ele>
        <time>2021-03-27T16:13:10Z</time>
      </trkpt>
      <trkpt lat="42.265237" lon="-6.52443">
        <ele>1317.07</ele>
        <time>2021-03-27T16:13:12Z</time>
      </trkpt>
      <trkpt lat="42.264958" lon="-6.526237">
        <ele>1323.83</ele>
        <time>2021-03-27T16:13:14Z</time>
      </trkpt>
      <trkpt lat="42.264927" lon="-6.526718">
        <ele>1327.88</ele>
        <time>2021-03-27T16:13:16Z</time>
      </trkpt>
      <trkpt lat="42.26493" lon="-6.52728">
        <ele>1330.73</ele>
        <time>2021-03-27T16:13:19Z</time>
      </trkpt>
      <trkpt lat="42.264975" lon="-6.52788">
        <ele>1333.26</ele>
        <time>2021-03-27T16:13:21Z</time>
      </trkpt>
      <trkpt lat="42.265046" lon="-6.528354">
        <ele>1336.06</ele>
        <time>2021-03-27T16:13:23Z</time>
      </trkpt>
      <trkpt lat="42.265173" lon="-6.528878">
        <ele>1341.17</ele>
        <time>2021-03-27T16:13:26Z</time>
      </trkpt>
      <trkpt lat="42.265236" lon="-6.529051">
        <ele>1342.17</ele>
        <time>2021-03-27T16:13:28Z</time>
      </trkpt>
      <trkpt lat="42.265236" lon="-6.529051">
        <ele>1342.17</ele>
        <time>2021-03-27T16:13:28Z</time>
      </trkpt>
      <trkpt lat="42.265305" lon="-6.529242">
        <ele>1343.17</ele>
        <time>2021-03-27T16:13:30Z</time>
      </trkpt>
      <trkpt lat="42.265446" lon="-6.529482">
        <ele>1343.53</ele>
        <time>2021-03-27T16:13:31Z</time>
      </trkpt>
      <trkpt lat="42.265709" lon="-6.52976">
        <ele>1342.99</ele>
        <time>2021-03-27T16:13:33Z</time>
      </trkpt>
      <trkpt lat="42.266284" lon="-6.530241">
        <ele>1339.56</ele>
        <time>2021-03-27T16:13:34Z</time>
      </trkpt>
      <trkpt lat="42.266482" lon="-6.530485">
        <ele>1337.19</ele>
        <time>2021-03-27T16:13:36Z</time>
      </trkpt>
      <trkpt lat="42.267194" lon="-6.531831">
        <ele>1324.57</ele>
        <time>2021-03-27T16:13:38Z</time>
      </trkpt>
      <trkpt lat="42.267478" lon="-6.532208">
        <ele>1319.06</ele>
        <time>2021-03-27T16:13:39Z</time>
      </trkpt>
      <trkpt lat="42.267805" lon="-6.532424">
        <ele>1322.08</ele>
        <time>2021-03-27T16:13:41Z</time>
      </trkpt>
      <trkpt lat="42.26862" lon="-6.53287">
        <ele>1323.32</ele>
        <time>2021-03-27T16:13:43Z</time>
      </trkpt>
      <trkpt lat="42.268791" lon="-6.532899">
        <ele>1322.84</ele>
        <time>2021-03-27T16:13:44Z</time>
      </trkpt>
      <trkpt lat="42.268986" lon="-6.532834">
        <ele>1322.69</ele>
        <time>2021-03-27T16:13:46Z</time>
      </trkpt>
      <trkpt lat="42.269154" lon="-6.53267">
        <ele>1323.27</ele>
        <time>2021-03-27T16:13:47Z</time>
      </trkpt>
      <trkpt lat="42.269417" lon="-6.532348">
        <ele>1323.69</ele>
        <time>2021-03-27T16:13:49Z</time>
      </trkpt>
      <trkpt lat="42.269561" lon="-6.532251">
        <ele>1322.49</ele>
        <time>2021-03-27T16:13:51Z</time>
      </trkpt>
      <trkpt lat="42.269638" lon="-6.532243">
        <ele>1321.21</ele>
        <time>2021-03-27T16:13:52Z</time>
      </trkpt>
      <trkpt lat="42.269731" lon="-6.532264">
        <ele>1319.19</ele>
        <time>2021-03-27T16:13:54Z</time>
      </trkpt>
      <trkpt lat="42.269808" lon="-6.532318">
        <ele>1316.78</ele>
        <time>2021-03-27T16:13:55Z</time>
      </trkpt>
      <trkpt lat="42.269879" lon="-6.532399">
        <ele>1314.58</ele>
        <time>2021-03-27T16:13:57Z</time>
      </trkpt>
      <trkpt lat="42.269956" lon="-6.532578">
        <ele>1311.88</ele>
        <time>2021-03-27T16:13:59Z</time>
      </trkpt>
      <trkpt lat="42.269971" lon="-6.532764">
        <ele>1309.76</ele>
        <time>2021-03-27T16:14:00Z</time>
      </trkpt>
      <trkpt lat="42.269925" lon="-6.532967">
        <ele>1308.08</ele>
        <time>2021-03-27T16:14:02Z</time>
      </trkpt>
      <trkpt lat="42.26944" lon="-6.533985">
        <ele>1302.73</ele>
        <time>2021-03-27T16:14:04Z</time>
      </trkpt>
      <trkpt lat="42.269224" lon="-6.534304">
        <ele>1303.19</ele>
        <time>2021-03-27T16:14:05Z</time>
      </trkpt>
      <trkpt lat="42.269074" lon="-6.53441">
        <ele>1303.66</ele>
        <time>2021-03-27T16:14:07Z</time>
      </trkpt>
      <trkpt lat="42.268409" lon="-6.5347">
        <ele>1298.44</ele>
        <time>2021-03-27T16:14:08Z</time>
      </trkpt>
      <trkpt lat="42.268302" lon="-6.534786">
        <ele>1296.52</ele>
        <time>2021-03-27T16:14:10Z</time>
      </trkpt>
      <trkpt lat="42.268225" lon="-6.534896">
        <ele>1293.55</ele>
        <time>2021-03-27T16:14:12Z</time>
      </trkpt>
      <trkpt lat="42.268194" lon="-6.535">
        <ele>1291.49</ele>
        <time>2021-03-27T16:14:13Z</time>
      </trkpt>
      <trkpt lat="42.268184" lon="-6.535136">
        <ele>1289.09</ele>
        <time>2021-03-27T16:14:15Z</time>
      </trkpt>
      <trkpt lat="42.268193" lon="-6.535266">
        <ele>1287.16</ele>
        <time>2021-03-27T16:14:16Z</time>
      </trkpt>
      <trkpt lat="42.268252" lon="-6.535416">
        <ele>1285.4</ele>
        <time>2021-03-27T16:14:18Z</time>
      </trkpt>
      <trkpt lat="42.268364" lon="-6.535556">
        <ele>1284.21</ele>
        <time>2021-03-27T16:14:20Z</time>
      </trkpt>
      <trkpt lat="42.268523" lon="-6.535599">
        <ele>1284.43</ele>
        <time>2021-03-27T16:14:21Z</time>
      </trkpt>
      <trkpt lat="42.268695" lon="-6.535563">
        <ele>1284.95</ele>
        <time>2021-03-27T16:14:23Z</time>
      </trkpt>
      <trkpt lat="42.268995" lon="-6.535387">
        <ele>1283.68</ele>
        <time>2021-03-27T16:14:25Z</time>
      </trkpt>
      <trkpt lat="42.269832" lon="-6.534845">
        <ele>1280.81</ele>
        <time>2021-03-27T16:14:26Z</time>
      </trkpt>
      <trkpt lat="42.269994" lon="-6.534644">
        <ele>1279.0</ele>
        <time>2021-03-27T16:14:28Z</time>
      </trkpt>
      <trkpt lat="42.270374" lon="-6.533959">
        <ele>1281.38</ele>
        <time>2021-03-27T16:14:29Z</time>
      </trkpt>
      <trkpt lat="42.270471" lon="-6.533888">
        <ele>1279.75</ele>
        <time>2021-03-27T16:14:31Z</time>
      </trkpt>
      <trkpt lat="42.270555" lon="-6.533856">
        <ele>1277.37</ele>
        <time>2021-03-27T16:14:33Z</time>
      </trkpt>
      <trkpt lat="42.270642" lon="-6.533851">
        <ele>1275.23</ele>
        <time>2021-03-27T16:14:34Z</time>
      </trkpt>
      <trkpt lat="42.270721" lon="-6.533878">
        <ele>1272.95</ele>
        <time>2021-03-27T16:14:36Z</time>
      </trkpt>
      <trkpt lat="42.270827" lon="-6.533999">
        <ele>1268.59</ele>
        <time>2021-03-27T16:14:37Z</time>
      </trkpt>
      <trkpt lat="42.270877" lon="-6.534111">
        <ele>1265.39</ele>
        <time>2021-03-27T16:14:39Z</time>
      </trkpt>
      <trkpt lat="42.2709" lon="-6.534214">
        <ele>1262.69</ele>
        <time>2021-03-27T16:14:41Z</time>
      </trkpt>
      <trkpt lat="42.270881" lon="-6.534442">
        <ele>1257.69</ele>
        <time>2021-03-27T16:14:42Z</time>
      </trkpt>
      <trkpt lat="42.270813" lon="-6.534606">
        <ele>1256.18</ele>
        <time>2021-03-27T16:14:44Z</time>
      </trkpt>
      <trkpt lat="42.269377" lon="-6.537555">
        <ele>1243.28</ele>
        <time>2021-03-27T16:14:46Z</time>
      </trkpt>
      <trkpt lat="42.269338" lon="-6.537879">
        <ele>1240.81</ele>
        <time>2021-03-27T16:14:47Z</time>
      </trkpt>
      <trkpt lat="42.269364" lon="-6.537989">
        <ele>1239.52</ele>
        <time>2021-03-27T16:14:49Z</time>
      </trkpt>
      <trkpt lat="42.269422" lon="-6.538116">
        <ele>1237.81</ele>
        <time>2021-03-27T16:14:50Z</time>
      </trkpt>
      <trkpt lat="42.269545" lon="-6.538222">
        <ele>1236.29</ele>
        <time>2021-03-27T16:14:52Z</time>
      </trkpt>
      <trkpt lat="42.270243" lon="-6.538397">
        <ele>1233.45</ele>
        <time>2021-03-27T16:14:54Z</time>
      </trkpt>
      <trkpt lat="42.27099" lon="-6.538546">
        <ele>1223.91</ele>
        <time>2021-03-27T16:14:55Z</time>
      </trkpt>
      <trkpt lat="42.271061" lon="-6.538596">
        <ele>1222.92</ele>
        <time>2021-03-27T16:14:57Z</time>
      </trkpt>
      <trkpt lat="42.271199" lon="-6.538785">
        <ele>1221.23</ele>
        <time>2021-03-27T16:14:58Z</time>
      </trkpt>
      <trkpt lat="42.271658" lon="-6.539528">
        <ele>1220.76</ele>
        <time>2021-03-27T16:15:00Z</time>
      </trkpt>
      <trkpt lat="42.271743" lon="-6.539629">
        <ele>1219.59</ele>
        <time>2021-03-27T16:15:02Z</time>
      </trkpt>
      <trkpt lat="42.271937" lon="-6.53979">
        <ele>1216.88</ele>
        <time>2021-03-27T16:15:03Z</time>
      </trkpt>
      <trkpt lat="42.272131" lon="-6.539863">
        <ele>1213.82</ele>
        <time>2021-03-27T16:15:05Z</time>
      </trkpt>
      <trkpt lat="42.272425" lon="-6.539914">
        <ele>1209.01</ele>
        <time>2021-03-27T16:15:07Z</time>
      </trkpt>
      <trkpt lat="42.272545" lon="-6.539955">
        <ele>1207.33</ele>
        <time>2021-03-27T16:15:08Z</time>
      </trkpt>
      <trkpt lat="42.272681" lon="-6.540022">
        <ele>1205.33</ele>
        <time>2021-03-27T16:15:10Z</time>
      </trkpt>
      <trkpt lat="42.272749" lon="-6.540083">
        <ele>1204.52</ele>
        <time>2021-03-27T16:15:11Z</time>
      </trkpt>
      <trkpt lat="42.272824" lon="-6.540182">
        <ele>1203.85</ele>
        <time>2021-03-27T16:15:13Z</time>
      </trkpt>
      <trkpt lat="42.273156" lon="-6.540738">
        <ele>1199.66</ele>
        <time>2021-03-27T16:15:15Z</time>
      </trkpt>
      <trkpt lat="42.273212" lon="-6.540886">
        <ele>1199.06</ele>
        <time>2021-03-27T16:15:16Z</time>
      </trkpt>
      <trkpt lat="42.27323" lon="-6.541163">
        <ele>1198.67</ele>
        <time>2021-03-27T16:15:18Z</time>
      </trkpt>
      <trkpt lat="42.273168" lon="-6.541409">
        <ele>1200.71</ele>
        <time>2021-03-27T16:15:19Z</time>
      </trkpt>
      <trkpt lat="42.272884" lon="-6.542149">
        <ele>1201.6</ele>
        <time>2021-03-27T16:15:21Z</time>
      </trkpt>
      <trkpt lat="42.272786" lon="-6.542446">
        <ele>1200.55</ele>
        <time>2021-03-27T16:15:23Z</time>
      </trkpt>
      <trkpt lat="42.272673" lon="-6.543107">
        <ele>1188.82</ele>
        <time>2021-03-27T16:15:24Z</time>
      </trkpt>
      <trkpt lat="42.272629" lon="-6.543262">
        <ele>1189.16</ele>
        <time>2021-03-27T16:15:26Z</time>
      </trkpt>
      <trkpt lat="42.272558" lon="-6.543405">
        <ele>1189.11</ele>
        <time>2021-03-27T16:15:28Z</time>
      </trkpt>
      <trkpt lat="42.272401" lon="-6.543623">
        <ele>1188.49</ele>
        <time>2021-03-27T16:15:29Z</time>
      </trkpt>
      <trkpt lat="42.27227" lon="-6.543767">
        <ele>1187.67</ele>
        <time>2021-03-27T16:15:31Z</time>
      </trkpt>
      <trkpt lat="42.272069" lon="-6.543948">
        <ele>1186.06</ele>
        <time>2021-03-27T16:15:32Z</time>
      </trkpt>
      <trkpt lat="42.271693" lon="-6.54424">
        <ele>1183.89</ele>
        <time>2021-03-27T16:15:34Z</time>
      </trkpt>
      <trkpt lat="42.271408" lon="-6.544422">
        <ele>1179.59</ele>
        <time>2021-03-27T16:15:36Z</time>
      </trkpt>
      <trkpt lat="42.271154" lon="-6.544472">
        <ele>1175.74</ele>
        <time>2021-03-27T16:15:37Z</time>
      </trkpt>
      <trkpt lat="42.269873" lon="-6.544487">
        <ele>1168.47</ele>
        <time>2021-03-27T16:15:39Z</time>
      </trkpt>
      <trkpt lat="42.269684" lon="-6.544454">
        <ele>1166.94</ele>
        <time>2021-03-27T16:15:40Z</time>
      </trkpt>
      <trkpt lat="42.269583" lon="-6.544394">
        <ele>1166.08</ele>
        <time>2021-03-27T16:15:42Z</time>
      </trkpt>
      <trkpt lat="42.269488" lon="-6.544299">
        <ele>1166.08</ele>
        <time>2021-03-27T16:15:44Z</time>
      </trkpt>
      <trkpt lat="42.268261" lon="-6.542754">
        <ele>1156.58</ele>
        <time>2021-03-27T16:15:45Z</time>
      </trkpt>
      <trkpt lat="42.268129" lon="-6.542626">
        <ele>1155.18</ele>
        <time>2021-03-27T16:15:47Z</time>
      </trkpt>
      <trkpt lat="42.268012" lon="-6.542607">
        <ele>1152.83</ele>
        <time>2021-03-27T16:15:48Z</time>
      </trkpt>
      <trkpt lat="42.2679" lon="-6.542648">
        <ele>1150.63</ele>
        <time>2021-03-27T16:15:50Z</time>
      </trkpt>
      <trkpt lat="42.26783" lon="-6.542697">
        <ele>1148.91</ele>
        <time>2021-03-27T16:15:52Z</time>
      </trkpt>
      <trkpt lat="42.267733" lon="-6.54283">
        <ele>1145.12</ele>
        <time>2021-03-27T16:15:53Z</time>
      </trkpt>
      <trkpt lat="42.267684" lon="-6.54299">
        <ele>1141.41</ele>
        <time>2021-03-27T16:15:55Z</time>
      </trkpt>
      <trkpt lat="42.267695" lon="-6.543172">
        <ele>1138.41</ele>
        <time>2021-03-27T16:15:57Z</time>
      </trkpt>
      <trkpt lat="42.267754" lon="-6.543339">
        <ele>1136.49</ele>
        <time>2021-03-27T16:15:58Z</time>
      </trkpt>
      <trkpt lat="42.267869" lon="-6.543477">
        <ele>1137.4</ele>
        <time>2021-03-27T16:16:00Z</time>
      </trkpt>
      <trkpt lat="42.268095" lon="-6.543626">
        <ele>1141.58</ele>
        <time>2021-03-27T16:16:01Z</time>
      </trkpt>
      <trkpt lat="42.268275" lon="-6.543789">
        <ele>1142.54</ele>
        <time>2021-03-27T16:16:03Z</time>
      </trkpt>
      <trkpt lat="42.268367" lon="-6.543904">
        <ele>1142.41</ele>
        <time>2021-03-27T16:16:05Z</time>
      </trkpt>
      <trkpt lat="42.26919" lon="-6.545505">
        <ele>1124.69</ele>
        <time>2021-03-27T16:16:06Z</time>
      </trkpt>
      <trkpt lat="42.269382" lon="-6.545774">
        <ele>1125.28</ele>
        <time>2021-03-27T16:16:08Z</time>
      </trkpt>
      <trkpt lat="42.269959" lon="-6.546478">
        <ele>1118.76</ele>
        <time>2021-03-27T16:16:09Z</time>
      </trkpt>
      <trkpt lat="42.270577" lon="-6.547195">
        <ele>1110.67</ele>
        <time>2021-03-27T16:16:11Z</time>
      </trkpt>
      <trkpt lat="42.27076" lon="-6.547333">
        <ele>1107.55</ele>
        <time>2021-03-27T16:16:13Z</time>
      </trkpt>
      <trkpt lat="42.271338" lon="-6.547368">
        <ele>1103.68</ele>
        <time>2021-03-27T16:16:14Z</time>
      </trkpt>
      <trkpt lat="42.271909" lon="-6.547362">
        <ele>1104.23</ele>
        <time>2021-03-27T16:16:16Z</time>
      </trkpt>
      <trkpt lat="42.272162" lon="-6.5473">
        <ele>1100.9</ele>
        <time>2021-03-27T16:16:18Z</time>
      </trkpt>
      <trkpt lat="42.272755" lon="-6.547067">
        <ele>1093.18</ele>
        <time>2021-03-27T16:16:19Z</time>
      </trkpt>
      <trkpt lat="42.272926" lon="-6.546979">
        <ele>1092.18</ele>
        <time>2021-03-27T16:16:21Z</time>
      </trkpt>
      <trkpt lat="42.273042" lon="-6.546896">
        <ele>1092.28</ele>
        <time>2021-03-27T16:16:22Z</time>
      </trkpt>
      <trkpt lat="42.273335" lon="-6.546623">
        <ele>1086.7</ele>
        <time>2021-03-27T16:16:24Z</time>
      </trkpt>
      <trkpt lat="42.273787" lon="-6.545974">
        <ele>1084.91</ele>
        <time>2021-03-27T16:16:26Z</time>
      </trkpt>
      <trkpt lat="42.274054" lon="-6.545502">
        <ele>1079.24</ele>
        <time>2021-03-27T16:16:27Z</time>
      </trkpt>
      <trkpt lat="42.274699" lon="-6.544171">
        <ele>1075.24</ele>
        <time>2021-03-27T16:16:29Z</time>
      </trkpt>
      <trkpt lat="42.274892" lon="-6.543943">
        <ele>1071.81</ele>
        <time>2021-03-27T16:16:30Z</time>
      </trkpt>
      <trkpt lat="42.27576" lon="-6.543369">
        <ele>1064.35</ele>
        <time>2021-03-27T16:16:32Z</time>
      </trkpt>
      <trkpt lat="42.276196" lon="-6.543131">
        <ele>1059.78</ele>
        <time>2021-03-27T16:16:34Z</time>
      </trkpt>
      <trkpt lat="42.276902" lon="-6.542903">
        <ele>1052.24</ele>
        <time>2021-03-27T16:16:35Z</time>
      </trkpt>
      <trkpt lat="42.277158" lon="-6.542705">
        <ele>1051.15</ele>
        <time>2021-03-27T16:16:37Z</time>
      </trkpt>
      <trkpt lat="42.277373" lon="-6.542383">
        <ele>1052.92</ele>
        <time>2021-03-27T16:16:39Z</time>
      </trkpt>
      <trkpt lat="42.27748" lon="-6.542247">
        <ele>1051.31</ele>
        <time>2021-03-27T16:16:40Z</time>
      </trkpt>
      <trkpt lat="42.277523" lon="-6.542215">
        <ele>1050.37</ele>
        <time>2021-03-27T16:16:42Z</time>
      </trkpt>
      <trkpt lat="42.277675" lon="-6.542173">
        <ele>1046.23</ele>
        <time>2021-03-27T16:16:43Z</time>
      </trkpt>
      <trkpt lat="42.277829" lon="-6.542242">
        <ele>1041.63</ele>
        <time>2021-03-27T16:16:45Z</time>
      </trkpt>
      <trkpt lat="42.277898" lon="-6.542342">
        <ele>1038.26</ele>
        <time>2021-03-27T16:16:47Z</time>
      </trkpt>
      <trkpt lat="42.277932" lon="-6.542433">
        <ele>1036.74</ele>
        <time>2021-03-27T16:16:48Z</time>
      </trkpt>
      <trkpt lat="42.277945" lon="-6.542671">
        <ele>1034.59</ele>
        <time>2021-03-27T16:16:50Z</time>
      </trkpt>
      <trkpt lat="42.277915" lon="-6.54276">
        <ele>1034.22</ele>
        <time>2021-03-27T16:16:51Z</time>
      </trkpt>
      <trkpt lat="42.277867" lon="-6.542821">
        <ele>1033.72</ele>
        <time>2021-03-27T16:16:53Z</time>
      </trkpt>
      <trkpt lat="42.277777" lon="-6.542889">
        <ele>1033.21</ele>
        <time>2021-03-27T16:16:55Z</time>
      </trkpt>
      <trkpt lat="42.277388" lon="-6.543103">
        <ele>1033.15</ele>
        <time>2021-03-27T16:16:56Z</time>
      </trkpt>
      <trkpt lat="42.276238" lon="-6.543882">
        <ele>1030.95</ele>
        <time>2021-03-27T16:16:58Z</time>
      </trkpt>
      <trkpt lat="42.276142" lon="-6.54396">
        <ele>1029.85</ele>
        <time>2021-03-27T16:17:00Z</time>
      </trkpt>
      <trkpt lat="42.275926" lon="-6.544228">
        <ele>1026.94</ele>
        <time>2021-03-27T16:17:01Z</time>
      </trkpt>
      <trkpt lat="42.275798" lon="-6.544485">
        <ele>1023.29</ele>
        <time>2021-03-27T16:17:03Z</time>
      </trkpt>
      <trkpt lat="42.273784" lon="-6.55026">
        <ele>990.2</ele>
        <time>2021-03-27T16:17:04Z</time>
      </trkpt>
      <trkpt lat="42.273585" lon="-6.550702">
        <ele>983.29</ele>
        <time>2021-03-27T16:17:06Z</time>
      </trkpt>
      <trkpt lat="42.273313" lon="-6.551188">
        <ele>980.79</ele>
        <time>2021-03-27T16:17:08Z</time>
      </trkpt>
      <trkpt lat="42.273146" lon="-6.5514">
        <ele>978.35</ele>
        <time>2021-03-27T16:17:09Z</time>
      </trkpt>
      <trkpt lat="42.273005" lon="-6.551517">
        <ele>976.79</ele>
        <time>2021-03-27T16:17:11Z</time>
      </trkpt>
      <trkpt lat="42.272828" lon="-6.551577">
        <ele>976.2</ele>
        <time>2021-03-27T16:17:12Z</time>
      </trkpt>
      <trkpt lat="42.272672" lon="-6.551589">
        <ele>975.86</ele>
        <time>2021-03-27T16:17:14Z</time>
      </trkpt>
      <trkpt lat="42.272222" lon="-6.551401">
        <ele>979.65</ele>
        <time>2021-03-27T16:17:16Z</time>
      </trkpt>
      <trkpt lat="42.272124" lon="-6.551422">
        <ele>980.07</ele>
        <time>2021-03-27T16:17:17Z</time>
      </trkpt>
      <trkpt lat="42.272034" lon="-6.551496">
        <ele>978.68</ele>
        <time>2021-03-27T16:17:19Z</time>
      </trkpt>
      <trkpt lat="42.271953" lon="-6.551611">
        <ele>975.73</ele>
        <time>2021-03-27T16:17:21Z</time>
      </trkpt>
      <trkpt lat="42.271701" lon="-6.552078">
        <ele>970.1</ele>
        <time>2021-03-27T16:17:22Z</time>
      </trkpt>
      <trkpt lat="42.27148" lon="-6.552374">
        <ele>966.54</ele>
        <time>2021-03-27T16:17:24Z</time>
      </trkpt>
      <trkpt lat="42.271262" lon="-6.55257">
        <ele>962.53</ele>
        <time>2021-03-27T16:17:25Z</time>
      </trkpt>
      <trkpt lat="42.271163" lon="-6.552627">
        <ele>960.53</ele>
        <time>2021-03-27T16:17:27Z</time>
      </trkpt>
      <trkpt lat="42.271051" lon="-6.552661">
        <ele>958.68</ele>
        <time>2021-03-27T16:17:29Z</time>
      </trkpt>
      <trkpt lat="42.270903" lon="-6.552666">
        <ele>956.82</ele>
        <time>2021-03-27T16:17:30Z</time>
      </trkpt>
      <trkpt lat="42.270701" lon="-6.552621">
        <ele>955.74</ele>
        <time>2021-03-27T16:17:32Z</time>
      </trkpt>
      <trkpt lat="42.270323" lon="-6.55246">
        <ele>957.07</ele>
        <time>2021-03-27T16:17:33Z</time>
      </trkpt>
      <trkpt lat="42.269677" lon="-6.552129">
        <ele>951.44</ele>
        <time>2021-03-27T16:17:35Z</time>
      </trkpt>
      <trkpt lat="42.269487" lon="-6.552081">
        <ele>951.67</ele>
        <time>2021-03-27T16:17:37Z</time>
      </trkpt>
      <trkpt lat="42.269215" lon="-6.552088">
        <ele>951.98</ele>
        <time>2021-03-27T16:17:38Z</time>
      </trkpt>
      <trkpt lat="42.269091" lon="-6.552133">
        <ele>951.64</ele>
        <time>2021-03-27T16:17:40Z</time>
      </trkpt>
      <trkpt lat="42.268925" lon="-6.552285">
        <ele>947.92</ele>
        <time>2021-03-27T16:17:42Z</time>
      </trkpt>
      <trkpt lat="42.268766" lon="-6.552397">
        <ele>945.84</ele>
        <time>2021-03-27T16:17:43Z</time>
      </trkpt>
      <trkpt lat="42.268412" lon="-6.552587">
        <ele>942.84</ele>
        <time>2021-03-27T16:17:45Z</time>
      </trkpt>
      <trkpt lat="42.267804" lon="-6.552857">
        <ele>936.6</ele>
        <time>2021-03-27T16:17:46Z</time>
      </trkpt>
      <trkpt lat="42.267484" lon="-6.552956">
        <ele>933.64</ele>
        <time>2021-03-27T16:17:48Z</time>
      </trkpt>
      <trkpt lat="42.267352" lon="-6.553045">
        <ele>930.61</ele>
        <time>2021-03-27T16:17:50Z</time>
      </trkpt>
      <trkpt lat="42.267276" lon="-6.553187">
        <ele>927.6</ele>
        <time>2021-03-27T16:17:51Z</time>
      </trkpt>
      <trkpt lat="42.267268" lon="-6.553355">
        <ele>924.94</ele>
        <time>2021-03-27T16:17:53Z</time>
      </trkpt>
      <trkpt lat="42.267295" lon="-6.553475">
        <ele>922.97</ele>
        <time>2021-03-27T16:17:54Z</time>
      </trkpt>
      <trkpt lat="42.267348" lon="-6.553566">
        <ele>921.72</ele>
        <time>2021-03-27T16:17:56Z</time>
      </trkpt>
      <trkpt lat="42.267411" lon="-6.553614">
        <ele>921.28</ele>
        <time>2021-03-27T16:17:58Z</time>
      </trkpt>
      <trkpt lat="42.267482" lon="-6.553639">
        <ele>921.07</ele>
        <time>2021-03-27T16:17:59Z</time>
      </trkpt>
      <trkpt lat="42.267563" lon="-6.553617">
        <ele>920.71</ele>
        <time>2021-03-27T16:18:01Z</time>
      </trkpt>
      <trkpt lat="42.26765" lon="-6.553556">
        <ele>920.72</ele>
        <time>2021-03-27T16:18:03Z</time>
      </trkpt>
      <trkpt lat="42.267887" lon="-6.553343">
        <ele>922.53</ele>
        <time>2021-03-27T16:18:04Z</time>
      </trkpt>
      <trkpt lat="42.268043" lon="-6.553227">
        <ele>922.5</ele>
        <time>2021-03-27T16:18:06Z</time>
      </trkpt>
      <trkpt lat="42.268281" lon="-6.553127">
        <ele>922.3</ele>
        <time>2021-03-27T16:18:07Z</time>
      </trkpt>
      <trkpt lat="42.268651" lon="-6.553035">
        <ele>918.8</ele>
        <time>2021-03-27T16:18:09Z</time>
      </trkpt>
      <trkpt lat="42.269008" lon="-6.552996">
        <ele>912.01</ele>
        <time>2021-03-27T16:18:11Z</time>
      </trkpt>
      <trkpt lat="42.269128" lon="-6.553008">
        <ele>910.03</ele>
        <time>2021-03-27T16:18:12Z</time>
      </trkpt>
      <trkpt lat="42.269347" lon="-6.553078">
        <ele>908.16</ele>
        <time>2021-03-27T16:18:14Z</time>
      </trkpt>
      <trkpt lat="42.269497" lon="-6.553179">
        <ele>906.9</ele>
        <time>2021-03-27T16:18:15Z</time>
      </trkpt>
      <trkpt lat="42.270577" lon="-6.554118">
        <ele>897.96</ele>
        <time>2021-03-27T16:18:17Z</time>
      </trkpt>
      <trkpt lat="42.270773" lon="-6.554239">
        <ele>898.52</ele>
        <time>2021-03-27T16:18:19Z</time>
      </trkpt>
      <trkpt lat="42.270864" lon="-6.554282">
        <ele>898.08</ele>
        <time>2021-03-27T16:18:20Z</time>
      </trkpt>
      <trkpt lat="42.270962" lon="-6.554296">
        <ele>897.66</ele>
        <time>2021-03-27T16:18:22Z</time>
      </trkpt>
      <trkpt lat="42.271301" lon="-6.554285">
        <ele>897.28</ele>
        <time>2021-03-27T16:18:24Z</time>
      </trkpt>
      <trkpt lat="42.271747" lon="-6.554325">
        <ele>896.99</ele>
        <time>2021-03-27T16:18:25Z</time>
      </trkpt>
      <trkpt lat="42.271867" lon="-6.554366">
        <ele>895.74</ele>
        <time>2021-03-27T16:18:27Z</time>
      </trkpt>
      <trkpt lat="42.272103" lon="-6.554489">
        <ele>891.72</ele>
        <time>2021-03-27T16:18:28Z</time>
      </trkpt>
      <trkpt lat="42.272391" lon="-6.554677">
        <ele>885.49</ele>
        <time>2021-03-27T16:18:30Z</time>
      </trkpt>
      <trkpt lat="42.273" lon="-6.554999">
        <ele>880.82</ele>
        <time>2021-03-27T16:18:32Z</time>
      </trkpt>
      <trkpt lat="42.273088" lon="-6.55502">
        <ele>880.84</ele>
        <time>2021-03-27T16:18:33Z</time>
      </trkpt>
      <trkpt lat="42.273259" lon="-6.555019">
        <ele>881.56</ele>
        <time>2021-03-27T16:18:35Z</time>
      </trkpt>
      <trkpt lat="42.273531" lon="-6.5549">
        <ele>884.0</ele>
        <time>2021-03-27T16:18:36Z</time>
      </trkpt>
      <trkpt lat="42.274447" lon="-6.554379">
        <ele>877.15</ele>
        <time>2021-03-27T16:18:38Z</time>
      </trkpt>
      <trkpt lat="42.275971" lon="-6.553591">
        <ele>867.61</ele>
        <time>2021-03-27T16:18:40Z</time>
      </trkpt>
      <trkpt lat="42.276181" lon="-6.553568">
        <ele>866.15</ele>
        <time>2021-03-27T16:18:41Z</time>
      </trkpt>
      <trkpt lat="42.276675" lon="-6.553732">
        <ele>861.04</ele>
        <time>2021-03-27T16:18:43Z</time>
      </trkpt>
      <trkpt lat="42.276808" lon="-6.55381">
        <ele>862.09</ele>
        <time>2021-03-27T16:18:45Z</time>
      </trkpt>
      <trkpt lat="42.276898" lon="-6.553979">
        <ele>864.09</ele>
        <time>2021-03-27T16:18:46Z</time>
      </trkpt>
      <trkpt lat="42.277129" lon="-6.554948">
        <ele>867.0</ele>
        <time>2021-03-27T16:18:48Z</time>
      </trkpt>
      <trkpt lat="42.277411" lon="-6.555703">
        <ele>868.89</ele>
        <time>2021-03-27T16:18:49Z</time>
      </trkpt>
      <trkpt lat="42.277451" lon="-6.555867">
        <ele>869.61</ele>
        <time>2021-03-27T16:18:51Z</time>
      </trkpt>
      <trkpt lat="42.277457" lon="-6.556043">
        <ele>870.41</ele>
        <time>2021-03-27T16:18:53Z</time>
      </trkpt>
      <trkpt lat="42.277439" lon="-6.556211">
        <ele>871.28</ele>
        <time>2021-03-27T16:18:54Z</time>
      </trkpt>
      <trkpt lat="42.277413" lon="-6.556316">
        <ele>871.85</ele>
        <time>2021-03-27T16:18:56Z</time>
      </trkpt>
      <trkpt lat="42.277274" lon="-6.556686">
        <ele>874.52</ele>
        <time>2021-03-27T16:18:57Z</time>
      </trkpt>
      <trkpt lat="42.277231" lon="-6.556934">
        <ele>876.02</ele>
        <time>2021-03-27T16:18:59Z</time>
      </trkpt>
      <trkpt lat="42.277207" lon="-6.557248">
        <ele>876.69</ele>
        <time>2021-03-27T16:19:01Z</time>
      </trkpt>
      <trkpt lat="42.277216" lon="-6.557437">
        <ele>876.14</ele>
        <time>2021-03-27T16:19:02Z</time>
      </trkpt>
      <trkpt lat="42.277273" lon="-6.55771">
        <ele>876.48</ele>
        <time>2021-03-27T16:19:04Z</time>
      </trkpt>
      <trkpt lat="42.277286" lon="-6.557847">
        <ele>876.6</ele>
        <time>2021-03-27T16:19:06Z</time>
      </trkpt>
      <trkpt lat="42.277265" lon="-6.558165">
        <ele>876.47</ele>
        <time>2021-03-27T16:19:07Z</time>
      </trkpt>
      <trkpt lat="42.277272" lon="-6.558432">
        <ele>877.61</ele>
        <time>2021-03-27T16:19:09Z</time>
      </trkpt>
      <trkpt lat="42.277325" lon="-6.558674">
        <ele>879.79</ele>
        <time>2021-03-27T16:19:10Z</time>
      </trkpt>
      <trkpt lat="42.277646" lon="-6.559471">
        <ele>884.63</ele>
        <time>2021-03-27T16:19:12Z</time>
      </trkpt>
      <trkpt lat="42.277711" lon="-6.559678">
        <ele>885.67</ele>
        <time>2021-03-27T16:19:14Z</time>
      </trkpt>
      <trkpt lat="42.277735" lon="-6.559849">
        <ele>886.15</ele>
        <time>2021-03-27T16:19:15Z</time>
      </trkpt>
      <trkpt lat="42.277708" lon="-6.560075">
        <ele>885.81</ele>
        <time>2021-03-27T16:19:17Z</time>
      </trkpt>
      <trkpt lat="42.277516" lon="-6.561066">
        <ele>882.97</ele>
        <time>2021-03-27T16:19:18Z</time>
      </trkpt>
      <trkpt lat="42.277453" lon="-6.561491">
        <ele>881.39</ele>
        <time>2021-03-27T16:19:20Z</time>
      </trkpt>
      <trkpt lat="42.277437" lon="-6.561728">
        <ele>881.55</ele>
        <time>2021-03-27T16:19:22Z</time>
      </trkpt>
      <trkpt lat="42.277453" lon="-6.563229">
        <ele>884.32</ele>
        <time>2021-03-27T16:19:23Z</time>
      </trkpt>
      <trkpt lat="42.277446" lon="-6.563644">
        <ele>884.43</ele>
        <time>2021-03-27T16:19:25Z</time>
      </trkpt>
      <trkpt lat="42.277404" lon="-6.563932">
        <ele>885.74</ele>
        <time>2021-03-27T16:19:27Z</time>
      </trkpt>
      <trkpt lat="42.277171" lon="-6.564567">
        <ele>885.45</ele>
        <time>2021-03-27T16:19:28Z</time>
      </trkpt>
      <trkpt lat="42.277117" lon="-6.564762">
        <ele>884.95</ele>
        <time>2021-03-27T16:19:30Z</time>
      </trkpt>
      <trkpt lat="42.276714" lon="-6.567378">
        <ele>892.85</ele>
        <time>2021-03-27T16:19:31Z</time>
      </trkpt>
      <trkpt lat="42.276479" lon="-6.568678">
        <ele>907.04</ele>
        <time>2021-03-27T16:19:33Z</time>
      </trkpt>
      <trkpt lat="42.276396" lon="-6.56903">
        <ele>909.33</ele>
        <time>2021-03-27T16:19:35Z</time>
      </trkpt>
      <trkpt lat="42.276267" lon="-6.569391">
        <ele>910.73</ele>
        <time>2021-03-27T16:19:36Z</time>
      </trkpt>
      <trkpt lat="42.276131" lon="-6.569842">
        <ele>912.61</ele>
        <time>2021-03-27T16:19:38Z</time>
      </trkpt>
      <trkpt lat="42.275989" lon="-6.570677">
        <ele>915.04</ele>
        <time>2021-03-27T16:19:39Z</time>
      </trkpt>
      <trkpt lat="42.275954" lon="-6.570943">
        <ele>915.4</ele>
        <time>2021-03-27T16:19:41Z</time>
      </trkpt>
      <trkpt lat="42.27596" lon="-6.571107">
        <ele>916.54</ele>
        <time>2021-03-27T16:19:43Z</time>
      </trkpt>
      <trkpt lat="42.275988" lon="-6.571229">
        <ele>917.99</ele>
        <time>2021-03-27T16:19:44Z</time>
      </trkpt>
      <trkpt lat="42.276039" lon="-6.57136">
        <ele>920.3</ele>
        <time>2021-03-27T16:19:46Z</time>
      </trkpt>
      <trkpt lat="42.276077" lon="-6.571553">
        <ele>922.88</ele>
        <time>2021-03-27T16:19:48Z</time>
      </trkpt>
      <trkpt lat="42.276075" lon="-6.57166">
        <ele>923.52</ele>
        <time>2021-03-27T16:19:49Z</time>
      </trkpt>
      <trkpt lat="42.275966" lon="-6.572056">
        <ele>923.71</ele>
        <time>2021-03-27T16:19:51Z</time>
      </trkpt>
      <trkpt lat="42.275957" lon="-6.572149">
        <ele>924.62</ele>
        <time>2021-03-27T16:19:52Z</time>
      </trkpt>
      <trkpt lat="42.275997" lon="-6.573001">
        <ele>930.87</ele>
        <time>2021-03-27T16:19:54Z</time>
      </trkpt>
      <trkpt lat="42.275983" lon="-6.573151">
        <ele>932.06</ele>
        <time>2021-03-27T16:19:56Z</time>
      </trkpt>
      <trkpt lat="42.275925" lon="-6.573412">
        <ele>933.81</ele>
        <time>2021-03-27T16:19:57Z</time>
      </trkpt>
      <trkpt lat="42.275809" lon="-6.573688">
        <ele>934.36</ele>
        <time>2021-03-27T16:19:59Z</time>
      </trkpt>
      <trkpt lat="42.275756" lon="-6.573866">
        <ele>935.5</ele>
        <time>2021-03-27T16:20:00Z</time>
      </trkpt>
      <trkpt lat="42.275741" lon="-6.573983">
        <ele>936.47</ele>
        <time>2021-03-27T16:20:02Z</time>
      </trkpt>
      <trkpt lat="42.275739" lon="-6.574275">
        <ele>940.03</ele>
        <time>2021-03-27T16:20:04Z</time>
      </trkpt>
      <trkpt lat="42.275537" lon="-6.57486">
        <ele>939.68</ele>
        <time>2021-03-27T16:20:05Z</time>
      </trkpt>
      <trkpt lat="42.275506" lon="-6.575021">
        <ele>939.83</ele>
        <time>2021-03-27T16:20:07Z</time>
      </trkpt>
      <trkpt lat="42.275508" lon="-6.575141">
        <ele>940.79</ele>
        <time>2021-03-27T16:20:09Z</time>
      </trkpt>
      <trkpt lat="42.275569" lon="-6.575545">
        <ele>947.42</ele>
        <time>2021-03-27T16:20:10Z</time>
      </trkpt>
      <trkpt lat="42.275565" lon="-6.575742">
        <ele>948.69</ele>
        <time>2021-03-27T16:20:12Z</time>
      </trkpt>
      <trkpt lat="42.275529" lon="-6.575923">
        <ele>949.59</ele>
        <time>2021-03-27T16:20:13Z</time>
      </trkpt>
      <trkpt lat="42.275456" lon="-6.576166">
        <ele>951.65</ele>
        <time>2021-03-27T16:20:15Z</time>
      </trkpt>
      <trkpt lat="42.275338" lon="-6.576352">
        <ele>952.94</ele>
        <time>2021-03-27T16:20:17Z</time>
      </trkpt>
      <trkpt lat="42.275138" lon="-6.576547">
        <ele>955.33</ele>
        <time>2021-03-27T16:20:18Z</time>
      </trkpt>
      <trkpt lat="42.274912" lon="-6.576729">
        <ele>954.92</ele>
        <time>2021-03-27T16:20:20Z</time>
      </trkpt>
      <trkpt lat="42.274848" lon="-6.576817">
        <ele>953.64</ele>
        <time>2021-03-27T16:20:21Z</time>
      </trkpt>
      <trkpt lat="42.274795" lon="-6.576933">
        <ele>953.66</ele>
        <time>2021-03-27T16:20:23Z</time>
      </trkpt>
      <trkpt lat="42.274771" lon="-6.577048">
        <ele>954.42</ele>
        <time>2021-03-27T16:20:25Z</time>
      </trkpt>
      <trkpt lat="42.274769" lon="-6.577318">
        <ele>957.94</ele>
        <time>2021-03-27T16:20:26Z</time>
      </trkpt>
      <trkpt lat="42.274748" lon="-6.577503">
        <ele>959.16</ele>
        <time>2021-03-27T16:20:28Z</time>
      </trkpt>
      <trkpt lat="42.274519" lon="-6.578255">
        <ele>963.72</ele>
        <time>2021-03-27T16:20:30Z</time>
      </trkpt>
      <trkpt lat="42.274469" lon="-6.578328">
        <ele>963.03</ele>
        <time>2021-03-27T16:20:31Z</time>
      </trkpt>
      <trkpt lat="42.27415" lon="-6.578594">
        <ele>959.08</ele>
        <time>2021-03-27T16:20:33Z</time>
      </trkpt>
      <trkpt lat="42.274057" lon="-6.578753">
        <ele>960.11</ele>
        <time>2021-03-27T16:20:34Z</time>
      </trkpt>
      <trkpt lat="42.274011" lon="-6.579135">
        <ele>966.4</ele>
        <time>2021-03-27T16:20:36Z</time>
      </trkpt>
      <trkpt lat="42.273903" lon="-6.579406">
        <ele>967.03</ele>
        <time>2021-03-27T16:20:38Z</time>
      </trkpt>
      <trkpt lat="42.273785" lon="-6.579551">
        <ele>967.24</ele>
        <time>2021-03-27T16:20:39Z</time>
      </trkpt>
      <trkpt lat="42.273274" lon="-6.5799">
        <ele>961.91</ele>
        <time>2021-03-27T16:20:41Z</time>
      </trkpt>
      <trkpt lat="42.273094" lon="-6.580091">
        <ele>962.31</ele>
        <time>2021-03-27T16:20:42Z</time>
      </trkpt>
      <trkpt lat="42.272853" lon="-6.580468">
        <ele>961.86</ele>
        <time>2021-03-27T16:20:44Z</time>
      </trkpt>
      <trkpt lat="42.272511" lon="-6.580859">
        <ele>955.93</ele>
        <time>2021-03-27T16:20:46Z</time>
      </trkpt>
      <trkpt lat="42.272386" lon="-6.581178">
        <ele>957.17</ele>
        <time>2021-03-27T16:20:47Z</time>
      </trkpt>
      <trkpt lat="42.27228" lon="-6.58163">
        <ele>959.55</ele>
        <time>2021-03-27T16:20:49Z</time>
      </trkpt>
      <trkpt lat="42.272192" lon="-6.582124">
        <ele>960.01</ele>
        <time>2021-03-27T16:20:51Z</time>
      </trkpt>
      <trkpt lat="42.272131" lon="-6.582746">
        <ele>960.44</ele>
        <time>2021-03-27T16:20:52Z</time>
      </trkpt>
      <trkpt lat="42.272073" lon="-6.58312">
        <ele>961.76</ele>
        <time>2021-03-27T16:20:54Z</time>
      </trkpt>
      <trkpt lat="42.271943" lon="-6.583384">
        <ele>958.85</ele>
        <time>2021-03-27T16:20:55Z</time>
      </trkpt>
      <trkpt lat="42.271795" lon="-6.58378">
        <ele>959.18</ele>
        <time>2021-03-27T16:20:57Z</time>
      </trkpt>
      <trkpt lat="42.271732" lon="-6.584102">
        <ele>960.3</ele>
        <time>2021-03-27T16:20:59Z</time>
      </trkpt>
      <trkpt lat="42.271683" lon="-6.584623">
        <ele>961.37</ele>
        <time>2021-03-27T16:21:00Z</time>
      </trkpt>
      <trkpt lat="42.271652" lon="-6.585394">
        <ele>958.97</ele>
        <time>2021-03-27T16:21:02Z</time>
      </trkpt>
      <trkpt lat="42.271663" lon="-6.585552">
        <ele>958.86</ele>
        <time>2021-03-27T16:21:03Z</time>
      </trkpt>
      <trkpt lat="42.271731" lon="-6.585785">
        <ele>959.47</ele>
        <time>2021-03-27T16:21:05Z</time>
      </trkpt>
      <trkpt lat="42.271851" lon="-6.585966">
        <ele>961.38</ele>
        <time>2021-03-27T16:21:07Z</time>
      </trkpt>
      <trkpt lat="42.272096" lon="-6.586178">
        <ele>962.61</ele>
        <time>2021-03-27T16:21:08Z</time>
      </trkpt>
      <trkpt lat="42.27219" lon="-6.586293">
        <ele>961.03</ele>
        <time>2021-03-27T16:21:10Z</time>
      </trkpt>
      <trkpt lat="42.272335" lon="-6.586558">
        <ele>958.84</ele>
        <time>2021-03-27T16:21:11Z</time>
      </trkpt>
      <trkpt lat="42.272375" lon="-6.586712">
        <ele>958.52</ele>
        <time>2021-03-27T16:21:13Z</time>
      </trkpt>
      <trkpt lat="42.272385" lon="-6.586893">
        <ele>959.53</ele>
        <time>2021-03-27T16:21:15Z</time>
      </trkpt>
      <trkpt lat="42.272368" lon="-6.587061">
        <ele>961.25</ele>
        <time>2021-03-27T16:21:16Z</time>
      </trkpt>
      <trkpt lat="42.27232" lon="-6.587216">
        <ele>962.97</ele>
        <time>2021-03-27T16:21:18Z</time>
      </trkpt>
      <trkpt lat="42.271719" lon="-6.588498">
        <ele>967.26</ele>
        <time>2021-03-27T16:21:20Z</time>
      </trkpt>
      <trkpt lat="42.271676" lon="-6.588645">
        <ele>964.59</ele>
        <time>2021-03-27T16:21:21Z</time>
      </trkpt>
      <trkpt lat="42.271681" lon="-6.588833">
        <ele>962.03</ele>
        <time>2021-03-27T16:21:23Z</time>
      </trkpt>
      <trkpt lat="42.271775" lon="-6.589092">
        <ele>961.77</ele>
        <time>2021-03-27T16:21:24Z</time>
      </trkpt>
      <trkpt lat="42.272077" lon="-6.589704">
        <ele>962.17</ele>
        <time>2021-03-27T16:21:26Z</time>
      </trkpt>
      <trkpt lat="42.272257" lon="-6.590309">
        <ele>958.39</ele>
        <time>2021-03-27T16:21:28Z</time>
      </trkpt>
      <trkpt lat="42.272387" lon="-6.59064">
        <ele>957.34</ele>
        <time>2021-03-27T16:21:29Z</time>
      </trkpt>
      <trkpt lat="42.272736" lon="-6.591237">
        <ele>956.04</ele>
        <time>2021-03-27T16:21:31Z</time>
      </trkpt>
      <trkpt lat="42.272833" lon="-6.59149">
        <ele>955.52</ele>
        <time>2021-03-27T16:21:32Z</time>
      </trkpt>
      <trkpt lat="42.272839" lon="-6.591609">
        <ele>954.61</ele>
        <time>2021-03-27T16:21:34Z</time>
      </trkpt>
      <trkpt lat="42.27281" lon="-6.5918">
        <ele>954.54</ele>
        <time>2021-03-27T16:21:36Z</time>
      </trkpt>
      <trkpt lat="42.272762" lon="-6.591881">
        <ele>954.49</ele>
        <time>2021-03-27T16:21:37Z</time>
      </trkpt>
      <trkpt lat="42.272703" lon="-6.591931">
        <ele>954.63</ele>
        <time>2021-03-27T16:21:39Z</time>
      </trkpt>
      <trkpt lat="42.270895" lon="-6.592782">
        <ele>966.09</ele>
        <time>2021-03-27T16:21:41Z</time>
      </trkpt>
      <trkpt lat="42.270762" lon="-6.592778">
        <ele>966.77</ele>
        <time>2021-03-27T16:21:42Z</time>
      </trkpt>
      <trkpt lat="42.27031" lon="-6.592487">
        <ele>968.34</ele>
        <time>2021-03-27T16:21:44Z</time>
      </trkpt>
      <trkpt lat="42.270218" lon="-6.592447">
        <ele>968.58</ele>
        <time>2021-03-27T16:21:45Z</time>
      </trkpt>
      <trkpt lat="42.270053" lon="-6.592443">
        <ele>969.49</ele>
        <time>2021-03-27T16:21:47Z</time>
      </trkpt>
      <trkpt lat="42.269899" lon="-6.59252">
        <ele>969.68</ele>
        <time>2021-03-27T16:21:49Z</time>
      </trkpt>
      <trkpt lat="42.269833" lon="-6.592627">
        <ele>969.58</ele>
        <time>2021-03-27T16:21:50Z</time>
      </trkpt>
      <trkpt lat="42.269763" lon="-6.593011">
        <ele>967.86</ele>
        <time>2021-03-27T16:21:52Z</time>
      </trkpt>
      <trkpt lat="42.269769" lon="-6.593266">
        <ele>965.77</ele>
        <time>2021-03-27T16:21:53Z</time>
      </trkpt>
      <trkpt lat="42.269842" lon="-6.593678">
        <ele>965.4</ele>
        <time>2021-03-27T16:21:55Z</time>
      </trkpt>
      <trkpt lat="42.27009" lon="-6.594306">
        <ele>967.6</ele>
        <time>2021-03-27T16:21:57Z</time>
      </trkpt>
      <trkpt lat="42.270121" lon="-6.594483">
        <ele>967.62</ele>
        <time>2021-03-27T16:21:58Z</time>
      </trkpt>
      <trkpt lat="42.270166" lon="-6.59544">
        <ele>964.11</ele>
        <time>2021-03-27T16:22:00Z</time>
      </trkpt>
      <trkpt lat="42.270222" lon="-6.5957">
        <ele>964.47</ele>
        <time>2021-03-27T16:22:02Z</time>
      </trkpt>
      <trkpt lat="42.270433" lon="-6.596252">
        <ele>967.63</ele>
        <time>2021-03-27T16:22:03Z</time>
      </trkpt>
      <trkpt lat="42.270508" lon="-6.59641">
        <ele>967.87</ele>
        <time>2021-03-27T16:22:05Z</time>
      </trkpt>
      <trkpt lat="42.270795" lon="-6.59681">
        <ele>967.5</ele>
        <time>2021-03-27T16:22:06Z</time>
      </trkpt>
      <trkpt lat="42.270867" lon="-6.596976">
        <ele>965.78</ele>
        <time>2021-03-27T16:22:08Z</time>
      </trkpt>
      <trkpt lat="42.270892" lon="-6.597142">
        <ele>964.42</ele>
        <time>2021-03-27T16:22:10Z</time>
      </trkpt>
      <trkpt lat="42.270881" lon="-6.597346">
        <ele>962.73</ele>
        <time>2021-03-27T16:22:11Z</time>
      </trkpt>
      <trkpt lat="42.27083" lon="-6.597599">
        <ele>962.34</ele>
        <time>2021-03-27T16:22:13Z</time>
      </trkpt>
      <trkpt lat="42.270759" lon="-6.597755">
        <ele>962.58</ele>
        <time>2021-03-27T16:22:14Z</time>
      </trkpt>
      <trkpt lat="42.270605" lon="-6.597937">
        <ele>961.39</ele>
        <time>2021-03-27T16:22:16Z</time>
      </trkpt>
      <trkpt lat="42.2705" lon="-6.598134">
        <ele>961.26</ele>
        <time>2021-03-27T16:22:18Z</time>
      </trkpt>
      <trkpt lat="42.27034" lon="-6.598701">
        <ele>964.18</ele>
        <time>2021-03-27T16:22:19Z</time>
      </trkpt>
      <trkpt lat="42.27025" lon="-6.598942">
        <ele>962.33</ele>
        <time>2021-03-27T16:22:21Z</time>
      </trkpt>
      <trkpt lat="42.269982" lon="-6.599357">
        <ele>960.13</ele>
        <time>2021-03-27T16:22:23Z</time>
      </trkpt>
      <trkpt lat="42.269769" lon="-6.599606">
        <ele>959.14</ele>
        <time>2021-03-27T16:22:24Z</time>
      </trkpt>
      <trkpt lat="42.269632" lon="-6.599733">
        <ele>958.67</ele>
        <time>2021-03-27T16:22:26Z</time>
      </trkpt>
      <trkpt lat="42.269184" lon="-6.600031">
        <ele>954.34</ele>
        <time>2021-03-27T16:22:27Z</time>
      </trkpt>
      <trkpt lat="42.268404" lon="-6.600286">
        <ele>947.78</ele>
        <time>2021-03-27T16:22:29Z</time>
      </trkpt>
      <trkpt lat="42.268235" lon="-6.60039">
        <ele>946.4</ele>
        <time>2021-03-27T16:22:31Z</time>
      </trkpt>
      <trkpt lat="42.268183" lon="-6.600449">
        <ele>946.6</ele>
        <time>2021-03-27T16:22:32Z</time>
      </trkpt>
      <trkpt lat="42.267926" lon="-6.600905">
        <ele>950.55</ele>
        <time>2021-03-27T16:22:34Z</time>
      </trkpt>
      <trkpt lat="42.267839" lon="-6.601123">
        <ele>951.71</ele>
        <time>2021-03-27T16:22:35Z</time>
      </trkpt>
      <trkpt lat="42.267798" lon="-6.601295">
        <ele>951.1</ele>
        <time>2021-03-27T16:22:37Z</time>
      </trkpt>
      <trkpt lat="42.267789" lon="-6.601454">
        <ele>950.92</ele>
        <time>2021-03-27T16:22:39Z</time>
      </trkpt>
      <trkpt lat="42.267799" lon="-6.6017">
        <ele>949.31</ele>
        <time>2021-03-27T16:22:40Z</time>
      </trkpt>
      <trkpt lat="42.267833" lon="-6.602049">
        <ele>946.86</ele>
        <time>2021-03-27T16:22:42Z</time>
      </trkpt>
      <trkpt lat="42.267835" lon="-6.602218">
        <ele>946.05</ele>
        <time>2021-03-27T16:22:44Z</time>
      </trkpt>
      <trkpt lat="42.267721" lon="-6.602685">
        <ele>948.16</ele>
        <time>2021-03-27T16:22:45Z</time>
      </trkpt>
      <trkpt lat="42.26735" lon="-6.603817">
        <ele>953.45</ele>
        <time>2021-03-27T16:22:47Z</time>
      </trkpt>
      <trkpt lat="42.26723" lon="-6.604104">
        <ele>952.67</ele>
        <time>2021-03-27T16:22:48Z</time>
      </trkpt>
      <trkpt lat="42.267117" lon="-6.604325">
        <ele>954.64</ele>
        <time>2021-03-27T16:22:50Z</time>
      </trkpt>
      <trkpt lat="42.266923" lon="-6.604649">
        <ele>957.26</ele>
        <time>2021-03-27T16:22:52Z</time>
      </trkpt>
      <trkpt lat="42.26599" lon="-6.605911">
        <ele>957.95</ele>
        <time>2021-03-27T16:22:53Z</time>
      </trkpt>
      <trkpt lat="42.265822" lon="-6.606175">
        <ele>956.64</ele>
        <time>2021-03-27T16:22:55Z</time>
      </trkpt>
      <trkpt lat="42.265701" lon="-6.606496">
        <ele>955.51</ele>
        <time>2021-03-27T16:22:56Z</time>
      </trkpt>
      <trkpt lat="42.265625" lon="-6.606753">
        <ele>955.02</ele>
        <time>2021-03-27T16:22:58Z</time>
      </trkpt>
      <trkpt lat="42.265569" lon="-6.607009">
        <ele>957.63</ele>
        <time>2021-03-27T16:23:00Z</time>
      </trkpt>
      <trkpt lat="42.265516" lon="-6.607403">
        <ele>960.52</ele>
        <time>2021-03-27T16:23:01Z</time>
      </trkpt>
      <trkpt lat="42.265441" lon="-6.607592">
        <ele>959.33</ele>
        <time>2021-03-27T16:23:03Z</time>
      </trkpt>
      <trkpt lat="42.265187" lon="-6.60806">
        <ele>956.87</ele>
        <time>2021-03-27T16:23:05Z</time>
      </trkpt>
      <trkpt lat="42.265016" lon="-6.608266">
        <ele>958.59</ele>
        <time>2021-03-27T16:23:06Z</time>
      </trkpt>
      <trkpt lat="42.264838" lon="-6.608392">
        <ele>959.78</ele>
        <time>2021-03-27T16:23:08Z</time>
      </trkpt>
      <trkpt lat="42.264097" lon="-6.60867">
        <ele>956.83</ele>
        <time>2021-03-27T16:23:09Z</time>
      </trkpt>
      <trkpt lat="42.263776" lon="-6.608763">
        <ele>953.05</ele>
        <time>2021-03-27T16:23:11Z</time>
      </trkpt>
      <trkpt lat="42.263618" lon="-6.608887">
        <ele>951.21</ele>
        <time>2021-03-27T16:23:13Z</time>
      </trkpt>
      <trkpt lat="42.263571" lon="-6.60896">
        <ele>952.32</ele>
        <time>2021-03-27T16:23:14Z</time>
      </trkpt>
      <trkpt lat="42.263485" lon="-6.609167">
        <ele>955.37</ele>
        <time>2021-03-27T16:23:16Z</time>
      </trkpt>
      <trkpt lat="42.263384" lon="-6.60954">
        <ele>957.08</ele>
        <time>2021-03-27T16:23:17Z</time>
      </trkpt>
      <trkpt lat="42.263229" lon="-6.609987">
        <ele>959.05</ele>
        <time>2021-03-27T16:23:19Z</time>
      </trkpt>
      <trkpt lat="42.263094" lon="-6.610593">
        <ele>960.5</ele>
        <time>2021-03-27T16:23:21Z</time>
      </trkpt>
      <trkpt lat="42.263045" lon="-6.61119">
        <ele>961.16</ele>
        <time>2021-03-27T16:23:22Z</time>
      </trkpt>
      <trkpt lat="42.263089" lon="-6.611669">
        <ele>963.71</ele>
        <time>2021-03-27T16:23:24Z</time>
      </trkpt>
      <trkpt lat="42.263139" lon="-6.61194">
        <ele>963.82</ele>
        <time>2021-03-27T16:23:26Z</time>
      </trkpt>
      <trkpt lat="42.263317" lon="-6.612539">
        <ele>966.01</ele>
        <time>2021-03-27T16:23:27Z</time>
      </trkpt>
      <trkpt lat="42.263383" lon="-6.612819">
        <ele>967.56</ele>
        <time>2021-03-27T16:23:29Z</time>
      </trkpt>
      <trkpt lat="42.263429" lon="-6.613099">
        <ele>969.04</ele>
        <time>2021-03-27T16:23:30Z</time>
      </trkpt>
      <trkpt lat="42.263462" lon="-6.613481">
        <ele>968.41</ele>
        <time>2021-03-27T16:23:32Z</time>
      </trkpt>
      <trkpt lat="42.263443" lon="-6.61372">
        <ele>969.12</ele>
        <time>2021-03-27T16:23:34Z</time>
      </trkpt>
      <trkpt lat="42.263373" lon="-6.6141">
        <ele>973.35</ele>
        <time>2021-03-27T16:23:35Z</time>
      </trkpt>
      <trkpt lat="42.263311" lon="-6.614281">
        <ele>973.22</ele>
        <time>2021-03-27T16:23:37Z</time>
      </trkpt>
      <trkpt lat="42.263244" lon="-6.614419">
        <ele>971.84</ele>
        <time>2021-03-27T16:23:38Z</time>
      </trkpt>
      <trkpt lat="42.263053" lon="-6.614715">
        <ele>965.91</ele>
        <time>2021-03-27T16:23:40Z</time>
      </trkpt>
      <trkpt lat="42.262783" lon="-6.615019">
        <ele>963.34</ele>
        <time>2021-03-27T16:23:42Z</time>
      </trkpt>
      <trkpt lat="42.262648" lon="-6.615301">
        <ele>962.98</ele>
        <time>2021-03-27T16:23:43Z</time>
      </trkpt>
      <trkpt lat="42.26262" lon="-6.615569">
        <ele>964.95</ele>
        <time>2021-03-27T16:23:45Z</time>
      </trkpt>
      <trkpt lat="42.262633" lon="-6.615951">
        <ele>967.56</ele>
        <time>2021-03-27T16:23:47Z</time>
      </trkpt>
      <trkpt lat="42.262609" lon="-6.616507">
        <ele>969.23</ele>
        <time>2021-03-27T16:23:48Z</time>
      </trkpt>
      <trkpt lat="42.262556" lon="-6.616986">
        <ele>970.92</ele>
        <time>2021-03-27T16:23:50Z</time>
      </trkpt>
      <trkpt lat="42.2625" lon="-6.617218">
        <ele>970.95</ele>
        <time>2021-03-27T16:23:51Z</time>
      </trkpt>
      <trkpt lat="42.262199" lon="-6.617686">
        <ele>966.7</ele>
        <time>2021-03-27T16:23:53Z</time>
      </trkpt>
      <trkpt lat="42.26216" lon="-6.617775">
        <ele>966.19</ele>
        <time>2021-03-27T16:23:55Z</time>
      </trkpt>
      <trkpt lat="42.262131" lon="-6.617966">
        <ele>965.59</ele>
        <time>2021-03-27T16:23:56Z</time>
      </trkpt>
      <trkpt lat="42.262161" lon="-6.618226">
        <ele>966.8</ele>
        <time>2021-03-27T16:23:58Z</time>
      </trkpt>
      <trkpt lat="42.262207" lon="-6.61843">
        <ele>967.84</ele>
        <time>2021-03-27T16:23:59Z</time>
      </trkpt>
      <trkpt lat="42.262313" lon="-6.618864">
        <ele>970.62</ele>
        <time>2021-03-27T16:24:01Z</time>
      </trkpt>
      <trkpt lat="42.262412" lon="-6.619156">
        <ele>971.28</ele>
        <time>2021-03-27T16:24:03Z</time>
      </trkpt>
      <trkpt lat="42.26295" lon="-6.620359">
        <ele>974.35</ele>
        <time>2021-03-27T16:24:04Z</time>
      </trkpt>
      <trkpt lat="42.263202" lon="-6.62088">
        <ele>984.59</ele>
        <time>2021-03-27T16:24:06Z</time>
      </trkpt>
      <trkpt lat="42.263282" lon="-6.621105">
        <ele>987.73</ele>
        <time>2021-03-27T16:24:08Z</time>
      </trkpt>
      <trkpt lat="42.263332" lon="-6.621302">
        <ele>989.54</ele>
        <time>2021-03-27T16:24:09Z</time>
      </trkpt>
      <trkpt lat="42.26336" lon="-6.621485">
        <ele>990.19</ele>
        <time>2021-03-27T16:24:11Z</time>
      </trkpt>
      <trkpt lat="42.263369" lon="-6.621856">
        <ele>989.46</ele>
        <time>2021-03-27T16:24:12Z</time>
      </trkpt>
      <trkpt lat="42.263333" lon="-6.622256">
        <ele>990.72</ele>
        <time>2021-03-27T16:24:14Z</time>
      </trkpt>
      <trkpt lat="42.263293" lon="-6.622432">
        <ele>992.93</ele>
        <time>2021-03-27T16:24:16Z</time>
      </trkpt>
      <trkpt lat="42.263133" lon="-6.622761">
        <ele>993.7</ele>
        <time>2021-03-27T16:24:17Z</time>
      </trkpt>
      <trkpt lat="42.263047" lon="-6.622877">
        <ele>992.42</ele>
        <time>2021-03-27T16:24:19Z</time>
      </trkpt>
      <trkpt lat="42.262972" lon="-6.623028">
        <ele>991.65</ele>
        <time>2021-03-27T16:24:20Z</time>
      </trkpt>
      <trkpt lat="42.262925" lon="-6.623214">
        <ele>991.6</ele>
        <time>2021-03-27T16:24:22Z</time>
      </trkpt>
      <trkpt lat="42.262902" lon="-6.623517">
        <ele>992.84</ele>
        <time>2021-03-27T16:24:24Z</time>
      </trkpt>
      <trkpt lat="42.262917" lon="-6.624012">
        <ele>995.01</ele>
        <time>2021-03-27T16:24:25Z</time>
      </trkpt>
      <trkpt lat="42.26295" lon="-6.624329">
        <ele>995.85</ele>
        <time>2021-03-27T16:24:27Z</time>
      </trkpt>
      <trkpt lat="42.262996" lon="-6.624586">
        <ele>996.92</ele>
        <time>2021-03-27T16:24:29Z</time>
      </trkpt>
      <trkpt lat="42.263004" lon="-6.62481">
        <ele>996.52</ele>
        <time>2021-03-27T16:24:30Z</time>
      </trkpt>
      <trkpt lat="42.262976" lon="-6.624932">
        <ele>995.02</ele>
        <time>2021-03-27T16:24:32Z</time>
      </trkpt>
      <trkpt lat="42.262882" lon="-6.62519">
        <ele>992.49</ele>
        <time>2021-03-27T16:24:33Z</time>
      </trkpt>
      <trkpt lat="42.262835" lon="-6.6254">
        <ele>991.36</ele>
        <time>2021-03-27T16:24:35Z</time>
      </trkpt>
      <trkpt lat="42.262779" lon="-6.625724">
        <ele>987.84</ele>
        <time>2021-03-27T16:24:37Z</time>
      </trkpt>
      <trkpt lat="42.262766" lon="-6.625897">
        <ele>985.8</ele>
        <time>2021-03-27T16:24:38Z</time>
      </trkpt>
      <trkpt lat="42.262773" lon="-6.626194">
        <ele>982.61</ele>
        <time>2021-03-27T16:24:40Z</time>
      </trkpt>
      <trkpt lat="42.262831" lon="-6.626602">
        <ele>980.23</ele>
        <time>2021-03-27T16:24:41Z</time>
      </trkpt>
      <trkpt lat="42.262837" lon="-6.626761">
        <ele>979.29</ele>
        <time>2021-03-27T16:24:43Z</time>
      </trkpt>
      <trkpt lat="42.26278" lon="-6.628707">
        <ele>990.48</ele>
        <time>2021-03-27T16:24:45Z</time>
      </trkpt>
      <trkpt lat="42.262757" lon="-6.629002">
        <ele>994.11</ele>
        <time>2021-03-27T16:24:46Z</time>
      </trkpt>
      <trkpt lat="42.262729" lon="-6.629171">
        <ele>995.77</ele>
        <time>2021-03-27T16:24:48Z</time>
      </trkpt>
      <trkpt lat="42.262486" lon="-6.629988">
        <ele>993.55</ele>
        <time>2021-03-27T16:24:50Z</time>
      </trkpt>
      <trkpt lat="42.262472" lon="-6.630117">
        <ele>993.53</ele>
        <time>2021-03-27T16:24:51Z</time>
      </trkpt>
      <trkpt lat="42.262471" lon="-6.630385">
        <ele>993.88</ele>
        <time>2021-03-27T16:24:53Z</time>
      </trkpt>
      <trkpt lat="42.262515" lon="-6.63112">
        <ele>996.9</ele>
        <time>2021-03-27T16:24:54Z</time>
      </trkpt>
      <trkpt lat="42.262521" lon="-6.631968">
        <ele>1004.9</ele>
        <time>2021-03-27T16:24:56Z</time>
      </trkpt>
      <trkpt lat="42.26244" lon="-6.632567">
        <ele>1000.27</ele>
        <time>2021-03-27T16:24:58Z</time>
      </trkpt>
      <trkpt lat="42.262438" lon="-6.632695">
        <ele>999.93</ele>
        <time>2021-03-27T16:24:59Z</time>
      </trkpt>
      <trkpt lat="42.26247" lon="-6.632892">
        <ele>1000.05</ele>
        <time>2021-03-27T16:25:01Z</time>
      </trkpt>
      <trkpt lat="42.262637" lon="-6.633284">
        <ele>1002.96</ele>
        <time>2021-03-27T16:25:02Z</time>
      </trkpt>
      <trkpt lat="42.262771" lon="-6.633697">
        <ele>1002.8</ele>
        <time>2021-03-27T16:25:04Z</time>
      </trkpt>
      <trkpt lat="42.262852" lon="-6.633892">
        <ele>1003.36</ele>
        <time>2021-03-27T16:25:06Z</time>
      </trkpt>
      <trkpt lat="42.263085" lon="-6.634347">
        <ele>1007.81</ele>
        <time>2021-03-27T16:25:07Z</time>
      </trkpt>
      <trkpt lat="42.263125" lon="-6.634512">
        <ele>1008.52</ele>
        <time>2021-03-27T16:25:09Z</time>
      </trkpt>
      <trkpt lat="42.263158" lon="-6.634758">
        <ele>1007.8</ele>
        <time>2021-03-27T16:25:11Z</time>
      </trkpt>
      <trkpt lat="42.26316" lon="-6.635248">
        <ele>1003.88</ele>
        <time>2021-03-27T16:25:12Z</time>
      </trkpt>
      <trkpt lat="42.263124" lon="-6.636102">
        <ele>1002.42</ele>
        <time>2021-03-27T16:25:14Z</time>
      </trkpt>
      <trkpt lat="42.263065" lon="-6.636554">
        <ele>1002.62</ele>
        <time>2021-03-27T16:25:15Z</time>
      </trkpt>
      <trkpt lat="42.262883" lon="-6.637098">
        <ele>1002.83</ele>
        <time>2021-03-27T16:25:17Z</time>
      </trkpt>
      <trkpt lat="42.262808" lon="-6.63743">
        <ele>1001.94</ele>
        <time>2021-03-27T16:25:19Z</time>
      </trkpt>
      <trkpt lat="42.262804" lon="-6.637661">
        <ele>1001.51</ele>
        <time>2021-03-27T16:25:20Z</time>
      </trkpt>
      <trkpt lat="42.262828" lon="-6.637939">
        <ele>1001.38</ele>
        <time>2021-03-27T16:25:22Z</time>
      </trkpt>
      <trkpt lat="42.262861" lon="-6.638084">
        <ele>1001.69</ele>
        <time>2021-03-27T16:25:23Z</time>
      </trkpt>
      <trkpt lat="42.263003" lon="-6.638486">
        <ele>1001.91</ele>
        <time>2021-03-27T16:25:25Z</time>
      </trkpt>
      <trkpt lat="42.2632" lon="-6.638963">
        <ele>1003.21</ele>
        <time>2021-03-27T16:25:27Z</time>
      </trkpt>
      <trkpt lat="42.263649" lon="-6.640295">
        <ele>1002.94</ele>
        <time>2021-03-27T16:25:28Z</time>
      </trkpt>
      <trkpt lat="42.263744" lon="-6.640643">
        <ele>1006.32</ele>
        <time>2021-03-27T16:25:30Z</time>
      </trkpt>
      <trkpt lat="42.263936" lon="-6.641754">
        <ele>1004.04</ele>
        <time>2021-03-27T16:25:32Z</time>
      </trkpt>
      <trkpt lat="42.264011" lon="-6.642084">
        <ele>1002.1</ele>
        <time>2021-03-27T16:25:33Z</time>
      </trkpt>
      <trkpt lat="42.26415" lon="-6.642434">
        <ele>1000.05</ele>
        <time>2021-03-27T16:25:35Z</time>
      </trkpt>
      <trkpt lat="42.264232" lon="-6.642568">
        <ele>1000.34</ele>
        <time>2021-03-27T16:25:36Z</time>
      </trkpt>
      <trkpt lat="42.264572" lon="-6.642967">
        <ele>1001.18</ele>
        <time>2021-03-27T16:25:38Z</time>
      </trkpt>
      <trkpt lat="42.264724" lon="-6.64324">
        <ele>1002.4</ele>
        <time>2021-03-27T16:25:40Z</time>
      </trkpt>
      <trkpt lat="42.264813" lon="-6.643481">
        <ele>1005.1</ele>
        <time>2021-03-27T16:25:41Z</time>
      </trkpt>
      <trkpt lat="42.264872" lon="-6.643783">
        <ele>1007.05</ele>
        <time>2021-03-27T16:25:43Z</time>
      </trkpt>
      <trkpt lat="42.264896" lon="-6.644091">
        <ele>1008.36</ele>
        <time>2021-03-27T16:25:44Z</time>
      </trkpt>
      <trkpt lat="42.264907" lon="-6.644635">
        <ele>1011.46</ele>
        <time>2021-03-27T16:25:46Z</time>
      </trkpt>
      <trkpt lat="42.264876" lon="-6.64554">
        <ele>1014.42</ele>
        <time>2021-03-27T16:25:48Z</time>
      </trkpt>
      <trkpt lat="42.264857" lon="-6.645757">
        <ele>1014.93</ele>
        <time>2021-03-27T16:25:49Z</time>
      </trkpt>
      <trkpt lat="42.264563" lon="-6.647716">
        <ele>1011.86</ele>
        <time>2021-03-27T16:25:51Z</time>
      </trkpt>
      <trkpt lat="42.264488" lon="-6.648072">
        <ele>1010.34</ele>
        <time>2021-03-27T16:25:53Z</time>
      </trkpt>
      <trkpt lat="42.264248" lon="-6.648823">
        <ele>1009.02</ele>
        <time>2021-03-27T16:25:54Z</time>
      </trkpt>
      <trkpt lat="42.264196" lon="-6.649027">
        <ele>1009.44</ele>
        <time>2021-03-27T16:25:56Z</time>
      </trkpt>
      <trkpt lat="42.264156" lon="-6.649297">
        <ele>1010.26</ele>
        <time>2021-03-27T16:25:57Z</time>
      </trkpt>
      <trkpt lat="42.264157" lon="-6.649605">
        <ele>1010.21</ele>
        <time>2021-03-27T16:25:59Z</time>
      </trkpt>
      <trkpt lat="42.264184" lon="-6.649752">
        <ele>1010.58</ele>
        <time>2021-03-27T16:26:01Z</time>
      </trkpt>
      <trkpt lat="42.264256" lon="-6.650075">
        <ele>1011.82</ele>
        <time>2021-03-27T16:26:02Z</time>
      </trkpt>
      <trkpt lat="42.264506" lon="-6.650861">
        <ele>1010.46</ele>
        <time>2021-03-27T16:26:04Z</time>
      </trkpt>
      <trkpt lat="42.264599" lon="-6.651319">
        <ele>1011.09</ele>
        <time>2021-03-27T16:26:05Z</time>
      </trkpt>
      <trkpt lat="42.264631" lon="-6.651614">
        <ele>1011.98</ele>
        <time>2021-03-27T16:26:07Z</time>
      </trkpt>
      <trkpt lat="42.264649" lon="-6.651992">
        <ele>1015.1</ele>
        <time>2021-03-27T16:26:09Z</time>
      </trkpt>
      <trkpt lat="42.26464" lon="-6.652667">
        <ele>1021.95</ele>
        <time>2021-03-27T16:26:10Z</time>
      </trkpt>
      <trkpt lat="42.264519" lon="-6.653264">
        <ele>1020.05</ele>
        <time>2021-03-27T16:26:12Z</time>
      </trkpt>
      <trkpt lat="42.264502" lon="-6.65358">
        <ele>1021.46</ele>
        <time>2021-03-27T16:26:14Z</time>
      </trkpt>
      <trkpt lat="42.264531" lon="-6.653708">
        <ele>1022.28</ele>
        <time>2021-03-27T16:26:15Z</time>
      </trkpt>
      <trkpt lat="42.264592" lon="-6.653877">
        <ele>1023.23</ele>
        <time>2021-03-27T16:26:17Z</time>
      </trkpt>
      <trkpt lat="42.264686" lon="-6.654064">
        <ele>1021.52</ele>
        <time>2021-03-27T16:26:18Z</time>
      </trkpt>
      <trkpt lat="42.264816" lon="-6.65442">
        <ele>1013.78</ele>
        <time>2021-03-27T16:26:20Z</time>
      </trkpt>
      <trkpt lat="42.264879" lon="-6.654539">
        <ele>1013.16</ele>
        <time>2021-03-27T16:26:22Z</time>
      </trkpt>
      <trkpt lat="42.265096" lon="-6.654748">
        <ele>1014.0</ele>
        <time>2021-03-27T16:26:23Z</time>
      </trkpt>
      <trkpt lat="42.26517" lon="-6.654857">
        <ele>1014.54</ele>
        <time>2021-03-27T16:26:25Z</time>
      </trkpt>
      <trkpt lat="42.265269" lon="-6.65515">
        <ele>1015.49</ele>
        <time>2021-03-27T16:26:26Z</time>
      </trkpt>
      <trkpt lat="42.265416" lon="-6.655704">
        <ele>1020.02</ele>
        <time>2021-03-27T16:26:28Z</time>
      </trkpt>
      <trkpt lat="42.265482" lon="-6.655884">
        <ele>1021.98</ele>
        <time>2021-03-27T16:26:30Z</time>
      </trkpt>
      <trkpt lat="42.265636" lon="-6.656267">
        <ele>1021.65</ele>
        <time>2021-03-27T16:26:31Z</time>
      </trkpt>
      <trkpt lat="42.265921" lon="-6.656876">
        <ele>1026.81</ele>
        <time>2021-03-27T16:26:33Z</time>
      </trkpt>
      <trkpt lat="42.266195" lon="-6.657562">
        <ele>1026.61</ele>
        <time>2021-03-27T16:26:34Z</time>
      </trkpt>
      <trkpt lat="42.266644" lon="-6.658341">
        <ele>1028.29</ele>
        <time>2021-03-27T16:26:36Z</time>
      </trkpt>
      <trkpt lat="42.266844" lon="-6.65872">
        <ele>1032.49</ele>
        <time>2021-03-27T16:26:38Z</time>
      </trkpt>
      <trkpt lat="42.267076" lon="-6.659213">
        <ele>1036.39</ele>
        <time>2021-03-27T16:26:39Z</time>
      </trkpt>
      <trkpt lat="42.267381" lon="-6.659959">
        <ele>1038.1</ele>
        <time>2021-03-27T16:26:41Z</time>
      </trkpt>
      <trkpt lat="42.267581" lon="-6.660329">
        <ele>1041.0</ele>
        <time>2021-03-27T16:26:43Z</time>
      </trkpt>
      <trkpt lat="42.267702" lon="-6.66051">
        <ele>1043.42</ele>
        <time>2021-03-27T16:26:44Z</time>
      </trkpt>
      <trkpt lat="42.267894" lon="-6.660917">
        <ele>1043.76</ele>
        <time>2021-03-27T16:26:46Z</time>
      </trkpt>
      <trkpt lat="42.268271" lon="-6.661889">
        <ele>1040.58</ele>
        <time>2021-03-27T16:26:47Z</time>
      </trkpt>
      <trkpt lat="42.268448" lon="-6.662214">
        <ele>1045.19</ele>
        <time>2021-03-27T16:26:49Z</time>
      </trkpt>
      <trkpt lat="42.268871" lon="-6.662855">
        <ele>1040.1</ele>
        <time>2021-03-27T16:26:51Z</time>
      </trkpt>
      <trkpt lat="42.269066" lon="-6.663231">
        <ele>1045.89</ele>
        <time>2021-03-27T16:26:52Z</time>
      </trkpt>
      <trkpt lat="42.269211" lon="-6.66356">
        <ele>1051.24</ele>
        <time>2021-03-27T16:26:54Z</time>
      </trkpt>
      <trkpt lat="42.269484" lon="-6.664668">
        <ele>1055.32</ele>
        <time>2021-03-27T16:26:55Z</time>
      </trkpt>
      <trkpt lat="42.269645" lon="-6.665174">
        <ele>1063.53</ele>
        <time>2021-03-27T16:26:57Z</time>
      </trkpt>
      <trkpt lat="42.26983" lon="-6.665583">
        <ele>1063.73</ele>
        <time>2021-03-27T16:26:59Z</time>
      </trkpt>
      <trkpt lat="42.270045" lon="-6.665997">
        <ele>1067.96</ele>
        <time>2021-03-27T16:27:00Z</time>
      </trkpt>
      <trkpt lat="42.270192" lon="-6.666235">
        <ele>1071.25</ele>
        <time>2021-03-27T16:27:02Z</time>
      </trkpt>
      <trkpt lat="42.270309" lon="-6.66639">
        <ele>1072.43</ele>
        <time>2021-03-27T16:27:04Z</time>
      </trkpt>
      <trkpt lat="42.270849" lon="-6.666895">
        <ele>1066.47</ele>
        <time>2021-03-27T16:27:05Z</time>
      </trkpt>
      <trkpt lat="42.271199" lon="-6.667161">
        <ele>1065.1</ele>
        <time>2021-03-27T16:27:07Z</time>
      </trkpt>
      <trkpt lat="42.272441" lon="-6.667975">
        <ele>1063.14</ele>
        <time>2021-03-27T16:27:08Z</time>
      </trkpt>
      <trkpt lat="42.272684" lon="-6.668209">
        <ele>1062.71</ele>
        <time>2021-03-27T16:27:10Z</time>
      </trkpt>
      <trkpt lat="42.27282" lon="-6.668424">
        <ele>1062.4</ele>
        <time>2021-03-27T16:27:12Z</time>
      </trkpt>
      <trkpt lat="42.272916" lon="-6.668742">
        <ele>1062.0</ele>
        <time>2021-03-27T16:27:13Z</time>
      </trkpt>
      <trkpt lat="42.272932" lon="-6.669037">
        <ele>1061.62</ele>
        <time>2021-03-27T16:27:15Z</time>
      </trkpt>
      <trkpt lat="42.272913" lon="-6.669247">
        <ele>1061.34</ele>
        <time>2021-03-27T16:27:16Z</time>
      </trkpt>
      <trkpt lat="42.272863" lon="-6.669425">
        <ele>1062.74</ele>
        <time>2021-03-27T16:27:18Z</time>
      </trkpt>
      <trkpt lat="42.272747" lon="-6.669678">
        <ele>1065.13</ele>
        <time>2021-03-27T16:27:20Z</time>
      </trkpt>
      <trkpt lat="42.272553" lon="-6.669867">
        <ele>1068.55</ele>
        <time>2021-03-27T16:27:21Z</time>
      </trkpt>
      <trkpt lat="42.272365" lon="-6.669972">
        <ele>1072.16</ele>
        <time>2021-03-27T16:27:23Z</time>
      </trkpt>
      <trkpt lat="42.272062" lon="-6.669988">
        <ele>1075.96</ele>
        <time>2021-03-27T16:27:25Z</time>
      </trkpt>
      <trkpt lat="42.271606" lon="-6.669883">
        <ele>1076.09</ele>
        <time>2021-03-27T16:27:26Z</time>
      </trkpt>
      <trkpt lat="42.271391" lon="-6.669893">
        <ele>1075.91</ele>
        <time>2021-03-27T16:27:28Z</time>
      </trkpt>
      <trkpt lat="42.271159" lon="-6.669944">
        <ele>1075.55</ele>
        <time>2021-03-27T16:27:29Z</time>
      </trkpt>
      <trkpt lat="42.270958" lon="-6.67005">
        <ele>1074.66</ele>
        <time>2021-03-27T16:27:31Z</time>
      </trkpt>
      <trkpt lat="42.270799" lon="-6.670161">
        <ele>1073.86</ele>
        <time>2021-03-27T16:27:33Z</time>
      </trkpt>
      <trkpt lat="42.270695" lon="-6.670275">
        <ele>1074.45</ele>
        <time>2021-03-27T16:27:34Z</time>
      </trkpt>
      <trkpt lat="42.270599" lon="-6.670447">
        <ele>1076.02</ele>
        <time>2021-03-27T16:27:36Z</time>
      </trkpt>
      <trkpt lat="42.270032" lon="-6.671637">
        <ele>1081.85</ele>
        <time>2021-03-27T16:27:37Z</time>
      </trkpt>
      <trkpt lat="42.269925" lon="-6.672015">
        <ele>1084.96</ele>
        <time>2021-03-27T16:27:39Z</time>
      </trkpt>
      <trkpt lat="42.26985" lon="-6.67256">
        <ele>1089.31</ele>
        <time>2021-03-27T16:27:41Z</time>
      </trkpt>
      <trkpt lat="42.269842" lon="-6.672922">
        <ele>1090.69</ele>
        <time>2021-03-27T16:27:42Z</time>
      </trkpt>
      <trkpt lat="42.269881" lon="-6.673482">
        <ele>1096.42</ele>
        <time>2021-03-27T16:27:44Z</time>
      </trkpt>
      <trkpt lat="42.269868" lon="-6.674048">
        <ele>1099.07</ele>
        <time>2021-03-27T16:27:46Z</time>
      </trkpt>
      <trkpt lat="42.269914" lon="-6.674844">
        <ele>1101.6</ele>
        <time>2021-03-27T16:27:47Z</time>
      </trkpt>
      <trkpt lat="42.26995" lon="-6.675087">
        <ele>1101.86</ele>
        <time>2021-03-27T16:27:49Z</time>
      </trkpt>
      <trkpt lat="42.270082" lon="-6.675506">
        <ele>1102.71</ele>
        <time>2021-03-27T16:27:50Z</time>
      </trkpt>
      <trkpt lat="42.270088" lon="-6.675642">
        <ele>1103.09</ele>
        <time>2021-03-27T16:27:52Z</time>
      </trkpt>
      <trkpt lat="42.270044" lon="-6.675821">
        <ele>1103.05</ele>
        <time>2021-03-27T16:27:54Z</time>
      </trkpt>
      <trkpt lat="42.269986" lon="-6.675908">
        <ele>1104.3</ele>
        <time>2021-03-27T16:27:55Z</time>
      </trkpt>
      <trkpt lat="42.269813" lon="-6.67604">
        <ele>1106.85</ele>
        <time>2021-03-27T16:27:57Z</time>
      </trkpt>
      <trkpt lat="42.269157" lon="-6.676387">
        <ele>1111.77</ele>
        <time>2021-03-27T16:27:58Z</time>
      </trkpt>
      <trkpt lat="42.269032" lon="-6.676515">
        <ele>1114.38</ele>
        <time>2021-03-27T16:28:00Z</time>
      </trkpt>
      <trkpt lat="42.268851" lon="-6.676764">
        <ele>1117.93</ele>
        <time>2021-03-27T16:28:02Z</time>
      </trkpt>
      <trkpt lat="42.26876" lon="-6.676936">
        <ele>1121.09</ele>
        <time>2021-03-27T16:28:03Z</time>
      </trkpt>
      <trkpt lat="42.268619" lon="-6.677356">
        <ele>1128.65</ele>
        <time>2021-03-27T16:28:05Z</time>
      </trkpt>
      <trkpt lat="42.268261" lon="-6.679624">
        <ele>1145.34</ele>
        <time>2021-03-27T16:28:07Z</time>
      </trkpt>
      <trkpt lat="42.268234" lon="-6.679872">
        <ele>1146.93</ele>
        <time>2021-03-27T16:28:08Z</time>
      </trkpt>
      <trkpt lat="42.268222" lon="-6.680363">
        <ele>1150.72</ele>
        <time>2021-03-27T16:28:10Z</time>
      </trkpt>
      <trkpt lat="42.268233" lon="-6.68114">
        <ele>1155.91</ele>
        <time>2021-03-27T16:28:11Z</time>
      </trkpt>
      <trkpt lat="42.268309" lon="-6.681094">
        <ele>1158.88</ele>
        <time>2021-03-27T16:28:13Z</time>
      </trkpt>
      <trkpt lat="42.268405" lon="-6.680735">
        <ele>1162.07</ele>
        <time>2021-03-27T16:28:15Z</time>
      </trkpt>
      <trkpt lat="42.268584" lon="-6.680354">
        <ele>1166.72</ele>
        <time>2021-03-27T16:28:17Z</time>
      </trkpt>
      <trkpt lat="42.269464" lon="-6.679365">
        <ele>1181.64</ele>
        <time>2021-03-27T16:28:18Z</time>
      </trkpt>
      <trkpt lat="42.269817" lon="-6.679049">
        <ele>1187.13</ele>
        <time>2021-03-27T16:28:20Z</time>
      </trkpt>
      <trkpt lat="42.270724" lon="-6.678306">
        <ele>1194.84</ele>
        <time>2021-03-27T16:28:22Z</time>
      </trkpt>
      <trkpt lat="42.270897" lon="-6.678201">
        <ele>1196.23</ele>
        <time>2021-03-27T16:28:23Z</time>
      </trkpt>
      <trkpt lat="42.271073" lon="-6.678186">
        <ele>1197.47</ele>
        <time>2021-03-27T16:28:25Z</time>
      </trkpt>
      <trkpt lat="42.271266" lon="-6.678259">
        <ele>1200.77</ele>
        <time>2021-03-27T16:28:27Z</time>
      </trkpt>
      <trkpt lat="42.271534" lon="-6.678446">
        <ele>1206.74</ele>
        <time>2021-03-27T16:28:29Z</time>
      </trkpt>
      <trkpt lat="42.27167" lon="-6.67857">
        <ele>1209.23</ele>
        <time>2021-03-27T16:28:30Z</time>
      </trkpt>
      <trkpt lat="42.271847" lon="-6.678776">
        <ele>1211.67</ele>
        <time>2021-03-27T16:28:32Z</time>
      </trkpt>
      <trkpt lat="42.272191" lon="-6.679269">
        <ele>1214.01</ele>
        <time>2021-03-27T16:28:34Z</time>
      </trkpt>
      <trkpt lat="42.272798" lon="-6.680209">
        <ele>1227.96</ele>
        <time>2021-03-27T16:28:35Z</time>
      </trkpt>
      <trkpt lat="42.272947" lon="-6.680415">
        <ele>1227.49</ele>
        <time>2021-03-27T16:28:37Z</time>
      </trkpt>
      <trkpt lat="42.273121" lon="-6.680611">
        <ele>1226.46</ele>
        <time>2021-03-27T16:28:39Z</time>
      </trkpt>
      <trkpt lat="42.274206" lon="-6.681546">
        <ele>1238.47</ele>
        <time>2021-03-27T16:28:40Z</time>
      </trkpt>
      <trkpt lat="42.274449" lon="-6.681645">
        <ele>1241.5</ele>
        <time>2021-03-27T16:28:42Z</time>
      </trkpt>
      <trkpt lat="42.274576" lon="-6.681666">
        <ele>1243.41</ele>
        <time>2021-03-27T16:28:44Z</time>
      </trkpt>
      <trkpt lat="42.274629" lon="-6.681632">
        <ele>1243.28</ele>
        <time>2021-03-27T16:28:46Z</time>
      </trkpt>
      <trkpt lat="42.274671" lon="-6.681568">
        <ele>1242.54</ele>
        <time>2021-03-27T16:28:47Z</time>
      </trkpt>
      <trkpt lat="42.274838" lon="-6.681129">
        <ele>1239.46</ele>
        <time>2021-03-27T16:28:49Z</time>
      </trkpt>
      <trkpt lat="42.27504" lon="-6.680775">
        <ele>1242.34</ele>
        <time>2021-03-27T16:28:51Z</time>
      </trkpt>
      <trkpt lat="42.27524" lon="-6.680469">
        <ele>1244.84</ele>
        <time>2021-03-27T16:28:52Z</time>
      </trkpt>
      <trkpt lat="42.275322" lon="-6.680372">
        <ele>1246.03</ele>
        <time>2021-03-27T16:28:54Z</time>
      </trkpt>
      <trkpt lat="42.275476" lon="-6.680265">
        <ele>1248.14</ele>
        <time>2021-03-27T16:28:56Z</time>
      </trkpt>
      <trkpt lat="42.275908" lon="-6.680056">
        <ele>1252.55</ele>
        <time>2021-03-27T16:28:57Z</time>
      </trkpt>
      <trkpt lat="42.276441" lon="-6.679834">
        <ele>1255.9</ele>
        <time>2021-03-27T16:28:59Z</time>
      </trkpt>
      <trkpt lat="42.276719" lon="-6.679689">
        <ele>1259.46</ele>
        <time>2021-03-27T16:29:01Z</time>
      </trkpt>
      <trkpt lat="42.277791" lon="-6.678906">
        <ele>1268.23</ele>
        <time>2021-03-27T16:29:03Z</time>
      </trkpt>
      <trkpt lat="42.279072" lon="-6.678067">
        <ele>1279.46</ele>
        <time>2021-03-27T16:29:04Z</time>
      </trkpt>
      <trkpt lat="42.279307" lon="-6.677949">
        <ele>1281.1</ele>
        <time>2021-03-27T16:29:06Z</time>
      </trkpt>
      <trkpt lat="42.279424" lon="-6.67791">
        <ele>1282.08</ele>
        <time>2021-03-27T16:29:08Z</time>
      </trkpt>
      <trkpt lat="42.279588" lon="-6.677894">
        <ele>1283.86</ele>
        <time>2021-03-27T16:29:09Z</time>
      </trkpt>
      <trkpt lat="42.27985" lon="-6.677901">
        <ele>1285.46</ele>
        <time>2021-03-27T16:29:11Z</time>
      </trkpt>
      <trkpt lat="42.279974" lon="-6.677932">
        <ele>1285.83</ele>
        <time>2021-03-27T16:29:13Z</time>
      </trkpt>
      <trkpt lat="42.280132" lon="-6.678017">
        <ele>1286.76</ele>
        <time>2021-03-27T16:29:14Z</time>
      </trkpt>
      <trkpt lat="42.280317" lon="-6.678162">
        <ele>1290.62</ele>
        <time>2021-03-27T16:29:16Z</time>
      </trkpt>
      <trkpt lat="42.280457" lon="-6.678217">
        <ele>1292.77</ele>
        <time>2021-03-27T16:29:18Z</time>
      </trkpt>
      <trkpt lat="42.28053" lon="-6.678226">
        <ele>1293.22</ele>
        <time>2021-03-27T16:29:20Z</time>
      </trkpt>
      <trkpt lat="42.280694" lon="-6.678212">
        <ele>1294.09</ele>
        <time>2021-03-27T16:29:21Z</time>
      </trkpt>
      <trkpt lat="42.281125" lon="-6.677981">
        <ele>1300.18</ele>
        <time>2021-03-27T16:29:23Z</time>
      </trkpt>
      <trkpt lat="42.281221" lon="-6.677943">
        <ele>1301.36</ele>
        <time>2021-03-27T16:29:25Z</time>
      </trkpt>
      <trkpt lat="42.281313" lon="-6.677939">
        <ele>1302.95</ele>
        <time>2021-03-27T16:29:26Z</time>
      </trkpt>
      <trkpt lat="42.281683" lon="-6.678045">
        <ele>1306.92</ele>
        <time>2021-03-27T16:29:28Z</time>
      </trkpt>
      <trkpt lat="42.282717" lon="-6.678481">
        <ele>1320.73</ele>
        <time>2021-03-27T16:29:30Z</time>
      </trkpt>
      <trkpt lat="42.282848" lon="-6.678485">
        <ele>1321.95</ele>
        <time>2021-03-27T16:29:31Z</time>
      </trkpt>
      <trkpt lat="42.283307" lon="-6.678063">
        <ele>1325.26</ele>
        <time>2021-03-27T16:29:33Z</time>
      </trkpt>
      <trkpt lat="42.283521" lon="-6.677949">
        <ele>1328.26</ele>
        <time>2021-03-27T16:29:35Z</time>
      </trkpt>
      <trkpt lat="42.285078" lon="-6.677376">
        <ele>1342.85</ele>
        <time>2021-03-27T16:29:37Z</time>
      </trkpt>
      <trkpt lat="42.285263" lon="-6.677291">
        <ele>1344.93</ele>
        <time>2021-03-27T16:29:38Z</time>
      </trkpt>
      <trkpt lat="42.285429" lon="-6.677186">
        <ele>1346.14</ele>
        <time>2021-03-27T16:29:40Z</time>
      </trkpt>
      <trkpt lat="42.285826" lon="-6.676851">
        <ele>1348.86</ele>
        <time>2021-03-27T16:29:42Z</time>
      </trkpt>
      <trkpt lat="42.286169" lon="-6.676455">
        <ele>1354.33</ele>
        <time>2021-03-27T16:29:43Z</time>
      </trkpt>
      <trkpt lat="42.286288" lon="-6.67637">
        <ele>1356.82</ele>
        <time>2021-03-27T16:29:45Z</time>
      </trkpt>
      <trkpt lat="42.286445" lon="-6.676297">
        <ele>1359.48</ele>
        <time>2021-03-27T16:29:47Z</time>
      </trkpt>
      <trkpt lat="42.286793" lon="-6.676215">
        <ele>1363.03</ele>
        <time>2021-03-27T16:29:49Z</time>
      </trkpt>
      <trkpt lat="42.287107" lon="-6.676062">
        <ele>1365.32</ele>
        <time>2021-03-27T16:29:50Z</time>
      </trkpt>
      <trkpt lat="42.287298" lon="-6.675938">
        <ele>1367.6</ele>
        <time>2021-03-27T16:29:52Z</time>
      </trkpt>
      <trkpt lat="42.287571" lon="-6.675697">
        <ele>1370.94</ele>
        <time>2021-03-27T16:29:54Z</time>
      </trkpt>
      <trkpt lat="42.287695" lon="-6.675504">
        <ele>1372.49</ele>
        <time>2021-03-27T16:29:55Z</time>
      </trkpt>
      <trkpt lat="42.287984" lon="-6.67491">
        <ele>1376.46</ele>
        <time>2021-03-27T16:29:57Z</time>
      </trkpt>
      <trkpt lat="42.288074" lon="-6.674783">
        <ele>1377.92</ele>
        <time>2021-03-27T16:29:59Z</time>
      </trkpt>
      <trkpt lat="42.288581" lon="-6.674209">
        <ele>1382.96</ele>
        <time>2021-03-27T16:30:00Z</time>
      </trkpt>
      <trkpt lat="42.288869" lon="-6.673973">
        <ele>1387.18</ele>
        <time>2021-03-27T16:30:02Z</time>
      </trkpt>
      <trkpt lat="42.289247" lon="-6.673727">
        <ele>1391.94</ele>
        <time>2021-03-27T16:30:04Z</time>
      </trkpt>
      <trkpt lat="42.28945" lon="-6.673641">
        <ele>1393.51</ele>
        <time>2021-03-27T16:30:06Z</time>
      </trkpt>
      <trkpt lat="42.289806" lon="-6.67355">
        <ele>1395.16</ele>
        <time>2021-03-27T16:30:07Z</time>
      </trkpt>
      <trkpt lat="42.290593" lon="-6.67349">
        <ele>1401.41</ele>
        <time>2021-03-27T16:30:09Z</time>
      </trkpt>
      <trkpt lat="42.290665" lon="-6.673473">
        <ele>1401.9</ele>
        <time>2021-03-27T16:30:11Z</time>
      </trkpt>
      <trkpt lat="42.290751" lon="-6.673418">
        <ele>1401.73</ele>
        <time>2021-03-27T16:30:12Z</time>
      </trkpt>
      <trkpt lat="42.290878" lon="-6.673258">
        <ele>1400.22</ele>
        <time>2021-03-27T16:30:14Z</time>
      </trkpt>
      <trkpt lat="42.291227" lon="-6.672733">
        <ele>1398.63</ele>
        <time>2021-03-27T16:30:16Z</time>
      </trkpt>
      <trkpt lat="42.291379" lon="-6.67255">
        <ele>1399.64</ele>
        <time>2021-03-27T16:30:17Z</time>
      </trkpt>
      <trkpt lat="42.292654" lon="-6.671418">
        <ele>1406.47</ele>
        <time>2021-03-27T16:30:19Z</time>
      </trkpt>
      <trkpt lat="42.292857" lon="-6.671218">
        <ele>1406.17</ele>
        <time>2021-03-27T16:30:21Z</time>
      </trkpt>
      <trkpt lat="42.292978" lon="-6.671027">
        <ele>1407.21</ele>
        <time>2021-03-27T16:30:23Z</time>
      </trkpt>
      <trkpt lat="42.293138" lon="-6.670629">
        <ele>1410.42</ele>
        <time>2021-03-27T16:30:24Z</time>
      </trkpt>
      <trkpt lat="42.293188" lon="-6.670546">
        <ele>1410.65</ele>
        <time>2021-03-27T16:30:26Z</time>
      </trkpt>
      <trkpt lat="42.293264" lon="-6.670506">
        <ele>1410.33</ele>
        <time>2021-03-27T16:30:28Z</time>
      </trkpt>
      <trkpt lat="42.293433" lon="-6.670487">
        <ele>1408.91</ele>
        <time>2021-03-27T16:30:29Z</time>
      </trkpt>
      <trkpt lat="42.294176" lon="-6.670526">
        <ele>1397.51</ele>
        <time>2021-03-27T16:30:31Z</time>
      </trkpt>
      <trkpt lat="42.29441" lon="-6.670496">
        <ele>1395.16</ele>
        <time>2021-03-27T16:30:33Z</time>
      </trkpt>
      <trkpt lat="42.294521" lon="-6.670436">
        <ele>1394.4</ele>
        <time>2021-03-27T16:30:34Z</time>
      </trkpt>
      <trkpt lat="42.294711" lon="-6.670256">
        <ele>1393.54</ele>
        <time>2021-03-27T16:30:36Z</time>
      </trkpt>
      <trkpt lat="42.294711" lon="-6.670256">
        <ele>1393.54</ele>
        <time>2021-03-27T16:30:36Z</time>
      </trkpt>
      <trkpt lat="42.295047" lon="-6.669678">
        <ele>1393.34</ele>
        <time>2021-03-27T16:30:38Z</time>
      </trkpt>
      <trkpt lat="42.295179" lon="-6.669527">
        <ele>1392.56</ele>
        <time>2021-03-27T16:30:39Z</time>
      </trkpt>
      <trkpt lat="42.295243" lon="-6.669524">
        <ele>1391.1</ele>
        <time>2021-03-27T16:30:40Z</time>
      </trkpt>
      <trkpt lat="42.295373" lon="-6.669606">
        <ele>1387.97</ele>
        <time>2021-03-27T16:30:42Z</time>
      </trkpt>
      <trkpt lat="42.295436" lon="-6.66971">
        <ele>1385.15</ele>
        <time>2021-03-27T16:30:43Z</time>
      </trkpt>
      <trkpt lat="42.295561" lon="-6.670018">
        <ele>1377.63</ele>
        <time>2021-03-27T16:30:44Z</time>
      </trkpt>
      <trkpt lat="42.295679" lon="-6.670246">
        <ele>1372.74</ele>
        <time>2021-03-27T16:30:46Z</time>
      </trkpt>
      <trkpt lat="42.295808" lon="-6.670362">
        <ele>1370.46</ele>
        <time>2021-03-27T16:30:47Z</time>
      </trkpt>
      <trkpt lat="42.295916" lon="-6.670409">
        <ele>1369.94</ele>
        <time>2021-03-27T16:30:48Z</time>
      </trkpt>
      <trkpt lat="42.296104" lon="-6.670437">
        <ele>1370.11</ele>
        <time>2021-03-27T16:30:50Z</time>
      </trkpt>
      <trkpt lat="42.296215" lon="-6.670424">
        <ele>1369.97</ele>
        <time>2021-03-27T16:30:51Z</time>
      </trkpt>
      <trkpt lat="42.296716" lon="-6.670225">
        <ele>1372.29</ele>
        <time>2021-03-27T16:30:52Z</time>
      </trkpt>
      <trkpt lat="42.296789" lon="-6.670208">
        <ele>1373.58</ele>
        <time>2021-03-27T16:30:54Z</time>
      </trkpt>
      <trkpt lat="42.296869" lon="-6.670234">
        <ele>1373.87</ele>
        <time>2021-03-27T16:30:55Z</time>
      </trkpt>
      <trkpt lat="42.296895" lon="-6.670281">
        <ele>1373.24</ele>
        <time>2021-03-27T16:30:56Z</time>
      </trkpt>
      <trkpt lat="42.296901" lon="-6.670383">
        <ele>1371.74</ele>
        <time>2021-03-27T16:30:58Z</time>
      </trkpt>
      <trkpt lat="42.296796" lon="-6.670776">
        <ele>1365.57</ele>
        <time>2021-03-27T16:30:59Z</time>
      </trkpt>
      <trkpt lat="42.296748" lon="-6.671078">
        <ele>1363.53</ele>
        <time>2021-03-27T16:31:00Z</time>
      </trkpt>
      <trkpt lat="42.296751" lon="-6.671199">
        <ele>1363.2</ele>
        <time>2021-03-27T16:31:02Z</time>
      </trkpt>
      <trkpt lat="42.296775" lon="-6.671336">
        <ele>1363.14</ele>
        <time>2021-03-27T16:31:03Z</time>
      </trkpt>
      <trkpt lat="42.296866" lon="-6.671584">
        <ele>1362.88</ele>
        <time>2021-03-27T16:31:04Z</time>
      </trkpt>
      <trkpt lat="42.296933" lon="-6.6717">
        <ele>1362.41</ele>
        <time>2021-03-27T16:31:06Z</time>
      </trkpt>
      <trkpt lat="42.297338" lon="-6.672165">
        <ele>1359.28</ele>
        <time>2021-03-27T16:31:07Z</time>
      </trkpt>
      <trkpt lat="42.297528" lon="-6.67243">
        <ele>1356.74</ele>
        <time>2021-03-27T16:31:08Z</time>
      </trkpt>
      <trkpt lat="42.29764" lon="-6.672763">
        <ele>1354.21</ele>
        <time>2021-03-27T16:31:10Z</time>
      </trkpt>
      <trkpt lat="42.29774" lon="-6.673595">
        <ele>1345.27</ele>
        <time>2021-03-27T16:31:11Z</time>
      </trkpt>
      <trkpt lat="42.297835" lon="-6.673892">
        <ele>1342.77</ele>
        <time>2021-03-27T16:31:12Z</time>
      </trkpt>
      <trkpt lat="42.297983" lon="-6.674097">
        <ele>1340.3</ele>
        <time>2021-03-27T16:31:14Z</time>
      </trkpt>
      <trkpt lat="42.298142" lon="-6.674216">
        <ele>1338.72</ele>
        <time>2021-03-27T16:31:15Z</time>
      </trkpt>
      <trkpt lat="42.298365" lon="-6.674241">
        <ele>1338.73</ele>
        <time>2021-03-27T16:31:16Z</time>
      </trkpt>
      <trkpt lat="42.298659" lon="-6.674208">
        <ele>1336.84</ele>
        <time>2021-03-27T16:31:18Z</time>
      </trkpt>
      <trkpt lat="42.29883" lon="-6.674171">
        <ele>1334.79</ele>
        <time>2021-03-27T16:31:19Z</time>
      </trkpt>
      <trkpt lat="42.299447" lon="-6.673963">
        <ele>1326.1</ele>
        <time>2021-03-27T16:31:20Z</time>
      </trkpt>
      <trkpt lat="42.299917" lon="-6.673737">
        <ele>1326.2</ele>
        <time>2021-03-27T16:31:22Z</time>
      </trkpt>
      <trkpt lat="42.300261" lon="-6.673508">
        <ele>1325.75</ele>
        <time>2021-03-27T16:31:23Z</time>
      </trkpt>
      <trkpt lat="42.300428" lon="-6.673342">
        <ele>1324.63</ele>
        <time>2021-03-27T16:31:24Z</time>
      </trkpt>
      <trkpt lat="42.300553" lon="-6.673178">
        <ele>1321.51</ele>
        <time>2021-03-27T16:31:26Z</time>
      </trkpt>
      <trkpt lat="42.300621" lon="-6.673044">
        <ele>1318.29</ele>
        <time>2021-03-27T16:31:27Z</time>
      </trkpt>
      <trkpt lat="42.300667" lon="-6.672857">
        <ele>1314.3</ele>
        <time>2021-03-27T16:31:28Z</time>
      </trkpt>
      <trkpt lat="42.300658" lon="-6.67268">
        <ele>1312.11</ele>
        <time>2021-03-27T16:31:30Z</time>
      </trkpt>
      <trkpt lat="42.30045" lon="-6.672087">
        <ele>1320.76</ele>
        <time>2021-03-27T16:31:31Z</time>
      </trkpt>
      <trkpt lat="42.300409" lon="-6.671843">
        <ele>1323.71</ele>
        <time>2021-03-27T16:31:32Z</time>
      </trkpt>
      <trkpt lat="42.300427" lon="-6.671736">
        <ele>1323.37</ele>
        <time>2021-03-27T16:31:34Z</time>
      </trkpt>
      <trkpt lat="42.300458" lon="-6.671704">
        <ele>1321.7</ele>
        <time>2021-03-27T16:31:35Z</time>
      </trkpt>
      <trkpt lat="42.30052" lon="-6.671704">
        <ele>1317.89</ele>
        <time>2021-03-27T16:31:36Z</time>
      </trkpt>
      <trkpt lat="42.300557" lon="-6.671739">
        <ele>1315.38</ele>
        <time>2021-03-27T16:31:38Z</time>
      </trkpt>
      <trkpt lat="42.300586" lon="-6.671828">
        <ele>1313.0</ele>
        <time>2021-03-27T16:31:39Z</time>
      </trkpt>
      <trkpt lat="42.300626" lon="-6.672106">
        <ele>1309.97</ele>
        <time>2021-03-27T16:31:40Z</time>
      </trkpt>
      <trkpt lat="42.300658" lon="-6.672198">
        <ele>1307.97</ele>
        <time>2021-03-27T16:31:42Z</time>
      </trkpt>
      <trkpt lat="42.300921" lon="-6.672613">
        <ele>1295.3</ele>
        <time>2021-03-27T16:31:43Z</time>
      </trkpt>
      <trkpt lat="42.301103" lon="-6.673061">
        <ele>1290.57</ele>
        <time>2021-03-27T16:31:44Z</time>
      </trkpt>
      <trkpt lat="42.30119" lon="-6.673341">
        <ele>1286.21</ele>
        <time>2021-03-27T16:31:46Z</time>
      </trkpt>
      <trkpt lat="42.301287" lon="-6.673765">
        <ele>1282.99</ele>
        <time>2021-03-27T16:31:47Z</time>
      </trkpt>
      <trkpt lat="42.30131" lon="-6.673901">
        <ele>1281.8</ele>
        <time>2021-03-27T16:31:48Z</time>
      </trkpt>
      <trkpt lat="42.301302" lon="-6.674052">
        <ele>1280.25</ele>
        <time>2021-03-27T16:31:50Z</time>
      </trkpt>
      <trkpt lat="42.301233" lon="-6.674188">
        <ele>1281.11</ele>
        <time>2021-03-27T16:31:51Z</time>
      </trkpt>
      <trkpt lat="42.301046" lon="-6.674384">
        <ele>1280.35</ele>
        <time>2021-03-27T16:31:52Z</time>
      </trkpt>
      <trkpt lat="42.300432" lon="-6.674858">
        <ele>1270.79</ele>
        <time>2021-03-27T16:31:54Z</time>
      </trkpt>
      <trkpt lat="42.29988" lon="-6.675383">
        <ele>1265.45</ele>
        <time>2021-03-27T16:31:55Z</time>
      </trkpt>
      <trkpt lat="42.299544" lon="-6.67575">
        <ele>1263.49</ele>
        <time>2021-03-27T16:31:56Z</time>
      </trkpt>
      <trkpt lat="42.298972" lon="-6.67677">
        <ele>1250.92</ele>
        <time>2021-03-27T16:31:58Z</time>
      </trkpt>
      <trkpt lat="42.298723" lon="-6.677153">
        <ele>1242.47</ele>
        <time>2021-03-27T16:31:59Z</time>
      </trkpt>
      <trkpt lat="42.29863" lon="-6.677231">
        <ele>1241.38</ele>
        <time>2021-03-27T16:32:00Z</time>
      </trkpt>
      <trkpt lat="42.298316" lon="-6.677321">
        <ele>1247.07</ele>
        <time>2021-03-27T16:32:02Z</time>
      </trkpt>
      <trkpt lat="42.298243" lon="-6.677388">
        <ele>1248.07</ele>
        <time>2021-03-27T16:32:03Z</time>
      </trkpt>
      <trkpt lat="42.298219" lon="-6.67745">
        <ele>1247.82</ele>
        <time>2021-03-27T16:32:04Z</time>
      </trkpt>
      <trkpt lat="42.298218" lon="-6.677572">
        <ele>1247.41</ele>
        <time>2021-03-27T16:32:06Z</time>
      </trkpt>
      <trkpt lat="42.298326" lon="-6.677834">
        <ele>1243.45</ele>
        <time>2021-03-27T16:32:07Z</time>
      </trkpt>
      <trkpt lat="42.298375" lon="-6.678115">
        <ele>1245.08</ele>
        <time>2021-03-27T16:32:08Z</time>
      </trkpt>
      <trkpt lat="42.298477" lon="-6.678317">
        <ele>1240.47</ele>
        <time>2021-03-27T16:32:10Z</time>
      </trkpt>
      <trkpt lat="42.298552" lon="-6.678522">
        <ele>1236.61</ele>
        <time>2021-03-27T16:32:11Z</time>
      </trkpt>
      <trkpt lat="42.298652" lon="-6.679133">
        <ele>1239.57</ele>
        <time>2021-03-27T16:32:12Z</time>
      </trkpt>
      <trkpt lat="42.298714" lon="-6.679367">
        <ele>1243.02</ele>
        <time>2021-03-27T16:32:14Z</time>
      </trkpt>
      <trkpt lat="42.298741" lon="-6.679442">
        <ele>1244.13</ele>
        <time>2021-03-27T16:32:15Z</time>
      </trkpt>
      <trkpt lat="42.298771" lon="-6.679478">
        <ele>1244.14</ele>
        <time>2021-03-27T16:32:16Z</time>
      </trkpt>
      <trkpt lat="42.298839" lon="-6.679488">
        <ele>1243.05</ele>
        <time>2021-03-27T16:32:18Z</time>
      </trkpt>
      <trkpt lat="42.298895" lon="-6.679446">
        <ele>1241.16</ele>
        <time>2021-03-27T16:32:19Z</time>
      </trkpt>
      <trkpt lat="42.299001" lon="-6.678951">
        <ele>1232.14</ele>
        <time>2021-03-27T16:32:20Z</time>
      </trkpt>
      <trkpt lat="42.299065" lon="-6.678768">
        <ele>1229.72</ele>
        <time>2021-03-27T16:32:22Z</time>
      </trkpt>
      <trkpt lat="42.299268" lon="-6.678462">
        <ele>1225.48</ele>
        <time>2021-03-27T16:32:23Z</time>
      </trkpt>
      <trkpt lat="42.299371" lon="-6.678367">
        <ele>1223.58</ele>
        <time>2021-03-27T16:32:24Z</time>
      </trkpt>
      <trkpt lat="42.299518" lon="-6.678274">
        <ele>1221.76</ele>
        <time>2021-03-27T16:32:26Z</time>
      </trkpt>
      <trkpt lat="42.299686" lon="-6.678213">
        <ele>1220.95</ele>
        <time>2021-03-27T16:32:27Z</time>
      </trkpt>
      <trkpt lat="42.300105" lon="-6.678113">
        <ele>1218.43</ele>
        <time>2021-03-27T16:32:28Z</time>
      </trkpt>
      <trkpt lat="42.300724" lon="-6.677888">
        <ele>1213.02</ele>
        <time>2021-03-27T16:32:30Z</time>
      </trkpt>
      <trkpt lat="42.301125" lon="-6.677836">
        <ele>1208.46</ele>
        <time>2021-03-27T16:32:31Z</time>
      </trkpt>
      <trkpt lat="42.30154" lon="-6.677875">
        <ele>1201.26</ele>
        <time>2021-03-27T16:32:32Z</time>
      </trkpt>
      <trkpt lat="42.301715" lon="-6.677922">
        <ele>1199.01</ele>
        <time>2021-03-27T16:32:34Z</time>
      </trkpt>
      <trkpt lat="42.302018" lon="-6.67804">
        <ele>1195.98</ele>
        <time>2021-03-27T16:32:35Z</time>
      </trkpt>
      <trkpt lat="42.302418" lon="-6.678119">
        <ele>1188.9</ele>
        <time>2021-03-27T16:32:36Z</time>
      </trkpt>
      <trkpt lat="42.302512" lon="-6.678175">
        <ele>1188.97</ele>
        <time>2021-03-27T16:32:38Z</time>
      </trkpt>
      <trkpt lat="42.302683" lon="-6.678338">
        <ele>1191.27</ele>
        <time>2021-03-27T16:32:39Z</time>
      </trkpt>
      <trkpt lat="42.302716" lon="-6.678344">
        <ele>1190.83</ele>
        <time>2021-03-27T16:32:40Z</time>
      </trkpt>
      <trkpt lat="42.302993" lon="-6.678221">
        <ele>1180.28</ele>
        <time>2021-03-27T16:32:42Z</time>
      </trkpt>
      <trkpt lat="42.303341" lon="-6.678228">
        <ele>1176.9</ele>
        <time>2021-03-27T16:32:43Z</time>
      </trkpt>
      <trkpt lat="42.303803" lon="-6.678161">
        <ele>1173.1</ele>
        <time>2021-03-27T16:32:44Z</time>
      </trkpt>
      <trkpt lat="42.303929" lon="-6.678124">
        <ele>1172.57</ele>
        <time>2021-03-27T16:32:46Z</time>
      </trkpt>
      <trkpt lat="42.304126" lon="-6.677815">
        <ele>1165.59</ele>
        <time>2021-03-27T16:32:47Z</time>
      </trkpt>
      <trkpt lat="42.304439" lon="-6.677471">
        <ele>1163.98</ele>
        <time>2021-03-27T16:32:48Z</time>
      </trkpt>
      <trkpt lat="42.304495" lon="-6.67738">
        <ele>1163.16</ele>
        <time>2021-03-27T16:32:50Z</time>
      </trkpt>
      <trkpt lat="42.304614" lon="-6.677098">
        <ele>1158.66</ele>
        <time>2021-03-27T16:32:51Z</time>
      </trkpt>
      <trkpt lat="42.304677" lon="-6.67694">
        <ele>1156.42</ele>
        <time>2021-03-27T16:32:52Z</time>
      </trkpt>
      <trkpt lat="42.304775" lon="-6.676421">
        <ele>1145.56</ele>
        <time>2021-03-27T16:32:54Z</time>
      </trkpt>
      <trkpt lat="42.304831" lon="-6.675966">
        <ele>1138.92</ele>
        <time>2021-03-27T16:32:55Z</time>
      </trkpt>
      <trkpt lat="42.304896" lon="-6.675782">
        <ele>1137.22</ele>
        <time>2021-03-27T16:32:56Z</time>
      </trkpt>
      <trkpt lat="42.305269" lon="-6.675504">
        <ele>1133.3</ele>
        <time>2021-03-27T16:32:58Z</time>
      </trkpt>
      <trkpt lat="42.305403" lon="-6.67545">
        <ele>1129.5</ele>
        <time>2021-03-27T16:32:59Z</time>
      </trkpt>
      <trkpt lat="42.305524" lon="-6.675461">
        <ele>1127.81</ele>
        <time>2021-03-27T16:33:01Z</time>
      </trkpt>
      <trkpt lat="42.30568" lon="-6.675539">
        <ele>1125.52</ele>
        <time>2021-03-27T16:33:02Z</time>
      </trkpt>
      <trkpt lat="42.305809" lon="-6.675696">
        <ele>1125.42</ele>
        <time>2021-03-27T16:33:03Z</time>
      </trkpt>
      <trkpt lat="42.306333" lon="-6.676599">
        <ele>1116.3</ele>
        <time>2021-03-27T16:33:05Z</time>
      </trkpt>
      <trkpt lat="42.306908" lon="-6.67733">
        <ele>1116.83</ele>
        <time>2021-03-27T16:33:06Z</time>
      </trkpt>
      <trkpt lat="42.307089" lon="-6.677462">
        <ele>1114.35</ele>
        <time>2021-03-27T16:33:07Z</time>
      </trkpt>
      <trkpt lat="42.307713" lon="-6.677585">
        <ele>1102.06</ele>
        <time>2021-03-27T16:33:09Z</time>
      </trkpt>
      <trkpt lat="42.30794" lon="-6.677702">
        <ele>1099.15</ele>
        <time>2021-03-27T16:33:10Z</time>
      </trkpt>
      <trkpt lat="42.30835" lon="-6.67814">
        <ele>1095.98</ele>
        <time>2021-03-27T16:33:11Z</time>
      </trkpt>
      <trkpt lat="42.308701" lon="-6.678454">
        <ele>1090.73</ele>
        <time>2021-03-27T16:33:13Z</time>
      </trkpt>
      <trkpt lat="42.309113" lon="-6.678765">
        <ele>1084.78</ele>
        <time>2021-03-27T16:33:14Z</time>
      </trkpt>
      <trkpt lat="42.309581" lon="-6.679064">
        <ele>1079.24</ele>
        <time>2021-03-27T16:33:15Z</time>
      </trkpt>
      <trkpt lat="42.310071" lon="-6.679474">
        <ele>1076.57</ele>
        <time>2021-03-27T16:33:17Z</time>
      </trkpt>
      <trkpt lat="42.310372" lon="-6.679689">
        <ele>1073.93</ele>
        <time>2021-03-27T16:33:18Z</time>
      </trkpt>
      <trkpt lat="42.310666" lon="-6.679927">
        <ele>1071.13</ele>
        <time>2021-03-27T16:33:19Z</time>
      </trkpt>
      <trkpt lat="42.310744" lon="-6.679963">
        <ele>1070.3</ele>
        <time>2021-03-27T16:33:21Z</time>
      </trkpt>
      <trkpt lat="42.310929" lon="-6.679935">
        <ele>1069.33</ele>
        <time>2021-03-27T16:33:22Z</time>
      </trkpt>
      <trkpt lat="42.311095" lon="-6.68012">
        <ele>1067.91</ele>
        <time>2021-03-27T16:33:23Z</time>
      </trkpt>
      <trkpt lat="42.311184" lon="-6.680253">
        <ele>1065.57</ele>
        <time>2021-03-27T16:33:25Z</time>
      </trkpt>
      <trkpt lat="42.311259" lon="-6.680318">
        <ele>1064.25</ele>
        <time>2021-03-27T16:33:26Z</time>
      </trkpt>
      <trkpt lat="42.311488" lon="-6.680427">
        <ele>1061.38</ele>
        <time>2021-03-27T16:33:27Z</time>
      </trkpt>
      <trkpt lat="42.311714" lon="-6.680482">
        <ele>1059.21</ele>
        <time>2021-03-27T16:33:29Z</time>
      </trkpt>
      <trkpt lat="42.311849" lon="-6.680549">
        <ele>1055.88</ele>
        <time>2021-03-27T16:33:30Z</time>
      </trkpt>
      <trkpt lat="42.312011" lon="-6.680665">
        <ele>1054.76</ele>
        <time>2021-03-27T16:33:31Z</time>
      </trkpt>
      <trkpt lat="42.312132" lon="-6.680721">
        <ele>1056.25</ele>
        <time>2021-03-27T16:33:33Z</time>
      </trkpt>
      <trkpt lat="42.312376" lon="-6.680768">
        <ele>1057.59</ele>
        <time>2021-03-27T16:33:34Z</time>
      </trkpt>
      <trkpt lat="42.312642" lon="-6.680856">
        <ele>1057.16</ele>
        <time>2021-03-27T16:33:35Z</time>
      </trkpt>
      <trkpt lat="42.312751" lon="-6.680928">
        <ele>1056.76</ele>
        <time>2021-03-27T16:33:37Z</time>
      </trkpt>
      <trkpt lat="42.31301" lon="-6.681183">
        <ele>1054.79</ele>
        <time>2021-03-27T16:33:38Z</time>
      </trkpt>
      <trkpt lat="42.313308" lon="-6.681434">
        <ele>1054.58</ele>
        <time>2021-03-27T16:33:39Z</time>
      </trkpt>
      <trkpt lat="42.31355" lon="-6.681599">
        <ele>1053.02</ele>
        <time>2021-03-27T16:33:41Z</time>
      </trkpt>
      <trkpt lat="42.31366" lon="-6.681638">
        <ele>1052.99</ele>
        <time>2021-03-27T16:33:42Z</time>
      </trkpt>
      <trkpt lat="42.314596" lon="-6.681534">
        <ele>1050.8</ele>
        <time>2021-03-27T16:33:43Z</time>
      </trkpt>
      <trkpt lat="42.314691" lon="-6.681509">
        <ele>1051.08</ele>
        <time>2021-03-27T16:33:45Z</time>
      </trkpt>
      <trkpt lat="42.315139" lon="-6.681263">
        <ele>1054.98</ele>
        <time>2021-03-27T16:33:46Z</time>
      </trkpt>
      <trkpt lat="42.3152" lon="-6.68126">
        <ele>1053.75</ele>
        <time>2021-03-27T16:33:47Z</time>
      </trkpt>
      <trkpt lat="42.315491" lon="-6.68135">
        <ele>1041.79</ele>
        <time>2021-03-27T16:33:49Z</time>
      </trkpt>
      <trkpt lat="42.316141" lon="-6.681484">
        <ele>1041.28</ele>
        <time>2021-03-27T16:33:50Z</time>
      </trkpt>
      <trkpt lat="42.316516" lon="-6.681658">
        <ele>1036.47</ele>
        <time>2021-03-27T16:33:51Z</time>
      </trkpt>
      <trkpt lat="42.316594" lon="-6.681717">
        <ele>1034.35</ele>
        <time>2021-03-27T16:33:53Z</time>
      </trkpt>
      <trkpt lat="42.316732" lon="-6.681753">
        <ele>1032.59</ele>
        <time>2021-03-27T16:33:54Z</time>
      </trkpt>
      <trkpt lat="42.317224" lon="-6.681657">
        <ele>1041.3</ele>
        <time>2021-03-27T16:33:55Z</time>
      </trkpt>
      <trkpt lat="42.317415" lon="-6.681657">
        <ele>1039.93</ele>
        <time>2021-03-27T16:33:57Z</time>
      </trkpt>
      <trkpt lat="42.317526" lon="-6.68163">
        <ele>1039.26</ele>
        <time>2021-03-27T16:33:58Z</time>
      </trkpt>
      <trkpt lat="42.317702" lon="-6.681554">
        <ele>1035.67</ele>
        <time>2021-03-27T16:33:59Z</time>
      </trkpt>
      <trkpt lat="42.317949" lon="-6.681542">
        <ele>1031.92</ele>
        <time>2021-03-27T16:34:01Z</time>
      </trkpt>
      <trkpt lat="42.318249" lon="-6.681577">
        <ele>1028.65</ele>
        <time>2021-03-27T16:34:02Z</time>
      </trkpt>
      <trkpt lat="42.318443" lon="-6.68157">
        <ele>1026.34</ele>
        <time>2021-03-27T16:34:03Z</time>
      </trkpt>
      <trkpt lat="42.319024" lon="-6.681462">
        <ele>1019.1</ele>
        <time>2021-03-27T16:34:05Z</time>
      </trkpt>
      <trkpt lat="42.319689" lon="-6.68137">
        <ele>1018.3</ele>
        <time>2021-03-27T16:34:06Z</time>
      </trkpt>
      <trkpt lat="42.319802" lon="-6.681391">
        <ele>1019.36</ele>
        <time>2021-03-27T16:34:07Z</time>
      </trkpt>
      <trkpt lat="42.320052" lon="-6.6815">
        <ele>1018.92</ele>
        <time>2021-03-27T16:34:09Z</time>
      </trkpt>
      <trkpt lat="42.320589" lon="-6.681785">
        <ele>1009.35</ele>
        <time>2021-03-27T16:34:10Z</time>
      </trkpt>
      <trkpt lat="42.320817" lon="-6.681832">
        <ele>1008.97</ele>
        <time>2021-03-27T16:34:11Z</time>
      </trkpt>
      <trkpt lat="42.320945" lon="-6.681837">
        <ele>1009.11</ele>
        <time>2021-03-27T16:34:13Z</time>
      </trkpt>
      <trkpt lat="42.321402" lon="-6.681812">
        <ele>1010.05</ele>
        <time>2021-03-27T16:34:14Z</time>
      </trkpt>
      <trkpt lat="42.322582" lon="-6.68143">
        <ele>1002.27</ele>
        <time>2021-03-27T16:34:15Z</time>
      </trkpt>
      <trkpt lat="42.322674" lon="-6.681436">
        <ele>1001.49</ele>
        <time>2021-03-27T16:34:17Z</time>
      </trkpt>
      <trkpt lat="42.323034" lon="-6.681593">
        <ele>997.83</ele>
        <time>2021-03-27T16:34:18Z</time>
      </trkpt>
      <trkpt lat="42.32335" lon="-6.68167">
        <ele>991.03</ele>
        <time>2021-03-27T16:34:19Z</time>
      </trkpt>
      <trkpt lat="42.32368" lon="-6.681787">
        <ele>990.56</ele>
        <time>2021-03-27T16:34:21Z</time>
      </trkpt>
      <trkpt lat="42.324042" lon="-6.681949">
        <ele>987.37</ele>
        <time>2021-03-27T16:34:22Z</time>
      </trkpt>
      <trkpt lat="42.324207" lon="-6.68196">
        <ele>986.29</ele>
        <time>2021-03-27T16:34:23Z</time>
      </trkpt>
      <trkpt lat="42.324509" lon="-6.681903">
        <ele>984.08</ele>
        <time>2021-03-27T16:34:25Z</time>
      </trkpt>
      <trkpt lat="42.324679" lon="-6.681788">
        <ele>984.09</ele>
        <time>2021-03-27T16:34:26Z</time>
      </trkpt>
      <trkpt lat="42.324847" lon="-6.681612">
        <ele>983.89</ele>
        <time>2021-03-27T16:34:27Z</time>
      </trkpt>
      <trkpt lat="42.325038" lon="-6.681339">
        <ele>985.34</ele>
        <time>2021-03-27T16:34:29Z</time>
      </trkpt>
      <trkpt lat="42.325386" lon="-6.680973">
        <ele>985.95</ele>
        <time>2021-03-27T16:34:30Z</time>
      </trkpt>
      <trkpt lat="42.325604" lon="-6.680771">
        <ele>985.92</ele>
        <time>2021-03-27T16:34:31Z</time>
      </trkpt>
      <trkpt lat="42.325683" lon="-6.68074">
        <ele>985.39</ele>
        <time>2021-03-27T16:34:33Z</time>
      </trkpt>
      <trkpt lat="42.326195" lon="-6.680702">
        <ele>978.12</ele>
        <time>2021-03-27T16:34:34Z</time>
      </trkpt>
      <trkpt lat="42.326246" lon="-6.68068">
        <ele>977.87</ele>
        <time>2021-03-27T16:34:35Z</time>
      </trkpt>
      <trkpt lat="42.326487" lon="-6.680451">
        <ele>979.97</ele>
        <time>2021-03-27T16:34:37Z</time>
      </trkpt>
      <trkpt lat="42.326602" lon="-6.680397">
        <ele>980.07</ele>
        <time>2021-03-27T16:34:38Z</time>
      </trkpt>
      <trkpt lat="42.326654" lon="-6.680401">
        <ele>979.19</ele>
        <time>2021-03-27T16:34:39Z</time>
      </trkpt>
      <trkpt lat="42.32739" lon="-6.680698">
        <ele>976.9</ele>
        <time>2021-03-27T16:34:41Z</time>
      </trkpt>
      <trkpt lat="42.327579" lon="-6.680735">
        <ele>975.75</ele>
        <time>2021-03-27T16:34:42Z</time>
      </trkpt>
      <trkpt lat="42.327663" lon="-6.680718">
        <ele>976.22</ele>
        <time>2021-03-27T16:34:43Z</time>
      </trkpt>
      <trkpt lat="42.327748" lon="-6.680658">
        <ele>978.28</ele>
        <time>2021-03-27T16:34:45Z</time>
      </trkpt>
      <trkpt lat="42.327895" lon="-6.68061">
        <ele>979.7</ele>
        <time>2021-03-27T16:34:46Z</time>
      </trkpt>
      <trkpt lat="42.327989" lon="-6.680598">
        <ele>979.83</ele>
        <time>2021-03-27T16:34:47Z</time>
      </trkpt>
      <trkpt lat="42.328355" lon="-6.680637">
        <ele>976.76</ele>
        <time>2021-03-27T16:34:49Z</time>
      </trkpt>
      <trkpt lat="42.328451" lon="-6.680622">
        <ele>977.39</ele>
        <time>2021-03-27T16:34:50Z</time>
      </trkpt>
      <trkpt lat="42.328601" lon="-6.680564">
        <ele>980.51</ele>
        <time>2021-03-27T16:34:51Z</time>
      </trkpt>
      <trkpt lat="42.328947" lon="-6.680671">
        <ele>975.28</ele>
        <time>2021-03-27T16:34:53Z</time>
      </trkpt>
      <trkpt lat="42.329258" lon="-6.680722">
        <ele>971.34</ele>
        <time>2021-03-27T16:34:54Z</time>
      </trkpt>
      <trkpt lat="42.329578" lon="-6.680711">
        <ele>968.76</ele>
        <time>2021-03-27T16:34:55Z</time>
      </trkpt>
      <trkpt lat="42.329696" lon="-6.680689">
        <ele>966.65</ele>
        <time>2021-03-27T16:34:57Z</time>
      </trkpt>
      <trkpt lat="42.329793" lon="-6.680645">
        <ele>963.57</ele>
        <time>2021-03-27T16:34:58Z</time>
      </trkpt>
      <trkpt lat="42.329882" lon="-6.68056">
        <ele>961.02</ele>
        <time>2021-03-27T16:34:59Z</time>
      </trkpt>
      <trkpt lat="42.330035" lon="-6.680353">
        <ele>959.34</ele>
        <time>2021-03-27T16:35:01Z</time>
      </trkpt>
      <trkpt lat="42.330545" lon="-6.679395">
        <ele>959.11</ele>
        <time>2021-03-27T16:35:02Z</time>
      </trkpt>
      <trkpt lat="42.330758" lon="-6.67911">
        <ele>955.42</ele>
        <time>2021-03-27T16:35:03Z</time>
      </trkpt>
      <trkpt lat="42.330997" lon="-6.678862">
        <ele>954.49</ele>
        <time>2021-03-27T16:35:05Z</time>
      </trkpt>
      <trkpt lat="42.331126" lon="-6.678769">
        <ele>952.79</ele>
        <time>2021-03-27T16:35:06Z</time>
      </trkpt>
      <trkpt lat="42.331582" lon="-6.678521">
        <ele>943.09</ele>
        <time>2021-03-27T16:35:07Z</time>
      </trkpt>
      <trkpt lat="42.331729" lon="-6.678393">
        <ele>940.34</ele>
        <time>2021-03-27T16:35:09Z</time>
      </trkpt>
      <trkpt lat="42.331883" lon="-6.678189">
        <ele>937.97</ele>
        <time>2021-03-27T16:35:10Z</time>
      </trkpt>
      <trkpt lat="42.332065" lon="-6.67777">
        <ele>932.6</ele>
        <time>2021-03-27T16:35:11Z</time>
      </trkpt>
      <trkpt lat="42.332218" lon="-6.677365">
        <ele>929.68</ele>
        <time>2021-03-27T16:35:13Z</time>
      </trkpt>
      <trkpt lat="42.332736" lon="-6.676583">
        <ele>918.59</ele>
        <time>2021-03-27T16:35:14Z</time>
      </trkpt>
      <trkpt lat="42.332823" lon="-6.676496">
        <ele>918.0</ele>
        <time>2021-03-27T16:35:15Z</time>
      </trkpt>
      <trkpt lat="42.333314" lon="-6.676164">
        <ele>917.93</ele>
        <time>2021-03-27T16:35:17Z</time>
      </trkpt>
      <trkpt lat="42.334062" lon="-6.675593">
        <ele>920.55</ele>
        <time>2021-03-27T16:35:18Z</time>
      </trkpt>
      <trkpt lat="42.334276" lon="-6.675357">
        <ele>923.05</ele>
        <time>2021-03-27T16:35:19Z</time>
      </trkpt>
      <trkpt lat="42.334495" lon="-6.674996">
        <ele>925.15</ele>
        <time>2021-03-27T16:35:21Z</time>
      </trkpt>
      <trkpt lat="42.334607" lon="-6.674854">
        <ele>925.18</ele>
        <time>2021-03-27T16:35:22Z</time>
      </trkpt>
      <trkpt lat="42.334697" lon="-6.674787">
        <ele>924.52</ele>
        <time>2021-03-27T16:35:23Z</time>
      </trkpt>
      <trkpt lat="42.335128" lon="-6.67467">
        <ele>915.89</ele>
        <time>2021-03-27T16:35:25Z</time>
      </trkpt>
      <trkpt lat="42.335442" lon="-6.674552">
        <ele>913.95</ele>
        <time>2021-03-27T16:35:26Z</time>
      </trkpt>
      <trkpt lat="42.335662" lon="-6.674424">
        <ele>915.41</ele>
        <time>2021-03-27T16:35:27Z</time>
      </trkpt>
      <trkpt lat="42.335942" lon="-6.674193">
        <ele>918.61</ele>
        <time>2021-03-27T16:35:29Z</time>
      </trkpt>
      <trkpt lat="42.336035" lon="-6.674056">
        <ele>918.31</ele>
        <time>2021-03-27T16:35:30Z</time>
      </trkpt>
      <trkpt lat="42.33635" lon="-6.673102">
        <ele>922.32</ele>
        <time>2021-03-27T16:35:31Z</time>
      </trkpt>
      <trkpt lat="42.336566" lon="-6.672572">
        <ele>924.94</ele>
        <time>2021-03-27T16:35:33Z</time>
      </trkpt>
      <trkpt lat="42.336632" lon="-6.672462">
        <ele>925.54</ele>
        <time>2021-03-27T16:35:34Z</time>
      </trkpt>
      <trkpt lat="42.336712" lon="-6.672405">
        <ele>925.9</ele>
        <time>2021-03-27T16:35:35Z</time>
      </trkpt>
      <trkpt lat="42.336801" lon="-6.6724">
        <ele>926.38</ele>
        <time>2021-03-27T16:35:37Z</time>
      </trkpt>
      <trkpt lat="42.33688" lon="-6.672451">
        <ele>926.25</ele>
        <time>2021-03-27T16:35:38Z</time>
      </trkpt>
      <trkpt lat="42.336922" lon="-6.672518">
        <ele>925.66</ele>
        <time>2021-03-27T16:35:39Z</time>
      </trkpt>
      <trkpt lat="42.337023" lon="-6.672848">
        <ele>923.83</ele>
        <time>2021-03-27T16:35:41Z</time>
      </trkpt>
      <trkpt lat="42.337154" lon="-6.673493">
        <ele>921.59</ele>
        <time>2021-03-27T16:35:42Z</time>
      </trkpt>
      <trkpt lat="42.337177" lon="-6.673556">
        <ele>921.09</ele>
        <time>2021-03-27T16:35:43Z</time>
      </trkpt>
      <trkpt lat="42.337251" lon="-6.673656">
        <ele>920.97</ele>
        <time>2021-03-27T16:35:45Z</time>
      </trkpt>
      <trkpt lat="42.337359" lon="-6.673717">
        <ele>922.25</ele>
        <time>2021-03-27T16:35:46Z</time>
      </trkpt>
      <trkpt lat="42.33789" lon="-6.673846">
        <ele>930.32</ele>
        <time>2021-03-27T16:35:48Z</time>
      </trkpt>
      <trkpt lat="42.338248" lon="-6.674024">
        <ele>931.91</ele>
        <time>2021-03-27T16:35:49Z</time>
      </trkpt>
      <trkpt lat="42.338394" lon="-6.674029">
        <ele>934.0</ele>
        <time>2021-03-27T16:35:50Z</time>
      </trkpt>
      <trkpt lat="42.338599" lon="-6.673988">
        <ele>937.02</ele>
        <time>2021-03-27T16:35:52Z</time>
      </trkpt>
      <trkpt lat="42.338717" lon="-6.673943">
        <ele>936.68</ele>
        <time>2021-03-27T16:35:53Z</time>
      </trkpt>
      <trkpt lat="42.33897" lon="-6.673771">
        <ele>938.32</ele>
        <time>2021-03-27T16:35:54Z</time>
      </trkpt>
      <trkpt lat="42.339564" lon="-6.673274">
        <ele>952.58</ele>
        <time>2021-03-27T16:35:56Z</time>
      </trkpt>
      <trkpt lat="42.339829" lon="-6.673085">
        <ele>951.41</ele>
        <time>2021-03-27T16:35:57Z</time>
      </trkpt>
      <trkpt lat="42.340189" lon="-6.672692">
        <ele>949.36</ele>
        <time>2021-03-27T16:35:58Z</time>
      </trkpt>
      <trkpt lat="42.340351" lon="-6.672589">
        <ele>947.55</ele>
        <time>2021-03-27T16:36:00Z</time>
      </trkpt>
      <trkpt lat="42.340616" lon="-6.672459">
        <ele>943.06</ele>
        <time>2021-03-27T16:36:01Z</time>
      </trkpt>
      <trkpt lat="42.340834" lon="-6.67243">
        <ele>940.02</ele>
        <time>2021-03-27T16:36:02Z</time>
      </trkpt>
      <trkpt lat="42.3409" lon="-6.672463">
        <ele>939.83</ele>
        <time>2021-03-27T16:36:04Z</time>
      </trkpt>
      <trkpt lat="42.340951" lon="-6.672522">
        <ele>939.12</ele>
        <time>2021-03-27T16:36:05Z</time>
      </trkpt>
      <trkpt lat="42.34107" lon="-6.67284">
        <ele>934.47</ele>
        <time>2021-03-27T16:36:06Z</time>
      </trkpt>
      <trkpt lat="42.341309" lon="-6.67324">
        <ele>933.11</ele>
        <time>2021-03-27T16:36:08Z</time>
      </trkpt>
      <trkpt lat="42.341328" lon="-6.673322">
        <ele>932.29</ele>
        <time>2021-03-27T16:36:09Z</time>
      </trkpt>
      <trkpt lat="42.34132" lon="-6.673423">
        <ele>932.09</ele>
        <time>2021-03-27T16:36:10Z</time>
      </trkpt>
      <trkpt lat="42.34118" lon="-6.673818">
        <ele>928.17</ele>
        <time>2021-03-27T16:36:12Z</time>
      </trkpt>
      <trkpt lat="42.340912" lon="-6.674899">
        <ele>913.99</ele>
        <time>2021-03-27T16:36:13Z</time>
      </trkpt>
      <trkpt lat="42.34088" lon="-6.675082">
        <ele>911.51</ele>
        <time>2021-03-27T16:36:14Z</time>
      </trkpt>
      <trkpt lat="42.34087" lon="-6.675351">
        <ele>908.26</ele>
        <time>2021-03-27T16:36:16Z</time>
      </trkpt>
      <trkpt lat="42.340889" lon="-6.675455">
        <ele>907.38</ele>
        <time>2021-03-27T16:36:17Z</time>
      </trkpt>
      <trkpt lat="42.340958" lon="-6.675597">
        <ele>906.0</ele>
        <time>2021-03-27T16:36:18Z</time>
      </trkpt>
      <trkpt lat="42.341057" lon="-6.675694">
        <ele>904.33</ele>
        <time>2021-03-27T16:36:20Z</time>
      </trkpt>
      <trkpt lat="42.341205" lon="-6.675725">
        <ele>903.96</ele>
        <time>2021-03-27T16:36:21Z</time>
      </trkpt>
      <trkpt lat="42.341309" lon="-6.675699">
        <ele>905.16</ele>
        <time>2021-03-27T16:36:22Z</time>
      </trkpt>
      <trkpt lat="42.341467" lon="-6.675614">
        <ele>907.64</ele>
        <time>2021-03-27T16:36:24Z</time>
      </trkpt>
      <trkpt lat="42.341561" lon="-6.675594">
        <ele>906.57</ele>
        <time>2021-03-27T16:36:25Z</time>
      </trkpt>
      <trkpt lat="42.341646" lon="-6.675584">
        <ele>905.21</ele>
        <time>2021-03-27T16:36:26Z</time>
      </trkpt>
      <trkpt lat="42.341832" lon="-6.675602">
        <ele>904.39</ele>
        <time>2021-03-27T16:36:28Z</time>
      </trkpt>
      <trkpt lat="42.341994" lon="-6.675677">
        <ele>901.77</ele>
        <time>2021-03-27T16:36:29Z</time>
      </trkpt>
      <trkpt lat="42.342292" lon="-6.675951">
        <ele>895.87</ele>
        <time>2021-03-27T16:36:30Z</time>
      </trkpt>
      <trkpt lat="42.342393" lon="-6.676013">
        <ele>895.9</ele>
        <time>2021-03-27T16:36:32Z</time>
      </trkpt>
      <trkpt lat="42.342697" lon="-6.676113">
        <ele>897.78</ele>
        <time>2021-03-27T16:36:33Z</time>
      </trkpt>
      <trkpt lat="42.342864" lon="-6.676141">
        <ele>898.96</ele>
        <time>2021-03-27T16:36:34Z</time>
      </trkpt>
      <trkpt lat="42.342978" lon="-6.676194">
        <ele>897.96</ele>
        <time>2021-03-27T16:36:36Z</time>
      </trkpt>
      <trkpt lat="42.343061" lon="-6.676263">
        <ele>895.41</ele>
        <time>2021-03-27T16:36:37Z</time>
      </trkpt>
      <trkpt lat="42.343284" lon="-6.676519">
        <ele>887.72</ele>
        <time>2021-03-27T16:36:38Z</time>
      </trkpt>
      <trkpt lat="42.343381" lon="-6.67675">
        <ele>884.68</ele>
        <time>2021-03-27T16:36:40Z</time>
      </trkpt>
      <trkpt lat="42.343445" lon="-6.677007">
        <ele>882.11</ele>
        <time>2021-03-27T16:36:41Z</time>
      </trkpt>
      <trkpt lat="42.343507" lon="-6.677117">
        <ele>880.94</ele>
        <time>2021-03-27T16:36:42Z</time>
      </trkpt>
      <trkpt lat="42.343661" lon="-6.677183">
        <ele>880.4</ele>
        <time>2021-03-27T16:36:44Z</time>
      </trkpt>
      <trkpt lat="42.343857" lon="-6.677225">
        <ele>880.72</ele>
        <time>2021-03-27T16:36:45Z</time>
      </trkpt>
      <trkpt lat="42.343937" lon="-6.677273">
        <ele>880.86</ele>
        <time>2021-03-27T16:36:46Z</time>
      </trkpt>
      <trkpt lat="42.344157" lon="-6.677497">
        <ele>878.02</ele>
        <time>2021-03-27T16:36:48Z</time>
      </trkpt>
      <trkpt lat="42.344245" lon="-6.677621">
        <ele>877.74</ele>
        <time>2021-03-27T16:36:49Z</time>
      </trkpt>
      <trkpt lat="42.344512" lon="-6.678127">
        <ele>870.36</ele>
        <time>2021-03-27T16:36:50Z</time>
      </trkpt>
      <trkpt lat="42.344604" lon="-6.678239">
        <ele>868.92</ele>
        <time>2021-03-27T16:36:52Z</time>
      </trkpt>
      <trkpt lat="42.344722" lon="-6.678304">
        <ele>867.42</ele>
        <time>2021-03-27T16:36:53Z</time>
      </trkpt>
      <trkpt lat="42.345183" lon="-6.678399">
        <ele>871.24</ele>
        <time>2021-03-27T16:36:54Z</time>
      </trkpt>
      <trkpt lat="42.345277" lon="-6.678387">
        <ele>872.76</ele>
        <time>2021-03-27T16:36:56Z</time>
      </trkpt>
      <trkpt lat="42.34542" lon="-6.678311">
        <ele>873.33</ele>
        <time>2021-03-27T16:36:57Z</time>
      </trkpt>
      <trkpt lat="42.345613" lon="-6.678159">
        <ele>873.13</ele>
        <time>2021-03-27T16:36:58Z</time>
      </trkpt>
      <trkpt lat="42.3457" lon="-6.678122">
        <ele>873.37</ele>
        <time>2021-03-27T16:37:00Z</time>
      </trkpt>
      <trkpt lat="42.346063" lon="-6.678093">
        <ele>875.93</ele>
        <time>2021-03-27T16:37:01Z</time>
      </trkpt>
      <trkpt lat="42.34611" lon="-6.678105">
        <ele>876.77</ele>
        <time>2021-03-27T16:37:02Z</time>
      </trkpt>
      <trkpt lat="42.346181" lon="-6.678164">
        <ele>878.66</ele>
        <time>2021-03-27T16:37:04Z</time>
      </trkpt>
      <trkpt lat="42.346374" lon="-6.678546">
        <ele>885.89</ele>
        <time>2021-03-27T16:37:05Z</time>
      </trkpt>
      <trkpt lat="42.34644" lon="-6.678596">
        <ele>886.68</ele>
        <time>2021-03-27T16:37:06Z</time>
      </trkpt>
      <trkpt lat="42.346518" lon="-6.678596">
        <ele>886.7</ele>
        <time>2021-03-27T16:37:08Z</time>
      </trkpt>
      <trkpt lat="42.346569" lon="-6.678556">
        <ele>885.94</ele>
        <time>2021-03-27T16:37:09Z</time>
      </trkpt>
      <trkpt lat="42.34676" lon="-6.678223">
        <ele>882.17</ele>
        <time>2021-03-27T16:37:10Z</time>
      </trkpt>
      <trkpt lat="42.346851" lon="-6.678126">
        <ele>882.34</ele>
        <time>2021-03-27T16:37:12Z</time>
      </trkpt>
      <trkpt lat="42.346928" lon="-6.67808">
        <ele>883.19</ele>
        <time>2021-03-27T16:37:13Z</time>
      </trkpt>
      <trkpt lat="42.347322" lon="-6.677955">
        <ele>889.26</ele>
        <time>2021-03-27T16:37:14Z</time>
      </trkpt>
      <trkpt lat="42.347444" lon="-6.677882">
        <ele>889.79</ele>
        <time>2021-03-27T16:37:16Z</time>
      </trkpt>
      <trkpt lat="42.347721" lon="-6.677657">
        <ele>890.96</ele>
        <time>2021-03-27T16:37:17Z</time>
      </trkpt>
      <trkpt lat="42.347905" lon="-6.677557">
        <ele>892.61</ele>
        <time>2021-03-27T16:37:18Z</time>
      </trkpt>
      <trkpt lat="42.347984" lon="-6.677526">
        <ele>893.34</ele>
        <time>2021-03-27T16:37:20Z</time>
      </trkpt>
      <trkpt lat="42.34811" lon="-6.677514">
        <ele>894.56</ele>
        <time>2021-03-27T16:37:21Z</time>
      </trkpt>
      <trkpt lat="42.348236" lon="-6.677529">
        <ele>895.45</ele>
        <time>2021-03-27T16:37:22Z</time>
      </trkpt>
      <trkpt lat="42.348361" lon="-6.677611">
        <ele>897.96</ele>
        <time>2021-03-27T16:37:24Z</time>
      </trkpt>
      <trkpt lat="42.348986" lon="-6.678343">
        <ele>914.54</ele>
        <time>2021-03-27T16:37:25Z</time>
      </trkpt>
      <trkpt lat="42.349161" lon="-6.678527">
        <ele>917.92</ele>
        <time>2021-03-27T16:37:26Z</time>
      </trkpt>
      <trkpt lat="42.349237" lon="-6.678585">
        <ele>918.84</ele>
        <time>2021-03-27T16:37:28Z</time>
      </trkpt>
      <trkpt lat="42.349337" lon="-6.678643">
        <ele>919.51</ele>
        <time>2021-03-27T16:37:29Z</time>
      </trkpt>
      <trkpt lat="42.349408" lon="-6.678661">
        <ele>919.36</ele>
        <time>2021-03-27T16:37:30Z</time>
      </trkpt>
      <trkpt lat="42.349758" lon="-6.678658">
        <ele>918.84</ele>
        <time>2021-03-27T16:37:32Z</time>
      </trkpt>
      <trkpt lat="42.349894" lon="-6.678696">
        <ele>919.53</ele>
        <time>2021-03-27T16:37:33Z</time>
      </trkpt>
      <trkpt lat="42.350749" lon="-6.679424">
        <ele>927.01</ele>
        <time>2021-03-27T16:37:34Z</time>
      </trkpt>
      <trkpt lat="42.350801" lon="-6.679433">
        <ele>926.95</ele>
        <time>2021-03-27T16:37:36Z</time>
      </trkpt>
      <trkpt lat="42.35093" lon="-6.679383">
        <ele>926.73</ele>
        <time>2021-03-27T16:37:37Z</time>
      </trkpt>
      <trkpt lat="42.351054" lon="-6.679306">
        <ele>926.2</ele>
        <time>2021-03-27T16:37:38Z</time>
      </trkpt>
      <trkpt lat="42.351177" lon="-6.679279">
        <ele>926.59</ele>
        <time>2021-03-27T16:37:40Z</time>
      </trkpt>
      <trkpt lat="42.351305" lon="-6.67931">
        <ele>928.34</ele>
        <time>2021-03-27T16:37:41Z</time>
      </trkpt>
      <trkpt lat="42.351556" lon="-6.679424">
        <ele>932.16</ele>
        <time>2021-03-27T16:37:42Z</time>
      </trkpt>
      <trkpt lat="42.351678" lon="-6.679428">
        <ele>932.69</ele>
        <time>2021-03-27T16:37:44Z</time>
      </trkpt>
      <trkpt lat="42.351796" lon="-6.679358">
        <ele>931.74</ele>
        <time>2021-03-27T16:37:45Z</time>
      </trkpt>
      <trkpt lat="42.351962" lon="-6.679177">
        <ele>929.63</ele>
        <time>2021-03-27T16:37:46Z</time>
      </trkpt>
      <trkpt lat="42.35204" lon="-6.679118">
        <ele>930.76</ele>
        <time>2021-03-27T16:37:48Z</time>
      </trkpt>
      <trkpt lat="42.352139" lon="-6.679064">
        <ele>932.28</ele>
        <time>2021-03-27T16:37:49Z</time>
      </trkpt>
      <trkpt lat="42.352605" lon="-6.678923">
        <ele>939.53</ele>
        <time>2021-03-27T16:37:50Z</time>
      </trkpt>
      <trkpt lat="42.352973" lon="-6.678697">
        <ele>939.94</ele>
        <time>2021-03-27T16:37:52Z</time>
      </trkpt>
      <trkpt lat="42.353257" lon="-6.678684">
        <ele>939.32</ele>
        <time>2021-03-27T16:37:53Z</time>
      </trkpt>
      <trkpt lat="42.353771" lon="-6.678757">
        <ele>940.88</ele>
        <time>2021-03-27T16:37:54Z</time>
      </trkpt>
      <trkpt lat="42.353882" lon="-6.678748">
        <ele>941.88</ele>
        <time>2021-03-27T16:37:56Z</time>
      </trkpt>
      <trkpt lat="42.353915" lon="-6.678726">
        <ele>941.91</ele>
        <time>2021-03-27T16:37:57Z</time>
      </trkpt>
      <trkpt lat="42.353965" lon="-6.67865">
        <ele>941.17</ele>
        <time>2021-03-27T16:37:58Z</time>
      </trkpt>
      <trkpt lat="42.354098" lon="-6.678332">
        <ele>937.25</ele>
        <time>2021-03-27T16:38:00Z</time>
      </trkpt>
      <trkpt lat="42.35416" lon="-6.678239">
        <ele>937.47</ele>
        <time>2021-03-27T16:38:01Z</time>
      </trkpt>
      <trkpt lat="42.354646" lon="-6.677744">
        <ele>942.83</ele>
        <time>2021-03-27T16:38:02Z</time>
      </trkpt>
      <trkpt lat="42.354787" lon="-6.677643">
        <ele>943.88</ele>
        <time>2021-03-27T16:38:04Z</time>
      </trkpt>
      <trkpt lat="42.355261" lon="-6.677649">
        <ele>950.0</ele>
        <time>2021-03-27T16:38:05Z</time>
      </trkpt>
      <trkpt lat="42.355492" lon="-6.677554">
        <ele>948.32</ele>
        <time>2021-03-27T16:38:06Z</time>
      </trkpt>
      <trkpt lat="42.355562" lon="-6.677548">
        <ele>948.04</ele>
        <time>2021-03-27T16:38:08Z</time>
      </trkpt>
      <trkpt lat="42.35562" lon="-6.677566">
        <ele>947.08</ele>
        <time>2021-03-27T16:38:09Z</time>
      </trkpt>
      <trkpt lat="42.355738" lon="-6.677646">
        <ele>947.15</ele>
        <time>2021-03-27T16:38:10Z</time>
      </trkpt>
      <trkpt lat="42.356057" lon="-6.677963">
        <ele>950.69</ele>
        <time>2021-03-27T16:38:12Z</time>
      </trkpt>
      <trkpt lat="42.356428" lon="-6.678281">
        <ele>953.87</ele>
        <time>2021-03-27T16:38:13Z</time>
      </trkpt>
      <trkpt lat="42.356485" lon="-6.67832">
        <ele>954.27</ele>
        <time>2021-03-27T16:38:14Z</time>
      </trkpt>
      <trkpt lat="42.356612" lon="-6.678358">
        <ele>953.46</ele>
        <time>2021-03-27T16:38:16Z</time>
      </trkpt>
      <trkpt lat="42.356685" lon="-6.678309">
        <ele>952.06</ele>
        <time>2021-03-27T16:38:17Z</time>
      </trkpt>
      <trkpt lat="42.356947" lon="-6.677698">
        <ele>951.22</ele>
        <time>2021-03-27T16:38:18Z</time>
      </trkpt>
      <trkpt lat="42.357077" lon="-6.677469">
        <ele>952.54</ele>
        <time>2021-03-27T16:38:20Z</time>
      </trkpt>
      <trkpt lat="42.357205" lon="-6.67733">
        <ele>954.17</ele>
        <time>2021-03-27T16:38:21Z</time>
      </trkpt>
      <trkpt lat="42.357504" lon="-6.677091">
        <ele>953.2</ele>
        <time>2021-03-27T16:38:22Z</time>
      </trkpt>
      <trkpt lat="42.357652" lon="-6.677071">
        <ele>953.73</ele>
        <time>2021-03-27T16:38:24Z</time>
      </trkpt>
      <trkpt lat="42.357746" lon="-6.67709">
        <ele>955.0</ele>
        <time>2021-03-27T16:38:25Z</time>
      </trkpt>
      <trkpt lat="42.358042" lon="-6.677234">
        <ele>962.24</ele>
        <time>2021-03-27T16:38:26Z</time>
      </trkpt>
      <trkpt lat="42.358415" lon="-6.677302">
        <ele>966.28</ele>
        <time>2021-03-27T16:38:28Z</time>
      </trkpt>
      <trkpt lat="42.358575" lon="-6.677358">
        <ele>967.15</ele>
        <time>2021-03-27T16:38:29Z</time>
      </trkpt>
      <trkpt lat="42.358785" lon="-6.677486">
        <ele>972.78</ele>
        <time>2021-03-27T16:38:30Z</time>
      </trkpt>
      <trkpt lat="42.358861" lon="-6.677462">
        <ele>972.55</ele>
        <time>2021-03-27T16:38:32Z</time>
      </trkpt>
      <trkpt lat="42.358897" lon="-6.677403">
        <ele>970.99</ele>
        <time>2021-03-27T16:38:33Z</time>
      </trkpt>
      <trkpt lat="42.359026" lon="-6.676822">
        <ele>963.89</ele>
        <time>2021-03-27T16:38:35Z</time>
      </trkpt>
      <trkpt lat="42.359245" lon="-6.675528">
        <ele>963.89</ele>
        <time>2021-03-27T16:38:36Z</time>
      </trkpt>
      <trkpt lat="42.359429" lon="-6.674663">
        <ele>958.63</ele>
        <time>2021-03-27T16:38:37Z</time>
      </trkpt>
      <trkpt lat="42.359546" lon="-6.674337">
        <ele>959.44</ele>
        <time>2021-03-27T16:38:39Z</time>
      </trkpt>
      <trkpt lat="42.359695" lon="-6.674121">
        <ele>959.98</ele>
        <time>2021-03-27T16:38:40Z</time>
      </trkpt>
      <trkpt lat="42.359798" lon="-6.674038">
        <ele>960.18</ele>
        <time>2021-03-27T16:38:41Z</time>
      </trkpt>
      <trkpt lat="42.359955" lon="-6.674005">
        <ele>960.79</ele>
        <time>2021-03-27T16:38:43Z</time>
      </trkpt>
      <trkpt lat="42.360017" lon="-6.674016">
        <ele>961.32</ele>
        <time>2021-03-27T16:38:44Z</time>
      </trkpt>
      <trkpt lat="42.360132" lon="-6.674094">
        <ele>962.82</ele>
        <time>2021-03-27T16:38:45Z</time>
      </trkpt>
      <trkpt lat="42.36058" lon="-6.674489">
        <ele>965.48</ele>
        <time>2021-03-27T16:38:47Z</time>
      </trkpt>
      <trkpt lat="42.360803" lon="-6.674639">
        <ele>966.64</ele>
        <time>2021-03-27T16:38:48Z</time>
      </trkpt>
      <trkpt lat="42.360986" lon="-6.674696">
        <ele>968.57</ele>
        <time>2021-03-27T16:38:49Z</time>
      </trkpt>
      <trkpt lat="42.361124" lon="-6.674696">
        <ele>969.64</ele>
        <time>2021-03-27T16:38:51Z</time>
      </trkpt>
      <trkpt lat="42.36131" lon="-6.674657">
        <ele>971.62</ele>
        <time>2021-03-27T16:38:52Z</time>
      </trkpt>
      <trkpt lat="42.361476" lon="-6.674567">
        <ele>972.95</ele>
        <time>2021-03-27T16:38:53Z</time>
      </trkpt>
      <trkpt lat="42.361635" lon="-6.674413">
        <ele>973.85</ele>
        <time>2021-03-27T16:38:55Z</time>
      </trkpt>
      <trkpt lat="42.361934" lon="-6.674005">
        <ele>977.94</ele>
        <time>2021-03-27T16:38:56Z</time>
      </trkpt>
      <trkpt lat="42.362108" lon="-6.673852">
        <ele>980.43</ele>
        <time>2021-03-27T16:38:57Z</time>
      </trkpt>
      <trkpt lat="42.362275" lon="-6.6738">
        <ele>982.4</ele>
        <time>2021-03-27T16:38:59Z</time>
      </trkpt>
      <trkpt lat="42.362691" lon="-6.673783">
        <ele>983.23</ele>
        <time>2021-03-27T16:39:00Z</time>
      </trkpt>
      <trkpt lat="42.362842" lon="-6.673848">
        <ele>985.33</ele>
        <time>2021-03-27T16:39:01Z</time>
      </trkpt>
      <trkpt lat="42.362942" lon="-6.673914">
        <ele>986.99</ele>
        <time>2021-03-27T16:39:03Z</time>
      </trkpt>
      <trkpt lat="42.363201" lon="-6.674149">
        <ele>991.06</ele>
        <time>2021-03-27T16:39:04Z</time>
      </trkpt>
      <trkpt lat="42.363374" lon="-6.674231">
        <ele>993.41</ele>
        <time>2021-03-27T16:39:05Z</time>
      </trkpt>
      <trkpt lat="42.363631" lon="-6.674265">
        <ele>996.7</ele>
        <time>2021-03-27T16:39:07Z</time>
      </trkpt>
      <trkpt lat="42.3638" lon="-6.674266">
        <ele>998.13</ele>
        <time>2021-03-27T16:39:08Z</time>
      </trkpt>
      <trkpt lat="42.364194" lon="-6.674334">
        <ele>998.91</ele>
        <time>2021-03-27T16:39:09Z</time>
      </trkpt>
      <trkpt lat="42.364611" lon="-6.674492">
        <ele>994.41</ele>
        <time>2021-03-27T16:39:11Z</time>
      </trkpt>
      <trkpt lat="42.365066" lon="-6.674706">
        <ele>995.24</ele>
        <time>2021-03-27T16:39:12Z</time>
      </trkpt>
      <trkpt lat="42.365355" lon="-6.674748">
        <ele>995.97</ele>
        <time>2021-03-27T16:39:13Z</time>
      </trkpt>
      <trkpt lat="42.36555" lon="-6.67472">
        <ele>995.95</ele>
        <time>2021-03-27T16:39:15Z</time>
      </trkpt>
      <trkpt lat="42.365602" lon="-6.674682">
        <ele>995.95</ele>
        <time>2021-03-27T16:39:16Z</time>
      </trkpt>
      <trkpt lat="42.365623" lon="-6.674621">
        <ele>995.36</ele>
        <time>2021-03-27T16:39:17Z</time>
      </trkpt>
      <trkpt lat="42.365675" lon="-6.674217">
        <ele>992.08</ele>
        <time>2021-03-27T16:39:19Z</time>
      </trkpt>
      <trkpt lat="42.365742" lon="-6.674054">
        <ele>991.06</ele>
        <time>2021-03-27T16:39:20Z</time>
      </trkpt>
      <trkpt lat="42.365804" lon="-6.673975">
        <ele>990.82</ele>
        <time>2021-03-27T16:39:21Z</time>
      </trkpt>
      <trkpt lat="42.366034" lon="-6.673791">
        <ele>991.13</ele>
        <time>2021-03-27T16:39:23Z</time>
      </trkpt>
      <trkpt lat="42.366171" lon="-6.673714">
        <ele>991.5</ele>
        <time>2021-03-27T16:39:24Z</time>
      </trkpt>
      <trkpt lat="42.366455" lon="-6.673594">
        <ele>991.63</ele>
        <time>2021-03-27T16:39:25Z</time>
      </trkpt>
      <trkpt lat="42.36658" lon="-6.673512">
        <ele>989.86</ele>
        <time>2021-03-27T16:39:27Z</time>
      </trkpt>
      <trkpt lat="42.366692" lon="-6.673399">
        <ele>987.69</ele>
        <time>2021-03-27T16:39:28Z</time>
      </trkpt>
      <trkpt lat="42.366791" lon="-6.673224">
        <ele>986.16</ele>
        <time>2021-03-27T16:39:29Z</time>
      </trkpt>
      <trkpt lat="42.36716" lon="-6.672294">
        <ele>981.11</ele>
        <time>2021-03-27T16:39:31Z</time>
      </trkpt>
      <trkpt lat="42.367383" lon="-6.671832">
        <ele>982.67</ele>
        <time>2021-03-27T16:39:32Z</time>
      </trkpt>
      <trkpt lat="42.367662" lon="-6.671436">
        <ele>985.74</ele>
        <time>2021-03-27T16:39:33Z</time>
      </trkpt>
      <trkpt lat="42.367749" lon="-6.671205">
        <ele>986.05</ele>
        <time>2021-03-27T16:39:35Z</time>
      </trkpt>
      <trkpt lat="42.367775" lon="-6.67104">
        <ele>984.92</ele>
        <time>2021-03-27T16:39:36Z</time>
      </trkpt>
      <trkpt lat="42.367805" lon="-6.670583">
        <ele>979.78</ele>
        <time>2021-03-27T16:39:37Z</time>
      </trkpt>
      <trkpt lat="42.367869" lon="-6.670202">
        <ele>978.18</ele>
        <time>2021-03-27T16:39:39Z</time>
      </trkpt>
      <trkpt lat="42.36799" lon="-6.669806">
        <ele>978.19</ele>
        <time>2021-03-27T16:39:40Z</time>
      </trkpt>
      <trkpt lat="42.368094" lon="-6.669622">
        <ele>978.83</ele>
        <time>2021-03-27T16:39:41Z</time>
      </trkpt>
      <trkpt lat="42.368215" lon="-6.669468">
        <ele>979.47</ele>
        <time>2021-03-27T16:39:43Z</time>
      </trkpt>
      <trkpt lat="42.369426" lon="-6.66849">
        <ele>971.49</ele>
        <time>2021-03-27T16:39:44Z</time>
      </trkpt>
      <trkpt lat="42.369654" lon="-6.668264">
        <ele>970.52</ele>
        <time>2021-03-27T16:39:45Z</time>
      </trkpt>
      <trkpt lat="42.369861" lon="-6.667989">
        <ele>968.66</ele>
        <time>2021-03-27T16:39:47Z</time>
      </trkpt>
      <trkpt lat="42.36989" lon="-6.667902">
        <ele>967.93</ele>
        <time>2021-03-27T16:39:48Z</time>
      </trkpt>
      <trkpt lat="42.369936" lon="-6.667639">
        <ele>965.46</ele>
        <time>2021-03-27T16:39:49Z</time>
      </trkpt>
      <trkpt lat="42.370008" lon="-6.667396">
        <ele>963.3</ele>
        <time>2021-03-27T16:39:51Z</time>
      </trkpt>
      <trkpt lat="42.370123" lon="-6.667189">
        <ele>962.23</ele>
        <time>2021-03-27T16:39:52Z</time>
      </trkpt>
      <trkpt lat="42.370292" lon="-6.666945">
        <ele>963.31</ele>
        <time>2021-03-27T16:39:53Z</time>
      </trkpt>
      <trkpt lat="42.370305" lon="-6.666862">
        <ele>963.32</ele>
        <time>2021-03-27T16:39:55Z</time>
      </trkpt>
      <trkpt lat="42.370292" lon="-6.66669">
        <ele>962.44</ele>
        <time>2021-03-27T16:39:56Z</time>
      </trkpt>
      <trkpt lat="42.370145" lon="-6.666295">
        <ele>958.34</ele>
        <time>2021-03-27T16:39:57Z</time>
      </trkpt>
      <trkpt lat="42.37016" lon="-6.666125">
        <ele>959.01</ele>
        <time>2021-03-27T16:39:59Z</time>
      </trkpt>
      <trkpt lat="42.370284" lon="-6.665929">
        <ele>960.81</ele>
        <time>2021-03-27T16:40:00Z</time>
      </trkpt>
      <trkpt lat="42.370704" lon="-6.665413">
        <ele>963.91</ele>
        <time>2021-03-27T16:40:01Z</time>
      </trkpt>
      <trkpt lat="42.370751" lon="-6.665332">
        <ele>964.04</ele>
        <time>2021-03-27T16:40:03Z</time>
      </trkpt>
      <trkpt lat="42.370786" lon="-6.665159">
        <ele>963.65</ele>
        <time>2021-03-27T16:40:04Z</time>
      </trkpt>
      <trkpt lat="42.370789" lon="-6.665035">
        <ele>963.2</ele>
        <time>2021-03-27T16:40:05Z</time>
      </trkpt>
      <trkpt lat="42.37078" lon="-6.664861">
        <ele>962.54</ele>
        <time>2021-03-27T16:40:07Z</time>
      </trkpt>
      <trkpt lat="42.37062" lon="-6.663593">
        <ele>956.59</ele>
        <time>2021-03-27T16:40:08Z</time>
      </trkpt>
      <trkpt lat="42.370638" lon="-6.663307">
        <ele>956.54</ele>
        <time>2021-03-27T16:40:09Z</time>
      </trkpt>
      <trkpt lat="42.37063" lon="-6.663188">
        <ele>956.63</ele>
        <time>2021-03-27T16:40:11Z</time>
      </trkpt>
      <trkpt lat="42.370609" lon="-6.663102">
        <ele>956.28</ele>
        <time>2021-03-27T16:40:12Z</time>
      </trkpt>
      <trkpt lat="42.37051" lon="-6.662878">
        <ele>955.35</ele>
        <time>2021-03-27T16:40:13Z</time>
      </trkpt>
      <trkpt lat="42.370429" lon="-6.662556">
        <ele>955.5</ele>
        <time>2021-03-27T16:40:15Z</time>
      </trkpt>
      <trkpt lat="42.37036" lon="-6.662437">
        <ele>954.46</ele>
        <time>2021-03-27T16:40:16Z</time>
      </trkpt>
      <trkpt lat="42.370219" lon="-6.662284">
        <ele>952.43</ele>
        <time>2021-03-27T16:40:17Z</time>
      </trkpt>
      <trkpt lat="42.370167" lon="-6.662198">
        <ele>951.61</ele>
        <time>2021-03-27T16:40:19Z</time>
      </trkpt>
      <trkpt lat="42.370126" lon="-6.662041">
        <ele>950.72</ele>
        <time>2021-03-27T16:40:20Z</time>
      </trkpt>
      <trkpt lat="42.370097" lon="-6.661762">
        <ele>948.75</ele>
        <time>2021-03-27T16:40:21Z</time>
      </trkpt>
      <trkpt lat="42.370113" lon="-6.661527">
        <ele>947.01</ele>
        <time>2021-03-27T16:40:23Z</time>
      </trkpt>
      <trkpt lat="42.370262" lon="-6.661016">
        <ele>943.44</ele>
        <time>2021-03-27T16:40:24Z</time>
      </trkpt>
      <trkpt lat="42.370287" lon="-6.660869">
        <ele>941.74</ele>
        <time>2021-03-27T16:40:25Z</time>
      </trkpt>
      <trkpt lat="42.370271" lon="-6.659904">
        <ele>938.29</ele>
        <time>2021-03-27T16:40:27Z</time>
      </trkpt>
      <trkpt lat="42.370239" lon="-6.659622">
        <ele>935.58</ele>
        <time>2021-03-27T16:40:28Z</time>
      </trkpt>
      <trkpt lat="42.370118" lon="-6.659128">
        <ele>927.24</ele>
        <time>2021-03-27T16:40:29Z</time>
      </trkpt>
      <trkpt lat="42.370041" lon="-6.658674">
        <ele>919.6</ele>
        <time>2021-03-27T16:40:31Z</time>
      </trkpt>
      <trkpt lat="42.369937" lon="-6.657852">
        <ele>907.27</ele>
        <time>2021-03-27T16:40:32Z</time>
      </trkpt>
      <trkpt lat="42.369942" lon="-6.657498">
        <ele>905.09</ele>
        <time>2021-03-27T16:40:33Z</time>
      </trkpt>
      <trkpt lat="42.369975" lon="-6.65723">
        <ele>902.39</ele>
        <time>2021-03-27T16:40:35Z</time>
      </trkpt>
      <trkpt lat="42.370024" lon="-6.657003">
        <ele>900.72</ele>
        <time>2021-03-27T16:40:36Z</time>
      </trkpt>
      <trkpt lat="42.370125" lon="-6.656712">
        <ele>899.32</ele>
        <time>2021-03-27T16:40:37Z</time>
      </trkpt>
      <trkpt lat="42.370171" lon="-6.656623">
        <ele>899.47</ele>
        <time>2021-03-27T16:40:39Z</time>
      </trkpt>
      <trkpt lat="42.370299" lon="-6.656462">
        <ele>901.72</ele>
        <time>2021-03-27T16:40:40Z</time>
      </trkpt>
      <trkpt lat="42.370522" lon="-6.656269">
        <ele>905.63</ele>
        <time>2021-03-27T16:40:41Z</time>
      </trkpt>
      <trkpt lat="42.370555" lon="-6.656205">
        <ele>905.99</ele>
        <time>2021-03-27T16:40:43Z</time>
      </trkpt>
      <trkpt lat="42.370573" lon="-6.656128">
        <ele>905.57</ele>
        <time>2021-03-27T16:40:44Z</time>
      </trkpt>
      <trkpt lat="42.370584" lon="-6.655709">
        <ele>901.75</ele>
        <time>2021-03-27T16:40:45Z</time>
      </trkpt>
      <trkpt lat="42.370822" lon="-6.654253">
        <ele>899.34</ele>
        <time>2021-03-27T16:40:47Z</time>
      </trkpt>
      <trkpt lat="42.371037" lon="-6.653432">
        <ele>894.44</ele>
        <time>2021-03-27T16:40:48Z</time>
      </trkpt>
      <trkpt lat="42.371108" lon="-6.653254">
        <ele>893.76</ele>
        <time>2021-03-27T16:40:49Z</time>
      </trkpt>
      <trkpt lat="42.371277" lon="-6.652975">
        <ele>895.35</ele>
        <time>2021-03-27T16:40:51Z</time>
      </trkpt>
      <trkpt lat="42.371331" lon="-6.652819">
        <ele>893.98</ele>
        <time>2021-03-27T16:40:52Z</time>
      </trkpt>
      <trkpt lat="42.371451" lon="-6.652224">
        <ele>887.48</ele>
        <time>2021-03-27T16:40:53Z</time>
      </trkpt>
      <trkpt lat="42.371614" lon="-6.651578">
        <ele>885.34</ele>
        <time>2021-03-27T16:40:55Z</time>
      </trkpt>
      <trkpt lat="42.371642" lon="-6.65142">
        <ele>884.54</ele>
        <time>2021-03-27T16:40:56Z</time>
      </trkpt>
      <trkpt lat="42.37166" lon="-6.65112">
        <ele>881.88</ele>
        <time>2021-03-27T16:40:57Z</time>
      </trkpt>
      <trkpt lat="42.371635" lon="-6.650347">
        <ele>874.36</ele>
        <time>2021-03-27T16:40:59Z</time>
      </trkpt>
      <trkpt lat="42.371659" lon="-6.649759">
        <ele>871.88</ele>
        <time>2021-03-27T16:41:00Z</time>
      </trkpt>
      <trkpt lat="42.371657" lon="-6.649571">
        <ele>871.16</ele>
        <time>2021-03-27T16:41:01Z</time>
      </trkpt>
      <trkpt lat="42.371597" lon="-6.649013">
        <ele>865.64</ele>
        <time>2021-03-27T16:41:03Z</time>
      </trkpt>
      <trkpt lat="42.371602" lon="-6.648908">
        <ele>865.04</ele>
        <time>2021-03-27T16:41:04Z</time>
      </trkpt>
      <trkpt lat="42.371676" lon="-6.648707">
        <ele>864.57</ele>
        <time>2021-03-27T16:41:05Z</time>
      </trkpt>
      <trkpt lat="42.371862" lon="-6.648453">
        <ele>863.64</ele>
        <time>2021-03-27T16:41:07Z</time>
      </trkpt>
      <trkpt lat="42.371932" lon="-6.648321">
        <ele>862.54</ele>
        <time>2021-03-27T16:41:08Z</time>
      </trkpt>
      <trkpt lat="42.371948" lon="-6.648183">
        <ele>861.49</ele>
        <time>2021-03-27T16:41:09Z</time>
      </trkpt>
      <trkpt lat="42.37192" lon="-6.647916">
        <ele>855.34</ele>
        <time>2021-03-27T16:41:11Z</time>
      </trkpt>
      <trkpt lat="42.371937" lon="-6.647721">
        <ele>851.24</ele>
        <time>2021-03-27T16:41:12Z</time>
      </trkpt>
      <trkpt lat="42.371998" lon="-6.647569">
        <ele>849.76</ele>
        <time>2021-03-27T16:41:13Z</time>
      </trkpt>
      <trkpt lat="42.372164" lon="-6.647324">
        <ele>847.6</ele>
        <time>2021-03-27T16:41:15Z</time>
      </trkpt>
      <trkpt lat="42.372243" lon="-6.64726">
        <ele>846.74</ele>
        <time>2021-03-27T16:41:16Z</time>
      </trkpt>
      <trkpt lat="42.37298" lon="-6.646892">
        <ele>834.55</ele>
        <time>2021-03-27T16:41:17Z</time>
      </trkpt>
      <trkpt lat="42.373328" lon="-6.646677">
        <ele>823.68</ele>
        <time>2021-03-27T16:41:19Z</time>
      </trkpt>
      <trkpt lat="42.37371" lon="-6.646507">
        <ele>826.67</ele>
        <time>2021-03-27T16:41:20Z</time>
      </trkpt>
      <trkpt lat="42.374084" lon="-6.646312">
        <ele>822.17</ele>
        <time>2021-03-27T16:41:22Z</time>
      </trkpt>
      <trkpt lat="42.374397" lon="-6.646077">
        <ele>813.13</ele>
        <time>2021-03-27T16:41:23Z</time>
      </trkpt>
      <trkpt lat="42.374649" lon="-6.645931">
        <ele>812.68</ele>
        <time>2021-03-27T16:41:24Z</time>
      </trkpt>
      <trkpt lat="42.374732" lon="-6.645829">
        <ele>809.3</ele>
        <time>2021-03-27T16:41:26Z</time>
      </trkpt>
      <trkpt lat="42.375129" lon="-6.645081">
        <ele>797.05</ele>
        <time>2021-03-27T16:41:27Z</time>
      </trkpt>
      <trkpt lat="42.375236" lon="-6.644952">
        <ele>796.79</ele>
        <time>2021-03-27T16:41:28Z</time>
      </trkpt>
      <trkpt lat="42.375508" lon="-6.644687">
        <ele>800.42</ele>
        <time>2021-03-27T16:41:30Z</time>
      </trkpt>
      <trkpt lat="42.375589" lon="-6.644529">
        <ele>800.77</ele>
        <time>2021-03-27T16:41:31Z</time>
      </trkpt>
      <trkpt lat="42.375611" lon="-6.64432">
        <ele>798.04</ele>
        <time>2021-03-27T16:41:32Z</time>
      </trkpt>
      <trkpt lat="42.375564" lon="-6.643896">
        <ele>792.39</ele>
        <time>2021-03-27T16:41:34Z</time>
      </trkpt>
      <trkpt lat="42.375561" lon="-6.643712">
        <ele>791.61</ele>
        <time>2021-03-27T16:41:35Z</time>
      </trkpt>
      <trkpt lat="42.375613" lon="-6.643262">
        <ele>789.89</ele>
        <time>2021-03-27T16:41:36Z</time>
      </trkpt>
      <trkpt lat="42.375677" lon="-6.643025">
        <ele>787.16</ele>
        <time>2021-03-27T16:41:38Z</time>
      </trkpt>
      <trkpt lat="42.375722" lon="-6.642914">
        <ele>786.43</ele>
        <time>2021-03-27T16:41:39Z</time>
      </trkpt>
      <trkpt lat="42.375839" lon="-6.642732">
        <ele>786.18</ele>
        <time>2021-03-27T16:41:40Z</time>
      </trkpt>
      <trkpt lat="42.375925" lon="-6.642641">
        <ele>786.53</ele>
        <time>2021-03-27T16:41:42Z</time>
      </trkpt>
      <trkpt lat="42.376141" lon="-6.642516">
        <ele>788.16</ele>
        <time>2021-03-27T16:41:43Z</time>
      </trkpt>
      <trkpt lat="42.376606" lon="-6.642425">
        <ele>790.03</ele>
        <time>2021-03-27T16:41:44Z</time>
      </trkpt>
      <trkpt lat="42.377036" lon="-6.642309">
        <ele>783.64</ele>
        <time>2021-03-27T16:41:46Z</time>
      </trkpt>
      <trkpt lat="42.377131" lon="-6.642347">
        <ele>784.31</ele>
        <time>2021-03-27T16:41:47Z</time>
      </trkpt>
      <trkpt lat="42.377207" lon="-6.642441">
        <ele>788.16</ele>
        <time>2021-03-27T16:41:48Z</time>
      </trkpt>
      <trkpt lat="42.3773" lon="-6.642718">
        <ele>792.89</ele>
        <time>2021-03-27T16:41:50Z</time>
      </trkpt>
      <trkpt lat="42.377377" lon="-6.642859">
        <ele>794.62</ele>
        <time>2021-03-27T16:41:51Z</time>
      </trkpt>
      <trkpt lat="42.377439" lon="-6.642923">
        <ele>794.21</ele>
        <time>2021-03-27T16:41:52Z</time>
      </trkpt>
      <trkpt lat="42.377564" lon="-6.642996">
        <ele>791.63</ele>
        <time>2021-03-27T16:41:54Z</time>
      </trkpt>
      <trkpt lat="42.377656" lon="-6.643009">
        <ele>788.99</ele>
        <time>2021-03-27T16:41:55Z</time>
      </trkpt>
      <trkpt lat="42.377819" lon="-6.64298">
        <ele>782.76</ele>
        <time>2021-03-27T16:41:56Z</time>
      </trkpt>
      <trkpt lat="42.378065" lon="-6.642981">
        <ele>778.48</ele>
        <time>2021-03-27T16:41:58Z</time>
      </trkpt>
      <trkpt lat="42.37827" lon="-6.643029">
        <ele>774.46</ele>
        <time>2021-03-27T16:41:59Z</time>
      </trkpt>
      <trkpt lat="42.378494" lon="-6.643129">
        <ele>771.52</ele>
        <time>2021-03-27T16:42:00Z</time>
      </trkpt>
      <trkpt lat="42.378848" lon="-6.643118">
        <ele>767.46</ele>
        <time>2021-03-27T16:42:02Z</time>
      </trkpt>
      <trkpt lat="42.379188" lon="-6.643151">
        <ele>773.82</ele>
        <time>2021-03-27T16:42:03Z</time>
      </trkpt>
      <trkpt lat="42.379348" lon="-6.643124">
        <ele>775.05</ele>
        <time>2021-03-27T16:42:04Z</time>
      </trkpt>
      <trkpt lat="42.379429" lon="-6.643068">
        <ele>774.17</ele>
        <time>2021-03-27T16:42:06Z</time>
      </trkpt>
      <trkpt lat="42.379764" lon="-6.642719">
        <ele>764.78</ele>
        <time>2021-03-27T16:42:07Z</time>
      </trkpt>
      <trkpt lat="42.379895" lon="-6.642635">
        <ele>762.91</ele>
        <time>2021-03-27T16:42:08Z</time>
      </trkpt>
      <trkpt lat="42.380059" lon="-6.642617">
        <ele>764.11</ele>
        <time>2021-03-27T16:42:10Z</time>
      </trkpt>
      <trkpt lat="42.380842" lon="-6.642782">
        <ele>776.54</ele>
        <time>2021-03-27T16:42:11Z</time>
      </trkpt>
      <trkpt lat="42.38093" lon="-6.642773">
        <ele>779.21</ele>
        <time>2021-03-27T16:42:12Z</time>
      </trkpt>
      <trkpt lat="42.381028" lon="-6.642702">
        <ele>778.83</ele>
        <time>2021-03-27T16:42:14Z</time>
      </trkpt>
      <trkpt lat="42.381119" lon="-6.642592">
        <ele>776.41</ele>
        <time>2021-03-27T16:42:15Z</time>
      </trkpt>
      <trkpt lat="42.38125" lon="-6.6424">
        <ele>775.36</ele>
        <time>2021-03-27T16:42:16Z</time>
      </trkpt>
      <trkpt lat="42.381332" lon="-6.642248">
        <ele>774.89</ele>
        <time>2021-03-27T16:42:18Z</time>
      </trkpt>
      <trkpt lat="42.381509" lon="-6.641788">
        <ele>773.46</ele>
        <time>2021-03-27T16:42:19Z</time>
      </trkpt>
      <trkpt lat="42.381564" lon="-6.641562">
        <ele>771.62</ele>
        <time>2021-03-27T16:42:20Z</time>
      </trkpt>
      <trkpt lat="42.381642" lon="-6.64112">
        <ele>766.77</ele>
        <time>2021-03-27T16:42:22Z</time>
      </trkpt>
      <trkpt lat="42.381676" lon="-6.641038">
        <ele>766.15</ele>
        <time>2021-03-27T16:42:23Z</time>
      </trkpt>
      <trkpt lat="42.381773" lon="-6.640905">
        <ele>764.84</ele>
        <time>2021-03-27T16:42:24Z</time>
      </trkpt>
      <trkpt lat="42.381825" lon="-6.64087">
        <ele>765.12</ele>
        <time>2021-03-27T16:42:26Z</time>
      </trkpt>
      <trkpt lat="42.381889" lon="-6.640859">
        <ele>766.41</ele>
        <time>2021-03-27T16:42:27Z</time>
      </trkpt>
      <trkpt lat="42.382725" lon="-6.641104">
        <ele>776.34</ele>
        <time>2021-03-27T16:42:28Z</time>
      </trkpt>
      <trkpt lat="42.383262" lon="-6.641078">
        <ele>768.59</ele>
        <time>2021-03-27T16:42:30Z</time>
      </trkpt>
      <trkpt lat="42.38341" lon="-6.641096">
        <ele>770.21</ele>
        <time>2021-03-27T16:42:31Z</time>
      </trkpt>
      <trkpt lat="42.383618" lon="-6.641168">
        <ele>774.38</ele>
        <time>2021-03-27T16:42:32Z</time>
      </trkpt>
      <trkpt lat="42.383874" lon="-6.64142">
        <ele>781.35</ele>
        <time>2021-03-27T16:42:34Z</time>
      </trkpt>
      <trkpt lat="42.383934" lon="-6.641448">
        <ele>782.73</ele>
        <time>2021-03-27T16:42:35Z</time>
      </trkpt>
      <trkpt lat="42.38401" lon="-6.641445">
        <ele>782.78</ele>
        <time>2021-03-27T16:42:36Z</time>
      </trkpt>
      <trkpt lat="42.384307" lon="-6.641301">
        <ele>777.71</ele>
        <time>2021-03-27T16:42:38Z</time>
      </trkpt>
      <trkpt lat="42.384882" lon="-6.641223">
        <ele>776.68</ele>
        <time>2021-03-27T16:42:39Z</time>
      </trkpt>
      <trkpt lat="42.384937" lon="-6.64123">
        <ele>777.43</ele>
        <time>2021-03-27T16:42:40Z</time>
      </trkpt>
      <trkpt lat="42.385009" lon="-6.641259">
        <ele>779.52</ele>
        <time>2021-03-27T16:42:42Z</time>
      </trkpt>
      <trkpt lat="42.385188" lon="-6.641419">
        <ele>789.87</ele>
        <time>2021-03-27T16:42:43Z</time>
      </trkpt>
      <trkpt lat="42.385365" lon="-6.641525">
        <ele>792.55</ele>
        <time>2021-03-27T16:42:44Z</time>
      </trkpt>
      <trkpt lat="42.385452" lon="-6.641554">
        <ele>790.91</ele>
        <time>2021-03-27T16:42:46Z</time>
      </trkpt>
      <trkpt lat="42.385835" lon="-6.641601">
        <ele>782.2</ele>
        <time>2021-03-27T16:42:47Z</time>
      </trkpt>
      <trkpt lat="42.386979" lon="-6.6421">
        <ele>761.95</ele>
        <time>2021-03-27T16:42:48Z</time>
      </trkpt>
      <trkpt lat="42.387104" lon="-6.642121">
        <ele>761.04</ele>
        <time>2021-03-27T16:42:50Z</time>
      </trkpt>
      <trkpt lat="42.387234" lon="-6.642112">
        <ele>759.6</ele>
        <time>2021-03-27T16:42:51Z</time>
      </trkpt>
      <trkpt lat="42.387371" lon="-6.642041">
        <ele>759.27</ele>
        <time>2021-03-27T16:42:52Z</time>
      </trkpt>
      <trkpt lat="42.387649" lon="-6.641683">
        <ele>753.51</ele>
        <time>2021-03-27T16:42:54Z</time>
      </trkpt>
      <trkpt lat="42.38811" lon="-6.641245">
        <ele>756.34</ele>
        <time>2021-03-27T16:42:55Z</time>
      </trkpt>
      <trkpt lat="42.388192" lon="-6.641062">
        <ele>755.12</ele>
        <time>2021-03-27T16:42:56Z</time>
      </trkpt>
      <trkpt lat="42.388303" lon="-6.640593">
        <ele>744.78</ele>
        <time>2021-03-27T16:42:58Z</time>
      </trkpt>
      <trkpt lat="42.388382" lon="-6.640414">
        <ele>743.04</ele>
        <time>2021-03-27T16:42:59Z</time>
      </trkpt>
      <trkpt lat="42.388607" lon="-6.640219">
        <ele>746.2</ele>
        <time>2021-03-27T16:43:00Z</time>
      </trkpt>
      <trkpt lat="42.388779" lon="-6.639945">
        <ele>737.86</ele>
        <time>2021-03-27T16:43:02Z</time>
      </trkpt>
      <trkpt lat="42.389127" lon="-6.639575">
        <ele>729.31</ele>
        <time>2021-03-27T16:43:03Z</time>
      </trkpt>
      <trkpt lat="42.389211" lon="-6.639501">
        <ele>726.29</ele>
        <time>2021-03-27T16:43:04Z</time>
      </trkpt>
      <trkpt lat="42.389322" lon="-6.63944">
        <ele>724.65</ele>
        <time>2021-03-27T16:43:06Z</time>
      </trkpt>
      <trkpt lat="42.389402" lon="-6.639439">
        <ele>726.58</ele>
        <time>2021-03-27T16:43:07Z</time>
      </trkpt>
      <trkpt lat="42.389518" lon="-6.639493">
        <ele>727.44</ele>
        <time>2021-03-27T16:43:08Z</time>
      </trkpt>
      <trkpt lat="42.389885" lon="-6.639858">
        <ele>727.92</ele>
        <time>2021-03-27T16:43:10Z</time>
      </trkpt>
      <trkpt lat="42.39018" lon="-6.640054">
        <ele>717.19</ele>
        <time>2021-03-27T16:43:11Z</time>
      </trkpt>
      <trkpt lat="42.390247" lon="-6.640116">
        <ele>715.11</ele>
        <time>2021-03-27T16:43:12Z</time>
      </trkpt>
      <trkpt lat="42.390409" lon="-6.640354">
        <ele>711.96</ele>
        <time>2021-03-27T16:43:14Z</time>
      </trkpt>
      <trkpt lat="42.39055" lon="-6.640663">
        <ele>711.93</ele>
        <time>2021-03-27T16:43:15Z</time>
      </trkpt>
      <trkpt lat="42.390655" lon="-6.640822">
        <ele>712.27</ele>
        <time>2021-03-27T16:43:16Z</time>
      </trkpt>
      <trkpt lat="42.390764" lon="-6.640904">
        <ele>709.19</ele>
        <time>2021-03-27T16:43:18Z</time>
      </trkpt>
      <trkpt lat="42.39081" lon="-6.640916">
        <ele>706.69</ele>
        <time>2021-03-27T16:43:19Z</time>
      </trkpt>
      <trkpt lat="42.391111" lon="-6.640913">
        <ele>690.59</ele>
        <time>2021-03-27T16:43:20Z</time>
      </trkpt>
      <trkpt lat="42.391195" lon="-6.640932">
        <ele>688.64</ele>
        <time>2021-03-27T16:43:22Z</time>
      </trkpt>
      <trkpt lat="42.391365" lon="-6.641058">
        <ele>688.5</ele>
        <time>2021-03-27T16:43:23Z</time>
      </trkpt>
      <trkpt lat="42.391755" lon="-6.641405">
        <ele>683.49</ele>
        <time>2021-03-27T16:43:24Z</time>
      </trkpt>
      <trkpt lat="42.391823" lon="-6.64148">
        <ele>682.05</ele>
        <time>2021-03-27T16:43:26Z</time>
      </trkpt>
      <trkpt lat="42.391925" lon="-6.641675">
        <ele>681.6</ele>
        <time>2021-03-27T16:43:27Z</time>
      </trkpt>
      <trkpt lat="42.392002" lon="-6.642094">
        <ele>689.58</ele>
        <time>2021-03-27T16:43:28Z</time>
      </trkpt>
      <trkpt lat="42.392086" lon="-6.642346">
        <ele>692.51</ele>
        <time>2021-03-27T16:43:30Z</time>
      </trkpt>
      <trkpt lat="42.39227" lon="-6.642586">
        <ele>691.17</ele>
        <time>2021-03-27T16:43:31Z</time>
      </trkpt>
      <trkpt lat="42.392439" lon="-6.64272">
        <ele>688.57</ele>
        <time>2021-03-27T16:43:32Z</time>
      </trkpt>
      <trkpt lat="42.39258" lon="-6.642794">
        <ele>688.16</ele>
        <time>2021-03-27T16:43:34Z</time>
      </trkpt>
      <trkpt lat="42.39271" lon="-6.642763">
        <ele>685.11</ele>
        <time>2021-03-27T16:43:35Z</time>
      </trkpt>
      <trkpt lat="42.392797" lon="-6.642681">
        <ele>681.69</ele>
        <time>2021-03-27T16:43:36Z</time>
      </trkpt>
      <trkpt lat="42.392963" lon="-6.642435">
        <ele>678.43</ele>
        <time>2021-03-27T16:43:38Z</time>
      </trkpt>
      <trkpt lat="42.393137" lon="-6.642102">
        <ele>670.58</ele>
        <time>2021-03-27T16:43:39Z</time>
      </trkpt>
      <trkpt lat="42.393367" lon="-6.641833">
        <ele>662.0</ele>
        <time>2021-03-27T16:43:40Z</time>
      </trkpt>
      <trkpt lat="42.393489" lon="-6.641663">
        <ele>654.98</ele>
        <time>2021-03-27T16:43:42Z</time>
      </trkpt>
      <trkpt lat="42.393558" lon="-6.641598">
        <ele>654.48</ele>
        <time>2021-03-27T16:43:43Z</time>
      </trkpt>
      <trkpt lat="42.393681" lon="-6.641527">
        <ele>656.73</ele>
        <time>2021-03-27T16:43:44Z</time>
      </trkpt>
      <trkpt lat="42.393884" lon="-6.641452">
        <ele>662.31</ele>
        <time>2021-03-27T16:43:46Z</time>
      </trkpt>
      <trkpt lat="42.394236" lon="-6.641163">
        <ele>648.91</ele>
        <time>2021-03-27T16:43:47Z</time>
      </trkpt>
      <trkpt lat="42.394492" lon="-6.641027">
        <ele>641.94</ele>
        <time>2021-03-27T16:43:48Z</time>
      </trkpt>
      <trkpt lat="42.39463" lon="-6.640979">
        <ele>637.86</ele>
        <time>2021-03-27T16:43:50Z</time>
      </trkpt>
      <trkpt lat="42.39477" lon="-6.640982">
        <ele>635.56</ele>
        <time>2021-03-27T16:43:51Z</time>
      </trkpt>
      <trkpt lat="42.394847" lon="-6.641004">
        <ele>634.35</ele>
        <time>2021-03-27T16:43:52Z</time>
      </trkpt>
      <trkpt lat="42.394971" lon="-6.641108">
        <ele>635.78</ele>
        <time>2021-03-27T16:43:54Z</time>
      </trkpt>
      <trkpt lat="42.395145" lon="-6.6414">
        <ele>642.03</ele>
        <time>2021-03-27T16:43:55Z</time>
      </trkpt>
      <trkpt lat="42.395191" lon="-6.641443">
        <ele>643.5</ele>
        <time>2021-03-27T16:43:56Z</time>
      </trkpt>
      <trkpt lat="42.395297" lon="-6.641463">
        <ele>642.78</ele>
        <time>2021-03-27T16:43:58Z</time>
      </trkpt>
      <trkpt lat="42.39541" lon="-6.64141">
        <ele>641.12</ele>
        <time>2021-03-27T16:43:59Z</time>
      </trkpt>
      <trkpt lat="42.395558" lon="-6.64126">
        <ele>636.0</ele>
        <time>2021-03-27T16:44:00Z</time>
      </trkpt>
      <trkpt lat="42.395718" lon="-6.641134">
        <ele>632.91</ele>
        <time>2021-03-27T16:44:02Z</time>
      </trkpt>
      <trkpt lat="42.395875" lon="-6.641069">
        <ele>632.92</ele>
        <time>2021-03-27T16:44:03Z</time>
      </trkpt>
      <trkpt lat="42.39635" lon="-6.641003">
        <ele>635.49</ele>
        <time>2021-03-27T16:44:04Z</time>
      </trkpt>
      <trkpt lat="42.39707" lon="-6.640623">
        <ele>628.01</ele>
        <time>2021-03-27T16:44:06Z</time>
      </trkpt>
      <trkpt lat="42.397255" lon="-6.640486">
        <ele>624.49</ele>
        <time>2021-03-27T16:44:07Z</time>
      </trkpt>
      <trkpt lat="42.397639" lon="-6.640152">
        <ele>608.29</ele>
        <time>2021-03-27T16:44:09Z</time>
      </trkpt>
      <trkpt lat="42.398015" lon="-6.640072">
        <ele>608.05</ele>
        <time>2021-03-27T16:44:10Z</time>
      </trkpt>
      <trkpt lat="42.398379" lon="-6.639952">
        <ele>606.76</ele>
        <time>2021-03-27T16:44:11Z</time>
      </trkpt>
      <trkpt lat="42.398685" lon="-6.639949">
        <ele>610.9</ele>
        <time>2021-03-27T16:44:13Z</time>
      </trkpt>
      <trkpt lat="42.398999" lon="-6.639897">
        <ele>606.14</ele>
        <time>2021-03-27T16:44:14Z</time>
      </trkpt>
      <trkpt lat="42.399824" lon="-6.63959">
        <ele>589.53</ele>
        <time>2021-03-27T16:44:15Z</time>
      </trkpt>
      <trkpt lat="42.400283" lon="-6.639442">
        <ele>585.83</ele>
        <time>2021-03-27T16:44:17Z</time>
      </trkpt>
      <trkpt lat="42.400588" lon="-6.639248">
        <ele>575.08</ele>
        <time>2021-03-27T16:44:18Z</time>
      </trkpt>
      <trkpt lat="42.400682" lon="-6.639199">
        <ele>571.81</ele>
        <time>2021-03-27T16:44:19Z</time>
      </trkpt>
      <trkpt lat="42.400736" lon="-6.639191">
        <ele>570.6</ele>
        <time>2021-03-27T16:44:21Z</time>
      </trkpt>
      <trkpt lat="42.400868" lon="-6.639212">
        <ele>569.18</ele>
        <time>2021-03-27T16:44:22Z</time>
      </trkpt>
      <trkpt lat="42.40104" lon="-6.639287">
        <ele>569.15</ele>
        <time>2021-03-27T16:44:23Z</time>
      </trkpt>
      <trkpt lat="42.401154" lon="-6.639345">
        <ele>568.2</ele>
        <time>2021-03-27T16:44:25Z</time>
      </trkpt>
      <trkpt lat="42.40126" lon="-6.639448">
        <ele>567.3</ele>
        <time>2021-03-27T16:44:26Z</time>
      </trkpt>
      <trkpt lat="42.401299" lon="-6.639525">
        <ele>568.13</ele>
        <time>2021-03-27T16:44:27Z</time>
      </trkpt>
      <trkpt lat="42.401478" lon="-6.640208">
        <ele>571.06</ele>
        <time>2021-03-27T16:44:29Z</time>
      </trkpt>
      <trkpt lat="42.401659" lon="-6.640774">
        <ele>559.24</ele>
        <time>2021-03-27T16:44:30Z</time>
      </trkpt>
      <trkpt lat="42.401878" lon="-6.641367">
        <ele>559.99</ele>
        <time>2021-03-27T16:44:31Z</time>
      </trkpt>
      <trkpt lat="42.40192" lon="-6.641452">
        <ele>561.88</ele>
        <time>2021-03-27T16:44:33Z</time>
      </trkpt>
      <trkpt lat="42.402013" lon="-6.641551">
        <ele>564.45</ele>
        <time>2021-03-27T16:44:34Z</time>
      </trkpt>
      <trkpt lat="42.402122" lon="-6.64156">
        <ele>563.05</ele>
        <time>2021-03-27T16:44:35Z</time>
      </trkpt>
      <trkpt lat="42.402161" lon="-6.641521">
        <ele>560.7</ele>
        <time>2021-03-27T16:44:37Z</time>
      </trkpt>
      <trkpt lat="42.402188" lon="-6.641463">
        <ele>557.72</ele>
        <time>2021-03-27T16:44:38Z</time>
      </trkpt>
      <trkpt lat="42.40228" lon="-6.641195">
        <ele>551.04</ele>
        <time>2021-03-27T16:44:39Z</time>
      </trkpt>
      <trkpt lat="42.402296" lon="-6.641111">
        <ele>550.06</ele>
        <time>2021-03-27T16:44:41Z</time>
      </trkpt>
      <trkpt lat="42.402292" lon="-6.641044">
        <ele>550.26</ele>
        <time>2021-03-27T16:44:42Z</time>
      </trkpt>
      <trkpt lat="42.402221" lon="-6.640806">
        <ele>549.19</ele>
        <time>2021-03-27T16:44:43Z</time>
      </trkpt>
      <trkpt lat="42.402196" lon="-6.640612">
        <ele>550.58</ele>
        <time>2021-03-27T16:44:45Z</time>
      </trkpt>
      <trkpt lat="42.402219" lon="-6.640122">
        <ele>556.09</ele>
        <time>2021-03-27T16:44:46Z</time>
      </trkpt>
      <trkpt lat="42.402265" lon="-6.639605">
        <ele>561.28</ele>
        <time>2021-03-27T16:44:47Z</time>
      </trkpt>
      <trkpt lat="42.402212" lon="-6.639102">
        <ele>560.18</ele>
        <time>2021-03-27T16:44:49Z</time>
      </trkpt>
      <trkpt lat="42.402206" lon="-6.638902">
        <ele>561.38</ele>
        <time>2021-03-27T16:44:50Z</time>
      </trkpt>
      <trkpt lat="42.402252" lon="-6.63865">
        <ele>566.46</ele>
        <time>2021-03-27T16:44:51Z</time>
      </trkpt>
      <trkpt lat="42.402319" lon="-6.638469">
        <ele>570.29</ele>
        <time>2021-03-27T16:44:53Z</time>
      </trkpt>
      <trkpt lat="42.402373" lon="-6.638389">
        <ele>571.91</ele>
        <time>2021-03-27T16:44:54Z</time>
      </trkpt>
      <trkpt lat="42.402405" lon="-6.638368">
        <ele>572.54</ele>
        <time>2021-03-27T16:44:55Z</time>
      </trkpt>
      <trkpt lat="42.402457" lon="-6.638379">
        <ele>573.42</ele>
        <time>2021-03-27T16:44:57Z</time>
      </trkpt>
      <trkpt lat="42.402503" lon="-6.638456">
        <ele>574.5</ele>
        <time>2021-03-27T16:44:58Z</time>
      </trkpt>
      <trkpt lat="42.402495" lon="-6.63857">
        <ele>574.7</ele>
        <time>2021-03-27T16:44:59Z</time>
      </trkpt>
      <trkpt lat="42.402439" lon="-6.638855">
        <ele>572.24</ele>
        <time>2021-03-27T16:45:01Z</time>
      </trkpt>
      <trkpt lat="42.402429" lon="-6.639068">
        <ele>570.37</ele>
        <time>2021-03-27T16:45:02Z</time>
      </trkpt>
      <trkpt lat="42.402571" lon="-6.640312">
        <ele>568.95</ele>
        <time>2021-03-27T16:45:03Z</time>
      </trkpt>
      <trkpt lat="42.402607" lon="-6.640445">
        <ele>568.14</ele>
        <time>2021-03-27T16:45:05Z</time>
      </trkpt>
      <trkpt lat="42.402645" lon="-6.64052">
        <ele>568.49</ele>
        <time>2021-03-27T16:45:06Z</time>
      </trkpt>
      <trkpt lat="42.402756" lon="-6.640626">
        <ele>570.34</ele>
        <time>2021-03-27T16:45:07Z</time>
      </trkpt>
      <trkpt lat="42.402843" lon="-6.640632">
        <ele>573.41</ele>
        <time>2021-03-27T16:45:09Z</time>
      </trkpt>
      <trkpt lat="42.402884" lon="-6.640606">
        <ele>575.79</ele>
        <time>2021-03-27T16:45:10Z</time>
      </trkpt>
      <trkpt lat="42.402932" lon="-6.640521">
        <ele>579.81</ele>
        <time>2021-03-27T16:45:11Z</time>
      </trkpt>
      <trkpt lat="42.402938" lon="-6.640471">
        <ele>581.19</ele>
        <time>2021-03-27T16:45:13Z</time>
      </trkpt>
      <trkpt lat="42.402916" lon="-6.640335">
        <ele>583.64</ele>
        <time>2021-03-27T16:45:14Z</time>
      </trkpt>
      <trkpt lat="42.402773" lon="-6.639997">
        <ele>585.73</ele>
        <time>2021-03-27T16:45:15Z</time>
      </trkpt>
      <trkpt lat="42.402721" lon="-6.639806">
        <ele>584.84</ele>
        <time>2021-03-27T16:45:17Z</time>
      </trkpt>
      <trkpt lat="42.402693" lon="-6.639588">
        <ele>584.39</ele>
        <time>2021-03-27T16:45:18Z</time>
      </trkpt>
      <trkpt lat="42.402705" lon="-6.639347">
        <ele>584.63</ele>
        <time>2021-03-27T16:45:19Z</time>
      </trkpt>
      <trkpt lat="42.402764" lon="-6.639106">
        <ele>585.91</ele>
        <time>2021-03-27T16:45:21Z</time>
      </trkpt>
      <trkpt lat="42.402845" lon="-6.638938">
        <ele>587.63</ele>
        <time>2021-03-27T16:45:22Z</time>
      </trkpt>
      <trkpt lat="42.402967" lon="-6.638782">
        <ele>588.91</ele>
        <time>2021-03-27T16:45:23Z</time>
      </trkpt>
      <trkpt lat="42.403081" lon="-6.638693">
        <ele>589.94</ele>
        <time>2021-03-27T16:45:25Z</time>
      </trkpt>
      <trkpt lat="42.403295" lon="-6.638584">
        <ele>595.07</ele>
        <time>2021-03-27T16:45:26Z</time>
      </trkpt>
      <trkpt lat="42.403519" lon="-6.638498">
        <ele>600.71</ele>
        <time>2021-03-27T16:45:27Z</time>
      </trkpt>
      <trkpt lat="42.403725" lon="-6.638494">
        <ele>605.74</ele>
        <time>2021-03-27T16:45:29Z</time>
      </trkpt>
      <trkpt lat="42.404013" lon="-6.638559">
        <ele>613.43</ele>
        <time>2021-03-27T16:45:30Z</time>
      </trkpt>
      <trkpt lat="42.404217" lon="-6.638508">
        <ele>616.06</ele>
        <time>2021-03-27T16:45:31Z</time>
      </trkpt>
      <trkpt lat="42.404367" lon="-6.638368">
        <ele>616.44</ele>
        <time>2021-03-27T16:45:33Z</time>
      </trkpt>
      <trkpt lat="42.404465" lon="-6.638179">
        <ele>614.65</ele>
        <time>2021-03-27T16:45:34Z</time>
      </trkpt>
      <trkpt lat="42.404594" lon="-6.637806">
        <ele>614.97</ele>
        <time>2021-03-27T16:45:35Z</time>
      </trkpt>
      <trkpt lat="42.404622" lon="-6.637772">
        <ele>615.95</ele>
        <time>2021-03-27T16:45:37Z</time>
      </trkpt>
      <trkpt lat="42.404675" lon="-6.637762">
        <ele>618.64</ele>
        <time>2021-03-27T16:45:38Z</time>
      </trkpt>
      <trkpt lat="42.404717" lon="-6.637801">
        <ele>621.14</ele>
        <time>2021-03-27T16:45:39Z</time>
      </trkpt>
      <trkpt lat="42.404722" lon="-6.63791">
        <ele>623.35</ele>
        <time>2021-03-27T16:45:41Z</time>
      </trkpt>
      <trkpt lat="42.404493" lon="-6.638504">
        <ele>624.58</ele>
        <time>2021-03-27T16:45:42Z</time>
      </trkpt>
      <trkpt lat="42.404375" lon="-6.638702">
        <ele>626.12</ele>
        <time>2021-03-27T16:45:43Z</time>
      </trkpt>
      <trkpt lat="42.40432" lon="-6.638765">
        <ele>626.6</ele>
        <time>2021-03-27T16:45:45Z</time>
      </trkpt>
      <trkpt lat="42.40404" lon="-6.63897">
        <ele>624.64</ele>
        <time>2021-03-27T16:45:46Z</time>
      </trkpt>
      <trkpt lat="42.404007" lon="-6.639014">
        <ele>624.42</ele>
        <time>2021-03-27T16:45:47Z</time>
      </trkpt>
      <trkpt lat="42.403975" lon="-6.639109">
        <ele>624.62</ele>
        <time>2021-03-27T16:45:49Z</time>
      </trkpt>
      <trkpt lat="42.403978" lon="-6.639192">
        <ele>625.03</ele>
        <time>2021-03-27T16:45:50Z</time>
      </trkpt>
      <trkpt lat="42.40401" lon="-6.639284">
        <ele>625.03</ele>
        <time>2021-03-27T16:45:51Z</time>
      </trkpt>
      <trkpt lat="42.40406" lon="-6.639357">
        <ele>625.52</ele>
        <time>2021-03-27T16:45:53Z</time>
      </trkpt>
      <trkpt lat="42.404135" lon="-6.639402">
        <ele>626.77</ele>
        <time>2021-03-27T16:45:54Z</time>
      </trkpt>
      <trkpt lat="42.404192" lon="-6.639411">
        <ele>627.86</ele>
        <time>2021-03-27T16:45:55Z</time>
      </trkpt>
      <trkpt lat="42.404587" lon="-6.639363">
        <ele>636.11</ele>
        <time>2021-03-27T16:45:57Z</time>
      </trkpt>
      <trkpt lat="42.4046" lon="-6.639204">
        <ele>640.28</ele>
        <time>2021-03-27T16:45:58Z</time>
      </trkpt>
      <trkpt lat="42.404661" lon="-6.638959">
        <ele>641.88</ele>
        <time>2021-03-27T16:46:00Z</time>
      </trkpt>
      <trkpt lat="42.405113" lon="-6.637562">
        <ele>643.55</ele>
        <time>2021-03-27T16:46:01Z</time>
      </trkpt>
      <trkpt lat="42.405171" lon="-6.637448">
        <ele>644.3</ele>
        <time>2021-03-27T16:46:03Z</time>
      </trkpt>
      <trkpt lat="42.405424" lon="-6.637085">
        <ele>644.81</ele>
        <time>2021-03-27T16:46:04Z</time>
      </trkpt>
      <trkpt lat="42.405592" lon="-6.636764">
        <ele>648.9</ele>
        <time>2021-03-27T16:46:06Z</time>
      </trkpt>
      <trkpt lat="42.40576" lon="-6.636339">
        <ele>650.63</ele>
        <time>2021-03-27T16:46:07Z</time>
      </trkpt>
      <trkpt lat="42.405823" lon="-6.635951">
        <ele>647.39</ele>
        <time>2021-03-27T16:46:08Z</time>
      </trkpt>
      <trkpt lat="42.405917" lon="-6.635729">
        <ele>649.76</ele>
        <time>2021-03-27T16:46:10Z</time>
      </trkpt>
      <trkpt lat="42.406019" lon="-6.635584">
        <ele>650.61</ele>
        <time>2021-03-27T16:46:11Z</time>
      </trkpt>
      <trkpt lat="42.40622" lon="-6.635441">
        <ele>652.29</ele>
        <time>2021-03-27T16:46:13Z</time>
      </trkpt>
      <trkpt lat="42.406273" lon="-6.635376">
        <ele>653.51</ele>
        <time>2021-03-27T16:46:14Z</time>
      </trkpt>
      <trkpt lat="42.406272" lon="-6.635314">
        <ele>654.88</ele>
        <time>2021-03-27T16:46:16Z</time>
      </trkpt>
      <trkpt lat="42.406255" lon="-6.635288">
        <ele>655.7</ele>
        <time>2021-03-27T16:46:17Z</time>
      </trkpt>
      <trkpt lat="42.406195" lon="-6.635268">
        <ele>657.08</ele>
        <time>2021-03-27T16:46:18Z</time>
      </trkpt>
      <trkpt lat="42.405775" lon="-6.635385">
        <ele>664.43</ele>
        <time>2021-03-27T16:46:20Z</time>
      </trkpt>
      <trkpt lat="42.405686" lon="-6.635522">
        <ele>664.02</ele>
        <time>2021-03-27T16:46:21Z</time>
      </trkpt>
      <trkpt lat="42.405686" lon="-6.635522">
        <ele>664.02</ele>
        <time>2021-03-27T16:46:21Z</time>
      </trkpt>
      <trkpt lat="42.405608" lon="-6.635679">
        <ele>661.08</ele>
        <time>2021-03-27T16:46:23Z</time>
      </trkpt>
      <trkpt lat="42.405493" lon="-6.635849">
        <ele>657.19</ele>
        <time>2021-03-27T16:46:25Z</time>
      </trkpt>
      <trkpt lat="42.405411" lon="-6.635894">
        <ele>657.88</ele>
        <time>2021-03-27T16:46:26Z</time>
      </trkpt>
      <trkpt lat="42.405296" lon="-6.635926">
        <ele>659.29</ele>
        <time>2021-03-27T16:46:28Z</time>
      </trkpt>
      <trkpt lat="42.405005" lon="-6.635937">
        <ele>659.88</ele>
        <time>2021-03-27T16:46:30Z</time>
      </trkpt>
      <trkpt lat="42.404916" lon="-6.635898">
        <ele>661.97</ele>
        <time>2021-03-27T16:46:31Z</time>
      </trkpt>
      <trkpt lat="42.404806" lon="-6.635797">
        <ele>667.02</ele>
        <time>2021-03-27T16:46:33Z</time>
      </trkpt>
      <trkpt lat="42.404794" lon="-6.635675">
        <ele>672.6</ele>
        <time>2021-03-27T16:46:35Z</time>
      </trkpt>
      <trkpt lat="42.404823" lon="-6.635592">
        <ele>675.94</ele>
        <time>2021-03-27T16:46:37Z</time>
      </trkpt>
      <trkpt lat="42.404926" lon="-6.635482">
        <ele>678.92</ele>
        <time>2021-03-27T16:46:38Z</time>
      </trkpt>
      <trkpt lat="42.405402" lon="-6.635143">
        <ele>685.13</ele>
        <time>2021-03-27T16:46:40Z</time>
      </trkpt>
      <trkpt lat="42.405672" lon="-6.634794">
        <ele>690.21</ele>
        <time>2021-03-27T16:46:42Z</time>
      </trkpt>
      <trkpt lat="42.406194" lon="-6.633951">
        <ele>699.61</ele>
        <time>2021-03-27T16:46:43Z</time>
      </trkpt>
      <trkpt lat="42.40619" lon="-6.633871">
        <ele>702.74</ele>
        <time>2021-03-27T16:46:45Z</time>
      </trkpt>
      <trkpt lat="42.406159" lon="-6.633817">
        <ele>706.64</ele>
        <time>2021-03-27T16:46:47Z</time>
      </trkpt>
      <trkpt lat="42.406128" lon="-6.633798">
        <ele>708.87</ele>
        <time>2021-03-27T16:46:49Z</time>
      </trkpt>
      <trkpt lat="42.406085" lon="-6.63382">
        <ele>709.62</ele>
        <time>2021-03-27T16:46:50Z</time>
      </trkpt>
      <trkpt lat="42.405852" lon="-6.634094">
        <ele>707.88</ele>
        <time>2021-03-27T16:46:52Z</time>
      </trkpt>
      <trkpt lat="42.405619" lon="-6.63429">
        <ele>712.55</ele>
        <time>2021-03-27T16:46:54Z</time>
      </trkpt>
      <trkpt lat="42.405273" lon="-6.634526">
        <ele>715.68</ele>
        <time>2021-03-27T16:46:55Z</time>
      </trkpt>
      <trkpt lat="42.40517" lon="-6.634552">
        <ele>716.13</ele>
        <time>2021-03-27T16:46:57Z</time>
      </trkpt>
      <trkpt lat="42.40465" lon="-6.634605">
        <ele>725.33</ele>
        <time>2021-03-27T16:46:59Z</time>
      </trkpt>
      <trkpt lat="42.404381" lon="-6.634787">
        <ele>726.49</ele>
        <time>2021-03-27T16:47:01Z</time>
      </trkpt>
      <trkpt lat="42.404099" lon="-6.634878">
        <ele>730.34</ele>
        <time>2021-03-27T16:47:02Z</time>
      </trkpt>
      <trkpt lat="42.403758" lon="-6.635051">
        <ele>734.37</ele>
        <time>2021-03-27T16:47:04Z</time>
      </trkpt>
      <trkpt lat="42.403658" lon="-6.635132">
        <ele>737.43</ele>
        <time>2021-03-27T16:47:06Z</time>
      </trkpt>
      <trkpt lat="42.403199" lon="-6.635204">
        <ele>748.07</ele>
        <time>2021-03-27T16:47:07Z</time>
      </trkpt>
      <trkpt lat="42.403115" lon="-6.63524">
        <ele>748.16</ele>
        <time>2021-03-27T16:47:09Z</time>
      </trkpt>
      <trkpt lat="42.402987" lon="-6.635338">
        <ele>745.39</ele>
        <time>2021-03-27T16:47:11Z</time>
      </trkpt>
      <trkpt lat="42.402843" lon="-6.6354">
        <ele>743.31</ele>
        <time>2021-03-27T16:47:12Z</time>
      </trkpt>
      <trkpt lat="42.402439" lon="-6.635403">
        <ele>745.4</ele>
        <time>2021-03-27T16:47:14Z</time>
      </trkpt>
      <trkpt lat="42.401924" lon="-6.635483">
        <ele>741.57</ele>
        <time>2021-03-27T16:47:16Z</time>
      </trkpt>
      <trkpt lat="42.401792" lon="-6.635475">
        <ele>739.86</ele>
        <time>2021-03-27T16:47:18Z</time>
      </trkpt>
      <trkpt lat="42.401671" lon="-6.635447">
        <ele>739.88</ele>
        <time>2021-03-27T16:47:19Z</time>
      </trkpt>
      <trkpt lat="42.401141" lon="-6.635182">
        <ele>751.49</ele>
        <time>2021-03-27T16:47:21Z</time>
      </trkpt>
      <trkpt lat="42.400853" lon="-6.635095">
        <ele>753.38</ele>
        <time>2021-03-27T16:47:23Z</time>
      </trkpt>
      <trkpt lat="42.400595" lon="-6.634977">
        <ele>759.34</ele>
        <time>2021-03-27T16:47:24Z</time>
      </trkpt>
      <trkpt lat="42.400201" lon="-6.635007">
        <ele>762.13</ele>
        <time>2021-03-27T16:47:26Z</time>
      </trkpt>
      <trkpt lat="42.400064" lon="-6.634945">
        <ele>763.04</ele>
        <time>2021-03-27T16:47:28Z</time>
      </trkpt>
      <trkpt lat="42.399123" lon="-6.633924">
        <ele>770.89</ele>
        <time>2021-03-27T16:47:30Z</time>
      </trkpt>
      <trkpt lat="42.399079" lon="-6.633818">
        <ele>772.58</ele>
        <time>2021-03-27T16:47:31Z</time>
      </trkpt>
      <trkpt lat="42.399065" lon="-6.633724">
        <ele>774.59</ele>
        <time>2021-03-27T16:47:33Z</time>
      </trkpt>
      <trkpt lat="42.399088" lon="-6.633643">
        <ele>777.21</ele>
        <time>2021-03-27T16:47:35Z</time>
      </trkpt>
      <trkpt lat="42.399146" lon="-6.633603">
        <ele>779.65</ele>
        <time>2021-03-27T16:47:36Z</time>
      </trkpt>
      <trkpt lat="42.399302" lon="-6.633667">
        <ele>781.61</ele>
        <time>2021-03-27T16:47:38Z</time>
      </trkpt>
      <trkpt lat="42.39986" lon="-6.634017">
        <ele>784.78</ele>
        <time>2021-03-27T16:47:40Z</time>
      </trkpt>
      <trkpt lat="42.400046" lon="-6.634085">
        <ele>786.09</ele>
        <time>2021-03-27T16:47:41Z</time>
      </trkpt>
      <trkpt lat="42.400521" lon="-6.634062">
        <ele>793.18</ele>
        <time>2021-03-27T16:47:43Z</time>
      </trkpt>
      <trkpt lat="42.400645" lon="-6.634072">
        <ele>795.45</ele>
        <time>2021-03-27T16:47:45Z</time>
      </trkpt>
      <trkpt lat="42.400783" lon="-6.634109">
        <ele>797.16</ele>
        <time>2021-03-27T16:47:47Z</time>
      </trkpt>
      <trkpt lat="42.401134" lon="-6.634316">
        <ele>793.95</ele>
        <time>2021-03-27T16:47:48Z</time>
      </trkpt>
      <trkpt lat="42.401227" lon="-6.634335">
        <ele>794.61</ele>
        <time>2021-03-27T16:47:50Z</time>
      </trkpt>
      <trkpt lat="42.401368" lon="-6.634324">
        <ele>797.03</ele>
        <time>2021-03-27T16:47:52Z</time>
      </trkpt>
      <trkpt lat="42.401506" lon="-6.634272">
        <ele>800.63</ele>
        <time>2021-03-27T16:47:53Z</time>
      </trkpt>
      <trkpt lat="42.401789" lon="-6.634107">
        <ele>809.07</ele>
        <time>2021-03-27T16:47:55Z</time>
      </trkpt>
      <trkpt lat="42.402216" lon="-6.633835">
        <ele>812.47</ele>
        <time>2021-03-27T16:47:57Z</time>
      </trkpt>
      <trkpt lat="42.40242" lon="-6.633684">
        <ele>812.94</ele>
        <time>2021-03-27T16:47:59Z</time>
      </trkpt>
      <trkpt lat="42.402613" lon="-6.633412">
        <ele>816.19</ele>
        <time>2021-03-27T16:48:00Z</time>
      </trkpt>
      <trkpt lat="42.40273" lon="-6.633302">
        <ele>815.43</ele>
        <time>2021-03-27T16:48:02Z</time>
      </trkpt>
      <trkpt lat="42.403026" lon="-6.633207">
        <ele>813.88</ele>
        <time>2021-03-27T16:48:04Z</time>
      </trkpt>
      <trkpt lat="42.403463" lon="-6.63301">
        <ele>820.73</ele>
        <time>2021-03-27T16:48:05Z</time>
      </trkpt>
      <trkpt lat="42.403802" lon="-6.632898">
        <ele>821.35</ele>
        <time>2021-03-27T16:48:07Z</time>
      </trkpt>
      <trkpt lat="42.403846" lon="-6.632858">
        <ele>822.33</ele>
        <time>2021-03-27T16:48:09Z</time>
      </trkpt>
      <trkpt lat="42.40388" lon="-6.632778">
        <ele>824.99</ele>
        <time>2021-03-27T16:48:10Z</time>
      </trkpt>
      <trkpt lat="42.403875" lon="-6.63267">
        <ele>827.99</ele>
        <time>2021-03-27T16:48:12Z</time>
      </trkpt>
      <trkpt lat="42.403788" lon="-6.63239">
        <ele>833.05</ele>
        <time>2021-03-27T16:48:14Z</time>
      </trkpt>
      <trkpt lat="42.403704" lon="-6.632194">
        <ele>835.02</ele>
        <time>2021-03-27T16:48:16Z</time>
      </trkpt>
      <trkpt lat="42.403571" lon="-6.631985">
        <ele>838.32</ele>
        <time>2021-03-27T16:48:17Z</time>
      </trkpt>
      <trkpt lat="42.403348" lon="-6.631765">
        <ele>841.24</ele>
        <time>2021-03-27T16:48:19Z</time>
      </trkpt>
      <trkpt lat="42.403157" lon="-6.631657">
        <ele>845.6</ele>
        <time>2021-03-27T16:48:21Z</time>
      </trkpt>
      <trkpt lat="42.403034" lon="-6.631633">
        <ele>847.61</ele>
        <time>2021-03-27T16:48:22Z</time>
      </trkpt>
      <trkpt lat="42.402761" lon="-6.631663">
        <ele>851.45</ele>
        <time>2021-03-27T16:48:24Z</time>
      </trkpt>
      <trkpt lat="42.402572" lon="-6.63178">
        <ele>851.74</ele>
        <time>2021-03-27T16:48:26Z</time>
      </trkpt>
      <trkpt lat="42.402466" lon="-6.631883">
        <ele>851.68</ele>
        <time>2021-03-27T16:48:28Z</time>
      </trkpt>
      <trkpt lat="42.402351" lon="-6.632036">
        <ele>852.66</ele>
        <time>2021-03-27T16:48:29Z</time>
      </trkpt>
      <trkpt lat="42.402107" lon="-6.632408">
        <ele>852.68</ele>
        <time>2021-03-27T16:48:31Z</time>
      </trkpt>
      <trkpt lat="42.402003" lon="-6.632476">
        <ele>851.6</ele>
        <time>2021-03-27T16:48:33Z</time>
      </trkpt>
      <trkpt lat="42.401937" lon="-6.632476">
        <ele>851.72</ele>
        <time>2021-03-27T16:48:34Z</time>
      </trkpt>
      <trkpt lat="42.401869" lon="-6.632445">
        <ele>852.96</ele>
        <time>2021-03-27T16:48:36Z</time>
      </trkpt>
      <trkpt lat="42.401106" lon="-6.631684">
        <ele>863.35</ele>
        <time>2021-03-27T16:48:38Z</time>
      </trkpt>
      <trkpt lat="42.400678" lon="-6.631093">
        <ele>868.42</ele>
        <time>2021-03-27T16:48:40Z</time>
      </trkpt>
      <trkpt lat="42.400274" lon="-6.630599">
        <ele>872.13</ele>
        <time>2021-03-27T16:48:41Z</time>
      </trkpt>
      <trkpt lat="42.399484" lon="-6.629714">
        <ele>869.03</ele>
        <time>2021-03-27T16:48:43Z</time>
      </trkpt>
      <trkpt lat="42.399366" lon="-6.629508">
        <ele>870.8</ele>
        <time>2021-03-27T16:48:45Z</time>
      </trkpt>
      <trkpt lat="42.399241" lon="-6.629339">
        <ele>872.24</ele>
        <time>2021-03-27T16:48:46Z</time>
      </trkpt>
      <trkpt lat="42.398872" lon="-6.628938">
        <ele>873.61</ele>
        <time>2021-03-27T16:48:48Z</time>
      </trkpt>
      <trkpt lat="42.398575" lon="-6.628359">
        <ele>885.0</ele>
        <time>2021-03-27T16:48:50Z</time>
      </trkpt>
      <trkpt lat="42.398398" lon="-6.62814">
        <ele>900.56</ele>
        <time>2021-03-27T16:48:51Z</time>
      </trkpt>
      <trkpt lat="42.398328" lon="-6.628106">
        <ele>904.87</ele>
        <time>2021-03-27T16:48:53Z</time>
      </trkpt>
      <trkpt lat="42.398273" lon="-6.628115">
        <ele>908.8</ele>
        <time>2021-03-27T16:48:55Z</time>
      </trkpt>
      <trkpt lat="42.398194" lon="-6.628191">
        <ele>911.94</ele>
        <time>2021-03-27T16:48:57Z</time>
      </trkpt>
      <trkpt lat="42.398109" lon="-6.628369">
        <ele>911.91</ele>
        <time>2021-03-27T16:48:58Z</time>
      </trkpt>
      <trkpt lat="42.398017" lon="-6.628636">
        <ele>904.23</ele>
        <time>2021-03-27T16:49:00Z</time>
      </trkpt>
      <trkpt lat="42.397857" lon="-6.629022">
        <ele>900.66</ele>
        <time>2021-03-27T16:49:02Z</time>
      </trkpt>
      <trkpt lat="42.397749" lon="-6.62922">
        <ele>899.72</ele>
        <time>2021-03-27T16:49:03Z</time>
      </trkpt>
      <trkpt lat="42.39752" lon="-6.62951">
        <ele>901.07</ele>
        <time>2021-03-27T16:49:05Z</time>
      </trkpt>
      <trkpt lat="42.397407" lon="-6.629605">
        <ele>900.79</ele>
        <time>2021-03-27T16:49:07Z</time>
      </trkpt>
      <trkpt lat="42.397287" lon="-6.629663">
        <ele>902.13</ele>
        <time>2021-03-27T16:49:09Z</time>
      </trkpt>
      <trkpt lat="42.396894" lon="-6.629778">
        <ele>903.46</ele>
        <time>2021-03-27T16:49:10Z</time>
      </trkpt>
      <trkpt lat="42.396399" lon="-6.629962">
        <ele>904.28</ele>
        <time>2021-03-27T16:49:12Z</time>
      </trkpt>
      <trkpt lat="42.396271" lon="-6.629982">
        <ele>903.77</ele>
        <time>2021-03-27T16:49:14Z</time>
      </trkpt>
      <trkpt lat="42.39619" lon="-6.629968">
        <ele>903.63</ele>
        <time>2021-03-27T16:49:15Z</time>
      </trkpt>
      <trkpt lat="42.396095" lon="-6.629902">
        <ele>903.8</ele>
        <time>2021-03-27T16:49:17Z</time>
      </trkpt>
      <trkpt lat="42.396057" lon="-6.629836">
        <ele>903.88</ele>
        <time>2021-03-27T16:49:19Z</time>
      </trkpt>
      <trkpt lat="42.395998" lon="-6.629527">
        <ele>906.91</ele>
        <time>2021-03-27T16:49:20Z</time>
      </trkpt>
      <trkpt lat="42.396033" lon="-6.62927">
        <ele>913.17</ele>
        <time>2021-03-27T16:49:22Z</time>
      </trkpt>
      <trkpt lat="42.39626" lon="-6.62914">
        <ele>921.25</ele>
        <time>2021-03-27T16:49:24Z</time>
      </trkpt>
      <trkpt lat="42.396499" lon="-6.629047">
        <ele>927.12</ele>
        <time>2021-03-27T16:49:26Z</time>
      </trkpt>
      <trkpt lat="42.396781" lon="-6.628853">
        <ele>933.31</ele>
        <time>2021-03-27T16:49:27Z</time>
      </trkpt>
      <trkpt lat="42.397312" lon="-6.628368">
        <ele>943.03</ele>
        <time>2021-03-27T16:49:29Z</time>
      </trkpt>
      <trkpt lat="42.397432" lon="-6.6282">
        <ele>946.93</ele>
        <time>2021-03-27T16:49:31Z</time>
      </trkpt>
      <trkpt lat="42.397446" lon="-6.628137">
        <ele>948.81</ele>
        <time>2021-03-27T16:49:32Z</time>
      </trkpt>
      <trkpt lat="42.397425" lon="-6.628059">
        <ele>951.43</ele>
        <time>2021-03-27T16:49:34Z</time>
      </trkpt>
      <trkpt lat="42.39739" lon="-6.628041">
        <ele>952.04</ele>
        <time>2021-03-27T16:49:36Z</time>
      </trkpt>
      <trkpt lat="42.397337" lon="-6.628052">
        <ele>952.24</ele>
        <time>2021-03-27T16:49:38Z</time>
      </trkpt>
      <trkpt lat="42.397181" lon="-6.628154">
        <ele>949.92</ele>
        <time>2021-03-27T16:49:39Z</time>
      </trkpt>
      <trkpt lat="42.397064" lon="-6.628191">
        <ele>948.24</ele>
        <time>2021-03-27T16:49:41Z</time>
      </trkpt>
      <trkpt lat="42.396907" lon="-6.628145">
        <ele>948.43</ele>
        <time>2021-03-27T16:49:43Z</time>
      </trkpt>
      <trkpt lat="42.39684" lon="-6.628046">
        <ele>949.97</ele>
        <time>2021-03-27T16:49:44Z</time>
      </trkpt>
      <trkpt lat="42.396828" lon="-6.627975">
        <ele>950.54</ele>
        <time>2021-03-27T16:49:46Z</time>
      </trkpt>
      <trkpt lat="42.396841" lon="-6.627718">
        <ele>953.09</ele>
        <time>2021-03-27T16:49:48Z</time>
      </trkpt>
      <trkpt lat="42.396967" lon="-6.627206">
        <ele>958.9</ele>
        <time>2021-03-27T16:49:50Z</time>
      </trkpt>
      <trkpt lat="42.396979" lon="-6.627033">
        <ele>961.16</ele>
        <time>2021-03-27T16:49:51Z</time>
      </trkpt>
      <trkpt lat="42.396963" lon="-6.626882">
        <ele>962.32</ele>
        <time>2021-03-27T16:49:53Z</time>
      </trkpt>
      <trkpt lat="42.396736" lon="-6.625935">
        <ele>970.73</ele>
        <time>2021-03-27T16:49:55Z</time>
      </trkpt>
      <trkpt lat="42.396701" lon="-6.625651">
        <ele>973.81</ele>
        <time>2021-03-27T16:49:56Z</time>
      </trkpt>
      <trkpt lat="42.396728" lon="-6.625506">
        <ele>976.57</ele>
        <time>2021-03-27T16:49:58Z</time>
      </trkpt>
      <trkpt lat="42.396764" lon="-6.625415">
        <ele>978.18</ele>
        <time>2021-03-27T16:50:00Z</time>
      </trkpt>
      <trkpt lat="42.396935" lon="-6.625145">
        <ele>984.18</ele>
        <time>2021-03-27T16:50:01Z</time>
      </trkpt>
      <trkpt lat="42.397111" lon="-6.624686">
        <ele>990.75</ele>
        <time>2021-03-27T16:50:03Z</time>
      </trkpt>
      <trkpt lat="42.397141" lon="-6.624522">
        <ele>992.78</ele>
        <time>2021-03-27T16:50:05Z</time>
      </trkpt>
      <trkpt lat="42.397152" lon="-6.624259">
        <ele>995.07</ele>
        <time>2021-03-27T16:50:07Z</time>
      </trkpt>
      <trkpt lat="42.397122" lon="-6.624032">
        <ele>996.41</ele>
        <time>2021-03-27T16:50:08Z</time>
      </trkpt>
      <trkpt lat="42.396885" lon="-6.623234">
        <ele>1001.57</ele>
        <time>2021-03-27T16:50:10Z</time>
      </trkpt>
      <trkpt lat="42.39682" lon="-6.623108">
        <ele>1003.53</ele>
        <time>2021-03-27T16:50:12Z</time>
      </trkpt>
      <trkpt lat="42.396768" lon="-6.623038">
        <ele>1004.28</ele>
        <time>2021-03-27T16:50:13Z</time>
      </trkpt>
      <trkpt lat="42.396716" lon="-6.623003">
        <ele>1004.13</ele>
        <time>2021-03-27T16:50:15Z</time>
      </trkpt>
      <trkpt lat="42.396639" lon="-6.622996">
        <ele>1003.54</ele>
        <time>2021-03-27T16:50:17Z</time>
      </trkpt>
      <trkpt lat="42.396544" lon="-6.623055">
        <ele>1002.89</ele>
        <time>2021-03-27T16:50:19Z</time>
      </trkpt>
      <trkpt lat="42.396443" lon="-6.623181">
        <ele>1000.53</ele>
        <time>2021-03-27T16:50:20Z</time>
      </trkpt>
      <trkpt lat="42.396343" lon="-6.623274">
        <ele>999.84</ele>
        <time>2021-03-27T16:50:22Z</time>
      </trkpt>
      <trkpt lat="42.396226" lon="-6.623348">
        <ele>1001.35</ele>
        <time>2021-03-27T16:50:24Z</time>
      </trkpt>
      <trkpt lat="42.39605" lon="-6.623399">
        <ele>1004.19</ele>
        <time>2021-03-27T16:50:25Z</time>
      </trkpt>
      <trkpt lat="42.395727" lon="-6.623429">
        <ele>1008.26</ele>
        <time>2021-03-27T16:50:27Z</time>
      </trkpt>
      <trkpt lat="42.395652" lon="-6.623463">
        <ele>1009.04</ele>
        <time>2021-03-27T16:50:29Z</time>
      </trkpt>
      <trkpt lat="42.395304" lon="-6.62372">
        <ele>1014.2</ele>
        <time>2021-03-27T16:50:30Z</time>
      </trkpt>
      <trkpt lat="42.394709" lon="-6.623998">
        <ele>1027.03</ele>
        <time>2021-03-27T16:50:32Z</time>
      </trkpt>
      <trkpt lat="42.394441" lon="-6.624317">
        <ele>1023.19</ele>
        <time>2021-03-27T16:50:34Z</time>
      </trkpt>
      <trkpt lat="42.394198" lon="-6.62444">
        <ele>1023.58</ele>
        <time>2021-03-27T16:50:36Z</time>
      </trkpt>
      <trkpt lat="42.393549" lon="-6.624504">
        <ele>1026.21</ele>
        <time>2021-03-27T16:50:37Z</time>
      </trkpt>
      <trkpt lat="42.393437" lon="-6.624537">
        <ele>1024.67</ele>
        <time>2021-03-27T16:50:39Z</time>
      </trkpt>
      <trkpt lat="42.392768" lon="-6.624835">
        <ele>1022.77</ele>
        <time>2021-03-27T16:50:41Z</time>
      </trkpt>
      <trkpt lat="42.392713" lon="-6.624873">
        <ele>1024.68</ele>
        <time>2021-03-27T16:50:42Z</time>
      </trkpt>
      <trkpt lat="42.392357" lon="-6.625339">
        <ele>1021.2</ele>
        <time>2021-03-27T16:50:44Z</time>
      </trkpt>
      <trkpt lat="42.39217" lon="-6.625467">
        <ele>1018.39</ele>
        <time>2021-03-27T16:50:46Z</time>
      </trkpt>
      <trkpt lat="42.391856" lon="-6.625483">
        <ele>1014.48</ele>
        <time>2021-03-27T16:50:48Z</time>
      </trkpt>
      <trkpt lat="42.391773" lon="-6.625456">
        <ele>1015.88</ele>
        <time>2021-03-27T16:50:49Z</time>
      </trkpt>
      <trkpt lat="42.391713" lon="-6.625412">
        <ele>1018.15</ele>
        <time>2021-03-27T16:50:51Z</time>
      </trkpt>
      <trkpt lat="42.391597" lon="-6.625385">
        <ele>1021.25</ele>
        <time>2021-03-27T16:50:53Z</time>
      </trkpt>
      <trkpt lat="42.391466" lon="-6.625421">
        <ele>1022.47</ele>
        <time>2021-03-27T16:50:54Z</time>
      </trkpt>
      <trkpt lat="42.391203" lon="-6.625634">
        <ele>1022.22</ele>
        <time>2021-03-27T16:50:56Z</time>
      </trkpt>
      <trkpt lat="42.390974" lon="-6.625867">
        <ele>1024.2</ele>
        <time>2021-03-27T16:50:58Z</time>
      </trkpt>
      <trkpt lat="42.390737" lon="-6.626172">
        <ele>1020.52</ele>
        <time>2021-03-27T16:50:59Z</time>
      </trkpt>
      <trkpt lat="42.390597" lon="-6.626394">
        <ele>1016.68</ele>
        <time>2021-03-27T16:51:01Z</time>
      </trkpt>
      <trkpt lat="42.390504" lon="-6.626454">
        <ele>1017.91</ele>
        <time>2021-03-27T16:51:03Z</time>
      </trkpt>
      <trkpt lat="42.390253" lon="-6.626795">
        <ele>1006.93</ele>
        <time>2021-03-27T16:51:05Z</time>
      </trkpt>
      <trkpt lat="42.389775" lon="-6.626828">
        <ele>1020.06</ele>
        <time>2021-03-27T16:51:06Z</time>
      </trkpt>
      <trkpt lat="42.389574" lon="-6.626882">
        <ele>1020.3</ele>
        <time>2021-03-27T16:51:08Z</time>
      </trkpt>
      <trkpt lat="42.389229" lon="-6.62688">
        <ele>1022.46</ele>
        <time>2021-03-27T16:51:10Z</time>
      </trkpt>
      <trkpt lat="42.389178" lon="-6.626912">
        <ele>1021.86</ele>
        <time>2021-03-27T16:51:11Z</time>
      </trkpt>
      <trkpt lat="42.389088" lon="-6.627032">
        <ele>1021.32</ele>
        <time>2021-03-27T16:51:13Z</time>
      </trkpt>
      <trkpt lat="42.388945" lon="-6.627325">
        <ele>1019.16</ele>
        <time>2021-03-27T16:51:15Z</time>
      </trkpt>
      <trkpt lat="42.388863" lon="-6.627426">
        <ele>1019.07</ele>
        <time>2021-03-27T16:51:17Z</time>
      </trkpt>
      <trkpt lat="42.388797" lon="-6.627475">
        <ele>1018.15</ele>
        <time>2021-03-27T16:51:18Z</time>
      </trkpt>
      <trkpt lat="42.388699" lon="-6.627511">
        <ele>1017.04</ele>
        <time>2021-03-27T16:51:20Z</time>
      </trkpt>
      <trkpt lat="42.388575" lon="-6.627507">
        <ele>1016.57</ele>
        <time>2021-03-27T16:51:22Z</time>
      </trkpt>
      <trkpt lat="42.388454" lon="-6.62745">
        <ele>1017.21</ele>
        <time>2021-03-27T16:51:23Z</time>
      </trkpt>
      <trkpt lat="42.388201" lon="-6.627268">
        <ele>1019.1</ele>
        <time>2021-03-27T16:51:25Z</time>
      </trkpt>
      <trkpt lat="42.388016" lon="-6.627228">
        <ele>1018.32</ele>
        <time>2021-03-27T16:51:27Z</time>
      </trkpt>
      <trkpt lat="42.387729" lon="-6.627223">
        <ele>1020.8</ele>
        <time>2021-03-27T16:51:29Z</time>
      </trkpt>
      <trkpt lat="42.387379" lon="-6.627333">
        <ele>1019.26</ele>
        <time>2021-03-27T16:51:30Z</time>
      </trkpt>
      <trkpt lat="42.387109" lon="-6.627536">
        <ele>1017.32</ele>
        <time>2021-03-27T16:51:32Z</time>
      </trkpt>
      <trkpt lat="42.386961" lon="-6.627582">
        <ele>1018.78</ele>
        <time>2021-03-27T16:51:34Z</time>
      </trkpt>
      <trkpt lat="42.38663" lon="-6.627603">
        <ele>1018.58</ele>
        <time>2021-03-27T16:51:35Z</time>
      </trkpt>
      <trkpt lat="42.386459" lon="-6.627589">
        <ele>1018.61</ele>
        <time>2021-03-27T16:51:37Z</time>
      </trkpt>
      <trkpt lat="42.386101" lon="-6.62751">
        <ele>1018.89</ele>
        <time>2021-03-27T16:51:39Z</time>
      </trkpt>
      <trkpt lat="42.385877" lon="-6.627526">
        <ele>1020.14</ele>
        <time>2021-03-27T16:51:40Z</time>
      </trkpt>
      <trkpt lat="42.385658" lon="-6.627654">
        <ele>1019.57</ele>
        <time>2021-03-27T16:51:42Z</time>
      </trkpt>
      <trkpt lat="42.385505" lon="-6.62766">
        <ele>1020.75</ele>
        <time>2021-03-27T16:51:44Z</time>
      </trkpt>
      <trkpt lat="42.384571" lon="-6.627454">
        <ele>1022.36</ele>
        <time>2021-03-27T16:51:46Z</time>
      </trkpt>
      <trkpt lat="42.384395" lon="-6.627385">
        <ele>1023.4</ele>
        <time>2021-03-27T16:51:47Z</time>
      </trkpt>
      <trkpt lat="42.384056" lon="-6.627137">
        <ele>1021.03</ele>
        <time>2021-03-27T16:51:49Z</time>
      </trkpt>
      <trkpt lat="42.38395" lon="-6.627024">
        <ele>1017.03</ele>
        <time>2021-03-27T16:51:51Z</time>
      </trkpt>
      <trkpt lat="42.383937" lon="-6.626922">
        <ele>1015.68</ele>
        <time>2021-03-27T16:51:52Z</time>
      </trkpt>
      <trkpt lat="42.38395" lon="-6.626406">
        <ele>1011.13</ele>
        <time>2021-03-27T16:51:54Z</time>
      </trkpt>
      <trkpt lat="42.383938" lon="-6.626168">
        <ele>1010.98</ele>
        <time>2021-03-27T16:51:56Z</time>
      </trkpt>
      <trkpt lat="42.383798" lon="-6.625449">
        <ele>1003.25</ele>
        <time>2021-03-27T16:51:58Z</time>
      </trkpt>
      <trkpt lat="42.383743" lon="-6.62496">
        <ele>999.43</ele>
        <time>2021-03-27T16:51:59Z</time>
      </trkpt>
      <trkpt lat="42.383755" lon="-6.624703">
        <ele>996.19</ele>
        <time>2021-03-27T16:52:01Z</time>
      </trkpt>
      <trkpt lat="42.383781" lon="-6.624522">
        <ele>996.95</ele>
        <time>2021-03-27T16:52:03Z</time>
      </trkpt>
      <trkpt lat="42.383796" lon="-6.624076">
        <ele>999.95</ele>
        <time>2021-03-27T16:52:04Z</time>
      </trkpt>
      <trkpt lat="42.383677" lon="-6.623417">
        <ele>992.79</ele>
        <time>2021-03-27T16:52:06Z</time>
      </trkpt>
      <trkpt lat="42.38366" lon="-6.623249">
        <ele>989.95</ele>
        <time>2021-03-27T16:52:08Z</time>
      </trkpt>
      <trkpt lat="42.383666" lon="-6.623108">
        <ele>988.61</ele>
        <time>2021-03-27T16:52:09Z</time>
      </trkpt>
      <trkpt lat="42.383826" lon="-6.622462">
        <ele>991.3</ele>
        <time>2021-03-27T16:52:11Z</time>
      </trkpt>
      <trkpt lat="42.38383" lon="-6.622313">
        <ele>990.4</ele>
        <time>2021-03-27T16:52:13Z</time>
      </trkpt>
      <trkpt lat="42.383808" lon="-6.622183">
        <ele>989.17</ele>
        <time>2021-03-27T16:52:15Z</time>
      </trkpt>
      <trkpt lat="42.383701" lon="-6.621937">
        <ele>986.98</ele>
        <time>2021-03-27T16:52:16Z</time>
      </trkpt>
      <trkpt lat="42.383622" lon="-6.621836">
        <ele>984.66</ele>
        <time>2021-03-27T16:52:18Z</time>
      </trkpt>
      <trkpt lat="42.383528" lon="-6.621765">
        <ele>982.64</ele>
        <time>2021-03-27T16:52:20Z</time>
      </trkpt>
      <trkpt lat="42.383304" lon="-6.621675">
        <ele>977.68</ele>
        <time>2021-03-27T16:52:21Z</time>
      </trkpt>
      <trkpt lat="42.383031" lon="-6.621623">
        <ele>967.2</ele>
        <time>2021-03-27T16:52:23Z</time>
      </trkpt>
      <trkpt lat="42.382937" lon="-6.621571">
        <ele>963.22</ele>
        <time>2021-03-27T16:52:25Z</time>
      </trkpt>
      <trkpt lat="42.382886" lon="-6.621509">
        <ele>961.93</ele>
        <time>2021-03-27T16:52:27Z</time>
      </trkpt>
      <trkpt lat="42.382873" lon="-6.621405">
        <ele>963.44</ele>
        <time>2021-03-27T16:52:28Z</time>
      </trkpt>
      <trkpt lat="42.382882" lon="-6.621298">
        <ele>965.07</ele>
        <time>2021-03-27T16:52:30Z</time>
      </trkpt>
      <trkpt lat="42.382928" lon="-6.621234">
        <ele>967.27</ele>
        <time>2021-03-27T16:52:32Z</time>
      </trkpt>
      <trkpt lat="42.383011" lon="-6.621176">
        <ele>970.37</ele>
        <time>2021-03-27T16:52:33Z</time>
      </trkpt>
      <trkpt lat="42.38305" lon="-6.621127">
        <ele>971.79</ele>
        <time>2021-03-27T16:52:35Z</time>
      </trkpt>
      <trkpt lat="42.383089" lon="-6.620971">
        <ele>972.47</ele>
        <time>2021-03-27T16:52:37Z</time>
      </trkpt>
      <trkpt lat="42.383076" lon="-6.620905">
        <ele>971.88</ele>
        <time>2021-03-27T16:52:38Z</time>
      </trkpt>
      <trkpt lat="42.383016" lon="-6.620848">
        <ele>970.31</ele>
        <time>2021-03-27T16:52:40Z</time>
      </trkpt>
      <trkpt lat="42.382803" lon="-6.620792">
        <ele>967.03</ele>
        <time>2021-03-27T16:52:42Z</time>
      </trkpt>
      <trkpt lat="42.382505" lon="-6.620665">
        <ele>967.86</ele>
        <time>2021-03-27T16:52:44Z</time>
      </trkpt>
      <trkpt lat="42.382393" lon="-6.620703">
        <ele>966.73</ele>
        <time>2021-03-27T16:52:45Z</time>
      </trkpt>
      <trkpt lat="42.38235" lon="-6.62077">
        <ele>964.53</ele>
        <time>2021-03-27T16:52:47Z</time>
      </trkpt>
      <trkpt lat="42.382047" lon="-6.620968">
        <ele>963.14</ele>
        <time>2021-03-27T16:52:49Z</time>
      </trkpt>
      <trkpt lat="42.381957" lon="-6.621064">
        <ele>963.09</ele>
        <time>2021-03-27T16:52:50Z</time>
      </trkpt>
      <trkpt lat="42.381897" lon="-6.621158">
        <ele>962.57</ele>
        <time>2021-03-27T16:52:52Z</time>
      </trkpt>
      <trkpt lat="42.381451" lon="-6.622239">
        <ele>948.44</ele>
        <time>2021-03-27T16:52:54Z</time>
      </trkpt>
      <trkpt lat="42.381334" lon="-6.622451">
        <ele>947.15</ele>
        <time>2021-03-27T16:52:56Z</time>
      </trkpt>
      <trkpt lat="42.381178" lon="-6.622627">
        <ele>944.46</ele>
        <time>2021-03-27T16:52:57Z</time>
      </trkpt>
      <trkpt lat="42.381096" lon="-6.622699">
        <ele>943.8</ele>
        <time>2021-03-27T16:52:59Z</time>
      </trkpt>
      <trkpt lat="42.381033" lon="-6.62272">
        <ele>944.11</ele>
        <time>2021-03-27T16:53:01Z</time>
      </trkpt>
      <trkpt lat="42.380615" lon="-6.622814">
        <ele>945.33</ele>
        <time>2021-03-27T16:53:02Z</time>
      </trkpt>
      <trkpt lat="42.380268" lon="-6.622868">
        <ele>947.3</ele>
        <time>2021-03-27T16:53:04Z</time>
      </trkpt>
      <trkpt lat="42.380183" lon="-6.622902">
        <ele>947.0</ele>
        <time>2021-03-27T16:53:06Z</time>
      </trkpt>
      <trkpt lat="42.380082" lon="-6.622977">
        <ele>944.77</ele>
        <time>2021-03-27T16:53:08Z</time>
      </trkpt>
      <trkpt lat="42.379902" lon="-6.623215">
        <ele>939.27</ele>
        <time>2021-03-27T16:53:09Z</time>
      </trkpt>
      <trkpt lat="42.379513" lon="-6.623772">
        <ele>932.17</ele>
        <time>2021-03-27T16:53:11Z</time>
      </trkpt>
      <trkpt lat="42.379187" lon="-6.624287">
        <ele>930.86</ele>
        <time>2021-03-27T16:53:13Z</time>
      </trkpt>
      <trkpt lat="42.379112" lon="-6.624376">
        <ele>927.05</ele>
        <time>2021-03-27T16:53:14Z</time>
      </trkpt>
      <trkpt lat="42.378843" lon="-6.624576">
        <ele>923.73</ele>
        <time>2021-03-27T16:53:16Z</time>
      </trkpt>
      <trkpt lat="42.378647" lon="-6.624687">
        <ele>920.23</ele>
        <time>2021-03-27T16:53:18Z</time>
      </trkpt>
      <trkpt lat="42.378431" lon="-6.624744">
        <ele>919.87</ele>
        <time>2021-03-27T16:53:19Z</time>
      </trkpt>
      <trkpt lat="42.378059" lon="-6.624783">
        <ele>923.23</ele>
        <time>2021-03-27T16:53:21Z</time>
      </trkpt>
      <trkpt lat="42.377657" lon="-6.624947">
        <ele>928.72</ele>
        <time>2021-03-27T16:53:23Z</time>
      </trkpt>
      <trkpt lat="42.377415" lon="-6.625139">
        <ele>928.04</ele>
        <time>2021-03-27T16:53:25Z</time>
      </trkpt>
      <trkpt lat="42.376641" lon="-6.626157">
        <ele>926.33</ele>
        <time>2021-03-27T16:53:26Z</time>
      </trkpt>
      <trkpt lat="42.376551" lon="-6.626228">
        <ele>923.62</ele>
        <time>2021-03-27T16:53:28Z</time>
      </trkpt>
      <trkpt lat="42.376486" lon="-6.626242">
        <ele>922.98</ele>
        <time>2021-03-27T16:53:30Z</time>
      </trkpt>
      <trkpt lat="42.37642" lon="-6.62623">
        <ele>923.34</ele>
        <time>2021-03-27T16:53:31Z</time>
      </trkpt>
      <trkpt lat="42.376319" lon="-6.626167">
        <ele>924.83</ele>
        <time>2021-03-27T16:53:33Z</time>
      </trkpt>
      <trkpt lat="42.37585" lon="-6.62564">
        <ele>927.11</ele>
        <time>2021-03-27T16:53:35Z</time>
      </trkpt>
      <trkpt lat="42.375685" lon="-6.625407">
        <ele>924.95</ele>
        <time>2021-03-27T16:53:37Z</time>
      </trkpt>
      <trkpt lat="42.375477" lon="-6.624879">
        <ele>922.92</ele>
        <time>2021-03-27T16:53:38Z</time>
      </trkpt>
      <trkpt lat="42.375157" lon="-6.623724">
        <ele>926.1</ele>
        <time>2021-03-27T16:53:40Z</time>
      </trkpt>
      <trkpt lat="42.375066" lon="-6.623497">
        <ele>926.97</ele>
        <time>2021-03-27T16:53:42Z</time>
      </trkpt>
      <trkpt lat="42.374673" lon="-6.62267">
        <ele>925.75</ele>
        <time>2021-03-27T16:53:43Z</time>
      </trkpt>
      <trkpt lat="42.374466" lon="-6.622171">
        <ele>923.7</ele>
        <time>2021-03-27T16:53:45Z</time>
      </trkpt>
      <trkpt lat="42.374242" lon="-6.62186">
        <ele>920.15</ele>
        <time>2021-03-27T16:53:47Z</time>
      </trkpt>
      <trkpt lat="42.37412" lon="-6.621555">
        <ele>923.6</ele>
        <time>2021-03-27T16:53:48Z</time>
      </trkpt>
      <trkpt lat="42.373881" lon="-6.621331">
        <ele>920.86</ele>
        <time>2021-03-27T16:53:50Z</time>
      </trkpt>
      <trkpt lat="42.373684" lon="-6.6211">
        <ele>918.68</ele>
        <time>2021-03-27T16:53:52Z</time>
      </trkpt>
      <trkpt lat="42.373344" lon="-6.620801">
        <ele>922.71</ele>
        <time>2021-03-27T16:53:54Z</time>
      </trkpt>
      <trkpt lat="42.373184" lon="-6.620749">
        <ele>923.45</ele>
        <time>2021-03-27T16:53:55Z</time>
      </trkpt>
      <trkpt lat="42.373085" lon="-6.620761">
        <ele>921.74</ele>
        <time>2021-03-27T16:53:57Z</time>
      </trkpt>
      <trkpt lat="42.37293" lon="-6.620827">
        <ele>915.15</ele>
        <time>2021-03-27T16:53:59Z</time>
      </trkpt>
      <trkpt lat="42.372649" lon="-6.620902">
        <ele>907.7</ele>
        <time>2021-03-27T16:54:00Z</time>
      </trkpt>
      <trkpt lat="42.37225" lon="-6.620888">
        <ele>915.62</ele>
        <time>2021-03-27T16:54:02Z</time>
      </trkpt>
      <trkpt lat="42.372046" lon="-6.620828">
        <ele>920.33</ele>
        <time>2021-03-27T16:54:04Z</time>
      </trkpt>
      <trkpt lat="42.371826" lon="-6.620806">
        <ele>922.06</ele>
        <time>2021-03-27T16:54:06Z</time>
      </trkpt>
      <trkpt lat="42.371631" lon="-6.620841">
        <ele>922.26</ele>
        <time>2021-03-27T16:54:07Z</time>
      </trkpt>
      <trkpt lat="42.371137" lon="-6.621014">
        <ele>921.88</ele>
        <time>2021-03-27T16:54:09Z</time>
      </trkpt>
      <trkpt lat="42.370988" lon="-6.621042">
        <ele>917.06</ele>
        <time>2021-03-27T16:54:11Z</time>
      </trkpt>
      <trkpt lat="42.370858" lon="-6.62104">
        <ele>914.4</ele>
        <time>2021-03-27T16:54:12Z</time>
      </trkpt>
      <trkpt lat="42.370695" lon="-6.620976">
        <ele>911.99</ele>
        <time>2021-03-27T16:54:14Z</time>
      </trkpt>
      <trkpt lat="42.370337" lon="-6.620754">
        <ele>913.19</ele>
        <time>2021-03-27T16:54:16Z</time>
      </trkpt>
      <trkpt lat="42.369905" lon="-6.620654">
        <ele>908.73</ele>
        <time>2021-03-27T16:54:18Z</time>
      </trkpt>
      <trkpt lat="42.369786" lon="-6.620598">
        <ele>911.15</ele>
        <time>2021-03-27T16:54:19Z</time>
      </trkpt>
      <trkpt lat="42.369363" lon="-6.620335">
        <ele>912.99</ele>
        <time>2021-03-27T16:54:21Z</time>
      </trkpt>
      <trkpt lat="42.368939" lon="-6.620222">
        <ele>899.68</ele>
        <time>2021-03-27T16:54:23Z</time>
      </trkpt>
      <trkpt lat="42.368836" lon="-6.620145">
        <ele>898.11</ele>
        <time>2021-03-27T16:54:24Z</time>
      </trkpt>
      <trkpt lat="42.368758" lon="-6.620051">
        <ele>898.08</ele>
        <time>2021-03-27T16:54:26Z</time>
      </trkpt>
      <trkpt lat="42.368712" lon="-6.619943">
        <ele>898.89</ele>
        <time>2021-03-27T16:54:28Z</time>
      </trkpt>
      <trkpt lat="42.368649" lon="-6.619748">
        <ele>899.25</ele>
        <time>2021-03-27T16:54:29Z</time>
      </trkpt>
      <trkpt lat="42.368618" lon="-6.619436">
        <ele>902.51</ele>
        <time>2021-03-27T16:54:31Z</time>
      </trkpt>
      <trkpt lat="42.368568" lon="-6.619224">
        <ele>906.4</ele>
        <time>2021-03-27T16:54:33Z</time>
      </trkpt>
      <trkpt lat="42.368496" lon="-6.619117">
        <ele>907.75</ele>
        <time>2021-03-27T16:54:35Z</time>
      </trkpt>
      <trkpt lat="42.368409" lon="-6.619072">
        <ele>907.38</ele>
        <time>2021-03-27T16:54:36Z</time>
      </trkpt>
      <trkpt lat="42.368135" lon="-6.619045">
        <ele>901.82</ele>
        <time>2021-03-27T16:54:38Z</time>
      </trkpt>
      <trkpt lat="42.367977" lon="-6.61905">
        <ele>897.64</ele>
        <time>2021-03-27T16:54:40Z</time>
      </trkpt>
      <trkpt lat="42.367828" lon="-6.619094">
        <ele>892.15</ele>
        <time>2021-03-27T16:54:41Z</time>
      </trkpt>
      <trkpt lat="42.367618" lon="-6.619087">
        <ele>888.6</ele>
        <time>2021-03-27T16:54:43Z</time>
      </trkpt>
      <trkpt lat="42.367538" lon="-6.619031">
        <ele>888.67</ele>
        <time>2021-03-27T16:54:45Z</time>
      </trkpt>
      <trkpt lat="42.367447" lon="-6.618927">
        <ele>887.94</ele>
        <time>2021-03-27T16:54:47Z</time>
      </trkpt>
      <trkpt lat="42.366651" lon="-6.617532">
        <ele>880.39</ele>
        <time>2021-03-27T16:54:48Z</time>
      </trkpt>
      <trkpt lat="42.366277" lon="-6.617142">
        <ele>874.09</ele>
        <time>2021-03-27T16:54:50Z</time>
      </trkpt>
      <trkpt lat="42.365884" lon="-6.616814">
        <ele>871.05</ele>
        <time>2021-03-27T16:54:52Z</time>
      </trkpt>
      <trkpt lat="42.365627" lon="-6.616653">
        <ele>867.59</ele>
        <time>2021-03-27T16:54:53Z</time>
      </trkpt>
      <trkpt lat="42.365501" lon="-6.616543">
        <ele>863.99</ele>
        <time>2021-03-27T16:54:55Z</time>
      </trkpt>
      <trkpt lat="42.365362" lon="-6.616359">
        <ele>858.84</ele>
        <time>2021-03-27T16:54:57Z</time>
      </trkpt>
      <trkpt lat="42.365198" lon="-6.616079">
        <ele>856.41</ele>
        <time>2021-03-27T16:54:58Z</time>
      </trkpt>
      <trkpt lat="42.365015" lon="-6.61566">
        <ele>852.27</ele>
        <time>2021-03-27T16:55:00Z</time>
      </trkpt>
      <trkpt lat="42.364956" lon="-6.615465">
        <ele>852.41</ele>
        <time>2021-03-27T16:55:02Z</time>
      </trkpt>
      <trkpt lat="42.364902" lon="-6.61526">
        <ele>853.36</ele>
        <time>2021-03-27T16:55:04Z</time>
      </trkpt>
      <trkpt lat="42.364839" lon="-6.614888">
        <ele>854.94</ele>
        <time>2021-03-27T16:55:05Z</time>
      </trkpt>
      <trkpt lat="42.36472" lon="-6.613817">
        <ele>851.67</ele>
        <time>2021-03-27T16:55:07Z</time>
      </trkpt>
      <trkpt lat="42.36446" lon="-6.612892">
        <ele>840.12</ele>
        <time>2021-03-27T16:55:09Z</time>
      </trkpt>
      <trkpt lat="42.364229" lon="-6.612196">
        <ele>834.07</ele>
        <time>2021-03-27T16:55:10Z</time>
      </trkpt>
      <trkpt lat="42.364186" lon="-6.611943">
        <ele>831.03</ele>
        <time>2021-03-27T16:55:12Z</time>
      </trkpt>
      <trkpt lat="42.364168" lon="-6.611707">
        <ele>828.36</ele>
        <time>2021-03-27T16:55:14Z</time>
      </trkpt>
      <trkpt lat="42.364165" lon="-6.611419">
        <ele>827.03</ele>
        <time>2021-03-27T16:55:16Z</time>
      </trkpt>
      <trkpt lat="42.364191" lon="-6.611261">
        <ele>826.46</ele>
        <time>2021-03-27T16:55:17Z</time>
      </trkpt>
      <trkpt lat="42.364229" lon="-6.611154">
        <ele>826.36</ele>
        <time>2021-03-27T16:55:19Z</time>
      </trkpt>
      <trkpt lat="42.364314" lon="-6.611057">
        <ele>828.1</ele>
        <time>2021-03-27T16:55:21Z</time>
      </trkpt>
      <trkpt lat="42.364376" lon="-6.611017">
        <ele>829.26</ele>
        <time>2021-03-27T16:55:22Z</time>
      </trkpt>
      <trkpt lat="42.364576" lon="-6.610955">
        <ele>833.42</ele>
        <time>2021-03-27T16:55:24Z</time>
      </trkpt>
      <trkpt lat="42.364675" lon="-6.610856">
        <ele>833.58</ele>
        <time>2021-03-27T16:55:26Z</time>
      </trkpt>
      <trkpt lat="42.364835" lon="-6.610555">
        <ele>832.65</ele>
        <time>2021-03-27T16:55:27Z</time>
      </trkpt>
      <trkpt lat="42.364896" lon="-6.610395">
        <ele>834.12</ele>
        <time>2021-03-27T16:55:29Z</time>
      </trkpt>
      <trkpt lat="42.364916" lon="-6.610169">
        <ele>836.11</ele>
        <time>2021-03-27T16:55:31Z</time>
      </trkpt>
      <trkpt lat="42.364882" lon="-6.610113">
        <ele>836.58</ele>
        <time>2021-03-27T16:55:33Z</time>
      </trkpt>
      <trkpt lat="42.364831" lon="-6.610086">
        <ele>836.37</ele>
        <time>2021-03-27T16:55:34Z</time>
      </trkpt>
      <trkpt lat="42.364737" lon="-6.610118">
        <ele>834.25</ele>
        <time>2021-03-27T16:55:36Z</time>
      </trkpt>
      <trkpt lat="42.364364" lon="-6.610395">
        <ele>828.99</ele>
        <time>2021-03-27T16:55:38Z</time>
      </trkpt>
      <trkpt lat="42.36396" lon="-6.610466">
        <ele>834.15</ele>
        <time>2021-03-27T16:55:39Z</time>
      </trkpt>
      <trkpt lat="42.363602" lon="-6.610488">
        <ele>828.8</ele>
        <time>2021-03-27T16:55:41Z</time>
      </trkpt>
      <trkpt lat="42.363356" lon="-6.610456">
        <ele>826.66</ele>
        <time>2021-03-27T16:55:43Z</time>
      </trkpt>
      <trkpt lat="42.36303" lon="-6.610458">
        <ele>823.73</ele>
        <time>2021-03-27T16:55:45Z</time>
      </trkpt>
      <trkpt lat="42.36223" lon="-6.610541">
        <ele>830.63</ele>
        <time>2021-03-27T16:55:46Z</time>
      </trkpt>
      <trkpt lat="42.362058" lon="-6.610574">
        <ele>827.99</ele>
        <time>2021-03-27T16:55:48Z</time>
      </trkpt>
      <trkpt lat="42.361958" lon="-6.610564">
        <ele>827.73</ele>
        <time>2021-03-27T16:55:50Z</time>
      </trkpt>
      <trkpt lat="42.361205" lon="-6.610088">
        <ele>824.97</ele>
        <time>2021-03-27T16:55:51Z</time>
      </trkpt>
      <trkpt lat="42.360877" lon="-6.609789">
        <ele>820.96</ele>
        <time>2021-03-27T16:55:53Z</time>
      </trkpt>
      <trkpt lat="42.360743" lon="-6.609494">
        <ele>823.75</ele>
        <time>2021-03-27T16:55:55Z</time>
      </trkpt>
      <trkpt lat="42.36061" lon="-6.60925">
        <ele>823.25</ele>
        <time>2021-03-27T16:55:57Z</time>
      </trkpt>
      <trkpt lat="42.360491" lon="-6.609104">
        <ele>822.65</ele>
        <time>2021-03-27T16:55:58Z</time>
      </trkpt>
      <trkpt lat="42.360247" lon="-6.608863">
        <ele>823.39</ele>
        <time>2021-03-27T16:56:00Z</time>
      </trkpt>
      <trkpt lat="42.36019" lon="-6.608847">
        <ele>824.33</ele>
        <time>2021-03-27T16:56:02Z</time>
      </trkpt>
      <trkpt lat="42.360116" lon="-6.608861">
        <ele>823.87</ele>
        <time>2021-03-27T16:56:03Z</time>
      </trkpt>
      <trkpt lat="42.359898" lon="-6.608964">
        <ele>820.4</ele>
        <time>2021-03-27T16:56:05Z</time>
      </trkpt>
      <trkpt lat="42.359526" lon="-6.609184">
        <ele>812.26</ele>
        <time>2021-03-27T16:56:07Z</time>
      </trkpt>
      <trkpt lat="42.35947" lon="-6.609196">
        <ele>811.22</ele>
        <time>2021-03-27T16:56:08Z</time>
      </trkpt>
      <trkpt lat="42.359426" lon="-6.609181">
        <ele>810.95</ele>
        <time>2021-03-27T16:56:10Z</time>
      </trkpt>
      <trkpt lat="42.359353" lon="-6.609123">
        <ele>810.41</ele>
        <time>2021-03-27T16:56:12Z</time>
      </trkpt>
      <trkpt lat="42.359192" lon="-6.608869">
        <ele>813.05</ele>
        <time>2021-03-27T16:56:14Z</time>
      </trkpt>
      <trkpt lat="42.359113" lon="-6.608657">
        <ele>815.49</ele>
        <time>2021-03-27T16:56:15Z</time>
      </trkpt>
      <trkpt lat="42.358887" lon="-6.608193">
        <ele>810.39</ele>
        <time>2021-03-27T16:56:17Z</time>
      </trkpt>
      <trkpt lat="42.358853" lon="-6.607753">
        <ele>809.02</ele>
        <time>2021-03-27T16:56:19Z</time>
      </trkpt>
      <trkpt lat="42.358817" lon="-6.607517">
        <ele>807.8</ele>
        <time>2021-03-27T16:56:20Z</time>
      </trkpt>
      <trkpt lat="42.358462" lon="-6.606037">
        <ele>806.6</ele>
        <time>2021-03-27T16:56:22Z</time>
      </trkpt>
      <trkpt lat="42.358377" lon="-6.605782">
        <ele>807.81</ele>
        <time>2021-03-27T16:56:24Z</time>
      </trkpt>
      <trkpt lat="42.358071" lon="-6.605077">
        <ele>806.57</ele>
        <time>2021-03-27T16:56:26Z</time>
      </trkpt>
      <trkpt lat="42.357846" lon="-6.604468">
        <ele>806.83</ele>
        <time>2021-03-27T16:56:27Z</time>
      </trkpt>
      <trkpt lat="42.357663" lon="-6.60408">
        <ele>811.51</ele>
        <time>2021-03-27T16:56:29Z</time>
      </trkpt>
      <trkpt lat="42.357616" lon="-6.604055">
        <ele>811.12</ele>
        <time>2021-03-27T16:56:31Z</time>
      </trkpt>
      <trkpt lat="42.357556" lon="-6.604051">
        <ele>809.74</ele>
        <time>2021-03-27T16:56:32Z</time>
      </trkpt>
      <trkpt lat="42.357504" lon="-6.604071">
        <ele>808.46</ele>
        <time>2021-03-27T16:56:34Z</time>
      </trkpt>
      <trkpt lat="42.357482" lon="-6.604134">
        <ele>808.41</ele>
        <time>2021-03-27T16:56:36Z</time>
      </trkpt>
      <trkpt lat="42.357478" lon="-6.604208">
        <ele>807.96</ele>
        <time>2021-03-27T16:56:37Z</time>
      </trkpt>
      <trkpt lat="42.357631" lon="-6.605685">
        <ele>817.41</ele>
        <time>2021-03-27T16:56:39Z</time>
      </trkpt>
      <trkpt lat="42.357656" lon="-6.606363">
        <ele>829.68</ele>
        <time>2021-03-27T16:56:41Z</time>
      </trkpt>
      <trkpt lat="42.357651" lon="-6.607285">
        <ele>832.73</ele>
        <time>2021-03-27T16:56:43Z</time>
      </trkpt>
      <trkpt lat="42.357641" lon="-6.607378">
        <ele>832.75</ele>
        <time>2021-03-27T16:56:44Z</time>
      </trkpt>
      <trkpt lat="42.357593" lon="-6.607562">
        <ele>834.31</ele>
        <time>2021-03-27T16:56:46Z</time>
      </trkpt>
      <trkpt lat="42.357538" lon="-6.607949">
        <ele>837.45</ele>
        <time>2021-03-27T16:56:48Z</time>
      </trkpt>
      <trkpt lat="42.357472" lon="-6.608594">
        <ele>844.13</ele>
        <time>2021-03-27T16:56:49Z</time>
      </trkpt>
      <trkpt lat="42.35743" lon="-6.608804">
        <ele>849.3</ele>
        <time>2021-03-27T16:56:51Z</time>
      </trkpt>
      <trkpt lat="42.35741" lon="-6.609139">
        <ele>854.48</ele>
        <time>2021-03-27T16:56:53Z</time>
      </trkpt>
      <trkpt lat="42.357416" lon="-6.609344">
        <ele>858.82</ele>
        <time>2021-03-27T16:56:55Z</time>
      </trkpt>
      <trkpt lat="42.357476" lon="-6.609891">
        <ele>859.51</ele>
        <time>2021-03-27T16:56:56Z</time>
      </trkpt>
      <trkpt lat="42.357483" lon="-6.610253">
        <ele>864.89</ele>
        <time>2021-03-27T16:56:58Z</time>
      </trkpt>
      <trkpt lat="42.357565" lon="-6.611721">
        <ele>880.4</ele>
        <time>2021-03-27T16:57:00Z</time>
      </trkpt>
      <trkpt lat="42.357678" lon="-6.612102">
        <ele>878.95</ele>
        <time>2021-03-27T16:57:01Z</time>
      </trkpt>
      <trkpt lat="42.357651" lon="-6.612206">
        <ele>878.54</ele>
        <time>2021-03-27T16:57:03Z</time>
      </trkpt>
      <trkpt lat="42.357617" lon="-6.612236">
        <ele>878.46</ele>
        <time>2021-03-27T16:57:05Z</time>
      </trkpt>
      <trkpt lat="42.357546" lon="-6.612254">
        <ele>878.45</ele>
        <time>2021-03-27T16:57:06Z</time>
      </trkpt>
      <trkpt lat="42.357322" lon="-6.612166">
        <ele>879.15</ele>
        <time>2021-03-27T16:57:08Z</time>
      </trkpt>
      <trkpt lat="42.357139" lon="-6.612062">
        <ele>880.46</ele>
        <time>2021-03-27T16:57:10Z</time>
      </trkpt>
      <trkpt lat="42.357024" lon="-6.611974">
        <ele>881.68</ele>
        <time>2021-03-27T16:57:12Z</time>
      </trkpt>
      <trkpt lat="42.356962" lon="-6.611842">
        <ele>884.23</ele>
        <time>2021-03-27T16:57:13Z</time>
      </trkpt>
      <trkpt lat="42.356938" lon="-6.611728">
        <ele>886.53</ele>
        <time>2021-03-27T16:57:15Z</time>
      </trkpt>
      <trkpt lat="42.356945" lon="-6.611616">
        <ele>889.09</ele>
        <time>2021-03-27T16:57:17Z</time>
      </trkpt>
      <trkpt lat="42.357068" lon="-6.611216">
        <ele>895.91</ele>
        <time>2021-03-27T16:57:18Z</time>
      </trkpt>
      <trkpt lat="42.357092" lon="-6.611029">
        <ele>897.4</ele>
        <time>2021-03-27T16:57:20Z</time>
      </trkpt>
      <trkpt lat="42.357089" lon="-6.610866">
        <ele>897.74</ele>
        <time>2021-03-27T16:57:22Z</time>
      </trkpt>
      <trkpt lat="42.357044" lon="-6.610679">
        <ele>898.46</ele>
        <time>2021-03-27T16:57:24Z</time>
      </trkpt>
      <trkpt lat="42.356959" lon="-6.610433">
        <ele>900.46</ele>
        <time>2021-03-27T16:57:25Z</time>
      </trkpt>
      <trkpt lat="42.35671" lon="-6.609888">
        <ele>904.73</ele>
        <time>2021-03-27T16:57:27Z</time>
      </trkpt>
      <trkpt lat="42.356433" lon="-6.609748">
        <ele>910.0</ele>
        <time>2021-03-27T16:57:29Z</time>
      </trkpt>
      <trkpt lat="42.355361" lon="-6.609019">
        <ele>909.03</ele>
        <time>2021-03-27T16:57:30Z</time>
      </trkpt>
      <trkpt lat="42.354948" lon="-6.608655">
        <ele>906.55</ele>
        <time>2021-03-27T16:57:32Z</time>
      </trkpt>
      <trkpt lat="42.354527" lon="-6.608142">
        <ele>907.7</ele>
        <time>2021-03-27T16:57:34Z</time>
      </trkpt>
      <trkpt lat="42.35406" lon="-6.607375">
        <ele>918.89</ele>
        <time>2021-03-27T16:57:36Z</time>
      </trkpt>
      <trkpt lat="42.353951" lon="-6.607139">
        <ele>919.02</ele>
        <time>2021-03-27T16:57:37Z</time>
      </trkpt>
      <trkpt lat="42.353871" lon="-6.606931">
        <ele>919.4</ele>
        <time>2021-03-27T16:57:39Z</time>
      </trkpt>
      <trkpt lat="42.353852" lon="-6.606826">
        <ele>920.35</ele>
        <time>2021-03-27T16:57:41Z</time>
      </trkpt>
      <trkpt lat="42.353849" lon="-6.606469">
        <ele>926.85</ele>
        <time>2021-03-27T16:57:42Z</time>
      </trkpt>
      <trkpt lat="42.353826" lon="-6.606363">
        <ele>928.37</ele>
        <time>2021-03-27T16:57:44Z</time>
      </trkpt>
      <trkpt lat="42.353763" lon="-6.606248">
        <ele>929.78</ele>
        <time>2021-03-27T16:57:46Z</time>
      </trkpt>
      <trkpt lat="42.353652" lon="-6.606145">
        <ele>929.27</ele>
        <time>2021-03-27T16:57:47Z</time>
      </trkpt>
      <trkpt lat="42.353311" lon="-6.605936">
        <ele>930.9</ele>
        <time>2021-03-27T16:57:49Z</time>
      </trkpt>
      <trkpt lat="42.353022" lon="-6.605864">
        <ele>930.42</ele>
        <time>2021-03-27T16:57:51Z</time>
      </trkpt>
      <trkpt lat="42.352756" lon="-6.605771">
        <ele>931.7</ele>
        <time>2021-03-27T16:57:53Z</time>
      </trkpt>
      <trkpt lat="42.352226" lon="-6.605537">
        <ele>929.2</ele>
        <time>2021-03-27T16:57:54Z</time>
      </trkpt>
      <trkpt lat="42.351501" lon="-6.605084">
        <ele>928.76</ele>
        <time>2021-03-27T16:57:56Z</time>
      </trkpt>
      <trkpt lat="42.351227" lon="-6.604869">
        <ele>931.42</ele>
        <time>2021-03-27T16:57:58Z</time>
      </trkpt>
      <trkpt lat="42.351041" lon="-6.604688">
        <ele>933.19</ele>
        <time>2021-03-27T16:57:59Z</time>
      </trkpt>
      <trkpt lat="42.350865" lon="-6.60445">
        <ele>937.26</ele>
        <time>2021-03-27T16:58:01Z</time>
      </trkpt>
      <trkpt lat="42.35074" lon="-6.604233">
        <ele>938.64</ele>
        <time>2021-03-27T16:58:03Z</time>
      </trkpt>
      <trkpt lat="42.350576" lon="-6.603811">
        <ele>938.31</ele>
        <time>2021-03-27T16:58:05Z</time>
      </trkpt>
      <trkpt lat="42.349901" lon="-6.60175">
        <ele>944.11</ele>
        <time>2021-03-27T16:58:06Z</time>
      </trkpt>
      <trkpt lat="42.349818" lon="-6.60144">
        <ele>947.59</ele>
        <time>2021-03-27T16:58:08Z</time>
      </trkpt>
      <trkpt lat="42.349768" lon="-6.601176">
        <ele>947.03</ele>
        <time>2021-03-27T16:58:10Z</time>
      </trkpt>
      <trkpt lat="42.349702" lon="-6.600307">
        <ele>951.99</ele>
        <time>2021-03-27T16:58:11Z</time>
      </trkpt>
      <trkpt lat="42.349647" lon="-6.600015">
        <ele>949.08</ele>
        <time>2021-03-27T16:58:13Z</time>
      </trkpt>
      <trkpt lat="42.349607" lon="-6.599521">
        <ele>947.21</ele>
        <time>2021-03-27T16:58:15Z</time>
      </trkpt>
      <trkpt lat="42.349629" lon="-6.599346">
        <ele>948.33</ele>
        <time>2021-03-27T16:58:16Z</time>
      </trkpt>
      <trkpt lat="42.349794" lon="-6.598799">
        <ele>955.73</ele>
        <time>2021-03-27T16:58:18Z</time>
      </trkpt>
      <trkpt lat="42.349821" lon="-6.598656">
        <ele>956.5</ele>
        <time>2021-03-27T16:58:20Z</time>
      </trkpt>
      <trkpt lat="42.34982" lon="-6.598503">
        <ele>956.84</ele>
        <time>2021-03-27T16:58:22Z</time>
      </trkpt>
      <trkpt lat="42.349789" lon="-6.598332">
        <ele>955.61</ele>
        <time>2021-03-27T16:58:23Z</time>
      </trkpt>
      <trkpt lat="42.349673" lon="-6.598009">
        <ele>950.82</ele>
        <time>2021-03-27T16:58:25Z</time>
      </trkpt>
      <trkpt lat="42.349645" lon="-6.597848">
        <ele>950.87</ele>
        <time>2021-03-27T16:58:27Z</time>
      </trkpt>
      <trkpt lat="42.349287" lon="-6.596506">
        <ele>939.16</ele>
        <time>2021-03-27T16:58:28Z</time>
      </trkpt>
      <trkpt lat="42.349168" lon="-6.595898">
        <ele>941.12</ele>
        <time>2021-03-27T16:58:30Z</time>
      </trkpt>
      <trkpt lat="42.348982" lon="-6.594362">
        <ele>944.65</ele>
        <time>2021-03-27T16:58:32Z</time>
      </trkpt>
      <trkpt lat="42.34875" lon="-6.592869">
        <ele>938.0</ele>
        <time>2021-03-27T16:58:34Z</time>
      </trkpt>
      <trkpt lat="42.348617" lon="-6.591289">
        <ele>941.11</ele>
        <time>2021-03-27T16:58:35Z</time>
      </trkpt>
      <trkpt lat="42.348172" lon="-6.589352">
        <ele>942.31</ele>
        <time>2021-03-27T16:58:37Z</time>
      </trkpt>
      <trkpt lat="42.348059" lon="-6.5884">
        <ele>949.49</ele>
        <time>2021-03-27T16:58:39Z</time>
      </trkpt>
      <trkpt lat="42.347979" lon="-6.587857">
        <ele>949.92</ele>
        <time>2021-03-27T16:58:40Z</time>
      </trkpt>
      <trkpt lat="42.347841" lon="-6.58751">
        <ele>950.19</ele>
        <time>2021-03-27T16:58:42Z</time>
      </trkpt>
      <trkpt lat="42.347702" lon="-6.587303">
        <ele>946.81</ele>
        <time>2021-03-27T16:58:44Z</time>
      </trkpt>
      <trkpt lat="42.347512" lon="-6.587088">
        <ele>941.53</ele>
        <time>2021-03-27T16:58:46Z</time>
      </trkpt>
      <trkpt lat="42.347273" lon="-6.586881">
        <ele>943.56</ele>
        <time>2021-03-27T16:58:47Z</time>
      </trkpt>
      <trkpt lat="42.347083" lon="-6.586676">
        <ele>946.74</ele>
        <time>2021-03-27T16:58:49Z</time>
      </trkpt>
      <trkpt lat="42.346781" lon="-6.586233">
        <ele>946.31</ele>
        <time>2021-03-27T16:58:51Z</time>
      </trkpt>
      <trkpt lat="42.346584" lon="-6.585755">
        <ele>949.07</ele>
        <time>2021-03-27T16:58:52Z</time>
      </trkpt>
      <trkpt lat="42.346418" lon="-6.585215">
        <ele>953.12</ele>
        <time>2021-03-27T16:58:54Z</time>
      </trkpt>
      <trkpt lat="42.346345" lon="-6.584821">
        <ele>951.25</ele>
        <time>2021-03-27T16:58:56Z</time>
      </trkpt>
      <trkpt lat="42.346302" lon="-6.584465">
        <ele>950.85</ele>
        <time>2021-03-27T16:58:57Z</time>
      </trkpt>
      <trkpt lat="42.346318" lon="-6.583718">
        <ele>953.26</ele>
        <time>2021-03-27T16:58:59Z</time>
      </trkpt>
      <trkpt lat="42.34649" lon="-6.582488">
        <ele>959.08</ele>
        <time>2021-03-27T16:59:01Z</time>
      </trkpt>
      <trkpt lat="42.3466" lon="-6.582088">
        <ele>963.76</ele>
        <time>2021-03-27T16:59:03Z</time>
      </trkpt>
      <trkpt lat="42.346799" lon="-6.581632">
        <ele>971.76</ele>
        <time>2021-03-27T16:59:04Z</time>
      </trkpt>
      <trkpt lat="42.346907" lon="-6.581288">
        <ele>975.55</ele>
        <time>2021-03-27T16:59:06Z</time>
      </trkpt>
      <trkpt lat="42.346999" lon="-6.580735">
        <ele>976.45</ele>
        <time>2021-03-27T16:59:08Z</time>
      </trkpt>
      <trkpt lat="42.347071" lon="-6.580423">
        <ele>975.67</ele>
        <time>2021-03-27T16:59:09Z</time>
      </trkpt>
      <trkpt lat="42.34714" lon="-6.580245">
        <ele>975.9</ele>
        <time>2021-03-27T16:59:11Z</time>
      </trkpt>
      <trkpt lat="42.3472" lon="-6.580153">
        <ele>976.52</ele>
        <time>2021-03-27T16:59:13Z</time>
      </trkpt>
      <trkpt lat="42.347373" lon="-6.579964">
        <ele>979.7</ele>
        <time>2021-03-27T16:59:15Z</time>
      </trkpt>
      <trkpt lat="42.348573" lon="-6.579144">
        <ele>995.18</ele>
        <time>2021-03-27T16:59:16Z</time>
      </trkpt>
      <trkpt lat="42.348759" lon="-6.5789">
        <ele>996.65</ele>
        <time>2021-03-27T16:59:18Z</time>
      </trkpt>
      <trkpt lat="42.348906" lon="-6.57866">
        <ele>997.92</ele>
        <time>2021-03-27T16:59:20Z</time>
      </trkpt>
      <trkpt lat="42.349084" lon="-6.578292">
        <ele>998.13</ele>
        <time>2021-03-27T16:59:21Z</time>
      </trkpt>
      <trkpt lat="42.3492" lon="-6.57799">
        <ele>997.09</ele>
        <time>2021-03-27T16:59:23Z</time>
      </trkpt>
      <trkpt lat="42.349371" lon="-6.577464">
        <ele>997.93</ele>
        <time>2021-03-27T16:59:25Z</time>
      </trkpt>
      <trkpt lat="42.349579" lon="-6.576949">
        <ele>995.93</ele>
        <time>2021-03-27T16:59:26Z</time>
      </trkpt>
      <trkpt lat="42.349783" lon="-6.576576">
        <ele>997.34</ele>
        <time>2021-03-27T16:59:28Z</time>
      </trkpt>
      <trkpt lat="42.349901" lon="-6.576446">
        <ele>998.82</ele>
        <time>2021-03-27T16:59:30Z</time>
      </trkpt>
      <trkpt lat="42.350223" lon="-6.576157">
        <ele>1007.36</ele>
        <time>2021-03-27T16:59:32Z</time>
      </trkpt>
      <trkpt lat="42.350246" lon="-6.576084">
        <ele>1007.88</ele>
        <time>2021-03-27T16:59:33Z</time>
      </trkpt>
      <trkpt lat="42.350243" lon="-6.575984">
        <ele>1007.86</ele>
        <time>2021-03-27T16:59:35Z</time>
      </trkpt>
      <trkpt lat="42.350222" lon="-6.575898">
        <ele>1007.3</ele>
        <time>2021-03-27T16:59:37Z</time>
      </trkpt>
      <trkpt lat="42.350163" lon="-6.575831">
        <ele>1005.75</ele>
        <time>2021-03-27T16:59:38Z</time>
      </trkpt>
      <trkpt lat="42.349484" lon="-6.575425">
        <ele>1004.6</ele>
        <time>2021-03-27T16:59:40Z</time>
      </trkpt>
      <trkpt lat="42.349326" lon="-6.575381">
        <ele>1005.49</ele>
        <time>2021-03-27T16:59:42Z</time>
      </trkpt>
      <trkpt lat="42.34899" lon="-6.575337">
        <ele>1004.6</ele>
        <time>2021-03-27T16:59:44Z</time>
      </trkpt>
      <trkpt lat="42.348208" lon="-6.575159">
        <ele>1011.77</ele>
        <time>2021-03-27T16:59:45Z</time>
      </trkpt>
      <trkpt lat="42.348064" lon="-6.575151">
        <ele>1011.43</ele>
        <time>2021-03-27T16:59:47Z</time>
      </trkpt>
      <trkpt lat="42.347835" lon="-6.575202">
        <ele>1004.56</ele>
        <time>2021-03-27T16:59:49Z</time>
      </trkpt>
      <trkpt lat="42.347719" lon="-6.575165">
        <ele>1004.1</ele>
        <time>2021-03-27T16:59:50Z</time>
      </trkpt>
      <trkpt lat="42.346461" lon="-6.574587">
        <ele>999.56</ele>
        <time>2021-03-27T16:59:52Z</time>
      </trkpt>
      <trkpt lat="42.346073" lon="-6.574509">
        <ele>1000.86</ele>
        <time>2021-03-27T16:59:54Z</time>
      </trkpt>
      <trkpt lat="42.345672" lon="-6.574349">
        <ele>993.28</ele>
        <time>2021-03-27T16:59:55Z</time>
      </trkpt>
      <trkpt lat="42.345564" lon="-6.574252">
        <ele>991.03</ele>
        <time>2021-03-27T16:59:57Z</time>
      </trkpt>
      <trkpt lat="42.34545" lon="-6.574033">
        <ele>989.93</ele>
        <time>2021-03-27T16:59:59Z</time>
      </trkpt>
      <trkpt lat="42.345361" lon="-6.573809">
        <ele>990.03</ele>
        <time>2021-03-27T17:00:01Z</time>
      </trkpt>
      <trkpt lat="42.345241" lon="-6.573418">
        <ele>988.28</ele>
        <time>2021-03-27T17:00:02Z</time>
      </trkpt>
      <trkpt lat="42.345145" lon="-6.572783">
        <ele>985.34</ele>
        <time>2021-03-27T17:00:04Z</time>
      </trkpt>
      <trkpt lat="42.344938" lon="-6.57206">
        <ele>990.95</ele>
        <time>2021-03-27T17:00:06Z</time>
      </trkpt>
      <trkpt lat="42.344836" lon="-6.571759">
        <ele>993.28</ele>
        <time>2021-03-27T17:00:07Z</time>
      </trkpt>
      <trkpt lat="42.344749" lon="-6.571596">
        <ele>993.18</ele>
        <time>2021-03-27T17:00:09Z</time>
      </trkpt>
      <trkpt lat="42.344521" lon="-6.571307">
        <ele>987.05</ele>
        <time>2021-03-27T17:00:11Z</time>
      </trkpt>
      <trkpt lat="42.344454" lon="-6.571184">
        <ele>985.08</ele>
        <time>2021-03-27T17:00:13Z</time>
      </trkpt>
      <trkpt lat="42.344401" lon="-6.571035">
        <ele>983.03</ele>
        <time>2021-03-27T17:00:14Z</time>
      </trkpt>
      <trkpt lat="42.343902" lon="-6.569242">
        <ele>971.47</ele>
        <time>2021-03-27T17:00:16Z</time>
      </trkpt>
      <trkpt lat="42.343798" lon="-6.568601">
        <ele>971.9</ele>
        <time>2021-03-27T17:00:18Z</time>
      </trkpt>
      <trkpt lat="42.34366" lon="-6.568094">
        <ele>971.84</ele>
        <time>2021-03-27T17:00:19Z</time>
      </trkpt>
      <trkpt lat="42.343437" lon="-6.567574">
        <ele>965.35</ele>
        <time>2021-03-27T17:00:21Z</time>
      </trkpt>
      <trkpt lat="42.343159" lon="-6.567065">
        <ele>965.74</ele>
        <time>2021-03-27T17:00:23Z</time>
      </trkpt>
      <trkpt lat="42.342972" lon="-6.566631">
        <ele>959.26</ele>
        <time>2021-03-27T17:00:25Z</time>
      </trkpt>
      <trkpt lat="42.342945" lon="-6.566492">
        <ele>958.13</ele>
        <time>2021-03-27T17:00:26Z</time>
      </trkpt>
      <trkpt lat="42.342891" lon="-6.565876">
        <ele>954.46</ele>
        <time>2021-03-27T17:00:28Z</time>
      </trkpt>
      <trkpt lat="42.342839" lon="-6.565113">
        <ele>955.55</ele>
        <time>2021-03-27T17:00:30Z</time>
      </trkpt>
      <trkpt lat="42.342826" lon="-6.564672">
        <ele>954.84</ele>
        <time>2021-03-27T17:00:31Z</time>
      </trkpt>
      <trkpt lat="42.342841" lon="-6.56443">
        <ele>951.82</ele>
        <time>2021-03-27T17:00:33Z</time>
      </trkpt>
      <trkpt lat="42.342927" lon="-6.564202">
        <ele>950.41</ele>
        <time>2021-03-27T17:00:35Z</time>
      </trkpt>
      <trkpt lat="42.343035" lon="-6.564035">
        <ele>948.76</ele>
        <time>2021-03-27T17:00:36Z</time>
      </trkpt>
      <trkpt lat="42.343207" lon="-6.56391">
        <ele>950.05</ele>
        <time>2021-03-27T17:00:38Z</time>
      </trkpt>
      <trkpt lat="42.343463" lon="-6.563788">
        <ele>954.38</ele>
        <time>2021-03-27T17:00:40Z</time>
      </trkpt>
      <trkpt lat="42.343539" lon="-6.563731">
        <ele>955.56</ele>
        <time>2021-03-27T17:00:42Z</time>
      </trkpt>
      <trkpt lat="42.343584" lon="-6.56362">
        <ele>954.09</ele>
        <time>2021-03-27T17:00:43Z</time>
      </trkpt>
      <trkpt lat="42.343607" lon="-6.563265">
        <ele>948.84</ele>
        <time>2021-03-27T17:00:45Z</time>
      </trkpt>
      <trkpt lat="42.343628" lon="-6.562399">
        <ele>947.49</ele>
        <time>2021-03-27T17:00:47Z</time>
      </trkpt>
      <trkpt lat="42.343592" lon="-6.561837">
        <ele>942.22</ele>
        <time>2021-03-27T17:00:48Z</time>
      </trkpt>
      <trkpt lat="42.343597" lon="-6.561571">
        <ele>940.14</ele>
        <time>2021-03-27T17:00:50Z</time>
      </trkpt>
      <trkpt lat="42.343937" lon="-6.560072">
        <ele>936.63</ele>
        <time>2021-03-27T17:00:52Z</time>
      </trkpt>
      <trkpt lat="42.344053" lon="-6.559772">
        <ele>936.94</ele>
        <time>2021-03-27T17:00:54Z</time>
      </trkpt>
      <trkpt lat="42.344434" lon="-6.558321">
        <ele>926.17</ele>
        <time>2021-03-27T17:00:55Z</time>
      </trkpt>
      <trkpt lat="42.344504" lon="-6.558169">
        <ele>926.2</ele>
        <time>2021-03-27T17:00:57Z</time>
      </trkpt>
      <trkpt lat="42.344627" lon="-6.557966">
        <ele>926.21</ele>
        <time>2021-03-27T17:00:59Z</time>
      </trkpt>
      <trkpt lat="42.34481" lon="-6.557808">
        <ele>930.6</ele>
        <time>2021-03-27T17:01:00Z</time>
      </trkpt>
      <trkpt lat="42.344856" lon="-6.557731">
        <ele>932.08</ele>
        <time>2021-03-27T17:01:02Z</time>
      </trkpt>
      <trkpt lat="42.344879" lon="-6.55763">
        <ele>932.26</ele>
        <time>2021-03-27T17:01:04Z</time>
      </trkpt>
      <trkpt lat="42.344927" lon="-6.556612">
        <ele>921.49</ele>
        <time>2021-03-27T17:01:05Z</time>
      </trkpt>
      <trkpt lat="42.345001" lon="-6.555997">
        <ele>923.81</ele>
        <time>2021-03-27T17:01:07Z</time>
      </trkpt>
      <trkpt lat="42.345036" lon="-6.55583">
        <ele>923.48</ele>
        <time>2021-03-27T17:01:09Z</time>
      </trkpt>
      <trkpt lat="42.345122" lon="-6.555708">
        <ele>924.17</ele>
        <time>2021-03-27T17:01:11Z</time>
      </trkpt>
      <trkpt lat="42.345255" lon="-6.555627">
        <ele>927.2</ele>
        <time>2021-03-27T17:01:12Z</time>
      </trkpt>
      <trkpt lat="42.34563" lon="-6.555552">
        <ele>937.47</ele>
        <time>2021-03-27T17:01:14Z</time>
      </trkpt>
      <trkpt lat="42.345693" lon="-6.555467">
        <ele>935.77</ele>
        <time>2021-03-27T17:01:16Z</time>
      </trkpt>
      <trkpt lat="42.345793" lon="-6.555211">
        <ele>929.7</ele>
        <time>2021-03-27T17:01:17Z</time>
      </trkpt>
      <trkpt lat="42.346008" lon="-6.554758">
        <ele>923.28</ele>
        <time>2021-03-27T17:01:19Z</time>
      </trkpt>
      <trkpt lat="42.346132" lon="-6.554435">
        <ele>921.94</ele>
        <time>2021-03-27T17:01:21Z</time>
      </trkpt>
      <trkpt lat="42.346215" lon="-6.554144">
        <ele>921.27</ele>
        <time>2021-03-27T17:01:23Z</time>
      </trkpt>
      <trkpt lat="42.346346" lon="-6.553924">
        <ele>920.61</ele>
        <time>2021-03-27T17:01:24Z</time>
      </trkpt>
      <trkpt lat="42.346564" lon="-6.553707">
        <ele>918.67</ele>
        <time>2021-03-27T17:01:26Z</time>
      </trkpt>
      <trkpt lat="42.346681" lon="-6.553633">
        <ele>918.16</ele>
        <time>2021-03-27T17:01:28Z</time>
      </trkpt>
      <trkpt lat="42.347165" lon="-6.553573">
        <ele>922.17</ele>
        <time>2021-03-27T17:01:29Z</time>
      </trkpt>
      <trkpt lat="42.347494" lon="-6.55356">
        <ele>923.76</ele>
        <time>2021-03-27T17:01:31Z</time>
      </trkpt>
      <trkpt lat="42.347612" lon="-6.553501">
        <ele>923.65</ele>
        <time>2021-03-27T17:01:33Z</time>
      </trkpt>
      <trkpt lat="42.347732" lon="-6.553396">
        <ele>921.72</ele>
        <time>2021-03-27T17:01:34Z</time>
      </trkpt>
      <trkpt lat="42.347869" lon="-6.553386">
        <ele>922.29</ele>
        <time>2021-03-27T17:01:36Z</time>
      </trkpt>
      <trkpt lat="42.348035" lon="-6.553411">
        <ele>923.38</ele>
        <time>2021-03-27T17:01:38Z</time>
      </trkpt>
      <trkpt lat="42.348189" lon="-6.553391">
        <ele>922.47</ele>
        <time>2021-03-27T17:01:40Z</time>
      </trkpt>
      <trkpt lat="42.348578" lon="-6.553158">
        <ele>918.81</ele>
        <time>2021-03-27T17:01:41Z</time>
      </trkpt>
      <trkpt lat="42.349019" lon="-6.553006">
        <ele>918.09</ele>
        <time>2021-03-27T17:01:43Z</time>
      </trkpt>
      <trkpt lat="42.349462" lon="-6.552906">
        <ele>919.45</ele>
        <time>2021-03-27T17:01:45Z</time>
      </trkpt>
      <trkpt lat="42.349462" lon="-6.552906">
        <ele>919.45</ele>
        <time>2021-03-27T17:01:45Z</time>
      </trkpt>
      <trkpt lat="42.349577" lon="-6.55288">
        <ele>920.81</ele>
        <time>2021-03-27T17:01:47Z</time>
      </trkpt>
      <trkpt lat="42.349649" lon="-6.552833">
        <ele>919.15</ele>
        <time>2021-03-27T17:01:48Z</time>
      </trkpt>
      <trkpt lat="42.349699" lon="-6.552745">
        <ele>917.26</ele>
        <time>2021-03-27T17:01:50Z</time>
      </trkpt>
      <trkpt lat="42.349718" lon="-6.552638">
        <ele>917.98</ele>
        <time>2021-03-27T17:01:51Z</time>
      </trkpt>
      <trkpt lat="42.349687" lon="-6.552446">
        <ele>919.59</ele>
        <time>2021-03-27T17:01:53Z</time>
      </trkpt>
      <trkpt lat="42.349648" lon="-6.552378">
        <ele>920.53</ele>
        <time>2021-03-27T17:01:54Z</time>
      </trkpt>
      <trkpt lat="42.349552" lon="-6.552297">
        <ele>921.22</ele>
        <time>2021-03-27T17:01:56Z</time>
      </trkpt>
      <trkpt lat="42.349395" lon="-6.55227">
        <ele>920.07</ele>
        <time>2021-03-27T17:01:57Z</time>
      </trkpt>
      <trkpt lat="42.348182" lon="-6.55168">
        <ele>930.36</ele>
        <time>2021-03-27T17:01:59Z</time>
      </trkpt>
      <trkpt lat="42.347923" lon="-6.551497">
        <ele>934.23</ele>
        <time>2021-03-27T17:02:00Z</time>
      </trkpt>
      <trkpt lat="42.347816" lon="-6.551375">
        <ele>936.42</ele>
        <time>2021-03-27T17:02:02Z</time>
      </trkpt>
      <trkpt lat="42.347668" lon="-6.551007">
        <ele>949.9</ele>
        <time>2021-03-27T17:02:04Z</time>
      </trkpt>
      <trkpt lat="42.347601" lon="-6.550939">
        <ele>951.88</ele>
        <time>2021-03-27T17:02:05Z</time>
      </trkpt>
      <trkpt lat="42.347234" lon="-6.550966">
        <ele>946.42</ele>
        <time>2021-03-27T17:02:07Z</time>
      </trkpt>
      <trkpt lat="42.346532" lon="-6.550771">
        <ele>955.22</ele>
        <time>2021-03-27T17:02:08Z</time>
      </trkpt>
      <trkpt lat="42.34547" lon="-6.550791">
        <ele>961.47</ele>
        <time>2021-03-27T17:02:10Z</time>
      </trkpt>
      <trkpt lat="42.344844" lon="-6.55066">
        <ele>966.7</ele>
        <time>2021-03-27T17:02:11Z</time>
      </trkpt>
      <trkpt lat="42.344729" lon="-6.550587">
        <ele>967.09</ele>
        <time>2021-03-27T17:02:13Z</time>
      </trkpt>
      <trkpt lat="42.344637" lon="-6.550347">
        <ele>976.41</ele>
        <time>2021-03-27T17:02:14Z</time>
      </trkpt>
      <trkpt lat="42.344604" lon="-6.55017">
        <ele>983.05</ele>
        <time>2021-03-27T17:02:16Z</time>
      </trkpt>
      <trkpt lat="42.344543" lon="-6.5501">
        <ele>985.8</ele>
        <time>2021-03-27T17:02:17Z</time>
      </trkpt>
      <trkpt lat="42.34448" lon="-6.550098">
        <ele>986.03</ele>
        <time>2021-03-27T17:02:19Z</time>
      </trkpt>
      <trkpt lat="42.344407" lon="-6.550134">
        <ele>985.21</ele>
        <time>2021-03-27T17:02:20Z</time>
      </trkpt>
      <trkpt lat="42.344167" lon="-6.550426">
        <ele>979.79</ele>
        <time>2021-03-27T17:02:22Z</time>
      </trkpt>
      <trkpt lat="42.344004" lon="-6.550659">
        <ele>974.6</ele>
        <time>2021-03-27T17:02:23Z</time>
      </trkpt>
      <trkpt lat="42.343912" lon="-6.550737">
        <ele>972.37</ele>
        <time>2021-03-27T17:02:25Z</time>
      </trkpt>
      <trkpt lat="42.343833" lon="-6.550776">
        <ele>970.9</ele>
        <time>2021-03-27T17:02:26Z</time>
      </trkpt>
      <trkpt lat="42.343757" lon="-6.550754">
        <ele>971.52</ele>
        <time>2021-03-27T17:02:28Z</time>
      </trkpt>
      <trkpt lat="42.343674" lon="-6.550702">
        <ele>973.33</ele>
        <time>2021-03-27T17:02:30Z</time>
      </trkpt>
      <trkpt lat="42.343348" lon="-6.550249">
        <ele>987.2</ele>
        <time>2021-03-27T17:02:31Z</time>
      </trkpt>
      <trkpt lat="42.343193" lon="-6.549995">
        <ele>992.62</ele>
        <time>2021-03-27T17:02:33Z</time>
      </trkpt>
      <trkpt lat="42.343128" lon="-6.549962">
        <ele>992.46</ele>
        <time>2021-03-27T17:02:34Z</time>
      </trkpt>
      <trkpt lat="42.343055" lon="-6.549971">
        <ele>990.96</ele>
        <time>2021-03-27T17:02:36Z</time>
      </trkpt>
      <trkpt lat="42.34289" lon="-6.550074">
        <ele>990.53</ele>
        <time>2021-03-27T17:02:37Z</time>
      </trkpt>
      <trkpt lat="42.34266" lon="-6.550359">
        <ele>987.22</ele>
        <time>2021-03-27T17:02:39Z</time>
      </trkpt>
      <trkpt lat="42.342244" lon="-6.550711">
        <ele>996.25</ele>
        <time>2021-03-27T17:02:40Z</time>
      </trkpt>
      <trkpt lat="42.341847" lon="-6.551141">
        <ele>1000.62</ele>
        <time>2021-03-27T17:02:42Z</time>
      </trkpt>
      <trkpt lat="42.341537" lon="-6.551631">
        <ele>996.82</ele>
        <time>2021-03-27T17:02:43Z</time>
      </trkpt>
      <trkpt lat="42.341354" lon="-6.551836">
        <ele>996.55</ele>
        <time>2021-03-27T17:02:45Z</time>
      </trkpt>
      <trkpt lat="42.341272" lon="-6.551907">
        <ele>997.96</ele>
        <time>2021-03-27T17:02:46Z</time>
      </trkpt>
      <trkpt lat="42.341016" lon="-6.552046">
        <ele>1003.37</ele>
        <time>2021-03-27T17:02:48Z</time>
      </trkpt>
      <trkpt lat="42.340869" lon="-6.552148">
        <ele>1005.07</ele>
        <time>2021-03-27T17:02:49Z</time>
      </trkpt>
      <trkpt lat="42.340798" lon="-6.552164">
        <ele>1005.88</ele>
        <time>2021-03-27T17:02:51Z</time>
      </trkpt>
      <trkpt lat="42.340726" lon="-6.552146">
        <ele>1006.6</ele>
        <time>2021-03-27T17:02:52Z</time>
      </trkpt>
      <trkpt lat="42.340631" lon="-6.552074">
        <ele>1008.06</ele>
        <time>2021-03-27T17:02:54Z</time>
      </trkpt>
      <trkpt lat="42.340483" lon="-6.551861">
        <ele>1011.71</ele>
        <time>2021-03-27T17:02:56Z</time>
      </trkpt>
      <trkpt lat="42.340392" lon="-6.551672">
        <ele>1013.77</ele>
        <time>2021-03-27T17:02:57Z</time>
      </trkpt>
      <trkpt lat="42.340294" lon="-6.551388">
        <ele>1015.18</ele>
        <time>2021-03-27T17:02:59Z</time>
      </trkpt>
      <trkpt lat="42.340273" lon="-6.551116">
        <ele>1017.86</ele>
        <time>2021-03-27T17:03:00Z</time>
      </trkpt>
      <trkpt lat="42.340217" lon="-6.550761">
        <ele>1018.45</ele>
        <time>2021-03-27T17:03:02Z</time>
      </trkpt>
      <trkpt lat="42.340151" lon="-6.550526">
        <ele>1017.02</ele>
        <time>2021-03-27T17:03:03Z</time>
      </trkpt>
      <trkpt lat="42.33997" lon="-6.55008">
        <ele>1014.3</ele>
        <time>2021-03-27T17:03:05Z</time>
      </trkpt>
      <trkpt lat="42.339763" lon="-6.549633">
        <ele>1016.95</ele>
        <time>2021-03-27T17:03:06Z</time>
      </trkpt>
      <trkpt lat="42.339566" lon="-6.549152">
        <ele>1013.63</ele>
        <time>2021-03-27T17:03:08Z</time>
      </trkpt>
      <trkpt lat="42.339221" lon="-6.548433">
        <ele>1003.62</ele>
        <time>2021-03-27T17:03:10Z</time>
      </trkpt>
      <trkpt lat="42.338888" lon="-6.547867">
        <ele>996.99</ele>
        <time>2021-03-27T17:03:11Z</time>
      </trkpt>
      <trkpt lat="42.338654" lon="-6.54751">
        <ele>996.23</ele>
        <time>2021-03-27T17:03:13Z</time>
      </trkpt>
      <trkpt lat="42.33846" lon="-6.547345">
        <ele>995.7</ele>
        <time>2021-03-27T17:03:15Z</time>
      </trkpt>
      <trkpt lat="42.338084" lon="-6.547149">
        <ele>989.45</ele>
        <time>2021-03-27T17:03:16Z</time>
      </trkpt>
      <trkpt lat="42.337493" lon="-6.54692">
        <ele>980.38</ele>
        <time>2021-03-27T17:03:18Z</time>
      </trkpt>
      <trkpt lat="42.337424" lon="-6.54686">
        <ele>979.04</ele>
        <time>2021-03-27T17:03:20Z</time>
      </trkpt>
      <trkpt lat="42.337309" lon="-6.546704">
        <ele>979.18</ele>
        <time>2021-03-27T17:03:21Z</time>
      </trkpt>
      <trkpt lat="42.337193" lon="-6.546492">
        <ele>978.11</ele>
        <time>2021-03-27T17:03:23Z</time>
      </trkpt>
      <trkpt lat="42.337116" lon="-6.546211">
        <ele>976.67</ele>
        <time>2021-03-27T17:03:25Z</time>
      </trkpt>
      <trkpt lat="42.337096" lon="-6.545976">
        <ele>975.16</ele>
        <time>2021-03-27T17:03:26Z</time>
      </trkpt>
      <trkpt lat="42.337126" lon="-6.545775">
        <ele>974.61</ele>
        <time>2021-03-27T17:03:28Z</time>
      </trkpt>
      <trkpt lat="42.337282" lon="-6.545324">
        <ele>970.68</ele>
        <time>2021-03-27T17:03:29Z</time>
      </trkpt>
      <trkpt lat="42.337508" lon="-6.544903">
        <ele>964.65</ele>
        <time>2021-03-27T17:03:31Z</time>
      </trkpt>
      <trkpt lat="42.337675" lon="-6.544498">
        <ele>963.62</ele>
        <time>2021-03-27T17:03:33Z</time>
      </trkpt>
      <trkpt lat="42.337866" lon="-6.543928">
        <ele>961.38</ele>
        <time>2021-03-27T17:03:34Z</time>
      </trkpt>
      <trkpt lat="42.337954" lon="-6.543238">
        <ele>956.54</ele>
        <time>2021-03-27T17:03:36Z</time>
      </trkpt>
      <trkpt lat="42.338319" lon="-6.542412">
        <ele>955.9</ele>
        <time>2021-03-27T17:03:38Z</time>
      </trkpt>
      <trkpt lat="42.338398" lon="-6.542113">
        <ele>950.98</ele>
        <time>2021-03-27T17:03:39Z</time>
      </trkpt>
      <trkpt lat="42.338518" lon="-6.541959">
        <ele>950.88</ele>
        <time>2021-03-27T17:03:41Z</time>
      </trkpt>
      <trkpt lat="42.338691" lon="-6.54183">
        <ele>952.3</ele>
        <time>2021-03-27T17:03:43Z</time>
      </trkpt>
      <trkpt lat="42.338765" lon="-6.541662">
        <ele>948.97</ele>
        <time>2021-03-27T17:03:44Z</time>
      </trkpt>
      <trkpt lat="42.338825" lon="-6.541181">
        <ele>937.07</ele>
        <time>2021-03-27T17:03:46Z</time>
      </trkpt>
      <trkpt lat="42.338891" lon="-6.541051">
        <ele>935.37</ele>
        <time>2021-03-27T17:03:48Z</time>
      </trkpt>
      <trkpt lat="42.338977" lon="-6.540934">
        <ele>935.28</ele>
        <time>2021-03-27T17:03:49Z</time>
      </trkpt>
      <trkpt lat="42.339399" lon="-6.540643">
        <ele>940.68</ele>
        <time>2021-03-27T17:03:51Z</time>
      </trkpt>
      <trkpt lat="42.340012" lon="-6.539847">
        <ele>935.38</ele>
        <time>2021-03-27T17:03:53Z</time>
      </trkpt>
      <trkpt lat="42.340321" lon="-6.539564">
        <ele>931.1</ele>
        <time>2021-03-27T17:03:54Z</time>
      </trkpt>
      <trkpt lat="42.340457" lon="-6.539495">
        <ele>929.41</ele>
        <time>2021-03-27T17:03:56Z</time>
      </trkpt>
      <trkpt lat="42.340587" lon="-6.539463">
        <ele>928.91</ele>
        <time>2021-03-27T17:03:57Z</time>
      </trkpt>
      <trkpt lat="42.340753" lon="-6.539514">
        <ele>932.3</ele>
        <time>2021-03-27T17:03:59Z</time>
      </trkpt>
      <trkpt lat="42.340888" lon="-6.539522">
        <ele>934.9</ele>
        <time>2021-03-27T17:04:01Z</time>
      </trkpt>
      <trkpt lat="42.341051" lon="-6.539278">
        <ele>929.13</ele>
        <time>2021-03-27T17:04:02Z</time>
      </trkpt>
      <trkpt lat="42.341348" lon="-6.539141">
        <ele>927.69</ele>
        <time>2021-03-27T17:04:04Z</time>
      </trkpt>
      <trkpt lat="42.341622" lon="-6.539074">
        <ele>929.98</ele>
        <time>2021-03-27T17:04:06Z</time>
      </trkpt>
      <trkpt lat="42.341741" lon="-6.53909">
        <ele>932.86</ele>
        <time>2021-03-27T17:04:07Z</time>
      </trkpt>
      <trkpt lat="42.341835" lon="-6.539057">
        <ele>934.24</ele>
        <time>2021-03-27T17:04:09Z</time>
      </trkpt>
      <trkpt lat="42.341885" lon="-6.538958">
        <ele>932.66</ele>
        <time>2021-03-27T17:04:11Z</time>
      </trkpt>
      <trkpt lat="42.341898" lon="-6.538831">
        <ele>929.78</ele>
        <time>2021-03-27T17:04:12Z</time>
      </trkpt>
      <trkpt lat="42.341957" lon="-6.538566">
        <ele>926.1</ele>
        <time>2021-03-27T17:04:14Z</time>
      </trkpt>
      <trkpt lat="42.342121" lon="-6.53808">
        <ele>926.04</ele>
        <time>2021-03-27T17:04:16Z</time>
      </trkpt>
      <trkpt lat="42.342141" lon="-6.537646">
        <ele>920.82</ele>
        <time>2021-03-27T17:04:17Z</time>
      </trkpt>
      <trkpt lat="42.342232" lon="-6.537117">
        <ele>920.27</ele>
        <time>2021-03-27T17:04:19Z</time>
      </trkpt>
      <trkpt lat="42.342267" lon="-6.53665">
        <ele>924.9</ele>
        <time>2021-03-27T17:04:21Z</time>
      </trkpt>
      <trkpt lat="42.342233" lon="-6.536489">
        <ele>925.26</ele>
        <time>2021-03-27T17:04:22Z</time>
      </trkpt>
      <trkpt lat="42.342182" lon="-6.536403">
        <ele>925.55</ele>
        <time>2021-03-27T17:04:24Z</time>
      </trkpt>
      <trkpt lat="42.342105" lon="-6.536373">
        <ele>925.48</ele>
        <time>2021-03-27T17:04:26Z</time>
      </trkpt>
      <trkpt lat="42.341989" lon="-6.536437">
        <ele>923.66</ele>
        <time>2021-03-27T17:04:27Z</time>
      </trkpt>
      <trkpt lat="42.341836" lon="-6.536607">
        <ele>921.64</ele>
        <time>2021-03-27T17:04:29Z</time>
      </trkpt>
      <trkpt lat="42.341544" lon="-6.536842">
        <ele>920.08</ele>
        <time>2021-03-27T17:04:30Z</time>
      </trkpt>
      <trkpt lat="42.341231" lon="-6.537051">
        <ele>921.01</ele>
        <time>2021-03-27T17:04:32Z</time>
      </trkpt>
      <trkpt lat="42.341045" lon="-6.537121">
        <ele>923.21</ele>
        <time>2021-03-27T17:04:34Z</time>
      </trkpt>
      <trkpt lat="42.340006" lon="-6.537178">
        <ele>925.77</ele>
        <time>2021-03-27T17:04:35Z</time>
      </trkpt>
      <trkpt lat="42.339665" lon="-6.537158">
        <ele>927.13</ele>
        <time>2021-03-27T17:04:37Z</time>
      </trkpt>
      <trkpt lat="42.339173" lon="-6.537197">
        <ele>932.16</ele>
        <time>2021-03-27T17:04:39Z</time>
      </trkpt>
      <trkpt lat="42.33879" lon="-6.537298">
        <ele>934.96</ele>
        <time>2021-03-27T17:04:40Z</time>
      </trkpt>
      <trkpt lat="42.338297" lon="-6.537342">
        <ele>936.6</ele>
        <time>2021-03-27T17:04:42Z</time>
      </trkpt>
      <trkpt lat="42.337725" lon="-6.537306">
        <ele>944.57</ele>
        <time>2021-03-27T17:04:44Z</time>
      </trkpt>
      <trkpt lat="42.337143" lon="-6.537296">
        <ele>945.76</ele>
        <time>2021-03-27T17:04:45Z</time>
      </trkpt>
      <trkpt lat="42.336718" lon="-6.537221">
        <ele>952.51</ele>
        <time>2021-03-27T17:04:47Z</time>
      </trkpt>
      <trkpt lat="42.336081" lon="-6.537272">
        <ele>959.76</ele>
        <time>2021-03-27T17:04:49Z</time>
      </trkpt>
      <trkpt lat="42.335752" lon="-6.537383">
        <ele>964.97</ele>
        <time>2021-03-27T17:04:50Z</time>
      </trkpt>
      <trkpt lat="42.335221" lon="-6.537628">
        <ele>964.27</ele>
        <time>2021-03-27T17:04:52Z</time>
      </trkpt>
      <trkpt lat="42.335051" lon="-6.537675">
        <ele>965.89</ele>
        <time>2021-03-27T17:04:54Z</time>
      </trkpt>
      <trkpt lat="42.334876" lon="-6.537687">
        <ele>966.64</ele>
        <time>2021-03-27T17:04:55Z</time>
      </trkpt>
      <trkpt lat="42.334793" lon="-6.537665">
        <ele>966.86</ele>
        <time>2021-03-27T17:04:57Z</time>
      </trkpt>
      <trkpt lat="42.334704" lon="-6.537615">
        <ele>967.07</ele>
        <time>2021-03-27T17:04:58Z</time>
      </trkpt>
      <trkpt lat="42.334537" lon="-6.537332">
        <ele>967.67</ele>
        <time>2021-03-27T17:05:00Z</time>
      </trkpt>
      <trkpt lat="42.333874" lon="-6.535927">
        <ele>973.15</ele>
        <time>2021-03-27T17:05:02Z</time>
      </trkpt>
      <trkpt lat="42.33256" lon="-6.533968">
        <ele>960.48</ele>
        <time>2021-03-27T17:05:03Z</time>
      </trkpt>
      <trkpt lat="42.332421" lon="-6.533632">
        <ele>961.02</ele>
        <time>2021-03-27T17:05:05Z</time>
      </trkpt>
      <trkpt lat="42.332342" lon="-6.533156">
        <ele>963.16</ele>
        <time>2021-03-27T17:05:07Z</time>
      </trkpt>
      <trkpt lat="42.332375" lon="-6.532846">
        <ele>963.1</ele>
        <time>2021-03-27T17:05:08Z</time>
      </trkpt>
      <trkpt lat="42.332525" lon="-6.532564">
        <ele>961.79</ele>
        <time>2021-03-27T17:05:10Z</time>
      </trkpt>
      <trkpt lat="42.332842" lon="-6.532163">
        <ele>961.29</ele>
        <time>2021-03-27T17:05:12Z</time>
      </trkpt>
      <trkpt lat="42.333092" lon="-6.531544">
        <ele>953.12</ele>
        <time>2021-03-27T17:05:13Z</time>
      </trkpt>
      <trkpt lat="42.333223" lon="-6.531296">
        <ele>953.23</ele>
        <time>2021-03-27T17:05:15Z</time>
      </trkpt>
      <trkpt lat="42.33338" lon="-6.531132">
        <ele>956.62</ele>
        <time>2021-03-27T17:05:17Z</time>
      </trkpt>
      <trkpt lat="42.333499" lon="-6.530733">
        <ele>951.63</ele>
        <time>2021-03-27T17:05:18Z</time>
      </trkpt>
      <trkpt lat="42.333634" lon="-6.530436">
        <ele>948.25</ele>
        <time>2021-03-27T17:05:20Z</time>
      </trkpt>
      <trkpt lat="42.333861" lon="-6.530186">
        <ele>947.53</ele>
        <time>2021-03-27T17:05:22Z</time>
      </trkpt>
      <trkpt lat="42.333995" lon="-6.530077">
        <ele>948.93</ele>
        <time>2021-03-27T17:05:23Z</time>
      </trkpt>
      <trkpt lat="42.334118" lon="-6.529858">
        <ele>945.51</ele>
        <time>2021-03-27T17:05:25Z</time>
      </trkpt>
      <trkpt lat="42.334518" lon="-6.529558">
        <ele>948.18</ele>
        <time>2021-03-27T17:05:26Z</time>
      </trkpt>
      <trkpt lat="42.334701" lon="-6.529281">
        <ele>942.27</ele>
        <time>2021-03-27T17:05:28Z</time>
      </trkpt>
      <trkpt lat="42.334979" lon="-6.529082">
        <ele>945.94</ele>
        <time>2021-03-27T17:05:30Z</time>
      </trkpt>
      <trkpt lat="42.335057" lon="-6.528955">
        <ele>947.55</ele>
        <time>2021-03-27T17:05:31Z</time>
      </trkpt>
      <trkpt lat="42.335059" lon="-6.528815">
        <ele>946.97</ele>
        <time>2021-03-27T17:05:33Z</time>
      </trkpt>
      <trkpt lat="42.335033" lon="-6.528684">
        <ele>946.19</ele>
        <time>2021-03-27T17:05:35Z</time>
      </trkpt>
      <trkpt lat="42.334941" lon="-6.528545">
        <ele>942.98</ele>
        <time>2021-03-27T17:05:36Z</time>
      </trkpt>
      <trkpt lat="42.334561" lon="-6.528173">
        <ele>928.84</ele>
        <time>2021-03-27T17:05:38Z</time>
      </trkpt>
      <trkpt lat="42.334439" lon="-6.52797">
        <ele>923.98</ele>
        <time>2021-03-27T17:05:40Z</time>
      </trkpt>
      <trkpt lat="42.334411" lon="-6.527836">
        <ele>922.67</ele>
        <time>2021-03-27T17:05:41Z</time>
      </trkpt>
      <trkpt lat="42.334401" lon="-6.527705">
        <ele>922.1</ele>
        <time>2021-03-27T17:05:43Z</time>
      </trkpt>
      <trkpt lat="42.334541" lon="-6.526657">
        <ele>928.8</ele>
        <time>2021-03-27T17:05:45Z</time>
      </trkpt>
      <trkpt lat="42.334505" lon="-6.526034">
        <ele>917.94</ele>
        <time>2021-03-27T17:05:46Z</time>
      </trkpt>
      <trkpt lat="42.334501" lon="-6.525705">
        <ele>915.24</ele>
        <time>2021-03-27T17:05:48Z</time>
      </trkpt>
      <trkpt lat="42.334551" lon="-6.525502">
        <ele>915.53</ele>
        <time>2021-03-27T17:05:50Z</time>
      </trkpt>
      <trkpt lat="42.334766" lon="-6.525027">
        <ele>915.14</ele>
        <time>2021-03-27T17:05:51Z</time>
      </trkpt>
      <trkpt lat="42.335054" lon="-6.524679">
        <ele>912.35</ele>
        <time>2021-03-27T17:05:53Z</time>
      </trkpt>
      <trkpt lat="42.335613" lon="-6.524108">
        <ele>913.68</ele>
        <time>2021-03-27T17:05:54Z</time>
      </trkpt>
      <trkpt lat="42.335728" lon="-6.523962">
        <ele>913.09</ele>
        <time>2021-03-27T17:05:56Z</time>
      </trkpt>
      <trkpt lat="42.335764" lon="-6.52381">
        <ele>911.44</ele>
        <time>2021-03-27T17:05:58Z</time>
      </trkpt>
      <trkpt lat="42.335778" lon="-6.523647">
        <ele>909.52</ele>
        <time>2021-03-27T17:05:59Z</time>
      </trkpt>
      <trkpt lat="42.335898" lon="-6.523447">
        <ele>910.76</ele>
        <time>2021-03-27T17:06:01Z</time>
      </trkpt>
      <trkpt lat="42.335965" lon="-6.523364">
        <ele>911.59</ele>
        <time>2021-03-27T17:06:03Z</time>
      </trkpt>
      <trkpt lat="42.336005" lon="-6.523257">
        <ele>912.57</ele>
        <time>2021-03-27T17:06:04Z</time>
      </trkpt>
      <trkpt lat="42.335966" lon="-6.523099">
        <ele>913.11</ele>
        <time>2021-03-27T17:06:06Z</time>
      </trkpt>
      <trkpt lat="42.335889" lon="-6.523022">
        <ele>913.57</ele>
        <time>2021-03-27T17:06:08Z</time>
      </trkpt>
      <trkpt lat="42.335741" lon="-6.523019">
        <ele>913.93</ele>
        <time>2021-03-27T17:06:09Z</time>
      </trkpt>
      <trkpt lat="42.335607" lon="-6.523073">
        <ele>913.24</ele>
        <time>2021-03-27T17:06:11Z</time>
      </trkpt>
      <trkpt lat="42.335266" lon="-6.523383">
        <ele>910.46</ele>
        <time>2021-03-27T17:06:13Z</time>
      </trkpt>
      <trkpt lat="42.334858" lon="-6.523599">
        <ele>913.19</ele>
        <time>2021-03-27T17:06:14Z</time>
      </trkpt>
      <trkpt lat="42.334426" lon="-6.523713">
        <ele>914.74</ele>
        <time>2021-03-27T17:06:16Z</time>
      </trkpt>
      <trkpt lat="42.333637" lon="-6.524102">
        <ele>918.45</ele>
        <time>2021-03-27T17:06:18Z</time>
      </trkpt>
      <trkpt lat="42.333456" lon="-6.524153">
        <ele>924.16</ele>
        <time>2021-03-27T17:06:19Z</time>
      </trkpt>
      <trkpt lat="42.333328" lon="-6.524218">
        <ele>927.96</ele>
        <time>2021-03-27T17:06:21Z</time>
      </trkpt>
      <trkpt lat="42.33302" lon="-6.524942">
        <ele>926.27</ele>
        <time>2021-03-27T17:06:23Z</time>
      </trkpt>
      <trkpt lat="42.332747" lon="-6.525526">
        <ele>928.97</ele>
        <time>2021-03-27T17:06:24Z</time>
      </trkpt>
      <trkpt lat="42.332117" lon="-6.52664">
        <ele>930.85</ele>
        <time>2021-03-27T17:06:26Z</time>
      </trkpt>
      <trkpt lat="42.33204" lon="-6.526711">
        <ele>930.82</ele>
        <time>2021-03-27T17:06:27Z</time>
      </trkpt>
      <trkpt lat="42.331898" lon="-6.526761">
        <ele>932.38</ele>
        <time>2021-03-27T17:06:29Z</time>
      </trkpt>
      <trkpt lat="42.331668" lon="-6.526771">
        <ele>935.72</ele>
        <time>2021-03-27T17:06:31Z</time>
      </trkpt>
      <trkpt lat="42.331454" lon="-6.526807">
        <ele>942.35</ele>
        <time>2021-03-27T17:06:32Z</time>
      </trkpt>
      <trkpt lat="42.331146" lon="-6.526951">
        <ele>942.05</ele>
        <time>2021-03-27T17:06:34Z</time>
      </trkpt>
      <trkpt lat="42.331106" lon="-6.526987">
        <ele>941.16</ele>
        <time>2021-03-27T17:06:36Z</time>
      </trkpt>
      <trkpt lat="42.331059" lon="-6.527076">
        <ele>938.34</ele>
        <time>2021-03-27T17:06:37Z</time>
      </trkpt>
      <trkpt lat="42.331005" lon="-6.527114">
        <ele>938.12</ele>
        <time>2021-03-27T17:06:39Z</time>
      </trkpt>
      <trkpt lat="42.33075" lon="-6.527197">
        <ele>943.03</ele>
        <time>2021-03-27T17:06:41Z</time>
      </trkpt>
      <trkpt lat="42.330577" lon="-6.527358">
        <ele>945.63</ele>
        <time>2021-03-27T17:06:42Z</time>
      </trkpt>
      <trkpt lat="42.330493" lon="-6.527537">
        <ele>943.53</ele>
        <time>2021-03-27T17:06:44Z</time>
      </trkpt>
      <trkpt lat="42.330406" lon="-6.527679">
        <ele>943.01</ele>
        <time>2021-03-27T17:06:46Z</time>
      </trkpt>
      <trkpt lat="42.33036" lon="-6.527718">
        <ele>943.94</ele>
        <time>2021-03-27T17:06:47Z</time>
      </trkpt>
      <trkpt lat="42.330264" lon="-6.527756">
        <ele>946.85</ele>
        <time>2021-03-27T17:06:49Z</time>
      </trkpt>
      <trkpt lat="42.329765" lon="-6.527757">
        <ele>952.24</ele>
        <time>2021-03-27T17:06:51Z</time>
      </trkpt>
      <trkpt lat="42.329567" lon="-6.527826">
        <ele>950.53</ele>
        <time>2021-03-27T17:06:52Z</time>
      </trkpt>
      <trkpt lat="42.329492" lon="-6.527832">
        <ele>950.4</ele>
        <time>2021-03-27T17:06:54Z</time>
      </trkpt>
      <trkpt lat="42.329326" lon="-6.527684">
        <ele>953.07</ele>
        <time>2021-03-27T17:06:55Z</time>
      </trkpt>
      <trkpt lat="42.329208" lon="-6.527661">
        <ele>953.19</ele>
        <time>2021-03-27T17:06:57Z</time>
      </trkpt>
      <trkpt lat="42.328841" lon="-6.527662">
        <ele>950.49</ele>
        <time>2021-03-27T17:06:59Z</time>
      </trkpt>
      <trkpt lat="42.328781" lon="-6.527642">
        <ele>949.72</ele>
        <time>2021-03-27T17:07:00Z</time>
      </trkpt>
      <trkpt lat="42.328708" lon="-6.527569">
        <ele>949.16</ele>
        <time>2021-03-27T17:07:02Z</time>
      </trkpt>
      <trkpt lat="42.328651" lon="-6.527407">
        <ele>950.44</ele>
        <time>2021-03-27T17:07:04Z</time>
      </trkpt>
      <trkpt lat="42.328417" lon="-6.526384">
        <ele>955.28</ele>
        <time>2021-03-27T17:07:05Z</time>
      </trkpt>
      <trkpt lat="42.328366" lon="-6.524522">
        <ele>967.5</ele>
        <time>2021-03-27T17:07:07Z</time>
      </trkpt>
      <trkpt lat="42.328393" lon="-6.523845">
        <ele>973.88</ele>
        <time>2021-03-27T17:07:09Z</time>
      </trkpt>
      <trkpt lat="42.328497" lon="-6.52296">
        <ele>976.59</ele>
        <time>2021-03-27T17:07:10Z</time>
      </trkpt>
      <trkpt lat="42.328586" lon="-6.521956">
        <ele>971.4</ele>
        <time>2021-03-27T17:07:12Z</time>
      </trkpt>
      <trkpt lat="42.328628" lon="-6.521816">
        <ele>970.58</ele>
        <time>2021-03-27T17:07:14Z</time>
      </trkpt>
      <trkpt lat="42.328741" lon="-6.521671">
        <ele>970.88</ele>
        <time>2021-03-27T17:07:15Z</time>
      </trkpt>
      <trkpt lat="42.328838" lon="-6.521623">
        <ele>971.83</ele>
        <time>2021-03-27T17:07:17Z</time>
      </trkpt>
      <trkpt lat="42.329176" lon="-6.521568">
        <ele>977.46</ele>
        <time>2021-03-27T17:07:19Z</time>
      </trkpt>
      <trkpt lat="42.329229" lon="-6.521506">
        <ele>977.84</ele>
        <time>2021-03-27T17:07:20Z</time>
      </trkpt>
      <trkpt lat="42.329276" lon="-6.521412">
        <ele>977.86</ele>
        <time>2021-03-27T17:07:22Z</time>
      </trkpt>
      <trkpt lat="42.329289" lon="-6.521316">
        <ele>977.64</ele>
        <time>2021-03-27T17:07:23Z</time>
      </trkpt>
      <trkpt lat="42.329196" lon="-6.520968">
        <ele>972.48</ele>
        <time>2021-03-27T17:07:25Z</time>
      </trkpt>
      <trkpt lat="42.329159" lon="-6.520623">
        <ele>972.93</ele>
        <time>2021-03-27T17:07:27Z</time>
      </trkpt>
      <trkpt lat="42.329105" lon="-6.520372">
        <ele>973.1</ele>
        <time>2021-03-27T17:07:28Z</time>
      </trkpt>
      <trkpt lat="42.32904" lon="-6.520174">
        <ele>972.97</ele>
        <time>2021-03-27T17:07:30Z</time>
      </trkpt>
      <trkpt lat="42.328899" lon="-6.519626">
        <ele>977.28</ele>
        <time>2021-03-27T17:07:32Z</time>
      </trkpt>
      <trkpt lat="42.328739" lon="-6.519191">
        <ele>975.63</ele>
        <time>2021-03-27T17:07:33Z</time>
      </trkpt>
      <trkpt lat="42.328671" lon="-6.518918">
        <ele>974.92</ele>
        <time>2021-03-27T17:07:35Z</time>
      </trkpt>
      <trkpt lat="42.328594" lon="-6.51842">
        <ele>973.01</ele>
        <time>2021-03-27T17:07:37Z</time>
      </trkpt>
      <trkpt lat="42.328594" lon="-6.518281">
        <ele>972.64</ele>
        <time>2021-03-27T17:07:38Z</time>
      </trkpt>
      <trkpt lat="42.328646" lon="-6.518078">
        <ele>973.8</ele>
        <time>2021-03-27T17:07:40Z</time>
      </trkpt>
      <trkpt lat="42.32886" lon="-6.517812">
        <ele>980.05</ele>
        <time>2021-03-27T17:07:42Z</time>
      </trkpt>
      <trkpt lat="42.329154" lon="-6.517521">
        <ele>986.04</ele>
        <time>2021-03-27T17:07:43Z</time>
      </trkpt>
      <trkpt lat="42.329196" lon="-6.517444">
        <ele>987.57</ele>
        <time>2021-03-27T17:07:45Z</time>
      </trkpt>
      <trkpt lat="42.329215" lon="-6.517332">
        <ele>988.25</ele>
        <time>2021-03-27T17:07:47Z</time>
      </trkpt>
      <trkpt lat="42.329208" lon="-6.517231">
        <ele>987.42</ele>
        <time>2021-03-27T17:07:48Z</time>
      </trkpt>
      <trkpt lat="42.329157" lon="-6.517125">
        <ele>985.73</ele>
        <time>2021-03-27T17:07:50Z</time>
      </trkpt>
      <trkpt lat="42.329077" lon="-6.517044">
        <ele>984.11</ele>
        <time>2021-03-27T17:07:52Z</time>
      </trkpt>
      <trkpt lat="42.32861" lon="-6.516647">
        <ele>980.53</ele>
        <time>2021-03-27T17:07:53Z</time>
      </trkpt>
      <trkpt lat="42.328413" lon="-6.516332">
        <ele>982.07</ele>
        <time>2021-03-27T17:07:55Z</time>
      </trkpt>
      <trkpt lat="42.328352" lon="-6.516156">
        <ele>983.03</ele>
        <time>2021-03-27T17:07:56Z</time>
      </trkpt>
      <trkpt lat="42.328324" lon="-6.515982">
        <ele>984.45</ele>
        <time>2021-03-27T17:07:58Z</time>
      </trkpt>
      <trkpt lat="42.32833" lon="-6.515419">
        <ele>992.38</ele>
        <time>2021-03-27T17:08:00Z</time>
      </trkpt>
      <trkpt lat="42.328307" lon="-6.515305">
        <ele>993.92</ele>
        <time>2021-03-27T17:08:01Z</time>
      </trkpt>
      <trkpt lat="42.328278" lon="-6.515244">
        <ele>994.56</ele>
        <time>2021-03-27T17:08:03Z</time>
      </trkpt>
      <trkpt lat="42.327871" lon="-6.51512">
        <ele>987.66</ele>
        <time>2021-03-27T17:08:05Z</time>
      </trkpt>
      <trkpt lat="42.327712" lon="-6.514953">
        <ele>987.25</ele>
        <time>2021-03-27T17:08:06Z</time>
      </trkpt>
      <trkpt lat="42.327637" lon="-6.514811">
        <ele>988.36</ele>
        <time>2021-03-27T17:08:08Z</time>
      </trkpt>
      <trkpt lat="42.327551" lon="-6.51457">
        <ele>990.04</ele>
        <time>2021-03-27T17:08:10Z</time>
      </trkpt>
      <trkpt lat="42.327434" lon="-6.514213">
        <ele>990.28</ele>
        <time>2021-03-27T17:08:11Z</time>
      </trkpt>
      <trkpt lat="42.327342" lon="-6.513874">
        <ele>990.74</ele>
        <time>2021-03-27T17:08:13Z</time>
      </trkpt>
      <trkpt lat="42.327299" lon="-6.51363">
        <ele>992.8</ele>
        <time>2021-03-27T17:08:15Z</time>
      </trkpt>
      <trkpt lat="42.327252" lon="-6.513199">
        <ele>997.52</ele>
        <time>2021-03-27T17:08:16Z</time>
      </trkpt>
      <trkpt lat="42.326972" lon="-6.511156">
        <ele>996.13</ele>
        <time>2021-03-27T17:08:18Z</time>
      </trkpt>
      <trkpt lat="42.326945" lon="-6.510756">
        <ele>997.19</ele>
        <time>2021-03-27T17:08:20Z</time>
      </trkpt>
      <trkpt lat="42.326963" lon="-6.510061">
        <ele>985.69</ele>
        <time>2021-03-27T17:08:21Z</time>
      </trkpt>
      <trkpt lat="42.327035" lon="-6.509806">
        <ele>982.43</ele>
        <time>2021-03-27T17:08:23Z</time>
      </trkpt>
      <trkpt lat="42.327105" lon="-6.50975">
        <ele>982.56</ele>
        <time>2021-03-27T17:08:24Z</time>
      </trkpt>
      <trkpt lat="42.32722" lon="-6.509736">
        <ele>984.35</ele>
        <time>2021-03-27T17:08:26Z</time>
      </trkpt>
      <trkpt lat="42.327444" lon="-6.50976">
        <ele>989.41</ele>
        <time>2021-03-27T17:08:28Z</time>
      </trkpt>
      <trkpt lat="42.327652" lon="-6.509732">
        <ele>995.41</ele>
        <time>2021-03-27T17:08:29Z</time>
      </trkpt>
      <trkpt lat="42.327837" lon="-6.509648">
        <ele>1000.27</ele>
        <time>2021-03-27T17:08:31Z</time>
      </trkpt>
      <trkpt lat="42.327899" lon="-6.509553">
        <ele>1000.28</ele>
        <time>2021-03-27T17:08:33Z</time>
      </trkpt>
      <trkpt lat="42.327917" lon="-6.509413">
        <ele>997.15</ele>
        <time>2021-03-27T17:08:34Z</time>
      </trkpt>
      <trkpt lat="42.32795" lon="-6.508444">
        <ele>989.68</ele>
        <time>2021-03-27T17:08:36Z</time>
      </trkpt>
      <trkpt lat="42.328003" lon="-6.507868">
        <ele>990.43</ele>
        <time>2021-03-27T17:08:38Z</time>
      </trkpt>
      <trkpt lat="42.327995" lon="-6.507769">
        <ele>990.76</ele>
        <time>2021-03-27T17:08:39Z</time>
      </trkpt>
      <trkpt lat="42.327968" lon="-6.507696">
        <ele>990.78</ele>
        <time>2021-03-27T17:08:41Z</time>
      </trkpt>
      <trkpt lat="42.32792" lon="-6.507641">
        <ele>990.53</ele>
        <time>2021-03-27T17:08:43Z</time>
      </trkpt>
      <trkpt lat="42.327841" lon="-6.507618">
        <ele>989.73</ele>
        <time>2021-03-27T17:08:44Z</time>
      </trkpt>
      <trkpt lat="42.327782" lon="-6.507624">
        <ele>988.83</ele>
        <time>2021-03-27T17:08:46Z</time>
      </trkpt>
      <trkpt lat="42.327494" lon="-6.507892">
        <ele>983.38</ele>
        <time>2021-03-27T17:08:48Z</time>
      </trkpt>
      <trkpt lat="42.327374" lon="-6.507957">
        <ele>982.32</ele>
        <time>2021-03-27T17:08:49Z</time>
      </trkpt>
      <trkpt lat="42.327287" lon="-6.507978">
        <ele>981.66</ele>
        <time>2021-03-27T17:08:51Z</time>
      </trkpt>
      <trkpt lat="42.327179" lon="-6.507971">
        <ele>981.68</ele>
        <time>2021-03-27T17:08:52Z</time>
      </trkpt>
      <trkpt lat="42.326858" lon="-6.507881">
        <ele>984.78</ele>
        <time>2021-03-27T17:08:54Z</time>
      </trkpt>
      <trkpt lat="42.326505" lon="-6.507814">
        <ele>987.99</ele>
        <time>2021-03-27T17:08:56Z</time>
      </trkpt>
      <trkpt lat="42.325992" lon="-6.507896">
        <ele>982.06</ele>
        <time>2021-03-27T17:08:57Z</time>
      </trkpt>
      <trkpt lat="42.325873" lon="-6.507879">
        <ele>981.95</ele>
        <time>2021-03-27T17:08:59Z</time>
      </trkpt>
      <trkpt lat="42.325742" lon="-6.507832">
        <ele>982.19</ele>
        <time>2021-03-27T17:09:01Z</time>
      </trkpt>
      <trkpt lat="42.325435" lon="-6.507648">
        <ele>984.72</ele>
        <time>2021-03-27T17:09:02Z</time>
      </trkpt>
      <trkpt lat="42.324911" lon="-6.507407">
        <ele>982.79</ele>
        <time>2021-03-27T17:09:04Z</time>
      </trkpt>
      <trkpt lat="42.324606" lon="-6.507344">
        <ele>984.38</ele>
        <time>2021-03-27T17:09:06Z</time>
      </trkpt>
      <trkpt lat="42.324534" lon="-6.507391">
        <ele>983.35</ele>
        <time>2021-03-27T17:09:07Z</time>
      </trkpt>
      <trkpt lat="42.324434" lon="-6.50754">
        <ele>978.7</ele>
        <time>2021-03-27T17:09:09Z</time>
      </trkpt>
      <trkpt lat="42.324302" lon="-6.50781">
        <ele>970.61</ele>
        <time>2021-03-27T17:09:11Z</time>
      </trkpt>
      <trkpt lat="42.324166" lon="-6.50802">
        <ele>966.04</ele>
        <time>2021-03-27T17:09:12Z</time>
      </trkpt>
      <trkpt lat="42.32374" lon="-6.50817">
        <ele>966.26</ele>
        <time>2021-03-27T17:09:14Z</time>
      </trkpt>
      <trkpt lat="42.323419" lon="-6.508251">
        <ele>964.07</ele>
        <time>2021-03-27T17:09:16Z</time>
      </trkpt>
      <trkpt lat="42.322835" lon="-6.508276">
        <ele>962.67</ele>
        <time>2021-03-27T17:09:17Z</time>
      </trkpt>
      <trkpt lat="42.321756" lon="-6.508391">
        <ele>954.4</ele>
        <time>2021-03-27T17:09:19Z</time>
      </trkpt>
      <trkpt lat="42.321463" lon="-6.508401">
        <ele>951.19</ele>
        <time>2021-03-27T17:09:20Z</time>
      </trkpt>
      <trkpt lat="42.321321" lon="-6.508373">
        <ele>949.39</ele>
        <time>2021-03-27T17:09:22Z</time>
      </trkpt>
      <trkpt lat="42.320971" lon="-6.508259">
        <ele>946.36</ele>
        <time>2021-03-27T17:09:24Z</time>
      </trkpt>
      <trkpt lat="42.320729" lon="-6.508132">
        <ele>944.55</ele>
        <time>2021-03-27T17:09:25Z</time>
      </trkpt>
      <trkpt lat="42.320617" lon="-6.508051">
        <ele>942.84</ele>
        <time>2021-03-27T17:09:27Z</time>
      </trkpt>
      <trkpt lat="42.32046" lon="-6.507894">
        <ele>940.37</ele>
        <time>2021-03-27T17:09:29Z</time>
      </trkpt>
      <trkpt lat="42.320357" lon="-6.507718">
        <ele>939.49</ele>
        <time>2021-03-27T17:09:30Z</time>
      </trkpt>
      <trkpt lat="42.320252" lon="-6.507467">
        <ele>939.14</ele>
        <time>2021-03-27T17:09:32Z</time>
      </trkpt>
      <trkpt lat="42.320083" lon="-6.506894">
        <ele>933.99</ele>
        <time>2021-03-27T17:09:34Z</time>
      </trkpt>
      <trkpt lat="42.320048" lon="-6.506685">
        <ele>931.48</ele>
        <time>2021-03-27T17:09:35Z</time>
      </trkpt>
      <trkpt lat="42.320054" lon="-6.506485">
        <ele>930.01</ele>
        <time>2021-03-27T17:09:37Z</time>
      </trkpt>
      <trkpt lat="42.320098" lon="-6.506029">
        <ele>926.33</ele>
        <time>2021-03-27T17:09:39Z</time>
      </trkpt>
      <trkpt lat="42.320125" lon="-6.505511">
        <ele>920.59</ele>
        <time>2021-03-27T17:09:40Z</time>
      </trkpt>
      <trkpt lat="42.320125" lon="-6.505216">
        <ele>922.14</ele>
        <time>2021-03-27T17:09:42Z</time>
      </trkpt>
      <trkpt lat="42.320112" lon="-6.505112">
        <ele>922.42</ele>
        <time>2021-03-27T17:09:44Z</time>
      </trkpt>
      <trkpt lat="42.319869" lon="-6.504386">
        <ele>914.45</ele>
        <time>2021-03-27T17:09:45Z</time>
      </trkpt>
      <trkpt lat="42.319796" lon="-6.504125">
        <ele>912.78</ele>
        <time>2021-03-27T17:09:47Z</time>
      </trkpt>
      <trkpt lat="42.319723" lon="-6.503836">
        <ele>910.86</ele>
        <time>2021-03-27T17:09:49Z</time>
      </trkpt>
      <trkpt lat="42.31971" lon="-6.503666">
        <ele>909.43</ele>
        <time>2021-03-27T17:09:50Z</time>
      </trkpt>
      <trkpt lat="42.319724" lon="-6.503515">
        <ele>908.73</ele>
        <time>2021-03-27T17:09:52Z</time>
      </trkpt>
      <trkpt lat="42.319768" lon="-6.503313">
        <ele>909.0</ele>
        <time>2021-03-27T17:09:53Z</time>
      </trkpt>
      <trkpt lat="42.31993" lon="-6.502735">
        <ele>912.64</ele>
        <time>2021-03-27T17:09:55Z</time>
      </trkpt>
      <trkpt lat="42.319964" lon="-6.502552">
        <ele>914.19</ele>
        <time>2021-03-27T17:09:57Z</time>
      </trkpt>
      <trkpt lat="42.319963" lon="-6.502398">
        <ele>915.57</ele>
        <time>2021-03-27T17:09:58Z</time>
      </trkpt>
      <trkpt lat="42.319931" lon="-6.502292">
        <ele>915.64</ele>
        <time>2021-03-27T17:10:00Z</time>
      </trkpt>
      <trkpt lat="42.319893" lon="-6.502231">
        <ele>914.84</ele>
        <time>2021-03-27T17:10:02Z</time>
      </trkpt>
      <trkpt lat="42.31948" lon="-6.501871">
        <ele>914.84</ele>
        <time>2021-03-27T17:10:03Z</time>
      </trkpt>
      <trkpt lat="42.319247" lon="-6.501747">
        <ele>909.78</ele>
        <time>2021-03-27T17:10:05Z</time>
      </trkpt>
      <trkpt lat="42.318679" lon="-6.501569">
        <ele>901.11</ele>
        <time>2021-03-27T17:10:07Z</time>
      </trkpt>
      <trkpt lat="42.318428" lon="-6.501434">
        <ele>899.9</ele>
        <time>2021-03-27T17:10:08Z</time>
      </trkpt>
      <trkpt lat="42.31808" lon="-6.501288">
        <ele>889.86</ele>
        <time>2021-03-27T17:10:10Z</time>
      </trkpt>
      <trkpt lat="42.318" lon="-6.501235">
        <ele>888.63</ele>
        <time>2021-03-27T17:10:12Z</time>
      </trkpt>
      <trkpt lat="42.317923" lon="-6.50113">
        <ele>889.58</ele>
        <time>2021-03-27T17:10:13Z</time>
      </trkpt>
      <trkpt lat="42.317876" lon="-6.501017">
        <ele>890.69</ele>
        <time>2021-03-27T17:10:15Z</time>
      </trkpt>
      <trkpt lat="42.317844" lon="-6.500562">
        <ele>897.53</ele>
        <time>2021-03-27T17:10:17Z</time>
      </trkpt>
      <trkpt lat="42.317837" lon="-6.499971">
        <ele>900.27</ele>
        <time>2021-03-27T17:10:18Z</time>
      </trkpt>
      <trkpt lat="42.317803" lon="-6.499865">
        <ele>900.57</ele>
        <time>2021-03-27T17:10:20Z</time>
      </trkpt>
      <trkpt lat="42.317741" lon="-6.499809">
        <ele>900.75</ele>
        <time>2021-03-27T17:10:21Z</time>
      </trkpt>
      <trkpt lat="42.317672" lon="-6.499798">
        <ele>901.57</ele>
        <time>2021-03-27T17:10:23Z</time>
      </trkpt>
      <trkpt lat="42.317434" lon="-6.499935">
        <ele>900.46</ele>
        <time>2021-03-27T17:10:25Z</time>
      </trkpt>
      <trkpt lat="42.316978" lon="-6.500138">
        <ele>891.57</ele>
        <time>2021-03-27T17:10:26Z</time>
      </trkpt>
      <trkpt lat="42.316912" lon="-6.500147">
        <ele>889.65</ele>
        <time>2021-03-27T17:10:28Z</time>
      </trkpt>
      <trkpt lat="42.316778" lon="-6.500117">
        <ele>885.98</ele>
        <time>2021-03-27T17:10:30Z</time>
      </trkpt>
      <trkpt lat="42.316677" lon="-6.499961">
        <ele>887.45</ele>
        <time>2021-03-27T17:10:31Z</time>
      </trkpt>
      <trkpt lat="42.316449" lon="-6.499299">
        <ele>899.7</ele>
        <time>2021-03-27T17:10:33Z</time>
      </trkpt>
      <trkpt lat="42.316382" lon="-6.499212">
        <ele>901.02</ele>
        <time>2021-03-27T17:10:35Z</time>
      </trkpt>
      <trkpt lat="42.316295" lon="-6.499181">
        <ele>900.03</ele>
        <time>2021-03-27T17:10:36Z</time>
      </trkpt>
      <trkpt lat="42.316197" lon="-6.499193">
        <ele>896.99</ele>
        <time>2021-03-27T17:10:38Z</time>
      </trkpt>
      <trkpt lat="42.316094" lon="-6.499231">
        <ele>892.93</ele>
        <time>2021-03-27T17:10:40Z</time>
      </trkpt>
      <trkpt lat="42.31563" lon="-6.499485">
        <ele>886.11</ele>
        <time>2021-03-27T17:10:41Z</time>
      </trkpt>
      <trkpt lat="42.315558" lon="-6.499548">
        <ele>885.1</ele>
        <time>2021-03-27T17:10:43Z</time>
      </trkpt>
      <trkpt lat="42.315181" lon="-6.499995">
        <ele>876.33</ele>
        <time>2021-03-27T17:10:45Z</time>
      </trkpt>
      <trkpt lat="42.31509" lon="-6.500082">
        <ele>876.91</ele>
        <time>2021-03-27T17:10:46Z</time>
      </trkpt>
      <trkpt lat="42.314849" lon="-6.500236">
        <ele>877.53</ele>
        <time>2021-03-27T17:10:48Z</time>
      </trkpt>
      <trkpt lat="42.314726" lon="-6.500265">
        <ele>879.29</ele>
        <time>2021-03-27T17:10:49Z</time>
      </trkpt>
      <trkpt lat="42.314602" lon="-6.500269">
        <ele>878.82</ele>
        <time>2021-03-27T17:10:51Z</time>
      </trkpt>
      <trkpt lat="42.314397" lon="-6.500232">
        <ele>878.95</ele>
        <time>2021-03-27T17:10:53Z</time>
      </trkpt>
      <trkpt lat="42.314062" lon="-6.500136">
        <ele>875.62</ele>
        <time>2021-03-27T17:10:54Z</time>
      </trkpt>
      <trkpt lat="42.31393" lon="-6.500087">
        <ele>872.02</ele>
        <time>2021-03-27T17:10:56Z</time>
      </trkpt>
      <trkpt lat="42.313776" lon="-6.49998">
        <ele>868.44</ele>
        <time>2021-03-27T17:10:58Z</time>
      </trkpt>
      <trkpt lat="42.31368" lon="-6.499873">
        <ele>866.15</ele>
        <time>2021-03-27T17:10:59Z</time>
      </trkpt>
      <trkpt lat="42.313481" lon="-6.499523">
        <ele>864.61</ele>
        <time>2021-03-27T17:11:01Z</time>
      </trkpt>
      <trkpt lat="42.313383" lon="-6.499281">
        <ele>862.98</ele>
        <time>2021-03-27T17:11:03Z</time>
      </trkpt>
      <trkpt lat="42.313335" lon="-6.498985">
        <ele>864.03</ele>
        <time>2021-03-27T17:11:04Z</time>
      </trkpt>
      <trkpt lat="42.313324" lon="-6.498749">
        <ele>864.9</ele>
        <time>2021-03-27T17:11:06Z</time>
      </trkpt>
      <trkpt lat="42.313357" lon="-6.498323">
        <ele>866.08</ele>
        <time>2021-03-27T17:11:08Z</time>
      </trkpt>
      <trkpt lat="42.313337" lon="-6.498084">
        <ele>864.3</ele>
        <time>2021-03-27T17:11:09Z</time>
      </trkpt>
      <trkpt lat="42.313229" lon="-6.49737">
        <ele>857.35</ele>
        <time>2021-03-27T17:11:11Z</time>
      </trkpt>
      <trkpt lat="42.313194" lon="-6.496975">
        <ele>854.08</ele>
        <time>2021-03-27T17:11:13Z</time>
      </trkpt>
      <trkpt lat="42.313179" lon="-6.496565">
        <ele>853.85</ele>
        <time>2021-03-27T17:11:14Z</time>
      </trkpt>
      <trkpt lat="42.31312" lon="-6.496161">
        <ele>851.76</ele>
        <time>2021-03-27T17:11:16Z</time>
      </trkpt>
      <trkpt lat="42.313038" lon="-6.495741">
        <ele>848.73</ele>
        <time>2021-03-27T17:11:18Z</time>
      </trkpt>
      <trkpt lat="42.312956" lon="-6.494982">
        <ele>844.21</ele>
        <time>2021-03-27T17:11:19Z</time>
      </trkpt>
      <trkpt lat="42.31297" lon="-6.494532">
        <ele>844.64</ele>
        <time>2021-03-27T17:11:21Z</time>
      </trkpt>
      <trkpt lat="42.313127" lon="-6.493006">
        <ele>829.42</ele>
        <time>2021-03-27T17:11:22Z</time>
      </trkpt>
      <trkpt lat="42.313183" lon="-6.492757">
        <ele>824.58</ele>
        <time>2021-03-27T17:11:24Z</time>
      </trkpt>
      <trkpt lat="42.313285" lon="-6.492582">
        <ele>822.9</ele>
        <time>2021-03-27T17:11:26Z</time>
      </trkpt>
      <trkpt lat="42.313587" lon="-6.492237">
        <ele>825.9</ele>
        <time>2021-03-27T17:11:27Z</time>
      </trkpt>
      <trkpt lat="42.313749" lon="-6.49202">
        <ele>829.0</ele>
        <time>2021-03-27T17:11:29Z</time>
      </trkpt>
      <trkpt lat="42.313825" lon="-6.491865">
        <ele>828.18</ele>
        <time>2021-03-27T17:11:31Z</time>
      </trkpt>
      <trkpt lat="42.313958" lon="-6.491254">
        <ele>821.66</ele>
        <time>2021-03-27T17:11:32Z</time>
      </trkpt>
      <trkpt lat="42.314162" lon="-6.490751">
        <ele>823.61</ele>
        <time>2021-03-27T17:11:34Z</time>
      </trkpt>
      <trkpt lat="42.314236" lon="-6.49068">
        <ele>824.67</ele>
        <time>2021-03-27T17:11:36Z</time>
      </trkpt>
      <trkpt lat="42.314525" lon="-6.490531">
        <ele>827.67</ele>
        <time>2021-03-27T17:11:37Z</time>
      </trkpt>
      <trkpt lat="42.314589" lon="-6.490466">
        <ele>827.75</ele>
        <time>2021-03-27T17:11:39Z</time>
      </trkpt>
      <trkpt lat="42.314622" lon="-6.490395">
        <ele>827.39</ele>
        <time>2021-03-27T17:11:41Z</time>
      </trkpt>
      <trkpt lat="42.314614" lon="-6.490269">
        <ele>826.21</ele>
        <time>2021-03-27T17:11:42Z</time>
      </trkpt>
      <trkpt lat="42.314572" lon="-6.490187">
        <ele>826.01</ele>
        <time>2021-03-27T17:11:44Z</time>
      </trkpt>
      <trkpt lat="42.314498" lon="-6.490105">
        <ele>825.77</ele>
        <time>2021-03-27T17:11:46Z</time>
      </trkpt>
      <trkpt lat="42.314447" lon="-6.490086">
        <ele>825.7</ele>
        <time>2021-03-27T17:11:47Z</time>
      </trkpt>
      <trkpt lat="42.314375" lon="-6.490104">
        <ele>825.38</ele>
        <time>2021-03-27T17:11:49Z</time>
      </trkpt>
      <trkpt lat="42.314002" lon="-6.490095">
        <ele>824.25</ele>
        <time>2021-03-27T17:11:50Z</time>
      </trkpt>
      <trkpt lat="42.313693" lon="-6.490174">
        <ele>823.38</ele>
        <time>2021-03-27T17:11:52Z</time>
      </trkpt>
      <trkpt lat="42.31356" lon="-6.49025">
        <ele>823.69</ele>
        <time>2021-03-27T17:11:54Z</time>
      </trkpt>
      <trkpt lat="42.313474" lon="-6.490344">
        <ele>824.27</ele>
        <time>2021-03-27T17:11:55Z</time>
      </trkpt>
      <trkpt lat="42.313133" lon="-6.490957">
        <ele>824.48</ele>
        <time>2021-03-27T17:11:57Z</time>
      </trkpt>
      <trkpt lat="42.313058" lon="-6.491062">
        <ele>824.82</ele>
        <time>2021-03-27T17:11:59Z</time>
      </trkpt>
      <trkpt lat="42.312698" lon="-6.491288">
        <ele>829.09</ele>
        <time>2021-03-27T17:12:00Z</time>
      </trkpt>
      <trkpt lat="42.312279" lon="-6.491743">
        <ele>833.37</ele>
        <time>2021-03-27T17:12:02Z</time>
      </trkpt>
      <trkpt lat="42.312082" lon="-6.49219">
        <ele>832.52</ele>
        <time>2021-03-27T17:12:04Z</time>
      </trkpt>
      <trkpt lat="42.311789" lon="-6.492601">
        <ele>836.66</ele>
        <time>2021-03-27T17:12:05Z</time>
      </trkpt>
      <trkpt lat="42.311099" lon="-6.493958">
        <ele>841.91</ele>
        <time>2021-03-27T17:12:07Z</time>
      </trkpt>
      <trkpt lat="42.311033" lon="-6.49415">
        <ele>842.91</ele>
        <time>2021-03-27T17:12:09Z</time>
      </trkpt>
      <trkpt lat="42.310996" lon="-6.494351">
        <ele>845.08</ele>
        <time>2021-03-27T17:12:10Z</time>
      </trkpt>
      <trkpt lat="42.310925" lon="-6.494594">
        <ele>848.37</ele>
        <time>2021-03-27T17:12:12Z</time>
      </trkpt>
      <trkpt lat="42.310824" lon="-6.494837">
        <ele>850.71</ele>
        <time>2021-03-27T17:12:14Z</time>
      </trkpt>
      <trkpt lat="42.310643" lon="-6.495513">
        <ele>853.42</ele>
        <time>2021-03-27T17:12:15Z</time>
      </trkpt>
      <trkpt lat="42.310596" lon="-6.495897">
        <ele>854.57</ele>
        <time>2021-03-27T17:12:17Z</time>
      </trkpt>
      <trkpt lat="42.310563" lon="-6.49681">
        <ele>856.56</ele>
        <time>2021-03-27T17:12:18Z</time>
      </trkpt>
      <trkpt lat="42.310441" lon="-6.497476">
        <ele>859.4</ele>
        <time>2021-03-27T17:12:20Z</time>
      </trkpt>
      <trkpt lat="42.310403" lon="-6.497587">
        <ele>859.1</ele>
        <time>2021-03-27T17:12:22Z</time>
      </trkpt>
      <trkpt lat="42.310366" lon="-6.497658">
        <ele>859.37</ele>
        <time>2021-03-27T17:12:23Z</time>
      </trkpt>
      <trkpt lat="42.310275" lon="-6.497767">
        <ele>861.25</ele>
        <time>2021-03-27T17:12:25Z</time>
      </trkpt>
      <trkpt lat="42.309993" lon="-6.498">
        <ele>863.84</ele>
        <time>2021-03-27T17:12:27Z</time>
      </trkpt>
      <trkpt lat="42.309491" lon="-6.498275">
        <ele>871.6</ele>
        <time>2021-03-27T17:12:28Z</time>
      </trkpt>
      <trkpt lat="42.30934" lon="-6.498317">
        <ele>874.23</ele>
        <time>2021-03-27T17:12:30Z</time>
      </trkpt>
      <trkpt lat="42.309155" lon="-6.498317">
        <ele>878.49</ele>
        <time>2021-03-27T17:12:32Z</time>
      </trkpt>
      <trkpt lat="42.308768" lon="-6.498225">
        <ele>879.02</ele>
        <time>2021-03-27T17:12:33Z</time>
      </trkpt>
      <trkpt lat="42.308581" lon="-6.498132">
        <ele>880.07</ele>
        <time>2021-03-27T17:12:35Z</time>
      </trkpt>
      <trkpt lat="42.308259" lon="-6.497892">
        <ele>885.98</ele>
        <time>2021-03-27T17:12:37Z</time>
      </trkpt>
      <trkpt lat="42.308031" lon="-6.497879">
        <ele>881.62</ele>
        <time>2021-03-27T17:12:38Z</time>
      </trkpt>
      <trkpt lat="42.307925" lon="-6.497835">
        <ele>879.9</ele>
        <time>2021-03-27T17:12:40Z</time>
      </trkpt>
      <trkpt lat="42.307867" lon="-6.497728">
        <ele>881.44</ele>
        <time>2021-03-27T17:12:42Z</time>
      </trkpt>
      <trkpt lat="42.307725" lon="-6.49733">
        <ele>888.53</ele>
        <time>2021-03-27T17:12:43Z</time>
      </trkpt>
      <trkpt lat="42.30759" lon="-6.497099">
        <ele>892.58</ele>
        <time>2021-03-27T17:12:45Z</time>
      </trkpt>
      <trkpt lat="42.307514" lon="-6.497011">
        <ele>894.27</ele>
        <time>2021-03-27T17:12:46Z</time>
      </trkpt>
      <trkpt lat="42.307426" lon="-6.496942">
        <ele>894.98</ele>
        <time>2021-03-27T17:12:48Z</time>
      </trkpt>
      <trkpt lat="42.307162" lon="-6.496774">
        <ele>896.23</ele>
        <time>2021-03-27T17:12:50Z</time>
      </trkpt>
      <trkpt lat="42.306814" lon="-6.496401">
        <ele>905.12</ele>
        <time>2021-03-27T17:12:51Z</time>
      </trkpt>
      <trkpt lat="42.306606" lon="-6.496224">
        <ele>912.15</ele>
        <time>2021-03-27T17:12:53Z</time>
      </trkpt>
      <trkpt lat="42.306557" lon="-6.496213">
        <ele>913.58</ele>
        <time>2021-03-27T17:12:55Z</time>
      </trkpt>
      <trkpt lat="42.306467" lon="-6.496304">
        <ele>913.26</ele>
        <time>2021-03-27T17:12:56Z</time>
      </trkpt>
      <trkpt lat="42.306364" lon="-6.496735">
        <ele>904.47</ele>
        <time>2021-03-27T17:12:58Z</time>
      </trkpt>
      <trkpt lat="42.306278" lon="-6.496982">
        <ele>901.2</ele>
        <time>2021-03-27T17:13:00Z</time>
      </trkpt>
      <trkpt lat="42.306232" lon="-6.497058">
        <ele>900.48</ele>
        <time>2021-03-27T17:13:01Z</time>
      </trkpt>
      <trkpt lat="42.306129" lon="-6.49718">
        <ele>899.92</ele>
        <time>2021-03-27T17:13:03Z</time>
      </trkpt>
      <trkpt lat="42.305979" lon="-6.497319">
        <ele>901.72</ele>
        <time>2021-03-27T17:13:05Z</time>
      </trkpt>
      <trkpt lat="42.305808" lon="-6.49745">
        <ele>903.88</ele>
        <time>2021-03-27T17:13:06Z</time>
      </trkpt>
      <trkpt lat="42.305706" lon="-6.497511">
        <ele>905.15</ele>
        <time>2021-03-27T17:13:08Z</time>
      </trkpt>
      <trkpt lat="42.305593" lon="-6.49754">
        <ele>907.96</ele>
        <time>2021-03-27T17:13:10Z</time>
      </trkpt>
      <trkpt lat="42.305455" lon="-6.497544">
        <ele>909.63</ele>
        <time>2021-03-27T17:13:11Z</time>
      </trkpt>
      <trkpt lat="42.304827" lon="-6.497253">
        <ele>912.97</ele>
        <time>2021-03-27T17:13:13Z</time>
      </trkpt>
      <trkpt lat="42.304739" lon="-6.497159">
        <ele>915.87</ele>
        <time>2021-03-27T17:13:15Z</time>
      </trkpt>
      <trkpt lat="42.304478" lon="-6.496798">
        <ele>923.64</ele>
        <time>2021-03-27T17:13:16Z</time>
      </trkpt>
      <trkpt lat="42.304219" lon="-6.496484">
        <ele>922.83</ele>
        <time>2021-03-27T17:13:18Z</time>
      </trkpt>
      <trkpt lat="42.304092" lon="-6.496231">
        <ele>923.09</ele>
        <time>2021-03-27T17:13:19Z</time>
      </trkpt>
      <trkpt lat="42.304048" lon="-6.496047">
        <ele>925.39</ele>
        <time>2021-03-27T17:13:21Z</time>
      </trkpt>
      <trkpt lat="42.303988" lon="-6.495596">
        <ele>932.75</ele>
        <time>2021-03-27T17:13:23Z</time>
      </trkpt>
      <trkpt lat="42.303977" lon="-6.495292">
        <ele>936.22</ele>
        <time>2021-03-27T17:13:24Z</time>
      </trkpt>
      <trkpt lat="42.303946" lon="-6.49508">
        <ele>936.48</ele>
        <time>2021-03-27T17:13:26Z</time>
      </trkpt>
      <trkpt lat="42.303879" lon="-6.494852">
        <ele>935.63</ele>
        <time>2021-03-27T17:13:28Z</time>
      </trkpt>
      <trkpt lat="42.303769" lon="-6.494618">
        <ele>934.58</ele>
        <time>2021-03-27T17:13:29Z</time>
      </trkpt>
      <trkpt lat="42.303728" lon="-6.49448">
        <ele>935.99</ele>
        <time>2021-03-27T17:13:31Z</time>
      </trkpt>
      <trkpt lat="42.303677" lon="-6.494174">
        <ele>939.19</ele>
        <time>2021-03-27T17:13:33Z</time>
      </trkpt>
      <trkpt lat="42.303702" lon="-6.494092">
        <ele>941.47</ele>
        <time>2021-03-27T17:13:35Z</time>
      </trkpt>
      <trkpt lat="42.303772" lon="-6.494244">
        <ele>942.75</ele>
        <time>2021-03-27T17:13:36Z</time>
      </trkpt>
      <trkpt lat="42.303858" lon="-6.494521">
        <ele>941.54</ele>
        <time>2021-03-27T17:13:38Z</time>
      </trkpt>
      <trkpt lat="42.304057" lon="-6.494787">
        <ele>945.85</ele>
        <time>2021-03-27T17:13:40Z</time>
      </trkpt>
      <trkpt lat="42.304112" lon="-6.494906">
        <ele>947.69</ele>
        <time>2021-03-27T17:13:41Z</time>
      </trkpt>
      <trkpt lat="42.30418" lon="-6.495105">
        <ele>949.81</ele>
        <time>2021-03-27T17:13:43Z</time>
      </trkpt>
      <trkpt lat="42.304244" lon="-6.495525">
        <ele>949.58</ele>
        <time>2021-03-27T17:13:45Z</time>
      </trkpt>
      <trkpt lat="42.304297" lon="-6.495716">
        <ele>947.88</ele>
        <time>2021-03-27T17:13:46Z</time>
      </trkpt>
      <trkpt lat="42.304348" lon="-6.495857">
        <ele>946.84</ele>
        <time>2021-03-27T17:13:48Z</time>
      </trkpt>
      <trkpt lat="42.304445" lon="-6.495974">
        <ele>947.98</ele>
        <time>2021-03-27T17:13:50Z</time>
      </trkpt>
      <trkpt lat="42.304554" lon="-6.496047">
        <ele>948.63</ele>
        <time>2021-03-27T17:13:52Z</time>
      </trkpt>
      <trkpt lat="42.304732" lon="-6.496096">
        <ele>951.55</ele>
        <time>2021-03-27T17:13:53Z</time>
      </trkpt>
      <trkpt lat="42.304871" lon="-6.49611">
        <ele>952.65</ele>
        <time>2021-03-27T17:13:55Z</time>
      </trkpt>
      <trkpt lat="42.304949" lon="-6.496091">
        <ele>953.92</ele>
        <time>2021-03-27T17:13:57Z</time>
      </trkpt>
      <trkpt lat="42.305212" lon="-6.495888">
        <ele>956.98</ele>
        <time>2021-03-27T17:13:58Z</time>
      </trkpt>
      <trkpt lat="42.305331" lon="-6.495752">
        <ele>958.07</ele>
        <time>2021-03-27T17:14:00Z</time>
      </trkpt>
      <trkpt lat="42.305534" lon="-6.495433">
        <ele>961.07</ele>
        <time>2021-03-27T17:14:02Z</time>
      </trkpt>
      <trkpt lat="42.305646" lon="-6.49524">
        <ele>962.48</ele>
        <time>2021-03-27T17:14:03Z</time>
      </trkpt>
      <trkpt lat="42.305693" lon="-6.495105">
        <ele>963.96</ele>
        <time>2021-03-27T17:14:05Z</time>
      </trkpt>
      <trkpt lat="42.305704" lon="-6.494995">
        <ele>965.83</ele>
        <time>2021-03-27T17:14:07Z</time>
      </trkpt>
      <trkpt lat="42.305685" lon="-6.494933">
        <ele>967.84</ele>
        <time>2021-03-27T17:14:09Z</time>
      </trkpt>
      <trkpt lat="42.30564" lon="-6.494894">
        <ele>970.11</ele>
        <time>2021-03-27T17:14:10Z</time>
      </trkpt>
      <trkpt lat="42.30558" lon="-6.494921">
        <ele>971.25</ele>
        <time>2021-03-27T17:14:12Z</time>
      </trkpt>
      <trkpt lat="42.305421" lon="-6.495076">
        <ele>971.26</ele>
        <time>2021-03-27T17:14:14Z</time>
      </trkpt>
      <trkpt lat="42.305302" lon="-6.49514">
        <ele>972.45</ele>
        <time>2021-03-27T17:14:15Z</time>
      </trkpt>
      <trkpt lat="42.305191" lon="-6.495168">
        <ele>972.38</ele>
        <time>2021-03-27T17:14:17Z</time>
      </trkpt>
      <trkpt lat="42.304945" lon="-6.49511">
        <ele>972.68</ele>
        <time>2021-03-27T17:14:19Z</time>
      </trkpt>
      <trkpt lat="42.30485" lon="-6.495052">
        <ele>971.95</ele>
        <time>2021-03-27T17:14:20Z</time>
      </trkpt>
      <trkpt lat="42.304792" lon="-6.494993">
        <ele>971.63</ele>
        <time>2021-03-27T17:14:22Z</time>
      </trkpt>
      <trkpt lat="42.304668" lon="-6.494394">
        <ele>977.27</ele>
        <time>2021-03-27T17:14:24Z</time>
      </trkpt>
      <trkpt lat="42.304603" lon="-6.493859">
        <ele>983.79</ele>
        <time>2021-03-27T17:14:25Z</time>
      </trkpt>
      <trkpt lat="42.304457" lon="-6.493381">
        <ele>990.45</ele>
        <time>2021-03-27T17:14:27Z</time>
      </trkpt>
      <trkpt lat="42.304342" lon="-6.492737">
        <ele>1001.44</ele>
        <time>2021-03-27T17:14:29Z</time>
      </trkpt>
      <trkpt lat="42.304242" lon="-6.492495">
        <ele>1002.84</ele>
        <time>2021-03-27T17:14:31Z</time>
      </trkpt>
      <trkpt lat="42.304178" lon="-6.492415">
        <ele>1002.26</ele>
        <time>2021-03-27T17:14:32Z</time>
      </trkpt>
      <trkpt lat="42.303994" lon="-6.492263">
        <ele>998.84</ele>
        <time>2021-03-27T17:14:34Z</time>
      </trkpt>
      <trkpt lat="42.303904" lon="-6.492081">
        <ele>999.17</ele>
        <time>2021-03-27T17:14:36Z</time>
      </trkpt>
      <trkpt lat="42.303826" lon="-6.491761">
        <ele>1001.39</ele>
        <time>2021-03-27T17:14:37Z</time>
      </trkpt>
      <trkpt lat="42.303823" lon="-6.491498">
        <ele>1005.05</ele>
        <time>2021-03-27T17:14:39Z</time>
      </trkpt>
      <trkpt lat="42.303847" lon="-6.491332">
        <ele>1007.6</ele>
        <time>2021-03-27T17:14:41Z</time>
      </trkpt>
      <trkpt lat="42.303929" lon="-6.491011">
        <ele>1012.73</ele>
        <time>2021-03-27T17:14:42Z</time>
      </trkpt>
      <trkpt lat="42.303967" lon="-6.490756">
        <ele>1016.03</ele>
        <time>2021-03-27T17:14:44Z</time>
      </trkpt>
      <trkpt lat="42.304009" lon="-6.490254">
        <ele>1019.01</ele>
        <time>2021-03-27T17:14:46Z</time>
      </trkpt>
      <trkpt lat="42.304047" lon="-6.490141">
        <ele>1021.54</ele>
        <time>2021-03-27T17:14:48Z</time>
      </trkpt>
      <trkpt lat="42.304089" lon="-6.490113">
        <ele>1022.61</ele>
        <time>2021-03-27T17:14:49Z</time>
      </trkpt>
      <trkpt lat="42.304185" lon="-6.490149">
        <ele>1024.01</ele>
        <time>2021-03-27T17:14:51Z</time>
      </trkpt>
      <trkpt lat="42.304194" lon="-6.490216">
        <ele>1023.68</ele>
        <time>2021-03-27T17:14:53Z</time>
      </trkpt>
      <trkpt lat="42.304142" lon="-6.49045">
        <ele>1021.93</ele>
        <time>2021-03-27T17:14:54Z</time>
      </trkpt>
      <trkpt lat="42.304147" lon="-6.4907">
        <ele>1022.34</ele>
        <time>2021-03-27T17:14:56Z</time>
      </trkpt>
      <trkpt lat="42.304195" lon="-6.490952">
        <ele>1023.82</ele>
        <time>2021-03-27T17:14:58Z</time>
      </trkpt>
      <trkpt lat="42.304259" lon="-6.491167">
        <ele>1025.54</ele>
        <time>2021-03-27T17:14:59Z</time>
      </trkpt>
      <trkpt lat="42.304745" lon="-6.491896">
        <ele>1033.46</ele>
        <time>2021-03-27T17:15:01Z</time>
      </trkpt>
      <trkpt lat="42.305204" lon="-6.492464">
        <ele>1035.2</ele>
        <time>2021-03-27T17:15:03Z</time>
      </trkpt>
      <trkpt lat="42.305303" lon="-6.492515">
        <ele>1035.98</ele>
        <time>2021-03-27T17:15:05Z</time>
      </trkpt>
      <trkpt lat="42.3054" lon="-6.492522">
        <ele>1037.51</ele>
        <time>2021-03-27T17:15:06Z</time>
      </trkpt>
      <trkpt lat="42.305545" lon="-6.492503">
        <ele>1040.73</ele>
        <time>2021-03-27T17:15:08Z</time>
      </trkpt>
      <trkpt lat="42.305952" lon="-6.492374">
        <ele>1045.49</ele>
        <time>2021-03-27T17:15:10Z</time>
      </trkpt>
      <trkpt lat="42.306113" lon="-6.492305">
        <ele>1046.9</ele>
        <time>2021-03-27T17:15:11Z</time>
      </trkpt>
      <trkpt lat="42.306534" lon="-6.491992">
        <ele>1051.85</ele>
        <time>2021-03-27T17:15:13Z</time>
      </trkpt>
      <trkpt lat="42.306635" lon="-6.491876">
        <ele>1053.54</ele>
        <time>2021-03-27T17:15:15Z</time>
      </trkpt>
      <trkpt lat="42.307215" lon="-6.491012">
        <ele>1060.75</ele>
        <time>2021-03-27T17:15:16Z</time>
      </trkpt>
      <trkpt lat="42.307322" lon="-6.490828">
        <ele>1061.2</ele>
        <time>2021-03-27T17:15:18Z</time>
      </trkpt>
      <trkpt lat="42.307518" lon="-6.490352">
        <ele>1067.07</ele>
        <time>2021-03-27T17:15:20Z</time>
      </trkpt>
      <trkpt lat="42.307879" lon="-6.489258">
        <ele>1076.54</ele>
        <time>2021-03-27T17:15:21Z</time>
      </trkpt>
      <trkpt lat="42.30796" lon="-6.488911">
        <ele>1080.58</ele>
        <time>2021-03-27T17:15:23Z</time>
      </trkpt>
      <trkpt lat="42.308133" lon="-6.487963">
        <ele>1083.13</ele>
        <time>2021-03-27T17:15:25Z</time>
      </trkpt>
      <trkpt lat="42.308426" lon="-6.486556">
        <ele>1097.36</ele>
        <time>2021-03-27T17:15:27Z</time>
      </trkpt>
      <trkpt lat="42.308507" lon="-6.485961">
        <ele>1102.1</ele>
        <time>2021-03-27T17:15:28Z</time>
      </trkpt>
      <trkpt lat="42.308512" lon="-6.485603">
        <ele>1102.37</ele>
        <time>2021-03-27T17:15:30Z</time>
      </trkpt>
      <trkpt lat="42.308491" lon="-6.485241">
        <ele>1103.78</ele>
        <time>2021-03-27T17:15:32Z</time>
      </trkpt>
      <trkpt lat="42.308393" lon="-6.484388">
        <ele>1114.73</ele>
        <time>2021-03-27T17:15:33Z</time>
      </trkpt>
      <trkpt lat="42.30826" lon="-6.48362">
        <ele>1120.9</ele>
        <time>2021-03-27T17:15:35Z</time>
      </trkpt>
      <trkpt lat="42.308017" lon="-6.482549">
        <ele>1125.19</ele>
        <time>2021-03-27T17:15:37Z</time>
      </trkpt>
      <trkpt lat="42.30784" lon="-6.481638">
        <ele>1131.94</ele>
        <time>2021-03-27T17:15:38Z</time>
      </trkpt>
      <trkpt lat="42.307717" lon="-6.481137">
        <ele>1139.09</ele>
        <time>2021-03-27T17:15:40Z</time>
      </trkpt>
      <trkpt lat="42.307583" lon="-6.47978">
        <ele>1142.57</ele>
        <time>2021-03-27T17:15:42Z</time>
      </trkpt>
      <trkpt lat="42.307411" lon="-6.478971">
        <ele>1148.71</ele>
        <time>2021-03-27T17:15:44Z</time>
      </trkpt>
      <trkpt lat="42.307108" lon="-6.477886">
        <ele>1155.15</ele>
        <time>2021-03-27T17:15:45Z</time>
      </trkpt>
      <trkpt lat="42.307052" lon="-6.477756">
        <ele>1155.0</ele>
        <time>2021-03-27T17:15:47Z</time>
      </trkpt>
      <trkpt lat="42.306769" lon="-6.477445">
        <ele>1161.93</ele>
        <time>2021-03-27T17:15:49Z</time>
      </trkpt>
      <trkpt lat="42.30663" lon="-6.477231">
        <ele>1163.59</ele>
        <time>2021-03-27T17:15:50Z</time>
      </trkpt>
      <trkpt lat="42.306424" lon="-6.476861">
        <ele>1171.31</ele>
        <time>2021-03-27T17:15:52Z</time>
      </trkpt>
      <trkpt lat="42.306381" lon="-6.476756">
        <ele>1172.82</ele>
        <time>2021-03-27T17:15:54Z</time>
      </trkpt>
      <trkpt lat="42.306311" lon="-6.476385">
        <ele>1172.96</ele>
        <time>2021-03-27T17:15:55Z</time>
      </trkpt>
      <trkpt lat="42.30632" lon="-6.476028">
        <ele>1168.74</ele>
        <time>2021-03-27T17:15:57Z</time>
      </trkpt>
      <trkpt lat="42.306294" lon="-6.475826">
        <ele>1168.98</ele>
        <time>2021-03-27T17:15:59Z</time>
      </trkpt>
      <trkpt lat="42.305987" lon="-6.475338">
        <ele>1175.85</ele>
        <time>2021-03-27T17:16:01Z</time>
      </trkpt>
      <trkpt lat="42.305885" lon="-6.475227">
        <ele>1177.09</ele>
        <time>2021-03-27T17:16:02Z</time>
      </trkpt>
      <trkpt lat="42.3057" lon="-6.475077">
        <ele>1182.48</ele>
        <time>2021-03-27T17:16:04Z</time>
      </trkpt>
      <trkpt lat="42.305571" lon="-6.474897">
        <ele>1185.46</ele>
        <time>2021-03-27T17:16:06Z</time>
      </trkpt>
      <trkpt lat="42.305529" lon="-6.4748">
        <ele>1186.02</ele>
        <time>2021-03-27T17:16:07Z</time>
      </trkpt>
      <trkpt lat="42.305449" lon="-6.474536">
        <ele>1186.79</ele>
        <time>2021-03-27T17:16:09Z</time>
      </trkpt>
      <trkpt lat="42.305434" lon="-6.474108">
        <ele>1184.68</ele>
        <time>2021-03-27T17:16:11Z</time>
      </trkpt>
      <trkpt lat="42.305402" lon="-6.473848">
        <ele>1187.38</ele>
        <time>2021-03-27T17:16:12Z</time>
      </trkpt>
      <trkpt lat="42.305217" lon="-6.473388">
        <ele>1198.4</ele>
        <time>2021-03-27T17:16:14Z</time>
      </trkpt>
      <trkpt lat="42.305214" lon="-6.47332">
        <ele>1198.95</ele>
        <time>2021-03-27T17:16:16Z</time>
      </trkpt>
      <trkpt lat="42.305238" lon="-6.473259">
        <ele>1198.98</ele>
        <time>2021-03-27T17:16:17Z</time>
      </trkpt>
      <trkpt lat="42.305279" lon="-6.473212">
        <ele>1198.7</ele>
        <time>2021-03-27T17:16:19Z</time>
      </trkpt>
      <trkpt lat="42.305738" lon="-6.473186">
        <ele>1188.45</ele>
        <time>2021-03-27T17:16:21Z</time>
      </trkpt>
      <trkpt lat="42.305846" lon="-6.473146">
        <ele>1187.49</ele>
        <time>2021-03-27T17:16:23Z</time>
      </trkpt>
      <trkpt lat="42.30594" lon="-6.473">
        <ele>1189.8</ele>
        <time>2021-03-27T17:16:24Z</time>
      </trkpt>
      <trkpt lat="42.306029" lon="-6.472804">
        <ele>1193.99</ele>
        <time>2021-03-27T17:16:26Z</time>
      </trkpt>
      <trkpt lat="42.30658" lon="-6.472031">
        <ele>1201.9</ele>
        <time>2021-03-27T17:16:28Z</time>
      </trkpt>
      <trkpt lat="42.30673" lon="-6.471585">
        <ele>1205.36</ele>
        <time>2021-03-27T17:16:29Z</time>
      </trkpt>
      <trkpt lat="42.306943" lon="-6.471118">
        <ele>1208.91</ele>
        <time>2021-03-27T17:16:31Z</time>
      </trkpt>
      <trkpt lat="42.306992" lon="-6.470829">
        <ele>1210.99</ele>
        <time>2021-03-27T17:16:33Z</time>
      </trkpt>
      <trkpt lat="42.307" lon="-6.470088">
        <ele>1219.66</ele>
        <time>2021-03-27T17:16:34Z</time>
      </trkpt>
      <trkpt lat="42.307017" lon="-6.469988">
        <ele>1220.9</ele>
        <time>2021-03-27T17:16:36Z</time>
      </trkpt>
      <trkpt lat="42.307053" lon="-6.469933">
        <ele>1221.62</ele>
        <time>2021-03-27T17:16:38Z</time>
      </trkpt>
      <trkpt lat="42.307102" lon="-6.469902">
        <ele>1222.09</ele>
        <time>2021-03-27T17:16:40Z</time>
      </trkpt>
      <trkpt lat="42.307161" lon="-6.469894">
        <ele>1222.26</ele>
        <time>2021-03-27T17:16:41Z</time>
      </trkpt>
      <trkpt lat="42.307579" lon="-6.470068">
        <ele>1219.01</ele>
        <time>2021-03-27T17:16:43Z</time>
      </trkpt>
      <trkpt lat="42.307659" lon="-6.470073">
        <ele>1218.59</ele>
        <time>2021-03-27T17:16:45Z</time>
      </trkpt>
      <trkpt lat="42.307768" lon="-6.470024">
        <ele>1219.44</ele>
        <time>2021-03-27T17:16:46Z</time>
      </trkpt>
      <trkpt lat="42.307817" lon="-6.469943">
        <ele>1220.29</ele>
        <time>2021-03-27T17:16:48Z</time>
      </trkpt>
      <trkpt lat="42.308" lon="-6.469322">
        <ele>1223.7</ele>
        <time>2021-03-27T17:16:50Z</time>
      </trkpt>
      <trkpt lat="42.30862" lon="-6.467772">
        <ele>1233.87</ele>
        <time>2021-03-27T17:16:51Z</time>
      </trkpt>
      <trkpt lat="42.308707" lon="-6.467521">
        <ele>1236.52</ele>
        <time>2021-03-27T17:16:53Z</time>
      </trkpt>
      <trkpt lat="42.30882" lon="-6.467023">
        <ele>1243.35</ele>
        <time>2021-03-27T17:16:55Z</time>
      </trkpt>
      <trkpt lat="42.309058" lon="-6.465804">
        <ele>1246.72</ele>
        <time>2021-03-27T17:16:57Z</time>
      </trkpt>
      <trkpt lat="42.309068" lon="-6.465452">
        <ele>1250.73</ele>
        <time>2021-03-27T17:16:58Z</time>
      </trkpt>
      <trkpt lat="42.309001" lon="-6.464951">
        <ele>1254.35</ele>
        <time>2021-03-27T17:17:00Z</time>
      </trkpt>
      <trkpt lat="42.308955" lon="-6.46475">
        <ele>1255.8</ele>
        <time>2021-03-27T17:17:02Z</time>
      </trkpt>
      <trkpt lat="42.308796" lon="-6.464431">
        <ele>1258.36</ele>
        <time>2021-03-27T17:17:03Z</time>
      </trkpt>
      <trkpt lat="42.308652" lon="-6.464066">
        <ele>1258.64</ele>
        <time>2021-03-27T17:17:05Z</time>
      </trkpt>
      <trkpt lat="42.308536" lon="-6.463703">
        <ele>1256.03</ele>
        <time>2021-03-27T17:17:07Z</time>
      </trkpt>
      <trkpt lat="42.308424" lon="-6.463195">
        <ele>1253.49</ele>
        <time>2021-03-27T17:17:08Z</time>
      </trkpt>
      <trkpt lat="42.308388" lon="-6.462894">
        <ele>1253.28</ele>
        <time>2021-03-27T17:17:10Z</time>
      </trkpt>
      <trkpt lat="42.308368" lon="-6.462191">
        <ele>1250.27</ele>
        <time>2021-03-27T17:17:12Z</time>
      </trkpt>
      <trkpt lat="42.308368" lon="-6.462191">
        <ele>1250.27</ele>
        <time>2021-03-27T17:17:12Z</time>
      </trkpt>
      <trkpt lat="42.308397" lon="-6.461248">
        <ele>1244.92</ele>
        <time>2021-03-27T17:17:14Z</time>
      </trkpt>
      <trkpt lat="42.308392" lon="-6.460531">
        <ele>1243.19</ele>
        <time>2021-03-27T17:17:17Z</time>
      </trkpt>
      <trkpt lat="42.308403" lon="-6.460386">
        <ele>1241.98</ele>
        <time>2021-03-27T17:17:19Z</time>
      </trkpt>
      <trkpt lat="42.308571" lon="-6.459801">
        <ele>1239.34</ele>
        <time>2021-03-27T17:17:22Z</time>
      </trkpt>
      <trkpt lat="42.308614" lon="-6.459481">
        <ele>1238.16</ele>
        <time>2021-03-27T17:17:24Z</time>
      </trkpt>
      <trkpt lat="42.308569" lon="-6.458999">
        <ele>1236.24</ele>
        <time>2021-03-27T17:17:27Z</time>
      </trkpt>
      <trkpt lat="42.308551" lon="-6.458597">
        <ele>1235.2</ele>
        <time>2021-03-27T17:17:29Z</time>
      </trkpt>
      <trkpt lat="42.308512" lon="-6.458491">
        <ele>1233.64</ele>
        <time>2021-03-27T17:17:32Z</time>
      </trkpt>
      <trkpt lat="42.308796" lon="-6.458131">
        <ele>1232.94</ele>
        <time>2021-03-27T17:17:34Z</time>
      </trkpt>
      <trkpt lat="42.308916" lon="-6.457947">
        <ele>1232.9</ele>
        <time>2021-03-27T17:17:37Z</time>
      </trkpt>
      <trkpt lat="42.309169" lon="-6.457537">
        <ele>1234.19</ele>
        <time>2021-03-27T17:17:39Z</time>
      </trkpt>
      <trkpt lat="42.309335" lon="-6.457185">
        <ele>1234.87</ele>
        <time>2021-03-27T17:17:42Z</time>
      </trkpt>
      <trkpt lat="42.30943" lon="-6.456942">
        <ele>1234.83</ele>
        <time>2021-03-27T17:17:44Z</time>
      </trkpt>
      <trkpt lat="42.309622" lon="-6.456717">
        <ele>1236.21</ele>
        <time>2021-03-27T17:17:47Z</time>
      </trkpt>
      <trkpt lat="42.309685" lon="-6.456529">
        <ele>1235.67</ele>
        <time>2021-03-27T17:17:49Z</time>
      </trkpt>
      <trkpt lat="42.309695" lon="-6.45609">
        <ele>1232.8</ele>
        <time>2021-03-27T17:17:52Z</time>
      </trkpt>
      <trkpt lat="42.309733" lon="-6.456001">
        <ele>1233.12</ele>
        <time>2021-03-27T17:17:54Z</time>
      </trkpt>
      <trkpt lat="42.310009" lon="-6.455538">
        <ele>1236.07</ele>
        <time>2021-03-27T17:17:57Z</time>
      </trkpt>
      <trkpt lat="42.310242" lon="-6.455225">
        <ele>1238.42</ele>
        <time>2021-03-27T17:17:59Z</time>
      </trkpt>
      <trkpt lat="42.310294" lon="-6.455126">
        <ele>1238.51</ele>
        <time>2021-03-27T17:18:02Z</time>
      </trkpt>
      <trkpt lat="42.310327" lon="-6.454892">
        <ele>1237.08</ele>
        <time>2021-03-27T17:18:04Z</time>
      </trkpt>
      <trkpt lat="42.310311" lon="-6.454516">
        <ele>1233.02</ele>
        <time>2021-03-27T17:18:07Z</time>
      </trkpt>
      <trkpt lat="42.310324" lon="-6.45424">
        <ele>1231.47</ele>
        <time>2021-03-27T17:18:09Z</time>
      </trkpt>
      <trkpt lat="42.310349" lon="-6.454049">
        <ele>1231.15</ele>
        <time>2021-03-27T17:18:12Z</time>
      </trkpt>
      <trkpt lat="42.310501" lon="-6.453892">
        <ele>1231.01</ele>
        <time>2021-03-27T17:18:14Z</time>
      </trkpt>
      <trkpt lat="42.31056" lon="-6.453794">
        <ele>1231.35</ele>
        <time>2021-03-27T17:18:17Z</time>
      </trkpt>
      <trkpt lat="42.310596" lon="-6.45362">
        <ele>1232.11</ele>
        <time>2021-03-27T17:18:19Z</time>
      </trkpt>
      <trkpt lat="42.310611" lon="-6.453351">
        <ele>1232.39</ele>
        <time>2021-03-27T17:18:22Z</time>
      </trkpt>
      <trkpt lat="42.310633" lon="-6.453266">
        <ele>1232.8</ele>
        <time>2021-03-27T17:18:24Z</time>
      </trkpt>
      <trkpt lat="42.310701" lon="-6.453164">
        <ele>1233.66</ele>
        <time>2021-03-27T17:18:27Z</time>
      </trkpt>
      <trkpt lat="42.310794" lon="-6.453086">
        <ele>1234.6</ele>
        <time>2021-03-27T17:18:29Z</time>
      </trkpt>
      <trkpt lat="42.311286" lon="-6.45278">
        <ele>1239.34</ele>
        <time>2021-03-27T17:18:32Z</time>
      </trkpt>
      <trkpt lat="42.311437" lon="-6.452665">
        <ele>1240.55</ele>
        <time>2021-03-27T17:18:34Z</time>
      </trkpt>
      <trkpt lat="42.311527" lon="-6.452535">
        <ele>1242.06</ele>
        <time>2021-03-27T17:18:37Z</time>
      </trkpt>
      <trkpt lat="42.311934" lon="-6.451517">
        <ele>1250.04</ele>
        <time>2021-03-27T17:18:39Z</time>
      </trkpt>
      <trkpt lat="42.312185" lon="-6.451094">
        <ele>1253.06</ele>
        <time>2021-03-27T17:18:42Z</time>
      </trkpt>
      <trkpt lat="42.312348" lon="-6.450703">
        <ele>1255.16</ele>
        <time>2021-03-27T17:18:44Z</time>
      </trkpt>
      <trkpt lat="42.312561" lon="-6.450103">
        <ele>1255.03</ele>
        <time>2021-03-27T17:18:47Z</time>
      </trkpt>
      <trkpt lat="42.31259" lon="-6.449688">
        <ele>1254.97</ele>
        <time>2021-03-27T17:18:49Z</time>
      </trkpt>
      <trkpt lat="42.312669" lon="-6.449097">
        <ele>1256.43</ele>
        <time>2021-03-27T17:18:52Z</time>
      </trkpt>
      <trkpt lat="42.312843" lon="-6.448585">
        <ele>1258.84</ele>
        <time>2021-03-27T17:18:54Z</time>
      </trkpt>
      <trkpt lat="42.313183" lon="-6.44779">
        <ele>1261.88</ele>
        <time>2021-03-27T17:18:57Z</time>
      </trkpt>
      <trkpt lat="42.313329" lon="-6.447525">
        <ele>1262.11</ele>
        <time>2021-03-27T17:18:59Z</time>
      </trkpt>
      <trkpt lat="42.314237" lon="-6.44617">
        <ele>1264.34</ele>
        <time>2021-03-27T17:19:02Z</time>
      </trkpt>
      <trkpt lat="42.314438" lon="-6.445919">
        <ele>1264.58</ele>
        <time>2021-03-27T17:19:04Z</time>
      </trkpt>
      <trkpt lat="42.314659" lon="-6.445714">
        <ele>1264.88</ele>
        <time>2021-03-27T17:19:07Z</time>
      </trkpt>
      <trkpt lat="42.315293" lon="-6.445292">
        <ele>1267.32</ele>
        <time>2021-03-27T17:19:09Z</time>
      </trkpt>
      <trkpt lat="42.315687" lon="-6.444995">
        <ele>1271.34</ele>
        <time>2021-03-27T17:19:12Z</time>
      </trkpt>
      <trkpt lat="42.317685" lon="-6.4433">
        <ele>1278.54</ele>
        <time>2021-03-27T17:19:14Z</time>
      </trkpt>
      <trkpt lat="42.317844" lon="-6.443111">
        <ele>1280.39</ele>
        <time>2021-03-27T17:19:17Z</time>
      </trkpt>
      <trkpt lat="42.318232" lon="-6.442414">
        <ele>1285.33</ele>
        <time>2021-03-27T17:19:19Z</time>
      </trkpt>
      <trkpt lat="42.318889" lon="-6.441297">
        <ele>1295.68</ele>
        <time>2021-03-27T17:19:22Z</time>
      </trkpt>
      <trkpt lat="42.319065" lon="-6.441094">
        <ele>1295.88</ele>
        <time>2021-03-27T17:19:24Z</time>
      </trkpt>
      <trkpt lat="42.319181" lon="-6.441012">
        <ele>1296.83</ele>
        <time>2021-03-27T17:19:27Z</time>
      </trkpt>
      <trkpt lat="42.319363" lon="-6.440918">
        <ele>1298.75</ele>
        <time>2021-03-27T17:19:29Z</time>
      </trkpt>
      <trkpt lat="42.320053" lon="-6.440603">
        <ele>1302.56</ele>
        <time>2021-03-27T17:19:32Z</time>
      </trkpt>
      <trkpt lat="42.320165" lon="-6.440571">
        <ele>1303.08</ele>
        <time>2021-03-27T17:19:34Z</time>
      </trkpt>
      <trkpt lat="42.320234" lon="-6.440564">
        <ele>1303.68</ele>
        <time>2021-03-27T17:19:37Z</time>
      </trkpt>
      <trkpt lat="42.320338" lon="-6.440585">
        <ele>1304.14</ele>
        <time>2021-03-27T17:19:39Z</time>
      </trkpt>
      <trkpt lat="42.320944" lon="-6.440768">
        <ele>1308.97</ele>
        <time>2021-03-27T17:19:42Z</time>
      </trkpt>
      <trkpt lat="42.321111" lon="-6.440771">
        <ele>1309.2</ele>
        <time>2021-03-27T17:19:44Z</time>
      </trkpt>
      <trkpt lat="42.321753" lon="-6.440613">
        <ele>1307.79</ele>
        <time>2021-03-27T17:19:47Z</time>
      </trkpt>
      <trkpt lat="42.321897" lon="-6.440561">
        <ele>1307.66</ele>
        <time>2021-03-27T17:19:49Z</time>
      </trkpt>
      <trkpt lat="42.322152" lon="-6.440412">
        <ele>1306.85</ele>
        <time>2021-03-27T17:19:52Z</time>
      </trkpt>
      <trkpt lat="42.322619" lon="-6.440078">
        <ele>1304.3</ele>
        <time>2021-03-27T17:19:54Z</time>
      </trkpt>
      <trkpt lat="42.323069" lon="-6.43966">
        <ele>1304.31</ele>
        <time>2021-03-27T17:19:57Z</time>
      </trkpt>
      <trkpt lat="42.323853" lon="-6.438851">
        <ele>1308.4</ele>
        <time>2021-03-27T17:19:59Z</time>
      </trkpt>
      <trkpt lat="42.324063" lon="-6.438576">
        <ele>1306.18</ele>
        <time>2021-03-27T17:20:02Z</time>
      </trkpt>
      <trkpt lat="42.324495" lon="-6.437757">
        <ele>1303.05</ele>
        <time>2021-03-27T17:20:04Z</time>
      </trkpt>
      <trkpt lat="42.324668" lon="-6.437459">
        <ele>1304.27</ele>
        <time>2021-03-27T17:20:07Z</time>
      </trkpt>
      <trkpt lat="42.324834" lon="-6.437234">
        <ele>1305.69</ele>
        <time>2021-03-27T17:20:09Z</time>
      </trkpt>
      <trkpt lat="42.325114" lon="-6.436941">
        <ele>1306.83</ele>
        <time>2021-03-27T17:20:12Z</time>
      </trkpt>
      <trkpt lat="42.325348" lon="-6.436616">
        <ele>1308.1</ele>
        <time>2021-03-27T17:20:14Z</time>
      </trkpt>
      <trkpt lat="42.325455" lon="-6.436408">
        <ele>1308.37</ele>
        <time>2021-03-27T17:20:17Z</time>
      </trkpt>
      <trkpt lat="42.32563" lon="-6.436006">
        <ele>1308.02</ele>
        <time>2021-03-27T17:20:19Z</time>
      </trkpt>
      <trkpt lat="42.325928" lon="-6.435061">
        <ele>1308.26</ele>
        <time>2021-03-27T17:20:22Z</time>
      </trkpt>
      <trkpt lat="42.326316" lon="-6.434111">
        <ele>1310.64</ele>
        <time>2021-03-27T17:20:24Z</time>
      </trkpt>
      <trkpt lat="42.32642" lon="-6.43368">
        <ele>1312.47</ele>
        <time>2021-03-27T17:20:27Z</time>
      </trkpt>
      <trkpt lat="42.326541" lon="-6.432403">
        <ele>1313.19</ele>
        <time>2021-03-27T17:20:29Z</time>
      </trkpt>
      <trkpt lat="42.326792" lon="-6.431154">
        <ele>1319.16</ele>
        <time>2021-03-27T17:20:32Z</time>
      </trkpt>
      <trkpt lat="42.326891" lon="-6.430572">
        <ele>1319.72</ele>
        <time>2021-03-27T17:20:34Z</time>
      </trkpt>
      <trkpt lat="42.326945" lon="-6.430359">
        <ele>1319.6</ele>
        <time>2021-03-27T17:20:37Z</time>
      </trkpt>
      <trkpt lat="42.327066" lon="-6.430073">
        <ele>1320.8</ele>
        <time>2021-03-27T17:20:39Z</time>
      </trkpt>
      <trkpt lat="42.327155" lon="-6.429925">
        <ele>1321.25</ele>
        <time>2021-03-27T17:20:42Z</time>
      </trkpt>
      <trkpt lat="42.327428" lon="-6.429586">
        <ele>1325.2</ele>
        <time>2021-03-27T17:20:44Z</time>
      </trkpt>
      <trkpt lat="42.327488" lon="-6.42948">
        <ele>1325.95</ele>
        <time>2021-03-27T17:20:47Z</time>
      </trkpt>
      <trkpt lat="42.327914" lon="-6.428407">
        <ele>1328.81</ele>
        <time>2021-03-27T17:20:49Z</time>
      </trkpt>
      <trkpt lat="42.328024" lon="-6.427893">
        <ele>1329.87</ele>
        <time>2021-03-27T17:20:52Z</time>
      </trkpt>
      <trkpt lat="42.328068" lon="-6.427598">
        <ele>1329.76</ele>
        <time>2021-03-27T17:20:54Z</time>
      </trkpt>
      <trkpt lat="42.328091" lon="-6.427379">
        <ele>1330.09</ele>
        <time>2021-03-27T17:20:57Z</time>
      </trkpt>
      <trkpt lat="42.328134" lon="-6.426371">
        <ele>1328.85</ele>
        <time>2021-03-27T17:20:59Z</time>
      </trkpt>
      <trkpt lat="42.328207" lon="-6.426015">
        <ele>1327.74</ele>
        <time>2021-03-27T17:21:02Z</time>
      </trkpt>
      <trkpt lat="42.328299" lon="-6.425704">
        <ele>1326.97</ele>
        <time>2021-03-27T17:21:04Z</time>
      </trkpt>
      <trkpt lat="42.3284" lon="-6.425514">
        <ele>1327.98</ele>
        <time>2021-03-27T17:21:07Z</time>
      </trkpt>
      <trkpt lat="42.328899" lon="-6.424746">
        <ele>1332.01</ele>
        <time>2021-03-27T17:21:09Z</time>
      </trkpt>
      <trkpt lat="42.32897" lon="-6.424704">
        <ele>1333.61</ele>
        <time>2021-03-27T17:21:12Z</time>
      </trkpt>
      <trkpt lat="42.329054" lon="-6.424705">
        <ele>1335.13</ele>
        <time>2021-03-27T17:21:14Z</time>
      </trkpt>
      <trkpt lat="42.329122" lon="-6.424732">
        <ele>1336.09</ele>
        <time>2021-03-27T17:21:17Z</time>
      </trkpt>
      <trkpt lat="42.329242" lon="-6.424822">
        <ele>1338.09</ele>
        <time>2021-03-27T17:21:19Z</time>
      </trkpt>
      <trkpt lat="42.329351" lon="-6.424941">
        <ele>1339.95</ele>
        <time>2021-03-27T17:21:22Z</time>
      </trkpt>
      <trkpt lat="42.329634" lon="-6.42535">
        <ele>1338.85</ele>
        <time>2021-03-27T17:21:24Z</time>
      </trkpt>
      <trkpt lat="42.330033" lon="-6.425871">
        <ele>1337.46</ele>
        <time>2021-03-27T17:21:27Z</time>
      </trkpt>
      <trkpt lat="42.330418" lon="-6.426288">
        <ele>1342.12</ele>
        <time>2021-03-27T17:21:29Z</time>
      </trkpt>
      <trkpt lat="42.330711" lon="-6.426642">
        <ele>1343.66</ele>
        <time>2021-03-27T17:21:32Z</time>
      </trkpt>
      <trkpt lat="42.331537" lon="-6.427766">
        <ele>1352.26</ele>
        <time>2021-03-27T17:21:34Z</time>
      </trkpt>
      <trkpt lat="42.33181" lon="-6.428102">
        <ele>1352.22</ele>
        <time>2021-03-27T17:21:37Z</time>
      </trkpt>
      <trkpt lat="42.332179" lon="-6.428412">
        <ele>1352.78</ele>
        <time>2021-03-27T17:21:39Z</time>
      </trkpt>
      <trkpt lat="42.333019" lon="-6.428834">
        <ele>1359.34</ele>
        <time>2021-03-27T17:21:42Z</time>
      </trkpt>
      <trkpt lat="42.333288" lon="-6.42899">
        <ele>1360.95</ele>
        <time>2021-03-27T17:21:44Z</time>
      </trkpt>
      <trkpt lat="42.333923" lon="-6.429609">
        <ele>1367.53</ele>
        <time>2021-03-27T17:21:47Z</time>
      </trkpt>
      <trkpt lat="42.334441" lon="-6.430261">
        <ele>1371.97</ele>
        <time>2021-03-27T17:21:49Z</time>
      </trkpt>
      <trkpt lat="42.334874" lon="-6.43073">
        <ele>1372.59</ele>
        <time>2021-03-27T17:21:52Z</time>
      </trkpt>
      <trkpt lat="42.335448" lon="-6.431269">
        <ele>1375.13</ele>
        <time>2021-03-27T17:21:54Z</time>
      </trkpt>
      <trkpt lat="42.336143" lon="-6.431956">
        <ele>1382.1</ele>
        <time>2021-03-27T17:21:57Z</time>
      </trkpt>
      <trkpt lat="42.33636" lon="-6.432153">
        <ele>1381.54</ele>
        <time>2021-03-27T17:21:59Z</time>
      </trkpt>
      <trkpt lat="42.336488" lon="-6.432244">
        <ele>1382.04</ele>
        <time>2021-03-27T17:22:02Z</time>
      </trkpt>
      <trkpt lat="42.336732" lon="-6.432389">
        <ele>1384.1</ele>
        <time>2021-03-27T17:22:04Z</time>
      </trkpt>
      <trkpt lat="42.337008" lon="-6.432471">
        <ele>1386.56</ele>
        <time>2021-03-27T17:22:07Z</time>
      </trkpt>
      <trkpt lat="42.338579" lon="-6.432719">
        <ele>1400.59</ele>
        <time>2021-03-27T17:22:09Z</time>
      </trkpt>
      <trkpt lat="42.339538" lon="-6.432942">
        <ele>1411.73</ele>
        <time>2021-03-27T17:22:12Z</time>
      </trkpt>
      <trkpt lat="42.340093" lon="-6.433128">
        <ele>1419.52</ele>
        <time>2021-03-27T17:22:14Z</time>
      </trkpt>
      <trkpt lat="42.34023" lon="-6.433206">
        <ele>1421.0</ele>
        <time>2021-03-27T17:22:17Z</time>
      </trkpt>
      <trkpt lat="42.340972" lon="-6.433925">
        <ele>1426.34</ele>
        <time>2021-03-27T17:22:19Z</time>
      </trkpt>
      <trkpt lat="42.341227" lon="-6.43409">
        <ele>1429.99</ele>
        <time>2021-03-27T17:22:22Z</time>
      </trkpt>
      <trkpt lat="42.341464" lon="-6.434192">
        <ele>1434.03</ele>
        <time>2021-03-27T17:22:24Z</time>
      </trkpt>
      <trkpt lat="42.341733" lon="-6.434265">
        <ele>1436.97</ele>
        <time>2021-03-27T17:22:27Z</time>
      </trkpt>
      <trkpt lat="42.341994" lon="-6.434382">
        <ele>1437.6</ele>
        <time>2021-03-27T17:22:29Z</time>
      </trkpt>
      <trkpt lat="42.343099" lon="-6.43474">
        <ele>1449.31</ele>
        <time>2021-03-27T17:22:32Z</time>
      </trkpt>
      <trkpt lat="42.343285" lon="-6.43485">
        <ele>1450.38</ele>
        <time>2021-03-27T17:22:34Z</time>
      </trkpt>
      <trkpt lat="42.343369" lon="-6.434927">
        <ele>1450.72</ele>
        <time>2021-03-27T17:22:37Z</time>
      </trkpt>
      <trkpt lat="42.343739" lon="-6.435361">
        <ele>1455.16</ele>
        <time>2021-03-27T17:22:39Z</time>
      </trkpt>
      <trkpt lat="42.343963" lon="-6.435571">
        <ele>1459.06</ele>
        <time>2021-03-27T17:22:42Z</time>
      </trkpt>
      <trkpt lat="42.344111" lon="-6.43575">
        <ele>1462.14</ele>
        <time>2021-03-27T17:22:44Z</time>
      </trkpt>
      <trkpt lat="42.344158" lon="-6.435901">
        <ele>1462.78</ele>
        <time>2021-03-27T17:22:47Z</time>
      </trkpt>
      <trkpt lat="42.344304" lon="-6.437057">
        <ele>1470.54</ele>
        <time>2021-03-27T17:22:49Z</time>
      </trkpt>
      <trkpt lat="42.34435" lon="-6.437276">
        <ele>1473.13</ele>
        <time>2021-03-27T17:22:52Z</time>
      </trkpt>
      <trkpt lat="42.344544" lon="-6.43787">
        <ele>1476.2</ele>
        <time>2021-03-27T17:22:54Z</time>
      </trkpt>
      <trkpt lat="42.344759" lon="-6.438359">
        <ele>1480.4</ele>
        <time>2021-03-27T17:22:57Z</time>
      </trkpt>
      <trkpt lat="42.34502" lon="-6.438834">
        <ele>1487.21</ele>
        <time>2021-03-27T17:22:59Z</time>
      </trkpt>
      <trkpt lat="42.34522" lon="-6.439156">
        <ele>1489.45</ele>
        <time>2021-03-27T17:23:02Z</time>
      </trkpt>
      <trkpt lat="42.345609" lon="-6.439639">
        <ele>1493.18</ele>
        <time>2021-03-27T17:23:04Z</time>
      </trkpt>
      <trkpt lat="42.347215" lon="-6.441195">
        <ele>1514.98</ele>
        <time>2021-03-27T17:23:07Z</time>
      </trkpt>
      <trkpt lat="42.347782" lon="-6.441624">
        <ele>1523.21</ele>
        <time>2021-03-27T17:23:09Z</time>
      </trkpt>
      <trkpt lat="42.348177" lon="-6.441875">
        <ele>1526.98</ele>
        <time>2021-03-27T17:23:12Z</time>
      </trkpt>
      <trkpt lat="42.348306" lon="-6.441921">
        <ele>1528.24</ele>
        <time>2021-03-27T17:23:14Z</time>
      </trkpt>
      <trkpt lat="42.348547" lon="-6.441959">
        <ele>1531.28</ele>
        <time>2021-03-27T17:23:17Z</time>
      </trkpt>
      <trkpt lat="42.348787" lon="-6.442031">
        <ele>1531.43</ele>
        <time>2021-03-27T17:23:19Z</time>
      </trkpt>
      <trkpt lat="42.349785" lon="-6.442399">
        <ele>1540.68</ele>
        <time>2021-03-27T17:23:22Z</time>
      </trkpt>
      <trkpt lat="42.349966" lon="-6.442448">
        <ele>1542.09</ele>
        <time>2021-03-27T17:23:24Z</time>
      </trkpt>
      <trkpt lat="42.350475" lon="-6.442512">
        <ele>1550.1</ele>
        <time>2021-03-27T17:23:27Z</time>
      </trkpt>
      <trkpt lat="42.351527" lon="-6.442559">
        <ele>1559.69</ele>
        <time>2021-03-27T17:23:29Z</time>
      </trkpt>
      <trkpt lat="42.351852" lon="-6.442619">
        <ele>1561.29</ele>
        <time>2021-03-27T17:23:32Z</time>
      </trkpt>
      <trkpt lat="42.352078" lon="-6.442604">
        <ele>1564.85</ele>
        <time>2021-03-27T17:23:34Z</time>
      </trkpt>
      <trkpt lat="42.352118" lon="-6.442505">
        <ele>1568.95</ele>
        <time>2021-03-27T17:23:37Z</time>
      </trkpt>
      <trkpt lat="42.352103" lon="-6.442423">
        <ele>1571.86</ele>
        <time>2021-03-27T17:23:39Z</time>
      </trkpt>
      <trkpt lat="42.35204" lon="-6.442351">
        <ele>1573.79</ele>
        <time>2021-03-27T17:23:42Z</time>
      </trkpt>
      <trkpt lat="42.351849" lon="-6.442239">
        <ele>1575.92</ele>
        <time>2021-03-27T17:23:44Z</time>
      </trkpt>
      <trkpt lat="42.351491" lon="-6.442096">
        <ele>1576.73</ele>
        <time>2021-03-27T17:23:47Z</time>
      </trkpt>
      <trkpt lat="42.351011" lon="-6.441797">
        <ele>1581.73</ele>
        <time>2021-03-27T17:23:49Z</time>
      </trkpt>
      <trkpt lat="42.350257" lon="-6.44126">
        <ele>1590.42</ele>
        <time>2021-03-27T17:23:52Z</time>
      </trkpt>
      <trkpt lat="42.349933" lon="-6.440973">
        <ele>1595.77</ele>
        <time>2021-03-27T17:23:54Z</time>
      </trkpt>
      <trkpt lat="42.349297" lon="-6.440297">
        <ele>1600.87</ele>
        <time>2021-03-27T17:23:57Z</time>
      </trkpt>
      <trkpt lat="42.349074" lon="-6.440015">
        <ele>1601.66</ele>
        <time>2021-03-27T17:23:59Z</time>
      </trkpt>
      <trkpt lat="42.348716" lon="-6.439378">
        <ele>1610.79</ele>
        <time>2021-03-27T17:24:02Z</time>
      </trkpt>
      <trkpt lat="42.348593" lon="-6.439108">
        <ele>1613.74</ele>
        <time>2021-03-27T17:24:04Z</time>
      </trkpt>
      <trkpt lat="42.34846" lon="-6.438761">
        <ele>1616.95</ele>
        <time>2021-03-27T17:24:07Z</time>
      </trkpt>
      <trkpt lat="42.348338" lon="-6.438289">
        <ele>1620.47</ele>
        <time>2021-03-27T17:24:09Z</time>
      </trkpt>
      <trkpt lat="42.348294" lon="-6.438057">
        <ele>1620.99</ele>
        <time>2021-03-27T17:24:12Z</time>
      </trkpt>
      <trkpt lat="42.34825" lon="-6.437559">
        <ele>1625.58</ele>
        <time>2021-03-27T17:24:14Z</time>
      </trkpt>
      <trkpt lat="42.348272" lon="-6.437169">
        <ele>1628.42</ele>
        <time>2021-03-27T17:24:17Z</time>
      </trkpt>
      <trkpt lat="42.34833" lon="-6.436892">
        <ele>1629.69</ele>
        <time>2021-03-27T17:24:19Z</time>
      </trkpt>
      <trkpt lat="42.348374" lon="-6.436782">
        <ele>1630.56</ele>
        <time>2021-03-27T17:24:22Z</time>
      </trkpt>
      <trkpt lat="42.348503" lon="-6.436612">
        <ele>1632.69</ele>
        <time>2021-03-27T17:24:24Z</time>
      </trkpt>
      <trkpt lat="42.348595" lon="-6.436535">
        <ele>1634.17</ele>
        <time>2021-03-27T17:24:27Z</time>
      </trkpt>
      <trkpt lat="42.348809" lon="-6.436437">
        <ele>1638.63</ele>
        <time>2021-03-27T17:24:29Z</time>
      </trkpt>
      <trkpt lat="42.348928" lon="-6.436345">
        <ele>1641.35</ele>
        <time>2021-03-27T17:24:32Z</time>
      </trkpt>
      <trkpt lat="42.349044" lon="-6.43622">
        <ele>1645.14</ele>
        <time>2021-03-27T17:24:34Z</time>
      </trkpt>
      <trkpt lat="42.349205" lon="-6.435969">
        <ele>1649.22</ele>
        <time>2021-03-27T17:24:37Z</time>
      </trkpt>
      <trkpt lat="42.349322" lon="-6.435652">
        <ele>1650.44</ele>
        <time>2021-03-27T17:24:39Z</time>
      </trkpt>
      <trkpt lat="42.349365" lon="-6.435316">
        <ele>1651.14</ele>
        <time>2021-03-27T17:24:42Z</time>
      </trkpt>
      <trkpt lat="42.349355" lon="-6.433417">
        <ele>1659.97</ele>
        <time>2021-03-27T17:24:44Z</time>
      </trkpt>
      <trkpt lat="42.349368" lon="-6.432988">
        <ele>1662.41</ele>
        <time>2021-03-27T17:24:47Z</time>
      </trkpt>
      <trkpt lat="42.349387" lon="-6.432716">
        <ele>1662.91</ele>
        <time>2021-03-27T17:24:49Z</time>
      </trkpt>
      <trkpt lat="42.349422" lon="-6.432479">
        <ele>1665.36</ele>
        <time>2021-03-27T17:24:52Z</time>
      </trkpt>
      <trkpt lat="42.349468" lon="-6.432326">
        <ele>1667.14</ele>
        <time>2021-03-27T17:24:54Z</time>
      </trkpt>
      <trkpt lat="42.349524" lon="-6.432183">
        <ele>1668.8</ele>
        <time>2021-03-27T17:24:57Z</time>
      </trkpt>
      <trkpt lat="42.349625" lon="-6.432014">
        <ele>1671.87</ele>
        <time>2021-03-27T17:24:59Z</time>
      </trkpt>
      <trkpt lat="42.349841" lon="-6.431745">
        <ele>1677.02</ele>
        <time>2021-03-27T17:25:02Z</time>
      </trkpt>
      <trkpt lat="42.35001" lon="-6.431573">
        <ele>1680.14</ele>
        <time>2021-03-27T17:25:04Z</time>
      </trkpt>
      <trkpt lat="42.350109" lon="-6.431506">
        <ele>1681.57</ele>
        <time>2021-03-27T17:25:07Z</time>
      </trkpt>
      <trkpt lat="42.350181" lon="-6.431504">
        <ele>1682.6</ele>
        <time>2021-03-27T17:25:09Z</time>
      </trkpt>
      <trkpt lat="42.350257" lon="-6.431535">
        <ele>1683.7</ele>
        <time>2021-03-27T17:25:12Z</time>
      </trkpt>
      <trkpt lat="42.350312" lon="-6.431589">
        <ele>1685.02</ele>
        <time>2021-03-27T17:25:14Z</time>
      </trkpt>
      <trkpt lat="42.350373" lon="-6.431698">
        <ele>1686.67</ele>
        <time>2021-03-27T17:25:17Z</time>
      </trkpt>
      <trkpt lat="42.350428" lon="-6.431935">
        <ele>1687.88</ele>
        <time>2021-03-27T17:25:19Z</time>
      </trkpt>
      <trkpt lat="42.350447" lon="-6.432171">
        <ele>1688.3</ele>
        <time>2021-03-27T17:25:22Z</time>
      </trkpt>
      <trkpt lat="42.350446" lon="-6.432915">
        <ele>1694.64</ele>
        <time>2021-03-27T17:25:24Z</time>
      </trkpt>
      <trkpt lat="42.350497" lon="-6.433273">
        <ele>1697.89</ele>
        <time>2021-03-27T17:25:27Z</time>
      </trkpt>
      <trkpt lat="42.351102" lon="-6.435386">
        <ele>1714.33</ele>
        <time>2021-03-27T17:25:29Z</time>
      </trkpt>
      <trkpt lat="42.351351" lon="-6.436187">
        <ele>1720.73</ele>
        <time>2021-03-27T17:25:32Z</time>
      </trkpt>
      <trkpt lat="42.351531" lon="-6.436699">
        <ele>1724.86</ele>
        <time>2021-03-27T17:25:34Z</time>
      </trkpt>
      <trkpt lat="42.351652" lon="-6.436958">
        <ele>1727.28</ele>
        <time>2021-03-27T17:25:37Z</time>
      </trkpt>
      <trkpt lat="42.351728" lon="-6.437076">
        <ele>1727.76</ele>
        <time>2021-03-27T17:25:39Z</time>
      </trkpt>
      <trkpt lat="42.351895" lon="-6.437283">
        <ele>1729.7</ele>
        <time>2021-03-27T17:25:42Z</time>
      </trkpt>
      <trkpt lat="42.352059" lon="-6.43744">
        <ele>1731.75</ele>
        <time>2021-03-27T17:25:44Z</time>
      </trkpt>
      <trkpt lat="42.352644" lon="-6.437892">
        <ele>1735.09</ele>
        <time>2021-03-27T17:25:47Z</time>
      </trkpt>
      <trkpt lat="42.352724" lon="-6.437936">
        <ele>1735.0</ele>
        <time>2021-03-27T17:25:49Z</time>
      </trkpt>
      <trkpt lat="42.35396" lon="-6.438254">
        <ele>1749.64</ele>
        <time>2021-03-27T17:25:52Z</time>
      </trkpt>
      <trkpt lat="42.354267" lon="-6.438351">
        <ele>1753.44</ele>
        <time>2021-03-27T17:25:54Z</time>
      </trkpt>
      <trkpt lat="42.354545" lon="-6.438485">
        <ele>1758.83</ele>
        <time>2021-03-27T17:25:57Z</time>
      </trkpt>
      <trkpt lat="42.354898" lon="-6.438691">
        <ele>1764.8</ele>
        <time>2021-03-27T17:25:59Z</time>
      </trkpt>
      <trkpt lat="42.355779" lon="-6.43931">
        <ele>1773.72</ele>
        <time>2021-03-27T17:26:02Z</time>
      </trkpt>
      <trkpt lat="42.355947" lon="-6.439454">
        <ele>1776.24</ele>
        <time>2021-03-27T17:26:04Z</time>
      </trkpt>
      <trkpt lat="42.357168" lon="-6.440794">
        <ele>1789.81</ele>
        <time>2021-03-27T17:26:07Z</time>
      </trkpt>
      <trkpt lat="42.357269" lon="-6.44088">
        <ele>1791.17</ele>
        <time>2021-03-27T17:26:09Z</time>
      </trkpt>
      <trkpt lat="42.357475" lon="-6.441007">
        <ele>1793.9</ele>
        <time>2021-03-27T17:26:12Z</time>
      </trkpt>
      <trkpt lat="42.357661" lon="-6.441071">
        <ele>1797.56</ele>
        <time>2021-03-27T17:26:14Z</time>
      </trkpt>
      <trkpt lat="42.357797" lon="-6.441171">
        <ele>1799.14</ele>
        <time>2021-03-27T17:26:17Z</time>
      </trkpt>
      <trkpt lat="42.358305" lon="-6.441629">
        <ele>1806.74</ele>
        <time>2021-03-27T17:26:19Z</time>
      </trkpt>
      <trkpt lat="42.359111" lon="-6.442444">
        <ele>1814.04</ele>
        <time>2021-03-27T17:26:22Z</time>
      </trkpt>
      <trkpt lat="42.359627" lon="-6.443063">
        <ele>1823.15</ele>
        <time>2021-03-27T17:26:24Z</time>
      </trkpt>
      <trkpt lat="42.360365" lon="-6.444066">
        <ele>1836.42</ele>
        <time>2021-03-27T17:26:27Z</time>
      </trkpt>
      <trkpt lat="42.360841" lon="-6.444849">
        <ele>1842.92</ele>
        <time>2021-03-27T17:26:29Z</time>
      </trkpt>
      <trkpt lat="42.36129" lon="-6.445533">
        <ele>1847.91</ele>
        <time>2021-03-27T17:26:32Z</time>
      </trkpt>
      <trkpt lat="42.361723" lon="-6.446298">
        <ele>1858.21</ele>
        <time>2021-03-27T17:26:34Z</time>
      </trkpt>
      <trkpt lat="42.361991" lon="-6.446678">
        <ele>1861.73</ele>
        <time>2021-03-27T17:26:37Z</time>
      </trkpt>
      <trkpt lat="42.362211" lon="-6.446937">
        <ele>1861.81</ele>
        <time>2021-03-27T17:26:40Z</time>
      </trkpt>
      <trkpt lat="42.362481" lon="-6.447166">
        <ele>1868.13</ele>
        <time>2021-03-27T17:26:42Z</time>
      </trkpt>
      <trkpt lat="42.363301" lon="-6.447934">
        <ele>1881.83</ele>
        <time>2021-03-27T17:26:45Z</time>
      </trkpt>
      <trkpt lat="42.363557" lon="-6.448202">
        <ele>1883.88</ele>
        <time>2021-03-27T17:26:47Z</time>
      </trkpt>
      <trkpt lat="42.364034" lon="-6.448793">
        <ele>1890.99</ele>
        <time>2021-03-27T17:26:50Z</time>
      </trkpt>
      <trkpt lat="42.364728" lon="-6.449954">
        <ele>1901.36</ele>
        <time>2021-03-27T17:26:52Z</time>
      </trkpt>
      <trkpt lat="42.364886" lon="-6.450296">
        <ele>1903.56</ele>
        <time>2021-03-27T17:26:55Z</time>
      </trkpt>
      <trkpt lat="42.365229" lon="-6.451347">
        <ele>1908.39</ele>
        <time>2021-03-27T17:26:57Z</time>
      </trkpt>
      <trkpt lat="42.365653" lon="-6.452916">
        <ele>1926.6</ele>
        <time>2021-03-27T17:27:00Z</time>
      </trkpt>
      <trkpt lat="42.365744" lon="-6.453328">
        <ele>1931.36</ele>
        <time>2021-03-27T17:27:02Z</time>
      </trkpt>
      <trkpt lat="42.365972" lon="-6.455211">
        <ele>1936.38</ele>
        <time>2021-03-27T17:27:05Z</time>
      </trkpt>
      <trkpt lat="42.366323" lon="-6.458353">
        <ele>1947.59</ele>
        <time>2021-03-27T17:27:07Z</time>
      </trkpt>
      <trkpt lat="42.366513" lon="-6.459774">
        <ele>1952.26</ele>
        <time>2021-03-27T17:27:10Z</time>
      </trkpt>
      <trkpt lat="42.366641" lon="-6.460932">
        <ele>1954.4</ele>
        <time>2021-03-27T17:27:12Z</time>
      </trkpt>
      <trkpt lat="42.366674" lon="-6.461759">
        <ele>1949.81</ele>
        <time>2021-03-27T17:27:15Z</time>
      </trkpt>
      <trkpt lat="42.366732" lon="-6.462593">
        <ele>1949.13</ele>
        <time>2021-03-27T17:27:17Z</time>
      </trkpt>
      <trkpt lat="42.36678" lon="-6.464119">
        <ele>1935.34</ele>
        <time>2021-03-27T17:27:20Z</time>
      </trkpt>
      <trkpt lat="42.366889" lon="-6.464966">
        <ele>1935.75</ele>
        <time>2021-03-27T17:27:22Z</time>
      </trkpt>
      <trkpt lat="42.366982" lon="-6.466124">
        <ele>1932.65</ele>
        <time>2021-03-27T17:27:25Z</time>
      </trkpt>
      <trkpt lat="42.367119" lon="-6.467231">
        <ele>1934.93</ele>
        <time>2021-03-27T17:27:27Z</time>
      </trkpt>
      <trkpt lat="42.367204" lon="-6.467656">
        <ele>1932.54</ele>
        <time>2021-03-27T17:27:30Z</time>
      </trkpt>
      <trkpt lat="42.367352" lon="-6.468071">
        <ele>1927.03</ele>
        <time>2021-03-27T17:27:32Z</time>
      </trkpt>
      <trkpt lat="42.367565" lon="-6.468489">
        <ele>1924.06</ele>
        <time>2021-03-27T17:27:35Z</time>
      </trkpt>
      <trkpt lat="42.368293" lon="-6.46963">
        <ele>1919.64</ele>
        <time>2021-03-27T17:27:37Z</time>
      </trkpt>
      <trkpt lat="42.368537" lon="-6.470064">
        <ele>1919.27</ele>
        <time>2021-03-27T17:27:40Z</time>
      </trkpt>
      <trkpt lat="42.368913" lon="-6.470924">
        <ele>1917.05</ele>
        <time>2021-03-27T17:27:42Z</time>
      </trkpt>
      <trkpt lat="42.369167" lon="-6.471437">
        <ele>1911.97</ele>
        <time>2021-03-27T17:27:45Z</time>
      </trkpt>
      <trkpt lat="42.369476" lon="-6.472008">
        <ele>1907.99</ele>
        <time>2021-03-27T17:27:47Z</time>
      </trkpt>
      <trkpt lat="42.369665" lon="-6.472321">
        <ele>1905.12</ele>
        <time>2021-03-27T17:27:50Z</time>
      </trkpt>
      <trkpt lat="42.369943" lon="-6.472878">
        <ele>1902.69</ele>
        <time>2021-03-27T17:27:52Z</time>
      </trkpt>
      <trkpt lat="42.370263" lon="-6.473611">
        <ele>1898.63</ele>
        <time>2021-03-27T17:27:55Z</time>
      </trkpt>
      <trkpt lat="42.370471" lon="-6.474278">
        <ele>1898.24</ele>
        <time>2021-03-27T17:27:57Z</time>
      </trkpt>
      <trkpt lat="42.370553" lon="-6.474445">
        <ele>1898.9</ele>
        <time>2021-03-27T17:28:00Z</time>
      </trkpt>
      <trkpt lat="42.370719" lon="-6.474658">
        <ele>1896.11</ele>
        <time>2021-03-27T17:28:02Z</time>
      </trkpt>
      <trkpt lat="42.37084" lon="-6.474756">
        <ele>1895.29</ele>
        <time>2021-03-27T17:28:05Z</time>
      </trkpt>
      <trkpt lat="42.371169" lon="-6.474857">
        <ele>1898.74</ele>
        <time>2021-03-27T17:28:07Z</time>
      </trkpt>
      <trkpt lat="42.371448" lon="-6.475002">
        <ele>1896.96</ele>
        <time>2021-03-27T17:28:10Z</time>
      </trkpt>
      <trkpt lat="42.372364" lon="-6.475655">
        <ele>1886.08</ele>
        <time>2021-03-27T17:28:12Z</time>
      </trkpt>
      <trkpt lat="42.372885" lon="-6.47609">
        <ele>1880.02</ele>
        <time>2021-03-27T17:28:15Z</time>
      </trkpt>
      <trkpt lat="42.373025" lon="-6.476243">
        <ele>1879.41</ele>
        <time>2021-03-27T17:28:17Z</time>
      </trkpt>
      <trkpt lat="42.373081" lon="-6.476332">
        <ele>1878.5</ele>
        <time>2021-03-27T17:28:20Z</time>
      </trkpt>
      <trkpt lat="42.373135" lon="-6.476467">
        <ele>1877.15</ele>
        <time>2021-03-27T17:28:22Z</time>
      </trkpt>
      <trkpt lat="42.373274" lon="-6.477063">
        <ele>1873.06</ele>
        <time>2021-03-27T17:28:25Z</time>
      </trkpt>
      <trkpt lat="42.373415" lon="-6.47791">
        <ele>1867.88</ele>
        <time>2021-03-27T17:28:27Z</time>
      </trkpt>
      <trkpt lat="42.373507" lon="-6.478781">
        <ele>1869.05</ele>
        <time>2021-03-27T17:28:30Z</time>
      </trkpt>
      <trkpt lat="42.373592" lon="-6.479392">
        <ele>1866.81</ele>
        <time>2021-03-27T17:28:32Z</time>
      </trkpt>
      <trkpt lat="42.373728" lon="-6.480565">
        <ele>1863.3</ele>
        <time>2021-03-27T17:28:35Z</time>
      </trkpt>
      <trkpt lat="42.373838" lon="-6.481277">
        <ele>1858.51</ele>
        <time>2021-03-27T17:28:37Z</time>
      </trkpt>
      <trkpt lat="42.373975" lon="-6.482377">
        <ele>1853.23</ele>
        <time>2021-03-27T17:28:40Z</time>
      </trkpt>
      <trkpt lat="42.374026" lon="-6.482976">
        <ele>1854.55</ele>
        <time>2021-03-27T17:28:42Z</time>
      </trkpt>
      <trkpt lat="42.37404" lon="-6.484153">
        <ele>1860.42</ele>
        <time>2021-03-27T17:28:45Z</time>
      </trkpt>
      <trkpt lat="42.374006" lon="-6.484285">
        <ele>1861.45</ele>
        <time>2021-03-27T17:28:47Z</time>
      </trkpt>
      <trkpt lat="42.373902" lon="-6.484458">
        <ele>1862.29</ele>
        <time>2021-03-27T17:28:50Z</time>
      </trkpt>
      <trkpt lat="42.373598" lon="-6.484638">
        <ele>1864.36</ele>
        <time>2021-03-27T17:28:52Z</time>
      </trkpt>
      <trkpt lat="42.373283" lon="-6.484887">
        <ele>1866.13</ele>
        <time>2021-03-27T17:28:55Z</time>
      </trkpt>
      <trkpt lat="42.373184" lon="-6.485012">
        <ele>1866.4</ele>
        <time>2021-03-27T17:28:57Z</time>
      </trkpt>
      <trkpt lat="42.373059" lon="-6.485274">
        <ele>1866.03</ele>
        <time>2021-03-27T17:29:00Z</time>
      </trkpt>
      <trkpt lat="42.37301" lon="-6.485455">
        <ele>1866.02</ele>
        <time>2021-03-27T17:29:02Z</time>
      </trkpt>
      <trkpt lat="42.372815" lon="-6.487288">
        <ele>1870.15</ele>
        <time>2021-03-27T17:29:05Z</time>
      </trkpt>
      <trkpt lat="42.372803" lon="-6.487754">
        <ele>1873.73</ele>
        <time>2021-03-27T17:29:07Z</time>
      </trkpt>
      <trkpt lat="42.372818" lon="-6.488059">
        <ele>1875.3</ele>
        <time>2021-03-27T17:29:10Z</time>
      </trkpt>
      <trkpt lat="42.372914" lon="-6.48861">
        <ele>1880.41</ele>
        <time>2021-03-27T17:29:12Z</time>
      </trkpt>
      <trkpt lat="42.372999" lon="-6.488969">
        <ele>1880.66</ele>
        <time>2021-03-27T17:29:15Z</time>
      </trkpt>
      <trkpt lat="42.373095" lon="-6.489247">
        <ele>1879.13</ele>
        <time>2021-03-27T17:29:17Z</time>
      </trkpt>
      <trkpt lat="42.373222" lon="-6.489506">
        <ele>1879.73</ele>
        <time>2021-03-27T17:29:20Z</time>
      </trkpt>
      <trkpt lat="42.373383" lon="-6.48972">
        <ele>1883.07</ele>
        <time>2021-03-27T17:29:22Z</time>
      </trkpt>
      <trkpt lat="42.37446" lon="-6.490751">
        <ele>1890.26</ele>
        <time>2021-03-27T17:29:25Z</time>
      </trkpt>
      <trkpt lat="42.375317" lon="-6.491741">
        <ele>1888.47</ele>
        <time>2021-03-27T17:29:27Z</time>
      </trkpt>
      <trkpt lat="42.37551" lon="-6.492009">
        <ele>1889.14</ele>
        <time>2021-03-27T17:29:30Z</time>
      </trkpt>
      <trkpt lat="42.375765" lon="-6.492305">
        <ele>1887.8</ele>
        <time>2021-03-27T17:29:32Z</time>
      </trkpt>
      <trkpt lat="42.377626" lon="-6.494371">
        <ele>1884.71</ele>
        <time>2021-03-27T17:29:35Z</time>
      </trkpt>
      <trkpt lat="42.377837" lon="-6.494557">
        <ele>1884.44</ele>
        <time>2021-03-27T17:29:37Z</time>
      </trkpt>
      <trkpt lat="42.378402" lon="-6.494887">
        <ele>1882.66</ele>
        <time>2021-03-27T17:29:40Z</time>
      </trkpt>
      <trkpt lat="42.378723" lon="-6.495129">
        <ele>1879.38</ele>
        <time>2021-03-27T17:29:42Z</time>
      </trkpt>
      <trkpt lat="42.378905" lon="-6.495231">
        <ele>1880.54</ele>
        <time>2021-03-27T17:29:45Z</time>
      </trkpt>
      <trkpt lat="42.379067" lon="-6.495237">
        <ele>1882.36</ele>
        <time>2021-03-27T17:29:47Z</time>
      </trkpt>
      <trkpt lat="42.379201" lon="-6.495171">
        <ele>1884.17</ele>
        <time>2021-03-27T17:29:50Z</time>
      </trkpt>
      <trkpt lat="42.379324" lon="-6.495033">
        <ele>1884.83</ele>
        <time>2021-03-27T17:29:52Z</time>
      </trkpt>
      <trkpt lat="42.379428" lon="-6.494822">
        <ele>1885.61</ele>
        <time>2021-03-27T17:29:55Z</time>
      </trkpt>
      <trkpt lat="42.379524" lon="-6.494697">
        <ele>1886.65</ele>
        <time>2021-03-27T17:29:57Z</time>
      </trkpt>
      <trkpt lat="42.379563" lon="-6.494661">
        <ele>1887.31</ele>
        <time>2021-03-27T17:30:00Z</time>
      </trkpt>
      <trkpt lat="42.379689" lon="-6.494644">
        <ele>1888.01</ele>
        <time>2021-03-27T17:30:02Z</time>
      </trkpt>
      <trkpt lat="42.379757" lon="-6.494661">
        <ele>1888.21</ele>
        <time>2021-03-27T17:30:05Z</time>
      </trkpt>
      <trkpt lat="42.379901" lon="-6.494756">
        <ele>1887.36</ele>
        <time>2021-03-27T17:30:07Z</time>
      </trkpt>
      <trkpt lat="42.380315" lon="-6.495066">
        <ele>1882.33</ele>
        <time>2021-03-27T17:30:10Z</time>
      </trkpt>
      <trkpt lat="42.380652" lon="-6.495289">
        <ele>1881.72</ele>
        <time>2021-03-27T17:30:12Z</time>
      </trkpt>
      <trkpt lat="42.380754" lon="-6.49534">
        <ele>1882.01</ele>
        <time>2021-03-27T17:30:15Z</time>
      </trkpt>
      <trkpt lat="42.380864" lon="-6.49536">
        <ele>1882.44</ele>
        <time>2021-03-27T17:30:17Z</time>
      </trkpt>
      <trkpt lat="42.380964" lon="-6.495298">
        <ele>1883.82</ele>
        <time>2021-03-27T17:30:20Z</time>
      </trkpt>
      <trkpt lat="42.381029" lon="-6.4952">
        <ele>1885.68</ele>
        <time>2021-03-27T17:30:22Z</time>
      </trkpt>
      <trkpt lat="42.381162" lon="-6.494912">
        <ele>1888.46</ele>
        <time>2021-03-27T17:30:25Z</time>
      </trkpt>
      <trkpt lat="42.381271" lon="-6.494724">
        <ele>1887.1</ele>
        <time>2021-03-27T17:30:27Z</time>
      </trkpt>
      <trkpt lat="42.38138" lon="-6.494586">
        <ele>1885.11</ele>
        <time>2021-03-27T17:30:30Z</time>
      </trkpt>
      <trkpt lat="42.381466" lon="-6.494525">
        <ele>1884.76</ele>
        <time>2021-03-27T17:30:32Z</time>
      </trkpt>
      <trkpt lat="42.381555" lon="-6.494512">
        <ele>1884.56</ele>
        <time>2021-03-27T17:30:35Z</time>
      </trkpt>
      <trkpt lat="42.381651" lon="-6.494537">
        <ele>1884.06</ele>
        <time>2021-03-27T17:30:37Z</time>
      </trkpt>
      <trkpt lat="42.381912" lon="-6.494673">
        <ele>1883.57</ele>
        <time>2021-03-27T17:30:40Z</time>
      </trkpt>
      <trkpt lat="42.382069" lon="-6.494847">
        <ele>1882.05</ele>
        <time>2021-03-27T17:30:42Z</time>
      </trkpt>
      <trkpt lat="42.382181" lon="-6.495015">
        <ele>1880.84</ele>
        <time>2021-03-27T17:30:45Z</time>
      </trkpt>
      <trkpt lat="42.382505" lon="-6.495688">
        <ele>1873.76</ele>
        <time>2021-03-27T17:30:47Z</time>
      </trkpt>
      <trkpt lat="42.382591" lon="-6.495845">
        <ele>1873.81</ele>
        <time>2021-03-27T17:30:50Z</time>
      </trkpt>
      <trkpt lat="42.382738" lon="-6.496043">
        <ele>1875.8</ele>
        <time>2021-03-27T17:30:52Z</time>
      </trkpt>
      <trkpt lat="42.383197" lon="-6.496572">
        <ele>1875.28</ele>
        <time>2021-03-27T17:30:55Z</time>
      </trkpt>
      <trkpt lat="42.383824" lon="-6.49724">
        <ele>1872.76</ele>
        <time>2021-03-27T17:30:57Z</time>
      </trkpt>
      <trkpt lat="42.384284" lon="-6.497792">
        <ele>1877.95</ele>
        <time>2021-03-27T17:31:00Z</time>
      </trkpt>
      <trkpt lat="42.384703" lon="-6.498103">
        <ele>1878.99</ele>
        <time>2021-03-27T17:31:02Z</time>
      </trkpt>
      <trkpt lat="42.384962" lon="-6.498257">
        <ele>1880.9</ele>
        <time>2021-03-27T17:31:05Z</time>
      </trkpt>
      <trkpt lat="42.385199" lon="-6.4985">
        <ele>1878.21</ele>
        <time>2021-03-27T17:31:07Z</time>
      </trkpt>
      <trkpt lat="42.385665" lon="-6.499245">
        <ele>1879.06</ele>
        <time>2021-03-27T17:31:10Z</time>
      </trkpt>
      <trkpt lat="42.386012" lon="-6.499728">
        <ele>1878.78</ele>
        <time>2021-03-27T17:31:12Z</time>
      </trkpt>
      <trkpt lat="42.386205" lon="-6.500043">
        <ele>1878.41</ele>
        <time>2021-03-27T17:31:15Z</time>
      </trkpt>
      <trkpt lat="42.386576" lon="-6.500539">
        <ele>1879.63</ele>
        <time>2021-03-27T17:31:17Z</time>
      </trkpt>
      <trkpt lat="42.386993" lon="-6.501028">
        <ele>1878.49</ele>
        <time>2021-03-27T17:31:20Z</time>
      </trkpt>
      <trkpt lat="42.387325" lon="-6.501334">
        <ele>1876.8</ele>
        <time>2021-03-27T17:31:22Z</time>
      </trkpt>
      <trkpt lat="42.38789" lon="-6.501904">
        <ele>1874.78</ele>
        <time>2021-03-27T17:31:25Z</time>
      </trkpt>
      <trkpt lat="42.389075" lon="-6.503147">
        <ele>1874.7</ele>
        <time>2021-03-27T17:31:27Z</time>
      </trkpt>
      <trkpt lat="42.389573" lon="-6.503732">
        <ele>1874.29</ele>
        <time>2021-03-27T17:31:30Z</time>
      </trkpt>
      <trkpt lat="42.389782" lon="-6.504034">
        <ele>1875.55</ele>
        <time>2021-03-27T17:31:32Z</time>
      </trkpt>
      <trkpt lat="42.390093" lon="-6.50453">
        <ele>1878.6</ele>
        <time>2021-03-27T17:31:35Z</time>
      </trkpt>
      <trkpt lat="42.390237" lon="-6.504791">
        <ele>1878.94</ele>
        <time>2021-03-27T17:31:37Z</time>
      </trkpt>
      <trkpt lat="42.390607" lon="-6.505539">
        <ele>1877.8</ele>
        <time>2021-03-27T17:31:40Z</time>
      </trkpt>
      <trkpt lat="42.390949" lon="-6.50614">
        <ele>1877.54</ele>
        <time>2021-03-27T17:31:42Z</time>
      </trkpt>
      <trkpt lat="42.391211" lon="-6.506528">
        <ele>1878.87</ele>
        <time>2021-03-27T17:31:45Z</time>
      </trkpt>
      <trkpt lat="42.391411" lon="-6.50677">
        <ele>1878.56</ele>
        <time>2021-03-27T17:31:47Z</time>
      </trkpt>
      <trkpt lat="42.391613" lon="-6.506976">
        <ele>1877.86</ele>
        <time>2021-03-27T17:31:50Z</time>
      </trkpt>
      <trkpt lat="42.392624" lon="-6.507904">
        <ele>1886.48</ele>
        <time>2021-03-27T17:31:52Z</time>
      </trkpt>
      <trkpt lat="42.392957" lon="-6.508245">
        <ele>1885.43</ele>
        <time>2021-03-27T17:31:55Z</time>
      </trkpt>
      <trkpt lat="42.393088" lon="-6.508446">
        <ele>1884.55</ele>
        <time>2021-03-27T17:31:57Z</time>
      </trkpt>
      <trkpt lat="42.393276" lon="-6.508832">
        <ele>1886.85</ele>
        <time>2021-03-27T17:32:00Z</time>
      </trkpt>
      <trkpt lat="42.393381" lon="-6.509252">
        <ele>1887.69</ele>
        <time>2021-03-27T17:32:02Z</time>
      </trkpt>
      <trkpt lat="42.393518" lon="-6.509666">
        <ele>1886.46</ele>
        <time>2021-03-27T17:32:05Z</time>
      </trkpt>
      <trkpt lat="42.393586" lon="-6.509815">
        <ele>1886.46</ele>
        <time>2021-03-27T17:32:07Z</time>
      </trkpt>
      <trkpt lat="42.393671" lon="-6.50993">
        <ele>1886.46</ele>
        <time>2021-03-27T17:32:10Z</time>
      </trkpt>
      <trkpt lat="42.393745" lon="-6.509984">
        <ele>1886.91</ele>
        <time>2021-03-27T17:32:12Z</time>
      </trkpt>
      <trkpt lat="42.393836" lon="-6.510017">
        <ele>1887.72</ele>
        <time>2021-03-27T17:32:15Z</time>
      </trkpt>
      <trkpt lat="42.39392" lon="-6.510007">
        <ele>1888.16</ele>
        <time>2021-03-27T17:32:17Z</time>
      </trkpt>
      <trkpt lat="42.394042" lon="-6.509957">
        <ele>1888.01</ele>
        <time>2021-03-27T17:32:20Z</time>
      </trkpt>
      <trkpt lat="42.394124" lon="-6.509887">
        <ele>1887.28</ele>
        <time>2021-03-27T17:32:22Z</time>
      </trkpt>
      <trkpt lat="42.394176" lon="-6.509827">
        <ele>1886.39</ele>
        <time>2021-03-27T17:32:25Z</time>
      </trkpt>
      <trkpt lat="42.394211" lon="-6.509726">
        <ele>1884.27</ele>
        <time>2021-03-27T17:32:27Z</time>
      </trkpt>
      <trkpt lat="42.39422" lon="-6.509624">
        <ele>1882.14</ele>
        <time>2021-03-27T17:32:30Z</time>
      </trkpt>
      <trkpt lat="42.39421" lon="-6.509497">
        <ele>1879.91</ele>
        <time>2021-03-27T17:32:32Z</time>
      </trkpt>
      <trkpt lat="42.394168" lon="-6.509335">
        <ele>1877.99</ele>
        <time>2021-03-27T17:32:35Z</time>
      </trkpt>
      <trkpt lat="42.393958" lon="-6.508843">
        <ele>1876.48</ele>
        <time>2021-03-27T17:32:37Z</time>
      </trkpt>
      <trkpt lat="42.39373" lon="-6.508009">
        <ele>1867.74</ele>
        <time>2021-03-27T17:32:40Z</time>
      </trkpt>
      <trkpt lat="42.393671" lon="-6.50773">
        <ele>1867.29</ele>
        <time>2021-03-27T17:32:42Z</time>
      </trkpt>
      <trkpt lat="42.393642" lon="-6.507487">
        <ele>1865.35</ele>
        <time>2021-03-27T17:32:45Z</time>
      </trkpt>
      <trkpt lat="42.393571" lon="-6.507112">
        <ele>1864.1</ele>
        <time>2021-03-27T17:32:47Z</time>
      </trkpt>
      <trkpt lat="42.393356" lon="-6.506422">
        <ele>1859.44</ele>
        <time>2021-03-27T17:32:50Z</time>
      </trkpt>
      <trkpt lat="42.393323" lon="-6.506155">
        <ele>1856.3</ele>
        <time>2021-03-27T17:32:52Z</time>
      </trkpt>
      <trkpt lat="42.393343" lon="-6.505963">
        <ele>1855.13</ele>
        <time>2021-03-27T17:32:55Z</time>
      </trkpt>
      <trkpt lat="42.393377" lon="-6.505846">
        <ele>1854.07</ele>
        <time>2021-03-27T17:32:57Z</time>
      </trkpt>
      <trkpt lat="42.393481" lon="-6.505612">
        <ele>1852.38</ele>
        <time>2021-03-27T17:33:00Z</time>
      </trkpt>
      <trkpt lat="42.393732" lon="-6.505182">
        <ele>1843.09</ele>
        <time>2021-03-27T17:33:02Z</time>
      </trkpt>
      <trkpt lat="42.394124" lon="-6.504609">
        <ele>1836.82</ele>
        <time>2021-03-27T17:33:05Z</time>
      </trkpt>
      <trkpt lat="42.394249" lon="-6.50429">
        <ele>1835.11</ele>
        <time>2021-03-27T17:33:07Z</time>
      </trkpt>
      <trkpt lat="42.394322" lon="-6.504013">
        <ele>1831.2</ele>
        <time>2021-03-27T17:33:10Z</time>
      </trkpt>
      <trkpt lat="42.394381" lon="-6.503709">
        <ele>1825.29</ele>
        <time>2021-03-27T17:33:12Z</time>
      </trkpt>
      <trkpt lat="42.394503" lon="-6.502819">
        <ele>1817.5</ele>
        <time>2021-03-27T17:33:15Z</time>
      </trkpt>
      <trkpt lat="42.394513" lon="-6.50256">
        <ele>1815.03</ele>
        <time>2021-03-27T17:33:17Z</time>
      </trkpt>
      <trkpt lat="42.39448" lon="-6.50186">
        <ele>1815.13</ele>
        <time>2021-03-27T17:33:20Z</time>
      </trkpt>
      <trkpt lat="42.39449" lon="-6.501737">
        <ele>1813.68</ele>
        <time>2021-03-27T17:33:22Z</time>
      </trkpt>
      <trkpt lat="42.394564" lon="-6.501397">
        <ele>1804.8</ele>
        <time>2021-03-27T17:33:25Z</time>
      </trkpt>
      <trkpt lat="42.394577" lon="-6.500822">
        <ele>1802.43</ele>
        <time>2021-03-27T17:33:27Z</time>
      </trkpt>
      <trkpt lat="42.394637" lon="-6.500583">
        <ele>1798.21</ele>
        <time>2021-03-27T17:33:30Z</time>
      </trkpt>
      <trkpt lat="42.394865" lon="-6.499918">
        <ele>1793.96</ele>
        <time>2021-03-27T17:33:32Z</time>
      </trkpt>
      <trkpt lat="42.395053" lon="-6.499424">
        <ele>1787.74</ele>
        <time>2021-03-27T17:33:35Z</time>
      </trkpt>
      <trkpt lat="42.39526" lon="-6.499003">
        <ele>1784.18</ele>
        <time>2021-03-27T17:33:37Z</time>
      </trkpt>
      <trkpt lat="42.395381" lon="-6.498804">
        <ele>1784.39</ele>
        <time>2021-03-27T17:33:40Z</time>
      </trkpt>
      <trkpt lat="42.395462" lon="-6.498717">
        <ele>1784.27</ele>
        <time>2021-03-27T17:33:42Z</time>
      </trkpt>
      <trkpt lat="42.395513" lon="-6.498737">
        <ele>1781.9</ele>
        <time>2021-03-27T17:33:45Z</time>
      </trkpt>
      <trkpt lat="42.395532" lon="-6.498795">
        <ele>1779.22</ele>
        <time>2021-03-27T17:33:47Z</time>
      </trkpt>
      <trkpt lat="42.395516" lon="-6.498862">
        <ele>1777.49</ele>
        <time>2021-03-27T17:33:50Z</time>
      </trkpt>
      <trkpt lat="42.395362" lon="-6.499212">
        <ele>1775.68</ele>
        <time>2021-03-27T17:33:52Z</time>
      </trkpt>
      <trkpt lat="42.395302" lon="-6.499441">
        <ele>1776.81</ele>
        <time>2021-03-27T17:33:55Z</time>
      </trkpt>
      <trkpt lat="42.395249" lon="-6.499732">
        <ele>1778.11</ele>
        <time>2021-03-27T17:33:57Z</time>
      </trkpt>
      <trkpt lat="42.395228" lon="-6.499959">
        <ele>1773.67</ele>
        <time>2021-03-27T17:34:00Z</time>
      </trkpt>
      <trkpt lat="42.395211" lon="-6.500603">
        <ele>1766.05</ele>
        <time>2021-03-27T17:34:02Z</time>
      </trkpt>
      <trkpt lat="42.395228" lon="-6.500876">
        <ele>1764.84</ele>
        <time>2021-03-27T17:34:05Z</time>
      </trkpt>
      <trkpt lat="42.395321" lon="-6.501401">
        <ele>1760.44</ele>
        <time>2021-03-27T17:34:07Z</time>
      </trkpt>
      <trkpt lat="42.395411" lon="-6.502067">
        <ele>1757.6</ele>
        <time>2021-03-27T17:34:10Z</time>
      </trkpt>
      <trkpt lat="42.395612" lon="-6.503138">
        <ele>1746.38</ele>
        <time>2021-03-27T17:34:12Z</time>
      </trkpt>
      <trkpt lat="42.395656" lon="-6.503491">
        <ele>1744.13</ele>
        <time>2021-03-27T17:34:15Z</time>
      </trkpt>
      <trkpt lat="42.395675" lon="-6.503849">
        <ele>1741.99</ele>
        <time>2021-03-27T17:34:17Z</time>
      </trkpt>
      <trkpt lat="42.395674" lon="-6.504186">
        <ele>1741.33</ele>
        <time>2021-03-27T17:34:20Z</time>
      </trkpt>
      <trkpt lat="42.395626" lon="-6.505177">
        <ele>1737.08</ele>
        <time>2021-03-27T17:34:22Z</time>
      </trkpt>
      <trkpt lat="42.395643" lon="-6.505368">
        <ele>1734.8</ele>
        <time>2021-03-27T17:34:25Z</time>
      </trkpt>
      <trkpt lat="42.395683" lon="-6.505549">
        <ele>1731.91</ele>
        <time>2021-03-27T17:34:27Z</time>
      </trkpt>
      <trkpt lat="42.395774" lon="-6.505752">
        <ele>1730.19</ele>
        <time>2021-03-27T17:34:30Z</time>
      </trkpt>
      <trkpt lat="42.395774" lon="-6.505752">
        <ele>1730.19</ele>
        <time>2021-03-27T17:34:30Z</time>
      </trkpt>
      <trkpt lat="42.395828" lon="-6.505843">
        <ele>1729.43</ele>
        <time>2021-03-27T17:34:31Z</time>
      </trkpt>
      <trkpt lat="42.396048" lon="-6.505995">
        <ele>1734.17</ele>
        <time>2021-03-27T17:34:33Z</time>
      </trkpt>
      <trkpt lat="42.39624" lon="-6.506036">
        <ele>1737.11</ele>
        <time>2021-03-27T17:34:35Z</time>
      </trkpt>
      <trkpt lat="42.396332" lon="-6.506026">
        <ele>1738.1</ele>
        <time>2021-03-27T17:34:36Z</time>
      </trkpt>
      <trkpt lat="42.396424" lon="-6.505991">
        <ele>1738.49</ele>
        <time>2021-03-27T17:34:38Z</time>
      </trkpt>
      <trkpt lat="42.396563" lon="-6.505901">
        <ele>1737.89</ele>
        <time>2021-03-27T17:34:39Z</time>
      </trkpt>
      <trkpt lat="42.396727" lon="-6.505741">
        <ele>1736.63</ele>
        <time>2021-03-27T17:34:41Z</time>
      </trkpt>
      <trkpt lat="42.396982" lon="-6.505431">
        <ele>1737.75</ele>
        <time>2021-03-27T17:34:43Z</time>
      </trkpt>
      <trkpt lat="42.397201" lon="-6.505042">
        <ele>1737.13</ele>
        <time>2021-03-27T17:34:44Z</time>
      </trkpt>
      <trkpt lat="42.397507" lon="-6.504397">
        <ele>1731.28</ele>
        <time>2021-03-27T17:34:46Z</time>
      </trkpt>
      <trkpt lat="42.397695" lon="-6.504143">
        <ele>1730.2</ele>
        <time>2021-03-27T17:34:47Z</time>
      </trkpt>
      <trkpt lat="42.398138" lon="-6.503822">
        <ele>1727.2</ele>
        <time>2021-03-27T17:34:49Z</time>
      </trkpt>
      <trkpt lat="42.398455" lon="-6.503653">
        <ele>1727.51</ele>
        <time>2021-03-27T17:34:51Z</time>
      </trkpt>
      <trkpt lat="42.39867" lon="-6.503446">
        <ele>1723.14</ele>
        <time>2021-03-27T17:34:52Z</time>
      </trkpt>
      <trkpt lat="42.398727" lon="-6.503422">
        <ele>1722.74</ele>
        <time>2021-03-27T17:34:54Z</time>
      </trkpt>
      <trkpt lat="42.398941" lon="-6.503426">
        <ele>1724.98</ele>
        <time>2021-03-27T17:34:55Z</time>
      </trkpt>
      <trkpt lat="42.399006" lon="-6.503397">
        <ele>1724.09</ele>
        <time>2021-03-27T17:34:57Z</time>
      </trkpt>
      <trkpt lat="42.39966" lon="-6.503008">
        <ele>1729.14</ele>
        <time>2021-03-27T17:34:59Z</time>
      </trkpt>
      <trkpt lat="42.39996" lon="-6.502786">
        <ele>1730.46</ele>
        <time>2021-03-27T17:35:00Z</time>
      </trkpt>
      <trkpt lat="42.400031" lon="-6.502752">
        <ele>1729.84</ele>
        <time>2021-03-27T17:35:02Z</time>
      </trkpt>
      <trkpt lat="42.400112" lon="-6.502731">
        <ele>1728.54</ele>
        <time>2021-03-27T17:35:03Z</time>
      </trkpt>
      <trkpt lat="42.400315" lon="-6.502758">
        <ele>1727.96</ele>
        <time>2021-03-27T17:35:05Z</time>
      </trkpt>
      <trkpt lat="42.400575" lon="-6.502905">
        <ele>1725.43</ele>
        <time>2021-03-27T17:35:07Z</time>
      </trkpt>
      <trkpt lat="42.400834" lon="-6.503164">
        <ele>1723.1</ele>
        <time>2021-03-27T17:35:08Z</time>
      </trkpt>
      <trkpt lat="42.401177" lon="-6.503652">
        <ele>1722.47</ele>
        <time>2021-03-27T17:35:10Z</time>
      </trkpt>
      <trkpt lat="42.401258" lon="-6.503687">
        <ele>1721.74</ele>
        <time>2021-03-27T17:35:12Z</time>
      </trkpt>
      <trkpt lat="42.401549" lon="-6.503711">
        <ele>1719.0</ele>
        <time>2021-03-27T17:35:13Z</time>
      </trkpt>
      <trkpt lat="42.402209" lon="-6.503855">
        <ele>1716.41</ele>
        <time>2021-03-27T17:35:15Z</time>
      </trkpt>
      <trkpt lat="42.402541" lon="-6.503865">
        <ele>1715.18</ele>
        <time>2021-03-27T17:35:16Z</time>
      </trkpt>
      <trkpt lat="42.402856" lon="-6.50381">
        <ele>1712.37</ele>
        <time>2021-03-27T17:35:18Z</time>
      </trkpt>
      <trkpt lat="42.402974" lon="-6.503852">
        <ele>1712.56</ele>
        <time>2021-03-27T17:35:20Z</time>
      </trkpt>
      <trkpt lat="42.403227" lon="-6.504066">
        <ele>1713.31</ele>
        <time>2021-03-27T17:35:21Z</time>
      </trkpt>
      <trkpt lat="42.403431" lon="-6.504342">
        <ele>1715.16</ele>
        <time>2021-03-27T17:35:23Z</time>
      </trkpt>
      <trkpt lat="42.40383" lon="-6.505088">
        <ele>1709.75</ele>
        <time>2021-03-27T17:35:24Z</time>
      </trkpt>
      <trkpt lat="42.404052" lon="-6.505684">
        <ele>1710.31</ele>
        <time>2021-03-27T17:35:26Z</time>
      </trkpt>
      <trkpt lat="42.404176" lon="-6.506121">
        <ele>1713.53</ele>
        <time>2021-03-27T17:35:28Z</time>
      </trkpt>
      <trkpt lat="42.404349" lon="-6.506836">
        <ele>1707.0</ele>
        <time>2021-03-27T17:35:29Z</time>
      </trkpt>
      <trkpt lat="42.404372" lon="-6.507062">
        <ele>1707.51</ele>
        <time>2021-03-27T17:35:31Z</time>
      </trkpt>
      <trkpt lat="42.404332" lon="-6.507558">
        <ele>1713.79</ele>
        <time>2021-03-27T17:35:32Z</time>
      </trkpt>
      <trkpt lat="42.404332" lon="-6.507712">
        <ele>1714.67</ele>
        <time>2021-03-27T17:35:34Z</time>
      </trkpt>
      <trkpt lat="42.404357" lon="-6.507826">
        <ele>1715.08</ele>
        <time>2021-03-27T17:35:36Z</time>
      </trkpt>
      <trkpt lat="42.404402" lon="-6.507915">
        <ele>1715.34</ele>
        <time>2021-03-27T17:35:37Z</time>
      </trkpt>
      <trkpt lat="42.404463" lon="-6.507969">
        <ele>1714.64</ele>
        <time>2021-03-27T17:35:39Z</time>
      </trkpt>
      <trkpt lat="42.404735" lon="-6.508095">
        <ele>1709.7</ele>
        <time>2021-03-27T17:35:40Z</time>
      </trkpt>
      <trkpt lat="42.404893" lon="-6.508219">
        <ele>1708.34</ele>
        <time>2021-03-27T17:35:42Z</time>
      </trkpt>
      <trkpt lat="42.405124" lon="-6.508516">
        <ele>1705.25</ele>
        <time>2021-03-27T17:35:44Z</time>
      </trkpt>
      <trkpt lat="42.405353" lon="-6.508891">
        <ele>1706.4</ele>
        <time>2021-03-27T17:35:45Z</time>
      </trkpt>
      <trkpt lat="42.405564" lon="-6.509314">
        <ele>1705.29</ele>
        <time>2021-03-27T17:35:47Z</time>
      </trkpt>
      <trkpt lat="42.405788" lon="-6.509951">
        <ele>1703.78</ele>
        <time>2021-03-27T17:35:48Z</time>
      </trkpt>
      <trkpt lat="42.405854" lon="-6.510205">
        <ele>1705.48</ele>
        <time>2021-03-27T17:35:50Z</time>
      </trkpt>
      <trkpt lat="42.405899" lon="-6.510317">
        <ele>1706.1</ele>
        <time>2021-03-27T17:35:52Z</time>
      </trkpt>
      <trkpt lat="42.40602" lon="-6.51044">
        <ele>1705.9</ele>
        <time>2021-03-27T17:35:53Z</time>
      </trkpt>
      <trkpt lat="42.406298" lon="-6.510535">
        <ele>1703.86</ele>
        <time>2021-03-27T17:35:55Z</time>
      </trkpt>
      <trkpt lat="42.406549" lon="-6.5107">
        <ele>1704.33</ele>
        <time>2021-03-27T17:35:56Z</time>
      </trkpt>
      <trkpt lat="42.406872" lon="-6.511052">
        <ele>1706.76</ele>
        <time>2021-03-27T17:35:58Z</time>
      </trkpt>
      <trkpt lat="42.406955" lon="-6.511077">
        <ele>1705.57</ele>
        <time>2021-03-27T17:36:00Z</time>
      </trkpt>
      <trkpt lat="42.407042" lon="-6.51107">
        <ele>1705.01</ele>
        <time>2021-03-27T17:36:01Z</time>
      </trkpt>
      <trkpt lat="42.407124" lon="-6.51105">
        <ele>1704.47</ele>
        <time>2021-03-27T17:36:03Z</time>
      </trkpt>
      <trkpt lat="42.407183" lon="-6.511006">
        <ele>1704.12</ele>
        <time>2021-03-27T17:36:04Z</time>
      </trkpt>
      <trkpt lat="42.407249" lon="-6.510937">
        <ele>1704.29</ele>
        <time>2021-03-27T17:36:06Z</time>
      </trkpt>
      <trkpt lat="42.407285" lon="-6.510858">
        <ele>1704.68</ele>
        <time>2021-03-27T17:36:08Z</time>
      </trkpt>
      <trkpt lat="42.40731" lon="-6.510322">
        <ele>1706.69</ele>
        <time>2021-03-27T17:36:09Z</time>
      </trkpt>
      <trkpt lat="42.407315" lon="-6.509655">
        <ele>1708.42</ele>
        <time>2021-03-27T17:36:11Z</time>
      </trkpt>
      <trkpt lat="42.407266" lon="-6.509214">
        <ele>1708.09</ele>
        <time>2021-03-27T17:36:12Z</time>
      </trkpt>
      <trkpt lat="42.40728" lon="-6.50911">
        <ele>1708.46</ele>
        <time>2021-03-27T17:36:14Z</time>
      </trkpt>
      <trkpt lat="42.407329" lon="-6.509011">
        <ele>1709.51</ele>
        <time>2021-03-27T17:36:16Z</time>
      </trkpt>
      <trkpt lat="42.407378" lon="-6.508964">
        <ele>1710.76</ele>
        <time>2021-03-27T17:36:17Z</time>
      </trkpt>
      <trkpt lat="42.407437" lon="-6.508965">
        <ele>1712.46</ele>
        <time>2021-03-27T17:36:19Z</time>
      </trkpt>
      <trkpt lat="42.407579" lon="-6.509101">
        <ele>1716.32</ele>
        <time>2021-03-27T17:36:20Z</time>
      </trkpt>
      <trkpt lat="42.407646" lon="-6.509257">
        <ele>1717.47</ele>
        <time>2021-03-27T17:36:22Z</time>
      </trkpt>
      <trkpt lat="42.407886" lon="-6.510069">
        <ele>1719.09</ele>
        <time>2021-03-27T17:36:24Z</time>
      </trkpt>
      <trkpt lat="42.407977" lon="-6.510285">
        <ele>1720.28</ele>
        <time>2021-03-27T17:36:25Z</time>
      </trkpt>
      <trkpt lat="42.408199" lon="-6.510574">
        <ele>1723.03</ele>
        <time>2021-03-27T17:36:27Z</time>
      </trkpt>
      <trkpt lat="42.409056" lon="-6.511812">
        <ele>1729.88</ele>
        <time>2021-03-27T17:36:28Z</time>
      </trkpt>
      <trkpt lat="42.409681" lon="-6.512645">
        <ele>1733.93</ele>
        <time>2021-03-27T17:36:30Z</time>
      </trkpt>
      <trkpt lat="42.41074" lon="-6.513862">
        <ele>1727.04</ele>
        <time>2021-03-27T17:36:32Z</time>
      </trkpt>
      <trkpt lat="42.411078" lon="-6.514143">
        <ele>1722.49</ele>
        <time>2021-03-27T17:36:33Z</time>
      </trkpt>
      <trkpt lat="42.411381" lon="-6.514316">
        <ele>1716.46</ele>
        <time>2021-03-27T17:36:35Z</time>
      </trkpt>
      <trkpt lat="42.411458" lon="-6.514405">
        <ele>1716.09</ele>
        <time>2021-03-27T17:36:36Z</time>
      </trkpt>
      <trkpt lat="42.411506" lon="-6.51456">
        <ele>1715.7</ele>
        <time>2021-03-27T17:36:38Z</time>
      </trkpt>
      <trkpt lat="42.411516" lon="-6.514675">
        <ele>1715.41</ele>
        <time>2021-03-27T17:36:40Z</time>
      </trkpt>
      <trkpt lat="42.411462" lon="-6.515019">
        <ele>1713.03</ele>
        <time>2021-03-27T17:36:41Z</time>
      </trkpt>
      <trkpt lat="42.411395" lon="-6.515248">
        <ele>1711.32</ele>
        <time>2021-03-27T17:36:43Z</time>
      </trkpt>
      <trkpt lat="42.411287" lon="-6.515453">
        <ele>1710.71</ele>
        <time>2021-03-27T17:36:44Z</time>
      </trkpt>
      <trkpt lat="42.411077" lon="-6.515725">
        <ele>1713.47</ele>
        <time>2021-03-27T17:36:46Z</time>
      </trkpt>
      <trkpt lat="42.410751" lon="-6.515997">
        <ele>1718.18</ele>
        <time>2021-03-27T17:36:48Z</time>
      </trkpt>
      <trkpt lat="42.410714" lon="-6.516058">
        <ele>1718.01</ele>
        <time>2021-03-27T17:36:49Z</time>
      </trkpt>
      <trkpt lat="42.410709" lon="-6.516102">
        <ele>1717.14</ele>
        <time>2021-03-27T17:36:51Z</time>
      </trkpt>
      <trkpt lat="42.410726" lon="-6.516197">
        <ele>1714.14</ele>
        <time>2021-03-27T17:36:52Z</time>
      </trkpt>
      <trkpt lat="42.410761" lon="-6.516241">
        <ele>1711.49</ele>
        <time>2021-03-27T17:36:54Z</time>
      </trkpt>
      <trkpt lat="42.410831" lon="-6.51623">
        <ele>1708.68</ele>
        <time>2021-03-27T17:36:56Z</time>
      </trkpt>
      <trkpt lat="42.41088" lon="-6.516195">
        <ele>1707.9</ele>
        <time>2021-03-27T17:36:57Z</time>
      </trkpt>
      <trkpt lat="42.411153" lon="-6.51592">
        <ele>1705.34</ele>
        <time>2021-03-27T17:36:59Z</time>
      </trkpt>
      <trkpt lat="42.411356" lon="-6.515766">
        <ele>1699.54</ele>
        <time>2021-03-27T17:37:01Z</time>
      </trkpt>
      <trkpt lat="42.41162" lon="-6.515476">
        <ele>1697.09</ele>
        <time>2021-03-27T17:37:02Z</time>
      </trkpt>
      <trkpt lat="42.411827" lon="-6.515192">
        <ele>1697.57</ele>
        <time>2021-03-27T17:37:04Z</time>
      </trkpt>
      <trkpt lat="42.412013" lon="-6.514901">
        <ele>1694.87</ele>
        <time>2021-03-27T17:37:05Z</time>
      </trkpt>
      <trkpt lat="42.412152" lon="-6.514653">
        <ele>1691.78</ele>
        <time>2021-03-27T17:37:07Z</time>
      </trkpt>
      <trkpt lat="42.412235" lon="-6.514416">
        <ele>1687.98</ele>
        <time>2021-03-27T17:37:09Z</time>
      </trkpt>
      <trkpt lat="42.412277" lon="-6.514349">
        <ele>1685.3</ele>
        <time>2021-03-27T17:37:10Z</time>
      </trkpt>
      <trkpt lat="42.412354" lon="-6.514296">
        <ele>1682.03</ele>
        <time>2021-03-27T17:37:12Z</time>
      </trkpt>
      <trkpt lat="42.4124" lon="-6.5143">
        <ele>1680.79</ele>
        <time>2021-03-27T17:37:13Z</time>
      </trkpt>
      <trkpt lat="42.412432" lon="-6.514327">
        <ele>1680.3</ele>
        <time>2021-03-27T17:37:15Z</time>
      </trkpt>
      <trkpt lat="42.412453" lon="-6.514386">
        <ele>1680.61</ele>
        <time>2021-03-27T17:37:17Z</time>
      </trkpt>
      <trkpt lat="42.412462" lon="-6.514517">
        <ele>1681.01</ele>
        <time>2021-03-27T17:37:18Z</time>
      </trkpt>
      <trkpt lat="42.412397" lon="-6.514777">
        <ele>1681.99</ele>
        <time>2021-03-27T17:37:20Z</time>
      </trkpt>
      <trkpt lat="42.412044" lon="-6.515505">
        <ele>1682.97</ele>
        <time>2021-03-27T17:37:21Z</time>
      </trkpt>
      <trkpt lat="42.411324" lon="-6.516624">
        <ele>1673.69</ele>
        <time>2021-03-27T17:37:23Z</time>
      </trkpt>
      <trkpt lat="42.411178" lon="-6.517006">
        <ele>1671.43</ele>
        <time>2021-03-27T17:37:25Z</time>
      </trkpt>
      <trkpt lat="42.411035" lon="-6.517549">
        <ele>1667.35</ele>
        <time>2021-03-27T17:37:26Z</time>
      </trkpt>
      <trkpt lat="42.411004" lon="-6.517795">
        <ele>1667.93</ele>
        <time>2021-03-27T17:37:28Z</time>
      </trkpt>
      <trkpt lat="42.411016" lon="-6.518034">
        <ele>1667.14</ele>
        <time>2021-03-27T17:37:29Z</time>
      </trkpt>
      <trkpt lat="42.411097" lon="-6.518481">
        <ele>1665.22</ele>
        <time>2021-03-27T17:37:31Z</time>
      </trkpt>
      <trkpt lat="42.411314" lon="-6.519923">
        <ele>1654.75</ele>
        <time>2021-03-27T17:37:33Z</time>
      </trkpt>
      <trkpt lat="42.411409" lon="-6.520291">
        <ele>1653.01</ele>
        <time>2021-03-27T17:37:34Z</time>
      </trkpt>
      <trkpt lat="42.411484" lon="-6.520468">
        <ele>1652.07</ele>
        <time>2021-03-27T17:37:36Z</time>
      </trkpt>
      <trkpt lat="42.411594" lon="-6.520664">
        <ele>1650.94</ele>
        <time>2021-03-27T17:37:37Z</time>
      </trkpt>
      <trkpt lat="42.411754" lon="-6.520887">
        <ele>1648.5</ele>
        <time>2021-03-27T17:37:39Z</time>
      </trkpt>
      <trkpt lat="42.412196" lon="-6.521381">
        <ele>1641.85</ele>
        <time>2021-03-27T17:37:41Z</time>
      </trkpt>
      <trkpt lat="42.412355" lon="-6.521531">
        <ele>1639.53</ele>
        <time>2021-03-27T17:37:42Z</time>
      </trkpt>
      <trkpt lat="42.412605" lon="-6.521699">
        <ele>1636.78</ele>
        <time>2021-03-27T17:37:44Z</time>
      </trkpt>
      <trkpt lat="42.412701" lon="-6.521735">
        <ele>1635.87</ele>
        <time>2021-03-27T17:37:45Z</time>
      </trkpt>
      <trkpt lat="42.413171" lon="-6.521805">
        <ele>1625.82</ele>
        <time>2021-03-27T17:37:47Z</time>
      </trkpt>
      <trkpt lat="42.413272" lon="-6.521856">
        <ele>1624.51</ele>
        <time>2021-03-27T17:37:49Z</time>
      </trkpt>
      <trkpt lat="42.413687" lon="-6.522165">
        <ele>1625.03</ele>
        <time>2021-03-27T17:37:50Z</time>
      </trkpt>
      <trkpt lat="42.414" lon="-6.522297">
        <ele>1617.2</ele>
        <time>2021-03-27T17:37:52Z</time>
      </trkpt>
      <trkpt lat="42.414143" lon="-6.52243">
        <ele>1612.23</ele>
        <time>2021-03-27T17:37:53Z</time>
      </trkpt>
      <trkpt lat="42.414163" lon="-6.522533">
        <ele>1612.19</ele>
        <time>2021-03-27T17:37:55Z</time>
      </trkpt>
      <trkpt lat="42.414163" lon="-6.522647">
        <ele>1612.18</ele>
        <time>2021-03-27T17:37:57Z</time>
      </trkpt>
      <trkpt lat="42.414071" lon="-6.522966">
        <ele>1614.21</ele>
        <time>2021-03-27T17:37:58Z</time>
      </trkpt>
      <trkpt lat="42.41391" lon="-6.523326">
        <ele>1614.24</ele>
        <time>2021-03-27T17:38:00Z</time>
      </trkpt>
      <trkpt lat="42.413752" lon="-6.523625">
        <ele>1611.87</ele>
        <time>2021-03-27T17:38:01Z</time>
      </trkpt>
      <trkpt lat="42.413298" lon="-6.524363">
        <ele>1603.24</ele>
        <time>2021-03-27T17:38:03Z</time>
      </trkpt>
      <trkpt lat="42.413111" lon="-6.524709">
        <ele>1598.81</ele>
        <time>2021-03-27T17:38:05Z</time>
      </trkpt>
      <trkpt lat="42.412974" lon="-6.524889">
        <ele>1596.96</ele>
        <time>2021-03-27T17:38:06Z</time>
      </trkpt>
      <trkpt lat="42.412597" lon="-6.525257">
        <ele>1600.81</ele>
        <time>2021-03-27T17:38:08Z</time>
      </trkpt>
      <trkpt lat="42.411655" lon="-6.526618">
        <ele>1591.26</ele>
        <time>2021-03-27T17:38:09Z</time>
      </trkpt>
      <trkpt lat="42.411268" lon="-6.527098">
        <ele>1589.72</ele>
        <time>2021-03-27T17:38:11Z</time>
      </trkpt>
      <trkpt lat="42.41104" lon="-6.527544">
        <ele>1592.93</ele>
        <time>2021-03-27T17:38:13Z</time>
      </trkpt>
      <trkpt lat="42.410945" lon="-6.52778">
        <ele>1596.98</ele>
        <time>2021-03-27T17:38:14Z</time>
      </trkpt>
      <trkpt lat="42.410946" lon="-6.527856">
        <ele>1597.01</ele>
        <time>2021-03-27T17:38:16Z</time>
      </trkpt>
      <trkpt lat="42.410974" lon="-6.527922">
        <ele>1596.2</ele>
        <time>2021-03-27T17:38:17Z</time>
      </trkpt>
      <trkpt lat="42.411021" lon="-6.527958">
        <ele>1594.91</ele>
        <time>2021-03-27T17:38:19Z</time>
      </trkpt>
      <trkpt lat="42.411115" lon="-6.52798">
        <ele>1592.32</ele>
        <time>2021-03-27T17:38:21Z</time>
      </trkpt>
      <trkpt lat="42.411449" lon="-6.527979">
        <ele>1581.2</ele>
        <time>2021-03-27T17:38:22Z</time>
      </trkpt>
      <trkpt lat="42.411593" lon="-6.527997">
        <ele>1577.55</ele>
        <time>2021-03-27T17:38:24Z</time>
      </trkpt>
      <trkpt lat="42.412479" lon="-6.528241">
        <ele>1571.27</ele>
        <time>2021-03-27T17:38:25Z</time>
      </trkpt>
      <trkpt lat="42.41262" lon="-6.528291">
        <ele>1571.42</ele>
        <time>2021-03-27T17:38:27Z</time>
      </trkpt>
      <trkpt lat="42.413193" lon="-6.52857">
        <ele>1567.12</ele>
        <time>2021-03-27T17:38:29Z</time>
      </trkpt>
      <trkpt lat="42.413409" lon="-6.52864">
        <ele>1564.55</ele>
        <time>2021-03-27T17:38:30Z</time>
      </trkpt>
      <trkpt lat="42.414323" lon="-6.528772">
        <ele>1552.65</ele>
        <time>2021-03-27T17:38:32Z</time>
      </trkpt>
      <trkpt lat="42.414549" lon="-6.528789">
        <ele>1551.08</ele>
        <time>2021-03-27T17:38:33Z</time>
      </trkpt>
      <trkpt lat="42.414799" lon="-6.52878">
        <ele>1551.51</ele>
        <time>2021-03-27T17:38:35Z</time>
      </trkpt>
      <trkpt lat="42.414883" lon="-6.528757">
        <ele>1551.89</ele>
        <time>2021-03-27T17:38:37Z</time>
      </trkpt>
      <trkpt lat="42.415304" lon="-6.528495">
        <ele>1549.66</ele>
        <time>2021-03-27T17:38:38Z</time>
      </trkpt>
      <trkpt lat="42.415827" lon="-6.528277">
        <ele>1541.35</ele>
        <time>2021-03-27T17:38:40Z</time>
      </trkpt>
      <trkpt lat="42.416063" lon="-6.52811">
        <ele>1534.88</ele>
        <time>2021-03-27T17:38:41Z</time>
      </trkpt>
      <trkpt lat="42.416135" lon="-6.528089">
        <ele>1534.5</ele>
        <time>2021-03-27T17:38:43Z</time>
      </trkpt>
      <trkpt lat="42.416489" lon="-6.528058">
        <ele>1536.18</ele>
        <time>2021-03-27T17:38:45Z</time>
      </trkpt>
      <trkpt lat="42.416683" lon="-6.528061">
        <ele>1537.82</ele>
        <time>2021-03-27T17:38:46Z</time>
      </trkpt>
      <trkpt lat="42.417109" lon="-6.528154">
        <ele>1533.69</ele>
        <time>2021-03-27T17:38:48Z</time>
      </trkpt>
      <trkpt lat="42.417243" lon="-6.52814">
        <ele>1532.48</ele>
        <time>2021-03-27T17:38:50Z</time>
      </trkpt>
      <trkpt lat="42.417453" lon="-6.528032">
        <ele>1531.82</ele>
        <time>2021-03-27T17:38:51Z</time>
      </trkpt>
      <trkpt lat="42.41751" lon="-6.527952">
        <ele>1529.48</ele>
        <time>2021-03-27T17:38:53Z</time>
      </trkpt>
      <trkpt lat="42.417564" lon="-6.527803">
        <ele>1525.47</ele>
        <time>2021-03-27T17:38:54Z</time>
      </trkpt>
      <trkpt lat="42.417646" lon="-6.5272">
        <ele>1516.33</ele>
        <time>2021-03-27T17:38:56Z</time>
      </trkpt>
      <trkpt lat="42.417701" lon="-6.52705">
        <ele>1515.69</ele>
        <time>2021-03-27T17:38:58Z</time>
      </trkpt>
      <trkpt lat="42.417755" lon="-6.526957">
        <ele>1516.29</ele>
        <time>2021-03-27T17:38:59Z</time>
      </trkpt>
      <trkpt lat="42.417873" lon="-6.526836">
        <ele>1515.7</ele>
        <time>2021-03-27T17:39:01Z</time>
      </trkpt>
      <trkpt lat="42.418104" lon="-6.526726">
        <ele>1517.41</ele>
        <time>2021-03-27T17:39:02Z</time>
      </trkpt>
      <trkpt lat="42.418142" lon="-6.526691">
        <ele>1516.65</ele>
        <time>2021-03-27T17:39:04Z</time>
      </trkpt>
      <trkpt lat="42.41864" lon="-6.526105">
        <ele>1508.52</ele>
        <time>2021-03-27T17:39:06Z</time>
      </trkpt>
      <trkpt lat="42.418919" lon="-6.525696">
        <ele>1494.46</ele>
        <time>2021-03-27T17:39:07Z</time>
      </trkpt>
      <trkpt lat="42.418979" lon="-6.525633">
        <ele>1491.96</ele>
        <time>2021-03-27T17:39:09Z</time>
      </trkpt>
      <trkpt lat="42.41903" lon="-6.525606">
        <ele>1491.16</ele>
        <time>2021-03-27T17:39:10Z</time>
      </trkpt>
      <trkpt lat="42.419095" lon="-6.525603">
        <ele>1491.74</ele>
        <time>2021-03-27T17:39:12Z</time>
      </trkpt>
      <trkpt lat="42.419305" lon="-6.525662">
        <ele>1493.6</ele>
        <time>2021-03-27T17:39:14Z</time>
      </trkpt>
      <trkpt lat="42.419424" lon="-6.525749">
        <ele>1494.72</ele>
        <time>2021-03-27T17:39:15Z</time>
      </trkpt>
      <trkpt lat="42.419534" lon="-6.525857">
        <ele>1496.54</ele>
        <time>2021-03-27T17:39:17Z</time>
      </trkpt>
      <trkpt lat="42.419641" lon="-6.525919">
        <ele>1496.69</ele>
        <time>2021-03-27T17:39:18Z</time>
      </trkpt>
      <trkpt lat="42.419706" lon="-6.525945">
        <ele>1496.14</ele>
        <time>2021-03-27T17:39:20Z</time>
      </trkpt>
      <trkpt lat="42.419825" lon="-6.525951">
        <ele>1495.54</ele>
        <time>2021-03-27T17:39:22Z</time>
      </trkpt>
      <trkpt lat="42.420086" lon="-6.525898">
        <ele>1493.47</ele>
        <time>2021-03-27T17:39:23Z</time>
      </trkpt>
      <trkpt lat="42.42027" lon="-6.525765">
        <ele>1490.49</ele>
        <time>2021-03-27T17:39:25Z</time>
      </trkpt>
      <trkpt lat="42.420529" lon="-6.525491">
        <ele>1485.95</ele>
        <time>2021-03-27T17:39:26Z</time>
      </trkpt>
      <trkpt lat="42.420599" lon="-6.525451">
        <ele>1484.52</ele>
        <time>2021-03-27T17:39:28Z</time>
      </trkpt>
      <trkpt lat="42.420661" lon="-6.525447">
        <ele>1483.73</ele>
        <time>2021-03-27T17:39:30Z</time>
      </trkpt>
      <trkpt lat="42.420733" lon="-6.525472">
        <ele>1483.68</ele>
        <time>2021-03-27T17:39:31Z</time>
      </trkpt>
      <trkpt lat="42.420837" lon="-6.525544">
        <ele>1484.56</ele>
        <time>2021-03-27T17:39:33Z</time>
      </trkpt>
      <trkpt lat="42.421625" lon="-6.526217">
        <ele>1477.11</ele>
        <time>2021-03-27T17:39:34Z</time>
      </trkpt>
      <trkpt lat="42.42185" lon="-6.526325">
        <ele>1473.26</ele>
        <time>2021-03-27T17:39:36Z</time>
      </trkpt>
      <trkpt lat="42.421989" lon="-6.526363">
        <ele>1470.99</ele>
        <time>2021-03-27T17:39:38Z</time>
      </trkpt>
      <trkpt lat="42.422344" lon="-6.526387">
        <ele>1469.43</ele>
        <time>2021-03-27T17:39:39Z</time>
      </trkpt>
      <trkpt lat="42.422411" lon="-6.526703">
        <ele>1468.55</ele>
        <time>2021-03-27T17:39:43Z</time>
      </trkpt>
      <trkpt lat="42.422586" lon="-6.527239">
        <ele>1459.15</ele>
        <time>2021-03-27T17:39:47Z</time>
      </trkpt>
      <trkpt lat="42.422702" lon="-6.527456">
        <ele>1454.32</ele>
        <time>2021-03-27T17:39:51Z</time>
      </trkpt>
      <trkpt lat="42.422811" lon="-6.527613">
        <ele>1449.15</ele>
        <time>2021-03-27T17:39:54Z</time>
      </trkpt>
      <trkpt lat="42.422885" lon="-6.527677">
        <ele>1447.36</ele>
        <time>2021-03-27T17:39:58Z</time>
      </trkpt>
      <trkpt lat="42.422976" lon="-6.527709">
        <ele>1447.45</ele>
        <time>2021-03-27T17:40:02Z</time>
      </trkpt>
      <trkpt lat="42.42305" lon="-6.527693">
        <ele>1449.28</ele>
        <time>2021-03-27T17:40:06Z</time>
      </trkpt>
      <trkpt lat="42.423156" lon="-6.527628">
        <ele>1449.96</ele>
        <time>2021-03-27T17:40:09Z</time>
      </trkpt>
      <trkpt lat="42.423242" lon="-6.527612">
        <ele>1448.93</ele>
        <time>2021-03-27T17:40:13Z</time>
      </trkpt>
      <trkpt lat="42.423422" lon="-6.527627">
        <ele>1446.03</ele>
        <time>2021-03-27T17:40:17Z</time>
      </trkpt>
      <trkpt lat="42.423529" lon="-6.527701">
        <ele>1442.41</ele>
        <time>2021-03-27T17:40:21Z</time>
      </trkpt>
      <trkpt lat="42.423667" lon="-6.527881">
        <ele>1435.78</ele>
        <time>2021-03-27T17:40:24Z</time>
      </trkpt>
      <trkpt lat="42.423748" lon="-6.527945">
        <ele>1433.76</ele>
        <time>2021-03-27T17:40:28Z</time>
      </trkpt>
      <trkpt lat="42.424055" lon="-6.528028">
        <ele>1432.23</ele>
        <time>2021-03-27T17:40:32Z</time>
      </trkpt>
      <trkpt lat="42.424399" lon="-6.528175">
        <ele>1429.6</ele>
        <time>2021-03-27T17:40:36Z</time>
      </trkpt>
      <trkpt lat="42.424411" lon="-6.52821">
        <ele>1428.78</ele>
        <time>2021-03-27T17:40:39Z</time>
      </trkpt>
      <trkpt lat="42.424402" lon="-6.528257">
        <ele>1427.43</ele>
        <time>2021-03-27T17:40:43Z</time>
      </trkpt>
      <trkpt lat="42.424372" lon="-6.528297">
        <ele>1425.98</ele>
        <time>2021-03-27T17:40:47Z</time>
      </trkpt>
      <trkpt lat="42.424128" lon="-6.528354">
        <ele>1420.71</ele>
        <time>2021-03-27T17:40:51Z</time>
      </trkpt>
      <trkpt lat="42.423859" lon="-6.528456">
        <ele>1413.48</ele>
        <time>2021-03-27T17:40:54Z</time>
      </trkpt>
      <trkpt lat="42.42375" lon="-6.528419">
        <ele>1416.42</ele>
        <time>2021-03-27T17:40:58Z</time>
      </trkpt>
      <trkpt lat="42.423571" lon="-6.528293">
        <ele>1422.81</ele>
        <time>2021-03-27T17:41:02Z</time>
      </trkpt>
      <trkpt lat="42.423467" lon="-6.528272">
        <ele>1422.67</ele>
        <time>2021-03-27T17:41:06Z</time>
      </trkpt>
      <trkpt lat="42.423406" lon="-6.528323">
        <ele>1420.17</ele>
        <time>2021-03-27T17:41:09Z</time>
      </trkpt>
      <trkpt lat="42.423301" lon="-6.528525">
        <ele>1414.44</ele>
        <time>2021-03-27T17:41:13Z</time>
      </trkpt>
      <trkpt lat="42.423108" lon="-6.528763">
        <ele>1408.59</ele>
        <time>2021-03-27T17:41:17Z</time>
      </trkpt>
      <trkpt lat="42.423019" lon="-6.528826">
        <ele>1406.96</ele>
        <time>2021-03-27T17:41:21Z</time>
      </trkpt>
      <trkpt lat="42.422885" lon="-6.528837">
        <ele>1406.45</ele>
        <time>2021-03-27T17:41:24Z</time>
      </trkpt>
      <trkpt lat="42.422861" lon="-6.528863">
        <ele>1405.71</ele>
        <time>2021-03-27T17:41:28Z</time>
      </trkpt>
      <trkpt lat="42.422854" lon="-6.52891">
        <ele>1404.21</ele>
        <time>2021-03-27T17:41:32Z</time>
      </trkpt>
      <trkpt lat="42.422877" lon="-6.528957">
        <ele>1402.45</ele>
        <time>2021-03-27T17:41:36Z</time>
      </trkpt>
      <trkpt lat="42.422995" lon="-6.529016">
        <ele>1400.06</ele>
        <time>2021-03-27T17:41:39Z</time>
      </trkpt>
      <trkpt lat="42.42316" lon="-6.529026">
        <ele>1398.62</ele>
        <time>2021-03-27T17:41:43Z</time>
      </trkpt>
      <trkpt lat="42.423292" lon="-6.528974">
        <ele>1399.34</ele>
        <time>2021-03-27T17:41:47Z</time>
      </trkpt>
      <trkpt lat="42.423414" lon="-6.528868">
        <ele>1401.93</ele>
        <time>2021-03-27T17:41:51Z</time>
      </trkpt>
      <trkpt lat="42.423459" lon="-6.528855">
        <ele>1401.96</ele>
        <time>2021-03-27T17:41:54Z</time>
      </trkpt>
      <trkpt lat="42.423504" lon="-6.528848">
        <ele>1401.81</ele>
        <time>2021-03-27T17:41:58Z</time>
      </trkpt>
      <trkpt lat="42.423689" lon="-6.528916">
        <ele>1397.73</ele>
        <time>2021-03-27T17:42:02Z</time>
      </trkpt>
      <trkpt lat="42.423935" lon="-6.529164">
        <ele>1387.95</ele>
        <time>2021-03-27T17:42:06Z</time>
      </trkpt>
      <trkpt lat="42.424166" lon="-6.529245">
        <ele>1389.17</ele>
        <time>2021-03-27T17:42:09Z</time>
      </trkpt>
      <trkpt lat="42.424265" lon="-6.529307">
        <ele>1386.41</ele>
        <time>2021-03-27T17:42:13Z</time>
      </trkpt>
      <trkpt lat="42.424442" lon="-6.529443">
        <ele>1381.04</ele>
        <time>2021-03-27T17:42:17Z</time>
      </trkpt>
      <trkpt lat="42.424539" lon="-6.529555">
        <ele>1376.33</ele>
        <time>2021-03-27T17:42:21Z</time>
      </trkpt>
      <trkpt lat="42.424532" lon="-6.529596">
        <ele>1374.92</ele>
        <time>2021-03-27T17:42:24Z</time>
      </trkpt>
      <trkpt lat="42.424497" lon="-6.529611">
        <ele>1374.63</ele>
        <time>2021-03-27T17:42:28Z</time>
      </trkpt>
      <trkpt lat="42.424214" lon="-6.529507">
        <ele>1379.2</ele>
        <time>2021-03-27T17:42:32Z</time>
      </trkpt>
      <trkpt lat="42.423962" lon="-6.529528">
        <ele>1376.12</ele>
        <time>2021-03-27T17:42:36Z</time>
      </trkpt>
      <trkpt lat="42.423713" lon="-6.529459">
        <ele>1378.15</ele>
        <time>2021-03-27T17:42:39Z</time>
      </trkpt>
      <trkpt lat="42.423676" lon="-6.529473">
        <ele>1377.82</ele>
        <time>2021-03-27T17:42:43Z</time>
      </trkpt>
      <trkpt lat="42.423582" lon="-6.529596">
        <ele>1374.59</ele>
        <time>2021-03-27T17:42:47Z</time>
      </trkpt>
      <trkpt lat="42.423584" lon="-6.529635">
        <ele>1373.3</ele>
        <time>2021-03-27T17:42:51Z</time>
      </trkpt>
      <trkpt lat="42.423603" lon="-6.529654">
        <ele>1372.36</ele>
        <time>2021-03-27T17:42:55Z</time>
      </trkpt>
      <trkpt lat="42.423633" lon="-6.529663">
        <ele>1371.83</ele>
        <time>2021-03-27T17:42:58Z</time>
      </trkpt>
      <trkpt lat="42.423737" lon="-6.529634">
        <ele>1372.39</ele>
        <time>2021-03-27T17:43:02Z</time>
      </trkpt>
      <trkpt lat="42.423883" lon="-6.529711">
        <ele>1369.39</ele>
        <time>2021-03-27T17:43:06Z</time>
      </trkpt>
      <trkpt lat="42.423973" lon="-6.529789">
        <ele>1366.77</ele>
        <time>2021-03-27T17:43:10Z</time>
      </trkpt>
      <trkpt lat="42.424192" lon="-6.529931">
        <ele>1361.08</ele>
        <time>2021-03-27T17:43:13Z</time>
      </trkpt>
      <trkpt lat="42.424684" lon="-6.530333">
        <ele>1348.48</ele>
        <time>2021-03-27T17:43:17Z</time>
      </trkpt>
      <trkpt lat="42.42481" lon="-6.53032">
        <ele>1349.22</ele>
        <time>2021-03-27T17:43:21Z</time>
      </trkpt>
      <trkpt lat="42.42501" lon="-6.53019">
        <ele>1353.3</ele>
        <time>2021-03-27T17:43:25Z</time>
      </trkpt>
      <trkpt lat="42.425121" lon="-6.530214">
        <ele>1353.94</ele>
        <time>2021-03-27T17:43:28Z</time>
      </trkpt>
      <trkpt lat="42.425172" lon="-6.530277">
        <ele>1352.52</ele>
        <time>2021-03-27T17:43:32Z</time>
      </trkpt>
      <trkpt lat="42.425321" lon="-6.530701">
        <ele>1341.61</ele>
        <time>2021-03-27T17:43:36Z</time>
      </trkpt>
      <trkpt lat="42.425707" lon="-6.531533">
        <ele>1330.71</ele>
        <time>2021-03-27T17:43:40Z</time>
      </trkpt>
      <trkpt lat="42.425735" lon="-6.531666">
        <ele>1327.17</ele>
        <time>2021-03-27T17:43:43Z</time>
      </trkpt>
      <trkpt lat="42.425716" lon="-6.531705">
        <ele>1325.13</ele>
        <time>2021-03-27T17:43:47Z</time>
      </trkpt>
      <trkpt lat="42.425648" lon="-6.53171">
        <ele>1323.07</ele>
        <time>2021-03-27T17:43:51Z</time>
      </trkpt>
      <trkpt lat="42.424975" lon="-6.531203">
        <ele>1322.4</ele>
        <time>2021-03-27T17:43:55Z</time>
      </trkpt>
      <trkpt lat="42.424872" lon="-6.531171">
        <ele>1322.26</ele>
        <time>2021-03-27T17:43:58Z</time>
      </trkpt>
      <trkpt lat="42.42484" lon="-6.531203">
        <ele>1320.94</ele>
        <time>2021-03-27T17:44:02Z</time>
      </trkpt>
      <trkpt lat="42.424835" lon="-6.531246">
        <ele>1319.54</ele>
        <time>2021-03-27T17:44:06Z</time>
      </trkpt>
      <trkpt lat="42.424863" lon="-6.531315">
        <ele>1317.8</ele>
        <time>2021-03-27T17:44:10Z</time>
      </trkpt>
      <trkpt lat="42.425026" lon="-6.5315">
        <ele>1315.65</ele>
        <time>2021-03-27T17:44:13Z</time>
      </trkpt>
      <trkpt lat="42.425052" lon="-6.531592">
        <ele>1313.9</ele>
        <time>2021-03-27T17:44:17Z</time>
      </trkpt>
      <trkpt lat="42.425035" lon="-6.531909">
        <ele>1306.52</ele>
        <time>2021-03-27T17:44:21Z</time>
      </trkpt>
      <trkpt lat="42.425088" lon="-6.532151">
        <ele>1301.69</ele>
        <time>2021-03-27T17:44:25Z</time>
      </trkpt>
      <trkpt lat="42.425129" lon="-6.532234">
        <ele>1300.44</ele>
        <time>2021-03-27T17:44:28Z</time>
      </trkpt>
      <trkpt lat="42.425182" lon="-6.532294">
        <ele>1299.78</ele>
        <time>2021-03-27T17:44:32Z</time>
      </trkpt>
      <trkpt lat="42.425279" lon="-6.532339">
        <ele>1300.22</ele>
        <time>2021-03-27T17:44:36Z</time>
      </trkpt>
      <trkpt lat="42.4254" lon="-6.53234">
        <ele>1301.24</ele>
        <time>2021-03-27T17:44:40Z</time>
      </trkpt>
      <trkpt lat="42.425606" lon="-6.532386">
        <ele>1301.46</ele>
        <time>2021-03-27T17:44:43Z</time>
      </trkpt>
      <trkpt lat="42.425975" lon="-6.532622">
        <ele>1294.91</ele>
        <time>2021-03-27T17:44:47Z</time>
      </trkpt>
      <trkpt lat="42.426064" lon="-6.532709">
        <ele>1292.07</ele>
        <time>2021-03-27T17:44:51Z</time>
      </trkpt>
      <trkpt lat="42.426233" lon="-6.532944">
        <ele>1286.22</ele>
        <time>2021-03-27T17:44:55Z</time>
      </trkpt>
      <trkpt lat="42.426544" lon="-6.533195">
        <ele>1281.28</ele>
        <time>2021-03-27T17:44:58Z</time>
      </trkpt>
      <trkpt lat="42.426831" lon="-6.533464">
        <ele>1276.12</ele>
        <time>2021-03-27T17:45:02Z</time>
      </trkpt>
      <trkpt lat="42.427275" lon="-6.533889">
        <ele>1269.88</ele>
        <time>2021-03-27T17:45:06Z</time>
      </trkpt>
      <trkpt lat="42.4274" lon="-6.534043">
        <ele>1266.79</ele>
        <time>2021-03-27T17:45:10Z</time>
      </trkpt>
      <trkpt lat="42.427559" lon="-6.534281">
        <ele>1262.02</ele>
        <time>2021-03-27T17:45:13Z</time>
      </trkpt>
      <trkpt lat="42.427719" lon="-6.534575">
        <ele>1256.75</ele>
        <time>2021-03-27T17:45:17Z</time>
      </trkpt>
      <trkpt lat="42.427824" lon="-6.534776">
        <ele>1255.17</ele>
        <time>2021-03-27T17:45:21Z</time>
      </trkpt>
      <trkpt lat="42.427929" lon="-6.535024">
        <ele>1252.7</ele>
        <time>2021-03-27T17:45:25Z</time>
      </trkpt>
      <trkpt lat="42.428185" lon="-6.535653">
        <ele>1247.19</ele>
        <time>2021-03-27T17:45:28Z</time>
      </trkpt>
      <trkpt lat="42.428287" lon="-6.535983">
        <ele>1246.42</ele>
        <time>2021-03-27T17:45:32Z</time>
      </trkpt>
      <trkpt lat="42.428433" lon="-6.536626">
        <ele>1234.78</ele>
        <time>2021-03-27T17:45:36Z</time>
      </trkpt>
      <trkpt lat="42.428617" lon="-6.537054">
        <ele>1227.22</ele>
        <time>2021-03-27T17:45:40Z</time>
      </trkpt>
      <trkpt lat="42.428745" lon="-6.537296">
        <ele>1222.16</ele>
        <time>2021-03-27T17:45:43Z</time>
      </trkpt>
      <trkpt lat="42.429377" lon="-6.538205">
        <ele>1210.05</ele>
        <time>2021-03-27T17:45:47Z</time>
      </trkpt>
      <trkpt lat="42.429567" lon="-6.538425">
        <ele>1204.02</ele>
        <time>2021-03-27T17:45:51Z</time>
      </trkpt>
      <trkpt lat="42.430024" lon="-6.539042">
        <ele>1188.58</ele>
        <time>2021-03-27T17:45:55Z</time>
      </trkpt>
      <trkpt lat="42.430306" lon="-6.53949">
        <ele>1181.39</ele>
        <time>2021-03-27T17:45:58Z</time>
      </trkpt>
      <trkpt lat="42.430499" lon="-6.539868">
        <ele>1173.36</ele>
        <time>2021-03-27T17:46:02Z</time>
      </trkpt>
      <trkpt lat="42.43067" lon="-6.540085">
        <ele>1168.75</ele>
        <time>2021-03-27T17:46:06Z</time>
      </trkpt>
      <trkpt lat="42.431059" lon="-6.540394">
        <ele>1165.28</ele>
        <time>2021-03-27T17:46:10Z</time>
      </trkpt>
      <trkpt lat="42.431176" lon="-6.54044">
        <ele>1163.86</ele>
        <time>2021-03-27T17:46:13Z</time>
      </trkpt>
      <trkpt lat="42.431311" lon="-6.540434">
        <ele>1163.06</ele>
        <time>2021-03-27T17:46:17Z</time>
      </trkpt>
      <trkpt lat="42.431509" lon="-6.540375">
        <ele>1162.47</ele>
        <time>2021-03-27T17:46:21Z</time>
      </trkpt>
      <trkpt lat="42.431694" lon="-6.540269">
        <ele>1162.32</ele>
        <time>2021-03-27T17:46:25Z</time>
      </trkpt>
      <trkpt lat="42.431825" lon="-6.540153">
        <ele>1160.5</ele>
        <time>2021-03-27T17:46:28Z</time>
      </trkpt>
      <trkpt lat="42.431946" lon="-6.539954">
        <ele>1159.94</ele>
        <time>2021-03-27T17:46:32Z</time>
      </trkpt>
      <trkpt lat="42.432154" lon="-6.539481">
        <ele>1159.44</ele>
        <time>2021-03-27T17:46:36Z</time>
      </trkpt>
      <trkpt lat="42.432183" lon="-6.539373">
        <ele>1159.87</ele>
        <time>2021-03-27T17:46:40Z</time>
      </trkpt>
      <trkpt lat="42.432217" lon="-6.539358">
        <ele>1158.48</ele>
        <time>2021-03-27T17:46:43Z</time>
      </trkpt>
      <trkpt lat="42.432147" lon="-6.54081">
        <ele>1135.54</ele>
        <time>2021-03-27T17:46:51Z</time>
      </trkpt>
      <trkpt lat="42.43213" lon="-6.54093">
        <ele>1134.73</ele>
        <time>2021-03-27T17:46:59Z</time>
      </trkpt>
      <trkpt lat="42.432031" lon="-6.54118">
        <ele>1133.99</ele>
        <time>2021-03-27T17:47:07Z</time>
      </trkpt>
      <trkpt lat="42.431829" lon="-6.541424">
        <ele>1133.76</ele>
        <time>2021-03-27T17:47:15Z</time>
      </trkpt>
      <trkpt lat="42.431268" lon="-6.541965">
        <ele>1118.13</ele>
        <time>2021-03-27T17:47:23Z</time>
      </trkpt>
      <trkpt lat="42.431158" lon="-6.541982">
        <ele>1116.45</ele>
        <time>2021-03-27T17:47:31Z</time>
      </trkpt>
      <trkpt lat="42.431031" lon="-6.541931">
        <ele>1115.7</ele>
        <time>2021-03-27T17:47:39Z</time>
      </trkpt>
      <trkpt lat="42.430837" lon="-6.541805">
        <ele>1117.58</ele>
        <time>2021-03-27T17:47:47Z</time>
      </trkpt>
      <trkpt lat="42.430122" lon="-6.541416">
        <ele>1110.49</ele>
        <time>2021-03-27T17:47:55Z</time>
      </trkpt>
      <trkpt lat="42.429437" lon="-6.541064">
        <ele>1101.0</ele>
        <time>2021-03-27T17:48:03Z</time>
      </trkpt>
      <trkpt lat="42.429048" lon="-6.540914">
        <ele>1097.1</ele>
        <time>2021-03-27T17:48:11Z</time>
      </trkpt>
      <trkpt lat="42.429212" lon="-6.541302">
        <ele>1089.21</ele>
        <time>2021-03-27T17:48:12Z</time>
      </trkpt>
      <trkpt lat="42.429289" lon="-6.541427">
        <ele>1087.7</ele>
        <time>2021-03-27T17:48:14Z</time>
      </trkpt>
      <trkpt lat="42.429469" lon="-6.541617">
        <ele>1085.95</ele>
        <time>2021-03-27T17:48:15Z</time>
      </trkpt>
      <trkpt lat="42.429657" lon="-6.541753">
        <ele>1086.11</ele>
        <time>2021-03-27T17:48:16Z</time>
      </trkpt>
      <trkpt lat="42.429912" lon="-6.542096">
        <ele>1079.82</ele>
        <time>2021-03-27T17:48:18Z</time>
      </trkpt>
      <trkpt lat="42.430249" lon="-6.542445">
        <ele>1075.5</ele>
        <time>2021-03-27T17:48:19Z</time>
      </trkpt>
      <trkpt lat="42.430512" lon="-6.542846">
        <ele>1067.05</ele>
        <time>2021-03-27T17:48:20Z</time>
      </trkpt>
      <trkpt lat="42.430666" lon="-6.543037">
        <ele>1066.69</ele>
        <time>2021-03-27T17:48:22Z</time>
      </trkpt>
      <trkpt lat="42.430961" lon="-6.543315">
        <ele>1063.12</ele>
        <time>2021-03-27T17:48:23Z</time>
      </trkpt>
      <trkpt lat="42.43123" lon="-6.543527">
        <ele>1058.73</ele>
        <time>2021-03-27T17:48:25Z</time>
      </trkpt>
      <trkpt lat="42.431368" lon="-6.543698">
        <ele>1053.5</ele>
        <time>2021-03-27T17:48:26Z</time>
      </trkpt>
      <trkpt lat="42.431664" lon="-6.54391">
        <ele>1050.09</ele>
        <time>2021-03-27T17:48:27Z</time>
      </trkpt>
      <trkpt lat="42.431739" lon="-6.543988">
        <ele>1048.32</ele>
        <time>2021-03-27T17:48:29Z</time>
      </trkpt>
      <trkpt lat="42.431954" lon="-6.544273">
        <ele>1042.06</ele>
        <time>2021-03-27T17:48:30Z</time>
      </trkpt>
      <trkpt lat="42.432006" lon="-6.54431">
        <ele>1040.29</ele>
        <time>2021-03-27T17:48:31Z</time>
      </trkpt>
      <trkpt lat="42.432049" lon="-6.544309">
        <ele>1039.95</ele>
        <time>2021-03-27T17:48:33Z</time>
      </trkpt>
      <trkpt lat="42.432393" lon="-6.543822">
        <ele>1045.08</ele>
        <time>2021-03-27T17:48:34Z</time>
      </trkpt>
      <trkpt lat="42.432475" lon="-6.543727">
        <ele>1045.43</ele>
        <time>2021-03-27T17:48:36Z</time>
      </trkpt>
      <trkpt lat="42.432692" lon="-6.54355">
        <ele>1041.33</ele>
        <time>2021-03-27T17:48:37Z</time>
      </trkpt>
      <trkpt lat="42.432772" lon="-6.543391">
        <ele>1039.68</ele>
        <time>2021-03-27T17:48:38Z</time>
      </trkpt>
      <trkpt lat="42.432887" lon="-6.543241">
        <ele>1036.6</ele>
        <time>2021-03-27T17:48:40Z</time>
      </trkpt>
      <trkpt lat="42.432952" lon="-6.543106">
        <ele>1034.8</ele>
        <time>2021-03-27T17:48:41Z</time>
      </trkpt>
      <trkpt lat="42.433037" lon="-6.542805">
        <ele>1032.26</ele>
        <time>2021-03-27T17:48:42Z</time>
      </trkpt>
      <trkpt lat="42.433058" lon="-6.54252">
        <ele>1031.81</ele>
        <time>2021-03-27T17:48:44Z</time>
      </trkpt>
      <trkpt lat="42.433116" lon="-6.542336">
        <ele>1029.47</ele>
        <time>2021-03-27T17:48:45Z</time>
      </trkpt>
      <trkpt lat="42.433312" lon="-6.541934">
        <ele>1026.69</ele>
        <time>2021-03-27T17:48:46Z</time>
      </trkpt>
      <trkpt lat="42.433613" lon="-6.541556">
        <ele>1017.51</ele>
        <time>2021-03-27T17:48:48Z</time>
      </trkpt>
      <trkpt lat="42.433714" lon="-6.541399">
        <ele>1015.08</ele>
        <time>2021-03-27T17:48:49Z</time>
      </trkpt>
      <trkpt lat="42.433775" lon="-6.541223">
        <ele>1018.26</ele>
        <time>2021-03-27T17:48:51Z</time>
      </trkpt>
      <trkpt lat="42.433806" lon="-6.541007">
        <ele>1025.91</ele>
        <time>2021-03-27T17:48:52Z</time>
      </trkpt>
      <trkpt lat="42.433824" lon="-6.540474">
        <ele>1032.33</ele>
        <time>2021-03-27T17:48:53Z</time>
      </trkpt>
      <trkpt lat="42.433848" lon="-6.540409">
        <ele>1030.31</ele>
        <time>2021-03-27T17:48:55Z</time>
      </trkpt>
      <trkpt lat="42.433882" lon="-6.540383">
        <ele>1027.62</ele>
        <time>2021-03-27T17:48:56Z</time>
      </trkpt>
      <trkpt lat="42.43392" lon="-6.540389">
        <ele>1027.38</ele>
        <time>2021-03-27T17:48:57Z</time>
      </trkpt>
      <trkpt lat="42.433952" lon="-6.54042">
        <ele>1027.75</ele>
        <time>2021-03-27T17:48:59Z</time>
      </trkpt>
      <trkpt lat="42.434147" lon="-6.541086">
        <ele>1016.89</ele>
        <time>2021-03-27T17:49:00Z</time>
      </trkpt>
      <trkpt lat="42.43417" lon="-6.541198">
        <ele>1013.6</ele>
        <time>2021-03-27T17:49:02Z</time>
      </trkpt>
      <trkpt lat="42.43419" lon="-6.541493">
        <ele>1007.59</ele>
        <time>2021-03-27T17:49:03Z</time>
      </trkpt>
      <trkpt lat="42.434264" lon="-6.54182">
        <ele>1006.75</ele>
        <time>2021-03-27T17:49:04Z</time>
      </trkpt>
      <trkpt lat="42.434207" lon="-6.542289">
        <ele>1002.19</ele>
        <time>2021-03-27T17:49:06Z</time>
      </trkpt>
      <trkpt lat="42.434216" lon="-6.542634">
        <ele>996.22</ele>
        <time>2021-03-27T17:49:07Z</time>
      </trkpt>
      <trkpt lat="42.43434" lon="-6.543238">
        <ele>993.17</ele>
        <time>2021-03-27T17:49:08Z</time>
      </trkpt>
      <trkpt lat="42.434366" lon="-6.543465">
        <ele>989.87</ele>
        <time>2021-03-27T17:49:10Z</time>
      </trkpt>
      <trkpt lat="42.434368" lon="-6.543853">
        <ele>981.73</ele>
        <time>2021-03-27T17:49:11Z</time>
      </trkpt>
      <trkpt lat="42.434387" lon="-6.543991">
        <ele>979.5</ele>
        <time>2021-03-27T17:49:13Z</time>
      </trkpt>
      <trkpt lat="42.434456" lon="-6.544305">
        <ele>974.02</ele>
        <time>2021-03-27T17:49:14Z</time>
      </trkpt>
      <trkpt lat="42.434508" lon="-6.544458">
        <ele>971.91</ele>
        <time>2021-03-27T17:49:15Z</time>
      </trkpt>
      <trkpt lat="42.434601" lon="-6.544595">
        <ele>973.96</ele>
        <time>2021-03-27T17:49:17Z</time>
      </trkpt>
      <trkpt lat="42.434767" lon="-6.544691">
        <ele>980.35</ele>
        <time>2021-03-27T17:49:18Z</time>
      </trkpt>
      <trkpt lat="42.434793" lon="-6.544732">
        <ele>980.72</ele>
        <time>2021-03-27T17:49:19Z</time>
      </trkpt>
      <trkpt lat="42.434803" lon="-6.544796">
        <ele>980.47</ele>
        <time>2021-03-27T17:49:21Z</time>
      </trkpt>
      <trkpt lat="42.434593" lon="-6.54522">
        <ele>963.87</ele>
        <time>2021-03-27T17:49:22Z</time>
      </trkpt>
      <trkpt lat="42.434581" lon="-6.545356">
        <ele>961.28</ele>
        <time>2021-03-27T17:49:24Z</time>
      </trkpt>
      <trkpt lat="42.434589" lon="-6.545487">
        <ele>959.79</ele>
        <time>2021-03-27T17:49:25Z</time>
      </trkpt>
      <trkpt lat="42.43481" lon="-6.546429">
        <ele>944.14</ele>
        <time>2021-03-27T17:49:26Z</time>
      </trkpt>
      <trkpt lat="42.434847" lon="-6.546529">
        <ele>943.54</ele>
        <time>2021-03-27T17:49:28Z</time>
      </trkpt>
      <trkpt lat="42.435023" lon="-6.546704">
        <ele>948.18</ele>
        <time>2021-03-27T17:49:29Z</time>
      </trkpt>
      <trkpt lat="42.435038" lon="-6.546805">
        <ele>945.69</ele>
        <time>2021-03-27T17:49:30Z</time>
      </trkpt>
      <trkpt lat="42.435011" lon="-6.546841">
        <ele>942.97</ele>
        <time>2021-03-27T17:49:32Z</time>
      </trkpt>
      <trkpt lat="42.434963" lon="-6.546846">
        <ele>940.23</ele>
        <time>2021-03-27T17:49:33Z</time>
      </trkpt>
      <trkpt lat="42.434773" lon="-6.546747">
        <ele>932.83</ele>
        <time>2021-03-27T17:49:34Z</time>
      </trkpt>
      <trkpt lat="42.434726" lon="-6.546688">
        <ele>931.68</ele>
        <time>2021-03-27T17:49:36Z</time>
      </trkpt>
      <trkpt lat="42.434639" lon="-6.54643">
        <ele>935.45</ele>
        <time>2021-03-27T17:49:37Z</time>
      </trkpt>
      <trkpt lat="42.434482" lon="-6.546155">
        <ele>937.46</ele>
        <time>2021-03-27T17:49:39Z</time>
      </trkpt>
      <trkpt lat="42.434206" lon="-6.545846">
        <ele>937.02</ele>
        <time>2021-03-27T17:49:40Z</time>
      </trkpt>
      <trkpt lat="42.433985" lon="-6.545523">
        <ele>938.61</ele>
        <time>2021-03-27T17:49:41Z</time>
      </trkpt>
      <trkpt lat="42.433926" lon="-6.545517">
        <ele>938.09</ele>
        <time>2021-03-27T17:49:43Z</time>
      </trkpt>
      <trkpt lat="42.433895" lon="-6.545573">
        <ele>936.93</ele>
        <time>2021-03-27T17:49:44Z</time>
      </trkpt>
      <trkpt lat="42.433895" lon="-6.545675">
        <ele>936.19</ele>
        <time>2021-03-27T17:49:45Z</time>
      </trkpt>
      <trkpt lat="42.433953" lon="-6.54584">
        <ele>935.28</ele>
        <time>2021-03-27T17:49:47Z</time>
      </trkpt>
      <trkpt lat="42.433988" lon="-6.545898">
        <ele>935.54</ele>
        <time>2021-03-27T17:49:48Z</time>
      </trkpt>
      <trkpt lat="42.434224" lon="-6.546203">
        <ele>932.02</ele>
        <time>2021-03-27T17:49:50Z</time>
      </trkpt>
      <trkpt lat="42.434277" lon="-6.546327">
        <ele>931.69</ele>
        <time>2021-03-27T17:49:51Z</time>
      </trkpt>
      <trkpt lat="42.434525" lon="-6.547078">
        <ele>928.83</ele>
        <time>2021-03-27T17:49:52Z</time>
      </trkpt>
      <trkpt lat="42.434663" lon="-6.547246">
        <ele>927.07</ele>
        <time>2021-03-27T17:49:54Z</time>
      </trkpt>
      <trkpt lat="42.435115" lon="-6.54767">
        <ele>927.01</ele>
        <time>2021-03-27T17:49:55Z</time>
      </trkpt>
      <trkpt lat="42.435189" lon="-6.547868">
        <ele>924.96</ele>
        <time>2021-03-27T17:49:56Z</time>
      </trkpt>
      <trkpt lat="42.435391" lon="-6.548659">
        <ele>920.25</ele>
        <time>2021-03-27T17:49:58Z</time>
      </trkpt>
      <trkpt lat="42.435508" lon="-6.548904">
        <ele>919.15</ele>
        <time>2021-03-27T17:49:59Z</time>
      </trkpt>
      <trkpt lat="42.435922" lon="-6.549383">
        <ele>916.52</ele>
        <time>2021-03-27T17:50:01Z</time>
      </trkpt>
      <trkpt lat="42.436238" lon="-6.549837">
        <ele>914.05</ele>
        <time>2021-03-27T17:50:02Z</time>
      </trkpt>
      <trkpt lat="42.436457" lon="-6.550227">
        <ele>916.67</ele>
        <time>2021-03-27T17:50:03Z</time>
      </trkpt>
      <trkpt lat="42.436774" lon="-6.550653">
        <ele>916.41</ele>
        <time>2021-03-27T17:50:05Z</time>
      </trkpt>
      <trkpt lat="42.436909" lon="-6.550789">
        <ele>917.57</ele>
        <time>2021-03-27T17:50:06Z</time>
      </trkpt>
      <trkpt lat="42.437283" lon="-6.551059">
        <ele>914.59</ele>
        <time>2021-03-27T17:50:07Z</time>
      </trkpt>
      <trkpt lat="42.437475" lon="-6.551295">
        <ele>914.03</ele>
        <time>2021-03-27T17:50:09Z</time>
      </trkpt>
      <trkpt lat="42.437647" lon="-6.551547">
        <ele>915.49</ele>
        <time>2021-03-27T17:50:10Z</time>
      </trkpt>
      <trkpt lat="42.437768" lon="-6.551772">
        <ele>916.22</ele>
        <time>2021-03-27T17:50:11Z</time>
      </trkpt>
      <trkpt lat="42.437846" lon="-6.552038">
        <ele>917.87</ele>
        <time>2021-03-27T17:50:13Z</time>
      </trkpt>
      <trkpt lat="42.437843" lon="-6.552327">
        <ele>922.23</ele>
        <time>2021-03-27T17:50:14Z</time>
      </trkpt>
      <trkpt lat="42.437664" lon="-6.552799">
        <ele>936.52</ele>
        <time>2021-03-27T17:50:16Z</time>
      </trkpt>
      <trkpt lat="42.437631" lon="-6.552946">
        <ele>942.16</ele>
        <time>2021-03-27T17:50:17Z</time>
      </trkpt>
      <trkpt lat="42.437661" lon="-6.55302">
        <ele>943.15</ele>
        <time>2021-03-27T17:50:18Z</time>
      </trkpt>
      <trkpt lat="42.437725" lon="-6.553035">
        <ele>941.27</ele>
        <time>2021-03-27T17:50:20Z</time>
      </trkpt>
      <trkpt lat="42.437809" lon="-6.55295">
        <ele>936.51</ele>
        <time>2021-03-27T17:50:21Z</time>
      </trkpt>
      <trkpt lat="42.438144" lon="-6.552732">
        <ele>929.7</ele>
        <time>2021-03-27T17:50:22Z</time>
      </trkpt>
      <trkpt lat="42.438316" lon="-6.552565">
        <ele>926.59</ele>
        <time>2021-03-27T17:50:24Z</time>
      </trkpt>
      <trkpt lat="42.438396" lon="-6.552463">
        <ele>922.42</ele>
        <time>2021-03-27T17:50:25Z</time>
      </trkpt>
      <trkpt lat="42.43851" lon="-6.552445">
        <ele>921.82</ele>
        <time>2021-03-27T17:50:27Z</time>
      </trkpt>
      <trkpt lat="42.438878" lon="-6.55265">
        <ele>922.85</ele>
        <time>2021-03-27T17:50:28Z</time>
      </trkpt>
      <trkpt lat="42.438922" lon="-6.552724">
        <ele>924.32</ele>
        <time>2021-03-27T17:50:29Z</time>
      </trkpt>
      <trkpt lat="42.438991" lon="-6.552933">
        <ele>927.29</ele>
        <time>2021-03-27T17:50:31Z</time>
      </trkpt>
      <trkpt lat="42.439195" lon="-6.553429">
        <ele>932.72</ele>
        <time>2021-03-27T17:50:32Z</time>
      </trkpt>
      <trkpt lat="42.439227" lon="-6.553469">
        <ele>934.17</ele>
        <time>2021-03-27T17:50:33Z</time>
      </trkpt>
      <trkpt lat="42.439296" lon="-6.553482">
        <ele>934.39</ele>
        <time>2021-03-27T17:50:35Z</time>
      </trkpt>
      <trkpt lat="42.439343" lon="-6.553448">
        <ele>933.02</ele>
        <time>2021-03-27T17:50:36Z</time>
      </trkpt>
      <trkpt lat="42.439481" lon="-6.5532">
        <ele>927.0</ele>
        <time>2021-03-27T17:50:38Z</time>
      </trkpt>
      <trkpt lat="42.439527" lon="-6.553072">
        <ele>924.9</ele>
        <time>2021-03-27T17:50:39Z</time>
      </trkpt>
      <trkpt lat="42.43958" lon="-6.55278">
        <ele>917.53</ele>
        <time>2021-03-27T17:50:40Z</time>
      </trkpt>
      <trkpt lat="42.43963" lon="-6.552692">
        <ele>915.11</ele>
        <time>2021-03-27T17:50:42Z</time>
      </trkpt>
      <trkpt lat="42.439796" lon="-6.552687">
        <ele>917.3</ele>
        <time>2021-03-27T17:50:43Z</time>
      </trkpt>
      <trkpt lat="42.439853" lon="-6.552715">
        <ele>919.38</ele>
        <time>2021-03-27T17:50:44Z</time>
      </trkpt>
      <trkpt lat="42.439952" lon="-6.552807">
        <ele>925.09</ele>
        <time>2021-03-27T17:50:46Z</time>
      </trkpt>
      <trkpt lat="42.440155" lon="-6.55289">
        <ele>934.0</ele>
        <time>2021-03-27T17:50:47Z</time>
      </trkpt>
      <trkpt lat="42.440304" lon="-6.552875">
        <ele>937.71</ele>
        <time>2021-03-27T17:50:49Z</time>
      </trkpt>
      <trkpt lat="42.440451" lon="-6.552488">
        <ele>923.82</ele>
        <time>2021-03-27T17:50:50Z</time>
      </trkpt>
      <trkpt lat="42.440503" lon="-6.552426">
        <ele>922.43</ele>
        <time>2021-03-27T17:50:51Z</time>
      </trkpt>
      <trkpt lat="42.440654" lon="-6.552383">
        <ele>923.49</ele>
        <time>2021-03-27T17:50:53Z</time>
      </trkpt>
      <trkpt lat="42.440821" lon="-6.552381">
        <ele>925.97</ele>
        <time>2021-03-27T17:50:54Z</time>
      </trkpt>
      <trkpt lat="42.440996" lon="-6.552349">
        <ele>926.65</ele>
        <time>2021-03-27T17:50:55Z</time>
      </trkpt>
      <trkpt lat="42.441153" lon="-6.552198">
        <ele>920.68</ele>
        <time>2021-03-27T17:50:57Z</time>
      </trkpt>
      <trkpt lat="42.441267" lon="-6.552143">
        <ele>920.69</ele>
        <time>2021-03-27T17:50:58Z</time>
      </trkpt>
      <trkpt lat="42.441402" lon="-6.552138">
        <ele>923.39</ele>
        <time>2021-03-27T17:50:59Z</time>
      </trkpt>
      <trkpt lat="42.441467" lon="-6.552053">
        <ele>920.03</ele>
        <time>2021-03-27T17:51:01Z</time>
      </trkpt>
      <trkpt lat="42.441551" lon="-6.552">
        <ele>918.33</ele>
        <time>2021-03-27T17:51:02Z</time>
      </trkpt>
      <trkpt lat="42.441584" lon="-6.552011">
        <ele>918.93</ele>
        <time>2021-03-27T17:51:04Z</time>
      </trkpt>
      <trkpt lat="42.441802" lon="-6.552192">
        <ele>925.87</ele>
        <time>2021-03-27T17:51:05Z</time>
      </trkpt>
      <trkpt lat="42.441912" lon="-6.552253">
        <ele>928.58</ele>
        <time>2021-03-27T17:51:06Z</time>
      </trkpt>
      <trkpt lat="42.442277" lon="-6.552357">
        <ele>927.85</ele>
        <time>2021-03-27T17:51:08Z</time>
      </trkpt>
      <trkpt lat="42.442634" lon="-6.552363">
        <ele>922.62</ele>
        <time>2021-03-27T17:51:09Z</time>
      </trkpt>
      <trkpt lat="42.442898" lon="-6.552273">
        <ele>916.21</ele>
        <time>2021-03-27T17:51:10Z</time>
      </trkpt>
      <trkpt lat="42.442993" lon="-6.552272">
        <ele>915.4</ele>
        <time>2021-03-27T17:51:12Z</time>
      </trkpt>
      <trkpt lat="42.443016" lon="-6.552293">
        <ele>915.68</ele>
        <time>2021-03-27T17:51:13Z</time>
      </trkpt>
      <trkpt lat="42.443039" lon="-6.55236">
        <ele>916.75</ele>
        <time>2021-03-27T17:51:15Z</time>
      </trkpt>
      <trkpt lat="42.443042" lon="-6.552684">
        <ele>920.86</ele>
        <time>2021-03-27T17:51:16Z</time>
      </trkpt>
      <trkpt lat="42.442989" lon="-6.553312">
        <ele>926.6</ele>
        <time>2021-03-27T17:51:17Z</time>
      </trkpt>
      <trkpt lat="42.443002" lon="-6.553608">
        <ele>931.0</ele>
        <time>2021-03-27T17:51:19Z</time>
      </trkpt>
      <trkpt lat="42.443029" lon="-6.553719">
        <ele>931.36</ele>
        <time>2021-03-27T17:51:20Z</time>
      </trkpt>
      <trkpt lat="42.443102" lon="-6.553882">
        <ele>929.84</ele>
        <time>2021-03-27T17:51:21Z</time>
      </trkpt>
      <trkpt lat="42.443469" lon="-6.554412">
        <ele>924.69</ele>
        <time>2021-03-27T17:51:23Z</time>
      </trkpt>
      <trkpt lat="42.44375" lon="-6.555061">
        <ele>918.19</ele>
        <time>2021-03-27T17:51:24Z</time>
      </trkpt>
      <trkpt lat="42.443901" lon="-6.555316">
        <ele>909.26</ele>
        <time>2021-03-27T17:51:26Z</time>
      </trkpt>
      <trkpt lat="42.44393" lon="-6.555421">
        <ele>907.55</ele>
        <time>2021-03-27T17:51:27Z</time>
      </trkpt>
      <trkpt lat="42.443909" lon="-6.55554">
        <ele>908.16</ele>
        <time>2021-03-27T17:51:28Z</time>
      </trkpt>
      <trkpt lat="42.443593" lon="-6.555984">
        <ele>918.86</ele>
        <time>2021-03-27T17:51:30Z</time>
      </trkpt>
      <trkpt lat="42.443504" lon="-6.556269">
        <ele>920.65</ele>
        <time>2021-03-27T17:51:31Z</time>
      </trkpt>
      <trkpt lat="42.443413" lon="-6.556409">
        <ele>923.55</ele>
        <time>2021-03-27T17:51:32Z</time>
      </trkpt>
      <trkpt lat="42.443236" lon="-6.556521">
        <ele>931.2</ele>
        <time>2021-03-27T17:51:34Z</time>
      </trkpt>
      <trkpt lat="42.443187" lon="-6.556596">
        <ele>933.32</ele>
        <time>2021-03-27T17:51:35Z</time>
      </trkpt>
      <trkpt lat="42.443163" lon="-6.556698">
        <ele>934.85</ele>
        <time>2021-03-27T17:51:36Z</time>
      </trkpt>
      <trkpt lat="42.443173" lon="-6.556796">
        <ele>936.0</ele>
        <time>2021-03-27T17:51:38Z</time>
      </trkpt>
      <trkpt lat="42.44322" lon="-6.556876">
        <ele>935.37</ele>
        <time>2021-03-27T17:51:39Z</time>
      </trkpt>
      <trkpt lat="42.443285" lon="-6.556942">
        <ele>933.88</ele>
        <time>2021-03-27T17:51:41Z</time>
      </trkpt>
      <trkpt lat="42.443395" lon="-6.55701">
        <ele>931.0</ele>
        <time>2021-03-27T17:51:42Z</time>
      </trkpt>
      <trkpt lat="42.443643" lon="-6.557026">
        <ele>920.65</ele>
        <time>2021-03-27T17:51:43Z</time>
      </trkpt>
      <trkpt lat="42.443688" lon="-6.557057">
        <ele>919.45</ele>
        <time>2021-03-27T17:51:45Z</time>
      </trkpt>
      <trkpt lat="42.443677" lon="-6.557303">
        <ele>926.28</ele>
        <time>2021-03-27T17:51:46Z</time>
      </trkpt>
      <trkpt lat="42.443692" lon="-6.557511">
        <ele>930.62</ele>
        <time>2021-03-27T17:51:47Z</time>
      </trkpt>
      <trkpt lat="42.443727" lon="-6.557718">
        <ele>934.16</ele>
        <time>2021-03-27T17:51:49Z</time>
      </trkpt>
      <trkpt lat="42.443763" lon="-6.557783">
        <ele>934.87</ele>
        <time>2021-03-27T17:51:50Z</time>
      </trkpt>
      <trkpt lat="42.443803" lon="-6.557816">
        <ele>935.02</ele>
        <time>2021-03-27T17:51:52Z</time>
      </trkpt>
      <trkpt lat="42.443877" lon="-6.557809">
        <ele>933.25</ele>
        <time>2021-03-27T17:51:53Z</time>
      </trkpt>
      <trkpt lat="42.443913" lon="-6.557786">
        <ele>932.54</ele>
        <time>2021-03-27T17:51:54Z</time>
      </trkpt>
      <trkpt lat="42.444081" lon="-6.557557">
        <ele>927.16</ele>
        <time>2021-03-27T17:51:56Z</time>
      </trkpt>
      <trkpt lat="42.444148" lon="-6.557511">
        <ele>926.23</ele>
        <time>2021-03-27T17:51:57Z</time>
      </trkpt>
      <trkpt lat="42.444378" lon="-6.557428">
        <ele>925.44</ele>
        <time>2021-03-27T17:51:58Z</time>
      </trkpt>
      <trkpt lat="42.444668" lon="-6.557186">
        <ele>918.59</ele>
        <time>2021-03-27T17:52:00Z</time>
      </trkpt>
      <trkpt lat="42.44487" lon="-6.557162">
        <ele>919.9</ele>
        <time>2021-03-27T17:52:01Z</time>
      </trkpt>
      <trkpt lat="42.444989" lon="-6.557101">
        <ele>918.96</ele>
        <time>2021-03-27T17:52:03Z</time>
      </trkpt>
      <trkpt lat="42.44505" lon="-6.557092">
        <ele>917.98</ele>
        <time>2021-03-27T17:52:04Z</time>
      </trkpt>
      <trkpt lat="42.445444" lon="-6.557259">
        <ele>918.22</ele>
        <time>2021-03-27T17:52:05Z</time>
      </trkpt>
      <trkpt lat="42.445644" lon="-6.557305">
        <ele>919.19</ele>
        <time>2021-03-27T17:52:07Z</time>
      </trkpt>
      <trkpt lat="42.445837" lon="-6.557425">
        <ele>926.89</ele>
        <time>2021-03-27T17:52:08Z</time>
      </trkpt>
      <trkpt lat="42.446239" lon="-6.557459">
        <ele>919.66</ele>
        <time>2021-03-27T17:52:09Z</time>
      </trkpt>
      <trkpt lat="42.446477" lon="-6.557567">
        <ele>914.22</ele>
        <time>2021-03-27T17:52:11Z</time>
      </trkpt>
      <trkpt lat="42.446589" lon="-6.557657">
        <ele>911.65</ele>
        <time>2021-03-27T17:52:12Z</time>
      </trkpt>
      <trkpt lat="42.446979" lon="-6.55774">
        <ele>900.79</ele>
        <time>2021-03-27T17:52:14Z</time>
      </trkpt>
      <trkpt lat="42.447119" lon="-6.557725">
        <ele>898.33</ele>
        <time>2021-03-27T17:52:15Z</time>
      </trkpt>
      <trkpt lat="42.447171" lon="-6.557702">
        <ele>896.57</ele>
        <time>2021-03-27T17:52:16Z</time>
      </trkpt>
      <trkpt lat="42.447271" lon="-6.557587">
        <ele>891.17</ele>
        <time>2021-03-27T17:52:18Z</time>
      </trkpt>
      <trkpt lat="42.447311" lon="-6.557566">
        <ele>890.78</ele>
        <time>2021-03-27T17:52:19Z</time>
      </trkpt>
      <trkpt lat="42.447494" lon="-6.557566">
        <ele>893.77</ele>
        <time>2021-03-27T17:52:20Z</time>
      </trkpt>
      <trkpt lat="42.447787" lon="-6.557484">
        <ele>904.62</ele>
        <time>2021-03-27T17:52:22Z</time>
      </trkpt>
      <trkpt lat="42.447847" lon="-6.557411">
        <ele>904.37</ele>
        <time>2021-03-27T17:52:23Z</time>
      </trkpt>
      <trkpt lat="42.44784" lon="-6.557314">
        <ele>899.27</ele>
        <time>2021-03-27T17:52:24Z</time>
      </trkpt>
      <trkpt lat="42.447806" lon="-6.557295">
        <ele>895.94</ele>
        <time>2021-03-27T17:52:26Z</time>
      </trkpt>
      <trkpt lat="42.447526" lon="-6.55739">
        <ele>888.54</ele>
        <time>2021-03-27T17:52:27Z</time>
      </trkpt>
      <trkpt lat="42.447398" lon="-6.557403">
        <ele>886.03</ele>
        <time>2021-03-27T17:52:29Z</time>
      </trkpt>
      <trkpt lat="42.447237" lon="-6.557372">
        <ele>882.12</ele>
        <time>2021-03-27T17:52:30Z</time>
      </trkpt>
      <trkpt lat="42.447064" lon="-6.557424">
        <ele>881.99</ele>
        <time>2021-03-27T17:52:31Z</time>
      </trkpt>
      <trkpt lat="42.446997" lon="-6.557427">
        <ele>881.41</ele>
        <time>2021-03-27T17:52:33Z</time>
      </trkpt>
      <trkpt lat="42.446796" lon="-6.557359">
        <ele>883.2</ele>
        <time>2021-03-27T17:52:34Z</time>
      </trkpt>
      <trkpt lat="42.446358" lon="-6.55707">
        <ele>885.66</ele>
        <time>2021-03-27T17:52:35Z</time>
      </trkpt>
      <trkpt lat="42.446205" lon="-6.55692">
        <ele>881.76</ele>
        <time>2021-03-27T17:52:37Z</time>
      </trkpt>
      <trkpt lat="42.446009" lon="-6.556799">
        <ele>879.44</ele>
        <time>2021-03-27T17:52:38Z</time>
      </trkpt>
      <trkpt lat="42.445931" lon="-6.556728">
        <ele>876.58</ele>
        <time>2021-03-27T17:52:40Z</time>
      </trkpt>
      <trkpt lat="42.445634" lon="-6.556413">
        <ele>867.31</ele>
        <time>2021-03-27T17:52:41Z</time>
      </trkpt>
      <trkpt lat="42.445468" lon="-6.556099">
        <ele>854.93</ele>
        <time>2021-03-27T17:52:42Z</time>
      </trkpt>
      <trkpt lat="42.445355" lon="-6.555949">
        <ele>851.43</ele>
        <time>2021-03-27T17:52:44Z</time>
      </trkpt>
      <trkpt lat="42.445231" lon="-6.555829">
        <ele>847.38</ele>
        <time>2021-03-27T17:52:45Z</time>
      </trkpt>
      <trkpt lat="42.445174" lon="-6.555811">
        <ele>847.53</ele>
        <time>2021-03-27T17:52:46Z</time>
      </trkpt>
      <trkpt lat="42.445049" lon="-6.555818">
        <ele>849.16</ele>
        <time>2021-03-27T17:52:48Z</time>
      </trkpt>
      <trkpt lat="42.444793" lon="-6.555913">
        <ele>860.9</ele>
        <time>2021-03-27T17:52:49Z</time>
      </trkpt>
      <trkpt lat="42.444745" lon="-6.555876">
        <ele>860.91</ele>
        <time>2021-03-27T17:52:51Z</time>
      </trkpt>
      <trkpt lat="42.444752" lon="-6.555803">
        <ele>858.48</ele>
        <time>2021-03-27T17:52:52Z</time>
      </trkpt>
      <trkpt lat="42.444832" lon="-6.555751">
        <ele>854.74</ele>
        <time>2021-03-27T17:52:53Z</time>
      </trkpt>
      <trkpt lat="42.444976" lon="-6.555732">
        <ele>849.07</ele>
        <time>2021-03-27T17:52:55Z</time>
      </trkpt>
      <trkpt lat="42.445168" lon="-6.555646">
        <ele>843.17</ele>
        <time>2021-03-27T17:52:56Z</time>
      </trkpt>
      <trkpt lat="42.445228" lon="-6.555649">
        <ele>842.04</ele>
        <time>2021-03-27T17:52:57Z</time>
      </trkpt>
      <trkpt lat="42.445607" lon="-6.555835">
        <ele>839.58</ele>
        <time>2021-03-27T17:52:59Z</time>
      </trkpt>
      <trkpt lat="42.445804" lon="-6.556059">
        <ele>841.31</ele>
        <time>2021-03-27T17:53:00Z</time>
      </trkpt>
      <trkpt lat="42.446049" lon="-6.55623">
        <ele>840.99</ele>
        <time>2021-03-27T17:53:01Z</time>
      </trkpt>
      <trkpt lat="42.446475" lon="-6.556397">
        <ele>834.22</ele>
        <time>2021-03-27T17:53:03Z</time>
      </trkpt>
      <trkpt lat="42.446851" lon="-6.556442">
        <ele>831.15</ele>
        <time>2021-03-27T17:53:04Z</time>
      </trkpt>
      <trkpt lat="42.44695" lon="-6.556426">
        <ele>829.91</ele>
        <time>2021-03-27T17:53:06Z</time>
      </trkpt>
      <trkpt lat="42.447154" lon="-6.556352">
        <ele>829.03</ele>
        <time>2021-03-27T17:53:07Z</time>
      </trkpt>
      <trkpt lat="42.447192" lon="-6.556317">
        <ele>827.92</ele>
        <time>2021-03-27T17:53:08Z</time>
      </trkpt>
      <trkpt lat="42.447291" lon="-6.556164">
        <ele>823.07</ele>
        <time>2021-03-27T17:53:10Z</time>
      </trkpt>
      <trkpt lat="42.447406" lon="-6.556097">
        <ele>824.22</ele>
        <time>2021-03-27T17:53:11Z</time>
      </trkpt>
      <trkpt lat="42.447612" lon="-6.556014">
        <ele>828.71</ele>
        <time>2021-03-27T17:53:12Z</time>
      </trkpt>
      <trkpt lat="42.447817" lon="-6.555823">
        <ele>827.13</ele>
        <time>2021-03-27T17:53:14Z</time>
      </trkpt>
      <trkpt lat="42.447971" lon="-6.555616">
        <ele>823.43</ele>
        <time>2021-03-27T17:53:15Z</time>
      </trkpt>
      <trkpt lat="42.448019" lon="-6.555517">
        <ele>820.54</ele>
        <time>2021-03-27T17:53:17Z</time>
      </trkpt>
      <trkpt lat="42.448097" lon="-6.55522">
        <ele>812.11</ele>
        <time>2021-03-27T17:53:18Z</time>
      </trkpt>
      <trkpt lat="42.44817" lon="-6.555195">
        <ele>813.56</ele>
        <time>2021-03-27T17:53:19Z</time>
      </trkpt>
      <trkpt lat="42.448272" lon="-6.555204">
        <ele>816.5</ele>
        <time>2021-03-27T17:53:21Z</time>
      </trkpt>
      <trkpt lat="42.448372" lon="-6.555174">
        <ele>817.72</ele>
        <time>2021-03-27T17:53:22Z</time>
      </trkpt>
      <trkpt lat="42.448691" lon="-6.555046">
        <ele>813.75</ele>
        <time>2021-03-27T17:53:23Z</time>
      </trkpt>
      <trkpt lat="42.448915" lon="-6.554919">
        <ele>807.18</ele>
        <time>2021-03-27T17:53:25Z</time>
      </trkpt>
      <trkpt lat="42.448979" lon="-6.554907">
        <ele>805.38</ele>
        <time>2021-03-27T17:53:26Z</time>
      </trkpt>
      <trkpt lat="42.449124" lon="-6.554956">
        <ele>802.9</ele>
        <time>2021-03-27T17:53:28Z</time>
      </trkpt>
      <trkpt lat="42.449266" lon="-6.555085">
        <ele>805.49</ele>
        <time>2021-03-27T17:53:29Z</time>
      </trkpt>
      <trkpt lat="42.449313" lon="-6.555106">
        <ele>805.8</ele>
        <time>2021-03-27T17:53:30Z</time>
      </trkpt>
      <trkpt lat="42.449403" lon="-6.555125">
        <ele>805.46</ele>
        <time>2021-03-27T17:53:32Z</time>
      </trkpt>
      <trkpt lat="42.449901" lon="-6.555137">
        <ele>800.34</ele>
        <time>2021-03-27T17:53:33Z</time>
      </trkpt>
      <trkpt lat="42.450215" lon="-6.555204">
        <ele>799.03</ele>
        <time>2021-03-27T17:53:34Z</time>
      </trkpt>
      <trkpt lat="42.450383" lon="-6.555179">
        <ele>797.86</ele>
        <time>2021-03-27T17:53:36Z</time>
      </trkpt>
      <trkpt lat="42.450517" lon="-6.555098">
        <ele>796.12</ele>
        <time>2021-03-27T17:53:37Z</time>
      </trkpt>
      <trkpt lat="42.450733" lon="-6.554913">
        <ele>795.58</ele>
        <time>2021-03-27T17:53:39Z</time>
      </trkpt>
      <trkpt lat="42.450784" lon="-6.554899">
        <ele>795.91</ele>
        <time>2021-03-27T17:53:40Z</time>
      </trkpt>
      <trkpt lat="42.450878" lon="-6.554911">
        <ele>795.58</ele>
        <time>2021-03-27T17:53:41Z</time>
      </trkpt>
      <trkpt lat="42.451265" lon="-6.555158">
        <ele>787.85</ele>
        <time>2021-03-27T17:53:43Z</time>
      </trkpt>
      <trkpt lat="42.451475" lon="-6.555249">
        <ele>784.37</ele>
        <time>2021-03-27T17:53:44Z</time>
      </trkpt>
      <trkpt lat="42.451577" lon="-6.555355">
        <ele>782.49</ele>
        <time>2021-03-27T17:53:45Z</time>
      </trkpt>
      <trkpt lat="42.451709" lon="-6.555715">
        <ele>779.86</ele>
        <time>2021-03-27T17:53:47Z</time>
      </trkpt>
      <trkpt lat="42.451787" lon="-6.555856">
        <ele>779.34</ele>
        <time>2021-03-27T17:53:48Z</time>
      </trkpt>
      <trkpt lat="42.451876" lon="-6.555914">
        <ele>778.43</ele>
        <time>2021-03-27T17:53:49Z</time>
      </trkpt>
      <trkpt lat="42.452093" lon="-6.555955">
        <ele>778.11</ele>
        <time>2021-03-27T17:53:51Z</time>
      </trkpt>
      <trkpt lat="42.452205" lon="-6.555949">
        <ele>778.23</ele>
        <time>2021-03-27T17:53:52Z</time>
      </trkpt>
      <trkpt lat="42.452447" lon="-6.556026">
        <ele>778.39</ele>
        <time>2021-03-27T17:53:54Z</time>
      </trkpt>
      <trkpt lat="42.452839" lon="-6.556266">
        <ele>780.78</ele>
        <time>2021-03-27T17:53:55Z</time>
      </trkpt>
      <trkpt lat="42.452944" lon="-6.556309">
        <ele>781.31</ele>
        <time>2021-03-27T17:53:56Z</time>
      </trkpt>
      <trkpt lat="42.453065" lon="-6.556306">
        <ele>781.85</ele>
        <time>2021-03-27T17:53:58Z</time>
      </trkpt>
      <trkpt lat="42.453131" lon="-6.556268">
        <ele>782.6</ele>
        <time>2021-03-27T17:53:59Z</time>
      </trkpt>
      <trkpt lat="42.453262" lon="-6.556238">
        <ele>783.9</ele>
        <time>2021-03-27T17:54:00Z</time>
      </trkpt>
      <trkpt lat="42.453365" lon="-6.55599">
        <ele>783.16</ele>
        <time>2021-03-27T17:54:02Z</time>
      </trkpt>
      <trkpt lat="42.453445" lon="-6.555872">
        <ele>784.4</ele>
        <time>2021-03-27T17:54:03Z</time>
      </trkpt>
      <trkpt lat="42.453514" lon="-6.55579">
        <ele>785.33</ele>
        <time>2021-03-27T17:54:05Z</time>
      </trkpt>
      <trkpt lat="42.45365" lon="-6.555722">
        <ele>786.4</ele>
        <time>2021-03-27T17:54:06Z</time>
      </trkpt>
      <trkpt lat="42.453847" lon="-6.555644">
        <ele>785.48</ele>
        <time>2021-03-27T17:54:07Z</time>
      </trkpt>
      <trkpt lat="42.45394" lon="-6.555652">
        <ele>785.22</ele>
        <time>2021-03-27T17:54:09Z</time>
      </trkpt>
      <trkpt lat="42.454282" lon="-6.555529">
        <ele>779.43</ele>
        <time>2021-03-27T17:54:10Z</time>
      </trkpt>
      <trkpt lat="42.454315" lon="-6.555482">
        <ele>778.46</ele>
        <time>2021-03-27T17:54:11Z</time>
      </trkpt>
      <trkpt lat="42.454808" lon="-6.555471">
        <ele>774.11</ele>
        <time>2021-03-27T17:54:13Z</time>
      </trkpt>
      <trkpt lat="42.454978" lon="-6.55541">
        <ele>773.29</ele>
        <time>2021-03-27T17:54:14Z</time>
      </trkpt>
      <trkpt lat="42.45504" lon="-6.555332">
        <ele>772.17</ele>
        <time>2021-03-27T17:54:16Z</time>
      </trkpt>
      <trkpt lat="42.455227" lon="-6.55501">
        <ele>769.18</ele>
        <time>2021-03-27T17:54:17Z</time>
      </trkpt>
      <trkpt lat="42.455275" lon="-6.554958">
        <ele>768.85</ele>
        <time>2021-03-27T17:54:18Z</time>
      </trkpt>
      <trkpt lat="42.455317" lon="-6.554935">
        <ele>769.2</ele>
        <time>2021-03-27T17:54:20Z</time>
      </trkpt>
      <trkpt lat="42.455417" lon="-6.554927">
        <ele>770.21</ele>
        <time>2021-03-27T17:54:21Z</time>
      </trkpt>
      <trkpt lat="42.455751" lon="-6.554794">
        <ele>774.23</ele>
        <time>2021-03-27T17:54:22Z</time>
      </trkpt>
      <trkpt lat="42.455875" lon="-6.554619">
        <ele>774.23</ele>
        <time>2021-03-27T17:54:24Z</time>
      </trkpt>
      <trkpt lat="42.455906" lon="-6.554483">
        <ele>773.05</ele>
        <time>2021-03-27T17:54:25Z</time>
      </trkpt>
      <trkpt lat="42.455911" lon="-6.554374">
        <ele>771.65</ele>
        <time>2021-03-27T17:54:26Z</time>
      </trkpt>
      <trkpt lat="42.455864" lon="-6.554044">
        <ele>768.74</ele>
        <time>2021-03-27T17:54:28Z</time>
      </trkpt>
      <trkpt lat="42.455866" lon="-6.553971">
        <ele>768.93</ele>
        <time>2021-03-27T17:54:29Z</time>
      </trkpt>
      <trkpt lat="42.455904" lon="-6.553911">
        <ele>769.23</ele>
        <time>2021-03-27T17:54:31Z</time>
      </trkpt>
      <trkpt lat="42.455957" lon="-6.553865">
        <ele>769.72</ele>
        <time>2021-03-27T17:54:32Z</time>
      </trkpt>
      <trkpt lat="42.456138" lon="-6.55378">
        <ele>770.49</ele>
        <time>2021-03-27T17:54:33Z</time>
      </trkpt>
      <trkpt lat="42.45631" lon="-6.553766">
        <ele>771.01</ele>
        <time>2021-03-27T17:54:35Z</time>
      </trkpt>
      <trkpt lat="42.456512" lon="-6.553676">
        <ele>769.67</ele>
        <time>2021-03-27T17:54:36Z</time>
      </trkpt>
      <trkpt lat="42.456752" lon="-6.553627">
        <ele>767.61</ele>
        <time>2021-03-27T17:54:37Z</time>
      </trkpt>
      <trkpt lat="42.457091" lon="-6.55338">
        <ele>762.82</ele>
        <time>2021-03-27T17:54:39Z</time>
      </trkpt>
      <trkpt lat="42.457208" lon="-6.553339">
        <ele>763.87</ele>
        <time>2021-03-27T17:54:40Z</time>
      </trkpt>
      <trkpt lat="42.457263" lon="-6.553291">
        <ele>764.41</ele>
        <time>2021-03-27T17:54:42Z</time>
      </trkpt>
      <trkpt lat="42.457293" lon="-6.55324">
        <ele>764.18</ele>
        <time>2021-03-27T17:54:43Z</time>
      </trkpt>
      <trkpt lat="42.457299" lon="-6.553028">
        <ele>759.72</ele>
        <time>2021-03-27T17:54:44Z</time>
      </trkpt>
      <trkpt lat="42.457286" lon="-6.552924">
        <ele>759.19</ele>
        <time>2021-03-27T17:54:46Z</time>
      </trkpt>
      <trkpt lat="42.45722" lon="-6.552723">
        <ele>756.98</ele>
        <time>2021-03-27T17:54:47Z</time>
      </trkpt>
      <trkpt lat="42.457159" lon="-6.552442">
        <ele>756.06</ele>
        <time>2021-03-27T17:54:48Z</time>
      </trkpt>
      <trkpt lat="42.457159" lon="-6.552356">
        <ele>755.68</ele>
        <time>2021-03-27T17:54:50Z</time>
      </trkpt>
      <trkpt lat="42.457348" lon="-6.551717">
        <ele>757.43</ele>
        <time>2021-03-27T17:54:51Z</time>
      </trkpt>
      <trkpt lat="42.457416" lon="-6.551365">
        <ele>756.15</ele>
        <time>2021-03-27T17:54:53Z</time>
      </trkpt>
      <trkpt lat="42.457462" lon="-6.551263">
        <ele>754.78</ele>
        <time>2021-03-27T17:54:54Z</time>
      </trkpt>
      <trkpt lat="42.457991" lon="-6.550378">
        <ele>743.01</ele>
        <time>2021-03-27T17:54:55Z</time>
      </trkpt>
      <trkpt lat="42.458169" lon="-6.549928">
        <ele>743.25</ele>
        <time>2021-03-27T17:54:57Z</time>
      </trkpt>
      <trkpt lat="42.458232" lon="-6.549842">
        <ele>742.65</ele>
        <time>2021-03-27T17:54:58Z</time>
      </trkpt>
      <trkpt lat="42.458404" lon="-6.549679">
        <ele>742.1</ele>
        <time>2021-03-27T17:54:59Z</time>
      </trkpt>
      <trkpt lat="42.45888" lon="-6.549354">
        <ele>740.96</ele>
        <time>2021-03-27T17:55:01Z</time>
      </trkpt>
      <trkpt lat="42.459082" lon="-6.549099">
        <ele>741.66</ele>
        <time>2021-03-27T17:55:02Z</time>
      </trkpt>
      <trkpt lat="42.459348" lon="-6.548642">
        <ele>741.32</ele>
        <time>2021-03-27T17:55:04Z</time>
      </trkpt>
      <trkpt lat="42.459643" lon="-6.548336">
        <ele>739.51</ele>
        <time>2021-03-27T17:55:05Z</time>
      </trkpt>
      <trkpt lat="42.459834" lon="-6.548024">
        <ele>739.64</ele>
        <time>2021-03-27T17:55:06Z</time>
      </trkpt>
      <trkpt lat="42.459895" lon="-6.547885">
        <ele>738.39</ele>
        <time>2021-03-27T17:55:08Z</time>
      </trkpt>
      <trkpt lat="42.459917" lon="-6.547789">
        <ele>736.75</ele>
        <time>2021-03-27T17:55:09Z</time>
      </trkpt>
      <trkpt lat="42.459921" lon="-6.547506">
        <ele>733.78</ele>
        <time>2021-03-27T17:55:10Z</time>
      </trkpt>
      <trkpt lat="42.459956" lon="-6.54742">
        <ele>733.8</ele>
        <time>2021-03-27T17:55:12Z</time>
      </trkpt>
      <trkpt lat="42.460025" lon="-6.547377">
        <ele>734.3</ele>
        <time>2021-03-27T17:55:13Z</time>
      </trkpt>
      <trkpt lat="42.460266" lon="-6.547318">
        <ele>736.28</ele>
        <time>2021-03-27T17:55:14Z</time>
      </trkpt>
      <trkpt lat="42.460393" lon="-6.547254">
        <ele>738.19</ele>
        <time>2021-03-27T17:55:16Z</time>
      </trkpt>
      <trkpt lat="42.460499" lon="-6.547187">
        <ele>739.2</ele>
        <time>2021-03-27T17:55:17Z</time>
      </trkpt>
      <trkpt lat="42.4606" lon="-6.547083">
        <ele>740.77</ele>
        <time>2021-03-27T17:55:19Z</time>
      </trkpt>
      <trkpt lat="42.460769" lon="-6.546706">
        <ele>739.25</ele>
        <time>2021-03-27T17:55:20Z</time>
      </trkpt>
      <trkpt lat="42.460833" lon="-6.546377">
        <ele>732.71</ele>
        <time>2021-03-27T17:55:21Z</time>
      </trkpt>
      <trkpt lat="42.46086" lon="-6.546088">
        <ele>726.34</ele>
        <time>2021-03-27T17:55:23Z</time>
      </trkpt>
      <trkpt lat="42.460882" lon="-6.546047">
        <ele>726.4</ele>
        <time>2021-03-27T17:55:24Z</time>
      </trkpt>
      <trkpt lat="42.461129" lon="-6.54585">
        <ele>724.83</ele>
        <time>2021-03-27T17:55:25Z</time>
      </trkpt>
      <trkpt lat="42.461461" lon="-6.545465">
        <ele>728.27</ele>
        <time>2021-03-27T17:55:27Z</time>
      </trkpt>
      <trkpt lat="42.461655" lon="-6.545342">
        <ele>729.67</ele>
        <time>2021-03-27T17:55:28Z</time>
      </trkpt>
      <trkpt lat="42.461814" lon="-6.545271">
        <ele>730.61</ele>
        <time>2021-03-27T17:55:30Z</time>
      </trkpt>
      <trkpt lat="42.462036" lon="-6.545204">
        <ele>732.22</ele>
        <time>2021-03-27T17:55:31Z</time>
      </trkpt>
      <trkpt lat="42.462138" lon="-6.545212">
        <ele>732.83</ele>
        <time>2021-03-27T17:55:32Z</time>
      </trkpt>
      <trkpt lat="42.462366" lon="-6.545178">
        <ele>730.53</ele>
        <time>2021-03-27T17:55:34Z</time>
      </trkpt>
      <trkpt lat="42.46247" lon="-6.545209">
        <ele>729.02</ele>
        <time>2021-03-27T17:55:35Z</time>
      </trkpt>
      <trkpt lat="42.462694" lon="-6.545375">
        <ele>727.71</ele>
        <time>2021-03-27T17:55:36Z</time>
      </trkpt>
      <trkpt lat="42.463043" lon="-6.545751">
        <ele>727.02</ele>
        <time>2021-03-27T17:55:38Z</time>
      </trkpt>
      <trkpt lat="42.463511" lon="-6.546181">
        <ele>731.22</ele>
        <time>2021-03-27T17:55:39Z</time>
      </trkpt>
      <trkpt lat="42.463674" lon="-6.54629">
        <ele>732.9</ele>
        <time>2021-03-27T17:55:41Z</time>
      </trkpt>
      <trkpt lat="42.464236" lon="-6.546498">
        <ele>727.39</ele>
        <time>2021-03-27T17:55:42Z</time>
      </trkpt>
      <trkpt lat="42.464701" lon="-6.546823">
        <ele>725.79</ele>
        <time>2021-03-27T17:55:43Z</time>
      </trkpt>
      <trkpt lat="42.46491" lon="-6.547078">
        <ele>730.65</ele>
        <time>2021-03-27T17:55:45Z</time>
      </trkpt>
      <trkpt lat="42.46517" lon="-6.547126">
        <ele>728.12</ele>
        <time>2021-03-27T17:55:46Z</time>
      </trkpt>
      <trkpt lat="42.465392" lon="-6.547211">
        <ele>727.52</ele>
        <time>2021-03-27T17:55:47Z</time>
      </trkpt>
      <trkpt lat="42.465607" lon="-6.547353">
        <ele>727.43</ele>
        <time>2021-03-27T17:55:49Z</time>
      </trkpt>
      <trkpt lat="42.466029" lon="-6.547737">
        <ele>722.27</ele>
        <time>2021-03-27T17:55:50Z</time>
      </trkpt>
      <trkpt lat="42.466149" lon="-6.54796">
        <ele>719.85</ele>
        <time>2021-03-27T17:55:51Z</time>
      </trkpt>
      <trkpt lat="42.466294" lon="-6.548443">
        <ele>722.26</ele>
        <time>2021-03-27T17:55:53Z</time>
      </trkpt>
      <trkpt lat="42.466921" lon="-6.548922">
        <ele>719.59</ele>
        <time>2021-03-27T17:55:54Z</time>
      </trkpt>
      <trkpt lat="42.467091" lon="-6.548949">
        <ele>716.55</ele>
        <time>2021-03-27T17:55:56Z</time>
      </trkpt>
      <trkpt lat="42.467497" lon="-6.549164">
        <ele>712.02</ele>
        <time>2021-03-27T17:55:57Z</time>
      </trkpt>
      <trkpt lat="42.467577" lon="-6.549273">
        <ele>712.74</ele>
        <time>2021-03-27T17:55:58Z</time>
      </trkpt>
      <trkpt lat="42.467643" lon="-6.549402">
        <ele>714.32</ele>
        <time>2021-03-27T17:56:00Z</time>
      </trkpt>
      <trkpt lat="42.468088" lon="-6.549808">
        <ele>709.31</ele>
        <time>2021-03-27T17:56:01Z</time>
      </trkpt>
      <trkpt lat="42.46825" lon="-6.549861">
        <ele>706.25</ele>
        <time>2021-03-27T17:56:02Z</time>
      </trkpt>
      <trkpt lat="42.468449" lon="-6.549883">
        <ele>703.09</ele>
        <time>2021-03-27T17:56:04Z</time>
      </trkpt>
      <trkpt lat="42.46894" lon="-6.549896">
        <ele>700.02</ele>
        <time>2021-03-27T17:56:05Z</time>
      </trkpt>
      <trkpt lat="42.469" lon="-6.549873">
        <ele>699.65</ele>
        <time>2021-03-27T17:56:07Z</time>
      </trkpt>
      <trkpt lat="42.469195" lon="-6.549722">
        <ele>699.1</ele>
        <time>2021-03-27T17:56:08Z</time>
      </trkpt>
      <trkpt lat="42.469279" lon="-6.549738">
        <ele>699.38</ele>
        <time>2021-03-27T17:56:09Z</time>
      </trkpt>
      <trkpt lat="42.469537" lon="-6.54989">
        <ele>700.79</ele>
        <time>2021-03-27T17:56:11Z</time>
      </trkpt>
      <trkpt lat="42.469641" lon="-6.550009">
        <ele>701.05</ele>
        <time>2021-03-27T17:56:12Z</time>
      </trkpt>
      <trkpt lat="42.469775" lon="-6.550242">
        <ele>700.71</ele>
        <time>2021-03-27T17:56:13Z</time>
      </trkpt>
      <trkpt lat="42.469964" lon="-6.550956">
        <ele>700.81</ele>
        <time>2021-03-27T17:56:15Z</time>
      </trkpt>
      <trkpt lat="42.470031" lon="-6.551029">
        <ele>700.56</ele>
        <time>2021-03-27T17:56:16Z</time>
      </trkpt>
      <trkpt lat="42.470289" lon="-6.551212">
        <ele>699.97</ele>
        <time>2021-03-27T17:56:18Z</time>
      </trkpt>
      <trkpt lat="42.470604" lon="-6.551349">
        <ele>700.69</ele>
        <time>2021-03-27T17:56:19Z</time>
      </trkpt>
      <trkpt lat="42.470882" lon="-6.551355">
        <ele>703.49</ele>
        <time>2021-03-27T17:56:20Z</time>
      </trkpt>
      <trkpt lat="42.471394" lon="-6.551303">
        <ele>698.49</ele>
        <time>2021-03-27T17:56:22Z</time>
      </trkpt>
      <trkpt lat="42.471579" lon="-6.551319">
        <ele>696.54</ele>
        <time>2021-03-27T17:56:23Z</time>
      </trkpt>
      <trkpt lat="42.471705" lon="-6.551406">
        <ele>694.88</ele>
        <time>2021-03-27T17:56:24Z</time>
      </trkpt>
      <trkpt lat="42.472014" lon="-6.55172">
        <ele>689.03</ele>
        <time>2021-03-27T17:56:26Z</time>
      </trkpt>
      <trkpt lat="42.472108" lon="-6.551783">
        <ele>687.98</ele>
        <time>2021-03-27T17:56:27Z</time>
      </trkpt>
      <trkpt lat="42.472311" lon="-6.551845">
        <ele>686.78</ele>
        <time>2021-03-27T17:56:29Z</time>
      </trkpt>
      <trkpt lat="42.47238" lon="-6.551886">
        <ele>685.84</ele>
        <time>2021-03-27T17:56:30Z</time>
      </trkpt>
      <trkpt lat="42.472895" lon="-6.552332">
        <ele>680.93</ele>
        <time>2021-03-27T17:56:31Z</time>
      </trkpt>
      <trkpt lat="42.473007" lon="-6.552463">
        <ele>681.04</ele>
        <time>2021-03-27T17:56:33Z</time>
      </trkpt>
      <trkpt lat="42.47315" lon="-6.552737">
        <ele>682.05</ele>
        <time>2021-03-27T17:56:34Z</time>
      </trkpt>
      <trkpt lat="42.473566" lon="-6.553429">
        <ele>680.28</ele>
        <time>2021-03-27T17:56:35Z</time>
      </trkpt>
      <trkpt lat="42.473676" lon="-6.553665">
        <ele>680.48</ele>
        <time>2021-03-27T17:56:37Z</time>
      </trkpt>
      <trkpt lat="42.473916" lon="-6.553718">
        <ele>676.2</ele>
        <time>2021-03-27T17:56:38Z</time>
      </trkpt>
      <trkpt lat="42.474092" lon="-6.553806">
        <ele>676.51</ele>
        <time>2021-03-27T17:56:39Z</time>
      </trkpt>
      <trkpt lat="42.474246" lon="-6.553925">
        <ele>676.32</ele>
        <time>2021-03-27T17:56:41Z</time>
      </trkpt>
      <trkpt lat="42.474406" lon="-6.554133">
        <ele>677.62</ele>
        <time>2021-03-27T17:56:42Z</time>
      </trkpt>
      <trkpt lat="42.474477" lon="-6.55419">
        <ele>678.61</ele>
        <time>2021-03-27T17:56:44Z</time>
      </trkpt>
      <trkpt lat="42.474808" lon="-6.554353">
        <ele>683.73</ele>
        <time>2021-03-27T17:56:45Z</time>
      </trkpt>
      <trkpt lat="42.47499" lon="-6.554377">
        <ele>685.7</ele>
        <time>2021-03-27T17:56:46Z</time>
      </trkpt>
      <trkpt lat="42.475165" lon="-6.554308">
        <ele>685.15</ele>
        <time>2021-03-27T17:56:48Z</time>
      </trkpt>
      <trkpt lat="42.475265" lon="-6.554307">
        <ele>685.48</ele>
        <time>2021-03-27T17:56:49Z</time>
      </trkpt>
      <trkpt lat="42.475358" lon="-6.55434">
        <ele>685.22</ele>
        <time>2021-03-27T17:56:50Z</time>
      </trkpt>
      <trkpt lat="42.475412" lon="-6.55439">
        <ele>685.08</ele>
        <time>2021-03-27T17:56:52Z</time>
      </trkpt>
      <trkpt lat="42.475552" lon="-6.554703">
        <ele>688.66</ele>
        <time>2021-03-27T17:56:53Z</time>
      </trkpt>
      <trkpt lat="42.47568" lon="-6.554845">
        <ele>689.26</ele>
        <time>2021-03-27T17:56:55Z</time>
      </trkpt>
      <trkpt lat="42.475799" lon="-6.554897">
        <ele>687.11</ele>
        <time>2021-03-27T17:56:56Z</time>
      </trkpt>
      <trkpt lat="42.476057" lon="-6.554941">
        <ele>683.42</ele>
        <time>2021-03-27T17:56:57Z</time>
      </trkpt>
      <trkpt lat="42.476151" lon="-6.554986">
        <ele>682.91</ele>
        <time>2021-03-27T17:56:59Z</time>
      </trkpt>
      <trkpt lat="42.476281" lon="-6.555121">
        <ele>684.65</ele>
        <time>2021-03-27T17:57:00Z</time>
      </trkpt>
      <trkpt lat="42.476409" lon="-6.555326">
        <ele>686.83</ele>
        <time>2021-03-27T17:57:01Z</time>
      </trkpt>
      <trkpt lat="42.476511" lon="-6.555442">
        <ele>687.1</ele>
        <time>2021-03-27T17:57:03Z</time>
      </trkpt>
      <trkpt lat="42.476663" lon="-6.555552">
        <ele>684.09</ele>
        <time>2021-03-27T17:57:04Z</time>
      </trkpt>
      <trkpt lat="42.477014" lon="-6.555708">
        <ele>677.64</ele>
        <time>2021-03-27T17:57:06Z</time>
      </trkpt>
      <trkpt lat="42.477165" lon="-6.555898">
        <ele>675.17</ele>
        <time>2021-03-27T17:57:07Z</time>
      </trkpt>
      <trkpt lat="42.477399" lon="-6.556355">
        <ele>677.74</ele>
        <time>2021-03-27T17:57:08Z</time>
      </trkpt>
      <trkpt lat="42.477455" lon="-6.556405">
        <ele>677.69</ele>
        <time>2021-03-27T17:57:10Z</time>
      </trkpt>
      <trkpt lat="42.477671" lon="-6.556488">
        <ele>676.18</ele>
        <time>2021-03-27T17:57:11Z</time>
      </trkpt>
      <trkpt lat="42.47801" lon="-6.556677">
        <ele>675.01</ele>
        <time>2021-03-27T17:57:12Z</time>
      </trkpt>
      <trkpt lat="42.478061" lon="-6.556751">
        <ele>675.03</ele>
        <time>2021-03-27T17:57:14Z</time>
      </trkpt>
      <trkpt lat="42.478251" lon="-6.557152">
        <ele>675.18</ele>
        <time>2021-03-27T17:57:15Z</time>
      </trkpt>
      <trkpt lat="42.478445" lon="-6.557494">
        <ele>674.41</ele>
        <time>2021-03-27T17:57:16Z</time>
      </trkpt>
      <trkpt lat="42.478596" lon="-6.557677">
        <ele>672.78</ele>
        <time>2021-03-27T17:57:18Z</time>
      </trkpt>
      <trkpt lat="42.478717" lon="-6.557722">
        <ele>672.57</ele>
        <time>2021-03-27T17:57:19Z</time>
      </trkpt>
      <trkpt lat="42.479197" lon="-6.557761">
        <ele>671.09</ele>
        <time>2021-03-27T17:57:21Z</time>
      </trkpt>
      <trkpt lat="42.479502" lon="-6.557897">
        <ele>669.92</ele>
        <time>2021-03-27T17:57:22Z</time>
      </trkpt>
      <trkpt lat="42.479604" lon="-6.558028">
        <ele>671.21</ele>
        <time>2021-03-27T17:57:23Z</time>
      </trkpt>
      <trkpt lat="42.47968" lon="-6.558208">
        <ele>671.92</ele>
        <time>2021-03-27T17:57:25Z</time>
      </trkpt>
      <trkpt lat="42.479694" lon="-6.558348">
        <ele>671.3</ele>
        <time>2021-03-27T17:57:26Z</time>
      </trkpt>
      <trkpt lat="42.479689" lon="-6.558939">
        <ele>664.18</ele>
        <time>2021-03-27T17:57:27Z</time>
      </trkpt>
      <trkpt lat="42.479735" lon="-6.559073">
        <ele>661.78</ele>
        <time>2021-03-27T17:57:29Z</time>
      </trkpt>
      <trkpt lat="42.479808" lon="-6.559207">
        <ele>659.83</ele>
        <time>2021-03-27T17:57:30Z</time>
      </trkpt>
      <trkpt lat="42.479922" lon="-6.559329">
        <ele>658.54</ele>
        <time>2021-03-27T17:57:32Z</time>
      </trkpt>
      <trkpt lat="42.480233" lon="-6.559444">
        <ele>662.86</ele>
        <time>2021-03-27T17:57:33Z</time>
      </trkpt>
      <trkpt lat="42.480436" lon="-6.559583">
        <ele>664.5</ele>
        <time>2021-03-27T17:57:34Z</time>
      </trkpt>
      <trkpt lat="42.480651" lon="-6.559808">
        <ele>665.03</ele>
        <time>2021-03-27T17:57:36Z</time>
      </trkpt>
      <trkpt lat="42.480755" lon="-6.560052">
        <ele>663.3</ele>
        <time>2021-03-27T17:57:37Z</time>
      </trkpt>
      <trkpt lat="42.480783" lon="-6.560192">
        <ele>663.07</ele>
        <time>2021-03-27T17:57:38Z</time>
      </trkpt>
      <trkpt lat="42.480778" lon="-6.560479">
        <ele>661.93</ele>
        <time>2021-03-27T17:57:40Z</time>
      </trkpt>
      <trkpt lat="42.480653" lon="-6.560842">
        <ele>659.37</ele>
        <time>2021-03-27T17:57:41Z</time>
      </trkpt>
      <trkpt lat="42.480643" lon="-6.560961">
        <ele>658.8</ele>
        <time>2021-03-27T17:57:43Z</time>
      </trkpt>
      <trkpt lat="42.48069" lon="-6.561033">
        <ele>659.23</ele>
        <time>2021-03-27T17:57:44Z</time>
      </trkpt>
      <trkpt lat="42.481285" lon="-6.561467">
        <ele>661.23</ele>
        <time>2021-03-27T17:57:45Z</time>
      </trkpt>
      <trkpt lat="42.481577" lon="-6.561719">
        <ele>664.7</ele>
        <time>2021-03-27T17:57:47Z</time>
      </trkpt>
      <trkpt lat="42.481709" lon="-6.561886">
        <ele>665.28</ele>
        <time>2021-03-27T17:57:48Z</time>
      </trkpt>
      <trkpt lat="42.481962" lon="-6.562315">
        <ele>663.48</ele>
        <time>2021-03-27T17:57:49Z</time>
      </trkpt>
      <trkpt lat="42.48213" lon="-6.562733">
        <ele>667.28</ele>
        <time>2021-03-27T17:57:51Z</time>
      </trkpt>
      <trkpt lat="42.482231" lon="-6.562874">
        <ele>669.16</ele>
        <time>2021-03-27T17:57:52Z</time>
      </trkpt>
      <trkpt lat="42.482656" lon="-6.563006">
        <ele>671.2</ele>
        <time>2021-03-27T17:57:54Z</time>
      </trkpt>
      <trkpt lat="42.482805" lon="-6.56311">
        <ele>668.29</ele>
        <time>2021-03-27T17:57:55Z</time>
      </trkpt>
      <trkpt lat="42.483038" lon="-6.563358">
        <ele>667.6</ele>
        <time>2021-03-27T17:57:56Z</time>
      </trkpt>
      <trkpt lat="42.483126" lon="-6.563557">
        <ele>667.68</ele>
        <time>2021-03-27T17:57:58Z</time>
      </trkpt>
      <trkpt lat="42.48327" lon="-6.564242">
        <ele>660.46</ele>
        <time>2021-03-27T17:57:59Z</time>
      </trkpt>
      <trkpt lat="42.483317" lon="-6.564399">
        <ele>659.42</ele>
        <time>2021-03-27T17:58:00Z</time>
      </trkpt>
      <trkpt lat="42.483409" lon="-6.564585">
        <ele>660.19</ele>
        <time>2021-03-27T17:58:02Z</time>
      </trkpt>
      <trkpt lat="42.483666" lon="-6.565009">
        <ele>658.97</ele>
        <time>2021-03-27T17:58:03Z</time>
      </trkpt>
      <trkpt lat="42.483772" lon="-6.56517">
        <ele>659.81</ele>
        <time>2021-03-27T17:58:04Z</time>
      </trkpt>
      <trkpt lat="42.483988" lon="-6.565422">
        <ele>658.95</ele>
        <time>2021-03-27T17:58:06Z</time>
      </trkpt>
      <trkpt lat="42.484188" lon="-6.565749">
        <ele>650.42</ele>
        <time>2021-03-27T17:58:07Z</time>
      </trkpt>
      <trkpt lat="42.484548" lon="-6.566059">
        <ele>655.82</ele>
        <time>2021-03-27T17:58:09Z</time>
      </trkpt>
      <trkpt lat="42.484945" lon="-6.566433">
        <ele>655.03</ele>
        <time>2021-03-27T17:58:10Z</time>
      </trkpt>
      <trkpt lat="42.484969" lon="-6.566562">
        <ele>651.62</ele>
        <time>2021-03-27T17:58:11Z</time>
      </trkpt>
      <trkpt lat="42.484939" lon="-6.566627">
        <ele>648.92</ele>
        <time>2021-03-27T17:58:13Z</time>
      </trkpt>
      <trkpt lat="42.484896" lon="-6.566644">
        <ele>647.43</ele>
        <time>2021-03-27T17:58:14Z</time>
      </trkpt>
      <trkpt lat="42.484791" lon="-6.566597">
        <ele>646.38</ele>
        <time>2021-03-27T17:58:15Z</time>
      </trkpt>
      <trkpt lat="42.484489" lon="-6.566299">
        <ele>648.12</ele>
        <time>2021-03-27T17:58:17Z</time>
      </trkpt>
      <trkpt lat="42.484418" lon="-6.566268">
        <ele>646.98</ele>
        <time>2021-03-27T17:58:18Z</time>
      </trkpt>
      <trkpt lat="42.484365" lon="-6.566286">
        <ele>646.23</ele>
        <time>2021-03-27T17:58:20Z</time>
      </trkpt>
      <trkpt lat="42.484342" lon="-6.566342">
        <ele>645.58</ele>
        <time>2021-03-27T17:58:21Z</time>
      </trkpt>
      <trkpt lat="42.484339" lon="-6.566441">
        <ele>645.15</ele>
        <time>2021-03-27T17:58:22Z</time>
      </trkpt>
      <trkpt lat="42.484843" lon="-6.567572">
        <ele>640.2</ele>
        <time>2021-03-27T17:58:24Z</time>
      </trkpt>
      <trkpt lat="42.484983" lon="-6.567819">
        <ele>640.15</ele>
        <time>2021-03-27T17:58:25Z</time>
      </trkpt>
      <trkpt lat="42.485112" lon="-6.568003">
        <ele>638.69</ele>
        <time>2021-03-27T17:58:26Z</time>
      </trkpt>
      <trkpt lat="42.485191" lon="-6.568064">
        <ele>637.35</ele>
        <time>2021-03-27T17:58:28Z</time>
      </trkpt>
      <trkpt lat="42.485282" lon="-6.568096">
        <ele>636.43</ele>
        <time>2021-03-27T17:58:29Z</time>
      </trkpt>
      <trkpt lat="42.486146" lon="-6.568166">
        <ele>638.02</ele>
        <time>2021-03-27T17:58:31Z</time>
      </trkpt>
      <trkpt lat="42.486323" lon="-6.568281">
        <ele>635.94</ele>
        <time>2021-03-27T17:58:32Z</time>
      </trkpt>
      <trkpt lat="42.486605" lon="-6.56858">
        <ele>635.65</ele>
        <time>2021-03-27T17:58:33Z</time>
      </trkpt>
      <trkpt lat="42.486703" lon="-6.568622">
        <ele>635.83</ele>
        <time>2021-03-27T17:58:35Z</time>
      </trkpt>
      <trkpt lat="42.487115" lon="-6.568614">
        <ele>634.39</ele>
        <time>2021-03-27T17:58:36Z</time>
      </trkpt>
      <trkpt lat="42.487218" lon="-6.568596">
        <ele>634.12</ele>
        <time>2021-03-27T17:58:37Z</time>
      </trkpt>
      <trkpt lat="42.48741" lon="-6.568471">
        <ele>633.32</ele>
        <time>2021-03-27T17:58:39Z</time>
      </trkpt>
      <trkpt lat="42.48765" lon="-6.56825">
        <ele>637.26</ele>
        <time>2021-03-27T17:58:40Z</time>
      </trkpt>
      <trkpt lat="42.487856" lon="-6.56803">
        <ele>642.1</ele>
        <time>2021-03-27T17:58:42Z</time>
      </trkpt>
      <trkpt lat="42.488068" lon="-6.567859">
        <ele>641.8</ele>
        <time>2021-03-27T17:58:43Z</time>
      </trkpt>
      <trkpt lat="42.488242" lon="-6.567765">
        <ele>637.93</ele>
        <time>2021-03-27T17:58:44Z</time>
      </trkpt>
      <trkpt lat="42.488944" lon="-6.567547">
        <ele>641.91</ele>
        <time>2021-03-27T17:58:46Z</time>
      </trkpt>
      <trkpt lat="42.489094" lon="-6.567519">
        <ele>642.48</ele>
        <time>2021-03-27T17:58:47Z</time>
      </trkpt>
      <trkpt lat="42.489309" lon="-6.567538">
        <ele>641.46</ele>
        <time>2021-03-27T17:58:48Z</time>
      </trkpt>
      <trkpt lat="42.489791" lon="-6.567783">
        <ele>638.2</ele>
        <time>2021-03-27T17:58:50Z</time>
      </trkpt>
      <trkpt lat="42.490124" lon="-6.567868">
        <ele>638.17</ele>
        <time>2021-03-27T17:58:51Z</time>
      </trkpt>
      <trkpt lat="42.490335" lon="-6.567853">
        <ele>638.4</ele>
        <time>2021-03-27T17:58:52Z</time>
      </trkpt>
      <trkpt lat="42.490976" lon="-6.567736">
        <ele>637.01</ele>
        <time>2021-03-27T17:58:54Z</time>
      </trkpt>
      <trkpt lat="42.491202" lon="-6.567729">
        <ele>635.29</ele>
        <time>2021-03-27T17:58:55Z</time>
      </trkpt>
      <trkpt lat="42.491979" lon="-6.56777">
        <ele>627.56</ele>
        <time>2021-03-27T17:58:57Z</time>
      </trkpt>
      <trkpt lat="42.49233" lon="-6.567868">
        <ele>630.48</ele>
        <time>2021-03-27T17:58:58Z</time>
      </trkpt>
      <trkpt lat="42.492501" lon="-6.567989">
        <ele>629.97</ele>
        <time>2021-03-27T17:58:59Z</time>
      </trkpt>
      <trkpt lat="42.492669" lon="-6.568147">
        <ele>629.89</ele>
        <time>2021-03-27T17:59:01Z</time>
      </trkpt>
      <trkpt lat="42.492799" lon="-6.568369">
        <ele>629.79</ele>
        <time>2021-03-27T17:59:02Z</time>
      </trkpt>
      <trkpt lat="42.492852" lon="-6.568422">
        <ele>629.41</ele>
        <time>2021-03-27T17:59:03Z</time>
      </trkpt>
      <trkpt lat="42.492895" lon="-6.568431">
        <ele>629.22</ele>
        <time>2021-03-27T17:59:05Z</time>
      </trkpt>
      <trkpt lat="42.493132" lon="-6.568211">
        <ele>629.29</ele>
        <time>2021-03-27T17:59:06Z</time>
      </trkpt>
      <trkpt lat="42.493445" lon="-6.567964">
        <ele>631.94</ele>
        <time>2021-03-27T17:59:08Z</time>
      </trkpt>
      <trkpt lat="42.49352" lon="-6.567926">
        <ele>632.98</ele>
        <time>2021-03-27T17:59:09Z</time>
      </trkpt>
      <trkpt lat="42.493605" lon="-6.567912">
        <ele>633.2</ele>
        <time>2021-03-27T17:59:10Z</time>
      </trkpt>
      <trkpt lat="42.493673" lon="-6.567934">
        <ele>632.83</ele>
        <time>2021-03-27T17:59:12Z</time>
      </trkpt>
      <trkpt lat="42.493794" lon="-6.568089">
        <ele>628.33</ele>
        <time>2021-03-27T17:59:13Z</time>
      </trkpt>
      <trkpt lat="42.493901" lon="-6.568324">
        <ele>624.56</ele>
        <time>2021-03-27T17:59:14Z</time>
      </trkpt>
      <trkpt lat="42.49399" lon="-6.568583">
        <ele>625.04</ele>
        <time>2021-03-27T17:59:16Z</time>
      </trkpt>
      <trkpt lat="42.494051" lon="-6.568898">
        <ele>623.27</ele>
        <time>2021-03-27T17:59:17Z</time>
      </trkpt>
      <trkpt lat="42.494116" lon="-6.569088">
        <ele>622.51</ele>
        <time>2021-03-27T17:59:19Z</time>
      </trkpt>
      <trkpt lat="42.49415" lon="-6.569129">
        <ele>622.33</ele>
        <time>2021-03-27T17:59:20Z</time>
      </trkpt>
      <trkpt lat="42.494402" lon="-6.569188">
        <ele>624.26</ele>
        <time>2021-03-27T17:59:21Z</time>
      </trkpt>
      <trkpt lat="42.494714" lon="-6.569353">
        <ele>623.94</ele>
        <time>2021-03-27T17:59:23Z</time>
      </trkpt>
      <trkpt lat="42.494949" lon="-6.569414">
        <ele>623.5</ele>
        <time>2021-03-27T17:59:24Z</time>
      </trkpt>
      <trkpt lat="42.495138" lon="-6.569681">
        <ele>621.02</ele>
        <time>2021-03-27T17:59:25Z</time>
      </trkpt>
      <trkpt lat="42.495248" lon="-6.569801">
        <ele>620.33</ele>
        <time>2021-03-27T17:59:27Z</time>
      </trkpt>
      <trkpt lat="42.495532" lon="-6.570354">
        <ele>620.84</ele>
        <time>2021-03-27T17:59:28Z</time>
      </trkpt>
      <trkpt lat="42.495639" lon="-6.57047">
        <ele>621.38</ele>
        <time>2021-03-27T17:59:29Z</time>
      </trkpt>
      <trkpt lat="42.495882" lon="-6.570663">
        <ele>621.34</ele>
        <time>2021-03-27T17:59:31Z</time>
      </trkpt>
      <trkpt lat="42.496495" lon="-6.571323">
        <ele>618.36</ele>
        <time>2021-03-27T17:59:32Z</time>
      </trkpt>
      <trkpt lat="42.496878" lon="-6.571622">
        <ele>613.29</ele>
        <time>2021-03-27T17:59:34Z</time>
      </trkpt>
      <trkpt lat="42.497097" lon="-6.57171">
        <ele>615.81</ele>
        <time>2021-03-27T17:59:35Z</time>
      </trkpt>
      <trkpt lat="42.49826" lon="-6.57196">
        <ele>613.26</ele>
        <time>2021-03-27T17:59:36Z</time>
      </trkpt>
      <trkpt lat="42.498397" lon="-6.572009">
        <ele>613.12</ele>
        <time>2021-03-27T17:59:38Z</time>
      </trkpt>
      <trkpt lat="42.499741" lon="-6.572612">
        <ele>611.4</ele>
        <time>2021-03-27T17:59:39Z</time>
      </trkpt>
      <trkpt lat="42.499905" lon="-6.57277">
        <ele>612.03</ele>
        <time>2021-03-27T17:59:40Z</time>
      </trkpt>
      <trkpt lat="42.500057" lon="-6.572977">
        <ele>612.17</ele>
        <time>2021-03-27T17:59:42Z</time>
      </trkpt>
      <trkpt lat="42.500215" lon="-6.573144">
        <ele>612.44</ele>
        <time>2021-03-27T17:59:43Z</time>
      </trkpt>
      <trkpt lat="42.500267" lon="-6.573392">
        <ele>610.7</ele>
        <time>2021-03-27T17:59:45Z</time>
      </trkpt>
      <trkpt lat="42.500276" lon="-6.573761">
        <ele>609.45</ele>
        <time>2021-03-27T17:59:46Z</time>
      </trkpt>
      <trkpt lat="42.500217" lon="-6.574058">
        <ele>609.3</ele>
        <time>2021-03-27T17:59:47Z</time>
      </trkpt>
      <trkpt lat="42.500134" lon="-6.574767">
        <ele>611.85</ele>
        <time>2021-03-27T17:59:49Z</time>
      </trkpt>
      <trkpt lat="42.500138" lon="-6.574996">
        <ele>613.95</ele>
        <time>2021-03-27T17:59:50Z</time>
      </trkpt>
      <trkpt lat="42.500385" lon="-6.576059">
        <ele>609.22</ele>
        <time>2021-03-27T17:59:51Z</time>
      </trkpt>
      <trkpt lat="42.500456" lon="-6.576226">
        <ele>609.05</ele>
        <time>2021-03-27T17:59:53Z</time>
      </trkpt>
      <trkpt lat="42.501113" lon="-6.577297">
        <ele>605.02</ele>
        <time>2021-03-27T17:59:54Z</time>
      </trkpt>
      <trkpt lat="42.501367" lon="-6.577665">
        <ele>604.54</ele>
        <time>2021-03-27T17:59:56Z</time>
      </trkpt>
      <trkpt lat="42.501461" lon="-6.577744">
        <ele>604.48</ele>
        <time>2021-03-27T17:59:57Z</time>
      </trkpt>
      <trkpt lat="42.50156" lon="-6.577771">
        <ele>604.69</ele>
        <time>2021-03-27T17:59:58Z</time>
      </trkpt>
      <trkpt lat="42.502455" lon="-6.577822">
        <ele>610.46</ele>
        <time>2021-03-27T18:00:00Z</time>
      </trkpt>
      <trkpt lat="42.502548" lon="-6.577846">
        <ele>608.58</ele>
        <time>2021-03-27T18:00:01Z</time>
      </trkpt>
      <trkpt lat="42.502728" lon="-6.577937">
        <ele>603.08</ele>
        <time>2021-03-27T18:00:03Z</time>
      </trkpt>
      <trkpt lat="42.502836" lon="-6.577794">
        <ele>602.96</ele>
        <time>2021-03-27T18:00:05Z</time>
      </trkpt>
      <trkpt lat="42.502964" lon="-6.577679">
        <ele>603.33</ele>
        <time>2021-03-27T18:00:07Z</time>
      </trkpt>
      <trkpt lat="42.503606" lon="-6.577398">
        <ele>604.48</ele>
        <time>2021-03-27T18:00:09Z</time>
      </trkpt>
      <trkpt lat="42.503827" lon="-6.577389">
        <ele>603.04</ele>
        <time>2021-03-27T18:00:11Z</time>
      </trkpt>
      <trkpt lat="42.504042" lon="-6.577527">
        <ele>603.06</ele>
        <time>2021-03-27T18:00:13Z</time>
      </trkpt>
      <trkpt lat="42.504447" lon="-6.57788">
        <ele>608.58</ele>
        <time>2021-03-27T18:00:15Z</time>
      </trkpt>
      <trkpt lat="42.504657" lon="-6.577993">
        <ele>610.13</ele>
        <time>2021-03-27T18:00:17Z</time>
      </trkpt>
      <trkpt lat="42.504837" lon="-6.578036">
        <ele>612.03</ele>
        <time>2021-03-27T18:00:19Z</time>
      </trkpt>
      <trkpt lat="42.50515" lon="-6.578053">
        <ele>615.67</ele>
        <time>2021-03-27T18:00:21Z</time>
      </trkpt>
      <trkpt lat="42.505302" lon="-6.578085">
        <ele>617.21</ele>
        <time>2021-03-27T18:00:23Z</time>
      </trkpt>
      <trkpt lat="42.505444" lon="-6.578286">
        <ele>618.6</ele>
        <time>2021-03-27T18:00:25Z</time>
      </trkpt>
      <trkpt lat="42.505681" lon="-6.578994">
        <ele>619.27</ele>
        <time>2021-03-27T18:00:27Z</time>
      </trkpt>
      <trkpt lat="42.505817" lon="-6.579513">
        <ele>616.49</ele>
        <time>2021-03-27T18:00:29Z</time>
      </trkpt>
      <trkpt lat="42.505947" lon="-6.579758">
        <ele>617.57</ele>
        <time>2021-03-27T18:00:31Z</time>
      </trkpt>
      <trkpt lat="42.506026" lon="-6.579818">
        <ele>619.56</ele>
        <time>2021-03-27T18:00:33Z</time>
      </trkpt>
      <trkpt lat="42.506415" lon="-6.579893">
        <ele>629.68</ele>
        <time>2021-03-27T18:00:35Z</time>
      </trkpt>
      <trkpt lat="42.506479" lon="-6.579981">
        <ele>629.92</ele>
        <time>2021-03-27T18:00:37Z</time>
      </trkpt>
      <trkpt lat="42.506498" lon="-6.58017">
        <ele>628.9</ele>
        <time>2021-03-27T18:00:39Z</time>
      </trkpt>
      <trkpt lat="42.506469" lon="-6.580723">
        <ele>626.6</ele>
        <time>2021-03-27T18:00:41Z</time>
      </trkpt>
      <trkpt lat="42.506526" lon="-6.58116">
        <ele>628.01</ele>
        <time>2021-03-27T18:00:43Z</time>
      </trkpt>
      <trkpt lat="42.506662" lon="-6.581612">
        <ele>629.23</ele>
        <time>2021-03-27T18:00:45Z</time>
      </trkpt>
      <trkpt lat="42.506738" lon="-6.581732">
        <ele>632.83</ele>
        <time>2021-03-27T18:00:47Z</time>
      </trkpt>
      <trkpt lat="42.506776" lon="-6.581835">
        <ele>635.12</ele>
        <time>2021-03-27T18:00:49Z</time>
      </trkpt>
      <trkpt lat="42.506811" lon="-6.582004">
        <ele>637.37</ele>
        <time>2021-03-27T18:00:51Z</time>
      </trkpt>
      <trkpt lat="42.506764" lon="-6.58273">
        <ele>636.48</ele>
        <time>2021-03-27T18:00:53Z</time>
      </trkpt>
      <trkpt lat="42.50695" lon="-6.583398">
        <ele>643.47</ele>
        <time>2021-03-27T18:00:55Z</time>
      </trkpt>
      <trkpt lat="42.506956" lon="-6.583587">
        <ele>644.39</ele>
        <time>2021-03-27T18:00:57Z</time>
      </trkpt>
      <trkpt lat="42.506871" lon="-6.584221">
        <ele>647.36</ele>
        <time>2021-03-27T18:00:59Z</time>
      </trkpt>
      <trkpt lat="42.5069" lon="-6.584422">
        <ele>648.38</ele>
        <time>2021-03-27T18:01:01Z</time>
      </trkpt>
      <trkpt lat="42.507042" lon="-6.585002">
        <ele>654.52</ele>
        <time>2021-03-27T18:01:03Z</time>
      </trkpt>
      <trkpt lat="42.507077" lon="-6.585254">
        <ele>657.63</ele>
        <time>2021-03-27T18:01:05Z</time>
      </trkpt>
      <trkpt lat="42.507064" lon="-6.585562">
        <ele>661.22</ele>
        <time>2021-03-27T18:01:07Z</time>
      </trkpt>
      <trkpt lat="42.506669" lon="-6.586656">
        <ele>660.95</ele>
        <time>2021-03-27T18:01:09Z</time>
      </trkpt>
      <trkpt lat="42.506602" lon="-6.586974">
        <ele>662.93</ele>
        <time>2021-03-27T18:01:11Z</time>
      </trkpt>
      <trkpt lat="42.506599" lon="-6.587432">
        <ele>663.23</ele>
        <time>2021-03-27T18:01:13Z</time>
      </trkpt>
      <trkpt lat="42.506635" lon="-6.587677">
        <ele>665.47</ele>
        <time>2021-03-27T18:01:15Z</time>
      </trkpt>
      <trkpt lat="42.50671" lon="-6.587977">
        <ele>668.08</ele>
        <time>2021-03-27T18:01:17Z</time>
      </trkpt>
      <trkpt lat="42.507763" lon="-6.59077">
        <ele>684.53</ele>
        <time>2021-03-27T18:01:19Z</time>
      </trkpt>
      <trkpt lat="42.507887" lon="-6.591132">
        <ele>685.37</ele>
        <time>2021-03-27T18:01:21Z</time>
      </trkpt>
      <trkpt lat="42.507887" lon="-6.591132">
        <ele>685.37</ele>
        <time>2021-03-27T18:01:21Z</time>
      </trkpt>
      <trkpt lat="42.508013" lon="-6.591613">
        <ele>686.28</ele>
        <time>2021-03-27T18:01:23Z</time>
      </trkpt>
      <trkpt lat="42.508041" lon="-6.5918">
        <ele>687.15</ele>
        <time>2021-03-27T18:01:25Z</time>
      </trkpt>
      <trkpt lat="42.50806" lon="-6.592212">
        <ele>690.02</ele>
        <time>2021-03-27T18:01:27Z</time>
      </trkpt>
      <trkpt lat="42.508133" lon="-6.593058">
        <ele>696.57</ele>
        <time>2021-03-27T18:01:28Z</time>
      </trkpt>
      <trkpt lat="42.508204" lon="-6.593271">
        <ele>697.43</ele>
        <time>2021-03-27T18:01:30Z</time>
      </trkpt>
      <trkpt lat="42.508545" lon="-6.593588">
        <ele>693.27</ele>
        <time>2021-03-27T18:01:32Z</time>
      </trkpt>
      <trkpt lat="42.508586" lon="-6.593645">
        <ele>692.23</ele>
        <time>2021-03-27T18:01:34Z</time>
      </trkpt>
      <trkpt lat="42.508658" lon="-6.593895">
        <ele>688.97</ele>
        <time>2021-03-27T18:01:36Z</time>
      </trkpt>
      <trkpt lat="42.5087" lon="-6.594393">
        <ele>687.45</ele>
        <time>2021-03-27T18:01:38Z</time>
      </trkpt>
      <trkpt lat="42.508766" lon="-6.59459">
        <ele>686.59</ele>
        <time>2021-03-27T18:01:40Z</time>
      </trkpt>
      <trkpt lat="42.508889" lon="-6.594784">
        <ele>684.44</ele>
        <time>2021-03-27T18:01:42Z</time>
      </trkpt>
      <trkpt lat="42.509057" lon="-6.594919">
        <ele>682.82</ele>
        <time>2021-03-27T18:01:44Z</time>
      </trkpt>
      <trkpt lat="42.509246" lon="-6.594969">
        <ele>680.55</ele>
        <time>2021-03-27T18:01:46Z</time>
      </trkpt>
      <trkpt lat="42.510193" lon="-6.595028">
        <ele>670.76</ele>
        <time>2021-03-27T18:01:48Z</time>
      </trkpt>
      <trkpt lat="42.510313" lon="-6.595096">
        <ele>669.19</ele>
        <time>2021-03-27T18:01:50Z</time>
      </trkpt>
      <trkpt lat="42.510395" lon="-6.595233">
        <ele>668.99</ele>
        <time>2021-03-27T18:01:52Z</time>
      </trkpt>
      <trkpt lat="42.510465" lon="-6.595448">
        <ele>669.12</ele>
        <time>2021-03-27T18:01:54Z</time>
      </trkpt>
      <trkpt lat="42.510711" lon="-6.596993">
        <ele>665.53</ele>
        <time>2021-03-27T18:01:56Z</time>
      </trkpt>
      <trkpt lat="42.510876" lon="-6.59786">
        <ele>664.06</ele>
        <time>2021-03-27T18:01:58Z</time>
      </trkpt>
      <trkpt lat="42.510977" lon="-6.597972">
        <ele>663.71</ele>
        <time>2021-03-27T18:01:59Z</time>
      </trkpt>
      <trkpt lat="42.51111" lon="-6.597972">
        <ele>661.51</ele>
        <time>2021-03-27T18:02:01Z</time>
      </trkpt>
      <trkpt lat="42.511401" lon="-6.597757">
        <ele>657.67</ele>
        <time>2021-03-27T18:02:03Z</time>
      </trkpt>
      <trkpt lat="42.511705" lon="-6.597465">
        <ele>653.89</ele>
        <time>2021-03-27T18:02:05Z</time>
      </trkpt>
      <trkpt lat="42.512034" lon="-6.597182">
        <ele>651.87</ele>
        <time>2021-03-27T18:02:07Z</time>
      </trkpt>
      <trkpt lat="42.512356" lon="-6.596976">
        <ele>649.11</ele>
        <time>2021-03-27T18:02:09Z</time>
      </trkpt>
      <trkpt lat="42.512939" lon="-6.596675">
        <ele>643.77</ele>
        <time>2021-03-27T18:02:11Z</time>
      </trkpt>
      <trkpt lat="42.513204" lon="-6.596615">
        <ele>640.93</ele>
        <time>2021-03-27T18:02:13Z</time>
      </trkpt>
      <trkpt lat="42.513394" lon="-6.596598">
        <ele>638.78</ele>
        <time>2021-03-27T18:02:15Z</time>
      </trkpt>
      <trkpt lat="42.513571" lon="-6.596624">
        <ele>637.75</ele>
        <time>2021-03-27T18:02:17Z</time>
      </trkpt>
      <trkpt lat="42.513679" lon="-6.59671">
        <ele>636.41</ele>
        <time>2021-03-27T18:02:19Z</time>
      </trkpt>
      <trkpt lat="42.513758" lon="-6.59687">
        <ele>634.65</ele>
        <time>2021-03-27T18:02:21Z</time>
      </trkpt>
      <trkpt lat="42.51397" lon="-6.598032">
        <ele>637.55</ele>
        <time>2021-03-27T18:02:23Z</time>
      </trkpt>
      <trkpt lat="42.513913" lon="-6.598066">
        <ele>638.74</ele>
        <time>2021-03-27T18:02:24Z</time>
      </trkpt>
      <trkpt lat="42.5139" lon="-6.5981">
        <ele>639.18</ele>
        <time>2021-03-27T18:02:25Z</time>
      </trkpt>
      <trkpt lat="42.513881" lon="-6.598195">
        <ele>640.19</ele>
        <time>2021-03-27T18:02:27Z</time>
      </trkpt>
      <trkpt lat="42.513906" lon="-6.598317">
        <ele>640.81</ele>
        <time>2021-03-27T18:02:28Z</time>
      </trkpt>
      <trkpt lat="42.513949" lon="-6.598402">
        <ele>641.63</ele>
        <time>2021-03-27T18:02:30Z</time>
      </trkpt>
      <trkpt lat="42.514019" lon="-6.598453">
        <ele>642.23</ele>
        <time>2021-03-27T18:02:31Z</time>
      </trkpt>
      <trkpt lat="42.514108" lon="-6.598472">
        <ele>642.49</ele>
        <time>2021-03-27T18:02:33Z</time>
      </trkpt>
      <trkpt lat="42.514308" lon="-6.598411">
        <ele>642.27</ele>
        <time>2021-03-27T18:02:34Z</time>
      </trkpt>
      <trkpt lat="42.515634" lon="-6.597817">
        <ele>645.31</ele>
        <time>2021-03-27T18:02:35Z</time>
      </trkpt>
      <trkpt lat="42.515862" lon="-6.597792">
        <ele>647.2</ele>
        <time>2021-03-27T18:02:37Z</time>
      </trkpt>
      <trkpt lat="42.516008" lon="-6.597844">
        <ele>647.96</ele>
        <time>2021-03-27T18:02:38Z</time>
      </trkpt>
      <trkpt lat="42.5162" lon="-6.597964">
        <ele>649.36</ele>
        <time>2021-03-27T18:02:40Z</time>
      </trkpt>
      <trkpt lat="42.516603" lon="-6.598285">
        <ele>652.4</ele>
        <time>2021-03-27T18:02:41Z</time>
      </trkpt>
      <trkpt lat="42.516737" lon="-6.598438">
        <ele>653.79</ele>
        <time>2021-03-27T18:02:42Z</time>
      </trkpt>
      <trkpt lat="42.516816" lon="-6.598593">
        <ele>654.77</ele>
        <time>2021-03-27T18:02:44Z</time>
      </trkpt>
      <trkpt lat="42.516849" lon="-6.598837">
        <ele>655.53</ele>
        <time>2021-03-27T18:02:45Z</time>
      </trkpt>
      <trkpt lat="42.516826" lon="-6.598986">
        <ele>655.72</ele>
        <time>2021-03-27T18:02:47Z</time>
      </trkpt>
      <trkpt lat="42.516366" lon="-6.599948">
        <ele>661.81</ele>
        <time>2021-03-27T18:02:48Z</time>
      </trkpt>
      <trkpt lat="42.516348" lon="-6.600055">
        <ele>662.27</ele>
        <time>2021-03-27T18:02:49Z</time>
      </trkpt>
      <trkpt lat="42.516353" lon="-6.600403">
        <ele>661.16</ele>
        <time>2021-03-27T18:02:51Z</time>
      </trkpt>
      <trkpt lat="42.516341" lon="-6.60057">
        <ele>661.43</ele>
        <time>2021-03-27T18:02:52Z</time>
      </trkpt>
      <trkpt lat="42.516237" lon="-6.600937">
        <ele>664.65</ele>
        <time>2021-03-27T18:02:54Z</time>
      </trkpt>
      <trkpt lat="42.516152" lon="-6.601121">
        <ele>666.7</ele>
        <time>2021-03-27T18:02:55Z</time>
      </trkpt>
      <trkpt lat="42.516051" lon="-6.601285">
        <ele>667.42</ele>
        <time>2021-03-27T18:02:56Z</time>
      </trkpt>
      <trkpt lat="42.51595" lon="-6.601413">
        <ele>668.12</ele>
        <time>2021-03-27T18:02:58Z</time>
      </trkpt>
      <trkpt lat="42.515576" lon="-6.601987">
        <ele>668.75</ele>
        <time>2021-03-27T18:02:59Z</time>
      </trkpt>
      <trkpt lat="42.515209" lon="-6.602678">
        <ele>673.53</ele>
        <time>2021-03-27T18:03:01Z</time>
      </trkpt>
      <trkpt lat="42.515057" lon="-6.603084">
        <ele>676.18</ele>
        <time>2021-03-27T18:03:02Z</time>
      </trkpt>
      <trkpt lat="42.514828" lon="-6.60414">
        <ele>675.42</ele>
        <time>2021-03-27T18:03:03Z</time>
      </trkpt>
      <trkpt lat="42.514728" lon="-6.604499">
        <ele>675.67</ele>
        <time>2021-03-27T18:03:05Z</time>
      </trkpt>
      <trkpt lat="42.514575" lon="-6.6049">
        <ele>676.28</ele>
        <time>2021-03-27T18:03:06Z</time>
      </trkpt>
      <trkpt lat="42.514465" lon="-6.605065">
        <ele>677.72</ele>
        <time>2021-03-27T18:03:08Z</time>
      </trkpt>
      <trkpt lat="42.514356" lon="-6.605147">
        <ele>677.68</ele>
        <time>2021-03-27T18:03:09Z</time>
      </trkpt>
      <trkpt lat="42.513995" lon="-6.605293">
        <ele>674.47</ele>
        <time>2021-03-27T18:03:11Z</time>
      </trkpt>
      <trkpt lat="42.513849" lon="-6.605319">
        <ele>672.29</ele>
        <time>2021-03-27T18:03:12Z</time>
      </trkpt>
      <trkpt lat="42.512818" lon="-6.60513">
        <ele>661.18</ele>
        <time>2021-03-27T18:03:13Z</time>
      </trkpt>
      <trkpt lat="42.512559" lon="-6.60513">
        <ele>657.03</ele>
        <time>2021-03-27T18:03:15Z</time>
      </trkpt>
      <trkpt lat="42.511603" lon="-6.60519">
        <ele>644.79</ele>
        <time>2021-03-27T18:03:16Z</time>
      </trkpt>
      <trkpt lat="42.511123" lon="-6.605276">
        <ele>637.2</ele>
        <time>2021-03-27T18:03:18Z</time>
      </trkpt>
      <trkpt lat="42.511009" lon="-6.605224">
        <ele>635.7</ele>
        <time>2021-03-27T18:03:19Z</time>
      </trkpt>
      <trkpt lat="42.510882" lon="-6.605113">
        <ele>635.41</ele>
        <time>2021-03-27T18:03:20Z</time>
      </trkpt>
      <trkpt lat="42.510699" lon="-6.605063">
        <ele>635.26</ele>
        <time>2021-03-27T18:03:22Z</time>
      </trkpt>
      <trkpt lat="42.510613" lon="-6.605093">
        <ele>634.47</ele>
        <time>2021-03-27T18:03:23Z</time>
      </trkpt>
      <trkpt lat="42.510382" lon="-6.60537">
        <ele>628.05</ele>
        <time>2021-03-27T18:03:25Z</time>
      </trkpt>
      <trkpt lat="42.510351" lon="-6.605439">
        <ele>626.2</ele>
        <time>2021-03-27T18:03:26Z</time>
      </trkpt>
      <trkpt lat="42.510351" lon="-6.605499">
        <ele>624.69</ele>
        <time>2021-03-27T18:03:27Z</time>
      </trkpt>
      <trkpt lat="42.510376" lon="-6.605568">
        <ele>623.12</ele>
        <time>2021-03-27T18:03:29Z</time>
      </trkpt>
      <trkpt lat="42.510673" lon="-6.605662">
        <ele>624.49</ele>
        <time>2021-03-27T18:03:30Z</time>
      </trkpt>
      <trkpt lat="42.510762" lon="-6.605756">
        <ele>625.16</ele>
        <time>2021-03-27T18:03:32Z</time>
      </trkpt>
      <trkpt lat="42.510819" lon="-6.605937">
        <ele>626.04</ele>
        <time>2021-03-27T18:03:33Z</time>
      </trkpt>
      <trkpt lat="42.510819" lon="-6.606081">
        <ele>626.53</ele>
        <time>2021-03-27T18:03:34Z</time>
      </trkpt>
      <trkpt lat="42.51079" lon="-6.606142">
        <ele>626.34</ele>
        <time>2021-03-27T18:03:36Z</time>
      </trkpt>
      <trkpt lat="42.510692" lon="-6.60622">
        <ele>624.82</ele>
        <time>2021-03-27T18:03:37Z</time>
      </trkpt>
      <trkpt lat="42.510452" lon="-6.606331">
        <ele>620.14</ele>
        <time>2021-03-27T18:03:39Z</time>
      </trkpt>
      <trkpt lat="42.51023" lon="-6.606392">
        <ele>616.38</ele>
        <time>2021-03-27T18:03:40Z</time>
      </trkpt>
      <trkpt lat="42.509718" lon="-6.606469">
        <ele>610.0</ele>
        <time>2021-03-27T18:03:42Z</time>
      </trkpt>
      <trkpt lat="42.509509" lon="-6.606546">
        <ele>603.17</ele>
        <time>2021-03-27T18:03:43Z</time>
      </trkpt>
      <trkpt lat="42.509446" lon="-6.606623">
        <ele>601.6</ele>
        <time>2021-03-27T18:03:44Z</time>
      </trkpt>
      <trkpt lat="42.509433" lon="-6.606795">
        <ele>600.69</ele>
        <time>2021-03-27T18:03:46Z</time>
      </trkpt>
      <trkpt lat="42.509515" lon="-6.607018">
        <ele>603.73</ele>
        <time>2021-03-27T18:03:47Z</time>
      </trkpt>
      <trkpt lat="42.50956" lon="-6.607198">
        <ele>604.31</ele>
        <time>2021-03-27T18:03:49Z</time>
      </trkpt>
      <trkpt lat="42.509686" lon="-6.607876">
        <ele>598.29</ele>
        <time>2021-03-27T18:03:50Z</time>
      </trkpt>
      <trkpt lat="42.509712" lon="-6.608099">
        <ele>594.47</ele>
        <time>2021-03-27T18:03:51Z</time>
      </trkpt>
      <trkpt lat="42.509762" lon="-6.608323">
        <ele>592.82</ele>
        <time>2021-03-27T18:03:53Z</time>
      </trkpt>
      <trkpt lat="42.509428" lon="-6.60937">
        <ele>580.93</ele>
        <time>2021-03-27T18:03:54Z</time>
      </trkpt>
      <trkpt lat="42.509425" lon="-6.609441">
        <ele>581.02</ele>
        <time>2021-03-27T18:03:56Z</time>
      </trkpt>
      <trkpt lat="42.509443" lon="-6.609508">
        <ele>581.03</ele>
        <time>2021-03-27T18:03:57Z</time>
      </trkpt>
      <trkpt lat="42.509636" lon="-6.609765">
        <ele>586.66</ele>
        <time>2021-03-27T18:03:58Z</time>
      </trkpt>
      <trkpt lat="42.509636" lon="-6.609936">
        <ele>585.47</ele>
        <time>2021-03-27T18:04:00Z</time>
      </trkpt>
      <trkpt lat="42.509566" lon="-6.610202">
        <ele>577.69</ele>
        <time>2021-03-27T18:04:01Z</time>
      </trkpt>
      <trkpt lat="42.509573" lon="-6.610305">
        <ele>576.35</ele>
        <time>2021-03-27T18:04:03Z</time>
      </trkpt>
      <trkpt lat="42.509598" lon="-6.610469">
        <ele>574.88</ele>
        <time>2021-03-27T18:04:04Z</time>
      </trkpt>
      <trkpt lat="42.509715" lon="-6.610964">
        <ele>566.94</ele>
        <time>2021-03-27T18:04:05Z</time>
      </trkpt>
      <trkpt lat="42.509762" lon="-6.611078">
        <ele>564.58</ele>
        <time>2021-03-27T18:04:07Z</time>
      </trkpt>
      <trkpt lat="42.509895" lon="-6.611172">
        <ele>565.26</ele>
        <time>2021-03-27T18:04:08Z</time>
      </trkpt>
      <trkpt lat="42.509959" lon="-6.611267">
        <ele>563.58</ele>
        <time>2021-03-27T18:04:10Z</time>
      </trkpt>
      <trkpt lat="42.509965" lon="-6.611301">
        <ele>562.42</ele>
        <time>2021-03-27T18:04:11Z</time>
      </trkpt>
      <trkpt lat="42.509952" lon="-6.611327">
        <ele>561.04</ele>
        <time>2021-03-27T18:04:12Z</time>
      </trkpt>
      <trkpt lat="42.509914" lon="-6.611335">
        <ele>559.59</ele>
        <time>2021-03-27T18:04:14Z</time>
      </trkpt>
      <trkpt lat="42.50975" lon="-6.61125">
        <ele>557.86</ele>
        <time>2021-03-27T18:04:15Z</time>
      </trkpt>
      <trkpt lat="42.509579" lon="-6.611069">
        <ele>557.6</ele>
        <time>2021-03-27T18:04:17Z</time>
      </trkpt>
      <trkpt lat="42.509503" lon="-6.610898">
        <ele>559.18</ele>
        <time>2021-03-27T18:04:18Z</time>
      </trkpt>
      <trkpt lat="42.509338" lon="-6.610632">
        <ele>558.82</ele>
        <time>2021-03-27T18:04:20Z</time>
      </trkpt>
      <trkpt lat="42.508997" lon="-6.61034">
        <ele>552.24</ele>
        <time>2021-03-27T18:04:21Z</time>
      </trkpt>
      <trkpt lat="42.508897" lon="-6.610273">
        <ele>550.23</ele>
        <time>2021-03-27T18:04:22Z</time>
      </trkpt>
      <trkpt lat="42.508835" lon="-6.610344">
        <ele>549.42</ele>
        <time>2021-03-27T18:04:26Z</time>
      </trkpt>
      <trkpt lat="42.509305" lon="-6.610856">
        <ele>553.02</ele>
        <time>2021-03-27T18:04:45Z</time>
      </trkpt>
      <trkpt lat="42.50945" lon="-6.611227">
        <ele>548.26</ele>
        <time>2021-03-27T18:05:05Z</time>
      </trkpt>
      <trkpt lat="42.50963" lon="-6.611517">
        <ele>547.65</ele>
        <time>2021-03-27T18:05:24Z</time>
      </trkpt>
      <trkpt lat="42.510314" lon="-6.612145">
        <ele>545.98</ele>
        <time>2021-03-27T18:05:43Z</time>
      </trkpt>
      <trkpt lat="42.510569" lon="-6.612417">
        <ele>540.24</ele>
        <time>2021-03-27T18:06:02Z</time>
      </trkpt>
      <trkpt lat="42.510838" lon="-6.612889">
        <ele>543.19</ele>
        <time>2021-03-27T18:06:21Z</time>
      </trkpt>
      <trkpt lat="42.511139" lon="-6.613308">
        <ele>547.41</ele>
        <time>2021-03-27T18:06:41Z</time>
      </trkpt>
      <trkpt lat="42.511486" lon="-6.613883">
        <ele>540.42</ele>
        <time>2021-03-27T18:07:00Z</time>
      </trkpt>
      <trkpt lat="42.511801" lon="-6.614348">
        <ele>539.26</ele>
        <time>2021-03-27T18:07:19Z</time>
      </trkpt>
      <trkpt lat="42.512201" lon="-6.6152">
        <ele>544.84</ele>
        <time>2021-03-27T18:07:38Z</time>
      </trkpt>
      <trkpt lat="42.512329" lon="-6.615689">
        <ele>545.74</ele>
        <time>2021-03-27T18:07:58Z</time>
      </trkpt>
      <trkpt lat="42.51237" lon="-6.616067">
        <ele>545.06</ele>
        <time>2021-03-27T18:08:17Z</time>
      </trkpt>
      <trkpt lat="42.512434" lon="-6.616436">
        <ele>540.74</ele>
        <time>2021-03-27T18:08:36Z</time>
      </trkpt>
      <trkpt lat="42.512592" lon="-6.61684">
        <ele>536.99</ele>
        <time>2021-03-27T18:08:55Z</time>
      </trkpt>
      <trkpt lat="42.513206" lon="-6.617698">
        <ele>533.33</ele>
        <time>2021-03-27T18:09:14Z</time>
      </trkpt>
      <trkpt lat="42.513828" lon="-6.618413">
        <ele>537.39</ele>
        <time>2021-03-27T18:09:34Z</time>
      </trkpt>
      <trkpt lat="42.513894" lon="-6.618629">
        <ele>537.1</ele>
        <time>2021-03-27T18:09:53Z</time>
      </trkpt>
      <trkpt lat="42.513932" lon="-6.618907">
        <ele>537.29</ele>
        <time>2021-03-27T18:10:12Z</time>
      </trkpt>
      <trkpt lat="42.513979" lon="-6.619002">
        <ele>537.38</ele>
        <time>2021-03-27T18:10:31Z</time>
      </trkpt>
      <trkpt lat="42.514049" lon="-6.619075">
        <ele>537.38</ele>
        <time>2021-03-27T18:10:51Z</time>
      </trkpt>
      <trkpt lat="42.514549" lon="-6.619356">
        <ele>535.7</ele>
        <time>2021-03-27T18:11:10Z</time>
      </trkpt>
      <trkpt lat="42.515029" lon="-6.619484">
        <ele>534.08</ele>
        <time>2021-03-27T18:11:29Z</time>
      </trkpt>
      <trkpt lat="42.515673" lon="-6.619582">
        <ele>529.0</ele>
        <time>2021-03-27T18:11:48Z</time>
      </trkpt>
      <trkpt lat="42.51579" lon="-6.619646">
        <ele>529.05</ele>
        <time>2021-03-27T18:12:08Z</time>
      </trkpt>
      <trkpt lat="42.516415" lon="-6.620586">
        <ele>530.6</ele>
        <time>2021-03-27T18:12:27Z</time>
      </trkpt>
      <trkpt lat="42.516484" lon="-6.620833">
        <ele>530.08</ele>
        <time>2021-03-27T18:12:46Z</time>
      </trkpt>
      <trkpt lat="42.516553" lon="-6.621353">
        <ele>526.99</ele>
        <time>2021-03-27T18:13:05Z</time>
      </trkpt>
      <trkpt lat="42.516649" lon="-6.621695">
        <ele>528.77</ele>
        <time>2021-03-27T18:13:24Z</time>
      </trkpt>
      <trkpt lat="42.516895" lon="-6.622045">
        <ele>526.49</ele>
        <time>2021-03-27T18:13:44Z</time>
      </trkpt>
      <trkpt lat="42.517299" lon="-6.622833">
        <ele>521.99</ele>
        <time>2021-03-27T18:14:03Z</time>
      </trkpt>
      <trkpt lat="42.51745" lon="-6.622927">
        <ele>522.63</ele>
        <time>2021-03-27T18:14:22Z</time>
      </trkpt>
      <trkpt lat="42.517742" lon="-6.62321">
        <ele>524.74</ele>
        <time>2021-03-27T18:14:41Z</time>
      </trkpt>
      <trkpt lat="42.517971" lon="-6.623571">
        <ele>524.78</ele>
        <time>2021-03-27T18:15:01Z</time>
      </trkpt>
      <trkpt lat="42.518148" lon="-6.623922">
        <ele>523.21</ele>
        <time>2021-03-27T18:15:20Z</time>
      </trkpt>
      <trkpt lat="42.518269" lon="-6.624462">
        <ele>523.32</ele>
        <time>2021-03-27T18:15:39Z</time>
      </trkpt>
      <trkpt lat="42.518377" lon="-6.624735">
        <ele>524.27</ele>
        <time>2021-03-27T18:15:58Z</time>
      </trkpt>
      <trkpt lat="42.518549" lon="-6.625063">
        <ele>524.35</ele>
        <time>2021-03-27T18:16:17Z</time>
      </trkpt>
      <trkpt lat="42.518976" lon="-6.625688">
        <ele>520.66</ele>
        <time>2021-03-27T18:16:37Z</time>
      </trkpt>
      <trkpt lat="42.519145" lon="-6.626037">
        <ele>522.5</ele>
        <time>2021-03-27T18:16:56Z</time>
      </trkpt>
      <trkpt lat="42.519662" lon="-6.627551">
        <ele>521.25</ele>
        <time>2021-03-27T18:17:15Z</time>
      </trkpt>
      <trkpt lat="42.5197" lon="-6.627699">
        <ele>520.45</ele>
        <time>2021-03-27T18:17:34Z</time>
      </trkpt>
      <trkpt lat="42.519806" lon="-6.627794">
        <ele>519.83</ele>
        <time>2021-03-27T18:17:54Z</time>
      </trkpt>
      <trkpt lat="42.520033" lon="-6.627864">
        <ele>519.96</ele>
        <time>2021-03-27T18:18:13Z</time>
      </trkpt>
      <trkpt lat="42.519935" lon="-6.628021">
        <ele>521.66</ele>
        <time>2021-03-27T18:18:19Z</time>
      </trkpt>
      <trkpt lat="42.519715" lon="-6.628173">
        <ele>522.41</ele>
        <time>2021-03-27T18:18:25Z</time>
      </trkpt>
      <trkpt lat="42.51965" lon="-6.628289">
        <ele>522.62</ele>
        <time>2021-03-27T18:18:32Z</time>
      </trkpt>
      <trkpt lat="42.519637" lon="-6.628467">
        <ele>524.32</ele>
        <time>2021-03-27T18:18:38Z</time>
      </trkpt>
      <trkpt lat="42.519508" lon="-6.628735">
        <ele>525.68</ele>
        <time>2021-03-27T18:18:44Z</time>
      </trkpt>
      <trkpt lat="42.519347" lon="-6.629345">
        <ele>530.29</ele>
        <time>2021-03-27T18:18:50Z</time>
      </trkpt>
      <trkpt lat="42.519102" lon="-6.630159">
        <ele>536.1</ele>
        <time>2021-03-27T18:18:57Z</time>
      </trkpt>
      <trkpt lat="42.518594" lon="-6.63084">
        <ele>533.09</ele>
        <time>2021-03-27T18:19:03Z</time>
      </trkpt>
      <trkpt lat="42.51845" lon="-6.631272">
        <ele>535.59</ele>
        <time>2021-03-27T18:19:09Z</time>
      </trkpt>
      <trkpt lat="42.518332" lon="-6.631725">
        <ele>537.42</ele>
        <time>2021-03-27T18:19:15Z</time>
      </trkpt>
      <trkpt lat="42.518331" lon="-6.631884">
        <ele>538.56</ele>
        <time>2021-03-27T18:19:22Z</time>
      </trkpt>
      <trkpt lat="42.518386" lon="-6.632001">
        <ele>540.02</ele>
        <time>2021-03-27T18:19:28Z</time>
      </trkpt>
      <trkpt lat="42.518494" lon="-6.632125">
        <ele>542.41</ele>
        <time>2021-03-27T18:19:34Z</time>
      </trkpt>
      <trkpt lat="42.518506" lon="-6.632231">
        <ele>543.59</ele>
        <time>2021-03-27T18:19:40Z</time>
      </trkpt>
      <trkpt lat="42.518412" lon="-6.632765">
        <ele>547.29</ele>
        <time>2021-03-27T18:19:47Z</time>
      </trkpt>
      <trkpt lat="42.518342" lon="-6.63334">
        <ele>548.07</ele>
        <time>2021-03-27T18:19:53Z</time>
      </trkpt>
      <trkpt lat="42.518305" lon="-6.63351">
        <ele>546.39</ele>
        <time>2021-03-27T18:19:59Z</time>
      </trkpt>
      <trkpt lat="42.518207" lon="-6.633678">
        <ele>543.64</ele>
        <time>2021-03-27T18:20:05Z</time>
      </trkpt>
      <trkpt lat="42.518093" lon="-6.633829">
        <ele>540.84</ele>
        <time>2021-03-27T18:20:12Z</time>
      </trkpt>
      <trkpt lat="42.518021" lon="-6.6338">
        <ele>540.88</ele>
        <time>2021-03-27T18:20:12Z</time>
      </trkpt>
      <trkpt lat="42.517945" lon="-6.633817">
        <ele>540.57</ele>
        <time>2021-03-27T18:20:13Z</time>
      </trkpt>
      <trkpt lat="42.51785" lon="-6.633912">
        <ele>539.77</ele>
        <time>2021-03-27T18:20:13Z</time>
      </trkpt>
      <trkpt lat="42.517692" lon="-6.634015">
        <ele>540.49</ele>
        <time>2021-03-27T18:20:14Z</time>
      </trkpt>
      <trkpt lat="42.517589" lon="-6.634051">
        <ele>541.83</ele>
        <time>2021-03-27T18:20:15Z</time>
      </trkpt>
      <trkpt lat="42.517613" lon="-6.634172">
        <ele>540.32</ele>
        <time>2021-03-27T18:20:21Z</time>
      </trkpt>
      <trkpt lat="42.517604" lon="-6.634439">
        <ele>537.57</ele>
        <time>2021-03-27T18:20:28Z</time>
      </trkpt>
      <trkpt lat="42.51756" lon="-6.634685">
        <ele>535.72</ele>
        <time>2021-03-27T18:20:35Z</time>
      </trkpt>
      <trkpt lat="42.517443" lon="-6.635133">
        <ele>533.56</ele>
        <time>2021-03-27T18:20:41Z</time>
      </trkpt>
      <trkpt lat="42.517292" lon="-6.635563">
        <ele>531.44</ele>
        <time>2021-03-27T18:20:48Z</time>
      </trkpt>
      <trkpt lat="42.517033" lon="-6.636214">
        <ele>530.41</ele>
        <time>2021-03-27T18:20:54Z</time>
      </trkpt>
      <trkpt lat="42.515736" lon="-6.639246">
        <ele>529.0</ele>
        <time>2021-03-27T18:21:01Z</time>
      </trkpt>
      <trkpt lat="42.51535" lon="-6.641512">
        <ele>530.0</ele>
        <time>2021-03-27T18:21:07Z</time>
      </trkpt>
      <trkpt lat="42.513932" lon="-6.643465">
        <ele>537.78</ele>
        <time>2021-03-27T18:21:14Z</time>
      </trkpt>
      <trkpt lat="42.513881" lon="-6.643612">
        <ele>539.12</ele>
        <time>2021-03-27T18:21:21Z</time>
      </trkpt>
      <trkpt lat="42.513937" lon="-6.643744">
        <ele>538.21</ele>
        <time>2021-03-27T18:21:27Z</time>
      </trkpt>
      <trkpt lat="42.514103" lon="-6.643933">
        <ele>535.91</ele>
        <time>2021-03-27T18:21:34Z</time>
      </trkpt>
      <trkpt lat="42.514295" lon="-6.644047">
        <ele>534.6</ele>
        <time>2021-03-27T18:21:40Z</time>
      </trkpt>
      <trkpt lat="42.514806" lon="-6.644777">
        <ele>535.2</ele>
        <time>2021-03-27T18:21:47Z</time>
      </trkpt>
      <trkpt lat="42.514865" lon="-6.644882">
        <ele>535.58</ele>
        <time>2021-03-27T18:21:54Z</time>
      </trkpt>
      <trkpt lat="42.514975" lon="-6.645154">
        <ele>536.05</ele>
        <time>2021-03-27T18:22:00Z</time>
      </trkpt>
      <trkpt lat="42.51514" lon="-6.645433">
        <ele>536.28</ele>
        <time>2021-03-27T18:22:07Z</time>
      </trkpt>
      <trkpt lat="42.515348" lon="-6.64568">
        <ele>535.86</ele>
        <time>2021-03-27T18:22:13Z</time>
      </trkpt>
      <trkpt lat="42.516152" lon="-6.645633">
        <ele>534.89</ele>
        <time>2021-03-27T18:22:18Z</time>
      </trkpt>
      <trkpt lat="42.51626" lon="-6.645599">
        <ele>534.55</ele>
        <time>2021-03-27T18:22:22Z</time>
      </trkpt>
      <trkpt lat="42.516355" lon="-6.645539">
        <ele>534.11</ele>
        <time>2021-03-27T18:22:26Z</time>
      </trkpt>
      <trkpt lat="42.51645" lon="-6.645462">
        <ele>534.0</ele>
        <time>2021-03-27T18:22:30Z</time>
      </trkpt>
      <trkpt lat="42.517368" lon="-6.644279">
        <ele>531.69</ele>
        <time>2021-03-27T18:22:34Z</time>
      </trkpt>
      <trkpt lat="42.517519" lon="-6.644114">
        <ele>530.81</ele>
        <time>2021-03-27T18:22:38Z</time>
      </trkpt>
      <trkpt lat="42.518544" lon="-6.643324">
        <ele>526.71</ele>
        <time>2021-03-27T18:22:42Z</time>
      </trkpt>
      <trkpt lat="42.518696" lon="-6.643235">
        <ele>526.49</ele>
        <time>2021-03-27T18:22:47Z</time>
      </trkpt>
      <trkpt lat="42.518867" lon="-6.643156">
        <ele>526.05</ele>
        <time>2021-03-27T18:22:51Z</time>
      </trkpt>
      <trkpt lat="42.51967" lon="-6.64293">
        <ele>526.91</ele>
        <time>2021-03-27T18:22:55Z</time>
      </trkpt>
      <trkpt lat="42.520076" lon="-6.642729">
        <ele>525.72</ele>
        <time>2021-03-27T18:22:59Z</time>
      </trkpt>
      <trkpt lat="42.520808" lon="-6.64232">
        <ele>523.56</ele>
        <time>2021-03-27T18:23:03Z</time>
      </trkpt>
      <trkpt lat="42.521764" lon="-6.641965">
        <ele>515.35</ele>
        <time>2021-03-27T18:23:07Z</time>
      </trkpt>
      <trkpt lat="42.524464" lon="-6.640444">
        <ele>500.9</ele>
        <time>2021-03-27T18:23:11Z</time>
      </trkpt>
      <trkpt lat="42.52477" lon="-6.640991">
        <ele>499.29</ele>
        <time>2021-03-27T18:23:15Z</time>
      </trkpt>
      <trkpt lat="42.525052" lon="-6.641547">
        <ele>500.0</ele>
        <time>2021-03-27T18:23:18Z</time>
      </trkpt>
      <trkpt lat="42.526203" lon="-6.643495">
        <ele>496.33</ele>
        <time>2021-03-27T18:23:21Z</time>
      </trkpt>
      <trkpt lat="42.526242" lon="-6.643761">
        <ele>496.22</ele>
        <time>2021-03-27T18:23:24Z</time>
      </trkpt>
      <trkpt lat="42.526242" lon="-6.644182">
        <ele>495.53</ele>
        <time>2021-03-27T18:23:28Z</time>
      </trkpt>
      <trkpt lat="42.526203" lon="-6.644628">
        <ele>495.45</ele>
        <time>2021-03-27T18:23:31Z</time>
      </trkpt>
      <trkpt lat="42.526109" lon="-6.645134">
        <ele>494.52</ele>
        <time>2021-03-27T18:23:34Z</time>
      </trkpt>
      <trkpt lat="42.525906" lon="-6.64601">
        <ele>489.52</ele>
        <time>2021-03-27T18:23:37Z</time>
      </trkpt>
      <trkpt lat="42.525704" lon="-6.646765">
        <ele>487.27</ele>
        <time>2021-03-27T18:23:40Z</time>
      </trkpt>
      <trkpt lat="42.525521" lon="-6.647521">
        <ele>487.78</ele>
        <time>2021-03-27T18:23:44Z</time>
      </trkpt>
      <trkpt lat="42.524812" lon="-6.648825">
        <ele>489.33</ele>
        <time>2021-03-27T18:23:47Z</time>
      </trkpt>
      <trkpt lat="42.524705" lon="-6.64916">
        <ele>488.81</ele>
        <time>2021-03-27T18:23:50Z</time>
      </trkpt>
      <trkpt lat="42.524667" lon="-6.649452">
        <ele>487.35</ele>
        <time>2021-03-27T18:23:53Z</time>
      </trkpt>
      <trkpt lat="42.524679" lon="-6.649949">
        <ele>486.79</ele>
        <time>2021-03-27T18:23:56Z</time>
      </trkpt>
      <trkpt lat="42.524647" lon="-6.650113">
        <ele>486.61</ele>
        <time>2021-03-27T18:24:00Z</time>
      </trkpt>
      <trkpt lat="42.524357" lon="-6.651031">
        <ele>478.14</ele>
        <time>2021-03-27T18:24:03Z</time>
      </trkpt>
      <trkpt lat="42.524148" lon="-6.651597">
        <ele>474.25</ele>
        <time>2021-03-27T18:24:06Z</time>
      </trkpt>
      <trkpt lat="42.523895" lon="-6.652001">
        <ele>473.78</ele>
        <time>2021-03-27T18:24:09Z</time>
      </trkpt>
      <trkpt lat="42.523389" lon="-6.652696">
        <ele>471.8</ele>
        <time>2021-03-27T18:24:13Z</time>
      </trkpt>
      <trkpt lat="42.522836" lon="-6.653401">
        <ele>471.24</ele>
        <time>2021-03-27T18:24:16Z</time>
      </trkpt>
      <trkpt lat="42.522863" lon="-6.653553">
        <ele>471.79</ele>
        <time>2021-03-27T18:24:16Z</time>
      </trkpt>
      <trkpt lat="42.523142" lon="-6.653466">
        <ele>472.25</ele>
        <time>2021-03-27T18:24:25Z</time>
      </trkpt>
      <trkpt lat="42.523341" lon="-6.653444">
        <ele>473.82</ele>
        <time>2021-03-27T18:24:33Z</time>
      </trkpt>
      <trkpt lat="42.523533" lon="-6.653469">
        <ele>474.69</ele>
        <time>2021-03-27T18:24:42Z</time>
      </trkpt>
      <trkpt lat="42.524785" lon="-6.653981">
        <ele>474.33</ele>
        <time>2021-03-27T18:24:50Z</time>
      </trkpt>
      <trkpt lat="42.532089" lon="-6.657264">
        <ele>474.67</ele>
        <time>2021-03-27T18:24:59Z</time>
      </trkpt>
      <trkpt lat="42.534282" lon="-6.658257">
        <ele>476.3</ele>
        <time>2021-03-27T18:25:07Z</time>
      </trkpt>
      <trkpt lat="42.535419" lon="-6.658746">
        <ele>476.02</ele>
        <time>2021-03-27T18:25:15Z</time>
      </trkpt>
      <trkpt lat="42.535968" lon="-6.659008">
        <ele>477.27</ele>
        <time>2021-03-27T18:25:24Z</time>
      </trkpt>
      <trkpt lat="42.540296" lon="-6.660945">
        <ele>482.0</ele>
        <time>2021-03-27T18:25:32Z</time>
      </trkpt>
      <trkpt lat="42.541095" lon="-6.661231">
        <ele>480.55</ele>
        <time>2021-03-27T18:25:41Z</time>
      </trkpt>
      <trkpt lat="42.541764" lon="-6.661366">
        <ele>479.57</ele>
        <time>2021-03-27T18:25:49Z</time>
      </trkpt>
      <trkpt lat="42.542171" lon="-6.661415">
        <ele>479.0</ele>
        <time>2021-03-27T18:25:58Z</time>
      </trkpt>
      <trkpt lat="42.543395" lon="-6.661382">
        <ele>479.22</ele>
        <time>2021-03-27T18:26:06Z</time>
      </trkpt>
      <trkpt lat="42.547373" lon="-6.660954">
        <ele>480.31</ele>
        <time>2021-03-27T18:26:14Z</time>
      </trkpt>
      <trkpt lat="42.548264" lon="-6.660834">
        <ele>481.0</ele>
        <time>2021-03-27T18:26:23Z</time>
      </trkpt>
      <trkpt lat="42.549131" lon="-6.660647">
        <ele>482.87</ele>
        <time>2021-03-27T18:26:31Z</time>
      </trkpt>
      <trkpt lat="42.549944" lon="-6.660281">
        <ele>487.02</ele>
        <time>2021-03-27T18:26:40Z</time>
      </trkpt>
      <trkpt lat="42.553703" lon="-6.658051">
        <ele>490.0</ele>
        <time>2021-03-27T18:26:48Z</time>
      </trkpt>
      <trkpt lat="42.555078" lon="-6.657139">
        <ele>494.28</ele>
        <time>2021-03-27T18:26:56Z</time>
      </trkpt>
      <trkpt lat="42.556026" lon="-6.656393">
        <ele>494.62</ele>
        <time>2021-03-27T18:27:05Z</time>
      </trkpt>
      <trkpt lat="42.557249" lon="-6.65537">
        <ele>497.0</ele>
        <time>2021-03-27T18:27:13Z</time>
      </trkpt>
      <trkpt lat="42.558131" lon="-6.654528">
        <ele>496.22</ele>
        <time>2021-03-27T18:27:22Z</time>
      </trkpt>
      <trkpt lat="42.558817" lon="-6.653825">
        <ele>497.74</ele>
        <time>2021-03-27T18:27:30Z</time>
      </trkpt>
      <trkpt lat="42.559415" lon="-6.65329">
        <ele>499.14</ele>
        <time>2021-03-27T18:27:39Z</time>
      </trkpt>
      <trkpt lat="42.5601" lon="-6.652632">
        <ele>499.55</ele>
        <time>2021-03-27T18:27:47Z</time>
      </trkpt>
      <trkpt lat="42.561023" lon="-6.651894">
        <ele>499.87</ele>
        <time>2021-03-27T18:27:55Z</time>
      </trkpt>
      <trkpt lat="42.561596" lon="-6.651405">
        <ele>499.06</ele>
        <time>2021-03-27T18:28:04Z</time>
      </trkpt>
      <trkpt lat="42.561861" lon="-6.651223">
        <ele>498.72</ele>
        <time>2021-03-27T18:28:12Z</time>
      </trkpt>
      <trkpt lat="42.562521" lon="-6.650877">
        <ele>501.17</ele>
        <time>2021-03-27T18:28:21Z</time>
      </trkpt>
      <trkpt lat="42.562951" lon="-6.65074">
        <ele>502.45</ele>
        <time>2021-03-27T18:28:29Z</time>
      </trkpt>
      <trkpt lat="42.563493" lon="-6.65063">
        <ele>501.11</ele>
        <time>2021-03-27T18:28:38Z</time>
      </trkpt>
      <trkpt lat="42.563617" lon="-6.650551">
        <ele>501.02</ele>
        <time>2021-03-27T18:28:46Z</time>
      </trkpt>
      <trkpt lat="42.563738" lon="-6.650385">
        <ele>501.61</ele>
        <time>2021-03-27T18:28:54Z</time>
      </trkpt>
      <trkpt lat="42.563802" lon="-6.6503">
        <ele>501.92</ele>
        <time>2021-03-27T18:29:04Z</time>
      </trkpt>
      <trkpt lat="42.563888" lon="-6.650261">
        <ele>502.0</ele>
        <time>2021-03-27T18:29:14Z</time>
      </trkpt>
      <trkpt lat="42.563985" lon="-6.650279">
        <ele>501.65</ele>
        <time>2021-03-27T18:29:24Z</time>
      </trkpt>
      <trkpt lat="42.564071" lon="-6.650366">
        <ele>501.23</ele>
        <time>2021-03-27T18:29:33Z</time>
      </trkpt>
      <trkpt lat="42.564113" lon="-6.650509">
        <ele>501.03</ele>
        <time>2021-03-27T18:29:43Z</time>
      </trkpt>
      <trkpt lat="42.564106" lon="-6.650617">
        <ele>501.22</ele>
        <time>2021-03-27T18:29:53Z</time>
      </trkpt>
      <trkpt lat="42.564083" lon="-6.650687">
        <ele>501.47</ele>
        <time>2021-03-27T18:30:03Z</time>
      </trkpt>
      <trkpt lat="42.564072" lon="-6.650861">
        <ele>501.97</ele>
        <time>2021-03-27T18:30:12Z</time>
      </trkpt>
      <trkpt lat="42.564101" lon="-6.651077">
        <ele>501.79</ele>
        <time>2021-03-27T18:30:22Z</time>
      </trkpt>
      <trkpt lat="42.564163" lon="-6.651336">
        <ele>501.19</ele>
        <time>2021-03-27T18:30:32Z</time>
      </trkpt>
      <trkpt lat="42.564202" lon="-6.651637">
        <ele>500.22</ele>
        <time>2021-03-27T18:30:41Z</time>
      </trkpt>
      <trkpt lat="42.564213" lon="-6.652546">
        <ele>501.03</ele>
        <time>2021-03-27T18:30:51Z</time>
      </trkpt>
      <trkpt lat="42.564166" lon="-6.65292">
        <ele>500.48</ele>
        <time>2021-03-27T18:31:01Z</time>
      </trkpt>
      <trkpt lat="42.5639" lon="-6.65456">
        <ele>499.15</ele>
        <time>2021-03-27T18:31:11Z</time>
      </trkpt>
      <trkpt lat="42.563905" lon="-6.654785">
        <ele>497.56</ele>
        <time>2021-03-27T18:31:20Z</time>
      </trkpt>
      <trkpt lat="42.564259" lon="-6.657357">
        <ele>495.86</ele>
        <time>2021-03-27T18:31:30Z</time>
      </trkpt>
      <trkpt lat="42.564275" lon="-6.658258">
        <ele>494.22</ele>
        <time>2021-03-27T18:31:40Z</time>
      </trkpt>
      <trkpt lat="42.564265" lon="-6.660727">
        <ele>492.74</ele>
        <time>2021-03-27T18:31:50Z</time>
      </trkpt>
      <trkpt lat="42.564289" lon="-6.665757">
        <ele>493.0</ele>
        <time>2021-03-27T18:31:59Z</time>
      </trkpt>
      <trkpt lat="42.564353" lon="-6.673084">
        <ele>486.27</ele>
        <time>2021-03-27T18:32:09Z</time>
      </trkpt>
      <trkpt lat="42.564429" lon="-6.685941">
        <ele>480.0</ele>
        <time>2021-03-27T18:32:19Z</time>
      </trkpt>
      <trkpt lat="42.564405" lon="-6.687492">
        <ele>482.0</ele>
        <time>2021-03-27T18:32:29Z</time>
      </trkpt>
      <trkpt lat="42.56411" lon="-6.696372">
        <ele>478.8</ele>
        <time>2021-03-27T18:32:38Z</time>
      </trkpt>
      <trkpt lat="42.564131" lon="-6.696376">
        <ele>478.87</ele>
        <time>2021-03-27T18:32:42Z</time>
      </trkpt>
      <trkpt lat="42.565353" lon="-6.696455">
        <ele>480.49</ele>
        <time>2021-03-27T18:32:46Z</time>
      </trkpt>
      <trkpt lat="42.565715" lon="-6.696411">
        <ele>479.87</ele>
        <time>2021-03-27T18:32:50Z</time>
      </trkpt>
      <trkpt lat="42.566039" lon="-6.69642">
        <ele>480.52</ele>
        <time>2021-03-27T18:32:54Z</time>
      </trkpt>
      <trkpt lat="42.567443" lon="-6.696287">
        <ele>476.56</ele>
        <time>2021-03-27T18:32:58Z</time>
      </trkpt>
      <trkpt lat="42.567826" lon="-6.696314">
        <ele>477.0</ele>
        <time>2021-03-27T18:33:02Z</time>
      </trkpt>
      <trkpt lat="42.569931" lon="-6.696211">
        <ele>477.91</ele>
        <time>2021-03-27T18:33:06Z</time>
      </trkpt>
      <trkpt lat="42.570337" lon="-6.696141">
        <ele>477.11</ele>
        <time>2021-03-27T18:33:10Z</time>
      </trkpt>
      <trkpt lat="42.570645" lon="-6.696025">
        <ele>477.0</ele>
        <time>2021-03-27T18:33:14Z</time>
      </trkpt>
      <trkpt lat="42.57092" lon="-6.695844">
        <ele>477.0</ele>
        <time>2021-03-27T18:33:17Z</time>
      </trkpt>
      <trkpt lat="42.571454" lon="-6.69536">
        <ele>478.0</ele>
        <time>2021-03-27T18:33:21Z</time>
      </trkpt>
      <trkpt lat="42.571845" lon="-6.695063">
        <ele>478.49</ele>
        <time>2021-03-27T18:33:25Z</time>
      </trkpt>
      <trkpt lat="42.572394" lon="-6.694805">
        <ele>479.82</ele>
        <time>2021-03-27T18:33:29Z</time>
      </trkpt>
      <trkpt lat="42.57316" lon="-6.694552">
        <ele>475.24</ele>
        <time>2021-03-27T18:33:33Z</time>
      </trkpt>
      <trkpt lat="42.57375" lon="-6.694316">
        <ele>480.0</ele>
        <time>2021-03-27T18:33:37Z</time>
      </trkpt>
      <trkpt lat="42.574345" lon="-6.694129">
        <ele>483.11</ele>
        <time>2021-03-27T18:33:41Z</time>
      </trkpt>
      <trkpt lat="42.574708" lon="-6.694062">
        <ele>483.63</ele>
        <time>2021-03-27T18:33:45Z</time>
      </trkpt>
      <trkpt lat="42.575018" lon="-6.694051">
        <ele>485.75</ele>
        <time>2021-03-27T18:33:49Z</time>
      </trkpt>
      <trkpt lat="42.575638" lon="-6.694082">
        <ele>480.64</ele>
        <time>2021-03-27T18:33:53Z</time>
      </trkpt>
      <trkpt lat="42.576364" lon="-6.694211">
        <ele>477.93</ele>
        <time>2021-03-27T18:33:57Z</time>
      </trkpt>
      <trkpt lat="42.576679" lon="-6.694323">
        <ele>477.0</ele>
        <time>2021-03-27T18:34:00Z</time>
      </trkpt>
      <trkpt lat="42.576873" lon="-6.694349">
        <ele>477.0</ele>
        <time>2021-03-27T18:34:04Z</time>
      </trkpt>
      <trkpt lat="42.577159" lon="-6.694338">
        <ele>477.77</ele>
        <time>2021-03-27T18:34:08Z</time>
      </trkpt>
      <trkpt lat="42.577835" lon="-6.694571">
        <ele>480.43</ele>
        <time>2021-03-27T18:34:12Z</time>
      </trkpt>
      <trkpt lat="42.578199" lon="-6.694623">
        <ele>479.3</ele>
        <time>2021-03-27T18:34:16Z</time>
      </trkpt>
      <trkpt lat="42.578491" lon="-6.694694">
        <ele>478.95</ele>
        <time>2021-03-27T18:34:20Z</time>
      </trkpt>
      <trkpt lat="42.579055" lon="-6.694881">
        <ele>478.4</ele>
        <time>2021-03-27T18:34:24Z</time>
      </trkpt>
      <trkpt lat="42.579116" lon="-6.694458">
        <ele>478.79</ele>
        <time>2021-03-27T18:34:28Z</time>
      </trkpt>
      <trkpt lat="42.579107" lon="-6.692694">
        <ele>480.85</ele>
        <time>2021-03-27T18:34:33Z</time>
      </trkpt>
      <trkpt lat="42.579146" lon="-6.692087">
        <ele>480.48</ele>
        <time>2021-03-27T18:34:37Z</time>
      </trkpt>
      <trkpt lat="42.57916" lon="-6.691625">
        <ele>479.02</ele>
        <time>2021-03-27T18:34:42Z</time>
      </trkpt>
      <trkpt lat="42.579032" lon="-6.689511">
        <ele>477.12</ele>
        <time>2021-03-27T18:34:46Z</time>
      </trkpt>
      <trkpt lat="42.57909" lon="-6.687865">
        <ele>478.77</ele>
        <time>2021-03-27T18:34:51Z</time>
      </trkpt>
      <trkpt lat="42.579126" lon="-6.687364">
        <ele>479.0</ele>
        <time>2021-03-27T18:34:55Z</time>
      </trkpt>
      <trkpt lat="42.57919" lon="-6.686798">
        <ele>481.05</ele>
        <time>2021-03-27T18:34:59Z</time>
      </trkpt>
      <trkpt lat="42.579257" lon="-6.686372">
        <ele>483.0</ele>
        <time>2021-03-27T18:35:04Z</time>
      </trkpt>
      <trkpt lat="42.579581" lon="-6.684803">
        <ele>484.49</ele>
        <time>2021-03-27T18:35:08Z</time>
      </trkpt>
      <trkpt lat="42.579651" lon="-6.684362">
        <ele>483.92</ele>
        <time>2021-03-27T18:35:13Z</time>
      </trkpt>
      <trkpt lat="42.579727" lon="-6.683271">
        <ele>484.96</ele>
        <time>2021-03-27T18:35:17Z</time>
      </trkpt>
      <trkpt lat="42.579891" lon="-6.68022">
        <ele>485.08</ele>
        <time>2021-03-27T18:35:22Z</time>
      </trkpt>
      <trkpt lat="42.579924" lon="-6.679374">
        <ele>485.46</ele>
        <time>2021-03-27T18:35:26Z</time>
      </trkpt>
      <trkpt lat="42.579907" lon="-6.678975">
        <ele>486.46</ele>
        <time>2021-03-27T18:35:31Z</time>
      </trkpt>
      <trkpt lat="42.579875" lon="-6.678695">
        <ele>486.23</ele>
        <time>2021-03-27T18:35:35Z</time>
      </trkpt>
      <trkpt lat="42.579689" lon="-6.677388">
        <ele>484.12</ele>
        <time>2021-03-27T18:35:39Z</time>
      </trkpt>
      <trkpt lat="42.57964" lon="-6.67728">
        <ele>484.29</ele>
        <time>2021-03-27T18:35:44Z</time>
      </trkpt>
      <trkpt lat="42.579558" lon="-6.677245">
        <ele>484.59</ele>
        <time>2021-03-27T18:35:46Z</time>
      </trkpt>
      <trkpt lat="42.579508" lon="-6.67718">
        <ele>484.81</ele>
        <time>2021-03-27T18:35:48Z</time>
      </trkpt>
      <trkpt lat="42.579497" lon="-6.677078">
        <ele>484.91</ele>
        <time>2021-03-27T18:35:49Z</time>
      </trkpt>
      <trkpt lat="42.579532" lon="-6.676993">
        <ele>484.94</ele>
        <time>2021-03-27T18:35:51Z</time>
      </trkpt>
      <trkpt lat="42.579587" lon="-6.676948">
        <ele>484.99</ele>
        <time>2021-03-27T18:35:53Z</time>
      </trkpt>
      <trkpt lat="42.579661" lon="-6.676949">
        <ele>484.98</ele>
        <time>2021-03-27T18:35:55Z</time>
      </trkpt>
      <trkpt lat="42.579726" lon="-6.676988">
        <ele>484.83</ele>
        <time>2021-03-27T18:35:57Z</time>
      </trkpt>
      <trkpt lat="42.579763" lon="-6.67706">
        <ele>484.5</ele>
        <time>2021-03-27T18:35:58Z</time>
      </trkpt>
      <trkpt lat="42.579767" lon="-6.677149">
        <ele>484.22</ele>
        <time>2021-03-27T18:36:00Z</time>
      </trkpt>
      <trkpt lat="42.580531" lon="-6.677407">
        <ele>487.55</ele>
        <time>2021-03-27T18:36:02Z</time>
      </trkpt>
      <trkpt lat="42.580764" lon="-6.677422">
        <ele>487.93</ele>
        <time>2021-03-27T18:36:04Z</time>
      </trkpt>
      <trkpt lat="42.580988" lon="-6.677405">
        <ele>487.81</ele>
        <time>2021-03-27T18:36:06Z</time>
      </trkpt>
      <trkpt lat="42.581216" lon="-6.677349">
        <ele>488.04</ele>
        <time>2021-03-27T18:36:07Z</time>
      </trkpt>
      <trkpt lat="42.581635" lon="-6.677149">
        <ele>490.51</ele>
        <time>2021-03-27T18:36:09Z</time>
      </trkpt>
      <trkpt lat="42.582143" lon="-6.676634">
        <ele>491.31</ele>
        <time>2021-03-27T18:36:11Z</time>
      </trkpt>
      <trkpt lat="42.583393" lon="-6.674848">
        <ele>494.1</ele>
        <time>2021-03-27T18:36:13Z</time>
      </trkpt>
      <trkpt lat="42.583363" lon="-6.674741">
        <ele>494.01</ele>
        <time>2021-03-27T18:36:16Z</time>
      </trkpt>
      <trkpt lat="42.58339" lon="-6.674634">
        <ele>493.93</ele>
        <time>2021-03-27T18:36:19Z</time>
      </trkpt>
      <trkpt lat="42.583456" lon="-6.674577">
        <ele>493.77</ele>
        <time>2021-03-27T18:36:23Z</time>
      </trkpt>
      <trkpt lat="42.583504" lon="-6.674574">
        <ele>493.67</ele>
        <time>2021-03-27T18:36:26Z</time>
      </trkpt>
      <trkpt lat="42.583548" lon="-6.674595">
        <ele>493.64</ele>
        <time>2021-03-27T18:36:29Z</time>
      </trkpt>
      <trkpt lat="42.583584" lon="-6.674638">
        <ele>493.73</ele>
        <time>2021-03-27T18:36:33Z</time>
      </trkpt>
      <trkpt lat="42.583609" lon="-6.674737">
        <ele>494.05</ele>
        <time>2021-03-27T18:36:36Z</time>
      </trkpt>
      <trkpt lat="42.583715" lon="-6.67492">
        <ele>494.71</ele>
        <time>2021-03-27T18:36:39Z</time>
      </trkpt>
      <trkpt lat="42.584119" lon="-6.675285">
        <ele>495.36</ele>
        <time>2021-03-27T18:36:43Z</time>
      </trkpt>
      <trkpt lat="42.584792" lon="-6.675558">
        <ele>496.51</ele>
        <time>2021-03-27T18:36:46Z</time>
      </trkpt>
      <trkpt lat="42.586129" lon="-6.676029">
        <ele>501.75</ele>
        <time>2021-03-27T18:36:49Z</time>
      </trkpt>
      <trkpt lat="42.586445" lon="-6.676">
        <ele>502.28</ele>
        <time>2021-03-27T18:36:53Z</time>
      </trkpt>
      <trkpt lat="42.586504" lon="-6.675936">
        <ele>502.0</ele>
        <time>2021-03-27T18:36:55Z</time>
      </trkpt>
      <trkpt lat="42.586602" lon="-6.675895">
        <ele>502.04</ele>
        <time>2021-03-27T18:36:58Z</time>
      </trkpt>
      <trkpt lat="42.586689" lon="-6.675909">
        <ele>502.6</ele>
        <time>2021-03-27T18:37:00Z</time>
      </trkpt>
      <trkpt lat="42.586784" lon="-6.675987">
        <ele>504.25</ele>
        <time>2021-03-27T18:37:03Z</time>
      </trkpt>
      <trkpt lat="42.586835" lon="-6.676088">
        <ele>505.34</ele>
        <time>2021-03-27T18:37:05Z</time>
      </trkpt>
      <trkpt lat="42.586851" lon="-6.676253">
        <ele>505.49</ele>
        <time>2021-03-27T18:37:08Z</time>
      </trkpt>
      <trkpt lat="42.587112" lon="-6.676383">
        <ele>507.22</ele>
        <time>2021-03-27T18:37:10Z</time>
      </trkpt>
      <trkpt lat="42.587719" lon="-6.676574">
        <ele>503.3</ele>
        <time>2021-03-27T18:37:13Z</time>
      </trkpt>
      <trkpt lat="42.587767" lon="-6.676453">
        <ele>502.35</ele>
        <time>2021-03-27T18:37:20Z</time>
      </trkpt>
      <trkpt lat="42.587849" lon="-6.676368">
        <ele>502.0</ele>
        <time>2021-03-27T18:37:27Z</time>
      </trkpt>
      <trkpt lat="42.587974" lon="-6.676339">
        <ele>502.0</ele>
        <time>2021-03-27T18:37:35Z</time>
      </trkpt>
      <trkpt lat="42.588055" lon="-6.67637">
        <ele>502.0</ele>
        <time>2021-03-27T18:37:42Z</time>
      </trkpt>
      <trkpt lat="42.588142" lon="-6.676468">
        <ele>502.37</ele>
        <time>2021-03-27T18:37:49Z</time>
      </trkpt>
      <trkpt lat="42.588183" lon="-6.676582">
        <ele>503.02</ele>
        <time>2021-03-27T18:37:56Z</time>
      </trkpt>
      <trkpt lat="42.58832" lon="-6.676766">
        <ele>504.33</ele>
        <time>2021-03-27T18:38:03Z</time>
      </trkpt>
      <trkpt lat="42.588488" lon="-6.676876">
        <ele>505.17</ele>
        <time>2021-03-27T18:38:11Z</time>
      </trkpt>
      <trkpt lat="42.58886" lon="-6.676992">
        <ele>507.96</ele>
        <time>2021-03-27T18:38:18Z</time>
      </trkpt>
      <trkpt lat="42.590369" lon="-6.677537">
        <ele>516.13</ele>
        <time>2021-03-27T18:38:25Z</time>
      </trkpt>
      <trkpt lat="42.590553" lon="-6.677642">
        <ele>516.51</ele>
        <time>2021-03-27T18:38:32Z</time>
      </trkpt>
      <trkpt lat="42.590924" lon="-6.677924">
        <ele>515.05</ele>
        <time>2021-03-27T18:38:40Z</time>
      </trkpt>
      <trkpt lat="42.591145" lon="-6.678152">
        <ele>516.08</ele>
        <time>2021-03-27T18:38:47Z</time>
      </trkpt>
      <trkpt lat="42.591351" lon="-6.678404">
        <ele>516.92</ele>
        <time>2021-03-27T18:38:54Z</time>
      </trkpt>
      <trkpt lat="42.591635" lon="-6.678824">
        <ele>513.38</ele>
        <time>2021-03-27T18:39:01Z</time>
      </trkpt>
      <trkpt lat="42.591942" lon="-6.679416">
        <ele>511.1</ele>
        <time>2021-03-27T18:39:09Z</time>
      </trkpt>
      <trkpt lat="42.59211" lon="-6.67989">
        <ele>507.8</ele>
        <time>2021-03-27T18:39:16Z</time>
      </trkpt>
      <trkpt lat="42.592236" lon="-6.68045">
        <ele>505.74</ele>
        <time>2021-03-27T18:39:23Z</time>
      </trkpt>
      <trkpt lat="42.594293" lon="-6.692428">
        <ele>498.71</ele>
        <time>2021-03-27T18:39:30Z</time>
      </trkpt>
      <trkpt lat="42.594583" lon="-6.69405">
        <ele>495.79</ele>
        <time>2021-03-27T18:39:37Z</time>
      </trkpt>
      <trkpt lat="42.594843" lon="-6.695628">
        <ele>498.42</ele>
        <time>2021-03-27T18:39:45Z</time>
      </trkpt>
      <trkpt lat="42.594871" lon="-6.695932">
        <ele>498.95</ele>
        <time>2021-03-27T18:39:52Z</time>
      </trkpt>
      <trkpt lat="42.594871" lon="-6.696399">
        <ele>498.57</ele>
        <time>2021-03-27T18:39:59Z</time>
      </trkpt>
      <trkpt lat="42.594796" lon="-6.696979">
        <ele>499.39</ele>
        <time>2021-03-27T18:40:06Z</time>
      </trkpt>
      <trkpt lat="42.594413" lon="-6.699317">
        <ele>508.52</ele>
        <time>2021-03-27T18:40:14Z</time>
      </trkpt>
      <trkpt lat="42.594285" lon="-6.700285">
        <ele>510.29</ele>
        <time>2021-03-27T18:40:21Z</time>
      </trkpt>
      <trkpt lat="42.594285" lon="-6.700285">
        <ele>510.29</ele>
        <time>2021-03-27T18:40:21Z</time>
      </trkpt>
      <trkpt lat="42.594247" lon="-6.700663">
        <ele>512.43</ele>
        <time>2021-03-27T18:40:38Z</time>
      </trkpt>
      <trkpt lat="42.593648" lon="-6.71226">
        <ele>503.12</ele>
        <time>2021-03-27T18:40:55Z</time>
      </trkpt>
      <trkpt lat="42.593681" lon="-6.712591">
        <ele>503.5</ele>
        <time>2021-03-27T18:41:12Z</time>
      </trkpt>
      <trkpt lat="42.593717" lon="-6.712675">
        <ele>503.23</ele>
        <time>2021-03-27T18:41:22Z</time>
      </trkpt>
      <trkpt lat="42.593715" lon="-6.712725">
        <ele>503.12</ele>
        <time>2021-03-27T18:41:31Z</time>
      </trkpt>
      <trkpt lat="42.59367" lon="-6.712802">
        <ele>502.98</ele>
        <time>2021-03-27T18:41:41Z</time>
      </trkpt>
      <trkpt lat="42.593609" lon="-6.713064">
        <ele>503.01</ele>
        <time>2021-03-27T18:41:50Z</time>
      </trkpt>
      <trkpt lat="42.593427" lon="-6.716869">
        <ele>489.71</ele>
        <time>2021-03-27T18:42:00Z</time>
      </trkpt>
      <trkpt lat="42.59349" lon="-6.717604">
        <ele>485.12</ele>
        <time>2021-03-27T18:42:09Z</time>
      </trkpt>
      <trkpt lat="42.593546" lon="-6.717856">
        <ele>483.32</ele>
        <time>2021-03-27T18:42:19Z</time>
      </trkpt>
      <trkpt lat="42.593661" lon="-6.71824">
        <ele>482.48</ele>
        <time>2021-03-27T18:42:28Z</time>
      </trkpt>
      <trkpt lat="42.593775" lon="-6.718537">
        <ele>483.45</ele>
        <time>2021-03-27T18:42:38Z</time>
      </trkpt>
      <trkpt lat="42.593919" lon="-6.718821">
        <ele>482.89</ele>
        <time>2021-03-27T18:42:48Z</time>
      </trkpt>
      <trkpt lat="42.594563" lon="-6.719842">
        <ele>480.0</ele>
        <time>2021-03-27T18:42:57Z</time>
      </trkpt>
      <trkpt lat="42.595742" lon="-6.72158">
        <ele>481.45</ele>
        <time>2021-03-27T18:43:07Z</time>
      </trkpt>
      <trkpt lat="42.596229" lon="-6.722327">
        <ele>483.57</ele>
        <time>2021-03-27T18:43:16Z</time>
      </trkpt>
      <trkpt lat="42.597384" lon="-6.724006">
        <ele>482.58</ele>
        <time>2021-03-27T18:43:26Z</time>
      </trkpt>
      <trkpt lat="42.59801" lon="-6.724969">
        <ele>482.09</ele>
        <time>2021-03-27T18:43:35Z</time>
      </trkpt>
      <trkpt lat="42.598602" lon="-6.725821">
        <ele>486.0</ele>
        <time>2021-03-27T18:43:45Z</time>
      </trkpt>
      <trkpt lat="42.598659" lon="-6.725801">
        <ele>486.0</ele>
        <time>2021-03-27T18:43:51Z</time>
      </trkpt>
      <trkpt lat="42.598699" lon="-6.725827">
        <ele>486.0</ele>
        <time>2021-03-27T18:43:57Z</time>
      </trkpt>
      <trkpt lat="42.598722" lon="-6.725879">
        <ele>485.93</ele>
        <time>2021-03-27T18:44:03Z</time>
      </trkpt>
      <trkpt lat="42.59872" lon="-6.72594">
        <ele>485.85</ele>
        <time>2021-03-27T18:44:09Z</time>
      </trkpt>
      <trkpt lat="42.598692" lon="-6.725989">
        <ele>485.84</ele>
        <time>2021-03-27T18:44:15Z</time>
      </trkpt>
      <trkpt lat="42.599883" lon="-6.727752">
        <ele>477.32</ele>
        <time>2021-03-27T18:44:21Z</time>
      </trkpt>
      <trkpt lat="42.599969" lon="-6.727954">
        <ele>475.73</ele>
        <time>2021-03-27T18:44:27Z</time>
      </trkpt>
      <trkpt lat="42.599985" lon="-6.728045">
        <ele>475.07</ele>
        <time>2021-03-27T18:44:33Z</time>
      </trkpt>
      <trkpt lat="42.600001" lon="-6.729078">
        <ele>477.32</ele>
        <time>2021-03-27T18:44:39Z</time>
      </trkpt>
      <trkpt lat="42.600071" lon="-6.730972">
        <ele>475.61</ele>
        <time>2021-03-27T18:44:46Z</time>
      </trkpt>
      <trkpt lat="42.600102" lon="-6.731427">
        <ele>476.49</ele>
        <time>2021-03-27T18:44:52Z</time>
      </trkpt>
      <trkpt lat="42.60014" lon="-6.731637">
        <ele>475.6</ele>
        <time>2021-03-27T18:44:58Z</time>
      </trkpt>
      <trkpt lat="42.600768" lon="-6.734154">
        <ele>475.03</ele>
        <time>2021-03-27T18:45:04Z</time>
      </trkpt>
      <trkpt lat="42.600996" lon="-6.735004">
        <ele>476.59</ele>
        <time>2021-03-27T18:45:10Z</time>
      </trkpt>
      <trkpt lat="42.601563" lon="-6.736928">
        <ele>479.28</ele>
        <time>2021-03-27T18:45:16Z</time>
      </trkpt>
      <trkpt lat="42.601705" lon="-6.737342">
        <ele>478.08</ele>
        <time>2021-03-27T18:45:22Z</time>
      </trkpt>
      <trkpt lat="42.601999" lon="-6.737971">
        <ele>480.45</ele>
        <time>2021-03-27T18:45:28Z</time>
      </trkpt>
      <trkpt lat="42.602459" lon="-6.738833">
        <ele>481.05</ele>
        <time>2021-03-27T18:45:34Z</time>
      </trkpt>
      <trkpt lat="42.604228" lon="-6.742257">
        <ele>497.69</ele>
        <time>2021-03-27T18:45:40Z</time>
      </trkpt>
      <trkpt lat="42.604466" lon="-6.742754">
        <ele>504.5</ele>
        <time>2021-03-27T18:45:46Z</time>
      </trkpt>
      <trkpt lat="42.604544" lon="-6.742984">
        <ele>507.25</ele>
        <time>2021-03-27T18:45:52Z</time>
      </trkpt>
      <trkpt lat="42.604663" lon="-6.743504">
        <ele>508.85</ele>
        <time>2021-03-27T18:45:58Z</time>
      </trkpt>
      <trkpt lat="42.605851" lon="-6.750844">
        <ele>541.8</ele>
        <time>2021-03-27T18:46:04Z</time>
      </trkpt>
      <trkpt lat="42.605939" lon="-6.751646">
        <ele>543.3</ele>
        <time>2021-03-27T18:46:11Z</time>
      </trkpt>
      <trkpt lat="42.606148" lon="-6.754268">
        <ele>559.07</ele>
        <time>2021-03-27T18:46:17Z</time>
      </trkpt>
      <trkpt lat="42.606172" lon="-6.754907">
        <ele>561.53</ele>
        <time>2021-03-27T18:46:23Z</time>
      </trkpt>
      <trkpt lat="42.606213" lon="-6.755145">
        <ele>563.29</ele>
        <time>2021-03-27T18:46:28Z</time>
      </trkpt>
      <trkpt lat="42.606322" lon="-6.75555">
        <ele>567.17</ele>
        <time>2021-03-27T18:46:34Z</time>
      </trkpt>
      <trkpt lat="42.606355" lon="-6.755623">
        <ele>568.06</ele>
        <time>2021-03-27T18:46:40Z</time>
      </trkpt>
      <trkpt lat="42.606419" lon="-6.755679">
        <ele>568.72</ele>
        <time>2021-03-27T18:46:45Z</time>
      </trkpt>
      <trkpt lat="42.606508" lon="-6.755711">
        <ele>569.05</ele>
        <time>2021-03-27T18:46:51Z</time>
      </trkpt>
      <trkpt lat="42.60754" lon="-6.756245">
        <ele>569.73</ele>
        <time>2021-03-27T18:46:56Z</time>
      </trkpt>
      <trkpt lat="42.607822" lon="-6.756326">
        <ele>571.81</ele>
        <time>2021-03-27T18:47:02Z</time>
      </trkpt>
      <trkpt lat="42.608495" lon="-6.756426">
        <ele>574.58</ele>
        <time>2021-03-27T18:47:08Z</time>
      </trkpt>
      <trkpt lat="42.608953" lon="-6.756461">
        <ele>576.29</ele>
        <time>2021-03-27T18:47:13Z</time>
      </trkpt>
      <trkpt lat="42.609342" lon="-6.756457">
        <ele>577.09</ele>
        <time>2021-03-27T18:47:19Z</time>
      </trkpt>
      <trkpt lat="42.609993" lon="-6.756408">
        <ele>579.01</ele>
        <time>2021-03-27T18:47:24Z</time>
      </trkpt>
      <trkpt lat="42.612007" lon="-6.756701">
        <ele>586.0</ele>
        <time>2021-03-27T18:47:30Z</time>
      </trkpt>
      <trkpt lat="42.612854" lon="-6.756768">
        <ele>586.28</ele>
        <time>2021-03-27T18:47:36Z</time>
      </trkpt>
      <trkpt lat="42.613298" lon="-6.756898">
        <ele>588.75</ele>
        <time>2021-03-27T18:47:41Z</time>
      </trkpt>
      <trkpt lat="42.613617" lon="-6.757058">
        <ele>589.4</ele>
        <time>2021-03-27T18:47:47Z</time>
      </trkpt>
      <trkpt lat="42.613965" lon="-6.757362">
        <ele>589.41</ele>
        <time>2021-03-27T18:47:53Z</time>
      </trkpt>
      <trkpt lat="42.614183" lon="-6.757488">
        <ele>590.16</ele>
        <time>2021-03-27T18:47:58Z</time>
      </trkpt>
      <trkpt lat="42.614437" lon="-6.757536">
        <ele>591.95</ele>
        <time>2021-03-27T18:48:04Z</time>
      </trkpt>
      <trkpt lat="42.614851" lon="-6.757525">
        <ele>593.46</ele>
        <time>2021-03-27T18:48:09Z</time>
      </trkpt>
      <trkpt lat="42.615249" lon="-6.757645">
        <ele>595.79</ele>
        <time>2021-03-27T18:48:15Z</time>
      </trkpt>
      <trkpt lat="42.615682" lon="-6.757666">
        <ele>598.05</ele>
        <time>2021-03-27T18:48:21Z</time>
      </trkpt>
      <trkpt lat="42.616111" lon="-6.757504">
        <ele>598.0</ele>
        <time>2021-03-27T18:48:26Z</time>
      </trkpt>
      <trkpt lat="42.616443" lon="-6.757456">
        <ele>596.87</ele>
        <time>2021-03-27T18:48:32Z</time>
      </trkpt>
      <trkpt lat="42.616679" lon="-6.757521">
        <ele>597.05</ele>
        <time>2021-03-27T18:48:38Z</time>
      </trkpt>
      <trkpt lat="42.61745" lon="-6.75793">
        <ele>599.63</ele>
        <time>2021-03-27T18:48:43Z</time>
      </trkpt>
      <trkpt lat="42.617697" lon="-6.758033">
        <ele>599.98</ele>
        <time>2021-03-27T18:48:49Z</time>
      </trkpt>
      <trkpt lat="42.618173" lon="-6.758406">
        <ele>600.68</ele>
        <time>2021-03-27T18:48:54Z</time>
      </trkpt>
      <trkpt lat="42.618576" lon="-6.759022">
        <ele>602.13</ele>
        <time>2021-03-27T18:49:00Z</time>
      </trkpt>
      <trkpt lat="42.619063" lon="-6.75982">
        <ele>605.76</ele>
        <time>2021-03-27T18:49:06Z</time>
      </trkpt>
      <trkpt lat="42.6194" lon="-6.760374">
        <ele>607.12</ele>
        <time>2021-03-27T18:49:07Z</time>
      </trkpt>
      <trkpt lat="42.619894" lon="-6.760758">
        <ele>608.43</ele>
        <time>2021-03-27T18:49:09Z</time>
      </trkpt>
      <trkpt lat="42.620341" lon="-6.761023">
        <ele>609.94</ele>
        <time>2021-03-27T18:49:11Z</time>
      </trkpt>
      <trkpt lat="42.621194" lon="-6.761358">
        <ele>612.7</ele>
        <time>2021-03-27T18:49:12Z</time>
      </trkpt>
      <trkpt lat="42.621367" lon="-6.761486">
        <ele>613.49</ele>
        <time>2021-03-27T18:49:14Z</time>
      </trkpt>
      <trkpt lat="42.621755" lon="-6.76196">
        <ele>615.61</ele>
        <time>2021-03-27T18:49:16Z</time>
      </trkpt>
      <trkpt lat="42.622007" lon="-6.762219">
        <ele>618.21</ele>
        <time>2021-03-27T18:49:17Z</time>
      </trkpt>
      <trkpt lat="42.622313" lon="-6.762416">
        <ele>620.35</ele>
        <time>2021-03-27T18:49:19Z</time>
      </trkpt>
      <trkpt lat="42.62302" lon="-6.762733">
        <ele>622.89</ele>
        <time>2021-03-27T18:49:21Z</time>
      </trkpt>
      <trkpt lat="42.623214" lon="-6.762858">
        <ele>624.03</ele>
        <time>2021-03-27T18:49:22Z</time>
      </trkpt>
      <trkpt lat="42.623423" lon="-6.76301">
        <ele>626.21</ele>
        <time>2021-03-27T18:49:24Z</time>
      </trkpt>
      <trkpt lat="42.623736" lon="-6.763352">
        <ele>631.97</ele>
        <time>2021-03-27T18:49:26Z</time>
      </trkpt>
      <trkpt lat="42.624896" lon="-6.764102">
        <ele>640.79</ele>
        <time>2021-03-27T18:49:27Z</time>
      </trkpt>
      <trkpt lat="42.625341" lon="-6.764368">
        <ele>647.68</ele>
        <time>2021-03-27T18:49:29Z</time>
      </trkpt>
      <trkpt lat="42.626215" lon="-6.764849">
        <ele>652.66</ele>
        <time>2021-03-27T18:49:31Z</time>
      </trkpt>
      <trkpt lat="42.627029" lon="-6.765015">
        <ele>660.95</ele>
        <time>2021-03-27T18:49:32Z</time>
      </trkpt>
      <trkpt lat="42.627192" lon="-6.76507">
        <ele>662.7</ele>
        <time>2021-03-27T18:49:34Z</time>
      </trkpt>
      <trkpt lat="42.627302" lon="-6.765176">
        <ele>663.76</ele>
        <time>2021-03-27T18:49:36Z</time>
      </trkpt>
      <trkpt lat="42.627636" lon="-6.765688">
        <ele>668.94</ele>
        <time>2021-03-27T18:49:38Z</time>
      </trkpt>
      <trkpt lat="42.627862" lon="-6.766156">
        <ele>671.79</ele>
        <time>2021-03-27T18:49:39Z</time>
      </trkpt>
      <trkpt lat="42.628168" lon="-6.766419">
        <ele>675.26</ele>
        <time>2021-03-27T18:49:41Z</time>
      </trkpt>
      <trkpt lat="42.628375" lon="-6.766637">
        <ele>678.66</ele>
        <time>2021-03-27T18:49:43Z</time>
      </trkpt>
      <trkpt lat="42.628615" lon="-6.766934">
        <ele>685.03</ele>
        <time>2021-03-27T18:49:44Z</time>
      </trkpt>
      <trkpt lat="42.628644" lon="-6.767042">
        <ele>686.89</ele>
        <time>2021-03-27T18:49:46Z</time>
      </trkpt>
      <trkpt lat="42.628622" lon="-6.767123">
        <ele>687.22</ele>
        <time>2021-03-27T18:49:48Z</time>
      </trkpt>
      <trkpt lat="42.628509" lon="-6.767312">
        <ele>686.68</ele>
        <time>2021-03-27T18:49:49Z</time>
      </trkpt>
      <trkpt lat="42.628472" lon="-6.767427">
        <ele>686.59</ele>
        <time>2021-03-27T18:49:51Z</time>
      </trkpt>
      <trkpt lat="42.628466" lon="-6.767598">
        <ele>686.52</ele>
        <time>2021-03-27T18:49:53Z</time>
      </trkpt>
      <trkpt lat="42.628565" lon="-6.767981">
        <ele>687.9</ele>
        <time>2021-03-27T18:49:54Z</time>
      </trkpt>
      <trkpt lat="42.628692" lon="-6.76835">
        <ele>692.43</ele>
        <time>2021-03-27T18:49:56Z</time>
      </trkpt>
      <trkpt lat="42.628708" lon="-6.768467">
        <ele>693.59</ele>
        <time>2021-03-27T18:49:58Z</time>
      </trkpt>
      <trkpt lat="42.628683" lon="-6.76859">
        <ele>693.69</ele>
        <time>2021-03-27T18:49:59Z</time>
      </trkpt>
      <trkpt lat="42.628561" lon="-6.768765">
        <ele>692.73</ele>
        <time>2021-03-27T18:50:01Z</time>
      </trkpt>
      <trkpt lat="42.628547" lon="-6.76896">
        <ele>694.0</ele>
        <time>2021-03-27T18:50:03Z</time>
      </trkpt>
      <trkpt lat="42.628648" lon="-6.769518">
        <ele>700.77</ele>
        <time>2021-03-27T18:50:04Z</time>
      </trkpt>
      <trkpt lat="42.628761" lon="-6.769878">
        <ele>706.37</ele>
        <time>2021-03-27T18:50:06Z</time>
      </trkpt>
      <trkpt lat="42.628866" lon="-6.77012">
        <ele>710.02</ele>
        <time>2021-03-27T18:50:08Z</time>
      </trkpt>
      <trkpt lat="42.628834" lon="-6.770316">
        <ele>710.32</ele>
        <time>2021-03-27T18:50:09Z</time>
      </trkpt>
      <trkpt lat="42.628533" lon="-6.770558">
        <ele>705.87</ele>
        <time>2021-03-27T18:50:11Z</time>
      </trkpt>
      <trkpt lat="42.628509" lon="-6.770659">
        <ele>705.25</ele>
        <time>2021-03-27T18:50:13Z</time>
      </trkpt>
      <trkpt lat="42.628528" lon="-6.770778">
        <ele>705.32</ele>
        <time>2021-03-27T18:50:14Z</time>
      </trkpt>
      <trkpt lat="42.628602" lon="-6.770885">
        <ele>706.24</ele>
        <time>2021-03-27T18:50:16Z</time>
      </trkpt>
      <trkpt lat="42.628698" lon="-6.770942">
        <ele>706.95</ele>
        <time>2021-03-27T18:50:18Z</time>
      </trkpt>
      <trkpt lat="42.628838" lon="-6.77095">
        <ele>708.66</ele>
        <time>2021-03-27T18:50:19Z</time>
      </trkpt>
      <trkpt lat="42.62932" lon="-6.770762">
        <ele>717.05</ele>
        <time>2021-03-27T18:50:21Z</time>
      </trkpt>
      <trkpt lat="42.62969" lon="-6.770925">
        <ele>721.39</ele>
        <time>2021-03-27T18:50:23Z</time>
      </trkpt>
      <trkpt lat="42.630336" lon="-6.771141">
        <ele>727.89</ele>
        <time>2021-03-27T18:50:24Z</time>
      </trkpt>
      <trkpt lat="42.630643" lon="-6.771166">
        <ele>731.18</ele>
        <time>2021-03-27T18:50:26Z</time>
      </trkpt>
      <trkpt lat="42.631048" lon="-6.771164">
        <ele>736.38</ele>
        <time>2021-03-27T18:50:28Z</time>
      </trkpt>
      <trkpt lat="42.631273" lon="-6.771131">
        <ele>739.01</ele>
        <time>2021-03-27T18:50:29Z</time>
      </trkpt>
      <trkpt lat="42.631469" lon="-6.771027">
        <ele>742.22</ele>
        <time>2021-03-27T18:50:31Z</time>
      </trkpt>
      <trkpt lat="42.631716" lon="-6.770786">
        <ele>747.36</ele>
        <time>2021-03-27T18:50:33Z</time>
      </trkpt>
      <trkpt lat="42.631843" lon="-6.770711">
        <ele>750.03</ele>
        <time>2021-03-27T18:50:34Z</time>
      </trkpt>
      <trkpt lat="42.631921" lon="-6.770694">
        <ele>751.22</ele>
        <time>2021-03-27T18:50:36Z</time>
      </trkpt>
      <trkpt lat="42.631963" lon="-6.770762">
        <ele>751.42</ele>
        <time>2021-03-27T18:50:38Z</time>
      </trkpt>
      <trkpt lat="42.631979" lon="-6.77085">
        <ele>751.36</ele>
        <time>2021-03-27T18:50:39Z</time>
      </trkpt>
      <trkpt lat="42.631933" lon="-6.771779">
        <ele>748.65</ele>
        <time>2021-03-27T18:50:41Z</time>
      </trkpt>
      <trkpt lat="42.631887" lon="-6.772015">
        <ele>746.64</ele>
        <time>2021-03-27T18:50:43Z</time>
      </trkpt>
      <trkpt lat="42.631837" lon="-6.772162">
        <ele>744.68</ele>
        <time>2021-03-27T18:50:45Z</time>
      </trkpt>
      <trkpt lat="42.631871" lon="-6.77225">
        <ele>744.59</ele>
        <time>2021-03-27T18:50:46Z</time>
      </trkpt>
      <trkpt lat="42.631935" lon="-6.772303">
        <ele>744.72</ele>
        <time>2021-03-27T18:50:48Z</time>
      </trkpt>
      <trkpt lat="42.632026" lon="-6.772333">
        <ele>746.29</ele>
        <time>2021-03-27T18:50:50Z</time>
      </trkpt>
      <trkpt lat="42.632266" lon="-6.772324">
        <ele>752.05</ele>
        <time>2021-03-27T18:50:51Z</time>
      </trkpt>
      <trkpt lat="42.632757" lon="-6.77242">
        <ele>757.84</ele>
        <time>2021-03-27T18:50:53Z</time>
      </trkpt>
      <trkpt lat="42.633473" lon="-6.772699">
        <ele>760.49</ele>
        <time>2021-03-27T18:50:55Z</time>
      </trkpt>
      <trkpt lat="42.634161" lon="-6.772858">
        <ele>771.39</ele>
        <time>2021-03-27T18:50:56Z</time>
      </trkpt>
      <trkpt lat="42.63428" lon="-6.772939">
        <ele>773.42</ele>
        <time>2021-03-27T18:50:58Z</time>
      </trkpt>
      <trkpt lat="42.634388" lon="-6.773251">
        <ele>774.03</ele>
        <time>2021-03-27T18:51:00Z</time>
      </trkpt>
      <trkpt lat="42.634479" lon="-6.773456">
        <ele>774.42</ele>
        <time>2021-03-27T18:51:01Z</time>
      </trkpt>
      <trkpt lat="42.63459" lon="-6.773599">
        <ele>773.36</ele>
        <time>2021-03-27T18:51:03Z</time>
      </trkpt>
      <trkpt lat="42.634726" lon="-6.773679">
        <ele>772.79</ele>
        <time>2021-03-27T18:51:05Z</time>
      </trkpt>
      <trkpt lat="42.634853" lon="-6.773711">
        <ele>771.38</ele>
        <time>2021-03-27T18:51:06Z</time>
      </trkpt>
      <trkpt lat="42.635492" lon="-6.773237">
        <ele>784.57</ele>
        <time>2021-03-27T18:51:08Z</time>
      </trkpt>
      <trkpt lat="42.636225" lon="-6.772943">
        <ele>781.63</ele>
        <time>2021-03-27T18:51:10Z</time>
      </trkpt>
      <trkpt lat="42.636745" lon="-6.772339">
        <ele>791.47</ele>
        <time>2021-03-27T18:51:11Z</time>
      </trkpt>
      <trkpt lat="42.636794" lon="-6.772247">
        <ele>793.08</ele>
        <time>2021-03-27T18:51:13Z</time>
      </trkpt>
      <trkpt lat="42.636865" lon="-6.772042">
        <ele>796.98</ele>
        <time>2021-03-27T18:51:15Z</time>
      </trkpt>
      <trkpt lat="42.636918" lon="-6.772003">
        <ele>796.99</ele>
        <time>2021-03-27T18:51:16Z</time>
      </trkpt>
      <trkpt lat="42.636996" lon="-6.772041">
        <ele>796.17</ele>
        <time>2021-03-27T18:51:18Z</time>
      </trkpt>
      <trkpt lat="42.63709" lon="-6.772127">
        <ele>794.81</ele>
        <time>2021-03-27T18:51:20Z</time>
      </trkpt>
      <trkpt lat="42.637201" lon="-6.772176">
        <ele>794.31</ele>
        <time>2021-03-27T18:51:21Z</time>
      </trkpt>
      <trkpt lat="42.637668" lon="-6.772123">
        <ele>796.33</ele>
        <time>2021-03-27T18:51:23Z</time>
      </trkpt>
      <trkpt lat="42.637784" lon="-6.772058">
        <ele>799.9</ele>
        <time>2021-03-27T18:51:25Z</time>
      </trkpt>
      <trkpt lat="42.638719" lon="-6.771976">
        <ele>808.38</ele>
        <time>2021-03-27T18:51:26Z</time>
      </trkpt>
      <trkpt lat="42.639405" lon="-6.771622">
        <ele>815.48</ele>
        <time>2021-03-27T18:51:28Z</time>
      </trkpt>
      <trkpt lat="42.639597" lon="-6.771492">
        <ele>818.47</ele>
        <time>2021-03-27T18:51:30Z</time>
      </trkpt>
      <trkpt lat="42.639755" lon="-6.771337">
        <ele>822.01</ele>
        <time>2021-03-27T18:51:31Z</time>
      </trkpt>
      <trkpt lat="42.639849" lon="-6.771289">
        <ele>825.49</ele>
        <time>2021-03-27T18:51:33Z</time>
      </trkpt>
      <trkpt lat="42.639921" lon="-6.771311">
        <ele>827.03</ele>
        <time>2021-03-27T18:51:35Z</time>
      </trkpt>
      <trkpt lat="42.63996" lon="-6.771443">
        <ele>825.9</ele>
        <time>2021-03-27T18:51:36Z</time>
      </trkpt>
      <trkpt lat="42.639969" lon="-6.771621">
        <ele>823.04</ele>
        <time>2021-03-27T18:51:38Z</time>
      </trkpt>
      <trkpt lat="42.639926" lon="-6.771993">
        <ele>817.07</ele>
        <time>2021-03-27T18:51:40Z</time>
      </trkpt>
      <trkpt lat="42.639964" lon="-6.772077">
        <ele>816.21</ele>
        <time>2021-03-27T18:51:41Z</time>
      </trkpt>
      <trkpt lat="42.640064" lon="-6.772135">
        <ele>817.17</ele>
        <time>2021-03-27T18:51:43Z</time>
      </trkpt>
      <trkpt lat="42.640254" lon="-6.772177">
        <ele>819.84</ele>
        <time>2021-03-27T18:51:45Z</time>
      </trkpt>
      <trkpt lat="42.640424" lon="-6.772159">
        <ele>821.6</ele>
        <time>2021-03-27T18:51:46Z</time>
      </trkpt>
      <trkpt lat="42.640633" lon="-6.772015">
        <ele>826.34</ele>
        <time>2021-03-27T18:51:48Z</time>
      </trkpt>
      <trkpt lat="42.64084" lon="-6.771802">
        <ele>830.44</ele>
        <time>2021-03-27T18:51:50Z</time>
      </trkpt>
      <trkpt lat="42.641395" lon="-6.771124">
        <ele>837.44</ele>
        <time>2021-03-27T18:51:52Z</time>
      </trkpt>
      <trkpt lat="42.641447" lon="-6.771037">
        <ele>837.98</ele>
        <time>2021-03-27T18:51:53Z</time>
      </trkpt>
      <trkpt lat="42.641619" lon="-6.770628">
        <ele>844.06</ele>
        <time>2021-03-27T18:51:55Z</time>
      </trkpt>
      <trkpt lat="42.641737" lon="-6.770462">
        <ele>847.27</ele>
        <time>2021-03-27T18:51:57Z</time>
      </trkpt>
      <trkpt lat="42.641874" lon="-6.770314">
        <ele>849.53</ele>
        <time>2021-03-27T18:51:58Z</time>
      </trkpt>
      <trkpt lat="42.642016" lon="-6.770199">
        <ele>850.52</ele>
        <time>2021-03-27T18:52:00Z</time>
      </trkpt>
      <trkpt lat="42.642652" lon="-6.77003">
        <ele>851.99</ele>
        <time>2021-03-27T18:52:02Z</time>
      </trkpt>
      <trkpt lat="42.643041" lon="-6.76965">
        <ele>857.53</ele>
        <time>2021-03-27T18:52:03Z</time>
      </trkpt>
      <trkpt lat="42.643442" lon="-6.769663">
        <ele>857.55</ele>
        <time>2021-03-27T18:52:05Z</time>
      </trkpt>
      <trkpt lat="42.643733" lon="-6.769698">
        <ele>860.15</ele>
        <time>2021-03-27T18:52:07Z</time>
      </trkpt>
      <trkpt lat="42.64387" lon="-6.769681">
        <ele>862.13</ele>
        <time>2021-03-27T18:52:08Z</time>
      </trkpt>
      <trkpt lat="42.64396" lon="-6.769629">
        <ele>864.69</ele>
        <time>2021-03-27T18:52:10Z</time>
      </trkpt>
      <trkpt lat="42.644048" lon="-6.769541">
        <ele>867.67</ele>
        <time>2021-03-27T18:52:12Z</time>
      </trkpt>
      <trkpt lat="42.644335" lon="-6.769076">
        <ele>878.23</ele>
        <time>2021-03-27T18:52:13Z</time>
      </trkpt>
      <trkpt lat="42.644414" lon="-6.7689">
        <ele>880.09</ele>
        <time>2021-03-27T18:52:15Z</time>
      </trkpt>
      <trkpt lat="42.64451" lon="-6.768792">
        <ele>880.93</ele>
        <time>2021-03-27T18:52:17Z</time>
      </trkpt>
      <trkpt lat="42.644628" lon="-6.768825">
        <ele>881.12</ele>
        <time>2021-03-27T18:52:18Z</time>
      </trkpt>
      <trkpt lat="42.644675" lon="-6.768896">
        <ele>880.77</ele>
        <time>2021-03-27T18:52:20Z</time>
      </trkpt>
      <trkpt lat="42.644763" lon="-6.769296">
        <ele>877.34</ele>
        <time>2021-03-27T18:52:22Z</time>
      </trkpt>
      <trkpt lat="42.644875" lon="-6.76945">
        <ele>876.61</ele>
        <time>2021-03-27T18:52:23Z</time>
      </trkpt>
      <trkpt lat="42.64502" lon="-6.76956">
        <ele>875.8</ele>
        <time>2021-03-27T18:52:25Z</time>
      </trkpt>
      <trkpt lat="42.645157" lon="-6.769611">
        <ele>875.33</ele>
        <time>2021-03-27T18:52:27Z</time>
      </trkpt>
      <trkpt lat="42.645323" lon="-6.769612">
        <ele>877.2</ele>
        <time>2021-03-27T18:52:28Z</time>
      </trkpt>
      <trkpt lat="42.646007" lon="-6.769361">
        <ele>889.9</ele>
        <time>2021-03-27T18:52:30Z</time>
      </trkpt>
      <trkpt lat="42.646376" lon="-6.769348">
        <ele>894.16</ele>
        <time>2021-03-27T18:52:32Z</time>
      </trkpt>
      <trkpt lat="42.646514" lon="-6.769465">
        <ele>895.79</ele>
        <time>2021-03-27T18:52:33Z</time>
      </trkpt>
      <trkpt lat="42.64652" lon="-6.769782">
        <ele>895.83</ele>
        <time>2021-03-27T18:52:35Z</time>
      </trkpt>
      <trkpt lat="42.646536" lon="-6.769887">
        <ele>896.17</ele>
        <time>2021-03-27T18:52:37Z</time>
      </trkpt>
      <trkpt lat="42.646586" lon="-6.770024">
        <ele>897.26</ele>
        <time>2021-03-27T18:52:38Z</time>
      </trkpt>
      <trkpt lat="42.646599" lon="-6.770145">
        <ele>897.54</ele>
        <time>2021-03-27T18:52:40Z</time>
      </trkpt>
      <trkpt lat="42.646586" lon="-6.770436">
        <ele>897.26</ele>
        <time>2021-03-27T18:52:42Z</time>
      </trkpt>
      <trkpt lat="42.646608" lon="-6.770584">
        <ele>897.5</ele>
        <time>2021-03-27T18:52:43Z</time>
      </trkpt>
      <trkpt lat="42.646927" lon="-6.771268">
        <ele>900.38</ele>
        <time>2021-03-27T18:52:45Z</time>
      </trkpt>
      <trkpt lat="42.647041" lon="-6.771474">
        <ele>901.6</ele>
        <time>2021-03-27T18:52:47Z</time>
      </trkpt>
      <trkpt lat="42.647178" lon="-6.771661">
        <ele>902.27</ele>
        <time>2021-03-27T18:52:48Z</time>
      </trkpt>
      <trkpt lat="42.647501" lon="-6.77204">
        <ele>906.67</ele>
        <time>2021-03-27T18:52:50Z</time>
      </trkpt>
      <trkpt lat="42.647678" lon="-6.772213">
        <ele>909.89</ele>
        <time>2021-03-27T18:52:52Z</time>
      </trkpt>
      <trkpt lat="42.647757" lon="-6.77225">
        <ele>911.55</ele>
        <time>2021-03-27T18:52:53Z</time>
      </trkpt>
      <trkpt lat="42.64783" lon="-6.77247">
        <ele>912.94</ele>
        <time>2021-03-27T18:52:55Z</time>
      </trkpt>
      <trkpt lat="42.647873" lon="-6.772661">
        <ele>913.13</ele>
        <time>2021-03-27T18:52:57Z</time>
      </trkpt>
      <trkpt lat="42.648081" lon="-6.773166">
        <ele>915.24</ele>
        <time>2021-03-27T18:52:59Z</time>
      </trkpt>
      <trkpt lat="42.648498" lon="-6.773786">
        <ele>924.3</ele>
        <time>2021-03-27T18:53:00Z</time>
      </trkpt>
      <trkpt lat="42.648621" lon="-6.774098">
        <ele>925.02</ele>
        <time>2021-03-27T18:53:02Z</time>
      </trkpt>
      <trkpt lat="42.648661" lon="-6.774499">
        <ele>928.28</ele>
        <time>2021-03-27T18:53:04Z</time>
      </trkpt>
      <trkpt lat="42.648773" lon="-6.774302">
        <ele>928.99</ele>
        <time>2021-03-27T18:53:06Z</time>
      </trkpt>
      <trkpt lat="42.648758" lon="-6.773826">
        <ele>931.5</ele>
        <time>2021-03-27T18:53:09Z</time>
      </trkpt>
      <trkpt lat="42.648673" lon="-6.773243">
        <ele>931.77</ele>
        <time>2021-03-27T18:53:12Z</time>
      </trkpt>
      <trkpt lat="42.648637" lon="-6.77285">
        <ele>929.26</ele>
        <time>2021-03-27T18:53:15Z</time>
      </trkpt>
      <trkpt lat="42.648678" lon="-6.77249">
        <ele>928.99</ele>
        <time>2021-03-27T18:53:18Z</time>
      </trkpt>
      <trkpt lat="42.648825" lon="-6.77212">
        <ele>933.72</ele>
        <time>2021-03-27T18:53:21Z</time>
      </trkpt>
      <trkpt lat="42.648829" lon="-6.771872">
        <ele>934.19</ele>
        <time>2021-03-27T18:53:24Z</time>
      </trkpt>
      <trkpt lat="42.648688" lon="-6.771363">
        <ele>934.93</ele>
        <time>2021-03-27T18:53:27Z</time>
      </trkpt>
      <trkpt lat="42.648669" lon="-6.770901">
        <ele>938.0</ele>
        <time>2021-03-27T18:53:30Z</time>
      </trkpt>
      <trkpt lat="42.64872" lon="-6.770416">
        <ele>937.65</ele>
        <time>2021-03-27T18:53:33Z</time>
      </trkpt>
      <trkpt lat="42.649101" lon="-6.769147">
        <ele>945.3</ele>
        <time>2021-03-27T18:53:36Z</time>
      </trkpt>
      <trkpt lat="42.649283" lon="-6.768724">
        <ele>947.66</ele>
        <time>2021-03-27T18:53:39Z</time>
      </trkpt>
      <trkpt lat="42.649802" lon="-6.768059">
        <ele>952.6</ele>
        <time>2021-03-27T18:53:41Z</time>
      </trkpt>
      <trkpt lat="42.649957" lon="-6.767766">
        <ele>950.82</ele>
        <time>2021-03-27T18:53:44Z</time>
      </trkpt>
      <trkpt lat="42.649849" lon="-6.767229">
        <ele>952.13</ele>
        <time>2021-03-27T18:53:47Z</time>
      </trkpt>
      <trkpt lat="42.650142" lon="-6.765198">
        <ele>949.93</ele>
        <time>2021-03-27T18:53:50Z</time>
      </trkpt>
      <trkpt lat="42.650221" lon="-6.764418">
        <ele>944.68</ele>
        <time>2021-03-27T18:53:53Z</time>
      </trkpt>
      <trkpt lat="42.650257" lon="-6.763786">
        <ele>942.09</ele>
        <time>2021-03-27T18:53:56Z</time>
      </trkpt>
      <trkpt lat="42.650436" lon="-6.763473">
        <ele>942.86</ele>
        <time>2021-03-27T18:53:59Z</time>
      </trkpt>
      <trkpt lat="42.650678" lon="-6.763375">
        <ele>943.91</ele>
        <time>2021-03-27T18:54:02Z</time>
      </trkpt>
      <trkpt lat="42.651088" lon="-6.763488">
        <ele>942.98</ele>
        <time>2021-03-27T18:54:05Z</time>
      </trkpt>
      <trkpt lat="42.652442" lon="-6.763937">
        <ele>951.29</ele>
        <time>2021-03-27T18:54:08Z</time>
      </trkpt>
      <trkpt lat="42.653043" lon="-6.763989">
        <ele>962.66</ele>
        <time>2021-03-27T18:54:11Z</time>
      </trkpt>
      <trkpt lat="42.653486" lon="-6.763907">
        <ele>964.9</ele>
        <time>2021-03-27T18:54:14Z</time>
      </trkpt>
      <trkpt lat="42.653975" lon="-6.763617">
        <ele>964.69</ele>
        <time>2021-03-27T18:54:16Z</time>
      </trkpt>
      <trkpt lat="42.654365" lon="-6.763619">
        <ele>960.44</ele>
        <time>2021-03-27T18:54:19Z</time>
      </trkpt>
      <trkpt lat="42.654799" lon="-6.764094">
        <ele>951.92</ele>
        <time>2021-03-27T18:54:22Z</time>
      </trkpt>
      <trkpt lat="42.655877" lon="-6.765185">
        <ele>937.24</ele>
        <time>2021-03-27T18:54:25Z</time>
      </trkpt>
      <trkpt lat="42.656047" lon="-6.765334">
        <ele>934.13</ele>
        <time>2021-03-27T18:54:28Z</time>
      </trkpt>
      <trkpt lat="42.656581" lon="-6.765576">
        <ele>927.89</ele>
        <time>2021-03-27T18:54:31Z</time>
      </trkpt>
      <trkpt lat="42.656772" lon="-6.765545">
        <ele>927.01</ele>
        <time>2021-03-27T18:54:34Z</time>
      </trkpt>
      <trkpt lat="42.657169" lon="-6.765324">
        <ele>924.16</ele>
        <time>2021-03-27T18:54:37Z</time>
      </trkpt>
      <trkpt lat="42.657409" lon="-6.765332">
        <ele>922.9</ele>
        <time>2021-03-27T18:54:40Z</time>
      </trkpt>
      <trkpt lat="42.65775" lon="-6.765732">
        <ele>915.78</ele>
        <time>2021-03-27T18:54:43Z</time>
      </trkpt>
      <trkpt lat="42.658156" lon="-6.766405">
        <ele>905.52</ele>
        <time>2021-03-27T18:54:46Z</time>
      </trkpt>
      <trkpt lat="42.658421" lon="-6.767026">
        <ele>898.36</ele>
        <time>2021-03-27T18:54:49Z</time>
      </trkpt>
      <trkpt lat="42.658808" lon="-6.767396">
        <ele>894.03</ele>
        <time>2021-03-27T18:54:51Z</time>
      </trkpt>
      <trkpt lat="42.659206" lon="-6.767614">
        <ele>890.21</ele>
        <time>2021-03-27T18:54:54Z</time>
      </trkpt>
      <trkpt lat="42.659402" lon="-6.76763">
        <ele>889.28</ele>
        <time>2021-03-27T18:54:57Z</time>
      </trkpt>
      <trkpt lat="42.659527" lon="-6.767491">
        <ele>889.92</ele>
        <time>2021-03-27T18:55:00Z</time>
      </trkpt>
      <trkpt lat="42.659678" lon="-6.767188">
        <ele>890.19</ele>
        <time>2021-03-27T18:55:03Z</time>
      </trkpt>
      <trkpt lat="42.659929" lon="-6.76718">
        <ele>884.94</ele>
        <time>2021-03-27T18:55:06Z</time>
      </trkpt>
      <trkpt lat="42.66042" lon="-6.767432">
        <ele>878.1</ele>
        <time>2021-03-27T18:55:09Z</time>
      </trkpt>
      <trkpt lat="42.660741" lon="-6.767424">
        <ele>877.15</ele>
        <time>2021-03-27T18:55:12Z</time>
      </trkpt>
      <trkpt lat="42.661141" lon="-6.767355">
        <ele>874.46</ele>
        <time>2021-03-27T18:55:15Z</time>
      </trkpt>
      <trkpt lat="42.661379" lon="-6.767452">
        <ele>872.54</ele>
        <time>2021-03-27T18:55:18Z</time>
      </trkpt>
      <trkpt lat="42.66191" lon="-6.768249">
        <ele>864.7</ele>
        <time>2021-03-27T18:55:21Z</time>
      </trkpt>
      <trkpt lat="42.662305" lon="-6.768618">
        <ele>866.66</ele>
        <time>2021-03-27T18:55:24Z</time>
      </trkpt>
      <trkpt lat="42.662671" lon="-6.7687">
        <ele>868.45</ele>
        <time>2021-03-27T18:55:26Z</time>
      </trkpt>
      <trkpt lat="42.663194" lon="-6.768657">
        <ele>868.66</ele>
        <time>2021-03-27T18:55:29Z</time>
      </trkpt>
      <trkpt lat="42.663615" lon="-6.768544">
        <ele>866.96</ele>
        <time>2021-03-27T18:55:32Z</time>
      </trkpt>
      <trkpt lat="42.663936" lon="-6.768641">
        <ele>863.23</ele>
        <time>2021-03-27T18:55:35Z</time>
      </trkpt>
      <trkpt lat="42.664198" lon="-6.769152">
        <ele>858.58</ele>
        <time>2021-03-27T18:55:38Z</time>
      </trkpt>
      <trkpt lat="42.664276" lon="-6.769627">
        <ele>856.24</ele>
        <time>2021-03-27T18:55:41Z</time>
      </trkpt>
      <trkpt lat="42.6643" lon="-6.770498">
        <ele>851.48</ele>
        <time>2021-03-27T18:55:44Z</time>
      </trkpt>
      <trkpt lat="42.664527" lon="-6.771348">
        <ele>845.42</ele>
        <time>2021-03-27T18:55:47Z</time>
      </trkpt>
      <trkpt lat="42.665258" lon="-6.772649">
        <ele>840.18</ele>
        <time>2021-03-27T18:55:50Z</time>
      </trkpt>
      <trkpt lat="42.665688" lon="-6.773225">
        <ele>834.34</ele>
        <time>2021-03-27T18:55:53Z</time>
      </trkpt>
      <trkpt lat="42.666073" lon="-6.773522">
        <ele>833.5</ele>
        <time>2021-03-27T18:55:56Z</time>
      </trkpt>
      <trkpt lat="42.666795" lon="-6.773779">
        <ele>836.13</ele>
        <time>2021-03-27T18:55:59Z</time>
      </trkpt>
      <trkpt lat="42.667372" lon="-6.773962">
        <ele>837.86</ele>
        <time>2021-03-27T18:56:01Z</time>
      </trkpt>
      <trkpt lat="42.66863" lon="-6.773923">
        <ele>837.64</ele>
        <time>2021-03-27T18:56:04Z</time>
      </trkpt>
      <trkpt lat="42.669273" lon="-6.773833">
        <ele>837.2</ele>
        <time>2021-03-27T18:56:07Z</time>
      </trkpt>
      <trkpt lat="42.669938" lon="-6.773374">
        <ele>837.89</ele>
        <time>2021-03-27T18:56:10Z</time>
      </trkpt>
      <trkpt lat="42.670333" lon="-6.773374">
        <ele>839.91</ele>
        <time>2021-03-27T18:56:13Z</time>
      </trkpt>
      <trkpt lat="42.670809" lon="-6.77355">
        <ele>847.87</ele>
        <time>2021-03-27T18:56:16Z</time>
      </trkpt>
      <trkpt lat="42.67071" lon="-6.773742">
        <ele>846.34</ele>
        <time>2021-03-27T18:56:18Z</time>
      </trkpt>
      <trkpt lat="42.670664" lon="-6.773958">
        <ele>845.24</ele>
        <time>2021-03-27T18:56:20Z</time>
      </trkpt>
      <trkpt lat="42.670601" lon="-6.774449">
        <ele>844.0</ele>
        <time>2021-03-27T18:56:21Z</time>
      </trkpt>
      <trkpt lat="42.670489" lon="-6.774772">
        <ele>842.98</ele>
        <time>2021-03-27T18:56:23Z</time>
      </trkpt>
      <trkpt lat="42.670205" lon="-6.77533">
        <ele>839.78</ele>
        <time>2021-03-27T18:56:25Z</time>
      </trkpt>
      <trkpt lat="42.670146" lon="-6.775575">
        <ele>838.6</ele>
        <time>2021-03-27T18:56:27Z</time>
      </trkpt>
      <trkpt lat="42.670142" lon="-6.775832">
        <ele>837.56</ele>
        <time>2021-03-27T18:56:28Z</time>
      </trkpt>
      <trkpt lat="42.670191" lon="-6.776062">
        <ele>836.48</ele>
        <time>2021-03-27T18:56:30Z</time>
      </trkpt>
      <trkpt lat="42.670294" lon="-6.776266">
        <ele>835.35</ele>
        <time>2021-03-27T18:56:32Z</time>
      </trkpt>
      <trkpt lat="42.670459" lon="-6.776406">
        <ele>833.86</ele>
        <time>2021-03-27T18:56:34Z</time>
      </trkpt>
      <trkpt lat="42.670609" lon="-6.776455">
        <ele>833.05</ele>
        <time>2021-03-27T18:56:35Z</time>
      </trkpt>
      <trkpt lat="42.670739" lon="-6.776421">
        <ele>832.92</ele>
        <time>2021-03-27T18:56:37Z</time>
      </trkpt>
      <trkpt lat="42.671343" lon="-6.775996">
        <ele>833.08</ele>
        <time>2021-03-27T18:56:39Z</time>
      </trkpt>
      <trkpt lat="42.67153" lon="-6.775905">
        <ele>834.82</ele>
        <time>2021-03-27T18:56:41Z</time>
      </trkpt>
      <trkpt lat="42.671692" lon="-6.775899">
        <ele>835.53</ele>
        <time>2021-03-27T18:56:42Z</time>
      </trkpt>
      <trkpt lat="42.671947" lon="-6.776086">
        <ele>832.67</ele>
        <time>2021-03-27T18:56:44Z</time>
      </trkpt>
      <trkpt lat="42.672132" lon="-6.776273">
        <ele>830.43</ele>
        <time>2021-03-27T18:56:46Z</time>
      </trkpt>
      <trkpt lat="42.672504" lon="-6.776419">
        <ele>829.56</ele>
        <time>2021-03-27T18:56:48Z</time>
      </trkpt>
      <trkpt lat="42.672685" lon="-6.776455">
        <ele>828.89</ele>
        <time>2021-03-27T18:56:49Z</time>
      </trkpt>
      <trkpt lat="42.672837" lon="-6.776431">
        <ele>828.75</ele>
        <time>2021-03-27T18:56:51Z</time>
      </trkpt>
      <trkpt lat="42.672944" lon="-6.776377">
        <ele>829.05</ele>
        <time>2021-03-27T18:56:53Z</time>
      </trkpt>
      <trkpt lat="42.673308" lon="-6.776085">
        <ele>829.74</ele>
        <time>2021-03-27T18:56:55Z</time>
      </trkpt>
      <trkpt lat="42.673502" lon="-6.775883">
        <ele>827.32</ele>
        <time>2021-03-27T18:56:56Z</time>
      </trkpt>
      <trkpt lat="42.673594" lon="-6.775725">
        <ele>826.21</ele>
        <time>2021-03-27T18:56:58Z</time>
      </trkpt>
      <trkpt lat="42.673683" lon="-6.775486">
        <ele>823.76</ele>
        <time>2021-03-27T18:57:00Z</time>
      </trkpt>
      <trkpt lat="42.673801" lon="-6.775067">
        <ele>820.83</ele>
        <time>2021-03-27T18:57:02Z</time>
      </trkpt>
      <trkpt lat="42.673907" lon="-6.774965">
        <ele>818.26</ele>
        <time>2021-03-27T18:57:03Z</time>
      </trkpt>
      <trkpt lat="42.674029" lon="-6.774927">
        <ele>817.29</ele>
        <time>2021-03-27T18:57:05Z</time>
      </trkpt>
      <trkpt lat="42.6742" lon="-6.774961">
        <ele>814.26</ele>
        <time>2021-03-27T18:57:07Z</time>
      </trkpt>
      <trkpt lat="42.674564" lon="-6.774905">
        <ele>809.25</ele>
        <time>2021-03-27T18:57:08Z</time>
      </trkpt>
      <trkpt lat="42.675036" lon="-6.774644">
        <ele>811.05</ele>
        <time>2021-03-27T18:57:10Z</time>
      </trkpt>
      <trkpt lat="42.675217" lon="-6.774711">
        <ele>810.69</ele>
        <time>2021-03-27T18:57:12Z</time>
      </trkpt>
      <trkpt lat="42.675255" lon="-6.774819">
        <ele>810.08</ele>
        <time>2021-03-27T18:57:14Z</time>
      </trkpt>
      <trkpt lat="42.675121" lon="-6.775339">
        <ele>802.42</ele>
        <time>2021-03-27T18:57:15Z</time>
      </trkpt>
      <trkpt lat="42.675065" lon="-6.775681">
        <ele>798.03</ele>
        <time>2021-03-27T18:57:17Z</time>
      </trkpt>
      <trkpt lat="42.675083" lon="-6.776128">
        <ele>794.67</ele>
        <time>2021-03-27T18:57:19Z</time>
      </trkpt>
      <trkpt lat="42.675129" lon="-6.776655">
        <ele>790.84</ele>
        <time>2021-03-27T18:57:21Z</time>
      </trkpt>
      <trkpt lat="42.675111" lon="-6.777119">
        <ele>789.32</ele>
        <time>2021-03-27T18:57:22Z</time>
      </trkpt>
      <trkpt lat="42.675031" lon="-6.777634">
        <ele>786.73</ele>
        <time>2021-03-27T18:57:24Z</time>
      </trkpt>
      <trkpt lat="42.674812" lon="-6.77836">
        <ele>780.93</ele>
        <time>2021-03-27T18:57:26Z</time>
      </trkpt>
      <trkpt lat="42.674669" lon="-6.778929">
        <ele>778.2</ele>
        <time>2021-03-27T18:57:28Z</time>
      </trkpt>
      <trkpt lat="42.674515" lon="-6.779665">
        <ele>769.55</ele>
        <time>2021-03-27T18:57:29Z</time>
      </trkpt>
      <trkpt lat="42.674482" lon="-6.779973">
        <ele>767.31</ele>
        <time>2021-03-27T18:57:31Z</time>
      </trkpt>
      <trkpt lat="42.674477" lon="-6.78024">
        <ele>764.27</ele>
        <time>2021-03-27T18:57:33Z</time>
      </trkpt>
      <trkpt lat="42.674547" lon="-6.780909">
        <ele>756.29</ele>
        <time>2021-03-27T18:57:35Z</time>
      </trkpt>
      <trkpt lat="42.674572" lon="-6.781349">
        <ele>754.51</ele>
        <time>2021-03-27T18:57:36Z</time>
      </trkpt>
      <trkpt lat="42.674562" lon="-6.781776">
        <ele>750.42</ele>
        <time>2021-03-27T18:57:38Z</time>
      </trkpt>
      <trkpt lat="42.674435" lon="-6.783599">
        <ele>741.87</ele>
        <time>2021-03-27T18:57:40Z</time>
      </trkpt>
      <trkpt lat="42.674245" lon="-6.78496">
        <ele>731.09</ele>
        <time>2021-03-27T18:57:42Z</time>
      </trkpt>
      <trkpt lat="42.674162" lon="-6.785415">
        <ele>727.97</ele>
        <time>2021-03-27T18:57:43Z</time>
      </trkpt>
      <trkpt lat="42.674088" lon="-6.785698">
        <ele>726.92</ele>
        <time>2021-03-27T18:57:45Z</time>
      </trkpt>
      <trkpt lat="42.673929" lon="-6.785826">
        <ele>725.32</ele>
        <time>2021-03-27T18:57:47Z</time>
      </trkpt>
      <trkpt lat="42.673748" lon="-6.785808">
        <ele>723.06</ele>
        <time>2021-03-27T18:57:49Z</time>
      </trkpt>
      <trkpt lat="42.673575" lon="-6.785668">
        <ele>720.55</ele>
        <time>2021-03-27T18:57:50Z</time>
      </trkpt>
      <trkpt lat="42.673454" lon="-6.785465">
        <ele>717.66</ele>
        <time>2021-03-27T18:57:52Z</time>
      </trkpt>
      <trkpt lat="42.673405" lon="-6.785295">
        <ele>716.75</ele>
        <time>2021-03-27T18:57:54Z</time>
      </trkpt>
      <trkpt lat="42.673392" lon="-6.785064">
        <ele>716.64</ele>
        <time>2021-03-27T18:57:56Z</time>
      </trkpt>
      <trkpt lat="42.673505" lon="-6.784401">
        <ele>719.17</ele>
        <time>2021-03-27T18:57:57Z</time>
      </trkpt>
      <trkpt lat="42.673499" lon="-6.784248">
        <ele>718.47</ele>
        <time>2021-03-27T18:57:59Z</time>
      </trkpt>
      <trkpt lat="42.673405" lon="-6.784179">
        <ele>715.84</ele>
        <time>2021-03-27T18:58:01Z</time>
      </trkpt>
      <trkpt lat="42.673297" lon="-6.784179">
        <ele>713.89</ele>
        <time>2021-03-27T18:58:03Z</time>
      </trkpt>
      <trkpt lat="42.673225" lon="-6.784362">
        <ele>713.22</ele>
        <time>2021-03-27T18:58:04Z</time>
      </trkpt>
      <trkpt lat="42.672859" lon="-6.785937">
        <ele>703.53</ele>
        <time>2021-03-27T18:58:06Z</time>
      </trkpt>
      <trkpt lat="42.67258" lon="-6.786411">
        <ele>699.86</ele>
        <time>2021-03-27T18:58:08Z</time>
      </trkpt>
      <trkpt lat="42.672443" lon="-6.78677">
        <ele>698.05</ele>
        <time>2021-03-27T18:58:10Z</time>
      </trkpt>
      <trkpt lat="42.672272" lon="-6.787252">
        <ele>700.24</ele>
        <time>2021-03-27T18:58:11Z</time>
      </trkpt>
      <trkpt lat="42.672055" lon="-6.788138">
        <ele>689.29</ele>
        <time>2021-03-27T18:58:13Z</time>
      </trkpt>
      <trkpt lat="42.671871" lon="-6.788643">
        <ele>687.58</ele>
        <time>2021-03-27T18:58:15Z</time>
      </trkpt>
      <trkpt lat="42.671678" lon="-6.789091">
        <ele>684.6</ele>
        <time>2021-03-27T18:58:17Z</time>
      </trkpt>
      <trkpt lat="42.671597" lon="-6.78957">
        <ele>675.64</ele>
        <time>2021-03-27T18:58:18Z</time>
      </trkpt>
      <trkpt lat="42.671458" lon="-6.789819">
        <ele>669.58</ele>
        <time>2021-03-27T18:58:20Z</time>
      </trkpt>
      <trkpt lat="42.671253" lon="-6.789936">
        <ele>666.41</ele>
        <time>2021-03-27T18:58:22Z</time>
      </trkpt>
      <trkpt lat="42.671063" lon="-6.789882">
        <ele>667.26</ele>
        <time>2021-03-27T18:58:24Z</time>
      </trkpt>
      <trkpt lat="42.670871" lon="-6.789742">
        <ele>665.58</ele>
        <time>2021-03-27T18:58:25Z</time>
      </trkpt>
      <trkpt lat="42.670758" lon="-6.789502">
        <ele>665.61</ele>
        <time>2021-03-27T18:58:27Z</time>
      </trkpt>
      <trkpt lat="42.670685" lon="-6.78898">
        <ele>667.78</ele>
        <time>2021-03-27T18:58:29Z</time>
      </trkpt>
      <trkpt lat="42.670608" lon="-6.788751">
        <ele>667.75</ele>
        <time>2021-03-27T18:58:31Z</time>
      </trkpt>
      <trkpt lat="42.670331" lon="-6.78837">
        <ele>667.07</ele>
        <time>2021-03-27T18:58:32Z</time>
      </trkpt>
      <trkpt lat="42.669918" lon="-6.787958">
        <ele>674.24</ele>
        <time>2021-03-27T18:58:34Z</time>
      </trkpt>
      <trkpt lat="42.669817" lon="-6.787888">
        <ele>675.93</ele>
        <time>2021-03-27T18:58:36Z</time>
      </trkpt>
      <trkpt lat="42.669737" lon="-6.78794">
        <ele>675.58</ele>
        <time>2021-03-27T18:58:38Z</time>
      </trkpt>
      <trkpt lat="42.669703" lon="-6.788038">
        <ele>675.35</ele>
        <time>2021-03-27T18:58:39Z</time>
      </trkpt>
      <trkpt lat="42.669734" lon="-6.78822">
        <ele>672.04</ele>
        <time>2021-03-27T18:58:41Z</time>
      </trkpt>
      <trkpt lat="42.669983" lon="-6.789005">
        <ele>660.15</ele>
        <time>2021-03-27T18:58:43Z</time>
      </trkpt>
      <trkpt lat="42.669978" lon="-6.789166">
        <ele>658.48</ele>
        <time>2021-03-27T18:58:45Z</time>
      </trkpt>
      <trkpt lat="42.669928" lon="-6.789446">
        <ele>653.25</ele>
        <time>2021-03-27T18:58:46Z</time>
      </trkpt>
      <trkpt lat="42.669806" lon="-6.789646">
        <ele>649.47</ele>
        <time>2021-03-27T18:58:48Z</time>
      </trkpt>
      <trkpt lat="42.669487" lon="-6.789889">
        <ele>647.14</ele>
        <time>2021-03-27T18:58:50Z</time>
      </trkpt>
      <trkpt lat="42.669178" lon="-6.790217">
        <ele>643.29</ele>
        <time>2021-03-27T18:58:52Z</time>
      </trkpt>
      <trkpt lat="42.668911" lon="-6.790373">
        <ele>642.94</ele>
        <time>2021-03-27T18:58:53Z</time>
      </trkpt>
      <trkpt lat="42.668755" lon="-6.79072">
        <ele>636.62</ele>
        <time>2021-03-27T18:58:55Z</time>
      </trkpt>
      <trkpt lat="42.668545" lon="-6.790969">
        <ele>637.91</ele>
        <time>2021-03-27T18:58:57Z</time>
      </trkpt>
      <trkpt lat="42.668404" lon="-6.791172">
        <ele>639.03</ele>
        <time>2021-03-27T18:58:58Z</time>
      </trkpt>
      <trkpt lat="42.668312" lon="-6.791449">
        <ele>631.72</ele>
        <time>2021-03-27T18:59:00Z</time>
      </trkpt>
      <trkpt lat="42.668215" lon="-6.791642">
        <ele>625.51</ele>
        <time>2021-03-27T18:59:02Z</time>
      </trkpt>
      <trkpt lat="42.667957" lon="-6.791798">
        <ele>627.79</ele>
        <time>2021-03-27T18:59:04Z</time>
      </trkpt>
      <trkpt lat="42.667845" lon="-6.79199">
        <ele>625.06</ele>
        <time>2021-03-27T18:59:05Z</time>
      </trkpt>
      <trkpt lat="42.667655" lon="-6.792402">
        <ele>621.89</ele>
        <time>2021-03-27T18:59:07Z</time>
      </trkpt>
      <trkpt lat="42.667409" lon="-6.792831">
        <ele>618.2</ele>
        <time>2021-03-27T18:59:09Z</time>
      </trkpt>
      <trkpt lat="42.66732" lon="-6.793059">
        <ele>613.0</ele>
        <time>2021-03-27T18:59:11Z</time>
      </trkpt>
      <trkpt lat="42.666816" lon="-6.793364">
        <ele>611.66</ele>
        <time>2021-03-27T18:59:12Z</time>
      </trkpt>
      <trkpt lat="42.666466" lon="-6.7934">
        <ele>619.88</ele>
        <time>2021-03-27T18:59:14Z</time>
      </trkpt>
      <trkpt lat="42.666325" lon="-6.793564">
        <ele>616.55</ele>
        <time>2021-03-27T18:59:16Z</time>
      </trkpt>
      <trkpt lat="42.666101" lon="-6.793608">
        <ele>619.34</ele>
        <time>2021-03-27T18:59:18Z</time>
      </trkpt>
      <trkpt lat="42.665709" lon="-6.793866">
        <ele>618.53</ele>
        <time>2021-03-27T18:59:19Z</time>
      </trkpt>
      <trkpt lat="42.665119" lon="-6.79407">
        <ele>616.87</ele>
        <time>2021-03-27T18:59:21Z</time>
      </trkpt>
      <trkpt lat="42.664785" lon="-6.79407">
        <ele>619.76</ele>
        <time>2021-03-27T18:59:23Z</time>
      </trkpt>
      <trkpt lat="42.664461" lon="-6.79419">
        <ele>618.88</ele>
        <time>2021-03-27T18:59:25Z</time>
      </trkpt>
      <trkpt lat="42.663856" lon="-6.794456">
        <ele>607.56</ele>
        <time>2021-03-27T18:59:26Z</time>
      </trkpt>
      <trkpt lat="42.66365" lon="-6.794513">
        <ele>605.47</ele>
        <time>2021-03-27T18:59:28Z</time>
      </trkpt>
      <trkpt lat="42.663541" lon="-6.794443">
        <ele>606.01</ele>
        <time>2021-03-27T18:59:30Z</time>
      </trkpt>
      <trkpt lat="42.663426" lon="-6.794216">
        <ele>607.1</ele>
        <time>2021-03-27T18:59:31Z</time>
      </trkpt>
      <trkpt lat="42.663334" lon="-6.793987">
        <ele>607.96</ele>
        <time>2021-03-27T18:59:33Z</time>
      </trkpt>
      <trkpt lat="42.663188" lon="-6.793895">
        <ele>610.02</ele>
        <time>2021-03-27T18:59:35Z</time>
      </trkpt>
      <trkpt lat="42.663054" lon="-6.793948">
        <ele>611.29</ele>
        <time>2021-03-27T18:59:37Z</time>
      </trkpt>
      <trkpt lat="42.663003" lon="-6.794109">
        <ele>614.87</ele>
        <time>2021-03-27T18:59:38Z</time>
      </trkpt>
      <trkpt lat="42.663263" lon="-6.794966">
        <ele>605.52</ele>
        <time>2021-03-27T18:59:40Z</time>
      </trkpt>
      <trkpt lat="42.66322" lon="-6.795089">
        <ele>606.33</ele>
        <time>2021-03-27T18:59:42Z</time>
      </trkpt>
      <trkpt lat="42.662782" lon="-6.795239">
        <ele>614.03</ele>
        <time>2021-03-27T18:59:43Z</time>
      </trkpt>
      <trkpt lat="42.661604" lon="-6.796269">
        <ele>618.9</ele>
        <time>2021-03-27T18:59:45Z</time>
      </trkpt>
      <trkpt lat="42.661195" lon="-6.796527">
        <ele>621.15</ele>
        <time>2021-03-27T18:59:47Z</time>
      </trkpt>
      <trkpt lat="42.660989" lon="-6.796583">
        <ele>625.62</ele>
        <time>2021-03-27T18:59:49Z</time>
      </trkpt>
      <trkpt lat="42.660784" lon="-6.797176">
        <ele>618.85</ele>
        <time>2021-03-27T18:59:50Z</time>
      </trkpt>
      <trkpt lat="42.660443" lon="-6.797713">
        <ele>615.41</ele>
        <time>2021-03-27T18:59:52Z</time>
      </trkpt>
      <trkpt lat="42.660226" lon="-6.797907">
        <ele>614.05</ele>
        <time>2021-03-27T18:59:54Z</time>
      </trkpt>
      <trkpt lat="42.659957" lon="-6.798194">
        <ele>618.78</ele>
        <time>2021-03-27T18:59:55Z</time>
      </trkpt>
      <trkpt lat="42.659708" lon="-6.798349">
        <ele>624.83</ele>
        <time>2021-03-27T18:59:57Z</time>
      </trkpt>
      <trkpt lat="42.659336" lon="-6.798782">
        <ele>618.17</ele>
        <time>2021-03-27T18:59:59Z</time>
      </trkpt>
      <trkpt lat="42.659003" lon="-6.79913">
        <ele>619.4</ele>
        <time>2021-03-27T19:00:01Z</time>
      </trkpt>
      <trkpt lat="42.658711" lon="-6.799675">
        <ele>616.81</ele>
        <time>2021-03-27T19:00:02Z</time>
      </trkpt>
      <trkpt lat="42.658577" lon="-6.799963">
        <ele>614.12</ele>
        <time>2021-03-27T19:00:04Z</time>
      </trkpt>
      <trkpt lat="42.658347" lon="-6.800166">
        <ele>616.38</ele>
        <time>2021-03-27T19:00:06Z</time>
      </trkpt>
      <trkpt lat="42.658198" lon="-6.800391">
        <ele>617.7</ele>
        <time>2021-03-27T19:00:07Z</time>
      </trkpt>
      <trkpt lat="42.65815" lon="-6.800559">
        <ele>617.23</ele>
        <time>2021-03-27T19:00:09Z</time>
      </trkpt>
      <trkpt lat="42.658112" lon="-6.801022">
        <ele>614.13</ele>
        <time>2021-03-27T19:00:11Z</time>
      </trkpt>
      <trkpt lat="42.657991" lon="-6.801765">
        <ele>620.81</ele>
        <time>2021-03-27T19:00:13Z</time>
      </trkpt>
      <trkpt lat="42.658044" lon="-6.80219">
        <ele>625.36</ele>
        <time>2021-03-27T19:00:14Z</time>
      </trkpt>
      <trkpt lat="42.658185" lon="-6.802515">
        <ele>621.95</ele>
        <time>2021-03-27T19:00:16Z</time>
      </trkpt>
      <trkpt lat="42.658564" lon="-6.803014">
        <ele>604.04</ele>
        <time>2021-03-27T19:00:18Z</time>
      </trkpt>
      <trkpt lat="42.658659" lon="-6.803267">
        <ele>602.64</ele>
        <time>2021-03-27T19:00:19Z</time>
      </trkpt>
      <trkpt lat="42.658648" lon="-6.803657">
        <ele>605.95</ele>
        <time>2021-03-27T19:00:21Z</time>
      </trkpt>
      <trkpt lat="42.65851" lon="-6.803955">
        <ele>606.73</ele>
        <time>2021-03-27T19:00:23Z</time>
      </trkpt>
      <trkpt lat="42.65809" lon="-6.804116">
        <ele>613.56</ele>
        <time>2021-03-27T19:00:25Z</time>
      </trkpt>
      <trkpt lat="42.65787" lon="-6.804368">
        <ele>606.9</ele>
        <time>2021-03-27T19:00:26Z</time>
      </trkpt>
      <trkpt lat="42.657341" lon="-6.804509">
        <ele>611.08</ele>
        <time>2021-03-27T19:00:28Z</time>
      </trkpt>
      <trkpt lat="42.657056" lon="-6.804653">
        <ele>611.33</ele>
        <time>2021-03-27T19:00:30Z</time>
      </trkpt>
      <trkpt lat="42.656755" lon="-6.804936">
        <ele>607.56</ele>
        <time>2021-03-27T19:00:32Z</time>
      </trkpt>
      <trkpt lat="42.656435" lon="-6.805163">
        <ele>610.38</ele>
        <time>2021-03-27T19:00:33Z</time>
      </trkpt>
      <trkpt lat="42.65604" lon="-6.805714">
        <ele>601.76</ele>
        <time>2021-03-27T19:00:35Z</time>
      </trkpt>
      <trkpt lat="42.655362" lon="-6.806043">
        <ele>608.47</ele>
        <time>2021-03-27T19:00:37Z</time>
      </trkpt>
      <trkpt lat="42.655161" lon="-6.806355">
        <ele>603.18</ele>
        <time>2021-03-27T19:00:38Z</time>
      </trkpt>
      <trkpt lat="42.654815" lon="-6.806611">
        <ele>611.28</ele>
        <time>2021-03-27T19:00:40Z</time>
      </trkpt>
      <trkpt lat="42.65464" lon="-6.806898">
        <ele>603.23</ele>
        <time>2021-03-27T19:00:42Z</time>
      </trkpt>
      <trkpt lat="42.654255" lon="-6.807125">
        <ele>601.12</ele>
        <time>2021-03-27T19:00:44Z</time>
      </trkpt>
      <trkpt lat="42.654169" lon="-6.807207">
        <ele>597.7</ele>
        <time>2021-03-27T19:00:45Z</time>
      </trkpt>
      <trkpt lat="42.654043" lon="-6.807223">
        <ele>593.84</ele>
        <time>2021-03-27T19:00:47Z</time>
      </trkpt>
      <trkpt lat="42.653915" lon="-6.807106">
        <ele>595.33</ele>
        <time>2021-03-27T19:00:49Z</time>
      </trkpt>
      <trkpt lat="42.653793" lon="-6.806842">
        <ele>597.45</ele>
        <time>2021-03-27T19:00:50Z</time>
      </trkpt>
      <trkpt lat="42.653659" lon="-6.806456">
        <ele>599.43</ele>
        <time>2021-03-27T19:00:52Z</time>
      </trkpt>
      <trkpt lat="42.653605" lon="-6.806095">
        <ele>602.93</ele>
        <time>2021-03-27T19:00:54Z</time>
      </trkpt>
      <trkpt lat="42.653519" lon="-6.805705">
        <ele>605.76</ele>
        <time>2021-03-27T19:00:56Z</time>
      </trkpt>
      <trkpt lat="42.653405" lon="-6.805416">
        <ele>606.76</ele>
        <time>2021-03-27T19:00:57Z</time>
      </trkpt>
      <trkpt lat="42.652859" lon="-6.804666">
        <ele>602.76</ele>
        <time>2021-03-27T19:00:59Z</time>
      </trkpt>
      <trkpt lat="42.652778" lon="-6.80449">
        <ele>606.05</ele>
        <time>2021-03-27T19:01:01Z</time>
      </trkpt>
      <trkpt lat="42.6527" lon="-6.804367">
        <ele>608.82</ele>
        <time>2021-03-27T19:01:02Z</time>
      </trkpt>
      <trkpt lat="42.652574" lon="-6.804359">
        <ele>605.18</ele>
        <time>2021-03-27T19:01:04Z</time>
      </trkpt>
      <trkpt lat="42.652372" lon="-6.804147">
        <ele>611.96</ele>
        <time>2021-03-27T19:01:06Z</time>
      </trkpt>
      <trkpt lat="42.652164" lon="-6.804081">
        <ele>608.53</ele>
        <time>2021-03-27T19:01:08Z</time>
      </trkpt>
      <trkpt lat="42.651957" lon="-6.804076">
        <ele>603.85</ele>
        <time>2021-03-27T19:01:09Z</time>
      </trkpt>
      <trkpt lat="42.651724" lon="-6.804158">
        <ele>603.5</ele>
        <time>2021-03-27T19:01:11Z</time>
      </trkpt>
      <trkpt lat="42.65149" lon="-6.804141">
        <ele>610.41</ele>
        <time>2021-03-27T19:01:13Z</time>
      </trkpt>
      <trkpt lat="42.651295" lon="-6.804307">
        <ele>605.61</ele>
        <time>2021-03-27T19:01:14Z</time>
      </trkpt>
      <trkpt lat="42.650652" lon="-6.804622">
        <ele>594.92</ele>
        <time>2021-03-27T19:01:16Z</time>
      </trkpt>
      <trkpt lat="42.650493" lon="-6.804636">
        <ele>594.82</ele>
        <time>2021-03-27T19:01:18Z</time>
      </trkpt>
      <trkpt lat="42.650328" lon="-6.804597">
        <ele>597.21</ele>
        <time>2021-03-27T19:01:20Z</time>
      </trkpt>
      <trkpt lat="42.64963" lon="-6.804365">
        <ele>605.78</ele>
        <time>2021-03-27T19:01:21Z</time>
      </trkpt>
      <trkpt lat="42.649396" lon="-6.80441">
        <ele>610.0</ele>
        <time>2021-03-27T19:01:23Z</time>
      </trkpt>
      <trkpt lat="42.649085" lon="-6.804592">
        <ele>607.66</ele>
        <time>2021-03-27T19:01:25Z</time>
      </trkpt>
      <trkpt lat="42.648851" lon="-6.804625">
        <ele>612.27</ele>
        <time>2021-03-27T19:01:26Z</time>
      </trkpt>
      <trkpt lat="42.648706" lon="-6.804765">
        <ele>609.63</ele>
        <time>2021-03-27T19:01:28Z</time>
      </trkpt>
      <trkpt lat="42.648488" lon="-6.80493">
        <ele>604.61</ele>
        <time>2021-03-27T19:01:30Z</time>
      </trkpt>
      <trkpt lat="42.648229" lon="-6.805037">
        <ele>608.39</ele>
        <time>2021-03-27T19:01:32Z</time>
      </trkpt>
      <trkpt lat="42.647961" lon="-6.805262">
        <ele>603.5</ele>
        <time>2021-03-27T19:01:33Z</time>
      </trkpt>
      <trkpt lat="42.647751" lon="-6.805481">
        <ele>596.4</ele>
        <time>2021-03-27T19:01:35Z</time>
      </trkpt>
      <trkpt lat="42.647581" lon="-6.805548">
        <ele>592.66</ele>
        <time>2021-03-27T19:01:37Z</time>
      </trkpt>
      <trkpt lat="42.647446" lon="-6.805516">
        <ele>593.8</ele>
        <time>2021-03-27T19:01:39Z</time>
      </trkpt>
      <trkpt lat="42.647292" lon="-6.805331">
        <ele>601.29</ele>
        <time>2021-03-27T19:01:40Z</time>
      </trkpt>
      <trkpt lat="42.64717" lon="-6.805221">
        <ele>605.0</ele>
        <time>2021-03-27T19:01:42Z</time>
      </trkpt>
      <trkpt lat="42.647021" lon="-6.805211">
        <ele>604.57</ele>
        <time>2021-03-27T19:01:44Z</time>
      </trkpt>
      <trkpt lat="42.646864" lon="-6.805231">
        <ele>605.53</ele>
        <time>2021-03-27T19:01:45Z</time>
      </trkpt>
      <trkpt lat="42.646774" lon="-6.805365">
        <ele>603.68</ele>
        <time>2021-03-27T19:01:47Z</time>
      </trkpt>
      <trkpt lat="42.646725" lon="-6.805529">
        <ele>599.76</ele>
        <time>2021-03-27T19:01:49Z</time>
      </trkpt>
      <trkpt lat="42.646584" lon="-6.805693">
        <ele>597.34</ele>
        <time>2021-03-27T19:01:51Z</time>
      </trkpt>
      <trkpt lat="42.646407" lon="-6.805845">
        <ele>595.89</ele>
        <time>2021-03-27T19:01:52Z</time>
      </trkpt>
      <trkpt lat="42.646121" lon="-6.805941">
        <ele>597.03</ele>
        <time>2021-03-27T19:01:54Z</time>
      </trkpt>
      <trkpt lat="42.645977" lon="-6.805946">
        <ele>595.09</ele>
        <time>2021-03-27T19:01:56Z</time>
      </trkpt>
      <trkpt lat="42.645682" lon="-6.805803">
        <ele>594.68</ele>
        <time>2021-03-27T19:01:57Z</time>
      </trkpt>
      <trkpt lat="42.644905" lon="-6.805483">
        <ele>599.73</ele>
        <time>2021-03-27T19:01:59Z</time>
      </trkpt>
      <trkpt lat="42.644112" lon="-6.805438">
        <ele>600.71</ele>
        <time>2021-03-27T19:02:01Z</time>
      </trkpt>
      <trkpt lat="42.643896" lon="-6.805485">
        <ele>605.3</ele>
        <time>2021-03-27T19:02:03Z</time>
      </trkpt>
      <trkpt lat="42.643737" lon="-6.805563">
        <ele>603.78</ele>
        <time>2021-03-27T19:02:04Z</time>
      </trkpt>
      <trkpt lat="42.64351" lon="-6.805597">
        <ele>606.38</ele>
        <time>2021-03-27T19:02:06Z</time>
      </trkpt>
      <trkpt lat="42.643351" lon="-6.805648">
        <ele>605.66</ele>
        <time>2021-03-27T19:02:08Z</time>
      </trkpt>
      <trkpt lat="42.642882" lon="-6.806103">
        <ele>587.42</ele>
        <time>2021-03-27T19:02:09Z</time>
      </trkpt>
      <trkpt lat="42.642792" lon="-6.806131">
        <ele>588.72</ele>
        <time>2021-03-27T19:02:11Z</time>
      </trkpt>
      <trkpt lat="42.642702" lon="-6.80611">
        <ele>588.43</ele>
        <time>2021-03-27T19:02:13Z</time>
      </trkpt>
      <trkpt lat="42.642105" lon="-6.805509">
        <ele>586.49</ele>
        <time>2021-03-27T19:02:15Z</time>
      </trkpt>
      <trkpt lat="42.64185" lon="-6.804885">
        <ele>590.83</ele>
        <time>2021-03-27T19:02:16Z</time>
      </trkpt>
      <trkpt lat="42.641717" lon="-6.80451">
        <ele>594.84</ele>
        <time>2021-03-27T19:02:18Z</time>
      </trkpt>
      <trkpt lat="42.641586" lon="-6.804246">
        <ele>594.84</ele>
        <time>2021-03-27T19:02:20Z</time>
      </trkpt>
      <trkpt lat="42.641471" lon="-6.804086">
        <ele>593.65</ele>
        <time>2021-03-27T19:02:21Z</time>
      </trkpt>
      <trkpt lat="42.641355" lon="-6.803974">
        <ele>592.13</ele>
        <time>2021-03-27T19:02:23Z</time>
      </trkpt>
      <trkpt lat="42.641159" lon="-6.80359">
        <ele>597.0</ele>
        <time>2021-03-27T19:02:25Z</time>
      </trkpt>
      <trkpt lat="42.641129" lon="-6.803457">
        <ele>595.95</ele>
        <time>2021-03-27T19:02:27Z</time>
      </trkpt>
      <trkpt lat="42.641172" lon="-6.803334">
        <ele>596.98</ele>
        <time>2021-03-27T19:02:28Z</time>
      </trkpt>
      <trkpt lat="42.641256" lon="-6.803194">
        <ele>598.97</ele>
        <time>2021-03-27T19:02:30Z</time>
      </trkpt>
      <trkpt lat="42.641389" lon="-6.803039">
        <ele>602.83</ele>
        <time>2021-03-27T19:02:32Z</time>
      </trkpt>
      <trkpt lat="42.641505" lon="-6.802834">
        <ele>605.19</ele>
        <time>2021-03-27T19:02:33Z</time>
      </trkpt>
      <trkpt lat="42.641619" lon="-6.802244">
        <ele>604.88</ele>
        <time>2021-03-27T19:02:35Z</time>
      </trkpt>
      <trkpt lat="42.641606" lon="-6.802038">
        <ele>606.24</ele>
        <time>2021-03-27T19:02:37Z</time>
      </trkpt>
      <trkpt lat="42.641559" lon="-6.801929">
        <ele>606.77</ele>
        <time>2021-03-27T19:02:39Z</time>
      </trkpt>
      <trkpt lat="42.64146" lon="-6.801908">
        <ele>605.86</ele>
        <time>2021-03-27T19:02:40Z</time>
      </trkpt>
      <trkpt lat="42.64138" lon="-6.80196">
        <ele>603.81</ele>
        <time>2021-03-27T19:02:42Z</time>
      </trkpt>
      <trkpt lat="42.641269" lon="-6.802112">
        <ele>601.49</ele>
        <time>2021-03-27T19:02:44Z</time>
      </trkpt>
      <trkpt lat="42.641115" lon="-6.802238">
        <ele>598.61</ele>
        <time>2021-03-27T19:02:46Z</time>
      </trkpt>
      <trkpt lat="42.640648" lon="-6.802291">
        <ele>594.6</ele>
        <time>2021-03-27T19:02:47Z</time>
      </trkpt>
      <trkpt lat="42.640323" lon="-6.802241">
        <ele>591.29</ele>
        <time>2021-03-27T19:02:49Z</time>
      </trkpt>
      <trkpt lat="42.640005" lon="-6.802118">
        <ele>591.81</ele>
        <time>2021-03-27T19:02:51Z</time>
      </trkpt>
      <trkpt lat="42.639842" lon="-6.801967">
        <ele>596.59</ele>
        <time>2021-03-27T19:02:52Z</time>
      </trkpt>
      <trkpt lat="42.639665" lon="-6.80174">
        <ele>606.67</ele>
        <time>2021-03-27T19:02:54Z</time>
      </trkpt>
      <trkpt lat="42.639565" lon="-6.801719">
        <ele>607.76</ele>
        <time>2021-03-27T19:02:56Z</time>
      </trkpt>
      <trkpt lat="42.639444" lon="-6.801795">
        <ele>604.92</ele>
        <time>2021-03-27T19:02:58Z</time>
      </trkpt>
      <trkpt lat="42.639122" lon="-6.802104">
        <ele>602.56</ele>
        <time>2021-03-27T19:02:59Z</time>
      </trkpt>
      <trkpt lat="42.638608" lon="-6.802546">
        <ele>614.18</ele>
        <time>2021-03-27T19:03:01Z</time>
      </trkpt>
      <trkpt lat="42.638447" lon="-6.802851">
        <ele>604.0</ele>
        <time>2021-03-27T19:03:03Z</time>
      </trkpt>
      <trkpt lat="42.638371" lon="-6.803091">
        <ele>594.35</ele>
        <time>2021-03-27T19:03:04Z</time>
      </trkpt>
      <trkpt lat="42.638306" lon="-6.80319">
        <ele>592.37</ele>
        <time>2021-03-27T19:03:06Z</time>
      </trkpt>
      <trkpt lat="42.638213" lon="-6.803211">
        <ele>598.36</ele>
        <time>2021-03-27T19:03:08Z</time>
      </trkpt>
      <trkpt lat="42.63781" lon="-6.803196">
        <ele>619.83</ele>
        <time>2021-03-27T19:03:10Z</time>
      </trkpt>
      <trkpt lat="42.637544" lon="-6.803413">
        <ele>613.09</ele>
        <time>2021-03-27T19:03:11Z</time>
      </trkpt>
      <trkpt lat="42.637241" lon="-6.803554">
        <ele>600.04</ele>
        <time>2021-03-27T19:03:13Z</time>
      </trkpt>
      <trkpt lat="42.637116" lon="-6.803586">
        <ele>595.49</ele>
        <time>2021-03-27T19:03:15Z</time>
      </trkpt>
      <trkpt lat="42.636666" lon="-6.803426">
        <ele>596.66</ele>
        <time>2021-03-27T19:03:16Z</time>
      </trkpt>
      <trkpt lat="42.636408" lon="-6.803294">
        <ele>596.3</ele>
        <time>2021-03-27T19:03:18Z</time>
      </trkpt>
      <trkpt lat="42.635848" lon="-6.802753">
        <ele>595.06</ele>
        <time>2021-03-27T19:03:20Z</time>
      </trkpt>
      <trkpt lat="42.635666" lon="-6.802649">
        <ele>601.28</ele>
        <time>2021-03-27T19:03:22Z</time>
      </trkpt>
      <trkpt lat="42.635503" lon="-6.802643">
        <ele>602.54</ele>
        <time>2021-03-27T19:03:23Z</time>
      </trkpt>
      <trkpt lat="42.635302" lon="-6.802722">
        <ele>599.06</ele>
        <time>2021-03-27T19:03:25Z</time>
      </trkpt>
      <trkpt lat="42.635111" lon="-6.80284">
        <ele>598.53</ele>
        <time>2021-03-27T19:03:27Z</time>
      </trkpt>
      <trkpt lat="42.634785" lon="-6.803193">
        <ele>597.3</ele>
        <time>2021-03-27T19:03:28Z</time>
      </trkpt>
      <trkpt lat="42.634664" lon="-6.80352">
        <ele>585.78</ele>
        <time>2021-03-27T19:03:30Z</time>
      </trkpt>
      <trkpt lat="42.634595" lon="-6.803638">
        <ele>579.42</ele>
        <time>2021-03-27T19:03:32Z</time>
      </trkpt>
      <trkpt lat="42.634494" lon="-6.8037">
        <ele>576.27</ele>
        <time>2021-03-27T19:03:34Z</time>
      </trkpt>
      <trkpt lat="42.634389" lon="-6.803706">
        <ele>575.33</ele>
        <time>2021-03-27T19:03:35Z</time>
      </trkpt>
      <trkpt lat="42.634253" lon="-6.803626">
        <ele>576.87</ele>
        <time>2021-03-27T19:03:37Z</time>
      </trkpt>
      <trkpt lat="42.634077" lon="-6.803331">
        <ele>584.2</ele>
        <time>2021-03-27T19:03:39Z</time>
      </trkpt>
      <trkpt lat="42.633669" lon="-6.802756">
        <ele>580.39</ele>
        <time>2021-03-27T19:03:40Z</time>
      </trkpt>
      <trkpt lat="42.632802" lon="-6.801701">
        <ele>575.36</ele>
        <time>2021-03-27T19:03:42Z</time>
      </trkpt>
      <trkpt lat="42.632543" lon="-6.801529">
        <ele>567.6</ele>
        <time>2021-03-27T19:03:44Z</time>
      </trkpt>
      <trkpt lat="42.632366" lon="-6.801357">
        <ele>570.31</ele>
        <time>2021-03-27T19:03:46Z</time>
      </trkpt>
      <trkpt lat="42.632181" lon="-6.801248">
        <ele>572.48</ele>
        <time>2021-03-27T19:03:47Z</time>
      </trkpt>
      <trkpt lat="42.632" lon="-6.801193">
        <ele>572.92</ele>
        <time>2021-03-27T19:03:49Z</time>
      </trkpt>
      <trkpt lat="42.631817" lon="-6.801228">
        <ele>567.96</ele>
        <time>2021-03-27T19:03:51Z</time>
      </trkpt>
      <trkpt lat="42.631671" lon="-6.801314">
        <ele>562.72</ele>
        <time>2021-03-27T19:03:53Z</time>
      </trkpt>
      <trkpt lat="42.631489" lon="-6.801333">
        <ele>557.54</ele>
        <time>2021-03-27T19:03:54Z</time>
      </trkpt>
      <trkpt lat="42.631389" lon="-6.801287">
        <ele>556.65</ele>
        <time>2021-03-27T19:03:56Z</time>
      </trkpt>
      <trkpt lat="42.631318" lon="-6.801117">
        <ele>562.03</ele>
        <time>2021-03-27T19:03:58Z</time>
      </trkpt>
      <trkpt lat="42.631283" lon="-6.80095">
        <ele>568.18</ele>
        <time>2021-03-27T19:03:59Z</time>
      </trkpt>
      <trkpt lat="42.631209" lon="-6.800843">
        <ele>572.88</ele>
        <time>2021-03-27T19:04:01Z</time>
      </trkpt>
      <trkpt lat="42.631055" lon="-6.800763">
        <ele>577.3</ele>
        <time>2021-03-27T19:04:03Z</time>
      </trkpt>
      <trkpt lat="42.630506" lon="-6.801246">
        <ele>567.44</ele>
        <time>2021-03-27T19:04:05Z</time>
      </trkpt>
      <trkpt lat="42.630434" lon="-6.801443">
        <ele>561.04</ele>
        <time>2021-03-27T19:04:06Z</time>
      </trkpt>
      <trkpt lat="42.63035" lon="-6.801592">
        <ele>555.35</ele>
        <time>2021-03-27T19:04:08Z</time>
      </trkpt>
      <trkpt lat="42.630225" lon="-6.801646">
        <ele>553.36</ele>
        <time>2021-03-27T19:04:10Z</time>
      </trkpt>
      <trkpt lat="42.630067" lon="-6.801606">
        <ele>554.11</ele>
        <time>2021-03-27T19:04:11Z</time>
      </trkpt>
      <trkpt lat="42.629843" lon="-6.80144">
        <ele>560.6</ele>
        <time>2021-03-27T19:04:13Z</time>
      </trkpt>
      <trkpt lat="42.629545" lon="-6.801414">
        <ele>559.19</ele>
        <time>2021-03-27T19:04:15Z</time>
      </trkpt>
      <trkpt lat="42.629143" lon="-6.801096">
        <ele>557.51</ele>
        <time>2021-03-27T19:04:17Z</time>
      </trkpt>
      <trkpt lat="42.629065" lon="-6.800975">
        <ele>557.7</ele>
        <time>2021-03-27T19:04:18Z</time>
      </trkpt>
      <trkpt lat="42.628906" lon="-6.800604">
        <ele>559.82</ele>
        <time>2021-03-27T19:04:20Z</time>
      </trkpt>
      <trkpt lat="42.628837" lon="-6.800342">
        <ele>560.88</ele>
        <time>2021-03-27T19:04:22Z</time>
      </trkpt>
      <trkpt lat="42.628777" lon="-6.799843">
        <ele>566.05</ele>
        <time>2021-03-27T19:04:23Z</time>
      </trkpt>
      <trkpt lat="42.62877" lon="-6.799477">
        <ele>570.74</ele>
        <time>2021-03-27T19:04:25Z</time>
      </trkpt>
      <trkpt lat="42.628691" lon="-6.799392">
        <ele>569.18</ele>
        <time>2021-03-27T19:04:27Z</time>
      </trkpt>
      <trkpt lat="42.628568" lon="-6.799314">
        <ele>567.88</ele>
        <time>2021-03-27T19:04:29Z</time>
      </trkpt>
      <trkpt lat="42.628433" lon="-6.799282">
        <ele>568.34</ele>
        <time>2021-03-27T19:04:30Z</time>
      </trkpt>
      <trkpt lat="42.628344" lon="-6.799322">
        <ele>567.77</ele>
        <time>2021-03-27T19:04:32Z</time>
      </trkpt>
      <trkpt lat="42.628059" lon="-6.799595">
        <ele>565.1</ele>
        <time>2021-03-27T19:04:34Z</time>
      </trkpt>
      <trkpt lat="42.6279" lon="-6.799691">
        <ele>564.68</ele>
        <time>2021-03-27T19:04:36Z</time>
      </trkpt>
      <trkpt lat="42.626958" lon="-6.799871">
        <ele>570.44</ele>
        <time>2021-03-27T19:04:37Z</time>
      </trkpt>
      <trkpt lat="42.626714" lon="-6.799872">
        <ele>570.52</ele>
        <time>2021-03-27T19:04:39Z</time>
      </trkpt>
      <trkpt lat="42.62648" lon="-6.799802">
        <ele>570.48</ele>
        <time>2021-03-27T19:04:40Z</time>
      </trkpt>
      <trkpt lat="42.625949" lon="-6.799444">
        <ele>572.42</ele>
        <time>2021-03-27T19:04:42Z</time>
      </trkpt>
      <trkpt lat="42.625842" lon="-6.799349">
        <ele>575.52</ele>
        <time>2021-03-27T19:04:44Z</time>
      </trkpt>
      <trkpt lat="42.625741" lon="-6.799304">
        <ele>580.54</ele>
        <time>2021-03-27T19:04:45Z</time>
      </trkpt>
      <trkpt lat="42.625687" lon="-6.799342">
        <ele>581.82</ele>
        <time>2021-03-27T19:04:47Z</time>
      </trkpt>
      <trkpt lat="42.625663" lon="-6.799465">
        <ele>581.11</ele>
        <time>2021-03-27T19:04:49Z</time>
      </trkpt>
      <trkpt lat="42.625728" lon="-6.800036">
        <ele>572.87</ele>
        <time>2021-03-27T19:04:50Z</time>
      </trkpt>
      <trkpt lat="42.625713" lon="-6.800195">
        <ele>571.05</ele>
        <time>2021-03-27T19:04:52Z</time>
      </trkpt>
      <trkpt lat="42.62564" lon="-6.800293">
        <ele>572.47</ele>
        <time>2021-03-27T19:04:53Z</time>
      </trkpt>
      <trkpt lat="42.625464" lon="-6.800413">
        <ele>577.24</ele>
        <time>2021-03-27T19:04:55Z</time>
      </trkpt>
      <trkpt lat="42.625218" lon="-6.800688">
        <ele>585.84</ele>
        <time>2021-03-27T19:04:57Z</time>
      </trkpt>
      <trkpt lat="42.625104" lon="-6.800954">
        <ele>589.27</ele>
        <time>2021-03-27T19:04:58Z</time>
      </trkpt>
      <trkpt lat="42.625003" lon="-6.801331">
        <ele>589.2</ele>
        <time>2021-03-27T19:05:00Z</time>
      </trkpt>
      <trkpt lat="42.624868" lon="-6.801688">
        <ele>583.36</ele>
        <time>2021-03-27T19:05:02Z</time>
      </trkpt>
      <trkpt lat="42.624772" lon="-6.801826">
        <ele>582.86</ele>
        <time>2021-03-27T19:05:03Z</time>
      </trkpt>
      <trkpt lat="42.624439" lon="-6.801837">
        <ele>594.18</ele>
        <time>2021-03-27T19:05:05Z</time>
      </trkpt>
      <trkpt lat="42.624369" lon="-6.801962">
        <ele>594.75</ele>
        <time>2021-03-27T19:05:06Z</time>
      </trkpt>
      <trkpt lat="42.624314" lon="-6.802147">
        <ele>592.09</ele>
        <time>2021-03-27T19:05:08Z</time>
      </trkpt>
      <trkpt lat="42.624269" lon="-6.802416">
        <ele>587.54</ele>
        <time>2021-03-27T19:05:10Z</time>
      </trkpt>
      <trkpt lat="42.624121" lon="-6.802665">
        <ele>587.34</ele>
        <time>2021-03-27T19:05:11Z</time>
      </trkpt>
      <trkpt lat="42.623854" lon="-6.802836">
        <ele>588.64</ele>
        <time>2021-03-27T19:05:13Z</time>
      </trkpt>
      <trkpt lat="42.623626" lon="-6.802954">
        <ele>595.26</ele>
        <time>2021-03-27T19:05:15Z</time>
      </trkpt>
      <trkpt lat="42.623534" lon="-6.80304">
        <ele>598.41</ele>
        <time>2021-03-27T19:05:16Z</time>
      </trkpt>
      <trkpt lat="42.623506" lon="-6.80316">
        <ele>596.03</ele>
        <time>2021-03-27T19:05:18Z</time>
      </trkpt>
      <trkpt lat="42.62347" lon="-6.803444">
        <ele>588.08</ele>
        <time>2021-03-27T19:05:19Z</time>
      </trkpt>
      <trkpt lat="42.623321" lon="-6.803645">
        <ele>592.15</ele>
        <time>2021-03-27T19:05:21Z</time>
      </trkpt>
      <trkpt lat="42.622807" lon="-6.804077">
        <ele>609.67</ele>
        <time>2021-03-27T19:05:23Z</time>
      </trkpt>
      <trkpt lat="42.622711" lon="-6.804251">
        <ele>605.66</ele>
        <time>2021-03-27T19:05:24Z</time>
      </trkpt>
      <trkpt lat="42.622655" lon="-6.804644">
        <ele>587.43</ele>
        <time>2021-03-27T19:05:26Z</time>
      </trkpt>
      <trkpt lat="42.622584" lon="-6.804747">
        <ele>588.51</ele>
        <time>2021-03-27T19:05:28Z</time>
      </trkpt>
      <trkpt lat="42.622451" lon="-6.804868">
        <ele>591.83</ele>
        <time>2021-03-27T19:05:29Z</time>
      </trkpt>
      <trkpt lat="42.622347" lon="-6.804996">
        <ele>590.52</ele>
        <time>2021-03-27T19:05:31Z</time>
      </trkpt>
      <trkpt lat="42.622234" lon="-6.805195">
        <ele>591.65</ele>
        <time>2021-03-27T19:05:32Z</time>
      </trkpt>
      <trkpt lat="42.622027" lon="-6.805666">
        <ele>587.91</ele>
        <time>2021-03-27T19:05:34Z</time>
      </trkpt>
      <trkpt lat="42.621927" lon="-6.805786">
        <ele>588.99</ele>
        <time>2021-03-27T19:05:36Z</time>
      </trkpt>
      <trkpt lat="42.621852" lon="-6.80594">
        <ele>587.66</ele>
        <time>2021-03-27T19:05:37Z</time>
      </trkpt>
      <trkpt lat="42.621716" lon="-6.806384">
        <ele>582.61</ele>
        <time>2021-03-27T19:05:39Z</time>
      </trkpt>
      <trkpt lat="42.621593" lon="-6.806547">
        <ele>582.34</ele>
        <time>2021-03-27T19:05:41Z</time>
      </trkpt>
      <trkpt lat="42.621459" lon="-6.806653">
        <ele>583.73</ele>
        <time>2021-03-27T19:05:42Z</time>
      </trkpt>
      <trkpt lat="42.621133" lon="-6.80699">
        <ele>581.93</ele>
        <time>2021-03-27T19:05:44Z</time>
      </trkpt>
      <trkpt lat="42.620758" lon="-6.807125">
        <ele>587.28</ele>
        <time>2021-03-27T19:05:45Z</time>
      </trkpt>
      <trkpt lat="42.620661" lon="-6.80725">
        <ele>585.13</ele>
        <time>2021-03-27T19:05:47Z</time>
      </trkpt>
      <trkpt lat="42.620493" lon="-6.80734">
        <ele>582.42</ele>
        <time>2021-03-27T19:05:49Z</time>
      </trkpt>
      <trkpt lat="42.620322" lon="-6.807396">
        <ele>576.34</ele>
        <time>2021-03-27T19:05:50Z</time>
      </trkpt>
      <trkpt lat="42.620187" lon="-6.807401">
        <ele>569.88</ele>
        <time>2021-03-27T19:05:52Z</time>
      </trkpt>
      <trkpt lat="42.620095" lon="-6.807307">
        <ele>567.99</ele>
        <time>2021-03-27T19:05:54Z</time>
      </trkpt>
      <trkpt lat="42.620045" lon="-6.807142">
        <ele>570.35</ele>
        <time>2021-03-27T19:05:55Z</time>
      </trkpt>
      <trkpt lat="42.619855" lon="-6.805958">
        <ele>576.18</ele>
        <time>2021-03-27T19:05:57Z</time>
      </trkpt>
      <trkpt lat="42.619804" lon="-6.805756">
        <ele>576.7</ele>
        <time>2021-03-27T19:05:59Z</time>
      </trkpt>
      <trkpt lat="42.619571" lon="-6.805305">
        <ele>574.31</ele>
        <time>2021-03-27T19:06:00Z</time>
      </trkpt>
      <trkpt lat="42.619485" lon="-6.805084">
        <ele>577.88</ele>
        <time>2021-03-27T19:06:02Z</time>
      </trkpt>
      <trkpt lat="42.619344" lon="-6.80491">
        <ele>578.12</ele>
        <time>2021-03-27T19:06:03Z</time>
      </trkpt>
      <trkpt lat="42.619191" lon="-6.804766">
        <ele>576.62</ele>
        <time>2021-03-27T19:06:05Z</time>
      </trkpt>
      <trkpt lat="42.619001" lon="-6.804723">
        <ele>573.97</ele>
        <time>2021-03-27T19:06:07Z</time>
      </trkpt>
      <trkpt lat="42.618218" lon="-6.804775">
        <ele>566.49</ele>
        <time>2021-03-27T19:06:08Z</time>
      </trkpt>
      <trkpt lat="42.617885" lon="-6.804962">
        <ele>561.87</ele>
        <time>2021-03-27T19:06:10Z</time>
      </trkpt>
      <trkpt lat="42.617658" lon="-6.805136">
        <ele>556.9</ele>
        <time>2021-03-27T19:06:12Z</time>
      </trkpt>
      <trkpt lat="42.617581" lon="-6.805314">
        <ele>551.92</ele>
        <time>2021-03-27T19:06:13Z</time>
      </trkpt>
      <trkpt lat="42.617502" lon="-6.805434">
        <ele>549.74</ele>
        <time>2021-03-27T19:06:15Z</time>
      </trkpt>
      <trkpt lat="42.617411" lon="-6.80546">
        <ele>547.82</ele>
        <time>2021-03-27T19:06:16Z</time>
      </trkpt>
      <trkpt lat="42.617339" lon="-6.805428">
        <ele>548.09</ele>
        <time>2021-03-27T19:06:18Z</time>
      </trkpt>
      <trkpt lat="42.616899" lon="-6.804267">
        <ele>551.2</ele>
        <time>2021-03-27T19:06:20Z</time>
      </trkpt>
      <trkpt lat="42.616797" lon="-6.803899">
        <ele>547.36</ele>
        <time>2021-03-27T19:06:21Z</time>
      </trkpt>
      <trkpt lat="42.616783" lon="-6.803667">
        <ele>547.02</ele>
        <time>2021-03-27T19:06:23Z</time>
      </trkpt>
      <trkpt lat="42.616836" lon="-6.803494">
        <ele>550.54</ele>
        <time>2021-03-27T19:06:25Z</time>
      </trkpt>
      <trkpt lat="42.616978" lon="-6.803179">
        <ele>558.99</ele>
        <time>2021-03-27T19:06:26Z</time>
      </trkpt>
      <trkpt lat="42.617011" lon="-6.802993">
        <ele>560.81</ele>
        <time>2021-03-27T19:06:28Z</time>
      </trkpt>
      <trkpt lat="42.617001" lon="-6.802881">
        <ele>560.73</ele>
        <time>2021-03-27T19:06:29Z</time>
      </trkpt>
      <trkpt lat="42.616974" lon="-6.802819">
        <ele>559.94</ele>
        <time>2021-03-27T19:06:31Z</time>
      </trkpt>
      <trkpt lat="42.616684" lon="-6.802708">
        <ele>548.03</ele>
        <time>2021-03-27T19:06:33Z</time>
      </trkpt>
      <trkpt lat="42.616557" lon="-6.802597">
        <ele>544.49</ele>
        <time>2021-03-27T19:06:34Z</time>
      </trkpt>
      <trkpt lat="42.616448" lon="-6.802393">
        <ele>543.08</ele>
        <time>2021-03-27T19:06:36Z</time>
      </trkpt>
      <trkpt lat="42.61639" lon="-6.80214">
        <ele>544.53</ele>
        <time>2021-03-27T19:06:38Z</time>
      </trkpt>
      <trkpt lat="42.616358" lon="-6.801723">
        <ele>549.05</ele>
        <time>2021-03-27T19:06:39Z</time>
      </trkpt>
      <trkpt lat="42.616304" lon="-6.801529">
        <ele>549.14</ele>
        <time>2021-03-27T19:06:41Z</time>
      </trkpt>
      <trkpt lat="42.616247" lon="-6.801434">
        <ele>548.25</ele>
        <time>2021-03-27T19:06:42Z</time>
      </trkpt>
      <trkpt lat="42.616146" lon="-6.801431">
        <ele>544.52</ele>
        <time>2021-03-27T19:06:44Z</time>
      </trkpt>
      <trkpt lat="42.616001" lon="-6.80147">
        <ele>539.82</ele>
        <time>2021-03-27T19:06:46Z</time>
      </trkpt>
      <trkpt lat="42.615913" lon="-6.801446">
        <ele>538.25</ele>
        <time>2021-03-27T19:06:47Z</time>
      </trkpt>
      <trkpt lat="42.615744" lon="-6.801357">
        <ele>538.66</ele>
        <time>2021-03-27T19:06:49Z</time>
      </trkpt>
      <trkpt lat="42.61546" lon="-6.80144">
        <ele>533.51</ele>
        <time>2021-03-27T19:06:51Z</time>
      </trkpt>
      <trkpt lat="42.615393" lon="-6.801435">
        <ele>534.4</ele>
        <time>2021-03-27T19:06:52Z</time>
      </trkpt>
      <trkpt lat="42.615054" lon="-6.801314">
        <ele>535.65</ele>
        <time>2021-03-27T19:06:54Z</time>
      </trkpt>
      <trkpt lat="42.614828" lon="-6.801288">
        <ele>535.65</ele>
        <time>2021-03-27T19:06:55Z</time>
      </trkpt>
      <trkpt lat="42.614441" lon="-6.801299">
        <ele>541.53</ele>
        <time>2021-03-27T19:06:57Z</time>
      </trkpt>
      <trkpt lat="42.614244" lon="-6.801355">
        <ele>541.41</ele>
        <time>2021-03-27T19:06:59Z</time>
      </trkpt>
      <trkpt lat="42.614049" lon="-6.801484">
        <ele>539.57</ele>
        <time>2021-03-27T19:07:00Z</time>
      </trkpt>
      <trkpt lat="42.613602" lon="-6.801503">
        <ele>545.85</ele>
        <time>2021-03-27T19:07:02Z</time>
      </trkpt>
      <trkpt lat="42.6135" lon="-6.801527">
        <ele>547.11</ele>
        <time>2021-03-27T19:07:04Z</time>
      </trkpt>
      <trkpt lat="42.61335" lon="-6.801838">
        <ele>538.14</ele>
        <time>2021-03-27T19:07:05Z</time>
      </trkpt>
      <trkpt lat="42.613274" lon="-6.801938">
        <ele>536.22</ele>
        <time>2021-03-27T19:07:07Z</time>
      </trkpt>
      <trkpt lat="42.612914" lon="-6.802061">
        <ele>537.81</ele>
        <time>2021-03-27T19:07:08Z</time>
      </trkpt>
      <trkpt lat="42.612693" lon="-6.802165">
        <ele>534.49</ele>
        <time>2021-03-27T19:07:10Z</time>
      </trkpt>
      <trkpt lat="42.612285" lon="-6.802472">
        <ele>533.76</ele>
        <time>2021-03-27T19:07:12Z</time>
      </trkpt>
      <trkpt lat="42.611827" lon="-6.802748">
        <ele>532.89</ele>
        <time>2021-03-27T19:07:13Z</time>
      </trkpt>
      <trkpt lat="42.611399" lon="-6.80293">
        <ele>531.6</ele>
        <time>2021-03-27T19:07:15Z</time>
      </trkpt>
      <trkpt lat="42.610487" lon="-6.803823">
        <ele>524.68</ele>
        <time>2021-03-27T19:07:17Z</time>
      </trkpt>
      <trkpt lat="42.61043" lon="-6.803938">
        <ele>524.75</ele>
        <time>2021-03-27T19:07:18Z</time>
      </trkpt>
      <trkpt lat="42.610329" lon="-6.804303">
        <ele>523.63</ele>
        <time>2021-03-27T19:07:20Z</time>
      </trkpt>
      <trkpt lat="42.610185" lon="-6.80474">
        <ele>524.34</ele>
        <time>2021-03-27T19:07:21Z</time>
      </trkpt>
      <trkpt lat="42.609952" lon="-6.805328">
        <ele>519.97</ele>
        <time>2021-03-27T19:07:23Z</time>
      </trkpt>
      <trkpt lat="42.609949" lon="-6.805542">
        <ele>516.93</ele>
        <time>2021-03-27T19:07:25Z</time>
      </trkpt>
      <trkpt lat="42.610189" lon="-6.806781">
        <ele>510.22</ele>
        <time>2021-03-27T19:07:26Z</time>
      </trkpt>
      <trkpt lat="42.610192" lon="-6.806857">
        <ele>509.93</ele>
        <time>2021-03-27T19:07:28Z</time>
      </trkpt>
      <trkpt lat="42.610165" lon="-6.806947">
        <ele>509.8</ele>
        <time>2021-03-27T19:07:30Z</time>
      </trkpt>
      <trkpt lat="42.610122" lon="-6.807023">
        <ele>509.83</ele>
        <time>2021-03-27T19:07:31Z</time>
      </trkpt>
      <trkpt lat="42.610043" lon="-6.807112">
        <ele>510.08</ele>
        <time>2021-03-27T19:07:33Z</time>
      </trkpt>
      <trkpt lat="42.609976" lon="-6.807247">
        <ele>510.08</ele>
        <time>2021-03-27T19:07:34Z</time>
      </trkpt>
      <trkpt lat="42.609977" lon="-6.807404">
        <ele>510.03</ele>
        <time>2021-03-27T19:07:36Z</time>
      </trkpt>
      <trkpt lat="42.610041" lon="-6.807587">
        <ele>509.97</ele>
        <time>2021-03-27T19:07:38Z</time>
      </trkpt>
      <trkpt lat="42.610137" lon="-6.80779">
        <ele>509.5</ele>
        <time>2021-03-27T19:07:39Z</time>
      </trkpt>
      <trkpt lat="42.610189" lon="-6.807867">
        <ele>508.74</ele>
        <time>2021-03-27T19:07:41Z</time>
      </trkpt>
      <trkpt lat="42.610352" lon="-6.808042">
        <ele>506.23</ele>
        <time>2021-03-27T19:07:43Z</time>
      </trkpt>
      <trkpt lat="42.610388" lon="-6.808116">
        <ele>505.46</ele>
        <time>2021-03-27T19:07:44Z</time>
      </trkpt>
      <trkpt lat="42.610329" lon="-6.808188">
        <ele>505.58</ele>
        <time>2021-03-27T19:07:46Z</time>
      </trkpt>
      <trkpt lat="42.610196" lon="-6.808536">
        <ele>502.81</ele>
        <time>2021-03-27T19:07:48Z</time>
      </trkpt>
      <trkpt lat="42.61017" lon="-6.808422">
        <ele>504.04</ele>
        <time>2021-03-27T19:07:50Z</time>
      </trkpt>
      <trkpt lat="42.610099" lon="-6.808383">
        <ele>504.46</ele>
        <time>2021-03-27T19:07:51Z</time>
      </trkpt>
      <trkpt lat="42.60972" lon="-6.808589">
        <ele>503.16</ele>
        <time>2021-03-27T19:07:59Z</time>
      </trkpt>
      <trkpt lat="42.609664" lon="-6.808552">
        <ele>503.38</ele>
        <time>2021-03-27T19:08:03Z</time>
      </trkpt>
      <trkpt lat="42.609529" lon="-6.80854">
        <ele>503.33</ele>
        <time>2021-03-27T19:08:08Z</time>
      </trkpt>
      <trkpt lat="42.608501" lon="-6.808636">
        <ele>508.25</ele>
        <time>2021-03-27T19:08:12Z</time>
      </trkpt>
      <trkpt lat="42.607945" lon="-6.808664">
        <ele>514.86</ele>
        <time>2021-03-27T19:08:17Z</time>
      </trkpt>
      <trkpt lat="42.608454" lon="-6.808345">
        <ele>509.299</ele>
        <time>2021-03-27T13:05:55Z</time>
      </trkpt>
      <trkpt lat="42.609754" lon="-6.807320">
        <ele>510.607</ele>
        <time>2021-03-27T13:06:15Z</time>
      </trkpt>
      <trkpt lat="42.609444" lon="-6.804686">
        <ele>531.327</ele>
        <time>2021-03-27T13:07:15Z</time>
      </trkpt>
      <trkpt lat="42.608905" lon="-6.804398">
        <ele>540.508</ele>
        <time>2021-03-27T13:07:55Z</time>
      </trkpt>
      <trkpt lat="42.609361" lon="-6.797481">
        <ele>614.064</ele>
        <time>2021-03-27T13:08:55Z</time>
      </trkpt>
      <trkpt lat="42.613318" lon="-6.795950">
        <ele>668.794</ele>
        <time>2021-03-27T13:10:55Z</time>
      </trkpt>
      <trkpt lat="42.618929" lon="-6.796695">
        <ele>759.885</ele>
        <time>2021-03-27T13:13:55Z</time>
      </trkpt>
      <trkpt lat="42.620457" lon="-6.793577">
        <ele>804.270</ele>
        <time>2021-03-27T13:14:55Z</time>
      </trkpt>
      <trkpt lat="42.619939" lon="-6.793313">
        <ele>803.231</ele>
        <time>2021-03-27T13:15:15Z</time>
      </trkpt>
      <trkpt lat="42.623897" lon="-6.791227">
        <ele>838.517</ele>
        <time>2021-03-27T13:17:15Z</time>
      </trkpt>
      <trkpt lat="42.624782" lon="-6.789575">
        <ele>851.681</ele>
        <time>2021-03-27T13:17:35Z</time>
      </trkpt>
      <trkpt lat="42.625896" lon="-6.789072">
        <ele>864.359</ele>
        <time>2021-03-27T13:17:55Z</time>
      </trkpt>
      <trkpt lat="42.626815" lon="-6.787144">
        <ele>887.175</ele>
        <time>2021-03-27T13:18:35Z</time>
      </trkpt>
      <trkpt lat="42.628986" lon="-6.787595">
        <ele>905.128</ele>
        <time>2021-03-27T13:19:15Z</time>
      </trkpt>
      <trkpt lat="42.630778" lon="-6.786838">
        <ele>920.820</ele>
        <time>2021-03-27T13:19:35Z</time>
      </trkpt>
      <trkpt lat="42.632207" lon="-6.787637">
        <ele>933.308</ele>
        <time>2021-03-27T13:20:15Z</time>
      </trkpt>
      <trkpt lat="42.635727" lon="-6.786555">
        <ele>946.982</ele>
        <time>2021-03-27T13:21:55Z</time>
      </trkpt>
      <trkpt lat="42.637191" lon="-6.787185">
        <ele>941.642</ele>
        <time>2021-03-27T13:22:35Z</time>
      </trkpt>
      <trkpt lat="42.638015" lon="-6.785868">
        <ele>946.453</ele>
        <time>2021-03-27T13:23:35Z</time>
      </trkpt>
      <trkpt lat="42.640802" lon="-6.786740">
        <ele>960.838</ele>
        <time>2021-03-27T13:24:55Z</time>
      </trkpt>
      <trkpt lat="42.643806" lon="-6.781436">
        <ele>976.379</ele>
        <time>2021-03-27T13:26:35Z</time>
      </trkpt>
      <trkpt lat="42.645241" lon="-6.780195">
        <ele>975.835</ele>
        <time>2021-03-27T13:27:15Z</time>
      </trkpt>
      <trkpt lat="42.646557" lon="-6.780219">
        <ele>976.839</ele>
        <time>2021-03-27T13:27:55Z</time>
      </trkpt>
      <trkpt lat="42.647663" lon="-6.782328">
        <ele>990.137</ele>
        <time>2021-03-27T13:28:55Z</time>
      </trkpt>
      <trkpt lat="42.649301" lon="-6.780403">
        <ele>965.628</ele>
        <time>2021-03-27T13:29:35Z</time>
      </trkpt>
      <trkpt lat="42.650170" lon="-6.780859">
        <ele>959.289</ele>
        <time>2021-03-27T13:30:15Z</time>
      </trkpt>
      <trkpt lat="42.649475" lon="-6.779288">
        <ele>953.317</ele>
        <time>2021-03-27T13:30:35Z</time>
      </trkpt>
      <trkpt lat="42.649676" lon="-6.776649">
        <ele>949.408</ele>
        <time>2021-03-27T13:31:35Z</time>
      </trkpt>
      <trkpt lat="42.648768" lon="-6.775129">
        <ele>932.157</ele>
        <time>2021-03-27T13:32:35Z</time>
      </trkpt>
      <trkpt lat="42.648732" lon="-6.770462">
        <ele>938.157</ele>
        <time>2021-03-27T13:33:35Z</time>
      </trkpt>
      <trkpt lat="42.650002" lon="-6.767749">
        <ele>950.928</ele>
        <time>2021-03-27T13:34:15Z</time>
      </trkpt>
      <trkpt lat="42.650428" lon="-6.763499">
        <ele>942.833</ele>
        <time>2021-03-27T13:35:15Z</time>
      </trkpt>
      <trkpt lat="42.653408" lon="-6.763934">
        <ele>965.474</ele>
        <time>2021-03-27T13:36:15Z</time>
      </trkpt>
      <trkpt lat="42.656337" lon="-6.762566">
        <ele>960.260</ele>
        <time>2021-03-27T13:36:55Z</time>
      </trkpt>
      <trkpt lat="42.664828" lon="-6.752373">
        <ele>839.454</ele>
        <time>2021-03-27T13:39:55Z</time>
      </trkpt>
      <trkpt lat="42.665826" lon="-6.752076">
        <ele>827.612</ele>
        <time>2021-03-27T13:40:15Z</time>
      </trkpt>
      <trkpt lat="42.664847" lon="-6.753883">
        <ele>827.765</ele>
        <time>2021-03-27T13:40:35Z</time>
      </trkpt>
      <trkpt lat="42.665356" lon="-6.756589">
        <ele>825.068</ele>
        <time>2021-03-27T13:41:35Z</time>
      </trkpt>
      <trkpt lat="42.664732" lon="-6.757479">
        <ele>826.314</ele>
        <time>2021-03-27T13:42:15Z</time>
      </trkpt>
      <trkpt lat="42.663463" lon="-6.757196">
        <ele>830.308</ele>
        <time>2021-03-27T13:42:55Z</time>
      </trkpt>
      <trkpt lat="42.662533" lon="-6.759294">
        <ele>839.871</ele>
        <time>2021-03-27T13:43:35Z</time>
      </trkpt>
      <trkpt lat="42.664351" lon="-6.761288">
        <ele>831.871</ele>
        <time>2021-03-27T13:45:15Z</time>
      </trkpt>
      <trkpt lat="42.663118" lon="-6.763314">
        <ele>833.762</ele>
        <time>2021-03-27T13:46:15Z</time>
      </trkpt>
      <trkpt lat="42.663512" lon="-6.765215">
        <ele>840.317</ele>
        <time>2021-03-27T13:46:55Z</time>
      </trkpt>
      <trkpt lat="42.661272" lon="-6.767441">
        <ele>873.118</ele>
        <time>2021-03-27T13:47:55Z</time>
      </trkpt>
      <trkpt lat="42.662733" lon="-6.768799">
        <ele>868.864</ele>
        <time>2021-03-27T13:48:35Z</time>
      </trkpt>
      <trkpt lat="42.663824" lon="-6.768519">
        <ele>864.788</ele>
        <time>2021-03-27T13:48:55Z</time>
      </trkpt>
      <trkpt lat="42.665960" lon="-6.773477">
        <ele>834.026</ele>
        <time>2021-03-27T13:50:15Z</time>
      </trkpt>
      <trkpt lat="42.669304" lon="-6.773857">
        <ele>837.175</ele>
        <time>2021-03-27T13:50:55Z</time>
      </trkpt>
      <trkpt lat="42.671781" lon="-6.773009">
        <ele>848.028</ele>
        <time>2021-03-27T13:52:15Z</time>
      </trkpt>
      <trkpt lat="42.674273" lon="-6.770577">
        <ele>856.420</ele>
        <time>2021-03-27T13:53:35Z</time>
      </trkpt>
      <trkpt lat="42.676986" lon="-6.770751">
        <ele>857.508</ele>
        <time>2021-03-27T13:55:15Z</time>
      </trkpt>
      <trkpt lat="42.685693" lon="-6.765605">
        <ele>895.272</ele>
        <time>2021-03-27T13:57:15Z</time>
      </trkpt>
      <trkpt lat="42.688670" lon="-6.765020">
        <ele>896.562</ele>
        <time>2021-03-27T13:58:15Z</time>
      </trkpt>
      <trkpt lat="42.689069" lon="-6.763329">
        <ele>890.343</ele>
        <time>2021-03-27T13:58:55Z</time>
      </trkpt>
      <trkpt lat="42.689794" lon="-6.763581">
        <ele>887.628</ele>
        <time>2021-03-27T13:59:35Z</time>
      </trkpt>
      <trkpt lat="42.690619" lon="-6.759862">
        <ele>883.639</ele>
        <time>2021-03-27T14:00:55Z</time>
      </trkpt>
      <trkpt lat="42.692418" lon="-6.762366">
        <ele>862.875</ele>
        <time>2021-03-27T14:02:15Z</time>
      </trkpt>
      <trkpt lat="42.694327" lon="-6.762135">
        <ele>866.759</ele>
        <time>2021-03-27T14:03:35Z</time>
      </trkpt>
      <trkpt lat="42.693526" lon="-6.760314">
        <ele>864.517</ele>
        <time>2021-03-27T14:03:55Z</time>
      </trkpt>
      <trkpt lat="42.693713" lon="-6.758247">
        <ele>864.526</ele>
        <time>2021-03-27T14:04:55Z</time>
      </trkpt>
      <trkpt lat="42.695850" lon="-6.759634">
        <ele>875.747</ele>
        <time>2021-03-27T14:06:35Z</time>
      </trkpt>
      <trkpt lat="42.697656" lon="-6.759271">
        <ele>865.611</ele>
        <time>2021-03-27T14:07:35Z</time>
      </trkpt>
      <trkpt lat="42.698498" lon="-6.762080">
        <ele>893.608</ele>
        <time>2021-03-27T14:08:15Z</time>
      </trkpt>
      <trkpt lat="42.702659" lon="-6.765232">
        <ele>923.747</ele>
        <time>2021-03-27T14:09:55Z</time>
      </trkpt>
      <trkpt lat="42.704509" lon="-6.767773">
        <ele>956.477</ele>
        <time>2021-03-27T14:10:35Z</time>
      </trkpt>
      <trkpt lat="42.704467" lon="-6.770243">
        <ele>964.458</ele>
        <time>2021-03-27T14:11:35Z</time>
      </trkpt>
      <trkpt lat="42.705049" lon="-6.770377">
        <ele>980.393</ele>
        <time>2021-03-27T14:12:15Z</time>
      </trkpt>
      <trkpt lat="42.705936" lon="-6.766820">
        <ele>999.444</ele>
        <time>2021-03-27T14:13:35Z</time>
      </trkpt>
      <trkpt lat="42.707196" lon="-6.764987">
        <ele>1005.570</ele>
        <time>2021-03-27T14:14:15Z</time>
      </trkpt>
      <trkpt lat="42.708588" lon="-6.764381">
        <ele>1017.164</ele>
        <time>2021-03-27T14:14:35Z</time>
      </trkpt>
      <trkpt lat="42.712753" lon="-6.765418">
        <ele>1017.162</ele>
        <time>2021-03-27T14:16:15Z</time>
      </trkpt>
      <trkpt lat="42.718710" lon="-6.769956">
        <ele>1017.673</ele>
        <time>2021-03-27T14:17:55Z</time>
      </trkpt>
      <trkpt lat="42.719554" lon="-6.769189">
        <ele>1010.085</ele>
        <time>2021-03-27T14:18:55Z</time>
      </trkpt>
      <trkpt lat="42.720554" lon="-6.770009">
        <ele>1031.213</ele>
        <time>2021-03-27T14:19:35Z</time>
      </trkpt>
      <trkpt lat="42.723753" lon="-6.767295">
        <ele>1044.008</ele>
        <time>2021-03-27T14:21:55Z</time>
      </trkpt>
      <trkpt lat="42.728640" lon="-6.770604">
        <ele>1069.232</ele>
        <time>2021-03-27T14:23:55Z</time>
      </trkpt>
      <trkpt lat="42.729612" lon="-6.770383">
        <ele>1078.542</ele>
        <time>2021-03-27T14:24:35Z</time>
      </trkpt>
      <trkpt lat="42.730405" lon="-6.766568">
        <ele>1096.763</ele>
        <time>2021-03-27T14:25:15Z</time>
      </trkpt>
      <trkpt lat="42.733302" lon="-6.766470">
        <ele>1100.388</ele>
        <time>2021-03-27T14:26:35Z</time>
      </trkpt>
      <trkpt lat="42.735059" lon="-6.768098">
        <ele>1099.479</ele>
        <time>2021-03-27T14:26:55Z</time>
      </trkpt>
      <trkpt lat="42.737375" lon="-6.766224">
        <ele>1110.055</ele>
        <time>2021-03-27T14:27:35Z</time>
      </trkpt>
      <trkpt lat="42.741641" lon="-6.765999">
        <ele>1131.699</ele>
        <time>2021-03-27T14:28:35Z</time>
      </trkpt>
      <trkpt lat="42.742476" lon="-6.759512">
        <ele>1112.057</ele>
        <time>2021-03-27T14:29:55Z</time>
      </trkpt>
      <trkpt lat="42.745700" lon="-6.758381">
        <ele>1125.356</ele>
        <time>2021-03-27T14:31:15Z</time>
      </trkpt>
      <trkpt lat="42.746709" lon="-6.759450">
        <ele>1129.459</ele>
        <time>2021-03-27T14:31:35Z</time>
      </trkpt>
      <trkpt lat="42.747738" lon="-6.758437">
        <ele>1142.214</ele>
        <time>2021-03-27T14:32:15Z</time>
      </trkpt>
      <trkpt lat="42.750137" lon="-6.758828">
        <ele>1150.908</ele>
        <time>2021-03-27T14:33:35Z</time>
      </trkpt>
      <trkpt lat="42.750833" lon="-6.757370">
        <ele>1157.530</ele>
        <time>2021-03-27T14:34:15Z</time>
      </trkpt>
      <trkpt lat="42.753961" lon="-6.761213">
        <ele>1158.680</ele>
        <time>2021-03-27T14:35:15Z</time>
      </trkpt>
      <trkpt lat="42.754399" lon="-6.760126">
        <ele>1144.191</ele>
        <time>2021-03-27T14:35:55Z</time>
      </trkpt>
      <trkpt lat="42.764337" lon="-6.762096">
        <ele>1088.636</ele>
        <time>2021-03-27T14:38:35Z</time>
      </trkpt>
      <trkpt lat="42.767491" lon="-6.765254">
        <ele>1077.097</ele>
        <time>2021-03-27T14:39:35Z</time>
      </trkpt>
      <trkpt lat="42.770751" lon="-6.767014">
        <ele>1053.533</ele>
        <time>2021-03-27T14:40:55Z</time>
      </trkpt>
      <trkpt lat="42.764979" lon="-6.768781">
        <ele>1011.557</ele>
        <time>2021-03-27T14:42:35Z</time>
      </trkpt>
      <trkpt lat="42.769271" lon="-6.768641">
        <ele>981.915</ele>
        <time>2021-03-27T14:43:35Z</time>
      </trkpt>
      <trkpt lat="42.772597" lon="-6.771028">
        <ele>956.096</ele>
        <time>2021-03-27T14:43:55Z</time>
      </trkpt>
      <trkpt lat="42.776494" lon="-6.772357">
        <ele>951.831</ele>
        <time>2021-03-27T14:45:35Z</time>
      </trkpt>
      <trkpt lat="42.778022" lon="-6.773839">
        <ele>949.524</ele>
        <time>2021-03-27T14:46:15Z</time>
      </trkpt>
      <trkpt lat="42.786812" lon="-6.774354">
        <ele>911.408</ele>
        <time>2021-03-27T14:48:35Z</time>
      </trkpt>
      <trkpt lat="42.789206" lon="-6.773001">
        <ele>902.774</ele>
        <time>2021-03-27T14:48:55Z</time>
      </trkpt>
      <trkpt lat="42.791944" lon="-6.773965">
        <ele>890.064</ele>
        <time>2021-03-27T14:49:35Z</time>
      </trkpt>
      <trkpt lat="42.792034" lon="-6.775184">
        <ele>887.685</ele>
        <time>2021-03-27T14:49:55Z</time>
      </trkpt>
      <trkpt lat="42.793848" lon="-6.774722">
        <ele>909.430</ele>
        <time>2021-03-27T14:50:55Z</time>
      </trkpt>
      <trkpt lat="42.794282" lon="-6.772456">
        <ele>931.561</ele>
        <time>2021-03-27T14:51:55Z</time>
      </trkpt>
      <trkpt lat="42.797287" lon="-6.769416">
        <ele>999.077</ele>
        <time>2021-03-27T14:54:55Z</time>
      </trkpt>
      <trkpt lat="42.797846" lon="-6.769887">
        <ele>1030.141</ele>
        <time>2021-03-27T14:55:15Z</time>
      </trkpt>
      <trkpt lat="42.797280" lon="-6.771479">
        <ele>1027.639</ele>
        <time>2021-03-27T14:55:55Z</time>
      </trkpt>
      <trkpt lat="42.797855" lon="-6.771874">
        <ele>1047.988</ele>
        <time>2021-03-27T14:56:15Z</time>
      </trkpt>
      <trkpt lat="42.796767" lon="-6.773596">
        <ele>1058.124</ele>
        <time>2021-03-27T14:57:35Z</time>
      </trkpt>
      <trkpt lat="42.797566" lon="-6.773043">
        <ele>1086.526</ele>
        <time>2021-03-27T14:58:15Z</time>
      </trkpt>
      <trkpt lat="42.797188" lon="-6.774896">
        <ele>1099.208</ele>
        <time>2021-03-27T14:59:15Z</time>
      </trkpt>
      <trkpt lat="42.798679" lon="-6.773910">
        <ele>1152.563</ele>
        <time>2021-03-27T14:59:55Z</time>
      </trkpt>
      <trkpt lat="42.797952" lon="-6.775524">
        <ele>1153.163</ele>
        <time>2021-03-27T15:00:35Z</time>
      </trkpt>
      <trkpt lat="42.798287" lon="-6.776130">
        <ele>1167.164</ele>
        <time>2021-03-27T15:00:55Z</time>
      </trkpt>
      <trkpt lat="42.800399" lon="-6.773947">
        <ele>1239.519</ele>
        <time>2021-03-27T15:03:35Z</time>
      </trkpt>
      <trkpt lat="42.800370" lon="-6.774738">
        <ele>1245.950</ele>
        <time>2021-03-27T15:03:55Z</time>
      </trkpt>
      <trkpt lat="42.802022" lon="-6.774909">
        <ele>1294.976</ele>
        <time>2021-03-27T15:05:15Z</time>
      </trkpt>
      <trkpt lat="42.802248" lon="-6.774184">
        <ele>1304.050</ele>
        <time>2021-03-27T15:05:35Z</time>
      </trkpt>
      <trkpt lat="42.803316" lon="-6.775193">
        <ele>1322.098</ele>
        <time>2021-03-27T15:06:15Z</time>
      </trkpt>
      <trkpt lat="42.804178" lon="-6.768876">
        <ele>1405.233</ele>
        <time>2021-03-27T15:07:15Z</time>
      </trkpt>
      <trkpt lat="42.803908" lon="-6.765783">
        <ele>1388.923</ele>
        <time>2021-03-27T15:07:55Z</time>
      </trkpt>
      <trkpt lat="42.805651" lon="-6.767663">
        <ele>1364.215</ele>
        <time>2021-03-27T15:08:55Z</time>
      </trkpt>
      <trkpt lat="42.805778" lon="-6.770109">
        <ele>1365.808</ele>
        <time>2021-03-27T15:09:15Z</time>
      </trkpt>
      <trkpt lat="42.807755" lon="-6.774921">
        <ele>1374.748</ele>
        <time>2021-03-27T15:10:55Z</time>
      </trkpt>
      <trkpt lat="42.810850" lon="-6.777423">
        <ele>1371.788</ele>
        <time>2021-03-27T15:12:15Z</time>
      </trkpt>
      <trkpt lat="42.811397" lon="-6.779829">
        <ele>1375.059</ele>
        <time>2021-03-27T15:13:15Z</time>
      </trkpt>
      <trkpt lat="42.813655" lon="-6.782059">
        <ele>1377.544</ele>
        <time>2021-03-27T15:14:35Z</time>
      </trkpt>
      <trkpt lat="42.815261" lon="-6.780902">
        <ele>1362.715</ele>
        <time>2021-03-27T15:15:35Z</time>
      </trkpt>
      <trkpt lat="42.817229" lon="-6.781407">
        <ele>1380.631</ele>
        <time>2021-03-27T15:15:55Z</time>
      </trkpt>
      <trkpt lat="42.818798" lon="-6.780348">
        <ele>1407.335</ele>
        <time>2021-03-27T15:17:15Z</time>
      </trkpt>
      <trkpt lat="42.816102" lon="-6.776174">
        <ele>1360.433</ele>
        <time>2021-03-27T15:18:15Z</time>
      </trkpt>
      <trkpt lat="42.815496" lon="-6.772138">
        <ele>1340.162</ele>
        <time>2021-03-27T15:18:55Z</time>
      </trkpt>
      <trkpt lat="42.815919" lon="-6.771872">
        <ele>1351.183</ele>
        <time>2021-03-27T15:19:15Z</time>
      </trkpt>
      <trkpt lat="42.814679" lon="-6.766184">
        <ele>1331.711</ele>
        <time>2021-03-27T15:19:55Z</time>
      </trkpt>
      <trkpt lat="42.815694" lon="-6.764547">
        <ele>1327.908</ele>
        <time>2021-03-27T15:20:35Z</time>
      </trkpt>
      <trkpt lat="42.815230" lon="-6.759763">
        <ele>1250.271</ele>
        <time>2021-03-27T15:22:15Z</time>
      </trkpt>
      <trkpt lat="42.816075" lon="-6.758068">
        <ele>1219.261</ele>
        <time>2021-03-27T15:22:35Z</time>
      </trkpt>
      <trkpt lat="42.818836" lon="-6.758394">
        <ele>1202.442</ele>
        <time>2021-03-27T15:23:15Z</time>
      </trkpt>
      <trkpt lat="42.817249" lon="-6.754603">
        <ele>1123.157</ele>
        <time>2021-03-27T15:24:35Z</time>
      </trkpt>
      <trkpt lat="42.817386" lon="-6.752009">
        <ele>1104.378</ele>
        <time>2021-03-27T15:25:55Z</time>
      </trkpt>
      <trkpt lat="42.820282" lon="-6.752941">
        <ele>1097.194</ele>
        <time>2021-03-27T15:27:15Z</time>
      </trkpt>
      <trkpt lat="42.818937" lon="-6.748067">
        <ele>1050.218</ele>
        <time>2021-03-27T15:28:15Z</time>
      </trkpt>
      <trkpt lat="42.818523" lon="-6.742544">
        <ele>990.966</ele>
        <time>2021-03-27T15:29:15Z</time>
      </trkpt>
      <trkpt lat="42.819498" lon="-6.741702">
        <ele>1002.259</ele>
        <time>2021-03-27T15:29:55Z</time>
      </trkpt>
      <trkpt lat="42.819055" lon="-6.740286">
        <ele>992.603</ele>
        <time>2021-03-27T15:30:15Z</time>
      </trkpt>
      <trkpt lat="42.819848" lon="-6.738384">
        <ele>986.123</ele>
        <time>2021-03-27T15:31:15Z</time>
      </trkpt>
      <trkpt lat="42.822288" lon="-6.741511">
        <ele>961.908</ele>
        <time>2021-03-27T15:32:15Z</time>
      </trkpt>
      <trkpt lat="42.824068" lon="-6.741793">
        <ele>932.520</ele>
        <time>2021-03-27T15:33:35Z</time>
      </trkpt>
      <trkpt lat="42.823115" lon="-6.740450">
        <ele>930.110</ele>
        <time>2021-03-27T15:33:55Z</time>
      </trkpt>
      <trkpt lat="42.823400" lon="-6.739535">
        <ele>926.771</ele>
        <time>2021-03-27T15:34:15Z</time>
      </trkpt>
      <trkpt lat="42.820499" lon="-6.728430">
        <ele>887.876</ele>
        <time>2021-03-27T15:34:55Z</time>
      </trkpt>
      <trkpt lat="42.818317" lon="-6.725671">
        <ele>873.087</ele>
        <time>2021-03-27T15:35:55Z</time>
      </trkpt>
      <trkpt lat="42.815478" lon="-6.719979">
        <ele>865.813</ele>
        <time>2021-03-27T15:36:35Z</time>
      </trkpt>
      <trkpt lat="42.814581" lon="-6.720308">
        <ele>873.647</ele>
        <time>2021-03-27T15:36:55Z</time>
      </trkpt>
      <trkpt lat="42.812180" lon="-6.715391">
        <ele>902.495</ele>
        <time>2021-03-27T15:38:15Z</time>
      </trkpt>
      <trkpt lat="42.810679" lon="-6.714748">
        <ele>908.774</ele>
        <time>2021-03-27T15:38:55Z</time>
      </trkpt>
      <trkpt lat="42.810287" lon="-6.716289">
        <ele>918.256</ele>
        <time>2021-03-27T15:39:35Z</time>
      </trkpt>
      <trkpt lat="42.811758" lon="-6.724031">
        <ele>1009.021</ele>
        <time>2021-03-27T15:40:55Z</time>
      </trkpt>
      <trkpt lat="42.810197" lon="-6.721750">
        <ele>1030.808</ele>
        <time>2021-03-27T15:41:35Z</time>
      </trkpt>
      <trkpt lat="42.810795" lon="-6.725508">
        <ele>1077.712</ele>
        <time>2021-03-27T15:41:55Z</time>
      </trkpt>
      <trkpt lat="42.810116" lon="-6.727082">
        <ele>1096.372</ele>
        <time>2021-03-27T15:42:15Z</time>
      </trkpt>
      <trkpt lat="42.810361" lon="-6.729579">
        <ele>1136.873</ele>
        <time>2021-03-27T15:42:55Z</time>
      </trkpt>
      <trkpt lat="42.809679" lon="-6.730442">
        <ele>1156.918</ele>
        <time>2021-03-27T15:43:15Z</time>
      </trkpt>
      <trkpt lat="42.809918" lon="-6.732994">
        <ele>1185.239</ele>
        <time>2021-03-27T15:43:55Z</time>
      </trkpt>
      <trkpt lat="42.812022" lon="-6.735155">
        <ele>1214.865</ele>
        <time>2021-03-27T15:45:35Z</time>
      </trkpt>
      <trkpt lat="42.812075" lon="-6.736706">
        <ele>1218.499</ele>
        <time>2021-03-27T15:46:15Z</time>
      </trkpt>
      <trkpt lat="42.810779" lon="-6.738875">
        <ele>1248.247</ele>
        <time>2021-03-27T15:47:15Z</time>
      </trkpt>
      <trkpt lat="42.810694" lon="-6.737126">
        <ele>1249.219</ele>
        <time>2021-03-27T15:47:35Z</time>
      </trkpt>
      <trkpt lat="42.807544" lon="-6.733489">
        <ele>1280.509</ele>
        <time>2021-03-27T15:48:35Z</time>
      </trkpt>
      <trkpt lat="42.806484" lon="-6.733325">
        <ele>1289.819</ele>
        <time>2021-03-27T15:49:15Z</time>
      </trkpt>
      <trkpt lat="42.808011" lon="-6.735439">
        <ele>1305.208</ele>
        <time>2021-03-27T15:50:15Z</time>
      </trkpt>
      <trkpt lat="42.808036" lon="-6.740546">
        <ele>1337.756</ele>
        <time>2021-03-27T15:50:55Z</time>
      </trkpt>
      <trkpt lat="42.806465" lon="-6.737802">
        <ele>1354.436</ele>
        <time>2021-03-27T15:51:15Z</time>
      </trkpt>
      <trkpt lat="42.804815" lon="-6.737037">
        <ele>1361.467</ele>
        <time>2021-03-27T15:51:55Z</time>
      </trkpt>
      <trkpt lat="42.806019" lon="-6.739867">
        <ele>1384.612</ele>
        <time>2021-03-27T15:52:55Z</time>
      </trkpt>
      <trkpt lat="42.804949" lon="-6.739169">
        <ele>1393.513</ele>
        <time>2021-03-27T15:53:15Z</time>
      </trkpt>
      <trkpt lat="42.803394" lon="-6.739524">
        <ele>1407.129</ele>
        <time>2021-03-27T15:53:55Z</time>
      </trkpt>
      <trkpt lat="42.802435" lon="-6.738246">
        <ele>1416.983</ele>
        <time>2021-03-27T15:54:15Z</time>
      </trkpt>
      <trkpt lat="42.798428" lon="-6.738132">
        <ele>1458.121</ele>
        <time>2021-03-27T15:55:55Z</time>
      </trkpt>
      <trkpt lat="42.797500" lon="-6.736656">
        <ele>1463.873</ele>
        <time>2021-03-27T15:56:55Z</time>
      </trkpt>
      <trkpt lat="42.794505" lon="-6.737372">
        <ele>1442.685</ele>
        <time>2021-03-27T15:57:15Z</time>
      </trkpt>
      <trkpt lat="42.793441" lon="-6.738691">
        <ele>1439.813</ele>
        <time>2021-03-27T15:57:55Z</time>
      </trkpt>
      <trkpt lat="42.790748" lon="-6.737818">
        <ele>1400.808</ele>
        <time>2021-03-27T15:59:15Z</time>
      </trkpt>
      <trkpt lat="42.789878" lon="-6.739719">
        <ele>1383.942</ele>
        <time>2021-03-27T15:59:55Z</time>
      </trkpt>
      <trkpt lat="42.788563" lon="-6.739518">
        <ele>1378.232</ele>
        <time>2021-03-27T16:00:35Z</time>
      </trkpt>
      <trkpt lat="42.786937" lon="-6.736707">
        <ele>1368.023</ele>
        <time>2021-03-27T16:01:15Z</time>
      </trkpt>
      <trkpt lat="42.784776" lon="-6.735071">
        <ele>1358.858</ele>
        <time>2021-03-27T16:01:55Z</time>
      </trkpt>
      <trkpt lat="42.783964" lon="-6.731610">
        <ele>1318.289</ele>
        <time>2021-03-27T16:02:35Z</time>
      </trkpt>
      <trkpt lat="42.782188" lon="-6.730671">
        <ele>1306.115</ele>
        <time>2021-03-27T16:02:55Z</time>
      </trkpt>
      <trkpt lat="42.777846" lon="-6.723547">
        <ele>1243.649</ele>
        <time>2021-03-27T16:05:15Z</time>
      </trkpt>
      <trkpt lat="42.774317" lon="-6.723759">
        <ele>1217.427</ele>
        <time>2021-03-27T16:05:55Z</time>
      </trkpt>
      <trkpt lat="42.770968" lon="-6.729341">
        <ele>1166.998</ele>
        <time>2021-03-27T16:07:15Z</time>
      </trkpt>
      <trkpt lat="42.769076" lon="-6.727663">
        <ele>1147.215</ele>
        <time>2021-03-27T16:07:55Z</time>
      </trkpt>
      <trkpt lat="42.768865" lon="-6.726238">
        <ele>1151.326</ele>
        <time>2021-03-27T16:08:35Z</time>
      </trkpt>
      <trkpt lat="42.767523" lon="-6.726947">
        <ele>1128.408</ele>
        <time>2021-03-27T16:09:15Z</time>
      </trkpt>
      <trkpt lat="42.765391" lon="-6.726645">
        <ele>1118.524</ele>
        <time>2021-03-27T16:09:55Z</time>
      </trkpt>
      <trkpt lat="42.760760" lon="-6.728780">
        <ele>1072.334</ele>
        <time>2021-03-27T16:10:55Z</time>
      </trkpt>
      <trkpt lat="42.761006" lon="-6.727304">
        <ele>1073.135</ele>
        <time>2021-03-27T16:11:35Z</time>
      </trkpt>
      <trkpt lat="42.759824" lon="-6.724917">
        <ele>1054.960</ele>
        <time>2021-03-27T16:11:55Z</time>
      </trkpt>
      <trkpt lat="42.757951" lon="-6.723460">
        <ele>1049.381</ele>
        <time>2021-03-27T16:12:15Z</time>
      </trkpt>
      <trkpt lat="42.755386" lon="-6.722862">
        <ele>1029.267</ele>
        <time>2021-03-27T16:13:15Z</time>
      </trkpt>
      <trkpt lat="42.753743" lon="-6.724191">
        <ele>1018.641</ele>
        <time>2021-03-27T16:13:35Z</time>
      </trkpt>
      <trkpt lat="42.752909" lon="-6.722896">
        <ele>1002.249</ele>
        <time>2021-03-27T16:14:15Z</time>
      </trkpt>
      <trkpt lat="42.750428" lon="-6.722274">
        <ele>976.023</ele>
        <time>2021-03-27T16:15:35Z</time>
      </trkpt>
      <trkpt lat="42.748194" lon="-6.719452">
        <ele>930.783</ele>
        <time>2021-03-27T16:16:15Z</time>
      </trkpt>
      <trkpt lat="42.747773" lon="-6.717408">
        <ele>919.711</ele>
        <time>2021-03-27T16:17:15Z</time>
      </trkpt>
      <trkpt lat="42.743170" lon="-6.715033">
        <ele>888.408</ele>
        <time>2021-03-27T16:18:15Z</time>
      </trkpt>
      <trkpt lat="42.742172" lon="-6.715219">
        <ele>878.567</ele>
        <time>2021-03-27T16:18:35Z</time>
      </trkpt>
      <trkpt lat="42.739515" lon="-6.711854">
        <ele>816.577</ele>
        <time>2021-03-27T16:20:15Z</time>
      </trkpt>
      <trkpt lat="42.733357" lon="-6.709096">
        <ele>737.288</ele>
        <time>2021-03-27T16:22:55Z</time>
      </trkpt>
      <trkpt lat="42.732650" lon="-6.709425">
        <ele>724.733</ele>
        <time>2021-03-27T16:23:15Z</time>
      </trkpt>
      <trkpt lat="42.732802" lon="-6.710368">
        <ele>721.444</ele>
        <time>2021-03-27T16:23:35Z</time>
      </trkpt>
      <trkpt lat="42.731185" lon="-6.710612">
        <ele>695.610</ele>
        <time>2021-03-27T16:23:55Z</time>
      </trkpt>
      <trkpt lat="42.732476" lon="-6.712387">
        <ele>677.674</ele>
        <time>2021-03-27T16:25:15Z</time>
      </trkpt>
      <trkpt lat="42.730189" lon="-6.712637">
        <ele>653.622</ele>
        <time>2021-03-27T16:26:55Z</time>
      </trkpt>
      <trkpt lat="42.729525" lon="-6.711999">
        <ele>643.769</ele>
        <time>2021-03-27T16:27:15Z</time>
      </trkpt>
      <trkpt lat="42.728794" lon="-6.713006">
        <ele>632.304</ele>
        <time>2021-03-27T16:27:35Z</time>
      </trkpt>
      <trkpt lat="42.727284" lon="-6.713055">
        <ele>617.824</ele>
        <time>2021-03-27T16:28:15Z</time>
      </trkpt>
      <trkpt lat="42.727151" lon="-6.714132">
        <ele>618.508</ele>
        <time>2021-03-27T16:28:35Z</time>
      </trkpt>
      <trkpt lat="42.725271" lon="-6.713331">
        <ele>614.021</ele>
        <time>2021-03-27T16:29:15Z</time>
      </trkpt>
      <trkpt lat="42.724475" lon="-6.710408">
        <ele>629.781</ele>
        <time>2021-03-27T16:29:35Z</time>
      </trkpt>
      <trkpt lat="42.725056" lon="-6.709384">
        <ele>639.772</ele>
        <time>2021-03-27T16:30:15Z</time>
      </trkpt>
      <trkpt lat="42.722228" lon="-6.708465">
        <ele>662.047</ele>
        <time>2021-03-27T16:30:55Z</time>
      </trkpt>
      <trkpt lat="42.722665" lon="-6.707042">
        <ele>673.998</ele>
        <time>2021-03-27T16:31:55Z</time>
      </trkpt>
      <trkpt lat="42.720828" lon="-6.698615">
        <ele>712.964</ele>
        <time>2021-03-27T16:33:35Z</time>
      </trkpt>
      <trkpt lat="42.719060" lon="-6.697113">
        <ele>720.528</ele>
        <time>2021-03-27T16:35:15Z</time>
      </trkpt>
      <trkpt lat="42.720443" lon="-6.694378">
        <ele>761.096</ele>
        <time>2021-03-27T16:36:35Z</time>
      </trkpt>
      <trkpt lat="42.722789" lon="-6.694272">
        <ele>795.212</ele>
        <time>2021-03-27T16:37:35Z</time>
      </trkpt>
      <trkpt lat="42.724630" lon="-6.699425">
        <ele>829.532</ele>
        <time>2021-03-27T16:38:35Z</time>
      </trkpt>
      <trkpt lat="42.726460" lon="-6.701120">
        <ele>839.005</ele>
        <time>2021-03-27T16:39:35Z</time>
      </trkpt>
      <trkpt lat="42.727818" lon="-6.699678">
        <ele>847.508</ele>
        <time>2021-03-27T16:40:15Z</time>
      </trkpt>
      <trkpt lat="42.728342" lon="-6.700031">
        <ele>849.586</ele>
        <time>2021-03-27T16:40:35Z</time>
      </trkpt>
      <trkpt lat="42.729345" lon="-6.696090">
        <ele>864.646</ele>
        <time>2021-03-27T16:42:15Z</time>
      </trkpt>
      <trkpt lat="42.730405" lon="-6.697121">
        <ele>861.087</ele>
        <time>2021-03-27T16:42:35Z</time>
      </trkpt>
      <trkpt lat="42.731282" lon="-6.695725">
        <ele>875.422</ele>
        <time>2021-03-27T16:42:55Z</time>
      </trkpt>
      <trkpt lat="42.733344" lon="-6.697429">
        <ele>864.463</ele>
        <time>2021-03-27T16:44:15Z</time>
      </trkpt>
      <trkpt lat="42.736573" lon="-6.694679">
        <ele>881.259</ele>
        <time>2021-03-27T16:45:55Z</time>
      </trkpt>
      <trkpt lat="42.734102" lon="-6.695401">
        <ele>905.733</ele>
        <time>2021-03-27T16:46:55Z</time>
      </trkpt>
      <trkpt lat="42.732483" lon="-6.694771">
        <ele>926.231</ele>
        <time>2021-03-27T16:47:55Z</time>
      </trkpt>
      <trkpt lat="42.735558" lon="-6.692087">
        <ele>956.914</ele>
        <time>2021-03-27T16:49:15Z</time>
      </trkpt>
      <trkpt lat="42.738812" lon="-6.684361">
        <ele>924.954</ele>
        <time>2021-03-27T16:50:55Z</time>
      </trkpt>
      <trkpt lat="42.740801" lon="-6.682900">
        <ele>922.809</ele>
        <time>2021-03-27T16:51:35Z</time>
      </trkpt>
      <trkpt lat="42.741539" lon="-6.681178">
        <ele>919.408</ele>
        <time>2021-03-27T16:51:55Z</time>
      </trkpt>
      <trkpt lat="42.744847" lon="-6.680056">
        <ele>926.586</ele>
        <time>2021-03-27T16:52:35Z</time>
      </trkpt>
      <trkpt lat="42.746194" lon="-6.683454">
        <ele>945.786</ele>
        <time>2021-03-27T16:53:35Z</time>
      </trkpt>
      <trkpt lat="42.750139" lon="-6.684826">
        <ele>915.377</ele>
        <time>2021-03-27T16:54:15Z</time>
      </trkpt>
      <trkpt lat="42.754474" lon="-6.689019">
        <ele>939.732</ele>
        <time>2021-03-27T16:55:55Z</time>
      </trkpt>
      <trkpt lat="42.757034" lon="-6.690151">
        <ele>957.073</ele>
        <time>2021-03-27T16:56:35Z</time>
      </trkpt>
      <trkpt lat="42.761364" lon="-6.688710">
        <ele>970.659</ele>
        <time>2021-03-27T16:57:35Z</time>
      </trkpt>
      <trkpt lat="42.766819" lon="-6.692750">
        <ele>1015.023</ele>
        <time>2021-03-27T16:58:55Z</time>
      </trkpt>
      <trkpt lat="42.771471" lon="-6.691318">
        <ele>1023.291</ele>
        <time>2021-03-27T16:59:55Z</time>
      </trkpt>
      <trkpt lat="42.772692" lon="-6.689482">
        <ele>1042.023</ele>
        <time>2021-03-27T17:00:35Z</time>
      </trkpt>
      <trkpt lat="42.775504" lon="-6.689812">
        <ele>1058.183</ele>
        <time>2021-03-27T17:00:55Z</time>
      </trkpt>
      <trkpt lat="42.778476" lon="-6.688969">
        <ele>1060.011</ele>
        <time>2021-03-27T17:01:15Z</time>
      </trkpt>
      <trkpt lat="42.780500" lon="-6.685060">
        <ele>1041.808</ele>
        <time>2021-03-27T17:02:15Z</time>
      </trkpt>
      <trkpt lat="42.782463" lon="-6.687158">
        <ele>1042.717</ele>
        <time>2021-03-27T17:03:15Z</time>
      </trkpt>
      <trkpt lat="42.783628" lon="-6.686422">
        <ele>1064.477</ele>
        <time>2021-03-27T17:03:55Z</time>
      </trkpt>
      <trkpt lat="42.782323" lon="-6.684737">
        <ele>1086.518</ele>
        <time>2021-03-27T17:04:35Z</time>
      </trkpt>
      <trkpt lat="42.781801" lon="-6.679344">
        <ele>1129.453</ele>
        <time>2021-03-27T17:05:15Z</time>
      </trkpt>
      <trkpt lat="42.783552" lon="-6.681846">
        <ele>1158.044</ele>
        <time>2021-03-27T17:06:15Z</time>
      </trkpt>
      <trkpt lat="42.790365" lon="-6.666693">
        <ele>1039.060</ele>
        <time>2021-03-27T17:10:35Z</time>
      </trkpt>
      <trkpt lat="42.793912" lon="-6.661089">
        <ele>1044.164</ele>
        <time>2021-03-27T17:11:55Z</time>
      </trkpt>
      <trkpt lat="42.804200" lon="-6.668959">
        <ele>1137.732</ele>
        <time>2021-03-27T17:15:55Z</time>
      </trkpt>
      <trkpt lat="42.804668" lon="-6.667525">
        <ele>1144.759</ele>
        <time>2021-03-27T17:16:35Z</time>
      </trkpt>
      <trkpt lat="42.806137" lon="-6.668642">
        <ele>1165.903</ele>
        <time>2021-03-27T17:17:35Z</time>
      </trkpt>
      <trkpt lat="42.806919" lon="-6.668320">
        <ele>1175.923</ele>
        <time>2021-03-27T17:17:55Z</time>
      </trkpt>
      <trkpt lat="42.810840" lon="-6.670326">
        <ele>1228.308</ele>
        <time>2021-03-27T17:19:55Z</time>
      </trkpt>
      <trkpt lat="42.812948" lon="-6.669238">
        <ele>1248.440</ele>
        <time>2021-03-27T17:20:55Z</time>
      </trkpt>
      <trkpt lat="42.816381" lon="-6.676222">
        <ele>1302.020</ele>
        <time>2021-03-27T17:22:35Z</time>
      </trkpt>
      <trkpt lat="42.822161" lon="-6.678544">
        <ele>1296.671</ele>
        <time>2021-03-27T17:24:15Z</time>
      </trkpt>
      <trkpt lat="42.821972" lon="-6.672092">
        <ele>1350.026</ele>
        <time>2021-03-27T17:25:35Z</time>
      </trkpt>
      <trkpt lat="42.818906" lon="-6.664336">
        <ele>1399.577</ele>
        <time>2021-03-27T17:26:55Z</time>
      </trkpt>
      <trkpt lat="42.819123" lon="-6.663023">
        <ele>1414.443</ele>
        <time>2021-03-27T17:27:35Z</time>
      </trkpt>
      <trkpt lat="42.820873" lon="-6.663037">
        <ele>1436.627</ele>
        <time>2021-03-27T17:28:35Z</time>
      </trkpt>
      <trkpt lat="42.821355" lon="-6.661644">
        <ele>1443.475</ele>
        <time>2021-03-27T17:29:15Z</time>
      </trkpt>
      <trkpt lat="42.822971" lon="-6.663069">
        <ele>1459.836</ele>
        <time>2021-03-27T17:29:55Z</time>
      </trkpt>
      <trkpt lat="42.822535" lon="-6.664668">
        <ele>1480.717</ele>
        <time>2021-03-27T17:30:15Z</time>
      </trkpt>
      <trkpt lat="42.824961" lon="-6.669204">
        <ele>1478.918</ele>
        <time>2021-03-27T17:30:55Z</time>
      </trkpt>
      <trkpt lat="42.825943" lon="-6.674463">
        <ele>1459.508</ele>
        <time>2021-03-27T17:31:15Z</time>
      </trkpt>
      <trkpt lat="42.827877" lon="-6.678568">
        <ele>1420.768</ele>
        <time>2021-03-27T17:32:35Z</time>
      </trkpt>
      <trkpt lat="42.827844" lon="-6.680624">
        <ele>1424.948</ele>
        <time>2021-03-27T17:32:55Z</time>
      </trkpt>
      <trkpt lat="42.829257" lon="-6.683384">
        <ele>1450.699</ele>
        <time>2021-03-27T17:33:35Z</time>
      </trkpt>
      <trkpt lat="42.832041" lon="-6.685454">
        <ele>1501.974</ele>
        <time>2021-03-27T17:34:15Z</time>
      </trkpt>
      <trkpt lat="42.832559" lon="-6.688382">
        <ele>1490.545</ele>
        <time>2021-03-27T17:34:35Z</time>
      </trkpt>
      <trkpt lat="42.835436" lon="-6.695381">
        <ele>1444.291</ele>
        <time>2021-03-27T17:35:35Z</time>
      </trkpt>
      <trkpt lat="42.837666" lon="-6.698237">
        <ele>1468.155</ele>
        <time>2021-03-27T17:36:15Z</time>
      </trkpt>
      <trkpt lat="42.842603" lon="-6.696550">
        <ele>1484.043</ele>
        <time>2021-03-27T17:37:35Z</time>
      </trkpt>
      <trkpt lat="42.844988" lon="-6.699921">
        <ele>1504.342</ele>
        <time>2021-03-27T17:38:35Z</time>
      </trkpt>
      <trkpt lat="42.850012" lon="-6.702049">
        <ele>1549.622</ele>
        <time>2021-03-27T17:39:35Z</time>
      </trkpt>
      <trkpt lat="42.858316" lon="-6.703578">
        <ele>1643.414</ele>
        <time>2021-03-27T17:41:35Z</time>
      </trkpt>
      <trkpt lat="42.859717" lon="-6.706156">
        <ele>1667.408</ele>
        <time>2021-03-27T17:42:55Z</time>
      </trkpt>
      <trkpt lat="42.859720" lon="-6.704766">
        <ele>1680.139</ele>
        <time>2021-03-27T17:43:15Z</time>
      </trkpt>
      <trkpt lat="42.857913" lon="-6.700917">
        <ele>1704.379</ele>
        <time>2021-03-27T17:44:15Z</time>
      </trkpt>
      <trkpt lat="42.859130" lon="-6.699809">
        <ele>1725.110</ele>
        <time>2021-03-27T17:44:55Z</time>
      </trkpt>
      <trkpt lat="42.861859" lon="-6.703438">
        <ele>1799.545</ele>
        <time>2021-03-27T17:45:35Z</time>
      </trkpt>
      <trkpt lat="42.863743" lon="-6.707945">
        <ele>1871.936</ele>
        <time>2021-03-27T17:46:55Z</time>
      </trkpt>
      <trkpt lat="42.864712" lon="-6.707365">
        <ele>1891.122</ele>
        <time>2021-03-27T17:47:55Z</time>
      </trkpt>
      <trkpt lat="42.864433" lon="-6.706402">
        <ele>1895.096</ele>
        <time>2021-03-27T17:48:55Z</time>
      </trkpt>
      <trkpt lat="42.864683" lon="-6.707578">
        <ele>1889.224</ele>
        <time>2021-03-27T17:50:35Z</time>
      </trkpt>
      <trkpt lat="42.863502" lon="-6.707716">
        <ele>1865.497</ele>
        <time>2021-03-27T17:51:15Z</time>
      </trkpt>
      <trkpt lat="42.861704" lon="-6.703207">
        <ele>1794.223</ele>
        <time>2021-03-27T17:52:15Z</time>
      </trkpt>
      <trkpt lat="42.859241" lon="-6.699813">
        <ele>1726.125</ele>
        <time>2021-03-27T17:52:55Z</time>
      </trkpt>
      <trkpt lat="42.857894" lon="-6.700849">
        <ele>1705.208</ele>
        <time>2021-03-27T17:53:55Z</time>
      </trkpt>
      <trkpt lat="42.859753" lon="-6.705109">
        <ele>1674.914</ele>
        <time>2021-03-27T17:54:35Z</time>
      </trkpt>
      <trkpt lat="42.859573" lon="-6.708504">
        <ele>1652.134</ele>
        <time>2021-03-27T17:55:15Z</time>
      </trkpt>
      <trkpt lat="42.857973" lon="-6.709207">
        <ele>1612.085</ele>
        <time>2021-03-27T17:55:55Z</time>
      </trkpt>
      <trkpt lat="42.856281" lon="-6.712847">
        <ele>1554.810</ele>
        <time>2021-03-27T17:58:15Z</time>
      </trkpt>
      <trkpt lat="42.851491" lon="-6.716712">
        <ele>1457.561</ele>
        <time>2021-03-27T17:59:15Z</time>
      </trkpt>
      <trkpt lat="42.847170" lon="-6.716464">
        <ele>1449.077</ele>
        <time>2021-03-27T18:00:35Z</time>
      </trkpt>
      <trkpt lat="42.847065" lon="-6.717106">
        <ele>1437.291</ele>
        <time>2021-03-27T18:00:55Z</time>
      </trkpt>
      <trkpt lat="42.846361" lon="-6.716403">
        <ele>1419.889</ele>
        <time>2021-03-27T18:01:15Z</time>
      </trkpt>
      <trkpt lat="42.846311" lon="-6.717624">
        <ele>1402.356</ele>
        <time>2021-03-27T18:01:35Z</time>
      </trkpt>
      <trkpt lat="42.845703" lon="-6.717092">
        <ele>1387.459</ele>
        <time>2021-03-27T18:01:55Z</time>
      </trkpt>
      <trkpt lat="42.845643" lon="-6.718444">
        <ele>1370.414</ele>
        <time>2021-03-27T18:02:35Z</time>
      </trkpt>
      <trkpt lat="42.844680" lon="-6.718595">
        <ele>1348.208</ele>
        <time>2021-03-27T18:03:15Z</time>
      </trkpt>
      <trkpt lat="42.845330" lon="-6.714999">
        <ele>1332.860</ele>
        <time>2021-03-27T18:04:15Z</time>
      </trkpt>
      <trkpt lat="42.846631" lon="-6.712501">
        <ele>1320.350</ele>
        <time>2021-03-27T18:05:15Z</time>
      </trkpt>
      <trkpt lat="42.849415" lon="-6.712541">
        <ele>1334.171</ele>
        <time>2021-03-27T18:06:15Z</time>
      </trkpt>
      <trkpt lat="42.849862" lon="-6.710503">
        <ele>1304.566</ele>
        <time>2021-03-27T18:06:55Z</time>
      </trkpt>
      <trkpt lat="42.850848" lon="-6.710469">
        <ele>1319.617</ele>
        <time>2021-03-27T18:07:35Z</time>
      </trkpt>
      <trkpt lat="42.850882" lon="-6.709500">
        <ele>1296.413</ele>
        <time>2021-03-27T18:07:55Z</time>
      </trkpt>
      <trkpt lat="42.851658" lon="-6.709509">
        <ele>1313.077</ele>
        <time>2021-03-27T18:08:15Z</time>
      </trkpt>
      <trkpt lat="42.851816" lon="-6.708610">
        <ele>1305.845</ele>
        <time>2021-03-27T18:08:55Z</time>
      </trkpt>
      <trkpt lat="42.847575" lon="-6.705900">
        <ele>1304.514</ele>
        <time>2021-03-27T18:09:55Z</time>
      </trkpt>
      <trkpt lat="42.844439" lon="-6.704954">
        <ele>1292.254</ele>
        <time>2021-03-27T18:10:15Z</time>
      </trkpt>
      <trkpt lat="42.841973" lon="-6.701925">
        <ele>1307.409</ele>
        <time>2021-03-27T18:11:35Z</time>
      </trkpt>
      <trkpt lat="42.838196" lon="-6.704085">
        <ele>1305.708</ele>
        <time>2021-03-27T18:13:15Z</time>
      </trkpt>
      <trkpt lat="42.836434" lon="-6.706465">
        <ele>1306.366</ele>
        <time>2021-03-27T18:14:15Z</time>
      </trkpt>
      <trkpt lat="42.832600" lon="-6.707462">
        <ele>1318.966</ele>
        <time>2021-03-27T18:15:15Z</time>
      </trkpt>
      <trkpt lat="42.831281" lon="-6.707067">
        <ele>1326.087</ele>
        <time>2021-03-27T18:15:55Z</time>
      </trkpt>
      <trkpt lat="42.831950" lon="-6.704285">
        <ele>1342.492</ele>
        <time>2021-03-27T18:16:55Z</time>
      </trkpt>
      <trkpt lat="42.833221" lon="-6.704166">
        <ele>1358.663</ele>
        <time>2021-03-27T18:17:55Z</time>
      </trkpt>
      <trkpt lat="42.834171" lon="-6.701518">
        <ele>1382.249</ele>
        <time>2021-03-27T18:18:55Z</time>
      </trkpt>
      <trkpt lat="42.833923" lon="-6.698140">
        <ele>1379.573</ele>
        <time>2021-03-27T18:19:15Z</time>
      </trkpt>
      <trkpt lat="42.834605" lon="-6.696973">
        <ele>1393.851</ele>
        <time>2021-03-27T18:19:35Z</time>
      </trkpt>
      <trkpt lat="42.834231" lon="-6.694987">
        <ele>1396.452</ele>
        <time>2021-03-27T18:20:15Z</time>
      </trkpt>
      <trkpt lat="42.832879" lon="-6.693494">
        <ele>1403.353</ele>
        <time>2021-03-27T18:20:55Z</time>
      </trkpt>
      <trkpt lat="42.835372" lon="-6.695289">
        <ele>1442.408</ele>
        <time>2021-03-27T18:21:55Z</time>
      </trkpt>
      <trkpt lat="42.832037" lon="-6.685659">
        <ele>1501.808</ele>
        <time>2021-03-27T18:23:15Z</time>
      </trkpt>
      <trkpt lat="42.828865" lon="-6.682869">
        <ele>1443.390</ele>
        <time>2021-03-27T18:24:15Z</time>
      </trkpt>
      <trkpt lat="42.827805" lon="-6.680278">
        <ele>1423.960</ele>
        <time>2021-03-27T18:24:55Z</time>
      </trkpt>
      <trkpt lat="42.827729" lon="-6.678141">
        <ele>1425.041</ele>
        <time>2021-03-27T18:25:35Z</time>
      </trkpt>
      <trkpt lat="42.826026" lon="-6.674638">
        <ele>1460.946</ele>
        <time>2021-03-27T18:26:35Z</time>
      </trkpt>
      <trkpt lat="42.824760" lon="-6.668917">
        <ele>1482.277</ele>
        <time>2021-03-27T18:27:15Z</time>
      </trkpt>
      <trkpt lat="42.822531" lon="-6.664932">
        <ele>1482.093</ele>
        <time>2021-03-27T18:28:15Z</time>
      </trkpt>
      <trkpt lat="42.822890" lon="-6.662876">
        <ele>1457.757</ele>
        <time>2021-03-27T18:28:55Z</time>
      </trkpt>
      <trkpt lat="42.821157" lon="-6.661798">
        <ele>1440.745</ele>
        <time>2021-03-27T18:29:35Z</time>
      </trkpt>
      <trkpt lat="42.820749" lon="-6.663137">
        <ele>1435.853</ele>
        <time>2021-03-27T18:30:15Z</time>
      </trkpt>
      <trkpt lat="42.819331" lon="-6.662886">
        <ele>1417.204</ele>
        <time>2021-03-27T18:30:35Z</time>
      </trkpt>
      <trkpt lat="42.818856" lon="-6.663862">
        <ele>1402.914</ele>
        <time>2021-03-27T18:31:15Z</time>
      </trkpt>
      <trkpt lat="42.821957" lon="-6.672257">
        <ele>1347.108</ele>
        <time>2021-03-27T18:32:35Z</time>
      </trkpt>
      <trkpt lat="42.822155" lon="-6.678427">
        <ele>1297.840</ele>
        <time>2021-03-27T18:33:15Z</time>
      </trkpt>
      <trkpt lat="42.816659" lon="-6.676418">
        <ele>1301.070</ele>
        <time>2021-03-27T18:34:35Z</time>
      </trkpt>
      <trkpt lat="42.813057" lon="-6.669267">
        <ele>1249.121</ele>
        <time>2021-03-27T18:36:35Z</time>
      </trkpt>
      <trkpt lat="42.811675" lon="-6.669485">
        <ele>1234.316</ele>
        <time>2021-03-27T18:37:35Z</time>
      </trkpt>
      <trkpt lat="42.811335" lon="-6.670315">
        <ele>1235.657</ele>
        <time>2021-03-27T18:37:55Z</time>
      </trkpt>
      <trkpt lat="42.807186" lon="-6.668335">
        <ele>1176.213</ele>
        <time>2021-03-27T18:39:35Z</time>
      </trkpt>
      <trkpt lat="42.806022" lon="-6.668611">
        <ele>1164.747</ele>
        <time>2021-03-27T18:40:15Z</time>
      </trkpt>
      <trkpt lat="42.804604" lon="-6.667677">
        <ele>1144.435</ele>
        <time>2021-03-27T18:40:55Z</time>
      </trkpt>
      <trkpt lat="42.804334" lon="-6.668919">
        <ele>1141.754</ele>
        <time>2021-03-27T18:41:15Z</time>
      </trkpt>
      <trkpt lat="42.799488" lon="-6.665878">
        <ele>1101.056</ele>
        <time>2021-03-27T18:43:35Z</time>
      </trkpt>
      <trkpt lat="42.794075" lon="-6.660998">
        <ele>1045.711</ele>
        <time>2021-03-27T18:45:15Z</time>
      </trkpt>
      <trkpt lat="42.792517" lon="-6.663849">
        <ele>1022.008</ele>
        <time>2021-03-27T18:46:15Z</time>
      </trkpt>
      <trkpt lat="42.791376" lon="-6.668410">
        <ele>984.160</ele>
        <time>2021-03-27T18:47:55Z</time>
      </trkpt>
      <trkpt lat="42.793298" lon="-6.668149">
        <ele>956.910</ele>
        <time>2021-03-27T18:48:55Z</time>
      </trkpt>
      <trkpt lat="42.793032" lon="-6.671213">
        <ele>927.071</ele>
        <time>2021-03-27T18:49:55Z</time>
      </trkpt>
      <trkpt lat="42.791804" lon="-6.674355">
        <ele>955.226</ele>
        <time>2021-03-27T18:50:35Z</time>
      </trkpt>
      <trkpt lat="42.791980" lon="-6.675328">
        <ele>960.877</ele>
        <time>2021-03-27T18:50:55Z</time>
      </trkpt>
      <trkpt lat="42.788729" lon="-6.680377">
        <ele>1004.743</ele>
        <time>2021-03-27T18:52:35Z</time>
      </trkpt>
      <trkpt lat="42.786973" lon="-6.685089">
        <ele>1029.157</ele>
        <time>2021-03-27T18:53:35Z</time>
      </trkpt>
      <trkpt lat="42.783979" lon="-6.687390">
        <ele>1037.055</ele>
        <time>2021-03-27T18:55:15Z</time>
      </trkpt>
      <trkpt lat="42.781689" lon="-6.686740">
        <ele>1038.739</ele>
        <time>2021-03-27T18:56:35Z</time>
      </trkpt>
      <trkpt lat="42.782402" lon="-6.688279">
        <ele>1027.501</ele>
        <time>2021-03-27T18:57:15Z</time>
      </trkpt>
      <trkpt lat="42.785389" lon="-6.688971">
        <ele>1000.221</ele>
        <time>2021-03-27T18:58:55Z</time>
      </trkpt>
      <trkpt lat="42.785166" lon="-6.687255">
        <ele>993.308</ele>
        <time>2021-03-27T18:59:15Z</time>
      </trkpt>
      <trkpt lat="42.786044" lon="-6.686874">
        <ele>990.548</ele>
        <time>2021-03-27T18:59:55Z</time>
      </trkpt>
      <trkpt lat="42.787767" lon="-6.689493">
        <ele>972.238</ele>
        <time>2021-03-27T19:01:15Z</time>
      </trkpt>
      <trkpt lat="42.789109" lon="-6.689286">
        <ele>960.669</ele>
        <time>2021-03-27T19:02:15Z</time>
      </trkpt>
      <trkpt lat="42.788426" lon="-6.686695">
        <ele>950.724</ele>
        <time>2021-03-27T19:03:35Z</time>
      </trkpt>
      <trkpt lat="42.791742" lon="-6.686089">
        <ele>922.345</ele>
        <time>2021-03-27T19:05:15Z</time>
      </trkpt>
      <trkpt lat="42.792886" lon="-6.686988">
        <ele>907.841</ele>
        <time>2021-03-27T19:05:55Z</time>
      </trkpt>
      <trkpt lat="42.794861" lon="-6.683520">
        <ele>886.825</ele>
        <time>2021-03-27T19:07:35Z</time>
      </trkpt>
      <trkpt lat="42.798388" lon="-6.684005">
        <ele>852.313</ele>
        <time>2021-03-27T19:08:55Z</time>
      </trkpt>
      <trkpt lat="42.797939" lon="-6.687001">
        <ele>848.348</ele>
        <time>2021-03-27T19:09:55Z</time>
      </trkpt>
      <trkpt lat="42.796625" lon="-6.687934">
        <ele>840.861</ele>
        <time>2021-03-27T19:10:35Z</time>
      </trkpt>
      <trkpt lat="42.794969" lon="-6.691250">
        <ele>820.717</ele>
        <time>2021-03-27T19:11:35Z</time>
      </trkpt>
      <trkpt lat="42.794859" lon="-6.694214">
        <ele>818.108</ele>
        <time>2021-03-27T19:12:35Z</time>
      </trkpt>
      <trkpt lat="42.795605" lon="-6.696240">
        <ele>817.459</ele>
        <time>2021-03-27T19:12:55Z</time>
      </trkpt>
      <trkpt lat="42.797995" lon="-6.696512">
        <ele>814.969</ele>
        <time>2021-03-27T19:13:35Z</time>
      </trkpt>
      <trkpt lat="42.800908" lon="-6.698489">
        <ele>828.380</ele>
        <time>2021-03-27T19:14:35Z</time>
      </trkpt>
      <trkpt lat="42.801702" lon="-6.700520">
        <ele>822.675</ele>
        <time>2021-03-27T19:15:15Z</time>
      </trkpt>
      <trkpt lat="42.804839" lon="-6.701282">
        <ele>830.196</ele>
        <time>2021-03-27T19:16:55Z</time>
      </trkpt>
      <trkpt lat="42.812911" lon="-6.712215">
        <ele>854.552</ele>
        <time>2021-03-27T19:18:35Z</time>
      </trkpt>
      <trkpt lat="42.814892" lon="-6.718761">
        <ele>862.746</ele>
        <time>2021-03-27T19:19:15Z</time>
      </trkpt>
      <trkpt lat="42.818253" lon="-6.725654">
        <ele>872.984</ele>
        <time>2021-03-27T19:20:15Z</time>
      </trkpt>
      <trkpt lat="42.819358" lon="-6.721254">
        <ele>867.582</ele>
        <time>2021-03-27T19:21:55Z</time>
      </trkpt>
      <trkpt lat="42.820504" lon="-6.722902">
        <ele>875.243</ele>
        <time>2021-03-27T19:22:55Z</time>
      </trkpt>
      <trkpt lat="42.822647" lon="-6.721387">
        <ele>882.117</ele>
        <time>2021-03-27T19:23:35Z</time>
      </trkpt>
      <trkpt lat="42.824422" lon="-6.721998">
        <ele>888.308</ele>
        <time>2021-03-27T19:23:55Z</time>
      </trkpt>
      <trkpt lat="42.832840" lon="-6.729514">
        <ele>926.133</ele>
        <time>2021-03-27T19:25:55Z</time>
      </trkpt>
      <trkpt lat="42.830752" lon="-6.729056">
        <ele>946.073</ele>
        <time>2021-03-27T19:26:35Z</time>
      </trkpt>
      <trkpt lat="42.830328" lon="-6.730189">
        <ele>970.024</ele>
        <time>2021-03-27T19:26:55Z</time>
      </trkpt>
      <trkpt lat="42.827802" lon="-6.731256">
        <ele>997.329</ele>
        <time>2021-03-27T19:28:15Z</time>
      </trkpt>
      <trkpt lat="42.826892" lon="-6.732622">
        <ele>1018.610</ele>
        <time>2021-03-27T19:28:55Z</time>
      </trkpt>
      <trkpt lat="42.827835" lon="-6.732317">
        <ele>1030.256</ele>
        <time>2021-03-27T19:29:15Z</time>
      </trkpt>
      <trkpt lat="42.830566" lon="-6.733674">
        <ele>1053.560</ele>
        <time>2021-03-27T19:30:35Z</time>
      </trkpt>
      <trkpt lat="42.834083" lon="-6.737433">
        <ele>1116.938</ele>
        <time>2021-03-27T19:32:55Z</time>
      </trkpt>
      <trkpt lat="42.834642" lon="-6.736941">
        <ele>1099.923</ele>
        <time>2021-03-27T19:33:15Z</time>
      </trkpt>
      <trkpt lat="42.836998" lon="-6.738664">
        <ele>1125.183</ele>
        <time>2021-03-27T19:34:55Z</time>
      </trkpt>
      <trkpt lat="42.837856" lon="-6.737674">
        <ele>1109.311</ele>
        <time>2021-03-27T19:35:55Z</time>
      </trkpt>
      <trkpt lat="42.840503" lon="-6.740457">
        <ele>1157.208</ele>
        <time>2021-03-27T19:37:15Z</time>
      </trkpt>
      <trkpt lat="42.841781" lon="-6.739738">
        <ele>1151.917</ele>
        <time>2021-03-27T19:37:35Z</time>
      </trkpt>
      <trkpt lat="42.843904" lon="-6.743658">
        <ele>1179.977</ele>
        <time>2021-03-27T19:38:35Z</time>
      </trkpt>
      <trkpt lat="42.847217" lon="-6.746670">
        <ele>1203.128</ele>
        <time>2021-03-27T19:39:55Z</time>
      </trkpt>
      <trkpt lat="42.848172" lon="-6.741015">
        <ele>1180.433</ele>
        <time>2021-03-27T19:42:35Z</time>
      </trkpt>
      <trkpt lat="42.849672" lon="-6.738583">
        <ele>1150.854</ele>
        <time>2021-03-27T19:43:35Z</time>
      </trkpt>
      <trkpt lat="42.851400" lon="-6.737459">
        <ele>1129.260</ele>
        <time>2021-03-27T19:44:35Z</time>
      </trkpt>
      <trkpt lat="42.850779" lon="-6.736580">
        <ele>1120.214</ele>
        <time>2021-03-27T19:44:55Z</time>
      </trkpt>
      <trkpt lat="42.851016" lon="-6.733570">
        <ele>1073.932</ele>
        <time>2021-03-27T19:46:15Z</time>
      </trkpt>
      <trkpt lat="42.853273" lon="-6.732022">
        <ele>1053.569</ele>
        <time>2021-03-27T19:47:35Z</time>
      </trkpt>
      <trkpt lat="42.855229" lon="-6.731816">
        <ele>1040.504</ele>
        <time>2021-03-27T19:47:55Z</time>
      </trkpt>
      <trkpt lat="42.853348" lon="-6.730658">
        <ele>1010.524</ele>
        <time>2021-03-27T19:48:55Z</time>
      </trkpt>
      <trkpt lat="42.856023" lon="-6.731365">
        <ele>1028.008</ele>
        <time>2021-03-27T19:49:35Z</time>
      </trkpt>
      <trkpt lat="42.856700" lon="-6.730721">
        <ele>1026.351</ele>
        <time>2021-03-27T19:49:55Z</time>
      </trkpt>
      <trkpt lat="42.860510" lon="-6.731025">
        <ele>1072.091</ele>
        <time>2021-03-27T19:52:15Z</time>
      </trkpt>
      <trkpt lat="42.867206" lon="-6.736543">
        <ele>1114.372</ele>
        <time>2021-03-27T19:53:55Z</time>
      </trkpt>
      <trkpt lat="42.868003" lon="-6.735335">
        <ele>1118.477</ele>
        <time>2021-03-27T19:54:15Z</time>
      </trkpt>
      <trkpt lat="42.873222" lon="-6.733426">
        <ele>1170.268</ele>
        <time>2021-03-27T19:55:55Z</time>
      </trkpt>
      <trkpt lat="42.879001" lon="-6.738394">
        <ele>1272.764</ele>
        <time>2021-03-27T19:57:55Z</time>
      </trkpt>
      <trkpt lat="42.879157" lon="-6.736852">
        <ele>1278.268</ele>
        <time>2021-03-27T19:58:35Z</time>
      </trkpt>
      <trkpt lat="42.880291" lon="-6.739381">
        <ele>1324.356</ele>
        <time>2021-03-27T19:59:15Z</time>
      </trkpt>
      <trkpt lat="42.877960" lon="-6.739910">
        <ele>1340.198</ele>
        <time>2021-03-27T20:00:55Z</time>
      </trkpt>
      <trkpt lat="42.877110" lon="-6.741132">
        <ele>1384.915</ele>
        <time>2021-03-27T20:01:15Z</time>
      </trkpt>
      <trkpt lat="42.875902" lon="-6.739291">
        <ele>1379.926</ele>
        <time>2021-03-27T20:01:55Z</time>
      </trkpt>
      <trkpt lat="42.873365" lon="-6.737973">
        <ele>1401.608</ele>
        <time>2021-03-27T20:02:55Z</time>
      </trkpt>
      <trkpt lat="42.875390" lon="-6.740250">
        <ele>1431.584</ele>
        <time>2021-03-27T20:03:55Z</time>
      </trkpt>
      <trkpt lat="42.876520" lon="-6.744291">
        <ele>1504.334</ele>
        <time>2021-03-27T20:04:55Z</time>
      </trkpt>
      <trkpt lat="42.877799" lon="-6.743347">
        <ele>1497.915</ele>
        <time>2021-03-27T20:05:55Z</time>
      </trkpt>
      <trkpt lat="42.881417" lon="-6.744829">
        <ele>1566.090</ele>
        <time>2021-03-27T20:07:55Z</time>
      </trkpt>
      <trkpt lat="42.882845" lon="-6.743637">
        <ele>1586.851</ele>
        <time>2021-03-27T20:09:35Z</time>
      </trkpt>
      <trkpt lat="42.882550" lon="-6.744536">
        <ele>1590.547</ele>
        <time>2021-03-27T20:10:35Z</time>
      </trkpt>
      <trkpt lat="42.885420" lon="-6.745498">
        <ele>1594.131</ele>
        <time>2021-03-27T20:11:55Z</time>
      </trkpt>
      <trkpt lat="42.885599" lon="-6.744743">
        <ele>1588.479</ele>
        <time>2021-03-27T20:12:35Z</time>
      </trkpt>
      <trkpt lat="42.886016" lon="-6.746455">
        <ele>1576.865</ele>
        <time>2021-03-27T20:13:15Z</time>
      </trkpt>
      <trkpt lat="42.886577" lon="-6.743953">
        <ele>1553.168</ele>
        <time>2021-03-27T20:13:55Z</time>
      </trkpt>
      <trkpt lat="42.888900" lon="-6.740521">
        <ele>1509.114</ele>
        <time>2021-03-27T20:14:35Z</time>
      </trkpt>
      <trkpt lat="42.888651" lon="-6.741845">
        <ele>1502.308</ele>
        <time>2021-03-27T20:15:15Z</time>
      </trkpt>
      <trkpt lat="42.893281" lon="-6.740281">
        <ele>1460.361</ele>
        <time>2021-03-27T20:17:55Z</time>
      </trkpt>
      <trkpt lat="42.895250" lon="-6.737198">
        <ele>1418.211</ele>
        <time>2021-03-27T20:18:15Z</time>
      </trkpt>
      <trkpt lat="42.902144" lon="-6.733280">
        <ele>1506.442</ele>
        <time>2021-03-27T20:19:15Z</time>
      </trkpt>
      <trkpt lat="42.904265" lon="-6.730689">
        <ele>1515.457</ele>
        <time>2021-03-27T20:20:15Z</time>
      </trkpt>
      <trkpt lat="42.902732" lon="-6.735577">
        <ele>1583.998</ele>
        <time>2021-03-27T20:21:35Z</time>
      </trkpt>
      <trkpt lat="42.904872" lon="-6.733706">
        <ele>1605.324</ele>
        <time>2021-03-27T20:22:55Z</time>
      </trkpt>
      <trkpt lat="42.902551" lon="-6.738086">
        <ele>1652.878</ele>
        <time>2021-03-27T20:24:35Z</time>
      </trkpt>
      <trkpt lat="42.901565" lon="-6.738257">
        <ele>1662.246</ele>
        <time>2021-03-27T20:25:15Z</time>
      </trkpt>
      <trkpt lat="42.902776" lon="-6.738694">
        <ele>1677.534</ele>
        <time>2021-03-27T20:25:55Z</time>
      </trkpt>
      <trkpt lat="42.904123" lon="-6.737468">
        <ele>1673.855</ele>
        <time>2021-03-27T20:26:15Z</time>
      </trkpt>
      <trkpt lat="42.907515" lon="-6.737503">
        <ele>1650.610</ele>
        <time>2021-03-27T20:27:35Z</time>
      </trkpt>
      <trkpt lat="42.915331" lon="-6.730252">
        <ele>1573.108</ele>
        <time>2021-03-27T20:29:15Z</time>
      </trkpt>
      <trkpt lat="42.921025" lon="-6.728812">
        <ele>1523.868</ele>
        <time>2021-03-27T20:30:35Z</time>
      </trkpt>
      <trkpt lat="42.919980" lon="-6.731319">
        <ele>1506.248</ele>
        <time>2021-03-27T20:30:55Z</time>
      </trkpt>
      <trkpt lat="42.916556" lon="-6.733259">
        <ele>1472.459</ele>
        <time>2021-03-27T20:31:35Z</time>
      </trkpt>
      <trkpt lat="42.913804" lon="-6.740485">
        <ele>1419.184</ele>
        <time>2021-03-27T20:32:35Z</time>
      </trkpt>
      <trkpt lat="42.910054" lon="-6.745368">
        <ele>1369.815</ele>
        <time>2021-03-27T20:33:55Z</time>
      </trkpt>
      <trkpt lat="42.911993" lon="-6.744666">
        <ele>1354.211</ele>
        <time>2021-03-27T20:34:55Z</time>
      </trkpt>
      <trkpt lat="42.911078" lon="-6.746746">
        <ele>1332.625</ele>
        <time>2021-03-27T20:35:35Z</time>
      </trkpt>
      <trkpt lat="42.918232" lon="-6.743997">
        <ele>1254.953</ele>
        <time>2021-03-27T20:37:55Z</time>
      </trkpt>
      <trkpt lat="42.918950" lon="-6.745829">
        <ele>1234.679</ele>
        <time>2021-03-27T20:38:55Z</time>
      </trkpt>
      <trkpt lat="42.919688" lon="-6.745662">
        <ele>1226.605</ele>
        <time>2021-03-27T20:39:15Z</time>
      </trkpt>
      <trkpt lat="42.918661" lon="-6.747779">
        <ele>1207.325</ele>
        <time>2021-03-27T20:40:15Z</time>
      </trkpt>
      <trkpt lat="42.918796" lon="-6.748946">
        <ele>1195.008</ele>
        <time>2021-03-27T20:40:35Z</time>
      </trkpt>
      <trkpt lat="42.919940" lon="-6.748637">
        <ele>1182.442</ele>
        <time>2021-03-27T20:41:35Z</time>
      </trkpt>
      <trkpt lat="42.921735" lon="-6.746098">
        <ele>1156.572</ele>
        <time>2021-03-27T20:42:15Z</time>
      </trkpt>
      <trkpt lat="42.921179" lon="-6.749544">
        <ele>1131.133</ele>
        <time>2021-03-27T20:42:55Z</time>
      </trkpt>
      <trkpt lat="42.919366" lon="-6.752565">
        <ele>1102.188</ele>
        <time>2021-03-27T20:43:35Z</time>
      </trkpt>
      <trkpt lat="42.917080" lon="-6.752663">
        <ele>1085.759</ele>
        <time>2021-03-27T20:44:15Z</time>
      </trkpt>
      <trkpt lat="42.916724" lon="-6.755983">
        <ele>1042.915</ele>
        <time>2021-03-27T20:44:35Z</time>
      </trkpt>
      <trkpt lat="42.914803" lon="-6.757748">
        <ele>1025.159</ele>
        <time>2021-03-27T20:45:35Z</time>
      </trkpt>
      <trkpt lat="42.912258" lon="-6.756475">
        <ele>999.317</ele>
        <time>2021-03-27T20:46:35Z</time>
      </trkpt>
      <trkpt lat="42.905810" lon="-6.757068">
        <ele>986.157</ele>
        <time>2021-03-27T20:49:55Z</time>
      </trkpt>
      <trkpt lat="42.904371" lon="-6.759046">
        <ele>999.000</ele>
        <time>2021-03-27T20:50:55Z</time>
      </trkpt>
      <trkpt lat="42.908408" lon="-6.760112">
        <ele>956.420</ele>
        <time>2021-03-27T20:52:35Z</time>
      </trkpt>
      <trkpt lat="42.908907" lon="-6.761795">
        <ele>972.508</ele>
        <time>2021-03-27T20:53:15Z</time>
      </trkpt>
      <trkpt lat="42.909633" lon="-6.761868">
        <ele>941.180</ele>
        <time>2021-03-27T20:53:55Z</time>
      </trkpt>
      <trkpt lat="42.910270" lon="-6.764102">
        <ele>966.150</ele>
        <time>2021-03-27T20:54:35Z</time>
      </trkpt>
      <trkpt lat="42.911022" lon="-6.764543">
        <ele>936.291</ele>
        <time>2021-03-27T20:54:55Z</time>
      </trkpt>
      <trkpt lat="42.909472" lon="-6.767257">
        <ele>987.896</ele>
        <time>2021-03-27T20:56:15Z</time>
      </trkpt>
      <trkpt lat="42.910150" lon="-6.768367">
        <ele>965.157</ele>
        <time>2021-03-27T20:56:55Z</time>
      </trkpt>
      <trkpt lat="42.909704" lon="-6.770497">
        <ele>998.663</ele>
        <time>2021-03-27T20:57:15Z</time>
      </trkpt>
      <trkpt lat="42.911489" lon="-6.769940">
        <ele>980.327</ele>
        <time>2021-03-27T20:58:15Z</time>
      </trkpt>
      <trkpt lat="42.913152" lon="-6.770483">
        <ele>992.865</ele>
        <time>2021-03-27T20:59:15Z</time>
      </trkpt>
      <trkpt lat="42.911285" lon="-6.775957">
        <ele>1053.152</ele>
        <time>2021-03-27T21:00:15Z</time>
      </trkpt>
      <trkpt lat="42.913985" lon="-6.775680">
        <ele>1017.853</ele>
        <time>2021-03-27T21:00:55Z</time>
      </trkpt>
      <trkpt lat="42.915425" lon="-6.774579">
        <ele>988.608</ele>
        <time>2021-03-27T21:01:15Z</time>
      </trkpt>
      <trkpt lat="42.915889" lon="-6.775953">
        <ele>1010.108</ele>
        <time>2021-03-27T21:01:55Z</time>
      </trkpt>
      <trkpt lat="42.918177" lon="-6.776752">
        <ele>989.990</ele>
        <time>2021-03-27T21:03:55Z</time>
      </trkpt>
      <trkpt lat="42.919084" lon="-6.780263">
        <ele>1001.830</ele>
        <time>2021-03-27T21:04:35Z</time>
      </trkpt>
      <trkpt lat="42.920422" lon="-6.780329">
        <ele>993.041</ele>
        <time>2021-03-27T21:05:15Z</time>
      </trkpt>
      <trkpt lat="42.926436" lon="-6.775958">
        <ele>931.246</ele>
        <time>2021-03-27T21:07:35Z</time>
      </trkpt>
      <trkpt lat="42.897912" lon="-6.689971">
        <ele>1061.66</ele>
        <time>2021-03-27T12:38:26Z</time>
      </trkpt>
      <trkpt lat="42.897818" lon="-6.689564">
        <ele>1064.25</ele>
        <time>2021-03-27T12:38:31Z</time>
      </trkpt>
      <trkpt lat="42.897785" lon="-6.689333">
        <ele>1062.64</ele>
        <time>2021-03-27T12:38:35Z</time>
      </trkpt>
      <trkpt lat="42.897758" lon="-6.688873">
        <ele>1061.65</ele>
        <time>2021-03-27T12:38:39Z</time>
      </trkpt>
      <trkpt lat="42.897683" lon="-6.688527">
        <ele>1062.56</ele>
        <time>2021-03-27T12:38:43Z</time>
      </trkpt>
      <trkpt lat="42.897607" lon="-6.687896">
        <ele>1059.73</ele>
        <time>2021-03-27T12:38:47Z</time>
      </trkpt>
      <trkpt lat="42.897479" lon="-6.687218">
        <ele>1060.39</ele>
        <time>2021-03-27T12:38:51Z</time>
      </trkpt>
      <trkpt lat="42.897298" lon="-6.685906">
        <ele>1057.04</ele>
        <time>2021-03-27T12:38:56Z</time>
      </trkpt>
      <trkpt lat="42.897164" lon="-6.685065">
        <ele>1047.38</ele>
        <time>2021-03-27T12:39:00Z</time>
      </trkpt>
      <trkpt lat="42.896816" lon="-6.683779">
        <ele>1046.28</ele>
        <time>2021-03-27T12:39:04Z</time>
      </trkpt>
      <trkpt lat="42.896627" lon="-6.68318">
        <ele>1047.09</ele>
        <time>2021-03-27T12:39:08Z</time>
      </trkpt>
      <trkpt lat="42.896389" lon="-6.682539">
        <ele>1045.42</ele>
        <time>2021-03-27T12:39:12Z</time>
      </trkpt>
      <trkpt lat="42.8962" lon="-6.68194">
        <ele>1041.69</ele>
        <time>2021-03-27T12:39:16Z</time>
      </trkpt>
      <trkpt lat="42.895804" lon="-6.680794">
        <ele>1035.21</ele>
        <time>2021-03-27T12:39:21Z</time>
      </trkpt>
      <trkpt lat="42.895467" lon="-6.680174">
        <ele>1035.93</ele>
        <time>2021-03-27T12:39:25Z</time>
      </trkpt>
      <trkpt lat="42.894762" lon="-6.678979">
        <ele>1033.31</ele>
        <time>2021-03-27T12:39:29Z</time>
      </trkpt>
      <trkpt lat="42.894589" lon="-6.678784">
        <ele>1031.91</ele>
        <time>2021-03-27T12:39:33Z</time>
      </trkpt>
      <trkpt lat="42.894046" lon="-6.678473">
        <ele>1031.03</ele>
        <time>2021-03-27T12:39:37Z</time>
      </trkpt>
      <trkpt lat="42.893598" lon="-6.678264">
        <ele>1029.57</ele>
        <time>2021-03-27T12:39:41Z</time>
      </trkpt>
      <trkpt lat="42.893406" lon="-6.678223">
        <ele>1026.35</ele>
        <time>2021-03-27T12:39:46Z</time>
      </trkpt>
      <trkpt lat="42.892182" lon="-6.67839">
        <ele>1021.06</ele>
        <time>2021-03-27T12:39:50Z</time>
      </trkpt>
      <trkpt lat="42.891421" lon="-6.678467">
        <ele>1017.54</ele>
        <time>2021-03-27T12:39:54Z</time>
      </trkpt>
      <trkpt lat="42.891149" lon="-6.67854">
        <ele>1016.66</ele>
        <time>2021-03-27T12:39:58Z</time>
      </trkpt>
      <trkpt lat="42.890782" lon="-6.678724">
        <ele>1017.07</ele>
        <time>2021-03-27T12:40:02Z</time>
      </trkpt>
      <trkpt lat="42.890631" lon="-6.678752">
        <ele>1018.11</ele>
        <time>2021-03-27T12:40:07Z</time>
      </trkpt>
      <trkpt lat="42.890549" lon="-6.678724">
        <ele>1018.23</ele>
        <time>2021-03-27T12:40:11Z</time>
      </trkpt>
      <trkpt lat="42.890094" lon="-6.67827">
        <ele>1015.04</ele>
        <time>2021-03-27T12:40:15Z</time>
      </trkpt>
      <trkpt lat="42.889483" lon="-6.677783">
        <ele>1012.86</ele>
        <time>2021-03-27T12:40:19Z</time>
      </trkpt>
      <trkpt lat="42.889016" lon="-6.677471">
        <ele>1008.5</ele>
        <time>2021-03-27T12:40:23Z</time>
      </trkpt>
      <trkpt lat="42.888439" lon="-6.677049">
        <ele>1006.35</ele>
        <time>2021-03-27T12:40:27Z</time>
      </trkpt>
      <trkpt lat="42.888183" lon="-6.676886">
        <ele>1005.87</ele>
        <time>2021-03-27T12:40:32Z</time>
      </trkpt>
      <trkpt lat="42.887319" lon="-6.676456">
        <ele>1000.33</ele>
        <time>2021-03-27T12:40:36Z</time>
      </trkpt>
      <trkpt lat="42.886892" lon="-6.676175">
        <ele>993.67</ele>
        <time>2021-03-27T12:40:40Z</time>
      </trkpt>
      <trkpt lat="42.886738" lon="-6.675991">
        <ele>992.71</ele>
        <time>2021-03-27T12:40:44Z</time>
      </trkpt>
      <trkpt lat="42.886626" lon="-6.675813">
        <ele>989.26</ele>
        <time>2021-03-27T12:40:48Z</time>
      </trkpt>
      <trkpt lat="42.886555" lon="-6.675592">
        <ele>987.22</ele>
        <time>2021-03-27T12:40:52Z</time>
      </trkpt>
      <trkpt lat="42.886567" lon="-6.675447">
        <ele>984.95</ele>
        <time>2021-03-27T12:40:57Z</time>
      </trkpt>
      <trkpt lat="42.886579" lon="-6.675383">
        <ele>984.06</ele>
        <time>2021-03-27T12:41:01Z</time>
      </trkpt>
      <trkpt lat="42.88661" lon="-6.675186">
        <ele>983.4</ele>
        <time>2021-03-27T12:41:05Z</time>
      </trkpt>
      <trkpt lat="42.886618" lon="-6.675014">
        <ele>984.88</ele>
        <time>2021-03-27T12:41:09Z</time>
      </trkpt>
      <trkpt lat="42.886599" lon="-6.674918">
        <ele>985.89</ele>
        <time>2021-03-27T12:41:13Z</time>
      </trkpt>
      <trkpt lat="42.886501" lon="-6.674803">
        <ele>987.13</ele>
        <time>2021-03-27T12:41:17Z</time>
      </trkpt>
      <trkpt lat="42.88485" lon="-6.673717">
        <ele>984.44</ele>
        <time>2021-03-27T12:41:22Z</time>
      </trkpt>
      <trkpt lat="42.883576" lon="-6.672827">
        <ele>995.87</ele>
        <time>2021-03-27T12:41:26Z</time>
      </trkpt>
      <trkpt lat="42.883329" lon="-6.672574">
        <ele>992.55</ele>
        <time>2021-03-27T12:41:30Z</time>
      </trkpt>
      <trkpt lat="42.883044" lon="-6.672038">
        <ele>993.05</ele>
        <time>2021-03-27T12:41:34Z</time>
      </trkpt>
      <trkpt lat="42.882827" lon="-6.67168">
        <ele>990.54</ele>
        <time>2021-03-27T12:41:38Z</time>
      </trkpt>
      <trkpt lat="42.882727" lon="-6.671538">
        <ele>989.31</ele>
        <time>2021-03-27T12:41:43Z</time>
      </trkpt>
      <trkpt lat="42.882549" lon="-6.671333">
        <ele>986.67</ele>
        <time>2021-03-27T12:41:47Z</time>
      </trkpt>
      <trkpt lat="42.882475" lon="-6.671215">
        <ele>985.57</ele>
        <time>2021-03-27T12:41:51Z</time>
      </trkpt>
      <trkpt lat="42.882417" lon="-6.670652">
        <ele>987.5</ele>
        <time>2021-03-27T12:41:55Z</time>
      </trkpt>
      <trkpt lat="42.882358" lon="-6.670324">
        <ele>985.11</ele>
        <time>2021-03-27T12:41:59Z</time>
      </trkpt>
      <trkpt lat="42.882438" lon="-6.669883">
        <ele>988.28</ele>
        <time>2021-03-27T12:42:03Z</time>
      </trkpt>
      <trkpt lat="42.882522" lon="-6.669254">
        <ele>990.58</ele>
        <time>2021-03-27T12:42:08Z</time>
      </trkpt>
      <trkpt lat="42.88249" lon="-6.668967">
        <ele>989.87</ele>
        <time>2021-03-27T12:42:12Z</time>
      </trkpt>
      <trkpt lat="42.882453" lon="-6.668875">
        <ele>989.32</ele>
        <time>2021-03-27T12:42:16Z</time>
      </trkpt>
      <trkpt lat="42.882275" lon="-6.668729">
        <ele>986.76</ele>
        <time>2021-03-27T12:42:20Z</time>
      </trkpt>
      <trkpt lat="42.882035" lon="-6.668579">
        <ele>982.59</ele>
        <time>2021-03-27T12:42:24Z</time>
      </trkpt>
      <trkpt lat="42.881964" lon="-6.668489">
        <ele>981.32</ele>
        <time>2021-03-27T12:42:28Z</time>
      </trkpt>
      <trkpt lat="42.881895" lon="-6.668356">
        <ele>980.29</ele>
        <time>2021-03-27T12:42:33Z</time>
      </trkpt>
      <trkpt lat="42.881828" lon="-6.668152">
        <ele>980.14</ele>
        <time>2021-03-27T12:42:37Z</time>
      </trkpt>
      <trkpt lat="42.881775" lon="-6.667951">
        <ele>980.24</ele>
        <time>2021-03-27T12:42:41Z</time>
      </trkpt>
      <trkpt lat="42.881667" lon="-6.667395">
        <ele>978.62</ele>
        <time>2021-03-27T12:42:45Z</time>
      </trkpt>
      <trkpt lat="42.881407" lon="-6.666891">
        <ele>974.07</ele>
        <time>2021-03-27T12:42:49Z</time>
      </trkpt>
      <trkpt lat="42.881285" lon="-6.666488">
        <ele>974.58</ele>
        <time>2021-03-27T12:42:53Z</time>
      </trkpt>
      <trkpt lat="42.881179" lon="-6.666393">
        <ele>974.68</ele>
        <time>2021-03-27T12:42:58Z</time>
      </trkpt>
      <trkpt lat="42.881045" lon="-6.666329">
        <ele>974.64</ele>
        <time>2021-03-27T12:43:02Z</time>
      </trkpt>
      <trkpt lat="42.880781" lon="-6.666155">
        <ele>973.27</ele>
        <time>2021-03-27T12:43:06Z</time>
      </trkpt>
      <trkpt lat="42.880708" lon="-6.666068">
        <ele>972.7</ele>
        <time>2021-03-27T12:43:10Z</time>
      </trkpt>
      <trkpt lat="42.880664" lon="-6.665953">
        <ele>972.58</ele>
        <time>2021-03-27T12:43:14Z</time>
      </trkpt>
      <trkpt lat="42.880648" lon="-6.665774">
        <ele>973.14</ele>
        <time>2021-03-27T12:43:19Z</time>
      </trkpt>
      <trkpt lat="42.880647" lon="-6.665635">
        <ele>973.43</ele>
        <time>2021-03-27T12:43:23Z</time>
      </trkpt>
      <trkpt lat="42.880679" lon="-6.66533">
        <ele>976.49</ele>
        <time>2021-03-27T12:43:27Z</time>
      </trkpt>
      <trkpt lat="42.880661" lon="-6.665131">
        <ele>977.24</ele>
        <time>2021-03-27T12:43:31Z</time>
      </trkpt>
      <trkpt lat="42.880545" lon="-6.664804">
        <ele>976.49</ele>
        <time>2021-03-27T12:43:35Z</time>
      </trkpt>
      <trkpt lat="42.880255" lon="-6.664188">
        <ele>980.57</ele>
        <time>2021-03-27T12:43:39Z</time>
      </trkpt>
      <trkpt lat="42.880187" lon="-6.664079">
        <ele>980.3</ele>
        <time>2021-03-27T12:43:44Z</time>
      </trkpt>
      <trkpt lat="42.879991" lon="-6.663863">
        <ele>976.77</ele>
        <time>2021-03-27T12:43:48Z</time>
      </trkpt>
      <trkpt lat="42.879698" lon="-6.663582">
        <ele>969.63</ele>
        <time>2021-03-27T12:43:52Z</time>
      </trkpt>
      <trkpt lat="42.879468" lon="-6.663314">
        <ele>965.98</ele>
        <time>2021-03-27T12:43:56Z</time>
      </trkpt>
      <trkpt lat="42.879399" lon="-6.663179">
        <ele>964.92</ele>
        <time>2021-03-27T12:44:00Z</time>
      </trkpt>
      <trkpt lat="42.879279" lon="-6.662835">
        <ele>963.23</ele>
        <time>2021-03-27T12:44:04Z</time>
      </trkpt>
      <trkpt lat="42.87912" lon="-6.662111">
        <ele>964.13</ele>
        <time>2021-03-27T12:44:09Z</time>
      </trkpt>
      <trkpt lat="42.87905" lon="-6.661551">
        <ele>966.69</ele>
        <time>2021-03-27T12:44:13Z</time>
      </trkpt>
      <trkpt lat="42.878973" lon="-6.660733">
        <ele>964.44</ele>
        <time>2021-03-27T12:44:17Z</time>
      </trkpt>
      <trkpt lat="42.878902" lon="-6.660221">
        <ele>965.68</ele>
        <time>2021-03-27T12:44:21Z</time>
      </trkpt>
      <trkpt lat="42.878845" lon="-6.659946">
        <ele>964.87</ele>
        <time>2021-03-27T12:44:25Z</time>
      </trkpt>
      <trkpt lat="42.878687" lon="-6.659542">
        <ele>959.28</ele>
        <time>2021-03-27T12:44:29Z</time>
      </trkpt>
      <trkpt lat="42.878634" lon="-6.659291">
        <ele>957.13</ele>
        <time>2021-03-27T12:44:34Z</time>
      </trkpt>
      <trkpt lat="42.878584" lon="-6.657868">
        <ele>960.59</ele>
        <time>2021-03-27T12:44:38Z</time>
      </trkpt>
      <trkpt lat="42.87851" lon="-6.657387">
        <ele>965.88</ele>
        <time>2021-03-27T12:44:42Z</time>
      </trkpt>
      <trkpt lat="42.87832" lon="-6.656916">
        <ele>963.29</ele>
        <time>2021-03-27T12:44:45Z</time>
      </trkpt>
      <trkpt lat="42.878181" lon="-6.656362">
        <ele>957.43</ele>
        <time>2021-03-27T12:44:48Z</time>
      </trkpt>
      <trkpt lat="42.878158" lon="-6.656164">
        <ele>956.64</ele>
        <time>2021-03-27T12:44:51Z</time>
      </trkpt>
      <trkpt lat="42.878119" lon="-6.655667">
        <ele>954.36</ele>
        <time>2021-03-27T12:44:54Z</time>
      </trkpt>
      <trkpt lat="42.878121" lon="-6.655404">
        <ele>952.32</ele>
        <time>2021-03-27T12:44:57Z</time>
      </trkpt>
      <trkpt lat="42.878147" lon="-6.655079">
        <ele>952.29</ele>
        <time>2021-03-27T12:45:00Z</time>
      </trkpt>
      <trkpt lat="42.878232" lon="-6.654422">
        <ele>954.51</ele>
        <time>2021-03-27T12:45:03Z</time>
      </trkpt>
      <trkpt lat="42.878259" lon="-6.654097">
        <ele>954.27</ele>
        <time>2021-03-27T12:45:06Z</time>
      </trkpt>
      <trkpt lat="42.878252" lon="-6.653823">
        <ele>953.43</ele>
        <time>2021-03-27T12:45:09Z</time>
      </trkpt>
      <trkpt lat="42.878193" lon="-6.653132">
        <ele>950.26</ele>
        <time>2021-03-27T12:45:12Z</time>
      </trkpt>
      <trkpt lat="42.878165" lon="-6.652978">
        <ele>947.73</ele>
        <time>2021-03-27T12:45:15Z</time>
      </trkpt>
      <trkpt lat="42.877931" lon="-6.652276">
        <ele>938.58</ele>
        <time>2021-03-27T12:45:18Z</time>
      </trkpt>
      <trkpt lat="42.877784" lon="-6.651536">
        <ele>940.21</ele>
        <time>2021-03-27T12:45:21Z</time>
      </trkpt>
      <trkpt lat="42.877718" lon="-6.650251">
        <ele>940.75</ele>
        <time>2021-03-27T12:45:24Z</time>
      </trkpt>
      <trkpt lat="42.877729" lon="-6.649251">
        <ele>943.06</ele>
        <time>2021-03-27T12:45:27Z</time>
      </trkpt>
      <trkpt lat="42.877632" lon="-6.648774">
        <ele>945.45</ele>
        <time>2021-03-27T12:45:30Z</time>
      </trkpt>
      <trkpt lat="42.877355" lon="-6.647717">
        <ele>937.45</ele>
        <time>2021-03-27T12:45:33Z</time>
      </trkpt>
      <trkpt lat="42.877157" lon="-6.647131">
        <ele>936.33</ele>
        <time>2021-03-27T12:45:36Z</time>
      </trkpt>
      <trkpt lat="42.876959" lon="-6.646641">
        <ele>932.41</ele>
        <time>2021-03-27T12:45:39Z</time>
      </trkpt>
      <trkpt lat="42.876825" lon="-6.646261">
        <ele>929.88</ele>
        <time>2021-03-27T12:45:43Z</time>
      </trkpt>
      <trkpt lat="42.876458" lon="-6.644712">
        <ele>937.11</ele>
        <time>2021-03-27T12:45:46Z</time>
      </trkpt>
      <trkpt lat="42.876429" lon="-6.644491">
        <ele>939.13</ele>
        <time>2021-03-27T12:45:49Z</time>
      </trkpt>
      <trkpt lat="42.876504" lon="-6.643636">
        <ele>943.07</ele>
        <time>2021-03-27T12:45:52Z</time>
      </trkpt>
      <trkpt lat="42.876585" lon="-6.642361">
        <ele>944.88</ele>
        <time>2021-03-27T12:45:55Z</time>
      </trkpt>
      <trkpt lat="42.876584" lon="-6.642125">
        <ele>945.51</ele>
        <time>2021-03-27T12:45:58Z</time>
      </trkpt>
      <trkpt lat="42.876513" lon="-6.64156">
        <ele>944.34</ele>
        <time>2021-03-27T12:46:01Z</time>
      </trkpt>
      <trkpt lat="42.876405" lon="-6.640949">
        <ele>943.5</ele>
        <time>2021-03-27T12:46:04Z</time>
      </trkpt>
      <trkpt lat="42.876201" lon="-6.639564">
        <ele>939.08</ele>
        <time>2021-03-27T12:46:07Z</time>
      </trkpt>
      <trkpt lat="42.876276" lon="-6.638213">
        <ele>936.96</ele>
        <time>2021-03-27T12:46:10Z</time>
      </trkpt>
      <trkpt lat="42.876309" lon="-6.637914">
        <ele>936.4</ele>
        <time>2021-03-27T12:46:13Z</time>
      </trkpt>
      <trkpt lat="42.876343" lon="-6.637719">
        <ele>936.43</ele>
        <time>2021-03-27T12:46:16Z</time>
      </trkpt>
      <trkpt lat="42.876426" lon="-6.63744">
        <ele>938.02</ele>
        <time>2021-03-27T12:46:19Z</time>
      </trkpt>
      <trkpt lat="42.87657" lon="-6.636834">
        <ele>940.82</ele>
        <time>2021-03-27T12:46:22Z</time>
      </trkpt>
      <trkpt lat="42.876562" lon="-6.636637">
        <ele>939.81</ele>
        <time>2021-03-27T12:46:25Z</time>
      </trkpt>
      <trkpt lat="42.876447" lon="-6.63601">
        <ele>934.55</ele>
        <time>2021-03-27T12:46:28Z</time>
      </trkpt>
      <trkpt lat="42.876264" lon="-6.635536">
        <ele>932.72</ele>
        <time>2021-03-27T12:46:31Z</time>
      </trkpt>
      <trkpt lat="42.876072" lon="-6.634797">
        <ele>931.19</ele>
        <time>2021-03-27T12:46:34Z</time>
      </trkpt>
      <trkpt lat="42.875878" lon="-6.634242">
        <ele>927.08</ele>
        <time>2021-03-27T12:46:37Z</time>
      </trkpt>
      <trkpt lat="42.875818" lon="-6.634026">
        <ele>925.3</ele>
        <time>2021-03-27T12:46:40Z</time>
      </trkpt>
      <trkpt lat="42.875388" lon="-6.632115">
        <ele>921.56</ele>
        <time>2021-03-27T12:46:43Z</time>
      </trkpt>
      <trkpt lat="42.875283" lon="-6.631715">
        <ele>919.16</ele>
        <time>2021-03-27T12:46:46Z</time>
      </trkpt>
      <trkpt lat="42.87511" lon="-6.631272">
        <ele>918.91</ele>
        <time>2021-03-27T12:46:49Z</time>
      </trkpt>
      <trkpt lat="42.8749" lon="-6.630794">
        <ele>919.15</ele>
        <time>2021-03-27T12:46:52Z</time>
      </trkpt>
      <trkpt lat="42.873917" lon="-6.628772">
        <ele>923.72</ele>
        <time>2021-03-27T12:46:55Z</time>
      </trkpt>
      <trkpt lat="42.873196" lon="-6.627355">
        <ele>919.83</ele>
        <time>2021-03-27T12:46:58Z</time>
      </trkpt>
      <trkpt lat="42.873118" lon="-6.627147">
        <ele>918.02</ele>
        <time>2021-03-27T12:47:01Z</time>
      </trkpt>
      <trkpt lat="42.87309" lon="-6.626991">
        <ele>917.11</ele>
        <time>2021-03-27T12:47:04Z</time>
      </trkpt>
      <trkpt lat="42.87303" lon="-6.625861">
        <ele>912.08</ele>
        <time>2021-03-27T12:47:07Z</time>
      </trkpt>
      <trkpt lat="42.87303" lon="-6.625423">
        <ele>914.13</ele>
        <time>2021-03-27T12:47:10Z</time>
      </trkpt>
      <trkpt lat="42.873044" lon="-6.625213">
        <ele>916.02</ele>
        <time>2021-03-27T12:47:13Z</time>
      </trkpt>
      <trkpt lat="42.873015" lon="-6.624878">
        <ele>917.67</ele>
        <time>2021-03-27T12:47:16Z</time>
      </trkpt>
      <trkpt lat="42.872969" lon="-6.624702">
        <ele>917.33</ele>
        <time>2021-03-27T12:47:19Z</time>
      </trkpt>
      <trkpt lat="42.872819" lon="-6.624325">
        <ele>912.47</ele>
        <time>2021-03-27T12:47:22Z</time>
      </trkpt>
      <trkpt lat="42.872693" lon="-6.624068">
        <ele>908.14</ele>
        <time>2021-03-27T12:47:25Z</time>
      </trkpt>
      <trkpt lat="42.871902" lon="-6.622536">
        <ele>896.97</ele>
        <time>2021-03-27T12:47:28Z</time>
      </trkpt>
      <trkpt lat="42.871559" lon="-6.621707">
        <ele>895.42</ele>
        <time>2021-03-27T12:47:31Z</time>
      </trkpt>
      <trkpt lat="42.871486" lon="-6.621593">
        <ele>893.91</ele>
        <time>2021-03-27T12:47:34Z</time>
      </trkpt>
      <trkpt lat="42.87099" lon="-6.621036">
        <ele>889.4</ele>
        <time>2021-03-27T12:47:37Z</time>
      </trkpt>
      <trkpt lat="42.870504" lon="-6.620139">
        <ele>890.47</ele>
        <time>2021-03-27T12:47:40Z</time>
      </trkpt>
      <trkpt lat="42.87044" lon="-6.619997">
        <ele>890.41</ele>
        <time>2021-03-27T12:47:43Z</time>
      </trkpt>
      <trkpt lat="42.870391" lon="-6.619772">
        <ele>889.8</ele>
        <time>2021-03-27T12:47:46Z</time>
      </trkpt>
      <trkpt lat="42.870387" lon="-6.619646">
        <ele>889.46</ele>
        <time>2021-03-27T12:47:49Z</time>
      </trkpt>
      <trkpt lat="42.870403" lon="-6.619497">
        <ele>889.44</ele>
        <time>2021-03-27T12:47:52Z</time>
      </trkpt>
      <trkpt lat="42.870584" lon="-6.61876">
        <ele>885.68</ele>
        <time>2021-03-27T12:47:55Z</time>
      </trkpt>
      <trkpt lat="42.870621" lon="-6.618554">
        <ele>885.36</ele>
        <time>2021-03-27T12:47:58Z</time>
      </trkpt>
      <trkpt lat="42.870624" lon="-6.618421">
        <ele>885.31</ele>
        <time>2021-03-27T12:48:02Z</time>
      </trkpt>
      <trkpt lat="42.870592" lon="-6.618065">
        <ele>884.78</ele>
        <time>2021-03-27T12:48:05Z</time>
      </trkpt>
      <trkpt lat="42.870514" lon="-6.617792">
        <ele>883.57</ele>
        <time>2021-03-27T12:48:08Z</time>
      </trkpt>
      <trkpt lat="42.870449" lon="-6.617659">
        <ele>883.64</ele>
        <time>2021-03-27T12:48:11Z</time>
      </trkpt>
      <trkpt lat="42.870195" lon="-6.617256">
        <ele>882.66</ele>
        <time>2021-03-27T12:48:14Z</time>
      </trkpt>
      <trkpt lat="42.870039" lon="-6.616949">
        <ele>879.85</ele>
        <time>2021-03-27T12:48:17Z</time>
      </trkpt>
      <trkpt lat="42.869984" lon="-6.616739">
        <ele>878.35</ele>
        <time>2021-03-27T12:48:20Z</time>
      </trkpt>
      <trkpt lat="42.869983" lon="-6.616517">
        <ele>877.02</ele>
        <time>2021-03-27T12:48:23Z</time>
      </trkpt>
      <trkpt lat="42.870215" lon="-6.615388">
        <ele>881.54</ele>
        <time>2021-03-27T12:48:26Z</time>
      </trkpt>
      <trkpt lat="42.870227" lon="-6.615182">
        <ele>883.25</ele>
        <time>2021-03-27T12:48:29Z</time>
      </trkpt>
      <trkpt lat="42.870218" lon="-6.615055">
        <ele>883.51</ele>
        <time>2021-03-27T12:48:32Z</time>
      </trkpt>
      <trkpt lat="42.87017" lon="-6.614891">
        <ele>883.24</ele>
        <time>2021-03-27T12:48:35Z</time>
      </trkpt>
      <trkpt lat="42.870132" lon="-6.614844">
        <ele>882.36</ele>
        <time>2021-03-27T12:48:38Z</time>
      </trkpt>
      <trkpt lat="42.870034" lon="-6.614841">
        <ele>879.44</ele>
        <time>2021-03-27T12:48:41Z</time>
      </trkpt>
      <trkpt lat="42.869532" lon="-6.614984">
        <ele>874.86</ele>
        <time>2021-03-27T12:48:44Z</time>
      </trkpt>
      <trkpt lat="42.869281" lon="-6.614974">
        <ele>877.07</ele>
        <time>2021-03-27T12:48:47Z</time>
      </trkpt>
      <trkpt lat="42.86909" lon="-6.614914">
        <ele>880.02</ele>
        <time>2021-03-27T12:48:50Z</time>
      </trkpt>
      <trkpt lat="42.868894" lon="-6.614777">
        <ele>882.08</ele>
        <time>2021-03-27T12:48:53Z</time>
      </trkpt>
      <trkpt lat="42.868539" lon="-6.614391">
        <ele>883.34</ele>
        <time>2021-03-27T12:48:56Z</time>
      </trkpt>
      <trkpt lat="42.868379" lon="-6.61418">
        <ele>887.22</ele>
        <time>2021-03-27T12:48:59Z</time>
      </trkpt>
      <trkpt lat="42.86829" lon="-6.614">
        <ele>892.99</ele>
        <time>2021-03-27T12:49:02Z</time>
      </trkpt>
      <trkpt lat="42.868264" lon="-6.613909">
        <ele>895.33</ele>
        <time>2021-03-27T12:49:05Z</time>
      </trkpt>
      <trkpt lat="42.868251" lon="-6.613785">
        <ele>896.08</ele>
        <time>2021-03-27T12:49:08Z</time>
      </trkpt>
      <trkpt lat="42.868288" lon="-6.613217">
        <ele>884.8</ele>
        <time>2021-03-27T12:49:11Z</time>
      </trkpt>
      <trkpt lat="42.868279" lon="-6.613068">
        <ele>884.04</ele>
        <time>2021-03-27T12:49:14Z</time>
      </trkpt>
      <trkpt lat="42.868254" lon="-6.61296">
        <ele>883.6</ele>
        <time>2021-03-27T12:49:17Z</time>
      </trkpt>
      <trkpt lat="42.868204" lon="-6.612835">
        <ele>882.86</ele>
        <time>2021-03-27T12:49:20Z</time>
      </trkpt>
      <trkpt lat="42.868154" lon="-6.612755">
        <ele>882.71</ele>
        <time>2021-03-27T12:49:23Z</time>
      </trkpt>
      <trkpt lat="42.868002" lon="-6.612613">
        <ele>885.09</ele>
        <time>2021-03-27T12:49:26Z</time>
      </trkpt>
      <trkpt lat="42.867877" lon="-6.612567">
        <ele>884.77</ele>
        <time>2021-03-27T12:49:29Z</time>
      </trkpt>
      <trkpt lat="42.867422" lon="-6.612461">
        <ele>882.92</ele>
        <time>2021-03-27T12:49:32Z</time>
      </trkpt>
      <trkpt lat="42.866865" lon="-6.612155">
        <ele>876.79</ele>
        <time>2021-03-27T12:49:35Z</time>
      </trkpt>
      <trkpt lat="42.866639" lon="-6.612052">
        <ele>874.84</ele>
        <time>2021-03-27T12:49:38Z</time>
      </trkpt>
      <trkpt lat="42.866504" lon="-6.612081">
        <ele>874.6</ele>
        <time>2021-03-27T12:49:41Z</time>
      </trkpt>
      <trkpt lat="42.866473" lon="-6.612116">
        <ele>874.63</ele>
        <time>2021-03-27T12:49:44Z</time>
      </trkpt>
      <trkpt lat="42.866379" lon="-6.61234">
        <ele>876.32</ele>
        <time>2021-03-27T12:49:47Z</time>
      </trkpt>
      <trkpt lat="42.866344" lon="-6.612635">
        <ele>881.04</ele>
        <time>2021-03-27T12:49:50Z</time>
      </trkpt>
      <trkpt lat="42.866359" lon="-6.612811">
        <ele>882.61</ele>
        <time>2021-03-27T12:49:53Z</time>
      </trkpt>
      <trkpt lat="42.866401" lon="-6.613007">
        <ele>884.24</ele>
        <time>2021-03-27T12:49:56Z</time>
      </trkpt>
      <trkpt lat="42.866418" lon="-6.613168">
        <ele>886.11</ele>
        <time>2021-03-27T12:49:59Z</time>
      </trkpt>
      <trkpt lat="42.866398" lon="-6.613314">
        <ele>886.37</ele>
        <time>2021-03-27T12:50:02Z</time>
      </trkpt>
      <trkpt lat="42.866266" lon="-6.613626">
        <ele>883.64</ele>
        <time>2021-03-27T12:50:05Z</time>
      </trkpt>
      <trkpt lat="42.866086" lon="-6.61384">
        <ele>881.07</ele>
        <time>2021-03-27T12:50:08Z</time>
      </trkpt>
      <trkpt lat="42.865871" lon="-6.614005">
        <ele>882.33</ele>
        <time>2021-03-27T12:50:11Z</time>
      </trkpt>
      <trkpt lat="42.865704" lon="-6.614087">
        <ele>882.27</ele>
        <time>2021-03-27T12:50:14Z</time>
      </trkpt>
      <trkpt lat="42.865487" lon="-6.614157">
        <ele>882.4</ele>
        <time>2021-03-27T12:50:18Z</time>
      </trkpt>
      <trkpt lat="42.865363" lon="-6.61415">
        <ele>881.71</ele>
        <time>2021-03-27T12:50:21Z</time>
      </trkpt>
      <trkpt lat="42.865263" lon="-6.614095">
        <ele>879.72</ele>
        <time>2021-03-27T12:50:24Z</time>
      </trkpt>
      <trkpt lat="42.865152" lon="-6.614011">
        <ele>878.86</ele>
        <time>2021-03-27T12:50:27Z</time>
      </trkpt>
      <trkpt lat="42.864724" lon="-6.613582">
        <ele>874.13</ele>
        <time>2021-03-27T12:50:30Z</time>
      </trkpt>
      <trkpt lat="42.864661" lon="-6.613467">
        <ele>874.15</ele>
        <time>2021-03-27T12:50:33Z</time>
      </trkpt>
      <trkpt lat="42.864625" lon="-6.613359">
        <ele>872.71</ele>
        <time>2021-03-27T12:50:36Z</time>
      </trkpt>
      <trkpt lat="42.864609" lon="-6.613216">
        <ele>870.91</ele>
        <time>2021-03-27T12:50:39Z</time>
      </trkpt>
      <trkpt lat="42.86463" lon="-6.612939">
        <ele>867.58</ele>
        <time>2021-03-27T12:50:42Z</time>
      </trkpt>
      <trkpt lat="42.864617" lon="-6.612644">
        <ele>867.41</ele>
        <time>2021-03-27T12:50:45Z</time>
      </trkpt>
      <trkpt lat="42.864577" lon="-6.612546">
        <ele>867.36</ele>
        <time>2021-03-27T12:50:48Z</time>
      </trkpt>
      <trkpt lat="42.864511" lon="-6.612445">
        <ele>867.11</ele>
        <time>2021-03-27T12:50:51Z</time>
      </trkpt>
      <trkpt lat="42.864447" lon="-6.612399">
        <ele>866.75</ele>
        <time>2021-03-27T12:50:54Z</time>
      </trkpt>
      <trkpt lat="42.864343" lon="-6.612365">
        <ele>867.69</ele>
        <time>2021-03-27T12:50:57Z</time>
      </trkpt>
      <trkpt lat="42.86425" lon="-6.61237">
        <ele>868.29</ele>
        <time>2021-03-27T12:51:00Z</time>
      </trkpt>
      <trkpt lat="42.864089" lon="-6.612453">
        <ele>870.0</ele>
        <time>2021-03-27T12:51:03Z</time>
      </trkpt>
      <trkpt lat="42.863995" lon="-6.612526">
        <ele>872.44</ele>
        <time>2021-03-27T12:51:06Z</time>
      </trkpt>
      <trkpt lat="42.863681" lon="-6.612843">
        <ele>872.57</ele>
        <time>2021-03-27T12:51:09Z</time>
      </trkpt>
      <trkpt lat="42.863383" lon="-6.613217">
        <ele>870.46</ele>
        <time>2021-03-27T12:51:12Z</time>
      </trkpt>
      <trkpt lat="42.863235" lon="-6.613357">
        <ele>868.58</ele>
        <time>2021-03-27T12:51:15Z</time>
      </trkpt>
      <trkpt lat="42.862923" lon="-6.613563">
        <ele>868.21</ele>
        <time>2021-03-27T12:51:18Z</time>
      </trkpt>
      <trkpt lat="42.8628" lon="-6.613618">
        <ele>867.64</ele>
        <time>2021-03-27T12:51:21Z</time>
      </trkpt>
      <trkpt lat="42.86264" lon="-6.613647">
        <ele>868.25</ele>
        <time>2021-03-27T12:51:24Z</time>
      </trkpt>
      <trkpt lat="42.862446" lon="-6.613626">
        <ele>868.24</ele>
        <time>2021-03-27T12:51:27Z</time>
      </trkpt>
      <trkpt lat="42.862336" lon="-6.613584">
        <ele>869.77</ele>
        <time>2021-03-27T12:51:30Z</time>
      </trkpt>
      <trkpt lat="42.862051" lon="-6.613367">
        <ele>862.13</ele>
        <time>2021-03-27T12:51:33Z</time>
      </trkpt>
      <trkpt lat="42.861906" lon="-6.613196">
        <ele>858.82</ele>
        <time>2021-03-27T12:51:36Z</time>
      </trkpt>
      <trkpt lat="42.861821" lon="-6.613122">
        <ele>856.49</ele>
        <time>2021-03-27T12:51:39Z</time>
      </trkpt>
      <trkpt lat="42.861666" lon="-6.613034">
        <ele>853.24</ele>
        <time>2021-03-27T12:51:42Z</time>
      </trkpt>
      <trkpt lat="42.861586" lon="-6.613062">
        <ele>853.62</ele>
        <time>2021-03-27T12:51:45Z</time>
      </trkpt>
      <trkpt lat="42.861538" lon="-6.613106">
        <ele>854.13</ele>
        <time>2021-03-27T12:51:48Z</time>
      </trkpt>
      <trkpt lat="42.861492" lon="-6.613217">
        <ele>854.54</ele>
        <time>2021-03-27T12:51:51Z</time>
      </trkpt>
      <trkpt lat="42.861471" lon="-6.613448">
        <ele>856.2</ele>
        <time>2021-03-27T12:51:54Z</time>
      </trkpt>
      <trkpt lat="42.861458" lon="-6.613921">
        <ele>861.92</ele>
        <time>2021-03-27T12:51:57Z</time>
      </trkpt>
      <trkpt lat="42.861435" lon="-6.614083">
        <ele>863.44</ele>
        <time>2021-03-27T12:52:00Z</time>
      </trkpt>
      <trkpt lat="42.861392" lon="-6.614242">
        <ele>863.92</ele>
        <time>2021-03-27T12:52:03Z</time>
      </trkpt>
      <trkpt lat="42.861329" lon="-6.614371">
        <ele>863.75</ele>
        <time>2021-03-27T12:52:06Z</time>
      </trkpt>
      <trkpt lat="42.861136" lon="-6.614572">
        <ele>859.67</ele>
        <time>2021-03-27T12:52:09Z</time>
      </trkpt>
      <trkpt lat="42.860898" lon="-6.614709">
        <ele>856.77</ele>
        <time>2021-03-27T12:52:12Z</time>
      </trkpt>
      <trkpt lat="42.860802" lon="-6.614792">
        <ele>855.28</ele>
        <time>2021-03-27T12:52:15Z</time>
      </trkpt>
      <trkpt lat="42.860773" lon="-6.614841">
        <ele>854.7</ele>
        <time>2021-03-27T12:52:18Z</time>
      </trkpt>
      <trkpt lat="42.860763" lon="-6.614909">
        <ele>853.3</ele>
        <time>2021-03-27T12:52:21Z</time>
      </trkpt>
      <trkpt lat="42.860796" lon="-6.615076">
        <ele>850.86</ele>
        <time>2021-03-27T12:52:24Z</time>
      </trkpt>
      <trkpt lat="42.861079" lon="-6.615777">
        <ele>858.91</ele>
        <time>2021-03-27T12:52:27Z</time>
      </trkpt>
      <trkpt lat="42.861087" lon="-6.615884">
        <ele>861.04</ele>
        <time>2021-03-27T12:52:30Z</time>
      </trkpt>
      <trkpt lat="42.861069" lon="-6.615983">
        <ele>863.43</ele>
        <time>2021-03-27T12:52:33Z</time>
      </trkpt>
      <trkpt lat="42.861029" lon="-6.616078">
        <ele>863.87</ele>
        <time>2021-03-27T12:52:37Z</time>
      </trkpt>
      <trkpt lat="42.860957" lon="-6.616204">
        <ele>862.35</ele>
        <time>2021-03-27T12:52:40Z</time>
      </trkpt>
      <trkpt lat="42.860837" lon="-6.616339">
        <ele>857.97</ele>
        <time>2021-03-27T12:52:43Z</time>
      </trkpt>
      <trkpt lat="42.860641" lon="-6.616506">
        <ele>854.89</ele>
        <time>2021-03-27T12:52:46Z</time>
      </trkpt>
      <trkpt lat="42.86028" lon="-6.616635">
        <ele>851.14</ele>
        <time>2021-03-27T12:52:49Z</time>
      </trkpt>
      <trkpt lat="42.860186" lon="-6.616699">
        <ele>851.23</ele>
        <time>2021-03-27T12:52:52Z</time>
      </trkpt>
      <trkpt lat="42.860123" lon="-6.616829">
        <ele>851.38</ele>
        <time>2021-03-27T12:52:55Z</time>
      </trkpt>
      <trkpt lat="42.860046" lon="-6.617284">
        <ele>853.26</ele>
        <time>2021-03-27T12:52:58Z</time>
      </trkpt>
      <trkpt lat="42.85998" lon="-6.617548">
        <ele>852.96</ele>
        <time>2021-03-27T12:53:01Z</time>
      </trkpt>
      <trkpt lat="42.859809" lon="-6.617748">
        <ele>850.92</ele>
        <time>2021-03-27T12:53:04Z</time>
      </trkpt>
      <trkpt lat="42.859585" lon="-6.61796">
        <ele>851.95</ele>
        <time>2021-03-27T12:53:07Z</time>
      </trkpt>
      <trkpt lat="42.859536" lon="-6.618056">
        <ele>853.31</ele>
        <time>2021-03-27T12:53:10Z</time>
      </trkpt>
      <trkpt lat="42.85941" lon="-6.618221">
        <ele>853.54</ele>
        <time>2021-03-27T12:53:13Z</time>
      </trkpt>
      <trkpt lat="42.859326" lon="-6.618261">
        <ele>852.76</ele>
        <time>2021-03-27T12:53:16Z</time>
      </trkpt>
      <trkpt lat="42.859037" lon="-6.618316">
        <ele>850.78</ele>
        <time>2021-03-27T12:53:19Z</time>
      </trkpt>
      <trkpt lat="42.85883" lon="-6.61831">
        <ele>851.56</ele>
        <time>2021-03-27T12:53:22Z</time>
      </trkpt>
      <trkpt lat="42.856449" lon="-6.618507">
        <ele>845.15</ele>
        <time>2021-03-27T12:53:25Z</time>
      </trkpt>
      <trkpt lat="42.856137" lon="-6.618484">
        <ele>846.49</ele>
        <time>2021-03-27T12:53:28Z</time>
      </trkpt>
      <trkpt lat="42.856089" lon="-6.618449">
        <ele>846.47</ele>
        <time>2021-03-27T12:53:31Z</time>
      </trkpt>
      <trkpt lat="42.85605" lon="-6.618392">
        <ele>846.37</ele>
        <time>2021-03-27T12:53:34Z</time>
      </trkpt>
      <trkpt lat="42.856004" lon="-6.618274">
        <ele>845.39</ele>
        <time>2021-03-27T12:53:37Z</time>
      </trkpt>
      <trkpt lat="42.856024" lon="-6.618158">
        <ele>842.9</ele>
        <time>2021-03-27T12:53:40Z</time>
      </trkpt>
      <trkpt lat="42.856216" lon="-6.617534">
        <ele>840.0</ele>
        <time>2021-03-27T12:53:43Z</time>
      </trkpt>
      <trkpt lat="42.856259" lon="-6.617234">
        <ele>847.39</ele>
        <time>2021-03-27T12:53:46Z</time>
      </trkpt>
      <trkpt lat="42.856248" lon="-6.617147">
        <ele>850.45</ele>
        <time>2021-03-27T12:53:49Z</time>
      </trkpt>
      <trkpt lat="42.856137" lon="-6.617055">
        <ele>853.07</ele>
        <time>2021-03-27T12:53:52Z</time>
      </trkpt>
      <trkpt lat="42.855556" lon="-6.616826">
        <ele>852.99</ele>
        <time>2021-03-27T12:53:55Z</time>
      </trkpt>
      <trkpt lat="42.855443" lon="-6.616733">
        <ele>853.8</ele>
        <time>2021-03-27T12:53:58Z</time>
      </trkpt>
      <trkpt lat="42.854997" lon="-6.616609">
        <ele>853.46</ele>
        <time>2021-03-27T12:54:01Z</time>
      </trkpt>
      <trkpt lat="42.854871" lon="-6.616581">
        <ele>854.3</ele>
        <time>2021-03-27T12:54:04Z</time>
      </trkpt>
      <trkpt lat="42.854526" lon="-6.616614">
        <ele>854.49</ele>
        <time>2021-03-27T12:54:07Z</time>
      </trkpt>
      <trkpt lat="42.854319" lon="-6.616606">
        <ele>853.73</ele>
        <time>2021-03-27T12:54:10Z</time>
      </trkpt>
      <trkpt lat="42.854092" lon="-6.616567">
        <ele>851.25</ele>
        <time>2021-03-27T12:54:13Z</time>
      </trkpt>
      <trkpt lat="42.853906" lon="-6.616501">
        <ele>848.24</ele>
        <time>2021-03-27T12:54:16Z</time>
      </trkpt>
      <trkpt lat="42.853727" lon="-6.616374">
        <ele>848.56</ele>
        <time>2021-03-27T12:54:19Z</time>
      </trkpt>
      <trkpt lat="42.853378" lon="-6.616169">
        <ele>851.67</ele>
        <time>2021-03-27T12:54:22Z</time>
      </trkpt>
      <trkpt lat="42.853087" lon="-6.616058">
        <ele>851.38</ele>
        <time>2021-03-27T12:54:25Z</time>
      </trkpt>
      <trkpt lat="42.852664" lon="-6.615833">
        <ele>847.96</ele>
        <time>2021-03-27T12:54:28Z</time>
      </trkpt>
      <trkpt lat="42.852555" lon="-6.615732">
        <ele>847.81</ele>
        <time>2021-03-27T12:54:31Z</time>
      </trkpt>
      <trkpt lat="42.852448" lon="-6.615588">
        <ele>848.67</ele>
        <time>2021-03-27T12:54:34Z</time>
      </trkpt>
      <trkpt lat="42.852279" lon="-6.615229">
        <ele>852.42</ele>
        <time>2021-03-27T12:54:37Z</time>
      </trkpt>
      <trkpt lat="42.851977" lon="-6.61477">
        <ele>851.38</ele>
        <time>2021-03-27T12:54:40Z</time>
      </trkpt>
      <trkpt lat="42.85191" lon="-6.614552">
        <ele>855.2</ele>
        <time>2021-03-27T12:54:43Z</time>
      </trkpt>
      <trkpt lat="42.851759" lon="-6.614243">
        <ele>859.84</ele>
        <time>2021-03-27T12:54:46Z</time>
      </trkpt>
      <trkpt lat="42.851685" lon="-6.61417">
        <ele>861.83</ele>
        <time>2021-03-27T12:54:49Z</time>
      </trkpt>
      <trkpt lat="42.851572" lon="-6.614096">
        <ele>863.35</ele>
        <time>2021-03-27T12:54:53Z</time>
      </trkpt>
      <trkpt lat="42.85088" lon="-6.613964">
        <ele>859.23</ele>
        <time>2021-03-27T12:54:56Z</time>
      </trkpt>
      <trkpt lat="42.8502" lon="-6.61388">
        <ele>862.35</ele>
        <time>2021-03-27T12:54:59Z</time>
      </trkpt>
      <trkpt lat="42.849956" lon="-6.613834">
        <ele>865.98</ele>
        <time>2021-03-27T12:55:02Z</time>
      </trkpt>
      <trkpt lat="42.849844" lon="-6.613778">
        <ele>865.61</ele>
        <time>2021-03-27T12:55:05Z</time>
      </trkpt>
      <trkpt lat="42.849691" lon="-6.613544">
        <ele>864.91</ele>
        <time>2021-03-27T12:55:08Z</time>
      </trkpt>
      <trkpt lat="42.849628" lon="-6.613369">
        <ele>862.99</ele>
        <time>2021-03-27T12:55:11Z</time>
      </trkpt>
      <trkpt lat="42.84959" lon="-6.613211">
        <ele>862.66</ele>
        <time>2021-03-27T12:55:14Z</time>
      </trkpt>
      <trkpt lat="42.849567" lon="-6.613025">
        <ele>863.68</ele>
        <time>2021-03-27T12:55:17Z</time>
      </trkpt>
      <trkpt lat="42.849561" lon="-6.612635">
        <ele>868.05</ele>
        <time>2021-03-27T12:55:20Z</time>
      </trkpt>
      <trkpt lat="42.849613" lon="-6.611909">
        <ele>869.59</ele>
        <time>2021-03-27T12:55:23Z</time>
      </trkpt>
      <trkpt lat="42.849617" lon="-6.611743">
        <ele>870.32</ele>
        <time>2021-03-27T12:55:26Z</time>
      </trkpt>
      <trkpt lat="42.849603" lon="-6.611631">
        <ele>870.59</ele>
        <time>2021-03-27T12:55:29Z</time>
      </trkpt>
      <trkpt lat="42.849208" lon="-6.610776">
        <ele>864.96</ele>
        <time>2021-03-27T12:55:32Z</time>
      </trkpt>
      <trkpt lat="42.849088" lon="-6.610607">
        <ele>866.08</ele>
        <time>2021-03-27T12:55:35Z</time>
      </trkpt>
      <trkpt lat="42.848881" lon="-6.610399">
        <ele>872.43</ele>
        <time>2021-03-27T12:55:38Z</time>
      </trkpt>
      <trkpt lat="42.848751" lon="-6.610334">
        <ele>874.48</ele>
        <time>2021-03-27T12:55:41Z</time>
      </trkpt>
      <trkpt lat="42.848517" lon="-6.610329">
        <ele>875.94</ele>
        <time>2021-03-27T12:55:44Z</time>
      </trkpt>
      <trkpt lat="42.84837" lon="-6.610358">
        <ele>876.58</ele>
        <time>2021-03-27T12:55:47Z</time>
      </trkpt>
      <trkpt lat="42.848073" lon="-6.610465">
        <ele>876.22</ele>
        <time>2021-03-27T12:55:50Z</time>
      </trkpt>
      <trkpt lat="42.847785" lon="-6.610615">
        <ele>876.39</ele>
        <time>2021-03-27T12:55:53Z</time>
      </trkpt>
      <trkpt lat="42.847598" lon="-6.61076">
        <ele>878.37</ele>
        <time>2021-03-27T12:55:56Z</time>
      </trkpt>
      <trkpt lat="42.847427" lon="-6.610954">
        <ele>876.7</ele>
        <time>2021-03-27T12:55:59Z</time>
      </trkpt>
      <trkpt lat="42.846804" lon="-6.611772">
        <ele>873.4</ele>
        <time>2021-03-27T12:56:02Z</time>
      </trkpt>
      <trkpt lat="42.846605" lon="-6.611902">
        <ele>874.51</ele>
        <time>2021-03-27T12:56:05Z</time>
      </trkpt>
      <trkpt lat="42.846462" lon="-6.611912">
        <ele>874.21</ele>
        <time>2021-03-27T12:56:08Z</time>
      </trkpt>
      <trkpt lat="42.846366" lon="-6.61189">
        <ele>873.34</ele>
        <time>2021-03-27T12:56:11Z</time>
      </trkpt>
      <trkpt lat="42.846261" lon="-6.611779">
        <ele>870.35</ele>
        <time>2021-03-27T12:56:14Z</time>
      </trkpt>
      <trkpt lat="42.846127" lon="-6.611529">
        <ele>868.97</ele>
        <time>2021-03-27T12:56:17Z</time>
      </trkpt>
      <trkpt lat="42.845796" lon="-6.610508">
        <ele>865.7</ele>
        <time>2021-03-27T12:56:20Z</time>
      </trkpt>
      <trkpt lat="42.845644" lon="-6.610249">
        <ele>865.73</ele>
        <time>2021-03-27T12:56:23Z</time>
      </trkpt>
      <trkpt lat="42.845524" lon="-6.610092">
        <ele>866.39</ele>
        <time>2021-03-27T12:56:26Z</time>
      </trkpt>
      <trkpt lat="42.845434" lon="-6.610011">
        <ele>864.6</ele>
        <time>2021-03-27T12:56:29Z</time>
      </trkpt>
      <trkpt lat="42.845145" lon="-6.60987">
        <ele>857.51</ele>
        <time>2021-03-27T12:56:32Z</time>
      </trkpt>
      <trkpt lat="42.844857" lon="-6.609669">
        <ele>863.9</ele>
        <time>2021-03-27T12:56:35Z</time>
      </trkpt>
      <trkpt lat="42.844791" lon="-6.609646">
        <ele>865.62</ele>
        <time>2021-03-27T12:56:38Z</time>
      </trkpt>
      <trkpt lat="42.844718" lon="-6.609653">
        <ele>865.72</ele>
        <time>2021-03-27T12:56:41Z</time>
      </trkpt>
      <trkpt lat="42.844359" lon="-6.609811">
        <ele>855.44</ele>
        <time>2021-03-27T12:56:44Z</time>
      </trkpt>
      <trkpt lat="42.844071" lon="-6.610015">
        <ele>849.09</ele>
        <time>2021-03-27T12:56:47Z</time>
      </trkpt>
      <trkpt lat="42.843956" lon="-6.610129">
        <ele>847.73</ele>
        <time>2021-03-27T12:56:50Z</time>
      </trkpt>
      <trkpt lat="42.84388" lon="-6.610235">
        <ele>846.06</ele>
        <time>2021-03-27T12:56:53Z</time>
      </trkpt>
      <trkpt lat="42.843696" lon="-6.610554">
        <ele>838.55</ele>
        <time>2021-03-27T12:56:56Z</time>
      </trkpt>
      <trkpt lat="42.843611" lon="-6.610665">
        <ele>835.27</ele>
        <time>2021-03-27T12:56:59Z</time>
      </trkpt>
      <trkpt lat="42.843492" lon="-6.61075">
        <ele>832.03</ele>
        <time>2021-03-27T12:57:02Z</time>
      </trkpt>
      <trkpt lat="42.843285" lon="-6.610722">
        <ele>833.25</ele>
        <time>2021-03-27T12:57:05Z</time>
      </trkpt>
      <trkpt lat="42.843103" lon="-6.610585">
        <ele>833.8</ele>
        <time>2021-03-27T12:57:08Z</time>
      </trkpt>
      <trkpt lat="42.842952" lon="-6.610351">
        <ele>833.7</ele>
        <time>2021-03-27T12:57:12Z</time>
      </trkpt>
      <trkpt lat="42.842716" lon="-6.609935">
        <ele>833.02</ele>
        <time>2021-03-27T12:57:15Z</time>
      </trkpt>
      <trkpt lat="42.842632" lon="-6.609827">
        <ele>834.3</ele>
        <time>2021-03-27T12:57:18Z</time>
      </trkpt>
      <trkpt lat="42.842386" lon="-6.609632">
        <ele>834.92</ele>
        <time>2021-03-27T12:57:21Z</time>
      </trkpt>
      <trkpt lat="42.842266" lon="-6.60956">
        <ele>835.84</ele>
        <time>2021-03-27T12:57:24Z</time>
      </trkpt>
      <trkpt lat="42.842163" lon="-6.609554">
        <ele>835.55</ele>
        <time>2021-03-27T12:57:27Z</time>
      </trkpt>
      <trkpt lat="42.84195" lon="-6.609597">
        <ele>834.17</ele>
        <time>2021-03-27T12:57:30Z</time>
      </trkpt>
      <trkpt lat="42.841449" lon="-6.609759">
        <ele>830.87</ele>
        <time>2021-03-27T12:57:33Z</time>
      </trkpt>
      <trkpt lat="42.841335" lon="-6.609832">
        <ele>827.89</ele>
        <time>2021-03-27T12:57:36Z</time>
      </trkpt>
      <trkpt lat="42.8407" lon="-6.610539">
        <ele>818.33</ele>
        <time>2021-03-27T12:57:39Z</time>
      </trkpt>
      <trkpt lat="42.840564" lon="-6.610632">
        <ele>817.97</ele>
        <time>2021-03-27T12:57:42Z</time>
      </trkpt>
      <trkpt lat="42.840493" lon="-6.61065">
        <ele>817.39</ele>
        <time>2021-03-27T12:57:45Z</time>
      </trkpt>
      <trkpt lat="42.839874" lon="-6.610631">
        <ele>810.17</ele>
        <time>2021-03-27T12:57:48Z</time>
      </trkpt>
      <trkpt lat="42.839762" lon="-6.610603">
        <ele>808.1</ele>
        <time>2021-03-27T12:57:51Z</time>
      </trkpt>
      <trkpt lat="42.839637" lon="-6.610467">
        <ele>808.91</ele>
        <time>2021-03-27T12:57:54Z</time>
      </trkpt>
      <trkpt lat="42.839579" lon="-6.61036">
        <ele>810.5</ele>
        <time>2021-03-27T12:57:57Z</time>
      </trkpt>
      <trkpt lat="42.839315" lon="-6.609323">
        <ele>808.82</ele>
        <time>2021-03-27T12:58:00Z</time>
      </trkpt>
      <trkpt lat="42.839306" lon="-6.609197">
        <ele>809.34</ele>
        <time>2021-03-27T12:58:03Z</time>
      </trkpt>
      <trkpt lat="42.839336" lon="-6.608966">
        <ele>808.54</ele>
        <time>2021-03-27T12:58:06Z</time>
      </trkpt>
      <trkpt lat="42.83946" lon="-6.608597">
        <ele>803.98</ele>
        <time>2021-03-27T12:58:09Z</time>
      </trkpt>
      <trkpt lat="42.839493" lon="-6.608442">
        <ele>800.79</ele>
        <time>2021-03-27T12:58:12Z</time>
      </trkpt>
      <trkpt lat="42.839533" lon="-6.607883">
        <ele>793.08</ele>
        <time>2021-03-27T12:58:15Z</time>
      </trkpt>
      <trkpt lat="42.83952" lon="-6.607557">
        <ele>793.72</ele>
        <time>2021-03-27T12:58:18Z</time>
      </trkpt>
      <trkpt lat="42.839492" lon="-6.607441">
        <ele>795.24</ele>
        <time>2021-03-27T12:58:21Z</time>
      </trkpt>
      <trkpt lat="42.839377" lon="-6.607254">
        <ele>796.7</ele>
        <time>2021-03-27T12:58:24Z</time>
      </trkpt>
      <trkpt lat="42.839188" lon="-6.607125">
        <ele>794.34</ele>
        <time>2021-03-27T12:58:27Z</time>
      </trkpt>
      <trkpt lat="42.83882" lon="-6.607026">
        <ele>800.08</ele>
        <time>2021-03-27T12:58:30Z</time>
      </trkpt>
      <trkpt lat="42.838539" lon="-6.607035">
        <ele>798.26</ele>
        <time>2021-03-27T12:58:33Z</time>
      </trkpt>
      <trkpt lat="42.83832" lon="-6.607121">
        <ele>793.89</ele>
        <time>2021-03-27T12:58:36Z</time>
      </trkpt>
      <trkpt lat="42.837895" lon="-6.607337">
        <ele>794.42</ele>
        <time>2021-03-27T12:58:39Z</time>
      </trkpt>
      <trkpt lat="42.837697" lon="-6.607384">
        <ele>795.67</ele>
        <time>2021-03-27T12:58:42Z</time>
      </trkpt>
      <trkpt lat="42.837533" lon="-6.607405">
        <ele>796.47</ele>
        <time>2021-03-27T12:58:45Z</time>
      </trkpt>
      <trkpt lat="42.837029" lon="-6.607346">
        <ele>798.11</ele>
        <time>2021-03-27T12:58:48Z</time>
      </trkpt>
      <trkpt lat="42.836826" lon="-6.607311">
        <ele>797.1</ele>
        <time>2021-03-27T12:58:51Z</time>
      </trkpt>
      <trkpt lat="42.836772" lon="-6.607122">
        <ele>799.15</ele>
        <time>2021-03-27T12:58:54Z</time>
      </trkpt>
      <trkpt lat="42.83674" lon="-6.607077">
        <ele>799.18</ele>
        <time>2021-03-27T12:58:56Z</time>
      </trkpt>
      <trkpt lat="42.836629" lon="-6.607003">
        <ele>797.8</ele>
        <time>2021-03-27T12:58:59Z</time>
      </trkpt>
      <trkpt lat="42.836427" lon="-6.606945">
        <ele>795.54</ele>
        <time>2021-03-27T12:59:01Z</time>
      </trkpt>
      <trkpt lat="42.836319" lon="-6.606893">
        <ele>795.08</ele>
        <time>2021-03-27T12:59:03Z</time>
      </trkpt>
      <trkpt lat="42.836211" lon="-6.60681">
        <ele>794.88</ele>
        <time>2021-03-27T12:59:06Z</time>
      </trkpt>
      <trkpt lat="42.836105" lon="-6.606682">
        <ele>794.7</ele>
        <time>2021-03-27T12:59:08Z</time>
      </trkpt>
      <trkpt lat="42.835931" lon="-6.606363">
        <ele>796.09</ele>
        <time>2021-03-27T12:59:10Z</time>
      </trkpt>
      <trkpt lat="42.835699" lon="-6.605719">
        <ele>803.74</ele>
        <time>2021-03-27T12:59:13Z</time>
      </trkpt>
      <trkpt lat="42.835551" lon="-6.605227">
        <ele>805.08</ele>
        <time>2021-03-27T12:59:15Z</time>
      </trkpt>
      <trkpt lat="42.835433" lon="-6.604518">
        <ele>813.91</ele>
        <time>2021-03-27T12:59:18Z</time>
      </trkpt>
      <trkpt lat="42.835335" lon="-6.60414">
        <ele>816.27</ele>
        <time>2021-03-27T12:59:20Z</time>
      </trkpt>
      <trkpt lat="42.835108" lon="-6.603607">
        <ele>812.88</ele>
        <time>2021-03-27T12:59:22Z</time>
      </trkpt>
      <trkpt lat="42.835084" lon="-6.603514">
        <ele>811.92</ele>
        <time>2021-03-27T12:59:25Z</time>
      </trkpt>
      <trkpt lat="42.8351" lon="-6.603327">
        <ele>812.2</ele>
        <time>2021-03-27T12:59:27Z</time>
      </trkpt>
      <trkpt lat="42.835152" lon="-6.603231">
        <ele>813.39</ele>
        <time>2021-03-27T12:59:29Z</time>
      </trkpt>
      <trkpt lat="42.835339" lon="-6.602978">
        <ele>819.87</ele>
        <time>2021-03-27T12:59:32Z</time>
      </trkpt>
      <trkpt lat="42.835452" lon="-6.602686">
        <ele>824.66</ele>
        <time>2021-03-27T12:59:34Z</time>
      </trkpt>
      <trkpt lat="42.835488" lon="-6.602505">
        <ele>824.92</ele>
        <time>2021-03-27T12:59:37Z</time>
      </trkpt>
      <trkpt lat="42.835504" lon="-6.602261">
        <ele>823.74</ele>
        <time>2021-03-27T12:59:39Z</time>
      </trkpt>
      <trkpt lat="42.835481" lon="-6.601942">
        <ele>820.22</ele>
        <time>2021-03-27T12:59:41Z</time>
      </trkpt>
      <trkpt lat="42.835438" lon="-6.601658">
        <ele>815.84</ele>
        <time>2021-03-27T12:59:44Z</time>
      </trkpt>
      <trkpt lat="42.835451" lon="-6.601555">
        <ele>815.43</ele>
        <time>2021-03-27T12:59:46Z</time>
      </trkpt>
      <trkpt lat="42.835615" lon="-6.601029">
        <ele>814.3</ele>
        <time>2021-03-27T12:59:49Z</time>
      </trkpt>
      <trkpt lat="42.835788" lon="-6.600747">
        <ele>816.43</ele>
        <time>2021-03-27T12:59:51Z</time>
      </trkpt>
      <trkpt lat="42.835894" lon="-6.600615">
        <ele>817.36</ele>
        <time>2021-03-27T12:59:53Z</time>
      </trkpt>
      <trkpt lat="42.836003" lon="-6.60049">
        <ele>820.16</ele>
        <time>2021-03-27T12:59:56Z</time>
      </trkpt>
      <trkpt lat="42.836186" lon="-6.600357">
        <ele>825.49</ele>
        <time>2021-03-27T12:59:58Z</time>
      </trkpt>
      <trkpt lat="42.836275" lon="-6.60027">
        <ele>827.8</ele>
        <time>2021-03-27T13:00:00Z</time>
      </trkpt>
      <trkpt lat="42.8364" lon="-6.600057">
        <ele>828.49</ele>
        <time>2021-03-27T13:00:03Z</time>
      </trkpt>
      <trkpt lat="42.836436" lon="-6.599934">
        <ele>827.48</ele>
        <time>2021-03-27T13:00:05Z</time>
      </trkpt>
      <trkpt lat="42.836489" lon="-6.599572">
        <ele>825.47</ele>
        <time>2021-03-27T13:00:08Z</time>
      </trkpt>
      <trkpt lat="42.836477" lon="-6.599363">
        <ele>824.9</ele>
        <time>2021-03-27T13:00:10Z</time>
      </trkpt>
      <trkpt lat="42.836286" lon="-6.598824">
        <ele>822.72</ele>
        <time>2021-03-27T13:00:12Z</time>
      </trkpt>
      <trkpt lat="42.836066" lon="-6.59807">
        <ele>819.06</ele>
        <time>2021-03-27T13:00:15Z</time>
      </trkpt>
      <trkpt lat="42.836051" lon="-6.597932">
        <ele>818.27</ele>
        <time>2021-03-27T13:00:17Z</time>
      </trkpt>
      <trkpt lat="42.836066" lon="-6.597731">
        <ele>817.61</ele>
        <time>2021-03-27T13:00:19Z</time>
      </trkpt>
      <trkpt lat="42.836203" lon="-6.5974">
        <ele>818.86</ele>
        <time>2021-03-27T13:00:22Z</time>
      </trkpt>
      <trkpt lat="42.836387" lon="-6.597109">
        <ele>820.9</ele>
        <time>2021-03-27T13:00:24Z</time>
      </trkpt>
      <trkpt lat="42.836526" lon="-6.596962">
        <ele>821.37</ele>
        <time>2021-03-27T13:00:27Z</time>
      </trkpt>
      <trkpt lat="42.837022" lon="-6.596653">
        <ele>827.28</ele>
        <time>2021-03-27T13:00:29Z</time>
      </trkpt>
      <trkpt lat="42.837202" lon="-6.596514">
        <ele>831.11</ele>
        <time>2021-03-27T13:00:31Z</time>
      </trkpt>
      <trkpt lat="42.83725" lon="-6.596438">
        <ele>831.48</ele>
        <time>2021-03-27T13:00:34Z</time>
      </trkpt>
      <trkpt lat="42.837336" lon="-6.596203">
        <ele>826.84</ele>
        <time>2021-03-27T13:00:36Z</time>
      </trkpt>
      <trkpt lat="42.837405" lon="-6.596084">
        <ele>824.82</ele>
        <time>2021-03-27T13:00:38Z</time>
      </trkpt>
      <trkpt lat="42.837654" lon="-6.595769">
        <ele>824.08</ele>
        <time>2021-03-27T13:00:41Z</time>
      </trkpt>
      <trkpt lat="42.837768" lon="-6.595586">
        <ele>821.82</ele>
        <time>2021-03-27T13:00:43Z</time>
      </trkpt>
      <trkpt lat="42.837834" lon="-6.595522">
        <ele>819.86</ele>
        <time>2021-03-27T13:00:46Z</time>
      </trkpt>
      <trkpt lat="42.837921" lon="-6.59547">
        <ele>817.7</ele>
        <time>2021-03-27T13:00:48Z</time>
      </trkpt>
      <trkpt lat="42.838464" lon="-6.595268">
        <ele>817.62</ele>
        <time>2021-03-27T13:00:50Z</time>
      </trkpt>
      <trkpt lat="42.838764" lon="-6.595116">
        <ele>825.07</ele>
        <time>2021-03-27T13:00:53Z</time>
      </trkpt>
      <trkpt lat="42.838838" lon="-6.595062">
        <ele>825.37</ele>
        <time>2021-03-27T13:00:55Z</time>
      </trkpt>
      <trkpt lat="42.838901" lon="-6.594977">
        <ele>824.2</ele>
        <time>2021-03-27T13:00:57Z</time>
      </trkpt>
      <trkpt lat="42.839133" lon="-6.59457">
        <ele>823.93</ele>
        <time>2021-03-27T13:01:00Z</time>
      </trkpt>
      <trkpt lat="42.839294" lon="-6.594462">
        <ele>818.28</ele>
        <time>2021-03-27T13:01:02Z</time>
      </trkpt>
      <trkpt lat="42.839552" lon="-6.594354">
        <ele>815.9</ele>
        <time>2021-03-27T13:01:05Z</time>
      </trkpt>
      <trkpt lat="42.839862" lon="-6.594326">
        <ele>819.17</ele>
        <time>2021-03-27T13:01:07Z</time>
      </trkpt>
      <trkpt lat="42.839919" lon="-6.594296">
        <ele>819.24</ele>
        <time>2021-03-27T13:01:09Z</time>
      </trkpt>
      <trkpt lat="42.840166" lon="-6.593874">
        <ele>815.36</ele>
        <time>2021-03-27T13:01:12Z</time>
      </trkpt>
      <trkpt lat="42.840247" lon="-6.593633">
        <ele>818.54</ele>
        <time>2021-03-27T13:01:14Z</time>
      </trkpt>
      <trkpt lat="42.840251" lon="-6.593521">
        <ele>820.3</ele>
        <time>2021-03-27T13:01:17Z</time>
      </trkpt>
      <trkpt lat="42.840053" lon="-6.592391">
        <ele>825.48</ele>
        <time>2021-03-27T13:01:19Z</time>
      </trkpt>
      <trkpt lat="42.839935" lon="-6.592062">
        <ele>826.19</ele>
        <time>2021-03-27T13:01:21Z</time>
      </trkpt>
      <trkpt lat="42.839787" lon="-6.591856">
        <ele>824.71</ele>
        <time>2021-03-27T13:01:24Z</time>
      </trkpt>
      <trkpt lat="42.839729" lon="-6.591731">
        <ele>823.82</ele>
        <time>2021-03-27T13:01:26Z</time>
      </trkpt>
      <trkpt lat="42.839712" lon="-6.591641">
        <ele>823.94</ele>
        <time>2021-03-27T13:01:28Z</time>
      </trkpt>
      <trkpt lat="42.83973" lon="-6.591545">
        <ele>824.78</ele>
        <time>2021-03-27T13:01:31Z</time>
      </trkpt>
      <trkpt lat="42.839906" lon="-6.591286">
        <ele>830.68</ele>
        <time>2021-03-27T13:01:33Z</time>
      </trkpt>
      <trkpt lat="42.840074" lon="-6.590963">
        <ele>831.29</ele>
        <time>2021-03-27T13:01:36Z</time>
      </trkpt>
      <trkpt lat="42.840173" lon="-6.59082">
        <ele>832.48</ele>
        <time>2021-03-27T13:01:38Z</time>
      </trkpt>
      <trkpt lat="42.840529" lon="-6.590455">
        <ele>844.16</ele>
        <time>2021-03-27T13:01:40Z</time>
      </trkpt>
      <trkpt lat="42.840576" lon="-6.590372">
        <ele>844.18</ele>
        <time>2021-03-27T13:01:43Z</time>
      </trkpt>
      <trkpt lat="42.84062" lon="-6.590214">
        <ele>842.4</ele>
        <time>2021-03-27T13:01:45Z</time>
      </trkpt>
      <trkpt lat="42.840721" lon="-6.589966">
        <ele>842.38</ele>
        <time>2021-03-27T13:01:47Z</time>
      </trkpt>
      <trkpt lat="42.840849" lon="-6.589854">
        <ele>847.12</ele>
        <time>2021-03-27T13:01:50Z</time>
      </trkpt>
      <trkpt lat="42.840897" lon="-6.58978">
        <ele>848.78</ele>
        <time>2021-03-27T13:01:52Z</time>
      </trkpt>
      <trkpt lat="42.840945" lon="-6.589638">
        <ele>849.94</ele>
        <time>2021-03-27T13:01:55Z</time>
      </trkpt>
      <trkpt lat="42.840976" lon="-6.589481">
        <ele>850.36</ele>
        <time>2021-03-27T13:01:57Z</time>
      </trkpt>
      <trkpt lat="42.840984" lon="-6.589187">
        <ele>849.16</ele>
        <time>2021-03-27T13:01:59Z</time>
      </trkpt>
      <trkpt lat="42.841001" lon="-6.589056">
        <ele>849.21</ele>
        <time>2021-03-27T13:02:02Z</time>
      </trkpt>
      <trkpt lat="42.841047" lon="-6.588909">
        <ele>850.36</ele>
        <time>2021-03-27T13:02:04Z</time>
      </trkpt>
      <trkpt lat="42.841143" lon="-6.588697">
        <ele>853.87</ele>
        <time>2021-03-27T13:02:06Z</time>
      </trkpt>
      <trkpt lat="42.841487" lon="-6.588123">
        <ele>857.66</ele>
        <time>2021-03-27T13:02:09Z</time>
      </trkpt>
      <trkpt lat="42.841587" lon="-6.587913">
        <ele>857.28</ele>
        <time>2021-03-27T13:02:11Z</time>
      </trkpt>
      <trkpt lat="42.841789" lon="-6.587331">
        <ele>859.35</ele>
        <time>2021-03-27T13:02:14Z</time>
      </trkpt>
      <trkpt lat="42.841852" lon="-6.587192">
        <ele>860.49</ele>
        <time>2021-03-27T13:02:16Z</time>
      </trkpt>
      <trkpt lat="42.841931" lon="-6.587102">
        <ele>861.05</ele>
        <time>2021-03-27T13:02:18Z</time>
      </trkpt>
      <trkpt lat="42.842259" lon="-6.586982">
        <ele>867.69</ele>
        <time>2021-03-27T13:02:21Z</time>
      </trkpt>
      <trkpt lat="42.842313" lon="-6.586899">
        <ele>868.45</ele>
        <time>2021-03-27T13:02:23Z</time>
      </trkpt>
      <trkpt lat="42.842511" lon="-6.58638">
        <ele>866.13</ele>
        <time>2021-03-27T13:02:25Z</time>
      </trkpt>
      <trkpt lat="42.842701" lon="-6.58608">
        <ele>864.79</ele>
        <time>2021-03-27T13:02:28Z</time>
      </trkpt>
      <trkpt lat="42.842915" lon="-6.585877">
        <ele>868.44</ele>
        <time>2021-03-27T13:02:30Z</time>
      </trkpt>
      <trkpt lat="42.84312" lon="-6.585768">
        <ele>875.72</ele>
        <time>2021-03-27T13:02:33Z</time>
      </trkpt>
      <trkpt lat="42.843169" lon="-6.585679">
        <ele>876.72</ele>
        <time>2021-03-27T13:02:35Z</time>
      </trkpt>
      <trkpt lat="42.843182" lon="-6.585568">
        <ele>876.06</ele>
        <time>2021-03-27T13:02:37Z</time>
      </trkpt>
      <trkpt lat="42.84317" lon="-6.58491">
        <ele>873.87</ele>
        <time>2021-03-27T13:02:40Z</time>
      </trkpt>
      <trkpt lat="42.843184" lon="-6.584666">
        <ele>874.08</ele>
        <time>2021-03-27T13:02:42Z</time>
      </trkpt>
      <trkpt lat="42.843215" lon="-6.584424">
        <ele>874.49</ele>
        <time>2021-03-27T13:02:44Z</time>
      </trkpt>
      <trkpt lat="42.84332" lon="-6.583938">
        <ele>878.41</ele>
        <time>2021-03-27T13:02:47Z</time>
      </trkpt>
      <trkpt lat="42.843219" lon="-6.58351">
        <ele>875.51</ele>
        <time>2021-03-27T13:02:49Z</time>
      </trkpt>
      <trkpt lat="42.843184" lon="-6.583273">
        <ele>874.96</ele>
        <time>2021-03-27T13:02:52Z</time>
      </trkpt>
      <trkpt lat="42.843158" lon="-6.582918">
        <ele>876.44</ele>
        <time>2021-03-27T13:02:54Z</time>
      </trkpt>
      <trkpt lat="42.843155" lon="-6.582187">
        <ele>876.61</ele>
        <time>2021-03-27T13:02:56Z</time>
      </trkpt>
      <trkpt lat="42.843176" lon="-6.581962">
        <ele>875.59</ele>
        <time>2021-03-27T13:02:59Z</time>
      </trkpt>
      <trkpt lat="42.843208" lon="-6.581851">
        <ele>875.08</ele>
        <time>2021-03-27T13:03:01Z</time>
      </trkpt>
      <trkpt lat="42.843343" lon="-6.581599">
        <ele>876.82</ele>
        <time>2021-03-27T13:03:04Z</time>
      </trkpt>
      <trkpt lat="42.843468" lon="-6.581438">
        <ele>879.32</ele>
        <time>2021-03-27T13:03:06Z</time>
      </trkpt>
      <trkpt lat="42.843504" lon="-6.581326">
        <ele>879.46</ele>
        <time>2021-03-27T13:03:08Z</time>
      </trkpt>
      <trkpt lat="42.843492" lon="-6.581242">
        <ele>878.51</ele>
        <time>2021-03-27T13:03:11Z</time>
      </trkpt>
      <trkpt lat="42.843449" lon="-6.581148">
        <ele>876.6</ele>
        <time>2021-03-27T13:03:13Z</time>
      </trkpt>
      <trkpt lat="42.843264" lon="-6.580874">
        <ele>870.0</ele>
        <time>2021-03-27T13:03:15Z</time>
      </trkpt>
      <trkpt lat="42.843201" lon="-6.580699">
        <ele>868.21</ele>
        <time>2021-03-27T13:03:18Z</time>
      </trkpt>
      <trkpt lat="42.843168" lon="-6.580492">
        <ele>867.14</ele>
        <time>2021-03-27T13:03:20Z</time>
      </trkpt>
      <trkpt lat="42.843166" lon="-6.58026">
        <ele>867.41</ele>
        <time>2021-03-27T13:03:23Z</time>
      </trkpt>
      <trkpt lat="42.843185" lon="-6.580073">
        <ele>868.52</ele>
        <time>2021-03-27T13:03:25Z</time>
      </trkpt>
      <trkpt lat="42.843269" lon="-6.579809">
        <ele>873.74</ele>
        <time>2021-03-27T13:03:27Z</time>
      </trkpt>
      <trkpt lat="42.843288" lon="-6.579675">
        <ele>875.85</ele>
        <time>2021-03-27T13:03:30Z</time>
      </trkpt>
      <trkpt lat="42.843275" lon="-6.579582">
        <ele>876.31</ele>
        <time>2021-03-27T13:03:32Z</time>
      </trkpt>
      <trkpt lat="42.843233" lon="-6.579494">
        <ele>875.56</ele>
        <time>2021-03-27T13:03:34Z</time>
      </trkpt>
      <trkpt lat="42.84311" lon="-6.579328">
        <ele>871.99</ele>
        <time>2021-03-27T13:03:37Z</time>
      </trkpt>
      <trkpt lat="42.842804" lon="-6.578722">
        <ele>877.16</ele>
        <time>2021-03-27T13:03:39Z</time>
      </trkpt>
      <trkpt lat="42.842617" lon="-6.578436">
        <ele>879.31</ele>
        <time>2021-03-27T13:03:42Z</time>
      </trkpt>
      <trkpt lat="42.842526" lon="-6.578266">
        <ele>878.84</ele>
        <time>2021-03-27T13:03:44Z</time>
      </trkpt>
      <trkpt lat="42.842469" lon="-6.578105">
        <ele>876.2</ele>
        <time>2021-03-27T13:03:46Z</time>
      </trkpt>
      <trkpt lat="42.84245" lon="-6.57792">
        <ele>873.02</ele>
        <time>2021-03-27T13:03:49Z</time>
      </trkpt>
      <trkpt lat="42.842459" lon="-6.57779">
        <ele>871.17</ele>
        <time>2021-03-27T13:03:51Z</time>
      </trkpt>
      <trkpt lat="42.84257" lon="-6.577309">
        <ele>869.58</ele>
        <time>2021-03-27T13:03:53Z</time>
      </trkpt>
      <trkpt lat="42.842603" lon="-6.576989">
        <ele>869.8</ele>
        <time>2021-03-27T13:03:56Z</time>
      </trkpt>
      <trkpt lat="42.842641" lon="-6.576866">
        <ele>870.8</ele>
        <time>2021-03-27T13:03:58Z</time>
      </trkpt>
      <trkpt lat="42.842705" lon="-6.57677">
        <ele>873.05</ele>
        <time>2021-03-27T13:04:01Z</time>
      </trkpt>
      <trkpt lat="42.842875" lon="-6.57663">
        <ele>879.06</ele>
        <time>2021-03-27T13:04:03Z</time>
      </trkpt>
      <trkpt lat="42.842909" lon="-6.576522">
        <ele>880.6</ele>
        <time>2021-03-27T13:04:05Z</time>
      </trkpt>
      <trkpt lat="42.842892" lon="-6.576424">
        <ele>880.83</ele>
        <time>2021-03-27T13:04:08Z</time>
      </trkpt>
      <trkpt lat="42.842681" lon="-6.576113">
        <ele>879.19</ele>
        <time>2021-03-27T13:04:10Z</time>
      </trkpt>
      <trkpt lat="42.842599" lon="-6.575959">
        <ele>878.3</ele>
        <time>2021-03-27T13:04:12Z</time>
      </trkpt>
      <trkpt lat="42.842566" lon="-6.575847">
        <ele>878.53</ele>
        <time>2021-03-27T13:04:15Z</time>
      </trkpt>
      <trkpt lat="42.842542" lon="-6.575692">
        <ele>877.9</ele>
        <time>2021-03-27T13:04:17Z</time>
      </trkpt>
      <trkpt lat="42.842548" lon="-6.575474">
        <ele>877.52</ele>
        <time>2021-03-27T13:04:20Z</time>
      </trkpt>
      <trkpt lat="42.842515" lon="-6.575037">
        <ele>877.03</ele>
        <time>2021-03-27T13:04:22Z</time>
      </trkpt>
      <trkpt lat="42.842527" lon="-6.5747">
        <ele>878.47</ele>
        <time>2021-03-27T13:04:24Z</time>
      </trkpt>
      <trkpt lat="42.842459" lon="-6.574326">
        <ele>878.52</ele>
        <time>2021-03-27T13:04:27Z</time>
      </trkpt>
      <trkpt lat="42.842368" lon="-6.573932">
        <ele>878.37</ele>
        <time>2021-03-27T13:04:29Z</time>
      </trkpt>
      <trkpt lat="42.84221" lon="-6.573358">
        <ele>883.38</ele>
        <time>2021-03-27T13:04:32Z</time>
      </trkpt>
      <trkpt lat="42.842195" lon="-6.573234">
        <ele>883.84</ele>
        <time>2021-03-27T13:04:34Z</time>
      </trkpt>
      <trkpt lat="42.842215" lon="-6.572751">
        <ele>883.92</ele>
        <time>2021-03-27T13:04:36Z</time>
      </trkpt>
      <trkpt lat="42.842258" lon="-6.572387">
        <ele>883.98</ele>
        <time>2021-03-27T13:04:39Z</time>
      </trkpt>
      <trkpt lat="42.842311" lon="-6.57215">
        <ele>883.44</ele>
        <time>2021-03-27T13:04:41Z</time>
      </trkpt>
      <trkpt lat="42.842389" lon="-6.571912">
        <ele>882.5</ele>
        <time>2021-03-27T13:04:43Z</time>
      </trkpt>
      <trkpt lat="42.842453" lon="-6.57178">
        <ele>881.81</ele>
        <time>2021-03-27T13:04:46Z</time>
      </trkpt>
      <trkpt lat="42.842529" lon="-6.571749">
        <ele>882.23</ele>
        <time>2021-03-27T13:04:48Z</time>
      </trkpt>
      <trkpt lat="42.842578" lon="-6.571693">
        <ele>882.15</ele>
        <time>2021-03-27T13:04:51Z</time>
      </trkpt>
      <trkpt lat="42.84285" lon="-6.57101">
        <ele>878.64</ele>
        <time>2021-03-27T13:04:53Z</time>
      </trkpt>
      <trkpt lat="42.842875" lon="-6.570815">
        <ele>877.31</ele>
        <time>2021-03-27T13:04:55Z</time>
      </trkpt>
      <trkpt lat="42.842872" lon="-6.570661">
        <ele>876.53</ele>
        <time>2021-03-27T13:04:58Z</time>
      </trkpt>
      <trkpt lat="42.842849" lon="-6.570566">
        <ele>876.09</ele>
        <time>2021-03-27T13:05:00Z</time>
      </trkpt>
      <trkpt lat="42.842796" lon="-6.570486">
        <ele>875.66</ele>
        <time>2021-03-27T13:05:02Z</time>
      </trkpt>
      <trkpt lat="42.842715" lon="-6.570478">
        <ele>875.11</ele>
        <time>2021-03-27T13:05:05Z</time>
      </trkpt>
      <trkpt lat="42.842524" lon="-6.570519">
        <ele>873.43</ele>
        <time>2021-03-27T13:05:07Z</time>
      </trkpt>
      <trkpt lat="42.842419" lon="-6.570512">
        <ele>872.98</ele>
        <time>2021-03-27T13:05:10Z</time>
      </trkpt>
      <trkpt lat="42.842322" lon="-6.570478">
        <ele>872.74</ele>
        <time>2021-03-27T13:05:12Z</time>
      </trkpt>
      <trkpt lat="42.842227" lon="-6.570409">
        <ele>872.55</ele>
        <time>2021-03-27T13:05:14Z</time>
      </trkpt>
      <trkpt lat="42.842159" lon="-6.570296">
        <ele>872.27</ele>
        <time>2021-03-27T13:05:17Z</time>
      </trkpt>
      <trkpt lat="42.84209" lon="-6.569853">
        <ele>875.15</ele>
        <time>2021-03-27T13:05:19Z</time>
      </trkpt>
      <trkpt lat="42.842024" lon="-6.569543">
        <ele>876.62</ele>
        <time>2021-03-27T13:05:21Z</time>
      </trkpt>
      <trkpt lat="42.842004" lon="-6.569314">
        <ele>878.01</ele>
        <time>2021-03-27T13:05:24Z</time>
      </trkpt>
      <trkpt lat="42.842003" lon="-6.569105">
        <ele>879.5</ele>
        <time>2021-03-27T13:05:26Z</time>
      </trkpt>
      <trkpt lat="42.841985" lon="-6.568978">
        <ele>880.09</ele>
        <time>2021-03-27T13:05:29Z</time>
      </trkpt>
      <trkpt lat="42.841842" lon="-6.568426">
        <ele>881.98</ele>
        <time>2021-03-27T13:05:31Z</time>
      </trkpt>
      <trkpt lat="42.84174" lon="-6.568099">
        <ele>881.95</ele>
        <time>2021-03-27T13:05:33Z</time>
      </trkpt>
      <trkpt lat="42.840757" lon="-6.56519">
        <ele>888.66</ele>
        <time>2021-03-27T13:05:36Z</time>
      </trkpt>
      <trkpt lat="42.840424" lon="-6.563925">
        <ele>887.83</ele>
        <time>2021-03-27T13:05:38Z</time>
      </trkpt>
      <trkpt lat="42.840221" lon="-6.563331">
        <ele>888.59</ele>
        <time>2021-03-27T13:05:40Z</time>
      </trkpt>
      <trkpt lat="42.839998" lon="-6.562461">
        <ele>891.51</ele>
        <time>2021-03-27T13:05:43Z</time>
      </trkpt>
      <trkpt lat="42.839889" lon="-6.561903">
        <ele>892.59</ele>
        <time>2021-03-27T13:05:45Z</time>
      </trkpt>
      <trkpt lat="42.839808" lon="-6.560747">
        <ele>892.07</ele>
        <time>2021-03-27T13:05:48Z</time>
      </trkpt>
      <trkpt lat="42.839772" lon="-6.560537">
        <ele>891.97</ele>
        <time>2021-03-27T13:05:50Z</time>
      </trkpt>
      <trkpt lat="42.839561" lon="-6.559975">
        <ele>892.26</ele>
        <time>2021-03-27T13:05:52Z</time>
      </trkpt>
      <trkpt lat="42.839509" lon="-6.5598">
        <ele>891.7</ele>
        <time>2021-03-27T13:05:55Z</time>
      </trkpt>
      <trkpt lat="42.839483" lon="-6.559585">
        <ele>891.48</ele>
        <time>2021-03-27T13:05:57Z</time>
      </trkpt>
      <trkpt lat="42.839486" lon="-6.559328">
        <ele>892.08</ele>
        <time>2021-03-27T13:05:59Z</time>
      </trkpt>
      <trkpt lat="42.839549" lon="-6.55866">
        <ele>896.36</ele>
        <time>2021-03-27T13:06:02Z</time>
      </trkpt>
      <trkpt lat="42.839543" lon="-6.558358">
        <ele>895.08</ele>
        <time>2021-03-27T13:06:04Z</time>
      </trkpt>
      <trkpt lat="42.839509" lon="-6.558079">
        <ele>895.36</ele>
        <time>2021-03-27T13:06:07Z</time>
      </trkpt>
      <trkpt lat="42.83943" lon="-6.557785">
        <ele>894.64</ele>
        <time>2021-03-27T13:06:09Z</time>
      </trkpt>
      <trkpt lat="42.839345" lon="-6.557619">
        <ele>893.38</ele>
        <time>2021-03-27T13:06:11Z</time>
      </trkpt>
      <trkpt lat="42.839215" lon="-6.557448">
        <ele>889.91</ele>
        <time>2021-03-27T13:06:14Z</time>
      </trkpt>
      <trkpt lat="42.838692" lon="-6.556853">
        <ele>897.66</ele>
        <time>2021-03-27T13:06:16Z</time>
      </trkpt>
      <trkpt lat="42.838537" lon="-6.556725">
        <ele>898.52</ele>
        <time>2021-03-27T13:06:19Z</time>
      </trkpt>
      <trkpt lat="42.837512" lon="-6.556076">
        <ele>899.16</ele>
        <time>2021-03-27T13:06:21Z</time>
      </trkpt>
      <trkpt lat="42.837281" lon="-6.555814">
        <ele>899.47</ele>
        <time>2021-03-27T13:06:23Z</time>
      </trkpt>
      <trkpt lat="42.83713" lon="-6.555587">
        <ele>901.62</ele>
        <time>2021-03-27T13:06:26Z</time>
      </trkpt>
      <trkpt lat="42.836999" lon="-6.555287">
        <ele>903.3</ele>
        <time>2021-03-27T13:06:28Z</time>
      </trkpt>
      <trkpt lat="42.836841" lon="-6.554862">
        <ele>905.31</ele>
        <time>2021-03-27T13:06:30Z</time>
      </trkpt>
      <trkpt lat="42.836707" lon="-6.554448">
        <ele>906.0</ele>
        <time>2021-03-27T13:06:33Z</time>
      </trkpt>
      <trkpt lat="42.836658" lon="-6.55425">
        <ele>905.88</ele>
        <time>2021-03-27T13:06:35Z</time>
      </trkpt>
      <trkpt lat="42.836636" lon="-6.554085">
        <ele>904.97</ele>
        <time>2021-03-27T13:06:38Z</time>
      </trkpt>
      <trkpt lat="42.836598" lon="-6.553128">
        <ele>900.27</ele>
        <time>2021-03-27T13:06:40Z</time>
      </trkpt>
      <trkpt lat="42.836552" lon="-6.552866">
        <ele>899.63</ele>
        <time>2021-03-27T13:06:42Z</time>
      </trkpt>
      <trkpt lat="42.83632" lon="-6.552051">
        <ele>902.12</ele>
        <time>2021-03-27T13:06:45Z</time>
      </trkpt>
      <trkpt lat="42.836267" lon="-6.551668">
        <ele>903.12</ele>
        <time>2021-03-27T13:06:47Z</time>
      </trkpt>
      <trkpt lat="42.836274" lon="-6.551407">
        <ele>903.17</ele>
        <time>2021-03-27T13:06:49Z</time>
      </trkpt>
      <trkpt lat="42.836304" lon="-6.551199">
        <ele>903.39</ele>
        <time>2021-03-27T13:06:52Z</time>
      </trkpt>
      <trkpt lat="42.836367" lon="-6.550945">
        <ele>904.44</ele>
        <time>2021-03-27T13:06:54Z</time>
      </trkpt>
      <trkpt lat="42.836487" lon="-6.550612">
        <ele>907.8</ele>
        <time>2021-03-27T13:06:57Z</time>
      </trkpt>
      <trkpt lat="42.837016" lon="-6.549331">
        <ele>908.92</ele>
        <time>2021-03-27T13:06:59Z</time>
      </trkpt>
      <trkpt lat="42.837127" lon="-6.548985">
        <ele>909.97</ele>
        <time>2021-03-27T13:07:01Z</time>
      </trkpt>
      <trkpt lat="42.837185" lon="-6.548736">
        <ele>910.52</ele>
        <time>2021-03-27T13:07:04Z</time>
      </trkpt>
      <trkpt lat="42.837211" lon="-6.548519">
        <ele>909.88</ele>
        <time>2021-03-27T13:07:06Z</time>
      </trkpt>
      <trkpt lat="42.837161" lon="-6.547772">
        <ele>908.08</ele>
        <time>2021-03-27T13:07:08Z</time>
      </trkpt>
      <trkpt lat="42.837187" lon="-6.546777">
        <ele>916.74</ele>
        <time>2021-03-27T13:07:11Z</time>
      </trkpt>
      <trkpt lat="42.837148" lon="-6.545252">
        <ele>921.12</ele>
        <time>2021-03-27T13:07:13Z</time>
      </trkpt>
      <trkpt lat="42.837127" lon="-6.544931">
        <ele>922.59</ele>
        <time>2021-03-27T13:07:16Z</time>
      </trkpt>
      <trkpt lat="42.837051" lon="-6.544971">
        <ele>922.72</ele>
        <time>2021-03-27T13:07:19Z</time>
      </trkpt>
      <trkpt lat="42.836862" lon="-6.545012">
        <ele>922.59</ele>
        <time>2021-03-27T13:07:23Z</time>
      </trkpt>
      <trkpt lat="42.836631" lon="-6.544979">
        <ele>921.5</ele>
        <time>2021-03-27T13:07:27Z</time>
      </trkpt>
      <trkpt lat="42.83623" lon="-6.544871">
        <ele>917.48</ele>
        <time>2021-03-27T13:07:31Z</time>
      </trkpt>
      <trkpt lat="42.835686" lon="-6.544582">
        <ele>914.38</ele>
        <time>2021-03-27T13:07:35Z</time>
      </trkpt>
      <trkpt lat="42.835545" lon="-6.544538">
        <ele>912.55</ele>
        <time>2021-03-27T13:07:39Z</time>
      </trkpt>
      <trkpt lat="42.834861" lon="-6.544461">
        <ele>910.35</ele>
        <time>2021-03-27T13:07:42Z</time>
      </trkpt>
      <trkpt lat="42.834491" lon="-6.544335">
        <ele>908.4</ele>
        <time>2021-03-27T13:07:46Z</time>
      </trkpt>
      <trkpt lat="42.834269" lon="-6.544197">
        <ele>908.56</ele>
        <time>2021-03-27T13:07:50Z</time>
      </trkpt>
      <trkpt lat="42.83411" lon="-6.544037">
        <ele>909.77</ele>
        <time>2021-03-27T13:07:54Z</time>
      </trkpt>
      <trkpt lat="42.83399" lon="-6.543856">
        <ele>911.27</ele>
        <time>2021-03-27T13:07:58Z</time>
      </trkpt>
      <trkpt lat="42.83374" lon="-6.543306">
        <ele>913.1</ele>
        <time>2021-03-27T13:08:02Z</time>
      </trkpt>
      <trkpt lat="42.833642" lon="-6.543166">
        <ele>914.07</ele>
        <time>2021-03-27T13:08:05Z</time>
      </trkpt>
      <trkpt lat="42.833433" lon="-6.543008">
        <ele>916.03</ele>
        <time>2021-03-27T13:08:09Z</time>
      </trkpt>
      <trkpt lat="42.83271" lon="-6.542716">
        <ele>920.38</ele>
        <time>2021-03-27T13:08:13Z</time>
      </trkpt>
      <trkpt lat="42.832483" lon="-6.542596">
        <ele>923.48</ele>
        <time>2021-03-27T13:08:17Z</time>
      </trkpt>
      <trkpt lat="42.831871" lon="-6.542133">
        <ele>924.93</ele>
        <time>2021-03-27T13:08:21Z</time>
      </trkpt>
      <trkpt lat="42.831543" lon="-6.541943">
        <ele>925.57</ele>
        <time>2021-03-27T13:08:24Z</time>
      </trkpt>
      <trkpt lat="42.83124" lon="-6.54171">
        <ele>926.52</ele>
        <time>2021-03-27T13:08:28Z</time>
      </trkpt>
      <trkpt lat="42.830984" lon="-6.541549">
        <ele>926.51</ele>
        <time>2021-03-27T13:08:32Z</time>
      </trkpt>
      <trkpt lat="42.830835" lon="-6.541498">
        <ele>925.62</ele>
        <time>2021-03-27T13:08:36Z</time>
      </trkpt>
      <trkpt lat="42.830032" lon="-6.541338">
        <ele>929.23</ele>
        <time>2021-03-27T13:08:40Z</time>
      </trkpt>
      <trkpt lat="42.829873" lon="-6.541266">
        <ele>930.14</ele>
        <time>2021-03-27T13:08:44Z</time>
      </trkpt>
      <trkpt lat="42.829743" lon="-6.541173">
        <ele>930.76</ele>
        <time>2021-03-27T13:08:47Z</time>
      </trkpt>
      <trkpt lat="42.829479" lon="-6.540871">
        <ele>933.17</ele>
        <time>2021-03-27T13:08:51Z</time>
      </trkpt>
      <trkpt lat="42.82935" lon="-6.540743">
        <ele>935.08</ele>
        <time>2021-03-27T13:08:55Z</time>
      </trkpt>
      <trkpt lat="42.829242" lon="-6.540666">
        <ele>936.59</ele>
        <time>2021-03-27T13:08:59Z</time>
      </trkpt>
      <trkpt lat="42.828623" lon="-6.54055">
        <ele>940.96</ele>
        <time>2021-03-27T13:09:03Z</time>
      </trkpt>
      <trkpt lat="42.828407" lon="-6.540477">
        <ele>941.94</ele>
        <time>2021-03-27T13:09:07Z</time>
      </trkpt>
      <trkpt lat="42.827502" lon="-6.540006">
        <ele>940.03</ele>
        <time>2021-03-27T13:09:10Z</time>
      </trkpt>
      <trkpt lat="42.827111" lon="-6.539751">
        <ele>944.7</ele>
        <time>2021-03-27T13:09:14Z</time>
      </trkpt>
      <trkpt lat="42.826782" lon="-6.53966">
        <ele>947.49</ele>
        <time>2021-03-27T13:09:18Z</time>
      </trkpt>
      <trkpt lat="42.826595" lon="-6.539558">
        <ele>949.11</ele>
        <time>2021-03-27T13:09:22Z</time>
      </trkpt>
      <trkpt lat="42.826486" lon="-6.539475">
        <ele>950.19</ele>
        <time>2021-03-27T13:09:26Z</time>
      </trkpt>
      <trkpt lat="42.825933" lon="-6.5389">
        <ele>954.95</ele>
        <time>2021-03-27T13:09:29Z</time>
      </trkpt>
      <trkpt lat="42.825662" lon="-6.538671">
        <ele>955.13</ele>
        <time>2021-03-27T13:09:33Z</time>
      </trkpt>
      <trkpt lat="42.825385" lon="-6.53848">
        <ele>958.07</ele>
        <time>2021-03-27T13:09:37Z</time>
      </trkpt>
      <trkpt lat="42.824283" lon="-6.537062">
        <ele>966.05</ele>
        <time>2021-03-27T13:09:41Z</time>
      </trkpt>
      <trkpt lat="42.824094" lon="-6.536859">
        <ele>969.49</ele>
        <time>2021-03-27T13:09:45Z</time>
      </trkpt>
      <trkpt lat="42.823961" lon="-6.536751">
        <ele>969.92</ele>
        <time>2021-03-27T13:09:49Z</time>
      </trkpt>
      <trkpt lat="42.823518" lon="-6.536454">
        <ele>970.02</ele>
        <time>2021-03-27T13:09:52Z</time>
      </trkpt>
      <trkpt lat="42.82295" lon="-6.535981">
        <ele>970.91</ele>
        <time>2021-03-27T13:09:56Z</time>
      </trkpt>
      <trkpt lat="42.822224" lon="-6.535154">
        <ele>971.99</ele>
        <time>2021-03-27T13:10:00Z</time>
      </trkpt>
      <trkpt lat="42.819794" lon="-6.532189">
        <ele>975.5</ele>
        <time>2021-03-27T13:10:04Z</time>
      </trkpt>
      <trkpt lat="42.819558" lon="-6.532054">
        <ele>975.15</ele>
        <time>2021-03-27T13:10:08Z</time>
      </trkpt>
      <trkpt lat="42.819008" lon="-6.5319">
        <ele>974.88</ele>
        <time>2021-03-27T13:10:12Z</time>
      </trkpt>
      <trkpt lat="42.818548" lon="-6.531801">
        <ele>972.63</ele>
        <time>2021-03-27T13:10:15Z</time>
      </trkpt>
      <trkpt lat="42.818401" lon="-6.53182">
        <ele>972.86</ele>
        <time>2021-03-27T13:10:19Z</time>
      </trkpt>
      <trkpt lat="42.81832" lon="-6.531779">
        <ele>973.07</ele>
        <time>2021-03-27T13:10:21Z</time>
      </trkpt>
      <trkpt lat="42.818301" lon="-6.531739">
        <ele>973.15</ele>
        <time>2021-03-27T13:10:23Z</time>
      </trkpt>
      <trkpt lat="42.818302" lon="-6.531422">
        <ele>973.79</ele>
        <time>2021-03-27T13:10:25Z</time>
      </trkpt>
      <trkpt lat="42.81825" lon="-6.531217">
        <ele>974.32</ele>
        <time>2021-03-27T13:10:28Z</time>
      </trkpt>
      <trkpt lat="42.818162" lon="-6.530858">
        <ele>974.39</ele>
        <time>2021-03-27T13:10:30Z</time>
      </trkpt>
      <trkpt lat="42.818028" lon="-6.530536">
        <ele>973.74</ele>
        <time>2021-03-27T13:10:32Z</time>
      </trkpt>
      <trkpt lat="42.81782" lon="-6.530196">
        <ele>971.86</ele>
        <time>2021-03-27T13:10:35Z</time>
      </trkpt>
      <trkpt lat="42.8177" lon="-6.529951">
        <ele>970.16</ele>
        <time>2021-03-27T13:10:37Z</time>
      </trkpt>
      <trkpt lat="42.817632" lon="-6.529719">
        <ele>969.41</ele>
        <time>2021-03-27T13:10:39Z</time>
      </trkpt>
      <trkpt lat="42.817604" lon="-6.529528">
        <ele>968.16</ele>
        <time>2021-03-27T13:10:42Z</time>
      </trkpt>
      <trkpt lat="42.817644" lon="-6.529114">
        <ele>966.36</ele>
        <time>2021-03-27T13:10:44Z</time>
      </trkpt>
      <trkpt lat="42.817831" lon="-6.527951">
        <ele>962.89</ele>
        <time>2021-03-27T13:10:46Z</time>
      </trkpt>
      <trkpt lat="42.817958" lon="-6.526811">
        <ele>958.58</ele>
        <time>2021-03-27T13:10:49Z</time>
      </trkpt>
      <trkpt lat="42.818071" lon="-6.524952">
        <ele>951.32</ele>
        <time>2021-03-27T13:10:51Z</time>
      </trkpt>
      <trkpt lat="42.818076" lon="-6.524719">
        <ele>950.57</ele>
        <time>2021-03-27T13:10:53Z</time>
      </trkpt>
      <trkpt lat="42.818042" lon="-6.524519">
        <ele>948.2</ele>
        <time>2021-03-27T13:10:56Z</time>
      </trkpt>
      <trkpt lat="42.817937" lon="-6.52414">
        <ele>944.64</ele>
        <time>2021-03-27T13:10:58Z</time>
      </trkpt>
      <trkpt lat="42.817921" lon="-6.524025">
        <ele>944.05</ele>
        <time>2021-03-27T13:11:00Z</time>
      </trkpt>
      <trkpt lat="42.817921" lon="-6.523876">
        <ele>943.48</ele>
        <time>2021-03-27T13:11:02Z</time>
      </trkpt>
      <trkpt lat="42.817939" lon="-6.523711">
        <ele>942.62</ele>
        <time>2021-03-27T13:11:05Z</time>
      </trkpt>
      <trkpt lat="42.817982" lon="-6.523523">
        <ele>941.96</ele>
        <time>2021-03-27T13:11:07Z</time>
      </trkpt>
      <trkpt lat="42.818276" lon="-6.52257">
        <ele>941.52</ele>
        <time>2021-03-27T13:11:09Z</time>
      </trkpt>
      <trkpt lat="42.818392" lon="-6.522107">
        <ele>940.35</ele>
        <time>2021-03-27T13:11:12Z</time>
      </trkpt>
      <trkpt lat="42.818521" lon="-6.521443">
        <ele>940.92</ele>
        <time>2021-03-27T13:11:14Z</time>
      </trkpt>
      <trkpt lat="42.818758" lon="-6.519276">
        <ele>931.83</ele>
        <time>2021-03-27T13:11:16Z</time>
      </trkpt>
      <trkpt lat="42.818757" lon="-6.518786">
        <ele>928.39</ele>
        <time>2021-03-27T13:11:19Z</time>
      </trkpt>
      <trkpt lat="42.818719" lon="-6.518312">
        <ele>925.43</ele>
        <time>2021-03-27T13:11:21Z</time>
      </trkpt>
      <trkpt lat="42.818749" lon="-6.51807">
        <ele>924.56</ele>
        <time>2021-03-27T13:11:23Z</time>
      </trkpt>
      <trkpt lat="42.818793" lon="-6.517928">
        <ele>924.04</ele>
        <time>2021-03-27T13:11:26Z</time>
      </trkpt>
      <trkpt lat="42.818883" lon="-6.51776">
        <ele>924.47</ele>
        <time>2021-03-27T13:11:28Z</time>
      </trkpt>
      <trkpt lat="42.819248" lon="-6.51727">
        <ele>921.6</ele>
        <time>2021-03-27T13:11:30Z</time>
      </trkpt>
      <trkpt lat="42.819382" lon="-6.517211">
        <ele>922.56</ele>
        <time>2021-03-27T13:11:33Z</time>
      </trkpt>
      <trkpt lat="42.819476" lon="-6.517216">
        <ele>924.14</ele>
        <time>2021-03-27T13:11:35Z</time>
      </trkpt>
      <trkpt lat="42.819662" lon="-6.517279">
        <ele>928.14</ele>
        <time>2021-03-27T13:11:37Z</time>
      </trkpt>
      <trkpt lat="42.81973" lon="-6.517282">
        <ele>928.99</ele>
        <time>2021-03-27T13:11:39Z</time>
      </trkpt>
      <trkpt lat="42.819883" lon="-6.517226">
        <ele>928.27</ele>
        <time>2021-03-27T13:11:42Z</time>
      </trkpt>
      <trkpt lat="42.819971" lon="-6.517153">
        <ele>925.25</ele>
        <time>2021-03-27T13:11:44Z</time>
      </trkpt>
      <trkpt lat="42.820058" lon="-6.517025">
        <ele>920.55</ele>
        <time>2021-03-27T13:11:46Z</time>
      </trkpt>
      <trkpt lat="42.820251" lon="-6.516674">
        <ele>912.21</ele>
        <time>2021-03-27T13:11:49Z</time>
      </trkpt>
      <trkpt lat="42.820514" lon="-6.51638">
        <ele>911.45</ele>
        <time>2021-03-27T13:11:51Z</time>
      </trkpt>
      <trkpt lat="42.820609" lon="-6.516327">
        <ele>911.66</ele>
        <time>2021-03-27T13:11:53Z</time>
      </trkpt>
      <trkpt lat="42.820893" lon="-6.516223">
        <ele>911.79</ele>
        <time>2021-03-27T13:11:56Z</time>
      </trkpt>
      <trkpt lat="42.821066" lon="-6.516182">
        <ele>910.26</ele>
        <time>2021-03-27T13:11:58Z</time>
      </trkpt>
      <trkpt lat="42.821215" lon="-6.516179">
        <ele>908.89</ele>
        <time>2021-03-27T13:12:00Z</time>
      </trkpt>
      <trkpt lat="42.821369" lon="-6.516212">
        <ele>908.23</ele>
        <time>2021-03-27T13:12:03Z</time>
      </trkpt>
      <trkpt lat="42.821511" lon="-6.51627">
        <ele>905.2</ele>
        <time>2021-03-27T13:12:05Z</time>
      </trkpt>
      <trkpt lat="42.821809" lon="-6.516432">
        <ele>898.86</ele>
        <time>2021-03-27T13:12:07Z</time>
      </trkpt>
      <trkpt lat="42.822029" lon="-6.516619">
        <ele>895.17</ele>
        <time>2021-03-27T13:12:10Z</time>
      </trkpt>
      <trkpt lat="42.822508" lon="-6.517179">
        <ele>890.14</ele>
        <time>2021-03-27T13:12:12Z</time>
      </trkpt>
      <trkpt lat="42.822737" lon="-6.5174">
        <ele>888.11</ele>
        <time>2021-03-27T13:12:14Z</time>
      </trkpt>
      <trkpt lat="42.823298" lon="-6.517864">
        <ele>886.23</ele>
        <time>2021-03-27T13:12:17Z</time>
      </trkpt>
      <trkpt lat="42.823442" lon="-6.517955">
        <ele>885.54</ele>
        <time>2021-03-27T13:12:19Z</time>
      </trkpt>
      <trkpt lat="42.824097" lon="-6.518199">
        <ele>873.65</ele>
        <time>2021-03-27T13:12:21Z</time>
      </trkpt>
      <trkpt lat="42.82437" lon="-6.518325">
        <ele>869.66</ele>
        <time>2021-03-27T13:12:23Z</time>
      </trkpt>
      <trkpt lat="42.824637" lon="-6.518558">
        <ele>871.14</ele>
        <time>2021-03-27T13:12:26Z</time>
      </trkpt>
      <trkpt lat="42.824767" lon="-6.518618">
        <ele>871.14</ele>
        <time>2021-03-27T13:12:28Z</time>
      </trkpt>
      <trkpt lat="42.825235" lon="-6.518748">
        <ele>874.66</ele>
        <time>2021-03-27T13:12:30Z</time>
      </trkpt>
      <trkpt lat="42.825647" lon="-6.518912">
        <ele>878.34</ele>
        <time>2021-03-27T13:12:33Z</time>
      </trkpt>
      <trkpt lat="42.825768" lon="-6.51894">
        <ele>877.68</ele>
        <time>2021-03-27T13:12:35Z</time>
      </trkpt>
      <trkpt lat="42.826088" lon="-6.518906">
        <ele>873.73</ele>
        <time>2021-03-27T13:12:37Z</time>
      </trkpt>
      <trkpt lat="42.826226" lon="-6.518914">
        <ele>873.65</ele>
        <time>2021-03-27T13:12:40Z</time>
      </trkpt>
      <trkpt lat="42.82665" lon="-6.518988">
        <ele>872.99</ele>
        <time>2021-03-27T13:12:42Z</time>
      </trkpt>
      <trkpt lat="42.826905" lon="-6.519063">
        <ele>873.3</ele>
        <time>2021-03-27T13:12:44Z</time>
      </trkpt>
      <trkpt lat="42.827285" lon="-6.519224">
        <ele>876.04</ele>
        <time>2021-03-27T13:12:47Z</time>
      </trkpt>
      <trkpt lat="42.827406" lon="-6.519246">
        <ele>875.86</ele>
        <time>2021-03-27T13:12:49Z</time>
      </trkpt>
      <trkpt lat="42.827488" lon="-6.519237">
        <ele>875.11</ele>
        <time>2021-03-27T13:12:51Z</time>
      </trkpt>
      <trkpt lat="42.827659" lon="-6.518994">
        <ele>868.66</ele>
        <time>2021-03-27T13:12:54Z</time>
      </trkpt>
      <trkpt lat="42.827201" lon="-6.518823">
        <ele>864.22</ele>
        <time>2021-03-27T13:12:55Z</time>
      </trkpt>
      <trkpt lat="42.82699" lon="-6.518723">
        <ele>861.89</ele>
        <time>2021-03-27T13:12:57Z</time>
      </trkpt>
      <trkpt lat="42.824925" lon="-6.517682">
        <ele>846.26</ele>
        <time>2021-03-27T13:12:58Z</time>
      </trkpt>
      <trkpt lat="42.824525" lon="-6.517499">
        <ele>847.81</ele>
        <time>2021-03-27T13:13:00Z</time>
      </trkpt>
      <trkpt lat="42.82426" lon="-6.51733">
        <ele>846.09</ele>
        <time>2021-03-27T13:13:02Z</time>
      </trkpt>
      <trkpt lat="42.823972" lon="-6.516965">
        <ele>839.27</ele>
        <time>2021-03-27T13:13:03Z</time>
      </trkpt>
      <trkpt lat="42.823715" lon="-6.516514">
        <ele>836.07</ele>
        <time>2021-03-27T13:13:05Z</time>
      </trkpt>
      <trkpt lat="42.823434" lon="-6.516068">
        <ele>832.56</ele>
        <time>2021-03-27T13:13:07Z</time>
      </trkpt>
      <trkpt lat="42.823052" lon="-6.515397">
        <ele>817.17</ele>
        <time>2021-03-27T13:13:08Z</time>
      </trkpt>
      <trkpt lat="42.822556" lon="-6.514411">
        <ele>813.76</ele>
        <time>2021-03-27T13:13:10Z</time>
      </trkpt>
      <trkpt lat="42.822436" lon="-6.514238">
        <ele>810.99</ele>
        <time>2021-03-27T13:13:11Z</time>
      </trkpt>
      <trkpt lat="42.822326" lon="-6.514101">
        <ele>808.28</ele>
        <time>2021-03-27T13:13:13Z</time>
      </trkpt>
      <trkpt lat="42.822164" lon="-6.513999">
        <ele>806.51</ele>
        <time>2021-03-27T13:13:15Z</time>
      </trkpt>
      <trkpt lat="42.822016" lon="-6.513945">
        <ele>805.51</ele>
        <time>2021-03-27T13:13:16Z</time>
      </trkpt>
      <trkpt lat="42.821643" lon="-6.51386">
        <ele>805.17</ele>
        <time>2021-03-27T13:13:18Z</time>
      </trkpt>
      <trkpt lat="42.821511" lon="-6.513806">
        <ele>803.61</ele>
        <time>2021-03-27T13:13:20Z</time>
      </trkpt>
      <trkpt lat="42.821412" lon="-6.513725">
        <ele>801.28</ele>
        <time>2021-03-27T13:13:21Z</time>
      </trkpt>
      <trkpt lat="42.82133" lon="-6.513616">
        <ele>798.56</ele>
        <time>2021-03-27T13:13:23Z</time>
      </trkpt>
      <trkpt lat="42.821261" lon="-6.513465">
        <ele>796.33</ele>
        <time>2021-03-27T13:13:25Z</time>
      </trkpt>
      <trkpt lat="42.821203" lon="-6.513276">
        <ele>793.59</ele>
        <time>2021-03-27T13:13:26Z</time>
      </trkpt>
      <trkpt lat="42.821184" lon="-6.513107">
        <ele>792.37</ele>
        <time>2021-03-27T13:13:28Z</time>
      </trkpt>
      <trkpt lat="42.821199" lon="-6.512963">
        <ele>791.33</ele>
        <time>2021-03-27T13:13:29Z</time>
      </trkpt>
      <trkpt lat="42.821241" lon="-6.512817">
        <ele>790.28</ele>
        <time>2021-03-27T13:13:31Z</time>
      </trkpt>
      <trkpt lat="42.8213" lon="-6.512702">
        <ele>790.0</ele>
        <time>2021-03-27T13:13:33Z</time>
      </trkpt>
      <trkpt lat="42.821392" lon="-6.512592">
        <ele>789.98</ele>
        <time>2021-03-27T13:13:34Z</time>
      </trkpt>
      <trkpt lat="42.8217" lon="-6.512342">
        <ele>786.56</ele>
        <time>2021-03-27T13:13:36Z</time>
      </trkpt>
      <trkpt lat="42.821785" lon="-6.512228">
        <ele>784.78</ele>
        <time>2021-03-27T13:13:38Z</time>
      </trkpt>
      <trkpt lat="42.821904" lon="-6.512248">
        <ele>783.7</ele>
        <time>2021-03-27T13:13:42Z</time>
      </trkpt>
      <trkpt lat="42.821966" lon="-6.512313">
        <ele>783.72</ele>
        <time>2021-03-27T13:13:47Z</time>
      </trkpt>
      <trkpt lat="42.822011" lon="-6.512726">
        <ele>787.96</ele>
        <time>2021-03-27T13:13:52Z</time>
      </trkpt>
      <trkpt lat="42.822075" lon="-6.512964">
        <ele>789.4</ele>
        <time>2021-03-27T13:13:57Z</time>
      </trkpt>
      <trkpt lat="42.8223" lon="-6.513487">
        <ele>791.73</ele>
        <time>2021-03-27T13:14:02Z</time>
      </trkpt>
      <trkpt lat="42.822857" lon="-6.514253">
        <ele>804.25</ele>
        <time>2021-03-27T13:14:07Z</time>
      </trkpt>
      <trkpt lat="42.823362" lon="-6.514804">
        <ele>802.38</ele>
        <time>2021-03-27T13:14:12Z</time>
      </trkpt>
      <trkpt lat="42.823665" lon="-6.515107">
        <ele>804.57</ele>
        <time>2021-03-27T13:14:17Z</time>
      </trkpt>
      <trkpt lat="42.82422" lon="-6.515555">
        <ele>805.99</ele>
        <time>2021-03-27T13:14:21Z</time>
      </trkpt>
      <trkpt lat="42.824564" lon="-6.515794">
        <ele>809.43</ele>
        <time>2021-03-27T13:14:26Z</time>
      </trkpt>
      <trkpt lat="42.825005" lon="-6.516057">
        <ele>814.0</ele>
        <time>2021-03-27T13:14:31Z</time>
      </trkpt>
      <trkpt lat="42.825626" lon="-6.516351">
        <ele>813.91</ele>
        <time>2021-03-27T13:14:36Z</time>
      </trkpt>
      <trkpt lat="42.825973" lon="-6.516484">
        <ele>815.05</ele>
        <time>2021-03-27T13:14:41Z</time>
      </trkpt>
      <trkpt lat="42.826479" lon="-6.516609">
        <ele>816.38</ele>
        <time>2021-03-27T13:14:46Z</time>
      </trkpt>
      <trkpt lat="42.826755" lon="-6.516647">
        <ele>816.79</ele>
        <time>2021-03-27T13:14:51Z</time>
      </trkpt>
      <trkpt lat="42.826988" lon="-6.516638">
        <ele>816.97</ele>
        <time>2021-03-27T13:14:56Z</time>
      </trkpt>
      <trkpt lat="42.827134" lon="-6.516611">
        <ele>817.49</ele>
        <time>2021-03-27T13:15:00Z</time>
      </trkpt>
      <trkpt lat="42.827246" lon="-6.516564">
        <ele>817.38</ele>
        <time>2021-03-27T13:15:05Z</time>
      </trkpt>
      <trkpt lat="42.827686" lon="-6.516301">
        <ele>817.1</ele>
        <time>2021-03-27T13:15:10Z</time>
      </trkpt>
      <trkpt lat="42.827822" lon="-6.516164">
        <ele>816.53</ele>
        <time>2021-03-27T13:15:15Z</time>
      </trkpt>
      <trkpt lat="42.828053" lon="-6.515875">
        <ele>814.74</ele>
        <time>2021-03-27T13:15:20Z</time>
      </trkpt>
      <trkpt lat="42.82821" lon="-6.515746">
        <ele>813.92</ele>
        <time>2021-03-27T13:15:25Z</time>
      </trkpt>
      <trkpt lat="42.82851" lon="-6.515584">
        <ele>816.0</ele>
        <time>2021-03-27T13:15:30Z</time>
      </trkpt>
      <trkpt lat="42.828674" lon="-6.515531">
        <ele>818.54</ele>
        <time>2021-03-27T13:15:35Z</time>
      </trkpt>
      <trkpt lat="42.828954" lon="-6.5155">
        <ele>821.67</ele>
        <time>2021-03-27T13:15:39Z</time>
      </trkpt>
      <trkpt lat="42.830059" lon="-6.515528">
        <ele>826.65</ele>
        <time>2021-03-27T13:15:44Z</time>
      </trkpt>
      <trkpt lat="42.830514" lon="-6.515503">
        <ele>829.97</ele>
        <time>2021-03-27T13:15:49Z</time>
      </trkpt>
      <trkpt lat="42.830832" lon="-6.51538">
        <ele>832.28</ele>
        <time>2021-03-27T13:15:54Z</time>
      </trkpt>
      <trkpt lat="42.830966" lon="-6.515305">
        <ele>835.04</ele>
        <time>2021-03-27T13:15:59Z</time>
      </trkpt>
      <trkpt lat="42.831074" lon="-6.515202">
        <ele>836.66</ele>
        <time>2021-03-27T13:16:04Z</time>
      </trkpt>
      <trkpt lat="42.831328" lon="-6.514841">
        <ele>836.23</ele>
        <time>2021-03-27T13:16:09Z</time>
      </trkpt>
      <trkpt lat="42.831447" lon="-6.514609">
        <ele>834.41</ele>
        <time>2021-03-27T13:16:14Z</time>
      </trkpt>
      <trkpt lat="42.831545" lon="-6.514342">
        <ele>833.11</ele>
        <time>2021-03-27T13:16:18Z</time>
      </trkpt>
      <trkpt lat="42.831624" lon="-6.514022">
        <ele>831.56</ele>
        <time>2021-03-27T13:16:23Z</time>
      </trkpt>
      <trkpt lat="42.831651" lon="-6.513719">
        <ele>828.0</ele>
        <time>2021-03-27T13:16:28Z</time>
      </trkpt>
      <trkpt lat="42.83167" lon="-6.511601">
        <ele>821.11</ele>
        <time>2021-03-27T13:16:33Z</time>
      </trkpt>
      <trkpt lat="42.831697" lon="-6.5112">
        <ele>821.83</ele>
        <time>2021-03-27T13:16:38Z</time>
      </trkpt>
      <trkpt lat="42.831782" lon="-6.510755">
        <ele>822.42</ele>
        <time>2021-03-27T13:16:43Z</time>
      </trkpt>
      <trkpt lat="42.831859" lon="-6.510585">
        <ele>822.53</ele>
        <time>2021-03-27T13:16:48Z</time>
      </trkpt>
      <trkpt lat="42.832027" lon="-6.510328">
        <ele>823.12</ele>
        <time>2021-03-27T13:16:52Z</time>
      </trkpt>
      <trkpt lat="42.832174" lon="-6.510194">
        <ele>824.58</ele>
        <time>2021-03-27T13:16:57Z</time>
      </trkpt>
      <trkpt lat="42.83231" lon="-6.510125">
        <ele>825.77</ele>
        <time>2021-03-27T13:17:02Z</time>
      </trkpt>
      <trkpt lat="42.832475" lon="-6.510075">
        <ele>827.07</ele>
        <time>2021-03-27T13:17:07Z</time>
      </trkpt>
      <trkpt lat="42.833291" lon="-6.509985">
        <ele>827.06</ele>
        <time>2021-03-27T13:17:12Z</time>
      </trkpt>
      <trkpt lat="42.833504" lon="-6.510014">
        <ele>827.48</ele>
        <time>2021-03-27T13:17:17Z</time>
      </trkpt>
      <trkpt lat="42.833701" lon="-6.510069">
        <ele>827.34</ele>
        <time>2021-03-27T13:17:22Z</time>
      </trkpt>
      <trkpt lat="42.833936" lon="-6.510172">
        <ele>827.33</ele>
        <time>2021-03-27T13:17:27Z</time>
      </trkpt>
      <trkpt lat="42.835336" lon="-6.510892">
        <ele>835.37</ele>
        <time>2021-03-27T13:17:31Z</time>
      </trkpt>
      <trkpt lat="42.836584" lon="-6.511559">
        <ele>840.41</ele>
        <time>2021-03-27T13:17:36Z</time>
      </trkpt>
      <trkpt lat="42.838108" lon="-6.512416">
        <ele>853.95</ele>
        <time>2021-03-27T13:17:41Z</time>
      </trkpt>
      <trkpt lat="42.838855" lon="-6.512908">
        <ele>857.05</ele>
        <time>2021-03-27T13:17:46Z</time>
      </trkpt>
      <trkpt lat="42.83899" lon="-6.512979">
        <ele>856.2</ele>
        <time>2021-03-27T13:17:51Z</time>
      </trkpt>
      <trkpt lat="42.839126" lon="-6.513036">
        <ele>856.07</ele>
        <time>2021-03-27T13:17:56Z</time>
      </trkpt>
      <trkpt lat="42.840456" lon="-6.513177">
        <ele>864.22</ele>
        <time>2021-03-27T13:18:01Z</time>
      </trkpt>
      <trkpt lat="42.840686" lon="-6.513256">
        <ele>864.1</ele>
        <time>2021-03-27T13:18:06Z</time>
      </trkpt>
      <trkpt lat="42.840939" lon="-6.51345">
        <ele>862.66</ele>
        <time>2021-03-27T13:18:10Z</time>
      </trkpt>
      <trkpt lat="42.84108" lon="-6.513604">
        <ele>862.72</ele>
        <time>2021-03-27T13:18:15Z</time>
      </trkpt>
      <trkpt lat="42.84165" lon="-6.514523">
        <ele>860.67</ele>
        <time>2021-03-27T13:18:20Z</time>
      </trkpt>
      <trkpt lat="42.841808" lon="-6.514726">
        <ele>860.54</ele>
        <time>2021-03-27T13:18:25Z</time>
      </trkpt>
      <trkpt lat="42.843175" lon="-6.516269">
        <ele>881.84</ele>
        <time>2021-03-27T13:18:30Z</time>
      </trkpt>
      <trkpt lat="42.843522" lon="-6.516537">
        <ele>885.92</ele>
        <time>2021-03-27T13:18:35Z</time>
      </trkpt>
      <trkpt lat="42.843678" lon="-6.516577">
        <ele>885.35</ele>
        <time>2021-03-27T13:18:40Z</time>
      </trkpt>
      <trkpt lat="42.844627" lon="-6.516621">
        <ele>889.63</ele>
        <time>2021-03-27T13:18:45Z</time>
      </trkpt>
      <trkpt lat="42.84628" lon="-6.516794">
        <ele>901.91</ele>
        <time>2021-03-27T13:18:49Z</time>
      </trkpt>
      <trkpt lat="42.846997" lon="-6.516671">
        <ele>897.75</ele>
        <time>2021-03-27T13:18:54Z</time>
      </trkpt>
      <trkpt lat="42.847404" lon="-6.516645">
        <ele>899.37</ele>
        <time>2021-03-27T13:18:59Z</time>
      </trkpt>
      <trkpt lat="42.848268" lon="-6.516839">
        <ele>906.4</ele>
        <time>2021-03-27T13:19:04Z</time>
      </trkpt>
      <trkpt lat="42.848436" lon="-6.516858">
        <ele>904.87</ele>
        <time>2021-03-27T13:19:09Z</time>
      </trkpt>
      <trkpt lat="42.848645" lon="-6.516839">
        <ele>902.07</ele>
        <time>2021-03-27T13:19:14Z</time>
      </trkpt>
      <trkpt lat="42.84881" lon="-6.516772">
        <ele>901.33</ele>
        <time>2021-03-27T13:19:19Z</time>
      </trkpt>
      <trkpt lat="42.849188" lon="-6.51656">
        <ele>902.01</ele>
        <time>2021-03-27T13:19:24Z</time>
      </trkpt>
      <trkpt lat="42.849512" lon="-6.516343">
        <ele>908.09</ele>
        <time>2021-03-27T13:19:28Z</time>
      </trkpt>
      <trkpt lat="42.849672" lon="-6.516214">
        <ele>910.98</ele>
        <time>2021-03-27T13:19:33Z</time>
      </trkpt>
      <trkpt lat="42.849828" lon="-6.516063">
        <ele>911.75</ele>
        <time>2021-03-27T13:19:38Z</time>
      </trkpt>
      <trkpt lat="42.850157" lon="-6.515601">
        <ele>908.61</ele>
        <time>2021-03-27T13:19:43Z</time>
      </trkpt>
      <trkpt lat="42.850363" lon="-6.51537">
        <ele>907.84</ele>
        <time>2021-03-27T13:19:48Z</time>
      </trkpt>
      <trkpt lat="42.850618" lon="-6.515243">
        <ele>908.23</ele>
        <time>2021-03-27T13:19:53Z</time>
      </trkpt>
      <trkpt lat="42.850872" lon="-6.515178">
        <ele>911.68</ele>
        <time>2021-03-27T13:19:58Z</time>
      </trkpt>
      <trkpt lat="42.851011" lon="-6.515122">
        <ele>912.92</ele>
        <time>2021-03-27T13:20:03Z</time>
      </trkpt>
      <trkpt lat="42.851128" lon="-6.515045">
        <ele>912.14</ele>
        <time>2021-03-27T13:20:07Z</time>
      </trkpt>
      <trkpt lat="42.851253" lon="-6.514928">
        <ele>913.18</ele>
        <time>2021-03-27T13:20:12Z</time>
      </trkpt>
      <trkpt lat="42.851408" lon="-6.51473">
        <ele>914.87</ele>
        <time>2021-03-27T13:20:17Z</time>
      </trkpt>
      <trkpt lat="42.851977" lon="-6.513794">
        <ele>912.74</ele>
        <time>2021-03-27T13:20:22Z</time>
      </trkpt>
      <trkpt lat="42.852324" lon="-6.513386">
        <ele>913.46</ele>
        <time>2021-03-27T13:20:27Z</time>
      </trkpt>
      <trkpt lat="42.85274" lon="-6.513076">
        <ele>911.32</ele>
        <time>2021-03-27T13:20:32Z</time>
      </trkpt>
      <trkpt lat="42.852914" lon="-6.512983">
        <ele>911.79</ele>
        <time>2021-03-27T13:20:37Z</time>
      </trkpt>
      <trkpt lat="42.853631" lon="-6.512712">
        <ele>914.91</ele>
        <time>2021-03-27T13:20:42Z</time>
      </trkpt>
      <trkpt lat="42.853818" lon="-6.512603">
        <ele>917.65</ele>
        <time>2021-03-27T13:20:46Z</time>
      </trkpt>
      <trkpt lat="42.853997" lon="-6.512459">
        <ele>918.94</ele>
        <time>2021-03-27T13:20:51Z</time>
      </trkpt>
      <trkpt lat="42.854779" lon="-6.511522">
        <ele>922.28</ele>
        <time>2021-03-27T13:20:56Z</time>
      </trkpt>
      <trkpt lat="42.855023" lon="-6.511304">
        <ele>923.79</ele>
        <time>2021-03-27T13:21:01Z</time>
      </trkpt>
      <trkpt lat="42.855402" lon="-6.511082">
        <ele>927.12</ele>
        <time>2021-03-27T13:21:06Z</time>
      </trkpt>
      <trkpt lat="42.855758" lon="-6.510947">
        <ele>928.43</ele>
        <time>2021-03-27T13:21:11Z</time>
      </trkpt>
      <trkpt lat="42.857532" lon="-6.510649">
        <ele>934.76</ele>
        <time>2021-03-27T13:21:16Z</time>
      </trkpt>
      <trkpt lat="42.858413" lon="-6.510235">
        <ele>945.84</ele>
        <time>2021-03-27T13:21:21Z</time>
      </trkpt>
      <trkpt lat="42.85858" lon="-6.510085">
        <ele>949.42</ele>
        <time>2021-03-27T13:21:25Z</time>
      </trkpt>
      <trkpt lat="42.858688" lon="-6.509938">
        <ele>952.84</ele>
        <time>2021-03-27T13:21:30Z</time>
      </trkpt>
      <trkpt lat="42.858798" lon="-6.509746">
        <ele>958.19</ele>
        <time>2021-03-27T13:21:35Z</time>
      </trkpt>
      <trkpt lat="42.858997" lon="-6.509201">
        <ele>961.4</ele>
        <time>2021-03-27T13:21:40Z</time>
      </trkpt>
      <trkpt lat="42.859146" lon="-6.508676">
        <ele>955.07</ele>
        <time>2021-03-27T13:21:45Z</time>
      </trkpt>
      <trkpt lat="42.859448" lon="-6.508034">
        <ele>965.09</ele>
        <time>2021-03-27T13:21:50Z</time>
      </trkpt>
      <trkpt lat="42.859518" lon="-6.507822">
        <ele>967.9</ele>
        <time>2021-03-27T13:21:55Z</time>
      </trkpt>
      <trkpt lat="42.859634" lon="-6.507378">
        <ele>971.28</ele>
        <time>2021-03-27T13:21:59Z</time>
      </trkpt>
      <trkpt lat="42.859692" lon="-6.50725">
        <ele>969.98</ele>
        <time>2021-03-27T13:22:04Z</time>
      </trkpt>
      <trkpt lat="42.859785" lon="-6.507133">
        <ele>971.02</ele>
        <time>2021-03-27T13:22:09Z</time>
      </trkpt>
      <trkpt lat="42.859924" lon="-6.507016">
        <ele>972.17</ele>
        <time>2021-03-27T13:22:14Z</time>
      </trkpt>
      <trkpt lat="42.860325" lon="-6.506817">
        <ele>973.48</ele>
        <time>2021-03-27T13:22:19Z</time>
      </trkpt>
      <trkpt lat="42.860672" lon="-6.50652">
        <ele>970.45</ele>
        <time>2021-03-27T13:22:24Z</time>
      </trkpt>
      <trkpt lat="42.860918" lon="-6.506394">
        <ele>969.69</ele>
        <time>2021-03-27T13:22:29Z</time>
      </trkpt>
      <trkpt lat="42.861306" lon="-6.50635">
        <ele>969.64</ele>
        <time>2021-03-27T13:22:34Z</time>
      </trkpt>
      <trkpt lat="42.861534" lon="-6.506355">
        <ele>969.09</ele>
        <time>2021-03-27T13:22:38Z</time>
      </trkpt>
      <trkpt lat="42.861926" lon="-6.506403">
        <ele>973.63</ele>
        <time>2021-03-27T13:22:43Z</time>
      </trkpt>
      <trkpt lat="42.862164" lon="-6.506479">
        <ele>977.93</ele>
        <time>2021-03-27T13:22:48Z</time>
      </trkpt>
      <trkpt lat="42.862363" lon="-6.506569">
        <ele>977.59</ele>
        <time>2021-03-27T13:22:53Z</time>
      </trkpt>
      <trkpt lat="42.863286" lon="-6.507121">
        <ele>981.56</ele>
        <time>2021-03-27T13:22:58Z</time>
      </trkpt>
      <trkpt lat="42.86366" lon="-6.507313">
        <ele>986.07</ele>
        <time>2021-03-27T13:23:03Z</time>
      </trkpt>
      <trkpt lat="42.863861" lon="-6.507386">
        <ele>989.96</ele>
        <time>2021-03-27T13:23:08Z</time>
      </trkpt>
      <trkpt lat="42.864273" lon="-6.507454">
        <ele>991.14</ele>
        <time>2021-03-27T13:23:13Z</time>
      </trkpt>
      <trkpt lat="42.864717" lon="-6.507485">
        <ele>995.69</ele>
        <time>2021-03-27T13:23:17Z</time>
      </trkpt>
      <trkpt lat="42.865413" lon="-6.507434">
        <ele>996.72</ele>
        <time>2021-03-27T13:23:22Z</time>
      </trkpt>
      <trkpt lat="42.865835" lon="-6.50736">
        <ele>1000.98</ele>
        <time>2021-03-27T13:23:27Z</time>
      </trkpt>
      <trkpt lat="42.866518" lon="-6.50737">
        <ele>1010.58</ele>
        <time>2021-03-27T13:23:32Z</time>
      </trkpt>
      <trkpt lat="42.867808" lon="-6.507041">
        <ele>1014.19</ele>
        <time>2021-03-27T13:23:37Z</time>
      </trkpt>
      <trkpt lat="42.867962" lon="-6.507025">
        <ele>1014.72</ele>
        <time>2021-03-27T13:23:42Z</time>
      </trkpt>
      <trkpt lat="42.868233" lon="-6.507041">
        <ele>1014.97</ele>
        <time>2021-03-27T13:23:47Z</time>
      </trkpt>
      <trkpt lat="42.868374" lon="-6.50709">
        <ele>1015.47</ele>
        <time>2021-03-27T13:23:52Z</time>
      </trkpt>
      <trkpt lat="42.868852" lon="-6.507341">
        <ele>1015.61</ele>
        <time>2021-03-27T13:23:56Z</time>
      </trkpt>
      <trkpt lat="42.869046" lon="-6.507417">
        <ele>1016.67</ele>
        <time>2021-03-27T13:24:01Z</time>
      </trkpt>
      <trkpt lat="42.869209" lon="-6.507462">
        <ele>1018.01</ele>
        <time>2021-03-27T13:24:06Z</time>
      </trkpt>
      <trkpt lat="42.869567" lon="-6.507482">
        <ele>1022.82</ele>
        <time>2021-03-27T13:24:11Z</time>
      </trkpt>
      <trkpt lat="42.869863" lon="-6.507417">
        <ele>1026.29</ele>
        <time>2021-03-27T13:24:16Z</time>
      </trkpt>
      <trkpt lat="42.870721" lon="-6.507098">
        <ele>1029.35</ele>
        <time>2021-03-27T13:24:21Z</time>
      </trkpt>
      <trkpt lat="42.870947" lon="-6.506992">
        <ele>1031.47</ele>
        <time>2021-03-27T13:24:26Z</time>
      </trkpt>
      <trkpt lat="42.871571" lon="-6.506645">
        <ele>1038.08</ele>
        <time>2021-03-27T13:24:31Z</time>
      </trkpt>
      <trkpt lat="42.872362" lon="-6.50598">
        <ele>1038.31</ele>
        <time>2021-03-27T13:24:35Z</time>
      </trkpt>
      <trkpt lat="42.87269" lon="-6.505828">
        <ele>1040.66</ele>
        <time>2021-03-27T13:24:40Z</time>
      </trkpt>
      <trkpt lat="42.87288" lon="-6.505778">
        <ele>1040.8</ele>
        <time>2021-03-27T13:24:45Z</time>
      </trkpt>
      <trkpt lat="42.873092" lon="-6.505765">
        <ele>1041.31</ele>
        <time>2021-03-27T13:24:50Z</time>
      </trkpt>
      <trkpt lat="42.873533" lon="-6.50581">
        <ele>1048.66</ele>
        <time>2021-03-27T13:24:55Z</time>
      </trkpt>
      <trkpt lat="42.873906" lon="-6.505794">
        <ele>1049.1</ele>
        <time>2021-03-27T13:25:00Z</time>
      </trkpt>
      <trkpt lat="42.87428" lon="-6.50566">
        <ele>1047.8</ele>
        <time>2021-03-27T13:25:05Z</time>
      </trkpt>
      <trkpt lat="42.874937" lon="-6.505268">
        <ele>1046.42</ele>
        <time>2021-03-27T13:25:10Z</time>
      </trkpt>
      <trkpt lat="42.875799" lon="-6.504676">
        <ele>1052.24</ele>
        <time>2021-03-27T13:25:14Z</time>
      </trkpt>
      <trkpt lat="42.875973" lon="-6.504578">
        <ele>1052.11</ele>
        <time>2021-03-27T13:25:19Z</time>
      </trkpt>
      <trkpt lat="42.876246" lon="-6.504469">
        <ele>1053.26</ele>
        <time>2021-03-27T13:25:24Z</time>
      </trkpt>
      <trkpt lat="42.876596" lon="-6.504397">
        <ele>1053.76</ele>
        <time>2021-03-27T13:25:29Z</time>
      </trkpt>
      <trkpt lat="42.877102" lon="-6.504393">
        <ele>1055.05</ele>
        <time>2021-03-27T13:25:34Z</time>
      </trkpt>
      <trkpt lat="42.878443" lon="-6.504723">
        <ele>1064.2</ele>
        <time>2021-03-27T13:25:39Z</time>
      </trkpt>
      <trkpt lat="42.878623" lon="-6.504734">
        <ele>1066.48</ele>
        <time>2021-03-27T13:25:44Z</time>
      </trkpt>
      <trkpt lat="42.878802" lon="-6.50472">
        <ele>1068.69</ele>
        <time>2021-03-27T13:25:49Z</time>
      </trkpt>
      <trkpt lat="42.880422" lon="-6.504359">
        <ele>1081.18</ele>
        <time>2021-03-27T13:25:53Z</time>
      </trkpt>
      <trkpt lat="42.880576" lon="-6.504293">
        <ele>1082.14</ele>
        <time>2021-03-27T13:25:58Z</time>
      </trkpt>
      <trkpt lat="42.881091" lon="-6.504001">
        <ele>1084.28</ele>
        <time>2021-03-27T13:26:03Z</time>
      </trkpt>
      <trkpt lat="42.881424" lon="-6.503869">
        <ele>1088.02</ele>
        <time>2021-03-27T13:26:08Z</time>
      </trkpt>
      <trkpt lat="42.881693" lon="-6.503841">
        <ele>1089.23</ele>
        <time>2021-03-27T13:26:13Z</time>
      </trkpt>
      <trkpt lat="42.882041" lon="-6.503868">
        <ele>1092.44</ele>
        <time>2021-03-27T13:26:18Z</time>
      </trkpt>
      <trkpt lat="42.88249" lon="-6.503934">
        <ele>1097.95</ele>
        <time>2021-03-27T13:26:23Z</time>
      </trkpt>
      <trkpt lat="42.883001" lon="-6.503905">
        <ele>1093.24</ele>
        <time>2021-03-27T13:26:28Z</time>
      </trkpt>
      <trkpt lat="42.883275" lon="-6.503832">
        <ele>1093.23</ele>
        <time>2021-03-27T13:26:32Z</time>
      </trkpt>
      <trkpt lat="42.883549" lon="-6.503712">
        <ele>1093.36</ele>
        <time>2021-03-27T13:26:37Z</time>
      </trkpt>
      <trkpt lat="42.883771" lon="-6.503567">
        <ele>1093.27</ele>
        <time>2021-03-27T13:26:42Z</time>
      </trkpt>
      <trkpt lat="42.883951" lon="-6.503414">
        <ele>1095.59</ele>
        <time>2021-03-27T13:26:47Z</time>
      </trkpt>
      <trkpt lat="42.884504" lon="-6.502879">
        <ele>1103.68</ele>
        <time>2021-03-27T13:26:52Z</time>
      </trkpt>
      <trkpt lat="42.884807" lon="-6.502704">
        <ele>1102.93</ele>
        <time>2021-03-27T13:26:57Z</time>
      </trkpt>
      <trkpt lat="42.885566" lon="-6.502478">
        <ele>1108.94</ele>
        <time>2021-03-27T13:27:02Z</time>
      </trkpt>
      <trkpt lat="42.885718" lon="-6.502417">
        <ele>1110.68</ele>
        <time>2021-03-27T13:27:06Z</time>
      </trkpt>
      <trkpt lat="42.886005" lon="-6.502265">
        <ele>1112.86</ele>
        <time>2021-03-27T13:27:11Z</time>
      </trkpt>
      <trkpt lat="42.886686" lon="-6.501817">
        <ele>1116.92</ele>
        <time>2021-03-27T13:27:16Z</time>
      </trkpt>
      <trkpt lat="42.886903" lon="-6.501744">
        <ele>1118.1</ele>
        <time>2021-03-27T13:27:21Z</time>
      </trkpt>
      <trkpt lat="42.887192" lon="-6.501704">
        <ele>1120.53</ele>
        <time>2021-03-27T13:27:26Z</time>
      </trkpt>
      <trkpt lat="42.887453" lon="-6.50171">
        <ele>1123.32</ele>
        <time>2021-03-27T13:27:31Z</time>
      </trkpt>
      <trkpt lat="42.887815" lon="-6.501828">
        <ele>1123.75</ele>
        <time>2021-03-27T13:27:36Z</time>
      </trkpt>
      <trkpt lat="42.888625" lon="-6.502157">
        <ele>1122.04</ele>
        <time>2021-03-27T13:27:41Z</time>
      </trkpt>
      <trkpt lat="42.88903" lon="-6.502295">
        <ele>1123.65</ele>
        <time>2021-03-27T13:27:45Z</time>
      </trkpt>
      <trkpt lat="42.890196" lon="-6.502526">
        <ele>1115.11</ele>
        <time>2021-03-27T13:27:50Z</time>
      </trkpt>
      <trkpt lat="42.891216" lon="-6.502703">
        <ele>1124.17</ele>
        <time>2021-03-27T13:27:55Z</time>
      </trkpt>
      <trkpt lat="42.892356" lon="-6.502839">
        <ele>1130.5</ele>
        <time>2021-03-27T13:28:00Z</time>
      </trkpt>
      <trkpt lat="42.894184" lon="-6.503217">
        <ele>1127.16</ele>
        <time>2021-03-27T13:28:05Z</time>
      </trkpt>
      <trkpt lat="42.895098" lon="-6.503453">
        <ele>1144.19</ele>
        <time>2021-03-27T13:28:10Z</time>
      </trkpt>
      <trkpt lat="42.895398" lon="-6.503604">
        <ele>1148.44</ele>
        <time>2021-03-27T13:28:15Z</time>
      </trkpt>
      <trkpt lat="42.895658" lon="-6.503817">
        <ele>1153.12</ele>
        <time>2021-03-27T13:28:20Z</time>
      </trkpt>
      <trkpt lat="42.896027" lon="-6.50418">
        <ele>1156.54</ele>
        <time>2021-03-27T13:28:24Z</time>
      </trkpt>
      <trkpt lat="42.896162" lon="-6.504288">
        <ele>1158.34</ele>
        <time>2021-03-27T13:28:29Z</time>
      </trkpt>
      <trkpt lat="42.896417" lon="-6.504443">
        <ele>1162.76</ele>
        <time>2021-03-27T13:28:34Z</time>
      </trkpt>
      <trkpt lat="42.896717" lon="-6.504577">
        <ele>1165.11</ele>
        <time>2021-03-27T13:28:39Z</time>
      </trkpt>
      <trkpt lat="42.897073" lon="-6.504671">
        <ele>1167.34</ele>
        <time>2021-03-27T13:28:44Z</time>
      </trkpt>
      <trkpt lat="42.897938" lon="-6.504668">
        <ele>1167.64</ele>
        <time>2021-03-27T13:28:49Z</time>
      </trkpt>
      <trkpt lat="42.898199" lon="-6.50469">
        <ele>1168.22</ele>
        <time>2021-03-27T13:28:54Z</time>
      </trkpt>
      <trkpt lat="42.898349" lon="-6.504735">
        <ele>1169.16</ele>
        <time>2021-03-27T13:28:59Z</time>
      </trkpt>
      <trkpt lat="42.898549" lon="-6.504848">
        <ele>1170.16</ele>
        <time>2021-03-27T13:29:03Z</time>
      </trkpt>
      <trkpt lat="42.898673" lon="-6.504952">
        <ele>1171.07</ele>
        <time>2021-03-27T13:29:08Z</time>
      </trkpt>
      <trkpt lat="42.899105" lon="-6.505497">
        <ele>1179.81</ele>
        <time>2021-03-27T13:29:13Z</time>
      </trkpt>
      <trkpt lat="42.899325" lon="-6.505742">
        <ele>1179.74</ele>
        <time>2021-03-27T13:29:18Z</time>
      </trkpt>
      <trkpt lat="42.89943" lon="-6.505835">
        <ele>1178.44</ele>
        <time>2021-03-27T13:29:23Z</time>
      </trkpt>
      <trkpt lat="42.899576" lon="-6.505924">
        <ele>1180.52</ele>
        <time>2021-03-27T13:29:28Z</time>
      </trkpt>
      <trkpt lat="42.899773" lon="-6.506013">
        <ele>1180.64</ele>
        <time>2021-03-27T13:29:33Z</time>
      </trkpt>
      <trkpt lat="42.899952" lon="-6.506058">
        <ele>1180.51</ele>
        <time>2021-03-27T13:29:38Z</time>
      </trkpt>
      <trkpt lat="42.900276" lon="-6.506093">
        <ele>1183.59</ele>
        <time>2021-03-27T13:29:42Z</time>
      </trkpt>
      <trkpt lat="42.900709" lon="-6.506095">
        <ele>1184.16</ele>
        <time>2021-03-27T13:29:47Z</time>
      </trkpt>
      <trkpt lat="42.900938" lon="-6.506133">
        <ele>1184.42</ele>
        <time>2021-03-27T13:29:52Z</time>
      </trkpt>
      <trkpt lat="42.901297" lon="-6.50631">
        <ele>1186.86</ele>
        <time>2021-03-27T13:29:57Z</time>
      </trkpt>
      <trkpt lat="42.901938" lon="-6.506857">
        <ele>1193.47</ele>
        <time>2021-03-27T13:30:02Z</time>
      </trkpt>
      <trkpt lat="42.902329" lon="-6.506992">
        <ele>1191.04</ele>
        <time>2021-03-27T13:30:07Z</time>
      </trkpt>
      <trkpt lat="42.902536" lon="-6.506997">
        <ele>1188.03</ele>
        <time>2021-03-27T13:30:12Z</time>
      </trkpt>
      <trkpt lat="42.902717" lon="-6.506971">
        <ele>1188.11</ele>
        <time>2021-03-27T13:30:17Z</time>
      </trkpt>
      <trkpt lat="42.903325" lon="-6.506732">
        <ele>1196.11</ele>
        <time>2021-03-27T13:30:21Z</time>
      </trkpt>
      <trkpt lat="42.904714" lon="-6.50611">
        <ele>1215.91</ele>
        <time>2021-03-27T13:30:26Z</time>
      </trkpt>
      <trkpt lat="42.904995" lon="-6.506046">
        <ele>1217.73</ele>
        <time>2021-03-27T13:30:31Z</time>
      </trkpt>
      <trkpt lat="42.905296" lon="-6.506054">
        <ele>1217.93</ele>
        <time>2021-03-27T13:30:36Z</time>
      </trkpt>
      <trkpt lat="42.905628" lon="-6.50615">
        <ele>1220.3</ele>
        <time>2021-03-27T13:30:41Z</time>
      </trkpt>
      <trkpt lat="42.906015" lon="-6.506361">
        <ele>1221.83</ele>
        <time>2021-03-27T13:30:46Z</time>
      </trkpt>
      <trkpt lat="42.906214" lon="-6.506531">
        <ele>1221.83</ele>
        <time>2021-03-27T13:30:51Z</time>
      </trkpt>
      <trkpt lat="42.906579" lon="-6.506965">
        <ele>1225.2</ele>
        <time>2021-03-27T13:30:56Z</time>
      </trkpt>
      <trkpt lat="42.907151" lon="-6.507793">
        <ele>1231.84</ele>
        <time>2021-03-27T13:31:00Z</time>
      </trkpt>
      <trkpt lat="42.907379" lon="-6.508097">
        <ele>1234.3</ele>
        <time>2021-03-27T13:31:05Z</time>
      </trkpt>
      <trkpt lat="42.907735" lon="-6.508499">
        <ele>1236.84</ele>
        <time>2021-03-27T13:31:10Z</time>
      </trkpt>
      <trkpt lat="42.908408" lon="-6.509153">
        <ele>1242.47</ele>
        <time>2021-03-27T13:31:15Z</time>
      </trkpt>
      <trkpt lat="42.914281" lon="-6.513522">
        <ele>1291.78</ele>
        <time>2021-03-27T13:31:20Z</time>
      </trkpt>
      <trkpt lat="42.915202" lon="-6.514354">
        <ele>1293.36</ele>
        <time>2021-03-27T13:31:25Z</time>
      </trkpt>
      <trkpt lat="42.915442" lon="-6.514551">
        <ele>1293.39</ele>
        <time>2021-03-27T13:31:30Z</time>
      </trkpt>
      <trkpt lat="42.915621" lon="-6.514679">
        <ele>1292.88</ele>
        <time>2021-03-27T13:31:35Z</time>
      </trkpt>
      <trkpt lat="42.916356" lon="-6.51512">
        <ele>1299.96</ele>
        <time>2021-03-27T13:31:39Z</time>
      </trkpt>
      <trkpt lat="42.917017" lon="-6.515618">
        <ele>1299.15</ele>
        <time>2021-03-27T13:31:44Z</time>
      </trkpt>
      <trkpt lat="42.91717" lon="-6.515707">
        <ele>1300.9</ele>
        <time>2021-03-27T13:31:49Z</time>
      </trkpt>
      <trkpt lat="42.917503" lon="-6.515856">
        <ele>1304.46</ele>
        <time>2021-03-27T13:31:54Z</time>
      </trkpt>
      <trkpt lat="42.920023" lon="-6.516633">
        <ele>1317.21</ele>
        <time>2021-03-27T13:31:59Z</time>
      </trkpt>
      <trkpt lat="42.920711" lon="-6.516867">
        <ele>1317.04</ele>
        <time>2021-03-27T13:32:04Z</time>
      </trkpt>
      <trkpt lat="42.921082" lon="-6.517009">
        <ele>1319.01</ele>
        <time>2021-03-27T13:32:09Z</time>
      </trkpt>
      <trkpt lat="42.921535" lon="-6.517254">
        <ele>1324.27</ele>
        <time>2021-03-27T13:32:13Z</time>
      </trkpt>
      <trkpt lat="42.921793" lon="-6.517444">
        <ele>1326.52</ele>
        <time>2021-03-27T13:32:18Z</time>
      </trkpt>
      <trkpt lat="42.921948" lon="-6.517589">
        <ele>1327.58</ele>
        <time>2021-03-27T13:32:23Z</time>
      </trkpt>
      <trkpt lat="42.922104" lon="-6.517744">
        <ele>1329.24</ele>
        <time>2021-03-27T13:32:28Z</time>
      </trkpt>
      <trkpt lat="42.922275" lon="-6.517947">
        <ele>1332.12</ele>
        <time>2021-03-27T13:32:33Z</time>
      </trkpt>
      <trkpt lat="42.922438" lon="-6.518169">
        <ele>1335.13</ele>
        <time>2021-03-27T13:32:38Z</time>
      </trkpt>
      <trkpt lat="42.922821" lon="-6.518783">
        <ele>1336.08</ele>
        <time>2021-03-27T13:32:43Z</time>
      </trkpt>
      <trkpt lat="42.923132" lon="-6.519208">
        <ele>1337.34</ele>
        <time>2021-03-27T13:32:48Z</time>
      </trkpt>
      <trkpt lat="42.923369" lon="-6.519447">
        <ele>1336.63</ele>
        <time>2021-03-27T13:32:52Z</time>
      </trkpt>
      <trkpt lat="42.923699" lon="-6.519662">
        <ele>1336.28</ele>
        <time>2021-03-27T13:32:57Z</time>
      </trkpt>
      <trkpt lat="42.923844" lon="-6.519721">
        <ele>1336.98</ele>
        <time>2021-03-27T13:33:02Z</time>
      </trkpt>
      <trkpt lat="42.924275" lon="-6.51976">
        <ele>1339.12</ele>
        <time>2021-03-27T13:33:07Z</time>
      </trkpt>
      <trkpt lat="42.924444" lon="-6.519747">
        <ele>1339.53</ele>
        <time>2021-03-27T13:33:12Z</time>
      </trkpt>
      <trkpt lat="42.924928" lon="-6.519659">
        <ele>1339.8</ele>
        <time>2021-03-27T13:33:17Z</time>
      </trkpt>
      <trkpt lat="42.927065" lon="-6.519145">
        <ele>1335.72</ele>
        <time>2021-03-27T13:33:22Z</time>
      </trkpt>
      <trkpt lat="42.927288" lon="-6.519059">
        <ele>1336.58</ele>
        <time>2021-03-27T13:33:27Z</time>
      </trkpt>
      <trkpt lat="42.927519" lon="-6.518923">
        <ele>1340.64</ele>
        <time>2021-03-27T13:33:31Z</time>
      </trkpt>
      <trkpt lat="42.927735" lon="-6.518683">
        <ele>1341.97</ele>
        <time>2021-03-27T13:33:36Z</time>
      </trkpt>
      <trkpt lat="42.92789" lon="-6.518453">
        <ele>1341.0</ele>
        <time>2021-03-27T13:33:41Z</time>
      </trkpt>
      <trkpt lat="42.92805" lon="-6.51809">
        <ele>1338.98</ele>
        <time>2021-03-27T13:33:46Z</time>
      </trkpt>
      <trkpt lat="42.928282" lon="-6.517342">
        <ele>1341.96</ele>
        <time>2021-03-27T13:33:51Z</time>
      </trkpt>
      <trkpt lat="42.928377" lon="-6.517079">
        <ele>1342.45</ele>
        <time>2021-03-27T13:33:56Z</time>
      </trkpt>
      <trkpt lat="42.928494" lon="-6.51686">
        <ele>1339.41</ele>
        <time>2021-03-27T13:34:01Z</time>
      </trkpt>
      <trkpt lat="42.928647" lon="-6.516685">
        <ele>1334.43</ele>
        <time>2021-03-27T13:34:06Z</time>
      </trkpt>
      <trkpt lat="42.928903" lon="-6.516455">
        <ele>1333.95</ele>
        <time>2021-03-27T13:34:10Z</time>
      </trkpt>
      <trkpt lat="42.929254" lon="-6.516216">
        <ele>1333.21</ele>
        <time>2021-03-27T13:34:15Z</time>
      </trkpt>
      <trkpt lat="42.92953" lon="-6.515871">
        <ele>1332.37</ele>
        <time>2021-03-27T13:34:20Z</time>
      </trkpt>
      <trkpt lat="42.929638" lon="-6.515648">
        <ele>1330.93</ele>
        <time>2021-03-27T13:34:25Z</time>
      </trkpt>
      <trkpt lat="42.929688" lon="-6.515385">
        <ele>1332.7</ele>
        <time>2021-03-27T13:34:30Z</time>
      </trkpt>
      <trkpt lat="42.929698" lon="-6.515169">
        <ele>1334.08</ele>
        <time>2021-03-27T13:34:35Z</time>
      </trkpt>
      <trkpt lat="42.929674" lon="-6.514839">
        <ele>1335.14</ele>
        <time>2021-03-27T13:34:40Z</time>
      </trkpt>
      <trkpt lat="42.929682" lon="-6.514597">
        <ele>1334.57</ele>
        <time>2021-03-27T13:34:45Z</time>
      </trkpt>
      <trkpt lat="42.929711" lon="-6.514414">
        <ele>1334.13</ele>
        <time>2021-03-27T13:34:49Z</time>
      </trkpt>
      <trkpt lat="42.929759" lon="-6.51428">
        <ele>1332.6</ele>
        <time>2021-03-27T13:34:54Z</time>
      </trkpt>
      <trkpt lat="42.929871" lon="-6.514012">
        <ele>1330.77</ele>
        <time>2021-03-27T13:34:59Z</time>
      </trkpt>
      <trkpt lat="42.930142" lon="-6.513454">
        <ele>1332.47</ele>
        <time>2021-03-27T13:35:04Z</time>
      </trkpt>
      <trkpt lat="42.930781" lon="-6.512328">
        <ele>1330.34</ele>
        <time>2021-03-27T13:35:09Z</time>
      </trkpt>
      <trkpt lat="42.930976" lon="-6.512014">
        <ele>1329.46</ele>
        <time>2021-03-27T13:35:14Z</time>
      </trkpt>
      <trkpt lat="42.931272" lon="-6.511689">
        <ele>1321.93</ele>
        <time>2021-03-27T13:35:19Z</time>
      </trkpt>
      <trkpt lat="42.931492" lon="-6.511486">
        <ele>1317.19</ele>
        <time>2021-03-27T13:35:24Z</time>
      </trkpt>
      <trkpt lat="42.931802" lon="-6.511142">
        <ele>1309.57</ele>
        <time>2021-03-27T13:35:28Z</time>
      </trkpt>
      <trkpt lat="42.932085" lon="-6.510621">
        <ele>1312.19</ele>
        <time>2021-03-27T13:35:33Z</time>
      </trkpt>
      <trkpt lat="42.932338" lon="-6.51033">
        <ele>1308.77</ele>
        <time>2021-03-27T13:35:38Z</time>
      </trkpt>
      <trkpt lat="42.932611" lon="-6.510104">
        <ele>1306.59</ele>
        <time>2021-03-27T13:35:43Z</time>
      </trkpt>
      <trkpt lat="42.933353" lon="-6.509564">
        <ele>1302.53</ele>
        <time>2021-03-27T13:35:48Z</time>
      </trkpt>
      <trkpt lat="42.933667" lon="-6.509269">
        <ele>1292.15</ele>
        <time>2021-03-27T13:35:53Z</time>
      </trkpt>
      <trkpt lat="42.934005" lon="-6.508916">
        <ele>1298.33</ele>
        <time>2021-03-27T13:35:58Z</time>
      </trkpt>
      <trkpt lat="42.934225" lon="-6.508617">
        <ele>1303.35</ele>
        <time>2021-03-27T13:36:03Z</time>
      </trkpt>
      <trkpt lat="42.934402" lon="-6.508269">
        <ele>1298.38</ele>
        <time>2021-03-27T13:36:07Z</time>
      </trkpt>
      <trkpt lat="42.934502" lon="-6.507976">
        <ele>1290.24</ele>
        <time>2021-03-27T13:36:12Z</time>
      </trkpt>
      <trkpt lat="42.934536" lon="-6.507793">
        <ele>1288.67</ele>
        <time>2021-03-27T13:36:17Z</time>
      </trkpt>
      <trkpt lat="42.93454" lon="-6.507617">
        <ele>1287.16</ele>
        <time>2021-03-27T13:36:22Z</time>
      </trkpt>
      <trkpt lat="42.934515" lon="-6.507426">
        <ele>1285.58</ele>
        <time>2021-03-27T13:36:27Z</time>
      </trkpt>
      <trkpt lat="42.934455" lon="-6.507249">
        <ele>1284.14</ele>
        <time>2021-03-27T13:36:32Z</time>
      </trkpt>
      <trkpt lat="42.934223" lon="-6.506884">
        <ele>1283.59</ele>
        <time>2021-03-27T13:36:37Z</time>
      </trkpt>
      <trkpt lat="42.934006" lon="-6.506622">
        <ele>1278.03</ele>
        <time>2021-03-27T13:36:41Z</time>
      </trkpt>
      <trkpt lat="42.93372" lon="-6.506322">
        <ele>1273.48</ele>
        <time>2021-03-27T13:36:46Z</time>
      </trkpt>
      <trkpt lat="42.933338" lon="-6.506028">
        <ele>1276.34</ele>
        <time>2021-03-27T13:36:51Z</time>
      </trkpt>
      <trkpt lat="42.93265" lon="-6.505717">
        <ele>1264.88</ele>
        <time>2021-03-27T13:36:56Z</time>
      </trkpt>
      <trkpt lat="42.932455" lon="-6.505653">
        <ele>1262.17</ele>
        <time>2021-03-27T13:37:01Z</time>
      </trkpt>
      <trkpt lat="42.931998" lon="-6.505601">
        <ele>1260.9</ele>
        <time>2021-03-27T13:37:06Z</time>
      </trkpt>
      <trkpt lat="42.93184" lon="-6.505547">
        <ele>1259.54</ele>
        <time>2021-03-27T13:37:11Z</time>
      </trkpt>
      <trkpt lat="42.931716" lon="-6.505443">
        <ele>1257.81</ele>
        <time>2021-03-27T13:37:16Z</time>
      </trkpt>
      <trkpt lat="42.931633" lon="-6.505331">
        <ele>1256.8</ele>
        <time>2021-03-27T13:37:20Z</time>
      </trkpt>
      <trkpt lat="42.931562" lon="-6.505171">
        <ele>1258.23</ele>
        <time>2021-03-27T13:37:25Z</time>
      </trkpt>
      <trkpt lat="42.931545" lon="-6.504984">
        <ele>1258.36</ele>
        <time>2021-03-27T13:37:30Z</time>
      </trkpt>
      <trkpt lat="42.931557" lon="-6.504753">
        <ele>1258.02</ele>
        <time>2021-03-27T13:37:35Z</time>
      </trkpt>
      <trkpt lat="42.931601" lon="-6.504501">
        <ele>1255.98</ele>
        <time>2021-03-27T13:37:40Z</time>
      </trkpt>
      <trkpt lat="42.931694" lon="-6.504187">
        <ele>1253.58</ele>
        <time>2021-03-27T13:37:45Z</time>
      </trkpt>
      <trkpt lat="42.931908" lon="-6.50359">
        <ele>1249.52</ele>
        <time>2021-03-27T13:37:50Z</time>
      </trkpt>
      <trkpt lat="42.932086" lon="-6.503038">
        <ele>1247.16</ele>
        <time>2021-03-27T13:37:55Z</time>
      </trkpt>
      <trkpt lat="42.932203" lon="-6.502517">
        <ele>1248.14</ele>
        <time>2021-03-27T13:37:59Z</time>
      </trkpt>
      <trkpt lat="42.932311" lon="-6.502244">
        <ele>1247.18</ele>
        <time>2021-03-27T13:38:04Z</time>
      </trkpt>
      <trkpt lat="42.932539" lon="-6.502001">
        <ele>1240.45</ele>
        <time>2021-03-27T13:38:09Z</time>
      </trkpt>
      <trkpt lat="42.932643" lon="-6.501936">
        <ele>1239.7</ele>
        <time>2021-03-27T13:38:14Z</time>
      </trkpt>
      <trkpt lat="42.932715" lon="-6.501916">
        <ele>1239.05</ele>
        <time>2021-03-27T13:38:19Z</time>
      </trkpt>
      <trkpt lat="42.932933" lon="-6.501932">
        <ele>1239.15</ele>
        <time>2021-03-27T13:38:24Z</time>
      </trkpt>
      <trkpt lat="42.933339" lon="-6.50206">
        <ele>1234.96</ele>
        <time>2021-03-27T13:38:29Z</time>
      </trkpt>
      <trkpt lat="42.933611" lon="-6.5021">
        <ele>1231.4</ele>
        <time>2021-03-27T13:38:34Z</time>
      </trkpt>
      <trkpt lat="42.933962" lon="-6.502031">
        <ele>1229.14</ele>
        <time>2021-03-27T13:38:38Z</time>
      </trkpt>
      <trkpt lat="42.93411" lon="-6.501967">
        <ele>1227.06</ele>
        <time>2021-03-27T13:38:43Z</time>
      </trkpt>
      <trkpt lat="42.934347" lon="-6.501761">
        <ele>1225.47</ele>
        <time>2021-03-27T13:38:48Z</time>
      </trkpt>
      <trkpt lat="42.934429" lon="-6.501634">
        <ele>1225.38</ele>
        <time>2021-03-27T13:38:53Z</time>
      </trkpt>
      <trkpt lat="42.934501" lon="-6.501475">
        <ele>1225.26</ele>
        <time>2021-03-27T13:38:58Z</time>
      </trkpt>
      <trkpt lat="42.934618" lon="-6.50102">
        <ele>1221.28</ele>
        <time>2021-03-27T13:39:03Z</time>
      </trkpt>
      <trkpt lat="42.934672" lon="-6.500871">
        <ele>1219.11</ele>
        <time>2021-03-27T13:39:08Z</time>
      </trkpt>
      <trkpt lat="42.934818" lon="-6.500696">
        <ele>1219.08</ele>
        <time>2021-03-27T13:39:13Z</time>
      </trkpt>
      <trkpt lat="42.935004" lon="-6.500612">
        <ele>1218.56</ele>
        <time>2021-03-27T13:39:17Z</time>
      </trkpt>
      <trkpt lat="42.935553" lon="-6.500572">
        <ele>1215.73</ele>
        <time>2021-03-27T13:39:22Z</time>
      </trkpt>
      <trkpt lat="42.935675" lon="-6.500517">
        <ele>1215.15</ele>
        <time>2021-03-27T13:39:27Z</time>
      </trkpt>
      <trkpt lat="42.935777" lon="-6.500435">
        <ele>1214.65</ele>
        <time>2021-03-27T13:39:32Z</time>
      </trkpt>
      <trkpt lat="42.935854" lon="-6.500346">
        <ele>1214.34</ele>
        <time>2021-03-27T13:39:37Z</time>
      </trkpt>
      <trkpt lat="42.935929" lon="-6.500222">
        <ele>1214.43</ele>
        <time>2021-03-27T13:39:42Z</time>
      </trkpt>
      <trkpt lat="42.935998" lon="-6.500019">
        <ele>1214.91</ele>
        <time>2021-03-27T13:39:47Z</time>
      </trkpt>
      <trkpt lat="42.93604" lon="-6.499825">
        <ele>1216.01</ele>
        <time>2021-03-27T13:39:52Z</time>
      </trkpt>
      <trkpt lat="42.936029" lon="-6.499476">
        <ele>1216.3</ele>
        <time>2021-03-27T13:39:56Z</time>
      </trkpt>
      <trkpt lat="42.935991" lon="-6.499295">
        <ele>1214.88</ele>
        <time>2021-03-27T13:40:01Z</time>
      </trkpt>
      <trkpt lat="42.935931" lon="-6.499156">
        <ele>1213.66</ele>
        <time>2021-03-27T13:40:06Z</time>
      </trkpt>
      <trkpt lat="42.935853" lon="-6.499055">
        <ele>1212.26</ele>
        <time>2021-03-27T13:40:11Z</time>
      </trkpt>
      <trkpt lat="42.935762" lon="-6.498965">
        <ele>1212.56</ele>
        <time>2021-03-27T13:40:16Z</time>
      </trkpt>
      <trkpt lat="42.935318" lon="-6.498611">
        <ele>1215.69</ele>
        <time>2021-03-27T13:40:21Z</time>
      </trkpt>
      <trkpt lat="42.9352" lon="-6.498482">
        <ele>1214.16</ele>
        <time>2021-03-27T13:40:26Z</time>
      </trkpt>
      <trkpt lat="42.935122" lon="-6.498315">
        <ele>1210.2</ele>
        <time>2021-03-27T13:40:31Z</time>
      </trkpt>
      <trkpt lat="42.935089" lon="-6.498149">
        <ele>1204.46</ele>
        <time>2021-03-27T13:40:35Z</time>
      </trkpt>
      <trkpt lat="42.935088" lon="-6.497948">
        <ele>1198.97</ele>
        <time>2021-03-27T13:40:40Z</time>
      </trkpt>
      <trkpt lat="42.935122" lon="-6.497793">
        <ele>1195.61</ele>
        <time>2021-03-27T13:40:45Z</time>
      </trkpt>
      <trkpt lat="42.935191" lon="-6.497638">
        <ele>1197.24</ele>
        <time>2021-03-27T13:40:50Z</time>
      </trkpt>
      <trkpt lat="42.935329" lon="-6.497497">
        <ele>1197.9</ele>
        <time>2021-03-27T13:40:55Z</time>
      </trkpt>
      <trkpt lat="42.936086" lon="-6.497016">
        <ele>1194.02</ele>
        <time>2021-03-27T13:41:00Z</time>
      </trkpt>
      <trkpt lat="42.936262" lon="-6.496876">
        <ele>1196.61</ele>
        <time>2021-03-27T13:41:05Z</time>
      </trkpt>
      <trkpt lat="42.936423" lon="-6.496708">
        <ele>1198.34</ele>
        <time>2021-03-27T13:41:10Z</time>
      </trkpt>
      <trkpt lat="42.936823" lon="-6.496175">
        <ele>1194.42</ele>
        <time>2021-03-27T13:41:14Z</time>
      </trkpt>
      <trkpt lat="42.937015" lon="-6.495876">
        <ele>1192.21</ele>
        <time>2021-03-27T13:41:19Z</time>
      </trkpt>
      <trkpt lat="42.937302" lon="-6.495308">
        <ele>1187.86</ele>
        <time>2021-03-27T13:41:24Z</time>
      </trkpt>
      <trkpt lat="42.937605" lon="-6.494649">
        <ele>1184.99</ele>
        <time>2021-03-27T13:41:29Z</time>
      </trkpt>
      <trkpt lat="42.937754" lon="-6.494391">
        <ele>1183.5</ele>
        <time>2021-03-27T13:41:34Z</time>
      </trkpt>
      <trkpt lat="42.937884" lon="-6.494216">
        <ele>1182.56</ele>
        <time>2021-03-27T13:41:39Z</time>
      </trkpt>
      <trkpt lat="42.93912" lon="-6.493227">
        <ele>1170.73</ele>
        <time>2021-03-27T13:41:44Z</time>
      </trkpt>
      <trkpt lat="42.939268" lon="-6.49308">
        <ele>1169.49</ele>
        <time>2021-03-27T13:41:48Z</time>
      </trkpt>
      <trkpt lat="42.939454" lon="-6.492843">
        <ele>1166.61</ele>
        <time>2021-03-27T13:41:53Z</time>
      </trkpt>
      <trkpt lat="42.939693" lon="-6.492461">
        <ele>1165.09</ele>
        <time>2021-03-27T13:41:58Z</time>
      </trkpt>
      <trkpt lat="42.939867" lon="-6.492144">
        <ele>1164.76</ele>
        <time>2021-03-27T13:42:03Z</time>
      </trkpt>
      <trkpt lat="42.93996" lon="-6.491889">
        <ele>1162.61</ele>
        <time>2021-03-27T13:42:08Z</time>
      </trkpt>
      <trkpt lat="42.940032" lon="-6.491737">
        <ele>1160.83</ele>
        <time>2021-03-27T13:42:13Z</time>
      </trkpt>
      <trkpt lat="42.940124" lon="-6.491596">
        <ele>1158.77</ele>
        <time>2021-03-27T13:42:18Z</time>
      </trkpt>
      <trkpt lat="42.940356" lon="-6.491363">
        <ele>1153.35</ele>
        <time>2021-03-27T13:42:23Z</time>
      </trkpt>
      <trkpt lat="42.940553" lon="-6.491112">
        <ele>1150.08</ele>
        <time>2021-03-27T13:42:27Z</time>
      </trkpt>
      <trkpt lat="42.940685" lon="-6.49076">
        <ele>1151.06</ele>
        <time>2021-03-27T13:42:32Z</time>
      </trkpt>
      <trkpt lat="42.940869" lon="-6.489935">
        <ele>1150.13</ele>
        <time>2021-03-27T13:42:37Z</time>
      </trkpt>
      <trkpt lat="42.941049" lon="-6.489497">
        <ele>1148.77</ele>
        <time>2021-03-27T13:42:42Z</time>
      </trkpt>
      <trkpt lat="42.941195" lon="-6.489221">
        <ele>1148.98</ele>
        <time>2021-03-27T13:42:47Z</time>
      </trkpt>
      <trkpt lat="42.941451" lon="-6.488947">
        <ele>1144.4</ele>
        <time>2021-03-27T13:42:52Z</time>
      </trkpt>
      <trkpt lat="42.941637" lon="-6.488803">
        <ele>1138.24</ele>
        <time>2021-03-27T13:42:57Z</time>
      </trkpt>
      <trkpt lat="42.942638" lon="-6.488317">
        <ele>1130.84</ele>
        <time>2021-03-27T13:43:02Z</time>
      </trkpt>
      <trkpt lat="42.94286" lon="-6.488174">
        <ele>1129.54</ele>
        <time>2021-03-27T13:43:06Z</time>
      </trkpt>
      <trkpt lat="42.943029" lon="-6.487999">
        <ele>1129.63</ele>
        <time>2021-03-27T13:43:11Z</time>
      </trkpt>
      <trkpt lat="42.943169" lon="-6.487813">
        <ele>1127.98</ele>
        <time>2021-03-27T13:43:16Z</time>
      </trkpt>
      <trkpt lat="42.943321" lon="-6.487555">
        <ele>1126.5</ele>
        <time>2021-03-27T13:43:21Z</time>
      </trkpt>
      <trkpt lat="42.943421" lon="-6.487293">
        <ele>1125.76</ele>
        <time>2021-03-27T13:43:26Z</time>
      </trkpt>
      <trkpt lat="42.943525" lon="-6.486907">
        <ele>1124.68</ele>
        <time>2021-03-27T13:43:31Z</time>
      </trkpt>
      <trkpt lat="42.943626" lon="-6.486451">
        <ele>1125.31</ele>
        <time>2021-03-27T13:43:36Z</time>
      </trkpt>
      <trkpt lat="42.943727" lon="-6.486112">
        <ele>1123.73</ele>
        <time>2021-03-27T13:43:41Z</time>
      </trkpt>
      <trkpt lat="42.943817" lon="-6.485885">
        <ele>1120.93</ele>
        <time>2021-03-27T13:43:45Z</time>
      </trkpt>
      <trkpt lat="42.943942" lon="-6.485651">
        <ele>1118.33</ele>
        <time>2021-03-27T13:43:50Z</time>
      </trkpt>
      <trkpt lat="42.944196" lon="-6.485314">
        <ele>1114.55</ele>
        <time>2021-03-27T13:43:55Z</time>
      </trkpt>
      <trkpt lat="42.944758" lon="-6.484765">
        <ele>1101.55</ele>
        <time>2021-03-27T13:44:00Z</time>
      </trkpt>
      <trkpt lat="42.944919" lon="-6.484595">
        <ele>1097.35</ele>
        <time>2021-03-27T13:44:05Z</time>
      </trkpt>
      <trkpt lat="42.945026" lon="-6.484438">
        <ele>1094.49</ele>
        <time>2021-03-27T13:44:10Z</time>
      </trkpt>
      <trkpt lat="42.94515" lon="-6.484223">
        <ele>1093.78</ele>
        <time>2021-03-27T13:44:15Z</time>
      </trkpt>
      <trkpt lat="42.94531" lon="-6.483893">
        <ele>1092.75</ele>
        <time>2021-03-27T13:44:20Z</time>
      </trkpt>
      <trkpt lat="42.946163" lon="-6.481903">
        <ele>1096.55</ele>
        <time>2021-03-27T13:44:24Z</time>
      </trkpt>
      <trkpt lat="42.946268" lon="-6.481711">
        <ele>1094.4</ele>
        <time>2021-03-27T13:44:29Z</time>
      </trkpt>
      <trkpt lat="42.946423" lon="-6.481519">
        <ele>1093.15</ele>
        <time>2021-03-27T13:44:34Z</time>
      </trkpt>
      <trkpt lat="42.94658" lon="-6.481382">
        <ele>1092.42</ele>
        <time>2021-03-27T13:44:39Z</time>
      </trkpt>
      <trkpt lat="42.946802" lon="-6.48123">
        <ele>1093.63</ele>
        <time>2021-03-27T13:44:44Z</time>
      </trkpt>
      <trkpt lat="42.947307" lon="-6.480985">
        <ele>1089.19</ele>
        <time>2021-03-27T13:44:49Z</time>
      </trkpt>
      <trkpt lat="42.947486" lon="-6.480872">
        <ele>1085.29</ele>
        <time>2021-03-27T13:44:54Z</time>
      </trkpt>
      <trkpt lat="42.947794" lon="-6.480514">
        <ele>1083.18</ele>
        <time>2021-03-27T13:44:59Z</time>
      </trkpt>
      <trkpt lat="42.947925" lon="-6.480302">
        <ele>1082.46</ele>
        <time>2021-03-27T13:45:03Z</time>
      </trkpt>
      <trkpt lat="42.948156" lon="-6.479766">
        <ele>1079.54</ele>
        <time>2021-03-27T13:45:08Z</time>
      </trkpt>
      <trkpt lat="42.948256" lon="-6.479596">
        <ele>1078.07</ele>
        <time>2021-03-27T13:45:13Z</time>
      </trkpt>
      <trkpt lat="42.948415" lon="-6.47944">
        <ele>1076.62</ele>
        <time>2021-03-27T13:45:18Z</time>
      </trkpt>
      <trkpt lat="42.948558" lon="-6.479363">
        <ele>1075.48</ele>
        <time>2021-03-27T13:45:23Z</time>
      </trkpt>
      <trkpt lat="42.948882" lon="-6.479284">
        <ele>1065.83</ele>
        <time>2021-03-27T13:45:28Z</time>
      </trkpt>
      <trkpt lat="42.949714" lon="-6.479289">
        <ele>1063.06</ele>
        <time>2021-03-27T13:45:33Z</time>
      </trkpt>
      <trkpt lat="42.949785" lon="-6.479268">
        <ele>1065.4</ele>
        <time>2021-03-27T13:45:33Z</time>
      </trkpt>
      <trkpt lat="42.949838" lon="-6.479219">
        <ele>1067.46</ele>
        <time>2021-03-27T13:45:34Z</time>
      </trkpt>
      <trkpt lat="42.949879" lon="-6.479139">
        <ele>1069.39</ele>
        <time>2021-03-27T13:45:34Z</time>
      </trkpt>
      <trkpt lat="42.949784" lon="-6.478282">
        <ele>1069.55</ele>
        <time>2021-03-27T13:45:38Z</time>
      </trkpt>
      <trkpt lat="42.949762" lon="-6.477929">
        <ele>1070.6</ele>
        <time>2021-03-27T13:45:43Z</time>
      </trkpt>
      <trkpt lat="42.949921" lon="-6.476558">
        <ele>1083.64</ele>
        <time>2021-03-27T13:45:47Z</time>
      </trkpt>
      <trkpt lat="42.949987" lon="-6.475147">
        <ele>1085.57</ele>
        <time>2021-03-27T13:45:51Z</time>
      </trkpt>
      <trkpt lat="42.950022" lon="-6.47473">
        <ele>1091.61</ele>
        <time>2021-03-27T13:45:55Z</time>
      </trkpt>
      <trkpt lat="42.950029" lon="-6.47433">
        <ele>1092.3</ele>
        <time>2021-03-27T13:46:00Z</time>
      </trkpt>
      <trkpt lat="42.949686" lon="-6.472229">
        <ele>1106.03</ele>
        <time>2021-03-27T13:46:04Z</time>
      </trkpt>
      <trkpt lat="42.949529" lon="-6.471723">
        <ele>1105.66</ele>
        <time>2021-03-27T13:46:08Z</time>
      </trkpt>
      <trkpt lat="42.949473" lon="-6.471457">
        <ele>1106.98</ele>
        <time>2021-03-27T13:46:13Z</time>
      </trkpt>
      <trkpt lat="42.949441" lon="-6.471067">
        <ele>1111.06</ele>
        <time>2021-03-27T13:46:17Z</time>
      </trkpt>
      <trkpt lat="42.949423" lon="-6.470485">
        <ele>1114.57</ele>
        <time>2021-03-27T13:46:21Z</time>
      </trkpt>
      <trkpt lat="42.949439" lon="-6.470214">
        <ele>1115.38</ele>
        <time>2021-03-27T13:46:26Z</time>
      </trkpt>
      <trkpt lat="42.949469" lon="-6.470004">
        <ele>1115.0</ele>
        <time>2021-03-27T13:46:30Z</time>
      </trkpt>
      <trkpt lat="42.949537" lon="-6.469708">
        <ele>1113.92</ele>
        <time>2021-03-27T13:46:34Z</time>
      </trkpt>
      <trkpt lat="42.949637" lon="-6.469386">
        <ele>1113.9</ele>
        <time>2021-03-27T13:46:39Z</time>
      </trkpt>
      <trkpt lat="42.949682" lon="-6.469163">
        <ele>1113.99</ele>
        <time>2021-03-27T13:46:43Z</time>
      </trkpt>
      <trkpt lat="42.949856" lon="-6.46672">
        <ele>1130.23</ele>
        <time>2021-03-27T13:46:47Z</time>
      </trkpt>
      <trkpt lat="42.949938" lon="-6.466396">
        <ele>1134.94</ele>
        <time>2021-03-27T13:46:52Z</time>
      </trkpt>
      <trkpt lat="42.950509" lon="-6.464876">
        <ele>1146.1</ele>
        <time>2021-03-27T13:46:56Z</time>
      </trkpt>
      <trkpt lat="42.950699" lon="-6.464265">
        <ele>1150.69</ele>
        <time>2021-03-27T13:47:00Z</time>
      </trkpt>
      <trkpt lat="42.950886" lon="-6.463267">
        <ele>1151.93</ele>
        <time>2021-03-27T13:47:04Z</time>
      </trkpt>
      <trkpt lat="42.951175" lon="-6.461532">
        <ele>1163.47</ele>
        <time>2021-03-27T13:47:09Z</time>
      </trkpt>
      <trkpt lat="42.951414" lon="-6.460491">
        <ele>1164.04</ele>
        <time>2021-03-27T13:47:13Z</time>
      </trkpt>
      <trkpt lat="42.951617" lon="-6.459829">
        <ele>1171.85</ele>
        <time>2021-03-27T13:47:17Z</time>
      </trkpt>
      <trkpt lat="42.951718" lon="-6.459593">
        <ele>1173.46</ele>
        <time>2021-03-27T13:47:22Z</time>
      </trkpt>
      <trkpt lat="42.95212" lon="-6.458993">
        <ele>1186.57</ele>
        <time>2021-03-27T13:47:26Z</time>
      </trkpt>
      <trkpt lat="42.952391" lon="-6.458446">
        <ele>1190.82</ele>
        <time>2021-03-27T13:47:30Z</time>
      </trkpt>
      <trkpt lat="42.952687" lon="-6.457713">
        <ele>1193.93</ele>
        <time>2021-03-27T13:47:35Z</time>
      </trkpt>
      <trkpt lat="42.952821" lon="-6.457447">
        <ele>1195.4</ele>
        <time>2021-03-27T13:47:39Z</time>
      </trkpt>
      <trkpt lat="42.952946" lon="-6.457262">
        <ele>1196.58</ele>
        <time>2021-03-27T13:47:43Z</time>
      </trkpt>
      <trkpt lat="42.953269" lon="-6.456849">
        <ele>1202.39</ele>
        <time>2021-03-27T13:47:48Z</time>
      </trkpt>
      <trkpt lat="42.953465" lon="-6.456535">
        <ele>1203.36</ele>
        <time>2021-03-27T13:47:52Z</time>
      </trkpt>
      <trkpt lat="42.954034" lon="-6.455348">
        <ele>1206.44</ele>
        <time>2021-03-27T13:47:56Z</time>
      </trkpt>
      <trkpt lat="42.954117" lon="-6.455131">
        <ele>1209.11</ele>
        <time>2021-03-27T13:48:01Z</time>
      </trkpt>
      <trkpt lat="42.954198" lon="-6.454885">
        <ele>1212.62</ele>
        <time>2021-03-27T13:48:05Z</time>
      </trkpt>
      <trkpt lat="42.954583" lon="-6.453336">
        <ele>1223.0</ele>
        <time>2021-03-27T13:48:09Z</time>
      </trkpt>
      <trkpt lat="42.95514" lon="-6.450769">
        <ele>1235.44</ele>
        <time>2021-03-27T13:48:13Z</time>
      </trkpt>
      <trkpt lat="42.955284" lon="-6.450283">
        <ele>1243.22</ele>
        <time>2021-03-27T13:48:18Z</time>
      </trkpt>
      <trkpt lat="42.955373" lon="-6.450035">
        <ele>1245.38</ele>
        <time>2021-03-27T13:48:22Z</time>
      </trkpt>
      <trkpt lat="42.955607" lon="-6.449527">
        <ele>1246.39</ele>
        <time>2021-03-27T13:48:26Z</time>
      </trkpt>
      <trkpt lat="42.957183" lon="-6.446457">
        <ele>1271.65</ele>
        <time>2021-03-27T13:48:31Z</time>
      </trkpt>
      <trkpt lat="42.95725" lon="-6.446276">
        <ele>1272.69</ele>
        <time>2021-03-27T13:48:35Z</time>
      </trkpt>
      <trkpt lat="42.957304" lon="-6.446041">
        <ele>1272.01</ele>
        <time>2021-03-27T13:48:39Z</time>
      </trkpt>
      <trkpt lat="42.957317" lon="-6.445856">
        <ele>1270.36</ele>
        <time>2021-03-27T13:48:44Z</time>
      </trkpt>
      <trkpt lat="42.957312" lon="-6.445634">
        <ele>1271.55</ele>
        <time>2021-03-27T13:48:48Z</time>
      </trkpt>
      <trkpt lat="42.957238" lon="-6.445077">
        <ele>1272.34</ele>
        <time>2021-03-27T13:48:52Z</time>
      </trkpt>
      <trkpt lat="42.957266" lon="-6.444631">
        <ele>1271.99</ele>
        <time>2021-03-27T13:48:57Z</time>
      </trkpt>
      <trkpt lat="42.957366" lon="-6.444212">
        <ele>1276.18</ele>
        <time>2021-03-27T13:49:01Z</time>
      </trkpt>
      <trkpt lat="42.957611" lon="-6.443661">
        <ele>1281.76</ele>
        <time>2021-03-27T13:49:05Z</time>
      </trkpt>
      <trkpt lat="42.957785" lon="-6.443046">
        <ele>1283.23</ele>
        <time>2021-03-27T13:49:10Z</time>
      </trkpt>
      <trkpt lat="42.957881" lon="-6.442871">
        <ele>1285.01</ele>
        <time>2021-03-27T13:49:14Z</time>
      </trkpt>
      <trkpt lat="42.958096" lon="-6.442688">
        <ele>1289.21</ele>
        <time>2021-03-27T13:49:18Z</time>
      </trkpt>
      <trkpt lat="42.958226" lon="-6.442608">
        <ele>1291.56</ele>
        <time>2021-03-27T13:49:22Z</time>
      </trkpt>
      <trkpt lat="42.95877" lon="-6.442353">
        <ele>1299.47</ele>
        <time>2021-03-27T13:49:27Z</time>
      </trkpt>
      <trkpt lat="42.959918" lon="-6.44186">
        <ele>1310.68</ele>
        <time>2021-03-27T13:49:31Z</time>
      </trkpt>
      <trkpt lat="42.960046" lon="-6.441707">
        <ele>1309.06</ele>
        <time>2021-03-27T13:49:35Z</time>
      </trkpt>
      <trkpt lat="42.960112" lon="-6.441563">
        <ele>1308.59</ele>
        <time>2021-03-27T13:49:40Z</time>
      </trkpt>
      <trkpt lat="42.960143" lon="-6.441374">
        <ele>1308.66</ele>
        <time>2021-03-27T13:49:44Z</time>
      </trkpt>
      <trkpt lat="42.960131" lon="-6.441169">
        <ele>1309.95</ele>
        <time>2021-03-27T13:49:48Z</time>
      </trkpt>
      <trkpt lat="42.960082" lon="-6.441017">
        <ele>1311.41</ele>
        <time>2021-03-27T13:49:53Z</time>
      </trkpt>
      <trkpt lat="42.960008" lon="-6.440892">
        <ele>1312.86</ele>
        <time>2021-03-27T13:49:57Z</time>
      </trkpt>
      <trkpt lat="42.959915" lon="-6.440788">
        <ele>1314.07</ele>
        <time>2021-03-27T13:50:01Z</time>
      </trkpt>
      <trkpt lat="42.95973" lon="-6.4407">
        <ele>1313.95</ele>
        <time>2021-03-27T13:50:06Z</time>
      </trkpt>
      <trkpt lat="42.958331" lon="-6.440459">
        <ele>1326.45</ele>
        <time>2021-03-27T13:50:10Z</time>
      </trkpt>
      <trkpt lat="42.957442" lon="-6.440259">
        <ele>1332.88</ele>
        <time>2021-03-27T13:50:14Z</time>
      </trkpt>
      <trkpt lat="42.957237" lon="-6.440273">
        <ele>1333.98</ele>
        <time>2021-03-27T13:50:19Z</time>
      </trkpt>
      <trkpt lat="42.957104" lon="-6.440318">
        <ele>1334.23</ele>
        <time>2021-03-27T13:50:23Z</time>
      </trkpt>
      <trkpt lat="42.956336" lon="-6.440661">
        <ele>1345.52</ele>
        <time>2021-03-27T13:50:27Z</time>
      </trkpt>
      <trkpt lat="42.9562" lon="-6.440751">
        <ele>1346.9</ele>
        <time>2021-03-27T13:50:31Z</time>
      </trkpt>
      <trkpt lat="42.955907" lon="-6.441011">
        <ele>1346.14</ele>
        <time>2021-03-27T13:50:36Z</time>
      </trkpt>
      <trkpt lat="42.955755" lon="-6.441092">
        <ele>1347.86</ele>
        <time>2021-03-27T13:50:40Z</time>
      </trkpt>
      <trkpt lat="42.955539" lon="-6.441124">
        <ele>1351.99</ele>
        <time>2021-03-27T13:50:44Z</time>
      </trkpt>
      <trkpt lat="42.955386" lon="-6.441099">
        <ele>1353.85</ele>
        <time>2021-03-27T13:50:49Z</time>
      </trkpt>
      <trkpt lat="42.955247" lon="-6.44105">
        <ele>1355.38</ele>
        <time>2021-03-27T13:50:53Z</time>
      </trkpt>
      <trkpt lat="42.955136" lon="-6.440977">
        <ele>1357.03</ele>
        <time>2021-03-27T13:50:57Z</time>
      </trkpt>
      <trkpt lat="42.955016" lon="-6.440867">
        <ele>1359.48</ele>
        <time>2021-03-27T13:51:02Z</time>
      </trkpt>
      <trkpt lat="42.95485" lon="-6.440635">
        <ele>1360.37</ele>
        <time>2021-03-27T13:51:06Z</time>
      </trkpt>
      <trkpt lat="42.9547" lon="-6.440201">
        <ele>1357.55</ele>
        <time>2021-03-27T13:51:10Z</time>
      </trkpt>
      <trkpt lat="42.954636" lon="-6.439771">
        <ele>1356.93</ele>
        <time>2021-03-27T13:51:15Z</time>
      </trkpt>
      <trkpt lat="42.954625" lon="-6.439308">
        <ele>1357.8</ele>
        <time>2021-03-27T13:51:19Z</time>
      </trkpt>
      <trkpt lat="42.954634" lon="-6.439044">
        <ele>1357.9</ele>
        <time>2021-03-27T13:51:23Z</time>
      </trkpt>
      <trkpt lat="42.95473" lon="-6.438345">
        <ele>1358.07</ele>
        <time>2021-03-27T13:51:28Z</time>
      </trkpt>
      <trkpt lat="42.954809" lon="-6.437932">
        <ele>1356.25</ele>
        <time>2021-03-27T13:51:32Z</time>
      </trkpt>
      <trkpt lat="42.954878" lon="-6.43769">
        <ele>1355.6</ele>
        <time>2021-03-27T13:51:36Z</time>
      </trkpt>
      <trkpt lat="42.956188" lon="-6.434683">
        <ele>1343.45</ele>
        <time>2021-03-27T13:51:40Z</time>
      </trkpt>
      <trkpt lat="42.956212" lon="-6.434373">
        <ele>1340.86</ele>
        <time>2021-03-27T13:51:45Z</time>
      </trkpt>
      <trkpt lat="42.955994" lon="-6.433536">
        <ele>1330.39</ele>
        <time>2021-03-27T13:51:49Z</time>
      </trkpt>
      <trkpt lat="42.955887" lon="-6.432437">
        <ele>1328.03</ele>
        <time>2021-03-27T13:51:53Z</time>
      </trkpt>
      <trkpt lat="42.955289" lon="-6.429663">
        <ele>1313.88</ele>
        <time>2021-03-27T13:51:58Z</time>
      </trkpt>
      <trkpt lat="42.955006" lon="-6.428121">
        <ele>1297.4</ele>
        <time>2021-03-27T13:52:02Z</time>
      </trkpt>
      <trkpt lat="42.954999" lon="-6.427786">
        <ele>1295.98</ele>
        <time>2021-03-27T13:52:06Z</time>
      </trkpt>
      <trkpt lat="42.955067" lon="-6.427259">
        <ele>1299.48</ele>
        <time>2021-03-27T13:52:11Z</time>
      </trkpt>
      <trkpt lat="42.955053" lon="-6.427046">
        <ele>1300.61</ele>
        <time>2021-03-27T13:52:15Z</time>
      </trkpt>
      <trkpt lat="42.954967" lon="-6.42688">
        <ele>1299.69</ele>
        <time>2021-03-27T13:52:19Z</time>
      </trkpt>
      <trkpt lat="42.954668" lon="-6.426798">
        <ele>1289.11</ele>
        <time>2021-03-27T13:52:24Z</time>
      </trkpt>
      <trkpt lat="42.954411" lon="-6.426484">
        <ele>1288.05</ele>
        <time>2021-03-27T13:52:28Z</time>
      </trkpt>
      <trkpt lat="42.954005" lon="-6.425832">
        <ele>1281.44</ele>
        <time>2021-03-27T13:52:32Z</time>
      </trkpt>
      <trkpt lat="42.953713" lon="-6.425012">
        <ele>1282.91</ele>
        <time>2021-03-27T13:52:37Z</time>
      </trkpt>
      <trkpt lat="42.953108" lon="-6.423779">
        <ele>1277.7</ele>
        <time>2021-03-27T13:52:41Z</time>
      </trkpt>
      <trkpt lat="42.952511" lon="-6.422483">
        <ele>1264.61</ele>
        <time>2021-03-27T13:52:45Z</time>
      </trkpt>
      <trkpt lat="42.952289" lon="-6.421709">
        <ele>1260.59</ele>
        <time>2021-03-27T13:52:49Z</time>
      </trkpt>
      <trkpt lat="42.952047" lon="-6.4192">
        <ele>1250.22</ele>
        <time>2021-03-27T13:52:54Z</time>
      </trkpt>
      <trkpt lat="42.951982" lon="-6.4179">
        <ele>1246.86</ele>
        <time>2021-03-27T13:52:58Z</time>
      </trkpt>
      <trkpt lat="42.951818" lon="-6.416613">
        <ele>1236.51</ele>
        <time>2021-03-27T13:53:02Z</time>
      </trkpt>
      <trkpt lat="42.95182" lon="-6.415897">
        <ele>1232.14</ele>
        <time>2021-03-27T13:53:07Z</time>
      </trkpt>
      <trkpt lat="42.951965" lon="-6.414977">
        <ele>1230.49</ele>
        <time>2021-03-27T13:53:11Z</time>
      </trkpt>
      <trkpt lat="42.952151" lon="-6.414086">
        <ele>1223.06</ele>
        <time>2021-03-27T13:53:15Z</time>
      </trkpt>
      <trkpt lat="42.952292" lon="-6.413925">
        <ele>1224.7</ele>
        <time>2021-03-27T13:53:20Z</time>
      </trkpt>
      <trkpt lat="42.952684" lon="-6.413677">
        <ele>1228.34</ele>
        <time>2021-03-27T13:53:24Z</time>
      </trkpt>
      <trkpt lat="42.952754" lon="-6.413575">
        <ele>1227.71</ele>
        <time>2021-03-27T13:53:28Z</time>
      </trkpt>
      <trkpt lat="42.952822" lon="-6.413417">
        <ele>1226.01</ele>
        <time>2021-03-27T13:53:33Z</time>
      </trkpt>
      <trkpt lat="42.95284" lon="-6.413084">
        <ele>1223.65</ele>
        <time>2021-03-27T13:53:37Z</time>
      </trkpt>
      <trkpt lat="42.952801" lon="-6.412756">
        <ele>1220.59</ele>
        <time>2021-03-27T13:53:41Z</time>
      </trkpt>
      <trkpt lat="42.952661" lon="-6.412362">
        <ele>1216.6</ele>
        <time>2021-03-27T13:53:45Z</time>
      </trkpt>
      <trkpt lat="42.952454" lon="-6.411926">
        <ele>1210.68</ele>
        <time>2021-03-27T13:53:50Z</time>
      </trkpt>
      <trkpt lat="42.952406" lon="-6.411755">
        <ele>1209.31</ele>
        <time>2021-03-27T13:53:54Z</time>
      </trkpt>
      <trkpt lat="42.952374" lon="-6.411543">
        <ele>1208.19</ele>
        <time>2021-03-27T13:53:58Z</time>
      </trkpt>
      <trkpt lat="42.952489" lon="-6.410639">
        <ele>1203.94</ele>
        <time>2021-03-27T13:54:03Z</time>
      </trkpt>
      <trkpt lat="42.952567" lon="-6.410418">
        <ele>1202.72</ele>
        <time>2021-03-27T13:54:07Z</time>
      </trkpt>
      <trkpt lat="42.952679" lon="-6.41029">
        <ele>1202.52</ele>
        <time>2021-03-27T13:54:11Z</time>
      </trkpt>
      <trkpt lat="42.952814" lon="-6.41023">
        <ele>1202.73</ele>
        <time>2021-03-27T13:54:16Z</time>
      </trkpt>
      <trkpt lat="42.953003" lon="-6.41021">
        <ele>1201.69</ele>
        <time>2021-03-27T13:54:20Z</time>
      </trkpt>
      <trkpt lat="42.953822" lon="-6.410302">
        <ele>1203.44</ele>
        <time>2021-03-27T13:54:24Z</time>
      </trkpt>
      <trkpt lat="42.954498" lon="-6.41056">
        <ele>1200.17</ele>
        <time>2021-03-27T13:54:29Z</time>
      </trkpt>
      <trkpt lat="42.955045" lon="-6.410631">
        <ele>1193.88</ele>
        <time>2021-03-27T13:54:33Z</time>
      </trkpt>
      <trkpt lat="42.955528" lon="-6.410771">
        <ele>1193.3</ele>
        <time>2021-03-27T13:54:37Z</time>
      </trkpt>
      <trkpt lat="42.956506" lon="-6.411323">
        <ele>1194.52</ele>
        <time>2021-03-27T13:54:42Z</time>
      </trkpt>
      <trkpt lat="42.956997" lon="-6.411528">
        <ele>1188.41</ele>
        <time>2021-03-27T13:54:46Z</time>
      </trkpt>
      <trkpt lat="42.957379" lon="-6.411753">
        <ele>1183.12</ele>
        <time>2021-03-27T13:54:50Z</time>
      </trkpt>
      <trkpt lat="42.958227" lon="-6.412484">
        <ele>1182.23</ele>
        <time>2021-03-27T13:54:54Z</time>
      </trkpt>
      <trkpt lat="42.958441" lon="-6.412587">
        <ele>1179.52</ele>
        <time>2021-03-27T13:54:59Z</time>
      </trkpt>
      <trkpt lat="42.958619" lon="-6.412535">
        <ele>1173.32</ele>
        <time>2021-03-27T13:55:03Z</time>
      </trkpt>
      <trkpt lat="42.958709" lon="-6.412407">
        <ele>1167.98</ele>
        <time>2021-03-27T13:55:07Z</time>
      </trkpt>
      <trkpt lat="42.958798" lon="-6.412169">
        <ele>1162.9</ele>
        <time>2021-03-27T13:55:12Z</time>
      </trkpt>
      <trkpt lat="42.958816" lon="-6.411995">
        <ele>1162.78</ele>
        <time>2021-03-27T13:55:16Z</time>
      </trkpt>
      <trkpt lat="42.958774" lon="-6.411809">
        <ele>1163.11</ele>
        <time>2021-03-27T13:55:20Z</time>
      </trkpt>
      <trkpt lat="42.958639" lon="-6.411552">
        <ele>1162.85</ele>
        <time>2021-03-27T13:55:25Z</time>
      </trkpt>
      <trkpt lat="42.957531" lon="-6.40976">
        <ele>1159.06</ele>
        <time>2021-03-27T13:55:29Z</time>
      </trkpt>
      <trkpt lat="42.956955" lon="-6.409142">
        <ele>1147.94</ele>
        <time>2021-03-27T13:55:33Z</time>
      </trkpt>
      <trkpt lat="42.956027" lon="-6.408201">
        <ele>1141.86</ele>
        <time>2021-03-27T13:55:38Z</time>
      </trkpt>
      <trkpt lat="42.955662" lon="-6.407784">
        <ele>1142.83</ele>
        <time>2021-03-27T13:55:42Z</time>
      </trkpt>
      <trkpt lat="42.954725" lon="-6.405904">
        <ele>1131.06</ele>
        <time>2021-03-27T13:55:46Z</time>
      </trkpt>
      <trkpt lat="42.954588" lon="-6.405687">
        <ele>1129.58</ele>
        <time>2021-03-27T13:55:51Z</time>
      </trkpt>
      <trkpt lat="42.954482" lon="-6.405571">
        <ele>1127.05</ele>
        <time>2021-03-27T13:55:55Z</time>
      </trkpt>
      <trkpt lat="42.954198" lon="-6.405342">
        <ele>1124.47</ele>
        <time>2021-03-27T13:55:59Z</time>
      </trkpt>
      <trkpt lat="42.953695" lon="-6.404995">
        <ele>1116.75</ele>
        <time>2021-03-27T13:56:03Z</time>
      </trkpt>
      <trkpt lat="42.953432" lon="-6.404614">
        <ele>1116.12</ele>
        <time>2021-03-27T13:56:08Z</time>
      </trkpt>
      <trkpt lat="42.952783" lon="-6.403359">
        <ele>1117.79</ele>
        <time>2021-03-27T13:56:12Z</time>
      </trkpt>
      <trkpt lat="42.952071" lon="-6.401818">
        <ele>1105.16</ele>
        <time>2021-03-27T13:56:16Z</time>
      </trkpt>
      <trkpt lat="42.950778" lon="-6.398801">
        <ele>1092.38</ele>
        <time>2021-03-27T13:56:21Z</time>
      </trkpt>
      <trkpt lat="42.950664" lon="-6.398466">
        <ele>1092.29</ele>
        <time>2021-03-27T13:56:25Z</time>
      </trkpt>
      <trkpt lat="42.950227" lon="-6.396719">
        <ele>1084.7</ele>
        <time>2021-03-27T13:56:29Z</time>
      </trkpt>
      <trkpt lat="42.949673" lon="-6.39504">
        <ele>1084.21</ele>
        <time>2021-03-27T13:56:34Z</time>
      </trkpt>
      <trkpt lat="42.94945" lon="-6.394409">
        <ele>1081.06</ele>
        <time>2021-03-27T13:56:38Z</time>
      </trkpt>
      <trkpt lat="42.949403" lon="-6.394233">
        <ele>1080.67</ele>
        <time>2021-03-27T13:56:42Z</time>
      </trkpt>
      <trkpt lat="42.949367" lon="-6.393985">
        <ele>1080.26</ele>
        <time>2021-03-27T13:56:47Z</time>
      </trkpt>
      <trkpt lat="42.948871" lon="-6.389493">
        <ele>1077.78</ele>
        <time>2021-03-27T13:56:51Z</time>
      </trkpt>
      <trkpt lat="42.94887" lon="-6.38928">
        <ele>1077.55</ele>
        <time>2021-03-27T13:56:55Z</time>
      </trkpt>
      <trkpt lat="42.949379" lon="-6.385504">
        <ele>1072.38</ele>
        <time>2021-03-27T13:57:00Z</time>
      </trkpt>
      <trkpt lat="42.949456" lon="-6.381544">
        <ele>1068.68</ele>
        <time>2021-03-27T13:57:04Z</time>
      </trkpt>
      <trkpt lat="42.949797" lon="-6.37981">
        <ele>1065.36</ele>
        <time>2021-03-27T13:57:08Z</time>
      </trkpt>
      <trkpt lat="42.950793" lon="-6.378354">
        <ele>1059.7</ele>
        <time>2021-03-27T13:57:12Z</time>
      </trkpt>
      <trkpt lat="42.951854" lon="-6.376333">
        <ele>1049.15</ele>
        <time>2021-03-27T13:57:17Z</time>
      </trkpt>
      <trkpt lat="42.951963" lon="-6.375164">
        <ele>1048.67</ele>
        <time>2021-03-27T13:57:21Z</time>
      </trkpt>
      <trkpt lat="42.952104" lon="-6.373404">
        <ele>1037.82</ele>
        <time>2021-03-27T13:57:25Z</time>
      </trkpt>
      <trkpt lat="42.951977" lon="-6.372849">
        <ele>1035.22</ele>
        <time>2021-03-27T13:57:30Z</time>
      </trkpt>
      <trkpt lat="42.952036" lon="-6.372017">
        <ele>1037.05</ele>
        <time>2021-03-27T13:57:34Z</time>
      </trkpt>
      <trkpt lat="42.952229" lon="-6.372078">
        <ele>1037.61</ele>
        <time>2021-03-27T13:57:36Z</time>
      </trkpt>
      <trkpt lat="42.952573" lon="-6.372073">
        <ele>1040.29</ele>
        <time>2021-03-27T13:57:38Z</time>
      </trkpt>
      <trkpt lat="42.952769" lon="-6.372238">
        <ele>1037.7</ele>
        <time>2021-03-27T13:57:40Z</time>
      </trkpt>
      <trkpt lat="42.953072" lon="-6.372698">
        <ele>1034.23</ele>
        <time>2021-03-27T13:57:42Z</time>
      </trkpt>
      <trkpt lat="42.953123" lon="-6.372736">
        <ele>1035.09</ele>
        <time>2021-03-27T13:57:44Z</time>
      </trkpt>
      <trkpt lat="42.953648" lon="-6.373595">
        <ele>1041.22</ele>
        <time>2021-03-27T13:57:46Z</time>
      </trkpt>
      <trkpt lat="42.953883" lon="-6.373941">
        <ele>1041.92</ele>
        <time>2021-03-27T13:57:48Z</time>
      </trkpt>
      <trkpt lat="42.954035" lon="-6.374033">
        <ele>1042.52</ele>
        <time>2021-03-27T13:57:50Z</time>
      </trkpt>
      <trkpt lat="42.954703" lon="-6.374109">
        <ele>1053.09</ele>
        <time>2021-03-27T13:57:51Z</time>
      </trkpt>
      <trkpt lat="42.954975" lon="-6.374359">
        <ele>1051.93</ele>
        <time>2021-03-27T13:57:53Z</time>
      </trkpt>
      <trkpt lat="42.955201" lon="-6.37464">
        <ele>1050.47</ele>
        <time>2021-03-27T13:57:55Z</time>
      </trkpt>
      <trkpt lat="42.955953" lon="-6.375137">
        <ele>1055.99</ele>
        <time>2021-03-27T13:57:57Z</time>
      </trkpt>
      <trkpt lat="42.956382" lon="-6.375517">
        <ele>1048.6</ele>
        <time>2021-03-27T13:57:59Z</time>
      </trkpt>
      <trkpt lat="42.956633" lon="-6.375709">
        <ele>1051.91</ele>
        <time>2021-03-27T13:58:01Z</time>
      </trkpt>
      <trkpt lat="42.956748" lon="-6.37571">
        <ele>1053.39</ele>
        <time>2021-03-27T13:58:03Z</time>
      </trkpt>
      <trkpt lat="42.956831" lon="-6.375634">
        <ele>1055.43</ele>
        <time>2021-03-27T13:58:05Z</time>
      </trkpt>
      <trkpt lat="42.956862" lon="-6.375452">
        <ele>1059.56</ele>
        <time>2021-03-27T13:58:07Z</time>
      </trkpt>
      <trkpt lat="42.956778" lon="-6.375275">
        <ele>1062.09</ele>
        <time>2021-03-27T13:58:09Z</time>
      </trkpt>
      <trkpt lat="42.956437" lon="-6.375055">
        <ele>1062.05</ele>
        <time>2021-03-27T13:58:11Z</time>
      </trkpt>
      <trkpt lat="42.956166" lon="-6.374905">
        <ele>1065.92</ele>
        <time>2021-03-27T13:58:13Z</time>
      </trkpt>
      <trkpt lat="42.955854" lon="-6.374681">
        <ele>1061.2</ele>
        <time>2021-03-27T13:58:15Z</time>
      </trkpt>
      <trkpt lat="42.95569" lon="-6.374379">
        <ele>1067.35</ele>
        <time>2021-03-27T13:58:16Z</time>
      </trkpt>
      <trkpt lat="42.955117" lon="-6.373931">
        <ele>1067.4</ele>
        <time>2021-03-27T13:58:18Z</time>
      </trkpt>
      <trkpt lat="42.954777" lon="-6.37352">
        <ele>1070.17</ele>
        <time>2021-03-27T13:58:20Z</time>
      </trkpt>
      <trkpt lat="42.954671" lon="-6.373287">
        <ele>1072.76</ele>
        <time>2021-03-27T13:58:22Z</time>
      </trkpt>
      <trkpt lat="42.954636" lon="-6.373084">
        <ele>1074.43</ele>
        <time>2021-03-27T13:58:24Z</time>
      </trkpt>
      <trkpt lat="42.954659" lon="-6.372966">
        <ele>1075.65</ele>
        <time>2021-03-27T13:58:26Z</time>
      </trkpt>
      <trkpt lat="42.954707" lon="-6.372851">
        <ele>1077.31</ele>
        <time>2021-03-27T13:58:28Z</time>
      </trkpt>
      <trkpt lat="42.955005" lon="-6.372616">
        <ele>1082.69</ele>
        <time>2021-03-27T13:58:30Z</time>
      </trkpt>
      <trkpt lat="42.95504" lon="-6.372549">
        <ele>1083.56</ele>
        <time>2021-03-27T13:58:32Z</time>
      </trkpt>
      <trkpt lat="42.95504" lon="-6.372417">
        <ele>1083.72</ele>
        <time>2021-03-27T13:58:34Z</time>
      </trkpt>
      <trkpt lat="42.955015" lon="-6.372362">
        <ele>1083.27</ele>
        <time>2021-03-27T13:58:36Z</time>
      </trkpt>
      <trkpt lat="42.954846" lon="-6.372208">
        <ele>1082.2</ele>
        <time>2021-03-27T13:58:38Z</time>
      </trkpt>
      <trkpt lat="42.954693" lon="-6.372091">
        <ele>1082.63</ele>
        <time>2021-03-27T13:58:40Z</time>
      </trkpt>
      <trkpt lat="42.954321" lon="-6.371877">
        <ele>1076.79</ele>
        <time>2021-03-27T13:58:41Z</time>
      </trkpt>
      <trkpt lat="42.95418" lon="-6.371745">
        <ele>1074.55</ele>
        <time>2021-03-27T13:58:43Z</time>
      </trkpt>
      <trkpt lat="42.95398" lon="-6.371484">
        <ele>1074.99</ele>
        <time>2021-03-27T13:58:45Z</time>
      </trkpt>
      <trkpt lat="42.953702" lon="-6.37105">
        <ele>1073.49</ele>
        <time>2021-03-27T13:58:47Z</time>
      </trkpt>
      <trkpt lat="42.953666" lon="-6.370969">
        <ele>1073.54</ele>
        <time>2021-03-27T13:58:49Z</time>
      </trkpt>
      <trkpt lat="42.953666" lon="-6.370851">
        <ele>1076.04</ele>
        <time>2021-03-27T13:58:51Z</time>
      </trkpt>
      <trkpt lat="42.953717" lon="-6.370766">
        <ele>1079.53</ele>
        <time>2021-03-27T13:58:53Z</time>
      </trkpt>
      <trkpt lat="42.953756" lon="-6.370737">
        <ele>1081.63</ele>
        <time>2021-03-27T13:58:55Z</time>
      </trkpt>
      <trkpt lat="42.953841" lon="-6.370751">
        <ele>1085.14</ele>
        <time>2021-03-27T13:58:57Z</time>
      </trkpt>
      <trkpt lat="42.954598" lon="-6.371655">
        <ele>1091.74</ele>
        <time>2021-03-27T13:58:59Z</time>
      </trkpt>
      <trkpt lat="42.954693" lon="-6.371732">
        <ele>1092.09</ele>
        <time>2021-03-27T13:59:01Z</time>
      </trkpt>
      <trkpt lat="42.954782" lon="-6.371777">
        <ele>1092.65</ele>
        <time>2021-03-27T13:59:03Z</time>
      </trkpt>
      <trkpt lat="42.955245" lon="-6.371904">
        <ele>1095.11</ele>
        <time>2021-03-27T13:59:04Z</time>
      </trkpt>
      <trkpt lat="42.955349" lon="-6.371909">
        <ele>1096.71</ele>
        <time>2021-03-27T13:59:06Z</time>
      </trkpt>
      <trkpt lat="42.955724" lon="-6.371774">
        <ele>1107.1</ele>
        <time>2021-03-27T13:59:08Z</time>
      </trkpt>
      <trkpt lat="42.955825" lon="-6.371783">
        <ele>1108.51</ele>
        <time>2021-03-27T13:59:10Z</time>
      </trkpt>
      <trkpt lat="42.955891" lon="-6.371856">
        <ele>1107.52</ele>
        <time>2021-03-27T13:59:12Z</time>
      </trkpt>
      <trkpt lat="42.95593" lon="-6.371956">
        <ele>1105.98</ele>
        <time>2021-03-27T13:59:14Z</time>
      </trkpt>
      <trkpt lat="42.955914" lon="-6.372095">
        <ele>1104.12</ele>
        <time>2021-03-27T13:59:16Z</time>
      </trkpt>
      <trkpt lat="42.955806" lon="-6.372394">
        <ele>1100.29</ele>
        <time>2021-03-27T13:59:18Z</time>
      </trkpt>
      <trkpt lat="42.955796" lon="-6.372713">
        <ele>1100.14</ele>
        <time>2021-03-27T13:59:20Z</time>
      </trkpt>
      <trkpt lat="42.955852" lon="-6.372908">
        <ele>1101.54</ele>
        <time>2021-03-27T13:59:22Z</time>
      </trkpt>
      <trkpt lat="42.956524" lon="-6.374011">
        <ele>1103.28</ele>
        <time>2021-03-27T13:59:24Z</time>
      </trkpt>
      <trkpt lat="42.956673" lon="-6.374199">
        <ele>1104.88</ele>
        <time>2021-03-27T13:59:26Z</time>
      </trkpt>
      <trkpt lat="42.956934" lon="-6.374399">
        <ele>1105.92</ele>
        <time>2021-03-27T13:59:28Z</time>
      </trkpt>
      <trkpt lat="42.957548" lon="-6.374597">
        <ele>1114.39</ele>
        <time>2021-03-27T13:59:29Z</time>
      </trkpt>
      <trkpt lat="42.957694" lon="-6.374676">
        <ele>1114.91</ele>
        <time>2021-03-27T13:59:31Z</time>
      </trkpt>
      <trkpt lat="42.957913" lon="-6.374891">
        <ele>1113.56</ele>
        <time>2021-03-27T13:59:33Z</time>
      </trkpt>
      <trkpt lat="42.958526" lon="-6.375642">
        <ele>1122.7</ele>
        <time>2021-03-27T13:59:35Z</time>
      </trkpt>
      <trkpt lat="42.958874" lon="-6.376112">
        <ele>1122.21</ele>
        <time>2021-03-27T13:59:37Z</time>
      </trkpt>
      <trkpt lat="42.95999" lon="-6.377915">
        <ele>1134.96</ele>
        <time>2021-03-27T13:59:39Z</time>
      </trkpt>
      <trkpt lat="42.960138" lon="-6.378133">
        <ele>1133.93</ele>
        <time>2021-03-27T13:59:41Z</time>
      </trkpt>
      <trkpt lat="42.960315" lon="-6.378313">
        <ele>1134.59</ele>
        <time>2021-03-27T13:59:43Z</time>
      </trkpt>
      <trkpt lat="42.960513" lon="-6.378446">
        <ele>1134.13</ele>
        <time>2021-03-27T13:59:45Z</time>
      </trkpt>
      <trkpt lat="42.960702" lon="-6.37851">
        <ele>1132.26</ele>
        <time>2021-03-27T13:59:47Z</time>
      </trkpt>
      <trkpt lat="42.960894" lon="-6.378539">
        <ele>1133.2</ele>
        <time>2021-03-27T13:59:49Z</time>
      </trkpt>
      <trkpt lat="42.961452" lon="-6.378508">
        <ele>1152.04</ele>
        <time>2021-03-27T13:59:51Z</time>
      </trkpt>
      <trkpt lat="42.961548" lon="-6.378532">
        <ele>1151.83</ele>
        <time>2021-03-27T13:59:53Z</time>
      </trkpt>
      <trkpt lat="42.961619" lon="-6.378579">
        <ele>1151.11</ele>
        <time>2021-03-27T13:59:54Z</time>
      </trkpt>
      <trkpt lat="42.961689" lon="-6.378712">
        <ele>1150.58</ele>
        <time>2021-03-27T13:59:56Z</time>
      </trkpt>
      <trkpt lat="42.961724" lon="-6.378867">
        <ele>1150.09</ele>
        <time>2021-03-27T13:59:58Z</time>
      </trkpt>
      <trkpt lat="42.961719" lon="-6.379305">
        <ele>1143.17</ele>
        <time>2021-03-27T14:00:00Z</time>
      </trkpt>
      <trkpt lat="42.961759" lon="-6.379494">
        <ele>1140.94</ele>
        <time>2021-03-27T14:00:02Z</time>
      </trkpt>
      <trkpt lat="42.961825" lon="-6.379647">
        <ele>1140.46</ele>
        <time>2021-03-27T14:00:04Z</time>
      </trkpt>
      <trkpt lat="42.961906" lon="-6.379745">
        <ele>1142.12</ele>
        <time>2021-03-27T14:00:06Z</time>
      </trkpt>
      <trkpt lat="42.962016" lon="-6.379814">
        <ele>1145.92</ele>
        <time>2021-03-27T14:00:08Z</time>
      </trkpt>
      <trkpt lat="42.962354" lon="-6.379897">
        <ele>1157.59</ele>
        <time>2021-03-27T14:00:10Z</time>
      </trkpt>
      <trkpt lat="42.962473" lon="-6.380012">
        <ele>1159.81</ele>
        <time>2021-03-27T14:00:12Z</time>
      </trkpt>
      <trkpt lat="42.962544" lon="-6.380142">
        <ele>1160.26</ele>
        <time>2021-03-27T14:00:14Z</time>
      </trkpt>
      <trkpt lat="42.962612" lon="-6.380362">
        <ele>1160.34</ele>
        <time>2021-03-27T14:00:16Z</time>
      </trkpt>
      <trkpt lat="42.962794" lon="-6.381248">
        <ele>1160.92</ele>
        <time>2021-03-27T14:00:17Z</time>
      </trkpt>
      <trkpt lat="42.962824" lon="-6.381601">
        <ele>1158.83</ele>
        <time>2021-03-27T14:00:19Z</time>
      </trkpt>
      <trkpt lat="42.962874" lon="-6.381815">
        <ele>1158.71</ele>
        <time>2021-03-27T14:00:21Z</time>
      </trkpt>
      <trkpt lat="42.963015" lon="-6.382084">
        <ele>1160.77</ele>
        <time>2021-03-27T14:00:23Z</time>
      </trkpt>
      <trkpt lat="42.96389" lon="-6.383145">
        <ele>1166.07</ele>
        <time>2021-03-27T14:00:25Z</time>
      </trkpt>
      <trkpt lat="42.963972" lon="-6.383184">
        <ele>1165.51</ele>
        <time>2021-03-27T14:00:27Z</time>
      </trkpt>
      <trkpt lat="42.964068" lon="-6.3832">
        <ele>1165.51</ele>
        <time>2021-03-27T14:00:29Z</time>
      </trkpt>
      <trkpt lat="42.964704" lon="-6.38302">
        <ele>1173.08</ele>
        <time>2021-03-27T14:00:31Z</time>
      </trkpt>
      <trkpt lat="42.964849" lon="-6.382945">
        <ele>1176.03</ele>
        <time>2021-03-27T14:00:33Z</time>
      </trkpt>
      <trkpt lat="42.964957" lon="-6.382848">
        <ele>1178.11</ele>
        <time>2021-03-27T14:00:35Z</time>
      </trkpt>
      <trkpt lat="42.96507" lon="-6.382593">
        <ele>1179.72</ele>
        <time>2021-03-27T14:00:37Z</time>
      </trkpt>
      <trkpt lat="42.965137" lon="-6.382268">
        <ele>1181.11</ele>
        <time>2021-03-27T14:00:39Z</time>
      </trkpt>
      <trkpt lat="42.965219" lon="-6.382024">
        <ele>1185.47</ele>
        <time>2021-03-27T14:00:41Z</time>
      </trkpt>
      <trkpt lat="42.965292" lon="-6.3819">
        <ele>1188.28</ele>
        <time>2021-03-27T14:00:42Z</time>
      </trkpt>
      <trkpt lat="42.965557" lon="-6.381672">
        <ele>1192.8</ele>
        <time>2021-03-27T14:00:44Z</time>
      </trkpt>
      <trkpt lat="42.966533" lon="-6.381456">
        <ele>1189.62</ele>
        <time>2021-03-27T14:00:46Z</time>
      </trkpt>
      <trkpt lat="42.967095" lon="-6.381384">
        <ele>1192.3</ele>
        <time>2021-03-27T14:00:48Z</time>
      </trkpt>
      <trkpt lat="42.967565" lon="-6.381457">
        <ele>1195.58</ele>
        <time>2021-03-27T14:00:50Z</time>
      </trkpt>
      <trkpt lat="42.96801" lon="-6.381611">
        <ele>1205.02</ele>
        <time>2021-03-27T14:00:52Z</time>
      </trkpt>
      <trkpt lat="42.968687" lon="-6.382035">
        <ele>1202.07</ele>
        <time>2021-03-27T14:00:54Z</time>
      </trkpt>
      <trkpt lat="42.969204" lon="-6.382391">
        <ele>1206.64</ele>
        <time>2021-03-27T14:00:56Z</time>
      </trkpt>
      <trkpt lat="42.969244" lon="-6.382474">
        <ele>1205.63</ele>
        <time>2021-03-27T14:00:58Z</time>
      </trkpt>
      <trkpt lat="42.969266" lon="-6.382591">
        <ele>1205.05</ele>
        <time>2021-03-27T14:01:00Z</time>
      </trkpt>
      <trkpt lat="42.969247" lon="-6.383005">
        <ele>1207.54</ele>
        <time>2021-03-27T14:01:02Z</time>
      </trkpt>
      <trkpt lat="42.969224" lon="-6.383152">
        <ele>1209.67</ele>
        <time>2021-03-27T14:01:04Z</time>
      </trkpt>
      <trkpt lat="42.969133" lon="-6.383309">
        <ele>1211.27</ele>
        <time>2021-03-27T14:01:05Z</time>
      </trkpt>
      <trkpt lat="42.96855" lon="-6.38396">
        <ele>1214.53</ele>
        <time>2021-03-27T14:01:07Z</time>
      </trkpt>
      <trkpt lat="42.968255" lon="-6.384248">
        <ele>1219.59</ele>
        <time>2021-03-27T14:01:09Z</time>
      </trkpt>
      <trkpt lat="42.967619" lon="-6.384744">
        <ele>1218.83</ele>
        <time>2021-03-27T14:01:11Z</time>
      </trkpt>
      <trkpt lat="42.967455" lon="-6.384903">
        <ele>1218.46</ele>
        <time>2021-03-27T14:01:13Z</time>
      </trkpt>
      <trkpt lat="42.967289" lon="-6.385116">
        <ele>1217.16</ele>
        <time>2021-03-27T14:01:15Z</time>
      </trkpt>
      <trkpt lat="42.96719" lon="-6.385309">
        <ele>1217.13</ele>
        <time>2021-03-27T14:01:17Z</time>
      </trkpt>
      <trkpt lat="42.967122" lon="-6.385557">
        <ele>1218.61</ele>
        <time>2021-03-27T14:01:19Z</time>
      </trkpt>
      <trkpt lat="42.967103" lon="-6.385735">
        <ele>1219.49</ele>
        <time>2021-03-27T14:01:21Z</time>
      </trkpt>
      <trkpt lat="42.967104" lon="-6.385944">
        <ele>1220.44</ele>
        <time>2021-03-27T14:01:23Z</time>
      </trkpt>
      <trkpt lat="42.967128" lon="-6.386159">
        <ele>1221.51</ele>
        <time>2021-03-27T14:01:25Z</time>
      </trkpt>
      <trkpt lat="42.967396" lon="-6.387163">
        <ele>1227.56</ele>
        <time>2021-03-27T14:01:27Z</time>
      </trkpt>
      <trkpt lat="42.967575" lon="-6.387668">
        <ele>1233.55</ele>
        <time>2021-03-27T14:01:29Z</time>
      </trkpt>
      <trkpt lat="42.967617" lon="-6.388097">
        <ele>1233.3</ele>
        <time>2021-03-27T14:01:30Z</time>
      </trkpt>
      <trkpt lat="42.967672" lon="-6.388299">
        <ele>1233.16</ele>
        <time>2021-03-27T14:01:32Z</time>
      </trkpt>
      <trkpt lat="42.9678" lon="-6.388589">
        <ele>1232.68</ele>
        <time>2021-03-27T14:01:34Z</time>
      </trkpt>
      <trkpt lat="42.968111" lon="-6.389071">
        <ele>1239.09</ele>
        <time>2021-03-27T14:01:36Z</time>
      </trkpt>
      <trkpt lat="42.968189" lon="-6.389354">
        <ele>1238.12</ele>
        <time>2021-03-27T14:01:38Z</time>
      </trkpt>
      <trkpt lat="42.968315" lon="-6.38999">
        <ele>1239.89</ele>
        <time>2021-03-27T14:01:40Z</time>
      </trkpt>
      <trkpt lat="42.968568" lon="-6.390764">
        <ele>1245.35</ele>
        <time>2021-03-27T14:01:42Z</time>
      </trkpt>
      <trkpt lat="42.968609" lon="-6.391225">
        <ele>1241.85</ele>
        <time>2021-03-27T14:01:44Z</time>
      </trkpt>
      <trkpt lat="42.968658" lon="-6.391412">
        <ele>1241.12</ele>
        <time>2021-03-27T14:01:46Z</time>
      </trkpt>
      <trkpt lat="42.968823" lon="-6.391797">
        <ele>1245.39</ele>
        <time>2021-03-27T14:01:48Z</time>
      </trkpt>
      <trkpt lat="42.969001" lon="-6.392158">
        <ele>1248.15</ele>
        <time>2021-03-27T14:01:50Z</time>
      </trkpt>
      <trkpt lat="42.969231" lon="-6.392533">
        <ele>1251.48</ele>
        <time>2021-03-27T14:01:52Z</time>
      </trkpt>
      <trkpt lat="42.969543" lon="-6.392869">
        <ele>1254.92</ele>
        <time>2021-03-27T14:01:54Z</time>
      </trkpt>
      <trkpt lat="42.970371" lon="-6.393698">
        <ele>1264.53</ele>
        <time>2021-03-27T14:01:55Z</time>
      </trkpt>
      <trkpt lat="42.970457" lon="-6.393987">
        <ele>1264.33</ele>
        <time>2021-03-27T14:01:57Z</time>
      </trkpt>
      <trkpt lat="42.970463" lon="-6.394279">
        <ele>1262.61</ele>
        <time>2021-03-27T14:01:59Z</time>
      </trkpt>
      <trkpt lat="42.970442" lon="-6.394534">
        <ele>1260.76</ele>
        <time>2021-03-27T14:02:01Z</time>
      </trkpt>
      <trkpt lat="42.970439" lon="-6.394814">
        <ele>1260.1</ele>
        <time>2021-03-27T14:02:03Z</time>
      </trkpt>
      <trkpt lat="42.970486" lon="-6.395052">
        <ele>1262.01</ele>
        <time>2021-03-27T14:02:05Z</time>
      </trkpt>
      <trkpt lat="42.970544" lon="-6.395254">
        <ele>1262.84</ele>
        <time>2021-03-27T14:02:07Z</time>
      </trkpt>
      <trkpt lat="42.971375" lon="-6.396948">
        <ele>1277.54</ele>
        <time>2021-03-27T14:02:09Z</time>
      </trkpt>
      <trkpt lat="42.971394" lon="-6.397114">
        <ele>1277.55</ele>
        <time>2021-03-27T14:02:11Z</time>
      </trkpt>
      <trkpt lat="42.971388" lon="-6.397581">
        <ele>1277.7</ele>
        <time>2021-03-27T14:02:13Z</time>
      </trkpt>
      <trkpt lat="42.971408" lon="-6.397767">
        <ele>1277.86</ele>
        <time>2021-03-27T14:02:15Z</time>
      </trkpt>
      <trkpt lat="42.971448" lon="-6.397966">
        <ele>1278.3</ele>
        <time>2021-03-27T14:02:17Z</time>
      </trkpt>
      <trkpt lat="42.971515" lon="-6.398163">
        <ele>1277.56</ele>
        <time>2021-03-27T14:02:18Z</time>
      </trkpt>
      <trkpt lat="42.97193" lon="-6.399089">
        <ele>1276.8</ele>
        <time>2021-03-27T14:02:20Z</time>
      </trkpt>
      <trkpt lat="42.972117" lon="-6.399575">
        <ele>1285.98</ele>
        <time>2021-03-27T14:02:22Z</time>
      </trkpt>
      <trkpt lat="42.972196" lon="-6.399658">
        <ele>1287.81</ele>
        <time>2021-03-27T14:02:24Z</time>
      </trkpt>
      <trkpt lat="42.972285" lon="-6.399667">
        <ele>1291.44</ele>
        <time>2021-03-27T14:02:26Z</time>
      </trkpt>
      <trkpt lat="42.972365" lon="-6.399611">
        <ele>1295.89</ele>
        <time>2021-03-27T14:02:28Z</time>
      </trkpt>
      <trkpt lat="42.972413" lon="-6.399503">
        <ele>1299.58</ele>
        <time>2021-03-27T14:02:30Z</time>
      </trkpt>
      <trkpt lat="42.972405" lon="-6.399366">
        <ele>1300.41</ele>
        <time>2021-03-27T14:02:32Z</time>
      </trkpt>
      <trkpt lat="42.971831" lon="-6.398141">
        <ele>1290.71</ele>
        <time>2021-03-27T14:02:34Z</time>
      </trkpt>
      <trkpt lat="42.971785" lon="-6.39796">
        <ele>1291.68</ele>
        <time>2021-03-27T14:02:36Z</time>
      </trkpt>
      <trkpt lat="42.971776" lon="-6.397727">
        <ele>1293.47</ele>
        <time>2021-03-27T14:02:38Z</time>
      </trkpt>
      <trkpt lat="42.971811" lon="-6.39754">
        <ele>1293.95</ele>
        <time>2021-03-27T14:02:40Z</time>
      </trkpt>
      <trkpt lat="42.971886" lon="-6.397364">
        <ele>1294.94</ele>
        <time>2021-03-27T14:02:42Z</time>
      </trkpt>
      <trkpt lat="42.972221" lon="-6.396963">
        <ele>1298.39</ele>
        <time>2021-03-27T14:02:43Z</time>
      </trkpt>
      <trkpt lat="42.972258" lon="-6.396851">
        <ele>1300.66</ele>
        <time>2021-03-27T14:02:45Z</time>
      </trkpt>
      <trkpt lat="42.972258" lon="-6.396735">
        <ele>1301.83</ele>
        <time>2021-03-27T14:02:47Z</time>
      </trkpt>
      <trkpt lat="42.972211" lon="-6.396579">
        <ele>1302.23</ele>
        <time>2021-03-27T14:02:49Z</time>
      </trkpt>
      <trkpt lat="42.972152" lon="-6.396496">
        <ele>1301.81</ele>
        <time>2021-03-27T14:02:51Z</time>
      </trkpt>
      <trkpt lat="42.971794" lon="-6.39626">
        <ele>1298.58</ele>
        <time>2021-03-27T14:02:53Z</time>
      </trkpt>
      <trkpt lat="42.971655" lon="-6.396116">
        <ele>1299.57</ele>
        <time>2021-03-27T14:02:55Z</time>
      </trkpt>
      <trkpt lat="42.971561" lon="-6.395962">
        <ele>1299.3</ele>
        <time>2021-03-27T14:02:57Z</time>
      </trkpt>
      <trkpt lat="42.971513" lon="-6.395794">
        <ele>1300.43</ele>
        <time>2021-03-27T14:02:59Z</time>
      </trkpt>
      <trkpt lat="42.971514" lon="-6.395622">
        <ele>1301.74</ele>
        <time>2021-03-27T14:03:01Z</time>
      </trkpt>
      <trkpt lat="42.971572" lon="-6.395498">
        <ele>1302.67</ele>
        <time>2021-03-27T14:03:03Z</time>
      </trkpt>
      <trkpt lat="42.971658" lon="-6.395406">
        <ele>1303.22</ele>
        <time>2021-03-27T14:03:05Z</time>
      </trkpt>
      <trkpt lat="42.971765" lon="-6.395373">
        <ele>1304.09</ele>
        <time>2021-03-27T14:03:07Z</time>
      </trkpt>
      <trkpt lat="42.972177" lon="-6.395445">
        <ele>1310.16</ele>
        <time>2021-03-27T14:03:08Z</time>
      </trkpt>
      <trkpt lat="42.972296" lon="-6.395433">
        <ele>1312.81</ele>
        <time>2021-03-27T14:03:10Z</time>
      </trkpt>
      <trkpt lat="42.972371" lon="-6.395369">
        <ele>1314.27</ele>
        <time>2021-03-27T14:03:12Z</time>
      </trkpt>
      <trkpt lat="42.972429" lon="-6.395258">
        <ele>1314.94</ele>
        <time>2021-03-27T14:03:14Z</time>
      </trkpt>
      <trkpt lat="42.972448" lon="-6.395162">
        <ele>1315.6</ele>
        <time>2021-03-27T14:03:16Z</time>
      </trkpt>
      <trkpt lat="42.972428" lon="-6.394988">
        <ele>1314.95</ele>
        <time>2021-03-27T14:03:18Z</time>
      </trkpt>
      <trkpt lat="42.972078" lon="-6.393695">
        <ele>1316.03</ele>
        <time>2021-03-27T14:03:20Z</time>
      </trkpt>
      <trkpt lat="42.972025" lon="-6.393595">
        <ele>1316.35</ele>
        <time>2021-03-27T14:03:22Z</time>
      </trkpt>
      <trkpt lat="42.971953" lon="-6.393537">
        <ele>1315.22</ele>
        <time>2021-03-27T14:03:24Z</time>
      </trkpt>
      <trkpt lat="42.971858" lon="-6.393501">
        <ele>1314.6</ele>
        <time>2021-03-27T14:03:26Z</time>
      </trkpt>
      <trkpt lat="42.9716" lon="-6.393536">
        <ele>1310.93</ele>
        <time>2021-03-27T14:03:28Z</time>
      </trkpt>
      <trkpt lat="42.971451" lon="-6.393537">
        <ele>1309.98</ele>
        <time>2021-03-27T14:03:30Z</time>
      </trkpt>
      <trkpt lat="42.971353" lon="-6.393513">
        <ele>1309.25</ele>
        <time>2021-03-27T14:03:31Z</time>
      </trkpt>
      <trkpt lat="42.971214" lon="-6.393324">
        <ele>1309.15</ele>
        <time>2021-03-27T14:03:33Z</time>
      </trkpt>
      <trkpt lat="42.971165" lon="-6.393143">
        <ele>1311.35</ele>
        <time>2021-03-27T14:03:35Z</time>
      </trkpt>
      <trkpt lat="42.970865" lon="-6.391144">
        <ele>1327.0</ele>
        <time>2021-03-27T14:03:37Z</time>
      </trkpt>
      <trkpt lat="42.97084" lon="-6.391057">
        <ele>1326.88</ele>
        <time>2021-03-27T14:03:39Z</time>
      </trkpt>
      <trkpt lat="42.9708" lon="-6.390982">
        <ele>1326.43</ele>
        <time>2021-03-27T14:03:41Z</time>
      </trkpt>
      <trkpt lat="42.970696" lon="-6.390875">
        <ele>1324.93</ele>
        <time>2021-03-27T14:03:43Z</time>
      </trkpt>
      <trkpt lat="42.970288" lon="-6.390641">
        <ele>1322.3</ele>
        <time>2021-03-27T14:03:45Z</time>
      </trkpt>
      <trkpt lat="42.970229" lon="-6.390554">
        <ele>1322.65</ele>
        <time>2021-03-27T14:03:47Z</time>
      </trkpt>
      <trkpt lat="42.970212" lon="-6.390432">
        <ele>1326.1</ele>
        <time>2021-03-27T14:03:49Z</time>
      </trkpt>
      <trkpt lat="42.970241" lon="-6.390328">
        <ele>1330.32</ele>
        <time>2021-03-27T14:03:51Z</time>
      </trkpt>
      <trkpt lat="42.970303" lon="-6.390255">
        <ele>1334.87</ele>
        <time>2021-03-27T14:03:53Z</time>
      </trkpt>
      <trkpt lat="42.970418" lon="-6.390255">
        <ele>1336.8</ele>
        <time>2021-03-27T14:03:55Z</time>
      </trkpt>
      <trkpt lat="42.970951" lon="-6.390482">
        <ele>1340.08</ele>
        <time>2021-03-27T14:03:56Z</time>
      </trkpt>
      <trkpt lat="42.971024" lon="-6.390556">
        <ele>1341.6</ele>
        <time>2021-03-27T14:03:58Z</time>
      </trkpt>
      <trkpt lat="42.971074" lon="-6.390685">
        <ele>1342.32</ele>
        <time>2021-03-27T14:04:00Z</time>
      </trkpt>
      <trkpt lat="42.971135" lon="-6.391269">
        <ele>1336.88</ele>
        <time>2021-03-27T14:04:02Z</time>
      </trkpt>
      <trkpt lat="42.9712" lon="-6.391532">
        <ele>1334.46</ele>
        <time>2021-03-27T14:04:04Z</time>
      </trkpt>
      <trkpt lat="42.971313" lon="-6.391812">
        <ele>1334.7</ele>
        <time>2021-03-27T14:04:06Z</time>
      </trkpt>
      <trkpt lat="42.971438" lon="-6.392021">
        <ele>1336.82</ele>
        <time>2021-03-27T14:04:08Z</time>
      </trkpt>
      <trkpt lat="42.971566" lon="-6.392149">
        <ele>1338.32</ele>
        <time>2021-03-27T14:04:10Z</time>
      </trkpt>
      <trkpt lat="42.972157" lon="-6.392454">
        <ele>1346.54</ele>
        <time>2021-03-27T14:04:12Z</time>
      </trkpt>
      <trkpt lat="42.972256" lon="-6.392525">
        <ele>1349.17</ele>
        <time>2021-03-27T14:04:14Z</time>
      </trkpt>
      <trkpt lat="42.972333" lon="-6.392626">
        <ele>1351.23</ele>
        <time>2021-03-27T14:04:16Z</time>
      </trkpt>
      <trkpt lat="42.9724" lon="-6.392791">
        <ele>1352.06</ele>
        <time>2021-03-27T14:04:18Z</time>
      </trkpt>
      <trkpt lat="42.972573" lon="-6.393384">
        <ele>1353.73</ele>
        <time>2021-03-27T14:04:20Z</time>
      </trkpt>
      <trkpt lat="42.972752" lon="-6.39388">
        <ele>1353.0</ele>
        <time>2021-03-27T14:04:21Z</time>
      </trkpt>
      <trkpt lat="42.973086" lon="-6.394564">
        <ele>1358.26</ele>
        <time>2021-03-27T14:04:23Z</time>
      </trkpt>
      <trkpt lat="42.973152" lon="-6.394728">
        <ele>1358.07</ele>
        <time>2021-03-27T14:04:25Z</time>
      </trkpt>
      <trkpt lat="42.973213" lon="-6.394919">
        <ele>1357.25</ele>
        <time>2021-03-27T14:04:27Z</time>
      </trkpt>
      <trkpt lat="42.973852" lon="-6.397456">
        <ele>1368.25</ele>
        <time>2021-03-27T14:04:29Z</time>
      </trkpt>
      <trkpt lat="42.973949" lon="-6.397757">
        <ele>1369.23</ele>
        <time>2021-03-27T14:04:31Z</time>
      </trkpt>
      <trkpt lat="42.974292" lon="-6.398611">
        <ele>1373.96</ele>
        <time>2021-03-27T14:04:33Z</time>
      </trkpt>
      <trkpt lat="42.97432" lon="-6.398746">
        <ele>1376.06</ele>
        <time>2021-03-27T14:04:35Z</time>
      </trkpt>
      <trkpt lat="42.974328" lon="-6.398885">
        <ele>1377.35</ele>
        <time>2021-03-27T14:04:37Z</time>
      </trkpt>
      <trkpt lat="42.974173" lon="-6.399446">
        <ele>1378.22</ele>
        <time>2021-03-27T14:04:39Z</time>
      </trkpt>
      <trkpt lat="42.974163" lon="-6.399569">
        <ele>1376.94</ele>
        <time>2021-03-27T14:04:41Z</time>
      </trkpt>
      <trkpt lat="42.974174" lon="-6.399729">
        <ele>1376.17</ele>
        <time>2021-03-27T14:04:43Z</time>
      </trkpt>
      <trkpt lat="42.97421" lon="-6.39988">
        <ele>1375.03</ele>
        <time>2021-03-27T14:04:44Z</time>
      </trkpt>
      <trkpt lat="42.974274" lon="-6.399999">
        <ele>1374.73</ele>
        <time>2021-03-27T14:04:46Z</time>
      </trkpt>
      <trkpt lat="42.974556" lon="-6.40023">
        <ele>1377.61</ele>
        <time>2021-03-27T14:04:48Z</time>
      </trkpt>
      <trkpt lat="42.975899" lon="-6.401048">
        <ele>1389.66</ele>
        <time>2021-03-27T14:04:50Z</time>
      </trkpt>
      <trkpt lat="42.976493" lon="-6.401477">
        <ele>1396.28</ele>
        <time>2021-03-27T14:04:52Z</time>
      </trkpt>
      <trkpt lat="42.977078" lon="-6.402001">
        <ele>1393.66</ele>
        <time>2021-03-27T14:04:54Z</time>
      </trkpt>
      <trkpt lat="42.977479" lon="-6.402591">
        <ele>1391.36</ele>
        <time>2021-03-27T14:04:56Z</time>
      </trkpt>
      <trkpt lat="42.977612" lon="-6.402726">
        <ele>1391.71</ele>
        <time>2021-03-27T14:04:58Z</time>
      </trkpt>
      <trkpt lat="42.977684" lon="-6.402771">
        <ele>1393.16</ele>
        <time>2021-03-27T14:05:00Z</time>
      </trkpt>
      <trkpt lat="42.979013" lon="-6.403073">
        <ele>1405.48</ele>
        <time>2021-03-27T14:05:02Z</time>
      </trkpt>
      <trkpt lat="42.980391" lon="-6.403339">
        <ele>1418.34</ele>
        <time>2021-03-27T14:05:04Z</time>
      </trkpt>
      <trkpt lat="42.980549" lon="-6.403329">
        <ele>1422.0</ele>
        <time>2021-03-27T14:05:06Z</time>
      </trkpt>
      <trkpt lat="42.980658" lon="-6.403296">
        <ele>1423.74</ele>
        <time>2021-03-27T14:05:08Z</time>
      </trkpt>
      <trkpt lat="42.981259" lon="-6.403032">
        <ele>1425.18</ele>
        <time>2021-03-27T14:05:09Z</time>
      </trkpt>
      <trkpt lat="42.981439" lon="-6.402994">
        <ele>1427.53</ele>
        <time>2021-03-27T14:05:11Z</time>
      </trkpt>
      <trkpt lat="42.981596" lon="-6.403002">
        <ele>1428.78</ele>
        <time>2021-03-27T14:05:13Z</time>
      </trkpt>
      <trkpt lat="42.981889" lon="-6.403099">
        <ele>1431.37</ele>
        <time>2021-03-27T14:05:15Z</time>
      </trkpt>
      <trkpt lat="42.981999" lon="-6.403161">
        <ele>1432.52</ele>
        <time>2021-03-27T14:05:17Z</time>
      </trkpt>
      <trkpt lat="42.9821" lon="-6.40326">
        <ele>1433.27</ele>
        <time>2021-03-27T14:05:19Z</time>
      </trkpt>
      <trkpt lat="42.982167" lon="-6.403368">
        <ele>1433.68</ele>
        <time>2021-03-27T14:05:21Z</time>
      </trkpt>
      <trkpt lat="42.982222" lon="-6.403512">
        <ele>1434.64</ele>
        <time>2021-03-27T14:05:23Z</time>
      </trkpt>
      <trkpt lat="42.98225" lon="-6.403644">
        <ele>1435.76</ele>
        <time>2021-03-27T14:05:25Z</time>
      </trkpt>
      <trkpt lat="42.982248" lon="-6.40377">
        <ele>1437.09</ele>
        <time>2021-03-27T14:05:27Z</time>
      </trkpt>
      <trkpt lat="42.982199" lon="-6.404006">
        <ele>1439.52</ele>
        <time>2021-03-27T14:05:29Z</time>
      </trkpt>
      <trkpt lat="42.982133" lon="-6.404158">
        <ele>1440.6</ele>
        <time>2021-03-27T14:05:31Z</time>
      </trkpt>
      <trkpt lat="42.981057" lon="-6.405377">
        <ele>1440.38</ele>
        <time>2021-03-27T14:05:33Z</time>
      </trkpt>
      <trkpt lat="42.980952" lon="-6.405559">
        <ele>1440.48</ele>
        <time>2021-03-27T14:05:34Z</time>
      </trkpt>
      <trkpt lat="42.98089" lon="-6.405731">
        <ele>1441.17</ele>
        <time>2021-03-27T14:05:36Z</time>
      </trkpt>
      <trkpt lat="42.980882" lon="-6.405939">
        <ele>1442.95</ele>
        <time>2021-03-27T14:05:38Z</time>
      </trkpt>
      <trkpt lat="42.980918" lon="-6.406159">
        <ele>1443.94</ele>
        <time>2021-03-27T14:05:40Z</time>
      </trkpt>
      <trkpt lat="42.980999" lon="-6.406358">
        <ele>1443.49</ele>
        <time>2021-03-27T14:05:42Z</time>
      </trkpt>
      <trkpt lat="42.981108" lon="-6.406528">
        <ele>1442.92</ele>
        <time>2021-03-27T14:05:44Z</time>
      </trkpt>
      <trkpt lat="42.98127" lon="-6.406648">
        <ele>1442.12</ele>
        <time>2021-03-27T14:05:46Z</time>
      </trkpt>
      <trkpt lat="42.981451" lon="-6.406696">
        <ele>1444.11</ele>
        <time>2021-03-27T14:05:48Z</time>
      </trkpt>
      <trkpt lat="42.982374" lon="-6.406735">
        <ele>1458.64</ele>
        <time>2021-03-27T14:05:50Z</time>
      </trkpt>
      <trkpt lat="42.982512" lon="-6.406778">
        <ele>1459.12</ele>
        <time>2021-03-27T14:05:52Z</time>
      </trkpt>
      <trkpt lat="42.982575" lon="-6.406842">
        <ele>1458.89</ele>
        <time>2021-03-27T14:05:54Z</time>
      </trkpt>
      <trkpt lat="42.98266" lon="-6.406974">
        <ele>1458.56</ele>
        <time>2021-03-27T14:05:56Z</time>
      </trkpt>
      <trkpt lat="42.982803" lon="-6.407326">
        <ele>1456.49</ele>
        <time>2021-03-27T14:05:57Z</time>
      </trkpt>
      <trkpt lat="42.982887" lon="-6.407453">
        <ele>1456.18</ele>
        <time>2021-03-27T14:05:59Z</time>
      </trkpt>
      <trkpt lat="42.983017" lon="-6.407575">
        <ele>1456.76</ele>
        <time>2021-03-27T14:06:01Z</time>
      </trkpt>
      <trkpt lat="42.983487" lon="-6.407887">
        <ele>1462.04</ele>
        <time>2021-03-27T14:06:03Z</time>
      </trkpt>
      <trkpt lat="42.984095" lon="-6.408115">
        <ele>1468.61</ele>
        <time>2021-03-27T14:06:05Z</time>
      </trkpt>
      <trkpt lat="42.986352" lon="-6.408829">
        <ele>1475.86</ele>
        <time>2021-03-27T14:06:07Z</time>
      </trkpt>
      <trkpt lat="42.986506" lon="-6.40885">
        <ele>1476.57</ele>
        <time>2021-03-27T14:06:09Z</time>
      </trkpt>
      <trkpt lat="42.986783" lon="-6.408845">
        <ele>1477.35</ele>
        <time>2021-03-27T14:06:11Z</time>
      </trkpt>
      <trkpt lat="42.987553" lon="-6.408789">
        <ele>1478.02</ele>
        <time>2021-03-27T14:06:13Z</time>
      </trkpt>
      <trkpt lat="42.98768" lon="-6.40882">
        <ele>1480.67</ele>
        <time>2021-03-27T14:06:15Z</time>
      </trkpt>
      <trkpt lat="42.987919" lon="-6.408931">
        <ele>1483.23</ele>
        <time>2021-03-27T14:06:17Z</time>
      </trkpt>
      <trkpt lat="42.989399" lon="-6.410001">
        <ele>1492.19</ele>
        <time>2021-03-27T14:06:19Z</time>
      </trkpt>
      <trkpt lat="42.989712" lon="-6.410196">
        <ele>1494.01</ele>
        <time>2021-03-27T14:06:21Z</time>
      </trkpt>
      <trkpt lat="42.989927" lon="-6.410292">
        <ele>1496.39</ele>
        <time>2021-03-27T14:06:22Z</time>
      </trkpt>
      <trkpt lat="42.99033" lon="-6.41043">
        <ele>1497.38</ele>
        <time>2021-03-27T14:06:24Z</time>
      </trkpt>
      <trkpt lat="42.990925" lon="-6.410513">
        <ele>1498.44</ele>
        <time>2021-03-27T14:06:26Z</time>
      </trkpt>
      <trkpt lat="42.991093" lon="-6.410518">
        <ele>1498.22</ele>
        <time>2021-03-27T14:06:28Z</time>
      </trkpt>
      <trkpt lat="42.991334" lon="-6.410488">
        <ele>1496.34</ele>
        <time>2021-03-27T14:06:30Z</time>
      </trkpt>
      <trkpt lat="42.991704" lon="-6.410374">
        <ele>1493.13</ele>
        <time>2021-03-27T14:06:32Z</time>
      </trkpt>
      <trkpt lat="42.992305" lon="-6.410304">
        <ele>1496.02</ele>
        <time>2021-03-27T14:06:34Z</time>
      </trkpt>
      <trkpt lat="42.992763" lon="-6.410359">
        <ele>1500.2</ele>
        <time>2021-03-27T14:06:36Z</time>
      </trkpt>
      <trkpt lat="42.993104" lon="-6.410463">
        <ele>1502.14</ele>
        <time>2021-03-27T14:06:38Z</time>
      </trkpt>
      <trkpt lat="42.993482" lon="-6.410652">
        <ele>1505.61</ele>
        <time>2021-03-27T14:06:40Z</time>
      </trkpt>
      <trkpt lat="42.993727" lon="-6.410831">
        <ele>1506.44</ele>
        <time>2021-03-27T14:06:42Z</time>
      </trkpt>
      <trkpt lat="42.993925" lon="-6.411053">
        <ele>1505.41</ele>
        <time>2021-03-27T14:06:44Z</time>
      </trkpt>
      <trkpt lat="42.994101" lon="-6.411329">
        <ele>1506.97</ele>
        <time>2021-03-27T14:06:46Z</time>
      </trkpt>
      <trkpt lat="42.994207" lon="-6.411589">
        <ele>1507.76</ele>
        <time>2021-03-27T14:06:47Z</time>
      </trkpt>
      <trkpt lat="42.994322" lon="-6.412023">
        <ele>1507.07</ele>
        <time>2021-03-27T14:06:49Z</time>
      </trkpt>
      <trkpt lat="42.994371" lon="-6.412383">
        <ele>1505.24</ele>
        <time>2021-03-27T14:06:51Z</time>
      </trkpt>
      <trkpt lat="42.994379" lon="-6.412636">
        <ele>1507.44</ele>
        <time>2021-03-27T14:06:53Z</time>
      </trkpt>
      <trkpt lat="42.994379" lon="-6.412636">
        <ele>1507.44</ele>
        <time>2021-03-27T14:06:53Z</time>
      </trkpt>
      <trkpt lat="42.994394" lon="-6.41309">
        <ele>1509.64</ele>
        <time>2021-03-27T14:06:55Z</time>
      </trkpt>
      <trkpt lat="42.994388" lon="-6.413204">
        <ele>1510.58</ele>
        <time>2021-03-27T14:06:56Z</time>
      </trkpt>
      <trkpt lat="42.994444" lon="-6.413615">
        <ele>1514.01</ele>
        <time>2021-03-27T14:06:57Z</time>
      </trkpt>
      <trkpt lat="42.99444" lon="-6.413666">
        <ele>1514.22</ele>
        <time>2021-03-27T14:06:58Z</time>
      </trkpt>
      <trkpt lat="42.99436" lon="-6.413232">
        <ele>1511.07</ele>
        <time>2021-03-27T14:06:59Z</time>
      </trkpt>
      <trkpt lat="42.994331" lon="-6.412842">
        <ele>1507.51</ele>
        <time>2021-03-27T14:07:01Z</time>
      </trkpt>
      <trkpt lat="42.994309" lon="-6.412183">
        <ele>1505.41</ele>
        <time>2021-03-27T14:07:02Z</time>
      </trkpt>
      <trkpt lat="42.994256" lon="-6.411778">
        <ele>1507.81</ele>
        <time>2021-03-27T14:07:04Z</time>
      </trkpt>
      <trkpt lat="42.994207" lon="-6.411589">
        <ele>1507.76</ele>
        <time>2021-03-27T14:07:05Z</time>
      </trkpt>
      <trkpt lat="42.994101" lon="-6.411329">
        <ele>1506.97</ele>
        <time>2021-03-27T14:07:07Z</time>
      </trkpt>
      <trkpt lat="42.993925" lon="-6.411053">
        <ele>1505.41</ele>
        <time>2021-03-27T14:07:08Z</time>
      </trkpt>
      <trkpt lat="42.993727" lon="-6.410831">
        <ele>1506.44</ele>
        <time>2021-03-27T14:07:09Z</time>
      </trkpt>
      <trkpt lat="42.993482" lon="-6.410652">
        <ele>1505.61</ele>
        <time>2021-03-27T14:07:11Z</time>
      </trkpt>
      <trkpt lat="42.993104" lon="-6.410463">
        <ele>1502.14</ele>
        <time>2021-03-27T14:07:12Z</time>
      </trkpt>
      <trkpt lat="42.992763" lon="-6.410359">
        <ele>1500.2</ele>
        <time>2021-03-27T14:07:14Z</time>
      </trkpt>
      <trkpt lat="42.992445" lon="-6.410328">
        <ele>1497.74</ele>
        <time>2021-03-27T14:07:15Z</time>
      </trkpt>
      <trkpt lat="42.992113" lon="-6.410375">
        <ele>1494.7</ele>
        <time>2021-03-27T14:07:17Z</time>
      </trkpt>
      <trkpt lat="42.991645" lon="-6.41046">
        <ele>1494.1</ele>
        <time>2021-03-27T14:07:19Z</time>
      </trkpt>
      <trkpt lat="42.991394" lon="-6.410553">
        <ele>1496.92</ele>
        <time>2021-03-27T14:07:21Z</time>
      </trkpt>
      <trkpt lat="42.99122" lon="-6.410588">
        <ele>1499.01</ele>
        <time>2021-03-27T14:07:23Z</time>
      </trkpt>
      <trkpt lat="42.990904" lon="-6.410589">
        <ele>1500.88</ele>
        <time>2021-03-27T14:07:25Z</time>
      </trkpt>
      <trkpt lat="42.99063" lon="-6.410536">
        <ele>1498.68</ele>
        <time>2021-03-27T14:07:27Z</time>
      </trkpt>
      <trkpt lat="42.99033" lon="-6.41043">
        <ele>1497.38</ele>
        <time>2021-03-27T14:07:29Z</time>
      </trkpt>
      <trkpt lat="42.989927" lon="-6.410292">
        <ele>1496.39</ele>
        <time>2021-03-27T14:07:31Z</time>
      </trkpt>
      <trkpt lat="42.989712" lon="-6.410196">
        <ele>1494.01</ele>
        <time>2021-03-27T14:07:33Z</time>
      </trkpt>
      <trkpt lat="42.989399" lon="-6.410001">
        <ele>1492.19</ele>
        <time>2021-03-27T14:07:36Z</time>
      </trkpt>
      <trkpt lat="42.987919" lon="-6.408931">
        <ele>1483.23</ele>
        <time>2021-03-27T14:07:38Z</time>
      </trkpt>
      <trkpt lat="42.98768" lon="-6.40882">
        <ele>1480.67</ele>
        <time>2021-03-27T14:07:40Z</time>
      </trkpt>
      <trkpt lat="42.987553" lon="-6.408789">
        <ele>1478.02</ele>
        <time>2021-03-27T14:07:42Z</time>
      </trkpt>
      <trkpt lat="42.986783" lon="-6.408845">
        <ele>1477.35</ele>
        <time>2021-03-27T14:07:45Z</time>
      </trkpt>
      <trkpt lat="42.986506" lon="-6.40885">
        <ele>1476.57</ele>
        <time>2021-03-27T14:07:47Z</time>
      </trkpt>
      <trkpt lat="42.986352" lon="-6.408829">
        <ele>1475.86</ele>
        <time>2021-03-27T14:07:49Z</time>
      </trkpt>
      <trkpt lat="42.984095" lon="-6.408115">
        <ele>1468.61</ele>
        <time>2021-03-27T14:07:52Z</time>
      </trkpt>
      <trkpt lat="42.983487" lon="-6.407887">
        <ele>1462.04</ele>
        <time>2021-03-27T14:07:54Z</time>
      </trkpt>
      <trkpt lat="42.983017" lon="-6.407575">
        <ele>1456.76</ele>
        <time>2021-03-27T14:07:56Z</time>
      </trkpt>
      <trkpt lat="42.982887" lon="-6.407453">
        <ele>1456.18</ele>
        <time>2021-03-27T14:07:59Z</time>
      </trkpt>
      <trkpt lat="42.982803" lon="-6.407326">
        <ele>1456.49</ele>
        <time>2021-03-27T14:08:01Z</time>
      </trkpt>
      <trkpt lat="42.98266" lon="-6.406974">
        <ele>1458.56</ele>
        <time>2021-03-27T14:08:03Z</time>
      </trkpt>
      <trkpt lat="42.982575" lon="-6.406842">
        <ele>1458.89</ele>
        <time>2021-03-27T14:08:05Z</time>
      </trkpt>
      <trkpt lat="42.982512" lon="-6.406778">
        <ele>1459.12</ele>
        <time>2021-03-27T14:08:08Z</time>
      </trkpt>
      <trkpt lat="42.982374" lon="-6.406735">
        <ele>1458.64</ele>
        <time>2021-03-27T14:08:10Z</time>
      </trkpt>
      <trkpt lat="42.981451" lon="-6.406696">
        <ele>1444.11</ele>
        <time>2021-03-27T14:08:12Z</time>
      </trkpt>
      <trkpt lat="42.98127" lon="-6.406648">
        <ele>1442.12</ele>
        <time>2021-03-27T14:08:15Z</time>
      </trkpt>
      <trkpt lat="42.981108" lon="-6.406528">
        <ele>1442.92</ele>
        <time>2021-03-27T14:08:17Z</time>
      </trkpt>
      <trkpt lat="42.980999" lon="-6.406358">
        <ele>1443.49</ele>
        <time>2021-03-27T14:08:19Z</time>
      </trkpt>
      <trkpt lat="42.980918" lon="-6.406159">
        <ele>1443.94</ele>
        <time>2021-03-27T14:08:22Z</time>
      </trkpt>
      <trkpt lat="42.980882" lon="-6.405939">
        <ele>1442.95</ele>
        <time>2021-03-27T14:08:24Z</time>
      </trkpt>
      <trkpt lat="42.98089" lon="-6.405731">
        <ele>1441.17</ele>
        <time>2021-03-27T14:08:26Z</time>
      </trkpt>
      <trkpt lat="42.980952" lon="-6.405559">
        <ele>1440.48</ele>
        <time>2021-03-27T14:08:28Z</time>
      </trkpt>
      <trkpt lat="42.981057" lon="-6.405377">
        <ele>1440.38</ele>
        <time>2021-03-27T14:08:31Z</time>
      </trkpt>
      <trkpt lat="42.982133" lon="-6.404158">
        <ele>1440.6</ele>
        <time>2021-03-27T14:08:33Z</time>
      </trkpt>
      <trkpt lat="42.982199" lon="-6.404006">
        <ele>1439.52</ele>
        <time>2021-03-27T14:08:35Z</time>
      </trkpt>
      <trkpt lat="42.982248" lon="-6.40377">
        <ele>1437.09</ele>
        <time>2021-03-27T14:08:38Z</time>
      </trkpt>
      <trkpt lat="42.98225" lon="-6.403644">
        <ele>1435.76</ele>
        <time>2021-03-27T14:08:40Z</time>
      </trkpt>
      <trkpt lat="42.982222" lon="-6.403512">
        <ele>1434.64</ele>
        <time>2021-03-27T14:08:42Z</time>
      </trkpt>
      <trkpt lat="42.982167" lon="-6.403368">
        <ele>1433.68</ele>
        <time>2021-03-27T14:08:45Z</time>
      </trkpt>
      <trkpt lat="42.9821" lon="-6.40326">
        <ele>1433.27</ele>
        <time>2021-03-27T14:08:47Z</time>
      </trkpt>
      <trkpt lat="42.981999" lon="-6.403161">
        <ele>1432.52</ele>
        <time>2021-03-27T14:08:49Z</time>
      </trkpt>
      <trkpt lat="42.981889" lon="-6.403099">
        <ele>1431.37</ele>
        <time>2021-03-27T14:08:51Z</time>
      </trkpt>
      <trkpt lat="42.981596" lon="-6.403002">
        <ele>1428.78</ele>
        <time>2021-03-27T14:08:54Z</time>
      </trkpt>
      <trkpt lat="42.981439" lon="-6.402994">
        <ele>1427.53</ele>
        <time>2021-03-27T14:08:56Z</time>
      </trkpt>
      <trkpt lat="42.981259" lon="-6.403032">
        <ele>1425.18</ele>
        <time>2021-03-27T14:08:58Z</time>
      </trkpt>
      <trkpt lat="42.980658" lon="-6.403296">
        <ele>1423.74</ele>
        <time>2021-03-27T14:09:01Z</time>
      </trkpt>
      <trkpt lat="42.980549" lon="-6.403329">
        <ele>1422.0</ele>
        <time>2021-03-27T14:09:03Z</time>
      </trkpt>
      <trkpt lat="42.980391" lon="-6.403339">
        <ele>1418.34</ele>
        <time>2021-03-27T14:09:05Z</time>
      </trkpt>
      <trkpt lat="42.979013" lon="-6.403073">
        <ele>1405.48</ele>
        <time>2021-03-27T14:09:08Z</time>
      </trkpt>
      <trkpt lat="42.977684" lon="-6.402771">
        <ele>1393.16</ele>
        <time>2021-03-27T14:09:10Z</time>
      </trkpt>
      <trkpt lat="42.977612" lon="-6.402726">
        <ele>1391.71</ele>
        <time>2021-03-27T14:09:12Z</time>
      </trkpt>
      <trkpt lat="42.977479" lon="-6.402591">
        <ele>1391.36</ele>
        <time>2021-03-27T14:09:14Z</time>
      </trkpt>
      <trkpt lat="42.977078" lon="-6.402001">
        <ele>1393.66</ele>
        <time>2021-03-27T14:09:17Z</time>
      </trkpt>
      <trkpt lat="42.976493" lon="-6.401477">
        <ele>1396.28</ele>
        <time>2021-03-27T14:09:19Z</time>
      </trkpt>
      <trkpt lat="42.975899" lon="-6.401048">
        <ele>1389.66</ele>
        <time>2021-03-27T14:09:21Z</time>
      </trkpt>
      <trkpt lat="42.974556" lon="-6.40023">
        <ele>1377.61</ele>
        <time>2021-03-27T14:09:24Z</time>
      </trkpt>
      <trkpt lat="42.974274" lon="-6.399999">
        <ele>1374.73</ele>
        <time>2021-03-27T14:09:26Z</time>
      </trkpt>
      <trkpt lat="42.97421" lon="-6.39988">
        <ele>1375.03</ele>
        <time>2021-03-27T14:09:28Z</time>
      </trkpt>
      <trkpt lat="42.974174" lon="-6.399729">
        <ele>1376.17</ele>
        <time>2021-03-27T14:09:31Z</time>
      </trkpt>
      <trkpt lat="42.974163" lon="-6.399569">
        <ele>1376.94</ele>
        <time>2021-03-27T14:09:33Z</time>
      </trkpt>
      <trkpt lat="42.974173" lon="-6.399446">
        <ele>1378.22</ele>
        <time>2021-03-27T14:09:35Z</time>
      </trkpt>
      <trkpt lat="42.974328" lon="-6.398885">
        <ele>1377.35</ele>
        <time>2021-03-27T14:09:37Z</time>
      </trkpt>
      <trkpt lat="42.97432" lon="-6.398746">
        <ele>1376.06</ele>
        <time>2021-03-27T14:09:40Z</time>
      </trkpt>
      <trkpt lat="42.974292" lon="-6.398611">
        <ele>1373.96</ele>
        <time>2021-03-27T14:09:42Z</time>
      </trkpt>
      <trkpt lat="42.973949" lon="-6.397757">
        <ele>1369.23</ele>
        <time>2021-03-27T14:09:44Z</time>
      </trkpt>
      <trkpt lat="42.973852" lon="-6.397456">
        <ele>1368.25</ele>
        <time>2021-03-27T14:09:47Z</time>
      </trkpt>
      <trkpt lat="42.973213" lon="-6.394919">
        <ele>1357.25</ele>
        <time>2021-03-27T14:09:49Z</time>
      </trkpt>
      <trkpt lat="42.973152" lon="-6.394728">
        <ele>1358.07</ele>
        <time>2021-03-27T14:09:51Z</time>
      </trkpt>
      <trkpt lat="42.973086" lon="-6.394564">
        <ele>1358.26</ele>
        <time>2021-03-27T14:09:54Z</time>
      </trkpt>
      <trkpt lat="42.972752" lon="-6.39388">
        <ele>1353.0</ele>
        <time>2021-03-27T14:09:56Z</time>
      </trkpt>
      <trkpt lat="42.972573" lon="-6.393384">
        <ele>1353.73</ele>
        <time>2021-03-27T14:09:58Z</time>
      </trkpt>
      <trkpt lat="42.9724" lon="-6.392791">
        <ele>1352.06</ele>
        <time>2021-03-27T14:10:00Z</time>
      </trkpt>
      <trkpt lat="42.972333" lon="-6.392626">
        <ele>1351.23</ele>
        <time>2021-03-27T14:10:03Z</time>
      </trkpt>
      <trkpt lat="42.972256" lon="-6.392525">
        <ele>1349.17</ele>
        <time>2021-03-27T14:10:05Z</time>
      </trkpt>
      <trkpt lat="42.972157" lon="-6.392454">
        <ele>1346.54</ele>
        <time>2021-03-27T14:10:07Z</time>
      </trkpt>
      <trkpt lat="42.971566" lon="-6.392149">
        <ele>1338.32</ele>
        <time>2021-03-27T14:10:10Z</time>
      </trkpt>
      <trkpt lat="42.971438" lon="-6.392021">
        <ele>1336.82</ele>
        <time>2021-03-27T14:10:12Z</time>
      </trkpt>
      <trkpt lat="42.971313" lon="-6.391812">
        <ele>1334.7</ele>
        <time>2021-03-27T14:10:14Z</time>
      </trkpt>
      <trkpt lat="42.9712" lon="-6.391532">
        <ele>1334.46</ele>
        <time>2021-03-27T14:10:17Z</time>
      </trkpt>
      <trkpt lat="42.971135" lon="-6.391269">
        <ele>1336.88</ele>
        <time>2021-03-27T14:10:19Z</time>
      </trkpt>
      <trkpt lat="42.971074" lon="-6.390685">
        <ele>1342.32</ele>
        <time>2021-03-27T14:10:21Z</time>
      </trkpt>
      <trkpt lat="42.971024" lon="-6.390556">
        <ele>1341.6</ele>
        <time>2021-03-27T14:10:23Z</time>
      </trkpt>
      <trkpt lat="42.970951" lon="-6.390482">
        <ele>1340.08</ele>
        <time>2021-03-27T14:10:26Z</time>
      </trkpt>
      <trkpt lat="42.970418" lon="-6.390255">
        <ele>1336.8</ele>
        <time>2021-03-27T14:10:28Z</time>
      </trkpt>
      <trkpt lat="42.970303" lon="-6.390255">
        <ele>1334.87</ele>
        <time>2021-03-27T14:10:30Z</time>
      </trkpt>
      <trkpt lat="42.970241" lon="-6.390328">
        <ele>1330.32</ele>
        <time>2021-03-27T14:10:33Z</time>
      </trkpt>
      <trkpt lat="42.970212" lon="-6.390432">
        <ele>1326.1</ele>
        <time>2021-03-27T14:10:35Z</time>
      </trkpt>
      <trkpt lat="42.970229" lon="-6.390554">
        <ele>1322.65</ele>
        <time>2021-03-27T14:10:37Z</time>
      </trkpt>
      <trkpt lat="42.970288" lon="-6.390641">
        <ele>1322.3</ele>
        <time>2021-03-27T14:10:40Z</time>
      </trkpt>
      <trkpt lat="42.970696" lon="-6.390875">
        <ele>1324.93</ele>
        <time>2021-03-27T14:10:42Z</time>
      </trkpt>
      <trkpt lat="42.9708" lon="-6.390982">
        <ele>1326.43</ele>
        <time>2021-03-27T14:10:44Z</time>
      </trkpt>
      <trkpt lat="42.97084" lon="-6.391057">
        <ele>1326.88</ele>
        <time>2021-03-27T14:10:46Z</time>
      </trkpt>
      <trkpt lat="42.970865" lon="-6.391144">
        <ele>1327.0</ele>
        <time>2021-03-27T14:10:49Z</time>
      </trkpt>
      <trkpt lat="42.971165" lon="-6.393143">
        <ele>1311.35</ele>
        <time>2021-03-27T14:10:51Z</time>
      </trkpt>
      <trkpt lat="42.971214" lon="-6.393324">
        <ele>1309.15</ele>
        <time>2021-03-27T14:10:53Z</time>
      </trkpt>
      <trkpt lat="42.971353" lon="-6.393513">
        <ele>1309.25</ele>
        <time>2021-03-27T14:10:56Z</time>
      </trkpt>
      <trkpt lat="42.971451" lon="-6.393537">
        <ele>1309.98</ele>
        <time>2021-03-27T14:10:58Z</time>
      </trkpt>
      <trkpt lat="42.9716" lon="-6.393536">
        <ele>1310.93</ele>
        <time>2021-03-27T14:11:00Z</time>
      </trkpt>
      <trkpt lat="42.971858" lon="-6.393501">
        <ele>1314.6</ele>
        <time>2021-03-27T14:11:03Z</time>
      </trkpt>
      <trkpt lat="42.971953" lon="-6.393537">
        <ele>1315.22</ele>
        <time>2021-03-27T14:11:05Z</time>
      </trkpt>
      <trkpt lat="42.972025" lon="-6.393595">
        <ele>1316.35</ele>
        <time>2021-03-27T14:11:07Z</time>
      </trkpt>
      <trkpt lat="42.972078" lon="-6.393695">
        <ele>1316.03</ele>
        <time>2021-03-27T14:11:09Z</time>
      </trkpt>
      <trkpt lat="42.972428" lon="-6.394988">
        <ele>1314.95</ele>
        <time>2021-03-27T14:11:12Z</time>
      </trkpt>
      <trkpt lat="42.972448" lon="-6.395162">
        <ele>1315.6</ele>
        <time>2021-03-27T14:11:14Z</time>
      </trkpt>
      <trkpt lat="42.972429" lon="-6.395258">
        <ele>1314.94</ele>
        <time>2021-03-27T14:11:16Z</time>
      </trkpt>
      <trkpt lat="42.972371" lon="-6.395369">
        <ele>1314.27</ele>
        <time>2021-03-27T14:11:19Z</time>
      </trkpt>
      <trkpt lat="42.972296" lon="-6.395433">
        <ele>1312.81</ele>
        <time>2021-03-27T14:11:21Z</time>
      </trkpt>
      <trkpt lat="42.972177" lon="-6.395445">
        <ele>1310.16</ele>
        <time>2021-03-27T14:11:23Z</time>
      </trkpt>
      <trkpt lat="42.971765" lon="-6.395373">
        <ele>1304.09</ele>
        <time>2021-03-27T14:11:26Z</time>
      </trkpt>
      <trkpt lat="42.971658" lon="-6.395406">
        <ele>1303.22</ele>
        <time>2021-03-27T14:11:28Z</time>
      </trkpt>
      <trkpt lat="42.971572" lon="-6.395498">
        <ele>1302.67</ele>
        <time>2021-03-27T14:11:30Z</time>
      </trkpt>
      <trkpt lat="42.971514" lon="-6.395622">
        <ele>1301.74</ele>
        <time>2021-03-27T14:11:32Z</time>
      </trkpt>
      <trkpt lat="42.971513" lon="-6.395794">
        <ele>1300.43</ele>
        <time>2021-03-27T14:11:35Z</time>
      </trkpt>
      <trkpt lat="42.971561" lon="-6.395962">
        <ele>1299.3</ele>
        <time>2021-03-27T14:11:37Z</time>
      </trkpt>
      <trkpt lat="42.971655" lon="-6.396116">
        <ele>1299.57</ele>
        <time>2021-03-27T14:11:39Z</time>
      </trkpt>
      <trkpt lat="42.971794" lon="-6.39626">
        <ele>1298.58</ele>
        <time>2021-03-27T14:11:42Z</time>
      </trkpt>
      <trkpt lat="42.972152" lon="-6.396496">
        <ele>1301.81</ele>
        <time>2021-03-27T14:11:44Z</time>
      </trkpt>
      <trkpt lat="42.972211" lon="-6.396579">
        <ele>1302.23</ele>
        <time>2021-03-27T14:11:46Z</time>
      </trkpt>
      <trkpt lat="42.972258" lon="-6.396735">
        <ele>1301.83</ele>
        <time>2021-03-27T14:11:49Z</time>
      </trkpt>
      <trkpt lat="42.972258" lon="-6.396851">
        <ele>1300.66</ele>
        <time>2021-03-27T14:11:51Z</time>
      </trkpt>
      <trkpt lat="42.972221" lon="-6.396963">
        <ele>1298.39</ele>
        <time>2021-03-27T14:11:53Z</time>
      </trkpt>
      <trkpt lat="42.971886" lon="-6.397364">
        <ele>1294.94</ele>
        <time>2021-03-27T14:11:55Z</time>
      </trkpt>
      <trkpt lat="42.971811" lon="-6.39754">
        <ele>1293.95</ele>
        <time>2021-03-27T14:11:58Z</time>
      </trkpt>
      <trkpt lat="42.971776" lon="-6.397727">
        <ele>1293.47</ele>
        <time>2021-03-27T14:12:00Z</time>
      </trkpt>
      <trkpt lat="42.971785" lon="-6.39796">
        <ele>1291.68</ele>
        <time>2021-03-27T14:12:02Z</time>
      </trkpt>
      <trkpt lat="42.971831" lon="-6.398141">
        <ele>1290.71</ele>
        <time>2021-03-27T14:12:05Z</time>
      </trkpt>
      <trkpt lat="42.972405" lon="-6.399366">
        <ele>1300.41</ele>
        <time>2021-03-27T14:12:07Z</time>
      </trkpt>
      <trkpt lat="42.972413" lon="-6.399503">
        <ele>1299.58</ele>
        <time>2021-03-27T14:12:09Z</time>
      </trkpt>
      <trkpt lat="42.972365" lon="-6.399611">
        <ele>1295.89</ele>
        <time>2021-03-27T14:12:12Z</time>
      </trkpt>
      <trkpt lat="42.972285" lon="-6.399667">
        <ele>1291.44</ele>
        <time>2021-03-27T14:12:14Z</time>
      </trkpt>
      <trkpt lat="42.972196" lon="-6.399658">
        <ele>1287.81</ele>
        <time>2021-03-27T14:12:16Z</time>
      </trkpt>
      <trkpt lat="42.972117" lon="-6.399575">
        <ele>1285.98</ele>
        <time>2021-03-27T14:12:18Z</time>
      </trkpt>
      <trkpt lat="42.97193" lon="-6.399089">
        <ele>1276.8</ele>
        <time>2021-03-27T14:12:21Z</time>
      </trkpt>
      <trkpt lat="42.971515" lon="-6.398163">
        <ele>1277.56</ele>
        <time>2021-03-27T14:12:23Z</time>
      </trkpt>
      <trkpt lat="42.971448" lon="-6.397966">
        <ele>1278.3</ele>
        <time>2021-03-27T14:12:25Z</time>
      </trkpt>
      <trkpt lat="42.971408" lon="-6.397767">
        <ele>1277.86</ele>
        <time>2021-03-27T14:12:28Z</time>
      </trkpt>
      <trkpt lat="42.971388" lon="-6.397581">
        <ele>1277.7</ele>
        <time>2021-03-27T14:12:30Z</time>
      </trkpt>
      <trkpt lat="42.971394" lon="-6.397114">
        <ele>1277.55</ele>
        <time>2021-03-27T14:12:32Z</time>
      </trkpt>
      <trkpt lat="42.971375" lon="-6.396948">
        <ele>1277.54</ele>
        <time>2021-03-27T14:12:35Z</time>
      </trkpt>
      <trkpt lat="42.970544" lon="-6.395254">
        <ele>1262.84</ele>
        <time>2021-03-27T14:12:37Z</time>
      </trkpt>
      <trkpt lat="42.970486" lon="-6.395052">
        <ele>1262.01</ele>
        <time>2021-03-27T14:12:39Z</time>
      </trkpt>
      <trkpt lat="42.970439" lon="-6.394814">
        <ele>1260.1</ele>
        <time>2021-03-27T14:12:41Z</time>
      </trkpt>
      <trkpt lat="42.970442" lon="-6.394534">
        <ele>1260.76</ele>
        <time>2021-03-27T14:12:44Z</time>
      </trkpt>
      <trkpt lat="42.970463" lon="-6.394279">
        <ele>1262.61</ele>
        <time>2021-03-27T14:12:46Z</time>
      </trkpt>
      <trkpt lat="42.970457" lon="-6.393987">
        <ele>1264.33</ele>
        <time>2021-03-27T14:12:48Z</time>
      </trkpt>
      <trkpt lat="42.970371" lon="-6.393698">
        <ele>1264.53</ele>
        <time>2021-03-27T14:12:51Z</time>
      </trkpt>
      <trkpt lat="42.969543" lon="-6.392869">
        <ele>1254.92</ele>
        <time>2021-03-27T14:12:53Z</time>
      </trkpt>
      <trkpt lat="42.969231" lon="-6.392533">
        <ele>1251.48</ele>
        <time>2021-03-27T14:12:55Z</time>
      </trkpt>
      <trkpt lat="42.969001" lon="-6.392158">
        <ele>1248.15</ele>
        <time>2021-03-27T14:12:58Z</time>
      </trkpt>
      <trkpt lat="42.968823" lon="-6.391797">
        <ele>1245.39</ele>
        <time>2021-03-27T14:13:00Z</time>
      </trkpt>
      <trkpt lat="42.968658" lon="-6.391412">
        <ele>1241.12</ele>
        <time>2021-03-27T14:13:02Z</time>
      </trkpt>
      <trkpt lat="42.968609" lon="-6.391225">
        <ele>1241.85</ele>
        <time>2021-03-27T14:13:04Z</time>
      </trkpt>
      <trkpt lat="42.968568" lon="-6.390764">
        <ele>1245.35</ele>
        <time>2021-03-27T14:13:07Z</time>
      </trkpt>
      <trkpt lat="42.968315" lon="-6.38999">
        <ele>1239.89</ele>
        <time>2021-03-27T14:13:09Z</time>
      </trkpt>
      <trkpt lat="42.968189" lon="-6.389354">
        <ele>1238.12</ele>
        <time>2021-03-27T14:13:11Z</time>
      </trkpt>
      <trkpt lat="42.968111" lon="-6.389071">
        <ele>1239.09</ele>
        <time>2021-03-27T14:13:14Z</time>
      </trkpt>
      <trkpt lat="42.9678" lon="-6.388589">
        <ele>1232.68</ele>
        <time>2021-03-27T14:13:16Z</time>
      </trkpt>
      <trkpt lat="42.967672" lon="-6.388299">
        <ele>1233.16</ele>
        <time>2021-03-27T14:13:18Z</time>
      </trkpt>
      <trkpt lat="42.967617" lon="-6.388097">
        <ele>1233.3</ele>
        <time>2021-03-27T14:13:21Z</time>
      </trkpt>
      <trkpt lat="42.967575" lon="-6.387668">
        <ele>1233.55</ele>
        <time>2021-03-27T14:13:23Z</time>
      </trkpt>
      <trkpt lat="42.967396" lon="-6.387163">
        <ele>1227.56</ele>
        <time>2021-03-27T14:13:25Z</time>
      </trkpt>
      <trkpt lat="42.967128" lon="-6.386159">
        <ele>1221.51</ele>
        <time>2021-03-27T14:13:27Z</time>
      </trkpt>
      <trkpt lat="42.967104" lon="-6.385944">
        <ele>1220.44</ele>
        <time>2021-03-27T14:13:30Z</time>
      </trkpt>
      <trkpt lat="42.967103" lon="-6.385735">
        <ele>1219.49</ele>
        <time>2021-03-27T14:13:32Z</time>
      </trkpt>
      <trkpt lat="42.967122" lon="-6.385557">
        <ele>1218.61</ele>
        <time>2021-03-27T14:13:34Z</time>
      </trkpt>
      <trkpt lat="42.96719" lon="-6.385309">
        <ele>1217.13</ele>
        <time>2021-03-27T14:13:37Z</time>
      </trkpt>
      <trkpt lat="42.967289" lon="-6.385116">
        <ele>1217.16</ele>
        <time>2021-03-27T14:13:39Z</time>
      </trkpt>
      <trkpt lat="42.967455" lon="-6.384903">
        <ele>1218.46</ele>
        <time>2021-03-27T14:13:41Z</time>
      </trkpt>
      <trkpt lat="42.967619" lon="-6.384744">
        <ele>1218.83</ele>
        <time>2021-03-27T14:13:44Z</time>
      </trkpt>
      <trkpt lat="42.968255" lon="-6.384248">
        <ele>1219.59</ele>
        <time>2021-03-27T14:13:46Z</time>
      </trkpt>
      <trkpt lat="42.96855" lon="-6.38396">
        <ele>1214.53</ele>
        <time>2021-03-27T14:13:48Z</time>
      </trkpt>
      <trkpt lat="42.969133" lon="-6.383309">
        <ele>1211.27</ele>
        <time>2021-03-27T14:13:50Z</time>
      </trkpt>
      <trkpt lat="42.969224" lon="-6.383152">
        <ele>1209.67</ele>
        <time>2021-03-27T14:13:53Z</time>
      </trkpt>
      <trkpt lat="42.969247" lon="-6.383005">
        <ele>1207.54</ele>
        <time>2021-03-27T14:13:55Z</time>
      </trkpt>
      <trkpt lat="42.969266" lon="-6.382591">
        <ele>1205.05</ele>
        <time>2021-03-27T14:13:57Z</time>
      </trkpt>
      <trkpt lat="42.969244" lon="-6.382474">
        <ele>1205.63</ele>
        <time>2021-03-27T14:14:00Z</time>
      </trkpt>
      <trkpt lat="42.969204" lon="-6.382391">
        <ele>1206.64</ele>
        <time>2021-03-27T14:14:02Z</time>
      </trkpt>
      <trkpt lat="42.968687" lon="-6.382035">
        <ele>1202.07</ele>
        <time>2021-03-27T14:14:04Z</time>
      </trkpt>
      <trkpt lat="42.96801" lon="-6.381611">
        <ele>1205.02</ele>
        <time>2021-03-27T14:14:07Z</time>
      </trkpt>
      <trkpt lat="42.967565" lon="-6.381457">
        <ele>1195.58</ele>
        <time>2021-03-27T14:14:09Z</time>
      </trkpt>
      <trkpt lat="42.967095" lon="-6.381384">
        <ele>1192.3</ele>
        <time>2021-03-27T14:14:11Z</time>
      </trkpt>
      <trkpt lat="42.966533" lon="-6.381456">
        <ele>1189.62</ele>
        <time>2021-03-27T14:14:13Z</time>
      </trkpt>
      <trkpt lat="42.965557" lon="-6.381672">
        <ele>1192.8</ele>
        <time>2021-03-27T14:14:16Z</time>
      </trkpt>
      <trkpt lat="42.965292" lon="-6.3819">
        <ele>1188.28</ele>
        <time>2021-03-27T14:14:18Z</time>
      </trkpt>
      <trkpt lat="42.965219" lon="-6.382024">
        <ele>1185.47</ele>
        <time>2021-03-27T14:14:20Z</time>
      </trkpt>
      <trkpt lat="42.965137" lon="-6.382268">
        <ele>1181.11</ele>
        <time>2021-03-27T14:14:23Z</time>
      </trkpt>
      <trkpt lat="42.96507" lon="-6.382593">
        <ele>1179.72</ele>
        <time>2021-03-27T14:14:25Z</time>
      </trkpt>
      <trkpt lat="42.964957" lon="-6.382848">
        <ele>1178.11</ele>
        <time>2021-03-27T14:14:27Z</time>
      </trkpt>
      <trkpt lat="42.964849" lon="-6.382945">
        <ele>1176.03</ele>
        <time>2021-03-27T14:14:30Z</time>
      </trkpt>
      <trkpt lat="42.964704" lon="-6.38302">
        <ele>1173.08</ele>
        <time>2021-03-27T14:14:32Z</time>
      </trkpt>
      <trkpt lat="42.964068" lon="-6.3832">
        <ele>1165.51</ele>
        <time>2021-03-27T14:14:34Z</time>
      </trkpt>
      <trkpt lat="42.963972" lon="-6.383184">
        <ele>1165.51</ele>
        <time>2021-03-27T14:14:36Z</time>
      </trkpt>
      <trkpt lat="42.96389" lon="-6.383145">
        <ele>1166.07</ele>
        <time>2021-03-27T14:14:39Z</time>
      </trkpt>
      <trkpt lat="42.963015" lon="-6.382084">
        <ele>1160.77</ele>
        <time>2021-03-27T14:14:41Z</time>
      </trkpt>
      <trkpt lat="42.962874" lon="-6.381815">
        <ele>1158.71</ele>
        <time>2021-03-27T14:14:43Z</time>
      </trkpt>
      <trkpt lat="42.962824" lon="-6.381601">
        <ele>1158.83</ele>
        <time>2021-03-27T14:14:46Z</time>
      </trkpt>
      <trkpt lat="42.962794" lon="-6.381248">
        <ele>1160.92</ele>
        <time>2021-03-27T14:14:48Z</time>
      </trkpt>
      <trkpt lat="42.962612" lon="-6.380362">
        <ele>1160.34</ele>
        <time>2021-03-27T14:14:50Z</time>
      </trkpt>
      <trkpt lat="42.962544" lon="-6.380142">
        <ele>1160.26</ele>
        <time>2021-03-27T14:14:53Z</time>
      </trkpt>
      <trkpt lat="42.962473" lon="-6.380012">
        <ele>1159.81</ele>
        <time>2021-03-27T14:14:55Z</time>
      </trkpt>
      <trkpt lat="42.962354" lon="-6.379897">
        <ele>1157.59</ele>
        <time>2021-03-27T14:14:57Z</time>
      </trkpt>
      <trkpt lat="42.962016" lon="-6.379814">
        <ele>1145.92</ele>
        <time>2021-03-27T14:14:59Z</time>
      </trkpt>
      <trkpt lat="42.961906" lon="-6.379745">
        <ele>1142.12</ele>
        <time>2021-03-27T14:15:02Z</time>
      </trkpt>
      <trkpt lat="42.961825" lon="-6.379647">
        <ele>1140.46</ele>
        <time>2021-03-27T14:15:04Z</time>
      </trkpt>
      <trkpt lat="42.961759" lon="-6.379494">
        <ele>1140.94</ele>
        <time>2021-03-27T14:15:06Z</time>
      </trkpt>
      <trkpt lat="42.961719" lon="-6.379305">
        <ele>1143.17</ele>
        <time>2021-03-27T14:15:09Z</time>
      </trkpt>
      <trkpt lat="42.961724" lon="-6.378867">
        <ele>1150.09</ele>
        <time>2021-03-27T14:15:11Z</time>
      </trkpt>
      <trkpt lat="42.961689" lon="-6.378712">
        <ele>1150.58</ele>
        <time>2021-03-27T14:15:13Z</time>
      </trkpt>
      <trkpt lat="42.961619" lon="-6.378579">
        <ele>1151.11</ele>
        <time>2021-03-27T14:15:16Z</time>
      </trkpt>
      <trkpt lat="42.961548" lon="-6.378532">
        <ele>1151.83</ele>
        <time>2021-03-27T14:15:18Z</time>
      </trkpt>
      <trkpt lat="42.961452" lon="-6.378508">
        <ele>1152.04</ele>
        <time>2021-03-27T14:15:20Z</time>
      </trkpt>
      <trkpt lat="42.960894" lon="-6.378539">
        <ele>1133.2</ele>
        <time>2021-03-27T14:15:22Z</time>
      </trkpt>
      <trkpt lat="42.960702" lon="-6.37851">
        <ele>1132.26</ele>
        <time>2021-03-27T14:15:25Z</time>
      </trkpt>
      <trkpt lat="42.960513" lon="-6.378446">
        <ele>1134.13</ele>
        <time>2021-03-27T14:15:27Z</time>
      </trkpt>
      <trkpt lat="42.960315" lon="-6.378313">
        <ele>1134.59</ele>
        <time>2021-03-27T14:15:29Z</time>
      </trkpt>
      <trkpt lat="42.960138" lon="-6.378133">
        <ele>1133.93</ele>
        <time>2021-03-27T14:15:32Z</time>
      </trkpt>
      <trkpt lat="42.95999" lon="-6.377915">
        <ele>1134.96</ele>
        <time>2021-03-27T14:15:34Z</time>
      </trkpt>
      <trkpt lat="42.958874" lon="-6.376112">
        <ele>1122.21</ele>
        <time>2021-03-27T14:15:36Z</time>
      </trkpt>
      <trkpt lat="42.958526" lon="-6.375642">
        <ele>1122.7</ele>
        <time>2021-03-27T14:15:39Z</time>
      </trkpt>
      <trkpt lat="42.957913" lon="-6.374891">
        <ele>1113.56</ele>
        <time>2021-03-27T14:15:41Z</time>
      </trkpt>
      <trkpt lat="42.957694" lon="-6.374676">
        <ele>1114.91</ele>
        <time>2021-03-27T14:15:43Z</time>
      </trkpt>
      <trkpt lat="42.957548" lon="-6.374597">
        <ele>1114.39</ele>
        <time>2021-03-27T14:15:45Z</time>
      </trkpt>
      <trkpt lat="42.956934" lon="-6.374399">
        <ele>1105.92</ele>
        <time>2021-03-27T14:15:48Z</time>
      </trkpt>
      <trkpt lat="42.956673" lon="-6.374199">
        <ele>1104.88</ele>
        <time>2021-03-27T14:15:50Z</time>
      </trkpt>
      <trkpt lat="42.956524" lon="-6.374011">
        <ele>1103.28</ele>
        <time>2021-03-27T14:15:52Z</time>
      </trkpt>
      <trkpt lat="42.955852" lon="-6.372908">
        <ele>1101.54</ele>
        <time>2021-03-27T14:15:55Z</time>
      </trkpt>
      <trkpt lat="42.955796" lon="-6.372713">
        <ele>1100.14</ele>
        <time>2021-03-27T14:15:57Z</time>
      </trkpt>
      <trkpt lat="42.955806" lon="-6.372394">
        <ele>1100.29</ele>
        <time>2021-03-27T14:15:59Z</time>
      </trkpt>
      <trkpt lat="42.955914" lon="-6.372095">
        <ele>1104.12</ele>
        <time>2021-03-27T14:16:02Z</time>
      </trkpt>
      <trkpt lat="42.95593" lon="-6.371956">
        <ele>1105.98</ele>
        <time>2021-03-27T14:16:04Z</time>
      </trkpt>
      <trkpt lat="42.955891" lon="-6.371856">
        <ele>1107.52</ele>
        <time>2021-03-27T14:16:06Z</time>
      </trkpt>
      <trkpt lat="42.955825" lon="-6.371783">
        <ele>1108.51</ele>
        <time>2021-03-27T14:16:08Z</time>
      </trkpt>
      <trkpt lat="42.955724" lon="-6.371774">
        <ele>1107.1</ele>
        <time>2021-03-27T14:16:11Z</time>
      </trkpt>
      <trkpt lat="42.955349" lon="-6.371909">
        <ele>1096.71</ele>
        <time>2021-03-27T14:16:13Z</time>
      </trkpt>
      <trkpt lat="42.955245" lon="-6.371904">
        <ele>1095.11</ele>
        <time>2021-03-27T14:16:15Z</time>
      </trkpt>
      <trkpt lat="42.954782" lon="-6.371777">
        <ele>1092.65</ele>
        <time>2021-03-27T14:16:18Z</time>
      </trkpt>
      <trkpt lat="42.954693" lon="-6.371732">
        <ele>1092.09</ele>
        <time>2021-03-27T14:16:20Z</time>
      </trkpt>
      <trkpt lat="42.954598" lon="-6.371655">
        <ele>1091.74</ele>
        <time>2021-03-27T14:16:22Z</time>
      </trkpt>
      <trkpt lat="42.953841" lon="-6.370751">
        <ele>1085.14</ele>
        <time>2021-03-27T14:16:25Z</time>
      </trkpt>
      <trkpt lat="42.953756" lon="-6.370737">
        <ele>1081.63</ele>
        <time>2021-03-27T14:16:27Z</time>
      </trkpt>
      <trkpt lat="42.953717" lon="-6.370766">
        <ele>1079.53</ele>
        <time>2021-03-27T14:16:29Z</time>
      </trkpt>
      <trkpt lat="42.953666" lon="-6.370851">
        <ele>1076.04</ele>
        <time>2021-03-27T14:16:31Z</time>
      </trkpt>
      <trkpt lat="42.953666" lon="-6.370969">
        <ele>1073.54</ele>
        <time>2021-03-27T14:16:34Z</time>
      </trkpt>
      <trkpt lat="42.953702" lon="-6.37105">
        <ele>1073.49</ele>
        <time>2021-03-27T14:16:36Z</time>
      </trkpt>
      <trkpt lat="42.95398" lon="-6.371484">
        <ele>1074.99</ele>
        <time>2021-03-27T14:16:38Z</time>
      </trkpt>
      <trkpt lat="42.95418" lon="-6.371745">
        <ele>1074.55</ele>
        <time>2021-03-27T14:16:41Z</time>
      </trkpt>
      <trkpt lat="42.954321" lon="-6.371877">
        <ele>1076.79</ele>
        <time>2021-03-27T14:16:43Z</time>
      </trkpt>
      <trkpt lat="42.954693" lon="-6.372091">
        <ele>1082.63</ele>
        <time>2021-03-27T14:16:45Z</time>
      </trkpt>
      <trkpt lat="42.954846" lon="-6.372208">
        <ele>1082.2</ele>
        <time>2021-03-27T14:16:48Z</time>
      </trkpt>
      <trkpt lat="42.955015" lon="-6.372362">
        <ele>1083.27</ele>
        <time>2021-03-27T14:16:50Z</time>
      </trkpt>
      <trkpt lat="42.95504" lon="-6.372417">
        <ele>1083.72</ele>
        <time>2021-03-27T14:16:52Z</time>
      </trkpt>
      <trkpt lat="42.95504" lon="-6.372549">
        <ele>1083.56</ele>
        <time>2021-03-27T14:16:54Z</time>
      </trkpt>
      <trkpt lat="42.955005" lon="-6.372616">
        <ele>1082.69</ele>
        <time>2021-03-27T14:16:57Z</time>
      </trkpt>
      <trkpt lat="42.954707" lon="-6.372851">
        <ele>1077.31</ele>
        <time>2021-03-27T14:16:59Z</time>
      </trkpt>
      <trkpt lat="42.954659" lon="-6.372966">
        <ele>1075.65</ele>
        <time>2021-03-27T14:17:01Z</time>
      </trkpt>
      <trkpt lat="42.954636" lon="-6.373084">
        <ele>1074.43</ele>
        <time>2021-03-27T14:17:04Z</time>
      </trkpt>
      <trkpt lat="42.954671" lon="-6.373287">
        <ele>1072.76</ele>
        <time>2021-03-27T14:17:06Z</time>
      </trkpt>
      <trkpt lat="42.954777" lon="-6.37352">
        <ele>1070.17</ele>
        <time>2021-03-27T14:17:08Z</time>
      </trkpt>
      <trkpt lat="42.955117" lon="-6.373931">
        <ele>1067.4</ele>
        <time>2021-03-27T14:17:11Z</time>
      </trkpt>
      <trkpt lat="42.95569" lon="-6.374379">
        <ele>1067.35</ele>
        <time>2021-03-27T14:17:13Z</time>
      </trkpt>
      <trkpt lat="42.955854" lon="-6.374681">
        <ele>1061.2</ele>
        <time>2021-03-27T14:17:15Z</time>
      </trkpt>
      <trkpt lat="42.956166" lon="-6.374905">
        <ele>1065.92</ele>
        <time>2021-03-27T14:17:17Z</time>
      </trkpt>
      <trkpt lat="42.956437" lon="-6.375055">
        <ele>1062.05</ele>
        <time>2021-03-27T14:17:20Z</time>
      </trkpt>
      <trkpt lat="42.956778" lon="-6.375275">
        <ele>1062.09</ele>
        <time>2021-03-27T14:17:22Z</time>
      </trkpt>
      <trkpt lat="42.956862" lon="-6.375452">
        <ele>1059.56</ele>
        <time>2021-03-27T14:17:24Z</time>
      </trkpt>
      <trkpt lat="42.956831" lon="-6.375634">
        <ele>1055.43</ele>
        <time>2021-03-27T14:17:27Z</time>
      </trkpt>
      <trkpt lat="42.956748" lon="-6.37571">
        <ele>1053.39</ele>
        <time>2021-03-27T14:17:29Z</time>
      </trkpt>
      <trkpt lat="42.956633" lon="-6.375709">
        <ele>1051.91</ele>
        <time>2021-03-27T14:17:31Z</time>
      </trkpt>
      <trkpt lat="42.956382" lon="-6.375517">
        <ele>1048.6</ele>
        <time>2021-03-27T14:17:34Z</time>
      </trkpt>
      <trkpt lat="42.955953" lon="-6.375137">
        <ele>1055.99</ele>
        <time>2021-03-27T14:17:36Z</time>
      </trkpt>
      <trkpt lat="42.955201" lon="-6.37464">
        <ele>1050.47</ele>
        <time>2021-03-27T14:17:38Z</time>
      </trkpt>
      <trkpt lat="42.954975" lon="-6.374359">
        <ele>1051.93</ele>
        <time>2021-03-27T14:17:40Z</time>
      </trkpt>
      <trkpt lat="42.954703" lon="-6.374109">
        <ele>1053.09</ele>
        <time>2021-03-27T14:17:43Z</time>
      </trkpt>
      <trkpt lat="42.954035" lon="-6.374033">
        <ele>1042.52</ele>
        <time>2021-03-27T14:17:45Z</time>
      </trkpt>
      <trkpt lat="42.953883" lon="-6.373941">
        <ele>1041.92</ele>
        <time>2021-03-27T14:17:47Z</time>
      </trkpt>
      <trkpt lat="42.953648" lon="-6.373595">
        <ele>1041.22</ele>
        <time>2021-03-27T14:17:50Z</time>
      </trkpt>
      <trkpt lat="42.953123" lon="-6.372736">
        <ele>1035.09</ele>
        <time>2021-03-27T14:17:52Z</time>
      </trkpt>
      <trkpt lat="42.953072" lon="-6.372698">
        <ele>1034.23</ele>
        <time>2021-03-27T14:17:54Z</time>
      </trkpt>
      <trkpt lat="42.952769" lon="-6.372238">
        <ele>1037.7</ele>
        <time>2021-03-27T14:17:57Z</time>
      </trkpt>
      <trkpt lat="42.952573" lon="-6.372073">
        <ele>1040.29</ele>
        <time>2021-03-27T14:17:59Z</time>
      </trkpt>
      <trkpt lat="42.952229" lon="-6.372078">
        <ele>1037.61</ele>
        <time>2021-03-27T14:18:01Z</time>
      </trkpt>
      <trkpt lat="42.952036" lon="-6.372017">
        <ele>1037.05</ele>
        <time>2021-03-27T14:18:03Z</time>
      </trkpt>
      <trkpt lat="42.951836" lon="-6.37174">
        <ele>1037.59</ele>
        <time>2021-03-27T14:18:06Z</time>
      </trkpt>
      <trkpt lat="42.951354" lon="-6.370614">
        <ele>1034.42</ele>
        <time>2021-03-27T14:18:08Z</time>
      </trkpt>
      <trkpt lat="42.950777" lon="-6.370128">
        <ele>1029.66</ele>
        <time>2021-03-27T14:18:10Z</time>
      </trkpt>
      <trkpt lat="42.950683" lon="-6.370025">
        <ele>1026.93</ele>
        <time>2021-03-27T14:18:13Z</time>
      </trkpt>
      <trkpt lat="42.950615" lon="-6.36991">
        <ele>1024.58</ele>
        <time>2021-03-27T14:18:15Z</time>
      </trkpt>
      <trkpt lat="42.950524" lon="-6.369565">
        <ele>1021.82</ele>
        <time>2021-03-27T14:18:17Z</time>
      </trkpt>
      <trkpt lat="42.950474" lon="-6.36914">
        <ele>1022.23</ele>
        <time>2021-03-27T14:18:20Z</time>
      </trkpt>
      <trkpt lat="42.950475" lon="-6.368369">
        <ele>1024.12</ele>
        <time>2021-03-27T14:18:22Z</time>
      </trkpt>
      <trkpt lat="42.95031" lon="-6.366945">
        <ele>1015.47</ele>
        <time>2021-03-27T14:18:24Z</time>
      </trkpt>
      <trkpt lat="42.950234" lon="-6.366534">
        <ele>1013.61</ele>
        <time>2021-03-27T14:18:26Z</time>
      </trkpt>
      <trkpt lat="42.949402" lon="-6.363516">
        <ele>1007.16</ele>
        <time>2021-03-27T14:18:29Z</time>
      </trkpt>
      <trkpt lat="42.949177" lon="-6.362778">
        <ele>1007.29</ele>
        <time>2021-03-27T14:18:31Z</time>
      </trkpt>
      <trkpt lat="42.948744" lon="-6.361382">
        <ele>1009.35</ele>
        <time>2021-03-27T14:18:33Z</time>
      </trkpt>
      <trkpt lat="42.94861" lon="-6.361124">
        <ele>1006.8</ele>
        <time>2021-03-27T14:18:36Z</time>
      </trkpt>
      <trkpt lat="42.947877" lon="-6.360292">
        <ele>1000.39</ele>
        <time>2021-03-27T14:18:38Z</time>
      </trkpt>
      <trkpt lat="42.947776" lon="-6.360129">
        <ele>1000.05</ele>
        <time>2021-03-27T14:18:40Z</time>
      </trkpt>
      <trkpt lat="42.947691" lon="-6.359895">
        <ele>1000.82</ele>
        <time>2021-03-27T14:18:43Z</time>
      </trkpt>
      <trkpt lat="42.947626" lon="-6.359653">
        <ele>1001.99</ele>
        <time>2021-03-27T14:18:45Z</time>
      </trkpt>
      <trkpt lat="42.947447" lon="-6.358323">
        <ele>1004.3</ele>
        <time>2021-03-27T14:18:47Z</time>
      </trkpt>
      <trkpt lat="42.94688" lon="-6.354489">
        <ele>992.77</ele>
        <time>2021-03-27T14:18:49Z</time>
      </trkpt>
      <trkpt lat="42.946711" lon="-6.353925">
        <ele>990.31</ele>
        <time>2021-03-27T14:18:52Z</time>
      </trkpt>
      <trkpt lat="42.946237" lon="-6.352502">
        <ele>986.47</ele>
        <time>2021-03-27T14:18:54Z</time>
      </trkpt>
      <trkpt lat="42.946125" lon="-6.352113">
        <ele>985.42</ele>
        <time>2021-03-27T14:18:56Z</time>
      </trkpt>
      <trkpt lat="42.945551" lon="-6.348533">
        <ele>985.25</ele>
        <time>2021-03-27T14:18:59Z</time>
      </trkpt>
      <trkpt lat="42.945519" lon="-6.34848">
        <ele>985.22</ele>
        <time>2021-03-27T14:19:05Z</time>
      </trkpt>
      <trkpt lat="42.945503" lon="-6.348408">
        <ele>985.26</ele>
        <time>2021-03-27T14:19:11Z</time>
      </trkpt>
      <trkpt lat="42.945507" lon="-6.348336">
        <ele>985.47</ele>
        <time>2021-03-27T14:19:18Z</time>
      </trkpt>
      <trkpt lat="42.945532" lon="-6.34827">
        <ele>985.3</ele>
        <time>2021-03-27T14:19:24Z</time>
      </trkpt>
      <trkpt lat="42.945597" lon="-6.348205">
        <ele>985.07</ele>
        <time>2021-03-27T14:19:30Z</time>
      </trkpt>
      <trkpt lat="42.945665" lon="-6.348197">
        <ele>985.01</ele>
        <time>2021-03-27T14:19:36Z</time>
      </trkpt>
      <trkpt lat="42.945715" lon="-6.348222">
        <ele>985.08</ele>
        <time>2021-03-27T14:19:42Z</time>
      </trkpt>
      <trkpt lat="42.945758" lon="-6.348276">
        <ele>985.16</ele>
        <time>2021-03-27T14:19:49Z</time>
      </trkpt>
      <trkpt lat="42.946029" lon="-6.347673">
        <ele>985.16</ele>
        <time>2021-03-27T14:19:55Z</time>
      </trkpt>
      <trkpt lat="42.946296" lon="-6.347137">
        <ele>989.76</ele>
        <time>2021-03-27T14:20:01Z</time>
      </trkpt>
      <trkpt lat="42.946367" lon="-6.346951">
        <ele>990.76</ele>
        <time>2021-03-27T14:20:07Z</time>
      </trkpt>
      <trkpt lat="42.946411" lon="-6.346646">
        <ele>991.71</ele>
        <time>2021-03-27T14:20:14Z</time>
      </trkpt>
      <trkpt lat="42.946399" lon="-6.346344">
        <ele>993.59</ele>
        <time>2021-03-27T14:20:20Z</time>
      </trkpt>
      <trkpt lat="42.94628" lon="-6.345471">
        <ele>992.3</ele>
        <time>2021-03-27T14:20:26Z</time>
      </trkpt>
      <trkpt lat="42.94621" lon="-6.345158">
        <ele>992.35</ele>
        <time>2021-03-27T14:20:32Z</time>
      </trkpt>
      <trkpt lat="42.946122" lon="-6.344915">
        <ele>991.6</ele>
        <time>2021-03-27T14:20:38Z</time>
      </trkpt>
      <trkpt lat="42.945995" lon="-6.344639">
        <ele>991.44</ele>
        <time>2021-03-27T14:20:45Z</time>
      </trkpt>
      <trkpt lat="42.94586" lon="-6.344416">
        <ele>990.98</ele>
        <time>2021-03-27T14:20:51Z</time>
      </trkpt>
      <trkpt lat="42.945705" lon="-6.344257">
        <ele>990.18</ele>
        <time>2021-03-27T14:20:57Z</time>
      </trkpt>
      <trkpt lat="42.944946" lon="-6.343733">
        <ele>987.58</ele>
        <time>2021-03-27T14:21:03Z</time>
      </trkpt>
      <trkpt lat="42.944493" lon="-6.343452">
        <ele>987.52</ele>
        <time>2021-03-27T14:21:10Z</time>
      </trkpt>
      <trkpt lat="42.944373" lon="-6.343332">
        <ele>987.5</ele>
        <time>2021-03-27T14:21:16Z</time>
      </trkpt>
      <trkpt lat="42.944188" lon="-6.343076">
        <ele>988.86</ele>
        <time>2021-03-27T14:21:22Z</time>
      </trkpt>
      <trkpt lat="42.94305" lon="-6.341144">
        <ele>992.85</ele>
        <time>2021-03-27T14:21:28Z</time>
      </trkpt>
      <trkpt lat="42.94293" lon="-6.340802">
        <ele>994.63</ele>
        <time>2021-03-27T14:21:34Z</time>
      </trkpt>
      <trkpt lat="42.942901" lon="-6.339762">
        <ele>996.0</ele>
        <time>2021-03-27T14:21:41Z</time>
      </trkpt>
      <trkpt lat="42.942854" lon="-6.339441">
        <ele>996.72</ele>
        <time>2021-03-27T14:21:47Z</time>
      </trkpt>
      <trkpt lat="42.942253" lon="-6.336661">
        <ele>988.3</ele>
        <time>2021-03-27T14:21:53Z</time>
      </trkpt>
      <trkpt lat="42.942222" lon="-6.336332">
        <ele>986.0</ele>
        <time>2021-03-27T14:21:59Z</time>
      </trkpt>
      <trkpt lat="42.941813" lon="-6.329774">
        <ele>996.68</ele>
        <time>2021-03-27T14:22:06Z</time>
      </trkpt>
      <trkpt lat="42.941758" lon="-6.329317">
        <ele>995.97</ele>
        <time>2021-03-27T14:22:12Z</time>
      </trkpt>
      <trkpt lat="42.941538" lon="-6.32829">
        <ele>1001.61</ele>
        <time>2021-03-27T14:22:18Z</time>
      </trkpt>
      <trkpt lat="42.941398" lon="-6.32748">
        <ele>999.99</ele>
        <time>2021-03-27T14:22:24Z</time>
      </trkpt>
      <trkpt lat="42.94133" lon="-6.326993">
        <ele>998.61</ele>
        <time>2021-03-27T14:22:30Z</time>
      </trkpt>
      <trkpt lat="42.94115" lon="-6.325646">
        <ele>998.7</ele>
        <time>2021-03-27T14:22:37Z</time>
      </trkpt>
      <trkpt lat="42.94026" lon="-6.318574">
        <ele>1011.95</ele>
        <time>2021-03-27T14:22:43Z</time>
      </trkpt>
      <trkpt lat="42.940111" lon="-6.317489">
        <ele>1019.22</ele>
        <time>2021-03-27T14:22:49Z</time>
      </trkpt>
      <trkpt lat="42.940114" lon="-6.317325">
        <ele>1019.41</ele>
        <time>2021-03-27T14:22:55Z</time>
      </trkpt>
      <trkpt lat="42.940017" lon="-6.317062">
        <ele>1017.37</ele>
        <time>2021-03-27T14:23:02Z</time>
      </trkpt>
      <trkpt lat="42.939856" lon="-6.316078">
        <ele>1016.5</ele>
        <time>2021-03-27T14:23:08Z</time>
      </trkpt>
      <trkpt lat="42.939147" lon="-6.31144">
        <ele>1006.54</ele>
        <time>2021-03-27T14:23:14Z</time>
      </trkpt>
      <trkpt lat="42.939048" lon="-6.310972">
        <ele>1006.22</ele>
        <time>2021-03-27T14:23:20Z</time>
      </trkpt>
      <trkpt lat="42.938964" lon="-6.310695">
        <ele>1005.0</ele>
        <time>2021-03-27T14:23:26Z</time>
      </trkpt>
      <trkpt lat="42.938463" lon="-6.309677">
        <ele>1002.72</ele>
        <time>2021-03-27T14:23:33Z</time>
      </trkpt>
      <trkpt lat="42.938227" lon="-6.309157">
        <ele>1000.92</ele>
        <time>2021-03-27T14:23:39Z</time>
      </trkpt>
      <trkpt lat="42.938142" lon="-6.308887">
        <ele>1000.89</ele>
        <time>2021-03-27T14:23:45Z</time>
      </trkpt>
      <trkpt lat="42.938089" lon="-6.308657">
        <ele>1000.96</ele>
        <time>2021-03-27T14:23:51Z</time>
      </trkpt>
      <trkpt lat="42.938088" lon="-6.30791">
        <ele>1004.43</ele>
        <time>2021-03-27T14:23:58Z</time>
      </trkpt>
      <trkpt lat="42.93802" lon="-6.307703">
        <ele>1002.1</ele>
        <time>2021-03-27T14:24:04Z</time>
      </trkpt>
      <trkpt lat="42.93789" lon="-6.30751">
        <ele>998.83</ele>
        <time>2021-03-27T14:24:10Z</time>
      </trkpt>
      <trkpt lat="42.937614" lon="-6.307183">
        <ele>999.37</ele>
        <time>2021-03-27T14:24:16Z</time>
      </trkpt>
      <trkpt lat="42.937458" lon="-6.306939">
        <ele>1000.9</ele>
        <time>2021-03-27T14:24:22Z</time>
      </trkpt>
      <trkpt lat="42.937343" lon="-6.306545">
        <ele>1002.55</ele>
        <time>2021-03-27T14:24:29Z</time>
      </trkpt>
      <trkpt lat="42.937301" lon="-6.304906">
        <ele>993.17</ele>
        <time>2021-03-27T14:24:35Z</time>
      </trkpt>
      <trkpt lat="42.93729" lon="-6.303852">
        <ele>991.39</ele>
        <time>2021-03-27T14:24:41Z</time>
      </trkpt>
      <trkpt lat="42.937205" lon="-6.302316">
        <ele>990.9</ele>
        <time>2021-03-27T14:24:47Z</time>
      </trkpt>
      <trkpt lat="42.93714" lon="-6.301833">
        <ele>990.75</ele>
        <time>2021-03-27T14:24:54Z</time>
      </trkpt>
      <trkpt lat="42.937053" lon="-6.301519">
        <ele>990.16</ele>
        <time>2021-03-27T14:25:00Z</time>
      </trkpt>
      <trkpt lat="42.936845" lon="-6.301052">
        <ele>987.42</ele>
        <time>2021-03-27T14:25:06Z</time>
      </trkpt>
      <trkpt lat="42.93495" lon="-6.297367">
        <ele>985.69</ele>
        <time>2021-03-27T14:25:12Z</time>
      </trkpt>
      <trkpt lat="42.934128" lon="-6.295424">
        <ele>987.98</ele>
        <time>2021-03-27T14:25:18Z</time>
      </trkpt>
      <trkpt lat="42.933847" lon="-6.294472">
        <ele>993.01</ele>
        <time>2021-03-27T14:25:25Z</time>
      </trkpt>
      <trkpt lat="42.932896" lon="-6.290892">
        <ele>999.55</ele>
        <time>2021-03-27T14:25:31Z</time>
      </trkpt>
      <trkpt lat="42.932792" lon="-6.290671">
        <ele>996.77</ele>
        <time>2021-03-27T14:25:33Z</time>
      </trkpt>
      <trkpt lat="42.932741" lon="-6.290472">
        <ele>994.69</ele>
        <time>2021-03-27T14:25:35Z</time>
      </trkpt>
      <trkpt lat="42.932472" lon="-6.290135">
        <ele>990.51</ele>
        <time>2021-03-27T14:25:37Z</time>
      </trkpt>
      <trkpt lat="42.932348" lon="-6.289918">
        <ele>991.43</ele>
        <time>2021-03-27T14:25:38Z</time>
      </trkpt>
      <trkpt lat="42.932186" lon="-6.289505">
        <ele>994.27</ele>
        <time>2021-03-27T14:25:40Z</time>
      </trkpt>
      <trkpt lat="42.931801" lon="-6.288225">
        <ele>999.07</ele>
        <time>2021-03-27T14:25:42Z</time>
      </trkpt>
      <trkpt lat="42.931455" lon="-6.287454">
        <ele>998.28</ele>
        <time>2021-03-27T14:25:44Z</time>
      </trkpt>
      <trkpt lat="42.93125" lon="-6.287125">
        <ele>999.02</ele>
        <time>2021-03-27T14:25:46Z</time>
      </trkpt>
      <trkpt lat="42.931091" lon="-6.286843">
        <ele>998.4</ele>
        <time>2021-03-27T14:25:48Z</time>
      </trkpt>
      <trkpt lat="42.931034" lon="-6.286707">
        <ele>998.46</ele>
        <time>2021-03-27T14:25:50Z</time>
      </trkpt>
      <trkpt lat="42.930988" lon="-6.286564">
        <ele>998.48</ele>
        <time>2021-03-27T14:25:51Z</time>
      </trkpt>
      <trkpt lat="42.930914" lon="-6.285534">
        <ele>1005.71</ele>
        <time>2021-03-27T14:25:53Z</time>
      </trkpt>
      <trkpt lat="42.930798" lon="-6.284907">
        <ele>1009.65</ele>
        <time>2021-03-27T14:25:55Z</time>
      </trkpt>
      <trkpt lat="42.93072" lon="-6.284623">
        <ele>1008.15</ele>
        <time>2021-03-27T14:25:57Z</time>
      </trkpt>
      <trkpt lat="42.930616" lon="-6.284338">
        <ele>1007.09</ele>
        <time>2021-03-27T14:25:59Z</time>
      </trkpt>
      <trkpt lat="42.930307" lon="-6.283824">
        <ele>1008.26</ele>
        <time>2021-03-27T14:26:01Z</time>
      </trkpt>
      <trkpt lat="42.929559" lon="-6.282802">
        <ele>1010.41</ele>
        <time>2021-03-27T14:26:03Z</time>
      </trkpt>
      <trkpt lat="42.929152" lon="-6.282418">
        <ele>1013.03</ele>
        <time>2021-03-27T14:26:05Z</time>
      </trkpt>
      <trkpt lat="42.928895" lon="-6.282202">
        <ele>1013.87</ele>
        <time>2021-03-27T14:26:06Z</time>
      </trkpt>
      <trkpt lat="42.928737" lon="-6.282037">
        <ele>1019.61</ele>
        <time>2021-03-27T14:26:08Z</time>
      </trkpt>
      <trkpt lat="42.928634" lon="-6.281971">
        <ele>1021.3</ele>
        <time>2021-03-27T14:26:10Z</time>
      </trkpt>
      <trkpt lat="42.928527" lon="-6.281934">
        <ele>1022.58</ele>
        <time>2021-03-27T14:26:12Z</time>
      </trkpt>
      <trkpt lat="42.928374" lon="-6.281973">
        <ele>1020.4</ele>
        <time>2021-03-27T14:26:14Z</time>
      </trkpt>
      <trkpt lat="42.928245" lon="-6.282077">
        <ele>1021.83</ele>
        <time>2021-03-27T14:26:16Z</time>
      </trkpt>
      <trkpt lat="42.927775" lon="-6.282703">
        <ele>1015.4</ele>
        <time>2021-03-27T14:26:18Z</time>
      </trkpt>
      <trkpt lat="42.927633" lon="-6.282847">
        <ele>1017.13</ele>
        <time>2021-03-27T14:26:19Z</time>
      </trkpt>
      <trkpt lat="42.92753" lon="-6.2829">
        <ele>1019.35</ele>
        <time>2021-03-27T14:26:21Z</time>
      </trkpt>
      <trkpt lat="42.927418" lon="-6.282911">
        <ele>1019.99</ele>
        <time>2021-03-27T14:26:23Z</time>
      </trkpt>
      <trkpt lat="42.927308" lon="-6.282844">
        <ele>1019.64</ele>
        <time>2021-03-27T14:26:25Z</time>
      </trkpt>
      <trkpt lat="42.92682" lon="-6.282248">
        <ele>1032.08</ele>
        <time>2021-03-27T14:26:27Z</time>
      </trkpt>
      <trkpt lat="42.926664" lon="-6.282105">
        <ele>1035.6</ele>
        <time>2021-03-27T14:26:29Z</time>
      </trkpt>
      <trkpt lat="42.92649" lon="-6.282056">
        <ele>1033.76</ele>
        <time>2021-03-27T14:26:31Z</time>
      </trkpt>
      <trkpt lat="42.925491" lon="-6.28208">
        <ele>1029.88</ele>
        <time>2021-03-27T14:26:33Z</time>
      </trkpt>
      <trkpt lat="42.925391" lon="-6.28205">
        <ele>1031.67</ele>
        <time>2021-03-27T14:26:34Z</time>
      </trkpt>
      <trkpt lat="42.925248" lon="-6.281941">
        <ele>1034.11</ele>
        <time>2021-03-27T14:26:36Z</time>
      </trkpt>
      <trkpt lat="42.924932" lon="-6.281475">
        <ele>1036.69</ele>
        <time>2021-03-27T14:26:38Z</time>
      </trkpt>
      <trkpt lat="42.92478" lon="-6.281283">
        <ele>1036.27</ele>
        <time>2021-03-27T14:26:40Z</time>
      </trkpt>
      <trkpt lat="42.924655" lon="-6.281175">
        <ele>1037.74</ele>
        <time>2021-03-27T14:26:42Z</time>
      </trkpt>
      <trkpt lat="42.924516" lon="-6.281111">
        <ele>1035.58</ele>
        <time>2021-03-27T14:26:44Z</time>
      </trkpt>
      <trkpt lat="42.924325" lon="-6.281108">
        <ele>1034.03</ele>
        <time>2021-03-27T14:26:46Z</time>
      </trkpt>
      <trkpt lat="42.924107" lon="-6.28118">
        <ele>1034.06</ele>
        <time>2021-03-27T14:26:47Z</time>
      </trkpt>
      <trkpt lat="42.923846" lon="-6.281301">
        <ele>1034.44</ele>
        <time>2021-03-27T14:26:49Z</time>
      </trkpt>
      <trkpt lat="42.923707" lon="-6.281321">
        <ele>1033.8</ele>
        <time>2021-03-27T14:26:51Z</time>
      </trkpt>
      <trkpt lat="42.923593" lon="-6.28131">
        <ele>1033.9</ele>
        <time>2021-03-27T14:26:53Z</time>
      </trkpt>
      <trkpt lat="42.923481" lon="-6.28121">
        <ele>1033.92</ele>
        <time>2021-03-27T14:26:55Z</time>
      </trkpt>
      <trkpt lat="42.923348" lon="-6.280938">
        <ele>1035.01</ele>
        <time>2021-03-27T14:26:57Z</time>
      </trkpt>
      <trkpt lat="42.923064" lon="-6.280255">
        <ele>1036.58</ele>
        <time>2021-03-27T14:26:59Z</time>
      </trkpt>
      <trkpt lat="42.922894" lon="-6.279991">
        <ele>1033.31</ele>
        <time>2021-03-27T14:27:01Z</time>
      </trkpt>
      <trkpt lat="42.922376" lon="-6.279486">
        <ele>1033.16</ele>
        <time>2021-03-27T14:27:02Z</time>
      </trkpt>
      <trkpt lat="42.922239" lon="-6.279308">
        <ele>1033.34</ele>
        <time>2021-03-27T14:27:04Z</time>
      </trkpt>
      <trkpt lat="42.922112" lon="-6.279076">
        <ele>1034.77</ele>
        <time>2021-03-27T14:27:06Z</time>
      </trkpt>
      <trkpt lat="42.921967" lon="-6.278747">
        <ele>1037.22</ele>
        <time>2021-03-27T14:27:08Z</time>
      </trkpt>
      <trkpt lat="42.921648" lon="-6.278249">
        <ele>1040.11</ele>
        <time>2021-03-27T14:27:10Z</time>
      </trkpt>
      <trkpt lat="42.921516" lon="-6.278074">
        <ele>1040.06</ele>
        <time>2021-03-27T14:27:12Z</time>
      </trkpt>
      <trkpt lat="42.921349" lon="-6.277957">
        <ele>1039.18</ele>
        <time>2021-03-27T14:27:14Z</time>
      </trkpt>
      <trkpt lat="42.920726" lon="-6.277792">
        <ele>1048.9</ele>
        <time>2021-03-27T14:27:15Z</time>
      </trkpt>
      <trkpt lat="42.920095" lon="-6.277544">
        <ele>1045.73</ele>
        <time>2021-03-27T14:27:17Z</time>
      </trkpt>
      <trkpt lat="42.919935" lon="-6.277434">
        <ele>1047.43</ele>
        <time>2021-03-27T14:27:19Z</time>
      </trkpt>
      <trkpt lat="42.919818" lon="-6.277286">
        <ele>1049.49</ele>
        <time>2021-03-27T14:27:21Z</time>
      </trkpt>
      <trkpt lat="42.919684" lon="-6.277032">
        <ele>1049.76</ele>
        <time>2021-03-27T14:27:23Z</time>
      </trkpt>
      <trkpt lat="42.919569" lon="-6.276738">
        <ele>1049.44</ele>
        <time>2021-03-27T14:27:25Z</time>
      </trkpt>
      <trkpt lat="42.919533" lon="-6.276547">
        <ele>1049.86</ele>
        <time>2021-03-27T14:27:27Z</time>
      </trkpt>
      <trkpt lat="42.919542" lon="-6.276327">
        <ele>1052.57</ele>
        <time>2021-03-27T14:27:29Z</time>
      </trkpt>
      <trkpt lat="42.919602" lon="-6.27606">
        <ele>1060.18</ele>
        <time>2021-03-27T14:27:30Z</time>
      </trkpt>
      <trkpt lat="42.919682" lon="-6.275526">
        <ele>1066.42</ele>
        <time>2021-03-27T14:27:32Z</time>
      </trkpt>
      <trkpt lat="42.919679" lon="-6.275362">
        <ele>1065.68</ele>
        <time>2021-03-27T14:27:34Z</time>
      </trkpt>
      <trkpt lat="42.919629" lon="-6.275132">
        <ele>1063.33</ele>
        <time>2021-03-27T14:27:36Z</time>
      </trkpt>
      <trkpt lat="42.919423" lon="-6.274471">
        <ele>1063.96</ele>
        <time>2021-03-27T14:27:38Z</time>
      </trkpt>
      <trkpt lat="42.919378" lon="-6.273972">
        <ele>1069.91</ele>
        <time>2021-03-27T14:27:40Z</time>
      </trkpt>
      <trkpt lat="42.91932" lon="-6.273836">
        <ele>1071.28</ele>
        <time>2021-03-27T14:27:42Z</time>
      </trkpt>
      <trkpt lat="42.919244" lon="-6.273716">
        <ele>1072.14</ele>
        <time>2021-03-27T14:27:44Z</time>
      </trkpt>
      <trkpt lat="42.919016" lon="-6.273501">
        <ele>1071.01</ele>
        <time>2021-03-27T14:27:45Z</time>
      </trkpt>
      <trkpt lat="42.918711" lon="-6.273255">
        <ele>1073.62</ele>
        <time>2021-03-27T14:27:47Z</time>
      </trkpt>
      <trkpt lat="42.918458" lon="-6.273201">
        <ele>1075.7</ele>
        <time>2021-03-27T14:27:49Z</time>
      </trkpt>
      <trkpt lat="42.918348" lon="-6.27321">
        <ele>1076.7</ele>
        <time>2021-03-27T14:27:51Z</time>
      </trkpt>
      <trkpt lat="42.918221" lon="-6.273261">
        <ele>1080.21</ele>
        <time>2021-03-27T14:27:53Z</time>
      </trkpt>
      <trkpt lat="42.918112" lon="-6.27335">
        <ele>1081.71</ele>
        <time>2021-03-27T14:27:55Z</time>
      </trkpt>
      <trkpt lat="42.917842" lon="-6.27365">
        <ele>1081.26</ele>
        <time>2021-03-27T14:27:57Z</time>
      </trkpt>
      <trkpt lat="42.917604" lon="-6.27388">
        <ele>1080.64</ele>
        <time>2021-03-27T14:27:58Z</time>
      </trkpt>
      <trkpt lat="42.917523" lon="-6.273895">
        <ele>1081.56</ele>
        <time>2021-03-27T14:28:00Z</time>
      </trkpt>
      <trkpt lat="42.917448" lon="-6.27387">
        <ele>1080.5</ele>
        <time>2021-03-27T14:28:02Z</time>
      </trkpt>
      <trkpt lat="42.917388" lon="-6.273806">
        <ele>1079.14</ele>
        <time>2021-03-27T14:28:04Z</time>
      </trkpt>
      <trkpt lat="42.917348" lon="-6.273714">
        <ele>1078.64</ele>
        <time>2021-03-27T14:28:06Z</time>
      </trkpt>
      <trkpt lat="42.917331" lon="-6.273602">
        <ele>1079.04</ele>
        <time>2021-03-27T14:28:08Z</time>
      </trkpt>
      <trkpt lat="42.917414" lon="-6.273212">
        <ele>1085.21</ele>
        <time>2021-03-27T14:28:10Z</time>
      </trkpt>
      <trkpt lat="42.917446" lon="-6.272892">
        <ele>1084.96</ele>
        <time>2021-03-27T14:28:12Z</time>
      </trkpt>
      <trkpt lat="42.917423" lon="-6.272476">
        <ele>1085.24</ele>
        <time>2021-03-27T14:28:13Z</time>
      </trkpt>
      <trkpt lat="42.917255" lon="-6.271978">
        <ele>1090.61</ele>
        <time>2021-03-27T14:28:15Z</time>
      </trkpt>
      <trkpt lat="42.917214" lon="-6.271717">
        <ele>1096.75</ele>
        <time>2021-03-27T14:28:17Z</time>
      </trkpt>
      <trkpt lat="42.917143" lon="-6.270076">
        <ele>1104.5</ele>
        <time>2021-03-27T14:28:19Z</time>
      </trkpt>
      <trkpt lat="42.917219" lon="-6.269598">
        <ele>1111.69</ele>
        <time>2021-03-27T14:28:21Z</time>
      </trkpt>
      <trkpt lat="42.917267" lon="-6.269127">
        <ele>1117.45</ele>
        <time>2021-03-27T14:28:23Z</time>
      </trkpt>
      <trkpt lat="42.917257" lon="-6.268628">
        <ele>1118.4</ele>
        <time>2021-03-27T14:28:25Z</time>
      </trkpt>
      <trkpt lat="42.917084" lon="-6.26806">
        <ele>1106.05</ele>
        <time>2021-03-27T14:28:26Z</time>
      </trkpt>
      <trkpt lat="42.91706" lon="-6.267886">
        <ele>1104.71</ele>
        <time>2021-03-27T14:28:28Z</time>
      </trkpt>
      <trkpt lat="42.91709" lon="-6.267588">
        <ele>1106.61</ele>
        <time>2021-03-27T14:28:30Z</time>
      </trkpt>
      <trkpt lat="42.917164" lon="-6.267196">
        <ele>1109.78</ele>
        <time>2021-03-27T14:28:32Z</time>
      </trkpt>
      <trkpt lat="42.917166" lon="-6.266924">
        <ele>1112.65</ele>
        <time>2021-03-27T14:28:34Z</time>
      </trkpt>
      <trkpt lat="42.917084" lon="-6.266475">
        <ele>1115.16</ele>
        <time>2021-03-27T14:28:36Z</time>
      </trkpt>
      <trkpt lat="42.916718" lon="-6.265309">
        <ele>1122.28</ele>
        <time>2021-03-27T14:28:38Z</time>
      </trkpt>
      <trkpt lat="42.916689" lon="-6.265133">
        <ele>1122.32</ele>
        <time>2021-03-27T14:28:40Z</time>
      </trkpt>
      <trkpt lat="42.916689" lon="-6.264932">
        <ele>1123.1</ele>
        <time>2021-03-27T14:28:41Z</time>
      </trkpt>
      <trkpt lat="42.916715" lon="-6.264698">
        <ele>1124.13</ele>
        <time>2021-03-27T14:28:43Z</time>
      </trkpt>
      <trkpt lat="42.916877" lon="-6.26425">
        <ele>1131.95</ele>
        <time>2021-03-27T14:28:45Z</time>
      </trkpt>
      <trkpt lat="42.917151" lon="-6.263831">
        <ele>1129.3</ele>
        <time>2021-03-27T14:28:47Z</time>
      </trkpt>
      <trkpt lat="42.917664" lon="-6.263456">
        <ele>1136.1</ele>
        <time>2021-03-27T14:28:49Z</time>
      </trkpt>
      <trkpt lat="42.918142" lon="-6.26316">
        <ele>1148.25</ele>
        <time>2021-03-27T14:28:51Z</time>
      </trkpt>
      <trkpt lat="42.918269" lon="-6.263032">
        <ele>1151.61</ele>
        <time>2021-03-27T14:28:53Z</time>
      </trkpt>
      <trkpt lat="42.918326" lon="-6.262899">
        <ele>1154.3</ele>
        <time>2021-03-27T14:28:54Z</time>
      </trkpt>
      <trkpt lat="42.918534" lon="-6.262069">
        <ele>1151.95</ele>
        <time>2021-03-27T14:28:56Z</time>
      </trkpt>
      <trkpt lat="42.918551" lon="-6.261961">
        <ele>1152.79</ele>
        <time>2021-03-27T14:28:58Z</time>
      </trkpt>
      <trkpt lat="42.918547" lon="-6.261844">
        <ele>1156.02</ele>
        <time>2021-03-27T14:29:00Z</time>
      </trkpt>
      <trkpt lat="42.918454" lon="-6.261563">
        <ele>1158.36</ele>
        <time>2021-03-27T14:29:02Z</time>
      </trkpt>
      <trkpt lat="42.91815" lon="-6.260858">
        <ele>1154.57</ele>
        <time>2021-03-27T14:29:04Z</time>
      </trkpt>
      <trkpt lat="42.917918" lon="-6.260262">
        <ele>1151.07</ele>
        <time>2021-03-27T14:29:06Z</time>
      </trkpt>
      <trkpt lat="42.917892" lon="-6.260112">
        <ele>1153.3</ele>
        <time>2021-03-27T14:29:08Z</time>
      </trkpt>
      <trkpt lat="42.917948" lon="-6.259923">
        <ele>1159.5</ele>
        <time>2021-03-27T14:29:09Z</time>
      </trkpt>
      <trkpt lat="42.918366" lon="-6.258909">
        <ele>1162.36</ele>
        <time>2021-03-27T14:29:11Z</time>
      </trkpt>
      <trkpt lat="42.91849" lon="-6.258693">
        <ele>1166.2</ele>
        <time>2021-03-27T14:29:13Z</time>
      </trkpt>
      <trkpt lat="42.919052" lon="-6.258039">
        <ele>1176.33</ele>
        <time>2021-03-27T14:29:15Z</time>
      </trkpt>
      <trkpt lat="42.919121" lon="-6.257915">
        <ele>1174.2</ele>
        <time>2021-03-27T14:29:17Z</time>
      </trkpt>
      <trkpt lat="42.919171" lon="-6.257768">
        <ele>1171.24</ele>
        <time>2021-03-27T14:29:19Z</time>
      </trkpt>
      <trkpt lat="42.919193" lon="-6.257622">
        <ele>1173.59</ele>
        <time>2021-03-27T14:29:21Z</time>
      </trkpt>
      <trkpt lat="42.919196" lon="-6.257481">
        <ele>1175.84</ele>
        <time>2021-03-27T14:29:22Z</time>
      </trkpt>
      <trkpt lat="42.919057" lon="-6.256601">
        <ele>1175.53</ele>
        <time>2021-03-27T14:29:24Z</time>
      </trkpt>
      <trkpt lat="42.918984" lon="-6.255806">
        <ele>1180.98</ele>
        <time>2021-03-27T14:29:26Z</time>
      </trkpt>
      <trkpt lat="42.918704" lon="-6.254918">
        <ele>1179.12</ele>
        <time>2021-03-27T14:29:28Z</time>
      </trkpt>
      <trkpt lat="42.918521" lon="-6.254104">
        <ele>1178.72</ele>
        <time>2021-03-27T14:29:30Z</time>
      </trkpt>
      <trkpt lat="42.918454" lon="-6.25372">
        <ele>1180.05</ele>
        <time>2021-03-27T14:29:32Z</time>
      </trkpt>
      <trkpt lat="42.918388" lon="-6.253069">
        <ele>1184.16</ele>
        <time>2021-03-27T14:29:34Z</time>
      </trkpt>
      <trkpt lat="42.918386" lon="-6.252725">
        <ele>1187.42</ele>
        <time>2021-03-27T14:29:36Z</time>
      </trkpt>
      <trkpt lat="42.918413" lon="-6.252327">
        <ele>1193.99</ele>
        <time>2021-03-27T14:29:37Z</time>
      </trkpt>
      <trkpt lat="42.918569" lon="-6.251716">
        <ele>1203.04</ele>
        <time>2021-03-27T14:29:39Z</time>
      </trkpt>
      <trkpt lat="42.918574" lon="-6.251546">
        <ele>1200.91</ele>
        <time>2021-03-27T14:29:41Z</time>
      </trkpt>
      <trkpt lat="42.918326" lon="-6.250086">
        <ele>1201.66</ele>
        <time>2021-03-27T14:29:43Z</time>
      </trkpt>
      <trkpt lat="42.918101" lon="-6.248633">
        <ele>1206.69</ele>
        <time>2021-03-27T14:29:45Z</time>
      </trkpt>
      <trkpt lat="42.918014" lon="-6.248298">
        <ele>1208.85</ele>
        <time>2021-03-27T14:29:47Z</time>
      </trkpt>
      <trkpt lat="42.917932" lon="-6.248078">
        <ele>1213.19</ele>
        <time>2021-03-27T14:29:49Z</time>
      </trkpt>
      <trkpt lat="42.917791" lon="-6.24785">
        <ele>1214.94</ele>
        <time>2021-03-27T14:29:50Z</time>
      </trkpt>
      <trkpt lat="42.916792" lon="-6.246687">
        <ele>1219.26</ele>
        <time>2021-03-27T14:29:52Z</time>
      </trkpt>
      <trkpt lat="42.916519" lon="-6.246392">
        <ele>1221.4</ele>
        <time>2021-03-27T14:29:54Z</time>
      </trkpt>
      <trkpt lat="42.916456" lon="-6.246284">
        <ele>1223.23</ele>
        <time>2021-03-27T14:29:56Z</time>
      </trkpt>
      <trkpt lat="42.916211" lon="-6.245373">
        <ele>1226.48</ele>
        <time>2021-03-27T14:29:58Z</time>
      </trkpt>
      <trkpt lat="42.916205" lon="-6.245183">
        <ele>1225.16</ele>
        <time>2021-03-27T14:30:00Z</time>
      </trkpt>
      <trkpt lat="42.916249" lon="-6.24504">
        <ele>1225.01</ele>
        <time>2021-03-27T14:30:02Z</time>
      </trkpt>
      <trkpt lat="42.916521" lon="-6.244432">
        <ele>1231.11</ele>
        <time>2021-03-27T14:30:04Z</time>
      </trkpt>
      <trkpt lat="42.916593" lon="-6.244231">
        <ele>1233.9</ele>
        <time>2021-03-27T14:30:05Z</time>
      </trkpt>
      <trkpt lat="42.916611" lon="-6.244065">
        <ele>1234.38</ele>
        <time>2021-03-27T14:30:07Z</time>
      </trkpt>
      <trkpt lat="42.916505" lon="-6.243489">
        <ele>1232.24</ele>
        <time>2021-03-27T14:30:09Z</time>
      </trkpt>
      <trkpt lat="42.916442" lon="-6.243245">
        <ele>1230.55</ele>
        <time>2021-03-27T14:30:11Z</time>
      </trkpt>
      <trkpt lat="42.916297" lon="-6.243004">
        <ele>1231.9</ele>
        <time>2021-03-27T14:30:13Z</time>
      </trkpt>
      <trkpt lat="42.91609" lon="-6.242765">
        <ele>1233.4</ele>
        <time>2021-03-27T14:30:15Z</time>
      </trkpt>
      <trkpt lat="42.91581" lon="-6.242565">
        <ele>1235.06</ele>
        <time>2021-03-27T14:30:17Z</time>
      </trkpt>
      <trkpt lat="42.915554" lon="-6.242326">
        <ele>1242.84</ele>
        <time>2021-03-27T14:30:18Z</time>
      </trkpt>
      <trkpt lat="42.915396" lon="-6.242103">
        <ele>1241.32</ele>
        <time>2021-03-27T14:30:20Z</time>
      </trkpt>
      <trkpt lat="42.915299" lon="-6.241861">
        <ele>1244.79</ele>
        <time>2021-03-27T14:30:22Z</time>
      </trkpt>
      <trkpt lat="42.915171" lon="-6.241469">
        <ele>1247.94</ele>
        <time>2021-03-27T14:30:24Z</time>
      </trkpt>
      <trkpt lat="42.914541" lon="-6.240021">
        <ele>1244.23</ele>
        <time>2021-03-27T14:30:26Z</time>
      </trkpt>
      <trkpt lat="42.914468" lon="-6.23978">
        <ele>1248.08</ele>
        <time>2021-03-27T14:30:28Z</time>
      </trkpt>
      <trkpt lat="42.914419" lon="-6.239431">
        <ele>1254.81</ele>
        <time>2021-03-27T14:30:30Z</time>
      </trkpt>
      <trkpt lat="42.914373" lon="-6.239277">
        <ele>1256.43</ele>
        <time>2021-03-27T14:30:32Z</time>
      </trkpt>
      <trkpt lat="42.914251" lon="-6.239089">
        <ele>1257.01</ele>
        <time>2021-03-27T14:30:33Z</time>
      </trkpt>
      <trkpt lat="42.91418" lon="-6.239036">
        <ele>1255.78</ele>
        <time>2021-03-27T14:30:35Z</time>
      </trkpt>
      <trkpt lat="42.913126" lon="-6.23848">
        <ele>1244.47</ele>
        <time>2021-03-27T14:30:37Z</time>
      </trkpt>
      <trkpt lat="42.912776" lon="-6.238211">
        <ele>1244.97</ele>
        <time>2021-03-27T14:30:39Z</time>
      </trkpt>
      <trkpt lat="42.912639" lon="-6.238037">
        <ele>1249.85</ele>
        <time>2021-03-27T14:30:41Z</time>
      </trkpt>
      <trkpt lat="42.912462" lon="-6.237684">
        <ele>1256.49</ele>
        <time>2021-03-27T14:30:43Z</time>
      </trkpt>
      <trkpt lat="42.912266" lon="-6.237362">
        <ele>1256.37</ele>
        <time>2021-03-27T14:30:45Z</time>
      </trkpt>
      <trkpt lat="42.912106" lon="-6.237165">
        <ele>1261.54</ele>
        <time>2021-03-27T14:30:46Z</time>
      </trkpt>
      <trkpt lat="42.9119" lon="-6.237045">
        <ele>1261.61</ele>
        <time>2021-03-27T14:30:48Z</time>
      </trkpt>
      <trkpt lat="42.911504" lon="-6.236958">
        <ele>1247.35</ele>
        <time>2021-03-27T14:30:50Z</time>
      </trkpt>
      <trkpt lat="42.911342" lon="-6.236895">
        <ele>1246.08</ele>
        <time>2021-03-27T14:30:52Z</time>
      </trkpt>
      <trkpt lat="42.910682" lon="-6.236467">
        <ele>1252.72</ele>
        <time>2021-03-27T14:30:54Z</time>
      </trkpt>
      <trkpt lat="42.910432" lon="-6.236334">
        <ele>1252.58</ele>
        <time>2021-03-27T14:30:56Z</time>
      </trkpt>
      <trkpt lat="42.910274" lon="-6.236275">
        <ele>1252.62</ele>
        <time>2021-03-27T14:30:58Z</time>
      </trkpt>
      <trkpt lat="42.910034" lon="-6.236205">
        <ele>1260.68</ele>
        <time>2021-03-27T14:31:00Z</time>
      </trkpt>
      <trkpt lat="42.909198" lon="-6.236206">
        <ele>1243.44</ele>
        <time>2021-03-27T14:31:01Z</time>
      </trkpt>
      <trkpt lat="42.909064" lon="-6.236152">
        <ele>1240.78</ele>
        <time>2021-03-27T14:31:03Z</time>
      </trkpt>
      <trkpt lat="42.908965" lon="-6.236068">
        <ele>1239.42</ele>
        <time>2021-03-27T14:31:05Z</time>
      </trkpt>
      <trkpt lat="42.908891" lon="-6.235884">
        <ele>1241.76</ele>
        <time>2021-03-27T14:31:07Z</time>
      </trkpt>
      <trkpt lat="42.908411" lon="-6.234033">
        <ele>1251.97</ele>
        <time>2021-03-27T14:31:09Z</time>
      </trkpt>
      <trkpt lat="42.908308" lon="-6.233326">
        <ele>1253.37</ele>
        <time>2021-03-27T14:31:11Z</time>
      </trkpt>
      <trkpt lat="42.908209" lon="-6.232244">
        <ele>1250.82</ele>
        <time>2021-03-27T14:31:13Z</time>
      </trkpt>
      <trkpt lat="42.908219" lon="-6.23193">
        <ele>1251.41</ele>
        <time>2021-03-27T14:31:14Z</time>
      </trkpt>
      <trkpt lat="42.908243" lon="-6.231723">
        <ele>1251.1</ele>
        <time>2021-03-27T14:31:16Z</time>
      </trkpt>
      <trkpt lat="42.908297" lon="-6.231491">
        <ele>1250.71</ele>
        <time>2021-03-27T14:31:18Z</time>
      </trkpt>
      <trkpt lat="42.908382" lon="-6.23128">
        <ele>1251.97</ele>
        <time>2021-03-27T14:31:20Z</time>
      </trkpt>
      <trkpt lat="42.908837" lon="-6.230494">
        <ele>1257.25</ele>
        <time>2021-03-27T14:31:22Z</time>
      </trkpt>
      <trkpt lat="42.908937" lon="-6.230275">
        <ele>1256.35</ele>
        <time>2021-03-27T14:31:24Z</time>
      </trkpt>
      <trkpt lat="42.909012" lon="-6.230004">
        <ele>1254.73</ele>
        <time>2021-03-27T14:31:26Z</time>
      </trkpt>
      <trkpt lat="42.909034" lon="-6.229747">
        <ele>1253.06</ele>
        <time>2021-03-27T14:31:28Z</time>
      </trkpt>
      <trkpt lat="42.909021" lon="-6.229529">
        <ele>1253.23</ele>
        <time>2021-03-27T14:31:29Z</time>
      </trkpt>
      <trkpt lat="42.908959" lon="-6.229163">
        <ele>1254.33</ele>
        <time>2021-03-27T14:31:31Z</time>
      </trkpt>
      <trkpt lat="42.908865" lon="-6.228934">
        <ele>1252.67</ele>
        <time>2021-03-27T14:31:33Z</time>
      </trkpt>
      <trkpt lat="42.908042" lon="-6.227563">
        <ele>1253.03</ele>
        <time>2021-03-27T14:31:35Z</time>
      </trkpt>
      <trkpt lat="42.907939" lon="-6.227342">
        <ele>1252.79</ele>
        <time>2021-03-27T14:31:37Z</time>
      </trkpt>
      <trkpt lat="42.907867" lon="-6.227094">
        <ele>1252.89</ele>
        <time>2021-03-27T14:31:39Z</time>
      </trkpt>
      <trkpt lat="42.90765" lon="-6.225766">
        <ele>1262.17</ele>
        <time>2021-03-27T14:31:41Z</time>
      </trkpt>
      <trkpt lat="42.907609" lon="-6.225273">
        <ele>1260.66</ele>
        <time>2021-03-27T14:31:42Z</time>
      </trkpt>
      <trkpt lat="42.907621" lon="-6.224579">
        <ele>1256.52</ele>
        <time>2021-03-27T14:31:44Z</time>
      </trkpt>
      <trkpt lat="42.907601" lon="-6.224329">
        <ele>1257.66</ele>
        <time>2021-03-27T14:31:46Z</time>
      </trkpt>
      <trkpt lat="42.907557" lon="-6.224148">
        <ele>1257.52</ele>
        <time>2021-03-27T14:31:48Z</time>
      </trkpt>
      <trkpt lat="42.907485" lon="-6.223959">
        <ele>1258.05</ele>
        <time>2021-03-27T14:31:50Z</time>
      </trkpt>
      <trkpt lat="42.907384" lon="-6.223787">
        <ele>1259.28</ele>
        <time>2021-03-27T14:31:52Z</time>
      </trkpt>
      <trkpt lat="42.904486" lon="-6.219866">
        <ele>1267.78</ele>
        <time>2021-03-27T14:31:54Z</time>
      </trkpt>
      <trkpt lat="42.904314" lon="-6.219658">
        <ele>1268.6</ele>
        <time>2021-03-27T14:31:56Z</time>
      </trkpt>
      <trkpt lat="42.904139" lon="-6.219522">
        <ele>1268.53</ele>
        <time>2021-03-27T14:31:57Z</time>
      </trkpt>
      <trkpt lat="42.903918" lon="-6.219441">
        <ele>1268.01</ele>
        <time>2021-03-27T14:31:59Z</time>
      </trkpt>
      <trkpt lat="42.903691" lon="-6.219393">
        <ele>1269.02</ele>
        <time>2021-03-27T14:32:01Z</time>
      </trkpt>
      <trkpt lat="42.903463" lon="-6.219319">
        <ele>1269.37</ele>
        <time>2021-03-27T14:32:03Z</time>
      </trkpt>
      <trkpt lat="42.903318" lon="-6.219187">
        <ele>1269.74</ele>
        <time>2021-03-27T14:32:05Z</time>
      </trkpt>
      <trkpt lat="42.903151" lon="-6.218996">
        <ele>1268.9</ele>
        <time>2021-03-27T14:32:07Z</time>
      </trkpt>
      <trkpt lat="42.902608" lon="-6.218248">
        <ele>1262.48</ele>
        <time>2021-03-27T14:32:09Z</time>
      </trkpt>
      <trkpt lat="42.9023" lon="-6.217884">
        <ele>1264.58</ele>
        <time>2021-03-27T14:32:10Z</time>
      </trkpt>
      <trkpt lat="42.902039" lon="-6.217666">
        <ele>1264.08</ele>
        <time>2021-03-27T14:32:12Z</time>
      </trkpt>
      <trkpt lat="42.901177" lon="-6.217025">
        <ele>1263.4</ele>
        <time>2021-03-27T14:32:14Z</time>
      </trkpt>
      <trkpt lat="42.90094" lon="-6.216807">
        <ele>1263.26</ele>
        <time>2021-03-27T14:32:16Z</time>
      </trkpt>
      <trkpt lat="42.900698" lon="-6.216469">
        <ele>1267.04</ele>
        <time>2021-03-27T14:32:18Z</time>
      </trkpt>
      <trkpt lat="42.899958" lon="-6.215696">
        <ele>1276.33</ele>
        <time>2021-03-27T14:32:20Z</time>
      </trkpt>
      <trkpt lat="42.899822" lon="-6.215522">
        <ele>1275.98</ele>
        <time>2021-03-27T14:32:22Z</time>
      </trkpt>
      <trkpt lat="42.89973" lon="-6.215282">
        <ele>1277.27</ele>
        <time>2021-03-27T14:32:24Z</time>
      </trkpt>
      <trkpt lat="42.899699" lon="-6.214996">
        <ele>1282.97</ele>
        <time>2021-03-27T14:32:25Z</time>
      </trkpt>
      <trkpt lat="42.899721" lon="-6.214691">
        <ele>1288.19</ele>
        <time>2021-03-27T14:32:27Z</time>
      </trkpt>
      <trkpt lat="42.899714" lon="-6.214419">
        <ele>1289.81</ele>
        <time>2021-03-27T14:32:29Z</time>
      </trkpt>
      <trkpt lat="42.89962" lon="-6.213979">
        <ele>1289.99</ele>
        <time>2021-03-27T14:32:31Z</time>
      </trkpt>
      <trkpt lat="42.899477" lon="-6.213678">
        <ele>1288.47</ele>
        <time>2021-03-27T14:32:33Z</time>
      </trkpt>
      <trkpt lat="42.899067" lon="-6.213092">
        <ele>1290.65</ele>
        <time>2021-03-27T14:32:35Z</time>
      </trkpt>
      <trkpt lat="42.898959" lon="-6.212831">
        <ele>1295.86</ele>
        <time>2021-03-27T14:32:37Z</time>
      </trkpt>
      <trkpt lat="42.898852" lon="-6.212668">
        <ele>1298.21</ele>
        <time>2021-03-27T14:32:38Z</time>
      </trkpt>
      <trkpt lat="42.898566" lon="-6.21248">
        <ele>1300.47</ele>
        <time>2021-03-27T14:32:40Z</time>
      </trkpt>
      <trkpt lat="42.898055" lon="-6.21196">
        <ele>1307.82</ele>
        <time>2021-03-27T14:32:42Z</time>
      </trkpt>
      <trkpt lat="42.897854" lon="-6.211778">
        <ele>1308.2</ele>
        <time>2021-03-27T14:32:44Z</time>
      </trkpt>
      <trkpt lat="42.89737" lon="-6.211451">
        <ele>1304.16</ele>
        <time>2021-03-27T14:32:46Z</time>
      </trkpt>
      <trkpt lat="42.897092" lon="-6.211228">
        <ele>1300.78</ele>
        <time>2021-03-27T14:32:48Z</time>
      </trkpt>
      <trkpt lat="42.896899" lon="-6.211001">
        <ele>1301.98</ele>
        <time>2021-03-27T14:32:50Z</time>
      </trkpt>
      <trkpt lat="42.896559" lon="-6.21052">
        <ele>1308.75</ele>
        <time>2021-03-27T14:32:52Z</time>
      </trkpt>
      <trkpt lat="42.896407" lon="-6.210384">
        <ele>1310.53</ele>
        <time>2021-03-27T14:32:53Z</time>
      </trkpt>
      <trkpt lat="42.895183" lon="-6.209725">
        <ele>1310.96</ele>
        <time>2021-03-27T14:32:55Z</time>
      </trkpt>
      <trkpt lat="42.89517" lon="-6.20955">
        <ele>1314.48</ele>
        <time>2021-03-27T14:33:00Z</time>
      </trkpt>
      <trkpt lat="42.894812" lon="-6.208466">
        <ele>1326.17</ele>
        <time>2021-03-27T14:33:04Z</time>
      </trkpt>
      <trkpt lat="42.894632" lon="-6.208127">
        <ele>1326.08</ele>
        <time>2021-03-27T14:33:08Z</time>
      </trkpt>
      <trkpt lat="42.894385" lon="-6.207833">
        <ele>1325.61</ele>
        <time>2021-03-27T14:33:12Z</time>
      </trkpt>
      <trkpt lat="42.894408" lon="-6.207591">
        <ele>1326.32</ele>
        <time>2021-03-27T14:33:16Z</time>
      </trkpt>
      <trkpt lat="42.894505" lon="-6.20729">
        <ele>1327.38</ele>
        <time>2021-03-27T14:33:19Z</time>
      </trkpt>
      <trkpt lat="42.894697" lon="-6.207018">
        <ele>1329.29</ele>
        <time>2021-03-27T14:33:22Z</time>
      </trkpt>
      <trkpt lat="42.894883" lon="-6.206046">
        <ele>1333.92</ele>
        <time>2021-03-27T14:33:26Z</time>
      </trkpt>
      <trkpt lat="42.894973" lon="-6.205789">
        <ele>1335.14</ele>
        <time>2021-03-27T14:33:29Z</time>
      </trkpt>
      <trkpt lat="42.8953" lon="-6.20539">
        <ele>1337.93</ele>
        <time>2021-03-27T14:33:32Z</time>
      </trkpt>
      <trkpt lat="42.895397" lon="-6.205381">
        <ele>1340.98</ele>
        <time>2021-03-27T14:33:36Z</time>
      </trkpt>
      <trkpt lat="42.89547" lon="-6.205451">
        <ele>1344.09</ele>
        <time>2021-03-27T14:33:39Z</time>
      </trkpt>
      <trkpt lat="42.89543" lon="-6.20629">
        <ele>1349.57</ele>
        <time>2021-03-27T14:33:42Z</time>
      </trkpt>
      <trkpt lat="42.895472" lon="-6.206393">
        <ele>1351.33</ele>
        <time>2021-03-27T14:33:46Z</time>
      </trkpt>
      <trkpt lat="42.89556" lon="-6.20642">
        <ele>1354.26</ele>
        <time>2021-03-27T14:33:49Z</time>
      </trkpt>
      <trkpt lat="42.895781" lon="-6.206218">
        <ele>1360.18</ele>
        <time>2021-03-27T14:33:53Z</time>
      </trkpt>
      <trkpt lat="42.895943" lon="-6.205995">
        <ele>1364.19</ele>
        <time>2021-03-27T14:33:56Z</time>
      </trkpt>
      <trkpt lat="42.89608" lon="-6.20564">
        <ele>1367.03</ele>
        <time>2021-03-27T14:33:59Z</time>
      </trkpt>
      <trkpt lat="42.896185" lon="-6.205426">
        <ele>1370.75</ele>
        <time>2021-03-27T14:34:03Z</time>
      </trkpt>
      <trkpt lat="42.89629" lon="-6.20483">
        <ele>1369.86</ele>
        <time>2021-03-27T14:34:06Z</time>
      </trkpt>
      <trkpt lat="42.8968" lon="-6.20333">
        <ele>1385.26</ele>
        <time>2021-03-27T14:34:09Z</time>
      </trkpt>
      <trkpt lat="42.897649" lon="-6.201824">
        <ele>1396.06</ele>
        <time>2021-03-27T14:34:13Z</time>
      </trkpt>
      <trkpt lat="42.89805" lon="-6.20101">
        <ele>1400.09</ele>
        <time>2021-03-27T14:34:16Z</time>
      </trkpt>
      <trkpt lat="42.89844" lon="-6.20002">
        <ele>1398.92</ele>
        <time>2021-03-27T14:34:20Z</time>
      </trkpt>
      <trkpt lat="42.8986" lon="-6.19976">
        <ele>1400.22</ele>
        <time>2021-03-27T14:34:23Z</time>
      </trkpt>
      <trkpt lat="42.89916" lon="-6.199287">
        <ele>1409.68</ele>
        <time>2021-03-27T14:34:26Z</time>
      </trkpt>
      <trkpt lat="42.899669" lon="-6.198904">
        <ele>1410.81</ele>
        <time>2021-03-27T14:34:30Z</time>
      </trkpt>
      <trkpt lat="42.899856" lon="-6.198941">
        <ele>1414.56</ele>
        <time>2021-03-27T14:34:33Z</time>
      </trkpt>
      <trkpt lat="42.900247" lon="-6.199166">
        <ele>1421.89</ele>
        <time>2021-03-27T14:34:36Z</time>
      </trkpt>
      <trkpt lat="42.900479" lon="-6.199359">
        <ele>1427.66</ele>
        <time>2021-03-27T14:34:40Z</time>
      </trkpt>
      <trkpt lat="42.900582" lon="-6.199302">
        <ele>1428.34</ele>
        <time>2021-03-27T14:34:43Z</time>
      </trkpt>
      <trkpt lat="42.90062" lon="-6.19921">
        <ele>1427.87</ele>
        <time>2021-03-27T14:34:46Z</time>
      </trkpt>
      <trkpt lat="42.90041" lon="-6.19835">
        <ele>1425.6</ele>
        <time>2021-03-27T14:34:50Z</time>
      </trkpt>
      <trkpt lat="42.90041" lon="-6.19775">
        <ele>1433.38</ele>
        <time>2021-03-27T14:34:53Z</time>
      </trkpt>
      <trkpt lat="42.90054" lon="-6.19723">
        <ele>1438.44</ele>
        <time>2021-03-27T14:34:57Z</time>
      </trkpt>
      <trkpt lat="42.901085" lon="-6.195973">
        <ele>1458.63</ele>
        <time>2021-03-27T14:35:00Z</time>
      </trkpt>
      <trkpt lat="42.901082" lon="-6.195825">
        <ele>1460.21</ele>
        <time>2021-03-27T14:35:03Z</time>
      </trkpt>
      <trkpt lat="42.90105" lon="-6.19569">
        <ele>1461.71</ele>
        <time>2021-03-27T14:35:07Z</time>
      </trkpt>
      <trkpt lat="42.900644" lon="-6.195399">
        <ele>1458.87</ele>
        <time>2021-03-27T14:35:10Z</time>
      </trkpt>
      <trkpt lat="42.900597" lon="-6.195288">
        <ele>1459.62</ele>
        <time>2021-03-27T14:35:13Z</time>
      </trkpt>
      <trkpt lat="42.90066" lon="-6.19502">
        <ele>1463.08</ele>
        <time>2021-03-27T14:35:17Z</time>
      </trkpt>
      <trkpt lat="42.901377" lon="-6.193869">
        <ele>1471.15</ele>
        <time>2021-03-27T14:35:20Z</time>
      </trkpt>
      <trkpt lat="42.902119" lon="-6.193235">
        <ele>1478.79</ele>
        <time>2021-03-27T14:35:23Z</time>
      </trkpt>
      <trkpt lat="42.90272" lon="-6.192472">
        <ele>1484.92</ele>
        <time>2021-03-27T14:35:27Z</time>
      </trkpt>
      <trkpt lat="42.902912" lon="-6.192343">
        <ele>1484.85</ele>
        <time>2021-03-27T14:35:30Z</time>
      </trkpt>
      <trkpt lat="42.903932" lon="-6.192122">
        <ele>1481.29</ele>
        <time>2021-03-27T14:35:34Z</time>
      </trkpt>
      <trkpt lat="42.905243" lon="-6.191647">
        <ele>1468.2</ele>
        <time>2021-03-27T14:35:37Z</time>
      </trkpt>
      <trkpt lat="42.906237" lon="-6.191044">
        <ele>1451.44</ele>
        <time>2021-03-27T14:35:40Z</time>
      </trkpt>
      <trkpt lat="42.906902" lon="-6.191169">
        <ele>1443.04</ele>
        <time>2021-03-27T14:35:44Z</time>
      </trkpt>
      <trkpt lat="42.90813" lon="-6.19037">
        <ele>1434.73</ele>
        <time>2021-03-27T14:35:47Z</time>
      </trkpt>
      <trkpt lat="42.90895" lon="-6.19002">
        <ele>1417.1</ele>
        <time>2021-03-27T14:35:50Z</time>
      </trkpt>
      <trkpt lat="42.90933" lon="-6.18972">
        <ele>1416.54</ele>
        <time>2021-03-27T14:35:54Z</time>
      </trkpt>
      <trkpt lat="42.909997" lon="-6.188907">
        <ele>1414.84</ele>
        <time>2021-03-27T14:35:57Z</time>
      </trkpt>
      <trkpt lat="42.91038" lon="-6.188237">
        <ele>1415.27</ele>
        <time>2021-03-27T14:36:01Z</time>
      </trkpt>
      <trkpt lat="42.910834" lon="-6.187654">
        <ele>1411.73</ele>
        <time>2021-03-27T14:36:04Z</time>
      </trkpt>
      <trkpt lat="42.91088" lon="-6.18745">
        <ele>1412.16</ele>
        <time>2021-03-27T14:36:07Z</time>
      </trkpt>
      <trkpt lat="42.91088" lon="-6.1871">
        <ele>1412.03</ele>
        <time>2021-03-27T14:36:11Z</time>
      </trkpt>
      <trkpt lat="42.9108" lon="-6.18689">
        <ele>1412.5</ele>
        <time>2021-03-27T14:36:14Z</time>
      </trkpt>
      <trkpt lat="42.910232" lon="-6.186136">
        <ele>1413.99</ele>
        <time>2021-03-27T14:36:17Z</time>
      </trkpt>
      <trkpt lat="42.910177" lon="-6.185932">
        <ele>1414.45</ele>
        <time>2021-03-27T14:36:21Z</time>
      </trkpt>
      <trkpt lat="42.910202" lon="-6.185746">
        <ele>1414.72</ele>
        <time>2021-03-27T14:36:24Z</time>
      </trkpt>
      <trkpt lat="42.9103" lon="-6.185609">
        <ele>1414.46</ele>
        <time>2021-03-27T14:36:27Z</time>
      </trkpt>
      <trkpt lat="42.910619" lon="-6.185245">
        <ele>1418.77</ele>
        <time>2021-03-27T14:36:31Z</time>
      </trkpt>
      <trkpt lat="42.91067" lon="-6.18505">
        <ele>1421.84</ele>
        <time>2021-03-27T14:36:34Z</time>
      </trkpt>
      <trkpt lat="42.91067" lon="-6.184862">
        <ele>1423.49</ele>
        <time>2021-03-27T14:36:38Z</time>
      </trkpt>
      <trkpt lat="42.91037" lon="-6.184423">
        <ele>1424.43</ele>
        <time>2021-03-27T14:36:41Z</time>
      </trkpt>
      <trkpt lat="42.910193" lon="-6.183941">
        <ele>1426.55</ele>
        <time>2021-03-27T14:36:44Z</time>
      </trkpt>
      <trkpt lat="42.910162" lon="-6.183421">
        <ele>1427.47</ele>
        <time>2021-03-27T14:36:48Z</time>
      </trkpt>
      <trkpt lat="42.910207" lon="-6.182067">
        <ele>1424.14</ele>
        <time>2021-03-27T14:36:51Z</time>
      </trkpt>
      <trkpt lat="42.910342" lon="-6.180225">
        <ele>1409.11</ele>
        <time>2021-03-27T14:36:54Z</time>
      </trkpt>
      <trkpt lat="42.91062" lon="-6.178925">
        <ele>1395.48</ele>
        <time>2021-03-27T14:36:58Z</time>
      </trkpt>
      <trkpt lat="42.910871" lon="-6.178372">
        <ele>1393.68</ele>
        <time>2021-03-27T14:37:01Z</time>
      </trkpt>
      <trkpt lat="42.910995" lon="-6.176843">
        <ele>1391.14</ele>
        <time>2021-03-27T14:37:05Z</time>
      </trkpt>
      <trkpt lat="42.911163" lon="-6.176608">
        <ele>1389.83</ele>
        <time>2021-03-27T14:37:08Z</time>
      </trkpt>
      <trkpt lat="42.91264" lon="-6.175859">
        <ele>1381.59</ele>
        <time>2021-03-27T14:37:11Z</time>
      </trkpt>
      <trkpt lat="42.912875" lon="-6.175709">
        <ele>1380.79</ele>
        <time>2021-03-27T14:37:15Z</time>
      </trkpt>
      <trkpt lat="42.913186" lon="-6.175413">
        <ele>1379.02</ele>
        <time>2021-03-27T14:37:18Z</time>
      </trkpt>
      <trkpt lat="42.913563" lon="-6.174826">
        <ele>1378.36</ele>
        <time>2021-03-27T14:37:21Z</time>
      </trkpt>
      <trkpt lat="42.914485" lon="-6.174127">
        <ele>1370.22</ele>
        <time>2021-03-27T14:37:25Z</time>
      </trkpt>
      <trkpt lat="42.914682" lon="-6.173829">
        <ele>1369.31</ele>
        <time>2021-03-27T14:37:28Z</time>
      </trkpt>
      <trkpt lat="42.915052" lon="-6.172917">
        <ele>1364.9</ele>
        <time>2021-03-27T14:37:31Z</time>
      </trkpt>
      <trkpt lat="42.91521" lon="-6.17269">
        <ele>1363.89</ele>
        <time>2021-03-27T14:37:35Z</time>
      </trkpt>
      <trkpt lat="42.915527" lon="-6.172504">
        <ele>1363.01</ele>
        <time>2021-03-27T14:37:38Z</time>
      </trkpt>
      <trkpt lat="42.915968" lon="-6.172498">
        <ele>1361.5</ele>
        <time>2021-03-27T14:37:42Z</time>
      </trkpt>
      <trkpt lat="42.91624" lon="-6.17256">
        <ele>1361.58</ele>
        <time>2021-03-27T14:37:45Z</time>
      </trkpt>
      <trkpt lat="42.91663" lon="-6.17277">
        <ele>1358.24</ele>
        <time>2021-03-27T14:37:48Z</time>
      </trkpt>
      <trkpt lat="42.91689" lon="-6.17284">
        <ele>1356.53</ele>
        <time>2021-03-27T14:37:52Z</time>
      </trkpt>
      <trkpt lat="42.918114" lon="-6.172747">
        <ele>1346.08</ele>
        <time>2021-03-27T14:37:55Z</time>
      </trkpt>
      <trkpt lat="42.919082" lon="-6.172282">
        <ele>1340.84</ele>
        <time>2021-03-27T14:37:58Z</time>
      </trkpt>
      <trkpt lat="42.92031" lon="-6.171546">
        <ele>1338.02</ele>
        <time>2021-03-27T14:38:02Z</time>
      </trkpt>
      <trkpt lat="42.920593" lon="-6.171493">
        <ele>1335.15</ele>
        <time>2021-03-27T14:38:05Z</time>
      </trkpt>
      <trkpt lat="42.923723" lon="-6.169853">
        <ele>1326.85</ele>
        <time>2021-03-27T14:38:08Z</time>
      </trkpt>
      <trkpt lat="42.924154" lon="-6.169738">
        <ele>1329.6</ele>
        <time>2021-03-27T14:38:12Z</time>
      </trkpt>
      <trkpt lat="42.924835" lon="-6.169003">
        <ele>1329.94</ele>
        <time>2021-03-27T14:38:15Z</time>
      </trkpt>
      <trkpt lat="42.926226" lon="-6.168236">
        <ele>1335.53</ele>
        <time>2021-03-27T14:38:19Z</time>
      </trkpt>
      <trkpt lat="42.926226" lon="-6.168236">
        <ele>1335.53</ele>
        <time>2021-03-27T14:38:19Z</time>
      </trkpt>
      <trkpt lat="42.924835" lon="-6.169003">
        <ele>1329.94</ele>
        <time>2021-03-27T14:38:22Z</time>
      </trkpt>
      <trkpt lat="42.924154" lon="-6.169738">
        <ele>1329.6</ele>
        <time>2021-03-27T14:38:25Z</time>
      </trkpt>
      <trkpt lat="42.923723" lon="-6.169853">
        <ele>1326.85</ele>
        <time>2021-03-27T14:38:29Z</time>
      </trkpt>
      <trkpt lat="42.920593" lon="-6.171493">
        <ele>1335.15</ele>
        <time>2021-03-27T14:38:32Z</time>
      </trkpt>
      <trkpt lat="42.92031" lon="-6.171546">
        <ele>1338.02</ele>
        <time>2021-03-27T14:38:35Z</time>
      </trkpt>
      <trkpt lat="42.919082" lon="-6.172282">
        <ele>1340.84</ele>
        <time>2021-03-27T14:38:39Z</time>
      </trkpt>
      <trkpt lat="42.918114" lon="-6.172747">
        <ele>1346.08</ele>
        <time>2021-03-27T14:38:42Z</time>
      </trkpt>
      <trkpt lat="42.91689" lon="-6.17284">
        <ele>1356.53</ele>
        <time>2021-03-27T14:38:46Z</time>
      </trkpt>
      <trkpt lat="42.91663" lon="-6.17277">
        <ele>1358.24</ele>
        <time>2021-03-27T14:38:49Z</time>
      </trkpt>
      <trkpt lat="42.91624" lon="-6.17256">
        <ele>1361.58</ele>
        <time>2021-03-27T14:38:52Z</time>
      </trkpt>
      <trkpt lat="42.915968" lon="-6.172498">
        <ele>1361.5</ele>
        <time>2021-03-27T14:38:56Z</time>
      </trkpt>
      <trkpt lat="42.915527" lon="-6.172504">
        <ele>1363.01</ele>
        <time>2021-03-27T14:38:59Z</time>
      </trkpt>
      <trkpt lat="42.91521" lon="-6.17269">
        <ele>1363.89</ele>
        <time>2021-03-27T14:39:02Z</time>
      </trkpt>
      <trkpt lat="42.915052" lon="-6.172917">
        <ele>1364.9</ele>
        <time>2021-03-27T14:39:06Z</time>
      </trkpt>
      <trkpt lat="42.914682" lon="-6.173829">
        <ele>1369.31</ele>
        <time>2021-03-27T14:39:09Z</time>
      </trkpt>
      <trkpt lat="42.914485" lon="-6.174127">
        <ele>1370.22</ele>
        <time>2021-03-27T14:39:13Z</time>
      </trkpt>
      <trkpt lat="42.913563" lon="-6.174826">
        <ele>1378.36</ele>
        <time>2021-03-27T14:39:16Z</time>
      </trkpt>
      <trkpt lat="42.913186" lon="-6.175413">
        <ele>1379.02</ele>
        <time>2021-03-27T14:39:19Z</time>
      </trkpt>
      <trkpt lat="42.912875" lon="-6.175709">
        <ele>1380.79</ele>
        <time>2021-03-27T14:39:23Z</time>
      </trkpt>
      <trkpt lat="42.91264" lon="-6.175859">
        <ele>1381.59</ele>
        <time>2021-03-27T14:39:26Z</time>
      </trkpt>
      <trkpt lat="42.911163" lon="-6.176608">
        <ele>1389.83</ele>
        <time>2021-03-27T14:39:29Z</time>
      </trkpt>
      <trkpt lat="42.910995" lon="-6.176843">
        <ele>1391.14</ele>
        <time>2021-03-27T14:39:33Z</time>
      </trkpt>
      <trkpt lat="42.910871" lon="-6.178372">
        <ele>1393.68</ele>
        <time>2021-03-27T14:39:36Z</time>
      </trkpt>
      <trkpt lat="42.91062" lon="-6.178925">
        <ele>1395.48</ele>
        <time>2021-03-27T14:39:39Z</time>
      </trkpt>
      <trkpt lat="42.910342" lon="-6.180225">
        <ele>1409.11</ele>
        <time>2021-03-27T14:39:43Z</time>
      </trkpt>
      <trkpt lat="42.910207" lon="-6.182067">
        <ele>1424.14</ele>
        <time>2021-03-27T14:39:46Z</time>
      </trkpt>
      <trkpt lat="42.910162" lon="-6.183421">
        <ele>1427.47</ele>
        <time>2021-03-27T14:39:50Z</time>
      </trkpt>
      <trkpt lat="42.910193" lon="-6.183941">
        <ele>1426.55</ele>
        <time>2021-03-27T14:39:53Z</time>
      </trkpt>
      <trkpt lat="42.91037" lon="-6.184423">
        <ele>1424.43</ele>
        <time>2021-03-27T14:39:56Z</time>
      </trkpt>
      <trkpt lat="42.91067" lon="-6.184862">
        <ele>1423.49</ele>
        <time>2021-03-27T14:40:00Z</time>
      </trkpt>
      <trkpt lat="42.91067" lon="-6.18505">
        <ele>1421.84</ele>
        <time>2021-03-27T14:40:03Z</time>
      </trkpt>
      <trkpt lat="42.910619" lon="-6.185245">
        <ele>1418.77</ele>
        <time>2021-03-27T14:40:06Z</time>
      </trkpt>
      <trkpt lat="42.9103" lon="-6.185609">
        <ele>1414.46</ele>
        <time>2021-03-27T14:40:10Z</time>
      </trkpt>
      <trkpt lat="42.910202" lon="-6.185746">
        <ele>1414.72</ele>
        <time>2021-03-27T14:40:13Z</time>
      </trkpt>
      <trkpt lat="42.910177" lon="-6.185932">
        <ele>1414.45</ele>
        <time>2021-03-27T14:40:16Z</time>
      </trkpt>
      <trkpt lat="42.910232" lon="-6.186136">
        <ele>1413.99</ele>
        <time>2021-03-27T14:40:20Z</time>
      </trkpt>
      <trkpt lat="42.9108" lon="-6.18689">
        <ele>1412.5</ele>
        <time>2021-03-27T14:40:23Z</time>
      </trkpt>
      <trkpt lat="42.91088" lon="-6.1871">
        <ele>1412.03</ele>
        <time>2021-03-27T14:40:27Z</time>
      </trkpt>
      <trkpt lat="42.91088" lon="-6.18745">
        <ele>1412.16</ele>
        <time>2021-03-27T14:40:30Z</time>
      </trkpt>
      <trkpt lat="42.910834" lon="-6.187654">
        <ele>1411.73</ele>
        <time>2021-03-27T14:40:33Z</time>
      </trkpt>
      <trkpt lat="42.91038" lon="-6.188237">
        <ele>1415.27</ele>
        <time>2021-03-27T14:40:37Z</time>
      </trkpt>
      <trkpt lat="42.909997" lon="-6.188907">
        <ele>1414.84</ele>
        <time>2021-03-27T14:40:40Z</time>
      </trkpt>
      <trkpt lat="42.90933" lon="-6.18972">
        <ele>1416.54</ele>
        <time>2021-03-27T14:40:43Z</time>
      </trkpt>
      <trkpt lat="42.90895" lon="-6.19002">
        <ele>1417.1</ele>
        <time>2021-03-27T14:40:47Z</time>
      </trkpt>
      <trkpt lat="42.90813" lon="-6.19037">
        <ele>1434.73</ele>
        <time>2021-03-27T14:40:50Z</time>
      </trkpt>
      <trkpt lat="42.906902" lon="-6.191169">
        <ele>1443.04</ele>
        <time>2021-03-27T14:40:54Z</time>
      </trkpt>
      <trkpt lat="42.906237" lon="-6.191044">
        <ele>1451.44</ele>
        <time>2021-03-27T14:40:57Z</time>
      </trkpt>
      <trkpt lat="42.905243" lon="-6.191647">
        <ele>1468.2</ele>
        <time>2021-03-27T14:41:00Z</time>
      </trkpt>
      <trkpt lat="42.903932" lon="-6.192122">
        <ele>1481.29</ele>
        <time>2021-03-27T14:41:04Z</time>
      </trkpt>
      <trkpt lat="42.902912" lon="-6.192343">
        <ele>1484.85</ele>
        <time>2021-03-27T14:41:07Z</time>
      </trkpt>
      <trkpt lat="42.90272" lon="-6.192472">
        <ele>1484.92</ele>
        <time>2021-03-27T14:41:10Z</time>
      </trkpt>
      <trkpt lat="42.902119" lon="-6.193235">
        <ele>1478.79</ele>
        <time>2021-03-27T14:41:14Z</time>
      </trkpt>
      <trkpt lat="42.901377" lon="-6.193869">
        <ele>1471.15</ele>
        <time>2021-03-27T14:41:17Z</time>
      </trkpt>
      <trkpt lat="42.90066" lon="-6.19502">
        <ele>1463.08</ele>
        <time>2021-03-27T14:41:20Z</time>
      </trkpt>
      <trkpt lat="42.900597" lon="-6.195288">
        <ele>1459.62</ele>
        <time>2021-03-27T14:41:24Z</time>
      </trkpt>
      <trkpt lat="42.900644" lon="-6.195399">
        <ele>1458.87</ele>
        <time>2021-03-27T14:41:27Z</time>
      </trkpt>
      <trkpt lat="42.90105" lon="-6.19569">
        <ele>1461.71</ele>
        <time>2021-03-27T14:41:31Z</time>
      </trkpt>
      <trkpt lat="42.901082" lon="-6.195825">
        <ele>1460.21</ele>
        <time>2021-03-27T14:41:34Z</time>
      </trkpt>
      <trkpt lat="42.901085" lon="-6.195973">
        <ele>1458.63</ele>
        <time>2021-03-27T14:41:37Z</time>
      </trkpt>
      <trkpt lat="42.90054" lon="-6.19723">
        <ele>1438.44</ele>
        <time>2021-03-27T14:41:41Z</time>
      </trkpt>
      <trkpt lat="42.90041" lon="-6.19775">
        <ele>1433.38</ele>
        <time>2021-03-27T14:41:44Z</time>
      </trkpt>
      <trkpt lat="42.90041" lon="-6.19835">
        <ele>1425.6</ele>
        <time>2021-03-27T14:41:47Z</time>
      </trkpt>
      <trkpt lat="42.90062" lon="-6.19921">
        <ele>1427.87</ele>
        <time>2021-03-27T14:41:51Z</time>
      </trkpt>
      <trkpt lat="42.900582" lon="-6.199302">
        <ele>1428.34</ele>
        <time>2021-03-27T14:41:54Z</time>
      </trkpt>
      <trkpt lat="42.900479" lon="-6.199359">
        <ele>1427.66</ele>
        <time>2021-03-27T14:41:58Z</time>
      </trkpt>
      <trkpt lat="42.900247" lon="-6.199166">
        <ele>1421.89</ele>
        <time>2021-03-27T14:42:01Z</time>
      </trkpt>
      <trkpt lat="42.899856" lon="-6.198941">
        <ele>1414.56</ele>
        <time>2021-03-27T14:42:04Z</time>
      </trkpt>
      <trkpt lat="42.899669" lon="-6.198904">
        <ele>1410.81</ele>
        <time>2021-03-27T14:42:08Z</time>
      </trkpt>
      <trkpt lat="42.89916" lon="-6.199287">
        <ele>1409.68</ele>
        <time>2021-03-27T14:42:11Z</time>
      </trkpt>
      <trkpt lat="42.8986" lon="-6.19976">
        <ele>1400.22</ele>
        <time>2021-03-27T14:42:14Z</time>
      </trkpt>
      <trkpt lat="42.89844" lon="-6.20002">
        <ele>1398.92</ele>
        <time>2021-03-27T14:42:18Z</time>
      </trkpt>
      <trkpt lat="42.89805" lon="-6.20101">
        <ele>1400.09</ele>
        <time>2021-03-27T14:42:21Z</time>
      </trkpt>
      <trkpt lat="42.897649" lon="-6.201824">
        <ele>1396.06</ele>
        <time>2021-03-27T14:42:24Z</time>
      </trkpt>
      <trkpt lat="42.8968" lon="-6.20333">
        <ele>1385.26</ele>
        <time>2021-03-27T14:42:28Z</time>
      </trkpt>
      <trkpt lat="42.89629" lon="-6.20483">
        <ele>1369.86</ele>
        <time>2021-03-27T14:42:31Z</time>
      </trkpt>
      <trkpt lat="42.896185" lon="-6.205426">
        <ele>1370.75</ele>
        <time>2021-03-27T14:42:35Z</time>
      </trkpt>
      <trkpt lat="42.89608" lon="-6.20564">
        <ele>1367.03</ele>
        <time>2021-03-27T14:42:38Z</time>
      </trkpt>
      <trkpt lat="42.895943" lon="-6.205995">
        <ele>1364.19</ele>
        <time>2021-03-27T14:42:41Z</time>
      </trkpt>
      <trkpt lat="42.895781" lon="-6.206218">
        <ele>1360.18</ele>
        <time>2021-03-27T14:42:45Z</time>
      </trkpt>
      <trkpt lat="42.89556" lon="-6.20642">
        <ele>1354.26</ele>
        <time>2021-03-27T14:42:48Z</time>
      </trkpt>
      <trkpt lat="42.895472" lon="-6.206393">
        <ele>1351.33</ele>
        <time>2021-03-27T14:42:51Z</time>
      </trkpt>
      <trkpt lat="42.89543" lon="-6.20629">
        <ele>1349.57</ele>
        <time>2021-03-27T14:42:55Z</time>
      </trkpt>
      <trkpt lat="42.89547" lon="-6.205451">
        <ele>1344.09</ele>
        <time>2021-03-27T14:42:58Z</time>
      </trkpt>
      <trkpt lat="42.895397" lon="-6.205381">
        <ele>1340.98</ele>
        <time>2021-03-27T14:43:01Z</time>
      </trkpt>
      <trkpt lat="42.8953" lon="-6.20539">
        <ele>1337.93</ele>
        <time>2021-03-27T14:43:05Z</time>
      </trkpt>
      <trkpt lat="42.894973" lon="-6.205789">
        <ele>1335.14</ele>
        <time>2021-03-27T14:43:08Z</time>
      </trkpt>
      <trkpt lat="42.894883" lon="-6.206046">
        <ele>1333.92</ele>
        <time>2021-03-27T14:43:12Z</time>
      </trkpt>
      <trkpt lat="42.894697" lon="-6.207018">
        <ele>1329.29</ele>
        <time>2021-03-27T14:43:15Z</time>
      </trkpt>
      <trkpt lat="42.894505" lon="-6.20729">
        <ele>1327.38</ele>
        <time>2021-03-27T14:43:18Z</time>
      </trkpt>
      <trkpt lat="42.894408" lon="-6.207591">
        <ele>1326.32</ele>
        <time>2021-03-27T14:43:22Z</time>
      </trkpt>
      <trkpt lat="42.894385" lon="-6.207833">
        <ele>1325.61</ele>
        <time>2021-03-27T14:43:25Z</time>
      </trkpt>
      <trkpt lat="42.894632" lon="-6.208127">
        <ele>1326.08</ele>
        <time>2021-03-27T14:43:29Z</time>
      </trkpt>
      <trkpt lat="42.894812" lon="-6.208466">
        <ele>1326.17</ele>
        <time>2021-03-27T14:43:34Z</time>
      </trkpt>
      <trkpt lat="42.89517" lon="-6.20955">
        <ele>1314.48</ele>
        <time>2021-03-27T14:43:38Z</time>
      </trkpt>
      <trkpt lat="42.895183" lon="-6.209725">
        <ele>1310.96</ele>
        <time>2021-03-27T14:43:42Z</time>
      </trkpt>
      <trkpt lat="42.894807" lon="-6.209605">
        <ele>1311.31</ele>
        <time>2021-03-27T14:43:45Z</time>
      </trkpt>
      <trkpt lat="42.894622" lon="-6.20966">
        <ele>1309.71</ele>
        <time>2021-03-27T14:43:48Z</time>
      </trkpt>
      <trkpt lat="42.893932" lon="-6.21018">
        <ele>1303.94</ele>
        <time>2021-03-27T14:43:52Z</time>
      </trkpt>
      <trkpt lat="42.893719" lon="-6.2103">
        <ele>1301.84</ele>
        <time>2021-03-27T14:43:55Z</time>
      </trkpt>
      <trkpt lat="42.893511" lon="-6.2103">
        <ele>1301.96</ele>
        <time>2021-03-27T14:43:58Z</time>
      </trkpt>
      <trkpt lat="42.892576" lon="-6.210158">
        <ele>1299.82</ele>
        <time>2021-03-27T14:44:02Z</time>
      </trkpt>
      <trkpt lat="42.892489" lon="-6.210167">
        <ele>1299.83</ele>
        <time>2021-03-27T14:44:05Z</time>
      </trkpt>
      <trkpt lat="42.892384" lon="-6.210221">
        <ele>1299.82</ele>
        <time>2021-03-27T14:44:08Z</time>
      </trkpt>
      <trkpt lat="42.892211" lon="-6.210391">
        <ele>1299.34</ele>
        <time>2021-03-27T14:44:11Z</time>
      </trkpt>
      <trkpt lat="42.891413" lon="-6.211571">
        <ele>1306.37</ele>
        <time>2021-03-27T14:44:15Z</time>
      </trkpt>
      <trkpt lat="42.890341" lon="-6.212469">
        <ele>1317.41</ele>
        <time>2021-03-27T14:44:18Z</time>
      </trkpt>
      <trkpt lat="42.889609" lon="-6.213044">
        <ele>1322.36</ele>
        <time>2021-03-27T14:44:21Z</time>
      </trkpt>
      <trkpt lat="42.889397" lon="-6.213287">
        <ele>1325.89</ele>
        <time>2021-03-27T14:44:25Z</time>
      </trkpt>
      <trkpt lat="42.889324" lon="-6.213424">
        <ele>1327.42</ele>
        <time>2021-03-27T14:44:28Z</time>
      </trkpt>
      <trkpt lat="42.889252" lon="-6.213627">
        <ele>1328.58</ele>
        <time>2021-03-27T14:44:31Z</time>
      </trkpt>
      <trkpt lat="42.889138" lon="-6.21409">
        <ele>1325.69</ele>
        <time>2021-03-27T14:44:34Z</time>
      </trkpt>
      <trkpt lat="42.888893" lon="-6.214533">
        <ele>1327.2</ele>
        <time>2021-03-27T14:44:38Z</time>
      </trkpt>
      <trkpt lat="42.888808" lon="-6.214745">
        <ele>1329.04</ele>
        <time>2021-03-27T14:44:41Z</time>
      </trkpt>
      <trkpt lat="42.888737" lon="-6.214989">
        <ele>1333.1</ele>
        <time>2021-03-27T14:44:44Z</time>
      </trkpt>
      <trkpt lat="42.888588" lon="-6.215988">
        <ele>1327.67</ele>
        <time>2021-03-27T14:44:47Z</time>
      </trkpt>
      <trkpt lat="42.888484" lon="-6.2164">
        <ele>1324.45</ele>
        <time>2021-03-27T14:44:51Z</time>
      </trkpt>
      <trkpt lat="42.888331" lon="-6.216773">
        <ele>1321.93</ele>
        <time>2021-03-27T14:44:54Z</time>
      </trkpt>
      <trkpt lat="42.888107" lon="-6.217074">
        <ele>1326.98</ele>
        <time>2021-03-27T14:44:57Z</time>
      </trkpt>
      <trkpt lat="42.887858" lon="-6.21732">
        <ele>1330.58</ele>
        <time>2021-03-27T14:45:01Z</time>
      </trkpt>
      <trkpt lat="42.887586" lon="-6.217482">
        <ele>1331.62</ele>
        <time>2021-03-27T14:45:04Z</time>
      </trkpt>
      <trkpt lat="42.885909" lon="-6.218026">
        <ele>1345.39</ele>
        <time>2021-03-27T14:45:07Z</time>
      </trkpt>
      <trkpt lat="42.885609" lon="-6.218158">
        <ele>1345.36</ele>
        <time>2021-03-27T14:45:10Z</time>
      </trkpt>
      <trkpt lat="42.883946" lon="-6.219209">
        <ele>1348.27</ele>
        <time>2021-03-27T14:45:14Z</time>
      </trkpt>
      <trkpt lat="42.882758" lon="-6.220002">
        <ele>1365.5</ele>
        <time>2021-03-27T14:45:17Z</time>
      </trkpt>
      <trkpt lat="42.882263" lon="-6.220295">
        <ele>1366.4</ele>
        <time>2021-03-27T14:45:20Z</time>
      </trkpt>
      <trkpt lat="42.881985" lon="-6.220444">
        <ele>1363.14</ele>
        <time>2021-03-27T14:45:23Z</time>
      </trkpt>
      <trkpt lat="42.881587" lon="-6.220607">
        <ele>1363.13</ele>
        <time>2021-03-27T14:45:27Z</time>
      </trkpt>
      <trkpt lat="42.880416" lon="-6.22099">
        <ele>1378.55</ele>
        <time>2021-03-27T14:45:30Z</time>
      </trkpt>
      <trkpt lat="42.880159" lon="-6.221151">
        <ele>1379.07</ele>
        <time>2021-03-27T14:45:33Z</time>
      </trkpt>
      <trkpt lat="42.879687" lon="-6.221577">
        <ele>1381.19</ele>
        <time>2021-03-27T14:45:37Z</time>
      </trkpt>
      <trkpt lat="42.879424" lon="-6.22193">
        <ele>1388.05</ele>
        <time>2021-03-27T14:45:40Z</time>
      </trkpt>
      <trkpt lat="42.879178" lon="-6.222333">
        <ele>1390.49</ele>
        <time>2021-03-27T14:45:43Z</time>
      </trkpt>
      <trkpt lat="42.879025" lon="-6.222457">
        <ele>1389.85</ele>
        <time>2021-03-27T14:45:46Z</time>
      </trkpt>
      <trkpt lat="42.87886" lon="-6.222491">
        <ele>1391.28</ele>
        <time>2021-03-27T14:45:50Z</time>
      </trkpt>
      <trkpt lat="42.878684" lon="-6.222432">
        <ele>1393.02</ele>
        <time>2021-03-27T14:45:53Z</time>
      </trkpt>
      <trkpt lat="42.878526" lon="-6.22228">
        <ele>1394.48</ele>
        <time>2021-03-27T14:45:56Z</time>
      </trkpt>
      <trkpt lat="42.878224" lon="-6.221781">
        <ele>1395.72</ele>
        <time>2021-03-27T14:45:59Z</time>
      </trkpt>
      <trkpt lat="42.876721" lon="-6.220453">
        <ele>1409.24</ele>
        <time>2021-03-27T14:46:03Z</time>
      </trkpt>
      <trkpt lat="42.876497" lon="-6.220132">
        <ele>1412.81</ele>
        <time>2021-03-27T14:46:06Z</time>
      </trkpt>
      <trkpt lat="42.876421" lon="-6.219814">
        <ele>1414.01</ele>
        <time>2021-03-27T14:46:09Z</time>
      </trkpt>
      <trkpt lat="42.876399" lon="-6.219353">
        <ele>1416.91</ele>
        <time>2021-03-27T14:46:13Z</time>
      </trkpt>
      <trkpt lat="42.876356" lon="-6.219105">
        <ele>1418.21</ele>
        <time>2021-03-27T14:46:16Z</time>
      </trkpt>
      <trkpt lat="42.875868" lon="-6.217724">
        <ele>1420.67</ele>
        <time>2021-03-27T14:46:19Z</time>
      </trkpt>
      <trkpt lat="42.875682" lon="-6.217337">
        <ele>1420.23</ele>
        <time>2021-03-27T14:46:22Z</time>
      </trkpt>
      <trkpt lat="42.875309" lon="-6.216833">
        <ele>1418.1</ele>
        <time>2021-03-27T14:46:26Z</time>
      </trkpt>
      <trkpt lat="42.871667" lon="-6.212562">
        <ele>1429.55</ele>
        <time>2021-03-27T14:46:29Z</time>
      </trkpt>
      <trkpt lat="42.871436" lon="-6.212337">
        <ele>1429.27</ele>
        <time>2021-03-27T14:46:32Z</time>
      </trkpt>
      <trkpt lat="42.871203" lon="-6.212187">
        <ele>1427.79</ele>
        <time>2021-03-27T14:46:35Z</time>
      </trkpt>
      <trkpt lat="42.867503" lon="-6.210972">
        <ele>1435.49</ele>
        <time>2021-03-27T14:46:39Z</time>
      </trkpt>
      <trkpt lat="42.867125" lon="-6.210805">
        <ele>1438.43</ele>
        <time>2021-03-27T14:46:42Z</time>
      </trkpt>
      <trkpt lat="42.866785" lon="-6.210611">
        <ele>1437.95</ele>
        <time>2021-03-27T14:46:45Z</time>
      </trkpt>
      <trkpt lat="42.864364" lon="-6.208892">
        <ele>1435.03</ele>
        <time>2021-03-27T14:46:49Z</time>
      </trkpt>
      <trkpt lat="42.864045" lon="-6.208756">
        <ele>1434.27</ele>
        <time>2021-03-27T14:46:52Z</time>
      </trkpt>
      <trkpt lat="42.863288" lon="-6.208524">
        <ele>1424.48</ele>
        <time>2021-03-27T14:46:55Z</time>
      </trkpt>
      <trkpt lat="42.863115" lon="-6.208427">
        <ele>1421.6</ele>
        <time>2021-03-27T14:46:58Z</time>
      </trkpt>
      <trkpt lat="42.862966" lon="-6.208284">
        <ele>1421.42</ele>
        <time>2021-03-27T14:47:02Z</time>
      </trkpt>
      <trkpt lat="42.862006" lon="-6.206627">
        <ele>1419.21</ele>
        <time>2021-03-27T14:47:05Z</time>
      </trkpt>
      <trkpt lat="42.861818" lon="-6.206422">
        <ele>1414.89</ele>
        <time>2021-03-27T14:47:08Z</time>
      </trkpt>
      <trkpt lat="42.861546" lon="-6.206227">
        <ele>1412.52</ele>
        <time>2021-03-27T14:47:11Z</time>
      </trkpt>
      <trkpt lat="42.861546" lon="-6.206227">
        <ele>1412.52</ele>
        <time>2021-03-27T14:47:11Z</time>
      </trkpt>
      <trkpt lat="42.861818" lon="-6.206422">
        <ele>1414.89</ele>
        <time>2021-03-27T14:47:15Z</time>
      </trkpt>
      <trkpt lat="42.862006" lon="-6.206627">
        <ele>1419.21</ele>
        <time>2021-03-27T14:47:18Z</time>
      </trkpt>
      <trkpt lat="42.862966" lon="-6.208284">
        <ele>1421.42</ele>
        <time>2021-03-27T14:47:21Z</time>
      </trkpt>
      <trkpt lat="42.863115" lon="-6.208427">
        <ele>1421.6</ele>
        <time>2021-03-27T14:47:25Z</time>
      </trkpt>
      <trkpt lat="42.863288" lon="-6.208524">
        <ele>1424.48</ele>
        <time>2021-03-27T14:47:28Z</time>
      </trkpt>
      <trkpt lat="42.864045" lon="-6.208756">
        <ele>1434.27</ele>
        <time>2021-03-27T14:47:31Z</time>
      </trkpt>
      <trkpt lat="42.864364" lon="-6.208892">
        <ele>1435.03</ele>
        <time>2021-03-27T14:47:34Z</time>
      </trkpt>
      <trkpt lat="42.866785" lon="-6.210611">
        <ele>1437.95</ele>
        <time>2021-03-27T14:47:38Z</time>
      </trkpt>
      <trkpt lat="42.867125" lon="-6.210805">
        <ele>1438.43</ele>
        <time>2021-03-27T14:47:41Z</time>
      </trkpt>
      <trkpt lat="42.867503" lon="-6.210972">
        <ele>1435.49</ele>
        <time>2021-03-27T14:47:44Z</time>
      </trkpt>
      <trkpt lat="42.871203" lon="-6.212187">
        <ele>1427.79</ele>
        <time>2021-03-27T14:47:47Z</time>
      </trkpt>
      <trkpt lat="42.871436" lon="-6.212337">
        <ele>1429.27</ele>
        <time>2021-03-27T14:47:51Z</time>
      </trkpt>
      <trkpt lat="42.871667" lon="-6.212562">
        <ele>1429.55</ele>
        <time>2021-03-27T14:47:54Z</time>
      </trkpt>
      <trkpt lat="42.875309" lon="-6.216833">
        <ele>1418.1</ele>
        <time>2021-03-27T14:47:57Z</time>
      </trkpt>
      <trkpt lat="42.875682" lon="-6.217337">
        <ele>1420.23</ele>
        <time>2021-03-27T14:48:01Z</time>
      </trkpt>
      <trkpt lat="42.875868" lon="-6.217724">
        <ele>1420.67</ele>
        <time>2021-03-27T14:48:04Z</time>
      </trkpt>
      <trkpt lat="42.876356" lon="-6.219105">
        <ele>1418.21</ele>
        <time>2021-03-27T14:48:07Z</time>
      </trkpt>
      <trkpt lat="42.876399" lon="-6.219353">
        <ele>1416.91</ele>
        <time>2021-03-27T14:48:10Z</time>
      </trkpt>
      <trkpt lat="42.876421" lon="-6.219814">
        <ele>1414.01</ele>
        <time>2021-03-27T14:48:14Z</time>
      </trkpt>
      <trkpt lat="42.876497" lon="-6.220132">
        <ele>1412.81</ele>
        <time>2021-03-27T14:48:17Z</time>
      </trkpt>
      <trkpt lat="42.876721" lon="-6.220453">
        <ele>1409.24</ele>
        <time>2021-03-27T14:48:20Z</time>
      </trkpt>
      <trkpt lat="42.878224" lon="-6.221781">
        <ele>1395.72</ele>
        <time>2021-03-27T14:48:24Z</time>
      </trkpt>
      <trkpt lat="42.878526" lon="-6.22228">
        <ele>1394.48</ele>
        <time>2021-03-27T14:48:27Z</time>
      </trkpt>
      <trkpt lat="42.878684" lon="-6.222432">
        <ele>1393.02</ele>
        <time>2021-03-27T14:48:30Z</time>
      </trkpt>
      <trkpt lat="42.87886" lon="-6.222491">
        <ele>1391.28</ele>
        <time>2021-03-27T14:48:33Z</time>
      </trkpt>
      <trkpt lat="42.879025" lon="-6.222457">
        <ele>1389.85</ele>
        <time>2021-03-27T14:48:37Z</time>
      </trkpt>
      <trkpt lat="42.879178" lon="-6.222333">
        <ele>1390.49</ele>
        <time>2021-03-27T14:48:40Z</time>
      </trkpt>
      <trkpt lat="42.879424" lon="-6.22193">
        <ele>1388.05</ele>
        <time>2021-03-27T14:48:43Z</time>
      </trkpt>
      <trkpt lat="42.879687" lon="-6.221577">
        <ele>1381.19</ele>
        <time>2021-03-27T14:48:46Z</time>
      </trkpt>
      <trkpt lat="42.880159" lon="-6.221151">
        <ele>1379.07</ele>
        <time>2021-03-27T14:48:50Z</time>
      </trkpt>
      <trkpt lat="42.880416" lon="-6.22099">
        <ele>1378.55</ele>
        <time>2021-03-27T14:48:53Z</time>
      </trkpt>
      <trkpt lat="42.881587" lon="-6.220607">
        <ele>1363.13</ele>
        <time>2021-03-27T14:48:56Z</time>
      </trkpt>
      <trkpt lat="42.881985" lon="-6.220444">
        <ele>1363.14</ele>
        <time>2021-03-27T14:49:00Z</time>
      </trkpt>
      <trkpt lat="42.882263" lon="-6.220295">
        <ele>1366.4</ele>
        <time>2021-03-27T14:49:03Z</time>
      </trkpt>
      <trkpt lat="42.882758" lon="-6.220002">
        <ele>1365.5</ele>
        <time>2021-03-27T14:49:06Z</time>
      </trkpt>
      <trkpt lat="42.883946" lon="-6.219209">
        <ele>1348.27</ele>
        <time>2021-03-27T14:49:09Z</time>
      </trkpt>
      <trkpt lat="42.885609" lon="-6.218158">
        <ele>1345.36</ele>
        <time>2021-03-27T14:49:13Z</time>
      </trkpt>
      <trkpt lat="42.885909" lon="-6.218026">
        <ele>1345.39</ele>
        <time>2021-03-27T14:49:16Z</time>
      </trkpt>
      <trkpt lat="42.887586" lon="-6.217482">
        <ele>1331.62</ele>
        <time>2021-03-27T14:49:19Z</time>
      </trkpt>
      <trkpt lat="42.887858" lon="-6.21732">
        <ele>1330.58</ele>
        <time>2021-03-27T14:49:22Z</time>
      </trkpt>
      <trkpt lat="42.888107" lon="-6.217074">
        <ele>1326.98</ele>
        <time>2021-03-27T14:49:26Z</time>
      </trkpt>
      <trkpt lat="42.888331" lon="-6.216773">
        <ele>1321.93</ele>
        <time>2021-03-27T14:49:29Z</time>
      </trkpt>
      <trkpt lat="42.888484" lon="-6.2164">
        <ele>1324.45</ele>
        <time>2021-03-27T14:49:32Z</time>
      </trkpt>
      <trkpt lat="42.888588" lon="-6.215988">
        <ele>1327.67</ele>
        <time>2021-03-27T14:49:36Z</time>
      </trkpt>
      <trkpt lat="42.888737" lon="-6.214989">
        <ele>1333.1</ele>
        <time>2021-03-27T14:49:39Z</time>
      </trkpt>
      <trkpt lat="42.888808" lon="-6.214745">
        <ele>1329.04</ele>
        <time>2021-03-27T14:49:42Z</time>
      </trkpt>
      <trkpt lat="42.888893" lon="-6.214533">
        <ele>1327.2</ele>
        <time>2021-03-27T14:49:45Z</time>
      </trkpt>
      <trkpt lat="42.889138" lon="-6.21409">
        <ele>1325.69</ele>
        <time>2021-03-27T14:49:49Z</time>
      </trkpt>
      <trkpt lat="42.889252" lon="-6.213627">
        <ele>1328.58</ele>
        <time>2021-03-27T14:49:52Z</time>
      </trkpt>
      <trkpt lat="42.889324" lon="-6.213424">
        <ele>1327.42</ele>
        <time>2021-03-27T14:49:55Z</time>
      </trkpt>
      <trkpt lat="42.889397" lon="-6.213287">
        <ele>1325.89</ele>
        <time>2021-03-27T14:49:58Z</time>
      </trkpt>
      <trkpt lat="42.889609" lon="-6.213044">
        <ele>1322.36</ele>
        <time>2021-03-27T14:50:02Z</time>
      </trkpt>
      <trkpt lat="42.890341" lon="-6.212469">
        <ele>1317.41</ele>
        <time>2021-03-27T14:50:05Z</time>
      </trkpt>
      <trkpt lat="42.891413" lon="-6.211571">
        <ele>1306.37</ele>
        <time>2021-03-27T14:50:08Z</time>
      </trkpt>
      <trkpt lat="42.892211" lon="-6.210391">
        <ele>1299.34</ele>
        <time>2021-03-27T14:50:12Z</time>
      </trkpt>
      <trkpt lat="42.892384" lon="-6.210221">
        <ele>1299.82</ele>
        <time>2021-03-27T14:50:15Z</time>
      </trkpt>
      <trkpt lat="42.892489" lon="-6.210167">
        <ele>1299.83</ele>
        <time>2021-03-27T14:50:18Z</time>
      </trkpt>
      <trkpt lat="42.892576" lon="-6.210158">
        <ele>1299.82</ele>
        <time>2021-03-27T14:50:21Z</time>
      </trkpt>
      <trkpt lat="42.893511" lon="-6.2103">
        <ele>1301.96</ele>
        <time>2021-03-27T14:50:25Z</time>
      </trkpt>
      <trkpt lat="42.893719" lon="-6.2103">
        <ele>1301.84</ele>
        <time>2021-03-27T14:50:28Z</time>
      </trkpt>
      <trkpt lat="42.893932" lon="-6.21018">
        <ele>1303.94</ele>
        <time>2021-03-27T14:50:31Z</time>
      </trkpt>
      <trkpt lat="42.894622" lon="-6.20966">
        <ele>1309.71</ele>
        <time>2021-03-27T14:50:34Z</time>
      </trkpt>
      <trkpt lat="42.894807" lon="-6.209605">
        <ele>1311.31</ele>
        <time>2021-03-27T14:50:38Z</time>
      </trkpt>
      <trkpt lat="42.895183" lon="-6.209725">
        <ele>1310.96</ele>
        <time>2021-03-27T14:50:41Z</time>
      </trkpt>
      <trkpt lat="42.89517" lon="-6.20955">
        <ele>1314.48</ele>
        <time>2021-03-27T14:50:45Z</time>
      </trkpt>
      <trkpt lat="42.894812" lon="-6.208466">
        <ele>1326.17</ele>
        <time>2021-03-27T14:50:49Z</time>
      </trkpt>
      <trkpt lat="42.894632" lon="-6.208127">
        <ele>1326.08</ele>
        <time>2021-03-27T14:50:54Z</time>
      </trkpt>
      <trkpt lat="42.894385" lon="-6.207833">
        <ele>1325.61</ele>
        <time>2021-03-27T14:50:58Z</time>
      </trkpt>
      <trkpt lat="42.894408" lon="-6.207591">
        <ele>1326.32</ele>
        <time>2021-03-27T14:51:02Z</time>
      </trkpt>
      <trkpt lat="42.894505" lon="-6.20729">
        <ele>1327.38</ele>
        <time>2021-03-27T14:51:06Z</time>
      </trkpt>
      <trkpt lat="42.894697" lon="-6.207018">
        <ele>1329.29</ele>
        <time>2021-03-27T14:51:10Z</time>
      </trkpt>
      <trkpt lat="42.894883" lon="-6.206046">
        <ele>1333.92</ele>
        <time>2021-03-27T14:51:14Z</time>
      </trkpt>
      <trkpt lat="42.894973" lon="-6.205789">
        <ele>1335.14</ele>
        <time>2021-03-27T14:51:17Z</time>
      </trkpt>
      <trkpt lat="42.8953" lon="-6.20539">
        <ele>1337.93</ele>
        <time>2021-03-27T14:51:21Z</time>
      </trkpt>
      <trkpt lat="42.895397" lon="-6.205381">
        <ele>1340.98</ele>
        <time>2021-03-27T14:51:25Z</time>
      </trkpt>
      <trkpt lat="42.89547" lon="-6.205451">
        <ele>1344.09</ele>
        <time>2021-03-27T14:51:29Z</time>
      </trkpt>
      <trkpt lat="42.89543" lon="-6.20629">
        <ele>1349.57</ele>
        <time>2021-03-27T14:51:33Z</time>
      </trkpt>
      <trkpt lat="42.895472" lon="-6.206393">
        <ele>1351.33</ele>
        <time>2021-03-27T14:51:37Z</time>
      </trkpt>
      <trkpt lat="42.89556" lon="-6.20642">
        <ele>1354.26</ele>
        <time>2021-03-27T14:51:41Z</time>
      </trkpt>
      <trkpt lat="42.895781" lon="-6.206218">
        <ele>1360.18</ele>
        <time>2021-03-27T14:51:45Z</time>
      </trkpt>
      <trkpt lat="42.895943" lon="-6.205995">
        <ele>1364.19</ele>
        <time>2021-03-27T14:51:49Z</time>
      </trkpt>
      <trkpt lat="42.89608" lon="-6.20564">
        <ele>1367.03</ele>
        <time>2021-03-27T14:51:53Z</time>
      </trkpt>
      <trkpt lat="42.896185" lon="-6.205426">
        <ele>1370.75</ele>
        <time>2021-03-27T14:51:57Z</time>
      </trkpt>
      <trkpt lat="42.89629" lon="-6.20483">
        <ele>1369.86</ele>
        <time>2021-03-27T14:52:00Z</time>
      </trkpt>
      <trkpt lat="42.8968" lon="-6.20333">
        <ele>1385.26</ele>
        <time>2021-03-27T14:52:04Z</time>
      </trkpt>
      <trkpt lat="42.897649" lon="-6.201824">
        <ele>1396.06</ele>
        <time>2021-03-27T14:52:08Z</time>
      </trkpt>
      <trkpt lat="42.89805" lon="-6.20101">
        <ele>1400.09</ele>
        <time>2021-03-27T14:52:12Z</time>
      </trkpt>
      <trkpt lat="42.89844" lon="-6.20002">
        <ele>1398.92</ele>
        <time>2021-03-27T14:52:16Z</time>
      </trkpt>
      <trkpt lat="42.8986" lon="-6.19976">
        <ele>1400.22</ele>
        <time>2021-03-27T14:52:20Z</time>
      </trkpt>
      <trkpt lat="42.89916" lon="-6.199287">
        <ele>1409.68</ele>
        <time>2021-03-27T14:52:24Z</time>
      </trkpt>
      <trkpt lat="42.899669" lon="-6.198904">
        <ele>1410.81</ele>
        <time>2021-03-27T14:52:28Z</time>
      </trkpt>
      <trkpt lat="42.899856" lon="-6.198941">
        <ele>1414.56</ele>
        <time>2021-03-27T14:52:32Z</time>
      </trkpt>
      <trkpt lat="42.900247" lon="-6.199166">
        <ele>1421.89</ele>
        <time>2021-03-27T14:52:36Z</time>
      </trkpt>
      <trkpt lat="42.900479" lon="-6.199359">
        <ele>1427.66</ele>
        <time>2021-03-27T14:52:40Z</time>
      </trkpt>
      <trkpt lat="42.900582" lon="-6.199302">
        <ele>1428.34</ele>
        <time>2021-03-27T14:52:43Z</time>
      </trkpt>
      <trkpt lat="42.90062" lon="-6.19921">
        <ele>1427.87</ele>
        <time>2021-03-27T14:52:47Z</time>
      </trkpt>
      <trkpt lat="42.90041" lon="-6.19835">
        <ele>1425.6</ele>
        <time>2021-03-27T14:52:51Z</time>
      </trkpt>
      <trkpt lat="42.90041" lon="-6.19775">
        <ele>1433.38</ele>
        <time>2021-03-27T14:52:55Z</time>
      </trkpt>
      <trkpt lat="42.90054" lon="-6.19723">
        <ele>1438.44</ele>
        <time>2021-03-27T14:52:59Z</time>
      </trkpt>
      <trkpt lat="42.901085" lon="-6.195973">
        <ele>1458.63</ele>
        <time>2021-03-27T14:53:03Z</time>
      </trkpt>
      <trkpt lat="42.901082" lon="-6.195825">
        <ele>1460.21</ele>
        <time>2021-03-27T14:53:07Z</time>
      </trkpt>
      <trkpt lat="42.90105" lon="-6.19569">
        <ele>1461.71</ele>
        <time>2021-03-27T14:53:11Z</time>
      </trkpt>
      <trkpt lat="42.900644" lon="-6.195399">
        <ele>1458.87</ele>
        <time>2021-03-27T14:53:15Z</time>
      </trkpt>
      <trkpt lat="42.900597" lon="-6.195288">
        <ele>1459.62</ele>
        <time>2021-03-27T14:53:19Z</time>
      </trkpt>
      <trkpt lat="42.90066" lon="-6.19502">
        <ele>1463.08</ele>
        <time>2021-03-27T14:53:23Z</time>
      </trkpt>
      <trkpt lat="42.901377" lon="-6.193869">
        <ele>1471.15</ele>
        <time>2021-03-27T14:53:26Z</time>
      </trkpt>
      <trkpt lat="42.902119" lon="-6.193235">
        <ele>1478.79</ele>
        <time>2021-03-27T14:53:30Z</time>
      </trkpt>
      <trkpt lat="42.90272" lon="-6.192472">
        <ele>1484.92</ele>
        <time>2021-03-27T14:53:34Z</time>
      </trkpt>
      <trkpt lat="42.902912" lon="-6.192343">
        <ele>1484.85</ele>
        <time>2021-03-27T14:53:38Z</time>
      </trkpt>
      <trkpt lat="42.903932" lon="-6.192122">
        <ele>1481.29</ele>
        <time>2021-03-27T14:53:42Z</time>
      </trkpt>
      <trkpt lat="42.905243" lon="-6.191647">
        <ele>1468.2</ele>
        <time>2021-03-27T14:53:46Z</time>
      </trkpt>
      <trkpt lat="42.906237" lon="-6.191044">
        <ele>1451.44</ele>
        <time>2021-03-27T14:53:50Z</time>
      </trkpt>
      <trkpt lat="42.906902" lon="-6.191169">
        <ele>1443.04</ele>
        <time>2021-03-27T14:53:54Z</time>
      </trkpt>
      <trkpt lat="42.90813" lon="-6.19037">
        <ele>1434.73</ele>
        <time>2021-03-27T14:53:58Z</time>
      </trkpt>
      <trkpt lat="42.90895" lon="-6.19002">
        <ele>1417.1</ele>
        <time>2021-03-27T14:54:02Z</time>
      </trkpt>
      <trkpt lat="42.90933" lon="-6.18972">
        <ele>1416.54</ele>
        <time>2021-03-27T14:54:06Z</time>
      </trkpt>
      <trkpt lat="42.909997" lon="-6.188907">
        <ele>1414.84</ele>
        <time>2021-03-27T14:54:09Z</time>
      </trkpt>
      <trkpt lat="42.91038" lon="-6.188237">
        <ele>1415.27</ele>
        <time>2021-03-27T14:54:13Z</time>
      </trkpt>
      <trkpt lat="42.910834" lon="-6.187654">
        <ele>1411.73</ele>
        <time>2021-03-27T14:54:17Z</time>
      </trkpt>
      <trkpt lat="42.91088" lon="-6.18745">
        <ele>1412.16</ele>
        <time>2021-03-27T14:54:21Z</time>
      </trkpt>
      <trkpt lat="42.91088" lon="-6.1871">
        <ele>1412.03</ele>
        <time>2021-03-27T14:54:25Z</time>
      </trkpt>
      <trkpt lat="42.9108" lon="-6.18689">
        <ele>1412.5</ele>
        <time>2021-03-27T14:54:29Z</time>
      </trkpt>
      <trkpt lat="42.910232" lon="-6.186136">
        <ele>1413.99</ele>
        <time>2021-03-27T14:54:33Z</time>
      </trkpt>
      <trkpt lat="42.910177" lon="-6.185932">
        <ele>1414.45</ele>
        <time>2021-03-27T14:54:37Z</time>
      </trkpt>
      <trkpt lat="42.910202" lon="-6.185746">
        <ele>1414.72</ele>
        <time>2021-03-27T14:54:41Z</time>
      </trkpt>
      <trkpt lat="42.9103" lon="-6.185609">
        <ele>1414.46</ele>
        <time>2021-03-27T14:54:45Z</time>
      </trkpt>
      <trkpt lat="42.910619" lon="-6.185245">
        <ele>1418.77</ele>
        <time>2021-03-27T14:54:49Z</time>
      </trkpt>
      <trkpt lat="42.91067" lon="-6.18505">
        <ele>1421.84</ele>
        <time>2021-03-27T14:54:52Z</time>
      </trkpt>
      <trkpt lat="42.91067" lon="-6.184862">
        <ele>1423.49</ele>
        <time>2021-03-27T14:54:56Z</time>
      </trkpt>
      <trkpt lat="42.91037" lon="-6.184423">
        <ele>1424.43</ele>
        <time>2021-03-27T14:55:00Z</time>
      </trkpt>
      <trkpt lat="42.910193" lon="-6.183941">
        <ele>1426.55</ele>
        <time>2021-03-27T14:55:04Z</time>
      </trkpt>
      <trkpt lat="42.910162" lon="-6.183421">
        <ele>1427.47</ele>
        <time>2021-03-27T14:55:08Z</time>
      </trkpt>
      <trkpt lat="42.910207" lon="-6.182067">
        <ele>1424.14</ele>
        <time>2021-03-27T14:55:12Z</time>
      </trkpt>
      <trkpt lat="42.910342" lon="-6.180225">
        <ele>1409.11</ele>
        <time>2021-03-27T14:55:16Z</time>
      </trkpt>
      <trkpt lat="42.91062" lon="-6.178925">
        <ele>1395.48</ele>
        <time>2021-03-27T14:55:20Z</time>
      </trkpt>
      <trkpt lat="42.910871" lon="-6.178372">
        <ele>1393.68</ele>
        <time>2021-03-27T14:55:24Z</time>
      </trkpt>
      <trkpt lat="42.910995" lon="-6.176843">
        <ele>1391.14</ele>
        <time>2021-03-27T14:55:28Z</time>
      </trkpt>
      <trkpt lat="42.911163" lon="-6.176608">
        <ele>1389.83</ele>
        <time>2021-03-27T14:55:32Z</time>
      </trkpt>
      <trkpt lat="42.91264" lon="-6.175859">
        <ele>1381.59</ele>
        <time>2021-03-27T14:55:35Z</time>
      </trkpt>
      <trkpt lat="42.912875" lon="-6.175709">
        <ele>1380.79</ele>
        <time>2021-03-27T14:55:39Z</time>
      </trkpt>
      <trkpt lat="42.913186" lon="-6.175413">
        <ele>1379.02</ele>
        <time>2021-03-27T14:55:43Z</time>
      </trkpt>
      <trkpt lat="42.913563" lon="-6.174826">
        <ele>1378.36</ele>
        <time>2021-03-27T14:55:47Z</time>
      </trkpt>
      <trkpt lat="42.914485" lon="-6.174127">
        <ele>1370.22</ele>
        <time>2021-03-27T14:55:51Z</time>
      </trkpt>
      <trkpt lat="42.914682" lon="-6.173829">
        <ele>1369.31</ele>
        <time>2021-03-27T14:55:55Z</time>
      </trkpt>
      <trkpt lat="42.915052" lon="-6.172917">
        <ele>1364.9</ele>
        <time>2021-03-27T14:55:59Z</time>
      </trkpt>
      <trkpt lat="42.91521" lon="-6.17269">
        <ele>1363.89</ele>
        <time>2021-03-27T14:56:03Z</time>
      </trkpt>
      <trkpt lat="42.915527" lon="-6.172504">
        <ele>1363.01</ele>
        <time>2021-03-27T14:56:07Z</time>
      </trkpt>
      <trkpt lat="42.915968" lon="-6.172498">
        <ele>1361.5</ele>
        <time>2021-03-27T14:56:11Z</time>
      </trkpt>
      <trkpt lat="42.91624" lon="-6.17256">
        <ele>1361.58</ele>
        <time>2021-03-27T14:56:15Z</time>
      </trkpt>
      <trkpt lat="42.91663" lon="-6.17277">
        <ele>1358.24</ele>
        <time>2021-03-27T14:56:18Z</time>
      </trkpt>
      <trkpt lat="42.91689" lon="-6.17284">
        <ele>1356.53</ele>
        <time>2021-03-27T14:56:22Z</time>
      </trkpt>
      <trkpt lat="42.918114" lon="-6.172747">
        <ele>1346.08</ele>
        <time>2021-03-27T14:56:26Z</time>
      </trkpt>
      <trkpt lat="42.919082" lon="-6.172282">
        <ele>1340.84</ele>
        <time>2021-03-27T14:56:30Z</time>
      </trkpt>
      <trkpt lat="42.92031" lon="-6.171546">
        <ele>1338.02</ele>
        <time>2021-03-27T14:56:34Z</time>
      </trkpt>
      <trkpt lat="42.920593" lon="-6.171493">
        <ele>1335.15</ele>
        <time>2021-03-27T14:56:38Z</time>
      </trkpt>
      <trkpt lat="42.923723" lon="-6.169853">
        <ele>1326.85</ele>
        <time>2021-03-27T14:56:42Z</time>
      </trkpt>
      <trkpt lat="42.924154" lon="-6.169738">
        <ele>1329.6</ele>
        <time>2021-03-27T14:56:46Z</time>
      </trkpt>
      <trkpt lat="42.924835" lon="-6.169003">
        <ele>1329.94</ele>
        <time>2021-03-27T14:56:50Z</time>
      </trkpt>
      <trkpt lat="42.92624" lon="-6.168228">
        <ele>1341.11</ele>
        <time>2021-03-27T14:56:54Z</time>
      </trkpt>
      <trkpt lat="42.92664" lon="-6.167724">
        <ele>1340.37</ele>
        <time>2021-03-27T14:56:58Z</time>
      </trkpt>
      <trkpt lat="42.926792" lon="-6.167378">
        <ele>1339.19</ele>
        <time>2021-03-27T14:57:01Z</time>
      </trkpt>
      <trkpt lat="42.92715" lon="-6.166102">
        <ele>1329.02</ele>
        <time>2021-03-27T14:57:05Z</time>
      </trkpt>
      <trkpt lat="42.927339" lon="-6.165858">
        <ele>1325.79</ele>
        <time>2021-03-27T14:57:09Z</time>
      </trkpt>
      <trkpt lat="42.92753" lon="-6.16569">
        <ele>1324.3</ele>
        <time>2021-03-27T14:57:13Z</time>
      </trkpt>
      <trkpt lat="42.92813" lon="-6.16552">
        <ele>1323.22</ele>
        <time>2021-03-27T14:57:17Z</time>
      </trkpt>
      <trkpt lat="42.92831" lon="-6.16539">
        <ele>1323.65</ele>
        <time>2021-03-27T14:57:21Z</time>
      </trkpt>
      <trkpt lat="42.928473" lon="-6.165243">
        <ele>1323.18</ele>
        <time>2021-03-27T14:57:25Z</time>
      </trkpt>
      <trkpt lat="42.930014" lon="-6.162176">
        <ele>1325.17</ele>
        <time>2021-03-27T14:57:29Z</time>
      </trkpt>
      <trkpt lat="42.930122" lon="-6.161648">
        <ele>1326.29</ele>
        <time>2021-03-27T14:57:33Z</time>
      </trkpt>
      <trkpt lat="42.930075" lon="-6.16124">
        <ele>1325.93</ele>
        <time>2021-03-27T14:57:37Z</time>
      </trkpt>
      <trkpt lat="42.93008" lon="-6.160704">
        <ele>1328.04</ele>
        <time>2021-03-27T14:57:41Z</time>
      </trkpt>
      <trkpt lat="42.930394" lon="-6.159088">
        <ele>1332.11</ele>
        <time>2021-03-27T14:57:45Z</time>
      </trkpt>
      <trkpt lat="42.93049" lon="-6.15874">
        <ele>1332.69</ele>
        <time>2021-03-27T14:57:48Z</time>
      </trkpt>
      <trkpt lat="42.93041" lon="-6.15805">
        <ele>1331.44</ele>
        <time>2021-03-27T14:57:52Z</time>
      </trkpt>
      <trkpt lat="42.93075" lon="-6.15565">
        <ele>1329.18</ele>
        <time>2021-03-27T14:57:56Z</time>
      </trkpt>
      <trkpt lat="42.93135" lon="-6.15355">
        <ele>1322.17</ele>
        <time>2021-03-27T14:58:00Z</time>
      </trkpt>
      <trkpt lat="42.931981" lon="-6.151997">
        <ele>1324.48</ele>
        <time>2021-03-27T14:58:04Z</time>
      </trkpt>
      <trkpt lat="42.932052" lon="-6.151376">
        <ele>1323.05</ele>
        <time>2021-03-27T14:58:08Z</time>
      </trkpt>
      <trkpt lat="42.932216" lon="-6.15088">
        <ele>1322.35</ele>
        <time>2021-03-27T14:58:12Z</time>
      </trkpt>
      <trkpt lat="42.93251" lon="-6.150376">
        <ele>1320.7</ele>
        <time>2021-03-27T14:58:16Z</time>
      </trkpt>
      <trkpt lat="42.932674" lon="-6.14977">
        <ele>1321.55</ele>
        <time>2021-03-27T14:58:20Z</time>
      </trkpt>
      <trkpt lat="42.932933" lon="-6.149244">
        <ele>1317.99</ele>
        <time>2021-03-27T14:58:24Z</time>
      </trkpt>
      <trkpt lat="42.9332" lon="-6.148814">
        <ele>1317.75</ele>
        <time>2021-03-27T14:58:28Z</time>
      </trkpt>
      <trkpt lat="42.933345" lon="-6.148619">
        <ele>1317.97</ele>
        <time>2021-03-27T14:58:31Z</time>
      </trkpt>
      <trkpt lat="42.934078" lon="-6.148279">
        <ele>1315.93</ele>
        <time>2021-03-27T14:58:35Z</time>
      </trkpt>
      <trkpt lat="42.934353" lon="-6.148003">
        <ele>1314.45</ele>
        <time>2021-03-27T14:58:39Z</time>
      </trkpt>
      <trkpt lat="42.935012" lon="-6.147681">
        <ele>1316.07</ele>
        <time>2021-03-27T14:58:43Z</time>
      </trkpt>
      <trkpt lat="42.935081" lon="-6.147566">
        <ele>1316.36</ele>
        <time>2021-03-27T14:58:47Z</time>
      </trkpt>
      <trkpt lat="42.935454" lon="-6.146513">
        <ele>1312.01</ele>
        <time>2021-03-27T14:58:51Z</time>
      </trkpt>
      <trkpt lat="42.935535" lon="-6.146414">
        <ele>1311.23</ele>
        <time>2021-03-27T14:58:55Z</time>
      </trkpt>
      <trkpt lat="42.936212" lon="-6.146095">
        <ele>1303.67</ele>
        <time>2021-03-27T14:58:59Z</time>
      </trkpt>
      <trkpt lat="42.93671" lon="-6.145498">
        <ele>1301.05</ele>
        <time>2021-03-27T14:59:03Z</time>
      </trkpt>
      <trkpt lat="42.937564" lon="-6.144787">
        <ele>1295.36</ele>
        <time>2021-03-27T14:59:07Z</time>
      </trkpt>
      <trkpt lat="42.937906" lon="-6.14439">
        <ele>1293.45</ele>
        <time>2021-03-27T14:59:11Z</time>
      </trkpt>
      <trkpt lat="42.938379" lon="-6.144243">
        <ele>1294.0</ele>
        <time>2021-03-27T14:59:14Z</time>
      </trkpt>
      <trkpt lat="42.93865" lon="-6.144123">
        <ele>1296.0</ele>
        <time>2021-03-27T14:59:18Z</time>
      </trkpt>
      <trkpt lat="42.939132" lon="-6.144241">
        <ele>1292.77</ele>
        <time>2021-03-27T14:59:22Z</time>
      </trkpt>
      <trkpt lat="42.939284" lon="-6.14422">
        <ele>1291.93</ele>
        <time>2021-03-27T14:59:26Z</time>
      </trkpt>
      <trkpt lat="42.939643" lon="-6.144036">
        <ele>1291.15</ele>
        <time>2021-03-27T14:59:30Z</time>
      </trkpt>
      <trkpt lat="42.939911" lon="-6.143827">
        <ele>1290.09</ele>
        <time>2021-03-27T14:59:34Z</time>
      </trkpt>
      <trkpt lat="42.940162" lon="-6.143306">
        <ele>1285.4</ele>
        <time>2021-03-27T14:59:38Z</time>
      </trkpt>
      <trkpt lat="42.94023" lon="-6.143207">
        <ele>1284.87</ele>
        <time>2021-03-27T14:59:42Z</time>
      </trkpt>
      <trkpt lat="42.941194" lon="-6.142534">
        <ele>1283.82</ele>
        <time>2021-03-27T14:59:46Z</time>
      </trkpt>
      <trkpt lat="42.941272" lon="-6.142502">
        <ele>1283.43</ele>
        <time>2021-03-27T14:59:50Z</time>
      </trkpt>
      <trkpt lat="42.941438" lon="-6.142524">
        <ele>1282.88</ele>
        <time>2021-03-27T14:59:54Z</time>
      </trkpt>
      <trkpt lat="42.941872" lon="-6.142722">
        <ele>1278.98</ele>
        <time>2021-03-27T14:59:57Z</time>
      </trkpt>
      <trkpt lat="42.94221" lon="-6.14282">
        <ele>1275.13</ele>
        <time>2021-03-27T15:00:01Z</time>
      </trkpt>
      <trkpt lat="42.944953" lon="-6.142875">
        <ele>1265.54</ele>
        <time>2021-03-27T15:00:05Z</time>
      </trkpt>
      <trkpt lat="42.945461" lon="-6.142961">
        <ele>1264.23</ele>
        <time>2021-03-27T15:00:09Z</time>
      </trkpt>
      <trkpt lat="42.946718" lon="-6.14353">
        <ele>1262.57</ele>
        <time>2021-03-27T15:00:13Z</time>
      </trkpt>
      <trkpt lat="42.94826" lon="-6.144468">
        <ele>1257.91</ele>
        <time>2021-03-27T15:00:17Z</time>
      </trkpt>
      <trkpt lat="42.948694" lon="-6.14457">
        <ele>1255.52</ele>
        <time>2021-03-27T15:00:21Z</time>
      </trkpt>
      <trkpt lat="42.950375" lon="-6.144593">
        <ele>1250.65</ele>
        <time>2021-03-27T15:00:25Z</time>
      </trkpt>
      <trkpt lat="42.95058" lon="-6.14466">
        <ele>1249.93</ele>
        <time>2021-03-27T15:00:29Z</time>
      </trkpt>
      <trkpt lat="42.95081" lon="-6.144931">
        <ele>1248.45</ele>
        <time>2021-03-27T15:00:33Z</time>
      </trkpt>
      <trkpt lat="42.95149" lon="-6.146122">
        <ele>1248.34</ele>
        <time>2021-03-27T15:00:37Z</time>
      </trkpt>
      <trkpt lat="42.952498" lon="-6.147342">
        <ele>1247.01</ele>
        <time>2021-03-27T15:00:40Z</time>
      </trkpt>
      <trkpt lat="42.952895" lon="-6.147889">
        <ele>1247.17</ele>
        <time>2021-03-27T15:00:44Z</time>
      </trkpt>
      <trkpt lat="42.953032" lon="-6.148168">
        <ele>1248.32</ele>
        <time>2021-03-27T15:00:48Z</time>
      </trkpt>
      <trkpt lat="42.95314" lon="-6.147959">
        <ele>1247.76</ele>
        <time>2021-03-27T15:00:56Z</time>
      </trkpt>
      <trkpt lat="42.953988" lon="-6.146884">
        <ele>1247.14</ele>
        <time>2021-03-27T15:01:03Z</time>
      </trkpt>
      <trkpt lat="42.954171" lon="-6.14657">
        <ele>1246.67</ele>
        <time>2021-03-27T15:01:10Z</time>
      </trkpt>
      <trkpt lat="42.954259" lon="-6.146354">
        <ele>1246.54</ele>
        <time>2021-03-27T15:01:18Z</time>
      </trkpt>
      <trkpt lat="42.954408" lon="-6.145839">
        <ele>1245.76</ele>
        <time>2021-03-27T15:01:25Z</time>
      </trkpt>
      <trkpt lat="42.954916" lon="-6.144057">
        <ele>1248.71</ele>
        <time>2021-03-27T15:01:32Z</time>
      </trkpt>
      <trkpt lat="42.95508" lon="-6.143315">
        <ele>1246.7</ele>
        <time>2021-03-27T15:01:40Z</time>
      </trkpt>
      <trkpt lat="42.955476" lon="-6.14006">
        <ele>1246.51</ele>
        <time>2021-03-27T15:01:47Z</time>
      </trkpt>
      <trkpt lat="42.955654" lon="-6.139102">
        <ele>1243.65</ele>
        <time>2021-03-27T15:01:54Z</time>
      </trkpt>
      <trkpt lat="42.956245" lon="-6.136886">
        <ele>1243.68</ele>
        <time>2021-03-27T15:02:02Z</time>
      </trkpt>
      <trkpt lat="42.956561" lon="-6.135003">
        <ele>1245.32</ele>
        <time>2021-03-27T15:02:09Z</time>
      </trkpt>
      <trkpt lat="42.956856" lon="-6.133238">
        <ele>1240.6</ele>
        <time>2021-03-27T15:02:16Z</time>
      </trkpt>
      <trkpt lat="42.956883" lon="-6.132971">
        <ele>1239.03</ele>
        <time>2021-03-27T15:02:24Z</time>
      </trkpt>
      <trkpt lat="42.956895" lon="-6.132622">
        <ele>1238.1</ele>
        <time>2021-03-27T15:02:31Z</time>
      </trkpt>
      <trkpt lat="42.956836" lon="-6.128156">
        <ele>1238.44</ele>
        <time>2021-03-27T15:02:39Z</time>
      </trkpt>
      <trkpt lat="42.956833" lon="-6.12772">
        <ele>1237.18</ele>
        <time>2021-03-27T15:02:46Z</time>
      </trkpt>
      <trkpt lat="42.956591" lon="-6.125805">
        <ele>1236.65</ele>
        <time>2021-03-27T15:02:53Z</time>
      </trkpt>
      <trkpt lat="42.956327" lon="-6.123904">
        <ele>1234.58</ele>
        <time>2021-03-27T15:03:01Z</time>
      </trkpt>
      <trkpt lat="42.956148" lon="-6.122991">
        <ele>1234.9</ele>
        <time>2021-03-27T15:03:08Z</time>
      </trkpt>
      <trkpt lat="42.955789" lon="-6.121664">
        <ele>1237.69</ele>
        <time>2021-03-27T15:03:15Z</time>
      </trkpt>
      <trkpt lat="42.955666" lon="-6.121072">
        <ele>1238.91</ele>
        <time>2021-03-27T15:03:23Z</time>
      </trkpt>
      <trkpt lat="42.955613" lon="-6.120526">
        <ele>1237.94</ele>
        <time>2021-03-27T15:03:30Z</time>
      </trkpt>
      <trkpt lat="42.95563" lon="-6.120086">
        <ele>1235.96</ele>
        <time>2021-03-27T15:03:37Z</time>
      </trkpt>
      <trkpt lat="42.955721" lon="-6.119479">
        <ele>1233.86</ele>
        <time>2021-03-27T15:03:45Z</time>
      </trkpt>
      <trkpt lat="42.955927" lon="-6.118811">
        <ele>1232.78</ele>
        <time>2021-03-27T15:03:52Z</time>
      </trkpt>
      <trkpt lat="42.956453" lon="-6.117236">
        <ele>1231.05</ele>
        <time>2021-03-27T15:03:59Z</time>
      </trkpt>
      <trkpt lat="42.956616" lon="-6.116686">
        <ele>1230.94</ele>
        <time>2021-03-27T15:04:07Z</time>
      </trkpt>
      <trkpt lat="42.957141" lon="-6.112466">
        <ele>1227.42</ele>
        <time>2021-03-27T15:04:14Z</time>
      </trkpt>
      <trkpt lat="42.957172" lon="-6.110308">
        <ele>1227.39</ele>
        <time>2021-03-27T15:04:21Z</time>
      </trkpt>
      <trkpt lat="42.957165" lon="-6.109624">
        <ele>1228.59</ele>
        <time>2021-03-27T15:04:29Z</time>
      </trkpt>
      <trkpt lat="42.957026" lon="-6.108908">
        <ele>1230.09</ele>
        <time>2021-03-27T15:04:36Z</time>
      </trkpt>
      <trkpt lat="42.956854" lon="-6.108451">
        <ele>1231.07</ele>
        <time>2021-03-27T15:04:43Z</time>
      </trkpt>
      <trkpt lat="42.956628" lon="-6.108026">
        <ele>1233.65</ele>
        <time>2021-03-27T15:04:51Z</time>
      </trkpt>
      <trkpt lat="42.955895" lon="-6.106886">
        <ele>1224.82</ele>
        <time>2021-03-27T15:04:58Z</time>
      </trkpt>
      <trkpt lat="42.95558" lon="-6.106138">
        <ele>1224.07</ele>
        <time>2021-03-27T15:05:05Z</time>
      </trkpt>
      <trkpt lat="42.955384" lon="-6.105377">
        <ele>1224.09</ele>
        <time>2021-03-27T15:05:13Z</time>
      </trkpt>
      <trkpt lat="42.95432" lon="-6.098168">
        <ele>1225.25</ele>
        <time>2021-03-27T15:05:20Z</time>
      </trkpt>
      <trkpt lat="42.95429" lon="-6.097944">
        <ele>1224.96</ele>
        <time>2021-03-27T15:05:28Z</time>
      </trkpt>
      <trkpt lat="42.954304" lon="-6.097757">
        <ele>1225.5</ele>
        <time>2021-03-27T15:05:35Z</time>
      </trkpt>
      <trkpt lat="42.95435" lon="-6.097577">
        <ele>1226.77</ele>
        <time>2021-03-27T15:05:42Z</time>
      </trkpt>
      <trkpt lat="42.955549" lon="-6.095219">
        <ele>1223.56</ele>
        <time>2021-03-27T15:05:50Z</time>
      </trkpt>
      <trkpt lat="42.958191" lon="-6.090106">
        <ele>1213.07</ele>
        <time>2021-03-27T15:05:57Z</time>
      </trkpt>
      <trkpt lat="42.962208" lon="-6.082292">
        <ele>1206.01</ele>
        <time>2021-03-27T15:06:04Z</time>
      </trkpt>
      <trkpt lat="42.962466" lon="-6.081592">
        <ele>1206.0</ele>
        <time>2021-03-27T15:06:12Z</time>
      </trkpt>
      <trkpt lat="42.962685" lon="-6.080824">
        <ele>1205.0</ele>
        <time>2021-03-27T15:06:19Z</time>
      </trkpt>
      <trkpt lat="42.963833" lon="-6.075396">
        <ele>1198.29</ele>
        <time>2021-03-27T15:06:26Z</time>
      </trkpt>
      <trkpt lat="42.963978" lon="-6.074886">
        <ele>1200.13</ele>
        <time>2021-03-27T15:06:34Z</time>
      </trkpt>
      <trkpt lat="42.964258" lon="-6.074011">
        <ele>1198.92</ele>
        <time>2021-03-27T15:06:41Z</time>
      </trkpt>
      <trkpt lat="42.964886" lon="-6.072502">
        <ele>1198.18</ele>
        <time>2021-03-27T15:06:48Z</time>
      </trkpt>
      <trkpt lat="42.965188" lon="-6.071633">
        <ele>1203.3</ele>
        <time>2021-03-27T15:06:56Z</time>
      </trkpt>
      <trkpt lat="42.96551" lon="-6.070336">
        <ele>1207.74</ele>
        <time>2021-03-27T15:07:03Z</time>
      </trkpt>
      <trkpt lat="42.965632" lon="-6.069327">
        <ele>1208.05</ele>
        <time>2021-03-27T15:07:10Z</time>
      </trkpt>
      <trkpt lat="42.965667" lon="-6.068684">
        <ele>1211.2</ele>
        <time>2021-03-27T15:07:18Z</time>
      </trkpt>
      <trkpt lat="42.965658" lon="-6.068131">
        <ele>1210.84</ele>
        <time>2021-03-27T15:07:25Z</time>
      </trkpt>
      <trkpt lat="42.965609" lon="-6.067391">
        <ele>1210.97</ele>
        <time>2021-03-27T15:07:32Z</time>
      </trkpt>
      <trkpt lat="42.965524" lon="-6.066755">
        <ele>1210.38</ele>
        <time>2021-03-27T15:07:40Z</time>
      </trkpt>
      <trkpt lat="42.965273" lon="-6.065573">
        <ele>1206.96</ele>
        <time>2021-03-27T15:07:47Z</time>
      </trkpt>
      <trkpt lat="42.964512" lon="-6.0628">
        <ele>1200.87</ele>
        <time>2021-03-27T15:07:54Z</time>
      </trkpt>
      <trkpt lat="42.964351" lon="-6.062313">
        <ele>1200.66</ele>
        <time>2021-03-27T15:08:02Z</time>
      </trkpt>
      <trkpt lat="42.963567" lon="-6.060828">
        <ele>1198.58</ele>
        <time>2021-03-27T15:08:09Z</time>
      </trkpt>
      <trkpt lat="42.963322" lon="-6.060328">
        <ele>1201.44</ele>
        <time>2021-03-27T15:08:17Z</time>
      </trkpt>
      <trkpt lat="42.963146" lon="-6.059758">
        <ele>1201.18</ele>
        <time>2021-03-27T15:08:24Z</time>
      </trkpt>
      <trkpt lat="42.961922" lon="-6.055308">
        <ele>1206.1</ele>
        <time>2021-03-27T15:08:31Z</time>
      </trkpt>
      <trkpt lat="42.961586" lon="-6.054388">
        <ele>1206.51</ele>
        <time>2021-03-27T15:08:39Z</time>
      </trkpt>
      <trkpt lat="42.961125" lon="-6.053404">
        <ele>1205.85</ele>
        <time>2021-03-27T15:08:46Z</time>
      </trkpt>
      <trkpt lat="42.960869" lon="-6.05292">
        <ele>1207.49</ele>
        <time>2021-03-27T15:08:53Z</time>
      </trkpt>
      <trkpt lat="42.960637" lon="-6.052537">
        <ele>1209.42</ele>
        <time>2021-03-27T15:09:01Z</time>
      </trkpt>
      <trkpt lat="42.960874" lon="-6.052151">
        <ele>1209.04</ele>
        <time>2021-03-27T15:09:06Z</time>
      </trkpt>
      <trkpt lat="42.960911" lon="-6.052073">
        <ele>1209.15</ele>
        <time>2021-03-27T15:09:11Z</time>
      </trkpt>
      <trkpt lat="42.960967" lon="-6.051871">
        <ele>1209.62</ele>
        <time>2021-03-27T15:09:17Z</time>
      </trkpt>
      <trkpt lat="42.960979" lon="-6.051649">
        <ele>1210.0</ele>
        <time>2021-03-27T15:09:22Z</time>
      </trkpt>
      <trkpt lat="42.960883" lon="-6.050578">
        <ele>1210.33</ele>
        <time>2021-03-27T15:09:28Z</time>
      </trkpt>
      <trkpt lat="42.960876" lon="-6.050302">
        <ele>1210.45</ele>
        <time>2021-03-27T15:09:33Z</time>
      </trkpt>
      <trkpt lat="42.960915" lon="-6.050043">
        <ele>1210.63</ele>
        <time>2021-03-27T15:09:39Z</time>
      </trkpt>
      <trkpt lat="42.961659" lon="-6.048235">
        <ele>1216.24</ele>
        <time>2021-03-27T15:09:44Z</time>
      </trkpt>
      <trkpt lat="42.961938" lon="-6.047686">
        <ele>1214.0</ele>
        <time>2021-03-27T15:09:49Z</time>
      </trkpt>
      <trkpt lat="42.962026" lon="-6.047106">
        <ele>1213.3</ele>
        <time>2021-03-27T15:09:55Z</time>
      </trkpt>
      <trkpt lat="42.962142" lon="-6.045794">
        <ele>1214.61</ele>
        <time>2021-03-27T15:10:00Z</time>
      </trkpt>
      <trkpt lat="42.96212" lon="-6.045465">
        <ele>1213.88</ele>
        <time>2021-03-27T15:10:06Z</time>
      </trkpt>
      <trkpt lat="42.96105" lon="-6.04098">
        <ele>1211.15</ele>
        <time>2021-03-27T15:10:11Z</time>
      </trkpt>
      <trkpt lat="42.960969" lon="-6.039545">
        <ele>1209.3</ele>
        <time>2021-03-27T15:10:17Z</time>
      </trkpt>
      <trkpt lat="42.960944" lon="-6.039304">
        <ele>1210.31</ele>
        <time>2021-03-27T15:10:22Z</time>
      </trkpt>
      <trkpt lat="42.959786" lon="-6.037322">
        <ele>1221.74</ele>
        <time>2021-03-27T15:10:27Z</time>
      </trkpt>
      <trkpt lat="42.95965" lon="-6.036794">
        <ele>1222.0</ele>
        <time>2021-03-27T15:10:33Z</time>
      </trkpt>
      <trkpt lat="42.959888" lon="-6.034218">
        <ele>1218.96</ele>
        <time>2021-03-27T15:10:38Z</time>
      </trkpt>
      <trkpt lat="42.960076" lon="-6.031547">
        <ele>1218.69</ele>
        <time>2021-03-27T15:10:44Z</time>
      </trkpt>
      <trkpt lat="42.960127" lon="-6.031016">
        <ele>1217.46</ele>
        <time>2021-03-27T15:10:49Z</time>
      </trkpt>
      <trkpt lat="42.960296" lon="-6.03041">
        <ele>1218.62</ele>
        <time>2021-03-27T15:10:54Z</time>
      </trkpt>
      <trkpt lat="42.961929" lon="-6.024929">
        <ele>1230.06</ele>
        <time>2021-03-27T15:11:00Z</time>
      </trkpt>
      <trkpt lat="42.962225" lon="-6.023987">
        <ele>1227.06</ele>
        <time>2021-03-27T15:11:05Z</time>
      </trkpt>
      <trkpt lat="42.965327" lon="-6.01768">
        <ele>1195.0</ele>
        <time>2021-03-27T15:11:11Z</time>
      </trkpt>
      <trkpt lat="42.965375" lon="-6.017412">
        <ele>1194.59</ele>
        <time>2021-03-27T15:11:16Z</time>
      </trkpt>
      <trkpt lat="42.965199" lon="-6.016447">
        <ele>1194.71</ele>
        <time>2021-03-27T15:11:22Z</time>
      </trkpt>
      <trkpt lat="42.965339" lon="-6.015651">
        <ele>1193.83</ele>
        <time>2021-03-27T15:11:27Z</time>
      </trkpt>
      <trkpt lat="42.965819" lon="-6.01487">
        <ele>1192.97</ele>
        <time>2021-03-27T15:11:32Z</time>
      </trkpt>
      <trkpt lat="42.966355" lon="-6.014414">
        <ele>1194.01</ele>
        <time>2021-03-27T15:11:38Z</time>
      </trkpt>
      <trkpt lat="42.967016" lon="-6.013526">
        <ele>1192.03</ele>
        <time>2021-03-27T15:11:43Z</time>
      </trkpt>
      <trkpt lat="42.967436" lon="-6.012673">
        <ele>1192.39</ele>
        <time>2021-03-27T15:11:49Z</time>
      </trkpt>
      <trkpt lat="42.968012" lon="-6.011599">
        <ele>1190.32</ele>
        <time>2021-03-27T15:11:54Z</time>
      </trkpt>
      <trkpt lat="42.969177" lon="-6.009131">
        <ele>1179.99</ele>
        <time>2021-03-27T15:12:00Z</time>
      </trkpt>
      <trkpt lat="42.969885" lon="-6.006842">
        <ele>1176.37</ele>
        <time>2021-03-27T15:12:05Z</time>
      </trkpt>
      <trkpt lat="42.970429" lon="-6.00587">
        <ele>1180.31</ele>
        <time>2021-03-27T15:12:10Z</time>
      </trkpt>
      <trkpt lat="42.971486" lon="-6.005097">
        <ele>1183.96</ele>
        <time>2021-03-27T15:12:16Z</time>
      </trkpt>
      <trkpt lat="42.971983" lon="-6.005036">
        <ele>1181.11</ele>
        <time>2021-03-27T15:12:21Z</time>
      </trkpt>
      <trkpt lat="42.97213" lon="-6.004978">
        <ele>1181.05</ele>
        <time>2021-03-27T15:12:27Z</time>
      </trkpt>
      <trkpt lat="42.972235" lon="-6.004849">
        <ele>1181.61</ele>
        <time>2021-03-27T15:12:32Z</time>
      </trkpt>
      <trkpt lat="42.972319" lon="-6.004677">
        <ele>1182.4</ele>
        <time>2021-03-27T15:12:37Z</time>
      </trkpt>
      <trkpt lat="42.972425" lon="-6.004264">
        <ele>1182.82</ele>
        <time>2021-03-27T15:12:43Z</time>
      </trkpt>
      <trkpt lat="42.972428" lon="-6.003643">
        <ele>1181.82</ele>
        <time>2021-03-27T15:12:48Z</time>
      </trkpt>
      <trkpt lat="42.972471" lon="-6.00352">
        <ele>1181.6</ele>
        <time>2021-03-27T15:12:54Z</time>
      </trkpt>
      <trkpt lat="42.972627" lon="-6.003244">
        <ele>1180.53</ele>
        <time>2021-03-27T15:12:59Z</time>
      </trkpt>
      <trkpt lat="42.972885" lon="-6.002988">
        <ele>1178.71</ele>
        <time>2021-03-27T15:13:05Z</time>
      </trkpt>
      <trkpt lat="42.972786" lon="-6.002771">
        <ele>1179.02</ele>
        <time>2021-03-27T15:13:07Z</time>
      </trkpt>
      <trkpt lat="42.972672" lon="-6.002576">
        <ele>1179.83</ele>
        <time>2021-03-27T15:13:08Z</time>
      </trkpt>
      <trkpt lat="42.972668" lon="-6.002482">
        <ele>1180.17</ele>
        <time>2021-03-27T15:13:10Z</time>
      </trkpt>
      <trkpt lat="42.972699" lon="-6.002378">
        <ele>1181.19</ele>
        <time>2021-03-27T15:13:12Z</time>
      </trkpt>
      <trkpt lat="42.972868" lon="-6.002196">
        <ele>1182.47</ele>
        <time>2021-03-27T15:13:14Z</time>
      </trkpt>
      <trkpt lat="42.972968" lon="-6.00206">
        <ele>1182.61</ele>
        <time>2021-03-27T15:13:16Z</time>
      </trkpt>
      <trkpt lat="42.973127" lon="-6.001779">
        <ele>1182.3</ele>
        <time>2021-03-27T15:13:18Z</time>
      </trkpt>
      <trkpt lat="42.973194" lon="-6.001626">
        <ele>1182.07</ele>
        <time>2021-03-27T15:13:20Z</time>
      </trkpt>
      <trkpt lat="42.973232" lon="-6.001259">
        <ele>1183.0</ele>
        <time>2021-03-27T15:13:22Z</time>
      </trkpt>
      <trkpt lat="42.973172" lon="-6.000789">
        <ele>1184.58</ele>
        <time>2021-03-27T15:13:24Z</time>
      </trkpt>
      <trkpt lat="42.972974" lon="-6.000785">
        <ele>1185.0</ele>
        <time>2021-03-27T15:13:27Z</time>
      </trkpt>
      <trkpt lat="42.972443" lon="-6.000652">
        <ele>1184.93</ele>
        <time>2021-03-27T15:13:30Z</time>
      </trkpt>
      <trkpt lat="42.972004" lon="-6.000762">
        <ele>1182.89</ele>
        <time>2021-03-27T15:13:33Z</time>
      </trkpt>
      <trkpt lat="42.971832" lon="-6.000783">
        <ele>1181.22</ele>
        <time>2021-03-27T15:13:37Z</time>
      </trkpt>
      <trkpt lat="42.9717" lon="-6.000767">
        <ele>1180.05</ele>
        <time>2021-03-27T15:13:40Z</time>
      </trkpt>
      <trkpt lat="42.971584" lon="-6.000708">
        <ele>1180.25</ele>
        <time>2021-03-27T15:13:43Z</time>
      </trkpt>
      <trkpt lat="42.971409" lon="-6.000465">
        <ele>1180.8</ele>
        <time>2021-03-27T15:13:46Z</time>
      </trkpt>
      <trkpt lat="42.971352" lon="-6.000427">
        <ele>1180.87</ele>
        <time>2021-03-27T15:13:49Z</time>
      </trkpt>
      <trkpt lat="42.971131" lon="-6.000633">
        <ele>1180.0</ele>
        <time>2021-03-27T15:13:54Z</time>
      </trkpt>
      <trkpt lat="42.970771" lon="-6.001144">
        <ele>1179.68</ele>
        <time>2021-03-27T15:13:58Z</time>
      </trkpt>
      <trkpt lat="42.970563" lon="-6.001332">
        <ele>1179.01</ele>
        <time>2021-03-27T15:14:02Z</time>
      </trkpt>
      <trkpt lat="42.968782" lon="-6.002061">
        <ele>1172.59</ele>
        <time>2021-03-27T15:14:06Z</time>
      </trkpt>
      <trkpt lat="42.966255" lon="-6.003125">
        <ele>1173.99</ele>
        <time>2021-03-27T15:14:11Z</time>
      </trkpt>
      <trkpt lat="42.966036" lon="-6.00315">
        <ele>1174.33</ele>
        <time>2021-03-27T15:14:15Z</time>
      </trkpt>
      <trkpt lat="42.96584" lon="-6.003086">
        <ele>1176.41</ele>
        <time>2021-03-27T15:14:19Z</time>
      </trkpt>
      <trkpt lat="42.965435" lon="-6.002875">
        <ele>1176.47</ele>
        <time>2021-03-27T15:14:24Z</time>
      </trkpt>
      <trkpt lat="42.965204" lon="-6.002836">
        <ele>1175.16</ele>
        <time>2021-03-27T15:14:28Z</time>
      </trkpt>
      <trkpt lat="42.962147" lon="-6.003061">
        <ele>1170.38</ele>
        <time>2021-03-27T15:14:32Z</time>
      </trkpt>
      <trkpt lat="42.961047" lon="-6.002914">
        <ele>1167.83</ele>
        <time>2021-03-27T15:14:37Z</time>
      </trkpt>
      <trkpt lat="42.960805" lon="-6.002825">
        <ele>1165.71</ele>
        <time>2021-03-27T15:14:41Z</time>
      </trkpt>
      <trkpt lat="42.958995" lon="-6.001493">
        <ele>1166.35</ele>
        <time>2021-03-27T15:14:45Z</time>
      </trkpt>
      <trkpt lat="42.958621" lon="-6.001317">
        <ele>1163.71</ele>
        <time>2021-03-27T15:14:50Z</time>
      </trkpt>
      <trkpt lat="42.958192" lon="-6.001244">
        <ele>1160.81</ele>
        <time>2021-03-27T15:14:54Z</time>
      </trkpt>
      <trkpt lat="42.957957" lon="-6.001251">
        <ele>1159.99</ele>
        <time>2021-03-27T15:14:58Z</time>
      </trkpt>
      <trkpt lat="42.957676" lon="-6.001314">
        <ele>1161.03</ele>
        <time>2021-03-27T15:15:02Z</time>
      </trkpt>
      <trkpt lat="42.956839" lon="-6.001669">
        <ele>1164.65</ele>
        <time>2021-03-27T15:15:07Z</time>
      </trkpt>
      <trkpt lat="42.954737" lon="-6.002606">
        <ele>1166.92</ele>
        <time>2021-03-27T15:15:11Z</time>
      </trkpt>
      <trkpt lat="42.954444" lon="-6.002694">
        <ele>1164.0</ele>
        <time>2021-03-27T15:15:15Z</time>
      </trkpt>
      <trkpt lat="42.954118" lon="-6.002731">
        <ele>1162.12</ele>
        <time>2021-03-27T15:15:20Z</time>
      </trkpt>
      <trkpt lat="42.953043" lon="-6.00252">
        <ele>1158.78</ele>
        <time>2021-03-27T15:15:24Z</time>
      </trkpt>
      <trkpt lat="42.952679" lon="-6.002534">
        <ele>1159.3</ele>
        <time>2021-03-27T15:15:28Z</time>
      </trkpt>
      <trkpt lat="42.951453" lon="-6.002838">
        <ele>1159.6</ele>
        <time>2021-03-27T15:15:33Z</time>
      </trkpt>
      <trkpt lat="42.951161" lon="-6.002798">
        <ele>1157.37</ele>
        <time>2021-03-27T15:15:37Z</time>
      </trkpt>
      <trkpt lat="42.95087" lon="-6.002709">
        <ele>1155.46</ele>
        <time>2021-03-27T15:15:41Z</time>
      </trkpt>
      <trkpt lat="42.950573" lon="-6.002566">
        <ele>1154.46</ele>
        <time>2021-03-27T15:15:45Z</time>
      </trkpt>
      <trkpt lat="42.950204" lon="-6.002326">
        <ele>1157.45</ele>
        <time>2021-03-27T15:15:50Z</time>
      </trkpt>
      <trkpt lat="42.94983" lon="-6.002024">
        <ele>1154.1</ele>
        <time>2021-03-27T15:15:54Z</time>
      </trkpt>
      <trkpt lat="42.949271" lon="-6.001465">
        <ele>1153.92</ele>
        <time>2021-03-27T15:15:58Z</time>
      </trkpt>
      <trkpt lat="42.949025" lon="-6.001049">
        <ele>1152.79</ele>
        <time>2021-03-27T15:16:03Z</time>
      </trkpt>
      <trkpt lat="42.948658" lon="-6.00033">
        <ele>1149.49</ele>
        <time>2021-03-27T15:16:07Z</time>
      </trkpt>
      <trkpt lat="42.948564" lon="-6.000234">
        <ele>1149.13</ele>
        <time>2021-03-27T15:16:11Z</time>
      </trkpt>
      <trkpt lat="42.948489" lon="-6.000217">
        <ele>1149.12</ele>
        <time>2021-03-27T15:16:16Z</time>
      </trkpt>
      <trkpt lat="42.948309" lon="-6.000172">
        <ele>1148.91</ele>
        <time>2021-03-27T15:16:16Z</time>
      </trkpt>
      <trkpt lat="42.94826" lon="-5.999788">
        <ele>1148.73</ele>
        <time>2021-03-27T15:16:20Z</time>
      </trkpt>
      <trkpt lat="42.948094" lon="-5.999219">
        <ele>1149.11</ele>
        <time>2021-03-27T15:16:23Z</time>
      </trkpt>
      <trkpt lat="42.947802" lon="-5.998655">
        <ele>1147.1</ele>
        <time>2021-03-27T15:16:27Z</time>
      </trkpt>
      <trkpt lat="42.947441" lon="-5.998126">
        <ele>1144.57</ele>
        <time>2021-03-27T15:16:30Z</time>
      </trkpt>
      <trkpt lat="42.945959" lon="-5.996405">
        <ele>1145.42</ele>
        <time>2021-03-27T15:16:34Z</time>
      </trkpt>
      <trkpt lat="42.945739" lon="-5.996123">
        <ele>1144.03</ele>
        <time>2021-03-27T15:16:37Z</time>
      </trkpt>
      <trkpt lat="42.943423" lon="-5.992682">
        <ele>1140.1</ele>
        <time>2021-03-27T15:16:41Z</time>
      </trkpt>
      <trkpt lat="42.943244" lon="-5.992387">
        <ele>1140.15</ele>
        <time>2021-03-27T15:16:44Z</time>
      </trkpt>
      <trkpt lat="42.94315" lon="-5.992197">
        <ele>1139.8</ele>
        <time>2021-03-27T15:16:48Z</time>
      </trkpt>
      <trkpt lat="42.94302" lon="-5.991786">
        <ele>1139.43</ele>
        <time>2021-03-27T15:16:52Z</time>
      </trkpt>
      <trkpt lat="42.942999" lon="-5.99155">
        <ele>1138.67</ele>
        <time>2021-03-27T15:16:55Z</time>
      </trkpt>
      <trkpt lat="42.942991" lon="-5.989621">
        <ele>1138.53</ele>
        <time>2021-03-27T15:16:59Z</time>
      </trkpt>
      <trkpt lat="42.94298" lon="-5.989407">
        <ele>1138.46</ele>
        <time>2021-03-27T15:17:02Z</time>
      </trkpt>
      <trkpt lat="42.94295" lon="-5.989194">
        <ele>1138.24</ele>
        <time>2021-03-27T15:17:06Z</time>
      </trkpt>
      <trkpt lat="42.942784" lon="-5.988467">
        <ele>1137.53</ele>
        <time>2021-03-27T15:17:09Z</time>
      </trkpt>
      <trkpt lat="42.942215" lon="-5.986382">
        <ele>1139.0</ele>
        <time>2021-03-27T15:17:13Z</time>
      </trkpt>
      <trkpt lat="42.942175" lon="-5.986107">
        <ele>1139.65</ele>
        <time>2021-03-27T15:17:16Z</time>
      </trkpt>
      <trkpt lat="42.942154" lon="-5.985838">
        <ele>1139.01</ele>
        <time>2021-03-27T15:17:20Z</time>
      </trkpt>
      <trkpt lat="42.942153" lon="-5.985557">
        <ele>1139.0</ele>
        <time>2021-03-27T15:17:23Z</time>
      </trkpt>
      <trkpt lat="42.942227" lon="-5.984862">
        <ele>1134.49</ele>
        <time>2021-03-27T15:17:27Z</time>
      </trkpt>
      <trkpt lat="42.942719" lon="-5.982906">
        <ele>1134.9</ele>
        <time>2021-03-27T15:17:30Z</time>
      </trkpt>
      <trkpt lat="42.942784" lon="-5.982601">
        <ele>1135.0</ele>
        <time>2021-03-27T15:17:34Z</time>
      </trkpt>
      <trkpt lat="42.942834" lon="-5.982159">
        <ele>1134.16</ele>
        <time>2021-03-27T15:17:37Z</time>
      </trkpt>
      <trkpt lat="42.942843" lon="-5.98155">
        <ele>1134.0</ele>
        <time>2021-03-27T15:17:41Z</time>
      </trkpt>
      <trkpt lat="42.942826" lon="-5.981003">
        <ele>1134.33</ele>
        <time>2021-03-27T15:17:44Z</time>
      </trkpt>
      <trkpt lat="42.942747" lon="-5.980387">
        <ele>1133.08</ele>
        <time>2021-03-27T15:17:48Z</time>
      </trkpt>
      <trkpt lat="42.942716" lon="-5.980206">
        <ele>1131.89</ele>
        <time>2021-03-27T15:17:51Z</time>
      </trkpt>
      <trkpt lat="42.942607" lon="-5.979851">
        <ele>1130.19</ele>
        <time>2021-03-27T15:17:55Z</time>
      </trkpt>
      <trkpt lat="42.942478" lon="-5.979497">
        <ele>1131.01</ele>
        <time>2021-03-27T15:17:58Z</time>
      </trkpt>
      <trkpt lat="42.942288" lon="-5.979086">
        <ele>1132.85</ele>
        <time>2021-03-27T15:18:02Z</time>
      </trkpt>
      <trkpt lat="42.942116" lon="-5.978868">
        <ele>1131.59</ele>
        <time>2021-03-27T15:18:05Z</time>
      </trkpt>
      <trkpt lat="42.941917" lon="-5.978656">
        <ele>1130.34</ele>
        <time>2021-03-27T15:18:09Z</time>
      </trkpt>
      <trkpt lat="42.941072" lon="-5.97789">
        <ele>1134.43</ele>
        <time>2021-03-27T15:18:12Z</time>
      </trkpt>
      <trkpt lat="42.940738" lon="-5.977705">
        <ele>1133.0</ele>
        <time>2021-03-27T15:18:16Z</time>
      </trkpt>
      <trkpt lat="42.940531" lon="-5.977664">
        <ele>1131.89</ele>
        <time>2021-03-27T15:18:19Z</time>
      </trkpt>
      <trkpt lat="42.940365" lon="-5.977672">
        <ele>1131.21</ele>
        <time>2021-03-27T15:18:23Z</time>
      </trkpt>
      <trkpt lat="42.940196" lon="-5.977712">
        <ele>1131.86</ele>
        <time>2021-03-27T15:18:26Z</time>
      </trkpt>
      <trkpt lat="42.939511" lon="-5.978056">
        <ele>1136.52</ele>
        <time>2021-03-27T15:18:30Z</time>
      </trkpt>
      <trkpt lat="42.939223" lon="-5.978132">
        <ele>1137.25</ele>
        <time>2021-03-27T15:18:33Z</time>
      </trkpt>
      <trkpt lat="42.938994" lon="-5.978093">
        <ele>1137.81</ele>
        <time>2021-03-27T15:18:37Z</time>
      </trkpt>
      <trkpt lat="42.938835" lon="-5.978033">
        <ele>1137.98</ele>
        <time>2021-03-27T15:18:40Z</time>
      </trkpt>
      <trkpt lat="42.938693" lon="-5.977949">
        <ele>1137.73</ele>
        <time>2021-03-27T15:18:44Z</time>
      </trkpt>
      <trkpt lat="42.93846" lon="-5.977691">
        <ele>1136.74</ele>
        <time>2021-03-27T15:18:47Z</time>
      </trkpt>
      <trkpt lat="42.93832" lon="-5.97744">
        <ele>1136.29</ele>
        <time>2021-03-27T15:18:51Z</time>
      </trkpt>
      <trkpt lat="42.938253" lon="-5.977249">
        <ele>1136.18</ele>
        <time>2021-03-27T15:18:54Z</time>
      </trkpt>
      <trkpt lat="42.938205" lon="-5.977058">
        <ele>1135.83</ele>
        <time>2021-03-27T15:18:58Z</time>
      </trkpt>
      <trkpt lat="42.938165" lon="-5.976778">
        <ele>1135.37</ele>
        <time>2021-03-27T15:19:01Z</time>
      </trkpt>
      <trkpt lat="42.93808" lon="-5.97499">
        <ele>1133.49</ele>
        <time>2021-03-27T15:19:05Z</time>
      </trkpt>
      <trkpt lat="42.938044" lon="-5.974706">
        <ele>1131.68</ele>
        <time>2021-03-27T15:19:08Z</time>
      </trkpt>
      <trkpt lat="42.937833" lon="-5.973878">
        <ele>1129.6</ele>
        <time>2021-03-27T15:19:12Z</time>
      </trkpt>
      <trkpt lat="42.937818" lon="-5.973698">
        <ele>1129.43</ele>
        <time>2021-03-27T15:19:15Z</time>
      </trkpt>
      <trkpt lat="42.937831" lon="-5.973477">
        <ele>1129.0</ele>
        <time>2021-03-27T15:19:19Z</time>
      </trkpt>
      <trkpt lat="42.937924" lon="-5.973046">
        <ele>1127.49</ele>
        <time>2021-03-27T15:19:22Z</time>
      </trkpt>
      <trkpt lat="42.938327" lon="-5.972055">
        <ele>1126.72</ele>
        <time>2021-03-27T15:19:26Z</time>
      </trkpt>
      <trkpt lat="42.938415" lon="-5.971727">
        <ele>1127.14</ele>
        <time>2021-03-27T15:19:29Z</time>
      </trkpt>
      <trkpt lat="42.93846" lon="-5.971405">
        <ele>1128.54</ele>
        <time>2021-03-27T15:19:33Z</time>
      </trkpt>
      <trkpt lat="42.938439" lon="-5.971007">
        <ele>1133.09</ele>
        <time>2021-03-27T15:19:36Z</time>
      </trkpt>
      <trkpt lat="42.938332" lon="-5.970604">
        <ele>1132.63</ele>
        <time>2021-03-27T15:19:40Z</time>
      </trkpt>
      <trkpt lat="42.938152" lon="-5.970276">
        <ele>1132.14</ele>
        <time>2021-03-27T15:19:44Z</time>
      </trkpt>
      <trkpt lat="42.937885" lon="-5.96996">
        <ele>1134.23</ele>
        <time>2021-03-27T15:19:47Z</time>
      </trkpt>
      <trkpt lat="42.937005" lon="-5.969052">
        <ele>1125.69</ele>
        <time>2021-03-27T15:19:51Z</time>
      </trkpt>
      <trkpt lat="42.93685" lon="-5.968912">
        <ele>1125.1</ele>
        <time>2021-03-27T15:19:54Z</time>
      </trkpt>
      <trkpt lat="42.935808" lon="-5.968131">
        <ele>1125.32</ele>
        <time>2021-03-27T15:19:58Z</time>
      </trkpt>
      <trkpt lat="42.935478" lon="-5.96774">
        <ele>1124.39</ele>
        <time>2021-03-27T15:20:01Z</time>
      </trkpt>
      <trkpt lat="42.935171" lon="-5.967292">
        <ele>1126.04</ele>
        <time>2021-03-27T15:20:05Z</time>
      </trkpt>
      <trkpt lat="42.933531" lon="-5.965223">
        <ele>1133.3</ele>
        <time>2021-03-27T15:20:08Z</time>
      </trkpt>
      <trkpt lat="42.9333" lon="-5.964757">
        <ele>1136.05</ele>
        <time>2021-03-27T15:20:12Z</time>
      </trkpt>
      <trkpt lat="42.932905" lon="-5.963682">
        <ele>1136.95</ele>
        <time>2021-03-27T15:20:15Z</time>
      </trkpt>
      <trkpt lat="42.93272" lon="-5.963349">
        <ele>1137.52</ele>
        <time>2021-03-27T15:20:19Z</time>
      </trkpt>
      <trkpt lat="42.930067" lon="-5.960847">
        <ele>1139.08</ele>
        <time>2021-03-27T15:20:22Z</time>
      </trkpt>
      <trkpt lat="42.929772" lon="-5.960625">
        <ele>1138.55</ele>
        <time>2021-03-27T15:20:26Z</time>
      </trkpt>
      <trkpt lat="42.929149" lon="-5.960418">
        <ele>1135.47</ele>
        <time>2021-03-27T15:20:29Z</time>
      </trkpt>
      <trkpt lat="42.928903" lon="-5.960255">
        <ele>1133.19</ele>
        <time>2021-03-27T15:20:33Z</time>
      </trkpt>
      <trkpt lat="42.928725" lon="-5.960029">
        <ele>1131.02</ele>
        <time>2021-03-27T15:20:36Z</time>
      </trkpt>
      <trkpt lat="42.928499" lon="-5.959537">
        <ele>1131.63</ele>
        <time>2021-03-27T15:20:40Z</time>
      </trkpt>
      <trkpt lat="42.928177" lon="-5.958531">
        <ele>1128.36</ele>
        <time>2021-03-27T15:20:43Z</time>
      </trkpt>
      <trkpt lat="42.927927" lon="-5.957414">
        <ele>1124.69</ele>
        <time>2021-03-27T15:20:47Z</time>
      </trkpt>
      <trkpt lat="42.927809" lon="-5.957127">
        <ele>1122.33</ele>
        <time>2021-03-27T15:20:50Z</time>
      </trkpt>
      <trkpt lat="42.927651" lon="-5.956839">
        <ele>1118.51</ele>
        <time>2021-03-27T15:20:54Z</time>
      </trkpt>
      <trkpt lat="42.927499" lon="-5.956635">
        <ele>1116.34</ele>
        <time>2021-03-27T15:20:57Z</time>
      </trkpt>
      <trkpt lat="42.927346" lon="-5.956469">
        <ele>1118.3</ele>
        <time>2021-03-27T15:21:01Z</time>
      </trkpt>
      <trkpt lat="42.926588" lon="-5.955861">
        <ele>1119.0</ele>
        <time>2021-03-27T15:21:04Z</time>
      </trkpt>
      <trkpt lat="42.926036" lon="-5.956744">
        <ele>1117.07</ele>
        <time>2021-03-27T15:21:07Z</time>
      </trkpt>
      <trkpt lat="42.924705" lon="-5.958631">
        <ele>1114.94</ele>
        <time>2021-03-27T15:21:10Z</time>
      </trkpt>
      <trkpt lat="42.924402" lon="-5.95915">
        <ele>1114.79</ele>
        <time>2021-03-27T15:21:13Z</time>
      </trkpt>
      <trkpt lat="42.924088" lon="-5.959631">
        <ele>1115.96</ele>
        <time>2021-03-27T15:21:17Z</time>
      </trkpt>
      <trkpt lat="42.923583" lon="-5.960252">
        <ele>1115.78</ele>
        <time>2021-03-27T15:21:20Z</time>
      </trkpt>
      <trkpt lat="42.923174" lon="-5.960681">
        <ele>1112.31</ele>
        <time>2021-03-27T15:21:23Z</time>
      </trkpt>
      <trkpt lat="42.922423" lon="-5.961229">
        <ele>1110.13</ele>
        <time>2021-03-27T15:21:26Z</time>
      </trkpt>
      <trkpt lat="42.922167" lon="-5.962149">
        <ele>1110.39</ele>
        <time>2021-03-27T15:21:29Z</time>
      </trkpt>
      <trkpt lat="42.921717" lon="-5.962909">
        <ele>1115.52</ele>
        <time>2021-03-27T15:21:32Z</time>
      </trkpt>
      <trkpt lat="42.921491" lon="-5.962909">
        <ele>1115.59</ele>
        <time>2021-03-27T15:21:35Z</time>
      </trkpt>
      <trkpt lat="42.921164" lon="-5.963019">
        <ele>1115.79</ele>
        <time>2021-03-27T15:21:38Z</time>
      </trkpt>
      <trkpt lat="42.920689" lon="-5.963266">
        <ele>1122.15</ele>
        <time>2021-03-27T15:21:41Z</time>
      </trkpt>
      <trkpt lat="42.920489" lon="-5.963225">
        <ele>1120.43</ele>
        <time>2021-03-27T15:21:44Z</time>
      </trkpt>
      <trkpt lat="42.918656" lon="-5.962441">
        <ele>1115.86</ele>
        <time>2021-03-27T15:21:47Z</time>
      </trkpt>
      <trkpt lat="42.918057" lon="-5.961659">
        <ele>1116.87</ele>
        <time>2021-03-27T15:21:50Z</time>
      </trkpt>
      <trkpt lat="42.917838" lon="-5.96151">
        <ele>1117.88</ele>
        <time>2021-03-27T15:21:53Z</time>
      </trkpt>
      <trkpt lat="42.916801" lon="-5.960472">
        <ele>1122.93</ele>
        <time>2021-03-27T15:21:56Z</time>
      </trkpt>
      <trkpt lat="42.916669" lon="-5.960154">
        <ele>1122.15</ele>
        <time>2021-03-27T15:21:59Z</time>
      </trkpt>
      <trkpt lat="42.916597" lon="-5.959809">
        <ele>1121.91</ele>
        <time>2021-03-27T15:22:02Z</time>
      </trkpt>
      <trkpt lat="42.916489" lon="-5.95832">
        <ele>1122.6</ele>
        <time>2021-03-27T15:22:05Z</time>
      </trkpt>
      <trkpt lat="42.916298" lon="-5.957343">
        <ele>1127.54</ele>
        <time>2021-03-27T15:22:08Z</time>
      </trkpt>
      <trkpt lat="42.916412" lon="-5.955815">
        <ele>1120.09</ele>
        <time>2021-03-27T15:22:12Z</time>
      </trkpt>
      <trkpt lat="42.916353" lon="-5.955188">
        <ele>1119.54</ele>
        <time>2021-03-27T15:22:15Z</time>
      </trkpt>
      <trkpt lat="42.916217" lon="-5.954656">
        <ele>1121.57</ele>
        <time>2021-03-27T15:22:18Z</time>
      </trkpt>
      <trkpt lat="42.915337" lon="-5.953111">
        <ele>1125.9</ele>
        <time>2021-03-27T15:22:21Z</time>
      </trkpt>
      <trkpt lat="42.915085" lon="-5.952742">
        <ele>1124.37</ele>
        <time>2021-03-27T15:22:24Z</time>
      </trkpt>
      <trkpt lat="42.914476" lon="-5.952193">
        <ele>1124.03</ele>
        <time>2021-03-27T15:22:27Z</time>
      </trkpt>
      <trkpt lat="42.91382" lon="-5.951217">
        <ele>1117.67</ele>
        <time>2021-03-27T15:22:30Z</time>
      </trkpt>
      <trkpt lat="42.913142" lon="-5.95077">
        <ele>1117.57</ele>
        <time>2021-03-27T15:22:33Z</time>
      </trkpt>
      <trkpt lat="42.912811" lon="-5.950972">
        <ele>1121.91</ele>
        <time>2021-03-27T15:22:36Z</time>
      </trkpt>
      <trkpt lat="42.912562" lon="-5.950944">
        <ele>1121.84</ele>
        <time>2021-03-27T15:22:39Z</time>
      </trkpt>
      <trkpt lat="42.912178" lon="-5.950817">
        <ele>1122.17</ele>
        <time>2021-03-27T15:22:42Z</time>
      </trkpt>
      <trkpt lat="42.911637" lon="-5.950923">
        <ele>1119.53</ele>
        <time>2021-03-27T15:22:45Z</time>
      </trkpt>
      <trkpt lat="42.911295" lon="-5.951138">
        <ele>1124.54</ele>
        <time>2021-03-27T15:22:48Z</time>
      </trkpt>
      <trkpt lat="42.910948" lon="-5.951317">
        <ele>1128.1</ele>
        <time>2021-03-27T15:22:51Z</time>
      </trkpt>
      <trkpt lat="42.910474" lon="-5.951213">
        <ele>1122.65</ele>
        <time>2021-03-27T15:22:54Z</time>
      </trkpt>
      <trkpt lat="42.909554" lon="-5.951552">
        <ele>1118.63</ele>
        <time>2021-03-27T15:22:57Z</time>
      </trkpt>
      <trkpt lat="42.909384" lon="-5.951523">
        <ele>1118.75</ele>
        <time>2021-03-27T15:23:00Z</time>
      </trkpt>
      <trkpt lat="42.909132" lon="-5.951394">
        <ele>1119.25</ele>
        <time>2021-03-27T15:23:04Z</time>
      </trkpt>
      <trkpt lat="42.908724" lon="-5.95093">
        <ele>1119.51</ele>
        <time>2021-03-27T15:23:07Z</time>
      </trkpt>
      <trkpt lat="42.908607" lon="-5.95046">
        <ele>1118.33</ele>
        <time>2021-03-27T15:23:10Z</time>
      </trkpt>
      <trkpt lat="42.908198" lon="-5.950016">
        <ele>1114.2</ele>
        <time>2021-03-27T15:23:13Z</time>
      </trkpt>
      <trkpt lat="42.907644" lon="-5.949571">
        <ele>1114.6</ele>
        <time>2021-03-27T15:23:16Z</time>
      </trkpt>
      <trkpt lat="42.906787" lon="-5.948659">
        <ele>1119.63</ele>
        <time>2021-03-27T15:23:19Z</time>
      </trkpt>
      <trkpt lat="42.906197" lon="-5.947745">
        <ele>1123.92</ele>
        <time>2021-03-27T15:23:22Z</time>
      </trkpt>
      <trkpt lat="42.90569" lon="-5.946753">
        <ele>1119.12</ele>
        <time>2021-03-27T15:23:25Z</time>
      </trkpt>
      <trkpt lat="42.905417" lon="-5.946633">
        <ele>1119.02</ele>
        <time>2021-03-27T15:23:28Z</time>
      </trkpt>
      <trkpt lat="42.905247" lon="-5.946609">
        <ele>1119.53</ele>
        <time>2021-03-27T15:23:31Z</time>
      </trkpt>
      <trkpt lat="42.902764" lon="-5.94682">
        <ele>1128.18</ele>
        <time>2021-03-27T15:23:34Z</time>
      </trkpt>
      <trkpt lat="42.90234" lon="-5.946635">
        <ele>1125.38</ele>
        <time>2021-03-27T15:23:37Z</time>
      </trkpt>
      <trkpt lat="42.900882" lon="-5.947297">
        <ele>1136.25</ele>
        <time>2021-03-27T15:23:40Z</time>
      </trkpt>
      <trkpt lat="42.900823" lon="-5.947494">
        <ele>1137.43</ele>
        <time>2021-03-27T15:23:43Z</time>
      </trkpt>
      <trkpt lat="42.900802" lon="-5.948013">
        <ele>1140.88</ele>
        <time>2021-03-27T15:23:46Z</time>
      </trkpt>
      <trkpt lat="42.901035" lon="-5.949017">
        <ele>1149.81</ele>
        <time>2021-03-27T15:23:49Z</time>
      </trkpt>
      <trkpt lat="42.90123" lon="-5.94922">
        <ele>1146.38</ele>
        <time>2021-03-27T15:23:52Z</time>
      </trkpt>
      <trkpt lat="42.901484" lon="-5.949121">
        <ele>1141.36</ele>
        <time>2021-03-27T15:23:55Z</time>
      </trkpt>
      <trkpt lat="42.901687" lon="-5.949223">
        <ele>1143.56</ele>
        <time>2021-03-27T15:23:59Z</time>
      </trkpt>
      <trkpt lat="42.901937" lon="-5.949776">
        <ele>1146.44</ele>
        <time>2021-03-27T15:24:02Z</time>
      </trkpt>
      <trkpt lat="42.902004" lon="-5.950227">
        <ele>1147.81</ele>
        <time>2021-03-27T15:24:05Z</time>
      </trkpt>
      <trkpt lat="42.901974" lon="-5.95062">
        <ele>1151.3</ele>
        <time>2021-03-27T15:24:08Z</time>
      </trkpt>
      <trkpt lat="42.901821" lon="-5.951025">
        <ele>1153.32</ele>
        <time>2021-03-27T15:24:11Z</time>
      </trkpt>
      <trkpt lat="42.9014" lon="-5.951565">
        <ele>1150.72</ele>
        <time>2021-03-27T15:24:14Z</time>
      </trkpt>
      <trkpt lat="42.900979" lon="-5.952307">
        <ele>1159.64</ele>
        <time>2021-03-27T15:24:17Z</time>
      </trkpt>
      <trkpt lat="42.900462" lon="-5.953021">
        <ele>1163.4</ele>
        <time>2021-03-27T15:24:20Z</time>
      </trkpt>
      <trkpt lat="42.900326" lon="-5.953467">
        <ele>1164.39</ele>
        <time>2021-03-27T15:24:23Z</time>
      </trkpt>
      <trkpt lat="42.899972" lon="-5.953983">
        <ele>1166.44</ele>
        <time>2021-03-27T15:24:26Z</time>
      </trkpt>
      <trkpt lat="42.899647" lon="-5.954623">
        <ele>1171.34</ele>
        <time>2021-03-27T15:24:29Z</time>
      </trkpt>
      <trkpt lat="42.899568" lon="-5.95473">
        <ele>1170.0</ele>
        <time>2021-03-27T15:24:32Z</time>
      </trkpt>
      <trkpt lat="42.899444" lon="-5.955384">
        <ele>1169.67</ele>
        <time>2021-03-27T15:24:35Z</time>
      </trkpt>
      <trkpt lat="42.899309" lon="-5.955734">
        <ele>1173.99</ele>
        <time>2021-03-27T15:24:38Z</time>
      </trkpt>
      <trkpt lat="42.899198" lon="-5.956244">
        <ele>1177.37</ele>
        <time>2021-03-27T15:24:41Z</time>
      </trkpt>
      <trkpt lat="42.898952" lon="-5.956877">
        <ele>1177.72</ele>
        <time>2021-03-27T15:24:44Z</time>
      </trkpt>
      <trkpt lat="42.898627" lon="-5.957362">
        <ele>1176.51</ele>
        <time>2021-03-27T15:24:47Z</time>
      </trkpt>
      <trkpt lat="42.898584" lon="-5.957521">
        <ele>1176.89</ele>
        <time>2021-03-27T15:24:51Z</time>
      </trkpt>
      <trkpt lat="42.89865" lon="-5.958014">
        <ele>1184.29</ele>
        <time>2021-03-27T15:24:54Z</time>
      </trkpt>
      <trkpt lat="42.898715" lon="-5.959059">
        <ele>1195.53</ele>
        <time>2021-03-27T15:24:57Z</time>
      </trkpt>
      <trkpt lat="42.89844" lon="-5.960086">
        <ele>1190.87</ele>
        <time>2021-03-27T15:25:00Z</time>
      </trkpt>
      <trkpt lat="42.898142" lon="-5.961063">
        <ele>1194.09</ele>
        <time>2021-03-27T15:25:03Z</time>
      </trkpt>
      <trkpt lat="42.898075" lon="-5.961687">
        <ele>1199.91</ele>
        <time>2021-03-27T15:25:06Z</time>
      </trkpt>
      <trkpt lat="42.897889" lon="-5.962131">
        <ele>1201.36</ele>
        <time>2021-03-27T15:25:09Z</time>
      </trkpt>
      <trkpt lat="42.897739" lon="-5.962649">
        <ele>1203.51</ele>
        <time>2021-03-27T15:25:12Z</time>
      </trkpt>
      <trkpt lat="42.897784" lon="-5.963608">
        <ele>1208.32</ele>
        <time>2021-03-27T15:25:15Z</time>
      </trkpt>
      <trkpt lat="42.897651" lon="-5.963978">
        <ele>1209.22</ele>
        <time>2021-03-27T15:25:18Z</time>
      </trkpt>
      <trkpt lat="42.897653" lon="-5.964529">
        <ele>1217.85</ele>
        <time>2021-03-27T15:25:21Z</time>
      </trkpt>
      <trkpt lat="42.897617" lon="-5.964645">
        <ele>1218.41</ele>
        <time>2021-03-27T15:25:24Z</time>
      </trkpt>
      <trkpt lat="42.897397" lon="-5.964948">
        <ele>1216.95</ele>
        <time>2021-03-27T15:25:27Z</time>
      </trkpt>
      <trkpt lat="42.897239" lon="-5.965032">
        <ele>1214.85</ele>
        <time>2021-03-27T15:25:30Z</time>
      </trkpt>
      <trkpt lat="42.897019" lon="-5.965006">
        <ele>1214.68</ele>
        <time>2021-03-27T15:25:33Z</time>
      </trkpt>
      <trkpt lat="42.896396" lon="-5.965022">
        <ele>1214.3</ele>
        <time>2021-03-27T15:25:36Z</time>
      </trkpt>
      <trkpt lat="42.89634" lon="-5.965059">
        <ele>1215.97</ele>
        <time>2021-03-27T15:25:39Z</time>
      </trkpt>
      <trkpt lat="42.89629" lon="-5.965144">
        <ele>1218.0</ele>
        <time>2021-03-27T15:25:42Z</time>
      </trkpt>
      <trkpt lat="42.89624" lon="-5.965457">
        <ele>1223.83</ele>
        <time>2021-03-27T15:25:46Z</time>
      </trkpt>
      <trkpt lat="42.896198" lon="-5.965595">
        <ele>1226.63</ele>
        <time>2021-03-27T15:25:49Z</time>
      </trkpt>
      <trkpt lat="42.89606" lon="-5.965704">
        <ele>1227.86</ele>
        <time>2021-03-27T15:25:52Z</time>
      </trkpt>
      <trkpt lat="42.895197" lon="-5.966053">
        <ele>1226.64</ele>
        <time>2021-03-27T15:25:55Z</time>
      </trkpt>
      <trkpt lat="42.895084" lon="-5.966235">
        <ele>1228.43</ele>
        <time>2021-03-27T15:25:58Z</time>
      </trkpt>
      <trkpt lat="42.894753" lon="-5.966995">
        <ele>1229.12</ele>
        <time>2021-03-27T15:26:01Z</time>
      </trkpt>
      <trkpt lat="42.894531" lon="-5.967461">
        <ele>1228.6</ele>
        <time>2021-03-27T15:26:04Z</time>
      </trkpt>
      <trkpt lat="42.894091" lon="-5.968131">
        <ele>1229.07</ele>
        <time>2021-03-27T15:26:07Z</time>
      </trkpt>
      <trkpt lat="42.8938" lon="-5.968706">
        <ele>1236.4</ele>
        <time>2021-03-27T15:26:10Z</time>
      </trkpt>
      <trkpt lat="42.89374" lon="-5.969209">
        <ele>1236.87</ele>
        <time>2021-03-27T15:26:13Z</time>
      </trkpt>
      <trkpt lat="42.893809" lon="-5.970111">
        <ele>1242.22</ele>
        <time>2021-03-27T15:26:16Z</time>
      </trkpt>
      <trkpt lat="42.89376" lon="-5.970277">
        <ele>1243.21</ele>
        <time>2021-03-27T15:26:19Z</time>
      </trkpt>
      <trkpt lat="42.893676" lon="-5.970482">
        <ele>1244.53</ele>
        <time>2021-03-27T15:26:22Z</time>
      </trkpt>
      <trkpt lat="42.893194" lon="-5.971161">
        <ele>1242.62</ele>
        <time>2021-03-27T15:26:25Z</time>
      </trkpt>
      <trkpt lat="42.89317" lon="-5.971514">
        <ele>1247.58</ele>
        <time>2021-03-27T15:26:28Z</time>
      </trkpt>
      <trkpt lat="42.893259" lon="-5.97291">
        <ele>1255.77</ele>
        <time>2021-03-27T15:26:31Z</time>
      </trkpt>
      <trkpt lat="42.893464" lon="-5.974019">
        <ele>1259.41</ele>
        <time>2021-03-27T15:26:34Z</time>
      </trkpt>
      <trkpt lat="42.893491" lon="-5.974278">
        <ele>1261.11</ele>
        <time>2021-03-27T15:26:38Z</time>
      </trkpt>
      <trkpt lat="42.893479" lon="-5.974517">
        <ele>1262.16</ele>
        <time>2021-03-27T15:26:41Z</time>
      </trkpt>
      <trkpt lat="42.893386" lon="-5.974708">
        <ele>1259.22</ele>
        <time>2021-03-27T15:26:44Z</time>
      </trkpt>
      <trkpt lat="42.893272" lon="-5.974881">
        <ele>1259.03</ele>
        <time>2021-03-27T15:26:47Z</time>
      </trkpt>
      <trkpt lat="42.893152" lon="-5.974957">
        <ele>1259.28</ele>
        <time>2021-03-27T15:26:50Z</time>
      </trkpt>
      <trkpt lat="42.892501" lon="-5.975086">
        <ele>1265.48</ele>
        <time>2021-03-27T15:26:53Z</time>
      </trkpt>
      <trkpt lat="42.892316" lon="-5.975093">
        <ele>1267.44</ele>
        <time>2021-03-27T15:26:56Z</time>
      </trkpt>
      <trkpt lat="42.891757" lon="-5.97495">
        <ele>1266.81</ele>
        <time>2021-03-27T15:26:59Z</time>
      </trkpt>
      <trkpt lat="42.891604" lon="-5.974929">
        <ele>1266.35</ele>
        <time>2021-03-27T15:27:02Z</time>
      </trkpt>
      <trkpt lat="42.891604" lon="-5.974929">
        <ele>1266.35</ele>
        <time>2021-03-27T15:27:02Z</time>
      </trkpt>
      <trkpt lat="42.891245" lon="-5.97488">
        <ele>1265.89</ele>
        <time>2021-03-27T15:27:04Z</time>
      </trkpt>
      <trkpt lat="42.891127" lon="-5.974911">
        <ele>1265.45</ele>
        <time>2021-03-27T15:27:07Z</time>
      </trkpt>
      <trkpt lat="42.891004" lon="-5.975004">
        <ele>1265.69</ele>
        <time>2021-03-27T15:27:09Z</time>
      </trkpt>
      <trkpt lat="42.890978" lon="-5.975135">
        <ele>1267.73</ele>
        <time>2021-03-27T15:27:18Z</time>
      </trkpt>
      <trkpt lat="42.89084" lon="-5.975313">
        <ele>1268.62</ele>
        <time>2021-03-27T15:27:26Z</time>
      </trkpt>
      <trkpt lat="42.890753" lon="-5.975559">
        <ele>1271.21</ele>
        <time>2021-03-27T15:27:35Z</time>
      </trkpt>
      <trkpt lat="42.89035" lon="-5.975638">
        <ele>1267.69</ele>
        <time>2021-03-27T15:27:44Z</time>
      </trkpt>
      <trkpt lat="42.890058" lon="-5.976082">
        <ele>1269.59</ele>
        <time>2021-03-27T15:27:53Z</time>
      </trkpt>
      <trkpt lat="42.889857" lon="-5.976277">
        <ele>1268.71</ele>
        <time>2021-03-27T15:28:02Z</time>
      </trkpt>
      <trkpt lat="42.888951" lon="-5.978317">
        <ele>1284.68</ele>
        <time>2021-03-27T15:28:10Z</time>
      </trkpt>
      <trkpt lat="42.88856" lon="-5.97837">
        <ele>1282.13</ele>
        <time>2021-03-27T15:28:14Z</time>
      </trkpt>
      <trkpt lat="42.888501" lon="-5.978471">
        <ele>1282.49</ele>
        <time>2021-03-27T15:28:17Z</time>
      </trkpt>
      <trkpt lat="42.888373" lon="-5.978525">
        <ele>1282.69</ele>
        <time>2021-03-27T15:28:21Z</time>
      </trkpt>
      <trkpt lat="42.888279" lon="-5.978626">
        <ele>1283.64</ele>
        <time>2021-03-27T15:28:24Z</time>
      </trkpt>
      <trkpt lat="42.888042" lon="-5.97852">
        <ele>1283.78</ele>
        <time>2021-03-27T15:28:30Z</time>
      </trkpt>
      <trkpt lat="42.887706" lon="-5.978243">
        <ele>1279.27</ele>
        <time>2021-03-27T15:28:36Z</time>
      </trkpt>
      <trkpt lat="42.88736" lon="-5.978286">
        <ele>1277.81</ele>
        <time>2021-03-27T15:28:46Z</time>
      </trkpt>
      <trkpt lat="42.887201" lon="-5.978345">
        <ele>1278.3</ele>
        <time>2021-03-27T15:28:57Z</time>
      </trkpt>
      <trkpt lat="42.887094" lon="-5.978435">
        <ele>1280.23</ele>
        <time>2021-03-27T15:29:07Z</time>
      </trkpt>
      <trkpt lat="42.886748" lon="-5.979255">
        <ele>1287.37</ele>
        <time>2021-03-27T15:29:18Z</time>
      </trkpt>
      <trkpt lat="42.886339" lon="-5.979513">
        <ele>1287.6</ele>
        <time>2021-03-27T15:29:28Z</time>
      </trkpt>
      <trkpt lat="42.886027" lon="-5.97962">
        <ele>1291.97</ele>
        <time>2021-03-27T15:29:38Z</time>
      </trkpt>
      <trkpt lat="42.885931" lon="-5.980173">
        <ele>1291.26</ele>
        <time>2021-03-27T15:29:49Z</time>
      </trkpt>
      <trkpt lat="42.885931" lon="-5.980603">
        <ele>1300.4</ele>
        <time>2021-03-27T15:29:59Z</time>
      </trkpt>
      <trkpt lat="42.885877" lon="-5.98074">
        <ele>1303.97</ele>
        <time>2021-03-27T15:30:10Z</time>
      </trkpt>
      <trkpt lat="42.885329" lon="-5.981161">
        <ele>1302.73</ele>
        <time>2021-03-27T15:30:20Z</time>
      </trkpt>
      <trkpt lat="42.885147" lon="-5.981122">
        <ele>1302.33</ele>
        <time>2021-03-27T15:30:31Z</time>
      </trkpt>
      <trkpt lat="42.884922" lon="-5.981586">
        <ele>1295.29</ele>
        <time>2021-03-27T15:30:41Z</time>
      </trkpt>
      <trkpt lat="42.884368" lon="-5.98162">
        <ele>1299.77</ele>
        <time>2021-03-27T15:30:51Z</time>
      </trkpt>
      <trkpt lat="42.88422" lon="-5.981744">
        <ele>1304.69</ele>
        <time>2021-03-27T15:31:02Z</time>
      </trkpt>
      <trkpt lat="42.883548" lon="-5.981514">
        <ele>1294.29</ele>
        <time>2021-03-27T15:31:12Z</time>
      </trkpt>
      <trkpt lat="42.883399" lon="-5.981469">
        <ele>1295.78</ele>
        <time>2021-03-27T15:31:23Z</time>
      </trkpt>
      <trkpt lat="42.883254" lon="-5.981345">
        <ele>1297.52</ele>
        <time>2021-03-27T15:31:33Z</time>
      </trkpt>
      <trkpt lat="42.883101" lon="-5.981045">
        <ele>1301.89</ele>
        <time>2021-03-27T15:31:44Z</time>
      </trkpt>
      <trkpt lat="42.882988" lon="-5.980661">
        <ele>1304.94</ele>
        <time>2021-03-27T15:31:54Z</time>
      </trkpt>
      <trkpt lat="42.882929" lon="-5.980702">
        <ele>1307.31</ele>
        <time>2021-03-27T15:32:00Z</time>
      </trkpt>
      <trkpt lat="42.882899" lon="-5.980879">
        <ele>1308.72</ele>
        <time>2021-03-27T15:32:06Z</time>
      </trkpt>
      <trkpt lat="42.882874" lon="-5.981333">
        <ele>1310.16</ele>
        <time>2021-03-27T15:32:12Z</time>
      </trkpt>
      <trkpt lat="42.882882" lon="-5.981754">
        <ele>1309.82</ele>
        <time>2021-03-27T15:32:17Z</time>
      </trkpt>
      <trkpt lat="42.882933" lon="-5.982118">
        <ele>1311.22</ele>
        <time>2021-03-27T15:32:23Z</time>
      </trkpt>
      <trkpt lat="42.883049" lon="-5.982703">
        <ele>1312.58</ele>
        <time>2021-03-27T15:32:29Z</time>
      </trkpt>
      <trkpt lat="42.883032" lon="-5.9829">
        <ele>1315.06</ele>
        <time>2021-03-27T15:32:35Z</time>
      </trkpt>
      <trkpt lat="42.882977" lon="-5.983079">
        <ele>1318.14</ele>
        <time>2021-03-27T15:32:41Z</time>
      </trkpt>
      <trkpt lat="42.882927" lon="-5.983379">
        <ele>1322.22</ele>
        <time>2021-03-27T15:32:47Z</time>
      </trkpt>
      <trkpt lat="42.882882" lon="-5.984116">
        <ele>1332.78</ele>
        <time>2021-03-27T15:32:53Z</time>
      </trkpt>
      <trkpt lat="42.88284" lon="-5.98434">
        <ele>1333.57</ele>
        <time>2021-03-27T15:32:58Z</time>
      </trkpt>
      <trkpt lat="42.882732" lon="-5.984466">
        <ele>1334.4</ele>
        <time>2021-03-27T15:33:04Z</time>
      </trkpt>
      <trkpt lat="42.882603" lon="-5.984526">
        <ele>1335.4</ele>
        <time>2021-03-27T15:33:10Z</time>
      </trkpt>
      <trkpt lat="42.88248" lon="-5.984613">
        <ele>1336.19</ele>
        <time>2021-03-27T15:33:15Z</time>
      </trkpt>
      <trkpt lat="42.882266" lon="-5.985016">
        <ele>1335.47</ele>
        <time>2021-03-27T15:33:21Z</time>
      </trkpt>
      <trkpt lat="42.882077" lon="-5.985255">
        <ele>1336.73</ele>
        <time>2021-03-27T15:33:27Z</time>
      </trkpt>
      <trkpt lat="42.881809" lon="-5.985363">
        <ele>1339.15</ele>
        <time>2021-03-27T15:33:32Z</time>
      </trkpt>
      <trkpt lat="42.881645" lon="-5.985453">
        <ele>1341.36</ele>
        <time>2021-03-27T15:33:38Z</time>
      </trkpt>
      <trkpt lat="42.881348" lon="-5.985845">
        <ele>1344.61</ele>
        <time>2021-03-27T15:33:44Z</time>
      </trkpt>
      <trkpt lat="42.880864" lon="-5.986423">
        <ele>1347.43</ele>
        <time>2021-03-27T15:33:49Z</time>
      </trkpt>
      <trkpt lat="42.88002" lon="-5.987147">
        <ele>1352.13</ele>
        <time>2021-03-27T15:33:55Z</time>
      </trkpt>
      <trkpt lat="42.87988" lon="-5.987297">
        <ele>1355.13</ele>
        <time>2021-03-27T15:34:01Z</time>
      </trkpt>
      <trkpt lat="42.87979" lon="-5.987523">
        <ele>1358.69</ele>
        <time>2021-03-27T15:34:06Z</time>
      </trkpt>
      <trkpt lat="42.87983" lon="-5.987797">
        <ele>1359.91</ele>
        <time>2021-03-27T15:34:12Z</time>
      </trkpt>
      <trkpt lat="42.880159" lon="-5.988352">
        <ele>1361.97</ele>
        <time>2021-03-27T15:34:18Z</time>
      </trkpt>
      <trkpt lat="42.880304" lon="-5.988536">
        <ele>1361.66</ele>
        <time>2021-03-27T15:34:23Z</time>
      </trkpt>
      <trkpt lat="42.880341" lon="-5.988702">
        <ele>1362.23</ele>
        <time>2021-03-27T15:34:29Z</time>
      </trkpt>
      <trkpt lat="42.880296" lon="-5.989057">
        <ele>1365.11</ele>
        <time>2021-03-27T15:34:35Z</time>
      </trkpt>
      <trkpt lat="42.880364" lon="-5.989421">
        <ele>1363.22</ele>
        <time>2021-03-27T15:34:40Z</time>
      </trkpt>
      <trkpt lat="42.880367" lon="-5.989615">
        <ele>1364.76</ele>
        <time>2021-03-27T15:34:46Z</time>
      </trkpt>
      <trkpt lat="42.88033" lon="-5.989807">
        <ele>1368.1</ele>
        <time>2021-03-27T15:34:52Z</time>
      </trkpt>
      <trkpt lat="42.880322" lon="-5.989991">
        <ele>1370.46</ele>
        <time>2021-03-27T15:34:57Z</time>
      </trkpt>
      <trkpt lat="42.880398" lon="-5.990134">
        <ele>1369.74</ele>
        <time>2021-03-27T15:35:03Z</time>
      </trkpt>
      <trkpt lat="42.880754" lon="-5.990423">
        <ele>1365.04</ele>
        <time>2021-03-27T15:35:09Z</time>
      </trkpt>
      <trkpt lat="42.880943" lon="-5.990607">
        <ele>1364.22</ele>
        <time>2021-03-27T15:35:14Z</time>
      </trkpt>
      <trkpt lat="42.880996" lon="-5.990818">
        <ele>1366.04</ele>
        <time>2021-03-27T15:35:20Z</time>
      </trkpt>
      <trkpt lat="42.881156" lon="-5.991976">
        <ele>1370.74</ele>
        <time>2021-03-27T15:35:26Z</time>
      </trkpt>
      <trkpt lat="42.881243" lon="-5.992207">
        <ele>1370.03</ele>
        <time>2021-03-27T15:35:31Z</time>
      </trkpt>
      <trkpt lat="42.881422" lon="-5.992991">
        <ele>1361.74</ele>
        <time>2021-03-27T15:35:37Z</time>
      </trkpt>
      <trkpt lat="42.881422" lon="-5.993565">
        <ele>1360.6</ele>
        <time>2021-03-27T15:35:43Z</time>
      </trkpt>
      <trkpt lat="42.881246" lon="-5.994004">
        <ele>1363.98</ele>
        <time>2021-03-27T15:35:48Z</time>
      </trkpt>
      <trkpt lat="42.881064" lon="-5.994233">
        <ele>1366.01</ele>
        <time>2021-03-27T15:35:54Z</time>
      </trkpt>
      <trkpt lat="42.880883" lon="-5.994557">
        <ele>1365.16</ele>
        <time>2021-03-27T15:36:00Z</time>
      </trkpt>
      <trkpt lat="42.880883" lon="-5.994791">
        <ele>1363.22</ele>
        <time>2021-03-27T15:36:05Z</time>
      </trkpt>
      <trkpt lat="42.880798" lon="-5.995128">
        <ele>1364.82</ele>
        <time>2021-03-27T15:36:11Z</time>
      </trkpt>
      <trkpt lat="42.880803" lon="-5.995209">
        <ele>1364.57</ele>
        <time>2021-03-27T15:36:16Z</time>
      </trkpt>
      <trkpt lat="42.88083" lon="-5.995304">
        <ele>1363.37</ele>
        <time>2021-03-27T15:36:22Z</time>
      </trkpt>
      <trkpt lat="42.880872" lon="-5.995386">
        <ele>1362.66</ele>
        <time>2021-03-27T15:36:28Z</time>
      </trkpt>
      <trkpt lat="42.880912" lon="-5.995643">
        <ele>1363.78</ele>
        <time>2021-03-27T15:36:33Z</time>
      </trkpt>
      <trkpt lat="42.880893" lon="-5.995743">
        <ele>1365.45</ele>
        <time>2021-03-27T15:36:39Z</time>
      </trkpt>
      <trkpt lat="42.880809" lon="-5.995909">
        <ele>1369.99</ele>
        <time>2021-03-27T15:36:45Z</time>
      </trkpt>
      <trkpt lat="42.880793" lon="-5.995996">
        <ele>1371.68</ele>
        <time>2021-03-27T15:36:50Z</time>
      </trkpt>
      <trkpt lat="42.880809" lon="-5.99612">
        <ele>1372.86</ele>
        <time>2021-03-27T15:36:56Z</time>
      </trkpt>
      <trkpt lat="42.880867" lon="-5.996264">
        <ele>1374.1</ele>
        <time>2021-03-27T15:37:02Z</time>
      </trkpt>
      <trkpt lat="42.880969" lon="-5.996296">
        <ele>1372.71</ele>
        <time>2021-03-27T15:37:07Z</time>
      </trkpt>
      <trkpt lat="42.881309" lon="-5.996272">
        <ele>1368.06</ele>
        <time>2021-03-27T15:37:13Z</time>
      </trkpt>
      <trkpt lat="42.881467" lon="-5.996325">
        <ele>1367.22</ele>
        <time>2021-03-27T15:37:19Z</time>
      </trkpt>
      <trkpt lat="42.881609" lon="-5.996427">
        <ele>1367.1</ele>
        <time>2021-03-27T15:37:24Z</time>
      </trkpt>
      <trkpt lat="42.88173" lon="-5.996612">
        <ele>1370.42</ele>
        <time>2021-03-27T15:37:30Z</time>
      </trkpt>
      <trkpt lat="42.881735" lon="-5.996693">
        <ele>1372.46</ele>
        <time>2021-03-27T15:37:36Z</time>
      </trkpt>
      <trkpt lat="42.881814" lon="-5.996893">
        <ele>1375.58</ele>
        <time>2021-03-27T15:37:41Z</time>
      </trkpt>
      <trkpt lat="42.881898" lon="-5.99702">
        <ele>1374.69</ele>
        <time>2021-03-27T15:37:47Z</time>
      </trkpt>
      <trkpt lat="42.881969" lon="-5.997233">
        <ele>1373.51</ele>
        <time>2021-03-27T15:37:53Z</time>
      </trkpt>
      <trkpt lat="42.881969" lon="-5.997383">
        <ele>1372.87</ele>
        <time>2021-03-27T15:37:58Z</time>
      </trkpt>
      <trkpt lat="42.881793" lon="-5.997919">
        <ele>1370.73</ele>
        <time>2021-03-27T15:38:04Z</time>
      </trkpt>
      <trkpt lat="42.881638" lon="-5.998019">
        <ele>1372.35</ele>
        <time>2021-03-27T15:38:10Z</time>
      </trkpt>
      <trkpt lat="42.881567" lon="-5.998093">
        <ele>1373.65</ele>
        <time>2021-03-27T15:38:15Z</time>
      </trkpt>
      <trkpt lat="42.881577" lon="-5.99818">
        <ele>1373.7</ele>
        <time>2021-03-27T15:38:21Z</time>
      </trkpt>
      <trkpt lat="42.881659" lon="-5.998319">
        <ele>1372.15</ele>
        <time>2021-03-27T15:38:27Z</time>
      </trkpt>
      <trkpt lat="42.88173" lon="-5.998493">
        <ele>1372.68</ele>
        <time>2021-03-27T15:38:32Z</time>
      </trkpt>
      <trkpt lat="42.881732" lon="-5.998756">
        <ele>1373.29</ele>
        <time>2021-03-27T15:38:38Z</time>
      </trkpt>
      <trkpt lat="42.881677" lon="-5.99909">
        <ele>1372.39</ele>
        <time>2021-03-27T15:38:44Z</time>
      </trkpt>
      <trkpt lat="42.88159" lon="-5.999293">
        <ele>1373.46</ele>
        <time>2021-03-27T15:38:49Z</time>
      </trkpt>
      <trkpt lat="42.881419" lon="-5.999369">
        <ele>1377.5</ele>
        <time>2021-03-27T15:38:55Z</time>
      </trkpt>
      <trkpt lat="42.881295" lon="-5.99949">
        <ele>1380.91</ele>
        <time>2021-03-27T15:39:01Z</time>
      </trkpt>
      <trkpt lat="42.881172" lon="-6.00018">
        <ele>1378.14</ele>
        <time>2021-03-27T15:39:06Z</time>
      </trkpt>
      <trkpt lat="42.881001" lon="-6.000487">
        <ele>1377.08</ele>
        <time>2021-03-27T15:39:12Z</time>
      </trkpt>
      <trkpt lat="42.880719" lon="-6.000754">
        <ele>1376.25</ele>
        <time>2021-03-27T15:39:17Z</time>
      </trkpt>
      <trkpt lat="42.880235" lon="-6.001522">
        <ele>1375.38</ele>
        <time>2021-03-27T15:39:23Z</time>
      </trkpt>
      <trkpt lat="42.880163" lon="-6.001528">
        <ele>1376.03</ele>
        <time>2021-03-27T15:39:31Z</time>
      </trkpt>
      <trkpt lat="42.88025" lon="-6.001222">
        <ele>1377.1</ele>
        <time>2021-03-27T15:39:39Z</time>
      </trkpt>
      <trkpt lat="42.8805" lon="-6.000538">
        <ele>1383.58</ele>
        <time>2021-03-27T15:39:47Z</time>
      </trkpt>
      <trkpt lat="42.88089" lon="-6.00024">
        <ele>1383.56</ele>
        <time>2021-03-27T15:39:55Z</time>
      </trkpt>
      <trkpt lat="42.880941" lon="-6.000108">
        <ele>1385.1</ele>
        <time>2021-03-27T15:40:03Z</time>
      </trkpt>
      <trkpt lat="42.880971" lon="-5.999865">
        <ele>1388.47</ele>
        <time>2021-03-27T15:40:11Z</time>
      </trkpt>
      <trkpt lat="42.881025" lon="-5.999634">
        <ele>1389.27</ele>
        <time>2021-03-27T15:40:18Z</time>
      </trkpt>
      <trkpt lat="42.881064" lon="-5.999289">
        <ele>1387.33</ele>
        <time>2021-03-27T15:40:26Z</time>
      </trkpt>
      <trkpt lat="42.881031" lon="-5.99916">
        <ele>1387.58</ele>
        <time>2021-03-27T15:40:34Z</time>
      </trkpt>
      <trkpt lat="42.880923" lon="-5.999106">
        <ele>1390.8</ele>
        <time>2021-03-27T15:40:42Z</time>
      </trkpt>
      <trkpt lat="42.880779" lon="-5.998911">
        <ele>1392.96</ele>
        <time>2021-03-27T15:40:50Z</time>
      </trkpt>
      <trkpt lat="42.88062" lon="-5.998794">
        <ele>1393.79</ele>
        <time>2021-03-27T15:40:58Z</time>
      </trkpt>
      <trkpt lat="42.880365" lon="-5.99871">
        <ele>1396.17</ele>
        <time>2021-03-27T15:41:06Z</time>
      </trkpt>
      <trkpt lat="42.880265" lon="-5.998611">
        <ele>1396.13</ele>
        <time>2021-03-27T15:41:14Z</time>
      </trkpt>
      <trkpt lat="42.880175" lon="-5.998466">
        <ele>1394.7</ele>
        <time>2021-03-27T15:41:22Z</time>
      </trkpt>
      <trkpt lat="42.879788" lon="-5.998268">
        <ele>1395.77</ele>
        <time>2021-03-27T15:41:29Z</time>
      </trkpt>
      <trkpt lat="42.879635" lon="-5.99822">
        <ele>1396.54</ele>
        <time>2021-03-27T15:41:37Z</time>
      </trkpt>
      <trkpt lat="42.879401" lon="-5.998281">
        <ele>1399.3</ele>
        <time>2021-03-27T15:41:45Z</time>
      </trkpt>
      <trkpt lat="42.87935" lon="-5.998422">
        <ele>1401.09</ele>
        <time>2021-03-27T15:41:53Z</time>
      </trkpt>
      <trkpt lat="42.879368" lon="-5.999136">
        <ele>1410.3</ele>
        <time>2021-03-27T15:42:01Z</time>
      </trkpt>
      <trkpt lat="42.879302" lon="-5.999592">
        <ele>1413.76</ele>
        <time>2021-03-27T15:42:09Z</time>
      </trkpt>
      <trkpt lat="42.878843" lon="-5.99988">
        <ele>1415.45</ele>
        <time>2021-03-27T15:42:17Z</time>
      </trkpt>
      <trkpt lat="42.87851" lon="-5.999943">
        <ele>1418.86</ele>
        <time>2021-03-27T15:42:25Z</time>
      </trkpt>
      <trkpt lat="42.878354" lon="-5.999919">
        <ele>1419.87</ele>
        <time>2021-03-27T15:42:33Z</time>
      </trkpt>
      <trkpt lat="42.878246" lon="-5.99982">
        <ele>1420.63</ele>
        <time>2021-03-27T15:42:40Z</time>
      </trkpt>
      <trkpt lat="42.878168" lon="-5.999718">
        <ele>1421.22</ele>
        <time>2021-03-27T15:42:48Z</time>
      </trkpt>
      <trkpt lat="42.878098" lon="-5.9997">
        <ele>1421.85</ele>
        <time>2021-03-27T15:42:56Z</time>
      </trkpt>
      <trkpt lat="42.877948" lon="-5.99973">
        <ele>1423.94</ele>
        <time>2021-03-27T15:43:04Z</time>
      </trkpt>
      <trkpt lat="42.877735" lon="-6.000129">
        <ele>1428.99</ele>
        <time>2021-03-27T15:43:12Z</time>
      </trkpt>
      <trkpt lat="42.877396" lon="-6.000877">
        <ele>1435.03</ele>
        <time>2021-03-27T15:43:20Z</time>
      </trkpt>
      <trkpt lat="42.876847" lon="-6.001615">
        <ele>1445.33</ele>
        <time>2021-03-27T15:43:28Z</time>
      </trkpt>
      <trkpt lat="42.876709" lon="-6.001891">
        <ele>1444.82</ele>
        <time>2021-03-27T15:43:36Z</time>
      </trkpt>
      <trkpt lat="42.876637" lon="-6.001993">
        <ele>1445.56</ele>
        <time>2021-03-27T15:43:44Z</time>
      </trkpt>
      <trkpt lat="42.876565" lon="-6.002032">
        <ele>1447.13</ele>
        <time>2021-03-27T15:43:52Z</time>
      </trkpt>
      <trkpt lat="42.87646" lon="-6.001993">
        <ele>1449.91</ele>
        <time>2021-03-27T15:43:59Z</time>
      </trkpt>
      <trkpt lat="42.876367" lon="-6.002014">
        <ele>1452.91</ele>
        <time>2021-03-27T15:44:07Z</time>
      </trkpt>
      <trkpt lat="42.876298" lon="-6.002068">
        <ele>1456.86</ele>
        <time>2021-03-27T15:44:15Z</time>
      </trkpt>
      <trkpt lat="42.876238" lon="-6.00223">
        <ele>1459.14</ele>
        <time>2021-03-27T15:44:23Z</time>
      </trkpt>
      <trkpt lat="42.876145" lon="-6.00268">
        <ele>1456.91</ele>
        <time>2021-03-27T15:44:31Z</time>
      </trkpt>
      <trkpt lat="42.875973" lon="-6.003035">
        <ele>1459.47</ele>
        <time>2021-03-27T15:44:39Z</time>
      </trkpt>
      <trkpt lat="42.875797" lon="-6.003608">
        <ele>1463.55</ele>
        <time>2021-03-27T15:44:47Z</time>
      </trkpt>
      <trkpt lat="42.875535" lon="-6.004286">
        <ele>1471.24</ele>
        <time>2021-03-27T15:44:55Z</time>
      </trkpt>
      <trkpt lat="42.87534" lon="-6.004877">
        <ele>1478.03</ele>
        <time>2021-03-27T15:45:03Z</time>
      </trkpt>
      <trkpt lat="42.875217" lon="-6.005016">
        <ele>1484.86</ele>
        <time>2021-03-27T15:45:10Z</time>
      </trkpt>
      <trkpt lat="42.87513" lon="-6.005174">
        <ele>1489.93</ele>
        <time>2021-03-27T15:45:18Z</time>
      </trkpt>
      <trkpt lat="42.874833" lon="-6.00549">
        <ele>1503.57</ele>
        <time>2021-03-27T15:45:26Z</time>
      </trkpt>
      <trkpt lat="42.874755" lon="-6.005514">
        <ele>1505.9</ele>
        <time>2021-03-27T15:45:34Z</time>
      </trkpt>
      <trkpt lat="42.874683" lon="-6.005448">
        <ele>1507.4</ele>
        <time>2021-03-27T15:45:42Z</time>
      </trkpt>
      <trkpt lat="42.874674" lon="-6.005292">
        <ele>1506.93</ele>
        <time>2021-03-27T15:45:50Z</time>
      </trkpt>
      <trkpt lat="42.874605" lon="-6.0051">
        <ele>1508.85</ele>
        <time>2021-03-27T15:45:58Z</time>
      </trkpt>
      <trkpt lat="42.874215" lon="-6.004733">
        <ele>1514.41</ele>
        <time>2021-03-27T15:46:06Z</time>
      </trkpt>
      <trkpt lat="42.873864" lon="-6.004715">
        <ele>1513.34</ele>
        <time>2021-03-27T15:46:14Z</time>
      </trkpt>
      <trkpt lat="42.873557" lon="-6.004613">
        <ele>1516.22</ele>
        <time>2021-03-27T15:46:21Z</time>
      </trkpt>
      <trkpt lat="42.872438" lon="-6.004052">
        <ele>1526.45</ele>
        <time>2021-03-27T15:46:29Z</time>
      </trkpt>
      <trkpt lat="42.871742" lon="-6.003746">
        <ele>1533.43</ele>
        <time>2021-03-27T15:46:37Z</time>
      </trkpt>
      <trkpt lat="42.871162" lon="-6.003579">
        <ele>1534.95</ele>
        <time>2021-03-27T15:46:45Z</time>
      </trkpt>
      <trkpt lat="42.870793" lon="-6.003494">
        <ele>1535.35</ele>
        <time>2021-03-27T15:46:53Z</time>
      </trkpt>
      <trkpt lat="42.868545" lon="-6.003526">
        <ele>1522.13</ele>
        <time>2021-03-27T15:47:01Z</time>
      </trkpt>
      <trkpt lat="42.868194" lon="-6.003374">
        <ele>1518.78</ele>
        <time>2021-03-27T15:47:09Z</time>
      </trkpt>
      <trkpt lat="42.868008" lon="-6.003424">
        <ele>1516.45</ele>
        <time>2021-03-27T15:47:17Z</time>
      </trkpt>
      <trkpt lat="42.867686" lon="-6.003458">
        <ele>1515.14</ele>
        <time>2021-03-27T15:47:25Z</time>
      </trkpt>
      <trkpt lat="42.866571" lon="-6.003922">
        <ele>1501.95</ele>
        <time>2021-03-27T15:47:32Z</time>
      </trkpt>
      <trkpt lat="42.866496" lon="-6.003997">
        <ele>1500.61</ele>
        <time>2021-03-27T15:47:40Z</time>
      </trkpt>
      <trkpt lat="42.866475" lon="-6.004111">
        <ele>1499.21</ele>
        <time>2021-03-27T15:47:48Z</time>
      </trkpt>
      <trkpt lat="42.866512" lon="-6.004384">
        <ele>1497.32</ele>
        <time>2021-03-27T15:47:56Z</time>
      </trkpt>
      <trkpt lat="42.866422" lon="-6.004666">
        <ele>1495.63</ele>
        <time>2021-03-27T15:48:04Z</time>
      </trkpt>
      <trkpt lat="42.866376" lon="-6.004712">
        <ele>1494.89</ele>
        <time>2021-03-27T15:48:12Z</time>
      </trkpt>
      <trkpt lat="42.866252" lon="-6.004718">
        <ele>1493.53</ele>
        <time>2021-03-27T15:48:20Z</time>
      </trkpt>
      <trkpt lat="42.8661" lon="-6.00466">
        <ele>1492.01</ele>
        <time>2021-03-27T15:48:28Z</time>
      </trkpt>
      <trkpt lat="42.865793" lon="-6.004393">
        <ele>1490.43</ele>
        <time>2021-03-27T15:48:36Z</time>
      </trkpt>
      <trkpt lat="42.865527" lon="-6.004263">
        <ele>1488.29</ele>
        <time>2021-03-27T15:48:44Z</time>
      </trkpt>
      <trkpt lat="42.86491" lon="-6.004028">
        <ele>1477.2</ele>
        <time>2021-03-27T15:48:51Z</time>
      </trkpt>
      <trkpt lat="42.864637" lon="-6.004037">
        <ele>1474.48</ele>
        <time>2021-03-27T15:48:59Z</time>
      </trkpt>
      <trkpt lat="42.864061" lon="-6.004127">
        <ele>1473.43</ele>
        <time>2021-03-27T15:49:07Z</time>
      </trkpt>
      <trkpt lat="42.863308" lon="-6.004279">
        <ele>1461.68</ele>
        <time>2021-03-27T15:49:15Z</time>
      </trkpt>
      <trkpt lat="42.862973" lon="-6.004372">
        <ele>1461.98</ele>
        <time>2021-03-27T15:49:23Z</time>
      </trkpt>
      <trkpt lat="42.862623" lon="-6.004617">
        <ele>1460.68</ele>
        <time>2021-03-27T15:49:31Z</time>
      </trkpt>
      <trkpt lat="42.861719" lon="-6.00549">
        <ele>1448.83</ele>
        <time>2021-03-27T15:49:39Z</time>
      </trkpt>
      <trkpt lat="42.861148" lon="-6.005788">
        <ele>1448.26</ele>
        <time>2021-03-27T15:49:47Z</time>
      </trkpt>
      <trkpt lat="42.861148" lon="-6.005788">
        <ele>1448.26</ele>
        <time>2021-03-27T15:49:47Z</time>
      </trkpt>
      <trkpt lat="42.860622" lon="-6.005927">
        <ele>1446.0</ele>
        <time>2021-03-27T15:49:55Z</time>
      </trkpt>
      <trkpt lat="42.860163" lon="-6.005958">
        <ele>1445.04</ele>
        <time>2021-03-27T15:50:02Z</time>
      </trkpt>
      <trkpt lat="42.859894" lon="-6.006036">
        <ele>1439.5</ele>
        <time>2021-03-27T15:50:10Z</time>
      </trkpt>
      <trkpt lat="42.859252" lon="-6.006051">
        <ele>1432.38</ele>
        <time>2021-03-27T15:50:18Z</time>
      </trkpt>
      <trkpt lat="42.858536" lon="-6.005853">
        <ele>1429.37</ele>
        <time>2021-03-27T15:50:26Z</time>
      </trkpt>
      <trkpt lat="42.858205" lon="-6.005955">
        <ele>1422.71</ele>
        <time>2021-03-27T15:50:34Z</time>
      </trkpt>
      <trkpt lat="42.857477" lon="-6.006476">
        <ele>1403.87</ele>
        <time>2021-03-27T15:50:42Z</time>
      </trkpt>
      <trkpt lat="42.856755" lon="-6.006649">
        <ele>1394.58</ele>
        <time>2021-03-27T15:50:49Z</time>
      </trkpt>
      <trkpt lat="42.855931" lon="-6.006733">
        <ele>1383.65</ele>
        <time>2021-03-27T15:50:57Z</time>
      </trkpt>
      <trkpt lat="42.855299" lon="-6.006863">
        <ele>1372.6</ele>
        <time>2021-03-27T15:51:05Z</time>
      </trkpt>
      <trkpt lat="42.854601" lon="-6.00664">
        <ele>1364.67</ele>
        <time>2021-03-27T15:51:13Z</time>
      </trkpt>
      <trkpt lat="42.854431" lon="-6.006454">
        <ele>1360.29</ele>
        <time>2021-03-27T15:51:21Z</time>
      </trkpt>
      <trkpt lat="42.854347" lon="-6.006299">
        <ele>1357.73</ele>
        <time>2021-03-27T15:51:29Z</time>
      </trkpt>
      <trkpt lat="42.854316" lon="-6.006076">
        <ele>1357.56</ele>
        <time>2021-03-27T15:51:36Z</time>
      </trkpt>
      <trkpt lat="42.854285" lon="-6.006023">
        <ele>1357.05</ele>
        <time>2021-03-27T15:51:44Z</time>
      </trkpt>
      <trkpt lat="42.854236" lon="-6.006026">
        <ele>1355.6</ele>
        <time>2021-03-27T15:51:52Z</time>
      </trkpt>
      <trkpt lat="42.854202" lon="-6.006076">
        <ele>1354.26</ele>
        <time>2021-03-27T15:52:00Z</time>
      </trkpt>
      <trkpt lat="42.854211" lon="-6.006253">
        <ele>1353.42</ele>
        <time>2021-03-27T15:52:08Z</time>
      </trkpt>
      <trkpt lat="42.854121" lon="-6.006798">
        <ele>1347.73</ele>
        <time>2021-03-27T15:52:16Z</time>
      </trkpt>
      <trkpt lat="42.853991" lon="-6.007346">
        <ele>1340.47</ele>
        <time>2021-03-27T15:52:23Z</time>
      </trkpt>
      <trkpt lat="42.854007" lon="-6.007605">
        <ele>1338.33</ele>
        <time>2021-03-27T15:52:31Z</time>
      </trkpt>
      <trkpt lat="42.854115" lon="-6.008003">
        <ele>1335.27</ele>
        <time>2021-03-27T15:52:39Z</time>
      </trkpt>
      <trkpt lat="42.854202" lon="-6.008164">
        <ele>1334.81</ele>
        <time>2021-03-27T15:52:47Z</time>
      </trkpt>
      <trkpt lat="42.854326" lon="-6.00831">
        <ele>1334.05</ele>
        <time>2021-03-27T15:52:55Z</time>
      </trkpt>
      <trkpt lat="42.854515" lon="-6.0084">
        <ele>1332.88</ele>
        <time>2021-03-27T15:53:03Z</time>
      </trkpt>
      <trkpt lat="42.854576" lon="-6.008477">
        <ele>1330.2</ele>
        <time>2021-03-27T15:53:10Z</time>
      </trkpt>
      <trkpt lat="42.854555" lon="-6.008555">
        <ele>1328.47</ele>
        <time>2021-03-27T15:53:18Z</time>
      </trkpt>
      <trkpt lat="42.854292" lon="-6.008824">
        <ele>1322.39</ele>
        <time>2021-03-27T15:53:26Z</time>
      </trkpt>
      <trkpt lat="42.853647" lon="-6.00918">
        <ele>1306.87</ele>
        <time>2021-03-27T15:53:34Z</time>
      </trkpt>
      <trkpt lat="42.85356" lon="-6.009187">
        <ele>1306.11</ele>
        <time>2021-03-27T15:53:42Z</time>
      </trkpt>
      <trkpt lat="42.853477" lon="-6.009054">
        <ele>1306.99</ele>
        <time>2021-03-27T15:53:50Z</time>
      </trkpt>
      <trkpt lat="42.853449" lon="-6.008806">
        <ele>1309.11</ele>
        <time>2021-03-27T15:53:57Z</time>
      </trkpt>
      <trkpt lat="42.853353" lon="-6.008536">
        <ele>1307.04</ele>
        <time>2021-03-27T15:54:05Z</time>
      </trkpt>
      <trkpt lat="42.853133" lon="-6.007817">
        <ele>1302.36</ele>
        <time>2021-03-27T15:54:13Z</time>
      </trkpt>
      <trkpt lat="42.853074" lon="-6.007709">
        <ele>1301.09</ele>
        <time>2021-03-27T15:54:21Z</time>
      </trkpt>
      <trkpt lat="42.853027" lon="-6.007709">
        <ele>1299.99</ele>
        <time>2021-03-27T15:54:29Z</time>
      </trkpt>
      <trkpt lat="42.853006" lon="-6.007777">
        <ele>1299.11</ele>
        <time>2021-03-27T15:54:37Z</time>
      </trkpt>
      <trkpt lat="42.853061" lon="-6.008229">
        <ele>1297.95</ele>
        <time>2021-03-27T15:54:44Z</time>
      </trkpt>
      <trkpt lat="42.853058" lon="-6.008592">
        <ele>1297.09</ele>
        <time>2021-03-27T15:54:52Z</time>
      </trkpt>
      <trkpt lat="42.852962" lon="-6.00879">
        <ele>1294.58</ele>
        <time>2021-03-27T15:55:00Z</time>
      </trkpt>
      <trkpt lat="42.852941" lon="-6.009004">
        <ele>1293.35</ele>
        <time>2021-03-27T15:55:08Z</time>
      </trkpt>
      <trkpt lat="42.852987" lon="-6.009277">
        <ele>1293.88</ele>
        <time>2021-03-27T15:55:16Z</time>
      </trkpt>
      <trkpt lat="42.852925" lon="-6.009534">
        <ele>1290.56</ele>
        <time>2021-03-27T15:55:24Z</time>
      </trkpt>
      <trkpt lat="42.852436" lon="-6.01042">
        <ele>1282.64</ele>
        <time>2021-03-27T15:55:31Z</time>
      </trkpt>
      <trkpt lat="42.852259" lon="-6.010615">
        <ele>1282.56</ele>
        <time>2021-03-27T15:55:39Z</time>
      </trkpt>
      <trkpt lat="42.851683" lon="-6.011154">
        <ele>1277.65</ele>
        <time>2021-03-27T15:55:47Z</time>
      </trkpt>
      <trkpt lat="42.851283" lon="-6.011985">
        <ele>1276.77</ele>
        <time>2021-03-27T15:55:55Z</time>
      </trkpt>
      <trkpt lat="42.851246" lon="-6.012171">
        <ele>1277.26</ele>
        <time>2021-03-27T15:56:03Z</time>
      </trkpt>
      <trkpt lat="42.851292" lon="-6.012552">
        <ele>1272.29</ele>
        <time>2021-03-27T15:56:11Z</time>
      </trkpt>
      <trkpt lat="42.851301" lon="-6.012806">
        <ele>1268.83</ele>
        <time>2021-03-27T15:56:18Z</time>
      </trkpt>
      <trkpt lat="42.851255" lon="-6.013075">
        <ele>1267.18</ele>
        <time>2021-03-27T15:56:26Z</time>
      </trkpt>
      <trkpt lat="42.851086" lon="-6.013192">
        <ele>1266.18</ele>
        <time>2021-03-27T15:56:34Z</time>
      </trkpt>
      <trkpt lat="42.850529" lon="-6.013487">
        <ele>1269.03</ele>
        <time>2021-03-27T15:56:42Z</time>
      </trkpt>
      <trkpt lat="42.848922" lon="-6.015491">
        <ele>1248.49</ele>
        <time>2021-03-27T15:56:50Z</time>
      </trkpt>
      <trkpt lat="42.848428" lon="-6.015937">
        <ele>1242.89</ele>
        <time>2021-03-27T15:56:58Z</time>
      </trkpt>
      <trkpt lat="42.848307" lon="-6.016116">
        <ele>1241.4</ele>
        <time>2021-03-27T15:57:05Z</time>
      </trkpt>
      <trkpt lat="42.848215" lon="-6.016348">
        <ele>1245.28</ele>
        <time>2021-03-27T15:57:13Z</time>
      </trkpt>
      <trkpt lat="42.848177" lon="-6.016619">
        <ele>1245.0</ele>
        <time>2021-03-27T15:57:21Z</time>
      </trkpt>
      <trkpt lat="42.84823" lon="-6.016871">
        <ele>1241.06</ele>
        <time>2021-03-27T15:57:29Z</time>
      </trkpt>
      <trkpt lat="42.848365" lon="-6.017138">
        <ele>1235.69</ele>
        <time>2021-03-27T15:57:37Z</time>
      </trkpt>
      <trkpt lat="42.848423" lon="-6.017331">
        <ele>1235.97</ele>
        <time>2021-03-27T15:57:45Z</time>
      </trkpt>
      <trkpt lat="42.848409" lon="-6.01766">
        <ele>1235.66</ele>
        <time>2021-03-27T15:57:52Z</time>
      </trkpt>
      <trkpt lat="42.848317" lon="-6.017922">
        <ele>1235.09</ele>
        <time>2021-03-27T15:58:00Z</time>
      </trkpt>
      <trkpt lat="42.847944" lon="-6.018663">
        <ele>1233.94</ele>
        <time>2021-03-27T15:58:08Z</time>
      </trkpt>
      <trkpt lat="42.847745" lon="-6.018866">
        <ele>1231.76</ele>
        <time>2021-03-27T15:58:16Z</time>
      </trkpt>
      <trkpt lat="42.847607" lon="-6.018973">
        <ele>1232.29</ele>
        <time>2021-03-27T15:58:24Z</time>
      </trkpt>
      <trkpt lat="42.847024" lon="-6.01912">
        <ele>1229.31</ele>
        <time>2021-03-27T15:58:31Z</time>
      </trkpt>
      <trkpt lat="42.846931" lon="-6.01912">
        <ele>1228.42</ele>
        <time>2021-03-27T15:58:39Z</time>
      </trkpt>
      <trkpt lat="42.847018" lon="-6.019619">
        <ele>1224.54</ele>
        <time>2021-03-27T15:58:46Z</time>
      </trkpt>
      <trkpt lat="42.847102" lon="-6.019667">
        <ele>1225.1</ele>
        <time>2021-03-27T15:58:48Z</time>
      </trkpt>
      <trkpt lat="42.847229" lon="-6.020067">
        <ele>1227.46</ele>
        <time>2021-03-27T15:58:54Z</time>
      </trkpt>
      <trkpt lat="42.847273" lon="-6.020457">
        <ele>1230.94</ele>
        <time>2021-03-27T15:58:59Z</time>
      </trkpt>
      <trkpt lat="42.847421" lon="-6.020364">
        <ele>1235.84</ele>
        <time>2021-03-27T15:59:14Z</time>
      </trkpt>
      <trkpt lat="42.847465" lon="-6.020082">
        <ele>1235.06</ele>
        <time>2021-03-27T15:59:29Z</time>
      </trkpt>
      <trkpt lat="42.847505" lon="-6.020079">
        <ele>1236.29</ele>
        <time>2021-03-27T15:59:44Z</time>
      </trkpt>
      <trkpt lat="42.847548" lon="-6.02015">
        <ele>1238.57</ele>
        <time>2021-03-27T15:59:58Z</time>
      </trkpt>
      <trkpt lat="42.847675" lon="-6.020463">
        <ele>1244.23</ele>
        <time>2021-03-27T16:00:13Z</time>
      </trkpt>
      <trkpt lat="42.847707" lon="-6.020702">
        <ele>1243.72</ele>
        <time>2021-03-27T16:00:28Z</time>
      </trkpt>
      <trkpt lat="42.847849" lon="-6.021037">
        <ele>1244.35</ele>
        <time>2021-03-27T16:00:43Z</time>
      </trkpt>
      <trkpt lat="42.847927" lon="-6.021126">
        <ele>1246.15</ele>
        <time>2021-03-27T16:00:57Z</time>
      </trkpt>
      <trkpt lat="42.848034" lon="-6.021245">
        <ele>1248.66</ele>
        <time>2021-03-27T16:01:12Z</time>
      </trkpt>
      <trkpt lat="42.848414" lon="-6.021494">
        <ele>1256.55</ele>
        <time>2021-03-27T16:01:27Z</time>
      </trkpt>
      <trkpt lat="42.84862" lon="-6.021601">
        <ele>1258.86</ele>
        <time>2021-03-27T16:01:42Z</time>
      </trkpt>
      <trkpt lat="42.848686" lon="-6.021735">
        <ele>1256.98</ele>
        <time>2021-03-27T16:01:56Z</time>
      </trkpt>
      <trkpt lat="42.849023" lon="-6.021973">
        <ele>1259.76</ele>
        <time>2021-03-27T16:02:11Z</time>
      </trkpt>
      <trkpt lat="42.849452" lon="-6.021977">
        <ele>1265.16</ele>
        <time>2021-03-27T16:02:26Z</time>
      </trkpt>
      <trkpt lat="42.84962" lon="-6.021945">
        <ele>1265.35</ele>
        <time>2021-03-27T16:02:41Z</time>
      </trkpt>
      <trkpt lat="42.849886" lon="-6.021858">
        <ele>1267.85</ele>
        <time>2021-03-27T16:02:55Z</time>
      </trkpt>
      <trkpt lat="42.850116" lon="-6.021716">
        <ele>1271.59</ele>
        <time>2021-03-27T16:03:10Z</time>
      </trkpt>
      <trkpt lat="42.8502" lon="-6.021565">
        <ele>1274.06</ele>
        <time>2021-03-27T16:03:25Z</time>
      </trkpt>
      <trkpt lat="42.850191" lon="-6.021506">
        <ele>1275.79</ele>
        <time>2021-03-27T16:03:40Z</time>
      </trkpt>
      <trkpt lat="42.849916" lon="-6.021482">
        <ele>1279.7</ele>
        <time>2021-03-27T16:03:54Z</time>
      </trkpt>
      <trkpt lat="42.849701" lon="-6.021308">
        <ele>1282.82</ele>
        <time>2021-03-27T16:04:09Z</time>
      </trkpt>
      <trkpt lat="42.849611" lon="-6.021202">
        <ele>1284.79</ele>
        <time>2021-03-27T16:04:24Z</time>
      </trkpt>
      <trkpt lat="42.849571" lon="-6.021016">
        <ele>1288.65</ele>
        <time>2021-03-27T16:04:39Z</time>
      </trkpt>
      <trkpt lat="42.849521" lon="-6.020873">
        <ele>1291.21</ele>
        <time>2021-03-27T16:04:53Z</time>
      </trkpt>
      <trkpt lat="42.849388" lon="-6.020731">
        <ele>1292.36</ele>
        <time>2021-03-27T16:05:08Z</time>
      </trkpt>
      <trkpt lat="42.849333" lon="-6.020557">
        <ele>1293.78</ele>
        <time>2021-03-27T16:05:23Z</time>
      </trkpt>
      <trkpt lat="42.849359" lon="-6.020486">
        <ele>1294.6</ele>
        <time>2021-03-27T16:05:38Z</time>
      </trkpt>
      <trkpt lat="42.849559" lon="-6.020391">
        <ele>1297.6</ele>
        <time>2021-03-27T16:05:52Z</time>
      </trkpt>
      <trkpt lat="42.849774" lon="-6.020185">
        <ele>1301.24</ele>
        <time>2021-03-27T16:06:07Z</time>
      </trkpt>
      <trkpt lat="42.849962" lon="-6.020059">
        <ele>1303.91</ele>
        <time>2021-03-27T16:06:22Z</time>
      </trkpt>
      <trkpt lat="42.850065" lon="-6.019957">
        <ele>1304.49</ele>
        <time>2021-03-27T16:06:37Z</time>
      </trkpt>
      <trkpt lat="42.850065" lon="-6.019957">
        <ele>1304.49</ele>
        <time>2021-03-27T16:06:37Z</time>
      </trkpt>
      <trkpt lat="42.849962" lon="-6.020059">
        <ele>1303.91</ele>
        <time>2021-03-27T16:06:52Z</time>
      </trkpt>
      <trkpt lat="42.849774" lon="-6.020185">
        <ele>1301.24</ele>
        <time>2021-03-27T16:07:06Z</time>
      </trkpt>
      <trkpt lat="42.849559" lon="-6.020391">
        <ele>1297.6</ele>
        <time>2021-03-27T16:07:21Z</time>
      </trkpt>
      <trkpt lat="42.849359" lon="-6.020486">
        <ele>1294.6</ele>
        <time>2021-03-27T16:07:36Z</time>
      </trkpt>
      <trkpt lat="42.849333" lon="-6.020557">
        <ele>1293.78</ele>
        <time>2021-03-27T16:07:51Z</time>
      </trkpt>
      <trkpt lat="42.849388" lon="-6.020731">
        <ele>1292.36</ele>
        <time>2021-03-27T16:08:05Z</time>
      </trkpt>
      <trkpt lat="42.849521" lon="-6.020873">
        <ele>1291.21</ele>
        <time>2021-03-27T16:08:20Z</time>
      </trkpt>
      <trkpt lat="42.849571" lon="-6.021016">
        <ele>1288.65</ele>
        <time>2021-03-27T16:08:35Z</time>
      </trkpt>
      <trkpt lat="42.849611" lon="-6.021202">
        <ele>1284.79</ele>
        <time>2021-03-27T16:08:50Z</time>
      </trkpt>
      <trkpt lat="42.849701" lon="-6.021308">
        <ele>1282.82</ele>
        <time>2021-03-27T16:09:04Z</time>
      </trkpt>
      <trkpt lat="42.849916" lon="-6.021482">
        <ele>1279.7</ele>
        <time>2021-03-27T16:09:19Z</time>
      </trkpt>
      <trkpt lat="42.850191" lon="-6.021506">
        <ele>1275.79</ele>
        <time>2021-03-27T16:09:34Z</time>
      </trkpt>
      <trkpt lat="42.8502" lon="-6.021565">
        <ele>1274.06</ele>
        <time>2021-03-27T16:09:49Z</time>
      </trkpt>
      <trkpt lat="42.850116" lon="-6.021716">
        <ele>1271.59</ele>
        <time>2021-03-27T16:10:03Z</time>
      </trkpt>
      <trkpt lat="42.849886" lon="-6.021858">
        <ele>1267.85</ele>
        <time>2021-03-27T16:10:18Z</time>
      </trkpt>
      <trkpt lat="42.84962" lon="-6.021945">
        <ele>1265.35</ele>
        <time>2021-03-27T16:10:33Z</time>
      </trkpt>
      <trkpt lat="42.849452" lon="-6.021977">
        <ele>1265.16</ele>
        <time>2021-03-27T16:10:48Z</time>
      </trkpt>
      <trkpt lat="42.849023" lon="-6.021973">
        <ele>1259.76</ele>
        <time>2021-03-27T16:11:02Z</time>
      </trkpt>
      <trkpt lat="42.848686" lon="-6.021735">
        <ele>1256.98</ele>
        <time>2021-03-27T16:11:17Z</time>
      </trkpt>
      <trkpt lat="42.84862" lon="-6.021601">
        <ele>1258.86</ele>
        <time>2021-03-27T16:11:32Z</time>
      </trkpt>
      <trkpt lat="42.848414" lon="-6.021494">
        <ele>1256.55</ele>
        <time>2021-03-27T16:11:47Z</time>
      </trkpt>
      <trkpt lat="42.848034" lon="-6.021245">
        <ele>1248.66</ele>
        <time>2021-03-27T16:12:01Z</time>
      </trkpt>
      <trkpt lat="42.847927" lon="-6.021126">
        <ele>1246.15</ele>
        <time>2021-03-27T16:12:16Z</time>
      </trkpt>
      <trkpt lat="42.847849" lon="-6.021037">
        <ele>1244.35</ele>
        <time>2021-03-27T16:12:31Z</time>
      </trkpt>
      <trkpt lat="42.847707" lon="-6.020702">
        <ele>1243.72</ele>
        <time>2021-03-27T16:12:46Z</time>
      </trkpt>
      <trkpt lat="42.847675" lon="-6.020463">
        <ele>1244.23</ele>
        <time>2021-03-27T16:13:00Z</time>
      </trkpt>
      <trkpt lat="42.847548" lon="-6.02015">
        <ele>1238.57</ele>
        <time>2021-03-27T16:13:15Z</time>
      </trkpt>
      <trkpt lat="42.847505" lon="-6.020079">
        <ele>1236.29</ele>
        <time>2021-03-27T16:13:30Z</time>
      </trkpt>
      <trkpt lat="42.847465" lon="-6.020082">
        <ele>1235.06</ele>
        <time>2021-03-27T16:13:45Z</time>
      </trkpt>
      <trkpt lat="42.847421" lon="-6.020364">
        <ele>1235.84</ele>
        <time>2021-03-27T16:14:00Z</time>
      </trkpt>
      <trkpt lat="42.847273" lon="-6.020457">
        <ele>1230.94</ele>
        <time>2021-03-27T16:14:14Z</time>
      </trkpt>
      <trkpt lat="42.847229" lon="-6.020067">
        <ele>1227.46</ele>
        <time>2021-03-27T16:14:20Z</time>
      </trkpt>
      <trkpt lat="42.847102" lon="-6.019667">
        <ele>1225.1</ele>
        <time>2021-03-27T16:14:26Z</time>
      </trkpt>
      <trkpt lat="42.847018" lon="-6.019619">
        <ele>1224.54</ele>
        <time>2021-03-27T16:14:27Z</time>
      </trkpt>
      <trkpt lat="42.846931" lon="-6.01912">
        <ele>1228.42</ele>
        <time>2021-03-27T16:14:34Z</time>
      </trkpt>
      <trkpt lat="42.846575" lon="-6.019117">
        <ele>1226.24</ele>
        <time>2021-03-27T16:14:37Z</time>
      </trkpt>
      <trkpt lat="42.846198" lon="-6.019237">
        <ele>1222.81</ele>
        <time>2021-03-27T16:14:40Z</time>
      </trkpt>
      <trkpt lat="42.845529" lon="-6.019504">
        <ele>1222.28</ele>
        <time>2021-03-27T16:14:43Z</time>
      </trkpt>
      <trkpt lat="42.84506" lon="-6.019658">
        <ele>1218.89</ele>
        <time>2021-03-27T16:14:46Z</time>
      </trkpt>
      <trkpt lat="42.844413" lon="-6.019631">
        <ele>1213.62</ele>
        <time>2021-03-27T16:14:48Z</time>
      </trkpt>
      <trkpt lat="42.84374" lon="-6.019357">
        <ele>1213.41</ele>
        <time>2021-03-27T16:14:51Z</time>
      </trkpt>
      <trkpt lat="42.843252" lon="-6.019024">
        <ele>1214.97</ele>
        <time>2021-03-27T16:14:54Z</time>
      </trkpt>
      <trkpt lat="42.842934" lon="-6.019004">
        <ele>1212.62</ele>
        <time>2021-03-27T16:14:57Z</time>
      </trkpt>
      <trkpt lat="42.842489" lon="-6.018847">
        <ele>1211.32</ele>
        <time>2021-03-27T16:15:00Z</time>
      </trkpt>
      <trkpt lat="42.841873" lon="-6.01841">
        <ele>1208.96</ele>
        <time>2021-03-27T16:15:03Z</time>
      </trkpt>
      <trkpt lat="42.841682" lon="-6.018342">
        <ele>1209.82</ele>
        <time>2021-03-27T16:15:05Z</time>
      </trkpt>
      <trkpt lat="42.841159" lon="-6.018398">
        <ele>1207.71</ele>
        <time>2021-03-27T16:15:08Z</time>
      </trkpt>
      <trkpt lat="42.840906" lon="-6.018342">
        <ele>1208.15</ele>
        <time>2021-03-27T16:15:11Z</time>
      </trkpt>
      <trkpt lat="42.840033" lon="-6.017877">
        <ele>1209.69</ele>
        <time>2021-03-27T16:15:14Z</time>
      </trkpt>
      <trkpt lat="42.839761" lon="-6.017816">
        <ele>1211.16</ele>
        <time>2021-03-27T16:15:17Z</time>
      </trkpt>
      <trkpt lat="42.839131" lon="-6.017852">
        <ele>1207.82</ele>
        <time>2021-03-27T16:15:20Z</time>
      </trkpt>
      <trkpt lat="42.838485" lon="-6.018105">
        <ele>1204.48</ele>
        <time>2021-03-27T16:15:22Z</time>
      </trkpt>
      <trkpt lat="42.838202" lon="-6.018051">
        <ele>1208.57</ele>
        <time>2021-03-27T16:15:25Z</time>
      </trkpt>
      <trkpt lat="42.837926" lon="-6.018102">
        <ele>1207.48</ele>
        <time>2021-03-27T16:15:28Z</time>
      </trkpt>
      <trkpt lat="42.837601" lon="-6.018194">
        <ele>1203.19</ele>
        <time>2021-03-27T16:15:31Z</time>
      </trkpt>
      <trkpt lat="42.837301" lon="-6.018148">
        <ele>1200.03</ele>
        <time>2021-03-27T16:15:34Z</time>
      </trkpt>
      <trkpt lat="42.836491" lon="-6.017589">
        <ele>1198.97</ele>
        <time>2021-03-27T16:15:37Z</time>
      </trkpt>
      <trkpt lat="42.836135" lon="-6.017177">
        <ele>1199.4</ele>
        <time>2021-03-27T16:15:40Z</time>
      </trkpt>
      <trkpt lat="42.835288" lon="-6.016664">
        <ele>1199.22</ele>
        <time>2021-03-27T16:15:42Z</time>
      </trkpt>
      <trkpt lat="42.834509" lon="-6.016372">
        <ele>1194.18</ele>
        <time>2021-03-27T16:15:45Z</time>
      </trkpt>
      <trkpt lat="42.833657" lon="-6.015985">
        <ele>1190.18</ele>
        <time>2021-03-27T16:15:48Z</time>
      </trkpt>
      <trkpt lat="42.833474" lon="-6.015802">
        <ele>1189.56</ele>
        <time>2021-03-27T16:15:51Z</time>
      </trkpt>
      <trkpt lat="42.832192" lon="-6.013822">
        <ele>1183.93</ele>
        <time>2021-03-27T16:15:54Z</time>
      </trkpt>
      <trkpt lat="42.832029" lon="-6.013435">
        <ele>1181.24</ele>
        <time>2021-03-27T16:15:57Z</time>
      </trkpt>
      <trkpt lat="42.831994" lon="-6.013231">
        <ele>1180.11</ele>
        <time>2021-03-27T16:15:59Z</time>
      </trkpt>
      <trkpt lat="42.832025" lon="-6.013042">
        <ele>1180.38</ele>
        <time>2021-03-27T16:16:02Z</time>
      </trkpt>
      <trkpt lat="42.832212" lon="-6.012888">
        <ele>1182.05</ele>
        <time>2021-03-27T16:16:05Z</time>
      </trkpt>
      <trkpt lat="42.832458" lon="-6.012737">
        <ele>1186.67</ele>
        <time>2021-03-27T16:16:08Z</time>
      </trkpt>
      <trkpt lat="42.83262" lon="-6.012612">
        <ele>1190.45</ele>
        <time>2021-03-27T16:16:11Z</time>
      </trkpt>
      <trkpt lat="42.832661" lon="-6.012493">
        <ele>1190.63</ele>
        <time>2021-03-27T16:16:14Z</time>
      </trkpt>
      <trkpt lat="42.832642" lon="-6.012398">
        <ele>1190.07</ele>
        <time>2021-03-27T16:16:16Z</time>
      </trkpt>
      <trkpt lat="42.832602" lon="-6.012338">
        <ele>1189.25</ele>
        <time>2021-03-27T16:16:19Z</time>
      </trkpt>
      <trkpt lat="42.832195" lon="-6.012391">
        <ele>1181.8</ele>
        <time>2021-03-27T16:16:22Z</time>
      </trkpt>
      <trkpt lat="42.831768" lon="-6.012336">
        <ele>1180.8</ele>
        <time>2021-03-27T16:16:25Z</time>
      </trkpt>
      <trkpt lat="42.831408" lon="-6.01233">
        <ele>1175.42</ele>
        <time>2021-03-27T16:16:28Z</time>
      </trkpt>
      <trkpt lat="42.831161" lon="-6.012219">
        <ele>1176.28</ele>
        <time>2021-03-27T16:16:31Z</time>
      </trkpt>
      <trkpt lat="42.830901" lon="-6.012036">
        <ele>1179.59</ele>
        <time>2021-03-27T16:16:33Z</time>
      </trkpt>
      <trkpt lat="42.830421" lon="-6.01189">
        <ele>1175.32</ele>
        <time>2021-03-27T16:16:36Z</time>
      </trkpt>
      <trkpt lat="42.830092" lon="-6.011652">
        <ele>1174.34</ele>
        <time>2021-03-27T16:16:39Z</time>
      </trkpt>
      <trkpt lat="42.828871" lon="-6.010509">
        <ele>1173.75</ele>
        <time>2021-03-27T16:16:42Z</time>
      </trkpt>
      <trkpt lat="42.82809" lon="-6.009729">
        <ele>1171.72</ele>
        <time>2021-03-27T16:16:45Z</time>
      </trkpt>
      <trkpt lat="42.827886" lon="-6.009579">
        <ele>1169.62</ele>
        <time>2021-03-27T16:16:48Z</time>
      </trkpt>
      <trkpt lat="42.827672" lon="-6.009338">
        <ele>1170.96</ele>
        <time>2021-03-27T16:16:51Z</time>
      </trkpt>
      <trkpt lat="42.827238" lon="-6.008585">
        <ele>1169.2</ele>
        <time>2021-03-27T16:16:53Z</time>
      </trkpt>
      <trkpt lat="42.826553" lon="-6.007993">
        <ele>1164.03</ele>
        <time>2021-03-27T16:16:56Z</time>
      </trkpt>
      <trkpt lat="42.826166" lon="-6.007812">
        <ele>1162.89</ele>
        <time>2021-03-27T16:16:59Z</time>
      </trkpt>
      <trkpt lat="42.825966" lon="-6.007834">
        <ele>1160.23</ele>
        <time>2021-03-27T16:17:02Z</time>
      </trkpt>
      <trkpt lat="42.825683" lon="-6.007946">
        <ele>1157.09</ele>
        <time>2021-03-27T16:17:05Z</time>
      </trkpt>
      <trkpt lat="42.825381" lon="-6.007941">
        <ele>1158.49</ele>
        <time>2021-03-27T16:17:08Z</time>
      </trkpt>
      <trkpt lat="42.825266" lon="-6.008064">
        <ele>1158.23</ele>
        <time>2021-03-27T16:17:10Z</time>
      </trkpt>
      <trkpt lat="42.825153" lon="-6.008327">
        <ele>1157.87</ele>
        <time>2021-03-27T16:17:13Z</time>
      </trkpt>
      <trkpt lat="42.825029" lon="-6.008425">
        <ele>1158.36</ele>
        <time>2021-03-27T16:17:16Z</time>
      </trkpt>
      <trkpt lat="42.824692" lon="-6.00852">
        <ele>1158.55</ele>
        <time>2021-03-27T16:17:19Z</time>
      </trkpt>
      <trkpt lat="42.823982" lon="-6.008316">
        <ele>1157.71</ele>
        <time>2021-03-27T16:17:22Z</time>
      </trkpt>
      <trkpt lat="42.823278" lon="-6.008373">
        <ele>1154.08</ele>
        <time>2021-03-27T16:17:25Z</time>
      </trkpt>
      <trkpt lat="42.822515" lon="-6.008222">
        <ele>1152.66</ele>
        <time>2021-03-27T16:17:27Z</time>
      </trkpt>
      <trkpt lat="42.822386" lon="-6.008247">
        <ele>1153.32</ele>
        <time>2021-03-27T16:17:30Z</time>
      </trkpt>
      <trkpt lat="42.822193" lon="-6.008447">
        <ele>1150.35</ele>
        <time>2021-03-27T16:17:33Z</time>
      </trkpt>
      <trkpt lat="42.821868" lon="-6.00861">
        <ele>1148.3</ele>
        <time>2021-03-27T16:17:36Z</time>
      </trkpt>
      <trkpt lat="42.820452" lon="-6.009029">
        <ele>1145.29</ele>
        <time>2021-03-27T16:17:39Z</time>
      </trkpt>
      <trkpt lat="42.819843" lon="-6.008891">
        <ele>1140.98</ele>
        <time>2021-03-27T16:17:42Z</time>
      </trkpt>
      <trkpt lat="42.81965" lon="-6.00891">
        <ele>1141.27</ele>
        <time>2021-03-27T16:17:44Z</time>
      </trkpt>
      <trkpt lat="42.819455" lon="-6.008944">
        <ele>1142.14</ele>
        <time>2021-03-27T16:17:47Z</time>
      </trkpt>
      <trkpt lat="42.819225" lon="-6.009096">
        <ele>1141.8</ele>
        <time>2021-03-27T16:17:50Z</time>
      </trkpt>
      <trkpt lat="42.818757" lon="-6.009338">
        <ele>1138.68</ele>
        <time>2021-03-27T16:17:53Z</time>
      </trkpt>
      <trkpt lat="42.818499" lon="-6.009376">
        <ele>1137.84</ele>
        <time>2021-03-27T16:17:56Z</time>
      </trkpt>
      <trkpt lat="42.818041" lon="-6.009324">
        <ele>1137.68</ele>
        <time>2021-03-27T16:17:59Z</time>
      </trkpt>
      <trkpt lat="42.817698" lon="-6.009367">
        <ele>1136.03</ele>
        <time>2021-03-27T16:18:02Z</time>
      </trkpt>
      <trkpt lat="42.817451" lon="-6.009336">
        <ele>1135.93</ele>
        <time>2021-03-27T16:18:04Z</time>
      </trkpt>
      <trkpt lat="42.817357" lon="-6.009009">
        <ele>1138.09</ele>
        <time>2021-03-27T16:18:07Z</time>
      </trkpt>
      <trkpt lat="42.817132" lon="-6.008712">
        <ele>1138.81</ele>
        <time>2021-03-27T16:18:10Z</time>
      </trkpt>
      <trkpt lat="42.817078" lon="-6.008599">
        <ele>1139.61</ele>
        <time>2021-03-27T16:18:13Z</time>
      </trkpt>
      <trkpt lat="42.81707" lon="-6.00845">
        <ele>1141.68</ele>
        <time>2021-03-27T16:18:16Z</time>
      </trkpt>
      <trkpt lat="42.817115" lon="-6.007353">
        <ele>1149.85</ele>
        <time>2021-03-27T16:18:19Z</time>
      </trkpt>
      <trkpt lat="42.817078" lon="-6.007104">
        <ele>1149.87</ele>
        <time>2021-03-27T16:18:21Z</time>
      </trkpt>
      <trkpt lat="42.816951" lon="-6.006961">
        <ele>1147.03</ele>
        <time>2021-03-27T16:18:24Z</time>
      </trkpt>
      <trkpt lat="42.816807" lon="-6.006939">
        <ele>1149.04</ele>
        <time>2021-03-27T16:18:27Z</time>
      </trkpt>
      <trkpt lat="42.816679" lon="-6.007">
        <ele>1150.04</ele>
        <time>2021-03-27T16:18:30Z</time>
      </trkpt>
      <trkpt lat="42.816572" lon="-6.007226">
        <ele>1151.68</ele>
        <time>2021-03-27T16:18:33Z</time>
      </trkpt>
      <trkpt lat="42.816519" lon="-6.00758">
        <ele>1149.8</ele>
        <time>2021-03-27T16:18:36Z</time>
      </trkpt>
      <trkpt lat="42.816244" lon="-6.008206">
        <ele>1153.84</ele>
        <time>2021-03-27T16:18:38Z</time>
      </trkpt>
      <trkpt lat="42.816115" lon="-6.00838">
        <ele>1155.49</ele>
        <time>2021-03-27T16:18:41Z</time>
      </trkpt>
      <trkpt lat="42.815414" lon="-6.008967">
        <ele>1161.5</ele>
        <time>2021-03-27T16:18:44Z</time>
      </trkpt>
      <trkpt lat="42.815215" lon="-6.00924">
        <ele>1159.41</ele>
        <time>2021-03-27T16:18:47Z</time>
      </trkpt>
      <trkpt lat="42.815038" lon="-6.00943">
        <ele>1162.37</ele>
        <time>2021-03-27T16:18:50Z</time>
      </trkpt>
      <trkpt lat="42.814691" lon="-6.009867">
        <ele>1163.01</ele>
        <time>2021-03-27T16:18:53Z</time>
      </trkpt>
      <trkpt lat="42.81457" lon="-6.009992">
        <ele>1164.22</ele>
        <time>2021-03-27T16:18:55Z</time>
      </trkpt>
      <trkpt lat="42.814369" lon="-6.010118">
        <ele>1168.15</ele>
        <time>2021-03-27T16:18:58Z</time>
      </trkpt>
      <trkpt lat="42.814129" lon="-6.010183">
        <ele>1175.02</ele>
        <time>2021-03-27T16:19:01Z</time>
      </trkpt>
      <trkpt lat="42.81406" lon="-6.010392">
        <ele>1173.48</ele>
        <time>2021-03-27T16:19:04Z</time>
      </trkpt>
      <trkpt lat="42.813961" lon="-6.010934">
        <ele>1172.31</ele>
        <time>2021-03-27T16:19:07Z</time>
      </trkpt>
      <trkpt lat="42.813861" lon="-6.011206">
        <ele>1173.52</ele>
        <time>2021-03-27T16:19:10Z</time>
      </trkpt>
      <trkpt lat="42.813664" lon="-6.011474">
        <ele>1173.63</ele>
        <time>2021-03-27T16:19:13Z</time>
      </trkpt>
      <trkpt lat="42.813518" lon="-6.011551">
        <ele>1174.38</ele>
        <time>2021-03-27T16:19:15Z</time>
      </trkpt>
      <trkpt lat="42.813037" lon="-6.01154">
        <ele>1181.23</ele>
        <time>2021-03-27T16:19:18Z</time>
      </trkpt>
      <trkpt lat="42.812599" lon="-6.011476">
        <ele>1187.74</ele>
        <time>2021-03-27T16:19:21Z</time>
      </trkpt>
      <trkpt lat="42.812455" lon="-6.01165">
        <ele>1184.19</ele>
        <time>2021-03-27T16:19:24Z</time>
      </trkpt>
      <trkpt lat="42.812238" lon="-6.011725">
        <ele>1185.52</ele>
        <time>2021-03-27T16:19:27Z</time>
      </trkpt>
      <trkpt lat="42.812097" lon="-6.011806">
        <ele>1187.36</ele>
        <time>2021-03-27T16:19:30Z</time>
      </trkpt>
      <trkpt lat="42.811847" lon="-6.011846">
        <ele>1192.98</ele>
        <time>2021-03-27T16:19:32Z</time>
      </trkpt>
      <trkpt lat="42.811744" lon="-6.011933">
        <ele>1194.2</ele>
        <time>2021-03-27T16:19:35Z</time>
      </trkpt>
      <trkpt lat="42.81175" lon="-6.012322">
        <ele>1187.12</ele>
        <time>2021-03-27T16:19:38Z</time>
      </trkpt>
      <trkpt lat="42.811431" lon="-6.012705">
        <ele>1190.96</ele>
        <time>2021-03-27T16:19:41Z</time>
      </trkpt>
      <trkpt lat="42.811323" lon="-6.012946">
        <ele>1189.1</ele>
        <time>2021-03-27T16:19:44Z</time>
      </trkpt>
      <trkpt lat="42.81094" lon="-6.013001">
        <ele>1194.22</ele>
        <time>2021-03-27T16:19:47Z</time>
      </trkpt>
      <trkpt lat="42.810757" lon="-6.012876">
        <ele>1197.47</ele>
        <time>2021-03-27T16:19:49Z</time>
      </trkpt>
      <trkpt lat="42.810361" lon="-6.012363">
        <ele>1200.34</ele>
        <time>2021-03-27T16:19:52Z</time>
      </trkpt>
      <trkpt lat="42.810196" lon="-6.011591">
        <ele>1202.71</ele>
        <time>2021-03-27T16:19:55Z</time>
      </trkpt>
      <trkpt lat="42.810015" lon="-6.011086">
        <ele>1207.68</ele>
        <time>2021-03-27T16:19:58Z</time>
      </trkpt>
      <trkpt lat="42.810006" lon="-6.009973">
        <ele>1217.26</ele>
        <time>2021-03-27T16:20:01Z</time>
      </trkpt>
      <trkpt lat="42.809946" lon="-6.009798">
        <ele>1218.79</ele>
        <time>2021-03-27T16:20:04Z</time>
      </trkpt>
      <trkpt lat="42.80984" lon="-6.009739">
        <ele>1220.0</ele>
        <time>2021-03-27T16:20:06Z</time>
      </trkpt>
      <trkpt lat="42.809711" lon="-6.009725">
        <ele>1221.12</ele>
        <time>2021-03-27T16:20:09Z</time>
      </trkpt>
      <trkpt lat="42.809582" lon="-6.009838">
        <ele>1221.55</ele>
        <time>2021-03-27T16:20:12Z</time>
      </trkpt>
      <trkpt lat="42.809362" lon="-6.010392">
        <ele>1218.53</ele>
        <time>2021-03-27T16:20:15Z</time>
      </trkpt>
      <trkpt lat="42.809077" lon="-6.010598">
        <ele>1221.2</ele>
        <time>2021-03-27T16:20:18Z</time>
      </trkpt>
      <trkpt lat="42.809068" lon="-6.01081">
        <ele>1219.36</ele>
        <time>2021-03-27T16:20:21Z</time>
      </trkpt>
      <trkpt lat="42.809176" lon="-6.011458">
        <ele>1217.4</ele>
        <time>2021-03-27T16:20:24Z</time>
      </trkpt>
      <trkpt lat="42.8091" lon="-6.01173">
        <ele>1219.78</ele>
        <time>2021-03-27T16:20:26Z</time>
      </trkpt>
      <trkpt lat="42.808987" lon="-6.011897">
        <ele>1218.99</ele>
        <time>2021-03-27T16:20:29Z</time>
      </trkpt>
      <trkpt lat="42.808804" lon="-6.011957">
        <ele>1218.91</ele>
        <time>2021-03-27T16:20:32Z</time>
      </trkpt>
      <trkpt lat="42.80855" lon="-6.01191">
        <ele>1218.83</ele>
        <time>2021-03-27T16:20:35Z</time>
      </trkpt>
      <trkpt lat="42.807883" lon="-6.011513">
        <ele>1220.53</ele>
        <time>2021-03-27T16:20:38Z</time>
      </trkpt>
      <trkpt lat="42.807522" lon="-6.011138">
        <ele>1221.78</ele>
        <time>2021-03-27T16:20:41Z</time>
      </trkpt>
      <trkpt lat="42.807028" lon="-6.010216">
        <ele>1223.41</ele>
        <time>2021-03-27T16:20:43Z</time>
      </trkpt>
      <trkpt lat="42.806552" lon="-6.009047">
        <ele>1222.17</ele>
        <time>2021-03-27T16:20:46Z</time>
      </trkpt>
      <trkpt lat="42.806398" lon="-6.00885">
        <ele>1221.2</ele>
        <time>2021-03-27T16:20:49Z</time>
      </trkpt>
      <trkpt lat="42.806253" lon="-6.008776">
        <ele>1221.41</ele>
        <time>2021-03-27T16:20:52Z</time>
      </trkpt>
      <trkpt lat="42.806104" lon="-6.008801">
        <ele>1221.36</ele>
        <time>2021-03-27T16:20:55Z</time>
      </trkpt>
      <trkpt lat="42.805681" lon="-6.00897">
        <ele>1223.97</ele>
        <time>2021-03-27T16:20:58Z</time>
      </trkpt>
      <trkpt lat="42.80527" lon="-6.00962">
        <ele>1223.27</ele>
        <time>2021-03-27T16:21:00Z</time>
      </trkpt>
      <trkpt lat="42.80493" lon="-6.010041">
        <ele>1220.9</ele>
        <time>2021-03-27T16:21:03Z</time>
      </trkpt>
      <trkpt lat="42.80475" lon="-6.010156">
        <ele>1220.66</ele>
        <time>2021-03-27T16:21:06Z</time>
      </trkpt>
      <trkpt lat="42.804028" lon="-6.010414">
        <ele>1221.75</ele>
        <time>2021-03-27T16:21:09Z</time>
      </trkpt>
      <trkpt lat="42.802971" lon="-6.010367">
        <ele>1223.47</ele>
        <time>2021-03-27T16:21:12Z</time>
      </trkpt>
      <trkpt lat="42.80274" lon="-6.010268">
        <ele>1222.72</ele>
        <time>2021-03-27T16:21:15Z</time>
      </trkpt>
      <trkpt lat="42.802396" lon="-6.009896">
        <ele>1220.49</ele>
        <time>2021-03-27T16:21:17Z</time>
      </trkpt>
      <trkpt lat="42.802151" lon="-6.009365">
        <ele>1217.23</ele>
        <time>2021-03-27T16:21:20Z</time>
      </trkpt>
      <trkpt lat="42.801742" lon="-6.007828">
        <ele>1214.67</ele>
        <time>2021-03-27T16:21:23Z</time>
      </trkpt>
      <trkpt lat="42.801544" lon="-6.007454">
        <ele>1211.94</ele>
        <time>2021-03-27T16:21:26Z</time>
      </trkpt>
      <trkpt lat="42.801084" lon="-6.006791">
        <ele>1210.36</ele>
        <time>2021-03-27T16:21:29Z</time>
      </trkpt>
      <trkpt lat="42.799962" lon="-6.006143">
        <ele>1209.6</ele>
        <time>2021-03-27T16:21:32Z</time>
      </trkpt>
      <trkpt lat="42.799751" lon="-6.005905">
        <ele>1209.61</ele>
        <time>2021-03-27T16:21:35Z</time>
      </trkpt>
      <trkpt lat="42.799187" lon="-6.00489">
        <ele>1201.73</ele>
        <time>2021-03-27T16:21:37Z</time>
      </trkpt>
      <trkpt lat="42.798131" lon="-6.003402">
        <ele>1195.0</ele>
        <time>2021-03-27T16:21:40Z</time>
      </trkpt>
      <trkpt lat="42.797551" lon="-6.002865">
        <ele>1192.54</ele>
        <time>2021-03-27T16:21:43Z</time>
      </trkpt>
      <trkpt lat="42.796591" lon="-6.002514">
        <ele>1192.31</ele>
        <time>2021-03-27T16:21:46Z</time>
      </trkpt>
      <trkpt lat="42.796335" lon="-6.00231">
        <ele>1192.06</ele>
        <time>2021-03-27T16:21:49Z</time>
      </trkpt>
      <trkpt lat="42.795817" lon="-6.001612">
        <ele>1192.0</ele>
        <time>2021-03-27T16:21:52Z</time>
      </trkpt>
      <trkpt lat="42.794413" lon="-6.000167">
        <ele>1185.29</ele>
        <time>2021-03-27T16:21:54Z</time>
      </trkpt>
      <trkpt lat="42.794213" lon="-6.000039">
        <ele>1185.03</ele>
        <time>2021-03-27T16:21:57Z</time>
      </trkpt>
      <trkpt lat="42.7939" lon="-5.999899">
        <ele>1184.4</ele>
        <time>2021-03-27T16:22:00Z</time>
      </trkpt>
      <trkpt lat="42.79326" lon="-5.9994">
        <ele>1182.84</ele>
        <time>2021-03-27T16:22:03Z</time>
      </trkpt>
      <trkpt lat="42.792665" lon="-5.998826">
        <ele>1182.49</ele>
        <time>2021-03-27T16:22:06Z</time>
      </trkpt>
      <trkpt lat="42.792066" lon="-5.997407">
        <ele>1186.2</ele>
        <time>2021-03-27T16:22:09Z</time>
      </trkpt>
      <trkpt lat="42.791753" lon="-5.997072">
        <ele>1187.15</ele>
        <time>2021-03-27T16:22:11Z</time>
      </trkpt>
      <trkpt lat="42.791322" lon="-5.996703">
        <ele>1186.34</ele>
        <time>2021-03-27T16:22:14Z</time>
      </trkpt>
      <trkpt lat="42.790617" lon="-5.995536">
        <ele>1186.51</ele>
        <time>2021-03-27T16:22:17Z</time>
      </trkpt>
      <trkpt lat="42.790269" lon="-5.994845">
        <ele>1186.57</ele>
        <time>2021-03-27T16:22:20Z</time>
      </trkpt>
      <trkpt lat="42.78977" lon="-5.9933">
        <ele>1188.67</ele>
        <time>2021-03-27T16:22:23Z</time>
      </trkpt>
      <trkpt lat="42.789473" lon="-5.992322">
        <ele>1185.08</ele>
        <time>2021-03-27T16:22:26Z</time>
      </trkpt>
      <trkpt lat="42.788961" lon="-5.990883">
        <ele>1180.15</ele>
        <time>2021-03-27T16:22:28Z</time>
      </trkpt>
      <trkpt lat="42.788835" lon="-5.990159">
        <ele>1175.76</ele>
        <time>2021-03-27T16:22:31Z</time>
      </trkpt>
      <trkpt lat="42.788681" lon="-5.98992">
        <ele>1175.39</ele>
        <time>2021-03-27T16:22:34Z</time>
      </trkpt>
      <trkpt lat="42.788458" lon="-5.98964">
        <ele>1172.92</ele>
        <time>2021-03-27T16:22:37Z</time>
      </trkpt>
      <trkpt lat="42.78836" lon="-5.98944">
        <ele>1171.19</ele>
        <time>2021-03-27T16:22:40Z</time>
      </trkpt>
      <trkpt lat="42.78827" lon="-5.98918">
        <ele>1170.52</ele>
        <time>2021-03-27T16:22:43Z</time>
      </trkpt>
      <trkpt lat="42.787674" lon="-5.987213">
        <ele>1166.86</ele>
        <time>2021-03-27T16:22:46Z</time>
      </trkpt>
      <trkpt lat="42.787232" lon="-5.98569">
        <ele>1173.84</ele>
        <time>2021-03-27T16:22:48Z</time>
      </trkpt>
      <trkpt lat="42.787019" lon="-5.98517">
        <ele>1173.52</ele>
        <time>2021-03-27T16:22:51Z</time>
      </trkpt>
      <trkpt lat="42.786519" lon="-5.984235">
        <ele>1170.07</ele>
        <time>2021-03-27T16:22:54Z</time>
      </trkpt>
      <trkpt lat="42.785533" lon="-5.981578">
        <ele>1160.59</ele>
        <time>2021-03-27T16:22:57Z</time>
      </trkpt>
      <trkpt lat="42.785448" lon="-5.981257">
        <ele>1160.31</ele>
        <time>2021-03-27T16:23:00Z</time>
      </trkpt>
      <trkpt lat="42.78539" lon="-5.980759">
        <ele>1160.32</ele>
        <time>2021-03-27T16:23:03Z</time>
      </trkpt>
      <trkpt lat="42.785345" lon="-5.980557">
        <ele>1159.97</ele>
        <time>2021-03-27T16:23:05Z</time>
      </trkpt>
      <trkpt lat="42.785227" lon="-5.980479">
        <ele>1158.63</ele>
        <time>2021-03-27T16:23:08Z</time>
      </trkpt>
      <trkpt lat="42.785163" lon="-5.980482">
        <ele>1158.17</ele>
        <time>2021-03-27T16:23:11Z</time>
      </trkpt>
      <trkpt lat="42.785043" lon="-5.980559">
        <ele>1157.31</ele>
        <time>2021-03-27T16:23:14Z</time>
      </trkpt>
      <trkpt lat="42.784636" lon="-5.979145">
        <ele>1159.89</ele>
        <time>2021-03-27T16:23:17Z</time>
      </trkpt>
      <trkpt lat="42.783484" lon="-5.975754">
        <ele>1153.11</ele>
        <time>2021-03-27T16:23:20Z</time>
      </trkpt>
      <trkpt lat="42.783314" lon="-5.974933">
        <ele>1153.46</ele>
        <time>2021-03-27T16:23:23Z</time>
      </trkpt>
      <trkpt lat="42.783212" lon="-5.974362">
        <ele>1150.14</ele>
        <time>2021-03-27T16:23:26Z</time>
      </trkpt>
      <trkpt lat="42.783057" lon="-5.973293">
        <ele>1143.85</ele>
        <time>2021-03-27T16:23:29Z</time>
      </trkpt>
      <trkpt lat="42.783052" lon="-5.969997">
        <ele>1144.09</ele>
        <time>2021-03-27T16:23:32Z</time>
      </trkpt>
      <trkpt lat="42.783155" lon="-5.96959">
        <ele>1142.81</ele>
        <time>2021-03-27T16:23:35Z</time>
      </trkpt>
      <trkpt lat="42.783286" lon="-5.969229">
        <ele>1139.36</ele>
        <time>2021-03-27T16:23:38Z</time>
      </trkpt>
      <trkpt lat="42.783643" lon="-5.968501">
        <ele>1134.05</ele>
        <time>2021-03-27T16:23:41Z</time>
      </trkpt>
      <trkpt lat="42.783699" lon="-5.968246">
        <ele>1134.05</ele>
        <time>2021-03-27T16:23:44Z</time>
      </trkpt>
      <trkpt lat="42.783688" lon="-5.967935">
        <ele>1134.05</ele>
        <time>2021-03-27T16:23:47Z</time>
      </trkpt>
      <trkpt lat="42.783598" lon="-5.967594">
        <ele>1133.19</ele>
        <time>2021-03-27T16:23:50Z</time>
      </trkpt>
      <trkpt lat="42.782608" lon="-5.964885">
        <ele>1123.42</ele>
        <time>2021-03-27T16:23:53Z</time>
      </trkpt>
      <trkpt lat="42.782592" lon="-5.964475">
        <ele>1119.64</ele>
        <time>2021-03-27T16:23:56Z</time>
      </trkpt>
      <trkpt lat="42.782745" lon="-5.963553">
        <ele>1113.09</ele>
        <time>2021-03-27T16:23:59Z</time>
      </trkpt>
      <trkpt lat="42.782773" lon="-5.963262">
        <ele>1112.84</ele>
        <time>2021-03-27T16:24:02Z</time>
      </trkpt>
      <trkpt lat="42.782754" lon="-5.962943">
        <ele>1111.08</ele>
        <time>2021-03-27T16:24:05Z</time>
      </trkpt>
      <trkpt lat="42.782662" lon="-5.962689">
        <ele>1109.53</ele>
        <time>2021-03-27T16:24:08Z</time>
      </trkpt>
      <trkpt lat="42.782542" lon="-5.962462">
        <ele>1108.7</ele>
        <time>2021-03-27T16:24:11Z</time>
      </trkpt>
      <trkpt lat="42.782328" lon="-5.962275">
        <ele>1108.5</ele>
        <time>2021-03-27T16:24:14Z</time>
      </trkpt>
      <trkpt lat="42.781838" lon="-5.962055">
        <ele>1109.96</ele>
        <time>2021-03-27T16:24:17Z</time>
      </trkpt>
      <trkpt lat="42.781577" lon="-5.961858">
        <ele>1110.69</ele>
        <time>2021-03-27T16:24:20Z</time>
      </trkpt>
      <trkpt lat="42.780869" lon="-5.96076">
        <ele>1101.99</ele>
        <time>2021-03-27T16:24:23Z</time>
      </trkpt>
      <trkpt lat="42.780779" lon="-5.960546">
        <ele>1101.88</ele>
        <time>2021-03-27T16:24:26Z</time>
      </trkpt>
      <trkpt lat="42.780721" lon="-5.960188">
        <ele>1099.71</ele>
        <time>2021-03-27T16:24:29Z</time>
      </trkpt>
      <trkpt lat="42.780561" lon="-5.958277">
        <ele>1087.57</ele>
        <time>2021-03-27T16:24:32Z</time>
      </trkpt>
      <trkpt lat="42.780493" lon="-5.958009">
        <ele>1087.47</ele>
        <time>2021-03-27T16:24:35Z</time>
      </trkpt>
      <trkpt lat="42.780352" lon="-5.957768">
        <ele>1085.43</ele>
        <time>2021-03-27T16:24:38Z</time>
      </trkpt>
      <trkpt lat="42.780163" lon="-5.957615">
        <ele>1083.37</ele>
        <time>2021-03-27T16:24:41Z</time>
      </trkpt>
      <trkpt lat="42.779786" lon="-5.957429">
        <ele>1081.9</ele>
        <time>2021-03-27T16:24:44Z</time>
      </trkpt>
      <trkpt lat="42.779559" lon="-5.957177">
        <ele>1078.89</ele>
        <time>2021-03-27T16:24:47Z</time>
      </trkpt>
      <trkpt lat="42.779125" lon="-5.956309">
        <ele>1074.57</ele>
        <time>2021-03-27T16:24:50Z</time>
      </trkpt>
      <trkpt lat="42.778681" lon="-5.955486">
        <ele>1068.55</ele>
        <time>2021-03-27T16:24:53Z</time>
      </trkpt>
      <trkpt lat="42.778495" lon="-5.95522">
        <ele>1065.45</ele>
        <time>2021-03-27T16:24:56Z</time>
      </trkpt>
      <trkpt lat="42.777946" lon="-5.954892">
        <ele>1068.66</ele>
        <time>2021-03-27T16:24:59Z</time>
      </trkpt>
      <trkpt lat="42.777528" lon="-5.954279">
        <ele>1059.89</ele>
        <time>2021-03-27T16:25:02Z</time>
      </trkpt>
      <trkpt lat="42.777192" lon="-5.953937">
        <ele>1053.33</ele>
        <time>2021-03-27T16:25:05Z</time>
      </trkpt>
      <trkpt lat="42.776742" lon="-5.953651">
        <ele>1050.65</ele>
        <time>2021-03-27T16:25:08Z</time>
      </trkpt>
      <trkpt lat="42.776216" lon="-5.953439">
        <ele>1049.14</ele>
        <time>2021-03-27T16:25:11Z</time>
      </trkpt>
      <trkpt lat="42.775823" lon="-5.95319">
        <ele>1049.54</ele>
        <time>2021-03-27T16:25:14Z</time>
      </trkpt>
      <trkpt lat="42.775193" lon="-5.952389">
        <ele>1044.64</ele>
        <time>2021-03-27T16:25:17Z</time>
      </trkpt>
      <trkpt lat="42.775065" lon="-5.952104">
        <ele>1042.35</ele>
        <time>2021-03-27T16:25:20Z</time>
      </trkpt>
      <trkpt lat="42.774999" lon="-5.951729">
        <ele>1040.23</ele>
        <time>2021-03-27T16:25:23Z</time>
      </trkpt>
      <trkpt lat="42.774937" lon="-5.949913">
        <ele>1034.77</ele>
        <time>2021-03-27T16:25:26Z</time>
      </trkpt>
      <trkpt lat="42.774924" lon="-5.949542">
        <ele>1034.73</ele>
        <time>2021-03-27T16:25:29Z</time>
      </trkpt>
      <trkpt lat="42.774866" lon="-5.949072">
        <ele>1034.2</ele>
        <time>2021-03-27T16:25:32Z</time>
      </trkpt>
      <trkpt lat="42.77478" lon="-5.948769">
        <ele>1035.41</ele>
        <time>2021-03-27T16:25:35Z</time>
      </trkpt>
      <trkpt lat="42.774696" lon="-5.948574">
        <ele>1037.26</ele>
        <time>2021-03-27T16:25:38Z</time>
      </trkpt>
      <trkpt lat="42.774572" lon="-5.948372">
        <ele>1038.72</ele>
        <time>2021-03-27T16:25:41Z</time>
      </trkpt>
      <trkpt lat="42.774374" lon="-5.948136">
        <ele>1039.46</ele>
        <time>2021-03-27T16:25:44Z</time>
      </trkpt>
      <trkpt lat="42.774195" lon="-5.94798">
        <ele>1039.64</ele>
        <time>2021-03-27T16:25:47Z</time>
      </trkpt>
      <trkpt lat="42.77406" lon="-5.94783">
        <ele>1040.17</ele>
        <time>2021-03-27T16:25:50Z</time>
      </trkpt>
      <trkpt lat="42.773274" lon="-5.946583">
        <ele>1041.96</ele>
        <time>2021-03-27T16:25:53Z</time>
      </trkpt>
      <trkpt lat="42.773199" lon="-5.946338">
        <ele>1042.73</ele>
        <time>2021-03-27T16:25:56Z</time>
      </trkpt>
      <trkpt lat="42.773148" lon="-5.945924">
        <ele>1042.66</ele>
        <time>2021-03-27T16:25:59Z</time>
      </trkpt>
      <trkpt lat="42.77314" lon="-5.945647">
        <ele>1042.31</ele>
        <time>2021-03-27T16:26:02Z</time>
      </trkpt>
      <trkpt lat="42.773155" lon="-5.945413">
        <ele>1042.43</ele>
        <time>2021-03-27T16:26:05Z</time>
      </trkpt>
      <trkpt lat="42.773283" lon="-5.944885">
        <ele>1045.68</ele>
        <time>2021-03-27T16:26:08Z</time>
      </trkpt>
      <trkpt lat="42.773733" lon="-5.943678">
        <ele>1044.24</ele>
        <time>2021-03-27T16:26:11Z</time>
      </trkpt>
      <trkpt lat="42.774009" lon="-5.943553">
        <ele>1044.86</ele>
        <time>2021-03-27T16:26:17Z</time>
      </trkpt>
      <trkpt lat="42.774365" lon="-5.943424">
        <ele>1046.95</ele>
        <time>2021-03-27T16:26:23Z</time>
      </trkpt>
      <trkpt lat="42.77475" lon="-5.9432">
        <ele>1047.0</ele>
        <time>2021-03-27T16:26:29Z</time>
      </trkpt>
      <trkpt lat="42.776041" lon="-5.942342">
        <ele>1047.65</ele>
        <time>2021-03-27T16:26:35Z</time>
      </trkpt>
      <trkpt lat="42.777759" lon="-5.941579">
        <ele>1049.68</ele>
        <time>2021-03-27T16:26:41Z</time>
      </trkpt>
      <trkpt lat="42.778263" lon="-5.940873">
        <ele>1049.78</ele>
        <time>2021-03-27T16:26:42Z</time>
      </trkpt>
      <trkpt lat="42.778537" lon="-5.940737">
        <ele>1049.66</ele>
        <time>2021-03-27T16:26:43Z</time>
      </trkpt>
      <trkpt lat="42.778819" lon="-5.940387">
        <ele>1048.39</ele>
        <time>2021-03-27T16:26:45Z</time>
      </trkpt>
      <trkpt lat="42.778993" lon="-5.940222">
        <ele>1048.05</ele>
        <time>2021-03-27T16:26:46Z</time>
      </trkpt>
      <trkpt lat="42.779028" lon="-5.940011">
        <ele>1047.06</ele>
        <time>2021-03-27T16:26:47Z</time>
      </trkpt>
      <trkpt lat="42.779025" lon="-5.939542">
        <ele>1045.99</ele>
        <time>2021-03-27T16:26:49Z</time>
      </trkpt>
      <trkpt lat="42.779152" lon="-5.939136">
        <ele>1048.27</ele>
        <time>2021-03-27T16:26:50Z</time>
      </trkpt>
      <trkpt lat="42.779146" lon="-5.939001">
        <ele>1049.71</ele>
        <time>2021-03-27T16:26:51Z</time>
      </trkpt>
      <trkpt lat="42.77874" lon="-5.938098">
        <ele>1054.56</ele>
        <time>2021-03-27T16:26:53Z</time>
      </trkpt>
      <trkpt lat="42.778453" lon="-5.937654">
        <ele>1054.94</ele>
        <time>2021-03-27T16:26:54Z</time>
      </trkpt>
      <trkpt lat="42.778406" lon="-5.93752">
        <ele>1055.62</ele>
        <time>2021-03-27T16:26:55Z</time>
      </trkpt>
      <trkpt lat="42.77835" lon="-5.93723">
        <ele>1057.18</ele>
        <time>2021-03-27T16:26:57Z</time>
      </trkpt>
      <trkpt lat="42.778328" lon="-5.936999">
        <ele>1056.92</ele>
        <time>2021-03-27T16:26:58Z</time>
      </trkpt>
      <trkpt lat="42.778208" lon="-5.936358">
        <ele>1054.63</ele>
        <time>2021-03-27T16:26:59Z</time>
      </trkpt>
      <trkpt lat="42.778215" lon="-5.936238">
        <ele>1054.26</ele>
        <time>2021-03-27T16:27:01Z</time>
      </trkpt>
      <trkpt lat="42.778248" lon="-5.936106">
        <ele>1054.02</ele>
        <time>2021-03-27T16:27:02Z</time>
      </trkpt>
      <trkpt lat="42.778306" lon="-5.93597">
        <ele>1052.77</ele>
        <time>2021-03-27T16:27:03Z</time>
      </trkpt>
      <trkpt lat="42.77833" lon="-5.935853">
        <ele>1051.28</ele>
        <time>2021-03-27T16:27:05Z</time>
      </trkpt>
      <trkpt lat="42.778326" lon="-5.935719">
        <ele>1050.16</ele>
        <time>2021-03-27T16:27:06Z</time>
      </trkpt>
      <trkpt lat="42.778288" lon="-5.935526">
        <ele>1049.0</ele>
        <time>2021-03-27T16:27:07Z</time>
      </trkpt>
      <trkpt lat="42.778188" lon="-5.935309">
        <ele>1049.0</ele>
        <time>2021-03-27T16:27:09Z</time>
      </trkpt>
      <trkpt lat="42.777961" lon="-5.935065">
        <ele>1052.64</ele>
        <time>2021-03-27T16:27:10Z</time>
      </trkpt>
      <trkpt lat="42.77784" lon="-5.935022">
        <ele>1053.65</ele>
        <time>2021-03-27T16:27:11Z</time>
      </trkpt>
      <trkpt lat="42.777711" lon="-5.935031">
        <ele>1054.37</ele>
        <time>2021-03-27T16:27:13Z</time>
      </trkpt>
      <trkpt lat="42.777607" lon="-5.935093">
        <ele>1054.89</ele>
        <time>2021-03-27T16:27:14Z</time>
      </trkpt>
      <trkpt lat="42.777538" lon="-5.935169">
        <ele>1055.11</ele>
        <time>2021-03-27T16:27:16Z</time>
      </trkpt>
      <trkpt lat="42.777367" lon="-5.935459">
        <ele>1055.33</ele>
        <time>2021-03-27T16:27:17Z</time>
      </trkpt>
      <trkpt lat="42.77726" lon="-5.935537">
        <ele>1055.12</ele>
        <time>2021-03-27T16:27:18Z</time>
      </trkpt>
      <trkpt lat="42.777197" lon="-5.935537">
        <ele>1055.14</ele>
        <time>2021-03-27T16:27:20Z</time>
      </trkpt>
      <trkpt lat="42.777266" lon="-5.935296">
        <ele>1056.57</ele>
        <time>2021-03-27T16:27:29Z</time>
      </trkpt>
      <trkpt lat="42.777347" lon="-5.934871">
        <ele>1057.27</ele>
        <time>2021-03-27T16:27:39Z</time>
      </trkpt>
      <trkpt lat="42.777492" lon="-5.933408">
        <ele>1062.35</ele>
        <time>2021-03-27T16:27:48Z</time>
      </trkpt>
      <trkpt lat="42.777703" lon="-5.930288">
        <ele>1068.06</ele>
        <time>2021-03-27T16:27:58Z</time>
      </trkpt>
      <trkpt lat="42.777815" lon="-5.928999">
        <ele>1062.93</ele>
        <time>2021-03-27T16:28:07Z</time>
      </trkpt>
      <trkpt lat="42.778012" lon="-5.926168">
        <ele>1051.41</ele>
        <time>2021-03-27T16:28:17Z</time>
      </trkpt>
      <trkpt lat="42.77799" lon="-5.925787">
        <ele>1050.36</ele>
        <time>2021-03-27T16:28:26Z</time>
      </trkpt>
      <trkpt lat="42.77794" lon="-5.925391">
        <ele>1048.93</ele>
        <time>2021-03-27T16:28:36Z</time>
      </trkpt>
      <trkpt lat="42.777489" lon="-5.923166">
        <ele>1039.31</ele>
        <time>2021-03-27T16:28:45Z</time>
      </trkpt>
      <trkpt lat="42.776304" lon="-5.917129">
        <ele>1045.72</ele>
        <time>2021-03-27T16:28:55Z</time>
      </trkpt>
      <trkpt lat="42.776251" lon="-5.916694">
        <ele>1043.1</ele>
        <time>2021-03-27T16:29:04Z</time>
      </trkpt>
      <trkpt lat="42.776252" lon="-5.916302">
        <ele>1043.68</ele>
        <time>2021-03-27T16:29:14Z</time>
      </trkpt>
      <trkpt lat="42.776271" lon="-5.915941">
        <ele>1044.56</ele>
        <time>2021-03-27T16:29:23Z</time>
      </trkpt>
      <trkpt lat="42.77676" lon="-5.913888">
        <ele>1048.67</ele>
        <time>2021-03-27T16:29:33Z</time>
      </trkpt>
      <trkpt lat="42.777657" lon="-5.910543">
        <ele>1057.08</ele>
        <time>2021-03-27T16:29:42Z</time>
      </trkpt>
      <trkpt lat="42.777778" lon="-5.910007">
        <ele>1058.97</ele>
        <time>2021-03-27T16:29:52Z</time>
      </trkpt>
      <trkpt lat="42.778186" lon="-5.907084">
        <ele>1049.47</ele>
        <time>2021-03-27T16:30:02Z</time>
      </trkpt>
      <trkpt lat="42.778299" lon="-5.906148">
        <ele>1046.89</ele>
        <time>2021-03-27T16:30:11Z</time>
      </trkpt>
      <trkpt lat="42.779477" lon="-5.897411">
        <ele>1051.32</ele>
        <time>2021-03-27T16:30:21Z</time>
      </trkpt>
      <trkpt lat="42.779981" lon="-5.893561">
        <ele>1063.96</ele>
        <time>2021-03-27T16:30:30Z</time>
      </trkpt>
      <trkpt lat="42.780028" lon="-5.892966">
        <ele>1065.22</ele>
        <time>2021-03-27T16:30:40Z</time>
      </trkpt>
      <trkpt lat="42.780107" lon="-5.889892">
        <ele>1056.0</ele>
        <time>2021-03-27T16:30:49Z</time>
      </trkpt>
      <trkpt lat="42.780139" lon="-5.88936">
        <ele>1055.69</ele>
        <time>2021-03-27T16:30:59Z</time>
      </trkpt>
      <trkpt lat="42.780183" lon="-5.887437">
        <ele>1059.03</ele>
        <time>2021-03-27T16:31:08Z</time>
      </trkpt>
      <trkpt lat="42.780138" lon="-5.887084">
        <ele>1060.74</ele>
        <time>2021-03-27T16:31:18Z</time>
      </trkpt>
      <trkpt lat="42.78005" lon="-5.886758">
        <ele>1062.52</ele>
        <time>2021-03-27T16:31:27Z</time>
      </trkpt>
      <trkpt lat="42.779668" lon="-5.885681">
        <ele>1066.79</ele>
        <time>2021-03-27T16:31:37Z</time>
      </trkpt>
      <trkpt lat="42.77964" lon="-5.885342">
        <ele>1068.49</ele>
        <time>2021-03-27T16:31:46Z</time>
      </trkpt>
      <trkpt lat="42.779653" lon="-5.884939">
        <ele>1068.61</ele>
        <time>2021-03-27T16:31:56Z</time>
      </trkpt>
      <trkpt lat="42.779712" lon="-5.884121">
        <ele>1067.99</ele>
        <time>2021-03-27T16:32:05Z</time>
      </trkpt>
      <trkpt lat="42.779905" lon="-5.881728">
        <ele>1065.39</ele>
        <time>2021-03-27T16:32:15Z</time>
      </trkpt>
      <trkpt lat="42.779936" lon="-5.881214">
        <ele>1065.89</ele>
        <time>2021-03-27T16:32:24Z</time>
      </trkpt>
      <trkpt lat="42.779927" lon="-5.881017">
        <ele>1066.9</ele>
        <time>2021-03-27T16:32:34Z</time>
      </trkpt>
      <trkpt lat="42.779919" lon="-5.880832">
        <ele>1067.71</ele>
        <time>2021-03-27T16:32:44Z</time>
      </trkpt>
      <trkpt lat="42.779791" lon="-5.879995">
        <ele>1066.21</ele>
        <time>2021-03-27T16:32:53Z</time>
      </trkpt>
      <trkpt lat="42.778477" lon="-5.874068">
        <ele>1067.08</ele>
        <time>2021-03-27T16:33:03Z</time>
      </trkpt>
      <trkpt lat="42.777026" lon="-5.867421">
        <ele>1081.6</ele>
        <time>2021-03-27T16:33:12Z</time>
      </trkpt>
      <trkpt lat="42.776874" lon="-5.866665">
        <ele>1086.0</ele>
        <time>2021-03-27T16:33:22Z</time>
      </trkpt>
      <trkpt lat="42.776849" lon="-5.866313">
        <ele>1085.57</ele>
        <time>2021-03-27T16:33:31Z</time>
      </trkpt>
      <trkpt lat="42.776855" lon="-5.86591">
        <ele>1085.32</ele>
        <time>2021-03-27T16:33:41Z</time>
      </trkpt>
      <trkpt lat="42.776931" lon="-5.865326">
        <ele>1084.92</ele>
        <time>2021-03-27T16:33:50Z</time>
      </trkpt>
      <trkpt lat="42.777435" lon="-5.863464">
        <ele>1078.23</ele>
        <time>2021-03-27T16:34:00Z</time>
      </trkpt>
      <trkpt lat="42.777643" lon="-5.862494">
        <ele>1075.02</ele>
        <time>2021-03-27T16:34:09Z</time>
      </trkpt>
      <trkpt lat="42.777794" lon="-5.861687">
        <ele>1071.21</ele>
        <time>2021-03-27T16:34:19Z</time>
      </trkpt>
      <trkpt lat="42.777882" lon="-5.861138">
        <ele>1068.29</ele>
        <time>2021-03-27T16:34:28Z</time>
      </trkpt>
      <trkpt lat="42.777964" lon="-5.860503">
        <ele>1067.67</ele>
        <time>2021-03-27T16:34:38Z</time>
      </trkpt>
      <trkpt lat="42.777989" lon="-5.859893">
        <ele>1067.15</ele>
        <time>2021-03-27T16:34:47Z</time>
      </trkpt>
      <trkpt lat="42.778012" lon="-5.858127">
        <ele>1061.05</ele>
        <time>2021-03-27T16:34:57Z</time>
      </trkpt>
      <trkpt lat="42.778078" lon="-5.855413">
        <ele>1053.61</ele>
        <time>2021-03-27T16:35:06Z</time>
      </trkpt>
      <trkpt lat="42.778172" lon="-5.8501">
        <ele>1039.21</ele>
        <time>2021-03-27T16:35:16Z</time>
      </trkpt>
      <trkpt lat="42.778065" lon="-5.849053">
        <ele>1037.01</ele>
        <time>2021-03-27T16:35:26Z</time>
      </trkpt>
      <trkpt lat="42.777832" lon="-5.847654">
        <ele>1031.48</ele>
        <time>2021-03-27T16:35:35Z</time>
      </trkpt>
      <trkpt lat="42.777775" lon="-5.847147">
        <ele>1030.98</ele>
        <time>2021-03-27T16:35:45Z</time>
      </trkpt>
      <trkpt lat="42.777705" lon="-5.845333">
        <ele>1031.01</ele>
        <time>2021-03-27T16:35:54Z</time>
      </trkpt>
      <trkpt lat="42.777618" lon="-5.842494">
        <ele>1022.41</ele>
        <time>2021-03-27T16:36:04Z</time>
      </trkpt>
      <trkpt lat="42.777649" lon="-5.84186">
        <ele>1022.54</ele>
        <time>2021-03-27T16:36:13Z</time>
      </trkpt>
      <trkpt lat="42.779564" lon="-5.825286">
        <ele>1004.83</ele>
        <time>2021-03-27T16:36:23Z</time>
      </trkpt>
      <trkpt lat="42.779728" lon="-5.823741">
        <ele>1003.53</ele>
        <time>2021-03-27T16:36:32Z</time>
      </trkpt>
      <trkpt lat="42.779791" lon="-5.822883">
        <ele>1001.91</ele>
        <time>2021-03-27T16:36:42Z</time>
      </trkpt>
      <trkpt lat="42.779923" lon="-5.82042">
        <ele>998.0</ele>
        <time>2021-03-27T16:36:51Z</time>
      </trkpt>
      <trkpt lat="42.779961" lon="-5.819158">
        <ele>996.99</ele>
        <time>2021-03-27T16:37:01Z</time>
      </trkpt>
      <trkpt lat="42.779944" lon="-5.818412">
        <ele>994.16</ele>
        <time>2021-03-27T16:37:10Z</time>
      </trkpt>
      <trkpt lat="42.779961" lon="-5.81739">
        <ele>991.84</ele>
        <time>2021-03-27T16:37:20Z</time>
      </trkpt>
      <trkpt lat="42.780018" lon="-5.816695">
        <ele>990.14</ele>
        <time>2021-03-27T16:37:29Z</time>
      </trkpt>
      <trkpt lat="42.780094" lon="-5.816017">
        <ele>989.66</ele>
        <time>2021-03-27T16:37:39Z</time>
      </trkpt>
      <trkpt lat="42.780453" lon="-5.81412">
        <ele>987.63</ele>
        <time>2021-03-27T16:37:48Z</time>
      </trkpt>
      <trkpt lat="42.780576" lon="-5.813088">
        <ele>985.18</ele>
        <time>2021-03-27T16:37:58Z</time>
      </trkpt>
      <trkpt lat="42.780749" lon="-5.811965">
        <ele>982.3</ele>
        <time>2021-03-27T16:38:08Z</time>
      </trkpt>
      <trkpt lat="42.780913" lon="-5.811236">
        <ele>983.16</ele>
        <time>2021-03-27T16:38:17Z</time>
      </trkpt>
      <trkpt lat="42.781215" lon="-5.810086">
        <ele>982.57</ele>
        <time>2021-03-27T16:38:27Z</time>
      </trkpt>
      <trkpt lat="42.781284" lon="-5.80994">
        <ele>982.49</ele>
        <time>2021-03-27T16:38:36Z</time>
      </trkpt>
      <trkpt lat="42.781461" lon="-5.80976">
        <ele>982.13</ele>
        <time>2021-03-27T16:38:46Z</time>
      </trkpt>
      <trkpt lat="42.781669" lon="-5.809588">
        <ele>981.52</ele>
        <time>2021-03-27T16:38:55Z</time>
      </trkpt>
      <trkpt lat="42.782203" lon="-5.80921">
        <ele>981.24</ele>
        <time>2021-03-27T16:39:05Z</time>
      </trkpt>
      <trkpt lat="42.782685" lon="-5.809105">
        <ele>978.74</ele>
        <time>2021-03-27T16:39:14Z</time>
      </trkpt>
      <trkpt lat="42.782859" lon="-5.809003">
        <ele>978.83</ele>
        <time>2021-03-27T16:39:24Z</time>
      </trkpt>
      <trkpt lat="42.78439" lon="-5.807082">
        <ele>978.2</ele>
        <time>2021-03-27T16:39:33Z</time>
      </trkpt>
      <trkpt lat="42.784535" lon="-5.806867">
        <ele>978.19</ele>
        <time>2021-03-27T16:39:43Z</time>
      </trkpt>
      <trkpt lat="42.784604" lon="-5.80667">
        <ele>978.42</ele>
        <time>2021-03-27T16:39:52Z</time>
      </trkpt>
      <trkpt lat="42.784628" lon="-5.806469">
        <ele>978.81</ele>
        <time>2021-03-27T16:40:02Z</time>
      </trkpt>
      <trkpt lat="42.784801" lon="-5.803833">
        <ele>978.11</ele>
        <time>2021-03-27T16:40:11Z</time>
      </trkpt>
      <trkpt lat="42.785201" lon="-5.803849">
        <ele>981.56</ele>
        <time>2021-03-27T16:40:14Z</time>
      </trkpt>
      <trkpt lat="42.785279" lon="-5.80387">
        <ele>982.21</ele>
        <time>2021-03-27T16:40:16Z</time>
      </trkpt>
      <trkpt lat="42.785933" lon="-5.804199">
        <ele>982.85</ele>
        <time>2021-03-27T16:40:19Z</time>
      </trkpt>
      <trkpt lat="42.787216" lon="-5.804543">
        <ele>989.58</ele>
        <time>2021-03-27T16:40:21Z</time>
      </trkpt>
      <trkpt lat="42.788871" lon="-5.805351">
        <ele>984.33</ele>
        <time>2021-03-27T16:40:24Z</time>
      </trkpt>
      <trkpt lat="42.789132" lon="-5.805433">
        <ele>985.68</ele>
        <time>2021-03-27T16:40:26Z</time>
      </trkpt>
      <trkpt lat="42.789551" lon="-5.805461">
        <ele>987.21</ele>
        <time>2021-03-27T16:40:29Z</time>
      </trkpt>
      <trkpt lat="42.78971" lon="-5.805499">
        <ele>987.17</ele>
        <time>2021-03-27T16:40:31Z</time>
      </trkpt>
      <trkpt lat="42.789857" lon="-5.805591">
        <ele>986.47</ele>
        <time>2021-03-27T16:40:34Z</time>
      </trkpt>
      <trkpt lat="42.791004" lon="-5.806744">
        <ele>989.8</ele>
        <time>2021-03-27T16:40:36Z</time>
      </trkpt>
      <trkpt lat="42.791123" lon="-5.806917">
        <ele>991.36</ele>
        <time>2021-03-27T16:40:38Z</time>
      </trkpt>
      <trkpt lat="42.791226" lon="-5.807113">
        <ele>991.06</ele>
        <time>2021-03-27T16:40:41Z</time>
      </trkpt>
      <trkpt lat="42.791356" lon="-5.807505">
        <ele>988.36</ele>
        <time>2021-03-27T16:40:43Z</time>
      </trkpt>
      <trkpt lat="42.791447" lon="-5.808007">
        <ele>986.04</ele>
        <time>2021-03-27T16:40:46Z</time>
      </trkpt>
      <trkpt lat="42.791659" lon="-5.809754">
        <ele>981.83</ele>
        <time>2021-03-27T16:40:48Z</time>
      </trkpt>
      <trkpt lat="42.791719" lon="-5.810055">
        <ele>981.37</ele>
        <time>2021-03-27T16:40:51Z</time>
      </trkpt>
      <trkpt lat="42.79248" lon="-5.811254">
        <ele>984.41</ele>
        <time>2021-03-27T16:40:53Z</time>
      </trkpt>
      <trkpt lat="42.792926" lon="-5.811856">
        <ele>982.48</ele>
        <time>2021-03-27T16:40:56Z</time>
      </trkpt>
      <trkpt lat="42.794207" lon="-5.812755">
        <ele>989.77</ele>
        <time>2021-03-27T16:40:58Z</time>
      </trkpt>
      <trkpt lat="42.794561" lon="-5.813101">
        <ele>990.54</ele>
        <time>2021-03-27T16:41:00Z</time>
      </trkpt>
      <trkpt lat="42.795077" lon="-5.813956">
        <ele>992.2</ele>
        <time>2021-03-27T16:41:03Z</time>
      </trkpt>
      <trkpt lat="42.795214" lon="-5.81435">
        <ele>991.96</ele>
        <time>2021-03-27T16:41:05Z</time>
      </trkpt>
      <trkpt lat="42.795348" lon="-5.81524">
        <ele>989.35</ele>
        <time>2021-03-27T16:41:08Z</time>
      </trkpt>
      <trkpt lat="42.795455" lon="-5.815636">
        <ele>989.01</ele>
        <time>2021-03-27T16:41:10Z</time>
      </trkpt>
      <trkpt lat="42.796128" lon="-5.817434">
        <ele>991.99</ele>
        <time>2021-03-27T16:41:13Z</time>
      </trkpt>
      <trkpt lat="42.796423" lon="-5.817991">
        <ele>991.63</ele>
        <time>2021-03-27T16:41:15Z</time>
      </trkpt>
      <trkpt lat="42.796786" lon="-5.818501">
        <ele>989.98</ele>
        <time>2021-03-27T16:41:18Z</time>
      </trkpt>
      <trkpt lat="42.79713" lon="-5.81884">
        <ele>991.1</ele>
        <time>2021-03-27T16:41:20Z</time>
      </trkpt>
      <trkpt lat="42.797508" lon="-5.819053">
        <ele>992.12</ele>
        <time>2021-03-27T16:41:23Z</time>
      </trkpt>
      <trkpt lat="42.798089" lon="-5.819163">
        <ele>994.58</ele>
        <time>2021-03-27T16:41:25Z</time>
      </trkpt>
      <trkpt lat="42.798573" lon="-5.819496">
        <ele>992.96</ele>
        <time>2021-03-27T16:41:27Z</time>
      </trkpt>
      <trkpt lat="42.798941" lon="-5.819876">
        <ele>991.55</ele>
        <time>2021-03-27T16:41:30Z</time>
      </trkpt>
      <trkpt lat="42.799333" lon="-5.820585">
        <ele>990.26</ele>
        <time>2021-03-27T16:41:32Z</time>
      </trkpt>
      <trkpt lat="42.800103" lon="-5.822561">
        <ele>996.37</ele>
        <time>2021-03-27T16:41:35Z</time>
      </trkpt>
      <trkpt lat="42.80053" lon="-5.823301">
        <ele>996.97</ele>
        <time>2021-03-27T16:41:37Z</time>
      </trkpt>
      <trkpt lat="42.800745" lon="-5.823527">
        <ele>999.43</ele>
        <time>2021-03-27T16:41:40Z</time>
      </trkpt>
      <trkpt lat="42.801448" lon="-5.824062">
        <ele>1000.41</ele>
        <time>2021-03-27T16:41:42Z</time>
      </trkpt>
      <trkpt lat="42.802039" lon="-5.824394">
        <ele>1008.46</ele>
        <time>2021-03-27T16:41:45Z</time>
      </trkpt>
      <trkpt lat="42.802259" lon="-5.824578">
        <ele>1009.92</ele>
        <time>2021-03-27T16:41:47Z</time>
      </trkpt>
      <trkpt lat="42.802534" lon="-5.824852">
        <ele>1008.84</ele>
        <time>2021-03-27T16:41:50Z</time>
      </trkpt>
      <trkpt lat="42.80268" lon="-5.824936">
        <ele>1006.91</ele>
        <time>2021-03-27T16:41:52Z</time>
      </trkpt>
      <trkpt lat="42.802858" lon="-5.824949">
        <ele>1006.37</ele>
        <time>2021-03-27T16:41:54Z</time>
      </trkpt>
      <trkpt lat="42.803229" lon="-5.824842">
        <ele>1009.49</ele>
        <time>2021-03-27T16:41:57Z</time>
      </trkpt>
      <trkpt lat="42.803489" lon="-5.824743">
        <ele>1012.11</ele>
        <time>2021-03-27T16:41:59Z</time>
      </trkpt>
      <trkpt lat="42.803659" lon="-5.8246">
        <ele>1014.42</ele>
        <time>2021-03-27T16:42:02Z</time>
      </trkpt>
      <trkpt lat="42.804168" lon="-5.823949">
        <ele>1015.8</ele>
        <time>2021-03-27T16:42:04Z</time>
      </trkpt>
      <trkpt lat="42.804627" lon="-5.823459">
        <ele>1022.68</ele>
        <time>2021-03-27T16:42:07Z</time>
      </trkpt>
      <trkpt lat="42.805105" lon="-5.823237">
        <ele>1017.38</ele>
        <time>2021-03-27T16:42:09Z</time>
      </trkpt>
      <trkpt lat="42.805401" lon="-5.822735">
        <ele>1022.28</ele>
        <time>2021-03-27T16:42:12Z</time>
      </trkpt>
      <trkpt lat="42.805478" lon="-5.822633">
        <ele>1022.45</ele>
        <time>2021-03-27T16:42:14Z</time>
      </trkpt>
      <trkpt lat="42.805602" lon="-5.822628">
        <ele>1020.93</ele>
        <time>2021-03-27T16:42:17Z</time>
      </trkpt>
      <trkpt lat="42.805718" lon="-5.822682">
        <ele>1019.99</ele>
        <time>2021-03-27T16:42:19Z</time>
      </trkpt>
      <trkpt lat="42.805858" lon="-5.822867">
        <ele>1017.28</ele>
        <time>2021-03-27T16:42:21Z</time>
      </trkpt>
      <trkpt lat="42.806124" lon="-5.823289">
        <ele>1016.79</ele>
        <time>2021-03-27T16:42:24Z</time>
      </trkpt>
      <trkpt lat="42.806611" lon="-5.823776">
        <ele>1010.77</ele>
        <time>2021-03-27T16:42:26Z</time>
      </trkpt>
      <trkpt lat="42.806767" lon="-5.823824">
        <ele>1009.17</ele>
        <time>2021-03-27T16:42:29Z</time>
      </trkpt>
      <trkpt lat="42.807268" lon="-5.823781">
        <ele>1010.76</ele>
        <time>2021-03-27T16:42:31Z</time>
      </trkpt>
      <trkpt lat="42.808447" lon="-5.823916">
        <ele>1010.15</ele>
        <time>2021-03-27T16:42:34Z</time>
      </trkpt>
      <trkpt lat="42.808999" lon="-5.824017">
        <ele>1004.87</ele>
        <time>2021-03-27T16:42:36Z</time>
      </trkpt>
      <trkpt lat="42.809297" lon="-5.824033">
        <ele>1003.18</ele>
        <time>2021-03-27T16:42:39Z</time>
      </trkpt>
      <trkpt lat="42.809441" lon="-5.824013">
        <ele>1002.78</ele>
        <time>2021-03-27T16:42:41Z</time>
      </trkpt>
      <trkpt lat="42.809727" lon="-5.823903">
        <ele>1002.86</ele>
        <time>2021-03-27T16:42:44Z</time>
      </trkpt>
      <trkpt lat="42.809903" lon="-5.823967">
        <ele>1002.98</ele>
        <time>2021-03-27T16:42:46Z</time>
      </trkpt>
      <trkpt lat="42.811338" lon="-5.825398">
        <ele>1003.68</ele>
        <time>2021-03-27T16:42:48Z</time>
      </trkpt>
      <trkpt lat="42.811622" lon="-5.825865">
        <ele>1003.3</ele>
        <time>2021-03-27T16:42:51Z</time>
      </trkpt>
      <trkpt lat="42.811807" lon="-5.826347">
        <ele>1003.84</ele>
        <time>2021-03-27T16:42:53Z</time>
      </trkpt>
      <trkpt lat="42.811871" lon="-5.826853">
        <ele>1003.9</ele>
        <time>2021-03-27T16:42:56Z</time>
      </trkpt>
      <trkpt lat="42.811859" lon="-5.829975">
        <ele>1003.34</ele>
        <time>2021-03-27T16:42:58Z</time>
      </trkpt>
      <trkpt lat="42.81194" lon="-5.830504">
        <ele>999.7</ele>
        <time>2021-03-27T16:43:01Z</time>
      </trkpt>
      <trkpt lat="42.812088" lon="-5.830907">
        <ele>1000.58</ele>
        <time>2021-03-27T16:43:03Z</time>
      </trkpt>
      <trkpt lat="42.812248" lon="-5.831119">
        <ele>1002.16</ele>
        <time>2021-03-27T16:43:06Z</time>
      </trkpt>
      <trkpt lat="42.812476" lon="-5.83132">
        <ele>1001.05</ele>
        <time>2021-03-27T16:43:08Z</time>
      </trkpt>
      <trkpt lat="42.812774" lon="-5.831418">
        <ele>999.48</ele>
        <time>2021-03-27T16:43:10Z</time>
      </trkpt>
      <trkpt lat="42.813837" lon="-5.831467">
        <ele>1006.16</ele>
        <time>2021-03-27T16:43:13Z</time>
      </trkpt>
      <trkpt lat="42.814114" lon="-5.831539">
        <ele>1007.03</ele>
        <time>2021-03-27T16:43:15Z</time>
      </trkpt>
      <trkpt lat="42.814358" lon="-5.831745">
        <ele>1007.78</ele>
        <time>2021-03-27T16:43:18Z</time>
      </trkpt>
      <trkpt lat="42.815366" lon="-5.832843">
        <ele>1002.95</ele>
        <time>2021-03-27T16:43:20Z</time>
      </trkpt>
      <trkpt lat="42.815589" lon="-5.832999">
        <ele>1001.69</ele>
        <time>2021-03-27T16:43:23Z</time>
      </trkpt>
      <trkpt lat="42.815847" lon="-5.83308">
        <ele>1001.93</ele>
        <time>2021-03-27T16:43:25Z</time>
      </trkpt>
      <trkpt lat="42.816607" lon="-5.83323">
        <ele>1007.87</ele>
        <time>2021-03-27T16:43:28Z</time>
      </trkpt>
      <trkpt lat="42.817523" lon="-5.833381">
        <ele>1008.17</ele>
        <time>2021-03-27T16:43:30Z</time>
      </trkpt>
      <trkpt lat="42.818392" lon="-5.833491">
        <ele>1006.45</ele>
        <time>2021-03-27T16:43:33Z</time>
      </trkpt>
      <trkpt lat="42.818531" lon="-5.833546">
        <ele>1007.23</ele>
        <time>2021-03-27T16:43:35Z</time>
      </trkpt>
      <trkpt lat="42.81925" lon="-5.834076">
        <ele>1005.1</ele>
        <time>2021-03-27T16:43:37Z</time>
      </trkpt>
      <trkpt lat="42.819956" lon="-5.834374">
        <ele>1012.23</ele>
        <time>2021-03-27T16:43:40Z</time>
      </trkpt>
      <trkpt lat="42.820248" lon="-5.834535">
        <ele>1011.61</ele>
        <time>2021-03-27T16:43:42Z</time>
      </trkpt>
      <trkpt lat="42.820593" lon="-5.834777">
        <ele>1010.44</ele>
        <time>2021-03-27T16:43:45Z</time>
      </trkpt>
      <trkpt lat="42.822066" lon="-5.83594">
        <ele>1017.51</ele>
        <time>2021-03-27T16:43:47Z</time>
      </trkpt>
      <trkpt lat="42.822276" lon="-5.836195">
        <ele>1018.68</ele>
        <time>2021-03-27T16:43:50Z</time>
      </trkpt>
      <trkpt lat="42.822772" lon="-5.836947">
        <ele>1010.87</ele>
        <time>2021-03-27T16:43:52Z</time>
      </trkpt>
      <trkpt lat="42.822923" lon="-5.837206">
        <ele>1012.12</ele>
        <time>2021-03-27T16:43:55Z</time>
      </trkpt>
      <trkpt lat="42.822992" lon="-5.837479">
        <ele>1010.05</ele>
        <time>2021-03-27T16:43:57Z</time>
      </trkpt>
      <trkpt lat="42.823031" lon="-5.837851">
        <ele>1008.15</ele>
        <time>2021-03-27T16:44:00Z</time>
      </trkpt>
      <trkpt lat="42.823067" lon="-5.838696">
        <ele>1010.39</ele>
        <time>2021-03-27T16:44:02Z</time>
      </trkpt>
      <trkpt lat="42.823061" lon="-5.839238">
        <ele>1011.16</ele>
        <time>2021-03-27T16:44:04Z</time>
      </trkpt>
      <trkpt lat="42.822995" lon="-5.839811">
        <ele>1009.38</ele>
        <time>2021-03-27T16:44:07Z</time>
      </trkpt>
      <trkpt lat="42.82288" lon="-5.840263">
        <ele>1007.49</ele>
        <time>2021-03-27T16:44:09Z</time>
      </trkpt>
      <trkpt lat="42.82266" lon="-5.840768">
        <ele>1005.86</ele>
        <time>2021-03-27T16:44:12Z</time>
      </trkpt>
      <trkpt lat="42.821614" lon="-5.842056">
        <ele>1013.29</ele>
        <time>2021-03-27T16:44:14Z</time>
      </trkpt>
      <trkpt lat="42.82133" lon="-5.842593">
        <ele>1013.7</ele>
        <time>2021-03-27T16:44:17Z</time>
      </trkpt>
      <trkpt lat="42.820946" lon="-5.843587">
        <ele>1013.18</ele>
        <time>2021-03-27T16:44:19Z</time>
      </trkpt>
      <trkpt lat="42.820194" lon="-5.845736">
        <ele>1008.59</ele>
        <time>2021-03-27T16:44:22Z</time>
      </trkpt>
      <trkpt lat="42.820194" lon="-5.845986">
        <ele>1007.83</ele>
        <time>2021-03-27T16:44:24Z</time>
      </trkpt>
      <trkpt lat="42.820268" lon="-5.846167">
        <ele>1008.15</ele>
        <time>2021-03-27T16:44:27Z</time>
      </trkpt>
      <trkpt lat="42.820756" lon="-5.846607">
        <ele>1009.37</ele>
        <time>2021-03-27T16:44:29Z</time>
      </trkpt>
      <trkpt lat="42.821325" lon="-5.846823">
        <ele>1011.98</ele>
        <time>2021-03-27T16:44:31Z</time>
      </trkpt>
      <trkpt lat="42.821487" lon="-5.846948">
        <ele>1013.4</ele>
        <time>2021-03-27T16:44:34Z</time>
      </trkpt>
      <trkpt lat="42.821627" lon="-5.847098">
        <ele>1014.4</ele>
        <time>2021-03-27T16:44:36Z</time>
      </trkpt>
      <trkpt lat="42.821823" lon="-5.847409">
        <ele>1016.21</ele>
        <time>2021-03-27T16:44:39Z</time>
      </trkpt>
      <trkpt lat="42.823277" lon="-5.852335">
        <ele>1014.33</ele>
        <time>2021-03-27T16:44:41Z</time>
      </trkpt>
      <trkpt lat="42.824426" lon="-5.855252">
        <ele>1014.66</ele>
        <time>2021-03-27T16:44:44Z</time>
      </trkpt>
      <trkpt lat="42.824621" lon="-5.855907">
        <ele>1014.31</ele>
        <time>2021-03-27T16:44:46Z</time>
      </trkpt>
      <trkpt lat="42.82485" lon="-5.856357">
        <ele>1013.65</ele>
        <time>2021-03-27T16:44:49Z</time>
      </trkpt>
      <trkpt lat="42.825028" lon="-5.856634">
        <ele>1014.65</ele>
        <time>2021-03-27T16:44:51Z</time>
      </trkpt>
      <trkpt lat="42.825366" lon="-5.856975">
        <ele>1017.91</ele>
        <time>2021-03-27T16:44:54Z</time>
      </trkpt>
      <trkpt lat="42.825616" lon="-5.857185">
        <ele>1018.84</ele>
        <time>2021-03-27T16:44:56Z</time>
      </trkpt>
      <trkpt lat="42.825851" lon="-5.857482">
        <ele>1019.02</ele>
        <time>2021-03-27T16:44:58Z</time>
      </trkpt>
      <trkpt lat="42.826336" lon="-5.858485">
        <ele>1018.52</ele>
        <time>2021-03-27T16:45:01Z</time>
      </trkpt>
      <trkpt lat="42.827238" lon="-5.86002">
        <ele>1018.69</ele>
        <time>2021-03-27T16:45:03Z</time>
      </trkpt>
      <trkpt lat="42.827718" lon="-5.861102">
        <ele>1020.48</ele>
        <time>2021-03-27T16:45:06Z</time>
      </trkpt>
      <trkpt lat="42.827855" lon="-5.861488">
        <ele>1021.0</ele>
        <time>2021-03-27T16:45:08Z</time>
      </trkpt>
      <trkpt lat="42.82801" lon="-5.862181">
        <ele>1023.73</ele>
        <time>2021-03-27T16:45:11Z</time>
      </trkpt>
      <trkpt lat="42.828413" lon="-5.864486">
        <ele>1029.81</ele>
        <time>2021-03-27T16:45:13Z</time>
      </trkpt>
      <trkpt lat="42.828449" lon="-5.864984">
        <ele>1034.24</ele>
        <time>2021-03-27T16:45:16Z</time>
      </trkpt>
      <trkpt lat="42.828385" lon="-5.865726">
        <ele>1032.42</ele>
        <time>2021-03-27T16:45:18Z</time>
      </trkpt>
      <trkpt lat="42.828244" lon="-5.866403">
        <ele>1030.25</ele>
        <time>2021-03-27T16:45:21Z</time>
      </trkpt>
      <trkpt lat="42.827964" lon="-5.867392">
        <ele>1027.14</ele>
        <time>2021-03-27T16:45:23Z</time>
      </trkpt>
      <trkpt lat="42.82741" lon="-5.868817">
        <ele>1029.29</ele>
        <time>2021-03-27T16:45:25Z</time>
      </trkpt>
      <trkpt lat="42.82715" lon="-5.869815">
        <ele>1030.77</ele>
        <time>2021-03-27T16:45:28Z</time>
      </trkpt>
      <trkpt lat="42.82708" lon="-5.870255">
        <ele>1030.37</ele>
        <time>2021-03-27T16:45:30Z</time>
      </trkpt>
      <trkpt lat="42.827082" lon="-5.87061">
        <ele>1032.16</ele>
        <time>2021-03-27T16:45:33Z</time>
      </trkpt>
      <trkpt lat="42.827121" lon="-5.870931">
        <ele>1033.59</ele>
        <time>2021-03-27T16:45:35Z</time>
      </trkpt>
      <trkpt lat="42.827185" lon="-5.871271">
        <ele>1033.3</ele>
        <time>2021-03-27T16:45:38Z</time>
      </trkpt>
      <trkpt lat="42.827428" lon="-5.871767">
        <ele>1034.13</ele>
        <time>2021-03-27T16:45:40Z</time>
      </trkpt>
      <trkpt lat="42.827525" lon="-5.871865">
        <ele>1034.78</ele>
        <time>2021-03-27T16:45:43Z</time>
      </trkpt>
      <trkpt lat="42.827608" lon="-5.871905">
        <ele>1033.94</ele>
        <time>2021-03-27T16:45:45Z</time>
      </trkpt>
      <trkpt lat="42.827739" lon="-5.871903">
        <ele>1032.68</ele>
        <time>2021-03-27T16:45:47Z</time>
      </trkpt>
      <trkpt lat="42.827871" lon="-5.871748">
        <ele>1031.98</ele>
        <time>2021-03-27T16:45:50Z</time>
      </trkpt>
      <trkpt lat="42.828024" lon="-5.87146">
        <ele>1033.26</ele>
        <time>2021-03-27T16:45:52Z</time>
      </trkpt>
      <trkpt lat="42.828243" lon="-5.871143">
        <ele>1035.52</ele>
        <time>2021-03-27T16:45:55Z</time>
      </trkpt>
      <trkpt lat="42.828354" lon="-5.871011">
        <ele>1035.95</ele>
        <time>2021-03-27T16:45:57Z</time>
      </trkpt>
      <trkpt lat="42.828929" lon="-5.870124">
        <ele>1031.95</ele>
        <time>2021-03-27T16:46:00Z</time>
      </trkpt>
      <trkpt lat="42.829071" lon="-5.86999">
        <ele>1031.35</ele>
        <time>2021-03-27T16:46:02Z</time>
      </trkpt>
      <trkpt lat="42.829542" lon="-5.869786">
        <ele>1031.01</ele>
        <time>2021-03-27T16:46:05Z</time>
      </trkpt>
      <trkpt lat="42.830331" lon="-5.869528">
        <ele>1033.55</ele>
        <time>2021-03-27T16:46:07Z</time>
      </trkpt>
      <trkpt lat="42.830805" lon="-5.869485">
        <ele>1034.94</ele>
        <time>2021-03-27T16:46:10Z</time>
      </trkpt>
      <trkpt lat="42.831236" lon="-5.869525">
        <ele>1034.24</ele>
        <time>2021-03-27T16:46:12Z</time>
      </trkpt>
      <trkpt lat="42.831893" lon="-5.869631">
        <ele>1035.03</ele>
        <time>2021-03-27T16:46:14Z</time>
      </trkpt>
      <trkpt lat="42.832655" lon="-5.869721">
        <ele>1027.48</ele>
        <time>2021-03-27T16:46:17Z</time>
      </trkpt>
      <trkpt lat="42.83425" lon="-5.86997">
        <ele>1029.32</ele>
        <time>2021-03-27T16:46:19Z</time>
      </trkpt>
      <trkpt lat="42.835729" lon="-5.870227">
        <ele>1033.9</ele>
        <time>2021-03-27T16:46:22Z</time>
      </trkpt>
      <trkpt lat="42.836018" lon="-5.870256">
        <ele>1034.81</ele>
        <time>2021-03-27T16:46:24Z</time>
      </trkpt>
      <trkpt lat="42.836775" lon="-5.870209">
        <ele>1040.73</ele>
        <time>2021-03-27T16:46:27Z</time>
      </trkpt>
      <trkpt lat="42.836974" lon="-5.870173">
        <ele>1041.6</ele>
        <time>2021-03-27T16:46:29Z</time>
      </trkpt>
      <trkpt lat="42.837536" lon="-5.869935">
        <ele>1042.63</ele>
        <time>2021-03-27T16:46:32Z</time>
      </trkpt>
      <trkpt lat="42.839155" lon="-5.868724">
        <ele>1047.4</ele>
        <time>2021-03-27T16:46:34Z</time>
      </trkpt>
      <trkpt lat="42.839336" lon="-5.868543">
        <ele>1049.35</ele>
        <time>2021-03-27T16:46:37Z</time>
      </trkpt>
      <trkpt lat="42.839658" lon="-5.868092">
        <ele>1053.06</ele>
        <time>2021-03-27T16:46:39Z</time>
      </trkpt>
      <trkpt lat="42.839968" lon="-5.867597">
        <ele>1053.13</ele>
        <time>2021-03-27T16:46:41Z</time>
      </trkpt>
      <trkpt lat="42.840088" lon="-5.867317">
        <ele>1055.11</ele>
        <time>2021-03-27T16:46:44Z</time>
      </trkpt>
      <trkpt lat="42.840188" lon="-5.866961">
        <ele>1057.33</ele>
        <time>2021-03-27T16:46:46Z</time>
      </trkpt>
      <trkpt lat="42.840493" lon="-5.864887">
        <ele>1062.39</ele>
        <time>2021-03-27T16:46:49Z</time>
      </trkpt>
      <trkpt lat="42.840482" lon="-5.863997">
        <ele>1074.99</ele>
        <time>2021-03-27T16:46:51Z</time>
      </trkpt>
      <trkpt lat="42.84049" lon="-5.863827">
        <ele>1077.01</ele>
        <time>2021-03-27T16:46:54Z</time>
      </trkpt>
      <trkpt lat="42.84053" lon="-5.863662">
        <ele>1077.33</ele>
        <time>2021-03-27T16:46:56Z</time>
      </trkpt>
      <trkpt lat="42.8406" lon="-5.863481">
        <ele>1076.92</ele>
        <time>2021-03-27T16:46:59Z</time>
      </trkpt>
      <trkpt lat="42.841337" lon="-5.861975">
        <ele>1079.45</ele>
        <time>2021-03-27T16:47:01Z</time>
      </trkpt>
      <trkpt lat="42.841419" lon="-5.861836">
        <ele>1079.69</ele>
        <time>2021-03-27T16:47:04Z</time>
      </trkpt>
      <trkpt lat="42.842251" lon="-5.860902">
        <ele>1080.15</ele>
        <time>2021-03-27T16:47:06Z</time>
      </trkpt>
      <trkpt lat="42.842355" lon="-5.860736">
        <ele>1079.82</ele>
        <time>2021-03-27T16:47:08Z</time>
      </trkpt>
      <trkpt lat="42.84241" lon="-5.860566">
        <ele>1081.31</ele>
        <time>2021-03-27T16:47:11Z</time>
      </trkpt>
      <trkpt lat="42.842405" lon="-5.860237">
        <ele>1085.35</ele>
        <time>2021-03-27T16:47:13Z</time>
      </trkpt>
      <trkpt lat="42.842245" lon="-5.859525">
        <ele>1089.66</ele>
        <time>2021-03-27T16:47:16Z</time>
      </trkpt>
      <trkpt lat="42.842265" lon="-5.859311">
        <ele>1089.21</ele>
        <time>2021-03-27T16:47:18Z</time>
      </trkpt>
      <trkpt lat="42.842338" lon="-5.859105">
        <ele>1089.78</ele>
        <time>2021-03-27T16:47:21Z</time>
      </trkpt>
      <trkpt lat="42.842457" lon="-5.858963">
        <ele>1092.14</ele>
        <time>2021-03-27T16:47:23Z</time>
      </trkpt>
      <trkpt lat="42.842608" lon="-5.858864">
        <ele>1096.45</ele>
        <time>2021-03-27T16:47:26Z</time>
      </trkpt>
      <trkpt lat="42.842736" lon="-5.858844">
        <ele>1099.0</ele>
        <time>2021-03-27T16:47:28Z</time>
      </trkpt>
      <trkpt lat="42.842872" lon="-5.858856">
        <ele>1100.91</ele>
        <time>2021-03-27T16:47:31Z</time>
      </trkpt>
      <trkpt lat="42.843458" lon="-5.859054">
        <ele>1096.94</ele>
        <time>2021-03-27T16:47:33Z</time>
      </trkpt>
      <trkpt lat="42.843586" lon="-5.859054">
        <ele>1096.02</ele>
        <time>2021-03-27T16:47:35Z</time>
      </trkpt>
      <trkpt lat="42.843792" lon="-5.858967">
        <ele>1098.68</ele>
        <time>2021-03-27T16:47:38Z</time>
      </trkpt>
      <trkpt lat="42.844125" lon="-5.858725">
        <ele>1105.79</ele>
        <time>2021-03-27T16:47:40Z</time>
      </trkpt>
      <trkpt lat="42.844247" lon="-5.858706">
        <ele>1105.98</ele>
        <time>2021-03-27T16:47:43Z</time>
      </trkpt>
      <trkpt lat="42.845669" lon="-5.858769">
        <ele>1109.75</ele>
        <time>2021-03-27T16:47:45Z</time>
      </trkpt>
      <trkpt lat="42.845812" lon="-5.858785">
        <ele>1111.63</ele>
        <time>2021-03-27T16:47:48Z</time>
      </trkpt>
      <trkpt lat="42.845983" lon="-5.858844">
        <ele>1112.97</ele>
        <time>2021-03-27T16:47:50Z</time>
      </trkpt>
      <trkpt lat="42.846694" lon="-5.859191">
        <ele>1112.09</ele>
        <time>2021-03-27T16:47:53Z</time>
      </trkpt>
      <trkpt lat="42.847421" lon="-5.859395">
        <ele>1109.65</ele>
        <time>2021-03-27T16:47:55Z</time>
      </trkpt>
      <trkpt lat="42.847624" lon="-5.85943">
        <ele>1110.34</ele>
        <time>2021-03-27T16:47:57Z</time>
      </trkpt>
      <trkpt lat="42.848254" lon="-5.859455">
        <ele>1112.15</ele>
        <time>2021-03-27T16:48:00Z</time>
      </trkpt>
      <trkpt lat="42.848444" lon="-5.859449">
        <ele>1111.16</ele>
        <time>2021-03-27T16:48:02Z</time>
      </trkpt>
      <trkpt lat="42.848543" lon="-5.859418">
        <ele>1110.88</ele>
        <time>2021-03-27T16:48:05Z</time>
      </trkpt>
      <trkpt lat="42.848767" lon="-5.859188">
        <ele>1112.57</ele>
        <time>2021-03-27T16:48:07Z</time>
      </trkpt>
      <trkpt lat="42.848907" lon="-5.858734">
        <ele>1116.39</ele>
        <time>2021-03-27T16:48:10Z</time>
      </trkpt>
      <trkpt lat="42.848984" lon="-5.858393">
        <ele>1116.63</ele>
        <time>2021-03-27T16:48:12Z</time>
      </trkpt>
      <trkpt lat="42.84902" lon="-5.85812">
        <ele>1117.67</ele>
        <time>2021-03-27T16:48:15Z</time>
      </trkpt>
      <trkpt lat="42.848988" lon="-5.857296">
        <ele>1123.22</ele>
        <time>2021-03-27T16:48:17Z</time>
      </trkpt>
      <trkpt lat="42.849029" lon="-5.856366">
        <ele>1130.2</ele>
        <time>2021-03-27T16:48:20Z</time>
      </trkpt>
      <trkpt lat="42.849107" lon="-5.856099">
        <ele>1129.52</ele>
        <time>2021-03-27T16:48:22Z</time>
      </trkpt>
      <trkpt lat="42.849266" lon="-5.855907">
        <ele>1127.77</ele>
        <time>2021-03-27T16:48:24Z</time>
      </trkpt>
      <trkpt lat="42.84942" lon="-5.855789">
        <ele>1124.81</ele>
        <time>2021-03-27T16:48:27Z</time>
      </trkpt>
      <trkpt lat="42.849575" lon="-5.855745">
        <ele>1124.28</ele>
        <time>2021-03-27T16:48:29Z</time>
      </trkpt>
      <trkpt lat="42.84978" lon="-5.85582">
        <ele>1124.27</ele>
        <time>2021-03-27T16:48:32Z</time>
      </trkpt>
      <trkpt lat="42.849957" lon="-5.855969">
        <ele>1128.98</ele>
        <time>2021-03-27T16:48:34Z</time>
      </trkpt>
      <trkpt lat="42.850061" lon="-5.856248">
        <ele>1130.95</ele>
        <time>2021-03-27T16:48:37Z</time>
      </trkpt>
      <trkpt lat="42.850121" lon="-5.856583">
        <ele>1130.45</ele>
        <time>2021-03-27T16:48:39Z</time>
      </trkpt>
      <trkpt lat="42.850148" lon="-5.856924">
        <ele>1127.78</ele>
        <time>2021-03-27T16:48:42Z</time>
      </trkpt>
      <trkpt lat="42.850216" lon="-5.857159">
        <ele>1128.09</ele>
        <time>2021-03-27T16:48:44Z</time>
      </trkpt>
      <trkpt lat="42.850402" lon="-5.857631">
        <ele>1128.54</ele>
        <time>2021-03-27T16:48:47Z</time>
      </trkpt>
      <trkpt lat="42.85073" lon="-5.85822">
        <ele>1129.9</ele>
        <time>2021-03-27T16:48:49Z</time>
      </trkpt>
      <trkpt lat="42.851016" lon="-5.858617">
        <ele>1130.69</ele>
        <time>2021-03-27T16:48:51Z</time>
      </trkpt>
      <trkpt lat="42.851198" lon="-5.858809">
        <ele>1130.51</ele>
        <time>2021-03-27T16:48:54Z</time>
      </trkpt>
      <trkpt lat="42.851357" lon="-5.858927">
        <ele>1132.52</ele>
        <time>2021-03-27T16:48:56Z</time>
      </trkpt>
      <trkpt lat="42.851734" lon="-5.8591">
        <ele>1138.23</ele>
        <time>2021-03-27T16:48:59Z</time>
      </trkpt>
      <trkpt lat="42.851871" lon="-5.859212">
        <ele>1140.33</ele>
        <time>2021-03-27T16:49:01Z</time>
      </trkpt>
      <trkpt lat="42.851984" lon="-5.859417">
        <ele>1140.76</ele>
        <time>2021-03-27T16:49:04Z</time>
      </trkpt>
      <trkpt lat="42.852048" lon="-5.859615">
        <ele>1139.69</ele>
        <time>2021-03-27T16:49:06Z</time>
      </trkpt>
      <trkpt lat="42.852161" lon="-5.86013">
        <ele>1134.74</ele>
        <time>2021-03-27T16:49:09Z</time>
      </trkpt>
      <trkpt lat="42.852257" lon="-5.860322">
        <ele>1134.24</ele>
        <time>2021-03-27T16:49:11Z</time>
      </trkpt>
      <trkpt lat="42.852407" lon="-5.860533">
        <ele>1134.65</ele>
        <time>2021-03-27T16:49:14Z</time>
      </trkpt>
      <trkpt lat="42.853115" lon="-5.861389">
        <ele>1135.56</ele>
        <time>2021-03-27T16:49:16Z</time>
      </trkpt>
      <trkpt lat="42.853588" lon="-5.861779">
        <ele>1137.44</ele>
        <time>2021-03-27T16:49:18Z</time>
      </trkpt>
      <trkpt lat="42.853846" lon="-5.86195">
        <ele>1137.35</ele>
        <time>2021-03-27T16:49:21Z</time>
      </trkpt>
      <trkpt lat="42.854093" lon="-5.862054">
        <ele>1138.59</ele>
        <time>2021-03-27T16:49:23Z</time>
      </trkpt>
      <trkpt lat="42.854252" lon="-5.86209">
        <ele>1139.49</ele>
        <time>2021-03-27T16:49:26Z</time>
      </trkpt>
      <trkpt lat="42.855482" lon="-5.862015">
        <ele>1145.09</ele>
        <time>2021-03-27T16:49:28Z</time>
      </trkpt>
      <trkpt lat="42.855746" lon="-5.861873">
        <ele>1148.41</ele>
        <time>2021-03-27T16:49:31Z</time>
      </trkpt>
      <trkpt lat="42.856663" lon="-5.861169">
        <ele>1152.62</ele>
        <time>2021-03-27T16:49:33Z</time>
      </trkpt>
      <trkpt lat="42.85734" lon="-5.860316">
        <ele>1159.69</ele>
        <time>2021-03-27T16:49:36Z</time>
      </trkpt>
      <trkpt lat="42.857536" lon="-5.860143">
        <ele>1161.75</ele>
        <time>2021-03-27T16:49:38Z</time>
      </trkpt>
      <trkpt lat="42.857998" lon="-5.859818">
        <ele>1160.42</ele>
        <time>2021-03-27T16:49:41Z</time>
      </trkpt>
      <trkpt lat="42.858226" lon="-5.859685">
        <ele>1156.19</ele>
        <time>2021-03-27T16:49:43Z</time>
      </trkpt>
      <trkpt lat="42.858396" lon="-5.8597">
        <ele>1153.09</ele>
        <time>2021-03-27T16:49:45Z</time>
      </trkpt>
      <trkpt lat="42.858532" lon="-5.859744">
        <ele>1152.07</ele>
        <time>2021-03-27T16:49:48Z</time>
      </trkpt>
      <trkpt lat="42.858661" lon="-5.859856">
        <ele>1151.09</ele>
        <time>2021-03-27T16:49:50Z</time>
      </trkpt>
      <trkpt lat="42.858754" lon="-5.859983">
        <ele>1150.27</ele>
        <time>2021-03-27T16:49:53Z</time>
      </trkpt>
      <trkpt lat="42.859126" lon="-5.860598">
        <ele>1148.76</ele>
        <time>2021-03-27T16:49:55Z</time>
      </trkpt>
      <trkpt lat="42.859208" lon="-5.860784">
        <ele>1149.59</ele>
        <time>2021-03-27T16:49:58Z</time>
      </trkpt>
      <trkpt lat="42.859241" lon="-5.861003">
        <ele>1148.79</ele>
        <time>2021-03-27T16:50:00Z</time>
      </trkpt>
      <trkpt lat="42.859248" lon="-5.861233">
        <ele>1146.59</ele>
        <time>2021-03-27T16:50:03Z</time>
      </trkpt>
      <trkpt lat="42.859183" lon="-5.862609">
        <ele>1124.22</ele>
        <time>2021-03-27T16:50:05Z</time>
      </trkpt>
      <trkpt lat="42.85923" lon="-5.862804">
        <ele>1121.65</ele>
        <time>2021-03-27T16:50:08Z</time>
      </trkpt>
      <trkpt lat="42.859341" lon="-5.863">
        <ele>1120.81</ele>
        <time>2021-03-27T16:50:10Z</time>
      </trkpt>
      <trkpt lat="42.859455" lon="-5.863117">
        <ele>1121.6</ele>
        <time>2021-03-27T16:50:12Z</time>
      </trkpt>
      <trkpt lat="42.85972" lon="-5.863288">
        <ele>1127.2</ele>
        <time>2021-03-27T16:50:15Z</time>
      </trkpt>
      <trkpt lat="42.859845" lon="-5.86339">
        <ele>1128.74</ele>
        <time>2021-03-27T16:50:17Z</time>
      </trkpt>
      <trkpt lat="42.860506" lon="-5.864329">
        <ele>1132.52</ele>
        <time>2021-03-27T16:50:20Z</time>
      </trkpt>
      <trkpt lat="42.86097" lon="-5.865036">
        <ele>1122.33</ele>
        <time>2021-03-27T16:50:22Z</time>
      </trkpt>
      <trkpt lat="42.861283" lon="-5.865401">
        <ele>1107.12</ele>
        <time>2021-03-27T16:50:25Z</time>
      </trkpt>
      <trkpt lat="42.861548" lon="-5.865606">
        <ele>1101.82</ele>
        <time>2021-03-27T16:50:27Z</time>
      </trkpt>
      <trkpt lat="42.861677" lon="-5.865664">
        <ele>1102.19</ele>
        <time>2021-03-27T16:50:30Z</time>
      </trkpt>
      <trkpt lat="42.861849" lon="-5.865684">
        <ele>1103.34</ele>
        <time>2021-03-27T16:50:32Z</time>
      </trkpt>
      <trkpt lat="42.861974" lon="-5.865655">
        <ele>1105.44</ele>
        <time>2021-03-27T16:50:34Z</time>
      </trkpt>
      <trkpt lat="42.862106" lon="-5.865533">
        <ele>1108.74</ele>
        <time>2021-03-27T16:50:37Z</time>
      </trkpt>
      <trkpt lat="42.862217" lon="-5.865362">
        <ele>1113.37</ele>
        <time>2021-03-27T16:50:39Z</time>
      </trkpt>
      <trkpt lat="42.862296" lon="-5.865162">
        <ele>1116.69</ele>
        <time>2021-03-27T16:50:42Z</time>
      </trkpt>
      <trkpt lat="42.862421" lon="-5.864347">
        <ele>1128.34</ele>
        <time>2021-03-27T16:50:44Z</time>
      </trkpt>
      <trkpt lat="42.862482" lon="-5.864117">
        <ele>1129.59</ele>
        <time>2021-03-27T16:50:47Z</time>
      </trkpt>
      <trkpt lat="42.862607" lon="-5.863922">
        <ele>1127.08</ele>
        <time>2021-03-27T16:50:49Z</time>
      </trkpt>
      <trkpt lat="42.862815" lon="-5.863732">
        <ele>1125.61</ele>
        <time>2021-03-27T16:50:52Z</time>
      </trkpt>
      <trkpt lat="42.863155" lon="-5.863556">
        <ele>1126.67</ele>
        <time>2021-03-27T16:50:54Z</time>
      </trkpt>
      <trkpt lat="42.863652" lon="-5.863372">
        <ele>1129.89</ele>
        <time>2021-03-27T16:50:57Z</time>
      </trkpt>
      <trkpt lat="42.864199" lon="-5.863246">
        <ele>1128.56</ele>
        <time>2021-03-27T16:50:59Z</time>
      </trkpt>
      <trkpt lat="42.864344" lon="-5.863138">
        <ele>1131.21</ele>
        <time>2021-03-27T16:51:01Z</time>
      </trkpt>
      <trkpt lat="42.864989" lon="-5.862554">
        <ele>1134.13</ele>
        <time>2021-03-27T16:51:04Z</time>
      </trkpt>
      <trkpt lat="42.865294" lon="-5.862321">
        <ele>1133.9</ele>
        <time>2021-03-27T16:51:06Z</time>
      </trkpt>
      <trkpt lat="42.865411" lon="-5.862102">
        <ele>1134.9</ele>
        <time>2021-03-27T16:51:09Z</time>
      </trkpt>
      <trkpt lat="42.865523" lon="-5.861934">
        <ele>1134.7</ele>
        <time>2021-03-27T16:51:11Z</time>
      </trkpt>
      <trkpt lat="42.865774" lon="-5.861458">
        <ele>1134.04</ele>
        <time>2021-03-27T16:51:14Z</time>
      </trkpt>
      <trkpt lat="42.865913" lon="-5.861277">
        <ele>1133.79</ele>
        <time>2021-03-27T16:51:16Z</time>
      </trkpt>
      <trkpt lat="42.866083" lon="-5.861102">
        <ele>1134.72</ele>
        <time>2021-03-27T16:51:19Z</time>
      </trkpt>
      <trkpt lat="42.866895" lon="-5.860523">
        <ele>1128.36</ele>
        <time>2021-03-27T16:51:21Z</time>
      </trkpt>
      <trkpt lat="42.867335" lon="-5.860118">
        <ele>1127.29</ele>
        <time>2021-03-27T16:51:24Z</time>
      </trkpt>
      <trkpt lat="42.867468" lon="-5.859933">
        <ele>1126.47</ele>
        <time>2021-03-27T16:51:26Z</time>
      </trkpt>
      <trkpt lat="42.867579" lon="-5.859701">
        <ele>1125.82</ele>
        <time>2021-03-27T16:51:28Z</time>
      </trkpt>
      <trkpt lat="42.867824" lon="-5.859001">
        <ele>1125.54</ele>
        <time>2021-03-27T16:51:31Z</time>
      </trkpt>
      <trkpt lat="42.867892" lon="-5.858742">
        <ele>1124.32</ele>
        <time>2021-03-27T16:51:33Z</time>
      </trkpt>
      <trkpt lat="42.867886" lon="-5.858411">
        <ele>1124.27</ele>
        <time>2021-03-27T16:51:36Z</time>
      </trkpt>
      <trkpt lat="42.867746" lon="-5.85755">
        <ele>1122.87</ele>
        <time>2021-03-27T16:51:38Z</time>
      </trkpt>
      <trkpt lat="42.867677" lon="-5.856934">
        <ele>1122.23</ele>
        <time>2021-03-27T16:51:41Z</time>
      </trkpt>
      <trkpt lat="42.867717" lon="-5.856598">
        <ele>1121.12</ele>
        <time>2021-03-27T16:51:43Z</time>
      </trkpt>
      <trkpt lat="42.867855" lon="-5.85634">
        <ele>1120.55</ele>
        <time>2021-03-27T16:51:46Z</time>
      </trkpt>
      <trkpt lat="42.868092" lon="-5.856213">
        <ele>1120.87</ele>
        <time>2021-03-27T16:51:48Z</time>
      </trkpt>
      <trkpt lat="42.868276" lon="-5.85618">
        <ele>1122.1</ele>
        <time>2021-03-27T16:51:51Z</time>
      </trkpt>
      <trkpt lat="42.868436" lon="-5.856222">
        <ele>1123.36</ele>
        <time>2021-03-27T16:51:53Z</time>
      </trkpt>
      <trkpt lat="42.869932" lon="-5.857139">
        <ele>1128.46</ele>
        <time>2021-03-27T16:51:55Z</time>
      </trkpt>
      <trkpt lat="42.870123" lon="-5.857206">
        <ele>1127.82</ele>
        <time>2021-03-27T16:51:58Z</time>
      </trkpt>
      <trkpt lat="42.870299" lon="-5.857169">
        <ele>1128.7</ele>
        <time>2021-03-27T16:52:00Z</time>
      </trkpt>
      <trkpt lat="42.870445" lon="-5.857078">
        <ele>1127.81</ele>
        <time>2021-03-27T16:52:03Z</time>
      </trkpt>
      <trkpt lat="42.870571" lon="-5.856929">
        <ele>1129.1</ele>
        <time>2021-03-27T16:52:05Z</time>
      </trkpt>
      <trkpt lat="42.87106" lon="-5.855952">
        <ele>1137.22</ele>
        <time>2021-03-27T16:52:08Z</time>
      </trkpt>
      <trkpt lat="42.87111" lon="-5.855763">
        <ele>1136.07</ele>
        <time>2021-03-27T16:52:10Z</time>
      </trkpt>
      <trkpt lat="42.871115" lon="-5.855526">
        <ele>1135.94</ele>
        <time>2021-03-27T16:52:13Z</time>
      </trkpt>
      <trkpt lat="42.87109" lon="-5.854938">
        <ele>1141.27</ele>
        <time>2021-03-27T16:52:15Z</time>
      </trkpt>
      <trkpt lat="42.871125" lon="-5.854687">
        <ele>1139.9</ele>
        <time>2021-03-27T16:52:18Z</time>
      </trkpt>
      <trkpt lat="42.871204" lon="-5.854491">
        <ele>1139.7</ele>
        <time>2021-03-27T16:52:20Z</time>
      </trkpt>
      <trkpt lat="42.871323" lon="-5.854335">
        <ele>1139.36</ele>
        <time>2021-03-27T16:52:22Z</time>
      </trkpt>
      <trkpt lat="42.871487" lon="-5.854227">
        <ele>1138.56</ele>
        <time>2021-03-27T16:52:25Z</time>
      </trkpt>
      <trkpt lat="42.872077" lon="-5.853984">
        <ele>1130.67</ele>
        <time>2021-03-27T16:52:27Z</time>
      </trkpt>
      <trkpt lat="42.87223" lon="-5.853875">
        <ele>1128.0</ele>
        <time>2021-03-27T16:52:30Z</time>
      </trkpt>
      <trkpt lat="42.872349" lon="-5.85372">
        <ele>1126.91</ele>
        <time>2021-03-27T16:52:32Z</time>
      </trkpt>
      <trkpt lat="42.872414" lon="-5.853571">
        <ele>1127.85</ele>
        <time>2021-03-27T16:52:35Z</time>
      </trkpt>
      <trkpt lat="42.872543" lon="-5.85305">
        <ele>1129.67</ele>
        <time>2021-03-27T16:52:37Z</time>
      </trkpt>
      <trkpt lat="42.872617" lon="-5.85286">
        <ele>1129.6</ele>
        <time>2021-03-27T16:52:40Z</time>
      </trkpt>
      <trkpt lat="42.872686" lon="-5.852732">
        <ele>1129.07</ele>
        <time>2021-03-27T16:52:42Z</time>
      </trkpt>
      <trkpt lat="42.873272" lon="-5.852306">
        <ele>1121.22</ele>
        <time>2021-03-27T16:52:44Z</time>
      </trkpt>
      <trkpt lat="42.873391" lon="-5.852251">
        <ele>1119.98</ele>
        <time>2021-03-27T16:52:47Z</time>
      </trkpt>
      <trkpt lat="42.873594" lon="-5.852278">
        <ele>1117.56</ele>
        <time>2021-03-27T16:52:49Z</time>
      </trkpt>
      <trkpt lat="42.873772" lon="-5.85238">
        <ele>1116.63</ele>
        <time>2021-03-27T16:52:52Z</time>
      </trkpt>
      <trkpt lat="42.874673" lon="-5.853467">
        <ele>1115.91</ele>
        <time>2021-03-27T16:52:54Z</time>
      </trkpt>
      <trkpt lat="42.875077" lon="-5.853923">
        <ele>1123.12</ele>
        <time>2021-03-27T16:52:57Z</time>
      </trkpt>
      <trkpt lat="42.875235" lon="-5.854288">
        <ele>1126.75</ele>
        <time>2021-03-27T16:52:59Z</time>
      </trkpt>
      <trkpt lat="42.875329" lon="-5.854741">
        <ele>1127.72</ele>
        <time>2021-03-27T16:53:02Z</time>
      </trkpt>
      <trkpt lat="42.875349" lon="-5.855147">
        <ele>1126.81</ele>
        <time>2021-03-27T16:53:04Z</time>
      </trkpt>
      <trkpt lat="42.875399" lon="-5.857712">
        <ele>1130.21</ele>
        <time>2021-03-27T16:53:07Z</time>
      </trkpt>
      <trkpt lat="42.875384" lon="-5.85803">
        <ele>1131.45</ele>
        <time>2021-03-27T16:53:09Z</time>
      </trkpt>
      <trkpt lat="42.875112" lon="-5.859967">
        <ele>1128.81</ele>
        <time>2021-03-27T16:53:11Z</time>
      </trkpt>
      <trkpt lat="42.874825" lon="-5.861327">
        <ele>1129.65</ele>
        <time>2021-03-27T16:53:14Z</time>
      </trkpt>
      <trkpt lat="42.874769" lon="-5.861698">
        <ele>1129.9</ele>
        <time>2021-03-27T16:53:16Z</time>
      </trkpt>
      <trkpt lat="42.874573" lon="-5.86352">
        <ele>1127.87</ele>
        <time>2021-03-27T16:53:19Z</time>
      </trkpt>
      <trkpt lat="42.874541" lon="-5.864993">
        <ele>1124.22</ele>
        <time>2021-03-27T16:53:21Z</time>
      </trkpt>
      <trkpt lat="42.874589" lon="-5.865211">
        <ele>1124.3</ele>
        <time>2021-03-27T16:53:24Z</time>
      </trkpt>
      <trkpt lat="42.874661" lon="-5.865402">
        <ele>1124.67</ele>
        <time>2021-03-27T16:53:26Z</time>
      </trkpt>
      <trkpt lat="42.875565" lon="-5.866761">
        <ele>1123.97</ele>
        <time>2021-03-27T16:53:29Z</time>
      </trkpt>
      <trkpt lat="42.875936" lon="-5.867061">
        <ele>1123.69</ele>
        <time>2021-03-27T16:53:31Z</time>
      </trkpt>
      <trkpt lat="42.876132" lon="-5.867121">
        <ele>1126.77</ele>
        <time>2021-03-27T16:53:34Z</time>
      </trkpt>
      <trkpt lat="42.876336" lon="-5.867104">
        <ele>1130.38</ele>
        <time>2021-03-27T16:53:36Z</time>
      </trkpt>
      <trkpt lat="42.876512" lon="-5.867039">
        <ele>1131.1</ele>
        <time>2021-03-27T16:53:38Z</time>
      </trkpt>
      <trkpt lat="42.876864" lon="-5.866701">
        <ele>1132.74</ele>
        <time>2021-03-27T16:53:41Z</time>
      </trkpt>
      <trkpt lat="42.876976" lon="-5.866499">
        <ele>1135.17</ele>
        <time>2021-03-27T16:53:43Z</time>
      </trkpt>
      <trkpt lat="42.877484" lon="-5.86532">
        <ele>1145.7</ele>
        <time>2021-03-27T16:53:46Z</time>
      </trkpt>
      <trkpt lat="42.877631" lon="-5.86508">
        <ele>1148.55</ele>
        <time>2021-03-27T16:53:48Z</time>
      </trkpt>
      <trkpt lat="42.877828" lon="-5.864949">
        <ele>1146.06</ele>
        <time>2021-03-27T16:53:51Z</time>
      </trkpt>
      <trkpt lat="42.877987" lon="-5.864933">
        <ele>1145.23</ele>
        <time>2021-03-27T16:53:53Z</time>
      </trkpt>
      <trkpt lat="42.878155" lon="-5.864998">
        <ele>1146.28</ele>
        <time>2021-03-27T16:53:56Z</time>
      </trkpt>
      <trkpt lat="42.878307" lon="-5.865151">
        <ele>1146.75</ele>
        <time>2021-03-27T16:53:58Z</time>
      </trkpt>
      <trkpt lat="42.878427" lon="-5.865386">
        <ele>1145.34</ele>
        <time>2021-03-27T16:54:01Z</time>
      </trkpt>
      <trkpt lat="42.878667" lon="-5.86598">
        <ele>1142.94</ele>
        <time>2021-03-27T16:54:03Z</time>
      </trkpt>
      <trkpt lat="42.879415" lon="-5.867606">
        <ele>1140.97</ele>
        <time>2021-03-27T16:54:05Z</time>
      </trkpt>
      <trkpt lat="42.879827" lon="-5.868266">
        <ele>1144.48</ele>
        <time>2021-03-27T16:54:08Z</time>
      </trkpt>
      <trkpt lat="42.879966" lon="-5.868376">
        <ele>1147.96</ele>
        <time>2021-03-27T16:54:10Z</time>
      </trkpt>
      <trkpt lat="42.880095" lon="-5.868406">
        <ele>1146.21</ele>
        <time>2021-03-27T16:54:13Z</time>
      </trkpt>
      <trkpt lat="42.880228" lon="-5.868379">
        <ele>1144.31</ele>
        <time>2021-03-27T16:54:15Z</time>
      </trkpt>
      <trkpt lat="42.880364" lon="-5.868267">
        <ele>1142.63</ele>
        <time>2021-03-27T16:54:18Z</time>
      </trkpt>
      <trkpt lat="42.880477" lon="-5.868114">
        <ele>1142.22</ele>
        <time>2021-03-27T16:54:20Z</time>
      </trkpt>
      <trkpt lat="42.880579" lon="-5.8679">
        <ele>1143.31</ele>
        <time>2021-03-27T16:54:23Z</time>
      </trkpt>
      <trkpt lat="42.881032" lon="-5.866659">
        <ele>1130.83</ele>
        <time>2021-03-27T16:54:25Z</time>
      </trkpt>
      <trkpt lat="42.881199" lon="-5.866013">
        <ele>1126.88</ele>
        <time>2021-03-27T16:54:28Z</time>
      </trkpt>
      <trkpt lat="42.881382" lon="-5.86486">
        <ele>1127.47</ele>
        <time>2021-03-27T16:54:30Z</time>
      </trkpt>
      <trkpt lat="42.881412" lon="-5.864448">
        <ele>1123.95</ele>
        <time>2021-03-27T16:54:32Z</time>
      </trkpt>
      <trkpt lat="42.881422" lon="-5.863622">
        <ele>1126.26</ele>
        <time>2021-03-27T16:54:35Z</time>
      </trkpt>
      <trkpt lat="42.881454" lon="-5.863425">
        <ele>1125.54</ele>
        <time>2021-03-27T16:54:37Z</time>
      </trkpt>
      <trkpt lat="42.881526" lon="-5.863272">
        <ele>1123.27</ele>
        <time>2021-03-27T16:54:40Z</time>
      </trkpt>
      <trkpt lat="42.881628" lon="-5.863142">
        <ele>1119.89</ele>
        <time>2021-03-27T16:54:42Z</time>
      </trkpt>
      <trkpt lat="42.881832" lon="-5.863039">
        <ele>1115.61</ele>
        <time>2021-03-27T16:54:45Z</time>
      </trkpt>
      <trkpt lat="42.881982" lon="-5.863012">
        <ele>1114.19</ele>
        <time>2021-03-27T16:54:47Z</time>
      </trkpt>
      <trkpt lat="42.882128" lon="-5.863044">
        <ele>1115.84</ele>
        <time>2021-03-27T16:54:50Z</time>
      </trkpt>
      <trkpt lat="42.882748" lon="-5.863462">
        <ele>1117.88</ele>
        <time>2021-03-27T16:54:52Z</time>
      </trkpt>
      <trkpt lat="42.882884" lon="-5.863532">
        <ele>1116.71</ele>
        <time>2021-03-27T16:54:55Z</time>
      </trkpt>
      <trkpt lat="42.883668" lon="-5.863695">
        <ele>1114.64</ele>
        <time>2021-03-27T16:54:57Z</time>
      </trkpt>
      <trkpt lat="42.88378" lon="-5.863769">
        <ele>1116.5</ele>
        <time>2021-03-27T16:54:59Z</time>
      </trkpt>
      <trkpt lat="42.883882" lon="-5.863876">
        <ele>1117.94</ele>
        <time>2021-03-27T16:55:02Z</time>
      </trkpt>
      <trkpt lat="42.883973" lon="-5.864071">
        <ele>1119.94</ele>
        <time>2021-03-27T16:55:04Z</time>
      </trkpt>
      <trkpt lat="42.884032" lon="-5.864322">
        <ele>1120.26</ele>
        <time>2021-03-27T16:55:07Z</time>
      </trkpt>
      <trkpt lat="42.88412" lon="-5.864973">
        <ele>1117.45</ele>
        <time>2021-03-27T16:55:09Z</time>
      </trkpt>
      <trkpt lat="42.884168" lon="-5.865223">
        <ele>1115.83</ele>
        <time>2021-03-27T16:55:12Z</time>
      </trkpt>
      <trkpt lat="42.884399" lon="-5.865925">
        <ele>1115.66</ele>
        <time>2021-03-27T16:55:14Z</time>
      </trkpt>
      <trkpt lat="42.884477" lon="-5.866306">
        <ele>1116.72</ele>
        <time>2021-03-27T16:55:17Z</time>
      </trkpt>
      <trkpt lat="42.884617" lon="-5.867235">
        <ele>1115.82</ele>
        <time>2021-03-27T16:55:19Z</time>
      </trkpt>
      <trkpt lat="42.884689" lon="-5.8675">
        <ele>1117.15</ele>
        <time>2021-03-27T16:55:21Z</time>
      </trkpt>
      <trkpt lat="42.884791" lon="-5.867696">
        <ele>1118.29</ele>
        <time>2021-03-27T16:55:24Z</time>
      </trkpt>
      <trkpt lat="42.884951" lon="-5.867807">
        <ele>1120.54</ele>
        <time>2021-03-27T16:55:26Z</time>
      </trkpt>
      <trkpt lat="42.885077" lon="-5.867867">
        <ele>1119.79</ele>
        <time>2021-03-27T16:55:29Z</time>
      </trkpt>
      <trkpt lat="42.885189" lon="-5.867867">
        <ele>1118.44</ele>
        <time>2021-03-27T16:55:31Z</time>
      </trkpt>
      <trkpt lat="42.885315" lon="-5.867798">
        <ele>1118.11</ele>
        <time>2021-03-27T16:55:34Z</time>
      </trkpt>
      <trkpt lat="42.885707" lon="-5.867444">
        <ele>1117.51</ele>
        <time>2021-03-27T16:55:36Z</time>
      </trkpt>
      <trkpt lat="42.885846" lon="-5.86737">
        <ele>1115.28</ele>
        <time>2021-03-27T16:55:39Z</time>
      </trkpt>
      <trkpt lat="42.885989" lon="-5.867342">
        <ele>1114.26</ele>
        <time>2021-03-27T16:55:41Z</time>
      </trkpt>
      <trkpt lat="42.886142" lon="-5.867375">
        <ele>1112.91</ele>
        <time>2021-03-27T16:55:44Z</time>
      </trkpt>
      <trkpt lat="42.886288" lon="-5.86746">
        <ele>1112.74</ele>
        <time>2021-03-27T16:55:46Z</time>
      </trkpt>
      <trkpt lat="42.886421" lon="-5.867605">
        <ele>1113.65</ele>
        <time>2021-03-27T16:55:48Z</time>
      </trkpt>
      <trkpt lat="42.886506" lon="-5.86783">
        <ele>1115.49</ele>
        <time>2021-03-27T16:55:51Z</time>
      </trkpt>
      <trkpt lat="42.886607" lon="-5.868331">
        <ele>1121.7</ele>
        <time>2021-03-27T16:55:53Z</time>
      </trkpt>
      <trkpt lat="42.886613" lon="-5.868839">
        <ele>1125.32</ele>
        <time>2021-03-27T16:55:56Z</time>
      </trkpt>
      <trkpt lat="42.886442" lon="-5.870996">
        <ele>1127.13</ele>
        <time>2021-03-27T16:55:58Z</time>
      </trkpt>
      <trkpt lat="42.886442" lon="-5.87125">
        <ele>1127.69</ele>
        <time>2021-03-27T16:56:01Z</time>
      </trkpt>
      <trkpt lat="42.886471" lon="-5.871504">
        <ele>1127.58</ele>
        <time>2021-03-27T16:56:03Z</time>
      </trkpt>
      <trkpt lat="42.886569" lon="-5.871774">
        <ele>1125.72</ele>
        <time>2021-03-27T16:56:06Z</time>
      </trkpt>
      <trkpt lat="42.886864" lon="-5.872275">
        <ele>1121.94</ele>
        <time>2021-03-27T16:56:08Z</time>
      </trkpt>
      <trkpt lat="42.887245" lon="-5.87318">
        <ele>1113.43</ele>
        <time>2021-03-27T16:56:11Z</time>
      </trkpt>
      <trkpt lat="42.887339" lon="-5.873356">
        <ele>1111.51</ele>
        <time>2021-03-27T16:56:13Z</time>
      </trkpt>
      <trkpt lat="42.887489" lon="-5.873502">
        <ele>1112.1</ele>
        <time>2021-03-27T16:56:15Z</time>
      </trkpt>
      <trkpt lat="42.887887" lon="-5.873794">
        <ele>1114.78</ele>
        <time>2021-03-27T16:56:18Z</time>
      </trkpt>
      <trkpt lat="42.888015" lon="-5.873969">
        <ele>1115.41</ele>
        <time>2021-03-27T16:56:20Z</time>
      </trkpt>
      <trkpt lat="42.888152" lon="-5.874314">
        <ele>1114.33</ele>
        <time>2021-03-27T16:56:23Z</time>
      </trkpt>
      <trkpt lat="42.888233" lon="-5.874641">
        <ele>1115.47</ele>
        <time>2021-03-27T16:56:25Z</time>
      </trkpt>
      <trkpt lat="42.888212" lon="-5.87495">
        <ele>1117.02</ele>
        <time>2021-03-27T16:56:28Z</time>
      </trkpt>
      <trkpt lat="42.888143" lon="-5.875225">
        <ele>1119.39</ele>
        <time>2021-03-27T16:56:30Z</time>
      </trkpt>
      <trkpt lat="42.887827" lon="-5.876112">
        <ele>1118.42</ele>
        <time>2021-03-27T16:56:33Z</time>
      </trkpt>
      <trkpt lat="42.88778" lon="-5.876521">
        <ele>1116.61</ele>
        <time>2021-03-27T16:56:35Z</time>
      </trkpt>
      <trkpt lat="42.88778" lon="-5.876866">
        <ele>1116.8</ele>
        <time>2021-03-27T16:56:38Z</time>
      </trkpt>
      <trkpt lat="42.887865" lon="-5.877748">
        <ele>1121.45</ele>
        <time>2021-03-27T16:56:40Z</time>
      </trkpt>
      <trkpt lat="42.88787" lon="-5.87797">
        <ele>1122.11</ele>
        <time>2021-03-27T16:56:42Z</time>
      </trkpt>
      <trkpt lat="42.887737" lon="-5.878974">
        <ele>1121.29</ele>
        <time>2021-03-27T16:56:45Z</time>
      </trkpt>
      <trkpt lat="42.88787" lon="-5.881013">
        <ele>1119.94</ele>
        <time>2021-03-27T16:56:47Z</time>
      </trkpt>
      <trkpt lat="42.887938" lon="-5.881188">
        <ele>1119.54</ele>
        <time>2021-03-27T16:56:50Z</time>
      </trkpt>
      <trkpt lat="42.888105" lon="-5.88138">
        <ele>1121.34</ele>
        <time>2021-03-27T16:56:52Z</time>
      </trkpt>
      <trkpt lat="42.888306" lon="-5.881538">
        <ele>1124.6</ele>
        <time>2021-03-27T16:56:55Z</time>
      </trkpt>
      <trkpt lat="42.88846" lon="-5.881608">
        <ele>1123.74</ele>
        <time>2021-03-27T16:56:57Z</time>
      </trkpt>
      <trkpt lat="42.888665" lon="-5.88164">
        <ele>1123.34</ele>
        <time>2021-03-27T16:57:00Z</time>
      </trkpt>
      <trkpt lat="42.889473" lon="-5.881698">
        <ele>1127.15</ele>
        <time>2021-03-27T16:57:02Z</time>
      </trkpt>
      <trkpt lat="42.889842" lon="-5.881802">
        <ele>1125.44</ele>
        <time>2021-03-27T16:57:05Z</time>
      </trkpt>
      <trkpt lat="42.890112" lon="-5.881931">
        <ele>1121.49</ele>
        <time>2021-03-27T16:57:07Z</time>
      </trkpt>
      <trkpt lat="42.890234" lon="-5.881966">
        <ele>1120.97</ele>
        <time>2021-03-27T16:57:09Z</time>
      </trkpt>
      <trkpt lat="42.890439" lon="-5.881948">
        <ele>1124.73</ele>
        <time>2021-03-27T16:57:12Z</time>
      </trkpt>
      <trkpt lat="42.891234" lon="-5.881982">
        <ele>1124.82</ele>
        <time>2021-03-27T16:57:14Z</time>
      </trkpt>
      <trkpt lat="42.891378" lon="-5.881973">
        <ele>1124.15</ele>
        <time>2021-03-27T16:57:17Z</time>
      </trkpt>
      <trkpt lat="42.891748" lon="-5.8818">
        <ele>1126.43</ele>
        <time>2021-03-27T16:57:19Z</time>
      </trkpt>
      <trkpt lat="42.891967" lon="-5.881738">
        <ele>1125.6</ele>
        <time>2021-03-27T16:57:22Z</time>
      </trkpt>
      <trkpt lat="42.892203" lon="-5.881733">
        <ele>1122.61</ele>
        <time>2021-03-27T16:57:24Z</time>
      </trkpt>
      <trkpt lat="42.892442" lon="-5.881756">
        <ele>1120.66</ele>
        <time>2021-03-27T16:57:27Z</time>
      </trkpt>
      <trkpt lat="42.892596" lon="-5.881725">
        <ele>1120.84</ele>
        <time>2021-03-27T16:57:29Z</time>
      </trkpt>
      <trkpt lat="42.892737" lon="-5.881637">
        <ele>1121.99</ele>
        <time>2021-03-27T16:57:32Z</time>
      </trkpt>
      <trkpt lat="42.89286" lon="-5.881481">
        <ele>1122.94</ele>
        <time>2021-03-27T16:57:34Z</time>
      </trkpt>
      <trkpt lat="42.893256" lon="-5.880553">
        <ele>1125.08</ele>
        <time>2021-03-27T16:57:36Z</time>
      </trkpt>
      <trkpt lat="42.893395" lon="-5.88006">
        <ele>1121.63</ele>
        <time>2021-03-27T16:57:39Z</time>
      </trkpt>
      <trkpt lat="42.893601" lon="-5.879016">
        <ele>1124.31</ele>
        <time>2021-03-27T16:57:41Z</time>
      </trkpt>
      <trkpt lat="42.893889" lon="-5.878334">
        <ele>1117.99</ele>
        <time>2021-03-27T16:57:44Z</time>
      </trkpt>
      <trkpt lat="42.893988" lon="-5.878018">
        <ele>1118.64</ele>
        <time>2021-03-27T16:57:46Z</time>
      </trkpt>
      <trkpt lat="42.894009" lon="-5.87762">
        <ele>1118.49</ele>
        <time>2021-03-27T16:57:49Z</time>
      </trkpt>
      <trkpt lat="42.893954" lon="-5.877313">
        <ele>1117.37</ele>
        <time>2021-03-27T16:57:51Z</time>
      </trkpt>
      <trkpt lat="42.893756" lon="-5.876852">
        <ele>1120.68</ele>
        <time>2021-03-27T16:57:54Z</time>
      </trkpt>
      <trkpt lat="42.893697" lon="-5.876665">
        <ele>1122.68</ele>
        <time>2021-03-27T16:57:56Z</time>
      </trkpt>
      <trkpt lat="42.893665" lon="-5.876404">
        <ele>1125.05</ele>
        <time>2021-03-27T16:57:58Z</time>
      </trkpt>
      <trkpt lat="42.893642" lon="-5.875733">
        <ele>1128.34</ele>
        <time>2021-03-27T16:58:01Z</time>
      </trkpt>
      <trkpt lat="42.893665" lon="-5.875565">
        <ele>1128.99</ele>
        <time>2021-03-27T16:58:03Z</time>
      </trkpt>
      <trkpt lat="42.89376" lon="-5.875329">
        <ele>1129.65</ele>
        <time>2021-03-27T16:58:06Z</time>
      </trkpt>
      <trkpt lat="42.894006" lon="-5.874918">
        <ele>1128.15</ele>
        <time>2021-03-27T16:58:08Z</time>
      </trkpt>
      <trkpt lat="42.894097" lon="-5.874688">
        <ele>1125.39</ele>
        <time>2021-03-27T16:58:11Z</time>
      </trkpt>
      <trkpt lat="42.894129" lon="-5.874477">
        <ele>1123.11</ele>
        <time>2021-03-27T16:58:13Z</time>
      </trkpt>
      <trkpt lat="42.894148" lon="-5.873929">
        <ele>1126.97</ele>
        <time>2021-03-27T16:58:16Z</time>
      </trkpt>
      <trkpt lat="42.894375" lon="-5.873351">
        <ele>1127.76</ele>
        <time>2021-03-27T16:58:18Z</time>
      </trkpt>
      <trkpt lat="42.894471" lon="-5.873202">
        <ele>1128.33</ele>
        <time>2021-03-27T16:58:21Z</time>
      </trkpt>
      <trkpt lat="42.894662" lon="-5.873059">
        <ele>1126.82</ele>
        <time>2021-03-27T16:58:23Z</time>
      </trkpt>
      <trkpt lat="42.895268" lon="-5.872928">
        <ele>1118.48</ele>
        <time>2021-03-27T16:58:25Z</time>
      </trkpt>
      <trkpt lat="42.895418" lon="-5.87281">
        <ele>1115.46</ele>
        <time>2021-03-27T16:58:28Z</time>
      </trkpt>
      <trkpt lat="42.895546" lon="-5.872642">
        <ele>1114.78</ele>
        <time>2021-03-27T16:58:30Z</time>
      </trkpt>
      <trkpt lat="42.895715" lon="-5.872294">
        <ele>1121.48</ele>
        <time>2021-03-27T16:58:33Z</time>
      </trkpt>
      <trkpt lat="42.895997" lon="-5.872008">
        <ele>1125.67</ele>
        <time>2021-03-27T16:58:35Z</time>
      </trkpt>
      <trkpt lat="42.896746" lon="-5.871765">
        <ele>1124.01</ele>
        <time>2021-03-27T16:58:38Z</time>
      </trkpt>
      <trkpt lat="42.897338" lon="-5.87169">
        <ele>1119.13</ele>
        <time>2021-03-27T16:58:40Z</time>
      </trkpt>
      <trkpt lat="42.897498" lon="-5.871634">
        <ele>1119.32</ele>
        <time>2021-03-27T16:58:43Z</time>
      </trkpt>
      <trkpt lat="42.897886" lon="-5.871312">
        <ele>1122.66</ele>
        <time>2021-03-27T16:58:45Z</time>
      </trkpt>
      <trkpt lat="42.898077" lon="-5.871192">
        <ele>1123.54</ele>
        <time>2021-03-27T16:58:48Z</time>
      </trkpt>
      <trkpt lat="42.898233" lon="-5.871145">
        <ele>1123.42</ele>
        <time>2021-03-27T16:58:50Z</time>
      </trkpt>
      <trkpt lat="42.898332" lon="-5.871162">
        <ele>1122.27</ele>
        <time>2021-03-27T16:58:52Z</time>
      </trkpt>
      <trkpt lat="42.898437" lon="-5.87126">
        <ele>1120.33</ele>
        <time>2021-03-27T16:58:55Z</time>
      </trkpt>
      <trkpt lat="42.898516" lon="-5.871363">
        <ele>1119.19</ele>
        <time>2021-03-27T16:58:57Z</time>
      </trkpt>
      <trkpt lat="42.898544" lon="-5.871426">
        <ele>1119.2</ele>
        <time>2021-03-27T16:59:00Z</time>
      </trkpt>
      <trkpt lat="42.898644" lon="-5.871546">
        <ele>1120.25</ele>
        <time>2021-03-27T16:59:02Z</time>
      </trkpt>
      <trkpt lat="42.898803" lon="-5.871577">
        <ele>1121.04</ele>
        <time>2021-03-27T16:59:04Z</time>
      </trkpt>
      <trkpt lat="42.898903" lon="-5.871533">
        <ele>1121.3</ele>
        <time>2021-03-27T16:59:07Z</time>
      </trkpt>
      <trkpt lat="42.899343" lon="-5.871081">
        <ele>1125.24</ele>
        <time>2021-03-27T16:59:09Z</time>
      </trkpt>
      <trkpt lat="42.899582" lon="-5.8708">
        <ele>1127.42</ele>
        <time>2021-03-27T16:59:11Z</time>
      </trkpt>
      <trkpt lat="42.899749" lon="-5.870517">
        <ele>1128.16</ele>
        <time>2021-03-27T16:59:13Z</time>
      </trkpt>
      <trkpt lat="42.900069" lon="-5.869595">
        <ele>1125.85</ele>
        <time>2021-03-27T16:59:16Z</time>
      </trkpt>
      <trkpt lat="42.900093" lon="-5.869316">
        <ele>1125.79</ele>
        <time>2021-03-27T16:59:18Z</time>
      </trkpt>
      <trkpt lat="42.900128" lon="-5.86832">
        <ele>1129.9</ele>
        <time>2021-03-27T16:59:20Z</time>
      </trkpt>
      <trkpt lat="42.900182" lon="-5.867979">
        <ele>1132.87</ele>
        <time>2021-03-27T16:59:22Z</time>
      </trkpt>
      <trkpt lat="42.90025" lon="-5.867738">
        <ele>1133.48</ele>
        <time>2021-03-27T16:59:25Z</time>
      </trkpt>
      <trkpt lat="42.900473" lon="-5.867347">
        <ele>1136.27</ele>
        <time>2021-03-27T16:59:27Z</time>
      </trkpt>
      <trkpt lat="42.900614" lon="-5.867148">
        <ele>1137.19</ele>
        <time>2021-03-27T16:59:29Z</time>
      </trkpt>
      <trkpt lat="42.900726" lon="-5.866919">
        <ele>1136.25</ele>
        <time>2021-03-27T16:59:31Z</time>
      </trkpt>
      <trkpt lat="42.900853" lon="-5.86658">
        <ele>1135.35</ele>
        <time>2021-03-27T16:59:34Z</time>
      </trkpt>
      <trkpt lat="42.900945" lon="-5.865852">
        <ele>1138.12</ele>
        <time>2021-03-27T16:59:36Z</time>
      </trkpt>
      <trkpt lat="42.90119" lon="-5.865052">
        <ele>1144.06</ele>
        <time>2021-03-27T16:59:38Z</time>
      </trkpt>
      <trkpt lat="42.901282" lon="-5.864433">
        <ele>1145.82</ele>
        <time>2021-03-27T16:59:41Z</time>
      </trkpt>
      <trkpt lat="42.901355" lon="-5.863205">
        <ele>1146.94</ele>
        <time>2021-03-27T16:59:43Z</time>
      </trkpt>
      <trkpt lat="42.901466" lon="-5.862477">
        <ele>1149.16</ele>
        <time>2021-03-27T16:59:45Z</time>
      </trkpt>
      <trkpt lat="42.901564" lon="-5.861311">
        <ele>1158.24</ele>
        <time>2021-03-27T16:59:47Z</time>
      </trkpt>
      <trkpt lat="42.901551" lon="-5.86086">
        <ele>1159.41</ele>
        <time>2021-03-27T16:59:50Z</time>
      </trkpt>
      <trkpt lat="42.901463" lon="-5.860503">
        <ele>1158.28</ele>
        <time>2021-03-27T16:59:52Z</time>
      </trkpt>
      <trkpt lat="42.901422" lon="-5.858936">
        <ele>1156.89</ele>
        <time>2021-03-27T16:59:54Z</time>
      </trkpt>
      <trkpt lat="42.901696" lon="-5.857919">
        <ele>1160.41</ele>
        <time>2021-03-27T16:59:56Z</time>
      </trkpt>
      <trkpt lat="42.901709" lon="-5.857574">
        <ele>1159.74</ele>
        <time>2021-03-27T16:59:59Z</time>
      </trkpt>
      <trkpt lat="42.901649" lon="-5.85686">
        <ele>1163.6</ele>
        <time>2021-03-27T17:00:01Z</time>
      </trkpt>
      <trkpt lat="42.901668" lon="-5.856588">
        <ele>1164.33</ele>
        <time>2021-03-27T17:00:03Z</time>
      </trkpt>
      <trkpt lat="42.901862" lon="-5.85583">
        <ele>1173.94</ele>
        <time>2021-03-27T17:00:05Z</time>
      </trkpt>
      <trkpt lat="42.901909" lon="-5.855129">
        <ele>1177.63</ele>
        <time>2021-03-27T17:00:08Z</time>
      </trkpt>
      <trkpt lat="42.902055" lon="-5.854614">
        <ele>1182.68</ele>
        <time>2021-03-27T17:00:10Z</time>
      </trkpt>
      <trkpt lat="42.902143" lon="-5.854005">
        <ele>1186.28</ele>
        <time>2021-03-27T17:00:12Z</time>
      </trkpt>
      <trkpt lat="42.902257" lon="-5.853698">
        <ele>1188.39</ele>
        <time>2021-03-27T17:00:14Z</time>
      </trkpt>
      <trkpt lat="42.902469" lon="-5.853401">
        <ele>1192.25</ele>
        <time>2021-03-27T17:00:17Z</time>
      </trkpt>
      <trkpt lat="42.902928" lon="-5.85258">
        <ele>1195.0</ele>
        <time>2021-03-27T17:00:19Z</time>
      </trkpt>
      <trkpt lat="42.903017" lon="-5.851826">
        <ele>1192.31</ele>
        <time>2021-03-27T17:00:21Z</time>
      </trkpt>
      <trkpt lat="42.903196" lon="-5.851206">
        <ele>1198.55</ele>
        <time>2021-03-27T17:00:23Z</time>
      </trkpt>
      <trkpt lat="42.903214" lon="-5.850973">
        <ele>1201.42</ele>
        <time>2021-03-27T17:00:26Z</time>
      </trkpt>
      <trkpt lat="42.90304" lon="-5.850116">
        <ele>1196.7</ele>
        <time>2021-03-27T17:00:28Z</time>
      </trkpt>
      <trkpt lat="42.902997" lon="-5.849383">
        <ele>1204.22</ele>
        <time>2021-03-27T17:00:30Z</time>
      </trkpt>
      <trkpt lat="42.903007" lon="-5.848754">
        <ele>1207.67</ele>
        <time>2021-03-27T17:00:33Z</time>
      </trkpt>
      <trkpt lat="42.902889" lon="-5.848148">
        <ele>1205.27</ele>
        <time>2021-03-27T17:00:35Z</time>
      </trkpt>
      <trkpt lat="42.902913" lon="-5.847313">
        <ele>1213.85</ele>
        <time>2021-03-27T17:00:37Z</time>
      </trkpt>
      <trkpt lat="42.903107" lon="-5.846734">
        <ele>1222.66</ele>
        <time>2021-03-27T17:00:39Z</time>
      </trkpt>
      <trkpt lat="42.903096" lon="-5.846524">
        <ele>1220.74</ele>
        <time>2021-03-27T17:00:42Z</time>
      </trkpt>
      <trkpt lat="42.903064" lon="-5.846316">
        <ele>1218.36</ele>
        <time>2021-03-27T17:00:44Z</time>
      </trkpt>
      <trkpt lat="42.903006" lon="-5.846006">
        <ele>1217.75</ele>
        <time>2021-03-27T17:00:46Z</time>
      </trkpt>
      <trkpt lat="42.903071" lon="-5.845732">
        <ele>1221.27</ele>
        <time>2021-03-27T17:00:48Z</time>
      </trkpt>
      <trkpt lat="42.903274" lon="-5.845139">
        <ele>1226.55</ele>
        <time>2021-03-27T17:00:51Z</time>
      </trkpt>
      <trkpt lat="42.903562" lon="-5.844408">
        <ele>1236.81</ele>
        <time>2021-03-27T17:00:53Z</time>
      </trkpt>
      <trkpt lat="42.903622" lon="-5.844132">
        <ele>1237.51</ele>
        <time>2021-03-27T17:00:55Z</time>
      </trkpt>
      <trkpt lat="42.903642" lon="-5.843298">
        <ele>1235.32</ele>
        <time>2021-03-27T17:00:57Z</time>
      </trkpt>
      <trkpt lat="42.903593" lon="-5.842922">
        <ele>1232.45</ele>
        <time>2021-03-27T17:01:00Z</time>
      </trkpt>
      <trkpt lat="42.903598" lon="-5.842518">
        <ele>1233.57</ele>
        <time>2021-03-27T17:01:02Z</time>
      </trkpt>
      <trkpt lat="42.903665" lon="-5.842139">
        <ele>1238.16</ele>
        <time>2021-03-27T17:01:04Z</time>
      </trkpt>
      <trkpt lat="42.90376" lon="-5.841867">
        <ele>1244.09</ele>
        <time>2021-03-27T17:01:06Z</time>
      </trkpt>
      <trkpt lat="42.90377" lon="-5.841763">
        <ele>1245.44</ele>
        <time>2021-03-27T17:01:09Z</time>
      </trkpt>
      <trkpt lat="42.903715" lon="-5.841623">
        <ele>1245.74</ele>
        <time>2021-03-27T17:01:11Z</time>
      </trkpt>
      <trkpt lat="42.90363" lon="-5.841483">
        <ele>1244.88</ele>
        <time>2021-03-27T17:01:13Z</time>
      </trkpt>
      <trkpt lat="42.903419" lon="-5.840789">
        <ele>1246.09</ele>
        <time>2021-03-27T17:01:15Z</time>
      </trkpt>
      <trkpt lat="42.903381" lon="-5.840523">
        <ele>1244.24</ele>
        <time>2021-03-27T17:01:18Z</time>
      </trkpt>
      <trkpt lat="42.903462" lon="-5.83831">
        <ele>1256.39</ele>
        <time>2021-03-27T17:01:20Z</time>
      </trkpt>
      <trkpt lat="42.903499" lon="-5.837986">
        <ele>1256.49</ele>
        <time>2021-03-27T17:01:22Z</time>
      </trkpt>
      <trkpt lat="42.903575" lon="-5.83772">
        <ele>1256.15</ele>
        <time>2021-03-27T17:01:24Z</time>
      </trkpt>
      <trkpt lat="42.903714" lon="-5.83752">
        <ele>1258.63</ele>
        <time>2021-03-27T17:01:27Z</time>
      </trkpt>
      <trkpt lat="42.904211" lon="-5.837135">
        <ele>1269.12</ele>
        <time>2021-03-27T17:01:29Z</time>
      </trkpt>
      <trkpt lat="42.90426" lon="-5.837034">
        <ele>1269.08</ele>
        <time>2021-03-27T17:01:31Z</time>
      </trkpt>
      <trkpt lat="42.904254" lon="-5.836905">
        <ele>1268.26</ele>
        <time>2021-03-27T17:01:34Z</time>
      </trkpt>
      <trkpt lat="42.904171" lon="-5.836728">
        <ele>1268.42</ele>
        <time>2021-03-27T17:01:36Z</time>
      </trkpt>
      <trkpt lat="42.904008" lon="-5.83653">
        <ele>1267.95</ele>
        <time>2021-03-27T17:01:38Z</time>
      </trkpt>
      <trkpt lat="42.90393" lon="-5.836343">
        <ele>1268.91</ele>
        <time>2021-03-27T17:01:40Z</time>
      </trkpt>
      <trkpt lat="42.903753" lon="-5.835587">
        <ele>1270.27</ele>
        <time>2021-03-27T17:01:43Z</time>
      </trkpt>
      <trkpt lat="42.903727" lon="-5.835421">
        <ele>1270.41</ele>
        <time>2021-03-27T17:01:45Z</time>
      </trkpt>
      <trkpt lat="42.903711" lon="-5.835245">
        <ele>1270.9</ele>
        <time>2021-03-27T17:01:47Z</time>
      </trkpt>
      <trkpt lat="42.903747" lon="-5.834649">
        <ele>1275.66</ele>
        <time>2021-03-27T17:01:49Z</time>
      </trkpt>
      <trkpt lat="42.90402" lon="-5.833766">
        <ele>1286.55</ele>
        <time>2021-03-27T17:01:52Z</time>
      </trkpt>
      <trkpt lat="42.904087" lon="-5.833411">
        <ele>1289.8</ele>
        <time>2021-03-27T17:01:54Z</time>
      </trkpt>
      <trkpt lat="42.904128" lon="-5.83307">
        <ele>1288.96</ele>
        <time>2021-03-27T17:01:56Z</time>
      </trkpt>
      <trkpt lat="42.904278" lon="-5.832719">
        <ele>1291.77</ele>
        <time>2021-03-27T17:01:58Z</time>
      </trkpt>
      <trkpt lat="42.904453" lon="-5.832388">
        <ele>1295.38</ele>
        <time>2021-03-27T17:02:01Z</time>
      </trkpt>
      <trkpt lat="42.904511" lon="-5.832207">
        <ele>1295.15</ele>
        <time>2021-03-27T17:02:03Z</time>
      </trkpt>
      <trkpt lat="42.90475" lon="-5.830884">
        <ele>1300.56</ele>
        <time>2021-03-27T17:02:05Z</time>
      </trkpt>
      <trkpt lat="42.904862" lon="-5.829969">
        <ele>1299.36</ele>
        <time>2021-03-27T17:02:07Z</time>
      </trkpt>
      <trkpt lat="42.90495" lon="-5.829501">
        <ele>1299.58</ele>
        <time>2021-03-27T17:02:10Z</time>
      </trkpt>
      <trkpt lat="42.905209" lon="-5.8287">
        <ele>1302.66</ele>
        <time>2021-03-27T17:02:12Z</time>
      </trkpt>
      <trkpt lat="42.905378" lon="-5.828443">
        <ele>1306.61</ele>
        <time>2021-03-27T17:02:14Z</time>
      </trkpt>
      <trkpt lat="42.90557" lon="-5.828279">
        <ele>1310.51</ele>
        <time>2021-03-27T17:02:16Z</time>
      </trkpt>
      <trkpt lat="42.906112" lon="-5.827746">
        <ele>1315.58</ele>
        <time>2021-03-27T17:02:19Z</time>
      </trkpt>
      <trkpt lat="42.906999" lon="-5.827242">
        <ele>1321.11</ele>
        <time>2021-03-27T17:02:21Z</time>
      </trkpt>
      <trkpt lat="42.907378" lon="-5.827171">
        <ele>1327.16</ele>
        <time>2021-03-27T17:02:23Z</time>
      </trkpt>
      <trkpt lat="42.907777" lon="-5.827177">
        <ele>1335.69</ele>
        <time>2021-03-27T17:02:26Z</time>
      </trkpt>
      <trkpt lat="42.908004" lon="-5.827073">
        <ele>1336.77</ele>
        <time>2021-03-27T17:02:28Z</time>
      </trkpt>
      <trkpt lat="42.908141" lon="-5.826984">
        <ele>1336.55</ele>
        <time>2021-03-27T17:02:30Z</time>
      </trkpt>
      <trkpt lat="42.908381" lon="-5.826941">
        <ele>1339.82</ele>
        <time>2021-03-27T17:02:32Z</time>
      </trkpt>
      <trkpt lat="42.908556" lon="-5.826828">
        <ele>1341.74</ele>
        <time>2021-03-27T17:02:35Z</time>
      </trkpt>
      <trkpt lat="42.908716" lon="-5.82662">
        <ele>1344.44</ele>
        <time>2021-03-27T17:02:37Z</time>
      </trkpt>
      <trkpt lat="42.90873" lon="-5.82649">
        <ele>1344.95</ele>
        <time>2021-03-27T17:02:39Z</time>
      </trkpt>
      <trkpt lat="42.908687" lon="-5.826387">
        <ele>1343.93</ele>
        <time>2021-03-27T17:02:41Z</time>
      </trkpt>
      <trkpt lat="42.908615" lon="-5.826326">
        <ele>1343.42</ele>
        <time>2021-03-27T17:02:44Z</time>
      </trkpt>
      <trkpt lat="42.908305" lon="-5.826359">
        <ele>1341.27</ele>
        <time>2021-03-27T17:02:46Z</time>
      </trkpt>
      <trkpt lat="42.908158" lon="-5.826351">
        <ele>1338.95</ele>
        <time>2021-03-27T17:02:48Z</time>
      </trkpt>
      <trkpt lat="42.907579" lon="-5.826201">
        <ele>1340.47</ele>
        <time>2021-03-27T17:02:50Z</time>
      </trkpt>
      <trkpt lat="42.907112" lon="-5.826029">
        <ele>1344.67</ele>
        <time>2021-03-27T17:02:53Z</time>
      </trkpt>
      <trkpt lat="42.906673" lon="-5.825775">
        <ele>1347.21</ele>
        <time>2021-03-27T17:02:55Z</time>
      </trkpt>
      <trkpt lat="42.90623" lon="-5.825414">
        <ele>1351.27</ele>
        <time>2021-03-27T17:02:57Z</time>
      </trkpt>
      <trkpt lat="42.906057" lon="-5.82533">
        <ele>1348.84</ele>
        <time>2021-03-27T17:02:59Z</time>
      </trkpt>
      <trkpt lat="42.905946" lon="-5.825333">
        <ele>1345.28</ele>
        <time>2021-03-27T17:03:02Z</time>
      </trkpt>
      <trkpt lat="42.905836" lon="-5.825378">
        <ele>1340.92</ele>
        <time>2021-03-27T17:03:04Z</time>
      </trkpt>
      <trkpt lat="42.905753" lon="-5.825371">
        <ele>1338.39</ele>
        <time>2021-03-27T17:03:06Z</time>
      </trkpt>
      <trkpt lat="42.905727" lon="-5.825296">
        <ele>1338.84</ele>
        <time>2021-03-27T17:03:08Z</time>
      </trkpt>
      <trkpt lat="42.905741" lon="-5.825219">
        <ele>1341.29</ele>
        <time>2021-03-27T17:03:11Z</time>
      </trkpt>
      <trkpt lat="42.905802" lon="-5.825168">
        <ele>1344.97</ele>
        <time>2021-03-27T17:03:13Z</time>
      </trkpt>
      <trkpt lat="42.906" lon="-5.825133">
        <ele>1352.57</ele>
        <time>2021-03-27T17:03:15Z</time>
      </trkpt>
      <trkpt lat="42.906154" lon="-5.825172">
        <ele>1356.32</ele>
        <time>2021-03-27T17:03:17Z</time>
      </trkpt>
      <trkpt lat="42.906733" lon="-5.825502">
        <ele>1358.64</ele>
        <time>2021-03-27T17:03:20Z</time>
      </trkpt>
      <trkpt lat="42.907141" lon="-5.825622">
        <ele>1362.29</ele>
        <time>2021-03-27T17:03:22Z</time>
      </trkpt>
      <trkpt lat="42.907409" lon="-5.825667">
        <ele>1363.78</ele>
        <time>2021-03-27T17:03:24Z</time>
      </trkpt>
      <trkpt lat="42.908198" lon="-5.82559">
        <ele>1365.54</ele>
        <time>2021-03-27T17:03:27Z</time>
      </trkpt>
      <trkpt lat="42.90835" lon="-5.825529">
        <ele>1366.84</ele>
        <time>2021-03-27T17:03:29Z</time>
      </trkpt>
      <trkpt lat="42.908686" lon="-5.82525">
        <ele>1372.69</ele>
        <time>2021-03-27T17:03:31Z</time>
      </trkpt>
      <trkpt lat="42.909002" lon="-5.825158">
        <ele>1373.57</ele>
        <time>2021-03-27T17:03:33Z</time>
      </trkpt>
      <trkpt lat="42.909036" lon="-5.8251">
        <ele>1375.31</ele>
        <time>2021-03-27T17:03:36Z</time>
      </trkpt>
      <trkpt lat="42.909197" lon="-5.825061">
        <ele>1375.06</ele>
        <time>2021-03-27T17:03:38Z</time>
      </trkpt>
      <trkpt lat="42.909409" lon="-5.82508">
        <ele>1374.66</ele>
        <time>2021-03-27T17:03:41Z</time>
      </trkpt>
      <trkpt lat="42.909514" lon="-5.825069">
        <ele>1375.06</ele>
        <time>2021-03-27T17:03:44Z</time>
      </trkpt>
      <trkpt lat="42.90969" lon="-5.824981">
        <ele>1377.48</ele>
        <time>2021-03-27T17:03:47Z</time>
      </trkpt>
      <trkpt lat="42.910008" lon="-5.82461">
        <ele>1383.78</ele>
        <time>2021-03-27T17:03:50Z</time>
      </trkpt>
      <trkpt lat="42.910453" lon="-5.824477">
        <ele>1385.36</ele>
        <time>2021-03-27T17:03:53Z</time>
      </trkpt>
      <trkpt lat="42.910971" lon="-5.824008">
        <ele>1389.11</ele>
        <time>2021-03-27T17:03:56Z</time>
      </trkpt>
      <trkpt lat="42.911137" lon="-5.823743">
        <ele>1393.9</ele>
        <time>2021-03-27T17:03:58Z</time>
      </trkpt>
      <trkpt lat="42.911821" lon="-5.8228">
        <ele>1396.5</ele>
        <time>2021-03-27T17:04:01Z</time>
      </trkpt>
      <trkpt lat="42.912292" lon="-5.821514">
        <ele>1408.25</ele>
        <time>2021-03-27T17:04:04Z</time>
      </trkpt>
      <trkpt lat="42.912337" lon="-5.821449">
        <ele>1409.08</ele>
        <time>2021-03-27T17:04:07Z</time>
      </trkpt>
      <trkpt lat="42.912443" lon="-5.821449">
        <ele>1408.33</ele>
        <time>2021-03-27T17:04:10Z</time>
      </trkpt>
      <trkpt lat="42.912506" lon="-5.821479">
        <ele>1407.48</ele>
        <time>2021-03-27T17:04:13Z</time>
      </trkpt>
      <trkpt lat="42.912615" lon="-5.821589">
        <ele>1407.95</ele>
        <time>2021-03-27T17:04:16Z</time>
      </trkpt>
      <trkpt lat="42.912786" lon="-5.822147">
        <ele>1412.5</ele>
        <time>2021-03-27T17:04:18Z</time>
      </trkpt>
      <trkpt lat="42.9128" lon="-5.823145">
        <ele>1415.47</ele>
        <time>2021-03-27T17:04:21Z</time>
      </trkpt>
      <trkpt lat="42.912782" lon="-5.823382">
        <ele>1416.3</ele>
        <time>2021-03-27T17:04:24Z</time>
      </trkpt>
      <trkpt lat="42.912533" lon="-5.824053">
        <ele>1415.88</ele>
        <time>2021-03-27T17:04:27Z</time>
      </trkpt>
      <trkpt lat="42.912488" lon="-5.824263">
        <ele>1417.76</ele>
        <time>2021-03-27T17:04:30Z</time>
      </trkpt>
      <trkpt lat="42.912359" lon="-5.825123">
        <ele>1425.22</ele>
        <time>2021-03-27T17:04:33Z</time>
      </trkpt>
      <trkpt lat="42.912307" lon="-5.825389">
        <ele>1425.9</ele>
        <time>2021-03-27T17:04:36Z</time>
      </trkpt>
      <trkpt lat="42.912238" lon="-5.825648">
        <ele>1426.89</ele>
        <time>2021-03-27T17:04:38Z</time>
      </trkpt>
      <trkpt lat="42.911678" lon="-5.827132">
        <ele>1431.36</ele>
        <time>2021-03-27T17:04:41Z</time>
      </trkpt>
      <trkpt lat="42.911336" lon="-5.827637">
        <ele>1435.08</ele>
        <time>2021-03-27T17:04:44Z</time>
      </trkpt>
      <trkpt lat="42.911135" lon="-5.827789">
        <ele>1437.49</ele>
        <time>2021-03-27T17:04:47Z</time>
      </trkpt>
      <trkpt lat="42.91085" lon="-5.8278">
        <ele>1435.54</ele>
        <time>2021-03-27T17:04:50Z</time>
      </trkpt>
      <trkpt lat="42.91077" lon="-5.827829">
        <ele>1434.67</ele>
        <time>2021-03-27T17:04:53Z</time>
      </trkpt>
      <trkpt lat="42.910714" lon="-5.827947">
        <ele>1435.12</ele>
        <time>2021-03-27T17:04:56Z</time>
      </trkpt>
      <trkpt lat="42.910714" lon="-5.828156">
        <ele>1437.56</ele>
        <time>2021-03-27T17:04:58Z</time>
      </trkpt>
      <trkpt lat="42.910788" lon="-5.828255">
        <ele>1441.22</ele>
        <time>2021-03-27T17:05:01Z</time>
      </trkpt>
      <trkpt lat="42.910901" lon="-5.828292">
        <ele>1444.85</ele>
        <time>2021-03-27T17:05:04Z</time>
      </trkpt>
      <trkpt lat="42.911573" lon="-5.828022">
        <ele>1453.28</ele>
        <time>2021-03-27T17:05:07Z</time>
      </trkpt>
      <trkpt lat="42.911921" lon="-5.827561">
        <ele>1455.44</ele>
        <time>2021-03-27T17:05:10Z</time>
      </trkpt>
      <trkpt lat="42.912612" lon="-5.826379">
        <ele>1465.42</ele>
        <time>2021-03-27T17:05:13Z</time>
      </trkpt>
      <trkpt lat="42.913147" lon="-5.825139">
        <ele>1472.11</ele>
        <time>2021-03-27T17:05:15Z</time>
      </trkpt>
      <trkpt lat="42.913367" lon="-5.824742">
        <ele>1477.48</ele>
        <time>2021-03-27T17:05:18Z</time>
      </trkpt>
      <trkpt lat="42.913578" lon="-5.824063">
        <ele>1480.25</ele>
        <time>2021-03-27T17:05:21Z</time>
      </trkpt>
      <trkpt lat="42.913819" lon="-5.823413">
        <ele>1481.41</ele>
        <time>2021-03-27T17:05:24Z</time>
      </trkpt>
      <trkpt lat="42.914096" lon="-5.822735">
        <ele>1484.79</ele>
        <time>2021-03-27T17:05:27Z</time>
      </trkpt>
      <trkpt lat="42.914164" lon="-5.822702">
        <ele>1489.13</ele>
        <time>2021-03-27T17:05:30Z</time>
      </trkpt>
      <trkpt lat="42.914227" lon="-5.822717">
        <ele>1489.53</ele>
        <time>2021-03-27T17:05:33Z</time>
      </trkpt>
      <trkpt lat="42.914735" lon="-5.822994">
        <ele>1493.2</ele>
        <time>2021-03-27T17:05:35Z</time>
      </trkpt>
      <trkpt lat="42.914784" lon="-5.823026">
        <ele>1490.06</ele>
        <time>2021-03-27T17:05:38Z</time>
      </trkpt>
      <trkpt lat="42.914816" lon="-5.823082">
        <ele>1487.86</ele>
        <time>2021-03-27T17:05:41Z</time>
      </trkpt>
      <trkpt lat="42.914836" lon="-5.823168">
        <ele>1486.43</ele>
        <time>2021-03-27T17:05:44Z</time>
      </trkpt>
      <trkpt lat="42.914787" lon="-5.823929">
        <ele>1482.19</ele>
        <time>2021-03-27T17:05:47Z</time>
      </trkpt>
      <trkpt lat="42.914781" lon="-5.824547">
        <ele>1480.78</ele>
        <time>2021-03-27T17:05:50Z</time>
      </trkpt>
      <trkpt lat="42.914873" lon="-5.825497">
        <ele>1473.68</ele>
        <time>2021-03-27T17:05:53Z</time>
      </trkpt>
      <trkpt lat="42.914836" lon="-5.82675">
        <ele>1467.61</ele>
        <time>2021-03-27T17:05:55Z</time>
      </trkpt>
      <trkpt lat="42.914942" lon="-5.827603">
        <ele>1465.6</ele>
        <time>2021-03-27T17:05:58Z</time>
      </trkpt>
      <trkpt lat="42.914972" lon="-5.828194">
        <ele>1461.03</ele>
        <time>2021-03-27T17:06:01Z</time>
      </trkpt>
      <trkpt lat="42.91523" lon="-5.829211">
        <ele>1454.88</ele>
        <time>2021-03-27T17:06:04Z</time>
      </trkpt>
      <trkpt lat="42.915273" lon="-5.829334">
        <ele>1454.65</ele>
        <time>2021-03-27T17:06:07Z</time>
      </trkpt>
      <trkpt lat="42.915337" lon="-5.829429">
        <ele>1453.41</ele>
        <time>2021-03-27T17:06:10Z</time>
      </trkpt>
      <trkpt lat="42.915526" lon="-5.82949">
        <ele>1447.73</ele>
        <time>2021-03-27T17:06:13Z</time>
      </trkpt>
      <trkpt lat="42.915714" lon="-5.829524">
        <ele>1447.3</ele>
        <time>2021-03-27T17:06:15Z</time>
      </trkpt>
      <trkpt lat="42.915876" lon="-5.829515">
        <ele>1447.02</ele>
        <time>2021-03-27T17:06:18Z</time>
      </trkpt>
      <trkpt lat="42.91603" lon="-5.829481">
        <ele>1447.44</ele>
        <time>2021-03-27T17:06:21Z</time>
      </trkpt>
      <trkpt lat="42.916555" lon="-5.829256">
        <ele>1439.51</ele>
        <time>2021-03-27T17:06:24Z</time>
      </trkpt>
      <trkpt lat="42.916683" lon="-5.82927">
        <ele>1438.9</ele>
        <time>2021-03-27T17:06:27Z</time>
      </trkpt>
      <trkpt lat="42.916832" lon="-5.82933">
        <ele>1439.76</ele>
        <time>2021-03-27T17:06:30Z</time>
      </trkpt>
      <trkpt lat="42.917002" lon="-5.829315">
        <ele>1439.36</ele>
        <time>2021-03-27T17:06:33Z</time>
      </trkpt>
      <trkpt lat="42.917219" lon="-5.829184">
        <ele>1438.42</ele>
        <time>2021-03-27T17:06:35Z</time>
      </trkpt>
      <trkpt lat="42.917338" lon="-5.829067">
        <ele>1438.08</ele>
        <time>2021-03-27T17:06:38Z</time>
      </trkpt>
      <trkpt lat="42.917392" lon="-5.828866">
        <ele>1435.3</ele>
        <time>2021-03-27T17:06:41Z</time>
      </trkpt>
      <trkpt lat="42.917424" lon="-5.827705">
        <ele>1421.56</ele>
        <time>2021-03-27T17:06:44Z</time>
      </trkpt>
      <trkpt lat="42.917872" lon="-5.826653">
        <ele>1416.09</ele>
        <time>2021-03-27T17:06:47Z</time>
      </trkpt>
      <trkpt lat="42.917994" lon="-5.826538">
        <ele>1412.86</ele>
        <time>2021-03-27T17:06:50Z</time>
      </trkpt>
      <trkpt lat="42.918133" lon="-5.826527">
        <ele>1410.86</ele>
        <time>2021-03-27T17:06:53Z</time>
      </trkpt>
      <trkpt lat="42.918269" lon="-5.826579">
        <ele>1409.74</ele>
        <time>2021-03-27T17:06:55Z</time>
      </trkpt>
      <trkpt lat="42.918398" lon="-5.826697">
        <ele>1409.52</ele>
        <time>2021-03-27T17:06:58Z</time>
      </trkpt>
      <trkpt lat="42.918822" lon="-5.827423">
        <ele>1416.18</ele>
        <time>2021-03-27T17:07:01Z</time>
      </trkpt>
      <trkpt lat="42.918963" lon="-5.827493">
        <ele>1415.61</ele>
        <time>2021-03-27T17:07:04Z</time>
      </trkpt>
      <trkpt lat="42.919089" lon="-5.827466">
        <ele>1414.75</ele>
        <time>2021-03-27T17:07:07Z</time>
      </trkpt>
      <trkpt lat="42.919471" lon="-5.826776">
        <ele>1408.29</ele>
        <time>2021-03-27T17:07:10Z</time>
      </trkpt>
      <trkpt lat="42.919523" lon="-5.826537">
        <ele>1407.01</ele>
        <time>2021-03-27T17:07:13Z</time>
      </trkpt>
      <trkpt lat="42.919448" lon="-5.826065">
        <ele>1399.42</ele>
        <time>2021-03-27T17:07:15Z</time>
      </trkpt>
      <trkpt lat="42.919455" lon="-5.825793">
        <ele>1396.03</ele>
        <time>2021-03-27T17:07:18Z</time>
      </trkpt>
      <trkpt lat="42.919599" lon="-5.825448">
        <ele>1397.23</ele>
        <time>2021-03-27T17:07:21Z</time>
      </trkpt>
      <trkpt lat="42.919871" lon="-5.825342">
        <ele>1401.18</ele>
        <time>2021-03-27T17:07:24Z</time>
      </trkpt>
      <trkpt lat="42.920071" lon="-5.824925">
        <ele>1394.87</ele>
        <time>2021-03-27T17:07:27Z</time>
      </trkpt>
      <trkpt lat="42.920577" lon="-5.824573">
        <ele>1395.66</ele>
        <time>2021-03-27T17:07:30Z</time>
      </trkpt>
      <trkpt lat="42.92151" lon="-5.822146">
        <ele>1376.19</ele>
        <time>2021-03-27T17:07:32Z</time>
      </trkpt>
      <trkpt lat="42.922216" lon="-5.821327">
        <ele>1368.28</ele>
        <time>2021-03-27T17:07:35Z</time>
      </trkpt>
      <trkpt lat="42.922315" lon="-5.821104">
        <ele>1367.25</ele>
        <time>2021-03-27T17:07:38Z</time>
      </trkpt>
      <trkpt lat="42.922605" lon="-5.819729">
        <ele>1359.57</ele>
        <time>2021-03-27T17:07:41Z</time>
      </trkpt>
      <trkpt lat="42.922733" lon="-5.819467">
        <ele>1359.36</ele>
        <time>2021-03-27T17:07:44Z</time>
      </trkpt>
      <trkpt lat="42.923064" lon="-5.818958">
        <ele>1356.42</ele>
        <time>2021-03-27T17:07:47Z</time>
      </trkpt>
      <trkpt lat="42.923117" lon="-5.818772">
        <ele>1354.65</ele>
        <time>2021-03-27T17:07:50Z</time>
      </trkpt>
      <trkpt lat="42.923129" lon="-5.81858">
        <ele>1352.47</ele>
        <time>2021-03-27T17:07:52Z</time>
      </trkpt>
      <trkpt lat="42.922703" lon="-5.815778">
        <ele>1339.67</ele>
        <time>2021-03-27T17:07:55Z</time>
      </trkpt>
      <trkpt lat="42.922674" lon="-5.815396">
        <ele>1335.66</ele>
        <time>2021-03-27T17:07:58Z</time>
      </trkpt>
      <trkpt lat="42.922691" lon="-5.814973">
        <ele>1332.28</ele>
        <time>2021-03-27T17:08:01Z</time>
      </trkpt>
      <trkpt lat="42.923217" lon="-5.813187">
        <ele>1330.0</ele>
        <time>2021-03-27T17:08:04Z</time>
      </trkpt>
      <trkpt lat="42.92327" lon="-5.812605">
        <ele>1332.25</ele>
        <time>2021-03-27T17:08:07Z</time>
      </trkpt>
      <trkpt lat="42.923289" lon="-5.811942">
        <ele>1330.3</ele>
        <time>2021-03-27T17:08:10Z</time>
      </trkpt>
      <trkpt lat="42.923157" lon="-5.811467">
        <ele>1327.09</ele>
        <time>2021-03-27T17:08:12Z</time>
      </trkpt>
      <trkpt lat="42.923157" lon="-5.811129">
        <ele>1324.77</ele>
        <time>2021-03-27T17:08:15Z</time>
      </trkpt>
      <trkpt lat="42.923772" lon="-5.808988">
        <ele>1316.55</ele>
        <time>2021-03-27T17:08:18Z</time>
      </trkpt>
      <trkpt lat="42.923907" lon="-5.808637">
        <ele>1315.74</ele>
        <time>2021-03-27T17:08:21Z</time>
      </trkpt>
      <trkpt lat="42.92478" lon="-5.807175">
        <ele>1309.37</ele>
        <time>2021-03-27T17:08:24Z</time>
      </trkpt>
      <trkpt lat="42.924987" lon="-5.806936">
        <ele>1307.08</ele>
        <time>2021-03-27T17:08:27Z</time>
      </trkpt>
      <trkpt lat="42.928191" lon="-5.804672">
        <ele>1308.33</ele>
        <time>2021-03-27T17:08:30Z</time>
      </trkpt>
      <trkpt lat="42.928073" lon="-5.804592">
        <ele>1308.06</ele>
        <time>2021-03-27T17:08:32Z</time>
      </trkpt>
      <trkpt lat="42.927909" lon="-5.80458">
        <ele>1307.72</ele>
        <time>2021-03-27T17:08:34Z</time>
      </trkpt>
      <trkpt lat="42.927708" lon="-5.804626">
        <ele>1307.49</ele>
        <time>2021-03-27T17:08:36Z</time>
      </trkpt>
      <trkpt lat="42.927606" lon="-5.804624">
        <ele>1307.24</ele>
        <time>2021-03-27T17:08:38Z</time>
      </trkpt>
      <trkpt lat="42.92751" lon="-5.804579">
        <ele>1307.02</ele>
        <time>2021-03-27T17:08:40Z</time>
      </trkpt>
      <trkpt lat="42.927308" lon="-5.804398">
        <ele>1305.73</ele>
        <time>2021-03-27T17:08:42Z</time>
      </trkpt>
      <trkpt lat="42.927031" lon="-5.803973">
        <ele>1304.62</ele>
        <time>2021-03-27T17:08:44Z</time>
      </trkpt>
      <trkpt lat="42.92688" lon="-5.803667">
        <ele>1304.23</ele>
        <time>2021-03-27T17:08:46Z</time>
      </trkpt>
      <trkpt lat="42.926677" lon="-5.803376">
        <ele>1304.93</ele>
        <time>2021-03-27T17:08:48Z</time>
      </trkpt>
      <trkpt lat="42.926638" lon="-5.803054">
        <ele>1305.1</ele>
        <time>2021-03-27T17:08:50Z</time>
      </trkpt>
      <trkpt lat="42.926887" lon="-5.802138">
        <ele>1304.92</ele>
        <time>2021-03-27T17:08:52Z</time>
      </trkpt>
      <trkpt lat="42.926999" lon="-5.801352">
        <ele>1304.34</ele>
        <time>2021-03-27T17:08:54Z</time>
      </trkpt>
      <trkpt lat="42.927196" lon="-5.800974">
        <ele>1302.9</ele>
        <time>2021-03-27T17:08:56Z</time>
      </trkpt>
      <trkpt lat="42.927274" lon="-5.800746">
        <ele>1302.63</ele>
        <time>2021-03-27T17:08:58Z</time>
      </trkpt>
      <trkpt lat="42.927293" lon="-5.799662">
        <ele>1305.56</ele>
        <time>2021-03-27T17:09:00Z</time>
      </trkpt>
      <trkpt lat="42.927202" lon="-5.799361">
        <ele>1305.17</ele>
        <time>2021-03-27T17:09:02Z</time>
      </trkpt>
      <trkpt lat="42.92706" lon="-5.799188">
        <ele>1303.82</ele>
        <time>2021-03-27T17:09:04Z</time>
      </trkpt>
      <trkpt lat="42.925663" lon="-5.798322">
        <ele>1301.0</ele>
        <time>2021-03-27T17:09:06Z</time>
      </trkpt>
      <trkpt lat="42.925456" lon="-5.79824">
        <ele>1301.12</ele>
        <time>2021-03-27T17:09:08Z</time>
      </trkpt>
      <trkpt lat="42.925305" lon="-5.798299">
        <ele>1301.68</ele>
        <time>2021-03-27T17:09:10Z</time>
      </trkpt>
      <trkpt lat="42.924676" lon="-5.798977">
        <ele>1304.88</ele>
        <time>2021-03-27T17:09:12Z</time>
      </trkpt>
      <trkpt lat="42.924524" lon="-5.799049">
        <ele>1303.85</ele>
        <time>2021-03-27T17:09:14Z</time>
      </trkpt>
      <trkpt lat="42.924142" lon="-5.799032">
        <ele>1300.47</ele>
        <time>2021-03-27T17:09:16Z</time>
      </trkpt>
      <trkpt lat="42.923838" lon="-5.798994">
        <ele>1300.37</ele>
        <time>2021-03-27T17:09:18Z</time>
      </trkpt>
      <trkpt lat="42.923672" lon="-5.798873">
        <ele>1301.52</ele>
        <time>2021-03-27T17:09:20Z</time>
      </trkpt>
      <trkpt lat="42.923541" lon="-5.798684">
        <ele>1301.95</ele>
        <time>2021-03-27T17:09:22Z</time>
      </trkpt>
      <trkpt lat="42.92351" lon="-5.798454">
        <ele>1301.88</ele>
        <time>2021-03-27T17:09:24Z</time>
      </trkpt>
      <trkpt lat="42.923617" lon="-5.797419">
        <ele>1302.98</ele>
        <time>2021-03-27T17:09:26Z</time>
      </trkpt>
      <trkpt lat="42.923778" lon="-5.796859">
        <ele>1304.0</ele>
        <time>2021-03-27T17:09:28Z</time>
      </trkpt>
      <trkpt lat="42.923799" lon="-5.796398">
        <ele>1303.03</ele>
        <time>2021-03-27T17:09:30Z</time>
      </trkpt>
      <trkpt lat="42.92374" lon="-5.796223">
        <ele>1302.44</ele>
        <time>2021-03-27T17:09:32Z</time>
      </trkpt>
      <trkpt lat="42.923634" lon="-5.796113">
        <ele>1302.84</ele>
        <time>2021-03-27T17:09:34Z</time>
      </trkpt>
      <trkpt lat="42.923115" lon="-5.795937">
        <ele>1304.24</ele>
        <time>2021-03-27T17:09:36Z</time>
      </trkpt>
      <trkpt lat="42.922936" lon="-5.7958">
        <ele>1304.94</ele>
        <time>2021-03-27T17:09:38Z</time>
      </trkpt>
      <trkpt lat="42.922751" lon="-5.795552">
        <ele>1303.16</ele>
        <time>2021-03-27T17:09:40Z</time>
      </trkpt>
      <trkpt lat="42.922476" lon="-5.794958">
        <ele>1301.16</ele>
        <time>2021-03-27T17:09:42Z</time>
      </trkpt>
      <trkpt lat="42.921071" lon="-5.791751">
        <ele>1301.37</ele>
        <time>2021-03-27T17:09:44Z</time>
      </trkpt>
      <trkpt lat="42.920754" lon="-5.791483">
        <ele>1305.5</ele>
        <time>2021-03-27T17:09:46Z</time>
      </trkpt>
      <trkpt lat="42.920683" lon="-5.791268">
        <ele>1305.97</ele>
        <time>2021-03-27T17:09:48Z</time>
      </trkpt>
      <trkpt lat="42.92044" lon="-5.789275">
        <ele>1302.98</ele>
        <time>2021-03-27T17:09:50Z</time>
      </trkpt>
      <trkpt lat="42.920399" lon="-5.788647">
        <ele>1303.09</ele>
        <time>2021-03-27T17:09:52Z</time>
      </trkpt>
      <trkpt lat="42.920341" lon="-5.787258">
        <ele>1304.68</ele>
        <time>2021-03-27T17:09:54Z</time>
      </trkpt>
      <trkpt lat="42.920361" lon="-5.786492">
        <ele>1307.58</ele>
        <time>2021-03-27T17:09:56Z</time>
      </trkpt>
      <trkpt lat="42.920454" lon="-5.785361">
        <ele>1305.67</ele>
        <time>2021-03-27T17:09:58Z</time>
      </trkpt>
      <trkpt lat="42.920529" lon="-5.785031">
        <ele>1305.46</ele>
        <time>2021-03-27T17:10:00Z</time>
      </trkpt>
      <trkpt lat="42.920605" lon="-5.784782">
        <ele>1305.15</ele>
        <time>2021-03-27T17:10:02Z</time>
      </trkpt>
      <trkpt lat="42.920719" lon="-5.784563">
        <ele>1302.72</ele>
        <time>2021-03-27T17:10:04Z</time>
      </trkpt>
      <trkpt lat="42.921145" lon="-5.783996">
        <ele>1300.32</ele>
        <time>2021-03-27T17:10:06Z</time>
      </trkpt>
      <trkpt lat="42.921238" lon="-5.783817">
        <ele>1299.96</ele>
        <time>2021-03-27T17:10:08Z</time>
      </trkpt>
      <trkpt lat="42.921393" lon="-5.783233">
        <ele>1298.33</ele>
        <time>2021-03-27T17:10:10Z</time>
      </trkpt>
      <trkpt lat="42.921405" lon="-5.782998">
        <ele>1298.9</ele>
        <time>2021-03-27T17:10:12Z</time>
      </trkpt>
      <trkpt lat="42.921338" lon="-5.782872">
        <ele>1299.37</ele>
        <time>2021-03-27T17:10:14Z</time>
      </trkpt>
      <trkpt lat="42.921221" lon="-5.782738">
        <ele>1300.18</ele>
        <time>2021-03-27T17:10:16Z</time>
      </trkpt>
      <trkpt lat="42.920215" lon="-5.782239">
        <ele>1305.01</ele>
        <time>2021-03-27T17:10:18Z</time>
      </trkpt>
      <trkpt lat="42.920052" lon="-5.782099">
        <ele>1306.89</ele>
        <time>2021-03-27T17:10:20Z</time>
      </trkpt>
      <trkpt lat="42.920008" lon="-5.781927">
        <ele>1306.92</ele>
        <time>2021-03-27T17:10:22Z</time>
      </trkpt>
      <trkpt lat="42.920045" lon="-5.781755">
        <ele>1306.73</ele>
        <time>2021-03-27T17:10:24Z</time>
      </trkpt>
      <trkpt lat="42.920104" lon="-5.781673">
        <ele>1306.61</ele>
        <time>2021-03-27T17:10:26Z</time>
      </trkpt>
      <trkpt lat="42.920234" lon="-5.781635">
        <ele>1306.56</ele>
        <time>2021-03-27T17:10:28Z</time>
      </trkpt>
      <trkpt lat="42.920578" lon="-5.781652">
        <ele>1307.06</ele>
        <time>2021-03-27T17:10:30Z</time>
      </trkpt>
      <trkpt lat="42.920743" lon="-5.781587">
        <ele>1306.31</ele>
        <time>2021-03-27T17:10:32Z</time>
      </trkpt>
      <trkpt lat="42.920974" lon="-5.781374">
        <ele>1304.17</ele>
        <time>2021-03-27T17:10:34Z</time>
      </trkpt>
      <trkpt lat="42.921465" lon="-5.780452">
        <ele>1300.0</ele>
        <time>2021-03-27T17:10:36Z</time>
      </trkpt>
      <trkpt lat="42.921517" lon="-5.780322">
        <ele>1299.54</ele>
        <time>2021-03-27T17:10:38Z</time>
      </trkpt>
      <trkpt lat="42.921537" lon="-5.780164">
        <ele>1299.74</ele>
        <time>2021-03-27T17:10:40Z</time>
      </trkpt>
      <trkpt lat="42.921369" lon="-5.779511">
        <ele>1305.12</ele>
        <time>2021-03-27T17:10:42Z</time>
      </trkpt>
      <trkpt lat="42.921506" lon="-5.778466">
        <ele>1307.36</ele>
        <time>2021-03-27T17:10:44Z</time>
      </trkpt>
      <trkpt lat="42.921798" lon="-5.776764">
        <ele>1301.5</ele>
        <time>2021-03-27T17:10:46Z</time>
      </trkpt>
      <trkpt lat="42.921809" lon="-5.776475">
        <ele>1300.59</ele>
        <time>2021-03-27T17:10:48Z</time>
      </trkpt>
      <trkpt lat="42.921699" lon="-5.776314">
        <ele>1301.94</ele>
        <time>2021-03-27T17:10:50Z</time>
      </trkpt>
      <trkpt lat="42.921575" lon="-5.776276">
        <ele>1302.38</ele>
        <time>2021-03-27T17:10:52Z</time>
      </trkpt>
      <trkpt lat="42.921187" lon="-5.776489">
        <ele>1302.7</ele>
        <time>2021-03-27T17:10:54Z</time>
      </trkpt>
      <trkpt lat="42.920984" lon="-5.776499">
        <ele>1302.65</ele>
        <time>2021-03-27T17:10:56Z</time>
      </trkpt>
      <trkpt lat="42.920694" lon="-5.776298">
        <ele>1302.51</ele>
        <time>2021-03-27T17:10:58Z</time>
      </trkpt>
      <trkpt lat="42.920478" lon="-5.776066">
        <ele>1304.27</ele>
        <time>2021-03-27T17:11:00Z</time>
      </trkpt>
      <trkpt lat="42.920437" lon="-5.775957">
        <ele>1305.71</ele>
        <time>2021-03-27T17:11:02Z</time>
      </trkpt>
      <trkpt lat="42.920434" lon="-5.775747">
        <ele>1308.22</ele>
        <time>2021-03-27T17:11:04Z</time>
      </trkpt>
      <trkpt lat="42.920963" lon="-5.774702">
        <ele>1303.75</ele>
        <time>2021-03-27T17:11:06Z</time>
      </trkpt>
      <trkpt lat="42.921059" lon="-5.774612">
        <ele>1304.62</ele>
        <time>2021-03-27T17:11:08Z</time>
      </trkpt>
      <trkpt lat="42.921145" lon="-5.774582">
        <ele>1304.78</ele>
        <time>2021-03-27T17:11:10Z</time>
      </trkpt>
      <trkpt lat="42.921314" lon="-5.774661">
        <ele>1302.02</ele>
        <time>2021-03-27T17:11:12Z</time>
      </trkpt>
      <trkpt lat="42.921458" lon="-5.774674">
        <ele>1299.99</ele>
        <time>2021-03-27T17:11:14Z</time>
      </trkpt>
      <trkpt lat="42.921633" lon="-5.774564">
        <ele>1299.4</ele>
        <time>2021-03-27T17:11:16Z</time>
      </trkpt>
      <trkpt lat="42.922005" lon="-5.773841">
        <ele>1301.77</ele>
        <time>2021-03-27T17:11:18Z</time>
      </trkpt>
      <trkpt lat="42.92215" lon="-5.77346">
        <ele>1303.11</ele>
        <time>2021-03-27T17:11:20Z</time>
      </trkpt>
      <trkpt lat="42.922313" lon="-5.772627">
        <ele>1303.11</ele>
        <time>2021-03-27T17:11:22Z</time>
      </trkpt>
      <trkpt lat="42.922373" lon="-5.772456">
        <ele>1304.1</ele>
        <time>2021-03-27T17:11:24Z</time>
      </trkpt>
      <trkpt lat="42.92248" lon="-5.77237">
        <ele>1304.52</ele>
        <time>2021-03-27T17:11:26Z</time>
      </trkpt>
      <trkpt lat="42.923506" lon="-5.772182">
        <ele>1302.77</ele>
        <time>2021-03-27T17:11:28Z</time>
      </trkpt>
      <trkpt lat="42.923668" lon="-5.772041">
        <ele>1302.72</ele>
        <time>2021-03-27T17:11:30Z</time>
      </trkpt>
      <trkpt lat="42.923754" lon="-5.771729">
        <ele>1302.8</ele>
        <time>2021-03-27T17:11:32Z</time>
      </trkpt>
      <trkpt lat="42.923694" lon="-5.771451">
        <ele>1306.3</ele>
        <time>2021-03-27T17:11:34Z</time>
      </trkpt>
      <trkpt lat="42.923686" lon="-5.77128">
        <ele>1308.3</ele>
        <time>2021-03-27T17:11:36Z</time>
      </trkpt>
      <trkpt lat="42.923754" lon="-5.771109">
        <ele>1308.43</ele>
        <time>2021-03-27T17:11:38Z</time>
      </trkpt>
      <trkpt lat="42.924032" lon="-5.771002">
        <ele>1304.08</ele>
        <time>2021-03-27T17:11:40Z</time>
      </trkpt>
      <trkpt lat="42.924212" lon="-5.770886">
        <ele>1302.33</ele>
        <time>2021-03-27T17:11:42Z</time>
      </trkpt>
      <trkpt lat="42.924278" lon="-5.770689">
        <ele>1303.39</ele>
        <time>2021-03-27T17:11:44Z</time>
      </trkpt>
      <trkpt lat="42.924297" lon="-5.770525">
        <ele>1305.06</ele>
        <time>2021-03-27T17:11:46Z</time>
      </trkpt>
      <trkpt lat="42.924392" lon="-5.770282">
        <ele>1302.41</ele>
        <time>2021-03-27T17:11:48Z</time>
      </trkpt>
      <trkpt lat="42.924635" lon="-5.769766">
        <ele>1298.77</ele>
        <time>2021-03-27T17:11:50Z</time>
      </trkpt>
      <trkpt lat="42.924605" lon="-5.769501">
        <ele>1300.62</ele>
        <time>2021-03-27T17:11:52Z</time>
      </trkpt>
      <trkpt lat="42.924293" lon="-5.768976">
        <ele>1309.84</ele>
        <time>2021-03-27T17:11:54Z</time>
      </trkpt>
      <trkpt lat="42.924299" lon="-5.768652">
        <ele>1309.67</ele>
        <time>2021-03-27T17:11:56Z</time>
      </trkpt>
      <trkpt lat="42.924344" lon="-5.768316">
        <ele>1309.74</ele>
        <time>2021-03-27T17:11:58Z</time>
      </trkpt>
      <trkpt lat="42.924521" lon="-5.76801">
        <ele>1306.42</ele>
        <time>2021-03-27T17:12:00Z</time>
      </trkpt>
      <trkpt lat="42.924713" lon="-5.767737">
        <ele>1303.9</ele>
        <time>2021-03-27T17:12:02Z</time>
      </trkpt>
      <trkpt lat="42.924792" lon="-5.767405">
        <ele>1305.24</ele>
        <time>2021-03-27T17:12:04Z</time>
      </trkpt>
      <trkpt lat="42.924882" lon="-5.767279">
        <ele>1304.09</ele>
        <time>2021-03-27T17:12:06Z</time>
      </trkpt>
      <trkpt lat="42.925144" lon="-5.767153">
        <ele>1297.45</ele>
        <time>2021-03-27T17:12:08Z</time>
      </trkpt>
      <trkpt lat="42.925238" lon="-5.766991">
        <ele>1296.41</ele>
        <time>2021-03-27T17:12:10Z</time>
      </trkpt>
      <trkpt lat="42.925251" lon="-5.766768">
        <ele>1296.04</ele>
        <time>2021-03-27T17:12:12Z</time>
      </trkpt>
      <trkpt lat="42.925101" lon="-5.766593">
        <ele>1298.41</ele>
        <time>2021-03-27T17:12:14Z</time>
      </trkpt>
      <trkpt lat="42.924995" lon="-5.766505">
        <ele>1299.15</ele>
        <time>2021-03-27T17:12:16Z</time>
      </trkpt>
      <trkpt lat="42.92481" lon="-5.766465">
        <ele>1300.72</ele>
        <time>2021-03-27T17:12:18Z</time>
      </trkpt>
      <trkpt lat="42.924584" lon="-5.766589">
        <ele>1303.8</ele>
        <time>2021-03-27T17:12:20Z</time>
      </trkpt>
      <trkpt lat="42.924391" lon="-5.766627">
        <ele>1305.26</ele>
        <time>2021-03-27T17:12:22Z</time>
      </trkpt>
      <trkpt lat="42.924276" lon="-5.766546">
        <ele>1305.69</ele>
        <time>2021-03-27T17:12:24Z</time>
      </trkpt>
      <trkpt lat="42.924246" lon="-5.765947">
        <ele>1303.38</ele>
        <time>2021-03-27T17:12:26Z</time>
      </trkpt>
      <trkpt lat="42.924603" lon="-5.763893">
        <ele>1296.2</ele>
        <time>2021-03-27T17:12:28Z</time>
      </trkpt>
      <trkpt lat="42.924661" lon="-5.76383">
        <ele>1298.54</ele>
        <time>2021-03-27T17:12:30Z</time>
      </trkpt>
      <trkpt lat="42.925195" lon="-5.763775">
        <ele>1299.35</ele>
        <time>2021-03-27T17:12:32Z</time>
      </trkpt>
      <trkpt lat="42.925435" lon="-5.763625">
        <ele>1300.16</ele>
        <time>2021-03-27T17:12:34Z</time>
      </trkpt>
      <trkpt lat="42.926357" lon="-5.762622">
        <ele>1302.61</ele>
        <time>2021-03-27T17:12:36Z</time>
      </trkpt>
      <trkpt lat="42.926601" lon="-5.762314">
        <ele>1303.0</ele>
        <time>2021-03-27T17:12:38Z</time>
      </trkpt>
      <trkpt lat="42.926667" lon="-5.762148">
        <ele>1306.7</ele>
        <time>2021-03-27T17:12:40Z</time>
      </trkpt>
      <trkpt lat="42.92672" lon="-5.761959">
        <ele>1312.45</ele>
        <time>2021-03-27T17:12:42Z</time>
      </trkpt>
      <trkpt lat="42.926801" lon="-5.761795">
        <ele>1312.35</ele>
        <time>2021-03-27T17:12:44Z</time>
      </trkpt>
      <trkpt lat="42.926906" lon="-5.761658">
        <ele>1311.26</ele>
        <time>2021-03-27T17:12:46Z</time>
      </trkpt>
      <trkpt lat="42.927102" lon="-5.761466">
        <ele>1306.32</ele>
        <time>2021-03-27T17:12:48Z</time>
      </trkpt>
      <trkpt lat="42.927201" lon="-5.761034">
        <ele>1307.89</ele>
        <time>2021-03-27T17:12:50Z</time>
      </trkpt>
      <trkpt lat="42.927291" lon="-5.760743">
        <ele>1303.47</ele>
        <time>2021-03-27T17:12:52Z</time>
      </trkpt>
      <trkpt lat="42.92738" lon="-5.760525">
        <ele>1298.52</ele>
        <time>2021-03-27T17:12:54Z</time>
      </trkpt>
      <trkpt lat="42.927376" lon="-5.760268">
        <ele>1299.15</ele>
        <time>2021-03-27T17:12:56Z</time>
      </trkpt>
      <trkpt lat="42.927222" lon="-5.759926">
        <ele>1303.14</ele>
        <time>2021-03-27T17:12:58Z</time>
      </trkpt>
      <trkpt lat="42.926997" lon="-5.759287">
        <ele>1297.39</ele>
        <time>2021-03-27T17:13:00Z</time>
      </trkpt>
      <trkpt lat="42.926979" lon="-5.759169">
        <ele>1295.68</ele>
        <time>2021-03-27T17:13:02Z</time>
      </trkpt>
      <trkpt lat="42.927033" lon="-5.759155">
        <ele>1291.54</ele>
        <time>2021-03-27T17:13:04Z</time>
      </trkpt>
      <trkpt lat="42.927163" lon="-5.759194">
        <ele>1284.04</ele>
        <time>2021-03-27T17:13:06Z</time>
      </trkpt>
      <trkpt lat="42.927316" lon="-5.759211">
        <ele>1277.74</ele>
        <time>2021-03-27T17:13:08Z</time>
      </trkpt>
      <trkpt lat="42.927497" lon="-5.759171">
        <ele>1271.18</ele>
        <time>2021-03-27T17:13:10Z</time>
      </trkpt>
      <trkpt lat="42.927622" lon="-5.759082">
        <ele>1271.19</ele>
        <time>2021-03-27T17:13:12Z</time>
      </trkpt>
      <trkpt lat="42.927747" lon="-5.758948">
        <ele>1272.44</ele>
        <time>2021-03-27T17:13:14Z</time>
      </trkpt>
      <trkpt lat="42.927859" lon="-5.758671">
        <ele>1282.77</ele>
        <time>2021-03-27T17:13:16Z</time>
      </trkpt>
      <trkpt lat="42.927885" lon="-5.75843">
        <ele>1291.04</ele>
        <time>2021-03-27T17:13:18Z</time>
      </trkpt>
      <trkpt lat="42.927945" lon="-5.758374">
        <ele>1295.98</ele>
        <time>2021-03-27T17:13:21Z</time>
      </trkpt>
      <trkpt lat="42.928172" lon="-5.75881">
        <ele>1295.09</ele>
        <time>2021-03-27T17:13:24Z</time>
      </trkpt>
      <trkpt lat="42.928372" lon="-5.759041">
        <ele>1294.41</ele>
        <time>2021-03-27T17:13:27Z</time>
      </trkpt>
      <trkpt lat="42.928668" lon="-5.759165">
        <ele>1299.29</ele>
        <time>2021-03-27T17:13:30Z</time>
      </trkpt>
      <trkpt lat="42.928984" lon="-5.759203">
        <ele>1304.69</ele>
        <time>2021-03-27T17:13:33Z</time>
      </trkpt>
      <trkpt lat="42.929245" lon="-5.759327">
        <ele>1302.47</ele>
        <time>2021-03-27T17:13:36Z</time>
      </trkpt>
      <trkpt lat="42.929565" lon="-5.759396">
        <ele>1299.74</ele>
        <time>2021-03-27T17:13:39Z</time>
      </trkpt>
      <trkpt lat="42.930181" lon="-5.759327">
        <ele>1305.55</ele>
        <time>2021-03-27T17:13:42Z</time>
      </trkpt>
      <trkpt lat="42.930553" lon="-5.759225">
        <ele>1308.12</ele>
        <time>2021-03-27T17:13:45Z</time>
      </trkpt>
      <trkpt lat="42.932756" lon="-5.757651">
        <ele>1308.89</ele>
        <time>2021-03-27T17:13:48Z</time>
      </trkpt>
      <trkpt lat="42.93385" lon="-5.757437">
        <ele>1304.48</ele>
        <time>2021-03-27T17:13:51Z</time>
      </trkpt>
      <trkpt lat="42.934124" lon="-5.757446">
        <ele>1305.07</ele>
        <time>2021-03-27T17:13:54Z</time>
      </trkpt>
      <trkpt lat="42.934398" lon="-5.757506">
        <ele>1303.29</ele>
        <time>2021-03-27T17:13:57Z</time>
      </trkpt>
      <trkpt lat="42.935131" lon="-5.757945">
        <ele>1304.61</ele>
        <time>2021-03-27T17:14:00Z</time>
      </trkpt>
      <trkpt lat="42.935502" lon="-5.758245">
        <ele>1305.51</ele>
        <time>2021-03-27T17:14:03Z</time>
      </trkpt>
      <trkpt lat="42.935706" lon="-5.758613">
        <ele>1303.53</ele>
        <time>2021-03-27T17:14:06Z</time>
      </trkpt>
      <trkpt lat="42.93587" lon="-5.75934">
        <ele>1301.02</ele>
        <time>2021-03-27T17:14:09Z</time>
      </trkpt>
      <trkpt lat="42.936041" lon="-5.759711">
        <ele>1299.57</ele>
        <time>2021-03-27T17:14:12Z</time>
      </trkpt>
      <trkpt lat="42.936751" lon="-5.760507">
        <ele>1300.55</ele>
        <time>2021-03-27T17:14:15Z</time>
      </trkpt>
      <trkpt lat="42.936996" lon="-5.760636">
        <ele>1300.89</ele>
        <time>2021-03-27T17:14:18Z</time>
      </trkpt>
      <trkpt lat="42.937263" lon="-5.760672">
        <ele>1300.8</ele>
        <time>2021-03-27T17:14:21Z</time>
      </trkpt>
      <trkpt lat="42.937508" lon="-5.760585">
        <ele>1301.76</ele>
        <time>2021-03-27T17:14:24Z</time>
      </trkpt>
      <trkpt lat="42.938517" lon="-5.759861">
        <ele>1302.68</ele>
        <time>2021-03-27T17:14:27Z</time>
      </trkpt>
      <trkpt lat="42.938774" lon="-5.759616">
        <ele>1302.37</ele>
        <time>2021-03-27T17:14:30Z</time>
      </trkpt>
      <trkpt lat="42.938915" lon="-5.759328">
        <ele>1302.14</ele>
        <time>2021-03-27T17:14:33Z</time>
      </trkpt>
      <trkpt lat="42.939193" lon="-5.757811">
        <ele>1305.57</ele>
        <time>2021-03-27T17:14:36Z</time>
      </trkpt>
      <trkpt lat="42.939325" lon="-5.757535">
        <ele>1305.73</ele>
        <time>2021-03-27T17:14:39Z</time>
      </trkpt>
      <trkpt lat="42.939543" lon="-5.757344">
        <ele>1306.48</ele>
        <time>2021-03-27T17:14:42Z</time>
      </trkpt>
      <trkpt lat="42.940543" lon="-5.757089">
        <ele>1304.0</ele>
        <time>2021-03-27T17:14:45Z</time>
      </trkpt>
      <trkpt lat="42.94092" lon="-5.756958">
        <ele>1306.31</ele>
        <time>2021-03-27T17:14:48Z</time>
      </trkpt>
      <trkpt lat="42.941118" lon="-5.756993">
        <ele>1307.45</ele>
        <time>2021-03-27T17:14:51Z</time>
      </trkpt>
      <trkpt lat="42.941259" lon="-5.756951">
        <ele>1309.19</ele>
        <time>2021-03-27T17:14:54Z</time>
      </trkpt>
      <trkpt lat="42.941624" lon="-5.756389">
        <ele>1312.0</ele>
        <time>2021-03-27T17:14:56Z</time>
      </trkpt>
      <trkpt lat="42.941857" lon="-5.756236">
        <ele>1313.2</ele>
        <time>2021-03-27T17:14:58Z</time>
      </trkpt>
      <trkpt lat="42.94248" lon="-5.755916">
        <ele>1317.45</ele>
        <time>2021-03-27T17:15:00Z</time>
      </trkpt>
      <trkpt lat="42.942743" lon="-5.755578">
        <ele>1319.12</ele>
        <time>2021-03-27T17:15:02Z</time>
      </trkpt>
      <trkpt lat="42.942947" lon="-5.755257">
        <ele>1319.71</ele>
        <time>2021-03-27T17:15:04Z</time>
      </trkpt>
      <trkpt lat="42.943019" lon="-5.755045">
        <ele>1320.21</ele>
        <time>2021-03-27T17:15:06Z</time>
      </trkpt>
      <trkpt lat="42.943087" lon="-5.754431">
        <ele>1325.98</ele>
        <time>2021-03-27T17:15:08Z</time>
      </trkpt>
      <trkpt lat="42.943126" lon="-5.754255">
        <ele>1327.11</ele>
        <time>2021-03-27T17:15:10Z</time>
      </trkpt>
      <trkpt lat="42.943384" lon="-5.753566">
        <ele>1330.93</ele>
        <time>2021-03-27T17:15:12Z</time>
      </trkpt>
      <trkpt lat="42.94348" lon="-5.753057">
        <ele>1338.86</ele>
        <time>2021-03-27T17:15:14Z</time>
      </trkpt>
      <trkpt lat="42.943674" lon="-5.75248">
        <ele>1341.35</ele>
        <time>2021-03-27T17:15:16Z</time>
      </trkpt>
      <trkpt lat="42.943731" lon="-5.752058">
        <ele>1343.93</ele>
        <time>2021-03-27T17:15:18Z</time>
      </trkpt>
      <trkpt lat="42.943872" lon="-5.75171">
        <ele>1345.22</ele>
        <time>2021-03-27T17:15:20Z</time>
      </trkpt>
      <trkpt lat="42.943982" lon="-5.751486">
        <ele>1346.61</ele>
        <time>2021-03-27T17:15:22Z</time>
      </trkpt>
      <trkpt lat="42.944126" lon="-5.751333">
        <ele>1345.98</ele>
        <time>2021-03-27T17:15:24Z</time>
      </trkpt>
      <trkpt lat="42.944369" lon="-5.751198">
        <ele>1348.78</ele>
        <time>2021-03-27T17:15:26Z</time>
      </trkpt>
      <trkpt lat="42.944556" lon="-5.751155">
        <ele>1352.32</ele>
        <time>2021-03-27T17:15:28Z</time>
      </trkpt>
      <trkpt lat="42.944679" lon="-5.750754">
        <ele>1353.65</ele>
        <time>2021-03-27T17:15:30Z</time>
      </trkpt>
      <trkpt lat="42.945193" lon="-5.749903">
        <ele>1346.29</ele>
        <time>2021-03-27T17:15:32Z</time>
      </trkpt>
      <trkpt lat="42.945521" lon="-5.749494">
        <ele>1342.38</ele>
        <time>2021-03-27T17:15:34Z</time>
      </trkpt>
      <trkpt lat="42.94557" lon="-5.749387">
        <ele>1341.23</ele>
        <time>2021-03-27T17:15:37Z</time>
      </trkpt>
      <trkpt lat="42.945695" lon="-5.74891">
        <ele>1337.75</ele>
        <time>2021-03-27T17:15:39Z</time>
      </trkpt>
      <trkpt lat="42.945658" lon="-5.7485">
        <ele>1337.65</ele>
        <time>2021-03-27T17:15:41Z</time>
      </trkpt>
      <trkpt lat="42.945771" lon="-5.747244">
        <ele>1332.96</ele>
        <time>2021-03-27T17:15:43Z</time>
      </trkpt>
      <trkpt lat="42.945771" lon="-5.746983">
        <ele>1334.22</ele>
        <time>2021-03-27T17:15:46Z</time>
      </trkpt>
      <trkpt lat="42.945652" lon="-5.746669">
        <ele>1332.49</ele>
        <time>2021-03-27T17:15:48Z</time>
      </trkpt>
      <trkpt lat="42.945644" lon="-5.746092">
        <ele>1335.46</ele>
        <time>2021-03-27T17:15:50Z</time>
      </trkpt>
      <trkpt lat="42.945715" lon="-5.745839">
        <ele>1337.18</ele>
        <time>2021-03-27T17:15:52Z</time>
      </trkpt>
      <trkpt lat="42.945816" lon="-5.745643">
        <ele>1337.07</ele>
        <time>2021-03-27T17:15:55Z</time>
      </trkpt>
      <trkpt lat="42.946429" lon="-5.745027">
        <ele>1321.73</ele>
        <time>2021-03-27T17:15:57Z</time>
      </trkpt>
      <trkpt lat="42.946598" lon="-5.744966">
        <ele>1318.26</ele>
        <time>2021-03-27T17:15:59Z</time>
      </trkpt>
      <trkpt lat="42.947183" lon="-5.74515">
        <ele>1315.79</ele>
        <time>2021-03-27T17:16:01Z</time>
      </trkpt>
      <trkpt lat="42.947369" lon="-5.745112">
        <ele>1314.1</ele>
        <time>2021-03-27T17:16:04Z</time>
      </trkpt>
      <trkpt lat="42.94762" lon="-5.74499">
        <ele>1312.57</ele>
        <time>2021-03-27T17:16:06Z</time>
      </trkpt>
      <trkpt lat="42.948182" lon="-5.744514">
        <ele>1311.7</ele>
        <time>2021-03-27T17:16:08Z</time>
      </trkpt>
      <trkpt lat="42.94836" lon="-5.744145">
        <ele>1307.65</ele>
        <time>2021-03-27T17:16:11Z</time>
      </trkpt>
      <trkpt lat="42.948538" lon="-5.743476">
        <ele>1307.87</ele>
        <time>2021-03-27T17:16:13Z</time>
      </trkpt>
      <trkpt lat="42.948594" lon="-5.742747">
        <ele>1299.95</ele>
        <time>2021-03-27T17:16:15Z</time>
      </trkpt>
      <trkpt lat="42.948645" lon="-5.742435">
        <ele>1299.38</ele>
        <time>2021-03-27T17:16:17Z</time>
      </trkpt>
      <trkpt lat="42.948744" lon="-5.742118">
        <ele>1299.85</ele>
        <time>2021-03-27T17:16:20Z</time>
      </trkpt>
      <trkpt lat="42.948927" lon="-5.741687">
        <ele>1297.68</ele>
        <time>2021-03-27T17:16:22Z</time>
      </trkpt>
      <trkpt lat="42.948976" lon="-5.74146">
        <ele>1296.67</ele>
        <time>2021-03-27T17:16:24Z</time>
      </trkpt>
      <trkpt lat="42.949013" lon="-5.740715">
        <ele>1293.9</ele>
        <time>2021-03-27T17:16:26Z</time>
      </trkpt>
      <trkpt lat="42.949099" lon="-5.739888">
        <ele>1294.11</ele>
        <time>2021-03-27T17:16:29Z</time>
      </trkpt>
      <trkpt lat="42.949088" lon="-5.739016">
        <ele>1286.94</ele>
        <time>2021-03-27T17:16:31Z</time>
      </trkpt>
      <trkpt lat="42.949118" lon="-5.738698">
        <ele>1285.85</ele>
        <time>2021-03-27T17:16:33Z</time>
      </trkpt>
      <trkpt lat="42.94902" lon="-5.738326">
        <ele>1280.74</ele>
        <time>2021-03-27T17:16:35Z</time>
      </trkpt>
      <trkpt lat="42.949241" lon="-5.7374">
        <ele>1281.27</ele>
        <time>2021-03-27T17:16:38Z</time>
      </trkpt>
      <trkpt lat="42.94938" lon="-5.737093">
        <ele>1281.58</ele>
        <time>2021-03-27T17:16:40Z</time>
      </trkpt>
      <trkpt lat="42.949586" lon="-5.736045">
        <ele>1278.44</ele>
        <time>2021-03-27T17:16:42Z</time>
      </trkpt>
      <trkpt lat="42.949691" lon="-5.73524">
        <ele>1269.47</ele>
        <time>2021-03-27T17:16:44Z</time>
      </trkpt>
      <trkpt lat="42.949744" lon="-5.735126">
        <ele>1269.16</ele>
        <time>2021-03-27T17:16:47Z</time>
      </trkpt>
      <trkpt lat="42.949803" lon="-5.735061">
        <ele>1269.11</ele>
        <time>2021-03-27T17:16:49Z</time>
      </trkpt>
      <trkpt lat="42.950202" lon="-5.734885">
        <ele>1270.93</ele>
        <time>2021-03-27T17:16:51Z</time>
      </trkpt>
      <trkpt lat="42.951051" lon="-5.734892">
        <ele>1272.67</ele>
        <time>2021-03-27T17:16:53Z</time>
      </trkpt>
      <trkpt lat="42.951172" lon="-5.734815">
        <ele>1272.21</ele>
        <time>2021-03-27T17:16:56Z</time>
      </trkpt>
      <trkpt lat="42.951252" lon="-5.734697">
        <ele>1273.18</ele>
        <time>2021-03-27T17:16:58Z</time>
      </trkpt>
      <trkpt lat="42.951305" lon="-5.73457">
        <ele>1275.34</ele>
        <time>2021-03-27T17:17:00Z</time>
      </trkpt>
      <trkpt lat="42.951249" lon="-5.734435">
        <ele>1274.56</ele>
        <time>2021-03-27T17:17:03Z</time>
      </trkpt>
      <trkpt lat="42.951005" lon="-5.73399">
        <ele>1268.83</ele>
        <time>2021-03-27T17:17:07Z</time>
      </trkpt>
      <trkpt lat="42.95079" lon="-5.733731">
        <ele>1264.34</ele>
        <time>2021-03-27T17:17:10Z</time>
      </trkpt>
      <trkpt lat="42.949349" lon="-5.732436">
        <ele>1261.28</ele>
        <time>2021-03-27T17:17:13Z</time>
      </trkpt>
      <trkpt lat="42.949195" lon="-5.732231">
        <ele>1261.15</ele>
        <time>2021-03-27T17:17:16Z</time>
      </trkpt>
      <trkpt lat="42.949017" lon="-5.731836">
        <ele>1261.98</ele>
        <time>2021-03-27T17:17:19Z</time>
      </trkpt>
      <trkpt lat="42.94879" lon="-5.731472">
        <ele>1260.91</ele>
        <time>2021-03-27T17:17:22Z</time>
      </trkpt>
      <trkpt lat="42.94856" lon="-5.731">
        <ele>1259.63</ele>
        <time>2021-03-27T17:17:25Z</time>
      </trkpt>
      <trkpt lat="42.948309" lon="-5.730262">
        <ele>1260.37</ele>
        <time>2021-03-27T17:17:28Z</time>
      </trkpt>
      <trkpt lat="42.948292" lon="-5.730126">
        <ele>1259.02</ele>
        <time>2021-03-27T17:17:32Z</time>
      </trkpt>
      <trkpt lat="42.9483" lon="-5.72997">
        <ele>1258.25</ele>
        <time>2021-03-27T17:17:35Z</time>
      </trkpt>
      <trkpt lat="42.948473" lon="-5.728801">
        <ele>1254.2</ele>
        <time>2021-03-27T17:17:38Z</time>
      </trkpt>
      <trkpt lat="42.94846" lon="-5.72854">
        <ele>1253.27</ele>
        <time>2021-03-27T17:17:41Z</time>
      </trkpt>
      <trkpt lat="42.94813" lon="-5.7274">
        <ele>1246.44</ele>
        <time>2021-03-27T17:17:44Z</time>
      </trkpt>
      <trkpt lat="42.94792" lon="-5.7268">
        <ele>1246.35</ele>
        <time>2021-03-27T17:17:47Z</time>
      </trkpt>
      <trkpt lat="42.94766" lon="-5.72568">
        <ele>1241.37</ele>
        <time>2021-03-27T17:17:50Z</time>
      </trkpt>
      <trkpt lat="42.947539" lon="-5.725016">
        <ele>1237.94</ele>
        <time>2021-03-27T17:17:53Z</time>
      </trkpt>
      <trkpt lat="42.947605" lon="-5.724687">
        <ele>1236.04</ele>
        <time>2021-03-27T17:17:57Z</time>
      </trkpt>
      <trkpt lat="42.94813" lon="-5.72366">
        <ele>1226.89</ele>
        <time>2021-03-27T17:18:00Z</time>
      </trkpt>
      <trkpt lat="42.94814" lon="-5.723463">
        <ele>1226.07</ele>
        <time>2021-03-27T17:18:03Z</time>
      </trkpt>
      <trkpt lat="42.948083" lon="-5.723369">
        <ele>1225.33</ele>
        <time>2021-03-27T17:18:06Z</time>
      </trkpt>
      <trkpt lat="42.947933" lon="-5.723185">
        <ele>1224.47</ele>
        <time>2021-03-27T17:18:09Z</time>
      </trkpt>
      <trkpt lat="42.947635" lon="-5.722963">
        <ele>1223.31</ele>
        <time>2021-03-27T17:18:12Z</time>
      </trkpt>
      <trkpt lat="42.947149" lon="-5.722507">
        <ele>1221.01</ele>
        <time>2021-03-27T17:18:15Z</time>
      </trkpt>
      <trkpt lat="42.947036" lon="-5.722298">
        <ele>1220.51</ele>
        <time>2021-03-27T17:18:18Z</time>
      </trkpt>
      <trkpt lat="42.94689" lon="-5.72169">
        <ele>1222.92</ele>
        <time>2021-03-27T17:18:22Z</time>
      </trkpt>
      <trkpt lat="42.946828" lon="-5.720803">
        <ele>1221.79</ele>
        <time>2021-03-27T17:18:25Z</time>
      </trkpt>
      <trkpt lat="42.94624" lon="-5.71959">
        <ele>1221.07</ele>
        <time>2021-03-27T17:18:28Z</time>
      </trkpt>
      <trkpt lat="42.946187" lon="-5.719412">
        <ele>1221.42</ele>
        <time>2021-03-27T17:18:31Z</time>
      </trkpt>
      <trkpt lat="42.946197" lon="-5.719108">
        <ele>1221.07</ele>
        <time>2021-03-27T17:18:34Z</time>
      </trkpt>
      <trkpt lat="42.946037" lon="-5.718495">
        <ele>1221.47</ele>
        <time>2021-03-27T17:18:37Z</time>
      </trkpt>
      <trkpt lat="42.94595" lon="-5.717951">
        <ele>1217.26</ele>
        <time>2021-03-27T17:18:40Z</time>
      </trkpt>
      <trkpt lat="42.9459" lon="-5.71735">
        <ele>1216.63</ele>
        <time>2021-03-27T17:18:44Z</time>
      </trkpt>
      <trkpt lat="42.945992" lon="-5.716807">
        <ele>1213.94</ele>
        <time>2021-03-27T17:18:47Z</time>
      </trkpt>
      <trkpt lat="42.945932" lon="-5.71632">
        <ele>1214.22</ele>
        <time>2021-03-27T17:18:50Z</time>
      </trkpt>
      <trkpt lat="42.94598" lon="-5.71577">
        <ele>1214.36</ele>
        <time>2021-03-27T17:18:53Z</time>
      </trkpt>
      <trkpt lat="42.94598" lon="-5.71529">
        <ele>1214.41</ele>
        <time>2021-03-27T17:18:56Z</time>
      </trkpt>
      <trkpt lat="42.94594" lon="-5.71512">
        <ele>1213.93</ele>
        <time>2021-03-27T17:18:59Z</time>
      </trkpt>
      <trkpt lat="42.94577" lon="-5.71495">
        <ele>1214.05</ele>
        <time>2021-03-27T17:19:02Z</time>
      </trkpt>
      <trkpt lat="42.945636" lon="-5.714787">
        <ele>1213.94</ele>
        <time>2021-03-27T17:19:05Z</time>
      </trkpt>
      <trkpt lat="42.94547" lon="-5.71422">
        <ele>1210.94</ele>
        <time>2021-03-27T17:19:09Z</time>
      </trkpt>
      <trkpt lat="42.945274" lon="-5.713897">
        <ele>1210.08</ele>
        <time>2021-03-27T17:19:12Z</time>
      </trkpt>
      <trkpt lat="42.94508" lon="-5.71349">
        <ele>1208.96</ele>
        <time>2021-03-27T17:19:15Z</time>
      </trkpt>
      <trkpt lat="42.94504" lon="-5.71293">
        <ele>1207.0</ele>
        <time>2021-03-27T17:19:18Z</time>
      </trkpt>
      <trkpt lat="42.94508" lon="-5.71276">
        <ele>1207.05</ele>
        <time>2021-03-27T17:19:21Z</time>
      </trkpt>
      <trkpt lat="42.94521" lon="-5.712722">
        <ele>1207.05</ele>
        <time>2021-03-27T17:19:26Z</time>
      </trkpt>
      <trkpt lat="42.94556" lon="-5.71255">
        <ele>1206.18</ele>
        <time>2021-03-27T17:19:32Z</time>
      </trkpt>
      <trkpt lat="42.94573" lon="-5.71225">
        <ele>1205.43</ele>
        <time>2021-03-27T17:19:37Z</time>
      </trkpt>
      <trkpt lat="42.946131" lon="-5.711302">
        <ele>1203.35</ele>
        <time>2021-03-27T17:19:42Z</time>
      </trkpt>
      <trkpt lat="42.946219" lon="-5.710899">
        <ele>1201.62</ele>
        <time>2021-03-27T17:19:48Z</time>
      </trkpt>
      <trkpt lat="42.94633" lon="-5.71053">
        <ele>1201.86</ele>
        <time>2021-03-27T17:19:53Z</time>
      </trkpt>
      <trkpt lat="42.94628" lon="-5.71023">
        <ele>1202.32</ele>
        <time>2021-03-27T17:19:58Z</time>
      </trkpt>
      <trkpt lat="42.94569" lon="-5.70796">
        <ele>1202.46</ele>
        <time>2021-03-27T17:20:04Z</time>
      </trkpt>
      <trkpt lat="42.94551" lon="-5.70654">
        <ele>1201.34</ele>
        <time>2021-03-27T17:20:09Z</time>
      </trkpt>
      <trkpt lat="42.94538" lon="-5.7059">
        <ele>1198.82</ele>
        <time>2021-03-27T17:20:14Z</time>
      </trkpt>
      <trkpt lat="42.944818" lon="-5.703448">
        <ele>1194.5</ele>
        <time>2021-03-27T17:20:20Z</time>
      </trkpt>
      <trkpt lat="42.94414" lon="-5.70066">
        <ele>1187.75</ele>
        <time>2021-03-27T17:20:25Z</time>
      </trkpt>
      <trkpt lat="42.94367" lon="-5.70002">
        <ele>1184.48</ele>
        <time>2021-03-27T17:20:30Z</time>
      </trkpt>
      <trkpt lat="42.94341" lon="-5.69954">
        <ele>1182.51</ele>
        <time>2021-03-27T17:20:36Z</time>
      </trkpt>
      <trkpt lat="42.94182" lon="-5.69495">
        <ele>1175.83</ele>
        <time>2021-03-27T17:20:41Z</time>
      </trkpt>
      <trkpt lat="42.94148" lon="-5.69427">
        <ele>1175.19</ele>
        <time>2021-03-27T17:20:46Z</time>
      </trkpt>
      <trkpt lat="42.94062" lon="-5.69293">
        <ele>1176.47</ele>
        <time>2021-03-27T17:20:52Z</time>
      </trkpt>
      <trkpt lat="42.940537" lon="-5.692703">
        <ele>1174.47</ele>
        <time>2021-03-27T17:20:57Z</time>
      </trkpt>
      <trkpt lat="42.940537" lon="-5.692703">
        <ele>1174.47</ele>
        <time>2021-03-27T17:20:57Z</time>
      </trkpt>
      <trkpt lat="42.94015" lon="-5.69066">
        <ele>1171.99</ele>
        <time>2021-03-27T17:21:01Z</time>
      </trkpt>
      <trkpt lat="42.939849" lon="-5.689495">
        <ele>1171.21</ele>
        <time>2021-03-27T17:21:05Z</time>
      </trkpt>
      <trkpt lat="42.93959" lon="-5.68826">
        <ele>1171.67</ele>
        <time>2021-03-27T17:21:08Z</time>
      </trkpt>
      <trkpt lat="42.93933" lon="-5.68761">
        <ele>1166.35</ele>
        <time>2021-03-27T17:21:12Z</time>
      </trkpt>
      <trkpt lat="42.9393" lon="-5.687482">
        <ele>1166.02</ele>
        <time>2021-03-27T17:21:16Z</time>
      </trkpt>
      <trkpt lat="42.93929" lon="-5.68731">
        <ele>1166.76</ele>
        <time>2021-03-27T17:21:20Z</time>
      </trkpt>
      <trkpt lat="42.93933" lon="-5.68671">
        <ele>1167.95</ele>
        <time>2021-03-27T17:21:23Z</time>
      </trkpt>
      <trkpt lat="42.939471" lon="-5.685894">
        <ele>1166.21</ele>
        <time>2021-03-27T17:21:27Z</time>
      </trkpt>
      <trkpt lat="42.93951" lon="-5.68534">
        <ele>1164.93</ele>
        <time>2021-03-27T17:21:31Z</time>
      </trkpt>
      <trkpt lat="42.939506" lon="-5.684982">
        <ele>1163.61</ele>
        <time>2021-03-27T17:21:35Z</time>
      </trkpt>
      <trkpt lat="42.939418" lon="-5.684787">
        <ele>1162.12</ele>
        <time>2021-03-27T17:21:38Z</time>
      </trkpt>
      <trkpt lat="42.939084" lon="-5.684601">
        <ele>1160.41</ele>
        <time>2021-03-27T17:21:42Z</time>
      </trkpt>
      <trkpt lat="42.93899" lon="-5.68431">
        <ele>1160.34</ele>
        <time>2021-03-27T17:21:46Z</time>
      </trkpt>
      <trkpt lat="42.939004" lon="-5.683966">
        <ele>1161.0</ele>
        <time>2021-03-27T17:21:50Z</time>
      </trkpt>
      <trkpt lat="42.939033" lon="-5.683709">
        <ele>1160.69</ele>
        <time>2021-03-27T17:21:54Z</time>
      </trkpt>
      <trkpt lat="42.939235" lon="-5.683316">
        <ele>1160.48</ele>
        <time>2021-03-27T17:21:57Z</time>
      </trkpt>
      <trkpt lat="42.93933" lon="-5.68302">
        <ele>1160.54</ele>
        <time>2021-03-27T17:22:01Z</time>
      </trkpt>
      <trkpt lat="42.93946" lon="-5.68216">
        <ele>1157.82</ele>
        <time>2021-03-27T17:22:05Z</time>
      </trkpt>
      <trkpt lat="42.93959" lon="-5.68156">
        <ele>1156.14</ele>
        <time>2021-03-27T17:22:09Z</time>
      </trkpt>
      <trkpt lat="42.939779" lon="-5.681284">
        <ele>1156.24</ele>
        <time>2021-03-27T17:22:12Z</time>
      </trkpt>
      <trkpt lat="42.93985" lon="-5.68088">
        <ele>1155.55</ele>
        <time>2021-03-27T17:22:16Z</time>
      </trkpt>
      <trkpt lat="42.939777" lon="-5.680232">
        <ele>1153.59</ele>
        <time>2021-03-27T17:22:20Z</time>
      </trkpt>
      <trkpt lat="42.939853" lon="-5.679895">
        <ele>1154.61</ele>
        <time>2021-03-27T17:22:24Z</time>
      </trkpt>
      <trkpt lat="42.940158" lon="-5.678981">
        <ele>1154.71</ele>
        <time>2021-03-27T17:22:27Z</time>
      </trkpt>
      <trkpt lat="42.940298" lon="-5.678269">
        <ele>1154.06</ele>
        <time>2021-03-27T17:22:31Z</time>
      </trkpt>
      <trkpt lat="42.940323" lon="-5.678059">
        <ele>1154.0</ele>
        <time>2021-03-27T17:22:35Z</time>
      </trkpt>
      <trkpt lat="42.94062" lon="-5.676333">
        <ele>1147.39</ele>
        <time>2021-03-27T17:22:39Z</time>
      </trkpt>
      <trkpt lat="42.940929" lon="-5.675455">
        <ele>1148.93</ele>
        <time>2021-03-27T17:22:43Z</time>
      </trkpt>
      <trkpt lat="42.94082" lon="-5.673785">
        <ele>1148.31</ele>
        <time>2021-03-27T17:22:46Z</time>
      </trkpt>
      <trkpt lat="42.94088" lon="-5.672683">
        <ele>1146.94</ele>
        <time>2021-03-27T17:22:50Z</time>
      </trkpt>
      <trkpt lat="42.94099" lon="-5.671842">
        <ele>1144.15</ele>
        <time>2021-03-27T17:22:54Z</time>
      </trkpt>
      <trkpt lat="42.941151" lon="-5.670003">
        <ele>1144.86</ele>
        <time>2021-03-27T17:22:58Z</time>
      </trkpt>
      <trkpt lat="42.94109" lon="-5.669123">
        <ele>1138.78</ele>
        <time>2021-03-27T17:23:01Z</time>
      </trkpt>
      <trkpt lat="42.94079" lon="-5.667573">
        <ele>1135.1</ele>
        <time>2021-03-27T17:23:05Z</time>
      </trkpt>
      <trkpt lat="42.94079" lon="-5.667313">
        <ele>1134.95</ele>
        <time>2021-03-27T17:23:09Z</time>
      </trkpt>
      <trkpt lat="42.94088" lon="-5.666803">
        <ele>1137.51</ele>
        <time>2021-03-27T17:23:13Z</time>
      </trkpt>
      <trkpt lat="42.94088" lon="-5.666243">
        <ele>1137.11</ele>
        <time>2021-03-27T17:23:16Z</time>
      </trkpt>
      <trkpt lat="42.94075" lon="-5.665173">
        <ele>1136.55</ele>
        <time>2021-03-27T17:23:20Z</time>
      </trkpt>
      <trkpt lat="42.94079" lon="-5.664403">
        <ele>1132.0</ele>
        <time>2021-03-27T17:23:24Z</time>
      </trkpt>
      <trkpt lat="42.94071" lon="-5.663777">
        <ele>1134.22</ele>
        <time>2021-03-27T17:23:28Z</time>
      </trkpt>
      <trkpt lat="42.940653" lon="-5.663125">
        <ele>1134.22</ele>
        <time>2021-03-27T17:23:32Z</time>
      </trkpt>
      <trkpt lat="42.940664" lon="-5.66256">
        <ele>1134.17</ele>
        <time>2021-03-27T17:23:35Z</time>
      </trkpt>
      <trkpt lat="42.940578" lon="-5.662178">
        <ele>1133.16</ele>
        <time>2021-03-27T17:23:39Z</time>
      </trkpt>
      <trkpt lat="42.94057" lon="-5.661561">
        <ele>1131.24</ele>
        <time>2021-03-27T17:23:43Z</time>
      </trkpt>
      <trkpt lat="42.940575" lon="-5.661461">
        <ele>1130.52</ele>
        <time>2021-03-27T17:23:47Z</time>
      </trkpt>
      <trkpt lat="42.940639" lon="-5.661249">
        <ele>1130.0</ele>
        <time>2021-03-27T17:23:50Z</time>
      </trkpt>
      <trkpt lat="42.941227" lon="-5.660216">
        <ele>1132.19</ele>
        <time>2021-03-27T17:23:54Z</time>
      </trkpt>
      <trkpt lat="42.941379" lon="-5.659902">
        <ele>1134.32</ele>
        <time>2021-03-27T17:23:58Z</time>
      </trkpt>
      <trkpt lat="42.941398" lon="-5.659793">
        <ele>1134.76</ele>
        <time>2021-03-27T17:24:02Z</time>
      </trkpt>
      <trkpt lat="42.941336" lon="-5.659526">
        <ele>1134.24</ele>
        <time>2021-03-27T17:24:06Z</time>
      </trkpt>
      <trkpt lat="42.941254" lon="-5.659419">
        <ele>1133.95</ele>
        <time>2021-03-27T17:24:09Z</time>
      </trkpt>
      <trkpt lat="42.941128" lon="-5.659332">
        <ele>1133.97</ele>
        <time>2021-03-27T17:24:13Z</time>
      </trkpt>
      <trkpt lat="42.940759" lon="-5.659255">
        <ele>1133.32</ele>
        <time>2021-03-27T17:24:17Z</time>
      </trkpt>
      <trkpt lat="42.940554" lon="-5.659191">
        <ele>1133.09</ele>
        <time>2021-03-27T17:24:21Z</time>
      </trkpt>
      <trkpt lat="42.940508" lon="-5.659133">
        <ele>1132.95</ele>
        <time>2021-03-27T17:24:24Z</time>
      </trkpt>
      <trkpt lat="42.940436" lon="-5.658917">
        <ele>1132.02</ele>
        <time>2021-03-27T17:24:28Z</time>
      </trkpt>
      <trkpt lat="42.940388" lon="-5.658298">
        <ele>1132.99</ele>
        <time>2021-03-27T17:24:32Z</time>
      </trkpt>
      <trkpt lat="42.940324" lon="-5.65779">
        <ele>1136.57</ele>
        <time>2021-03-27T17:24:36Z</time>
      </trkpt>
      <trkpt lat="42.940264" lon="-5.657342">
        <ele>1136.54</ele>
        <time>2021-03-27T17:24:39Z</time>
      </trkpt>
      <trkpt lat="42.940177" lon="-5.656954">
        <ele>1137.6</ele>
        <time>2021-03-27T17:24:43Z</time>
      </trkpt>
      <trkpt lat="42.940128" lon="-5.656779">
        <ele>1137.78</ele>
        <time>2021-03-27T17:24:47Z</time>
      </trkpt>
      <trkpt lat="42.940065" lon="-5.656656">
        <ele>1138.06</ele>
        <time>2021-03-27T17:24:51Z</time>
      </trkpt>
      <trkpt lat="42.93977" lon="-5.655559">
        <ele>1142.81</ele>
        <time>2021-03-27T17:24:55Z</time>
      </trkpt>
      <trkpt lat="42.939547" lon="-5.65509">
        <ele>1144.13</ele>
        <time>2021-03-27T17:24:58Z</time>
      </trkpt>
      <trkpt lat="42.939501" lon="-5.654798">
        <ele>1144.93</ele>
        <time>2021-03-27T17:25:02Z</time>
      </trkpt>
      <trkpt lat="42.939634" lon="-5.653775">
        <ele>1150.27</ele>
        <time>2021-03-27T17:25:06Z</time>
      </trkpt>
      <trkpt lat="42.939877" lon="-5.652248">
        <ele>1149.68</ele>
        <time>2021-03-27T17:25:10Z</time>
      </trkpt>
      <trkpt lat="42.940157" lon="-5.651171">
        <ele>1150.35</ele>
        <time>2021-03-27T17:25:13Z</time>
      </trkpt>
      <trkpt lat="42.941382" lon="-5.64699">
        <ele>1154.78</ele>
        <time>2021-03-27T17:25:17Z</time>
      </trkpt>
      <trkpt lat="42.941546" lon="-5.646069">
        <ele>1155.04</ele>
        <time>2021-03-27T17:25:21Z</time>
      </trkpt>
      <trkpt lat="42.941685" lon="-5.645621">
        <ele>1155.91</ele>
        <time>2021-03-27T17:25:25Z</time>
      </trkpt>
      <trkpt lat="42.941907" lon="-5.645347">
        <ele>1159.13</ele>
        <time>2021-03-27T17:25:28Z</time>
      </trkpt>
      <trkpt lat="42.942118" lon="-5.645028">
        <ele>1161.18</ele>
        <time>2021-03-27T17:25:32Z</time>
      </trkpt>
      <trkpt lat="42.942738" lon="-5.643815">
        <ele>1163.23</ele>
        <time>2021-03-27T17:25:36Z</time>
      </trkpt>
      <trkpt lat="42.943849" lon="-5.641463">
        <ele>1168.98</ele>
        <time>2021-03-27T17:25:40Z</time>
      </trkpt>
      <trkpt lat="42.946213" lon="-5.638341">
        <ele>1181.1</ele>
        <time>2021-03-27T17:25:44Z</time>
      </trkpt>
      <trkpt lat="42.946526" lon="-5.638086">
        <ele>1185.03</ele>
        <time>2021-03-27T17:25:47Z</time>
      </trkpt>
      <trkpt lat="42.947333" lon="-5.637673">
        <ele>1187.27</ele>
        <time>2021-03-27T17:25:51Z</time>
      </trkpt>
      <trkpt lat="42.947909" lon="-5.637195">
        <ele>1192.98</ele>
        <time>2021-03-27T17:25:55Z</time>
      </trkpt>
      <trkpt lat="42.948113" lon="-5.63709">
        <ele>1194.03</ele>
        <time>2021-03-27T17:25:59Z</time>
      </trkpt>
      <trkpt lat="42.948682" lon="-5.637076">
        <ele>1198.99</ele>
        <time>2021-03-27T17:26:02Z</time>
      </trkpt>
      <trkpt lat="42.949947" lon="-5.637099">
        <ele>1205.88</ele>
        <time>2021-03-27T17:26:06Z</time>
      </trkpt>
      <trkpt lat="42.950969" lon="-5.637394">
        <ele>1209.41</ele>
        <time>2021-03-27T17:26:10Z</time>
      </trkpt>
      <trkpt lat="42.951321" lon="-5.637438">
        <ele>1212.82</ele>
        <time>2021-03-27T17:26:14Z</time>
      </trkpt>
      <trkpt lat="42.95176" lon="-5.637417">
        <ele>1218.72</ele>
        <time>2021-03-27T17:26:17Z</time>
      </trkpt>
      <trkpt lat="42.951928" lon="-5.637361">
        <ele>1220.27</ele>
        <time>2021-03-27T17:26:21Z</time>
      </trkpt>
      <trkpt lat="42.952079" lon="-5.63711">
        <ele>1217.58</ele>
        <time>2021-03-27T17:26:25Z</time>
      </trkpt>
      <trkpt lat="42.952133" lon="-5.636831">
        <ele>1217.95</ele>
        <time>2021-03-27T17:26:29Z</time>
      </trkpt>
      <trkpt lat="42.952075" lon="-5.636577">
        <ele>1220.82</ele>
        <time>2021-03-27T17:26:33Z</time>
      </trkpt>
      <trkpt lat="42.951921" lon="-5.636367">
        <ele>1224.14</ele>
        <time>2021-03-27T17:26:36Z</time>
      </trkpt>
      <trkpt lat="42.951727" lon="-5.636024">
        <ele>1229.06</ele>
        <time>2021-03-27T17:26:40Z</time>
      </trkpt>
      <trkpt lat="42.951039" lon="-5.634391">
        <ele>1241.9</ele>
        <time>2021-03-27T17:26:44Z</time>
      </trkpt>
      <trkpt lat="42.950602" lon="-5.632917">
        <ele>1258.09</ele>
        <time>2021-03-27T17:26:48Z</time>
      </trkpt>
      <trkpt lat="42.950593" lon="-5.632285">
        <ele>1258.32</ele>
        <time>2021-03-27T17:26:51Z</time>
      </trkpt>
      <trkpt lat="42.95064" lon="-5.631993">
        <ele>1259.23</ele>
        <time>2021-03-27T17:26:55Z</time>
      </trkpt>
      <trkpt lat="42.951127" lon="-5.630964">
        <ele>1263.5</ele>
        <time>2021-03-27T17:26:59Z</time>
      </trkpt>
      <trkpt lat="42.951417" lon="-5.629953">
        <ele>1262.87</ele>
        <time>2021-03-27T17:27:03Z</time>
      </trkpt>
      <trkpt lat="42.951724" lon="-5.628729">
        <ele>1265.19</ele>
        <time>2021-03-27T17:27:06Z</time>
      </trkpt>
      <trkpt lat="42.951752" lon="-5.628737">
        <ele>1266.41</ele>
        <time>2021-03-27T17:27:10Z</time>
      </trkpt>
      <trkpt lat="42.951944" lon="-5.628471">
        <ele>1269.48</ele>
        <time>2021-03-27T17:27:14Z</time>
      </trkpt>
      <trkpt lat="42.951997" lon="-5.628363">
        <ele>1268.94</ele>
        <time>2021-03-27T17:27:18Z</time>
      </trkpt>
      <trkpt lat="42.952045" lon="-5.628146">
        <ele>1267.63</ele>
        <time>2021-03-27T17:27:22Z</time>
      </trkpt>
      <trkpt lat="42.952053" lon="-5.62793">
        <ele>1267.51</ele>
        <time>2021-03-27T17:27:25Z</time>
      </trkpt>
      <trkpt lat="42.952029" lon="-5.627787">
        <ele>1268.25</ele>
        <time>2021-03-27T17:27:29Z</time>
      </trkpt>
      <trkpt lat="42.951932" lon="-5.627466">
        <ele>1272.16</ele>
        <time>2021-03-27T17:27:33Z</time>
      </trkpt>
      <trkpt lat="42.951892" lon="-5.627447">
        <ele>1272.01</ele>
        <time>2021-03-27T17:27:37Z</time>
      </trkpt>
      <trkpt lat="42.951879" lon="-5.627224">
        <ele>1273.52</ele>
        <time>2021-03-27T17:27:40Z</time>
      </trkpt>
      <trkpt lat="42.95189" lon="-5.627031">
        <ele>1273.06</ele>
        <time>2021-03-27T17:27:44Z</time>
      </trkpt>
      <trkpt lat="42.951947" lon="-5.626753">
        <ele>1274.4</ele>
        <time>2021-03-27T17:27:48Z</time>
      </trkpt>
      <trkpt lat="42.95212" lon="-5.62612">
        <ele>1276.99</ele>
        <time>2021-03-27T17:27:52Z</time>
      </trkpt>
      <trkpt lat="42.9538" lon="-5.62208">
        <ele>1292.26</ele>
        <time>2021-03-27T17:27:55Z</time>
      </trkpt>
      <trkpt lat="42.954159" lon="-5.621002">
        <ele>1294.65</ele>
        <time>2021-03-27T17:27:59Z</time>
      </trkpt>
      <trkpt lat="42.954374" lon="-5.620566">
        <ele>1297.33</ele>
        <time>2021-03-27T17:28:03Z</time>
      </trkpt>
      <trkpt lat="42.954657" lon="-5.620281">
        <ele>1300.65</ele>
        <time>2021-03-27T17:28:07Z</time>
      </trkpt>
      <trkpt lat="42.955101" lon="-5.620017">
        <ele>1302.33</ele>
        <time>2021-03-27T17:28:11Z</time>
      </trkpt>
      <trkpt lat="42.955266" lon="-5.620253">
        <ele>1305.81</ele>
        <time>2021-03-27T17:28:14Z</time>
      </trkpt>
      <trkpt lat="42.955494" lon="-5.620328">
        <ele>1306.48</ele>
        <time>2021-03-27T17:28:18Z</time>
      </trkpt>
      <trkpt lat="42.955729" lon="-5.620232">
        <ele>1309.13</ele>
        <time>2021-03-27T17:28:22Z</time>
      </trkpt>
      <trkpt lat="42.955902" lon="-5.620028">
        <ele>1312.26</ele>
        <time>2021-03-27T17:28:26Z</time>
      </trkpt>
      <trkpt lat="42.956004" lon="-5.619599">
        <ele>1314.46</ele>
        <time>2021-03-27T17:28:29Z</time>
      </trkpt>
      <trkpt lat="42.955991" lon="-5.618932">
        <ele>1313.29</ele>
        <time>2021-03-27T17:28:33Z</time>
      </trkpt>
      <trkpt lat="42.956034" lon="-5.618345">
        <ele>1315.11</ele>
        <time>2021-03-27T17:28:37Z</time>
      </trkpt>
      <trkpt lat="42.956131" lon="-5.61447">
        <ele>1327.87</ele>
        <time>2021-03-27T17:28:41Z</time>
      </trkpt>
      <trkpt lat="42.95607" lon="-5.61376">
        <ele>1331.93</ele>
        <time>2021-03-27T17:28:44Z</time>
      </trkpt>
      <trkpt lat="42.95564" lon="-5.61174">
        <ele>1345.02</ele>
        <time>2021-03-27T17:28:48Z</time>
      </trkpt>
      <trkpt lat="42.95547" lon="-5.61067">
        <ele>1340.46</ele>
        <time>2021-03-27T17:28:52Z</time>
      </trkpt>
      <trkpt lat="42.9553" lon="-5.60916">
        <ele>1329.73</ele>
        <time>2021-03-27T17:28:56Z</time>
      </trkpt>
      <trkpt lat="42.954978" lon="-5.607984">
        <ele>1329.96</ele>
        <time>2021-03-27T17:29:00Z</time>
      </trkpt>
      <trkpt lat="42.954957" lon="-5.607666">
        <ele>1322.86</ele>
        <time>2021-03-27T17:29:03Z</time>
      </trkpt>
      <trkpt lat="42.954961" lon="-5.60686">
        <ele>1317.56</ele>
        <time>2021-03-27T17:29:07Z</time>
      </trkpt>
      <trkpt lat="42.954786" lon="-5.606182">
        <ele>1324.16</ele>
        <time>2021-03-27T17:29:11Z</time>
      </trkpt>
      <trkpt lat="42.95473" lon="-5.605489">
        <ele>1315.69</ele>
        <time>2021-03-27T17:29:15Z</time>
      </trkpt>
      <trkpt lat="42.954655" lon="-5.605152">
        <ele>1312.89</ele>
        <time>2021-03-27T17:29:18Z</time>
      </trkpt>
      <trkpt lat="42.954275" lon="-5.60439">
        <ele>1313.02</ele>
        <time>2021-03-27T17:29:22Z</time>
      </trkpt>
      <trkpt lat="42.954251" lon="-5.604241">
        <ele>1313.39</ele>
        <time>2021-03-27T17:29:26Z</time>
      </trkpt>
      <trkpt lat="42.954293" lon="-5.603757">
        <ele>1311.11</ele>
        <time>2021-03-27T17:29:30Z</time>
      </trkpt>
      <trkpt lat="42.954409" lon="-5.602964">
        <ele>1302.7</ele>
        <time>2021-03-27T17:29:33Z</time>
      </trkpt>
      <trkpt lat="42.954408" lon="-5.60278">
        <ele>1300.86</ele>
        <time>2021-03-27T17:29:37Z</time>
      </trkpt>
      <trkpt lat="42.954378" lon="-5.602638">
        <ele>1301.36</ele>
        <time>2021-03-27T17:29:41Z</time>
      </trkpt>
      <trkpt lat="42.954255" lon="-5.602411">
        <ele>1306.63</ele>
        <time>2021-03-27T17:29:45Z</time>
      </trkpt>
      <trkpt lat="42.954213" lon="-5.602261">
        <ele>1308.81</ele>
        <time>2021-03-27T17:29:49Z</time>
      </trkpt>
      <trkpt lat="42.954209" lon="-5.602141">
        <ele>1308.21</ele>
        <time>2021-03-27T17:29:52Z</time>
      </trkpt>
      <trkpt lat="42.954241" lon="-5.601981">
        <ele>1305.4</ele>
        <time>2021-03-27T17:29:56Z</time>
      </trkpt>
      <trkpt lat="42.954374" lon="-5.601457">
        <ele>1299.27</ele>
        <time>2021-03-27T17:30:00Z</time>
      </trkpt>
      <trkpt lat="42.954378" lon="-5.601154">
        <ele>1299.36</ele>
        <time>2021-03-27T17:30:04Z</time>
      </trkpt>
      <trkpt lat="42.95431" lon="-5.60067">
        <ele>1300.08</ele>
        <time>2021-03-27T17:30:07Z</time>
      </trkpt>
      <trkpt lat="42.954334" lon="-5.600481">
        <ele>1297.61</ele>
        <time>2021-03-27T17:30:11Z</time>
      </trkpt>
      <trkpt lat="42.95444" lon="-5.600179">
        <ele>1293.82</ele>
        <time>2021-03-27T17:30:15Z</time>
      </trkpt>
      <trkpt lat="42.95461" lon="-5.599777">
        <ele>1291.91</ele>
        <time>2021-03-27T17:30:19Z</time>
      </trkpt>
      <trkpt lat="42.955108" lon="-5.599211">
        <ele>1288.49</ele>
        <time>2021-03-27T17:30:23Z</time>
      </trkpt>
      <trkpt lat="42.95518" lon="-5.598967">
        <ele>1285.83</ele>
        <time>2021-03-27T17:30:26Z</time>
      </trkpt>
      <trkpt lat="42.955156" lon="-5.598776">
        <ele>1286.24</ele>
        <time>2021-03-27T17:30:30Z</time>
      </trkpt>
      <trkpt lat="42.95504" lon="-5.59839">
        <ele>1288.89</ele>
        <time>2021-03-27T17:30:34Z</time>
      </trkpt>
      <trkpt lat="42.955041" lon="-5.598226">
        <ele>1288.08</ele>
        <time>2021-03-27T17:30:38Z</time>
      </trkpt>
      <trkpt lat="42.955114" lon="-5.598019">
        <ele>1284.53</ele>
        <time>2021-03-27T17:30:41Z</time>
      </trkpt>
      <trkpt lat="42.955219" lon="-5.597853">
        <ele>1279.01</ele>
        <time>2021-03-27T17:30:45Z</time>
      </trkpt>
      <trkpt lat="42.955272" lon="-5.597695">
        <ele>1275.98</ele>
        <time>2021-03-27T17:30:49Z</time>
      </trkpt>
      <trkpt lat="42.955276" lon="-5.59754">
        <ele>1275.23</ele>
        <time>2021-03-27T17:30:53Z</time>
      </trkpt>
      <trkpt lat="42.95525" lon="-5.59745">
        <ele>1275.98</ele>
        <time>2021-03-27T17:30:56Z</time>
      </trkpt>
      <trkpt lat="42.955103" lon="-5.597186">
        <ele>1279.57</ele>
        <time>2021-03-27T17:31:00Z</time>
      </trkpt>
      <trkpt lat="42.95508" lon="-5.59702">
        <ele>1278.86</ele>
        <time>2021-03-27T17:31:04Z</time>
      </trkpt>
      <trkpt lat="42.955106" lon="-5.596857">
        <ele>1277.81</ele>
        <time>2021-03-27T17:31:08Z</time>
      </trkpt>
      <trkpt lat="42.955378" lon="-5.5963">
        <ele>1272.34</ele>
        <time>2021-03-27T17:31:12Z</time>
      </trkpt>
      <trkpt lat="42.955417" lon="-5.596106">
        <ele>1271.42</ele>
        <time>2021-03-27T17:31:15Z</time>
      </trkpt>
      <trkpt lat="42.955388" lon="-5.59583">
        <ele>1270.59</ele>
        <time>2021-03-27T17:31:19Z</time>
      </trkpt>
      <trkpt lat="42.955319" lon="-5.595511">
        <ele>1267.58</ele>
        <time>2021-03-27T17:31:23Z</time>
      </trkpt>
      <trkpt lat="42.955122" lon="-5.594814">
        <ele>1269.73</ele>
        <time>2021-03-27T17:31:27Z</time>
      </trkpt>
      <trkpt lat="42.95508" lon="-5.59449">
        <ele>1270.71</ele>
        <time>2021-03-27T17:31:30Z</time>
      </trkpt>
      <trkpt lat="42.95521" lon="-5.59354">
        <ele>1264.51</ele>
        <time>2021-03-27T17:31:34Z</time>
      </trkpt>
      <trkpt lat="42.95513" lon="-5.59256">
        <ele>1264.55</ele>
        <time>2021-03-27T17:31:38Z</time>
      </trkpt>
      <trkpt lat="42.95521" lon="-5.59217">
        <ele>1261.2</ele>
        <time>2021-03-27T17:31:42Z</time>
      </trkpt>
      <trkpt lat="42.957104" lon="-5.585684">
        <ele>1226.36</ele>
        <time>2021-03-27T17:31:45Z</time>
      </trkpt>
      <trkpt lat="42.958333" lon="-5.57962">
        <ele>1193.26</ele>
        <time>2021-03-27T17:31:49Z</time>
      </trkpt>
      <trkpt lat="42.958836" lon="-5.577008">
        <ele>1180.32</ele>
        <time>2021-03-27T17:31:53Z</time>
      </trkpt>
      <trkpt lat="42.958946" lon="-5.576611">
        <ele>1180.02</ele>
        <time>2021-03-27T17:31:57Z</time>
      </trkpt>
      <trkpt lat="42.958966" lon="-5.576202">
        <ele>1177.77</ele>
        <time>2021-03-27T17:32:01Z</time>
      </trkpt>
      <trkpt lat="42.958921" lon="-5.575464">
        <ele>1175.44</ele>
        <time>2021-03-27T17:32:04Z</time>
      </trkpt>
      <trkpt lat="42.958937" lon="-5.575283">
        <ele>1174.67</ele>
        <time>2021-03-27T17:32:08Z</time>
      </trkpt>
      <trkpt lat="42.95888" lon="-5.575064">
        <ele>1174.21</ele>
        <time>2021-03-27T17:32:12Z</time>
      </trkpt>
      <trkpt lat="42.958687" lon="-5.574872">
        <ele>1172.81</ele>
        <time>2021-03-27T17:32:16Z</time>
      </trkpt>
      <trkpt lat="42.958655" lon="-5.574721">
        <ele>1172.14</ele>
        <time>2021-03-27T17:32:19Z</time>
      </trkpt>
      <trkpt lat="42.95863" lon="-5.57431">
        <ele>1167.65</ele>
        <time>2021-03-27T17:32:23Z</time>
      </trkpt>
      <trkpt lat="42.958637" lon="-5.57412">
        <ele>1165.91</ele>
        <time>2021-03-27T17:32:27Z</time>
      </trkpt>
      <trkpt lat="42.959075" lon="-5.573572">
        <ele>1164.38</ele>
        <time>2021-03-27T17:32:31Z</time>
      </trkpt>
      <trkpt lat="42.9592" lon="-5.573216">
        <ele>1164.76</ele>
        <time>2021-03-27T17:32:34Z</time>
      </trkpt>
      <trkpt lat="42.959384" lon="-5.572784">
        <ele>1163.22</ele>
        <time>2021-03-27T17:32:38Z</time>
      </trkpt>
      <trkpt lat="42.959388" lon="-5.572717">
        <ele>1163.11</ele>
        <time>2021-03-27T17:32:42Z</time>
      </trkpt>
      <trkpt lat="42.959132" lon="-5.572412">
        <ele>1161.44</ele>
        <time>2021-03-27T17:32:46Z</time>
      </trkpt>
      <trkpt lat="42.959088" lon="-5.572144">
        <ele>1159.95</ele>
        <time>2021-03-27T17:32:50Z</time>
      </trkpt>
      <trkpt lat="42.95929" lon="-5.57148">
        <ele>1155.95</ele>
        <time>2021-03-27T17:32:53Z</time>
      </trkpt>
      <trkpt lat="42.959494" lon="-5.571037">
        <ele>1155.18</ele>
        <time>2021-03-27T17:32:57Z</time>
      </trkpt>
      <trkpt lat="42.959246" lon="-5.57091">
        <ele>1155.0</ele>
        <time>2021-03-27T17:33:03Z</time>
      </trkpt>
      <trkpt lat="42.959012" lon="-5.570698">
        <ele>1154.3</ele>
        <time>2021-03-27T17:33:08Z</time>
      </trkpt>
      <trkpt lat="42.958817" lon="-5.570405">
        <ele>1153.46</ele>
        <time>2021-03-27T17:33:14Z</time>
      </trkpt>
      <trkpt lat="42.95864" lon="-5.569956">
        <ele>1151.96</ele>
        <time>2021-03-27T17:33:20Z</time>
      </trkpt>
      <trkpt lat="42.958361" lon="-5.568963">
        <ele>1148.68</ele>
        <time>2021-03-27T17:33:25Z</time>
      </trkpt>
      <trkpt lat="42.9581" lon="-5.568154">
        <ele>1146.9</ele>
        <time>2021-03-27T17:33:31Z</time>
      </trkpt>
      <trkpt lat="42.957829" lon="-5.567777">
        <ele>1146.0</ele>
        <time>2021-03-27T17:33:36Z</time>
      </trkpt>
      <trkpt lat="42.957058" lon="-5.567248">
        <ele>1145.5</ele>
        <time>2021-03-27T17:33:42Z</time>
      </trkpt>
      <trkpt lat="42.956564" lon="-5.566836">
        <ele>1141.99</ele>
        <time>2021-03-27T17:33:48Z</time>
      </trkpt>
      <trkpt lat="42.956141" lon="-5.566266">
        <ele>1137.22</ele>
        <time>2021-03-27T17:33:53Z</time>
      </trkpt>
      <trkpt lat="42.955823" lon="-5.565795">
        <ele>1137.41</ele>
        <time>2021-03-27T17:33:59Z</time>
      </trkpt>
      <trkpt lat="42.95503" lon="-5.564699">
        <ele>1142.0</ele>
        <time>2021-03-27T17:34:04Z</time>
      </trkpt>
      <trkpt lat="42.954318" lon="-5.563959">
        <ele>1141.83</ele>
        <time>2021-03-27T17:34:10Z</time>
      </trkpt>
      <trkpt lat="42.953743" lon="-5.563575">
        <ele>1141.34</ele>
        <time>2021-03-27T17:34:15Z</time>
      </trkpt>
      <trkpt lat="42.952598" lon="-5.562934">
        <ele>1138.57</ele>
        <time>2021-03-27T17:34:21Z</time>
      </trkpt>
      <trkpt lat="42.952349" lon="-5.562766">
        <ele>1137.99</ele>
        <time>2021-03-27T17:34:27Z</time>
      </trkpt>
      <trkpt lat="42.952088" lon="-5.562544">
        <ele>1137.71</ele>
        <time>2021-03-27T17:34:32Z</time>
      </trkpt>
      <trkpt lat="42.951166" lon="-5.561127">
        <ele>1135.4</ele>
        <time>2021-03-27T17:34:38Z</time>
      </trkpt>
      <trkpt lat="42.950936" lon="-5.560901">
        <ele>1134.53</ele>
        <time>2021-03-27T17:34:43Z</time>
      </trkpt>
      <trkpt lat="42.950215" lon="-5.560513">
        <ele>1132.97</ele>
        <time>2021-03-27T17:34:49Z</time>
      </trkpt>
      <trkpt lat="42.949705" lon="-5.560061">
        <ele>1129.66</ele>
        <time>2021-03-27T17:34:54Z</time>
      </trkpt>
      <trkpt lat="42.949387" lon="-5.559628">
        <ele>1129.67</ele>
        <time>2021-03-27T17:35:00Z</time>
      </trkpt>
      <trkpt lat="42.946435" lon="-5.554513">
        <ele>1123.71</ele>
        <time>2021-03-27T17:35:06Z</time>
      </trkpt>
      <trkpt lat="42.946714" lon="-5.554231">
        <ele>1126.69</ele>
        <time>2021-03-27T17:35:09Z</time>
      </trkpt>
      <trkpt lat="42.947094" lon="-5.553905">
        <ele>1129.19</ele>
        <time>2021-03-27T17:35:13Z</time>
      </trkpt>
      <trkpt lat="42.948665" lon="-5.551587">
        <ele>1136.37</ele>
        <time>2021-03-27T17:35:17Z</time>
      </trkpt>
      <trkpt lat="42.94903" lon="-5.550082">
        <ele>1145.2</ele>
        <time>2021-03-27T17:35:20Z</time>
      </trkpt>
      <trkpt lat="42.949841" lon="-5.547685">
        <ele>1144.62</ele>
        <time>2021-03-27T17:35:24Z</time>
      </trkpt>
      <trkpt lat="42.95011" lon="-5.54668">
        <ele>1146.57</ele>
        <time>2021-03-27T17:35:28Z</time>
      </trkpt>
      <trkpt lat="42.950106" lon="-5.546489">
        <ele>1147.57</ele>
        <time>2021-03-27T17:35:31Z</time>
      </trkpt>
      <trkpt lat="42.949937" lon="-5.545723">
        <ele>1145.96</ele>
        <time>2021-03-27T17:35:35Z</time>
      </trkpt>
      <trkpt lat="42.949533" lon="-5.543721">
        <ele>1152.04</ele>
        <time>2021-03-27T17:35:39Z</time>
      </trkpt>
      <trkpt lat="42.949535" lon="-5.541715">
        <ele>1151.56</ele>
        <time>2021-03-27T17:35:43Z</time>
      </trkpt>
      <trkpt lat="42.949517" lon="-5.541553">
        <ele>1154.12</ele>
        <time>2021-03-27T17:35:46Z</time>
      </trkpt>
      <trkpt lat="42.949345" lon="-5.541266">
        <ele>1156.4</ele>
        <time>2021-03-27T17:35:50Z</time>
      </trkpt>
      <trkpt lat="42.948765" lon="-5.540512">
        <ele>1150.89</ele>
        <time>2021-03-27T17:35:54Z</time>
      </trkpt>
      <trkpt lat="42.948701" lon="-5.540302">
        <ele>1151.5</ele>
        <time>2021-03-27T17:35:57Z</time>
      </trkpt>
      <trkpt lat="42.94872" lon="-5.539989">
        <ele>1151.97</ele>
        <time>2021-03-27T17:36:01Z</time>
      </trkpt>
      <trkpt lat="42.948853" lon="-5.539313">
        <ele>1158.81</ele>
        <time>2021-03-27T17:36:05Z</time>
      </trkpt>
      <trkpt lat="42.948901" lon="-5.53865">
        <ele>1158.52</ele>
        <time>2021-03-27T17:36:08Z</time>
      </trkpt>
      <trkpt lat="42.948889" lon="-5.537729">
        <ele>1155.37</ele>
        <time>2021-03-27T17:36:12Z</time>
      </trkpt>
      <trkpt lat="42.948761" lon="-5.536513">
        <ele>1163.82</ele>
        <time>2021-03-27T17:36:16Z</time>
      </trkpt>
      <trkpt lat="42.948719" lon="-5.53628">
        <ele>1164.94</ele>
        <time>2021-03-27T17:36:19Z</time>
      </trkpt>
      <trkpt lat="42.948593" lon="-5.536066">
        <ele>1163.61</ele>
        <time>2021-03-27T17:36:23Z</time>
      </trkpt>
      <trkpt lat="42.948503" lon="-5.535814">
        <ele>1162.09</ele>
        <time>2021-03-27T17:36:27Z</time>
      </trkpt>
      <trkpt lat="42.948489" lon="-5.53507">
        <ele>1161.71</ele>
        <time>2021-03-27T17:36:30Z</time>
      </trkpt>
      <trkpt lat="42.948512" lon="-5.534838">
        <ele>1161.93</ele>
        <time>2021-03-27T17:36:34Z</time>
      </trkpt>
      <trkpt lat="42.948585" lon="-5.534616">
        <ele>1162.76</ele>
        <time>2021-03-27T17:36:38Z</time>
      </trkpt>
      <trkpt lat="42.9486" lon="-5.534453">
        <ele>1162.92</ele>
        <time>2021-03-27T17:36:42Z</time>
      </trkpt>
      <trkpt lat="42.948539" lon="-5.534238">
        <ele>1163.39</ele>
        <time>2021-03-27T17:36:45Z</time>
      </trkpt>
      <trkpt lat="42.948472" lon="-5.5341">
        <ele>1162.61</ele>
        <time>2021-03-27T17:36:49Z</time>
      </trkpt>
      <trkpt lat="42.948425" lon="-5.533941">
        <ele>1161.64</ele>
        <time>2021-03-27T17:36:53Z</time>
      </trkpt>
      <trkpt lat="42.948433" lon="-5.533578">
        <ele>1165.09</ele>
        <time>2021-03-27T17:36:56Z</time>
      </trkpt>
      <trkpt lat="42.948486" lon="-5.533181">
        <ele>1167.39</ele>
        <time>2021-03-27T17:37:00Z</time>
      </trkpt>
      <trkpt lat="42.948563" lon="-5.532845">
        <ele>1167.65</ele>
        <time>2021-03-27T17:37:04Z</time>
      </trkpt>
      <trkpt lat="42.948582" lon="-5.532636">
        <ele>1167.74</ele>
        <time>2021-03-27T17:37:07Z</time>
      </trkpt>
      <trkpt lat="42.948577" lon="-5.532394">
        <ele>1167.96</ele>
        <time>2021-03-27T17:37:11Z</time>
      </trkpt>
      <trkpt lat="42.948483" lon="-5.531771">
        <ele>1168.57</ele>
        <time>2021-03-27T17:37:15Z</time>
      </trkpt>
      <trkpt lat="42.948498" lon="-5.531471">
        <ele>1168.18</ele>
        <time>2021-03-27T17:37:18Z</time>
      </trkpt>
      <trkpt lat="42.948897" lon="-5.529899">
        <ele>1168.08</ele>
        <time>2021-03-27T17:37:22Z</time>
      </trkpt>
      <trkpt lat="42.949407" lon="-5.529148">
        <ele>1171.35</ele>
        <time>2021-03-27T17:37:26Z</time>
      </trkpt>
      <trkpt lat="42.949734" lon="-5.528028">
        <ele>1174.08</ele>
        <time>2021-03-27T17:37:30Z</time>
      </trkpt>
      <trkpt lat="42.949409" lon="-5.523719">
        <ele>1178.75</ele>
        <time>2021-03-27T17:37:33Z</time>
      </trkpt>
      <trkpt lat="42.949213" lon="-5.522169">
        <ele>1182.91</ele>
        <time>2021-03-27T17:37:37Z</time>
      </trkpt>
      <trkpt lat="42.94891" lon="-5.520637">
        <ele>1190.45</ele>
        <time>2021-03-27T17:37:41Z</time>
      </trkpt>
      <trkpt lat="42.948899" lon="-5.520094">
        <ele>1189.58</ele>
        <time>2021-03-27T17:37:44Z</time>
      </trkpt>
      <trkpt lat="42.949335" lon="-5.515321">
        <ele>1198.06</ele>
        <time>2021-03-27T17:37:48Z</time>
      </trkpt>
      <trkpt lat="42.949691" lon="-5.514212">
        <ele>1199.1</ele>
        <time>2021-03-27T17:37:52Z</time>
      </trkpt>
      <trkpt lat="42.949997" lon="-5.512831">
        <ele>1203.77</ele>
        <time>2021-03-27T17:37:55Z</time>
      </trkpt>
      <trkpt lat="42.949934" lon="-5.512509">
        <ele>1206.19</ele>
        <time>2021-03-27T17:37:59Z</time>
      </trkpt>
      <trkpt lat="42.949773" lon="-5.512288">
        <ele>1207.61</ele>
        <time>2021-03-27T17:38:03Z</time>
      </trkpt>
      <trkpt lat="42.949444" lon="-5.511967">
        <ele>1205.74</ele>
        <time>2021-03-27T17:38:06Z</time>
      </trkpt>
      <trkpt lat="42.949358" lon="-5.511741">
        <ele>1204.87</ele>
        <time>2021-03-27T17:38:10Z</time>
      </trkpt>
      <trkpt lat="42.949381" lon="-5.511493">
        <ele>1206.26</ele>
        <time>2021-03-27T17:38:14Z</time>
      </trkpt>
      <trkpt lat="42.949422" lon="-5.511261">
        <ele>1209.32</ele>
        <time>2021-03-27T17:38:17Z</time>
      </trkpt>
      <trkpt lat="42.94935" lon="-5.510789">
        <ele>1212.33</ele>
        <time>2021-03-27T17:38:21Z</time>
      </trkpt>
      <trkpt lat="42.949229" lon="-5.510391">
        <ele>1211.66</ele>
        <time>2021-03-27T17:38:25Z</time>
      </trkpt>
      <trkpt lat="42.949245" lon="-5.510086">
        <ele>1212.85</ele>
        <time>2021-03-27T17:38:29Z</time>
      </trkpt>
      <trkpt lat="42.949245" lon="-5.510086">
        <ele>1212.85</ele>
        <time>2021-03-27T17:38:29Z</time>
      </trkpt>
      <trkpt lat="42.949261" lon="-5.509796">
        <ele>1214.05</ele>
        <time>2021-03-27T17:38:33Z</time>
      </trkpt>
      <trkpt lat="42.949382" lon="-5.509181">
        <ele>1218.75</ele>
        <time>2021-03-27T17:38:38Z</time>
      </trkpt>
      <trkpt lat="42.949392" lon="-5.508955">
        <ele>1220.01</ele>
        <time>2021-03-27T17:38:42Z</time>
      </trkpt>
      <trkpt lat="42.949313" lon="-5.508618">
        <ele>1218.72</ele>
        <time>2021-03-27T17:38:47Z</time>
      </trkpt>
      <trkpt lat="42.948864" lon="-5.507292">
        <ele>1222.87</ele>
        <time>2021-03-27T17:38:51Z</time>
      </trkpt>
      <trkpt lat="42.948684" lon="-5.506329">
        <ele>1230.6</ele>
        <time>2021-03-27T17:38:56Z</time>
      </trkpt>
      <trkpt lat="42.948844" lon="-5.505146">
        <ele>1236.72</ele>
        <time>2021-03-27T17:39:00Z</time>
      </trkpt>
      <trkpt lat="42.948312" lon="-5.503009">
        <ele>1233.63</ele>
        <time>2021-03-27T17:39:05Z</time>
      </trkpt>
      <trkpt lat="42.948358" lon="-5.50236">
        <ele>1236.75</ele>
        <time>2021-03-27T17:39:09Z</time>
      </trkpt>
      <trkpt lat="42.948423" lon="-5.501775">
        <ele>1235.22</ele>
        <time>2021-03-27T17:39:14Z</time>
      </trkpt>
      <trkpt lat="42.948642" lon="-5.501484">
        <ele>1235.54</ele>
        <time>2021-03-27T17:39:18Z</time>
      </trkpt>
      <trkpt lat="42.949096" lon="-5.501095">
        <ele>1240.09</ele>
        <time>2021-03-27T17:39:23Z</time>
      </trkpt>
      <trkpt lat="42.949513" lon="-5.499139">
        <ele>1239.73</ele>
        <time>2021-03-27T17:39:27Z</time>
      </trkpt>
      <trkpt lat="42.951034" lon="-5.494739">
        <ele>1241.44</ele>
        <time>2021-03-27T17:39:32Z</time>
      </trkpt>
      <trkpt lat="42.951077" lon="-5.494117">
        <ele>1243.05</ele>
        <time>2021-03-27T17:39:37Z</time>
      </trkpt>
      <trkpt lat="42.951158" lon="-5.492013">
        <ele>1244.46</ele>
        <time>2021-03-27T17:39:41Z</time>
      </trkpt>
      <trkpt lat="42.95193" lon="-5.489698">
        <ele>1253.51</ele>
        <time>2021-03-27T17:39:46Z</time>
      </trkpt>
      <trkpt lat="42.952315" lon="-5.487463">
        <ele>1259.45</ele>
        <time>2021-03-27T17:39:50Z</time>
      </trkpt>
      <trkpt lat="42.95231" lon="-5.486491">
        <ele>1264.8</ele>
        <time>2021-03-27T17:39:55Z</time>
      </trkpt>
      <trkpt lat="42.952264" lon="-5.484858">
        <ele>1269.62</ele>
        <time>2021-03-27T17:39:59Z</time>
      </trkpt>
      <trkpt lat="42.951803" lon="-5.482768">
        <ele>1281.09</ele>
        <time>2021-03-27T17:40:04Z</time>
      </trkpt>
      <trkpt lat="42.951728" lon="-5.482121">
        <ele>1286.0</ele>
        <time>2021-03-27T17:40:08Z</time>
      </trkpt>
      <trkpt lat="42.951848" lon="-5.481219">
        <ele>1296.14</ele>
        <time>2021-03-27T17:40:13Z</time>
      </trkpt>
      <trkpt lat="42.951771" lon="-5.480954">
        <ele>1297.11</ele>
        <time>2021-03-27T17:40:17Z</time>
      </trkpt>
      <trkpt lat="42.9516" lon="-5.480786">
        <ele>1296.36</ele>
        <time>2021-03-27T17:40:22Z</time>
      </trkpt>
      <trkpt lat="42.951349" lon="-5.480741">
        <ele>1294.03</ele>
        <time>2021-03-27T17:40:26Z</time>
      </trkpt>
      <trkpt lat="42.950849" lon="-5.480833">
        <ele>1289.96</ele>
        <time>2021-03-27T17:40:31Z</time>
      </trkpt>
      <trkpt lat="42.950474" lon="-5.48082">
        <ele>1295.27</ele>
        <time>2021-03-27T17:40:35Z</time>
      </trkpt>
      <trkpt lat="42.949837" lon="-5.480722">
        <ele>1304.32</ele>
        <time>2021-03-27T17:40:40Z</time>
      </trkpt>
      <trkpt lat="42.949067" lon="-5.48108">
        <ele>1304.95</ele>
        <time>2021-03-27T17:40:45Z</time>
      </trkpt>
      <trkpt lat="42.948918" lon="-5.481071">
        <ele>1304.06</ele>
        <time>2021-03-27T17:40:49Z</time>
      </trkpt>
      <trkpt lat="42.948765" lon="-5.481007">
        <ele>1304.64</ele>
        <time>2021-03-27T17:40:54Z</time>
      </trkpt>
      <trkpt lat="42.94832" lon="-5.480618">
        <ele>1311.41</ele>
        <time>2021-03-27T17:40:58Z</time>
      </trkpt>
      <trkpt lat="42.947777" lon="-5.480581">
        <ele>1313.26</ele>
        <time>2021-03-27T17:41:03Z</time>
      </trkpt>
      <trkpt lat="42.94747" lon="-5.480478">
        <ele>1313.9</ele>
        <time>2021-03-27T17:41:07Z</time>
      </trkpt>
      <trkpt lat="42.947284" lon="-5.480126">
        <ele>1315.51</ele>
        <time>2021-03-27T17:41:12Z</time>
      </trkpt>
      <trkpt lat="42.947118" lon="-5.479647">
        <ele>1319.14</ele>
        <time>2021-03-27T17:41:16Z</time>
      </trkpt>
      <trkpt lat="42.945646" lon="-5.477622">
        <ele>1333.42</ele>
        <time>2021-03-27T17:41:21Z</time>
      </trkpt>
      <trkpt lat="42.945627" lon="-5.477339">
        <ele>1335.98</ele>
        <time>2021-03-27T17:41:25Z</time>
      </trkpt>
      <trkpt lat="42.945662" lon="-5.477051">
        <ele>1336.63</ele>
        <time>2021-03-27T17:41:30Z</time>
      </trkpt>
      <trkpt lat="42.945766" lon="-5.476566">
        <ele>1338.06</ele>
        <time>2021-03-27T17:41:34Z</time>
      </trkpt>
      <trkpt lat="42.945725" lon="-5.476117">
        <ele>1339.02</ele>
        <time>2021-03-27T17:41:39Z</time>
      </trkpt>
      <trkpt lat="42.945784" lon="-5.4753">
        <ele>1342.0</ele>
        <time>2021-03-27T17:41:44Z</time>
      </trkpt>
      <trkpt lat="42.945784" lon="-5.4753">
        <ele>1342.0</ele>
        <time>2021-03-27T17:41:44Z</time>
      </trkpt>
      <trkpt lat="42.945826" lon="-5.474724">
        <ele>1344.98</ele>
        <time>2021-03-27T17:41:47Z</time>
      </trkpt>
      <trkpt lat="42.94599" lon="-5.474126">
        <ele>1345.53</ele>
        <time>2021-03-27T17:41:51Z</time>
      </trkpt>
      <trkpt lat="42.945951" lon="-5.473377">
        <ele>1349.29</ele>
        <time>2021-03-27T17:41:55Z</time>
      </trkpt>
      <trkpt lat="42.946117" lon="-5.472972">
        <ele>1350.51</ele>
        <time>2021-03-27T17:41:59Z</time>
      </trkpt>
      <trkpt lat="42.946772" lon="-5.472132">
        <ele>1353.43</ele>
        <time>2021-03-27T17:42:02Z</time>
      </trkpt>
      <trkpt lat="42.947057" lon="-5.471953">
        <ele>1355.26</ele>
        <time>2021-03-27T17:42:06Z</time>
      </trkpt>
      <trkpt lat="42.947284" lon="-5.471706">
        <ele>1357.55</ele>
        <time>2021-03-27T17:42:10Z</time>
      </trkpt>
      <trkpt lat="42.947676" lon="-5.471142">
        <ele>1357.57</ele>
        <time>2021-03-27T17:42:14Z</time>
      </trkpt>
      <trkpt lat="42.947794" lon="-5.470875">
        <ele>1355.0</ele>
        <time>2021-03-27T17:42:18Z</time>
      </trkpt>
      <trkpt lat="42.947793" lon="-5.470537">
        <ele>1352.23</ele>
        <time>2021-03-27T17:42:21Z</time>
      </trkpt>
      <trkpt lat="42.947266" lon="-5.468975">
        <ele>1361.94</ele>
        <time>2021-03-27T17:42:25Z</time>
      </trkpt>
      <trkpt lat="42.946705" lon="-5.468088">
        <ele>1367.18</ele>
        <time>2021-03-27T17:42:29Z</time>
      </trkpt>
      <trkpt lat="42.946382" lon="-5.467269">
        <ele>1374.44</ele>
        <time>2021-03-27T17:42:33Z</time>
      </trkpt>
      <trkpt lat="42.946112" lon="-5.466344">
        <ele>1377.0</ele>
        <time>2021-03-27T17:42:37Z</time>
      </trkpt>
      <trkpt lat="42.946084" lon="-5.465557">
        <ele>1377.71</ele>
        <time>2021-03-27T17:42:40Z</time>
      </trkpt>
      <trkpt lat="42.946114" lon="-5.464754">
        <ele>1377.95</ele>
        <time>2021-03-27T17:42:44Z</time>
      </trkpt>
      <trkpt lat="42.94639" lon="-5.463657">
        <ele>1378.53</ele>
        <time>2021-03-27T17:42:48Z</time>
      </trkpt>
      <trkpt lat="42.946437" lon="-5.463169">
        <ele>1377.52</ele>
        <time>2021-03-27T17:42:52Z</time>
      </trkpt>
      <trkpt lat="42.946152" lon="-5.462224">
        <ele>1377.29</ele>
        <time>2021-03-27T17:42:55Z</time>
      </trkpt>
      <trkpt lat="42.945986" lon="-5.461831">
        <ele>1375.79</ele>
        <time>2021-03-27T17:42:59Z</time>
      </trkpt>
      <trkpt lat="42.945193" lon="-5.460668">
        <ele>1368.98</ele>
        <time>2021-03-27T17:43:03Z</time>
      </trkpt>
      <trkpt lat="42.945032" lon="-5.460471">
        <ele>1368.8</ele>
        <time>2021-03-27T17:43:07Z</time>
      </trkpt>
      <trkpt lat="42.944825" lon="-5.460332">
        <ele>1367.97</ele>
        <time>2021-03-27T17:43:11Z</time>
      </trkpt>
      <trkpt lat="42.944081" lon="-5.460255">
        <ele>1364.45</ele>
        <time>2021-03-27T17:43:14Z</time>
      </trkpt>
      <trkpt lat="42.943819" lon="-5.460145">
        <ele>1362.81</ele>
        <time>2021-03-27T17:43:18Z</time>
      </trkpt>
      <trkpt lat="42.943243" lon="-5.458997">
        <ele>1361.14</ele>
        <time>2021-03-27T17:43:22Z</time>
      </trkpt>
      <trkpt lat="42.94243" lon="-5.457822">
        <ele>1352.44</ele>
        <time>2021-03-27T17:43:26Z</time>
      </trkpt>
      <trkpt lat="42.942179" lon="-5.456648">
        <ele>1344.14</ele>
        <time>2021-03-27T17:43:30Z</time>
      </trkpt>
      <trkpt lat="42.942279" lon="-5.455511">
        <ele>1337.87</ele>
        <time>2021-03-27T17:43:33Z</time>
      </trkpt>
      <trkpt lat="42.942281" lon="-5.454495">
        <ele>1337.13</ele>
        <time>2021-03-27T17:43:37Z</time>
      </trkpt>
      <trkpt lat="42.942156" lon="-5.45172">
        <ele>1323.24</ele>
        <time>2021-03-27T17:43:41Z</time>
      </trkpt>
      <trkpt lat="42.942454" lon="-5.450028">
        <ele>1313.97</ele>
        <time>2021-03-27T17:43:45Z</time>
      </trkpt>
      <trkpt lat="42.942487" lon="-5.449724">
        <ele>1313.22</ele>
        <time>2021-03-27T17:43:48Z</time>
      </trkpt>
      <trkpt lat="42.942302" lon="-5.449232">
        <ele>1313.07</ele>
        <time>2021-03-27T17:43:52Z</time>
      </trkpt>
      <trkpt lat="42.942344" lon="-5.448577">
        <ele>1310.68</ele>
        <time>2021-03-27T17:43:56Z</time>
      </trkpt>
      <trkpt lat="42.942464" lon="-5.447921">
        <ele>1306.97</ele>
        <time>2021-03-27T17:44:00Z</time>
      </trkpt>
      <trkpt lat="42.942341" lon="-5.447634">
        <ele>1303.66</ele>
        <time>2021-03-27T17:44:04Z</time>
      </trkpt>
      <trkpt lat="42.941736" lon="-5.446943">
        <ele>1300.25</ele>
        <time>2021-03-27T17:44:07Z</time>
      </trkpt>
      <trkpt lat="42.941749" lon="-5.446759">
        <ele>1300.58</ele>
        <time>2021-03-27T17:44:11Z</time>
      </trkpt>
      <trkpt lat="42.941794" lon="-5.446568">
        <ele>1300.9</ele>
        <time>2021-03-27T17:44:15Z</time>
      </trkpt>
      <trkpt lat="42.942262" lon="-5.445617">
        <ele>1293.05</ele>
        <time>2021-03-27T17:44:19Z</time>
      </trkpt>
      <trkpt lat="42.942254" lon="-5.444815">
        <ele>1288.68</ele>
        <time>2021-03-27T17:44:22Z</time>
      </trkpt>
      <trkpt lat="42.941985" lon="-5.442633">
        <ele>1278.26</ele>
        <time>2021-03-27T17:44:26Z</time>
      </trkpt>
      <trkpt lat="42.941775" lon="-5.441773">
        <ele>1274.46</ele>
        <time>2021-03-27T17:44:30Z</time>
      </trkpt>
      <trkpt lat="42.941597" lon="-5.440784">
        <ele>1265.19</ele>
        <time>2021-03-27T17:44:34Z</time>
      </trkpt>
      <trkpt lat="42.941351" lon="-5.43966">
        <ele>1260.53</ele>
        <time>2021-03-27T17:44:38Z</time>
      </trkpt>
      <trkpt lat="42.941418" lon="-5.437335">
        <ele>1249.91</ele>
        <time>2021-03-27T17:44:41Z</time>
      </trkpt>
      <trkpt lat="42.941342" lon="-5.435759">
        <ele>1241.8</ele>
        <time>2021-03-27T17:44:45Z</time>
      </trkpt>
      <trkpt lat="42.940397" lon="-5.432887">
        <ele>1232.82</ele>
        <time>2021-03-27T17:44:49Z</time>
      </trkpt>
      <trkpt lat="42.939157" lon="-5.431615">
        <ele>1225.78</ele>
        <time>2021-03-27T17:44:53Z</time>
      </trkpt>
      <trkpt lat="42.937941" lon="-5.430458">
        <ele>1216.71</ele>
        <time>2021-03-27T17:44:57Z</time>
      </trkpt>
      <trkpt lat="42.937083" lon="-5.430001">
        <ele>1210.51</ele>
        <time>2021-03-27T17:45:00Z</time>
      </trkpt>
      <trkpt lat="42.932227" lon="-5.428287">
        <ele>1222.57</ele>
        <time>2021-03-27T17:45:04Z</time>
      </trkpt>
      <trkpt lat="42.932088" lon="-5.428142">
        <ele>1221.47</ele>
        <time>2021-03-27T17:45:08Z</time>
      </trkpt>
      <trkpt lat="42.932046" lon="-5.427794">
        <ele>1219.71</ele>
        <time>2021-03-27T17:45:12Z</time>
      </trkpt>
      <trkpt lat="42.931897" lon="-5.427261">
        <ele>1218.63</ele>
        <time>2021-03-27T17:45:15Z</time>
      </trkpt>
      <trkpt lat="42.931737" lon="-5.42698">
        <ele>1218.93</ele>
        <time>2021-03-27T17:45:19Z</time>
      </trkpt>
      <trkpt lat="42.93143" lon="-5.426746">
        <ele>1217.86</ele>
        <time>2021-03-27T17:45:23Z</time>
      </trkpt>
      <trkpt lat="42.930068" lon="-5.425907">
        <ele>1223.53</ele>
        <time>2021-03-27T17:45:27Z</time>
      </trkpt>
      <trkpt lat="42.92941" lon="-5.425352">
        <ele>1223.28</ele>
        <time>2021-03-27T17:45:31Z</time>
      </trkpt>
      <trkpt lat="42.92875" lon="-5.424683">
        <ele>1225.14</ele>
        <time>2021-03-27T17:45:34Z</time>
      </trkpt>
      <trkpt lat="42.92829" lon="-5.424426">
        <ele>1227.51</ele>
        <time>2021-03-27T17:45:38Z</time>
      </trkpt>
      <trkpt lat="42.928107" lon="-5.42427">
        <ele>1229.51</ele>
        <time>2021-03-27T17:45:42Z</time>
      </trkpt>
      <trkpt lat="42.928035" lon="-5.424085">
        <ele>1229.74</ele>
        <time>2021-03-27T17:45:46Z</time>
      </trkpt>
      <trkpt lat="42.928009" lon="-5.422877">
        <ele>1225.66</ele>
        <time>2021-03-27T17:45:50Z</time>
      </trkpt>
      <trkpt lat="42.928095" lon="-5.421976">
        <ele>1224.65</ele>
        <time>2021-03-27T17:45:53Z</time>
      </trkpt>
      <trkpt lat="42.928057" lon="-5.421554">
        <ele>1222.2</ele>
        <time>2021-03-27T17:45:57Z</time>
      </trkpt>
      <trkpt lat="42.927921" lon="-5.42135">
        <ele>1219.75</ele>
        <time>2021-03-27T17:46:01Z</time>
      </trkpt>
      <trkpt lat="42.927708" lon="-5.421208">
        <ele>1216.64</ele>
        <time>2021-03-27T17:46:05Z</time>
      </trkpt>
      <trkpt lat="42.92702" lon="-5.421085">
        <ele>1213.45</ele>
        <time>2021-03-27T17:46:08Z</time>
      </trkpt>
      <trkpt lat="42.926569" lon="-5.420748">
        <ele>1209.83</ele>
        <time>2021-03-27T17:46:12Z</time>
      </trkpt>
      <trkpt lat="42.926324" lon="-5.420427">
        <ele>1207.44</ele>
        <time>2021-03-27T17:46:16Z</time>
      </trkpt>
      <trkpt lat="42.926098" lon="-5.420015">
        <ele>1204.56</ele>
        <time>2021-03-27T17:46:20Z</time>
      </trkpt>
      <trkpt lat="42.926033" lon="-5.419714">
        <ele>1202.53</ele>
        <time>2021-03-27T17:46:24Z</time>
      </trkpt>
      <trkpt lat="42.926032" lon="-5.419556">
        <ele>1202.57</ele>
        <time>2021-03-27T17:46:27Z</time>
      </trkpt>
      <trkpt lat="42.926403" lon="-5.418623">
        <ele>1200.56</ele>
        <time>2021-03-27T17:46:31Z</time>
      </trkpt>
      <trkpt lat="42.926747" lon="-5.417816">
        <ele>1193.23</ele>
        <time>2021-03-27T17:46:35Z</time>
      </trkpt>
      <trkpt lat="42.926933" lon="-5.417751">
        <ele>1186.7</ele>
        <time>2021-03-27T17:46:39Z</time>
      </trkpt>
      <trkpt lat="42.927136" lon="-5.417806">
        <ele>1184.79</ele>
        <time>2021-03-27T17:46:43Z</time>
      </trkpt>
      <trkpt lat="42.927371" lon="-5.418012">
        <ele>1185.38</ele>
        <time>2021-03-27T17:46:46Z</time>
      </trkpt>
      <trkpt lat="42.927493" lon="-5.41808">
        <ele>1186.15</ele>
        <time>2021-03-27T17:46:50Z</time>
      </trkpt>
      <trkpt lat="42.927595" lon="-5.418036">
        <ele>1186.89</ele>
        <time>2021-03-27T17:46:54Z</time>
      </trkpt>
      <trkpt lat="42.927694" lon="-5.417927">
        <ele>1186.67</ele>
        <time>2021-03-27T17:46:58Z</time>
      </trkpt>
      <trkpt lat="42.928091" lon="-5.417194">
        <ele>1177.98</ele>
        <time>2021-03-27T17:47:01Z</time>
      </trkpt>
      <trkpt lat="42.928212" lon="-5.416696">
        <ele>1169.71</ele>
        <time>2021-03-27T17:47:05Z</time>
      </trkpt>
      <trkpt lat="42.928292" lon="-5.416192">
        <ele>1167.85</ele>
        <time>2021-03-27T17:47:09Z</time>
      </trkpt>
      <trkpt lat="42.928305" lon="-5.416021">
        <ele>1171.02</ele>
        <time>2021-03-27T17:47:13Z</time>
      </trkpt>
      <trkpt lat="42.927818" lon="-5.415011">
        <ele>1167.23</ele>
        <time>2021-03-27T17:47:17Z</time>
      </trkpt>
      <trkpt lat="42.927262" lon="-5.414361">
        <ele>1160.85</ele>
        <time>2021-03-27T17:47:20Z</time>
      </trkpt>
      <trkpt lat="42.927222" lon="-5.41359">
        <ele>1162.3</ele>
        <time>2021-03-27T17:47:24Z</time>
      </trkpt>
      <trkpt lat="42.927028" lon="-5.41239">
        <ele>1161.97</ele>
        <time>2021-03-27T17:47:28Z</time>
      </trkpt>
      <trkpt lat="42.927018" lon="-5.411589">
        <ele>1160.36</ele>
        <time>2021-03-27T17:47:32Z</time>
      </trkpt>
      <trkpt lat="42.926943" lon="-5.410958">
        <ele>1155.67</ele>
        <time>2021-03-27T17:47:36Z</time>
      </trkpt>
      <trkpt lat="42.926888" lon="-5.409693">
        <ele>1145.84</ele>
        <time>2021-03-27T17:47:39Z</time>
      </trkpt>
      <trkpt lat="42.926875" lon="-5.409212">
        <ele>1142.38</ele>
        <time>2021-03-27T17:47:43Z</time>
      </trkpt>
      <trkpt lat="42.927106" lon="-5.408363">
        <ele>1139.42</ele>
        <time>2021-03-27T17:47:47Z</time>
      </trkpt>
      <trkpt lat="42.927226" lon="-5.407537">
        <ele>1137.58</ele>
        <time>2021-03-27T17:47:51Z</time>
      </trkpt>
      <trkpt lat="42.927326" lon="-5.407066">
        <ele>1126.47</ele>
        <time>2021-03-27T17:47:54Z</time>
      </trkpt>
      <trkpt lat="42.927448" lon="-5.406847">
        <ele>1123.45</ele>
        <time>2021-03-27T17:47:58Z</time>
      </trkpt>
      <trkpt lat="42.927604" lon="-5.406642">
        <ele>1121.26</ele>
        <time>2021-03-27T17:48:02Z</time>
      </trkpt>
      <trkpt lat="42.927731" lon="-5.406546">
        <ele>1122.43</ele>
        <time>2021-03-27T17:48:06Z</time>
      </trkpt>
      <trkpt lat="42.92785" lon="-5.406363">
        <ele>1120.32</ele>
        <time>2021-03-27T17:48:10Z</time>
      </trkpt>
      <trkpt lat="42.927905" lon="-5.406189">
        <ele>1117.77</ele>
        <time>2021-03-27T17:48:13Z</time>
      </trkpt>
      <trkpt lat="42.927706" lon="-5.406149">
        <ele>1115.33</ele>
        <time>2021-03-27T17:48:16Z</time>
      </trkpt>
      <trkpt lat="42.926979" lon="-5.405637">
        <ele>1133.38</ele>
        <time>2021-03-27T17:48:19Z</time>
      </trkpt>
      <trkpt lat="42.926922" lon="-5.405549">
        <ele>1135.74</ele>
        <time>2021-03-27T17:48:22Z</time>
      </trkpt>
      <trkpt lat="42.926905" lon="-5.405405">
        <ele>1134.57</ele>
        <time>2021-03-27T17:48:25Z</time>
      </trkpt>
      <trkpt lat="42.926942" lon="-5.405117">
        <ele>1126.86</ele>
        <time>2021-03-27T17:48:28Z</time>
      </trkpt>
      <trkpt lat="42.926926" lon="-5.404957">
        <ele>1122.52</ele>
        <time>2021-03-27T17:48:31Z</time>
      </trkpt>
      <trkpt lat="42.926735" lon="-5.404522">
        <ele>1115.68</ele>
        <time>2021-03-27T17:48:34Z</time>
      </trkpt>
      <trkpt lat="42.926626" lon="-5.404323">
        <ele>1114.88</ele>
        <time>2021-03-27T17:48:37Z</time>
      </trkpt>
      <trkpt lat="42.926451" lon="-5.404172">
        <ele>1117.01</ele>
        <time>2021-03-27T17:48:40Z</time>
      </trkpt>
      <trkpt lat="42.926142" lon="-5.404043">
        <ele>1121.27</ele>
        <time>2021-03-27T17:48:42Z</time>
      </trkpt>
      <trkpt lat="42.925862" lon="-5.403817">
        <ele>1120.85</ele>
        <time>2021-03-27T17:48:45Z</time>
      </trkpt>
      <trkpt lat="42.92561" lon="-5.403763">
        <ele>1122.26</ele>
        <time>2021-03-27T17:48:48Z</time>
      </trkpt>
      <trkpt lat="42.925496" lon="-5.403798">
        <ele>1122.79</ele>
        <time>2021-03-27T17:48:51Z</time>
      </trkpt>
      <trkpt lat="42.925008" lon="-5.40452">
        <ele>1116.16</ele>
        <time>2021-03-27T17:48:54Z</time>
      </trkpt>
      <trkpt lat="42.924893" lon="-5.404623">
        <ele>1117.65</ele>
        <time>2021-03-27T17:48:57Z</time>
      </trkpt>
      <trkpt lat="42.92473" lon="-5.404679">
        <ele>1115.79</ele>
        <time>2021-03-27T17:49:00Z</time>
      </trkpt>
      <trkpt lat="42.924603" lon="-5.404648">
        <ele>1116.73</ele>
        <time>2021-03-27T17:49:03Z</time>
      </trkpt>
      <trkpt lat="42.92404" lon="-5.404183">
        <ele>1112.33</ele>
        <time>2021-03-27T17:49:06Z</time>
      </trkpt>
      <trkpt lat="42.923862" lon="-5.403927">
        <ele>1109.58</ele>
        <time>2021-03-27T17:49:09Z</time>
      </trkpt>
      <trkpt lat="42.92345" lon="-5.402473">
        <ele>1099.65</ele>
        <time>2021-03-27T17:49:12Z</time>
      </trkpt>
      <trkpt lat="42.923437" lon="-5.402232">
        <ele>1100.47</ele>
        <time>2021-03-27T17:49:14Z</time>
      </trkpt>
      <trkpt lat="42.923525" lon="-5.401891">
        <ele>1104.74</ele>
        <time>2021-03-27T17:49:17Z</time>
      </trkpt>
      <trkpt lat="42.923513" lon="-5.401435">
        <ele>1112.27</ele>
        <time>2021-03-27T17:49:20Z</time>
      </trkpt>
      <trkpt lat="42.923359" lon="-5.400747">
        <ele>1104.25</ele>
        <time>2021-03-27T17:49:23Z</time>
      </trkpt>
      <trkpt lat="42.923208" lon="-5.40039">
        <ele>1101.83</ele>
        <time>2021-03-27T17:49:26Z</time>
      </trkpt>
      <trkpt lat="42.922537" lon="-5.400123">
        <ele>1098.53</ele>
        <time>2021-03-27T17:49:29Z</time>
      </trkpt>
      <trkpt lat="42.922149" lon="-5.400343">
        <ele>1103.85</ele>
        <time>2021-03-27T17:49:32Z</time>
      </trkpt>
      <trkpt lat="42.921877" lon="-5.40034">
        <ele>1111.46</ele>
        <time>2021-03-27T17:49:35Z</time>
      </trkpt>
      <trkpt lat="42.921701" lon="-5.400241">
        <ele>1116.86</ele>
        <time>2021-03-27T17:49:38Z</time>
      </trkpt>
      <trkpt lat="42.921188" lon="-5.399752">
        <ele>1108.66</ele>
        <time>2021-03-27T17:49:41Z</time>
      </trkpt>
      <trkpt lat="42.92097" lon="-5.399571">
        <ele>1107.8</ele>
        <time>2021-03-27T17:49:44Z</time>
      </trkpt>
      <trkpt lat="42.920831" lon="-5.399486">
        <ele>1107.78</ele>
        <time>2021-03-27T17:49:47Z</time>
      </trkpt>
      <trkpt lat="42.920594" lon="-5.399495">
        <ele>1111.98</ele>
        <time>2021-03-27T17:49:49Z</time>
      </trkpt>
      <trkpt lat="42.920372" lon="-5.399551">
        <ele>1112.54</ele>
        <time>2021-03-27T17:49:52Z</time>
      </trkpt>
      <trkpt lat="42.920097" lon="-5.400028">
        <ele>1109.64</ele>
        <time>2021-03-27T17:49:55Z</time>
      </trkpt>
      <trkpt lat="42.919901" lon="-5.400183">
        <ele>1108.61</ele>
        <time>2021-03-27T17:49:58Z</time>
      </trkpt>
      <trkpt lat="42.919624" lon="-5.400231">
        <ele>1107.11</ele>
        <time>2021-03-27T17:50:01Z</time>
      </trkpt>
      <trkpt lat="42.919337" lon="-5.400141">
        <ele>1109.33</ele>
        <time>2021-03-27T17:50:04Z</time>
      </trkpt>
      <trkpt lat="42.918878" lon="-5.399764">
        <ele>1113.35</ele>
        <time>2021-03-27T17:50:07Z</time>
      </trkpt>
      <trkpt lat="42.918697" lon="-5.399445">
        <ele>1115.81</ele>
        <time>2021-03-27T17:50:10Z</time>
      </trkpt>
      <trkpt lat="42.918658" lon="-5.399328">
        <ele>1115.15</ele>
        <time>2021-03-27T17:50:13Z</time>
      </trkpt>
      <trkpt lat="42.918596" lon="-5.399017">
        <ele>1109.41</ele>
        <time>2021-03-27T17:50:16Z</time>
      </trkpt>
      <trkpt lat="42.918512" lon="-5.398877">
        <ele>1106.33</ele>
        <time>2021-03-27T17:50:19Z</time>
      </trkpt>
      <trkpt lat="42.91843" lon="-5.398819">
        <ele>1105.76</ele>
        <time>2021-03-27T17:50:21Z</time>
      </trkpt>
      <trkpt lat="42.918175" lon="-5.398821">
        <ele>1108.59</ele>
        <time>2021-03-27T17:50:24Z</time>
      </trkpt>
      <trkpt lat="42.917789" lon="-5.399009">
        <ele>1136.37</ele>
        <time>2021-03-27T17:50:27Z</time>
      </trkpt>
      <trkpt lat="42.917555" lon="-5.399017">
        <ele>1139.12</ele>
        <time>2021-03-27T17:50:30Z</time>
      </trkpt>
      <trkpt lat="42.916904" lon="-5.398638">
        <ele>1108.7</ele>
        <time>2021-03-27T17:50:33Z</time>
      </trkpt>
      <trkpt lat="42.916747" lon="-5.398642">
        <ele>1109.22</ele>
        <time>2021-03-27T17:50:36Z</time>
      </trkpt>
      <trkpt lat="42.916647" lon="-5.398735">
        <ele>1111.22</ele>
        <time>2021-03-27T17:50:39Z</time>
      </trkpt>
      <trkpt lat="42.916571" lon="-5.399082">
        <ele>1117.13</ele>
        <time>2021-03-27T17:50:42Z</time>
      </trkpt>
      <trkpt lat="42.916469" lon="-5.399306">
        <ele>1117.73</ele>
        <time>2021-03-27T17:50:45Z</time>
      </trkpt>
      <trkpt lat="42.91622" lon="-5.39958">
        <ele>1108.1</ele>
        <time>2021-03-27T17:50:48Z</time>
      </trkpt>
      <trkpt lat="42.915938" lon="-5.39994">
        <ele>1102.31</ele>
        <time>2021-03-27T17:50:51Z</time>
      </trkpt>
      <trkpt lat="42.915701" lon="-5.400065">
        <ele>1099.89</ele>
        <time>2021-03-27T17:50:53Z</time>
      </trkpt>
      <trkpt lat="42.915478" lon="-5.400148">
        <ele>1098.77</ele>
        <time>2021-03-27T17:50:56Z</time>
      </trkpt>
      <trkpt lat="42.915078" lon="-5.400149">
        <ele>1102.45</ele>
        <time>2021-03-27T17:50:59Z</time>
      </trkpt>
      <trkpt lat="42.914629" lon="-5.400037">
        <ele>1112.12</ele>
        <time>2021-03-27T17:51:02Z</time>
      </trkpt>
      <trkpt lat="42.914475" lon="-5.3998">
        <ele>1111.8</ele>
        <time>2021-03-27T17:51:05Z</time>
      </trkpt>
      <trkpt lat="42.914356" lon="-5.399434">
        <ele>1109.47</ele>
        <time>2021-03-27T17:51:08Z</time>
      </trkpt>
      <trkpt lat="42.914258" lon="-5.399061">
        <ele>1109.13</ele>
        <time>2021-03-27T17:51:11Z</time>
      </trkpt>
      <trkpt lat="42.914121" lon="-5.398884">
        <ele>1112.18</ele>
        <time>2021-03-27T17:51:14Z</time>
      </trkpt>
      <trkpt lat="42.913963" lon="-5.39889">
        <ele>1112.74</ele>
        <time>2021-03-27T17:51:17Z</time>
      </trkpt>
      <trkpt lat="42.91383" lon="-5.399026">
        <ele>1115.35</ele>
        <time>2021-03-27T17:51:20Z</time>
      </trkpt>
      <trkpt lat="42.913408" lon="-5.399717">
        <ele>1101.34</ele>
        <time>2021-03-27T17:51:23Z</time>
      </trkpt>
      <trkpt lat="42.913234" lon="-5.39994">
        <ele>1098.82</ele>
        <time>2021-03-27T17:51:25Z</time>
      </trkpt>
      <trkpt lat="42.913025" lon="-5.400075">
        <ele>1094.08</ele>
        <time>2021-03-27T17:51:28Z</time>
      </trkpt>
      <trkpt lat="42.912333" lon="-5.400145">
        <ele>1082.8</ele>
        <time>2021-03-27T17:51:31Z</time>
      </trkpt>
      <trkpt lat="42.911577" lon="-5.39987">
        <ele>1086.48</ele>
        <time>2021-03-27T17:51:34Z</time>
      </trkpt>
      <trkpt lat="42.911122" lon="-5.399484">
        <ele>1090.13</ele>
        <time>2021-03-27T17:51:37Z</time>
      </trkpt>
      <trkpt lat="42.910011" lon="-5.398189">
        <ele>1082.85</ele>
        <time>2021-03-27T17:51:40Z</time>
      </trkpt>
      <trkpt lat="42.908845" lon="-5.397331">
        <ele>1081.51</ele>
        <time>2021-03-27T17:51:43Z</time>
      </trkpt>
      <trkpt lat="42.907543" lon="-5.39696">
        <ele>1083.27</ele>
        <time>2021-03-27T17:51:46Z</time>
      </trkpt>
      <trkpt lat="42.907095" lon="-5.39686">
        <ele>1084.42</ele>
        <time>2021-03-27T17:51:49Z</time>
      </trkpt>
      <trkpt lat="42.905956" lon="-5.397063">
        <ele>1085.92</ele>
        <time>2021-03-27T17:51:52Z</time>
      </trkpt>
      <trkpt lat="42.905703" lon="-5.397131">
        <ele>1082.63</ele>
        <time>2021-03-27T17:51:55Z</time>
      </trkpt>
      <trkpt lat="42.905347" lon="-5.397463">
        <ele>1082.88</ele>
        <time>2021-03-27T17:51:57Z</time>
      </trkpt>
      <trkpt lat="42.905108" lon="-5.397639">
        <ele>1083.24</ele>
        <time>2021-03-27T17:52:00Z</time>
      </trkpt>
      <trkpt lat="42.904465" lon="-5.398025">
        <ele>1086.58</ele>
        <time>2021-03-27T17:52:03Z</time>
      </trkpt>
      <trkpt lat="42.903845" lon="-5.398193">
        <ele>1085.4</ele>
        <time>2021-03-27T17:52:06Z</time>
      </trkpt>
      <trkpt lat="42.903424" lon="-5.398246">
        <ele>1084.02</ele>
        <time>2021-03-27T17:52:09Z</time>
      </trkpt>
      <trkpt lat="42.902996" lon="-5.398124">
        <ele>1079.91</ele>
        <time>2021-03-27T17:52:12Z</time>
      </trkpt>
      <trkpt lat="42.901959" lon="-5.398145">
        <ele>1076.0</ele>
        <time>2021-03-27T17:52:15Z</time>
      </trkpt>
      <trkpt lat="42.900725" lon="-5.398592">
        <ele>1073.19</ele>
        <time>2021-03-27T17:52:18Z</time>
      </trkpt>
      <trkpt lat="42.900389" lon="-5.399087">
        <ele>1075.17</ele>
        <time>2021-03-27T17:52:21Z</time>
      </trkpt>
      <trkpt lat="42.900196" lon="-5.399404">
        <ele>1073.85</ele>
        <time>2021-03-27T17:52:24Z</time>
      </trkpt>
      <trkpt lat="42.899475" lon="-5.399978">
        <ele>1075.33</ele>
        <time>2021-03-27T17:52:27Z</time>
      </trkpt>
      <trkpt lat="42.899126" lon="-5.400006">
        <ele>1087.73</ele>
        <time>2021-03-27T17:52:29Z</time>
      </trkpt>
      <trkpt lat="42.898739" lon="-5.400139">
        <ele>1091.4</ele>
        <time>2021-03-27T17:52:32Z</time>
      </trkpt>
      <trkpt lat="42.898605" lon="-5.400225">
        <ele>1089.98</ele>
        <time>2021-03-27T17:52:35Z</time>
      </trkpt>
      <trkpt lat="42.898438" lon="-5.400437">
        <ele>1090.76</ele>
        <time>2021-03-27T17:52:38Z</time>
      </trkpt>
      <trkpt lat="42.898134" lon="-5.400613">
        <ele>1093.81</ele>
        <time>2021-03-27T17:52:41Z</time>
      </trkpt>
      <trkpt lat="42.897875" lon="-5.400711">
        <ele>1104.2</ele>
        <time>2021-03-27T17:52:44Z</time>
      </trkpt>
      <trkpt lat="42.897531" lon="-5.400686">
        <ele>1115.99</ele>
        <time>2021-03-27T17:52:47Z</time>
      </trkpt>
      <trkpt lat="42.89724" lon="-5.400511">
        <ele>1122.67</ele>
        <time>2021-03-27T17:52:50Z</time>
      </trkpt>
      <trkpt lat="42.896794" lon="-5.40015">
        <ele>1098.8</ele>
        <time>2021-03-27T17:52:53Z</time>
      </trkpt>
      <trkpt lat="42.896271" lon="-5.400048">
        <ele>1087.87</ele>
        <time>2021-03-27T17:52:56Z</time>
      </trkpt>
      <trkpt lat="42.895978" lon="-5.400112">
        <ele>1086.25</ele>
        <time>2021-03-27T17:52:59Z</time>
      </trkpt>
      <trkpt lat="42.894162" lon="-5.400851">
        <ele>1068.3</ele>
        <time>2021-03-27T17:53:01Z</time>
      </trkpt>
      <trkpt lat="42.893989" lon="-5.400868">
        <ele>1067.66</ele>
        <time>2021-03-27T17:53:04Z</time>
      </trkpt>
      <trkpt lat="42.893817" lon="-5.400723">
        <ele>1066.57</ele>
        <time>2021-03-27T17:53:07Z</time>
      </trkpt>
      <trkpt lat="42.893692" lon="-5.400514">
        <ele>1065.63</ele>
        <time>2021-03-27T17:53:10Z</time>
      </trkpt>
      <trkpt lat="42.893567" lon="-5.400404">
        <ele>1065.99</ele>
        <time>2021-03-27T17:53:13Z</time>
      </trkpt>
      <trkpt lat="42.893124" lon="-5.40029">
        <ele>1068.14</ele>
        <time>2021-03-27T17:53:16Z</time>
      </trkpt>
      <trkpt lat="42.892095" lon="-5.400117">
        <ele>1066.69</ele>
        <time>2021-03-27T17:53:19Z</time>
      </trkpt>
      <trkpt lat="42.891845" lon="-5.400117">
        <ele>1067.4</ele>
        <time>2021-03-27T17:53:22Z</time>
      </trkpt>
      <trkpt lat="42.891737" lon="-5.400152">
        <ele>1068.68</ele>
        <time>2021-03-27T17:53:25Z</time>
      </trkpt>
      <trkpt lat="42.890699" lon="-5.400786">
        <ele>1066.23</ele>
        <time>2021-03-27T17:53:28Z</time>
      </trkpt>
      <trkpt lat="42.890397" lon="-5.401029">
        <ele>1066.15</ele>
        <time>2021-03-27T17:53:31Z</time>
      </trkpt>
      <trkpt lat="42.889881" lon="-5.401898">
        <ele>1070.96</ele>
        <time>2021-03-27T17:53:33Z</time>
      </trkpt>
      <trkpt lat="42.889642" lon="-5.402044">
        <ele>1092.95</ele>
        <time>2021-03-27T17:53:36Z</time>
      </trkpt>
      <trkpt lat="42.889318" lon="-5.402074">
        <ele>1091.69</ele>
        <time>2021-03-27T17:53:39Z</time>
      </trkpt>
      <trkpt lat="42.888591" lon="-5.401824">
        <ele>1058.39</ele>
        <time>2021-03-27T17:53:42Z</time>
      </trkpt>
      <trkpt lat="42.888422" lon="-5.401805">
        <ele>1059.01</ele>
        <time>2021-03-27T17:53:45Z</time>
      </trkpt>
      <trkpt lat="42.888098" lon="-5.402039">
        <ele>1067.59</ele>
        <time>2021-03-27T17:53:48Z</time>
      </trkpt>
      <trkpt lat="42.887179" lon="-5.401868">
        <ele>1068.44</ele>
        <time>2021-03-27T17:53:51Z</time>
      </trkpt>
      <trkpt lat="42.887065" lon="-5.401814">
        <ele>1074.27</ele>
        <time>2021-03-27T17:53:54Z</time>
      </trkpt>
      <trkpt lat="42.886652" lon="-5.401372">
        <ele>1061.69</ele>
        <time>2021-03-27T17:53:57Z</time>
      </trkpt>
      <trkpt lat="42.886569" lon="-5.401201">
        <ele>1057.71</ele>
        <time>2021-03-27T17:54:00Z</time>
      </trkpt>
      <trkpt lat="42.886402" lon="-5.400508">
        <ele>1054.27</ele>
        <time>2021-03-27T17:54:03Z</time>
      </trkpt>
      <trkpt lat="42.885893" lon="-5.399218">
        <ele>1050.87</ele>
        <time>2021-03-27T17:54:05Z</time>
      </trkpt>
      <trkpt lat="42.885675" lon="-5.398866">
        <ele>1052.92</ele>
        <time>2021-03-27T17:54:08Z</time>
      </trkpt>
      <trkpt lat="42.884858" lon="-5.397826">
        <ele>1058.82</ele>
        <time>2021-03-27T17:54:11Z</time>
      </trkpt>
      <trkpt lat="42.884463" lon="-5.397099">
        <ele>1056.05</ele>
        <time>2021-03-27T17:54:14Z</time>
      </trkpt>
      <trkpt lat="42.88404" lon="-5.396404">
        <ele>1056.99</ele>
        <time>2021-03-27T17:54:17Z</time>
      </trkpt>
      <trkpt lat="42.883878" lon="-5.39626">
        <ele>1057.35</ele>
        <time>2021-03-27T17:54:20Z</time>
      </trkpt>
      <trkpt lat="42.882537" lon="-5.396022">
        <ele>1071.04</ele>
        <time>2021-03-27T17:54:23Z</time>
      </trkpt>
      <trkpt lat="42.882324" lon="-5.395598">
        <ele>1067.91</ele>
        <time>2021-03-27T17:54:26Z</time>
      </trkpt>
      <trkpt lat="42.882181" lon="-5.395451">
        <ele>1067.5</ele>
        <time>2021-03-27T17:54:29Z</time>
      </trkpt>
      <trkpt lat="42.882023" lon="-5.395493">
        <ele>1065.69</ele>
        <time>2021-03-27T17:54:32Z</time>
      </trkpt>
      <trkpt lat="42.881896" lon="-5.395623">
        <ele>1064.85</ele>
        <time>2021-03-27T17:54:35Z</time>
      </trkpt>
      <trkpt lat="42.881759" lon="-5.396231">
        <ele>1066.82</ele>
        <time>2021-03-27T17:54:38Z</time>
      </trkpt>
      <trkpt lat="42.88157" lon="-5.396914">
        <ele>1067.62</ele>
        <time>2021-03-27T17:54:40Z</time>
      </trkpt>
      <trkpt lat="42.881084" lon="-5.39774">
        <ele>1063.65</ele>
        <time>2021-03-27T17:54:43Z</time>
      </trkpt>
      <trkpt lat="42.880264" lon="-5.398338">
        <ele>1061.85</ele>
        <time>2021-03-27T17:54:46Z</time>
      </trkpt>
      <trkpt lat="42.879553" lon="-5.399254">
        <ele>1053.71</ele>
        <time>2021-03-27T17:54:49Z</time>
      </trkpt>
      <trkpt lat="42.878478" lon="-5.400041">
        <ele>1043.39</ele>
        <time>2021-03-27T17:54:52Z</time>
      </trkpt>
      <trkpt lat="42.876216" lon="-5.401646">
        <ele>1043.11</ele>
        <time>2021-03-27T17:54:55Z</time>
      </trkpt>
      <trkpt lat="42.875688" lon="-5.401786">
        <ele>1045.25</ele>
        <time>2021-03-27T17:54:58Z</time>
      </trkpt>
      <trkpt lat="42.875094" lon="-5.401721">
        <ele>1053.73</ele>
        <time>2021-03-27T17:55:01Z</time>
      </trkpt>
      <trkpt lat="42.874863" lon="-5.401307">
        <ele>1041.51</ele>
        <time>2021-03-27T17:55:04Z</time>
      </trkpt>
      <trkpt lat="42.872193" lon="-5.400672">
        <ele>1030.51</ele>
        <time>2021-03-27T17:55:07Z</time>
      </trkpt>
      <trkpt lat="42.871097" lon="-5.400439">
        <ele>1031.21</ele>
        <time>2021-03-27T17:55:10Z</time>
      </trkpt>
      <trkpt lat="42.870907" lon="-5.400446">
        <ele>1031.95</ele>
        <time>2021-03-27T17:55:12Z</time>
      </trkpt>
      <trkpt lat="42.870795" lon="-5.400473">
        <ele>1032.27</ele>
        <time>2021-03-27T17:55:15Z</time>
      </trkpt>
      <trkpt lat="42.870225" lon="-5.400814">
        <ele>1033.88</ele>
        <time>2021-03-27T17:55:18Z</time>
      </trkpt>
      <trkpt lat="42.870179" lon="-5.400693">
        <ele>1033.17</ele>
        <time>2021-03-27T17:55:22Z</time>
      </trkpt>
      <trkpt lat="42.870319" lon="-5.400474">
        <ele>1031.66</ele>
        <time>2021-03-27T17:55:26Z</time>
      </trkpt>
      <trkpt lat="42.870543" lon="-5.400185">
        <ele>1030.02</ele>
        <time>2021-03-27T17:55:30Z</time>
      </trkpt>
      <trkpt lat="42.871474" lon="-5.399494">
        <ele>1029.0</ele>
        <time>2021-03-27T17:55:34Z</time>
      </trkpt>
      <trkpt lat="42.871531" lon="-5.399399">
        <ele>1029.24</ele>
        <time>2021-03-27T17:55:38Z</time>
      </trkpt>
      <trkpt lat="42.871563" lon="-5.39906">
        <ele>1032.39</ele>
        <time>2021-03-27T17:55:42Z</time>
      </trkpt>
      <trkpt lat="42.87152" lon="-5.398977">
        <ele>1033.9</ele>
        <time>2021-03-27T17:55:46Z</time>
      </trkpt>
      <trkpt lat="42.871287" lon="-5.399009">
        <ele>1034.1</ele>
        <time>2021-03-27T17:55:51Z</time>
      </trkpt>
      <trkpt lat="42.871001" lon="-5.398966">
        <ele>1036.6</ele>
        <time>2021-03-27T17:55:55Z</time>
      </trkpt>
      <trkpt lat="42.870769" lon="-5.398905">
        <ele>1036.76</ele>
        <time>2021-03-27T17:55:59Z</time>
      </trkpt>
      <trkpt lat="42.870581" lon="-5.398819">
        <ele>1036.18</ele>
        <time>2021-03-27T17:56:03Z</time>
      </trkpt>
      <trkpt lat="42.870205" lon="-5.398559">
        <ele>1036.41</ele>
        <time>2021-03-27T17:56:07Z</time>
      </trkpt>
      <trkpt lat="42.869545" lon="-5.398198">
        <ele>1034.87</ele>
        <time>2021-03-27T17:56:11Z</time>
      </trkpt>
      <trkpt lat="42.869328" lon="-5.397648">
        <ele>1039.48</ele>
        <time>2021-03-27T17:56:15Z</time>
      </trkpt>
      <trkpt lat="42.869142" lon="-5.397361">
        <ele>1041.18</ele>
        <time>2021-03-27T17:56:19Z</time>
      </trkpt>
      <trkpt lat="42.868799" lon="-5.397013">
        <ele>1041.61</ele>
        <time>2021-03-27T17:56:23Z</time>
      </trkpt>
      <trkpt lat="42.867995" lon="-5.396594">
        <ele>1044.44</ele>
        <time>2021-03-27T17:56:27Z</time>
      </trkpt>
      <trkpt lat="42.867475" lon="-5.396224">
        <ele>1045.71</ele>
        <time>2021-03-27T17:56:31Z</time>
      </trkpt>
      <trkpt lat="42.867411" lon="-5.396151">
        <ele>1044.82</ele>
        <time>2021-03-27T17:56:35Z</time>
      </trkpt>
      <trkpt lat="42.867344" lon="-5.395995">
        <ele>1043.7</ele>
        <time>2021-03-27T17:56:39Z</time>
      </trkpt>
      <trkpt lat="42.867299" lon="-5.395789">
        <ele>1043.57</ele>
        <time>2021-03-27T17:56:43Z</time>
      </trkpt>
      <trkpt lat="42.867309" lon="-5.395241">
        <ele>1044.66</ele>
        <time>2021-03-27T17:56:47Z</time>
      </trkpt>
      <trkpt lat="42.867262" lon="-5.39497">
        <ele>1045.25</ele>
        <time>2021-03-27T17:56:51Z</time>
      </trkpt>
      <trkpt lat="42.867181" lon="-5.394733">
        <ele>1046.25</ele>
        <time>2021-03-27T17:56:55Z</time>
      </trkpt>
      <trkpt lat="42.866975" lon="-5.394443">
        <ele>1048.0</ele>
        <time>2021-03-27T17:56:59Z</time>
      </trkpt>
      <trkpt lat="42.866675" lon="-5.394228">
        <ele>1050.71</ele>
        <time>2021-03-27T17:57:03Z</time>
      </trkpt>
      <trkpt lat="42.866121" lon="-5.394149">
        <ele>1053.0</ele>
        <time>2021-03-27T17:57:07Z</time>
      </trkpt>
      <trkpt lat="42.865886" lon="-5.393909">
        <ele>1053.75</ele>
        <time>2021-03-27T17:57:11Z</time>
      </trkpt>
      <trkpt lat="42.865738" lon="-5.393644">
        <ele>1054.92</ele>
        <time>2021-03-27T17:57:15Z</time>
      </trkpt>
      <trkpt lat="42.865611" lon="-5.393276">
        <ele>1056.24</ele>
        <time>2021-03-27T17:57:19Z</time>
      </trkpt>
      <trkpt lat="42.865528" lon="-5.392894">
        <ele>1057.48</ele>
        <time>2021-03-27T17:57:23Z</time>
      </trkpt>
      <trkpt lat="42.865387" lon="-5.3926">
        <ele>1058.03</ele>
        <time>2021-03-27T17:57:27Z</time>
      </trkpt>
      <trkpt lat="42.864797" lon="-5.392241">
        <ele>1059.88</ele>
        <time>2021-03-27T17:57:31Z</time>
      </trkpt>
      <trkpt lat="42.864189" lon="-5.391961">
        <ele>1059.15</ele>
        <time>2021-03-27T17:57:35Z</time>
      </trkpt>
      <trkpt lat="42.863781" lon="-5.391888">
        <ele>1059.81</ele>
        <time>2021-03-27T17:57:39Z</time>
      </trkpt>
      <trkpt lat="42.863114" lon="-5.391868">
        <ele>1061.76</ele>
        <time>2021-03-27T17:57:43Z</time>
      </trkpt>
      <trkpt lat="42.862707" lon="-5.391883">
        <ele>1065.86</ele>
        <time>2021-03-27T17:57:47Z</time>
      </trkpt>
      <trkpt lat="42.862383" lon="-5.391765">
        <ele>1065.45</ele>
        <time>2021-03-27T17:57:52Z</time>
      </trkpt>
      <trkpt lat="42.862104" lon="-5.3915">
        <ele>1064.57</ele>
        <time>2021-03-27T17:57:56Z</time>
      </trkpt>
      <trkpt lat="42.861741" lon="-5.390696">
        <ele>1063.71</ele>
        <time>2021-03-27T17:58:00Z</time>
      </trkpt>
      <trkpt lat="42.861657" lon="-5.390304">
        <ele>1062.78</ele>
        <time>2021-03-27T17:58:04Z</time>
      </trkpt>
      <trkpt lat="42.86154" lon="-5.389975">
        <ele>1062.3</ele>
        <time>2021-03-27T17:58:08Z</time>
      </trkpt>
      <trkpt lat="42.861167" lon="-5.389514">
        <ele>1061.55</ele>
        <time>2021-03-27T17:58:12Z</time>
      </trkpt>
      <trkpt lat="42.860647" lon="-5.388935">
        <ele>1059.66</ele>
        <time>2021-03-27T17:58:16Z</time>
      </trkpt>
      <trkpt lat="42.86046" lon="-5.388616">
        <ele>1058.95</ele>
        <time>2021-03-27T17:58:20Z</time>
      </trkpt>
      <trkpt lat="42.860278" lon="-5.388134">
        <ele>1059.0</ele>
        <time>2021-03-27T17:58:24Z</time>
      </trkpt>
      <trkpt lat="42.860058" lon="-5.387171">
        <ele>1053.73</ele>
        <time>2021-03-27T17:58:28Z</time>
      </trkpt>
      <trkpt lat="42.859812" lon="-5.386281">
        <ele>1055.39</ele>
        <time>2021-03-27T17:58:32Z</time>
      </trkpt>
      <trkpt lat="42.859634" lon="-5.386027">
        <ele>1054.98</ele>
        <time>2021-03-27T17:58:36Z</time>
      </trkpt>
      <trkpt lat="42.858334" lon="-5.384606">
        <ele>1067.25</ele>
        <time>2021-03-27T17:58:40Z</time>
      </trkpt>
      <trkpt lat="42.8578" lon="-5.383818">
        <ele>1068.16</ele>
        <time>2021-03-27T17:58:44Z</time>
      </trkpt>
      <trkpt lat="42.857614" lon="-5.383427">
        <ele>1067.8</ele>
        <time>2021-03-27T17:58:48Z</time>
      </trkpt>
      <trkpt lat="42.85658" lon="-5.380294">
        <ele>1077.67</ele>
        <time>2021-03-27T17:58:52Z</time>
      </trkpt>
      <trkpt lat="42.855951" lon="-5.378577">
        <ele>1071.76</ele>
        <time>2021-03-27T17:58:56Z</time>
      </trkpt>
      <trkpt lat="42.855606" lon="-5.377569">
        <ele>1074.14</ele>
        <time>2021-03-27T17:59:00Z</time>
      </trkpt>
      <trkpt lat="42.855446" lon="-5.376239">
        <ele>1072.15</ele>
        <time>2021-03-27T17:59:04Z</time>
      </trkpt>
      <trkpt lat="42.855356" lon="-5.376186">
        <ele>1072.01</ele>
        <time>2021-03-27T17:59:08Z</time>
      </trkpt>
      <trkpt lat="42.855003" lon="-5.376258">
        <ele>1073.51</ele>
        <time>2021-03-27T17:59:12Z</time>
      </trkpt>
      <trkpt lat="42.854737" lon="-5.374522">
        <ele>1067.16</ele>
        <time>2021-03-27T17:59:17Z</time>
      </trkpt>
      <trkpt lat="42.854715" lon="-5.374132">
        <ele>1065.93</ele>
        <time>2021-03-27T17:59:22Z</time>
      </trkpt>
      <trkpt lat="42.854751" lon="-5.373605">
        <ele>1063.96</ele>
        <time>2021-03-27T17:59:26Z</time>
      </trkpt>
      <trkpt lat="42.854846" lon="-5.373151">
        <ele>1061.58</ele>
        <time>2021-03-27T17:59:31Z</time>
      </trkpt>
      <trkpt lat="42.854977" lon="-5.372717">
        <ele>1058.38</ele>
        <time>2021-03-27T17:59:36Z</time>
      </trkpt>
      <trkpt lat="42.855145" lon="-5.372375">
        <ele>1057.97</ele>
        <time>2021-03-27T17:59:40Z</time>
      </trkpt>
      <trkpt lat="42.855327" lon="-5.372053">
        <ele>1058.82</ele>
        <time>2021-03-27T17:59:45Z</time>
      </trkpt>
      <trkpt lat="42.856253" lon="-5.37062">
        <ele>1056.86</ele>
        <time>2021-03-27T17:59:50Z</time>
      </trkpt>
      <trkpt lat="42.856486" lon="-5.370062">
        <ele>1053.05</ele>
        <time>2021-03-27T17:59:54Z</time>
      </trkpt>
      <trkpt lat="42.856567" lon="-5.369783">
        <ele>1050.88</ele>
        <time>2021-03-27T17:59:59Z</time>
      </trkpt>
      <trkpt lat="42.856661" lon="-5.369224">
        <ele>1049.96</ele>
        <time>2021-03-27T18:00:04Z</time>
      </trkpt>
      <trkpt lat="42.85668" lon="-5.368979">
        <ele>1049.37</ele>
        <time>2021-03-27T18:00:08Z</time>
      </trkpt>
      <trkpt lat="42.856853" lon="-5.364204">
        <ele>1040.95</ele>
        <time>2021-03-27T18:00:13Z</time>
      </trkpt>
      <trkpt lat="42.856884" lon="-5.362776">
        <ele>1034.79</ele>
        <time>2021-03-27T18:00:18Z</time>
      </trkpt>
      <trkpt lat="42.856824" lon="-5.36219">
        <ele>1035.34</ele>
        <time>2021-03-27T18:00:23Z</time>
      </trkpt>
      <trkpt lat="42.856724" lon="-5.361605">
        <ele>1027.57</ele>
        <time>2021-03-27T18:00:27Z</time>
      </trkpt>
      <trkpt lat="42.856366" lon="-5.360123">
        <ele>1026.02</ele>
        <time>2021-03-27T18:00:32Z</time>
      </trkpt>
      <trkpt lat="42.855983" lon="-5.358417">
        <ele>1033.3</ele>
        <time>2021-03-27T18:00:37Z</time>
      </trkpt>
      <trkpt lat="42.855922" lon="-5.358025">
        <ele>1033.21</ele>
        <time>2021-03-27T18:00:41Z</time>
      </trkpt>
      <trkpt lat="42.855896" lon="-5.357634">
        <ele>1031.42</ele>
        <time>2021-03-27T18:00:46Z</time>
      </trkpt>
      <trkpt lat="42.855878" lon="-5.356837">
        <ele>1030.42</ele>
        <time>2021-03-27T18:00:51Z</time>
      </trkpt>
      <trkpt lat="42.855931" lon="-5.355325">
        <ele>1022.95</ele>
        <time>2021-03-27T18:00:55Z</time>
      </trkpt>
      <trkpt lat="42.855931" lon="-5.354821">
        <ele>1021.94</ele>
        <time>2021-03-27T18:01:00Z</time>
      </trkpt>
      <trkpt lat="42.855853" lon="-5.354091">
        <ele>1018.95</ele>
        <time>2021-03-27T18:01:05Z</time>
      </trkpt>
      <trkpt lat="42.855427" lon="-5.351275">
        <ele>1005.0</ele>
        <time>2021-03-27T18:01:09Z</time>
      </trkpt>
      <trkpt lat="42.85529" lon="-5.350637">
        <ele>1004.29</ele>
        <time>2021-03-27T18:01:14Z</time>
      </trkpt>
      <trkpt lat="42.854802" lon="-5.348869">
        <ele>995.59</ele>
        <time>2021-03-27T18:01:19Z</time>
      </trkpt>
      <trkpt lat="42.8547" lon="-5.34844">
        <ele>993.33</ele>
        <time>2021-03-27T18:01:24Z</time>
      </trkpt>
      <trkpt lat="42.854637" lon="-5.348035">
        <ele>991.67</ele>
        <time>2021-03-27T18:01:28Z</time>
      </trkpt>
      <trkpt lat="42.85438" lon="-5.345833">
        <ele>988.77</ele>
        <time>2021-03-27T18:01:33Z</time>
      </trkpt>
      <trkpt lat="42.854294" lon="-5.345307">
        <ele>988.44</ele>
        <time>2021-03-27T18:01:38Z</time>
      </trkpt>
      <trkpt lat="42.853337" lon="-5.34283">
        <ele>986.19</ele>
        <time>2021-03-27T18:01:42Z</time>
      </trkpt>
      <trkpt lat="42.852934" lon="-5.341933">
        <ele>984.08</ele>
        <time>2021-03-27T18:01:47Z</time>
      </trkpt>
      <trkpt lat="42.852607" lon="-5.341294">
        <ele>980.85</ele>
        <time>2021-03-27T18:01:52Z</time>
      </trkpt>
      <trkpt lat="42.852478" lon="-5.340984">
        <ele>980.38</ele>
        <time>2021-03-27T18:01:56Z</time>
      </trkpt>
      <trkpt lat="42.852436" lon="-5.340813">
        <ele>979.75</ele>
        <time>2021-03-27T18:02:01Z</time>
      </trkpt>
      <trkpt lat="42.852246" lon="-5.339331">
        <ele>977.07</ele>
        <time>2021-03-27T18:02:06Z</time>
      </trkpt>
      <trkpt lat="42.852162" lon="-5.338335">
        <ele>975.79</ele>
        <time>2021-03-27T18:02:10Z</time>
      </trkpt>
      <trkpt lat="42.852109" lon="-5.337339">
        <ele>974.01</ele>
        <time>2021-03-27T18:02:15Z</time>
      </trkpt>
      <trkpt lat="42.852116" lon="-5.336881">
        <ele>972.01</ele>
        <time>2021-03-27T18:02:20Z</time>
      </trkpt>
      <trkpt lat="42.852152" lon="-5.336405">
        <ele>970.79</ele>
        <time>2021-03-27T18:02:25Z</time>
      </trkpt>
      <trkpt lat="42.852289" lon="-5.33586">
        <ele>969.8</ele>
        <time>2021-03-27T18:02:29Z</time>
      </trkpt>
      <trkpt lat="42.852439" lon="-5.335573">
        <ele>969.01</ele>
        <time>2021-03-27T18:02:34Z</time>
      </trkpt>
      <trkpt lat="42.852823" lon="-5.335022">
        <ele>967.02</ele>
        <time>2021-03-27T18:02:39Z</time>
      </trkpt>
      <trkpt lat="42.853066" lon="-5.334575">
        <ele>963.54</ele>
        <time>2021-03-27T18:02:43Z</time>
      </trkpt>
      <trkpt lat="42.853263" lon="-5.333984">
        <ele>960.2</ele>
        <time>2021-03-27T18:02:48Z</time>
      </trkpt>
      <trkpt lat="42.853991" lon="-5.328774">
        <ele>963.0</ele>
        <time>2021-03-27T18:02:53Z</time>
      </trkpt>
      <trkpt lat="42.853925" lon="-5.328748">
        <ele>962.7</ele>
        <time>2021-03-27T18:02:54Z</time>
      </trkpt>
      <trkpt lat="42.853871" lon="-5.328698">
        <ele>962.62</ele>
        <time>2021-03-27T18:02:56Z</time>
      </trkpt>
      <trkpt lat="42.853824" lon="-5.328615">
        <ele>962.75</ele>
        <time>2021-03-27T18:02:58Z</time>
      </trkpt>
      <trkpt lat="42.853801" lon="-5.328515">
        <ele>962.9</ele>
        <time>2021-03-27T18:03:00Z</time>
      </trkpt>
      <trkpt lat="42.85381" lon="-5.328389">
        <ele>963.17</ele>
        <time>2021-03-27T18:03:02Z</time>
      </trkpt>
      <trkpt lat="42.853693" lon="-5.328248">
        <ele>963.92</ele>
        <time>2021-03-27T18:03:03Z</time>
      </trkpt>
      <trkpt lat="42.853624" lon="-5.328049">
        <ele>964.91</ele>
        <time>2021-03-27T18:03:05Z</time>
      </trkpt>
      <trkpt lat="42.853624" lon="-5.327858">
        <ele>964.91</ele>
        <time>2021-03-27T18:03:07Z</time>
      </trkpt>
      <trkpt lat="42.853697" lon="-5.32763">
        <ele>964.38</ele>
        <time>2021-03-27T18:03:09Z</time>
      </trkpt>
      <trkpt lat="42.853871" lon="-5.327213">
        <ele>964.07</ele>
        <time>2021-03-27T18:03:10Z</time>
      </trkpt>
      <trkpt lat="42.853938" lon="-5.326994">
        <ele>964.15</ele>
        <time>2021-03-27T18:03:12Z</time>
      </trkpt>
      <trkpt lat="42.853956" lon="-5.326578">
        <ele>965.08</ele>
        <time>2021-03-27T18:03:14Z</time>
      </trkpt>
      <trkpt lat="42.85391" lon="-5.326077">
        <ele>964.95</ele>
        <time>2021-03-27T18:03:16Z</time>
      </trkpt>
      <trkpt lat="42.853862" lon="-5.325826">
        <ele>964.09</ele>
        <time>2021-03-27T18:03:17Z</time>
      </trkpt>
      <trkpt lat="42.853864" lon="-5.325677">
        <ele>964.09</ele>
        <time>2021-03-27T18:03:18Z</time>
      </trkpt>
      <trkpt lat="42.853916" lon="-5.325597">
        <ele>964.1</ele>
        <time>2021-03-27T18:03:19Z</time>
      </trkpt>
      <trkpt lat="42.856356" lon="-5.325209">
        <ele>966.0</ele>
        <time>2021-03-27T18:03:24Z</time>
      </trkpt>
      <trkpt lat="42.856977" lon="-5.325096">
        <ele>966.76</ele>
        <time>2021-03-27T18:03:28Z</time>
      </trkpt>
      <trkpt lat="42.857208" lon="-5.325031">
        <ele>967.05</ele>
        <time>2021-03-27T18:03:33Z</time>
      </trkpt>
      <trkpt lat="42.858279" lon="-5.324658">
        <ele>969.8</ele>
        <time>2021-03-27T18:03:37Z</time>
      </trkpt>
      <trkpt lat="42.859438" lon="-5.324197">
        <ele>969.87</ele>
        <time>2021-03-27T18:03:42Z</time>
      </trkpt>
      <trkpt lat="42.860095" lon="-5.323988">
        <ele>968.36</ele>
        <time>2021-03-27T18:03:47Z</time>
      </trkpt>
      <trkpt lat="42.861625" lon="-5.32397">
        <ele>972.0</ele>
        <time>2021-03-27T18:03:51Z</time>
      </trkpt>
      <trkpt lat="42.863984" lon="-5.323519">
        <ele>974.67</ele>
        <time>2021-03-27T18:03:56Z</time>
      </trkpt>
      <trkpt lat="42.864371" lon="-5.323507">
        <ele>974.44</ele>
        <time>2021-03-27T18:04:00Z</time>
      </trkpt>
      <trkpt lat="42.865288" lon="-5.323392">
        <ele>975.75</ele>
        <time>2021-03-27T18:04:05Z</time>
      </trkpt>
      <trkpt lat="42.866257" lon="-5.323556">
        <ele>974.82</ele>
        <time>2021-03-27T18:04:09Z</time>
      </trkpt>
      <trkpt lat="42.867109" lon="-5.323768">
        <ele>974.84</ele>
        <time>2021-03-27T18:04:14Z</time>
      </trkpt>
      <trkpt lat="42.86782" lon="-5.323507">
        <ele>976.32</ele>
        <time>2021-03-27T18:04:18Z</time>
      </trkpt>
      <trkpt lat="42.868289" lon="-5.323172">
        <ele>976.09</ele>
        <time>2021-03-27T18:04:23Z</time>
      </trkpt>
      <trkpt lat="42.86877" lon="-5.322844">
        <ele>976.71</ele>
        <time>2021-03-27T18:04:27Z</time>
      </trkpt>
      <trkpt lat="42.869509" lon="-5.322621">
        <ele>977.0</ele>
        <time>2021-03-27T18:04:32Z</time>
      </trkpt>
      <trkpt lat="42.871838" lon="-5.321577">
        <ele>979.32</ele>
        <time>2021-03-27T18:04:37Z</time>
      </trkpt>
      <trkpt lat="42.872494" lon="-5.321327">
        <ele>979.0</ele>
        <time>2021-03-27T18:04:41Z</time>
      </trkpt>
      <trkpt lat="42.873825" lon="-5.320864">
        <ele>979.09</ele>
        <time>2021-03-27T18:04:46Z</time>
      </trkpt>
      <trkpt lat="42.876216" lon="-5.320184">
        <ele>982.21</ele>
        <time>2021-03-27T18:04:50Z</time>
      </trkpt>
      <trkpt lat="42.876537" lon="-5.320069">
        <ele>982.13</ele>
        <time>2021-03-27T18:04:55Z</time>
      </trkpt>
      <trkpt lat="42.876827" lon="-5.319799">
        <ele>981.58</ele>
        <time>2021-03-27T18:04:59Z</time>
      </trkpt>
      <trkpt lat="42.878426" lon="-5.316778">
        <ele>983.86</ele>
        <time>2021-03-27T18:05:04Z</time>
      </trkpt>
      <trkpt lat="42.878948" lon="-5.316104">
        <ele>983.67</ele>
        <time>2021-03-27T18:05:08Z</time>
      </trkpt>
      <trkpt lat="42.879546" lon="-5.315656">
        <ele>981.4</ele>
        <time>2021-03-27T18:05:13Z</time>
      </trkpt>
      <trkpt lat="42.880303" lon="-5.315189">
        <ele>985.63</ele>
        <time>2021-03-27T18:05:17Z</time>
      </trkpt>
      <trkpt lat="42.881187" lon="-5.314557">
        <ele>988.84</ele>
        <time>2021-03-27T18:05:22Z</time>
      </trkpt>
      <trkpt lat="42.886334" lon="-5.308727">
        <ele>992.25</ele>
        <time>2021-03-27T18:05:27Z</time>
      </trkpt>
      <trkpt lat="42.886578" lon="-5.308604">
        <ele>993.32</ele>
        <time>2021-03-27T18:05:31Z</time>
      </trkpt>
      <trkpt lat="42.894042" lon="-5.307464">
        <ele>1000.2</ele>
        <time>2021-03-27T18:05:36Z</time>
      </trkpt>
      <trkpt lat="42.894857" lon="-5.307404">
        <ele>1002.44</ele>
        <time>2021-03-27T18:05:40Z</time>
      </trkpt>
      <trkpt lat="42.896307" lon="-5.308114">
        <ele>1003.11</ele>
        <time>2021-03-27T18:05:45Z</time>
      </trkpt>
      <trkpt lat="42.896663" lon="-5.308447">
        <ele>1004.13</ele>
        <time>2021-03-27T18:05:49Z</time>
      </trkpt>
      <trkpt lat="42.896904" lon="-5.308789">
        <ele>1001.87</ele>
        <time>2021-03-27T18:05:54Z</time>
      </trkpt>
      <trkpt lat="42.896975" lon="-5.309094">
        <ele>1000.99</ele>
        <time>2021-03-27T18:05:58Z</time>
      </trkpt>
      <trkpt lat="42.896992" lon="-5.309522">
        <ele>1000.94</ele>
        <time>2021-03-27T18:06:03Z</time>
      </trkpt>
      <trkpt lat="42.896769" lon="-5.310912">
        <ele>1006.48</ele>
        <time>2021-03-27T18:06:07Z</time>
      </trkpt>
      <trkpt lat="42.896687" lon="-5.311599">
        <ele>1012.39</ele>
        <time>2021-03-27T18:06:12Z</time>
      </trkpt>
      <trkpt lat="42.896701" lon="-5.312741">
        <ele>1009.55</ele>
        <time>2021-03-27T18:06:17Z</time>
      </trkpt>
      <trkpt lat="42.89712" lon="-5.31382">
        <ele>1008.92</ele>
        <time>2021-03-27T18:06:21Z</time>
      </trkpt>
      <trkpt lat="42.898407" lon="-5.314795">
        <ele>1008.25</ele>
        <time>2021-03-27T18:06:26Z</time>
      </trkpt>
      <trkpt lat="42.898656" lon="-5.314868">
        <ele>1010.39</ele>
        <time>2021-03-27T18:06:30Z</time>
      </trkpt>
      <trkpt lat="42.899301" lon="-5.31467">
        <ele>1013.13</ele>
        <time>2021-03-27T18:06:35Z</time>
      </trkpt>
      <trkpt lat="42.899813" lon="-5.314436">
        <ele>1015.05</ele>
        <time>2021-03-27T18:06:39Z</time>
      </trkpt>
      <trkpt lat="42.901249" lon="-5.312698">
        <ele>1016.46</ele>
        <time>2021-03-27T18:06:44Z</time>
      </trkpt>
      <trkpt lat="42.901526" lon="-5.312528">
        <ele>1020.04</ele>
        <time>2021-03-27T18:06:48Z</time>
      </trkpt>
      <trkpt lat="42.902345" lon="-5.31224">
        <ele>1018.85</ele>
        <time>2021-03-27T18:06:53Z</time>
      </trkpt>
      <trkpt lat="42.902618" lon="-5.312225">
        <ele>1019.05</ele>
        <time>2021-03-27T18:06:57Z</time>
      </trkpt>
      <trkpt lat="42.90396" lon="-5.312353">
        <ele>1025.71</ele>
        <time>2021-03-27T18:07:02Z</time>
      </trkpt>
      <trkpt lat="42.904667" lon="-5.312709">
        <ele>1033.45</ele>
        <time>2021-03-27T18:07:07Z</time>
      </trkpt>
      <trkpt lat="42.905893" lon="-5.312652">
        <ele>1039.1</ele>
        <time>2021-03-27T18:07:11Z</time>
      </trkpt>
      <trkpt lat="42.910591" lon="-5.311434">
        <ele>1021.93</ele>
        <time>2021-03-27T18:07:16Z</time>
      </trkpt>
      <trkpt lat="42.910814" lon="-5.311493">
        <ele>1022.12</ele>
        <time>2021-03-27T18:07:20Z</time>
      </trkpt>
      <trkpt lat="42.912153" lon="-5.312249">
        <ele>1025.63</ele>
        <time>2021-03-27T18:07:25Z</time>
      </trkpt>
      <trkpt lat="42.912449" lon="-5.31231">
        <ele>1031.23</ele>
        <time>2021-03-27T18:07:29Z</time>
      </trkpt>
      <trkpt lat="42.912789" lon="-5.312284">
        <ele>1036.26</ele>
        <time>2021-03-27T18:07:34Z</time>
      </trkpt>
      <trkpt lat="42.913076" lon="-5.312195">
        <ele>1034.62</ele>
        <time>2021-03-27T18:07:38Z</time>
      </trkpt>
      <trkpt lat="42.913375" lon="-5.311927">
        <ele>1031.48</ele>
        <time>2021-03-27T18:07:43Z</time>
      </trkpt>
      <trkpt lat="42.917654" lon="-5.305028">
        <ele>1018.55</ele>
        <time>2021-03-27T18:07:47Z</time>
      </trkpt>
      <trkpt lat="42.919358" lon="-5.303159">
        <ele>1021.95</ele>
        <time>2021-03-27T18:07:52Z</time>
      </trkpt>
      <trkpt lat="42.921013" lon="-5.301296">
        <ele>1021.28</ele>
        <time>2021-03-27T18:07:56Z</time>
      </trkpt>
      <trkpt lat="42.922666" lon="-5.299475">
        <ele>1025.0</ele>
        <time>2021-03-27T18:08:01Z</time>
      </trkpt>
      <trkpt lat="42.922818" lon="-5.299135">
        <ele>1023.85</ele>
        <time>2021-03-27T18:08:06Z</time>
      </trkpt>
      <trkpt lat="42.922894" lon="-5.298618">
        <ele>1022.42</ele>
        <time>2021-03-27T18:08:10Z</time>
      </trkpt>
      <trkpt lat="42.922873" lon="-5.29783">
        <ele>1028.54</ele>
        <time>2021-03-27T18:08:15Z</time>
      </trkpt>
      <trkpt lat="42.922789" lon="-5.296674">
        <ele>1035.95</ele>
        <time>2021-03-27T18:08:19Z</time>
      </trkpt>
      <trkpt lat="42.922646" lon="-5.29635">
        <ele>1036.5</ele>
        <time>2021-03-27T18:08:24Z</time>
      </trkpt>
      <trkpt lat="42.922352" lon="-5.295987">
        <ele>1037.54</ele>
        <time>2021-03-27T18:08:28Z</time>
      </trkpt>
      <trkpt lat="42.921528" lon="-5.295467">
        <ele>1046.88</ele>
        <time>2021-03-27T18:08:33Z</time>
      </trkpt>
      <trkpt lat="42.92121" lon="-5.295132">
        <ele>1048.03</ele>
        <time>2021-03-27T18:08:37Z</time>
      </trkpt>
      <trkpt lat="42.920451" lon="-5.293096">
        <ele>1052.68</ele>
        <time>2021-03-27T18:08:42Z</time>
      </trkpt>
      <trkpt lat="42.920361" lon="-5.29271">
        <ele>1054.01</ele>
        <time>2021-03-27T18:08:46Z</time>
      </trkpt>
      <trkpt lat="42.920417" lon="-5.292414">
        <ele>1050.17</ele>
        <time>2021-03-27T18:08:51Z</time>
      </trkpt>
      <trkpt lat="42.920548" lon="-5.292209">
        <ele>1048.17</ele>
        <time>2021-03-27T18:08:56Z</time>
      </trkpt>
      <trkpt lat="42.920692" lon="-5.29211">
        <ele>1050.68</ele>
        <time>2021-03-27T18:09:00Z</time>
      </trkpt>
      <trkpt lat="42.920846" lon="-5.29206">
        <ele>1053.81</ele>
        <time>2021-03-27T18:09:05Z</time>
      </trkpt>
      <trkpt lat="42.921096" lon="-5.292102">
        <ele>1062.58</ele>
        <time>2021-03-27T18:09:09Z</time>
      </trkpt>
      <trkpt lat="42.921345" lon="-5.292335">
        <ele>1067.49</ele>
        <time>2021-03-27T18:09:14Z</time>
      </trkpt>
      <trkpt lat="42.921721" lon="-5.292951">
        <ele>1068.29</ele>
        <time>2021-03-27T18:09:18Z</time>
      </trkpt>
      <trkpt lat="42.922306" lon="-5.29419">
        <ele>1072.54</ele>
        <time>2021-03-27T18:09:23Z</time>
      </trkpt>
      <trkpt lat="42.922473" lon="-5.294414">
        <ele>1075.57</ele>
        <time>2021-03-27T18:09:27Z</time>
      </trkpt>
      <trkpt lat="42.923408" lon="-5.294989">
        <ele>1079.52</ele>
        <time>2021-03-27T18:09:32Z</time>
      </trkpt>
      <trkpt lat="42.923687" lon="-5.295076">
        <ele>1080.03</ele>
        <time>2021-03-27T18:09:36Z</time>
      </trkpt>
      <trkpt lat="42.924019" lon="-5.29502">
        <ele>1081.99</ele>
        <time>2021-03-27T18:09:41Z</time>
      </trkpt>
      <trkpt lat="42.925463" lon="-5.293992">
        <ele>1089.98</ele>
        <time>2021-03-27T18:09:46Z</time>
      </trkpt>
      <trkpt lat="42.926416" lon="-5.292971">
        <ele>1105.97</ele>
        <time>2021-03-27T18:09:50Z</time>
      </trkpt>
      <trkpt lat="42.926761" lon="-5.292713">
        <ele>1103.8</ele>
        <time>2021-03-27T18:09:55Z</time>
      </trkpt>
      <trkpt lat="42.928104" lon="-5.291933">
        <ele>1096.37</ele>
        <time>2021-03-27T18:09:59Z</time>
      </trkpt>
      <trkpt lat="42.928327" lon="-5.291744">
        <ele>1095.03</ele>
        <time>2021-03-27T18:10:04Z</time>
      </trkpt>
      <trkpt lat="42.928414" lon="-5.291445">
        <ele>1095.79</ele>
        <time>2021-03-27T18:10:08Z</time>
      </trkpt>
      <trkpt lat="42.92841" lon="-5.291153">
        <ele>1095.73</ele>
        <time>2021-03-27T18:10:13Z</time>
      </trkpt>
      <trkpt lat="42.928294" lon="-5.290715">
        <ele>1096.23</ele>
        <time>2021-03-27T18:10:17Z</time>
      </trkpt>
      <trkpt lat="42.927077" lon="-5.288355">
        <ele>1109.71</ele>
        <time>2021-03-27T18:10:22Z</time>
      </trkpt>
      <trkpt lat="42.925352" lon="-5.285363">
        <ele>1101.54</ele>
        <time>2021-03-27T18:10:26Z</time>
      </trkpt>
      <trkpt lat="42.924974" lon="-5.284385">
        <ele>1108.37</ele>
        <time>2021-03-27T18:10:31Z</time>
      </trkpt>
      <trkpt lat="42.924866" lon="-5.283883">
        <ele>1110.38</ele>
        <time>2021-03-27T18:10:36Z</time>
      </trkpt>
      <trkpt lat="42.924782" lon="-5.28073">
        <ele>1108.15</ele>
        <time>2021-03-27T18:10:40Z</time>
      </trkpt>
      <trkpt lat="42.924882" lon="-5.280146">
        <ele>1105.49</ele>
        <time>2021-03-27T18:10:45Z</time>
      </trkpt>
      <trkpt lat="42.92514" lon="-5.279818">
        <ele>1103.32</ele>
        <time>2021-03-27T18:10:49Z</time>
      </trkpt>
      <trkpt lat="42.925452" lon="-5.279668">
        <ele>1104.19</ele>
        <time>2021-03-27T18:10:54Z</time>
      </trkpt>
      <trkpt lat="42.925782" lon="-5.279731">
        <ele>1108.65</ele>
        <time>2021-03-27T18:10:58Z</time>
      </trkpt>
      <trkpt lat="42.926029" lon="-5.279915">
        <ele>1111.05</ele>
        <time>2021-03-27T18:11:03Z</time>
      </trkpt>
      <trkpt lat="42.926508" lon="-5.280738">
        <ele>1108.26</ele>
        <time>2021-03-27T18:11:07Z</time>
      </trkpt>
      <trkpt lat="42.926867" lon="-5.281249">
        <ele>1108.26</ele>
        <time>2021-03-27T18:11:12Z</time>
      </trkpt>
      <trkpt lat="42.927321" lon="-5.281541">
        <ele>1106.6</ele>
        <time>2021-03-27T18:11:16Z</time>
      </trkpt>
      <trkpt lat="42.92827" lon="-5.282024">
        <ele>1104.61</ele>
        <time>2021-03-27T18:11:21Z</time>
      </trkpt>
      <trkpt lat="42.929521" lon="-5.282586">
        <ele>1106.87</ele>
        <time>2021-03-27T18:11:26Z</time>
      </trkpt>
      <trkpt lat="42.930054" lon="-5.282745">
        <ele>1107.01</ele>
        <time>2021-03-27T18:11:30Z</time>
      </trkpt>
      <trkpt lat="42.931029" lon="-5.282864">
        <ele>1101.56</ele>
        <time>2021-03-27T18:11:35Z</time>
      </trkpt>
      <trkpt lat="42.931951" lon="-5.282942">
        <ele>1101.23</ele>
        <time>2021-03-27T18:11:39Z</time>
      </trkpt>
      <trkpt lat="42.932761" lon="-5.282695">
        <ele>1106.83</ele>
        <time>2021-03-27T18:11:44Z</time>
      </trkpt>
      <trkpt lat="42.933262" lon="-5.282429">
        <ele>1108.14</ele>
        <time>2021-03-27T18:11:48Z</time>
      </trkpt>
      <trkpt lat="42.933621" lon="-5.282163">
        <ele>1109.16</ele>
        <time>2021-03-27T18:11:53Z</time>
      </trkpt>
      <trkpt lat="42.933898" lon="-5.281802">
        <ele>1110.21</ele>
        <time>2021-03-27T18:11:57Z</time>
      </trkpt>
      <trkpt lat="42.934373" lon="-5.281019">
        <ele>1106.78</ele>
        <time>2021-03-27T18:12:02Z</time>
      </trkpt>
      <trkpt lat="42.935406" lon="-5.279223">
        <ele>1111.17</ele>
        <time>2021-03-27T18:12:06Z</time>
      </trkpt>
      <trkpt lat="42.935593" lon="-5.278788">
        <ele>1105.53</ele>
        <time>2021-03-27T18:12:11Z</time>
      </trkpt>
      <trkpt lat="42.935671" lon="-5.278378">
        <ele>1102.91</ele>
        <time>2021-03-27T18:12:16Z</time>
      </trkpt>
      <trkpt lat="42.935695" lon="-5.277889">
        <ele>1103.09</ele>
        <time>2021-03-27T18:12:20Z</time>
      </trkpt>
      <trkpt lat="42.935591" lon="-5.27734">
        <ele>1104.13</ele>
        <time>2021-03-27T18:12:25Z</time>
      </trkpt>
      <trkpt lat="42.934704" lon="-5.275391">
        <ele>1110.28</ele>
        <time>2021-03-27T18:12:29Z</time>
      </trkpt>
      <trkpt lat="42.933484" lon="-5.273998">
        <ele>1108.92</ele>
        <time>2021-03-27T18:12:34Z</time>
      </trkpt>
      <trkpt lat="42.933322" lon="-5.273633">
        <ele>1112.29</ele>
        <time>2021-03-27T18:12:38Z</time>
      </trkpt>
      <trkpt lat="42.933278" lon="-5.27322">
        <ele>1114.08</ele>
        <time>2021-03-27T18:12:43Z</time>
      </trkpt>
      <trkpt lat="42.933352" lon="-5.272777">
        <ele>1106.67</ele>
        <time>2021-03-27T18:12:47Z</time>
      </trkpt>
      <trkpt lat="42.933518" lon="-5.272505">
        <ele>1104.0</ele>
        <time>2021-03-27T18:12:52Z</time>
      </trkpt>
      <trkpt lat="42.933708" lon="-5.272352">
        <ele>1101.56</ele>
        <time>2021-03-27T18:12:56Z</time>
      </trkpt>
      <trkpt lat="42.933961" lon="-5.272245">
        <ele>1104.45</ele>
        <time>2021-03-27T18:13:01Z</time>
      </trkpt>
      <trkpt lat="42.935318" lon="-5.272493">
        <ele>1118.63</ele>
        <time>2021-03-27T18:13:05Z</time>
      </trkpt>
      <trkpt lat="42.935601" lon="-5.272518">
        <ele>1120.69</ele>
        <time>2021-03-27T18:13:10Z</time>
      </trkpt>
      <trkpt lat="42.935878" lon="-5.272485">
        <ele>1121.25</ele>
        <time>2021-03-27T18:13:15Z</time>
      </trkpt>
      <trkpt lat="42.936094" lon="-5.272325">
        <ele>1122.38</ele>
        <time>2021-03-27T18:13:19Z</time>
      </trkpt>
      <trkpt lat="42.936226" lon="-5.27201">
        <ele>1122.79</ele>
        <time>2021-03-27T18:13:24Z</time>
      </trkpt>
      <trkpt lat="42.936344" lon="-5.271337">
        <ele>1121.55</ele>
        <time>2021-03-27T18:13:28Z</time>
      </trkpt>
      <trkpt lat="42.936459" lon="-5.270991">
        <ele>1120.98</ele>
        <time>2021-03-27T18:13:33Z</time>
      </trkpt>
      <trkpt lat="42.936586" lon="-5.270704">
        <ele>1121.69</ele>
        <time>2021-03-27T18:13:37Z</time>
      </trkpt>
      <trkpt lat="42.936806" lon="-5.270621">
        <ele>1120.46</ele>
        <time>2021-03-27T18:13:42Z</time>
      </trkpt>
      <trkpt lat="42.937032" lon="-5.270641">
        <ele>1119.67</ele>
        <time>2021-03-27T18:13:46Z</time>
      </trkpt>
      <trkpt lat="42.937339" lon="-5.270853">
        <ele>1119.76</ele>
        <time>2021-03-27T18:13:51Z</time>
      </trkpt>
      <trkpt lat="42.937874" lon="-5.271117">
        <ele>1121.59</ele>
        <time>2021-03-27T18:13:55Z</time>
      </trkpt>
      <trkpt lat="42.938223" lon="-5.271093">
        <ele>1120.77</ele>
        <time>2021-03-27T18:14:00Z</time>
      </trkpt>
      <trkpt lat="42.93854" lon="-5.270839">
        <ele>1116.51</ele>
        <time>2021-03-27T18:14:05Z</time>
      </trkpt>
      <trkpt lat="42.939374" lon="-5.269108">
        <ele>1113.32</ele>
        <time>2021-03-27T18:14:09Z</time>
      </trkpt>
      <trkpt lat="42.940171" lon="-5.268811">
        <ele>1116.88</ele>
        <time>2021-03-27T18:14:14Z</time>
      </trkpt>
      <trkpt lat="42.94053" lon="-5.268404">
        <ele>1116.76</ele>
        <time>2021-03-27T18:14:18Z</time>
      </trkpt>
      <trkpt lat="42.940718" lon="-5.267775">
        <ele>1116.5</ele>
        <time>2021-03-27T18:14:23Z</time>
      </trkpt>
      <trkpt lat="42.9405" lon="-5.264674">
        <ele>1107.18</ele>
        <time>2021-03-27T18:14:27Z</time>
      </trkpt>
      <trkpt lat="42.940492" lon="-5.263988">
        <ele>1105.12</ele>
        <time>2021-03-27T18:14:32Z</time>
      </trkpt>
      <trkpt lat="42.940567" lon="-5.263646">
        <ele>1103.85</ele>
        <time>2021-03-27T18:14:36Z</time>
      </trkpt>
      <trkpt lat="42.941337" lon="-5.262762">
        <ele>1103.38</ele>
        <time>2021-03-27T18:14:41Z</time>
      </trkpt>
      <trkpt lat="42.941426" lon="-5.262559">
        <ele>1102.15</ele>
        <time>2021-03-27T18:14:45Z</time>
      </trkpt>
      <trkpt lat="42.941444" lon="-5.262298">
        <ele>1101.14</ele>
        <time>2021-03-27T18:14:50Z</time>
      </trkpt>
      <trkpt lat="42.941238" lon="-5.261127">
        <ele>1102.78</ele>
        <time>2021-03-27T18:14:55Z</time>
      </trkpt>
      <trkpt lat="42.941268" lon="-5.260785">
        <ele>1102.22</ele>
        <time>2021-03-27T18:14:59Z</time>
      </trkpt>
      <trkpt lat="42.941341" lon="-5.260517">
        <ele>1101.51</ele>
        <time>2021-03-27T18:15:04Z</time>
      </trkpt>
      <trkpt lat="42.941515" lon="-5.260322">
        <ele>1100.17</ele>
        <time>2021-03-27T18:15:08Z</time>
      </trkpt>
      <trkpt lat="42.942262" lon="-5.260054">
        <ele>1101.11</ele>
        <time>2021-03-27T18:15:13Z</time>
      </trkpt>
      <trkpt lat="42.942504" lon="-5.259889">
        <ele>1101.16</ele>
        <time>2021-03-27T18:15:17Z</time>
      </trkpt>
      <trkpt lat="42.943371" lon="-5.258495">
        <ele>1098.03</ele>
        <time>2021-03-27T18:15:22Z</time>
      </trkpt>
      <trkpt lat="42.943505" lon="-5.25789">
        <ele>1100.08</ele>
        <time>2021-03-27T18:15:26Z</time>
      </trkpt>
      <trkpt lat="42.943509" lon="-5.257395">
        <ele>1101.7</ele>
        <time>2021-03-27T18:15:31Z</time>
      </trkpt>
      <trkpt lat="42.943459" lon="-5.257105">
        <ele>1102.61</ele>
        <time>2021-03-27T18:15:35Z</time>
      </trkpt>
      <trkpt lat="42.942989" lon="-5.256433">
        <ele>1105.19</ele>
        <time>2021-03-27T18:15:40Z</time>
      </trkpt>
      <trkpt lat="42.942731" lon="-5.25599">
        <ele>1102.54</ele>
        <time>2021-03-27T18:15:45Z</time>
      </trkpt>
      <trkpt lat="42.942587" lon="-5.255523">
        <ele>1103.21</ele>
        <time>2021-03-27T18:15:49Z</time>
      </trkpt>
      <trkpt lat="42.942514" lon="-5.255158">
        <ele>1105.33</ele>
        <time>2021-03-27T18:15:54Z</time>
      </trkpt>
      <trkpt lat="42.942551" lon="-5.254634">
        <ele>1104.18</ele>
        <time>2021-03-27T18:15:58Z</time>
      </trkpt>
      <trkpt lat="42.942686" lon="-5.254187">
        <ele>1101.39</ele>
        <time>2021-03-27T18:16:03Z</time>
      </trkpt>
      <trkpt lat="42.943858" lon="-5.251849">
        <ele>1097.07</ele>
        <time>2021-03-27T18:16:07Z</time>
      </trkpt>
      <trkpt lat="42.943984" lon="-5.251488">
        <ele>1097.55</ele>
        <time>2021-03-27T18:16:12Z</time>
      </trkpt>
      <trkpt lat="42.944004" lon="-5.250877">
        <ele>1098.18</ele>
        <time>2021-03-27T18:16:16Z</time>
      </trkpt>
      <trkpt lat="42.943655" lon="-5.249933">
        <ele>1104.13</ele>
        <time>2021-03-27T18:16:21Z</time>
      </trkpt>
      <trkpt lat="42.943391" lon="-5.249101">
        <ele>1103.53</ele>
        <time>2021-03-27T18:16:25Z</time>
      </trkpt>
      <trkpt lat="42.943406" lon="-5.248605">
        <ele>1100.48</ele>
        <time>2021-03-27T18:16:30Z</time>
      </trkpt>
      <trkpt lat="42.94402" lon="-5.245841">
        <ele>1105.13</ele>
        <time>2021-03-27T18:16:35Z</time>
      </trkpt>
      <trkpt lat="42.944044" lon="-5.245158">
        <ele>1105.99</ele>
        <time>2021-03-27T18:16:39Z</time>
      </trkpt>
      <trkpt lat="42.943678" lon="-5.242938">
        <ele>1106.08</ele>
        <time>2021-03-27T18:16:44Z</time>
      </trkpt>
      <trkpt lat="42.9437" lon="-5.242455">
        <ele>1106.04</ele>
        <time>2021-03-27T18:16:48Z</time>
      </trkpt>
      <trkpt lat="42.943855" lon="-5.242166">
        <ele>1104.34</ele>
        <time>2021-03-27T18:16:53Z</time>
      </trkpt>
      <trkpt lat="42.944086" lon="-5.241951">
        <ele>1104.68</ele>
        <time>2021-03-27T18:16:57Z</time>
      </trkpt>
      <trkpt lat="42.9443" lon="-5.241846">
        <ele>1107.85</ele>
        <time>2021-03-27T18:17:02Z</time>
      </trkpt>
      <trkpt lat="42.944593" lon="-5.241882">
        <ele>1111.37</ele>
        <time>2021-03-27T18:17:06Z</time>
      </trkpt>
      <trkpt lat="42.944976" lon="-5.242168">
        <ele>1117.15</ele>
        <time>2021-03-27T18:17:11Z</time>
      </trkpt>
      <trkpt lat="42.945782" lon="-5.243649">
        <ele>1129.37</ele>
        <time>2021-03-27T18:17:15Z</time>
      </trkpt>
      <trkpt lat="42.945993" lon="-5.243799">
        <ele>1132.83</ele>
        <time>2021-03-27T18:17:20Z</time>
      </trkpt>
      <trkpt lat="42.946318" lon="-5.243864">
        <ele>1135.04</ele>
        <time>2021-03-27T18:17:24Z</time>
      </trkpt>
      <trkpt lat="42.947415" lon="-5.243622">
        <ele>1120.49</ele>
        <time>2021-03-27T18:17:29Z</time>
      </trkpt>
      <trkpt lat="42.948829" lon="-5.242556">
        <ele>1111.22</ele>
        <time>2021-03-27T18:17:34Z</time>
      </trkpt>
      <trkpt lat="42.948988" lon="-5.242463">
        <ele>1108.02</ele>
        <time>2021-03-27T18:17:38Z</time>
      </trkpt>
      <trkpt lat="42.949179" lon="-5.242456">
        <ele>1103.39</ele>
        <time>2021-03-27T18:17:43Z</time>
      </trkpt>
      <trkpt lat="42.949268" lon="-5.242491">
        <ele>1101.27</ele>
        <time>2021-03-27T18:17:47Z</time>
      </trkpt>
      <trkpt lat="42.949382" lon="-5.242574">
        <ele>1098.89</ele>
        <time>2021-03-27T18:17:52Z</time>
      </trkpt>
      <trkpt lat="42.949468" lon="-5.242673">
        <ele>1098.24</ele>
        <time>2021-03-27T18:17:56Z</time>
      </trkpt>
      <trkpt lat="42.949531" lon="-5.242829">
        <ele>1099.66</ele>
        <time>2021-03-27T18:18:01Z</time>
      </trkpt>
      <trkpt lat="42.949567" lon="-5.243039">
        <ele>1102.36</ele>
        <time>2021-03-27T18:18:05Z</time>
      </trkpt>
      <trkpt lat="42.949533" lon="-5.243616">
        <ele>1111.6</ele>
        <time>2021-03-27T18:18:10Z</time>
      </trkpt>
      <trkpt lat="42.949567" lon="-5.244025">
        <ele>1114.16</ele>
        <time>2021-03-27T18:18:14Z</time>
      </trkpt>
      <trkpt lat="42.950485" lon="-5.246462">
        <ele>1105.04</ele>
        <time>2021-03-27T18:18:19Z</time>
      </trkpt>
      <trkpt lat="42.950686" lon="-5.246896">
        <ele>1102.05</ele>
        <time>2021-03-27T18:18:24Z</time>
      </trkpt>
      <trkpt lat="42.950942" lon="-5.247176">
        <ele>1103.01</ele>
        <time>2021-03-27T18:18:28Z</time>
      </trkpt>
      <trkpt lat="42.95117" lon="-5.247274">
        <ele>1107.02</ele>
        <time>2021-03-27T18:18:33Z</time>
      </trkpt>
      <trkpt lat="42.952254" lon="-5.247375">
        <ele>1108.28</ele>
        <time>2021-03-27T18:18:37Z</time>
      </trkpt>
      <trkpt lat="42.952626" lon="-5.247434">
        <ele>1109.83</ele>
        <time>2021-03-27T18:18:42Z</time>
      </trkpt>
      <trkpt lat="42.953114" lon="-5.247704">
        <ele>1108.76</ele>
        <time>2021-03-27T18:18:46Z</time>
      </trkpt>
      <trkpt lat="42.95354" lon="-5.248161">
        <ele>1107.38</ele>
        <time>2021-03-27T18:18:51Z</time>
      </trkpt>
      <trkpt lat="42.95417" lon="-5.249438">
        <ele>1102.23</ele>
        <time>2021-03-27T18:18:55Z</time>
      </trkpt>
      <trkpt lat="42.954373" lon="-5.249689">
        <ele>1104.81</ele>
        <time>2021-03-27T18:19:00Z</time>
      </trkpt>
      <trkpt lat="42.954659" lon="-5.24981">
        <ele>1106.57</ele>
        <time>2021-03-27T18:19:04Z</time>
      </trkpt>
      <trkpt lat="42.956331" lon="-5.249887">
        <ele>1106.27</ele>
        <time>2021-03-27T18:19:09Z</time>
      </trkpt>
      <trkpt lat="42.9573" lon="-5.250432">
        <ele>1107.68</ele>
        <time>2021-03-27T18:19:14Z</time>
      </trkpt>
      <trkpt lat="42.957527" lon="-5.250635">
        <ele>1105.05</ele>
        <time>2021-03-27T18:19:18Z</time>
      </trkpt>
      <trkpt lat="42.957935" lon="-5.251252">
        <ele>1099.97</ele>
        <time>2021-03-27T18:19:23Z</time>
      </trkpt>
      <trkpt lat="42.958148" lon="-5.251455">
        <ele>1100.08</ele>
        <time>2021-03-27T18:19:27Z</time>
      </trkpt>
      <trkpt lat="42.958355" lon="-5.251537">
        <ele>1098.48</ele>
        <time>2021-03-27T18:19:32Z</time>
      </trkpt>
      <trkpt lat="42.958615" lon="-5.251484">
        <ele>1097.86</ele>
        <time>2021-03-27T18:19:36Z</time>
      </trkpt>
      <trkpt lat="42.959647" lon="-5.250658">
        <ele>1100.46</ele>
        <time>2021-03-27T18:19:41Z</time>
      </trkpt>
      <trkpt lat="42.95987" lon="-5.25051">
        <ele>1100.45</ele>
        <time>2021-03-27T18:19:45Z</time>
      </trkpt>
      <trkpt lat="42.960113" lon="-5.250526">
        <ele>1099.45</ele>
        <time>2021-03-27T18:19:50Z</time>
      </trkpt>
      <trkpt lat="42.9603" lon="-5.250656">
        <ele>1098.56</ele>
        <time>2021-03-27T18:19:54Z</time>
      </trkpt>
      <trkpt lat="42.960463" lon="-5.250968">
        <ele>1098.99</ele>
        <time>2021-03-27T18:19:59Z</time>
      </trkpt>
      <trkpt lat="42.960617" lon="-5.251683">
        <ele>1111.91</ele>
        <time>2021-03-27T18:20:04Z</time>
      </trkpt>
      <trkpt lat="42.960995" lon="-5.253547">
        <ele>1114.43</ele>
        <time>2021-03-27T18:20:08Z</time>
      </trkpt>
      <trkpt lat="42.961144" lon="-5.253834">
        <ele>1106.41</ele>
        <time>2021-03-27T18:20:13Z</time>
      </trkpt>
      <trkpt lat="42.961283" lon="-5.253981">
        <ele>1103.54</ele>
        <time>2021-03-27T18:20:17Z</time>
      </trkpt>
      <trkpt lat="42.961498" lon="-5.254033">
        <ele>1101.43</ele>
        <time>2021-03-27T18:20:22Z</time>
      </trkpt>
      <trkpt lat="42.961936" lon="-5.254029">
        <ele>1100.91</ele>
        <time>2021-03-27T18:20:26Z</time>
      </trkpt>
      <trkpt lat="42.962164" lon="-5.254111">
        <ele>1103.35</ele>
        <time>2021-03-27T18:20:31Z</time>
      </trkpt>
      <trkpt lat="42.963867" lon="-5.255549">
        <ele>1116.51</ele>
        <time>2021-03-27T18:20:35Z</time>
      </trkpt>
      <trkpt lat="42.96406" lon="-5.255641">
        <ele>1115.88</ele>
        <time>2021-03-27T18:20:40Z</time>
      </trkpt>
      <trkpt lat="42.96425" lon="-5.255625">
        <ele>1115.04</ele>
        <time>2021-03-27T18:20:44Z</time>
      </trkpt>
      <trkpt lat="42.964461" lon="-5.255503">
        <ele>1112.76</ele>
        <time>2021-03-27T18:20:49Z</time>
      </trkpt>
      <trkpt lat="42.965038" lon="-5.254935">
        <ele>1115.19</ele>
        <time>2021-03-27T18:20:54Z</time>
      </trkpt>
      <trkpt lat="42.96602" lon="-5.254504">
        <ele>1120.09</ele>
        <time>2021-03-27T18:20:58Z</time>
      </trkpt>
      <trkpt lat="42.966305" lon="-5.254444">
        <ele>1120.6</ele>
        <time>2021-03-27T18:21:03Z</time>
      </trkpt>
      <trkpt lat="42.966625" lon="-5.254537">
        <ele>1119.7</ele>
        <time>2021-03-27T18:21:07Z</time>
      </trkpt>
      <trkpt lat="42.966901" lon="-5.254728">
        <ele>1115.93</ele>
        <time>2021-03-27T18:21:12Z</time>
      </trkpt>
      <trkpt lat="42.967125" lon="-5.255089">
        <ele>1113.75</ele>
        <time>2021-03-27T18:21:16Z</time>
      </trkpt>
      <trkpt lat="42.967441" lon="-5.255941">
        <ele>1119.37</ele>
        <time>2021-03-27T18:21:21Z</time>
      </trkpt>
      <trkpt lat="42.967621" lon="-5.25626">
        <ele>1120.74</ele>
        <time>2021-03-27T18:21:25Z</time>
      </trkpt>
      <trkpt lat="42.968533" lon="-5.257062">
        <ele>1118.86</ele>
        <time>2021-03-27T18:21:30Z</time>
      </trkpt>
      <trkpt lat="42.968854" lon="-5.257208">
        <ele>1126.95</ele>
        <time>2021-03-27T18:21:34Z</time>
      </trkpt>
      <trkpt lat="42.969292" lon="-5.257258">
        <ele>1138.69</ele>
        <time>2021-03-27T18:21:39Z</time>
      </trkpt>
      <trkpt lat="42.97138" lon="-5.257484">
        <ele>1141.24</ele>
        <time>2021-03-27T18:21:44Z</time>
      </trkpt>
      <trkpt lat="42.971957" lon="-5.257539">
        <ele>1126.42</ele>
        <time>2021-03-27T18:21:48Z</time>
      </trkpt>
      <trkpt lat="42.972249" lon="-5.257671">
        <ele>1123.9</ele>
        <time>2021-03-27T18:21:53Z</time>
      </trkpt>
      <trkpt lat="42.972525" lon="-5.257866">
        <ele>1125.83</ele>
        <time>2021-03-27T18:21:57Z</time>
      </trkpt>
      <trkpt lat="42.972858" lon="-5.258263">
        <ele>1126.22</ele>
        <time>2021-03-27T18:22:02Z</time>
      </trkpt>
      <trkpt lat="42.973437" lon="-5.259428">
        <ele>1122.43</ele>
        <time>2021-03-27T18:22:06Z</time>
      </trkpt>
      <trkpt lat="42.973715" lon="-5.25983">
        <ele>1114.1</ele>
        <time>2021-03-27T18:22:11Z</time>
      </trkpt>
      <trkpt lat="42.97408" lon="-5.259936">
        <ele>1111.75</ele>
        <time>2021-03-27T18:22:15Z</time>
      </trkpt>
      <trkpt lat="42.974795" lon="-5.259696">
        <ele>1113.63</ele>
        <time>2021-03-27T18:22:20Z</time>
      </trkpt>
      <trkpt lat="42.97503" lon="-5.259571">
        <ele>1108.8</ele>
        <time>2021-03-27T18:22:24Z</time>
      </trkpt>
      <trkpt lat="42.975355" lon="-5.259246">
        <ele>1105.66</ele>
        <time>2021-03-27T18:22:29Z</time>
      </trkpt>
      <trkpt lat="42.975562" lon="-5.258913">
        <ele>1107.5</ele>
        <time>2021-03-27T18:22:33Z</time>
      </trkpt>
      <trkpt lat="42.975858" lon="-5.258129">
        <ele>1101.75</ele>
        <time>2021-03-27T18:22:38Z</time>
      </trkpt>
      <trkpt lat="42.976041" lon="-5.257813">
        <ele>1102.54</ele>
        <time>2021-03-27T18:22:43Z</time>
      </trkpt>
      <trkpt lat="42.976321" lon="-5.257594">
        <ele>1106.57</ele>
        <time>2021-03-27T18:22:47Z</time>
      </trkpt>
      <trkpt lat="42.97672" lon="-5.257527">
        <ele>1106.92</ele>
        <time>2021-03-27T18:22:52Z</time>
      </trkpt>
      <trkpt lat="42.977157" lon="-5.257382">
        <ele>1106.19</ele>
        <time>2021-03-27T18:22:56Z</time>
      </trkpt>
      <trkpt lat="42.977527" lon="-5.257078">
        <ele>1101.99</ele>
        <time>2021-03-27T18:23:01Z</time>
      </trkpt>
      <trkpt lat="42.977831" lon="-5.256652">
        <ele>1101.84</ele>
        <time>2021-03-27T18:23:05Z</time>
      </trkpt>
      <trkpt lat="42.978207" lon="-5.25556">
        <ele>1104.16</ele>
        <time>2021-03-27T18:23:10Z</time>
      </trkpt>
      <trkpt lat="42.978367" lon="-5.255263">
        <ele>1102.72</ele>
        <time>2021-03-27T18:23:14Z</time>
      </trkpt>
      <trkpt lat="42.978672" lon="-5.255068">
        <ele>1099.56</ele>
        <time>2021-03-27T18:23:19Z</time>
      </trkpt>
      <trkpt lat="42.97901" lon="-5.255041">
        <ele>1098.87</ele>
        <time>2021-03-27T18:23:23Z</time>
      </trkpt>
      <trkpt lat="42.980408" lon="-5.255589">
        <ele>1103.93</ele>
        <time>2021-03-27T18:23:28Z</time>
      </trkpt>
      <trkpt lat="42.983791" lon="-5.254731">
        <ele>1098.24</ele>
        <time>2021-03-27T18:23:33Z</time>
      </trkpt>
      <trkpt lat="42.985865" lon="-5.254833">
        <ele>1104.18</ele>
        <time>2021-03-27T18:23:37Z</time>
      </trkpt>
      <trkpt lat="42.986344" lon="-5.254969">
        <ele>1106.04</ele>
        <time>2021-03-27T18:23:42Z</time>
      </trkpt>
      <trkpt lat="42.986773" lon="-5.255279">
        <ele>1100.61</ele>
        <time>2021-03-27T18:23:46Z</time>
      </trkpt>
      <trkpt lat="42.987121" lon="-5.255762">
        <ele>1099.55</ele>
        <time>2021-03-27T18:23:51Z</time>
      </trkpt>
      <trkpt lat="42.989025" lon="-5.259457">
        <ele>1102.11</ele>
        <time>2021-03-27T18:23:55Z</time>
      </trkpt>
      <trkpt lat="42.989225" lon="-5.259887">
        <ele>1103.93</ele>
        <time>2021-03-27T18:24:00Z</time>
      </trkpt>
      <trkpt lat="42.989794" lon="-5.26094">
        <ele>1109.76</ele>
        <time>2021-03-27T18:24:04Z</time>
      </trkpt>
      <trkpt lat="42.990071" lon="-5.261368">
        <ele>1108.96</ele>
        <time>2021-03-27T18:24:09Z</time>
      </trkpt>
      <trkpt lat="42.990547" lon="-5.261773">
        <ele>1109.27</ele>
        <time>2021-03-27T18:24:13Z</time>
      </trkpt>
      <trkpt lat="42.991102" lon="-5.262066">
        <ele>1110.22</ele>
        <time>2021-03-27T18:24:18Z</time>
      </trkpt>
      <trkpt lat="42.993211" lon="-5.262344">
        <ele>1113.31</ele>
        <time>2021-03-27T18:24:23Z</time>
      </trkpt>
      <trkpt lat="42.993615" lon="-5.262502">
        <ele>1122.96</ele>
        <time>2021-03-27T18:24:27Z</time>
      </trkpt>
      <trkpt lat="42.994099" lon="-5.262986">
        <ele>1116.66</ele>
        <time>2021-03-27T18:24:32Z</time>
      </trkpt>
      <trkpt lat="42.994417" lon="-5.2632">
        <ele>1114.82</ele>
        <time>2021-03-27T18:24:36Z</time>
      </trkpt>
      <trkpt lat="42.995622" lon="-5.263716">
        <ele>1111.9</ele>
        <time>2021-03-27T18:24:41Z</time>
      </trkpt>
      <trkpt lat="42.997794" lon="-5.265278">
        <ele>1118.12</ele>
        <time>2021-03-27T18:24:45Z</time>
      </trkpt>
      <trkpt lat="42.99823" lon="-5.265476">
        <ele>1121.43</ele>
        <time>2021-03-27T18:24:50Z</time>
      </trkpt>
      <trkpt lat="42.999776" lon="-5.266023">
        <ele>1118.62</ele>
        <time>2021-03-27T18:24:54Z</time>
      </trkpt>
      <trkpt lat="43.002021" lon="-5.266697">
        <ele>1123.63</ele>
        <time>2021-03-27T18:24:59Z</time>
      </trkpt>
      <trkpt lat="43.003307" lon="-5.267113">
        <ele>1126.65</ele>
        <time>2021-03-27T18:25:03Z</time>
      </trkpt>
      <trkpt lat="43.003552" lon="-5.267454">
        <ele>1127.71</ele>
        <time>2021-03-27T18:25:08Z</time>
      </trkpt>
      <trkpt lat="43.00546" lon="-5.271285">
        <ele>1133.13</ele>
        <time>2021-03-27T18:25:13Z</time>
      </trkpt>
      <trkpt lat="43.006657" lon="-5.273647">
        <ele>1135.84</ele>
        <time>2021-03-27T18:25:17Z</time>
      </trkpt>
      <trkpt lat="43.007169" lon="-5.274448">
        <ele>1138.63</ele>
        <time>2021-03-27T18:25:22Z</time>
      </trkpt>
      <trkpt lat="43.007738" lon="-5.274698">
        <ele>1142.77</ele>
        <time>2021-03-27T18:25:26Z</time>
      </trkpt>
      <trkpt lat="43.008299" lon="-5.274773">
        <ele>1142.15</ele>
        <time>2021-03-27T18:25:31Z</time>
      </trkpt>
      <trkpt lat="43.009472" lon="-5.275098">
        <ele>1144.06</ele>
        <time>2021-03-27T18:25:35Z</time>
      </trkpt>
      <trkpt lat="43.0104" lon="-5.27555">
        <ele>1145.47</ele>
        <time>2021-03-27T18:25:40Z</time>
      </trkpt>
      <trkpt lat="43.012834" lon="-5.276564">
        <ele>1156.83</ele>
        <time>2021-03-27T18:25:45Z</time>
      </trkpt>
      <trkpt lat="43.014141" lon="-5.276211">
        <ele>1158.07</ele>
        <time>2021-03-27T18:25:48Z</time>
      </trkpt>
      <trkpt lat="43.017218" lon="-5.275326">
        <ele>1171.12</ele>
        <time>2021-03-27T18:25:52Z</time>
      </trkpt>
      <trkpt lat="43.018432" lon="-5.274564">
        <ele>1184.17</ele>
        <time>2021-03-27T18:25:56Z</time>
      </trkpt>
      <trkpt lat="43.018549" lon="-5.27445">
        <ele>1183.07</ele>
        <time>2021-03-27T18:26:00Z</time>
      </trkpt>
      <trkpt lat="43.018631" lon="-5.27431">
        <ele>1181.4</ele>
        <time>2021-03-27T18:26:04Z</time>
      </trkpt>
      <trkpt lat="43.018979" lon="-5.273077">
        <ele>1169.34</ele>
        <time>2021-03-27T18:26:08Z</time>
      </trkpt>
      <trkpt lat="43.019068" lon="-5.272962">
        <ele>1167.93</ele>
        <time>2021-03-27T18:26:12Z</time>
      </trkpt>
      <trkpt lat="43.019191" lon="-5.272917">
        <ele>1167.78</ele>
        <time>2021-03-27T18:26:16Z</time>
      </trkpt>
      <trkpt lat="43.02139" lon="-5.272813">
        <ele>1166.28</ele>
        <time>2021-03-27T18:26:20Z</time>
      </trkpt>
      <trkpt lat="43.021721" lon="-5.272725">
        <ele>1165.03</ele>
        <time>2021-03-27T18:26:24Z</time>
      </trkpt>
      <trkpt lat="43.022784" lon="-5.272333">
        <ele>1157.17</ele>
        <time>2021-03-27T18:26:28Z</time>
      </trkpt>
      <trkpt lat="43.023686" lon="-5.271039">
        <ele>1160.9</ele>
        <time>2021-03-27T18:26:32Z</time>
      </trkpt>
      <trkpt lat="43.026493" lon="-5.269619">
        <ele>1168.53</ele>
        <time>2021-03-27T18:26:36Z</time>
      </trkpt>
      <trkpt lat="43.030623" lon="-5.268282">
        <ele>1173.05</ele>
        <time>2021-03-27T18:26:40Z</time>
      </trkpt>
      <trkpt lat="43.032058" lon="-5.269122">
        <ele>1168.73</ele>
        <time>2021-03-27T18:26:44Z</time>
      </trkpt>
      <trkpt lat="43.032708" lon="-5.269284">
        <ele>1168.11</ele>
        <time>2021-03-27T18:26:48Z</time>
      </trkpt>
      <trkpt lat="43.035808" lon="-5.271682">
        <ele>1173.99</ele>
        <time>2021-03-27T18:26:52Z</time>
      </trkpt>
      <trkpt lat="43.036234" lon="-5.272041">
        <ele>1175.38</ele>
        <time>2021-03-27T18:26:56Z</time>
      </trkpt>
      <trkpt lat="43.039732" lon="-5.274717">
        <ele>1183.2</ele>
        <time>2021-03-27T18:27:00Z</time>
      </trkpt>
      <trkpt lat="43.040849" lon="-5.27526">
        <ele>1190.41</ele>
        <time>2021-03-27T18:27:04Z</time>
      </trkpt>
      <trkpt lat="43.043322" lon="-5.277961">
        <ele>1192.62</ele>
        <time>2021-03-27T18:27:08Z</time>
      </trkpt>
      <trkpt lat="43.043653" lon="-5.278182">
        <ele>1196.71</ele>
        <time>2021-03-27T18:27:12Z</time>
      </trkpt>
      <trkpt lat="43.052018" lon="-5.278493">
        <ele>1223.43</ele>
        <time>2021-03-27T18:27:16Z</time>
      </trkpt>
      <trkpt lat="43.052174" lon="-5.278679">
        <ele>1225.47</ele>
        <time>2021-03-27T18:27:20Z</time>
      </trkpt>
      <trkpt lat="43.05231" lon="-5.279078">
        <ele>1225.84</ele>
        <time>2021-03-27T18:27:24Z</time>
      </trkpt>
      <trkpt lat="43.052567" lon="-5.279437">
        <ele>1226.83</ele>
        <time>2021-03-27T18:27:28Z</time>
      </trkpt>
      <trkpt lat="43.052987" lon="-5.279525">
        <ele>1231.38</ele>
        <time>2021-03-27T18:27:32Z</time>
      </trkpt>
      <trkpt lat="43.053366" lon="-5.279451">
        <ele>1235.61</ele>
        <time>2021-03-27T18:27:36Z</time>
      </trkpt>
      <trkpt lat="43.053976" lon="-5.278841">
        <ele>1246.9</ele>
        <time>2021-03-27T18:27:40Z</time>
      </trkpt>
      <trkpt lat="43.055195" lon="-5.277941">
        <ele>1255.87</ele>
        <time>2021-03-27T18:27:44Z</time>
      </trkpt>
      <trkpt lat="43.056001" lon="-5.27771">
        <ele>1256.7</ele>
        <time>2021-03-27T18:27:48Z</time>
      </trkpt>
      <trkpt lat="43.05663" lon="-5.277845">
        <ele>1260.09</ele>
        <time>2021-03-27T18:27:52Z</time>
      </trkpt>
      <trkpt lat="43.05703" lon="-5.277751">
        <ele>1262.39</ele>
        <time>2021-03-27T18:27:56Z</time>
      </trkpt>
      <trkpt lat="43.057219" lon="-5.277467">
        <ele>1266.72</ele>
        <time>2021-03-27T18:28:00Z</time>
      </trkpt>
      <trkpt lat="43.057308" lon="-5.277372">
        <ele>1267.72</ele>
        <time>2021-03-27T18:28:04Z</time>
      </trkpt>
      <trkpt lat="43.057401" lon="-5.277372">
        <ele>1266.59</ele>
        <time>2021-03-27T18:28:08Z</time>
      </trkpt>
      <trkpt lat="43.057532" lon="-5.277568">
        <ele>1264.33</ele>
        <time>2021-03-27T18:28:12Z</time>
      </trkpt>
      <trkpt lat="43.057552" lon="-5.277971">
        <ele>1266.96</ele>
        <time>2021-03-27T18:28:16Z</time>
      </trkpt>
      <trkpt lat="43.057527" lon="-5.278325">
        <ele>1273.53</ele>
        <time>2021-03-27T18:28:20Z</time>
      </trkpt>
      <trkpt lat="43.057566" lon="-5.278652">
        <ele>1279.71</ele>
        <time>2021-03-27T18:28:24Z</time>
      </trkpt>
      <trkpt lat="43.058283" lon="-5.279085">
        <ele>1276.83</ele>
        <time>2021-03-27T18:28:28Z</time>
      </trkpt>
      <trkpt lat="43.058433" lon="-5.279212">
        <ele>1277.95</ele>
        <time>2021-03-27T18:28:32Z</time>
      </trkpt>
      <trkpt lat="43.058703" lon="-5.27962">
        <ele>1282.66</ele>
        <time>2021-03-27T18:28:36Z</time>
      </trkpt>
      <trkpt lat="43.059561" lon="-5.279955">
        <ele>1284.75</ele>
        <time>2021-03-27T18:28:40Z</time>
      </trkpt>
      <trkpt lat="43.059826" lon="-5.28016">
        <ele>1287.12</ele>
        <time>2021-03-27T18:28:44Z</time>
      </trkpt>
      <trkpt lat="43.060089" lon="-5.280427">
        <ele>1294.88</ele>
        <time>2021-03-27T18:28:48Z</time>
      </trkpt>
      <trkpt lat="43.060264" lon="-5.28055">
        <ele>1296.96</ele>
        <time>2021-03-27T18:28:51Z</time>
      </trkpt>
      <trkpt lat="43.060478" lon="-5.280652">
        <ele>1297.52</ele>
        <time>2021-03-27T18:28:55Z</time>
      </trkpt>
      <trkpt lat="43.060675" lon="-5.280643">
        <ele>1296.68</ele>
        <time>2021-03-27T18:28:59Z</time>
      </trkpt>
      <trkpt lat="43.060899" lon="-5.280565">
        <ele>1295.79</ele>
        <time>2021-03-27T18:29:03Z</time>
      </trkpt>
      <trkpt lat="43.061308" lon="-5.280313">
        <ele>1293.59</ele>
        <time>2021-03-27T18:29:07Z</time>
      </trkpt>
      <trkpt lat="43.061453" lon="-5.280304">
        <ele>1293.75</ele>
        <time>2021-03-27T18:29:11Z</time>
      </trkpt>
      <trkpt lat="43.061894" lon="-5.28065">
        <ele>1298.4</ele>
        <time>2021-03-27T18:29:15Z</time>
      </trkpt>
      <trkpt lat="43.062001" lon="-5.280613">
        <ele>1298.33</ele>
        <time>2021-03-27T18:29:19Z</time>
      </trkpt>
      <trkpt lat="43.062142" lon="-5.28041">
        <ele>1300.21</ele>
        <time>2021-03-27T18:29:23Z</time>
      </trkpt>
      <trkpt lat="43.062181" lon="-5.280274">
        <ele>1302.35</ele>
        <time>2021-03-27T18:29:27Z</time>
      </trkpt>
      <trkpt lat="43.06146" lon="-5.278622">
        <ele>1307.34</ele>
        <time>2021-03-27T18:29:31Z</time>
      </trkpt>
      <trkpt lat="43.060072" lon="-5.278537">
        <ele>1311.07</ele>
        <time>2021-03-27T18:29:35Z</time>
      </trkpt>
      <trkpt lat="43.059916" lon="-5.278232">
        <ele>1313.36</ele>
        <time>2021-03-27T18:29:39Z</time>
      </trkpt>
      <trkpt lat="43.059983" lon="-5.277654">
        <ele>1316.11</ele>
        <time>2021-03-27T18:29:43Z</time>
      </trkpt>
      <trkpt lat="43.059963" lon="-5.277358">
        <ele>1317.81</ele>
        <time>2021-03-27T18:29:47Z</time>
      </trkpt>
      <trkpt lat="43.059279" lon="-5.276085">
        <ele>1320.28</ele>
        <time>2021-03-27T18:29:51Z</time>
      </trkpt>
      <trkpt lat="43.059277" lon="-5.275645">
        <ele>1322.5</ele>
        <time>2021-03-27T18:29:55Z</time>
      </trkpt>
      <trkpt lat="43.059936" lon="-5.2745">
        <ele>1337.11</ele>
        <time>2021-03-27T18:29:59Z</time>
      </trkpt>
      <trkpt lat="43.060194" lon="-5.274493">
        <ele>1339.0</ele>
        <time>2021-03-27T18:30:03Z</time>
      </trkpt>
      <trkpt lat="43.060627" lon="-5.274832">
        <ele>1347.57</ele>
        <time>2021-03-27T18:30:07Z</time>
      </trkpt>
      <trkpt lat="43.061243" lon="-5.274696">
        <ele>1354.05</ele>
        <time>2021-03-27T18:30:11Z</time>
      </trkpt>
      <trkpt lat="43.061406" lon="-5.274134">
        <ele>1353.45</ele>
        <time>2021-03-27T18:30:15Z</time>
      </trkpt>
      <trkpt lat="43.061603" lon="-5.273792">
        <ele>1358.62</ele>
        <time>2021-03-27T18:30:19Z</time>
      </trkpt>
      <trkpt lat="43.06186" lon="-5.27301">
        <ele>1362.61</ele>
        <time>2021-03-27T18:30:23Z</time>
      </trkpt>
      <trkpt lat="43.06211" lon="-5.271459">
        <ele>1367.78</ele>
        <time>2021-03-27T18:30:27Z</time>
      </trkpt>
      <trkpt lat="43.062421" lon="-5.270313">
        <ele>1374.53</ele>
        <time>2021-03-27T18:30:31Z</time>
      </trkpt>
      <trkpt lat="43.062666" lon="-5.269799">
        <ele>1376.69</ele>
        <time>2021-03-27T18:30:35Z</time>
      </trkpt>
      <trkpt lat="43.063038" lon="-5.269481">
        <ele>1381.24</ele>
        <time>2021-03-27T18:30:39Z</time>
      </trkpt>
      <trkpt lat="43.063526" lon="-5.269474">
        <ele>1384.11</ele>
        <time>2021-03-27T18:30:43Z</time>
      </trkpt>
      <trkpt lat="43.06442" lon="-5.269914">
        <ele>1391.92</ele>
        <time>2021-03-27T18:30:47Z</time>
      </trkpt>
      <trkpt lat="43.064854" lon="-5.269812">
        <ele>1391.08</ele>
        <time>2021-03-27T18:30:51Z</time>
      </trkpt>
      <trkpt lat="43.066438" lon="-5.268837">
        <ele>1400.14</ele>
        <time>2021-03-27T18:30:55Z</time>
      </trkpt>
      <trkpt lat="43.067232" lon="-5.268506">
        <ele>1403.78</ele>
        <time>2021-03-27T18:30:59Z</time>
      </trkpt>
      <trkpt lat="43.067908" lon="-5.267151">
        <ele>1412.05</ele>
        <time>2021-03-27T18:31:03Z</time>
      </trkpt>
      <trkpt lat="43.068342" lon="-5.265911">
        <ele>1412.41</ele>
        <time>2021-03-27T18:31:07Z</time>
      </trkpt>
      <trkpt lat="43.06862" lon="-5.265684">
        <ele>1417.11</ele>
        <time>2021-03-27T18:31:11Z</time>
      </trkpt>
      <trkpt lat="43.069717" lon="-5.26583">
        <ele>1429.78</ele>
        <time>2021-03-27T18:31:15Z</time>
      </trkpt>
      <trkpt lat="43.071688" lon="-5.265647">
        <ele>1438.71</ele>
        <time>2021-03-27T18:31:19Z</time>
      </trkpt>
      <trkpt lat="43.07229" lon="-5.266236">
        <ele>1446.09</ele>
        <time>2021-03-27T18:31:23Z</time>
      </trkpt>
      <trkpt lat="43.072494" lon="-5.266602">
        <ele>1445.35</ele>
        <time>2021-03-27T18:31:27Z</time>
      </trkpt>
      <trkpt lat="43.072704" lon="-5.266731">
        <ele>1445.52</ele>
        <time>2021-03-27T18:31:31Z</time>
      </trkpt>
      <trkpt lat="43.072982" lon="-5.266566">
        <ele>1448.6</ele>
        <time>2021-03-27T18:31:35Z</time>
      </trkpt>
      <trkpt lat="43.073212" lon="-5.2665">
        <ele>1450.47</ele>
        <time>2021-03-27T18:31:39Z</time>
      </trkpt>
      <trkpt lat="43.073428" lon="-5.266616">
        <ele>1449.69</ele>
        <time>2021-03-27T18:31:43Z</time>
      </trkpt>
      <trkpt lat="43.074004" lon="-5.268031">
        <ele>1461.14</ele>
        <time>2021-03-27T18:31:47Z</time>
      </trkpt>
      <trkpt lat="43.074292" lon="-5.268174">
        <ele>1463.71</ele>
        <time>2021-03-27T18:31:50Z</time>
      </trkpt>
      <trkpt lat="43.075142" lon="-5.267862">
        <ele>1463.3</ele>
        <time>2021-03-27T18:31:54Z</time>
      </trkpt>
      <trkpt lat="43.07597" lon="-5.26819">
        <ele>1482.13</ele>
        <time>2021-03-27T18:31:58Z</time>
      </trkpt>
      <trkpt lat="43.076178" lon="-5.267984">
        <ele>1479.01</ele>
        <time>2021-03-27T18:32:02Z</time>
      </trkpt>
      <trkpt lat="43.076239" lon="-5.267336">
        <ele>1477.85</ele>
        <time>2021-03-27T18:32:06Z</time>
      </trkpt>
      <trkpt lat="43.075176" lon="-5.266087">
        <ele>1484.46</ele>
        <time>2021-03-27T18:32:10Z</time>
      </trkpt>
      <trkpt lat="43.074715" lon="-5.265004">
        <ele>1495.66</ele>
        <time>2021-03-27T18:32:14Z</time>
      </trkpt>
      <trkpt lat="43.074094" lon="-5.26418">
        <ele>1491.55</ele>
        <time>2021-03-27T18:32:18Z</time>
      </trkpt>
      <trkpt lat="43.073977" lon="-5.263697">
        <ele>1498.79</ele>
        <time>2021-03-27T18:32:22Z</time>
      </trkpt>
      <trkpt lat="43.074058" lon="-5.263121">
        <ele>1503.95</ele>
        <time>2021-03-27T18:32:26Z</time>
      </trkpt>
      <trkpt lat="43.074356" lon="-5.262525">
        <ele>1507.72</ele>
        <time>2021-03-27T18:32:30Z</time>
      </trkpt>
      <trkpt lat="43.074316" lon="-5.261522">
        <ele>1512.93</ele>
        <time>2021-03-27T18:32:34Z</time>
      </trkpt>
      <trkpt lat="43.074546" lon="-5.259843">
        <ele>1519.23</ele>
        <time>2021-03-27T18:32:38Z</time>
      </trkpt>
      <trkpt lat="43.07483" lon="-5.256652">
        <ele>1535.82</ele>
        <time>2021-03-27T18:32:42Z</time>
      </trkpt>
      <trkpt lat="43.07458" lon="-5.255779">
        <ele>1539.71</ele>
        <time>2021-03-27T18:32:46Z</time>
      </trkpt>
      <trkpt lat="43.074864" lon="-5.254573">
        <ele>1550.66</ele>
        <time>2021-03-27T18:32:50Z</time>
      </trkpt>
      <trkpt lat="43.074824" lon="-5.25353">
        <ele>1555.09</ele>
        <time>2021-03-27T18:32:54Z</time>
      </trkpt>
      <trkpt lat="43.074993" lon="-5.252568">
        <ele>1562.4</ele>
        <time>2021-03-27T18:32:58Z</time>
      </trkpt>
      <trkpt lat="43.074742" lon="-5.250526">
        <ele>1569.09</ele>
        <time>2021-03-27T18:33:02Z</time>
      </trkpt>
      <trkpt lat="43.075115" lon="-5.249371">
        <ele>1586.13</ele>
        <time>2021-03-27T18:33:06Z</time>
      </trkpt>
      <trkpt lat="43.07537" lon="-5.248044">
        <ele>1584.65</ele>
        <time>2021-03-27T18:33:10Z</time>
      </trkpt>
      <trkpt lat="43.07566" lon="-5.247529">
        <ele>1588.7</ele>
        <time>2021-03-27T18:33:14Z</time>
      </trkpt>
      <trkpt lat="43.075793" lon="-5.247259">
        <ele>1591.16</ele>
        <time>2021-03-27T18:33:18Z</time>
      </trkpt>
      <trkpt lat="43.075839" lon="-5.246915">
        <ele>1594.09</ele>
        <time>2021-03-27T18:33:22Z</time>
      </trkpt>
      <trkpt lat="43.075783" lon="-5.246622">
        <ele>1593.8</ele>
        <time>2021-03-27T18:33:26Z</time>
      </trkpt>
      <trkpt lat="43.075665" lon="-5.246416">
        <ele>1594.53</ele>
        <time>2021-03-27T18:33:30Z</time>
      </trkpt>
      <trkpt lat="43.074712" lon="-5.245957">
        <ele>1607.28</ele>
        <time>2021-03-27T18:33:34Z</time>
      </trkpt>
      <trkpt lat="43.074429" lon="-5.245767">
        <ele>1610.08</ele>
        <time>2021-03-27T18:33:38Z</time>
      </trkpt>
      <trkpt lat="43.074293" lon="-5.245473">
        <ele>1613.57</ele>
        <time>2021-03-27T18:33:42Z</time>
      </trkpt>
      <trkpt lat="43.074318" lon="-5.245202">
        <ele>1617.04</ele>
        <time>2021-03-27T18:33:46Z</time>
      </trkpt>
      <trkpt lat="43.075566" lon="-5.243319">
        <ele>1624.95</ele>
        <time>2021-03-27T18:33:50Z</time>
      </trkpt>
      <trkpt lat="43.076267" lon="-5.242377">
        <ele>1620.23</ele>
        <time>2021-03-27T18:33:54Z</time>
      </trkpt>
      <trkpt lat="43.076651" lon="-5.242054">
        <ele>1616.83</ele>
        <time>2021-03-27T18:33:58Z</time>
      </trkpt>
      <trkpt lat="43.076766" lon="-5.242017">
        <ele>1615.78</ele>
        <time>2021-03-27T18:34:02Z</time>
      </trkpt>
      <trkpt lat="43.077742" lon="-5.241934">
        <ele>1616.19</ele>
        <time>2021-03-27T18:34:06Z</time>
      </trkpt>
      <trkpt lat="43.077825" lon="-5.241883">
        <ele>1616.44</ele>
        <time>2021-03-27T18:34:10Z</time>
      </trkpt>
      <trkpt lat="43.07858" lon="-5.241175">
        <ele>1607.67</ele>
        <time>2021-03-27T18:34:14Z</time>
      </trkpt>
      <trkpt lat="43.078736" lon="-5.241">
        <ele>1607.64</ele>
        <time>2021-03-27T18:34:18Z</time>
      </trkpt>
      <trkpt lat="43.078832" lon="-5.240843">
        <ele>1608.09</ele>
        <time>2021-03-27T18:34:22Z</time>
      </trkpt>
      <trkpt lat="43.079083" lon="-5.240273">
        <ele>1610.24</ele>
        <time>2021-03-27T18:34:26Z</time>
      </trkpt>
      <trkpt lat="43.0793" lon="-5.238988">
        <ele>1601.49</ele>
        <time>2021-03-27T18:34:30Z</time>
      </trkpt>
      <trkpt lat="43.079296" lon="-5.238857">
        <ele>1600.53</ele>
        <time>2021-03-27T18:34:34Z</time>
      </trkpt>
      <trkpt lat="43.079213" lon="-5.238343">
        <ele>1595.51</ele>
        <time>2021-03-27T18:34:38Z</time>
      </trkpt>
      <trkpt lat="43.079176" lon="-5.237957">
        <ele>1594.43</ele>
        <time>2021-03-27T18:34:42Z</time>
      </trkpt>
      <trkpt lat="43.079146" lon="-5.237245">
        <ele>1590.49</ele>
        <time>2021-03-27T18:34:46Z</time>
      </trkpt>
      <trkpt lat="43.079139" lon="-5.236752">
        <ele>1588.74</ele>
        <time>2021-03-27T18:34:50Z</time>
      </trkpt>
      <trkpt lat="43.079231" lon="-5.234603">
        <ele>1582.65</ele>
        <time>2021-03-27T18:34:53Z</time>
      </trkpt>
      <trkpt lat="43.079227" lon="-5.234412">
        <ele>1581.78</ele>
        <time>2021-03-27T18:34:57Z</time>
      </trkpt>
      <trkpt lat="43.079194" lon="-5.234226">
        <ele>1579.94</ele>
        <time>2021-03-27T18:35:01Z</time>
      </trkpt>
      <trkpt lat="43.078911" lon="-5.233117">
        <ele>1578.56</ele>
        <time>2021-03-27T18:35:05Z</time>
      </trkpt>
      <trkpt lat="43.078888" lon="-5.232756">
        <ele>1577.81</ele>
        <time>2021-03-27T18:35:09Z</time>
      </trkpt>
      <trkpt lat="43.078904" lon="-5.232299">
        <ele>1574.92</ele>
        <time>2021-03-27T18:35:13Z</time>
      </trkpt>
      <trkpt lat="43.079109" lon="-5.230916">
        <ele>1570.93</ele>
        <time>2021-03-27T18:35:17Z</time>
      </trkpt>
      <trkpt lat="43.079123" lon="-5.230725">
        <ele>1570.37</ele>
        <time>2021-03-27T18:35:21Z</time>
      </trkpt>
      <trkpt lat="43.079118" lon="-5.230596">
        <ele>1569.75</ele>
        <time>2021-03-27T18:35:25Z</time>
      </trkpt>
      <trkpt lat="43.079087" lon="-5.230386">
        <ele>1568.09</ele>
        <time>2021-03-27T18:35:29Z</time>
      </trkpt>
      <trkpt lat="43.078822" lon="-5.229205">
        <ele>1561.22</ele>
        <time>2021-03-27T18:35:33Z</time>
      </trkpt>
      <trkpt lat="43.078449" lon="-5.227928">
        <ele>1550.86</ele>
        <time>2021-03-27T18:35:37Z</time>
      </trkpt>
      <trkpt lat="43.078342" lon="-5.227493">
        <ele>1548.41</ele>
        <time>2021-03-27T18:35:41Z</time>
      </trkpt>
      <trkpt lat="43.078286" lon="-5.226897">
        <ele>1548.24</ele>
        <time>2021-03-27T18:35:45Z</time>
      </trkpt>
      <trkpt lat="43.078267" lon="-5.226286">
        <ele>1539.48</ele>
        <time>2021-03-27T18:35:49Z</time>
      </trkpt>
      <trkpt lat="43.078286" lon="-5.226109">
        <ele>1539.25</ele>
        <time>2021-03-27T18:35:53Z</time>
      </trkpt>
      <trkpt lat="43.078384" lon="-5.225758">
        <ele>1540.72</ele>
        <time>2021-03-27T18:35:57Z</time>
      </trkpt>
      <trkpt lat="43.078401" lon="-5.225577">
        <ele>1539.88</ele>
        <time>2021-03-27T18:36:01Z</time>
      </trkpt>
      <trkpt lat="43.07839" lon="-5.225266">
        <ele>1536.95</ele>
        <time>2021-03-27T18:36:05Z</time>
      </trkpt>
      <trkpt lat="43.078258" lon="-5.224187">
        <ele>1531.26</ele>
        <time>2021-03-27T18:36:09Z</time>
      </trkpt>
      <trkpt lat="43.078236" lon="-5.223868">
        <ele>1530.01</ele>
        <time>2021-03-27T18:36:13Z</time>
      </trkpt>
      <trkpt lat="43.078236" lon="-5.223697">
        <ele>1529.01</ele>
        <time>2021-03-27T18:36:17Z</time>
      </trkpt>
      <trkpt lat="43.078253" lon="-5.223544">
        <ele>1528.53</ele>
        <time>2021-03-27T18:36:21Z</time>
      </trkpt>
      <trkpt lat="43.078283" lon="-5.223431">
        <ele>1528.48</ele>
        <time>2021-03-27T18:36:25Z</time>
      </trkpt>
      <trkpt lat="43.078337" lon="-5.223323">
        <ele>1528.88</ele>
        <time>2021-03-27T18:36:29Z</time>
      </trkpt>
      <trkpt lat="43.078405" lon="-5.223233">
        <ele>1528.17</ele>
        <time>2021-03-27T18:36:33Z</time>
      </trkpt>
      <trkpt lat="43.078468" lon="-5.223171">
        <ele>1527.92</ele>
        <time>2021-03-27T18:36:37Z</time>
      </trkpt>
      <trkpt lat="43.078557" lon="-5.223127">
        <ele>1528.24</ele>
        <time>2021-03-27T18:36:41Z</time>
      </trkpt>
      <trkpt lat="43.078668" lon="-5.223101">
        <ele>1528.35</ele>
        <time>2021-03-27T18:36:45Z</time>
      </trkpt>
      <trkpt lat="43.078804" lon="-5.223107">
        <ele>1528.13</ele>
        <time>2021-03-27T18:36:49Z</time>
      </trkpt>
      <trkpt lat="43.079201" lon="-5.223167">
        <ele>1527.53</ele>
        <time>2021-03-27T18:36:53Z</time>
      </trkpt>
      <trkpt lat="43.079276" lon="-5.223153">
        <ele>1526.8</ele>
        <time>2021-03-27T18:36:57Z</time>
      </trkpt>
      <trkpt lat="43.07943" lon="-5.223078">
        <ele>1524.46</ele>
        <time>2021-03-27T18:37:01Z</time>
      </trkpt>
      <trkpt lat="43.081251" lon="-5.221898">
        <ele>1511.76</ele>
        <time>2021-03-27T18:37:05Z</time>
      </trkpt>
      <trkpt lat="43.081826" lon="-5.221494">
        <ele>1507.73</ele>
        <time>2021-03-27T18:37:09Z</time>
      </trkpt>
      <trkpt lat="43.082372" lon="-5.221158">
        <ele>1502.49</ele>
        <time>2021-03-27T18:37:13Z</time>
      </trkpt>
      <trkpt lat="43.082452" lon="-5.221019">
        <ele>1501.55</ele>
        <time>2021-03-27T18:37:17Z</time>
      </trkpt>
      <trkpt lat="43.082473" lon="-5.220855">
        <ele>1500.9</ele>
        <time>2021-03-27T18:37:21Z</time>
      </trkpt>
      <trkpt lat="43.082464" lon="-5.220776">
        <ele>1500.72</ele>
        <time>2021-03-27T18:37:25Z</time>
      </trkpt>
      <trkpt lat="43.082416" lon="-5.220632">
        <ele>1500.18</ele>
        <time>2021-03-27T18:37:29Z</time>
      </trkpt>
      <trkpt lat="43.082303" lon="-5.220398">
        <ele>1499.03</ele>
        <time>2021-03-27T18:37:33Z</time>
      </trkpt>
      <trkpt lat="43.082231" lon="-5.220154">
        <ele>1497.71</ele>
        <time>2021-03-27T18:37:37Z</time>
      </trkpt>
      <trkpt lat="43.082194" lon="-5.219405">
        <ele>1496.49</ele>
        <time>2021-03-27T18:37:41Z</time>
      </trkpt>
      <trkpt lat="43.082195" lon="-5.219235">
        <ele>1496.44</ele>
        <time>2021-03-27T18:37:45Z</time>
      </trkpt>
      <trkpt lat="43.082215" lon="-5.21909">
        <ele>1496.3</ele>
        <time>2021-03-27T18:37:49Z</time>
      </trkpt>
      <trkpt lat="43.082256" lon="-5.218969">
        <ele>1495.82</ele>
        <time>2021-03-27T18:37:52Z</time>
      </trkpt>
      <trkpt lat="43.082342" lon="-5.218843">
        <ele>1495.53</ele>
        <time>2021-03-27T18:37:56Z</time>
      </trkpt>
      <trkpt lat="43.082481" lon="-5.218772">
        <ele>1496.02</ele>
        <time>2021-03-27T18:38:00Z</time>
      </trkpt>
      <trkpt lat="43.082596" lon="-5.218782">
        <ele>1495.83</ele>
        <time>2021-03-27T18:38:04Z</time>
      </trkpt>
      <trkpt lat="43.082703" lon="-5.218818">
        <ele>1495.93</ele>
        <time>2021-03-27T18:38:08Z</time>
      </trkpt>
      <trkpt lat="43.083037" lon="-5.218997">
        <ele>1498.32</ele>
        <time>2021-03-27T18:38:12Z</time>
      </trkpt>
      <trkpt lat="43.083124" lon="-5.219014">
        <ele>1498.35</ele>
        <time>2021-03-27T18:38:16Z</time>
      </trkpt>
      <trkpt lat="43.083237" lon="-5.218998">
        <ele>1497.45</ele>
        <time>2021-03-27T18:38:20Z</time>
      </trkpt>
      <trkpt lat="43.084293" lon="-5.218561">
        <ele>1494.09</ele>
        <time>2021-03-27T18:38:24Z</time>
      </trkpt>
      <trkpt lat="43.084408" lon="-5.218471">
        <ele>1493.86</ele>
        <time>2021-03-27T18:38:28Z</time>
      </trkpt>
      <trkpt lat="43.084473" lon="-5.218385">
        <ele>1493.25</ele>
        <time>2021-03-27T18:38:32Z</time>
      </trkpt>
      <trkpt lat="43.084522" lon="-5.218257">
        <ele>1492.52</ele>
        <time>2021-03-27T18:38:36Z</time>
      </trkpt>
      <trkpt lat="43.084558" lon="-5.218049">
        <ele>1492.01</ele>
        <time>2021-03-27T18:38:40Z</time>
      </trkpt>
      <trkpt lat="43.084523" lon="-5.217929">
        <ele>1492.08</ele>
        <time>2021-03-27T18:38:41Z</time>
      </trkpt>
      <trkpt lat="43.084523" lon="-5.217929">
        <ele>1492.08</ele>
        <time>2021-03-27T18:38:41Z</time>
      </trkpt>
      <trkpt lat="43.084456" lon="-5.217782">
        <ele>1492.04</ele>
        <time>2021-03-27T18:38:43Z</time>
      </trkpt>
      <trkpt lat="43.084138" lon="-5.21753">
        <ele>1491.98</ele>
        <time>2021-03-27T18:38:47Z</time>
      </trkpt>
      <trkpt lat="43.083973" lon="-5.217359">
        <ele>1487.23</ele>
        <time>2021-03-27T18:38:51Z</time>
      </trkpt>
      <trkpt lat="43.083921" lon="-5.217184">
        <ele>1485.15</ele>
        <time>2021-03-27T18:38:55Z</time>
      </trkpt>
      <trkpt lat="43.083914" lon="-5.217018">
        <ele>1484.9</ele>
        <time>2021-03-27T18:38:59Z</time>
      </trkpt>
      <trkpt lat="43.083938" lon="-5.216855">
        <ele>1485.73</ele>
        <time>2021-03-27T18:39:03Z</time>
      </trkpt>
      <trkpt lat="43.084158" lon="-5.216352">
        <ele>1489.2</ele>
        <time>2021-03-27T18:39:06Z</time>
      </trkpt>
      <trkpt lat="43.084224" lon="-5.216133">
        <ele>1488.96</ele>
        <time>2021-03-27T18:39:10Z</time>
      </trkpt>
      <trkpt lat="43.084246" lon="-5.215914">
        <ele>1487.8</ele>
        <time>2021-03-27T18:39:14Z</time>
      </trkpt>
      <trkpt lat="43.08422" lon="-5.215743">
        <ele>1485.46</ele>
        <time>2021-03-27T18:39:18Z</time>
      </trkpt>
      <trkpt lat="43.084159" lon="-5.215534">
        <ele>1482.82</ele>
        <time>2021-03-27T18:39:22Z</time>
      </trkpt>
      <trkpt lat="43.084058" lon="-5.215347">
        <ele>1481.13</ele>
        <time>2021-03-27T18:39:26Z</time>
      </trkpt>
      <trkpt lat="43.083859" lon="-5.215202">
        <ele>1478.24</ele>
        <time>2021-03-27T18:39:30Z</time>
      </trkpt>
      <trkpt lat="43.082623" lon="-5.215034">
        <ele>1475.04</ele>
        <time>2021-03-27T18:39:34Z</time>
      </trkpt>
      <trkpt lat="43.082232" lon="-5.215098">
        <ele>1468.37</ele>
        <time>2021-03-27T18:39:37Z</time>
      </trkpt>
      <trkpt lat="43.08193" lon="-5.2151">
        <ele>1467.9</ele>
        <time>2021-03-27T18:39:41Z</time>
      </trkpt>
      <trkpt lat="43.081681" lon="-5.215027">
        <ele>1465.59</ele>
        <time>2021-03-27T18:39:45Z</time>
      </trkpt>
      <trkpt lat="43.081059" lon="-5.214602">
        <ele>1461.78</ele>
        <time>2021-03-27T18:39:49Z</time>
      </trkpt>
      <trkpt lat="43.080192" lon="-5.214074">
        <ele>1456.08</ele>
        <time>2021-03-27T18:39:53Z</time>
      </trkpt>
      <trkpt lat="43.079912" lon="-5.213962">
        <ele>1455.7</ele>
        <time>2021-03-27T18:39:57Z</time>
      </trkpt>
      <trkpt lat="43.079595" lon="-5.213931">
        <ele>1453.57</ele>
        <time>2021-03-27T18:40:01Z</time>
      </trkpt>
      <trkpt lat="43.079053" lon="-5.214013">
        <ele>1447.92</ele>
        <time>2021-03-27T18:40:05Z</time>
      </trkpt>
      <trkpt lat="43.077024" lon="-5.214488">
        <ele>1431.26</ele>
        <time>2021-03-27T18:40:09Z</time>
      </trkpt>
      <trkpt lat="43.076604" lon="-5.214487">
        <ele>1428.21</ele>
        <time>2021-03-27T18:40:12Z</time>
      </trkpt>
      <trkpt lat="43.076307" lon="-5.214362">
        <ele>1425.54</ele>
        <time>2021-03-27T18:40:16Z</time>
      </trkpt>
      <trkpt lat="43.075591" lon="-5.213617">
        <ele>1420.54</ele>
        <time>2021-03-27T18:40:20Z</time>
      </trkpt>
      <trkpt lat="43.073954" lon="-5.211497">
        <ele>1401.71</ele>
        <time>2021-03-27T18:40:24Z</time>
      </trkpt>
      <trkpt lat="43.073422" lon="-5.210786">
        <ele>1391.52</ele>
        <time>2021-03-27T18:40:28Z</time>
      </trkpt>
      <trkpt lat="43.073231" lon="-5.210452">
        <ele>1391.78</ele>
        <time>2021-03-27T18:40:32Z</time>
      </trkpt>
      <trkpt lat="43.073047" lon="-5.21006">
        <ele>1390.27</ele>
        <time>2021-03-27T18:40:36Z</time>
      </trkpt>
      <trkpt lat="43.072763" lon="-5.20938">
        <ele>1379.03</ele>
        <time>2021-03-27T18:40:40Z</time>
      </trkpt>
      <trkpt lat="43.072682" lon="-5.208962">
        <ele>1378.97</ele>
        <time>2021-03-27T18:40:43Z</time>
      </trkpt>
      <trkpt lat="43.072659" lon="-5.208557">
        <ele>1378.64</ele>
        <time>2021-03-27T18:40:47Z</time>
      </trkpt>
      <trkpt lat="43.072666" lon="-5.207719">
        <ele>1378.48</ele>
        <time>2021-03-27T18:40:51Z</time>
      </trkpt>
      <trkpt lat="43.072852" lon="-5.206915">
        <ele>1373.87</ele>
        <time>2021-03-27T18:40:55Z</time>
      </trkpt>
      <trkpt lat="43.072945" lon="-5.206332">
        <ele>1369.21</ele>
        <time>2021-03-27T18:40:59Z</time>
      </trkpt>
      <trkpt lat="43.072934" lon="-5.206042">
        <ele>1369.33</ele>
        <time>2021-03-27T18:41:03Z</time>
      </trkpt>
      <trkpt lat="43.072789" lon="-5.20566">
        <ele>1367.0</ele>
        <time>2021-03-27T18:41:07Z</time>
      </trkpt>
      <trkpt lat="43.072226" lon="-5.204387">
        <ele>1359.09</ele>
        <time>2021-03-27T18:41:11Z</time>
      </trkpt>
      <trkpt lat="43.071685" lon="-5.202539">
        <ele>1348.31</ele>
        <time>2021-03-27T18:41:14Z</time>
      </trkpt>
      <trkpt lat="43.071244" lon="-5.201725">
        <ele>1343.25</ele>
        <time>2021-03-27T18:41:18Z</time>
      </trkpt>
      <trkpt lat="43.070574" lon="-5.199873">
        <ele>1330.74</ele>
        <time>2021-03-27T18:41:22Z</time>
      </trkpt>
      <trkpt lat="43.070554" lon="-5.199694">
        <ele>1329.96</ele>
        <time>2021-03-27T18:41:26Z</time>
      </trkpt>
      <trkpt lat="43.07057" lon="-5.19948">
        <ele>1330.2</ele>
        <time>2021-03-27T18:41:30Z</time>
      </trkpt>
      <trkpt lat="43.070768" lon="-5.19868">
        <ele>1327.8</ele>
        <time>2021-03-27T18:41:34Z</time>
      </trkpt>
      <trkpt lat="43.070947" lon="-5.1983">
        <ele>1325.87</ele>
        <time>2021-03-27T18:41:38Z</time>
      </trkpt>
      <trkpt lat="43.071581" lon="-5.197688">
        <ele>1320.9</ele>
        <time>2021-03-27T18:41:42Z</time>
      </trkpt>
      <trkpt lat="43.072332" lon="-5.196843">
        <ele>1307.91</ele>
        <time>2021-03-27T18:41:46Z</time>
      </trkpt>
      <trkpt lat="43.07241" lon="-5.196589">
        <ele>1305.63</ele>
        <time>2021-03-27T18:41:49Z</time>
      </trkpt>
      <trkpt lat="43.072459" lon="-5.196287">
        <ele>1305.06</ele>
        <time>2021-03-27T18:41:53Z</time>
      </trkpt>
      <trkpt lat="43.072452" lon="-5.195953">
        <ele>1306.35</ele>
        <time>2021-03-27T18:41:57Z</time>
      </trkpt>
      <trkpt lat="43.072388" lon="-5.195672">
        <ele>1306.91</ele>
        <time>2021-03-27T18:42:01Z</time>
      </trkpt>
      <trkpt lat="43.071964" lon="-5.194998">
        <ele>1303.22</ele>
        <time>2021-03-27T18:42:05Z</time>
      </trkpt>
      <trkpt lat="43.071844" lon="-5.194507">
        <ele>1304.1</ele>
        <time>2021-03-27T18:42:09Z</time>
      </trkpt>
      <trkpt lat="43.071733" lon="-5.193741">
        <ele>1304.0</ele>
        <time>2021-03-27T18:42:13Z</time>
      </trkpt>
      <trkpt lat="43.071584" lon="-5.193318">
        <ele>1306.78</ele>
        <time>2021-03-27T18:42:17Z</time>
      </trkpt>
      <trkpt lat="43.070765" lon="-5.19191">
        <ele>1300.71</ele>
        <time>2021-03-27T18:42:20Z</time>
      </trkpt>
      <trkpt lat="43.070636" lon="-5.191345">
        <ele>1299.81</ele>
        <time>2021-03-27T18:42:24Z</time>
      </trkpt>
      <trkpt lat="43.070489" lon="-5.190242">
        <ele>1297.04</ele>
        <time>2021-03-27T18:42:28Z</time>
      </trkpt>
      <trkpt lat="43.070216" lon="-5.187881">
        <ele>1293.25</ele>
        <time>2021-03-27T18:42:32Z</time>
      </trkpt>
      <trkpt lat="43.070215" lon="-5.186721">
        <ele>1290.48</ele>
        <time>2021-03-27T18:42:36Z</time>
      </trkpt>
      <trkpt lat="43.070342" lon="-5.18562">
        <ele>1289.69</ele>
        <time>2021-03-27T18:42:40Z</time>
      </trkpt>
      <trkpt lat="43.070347" lon="-5.185339">
        <ele>1287.11</ele>
        <time>2021-03-27T18:42:44Z</time>
      </trkpt>
      <trkpt lat="43.070314" lon="-5.185057">
        <ele>1285.79</ele>
        <time>2021-03-27T18:42:48Z</time>
      </trkpt>
      <trkpt lat="43.069248" lon="-5.1805">
        <ele>1275.83</ele>
        <time>2021-03-27T18:42:51Z</time>
      </trkpt>
      <trkpt lat="43.069411" lon="-5.173583">
        <ele>1268.03</ele>
        <time>2021-03-27T18:42:55Z</time>
      </trkpt>
      <trkpt lat="43.069542" lon="-5.172915">
        <ele>1267.77</ele>
        <time>2021-03-27T18:42:59Z</time>
      </trkpt>
      <trkpt lat="43.070642" lon="-5.169739">
        <ele>1273.01</ele>
        <time>2021-03-27T18:43:03Z</time>
      </trkpt>
      <trkpt lat="43.071685" lon="-5.166661">
        <ele>1270.02</ele>
        <time>2021-03-27T18:43:07Z</time>
      </trkpt>
      <trkpt lat="43.071727" lon="-5.165907">
        <ele>1269.81</ele>
        <time>2021-03-27T18:43:11Z</time>
      </trkpt>
      <trkpt lat="43.071681" lon="-5.165636">
        <ele>1270.65</ele>
        <time>2021-03-27T18:43:15Z</time>
      </trkpt>
      <trkpt lat="43.071078" lon="-5.164709">
        <ele>1263.57</ele>
        <time>2021-03-27T18:43:19Z</time>
      </trkpt>
      <trkpt lat="43.070913" lon="-5.164282">
        <ele>1257.06</ele>
        <time>2021-03-27T18:43:23Z</time>
      </trkpt>
      <trkpt lat="43.070885" lon="-5.163813">
        <ele>1254.8</ele>
        <time>2021-03-27T18:43:26Z</time>
      </trkpt>
      <trkpt lat="43.070905" lon="-5.163032">
        <ele>1249.76</ele>
        <time>2021-03-27T18:43:30Z</time>
      </trkpt>
      <trkpt lat="43.070971" lon="-5.16239">
        <ele>1246.71</ele>
        <time>2021-03-27T18:43:34Z</time>
      </trkpt>
      <trkpt lat="43.071091" lon="-5.162037">
        <ele>1243.72</ele>
        <time>2021-03-27T18:43:38Z</time>
      </trkpt>
      <trkpt lat="43.071228" lon="-5.161747">
        <ele>1244.1</ele>
        <time>2021-03-27T18:43:42Z</time>
      </trkpt>
      <trkpt lat="43.07174" lon="-5.161092">
        <ele>1248.58</ele>
        <time>2021-03-27T18:43:46Z</time>
      </trkpt>
      <trkpt lat="43.07186" lon="-5.160882">
        <ele>1249.14</ele>
        <time>2021-03-27T18:43:50Z</time>
      </trkpt>
      <trkpt lat="43.071952" lon="-5.160563">
        <ele>1245.4</ele>
        <time>2021-03-27T18:43:54Z</time>
      </trkpt>
      <trkpt lat="43.072023" lon="-5.159819">
        <ele>1233.38</ele>
        <time>2021-03-27T18:43:57Z</time>
      </trkpt>
      <trkpt lat="43.072344" lon="-5.158983">
        <ele>1228.7</ele>
        <time>2021-03-27T18:44:01Z</time>
      </trkpt>
      <trkpt lat="43.072545" lon="-5.158538">
        <ele>1224.88</ele>
        <time>2021-03-27T18:44:05Z</time>
      </trkpt>
      <trkpt lat="43.072718" lon="-5.157847">
        <ele>1221.77</ele>
        <time>2021-03-27T18:44:09Z</time>
      </trkpt>
      <trkpt lat="43.072728" lon="-5.157372">
        <ele>1221.87</ele>
        <time>2021-03-27T18:44:13Z</time>
      </trkpt>
      <trkpt lat="43.07265" lon="-5.156547">
        <ele>1224.07</ele>
        <time>2021-03-27T18:44:17Z</time>
      </trkpt>
      <trkpt lat="43.072622" lon="-5.156093">
        <ele>1226.71</ele>
        <time>2021-03-27T18:44:21Z</time>
      </trkpt>
      <trkpt lat="43.072632" lon="-5.155438">
        <ele>1228.07</ele>
        <time>2021-03-27T18:44:25Z</time>
      </trkpt>
      <trkpt lat="43.072775" lon="-5.15434">
        <ele>1229.36</ele>
        <time>2021-03-27T18:44:28Z</time>
      </trkpt>
      <trkpt lat="43.07269" lon="-5.152349">
        <ele>1223.09</ele>
        <time>2021-03-27T18:44:32Z</time>
      </trkpt>
      <trkpt lat="43.072589" lon="-5.150807">
        <ele>1223.67</ele>
        <time>2021-03-27T18:44:36Z</time>
      </trkpt>
      <trkpt lat="43.07248" lon="-5.150114">
        <ele>1222.44</ele>
        <time>2021-03-27T18:44:40Z</time>
      </trkpt>
      <trkpt lat="43.072284" lon="-5.149741">
        <ele>1222.67</ele>
        <time>2021-03-27T18:44:44Z</time>
      </trkpt>
      <trkpt lat="43.071548" lon="-5.149036">
        <ele>1215.46</ele>
        <time>2021-03-27T18:44:48Z</time>
      </trkpt>
      <trkpt lat="43.070832" lon="-5.148391">
        <ele>1216.84</ele>
        <time>2021-03-27T18:44:52Z</time>
      </trkpt>
      <trkpt lat="43.070117" lon="-5.146726">
        <ele>1211.71</ele>
        <time>2021-03-27T18:44:56Z</time>
      </trkpt>
      <trkpt lat="43.070042" lon="-5.146457">
        <ele>1210.77</ele>
        <time>2021-03-27T18:45:00Z</time>
      </trkpt>
      <trkpt lat="43.070018" lon="-5.146174">
        <ele>1206.91</ele>
        <time>2021-03-27T18:45:03Z</time>
      </trkpt>
      <trkpt lat="43.070048" lon="-5.144178">
        <ele>1198.64</ele>
        <time>2021-03-27T18:45:07Z</time>
      </trkpt>
      <trkpt lat="43.070144" lon="-5.142791">
        <ele>1199.4</ele>
        <time>2021-03-27T18:45:11Z</time>
      </trkpt>
      <trkpt lat="43.070128" lon="-5.142581">
        <ele>1198.96</ele>
        <time>2021-03-27T18:45:15Z</time>
      </trkpt>
      <trkpt lat="43.070059" lon="-5.142374">
        <ele>1199.49</ele>
        <time>2021-03-27T18:45:19Z</time>
      </trkpt>
      <trkpt lat="43.069946" lon="-5.142221">
        <ele>1200.76</ele>
        <time>2021-03-27T18:45:23Z</time>
      </trkpt>
      <trkpt lat="43.069813" lon="-5.142116">
        <ele>1201.15</ele>
        <time>2021-03-27T18:45:27Z</time>
      </trkpt>
      <trkpt lat="43.069604" lon="-5.141994">
        <ele>1201.44</ele>
        <time>2021-03-27T18:45:31Z</time>
      </trkpt>
      <trkpt lat="43.069383" lon="-5.141913">
        <ele>1203.31</ele>
        <time>2021-03-27T18:45:34Z</time>
      </trkpt>
      <trkpt lat="43.068366" lon="-5.141891">
        <ele>1206.42</ele>
        <time>2021-03-27T18:45:38Z</time>
      </trkpt>
      <trkpt lat="43.067662" lon="-5.1412">
        <ele>1200.21</ele>
        <time>2021-03-27T18:45:42Z</time>
      </trkpt>
      <trkpt lat="43.067229" lon="-5.140485">
        <ele>1194.89</ele>
        <time>2021-03-27T18:45:46Z</time>
      </trkpt>
      <trkpt lat="43.066674" lon="-5.139445">
        <ele>1191.89</ele>
        <time>2021-03-27T18:45:50Z</time>
      </trkpt>
      <trkpt lat="43.066507" lon="-5.138915">
        <ele>1191.88</ele>
        <time>2021-03-27T18:45:54Z</time>
      </trkpt>
      <trkpt lat="43.066271" lon="-5.138359">
        <ele>1198.8</ele>
        <time>2021-03-27T18:45:58Z</time>
      </trkpt>
      <trkpt lat="43.066255" lon="-5.138126">
        <ele>1197.11</ele>
        <time>2021-03-27T18:46:02Z</time>
      </trkpt>
      <trkpt lat="43.066145" lon="-5.137526">
        <ele>1192.29</ele>
        <time>2021-03-27T18:46:05Z</time>
      </trkpt>
      <trkpt lat="43.065985" lon="-5.137188">
        <ele>1189.82</ele>
        <time>2021-03-27T18:46:09Z</time>
      </trkpt>
      <trkpt lat="43.0658" lon="-5.137153">
        <ele>1189.8</ele>
        <time>2021-03-27T18:46:13Z</time>
      </trkpt>
      <trkpt lat="43.065658" lon="-5.137267">
        <ele>1192.41</ele>
        <time>2021-03-27T18:46:17Z</time>
      </trkpt>
      <trkpt lat="43.065246" lon="-5.137427">
        <ele>1195.39</ele>
        <time>2021-03-27T18:46:21Z</time>
      </trkpt>
      <trkpt lat="43.064767" lon="-5.137355">
        <ele>1193.6</ele>
        <time>2021-03-27T18:46:25Z</time>
      </trkpt>
      <trkpt lat="43.064361" lon="-5.137441">
        <ele>1190.53</ele>
        <time>2021-03-27T18:46:29Z</time>
      </trkpt>
      <trkpt lat="43.064145" lon="-5.137597">
        <ele>1189.62</ele>
        <time>2021-03-27T18:46:33Z</time>
      </trkpt>
      <trkpt lat="43.063484" lon="-5.137789">
        <ele>1187.17</ele>
        <time>2021-03-27T18:46:37Z</time>
      </trkpt>
      <trkpt lat="43.063116" lon="-5.138032">
        <ele>1184.57</ele>
        <time>2021-03-27T18:46:40Z</time>
      </trkpt>
      <trkpt lat="43.06125" lon="-5.138365">
        <ele>1186.61</ele>
        <time>2021-03-27T18:46:44Z</time>
      </trkpt>
      <trkpt lat="43.060832" lon="-5.138197">
        <ele>1186.51</ele>
        <time>2021-03-27T18:46:48Z</time>
      </trkpt>
      <trkpt lat="43.060216" lon="-5.136595">
        <ele>1179.46</ele>
        <time>2021-03-27T18:46:52Z</time>
      </trkpt>
      <trkpt lat="43.059106" lon="-5.135384">
        <ele>1180.8</ele>
        <time>2021-03-27T18:46:56Z</time>
      </trkpt>
      <trkpt lat="43.057465" lon="-5.132968">
        <ele>1167.77</ele>
        <time>2021-03-27T18:47:00Z</time>
      </trkpt>
      <trkpt lat="43.055303" lon="-5.132154">
        <ele>1167.72</ele>
        <time>2021-03-27T18:47:04Z</time>
      </trkpt>
      <trkpt lat="43.053561" lon="-5.130822">
        <ele>1166.09</ele>
        <time>2021-03-27T18:47:08Z</time>
      </trkpt>
      <trkpt lat="43.051646" lon="-5.130322">
        <ele>1158.0</ele>
        <time>2021-03-27T18:47:11Z</time>
      </trkpt>
      <trkpt lat="43.047891" lon="-5.128499">
        <ele>1150.4</ele>
        <time>2021-03-27T18:47:15Z</time>
      </trkpt>
      <trkpt lat="43.047564" lon="-5.128261">
        <ele>1151.77</ele>
        <time>2021-03-27T18:47:19Z</time>
      </trkpt>
      <trkpt lat="43.04476" lon="-5.123857">
        <ele>1152.9</ele>
        <time>2021-03-27T18:47:23Z</time>
      </trkpt>
      <trkpt lat="43.044567" lon="-5.123177">
        <ele>1152.56</ele>
        <time>2021-03-27T18:47:27Z</time>
      </trkpt>
      <trkpt lat="43.044396" lon="-5.122447">
        <ele>1154.66</ele>
        <time>2021-03-27T18:47:31Z</time>
      </trkpt>
      <trkpt lat="43.04434" lon="-5.122393">
        <ele>1155.36</ele>
        <time>2021-03-27T18:47:33Z</time>
      </trkpt>
      <trkpt lat="43.044225" lon="-5.122327">
        <ele>1156.66</ele>
        <time>2021-03-27T18:47:35Z</time>
      </trkpt>
      <trkpt lat="43.044195" lon="-5.122286">
        <ele>1156.9</ele>
        <time>2021-03-27T18:47:37Z</time>
      </trkpt>
      <trkpt lat="43.044167" lon="-5.122141">
        <ele>1156.7</ele>
        <time>2021-03-27T18:47:39Z</time>
      </trkpt>
      <trkpt lat="43.044234" lon="-5.121726">
        <ele>1152.43</ele>
        <time>2021-03-27T18:47:41Z</time>
      </trkpt>
      <trkpt lat="43.044268" lon="-5.120472">
        <ele>1160.26</ele>
        <time>2021-03-27T18:47:43Z</time>
      </trkpt>
      <trkpt lat="43.04426" lon="-5.120262">
        <ele>1159.11</ele>
        <time>2021-03-27T18:47:46Z</time>
      </trkpt>
      <trkpt lat="43.044195" lon="-5.119989">
        <ele>1154.98</ele>
        <time>2021-03-27T18:47:48Z</time>
      </trkpt>
      <trkpt lat="43.04414" lon="-5.119896">
        <ele>1154.1</ele>
        <time>2021-03-27T18:47:50Z</time>
      </trkpt>
      <trkpt lat="43.043798" lon="-5.119633">
        <ele>1156.83</ele>
        <time>2021-03-27T18:47:52Z</time>
      </trkpt>
      <trkpt lat="43.043494" lon="-5.119426">
        <ele>1162.83</ele>
        <time>2021-03-27T18:47:54Z</time>
      </trkpt>
      <trkpt lat="43.043275" lon="-5.119302">
        <ele>1164.12</ele>
        <time>2021-03-27T18:47:56Z</time>
      </trkpt>
      <trkpt lat="43.043108" lon="-5.11912">
        <ele>1165.79</ele>
        <time>2021-03-27T18:47:58Z</time>
      </trkpt>
      <trkpt lat="43.042927" lon="-5.118821">
        <ele>1165.78</ele>
        <time>2021-03-27T18:48:00Z</time>
      </trkpt>
      <trkpt lat="43.042639" lon="-5.118254">
        <ele>1158.0</ele>
        <time>2021-03-27T18:48:02Z</time>
      </trkpt>
      <trkpt lat="43.042145" lon="-5.117383">
        <ele>1152.86</ele>
        <time>2021-03-27T18:48:04Z</time>
      </trkpt>
      <trkpt lat="43.041655" lon="-5.116405">
        <ele>1151.17</ele>
        <time>2021-03-27T18:48:06Z</time>
      </trkpt>
      <trkpt lat="43.041606" lon="-5.116261">
        <ele>1151.42</ele>
        <time>2021-03-27T18:48:09Z</time>
      </trkpt>
      <trkpt lat="43.041593" lon="-5.116063">
        <ele>1150.97</ele>
        <time>2021-03-27T18:48:11Z</time>
      </trkpt>
      <trkpt lat="43.041677" lon="-5.115896">
        <ele>1149.91</ele>
        <time>2021-03-27T18:48:13Z</time>
      </trkpt>
      <trkpt lat="43.042049" lon="-5.115838">
        <ele>1147.98</ele>
        <time>2021-03-27T18:48:16Z</time>
      </trkpt>
      <trkpt lat="43.042577" lon="-5.115628">
        <ele>1147.17</ele>
        <time>2021-03-27T18:48:19Z</time>
      </trkpt>
      <trkpt lat="43.042817" lon="-5.115461">
        <ele>1144.86</ele>
        <time>2021-03-27T18:48:23Z</time>
      </trkpt>
      <trkpt lat="43.043685" lon="-5.114577">
        <ele>1142.21</ele>
        <time>2021-03-27T18:48:26Z</time>
      </trkpt>
      <trkpt lat="43.042646" lon="-5.111176">
        <ele>1143.77</ele>
        <time>2021-03-27T18:48:29Z</time>
      </trkpt>
      <trkpt lat="43.042479" lon="-5.110943">
        <ele>1145.57</ele>
        <time>2021-03-27T18:48:31Z</time>
      </trkpt>
      <trkpt lat="43.04211" lon="-5.110558">
        <ele>1143.77</ele>
        <time>2021-03-27T18:48:34Z</time>
      </trkpt>
      <trkpt lat="43.041546" lon="-5.109723">
        <ele>1142.26</ele>
        <time>2021-03-27T18:48:36Z</time>
      </trkpt>
      <trkpt lat="43.040803" lon="-5.108886">
        <ele>1139.11</ele>
        <time>2021-03-27T18:48:39Z</time>
      </trkpt>
      <trkpt lat="43.04064" lon="-5.107727">
        <ele>1143.38</ele>
        <time>2021-03-27T18:48:42Z</time>
      </trkpt>
      <trkpt lat="43.040588" lon="-5.1072">
        <ele>1144.42</ele>
        <time>2021-03-27T18:48:44Z</time>
      </trkpt>
      <trkpt lat="43.040396" lon="-5.106746">
        <ele>1144.93</ele>
        <time>2021-03-27T18:48:47Z</time>
      </trkpt>
      <trkpt lat="43.039344" lon="-5.105249">
        <ele>1140.34</ele>
        <time>2021-03-27T18:48:50Z</time>
      </trkpt>
      <trkpt lat="43.038949" lon="-5.103536">
        <ele>1138.65</ele>
        <time>2021-03-27T18:48:52Z</time>
      </trkpt>
      <trkpt lat="43.039187" lon="-5.10129">
        <ele>1136.83</ele>
        <time>2021-03-27T18:48:55Z</time>
      </trkpt>
      <trkpt lat="43.039033" lon="-5.100264">
        <ele>1140.15</ele>
        <time>2021-03-27T18:48:58Z</time>
      </trkpt>
      <trkpt lat="43.038309" lon="-5.096866">
        <ele>1138.12</ele>
        <time>2021-03-27T18:49:00Z</time>
      </trkpt>
      <trkpt lat="43.03829" lon="-5.096576">
        <ele>1139.27</ele>
        <time>2021-03-27T18:49:03Z</time>
      </trkpt>
      <trkpt lat="43.038313" lon="-5.096296">
        <ele>1139.74</ele>
        <time>2021-03-27T18:49:06Z</time>
      </trkpt>
      <trkpt lat="43.038377" lon="-5.096061">
        <ele>1140.62</ele>
        <time>2021-03-27T18:49:08Z</time>
      </trkpt>
      <trkpt lat="43.038556" lon="-5.095715">
        <ele>1143.11</ele>
        <time>2021-03-27T18:49:11Z</time>
      </trkpt>
      <trkpt lat="43.03868" lon="-5.095594">
        <ele>1144.39</ele>
        <time>2021-03-27T18:49:14Z</time>
      </trkpt>
      <trkpt lat="43.038805" lon="-5.095525">
        <ele>1145.32</ele>
        <time>2021-03-27T18:49:16Z</time>
      </trkpt>
      <trkpt lat="43.039696" lon="-5.095156">
        <ele>1148.6</ele>
        <time>2021-03-27T18:49:19Z</time>
      </trkpt>
      <trkpt lat="43.039789" lon="-5.095092">
        <ele>1148.97</ele>
        <time>2021-03-27T18:49:22Z</time>
      </trkpt>
      <trkpt lat="43.03996" lon="-5.094877">
        <ele>1150.03</ele>
        <time>2021-03-27T18:49:24Z</time>
      </trkpt>
      <trkpt lat="43.040078" lon="-5.094475">
        <ele>1146.58</ele>
        <time>2021-03-27T18:49:27Z</time>
      </trkpt>
      <trkpt lat="43.040169" lon="-5.09323">
        <ele>1146.24</ele>
        <time>2021-03-27T18:49:30Z</time>
      </trkpt>
      <trkpt lat="43.040286" lon="-5.092627">
        <ele>1145.01</ele>
        <time>2021-03-27T18:49:32Z</time>
      </trkpt>
      <trkpt lat="43.04029" lon="-5.092257">
        <ele>1144.12</ele>
        <time>2021-03-27T18:49:35Z</time>
      </trkpt>
      <trkpt lat="43.040258" lon="-5.091715">
        <ele>1143.77</ele>
        <time>2021-03-27T18:49:38Z</time>
      </trkpt>
      <trkpt lat="43.040195" lon="-5.091371">
        <ele>1143.39</ele>
        <time>2021-03-27T18:49:40Z</time>
      </trkpt>
      <trkpt lat="43.038038" lon="-5.08272">
        <ele>1135.88</ele>
        <time>2021-03-27T18:49:43Z</time>
      </trkpt>
      <trkpt lat="43.037895" lon="-5.082226">
        <ele>1138.7</ele>
        <time>2021-03-27T18:49:46Z</time>
      </trkpt>
      <trkpt lat="43.0378" lon="-5.081989">
        <ele>1140.66</ele>
        <time>2021-03-27T18:49:48Z</time>
      </trkpt>
      <trkpt lat="43.037638" lon="-5.081757">
        <ele>1139.82</ele>
        <time>2021-03-27T18:49:51Z</time>
      </trkpt>
      <trkpt lat="43.036707" lon="-5.080662">
        <ele>1138.62</ele>
        <time>2021-03-27T18:49:54Z</time>
      </trkpt>
      <trkpt lat="43.036266" lon="-5.080199">
        <ele>1136.56</ele>
        <time>2021-03-27T18:49:56Z</time>
      </trkpt>
      <trkpt lat="43.03568" lon="-5.079769">
        <ele>1135.71</ele>
        <time>2021-03-27T18:49:59Z</time>
      </trkpt>
      <trkpt lat="43.034424" lon="-5.078521">
        <ele>1132.18</ele>
        <time>2021-03-27T18:50:02Z</time>
      </trkpt>
      <trkpt lat="43.033913" lon="-5.077957">
        <ele>1130.71</ele>
        <time>2021-03-27T18:50:04Z</time>
      </trkpt>
      <trkpt lat="43.033456" lon="-5.077569">
        <ele>1131.56</ele>
        <time>2021-03-27T18:50:07Z</time>
      </trkpt>
      <trkpt lat="43.033092" lon="-5.077008">
        <ele>1133.62</ele>
        <time>2021-03-27T18:50:09Z</time>
      </trkpt>
      <trkpt lat="43.03269" lon="-5.076536">
        <ele>1128.89</ele>
        <time>2021-03-27T18:50:12Z</time>
      </trkpt>
      <trkpt lat="43.032411" lon="-5.076273">
        <ele>1125.95</ele>
        <time>2021-03-27T18:50:15Z</time>
      </trkpt>
      <trkpt lat="43.032259" lon="-5.076069">
        <ele>1124.65</ele>
        <time>2021-03-27T18:50:17Z</time>
      </trkpt>
      <trkpt lat="43.031989" lon="-5.075652">
        <ele>1121.05</ele>
        <time>2021-03-27T18:50:20Z</time>
      </trkpt>
      <trkpt lat="43.031498" lon="-5.074843">
        <ele>1125.44</ele>
        <time>2021-03-27T18:50:23Z</time>
      </trkpt>
      <trkpt lat="43.031209" lon="-5.074532">
        <ele>1126.28</ele>
        <time>2021-03-27T18:50:25Z</time>
      </trkpt>
      <trkpt lat="43.030886" lon="-5.074293">
        <ele>1126.19</ele>
        <time>2021-03-27T18:50:28Z</time>
      </trkpt>
      <trkpt lat="43.030017" lon="-5.073793">
        <ele>1127.56</ele>
        <time>2021-03-27T18:50:31Z</time>
      </trkpt>
      <trkpt lat="43.029824" lon="-5.073647">
        <ele>1128.27</ele>
        <time>2021-03-27T18:50:33Z</time>
      </trkpt>
      <trkpt lat="43.029681" lon="-5.073477">
        <ele>1127.64</ele>
        <time>2021-03-27T18:50:36Z</time>
      </trkpt>
      <trkpt lat="43.029598" lon="-5.073336">
        <ele>1126.67</ele>
        <time>2021-03-27T18:50:39Z</time>
      </trkpt>
      <trkpt lat="43.029102" lon="-5.072327">
        <ele>1131.58</ele>
        <time>2021-03-27T18:50:41Z</time>
      </trkpt>
      <trkpt lat="43.028659" lon="-5.07148">
        <ele>1123.86</ele>
        <time>2021-03-27T18:50:44Z</time>
      </trkpt>
      <trkpt lat="43.028559" lon="-5.071241">
        <ele>1120.72</ele>
        <time>2021-03-27T18:50:47Z</time>
      </trkpt>
      <trkpt lat="43.028522" lon="-5.070891">
        <ele>1118.46</ele>
        <time>2021-03-27T18:50:49Z</time>
      </trkpt>
      <trkpt lat="43.02856" lon="-5.069384">
        <ele>1122.17</ele>
        <time>2021-03-27T18:50:52Z</time>
      </trkpt>
      <trkpt lat="43.028424" lon="-5.068505">
        <ele>1117.25</ele>
        <time>2021-03-27T18:50:55Z</time>
      </trkpt>
      <trkpt lat="43.028471" lon="-5.068093">
        <ele>1119.08</ele>
        <time>2021-03-27T18:50:57Z</time>
      </trkpt>
      <trkpt lat="43.028483" lon="-5.067685">
        <ele>1118.65</ele>
        <time>2021-03-27T18:51:00Z</time>
      </trkpt>
      <trkpt lat="43.028223" lon="-5.06589">
        <ele>1106.25</ele>
        <time>2021-03-27T18:51:03Z</time>
      </trkpt>
      <trkpt lat="43.028074" lon="-5.065053">
        <ele>1108.58</ele>
        <time>2021-03-27T18:51:05Z</time>
      </trkpt>
      <trkpt lat="43.02786" lon="-5.064587">
        <ele>1107.5</ele>
        <time>2021-03-27T18:51:08Z</time>
      </trkpt>
      <trkpt lat="43.02744" lon="-5.064265">
        <ele>1107.25</ele>
        <time>2021-03-27T18:51:11Z</time>
      </trkpt>
      <trkpt lat="43.027155" lon="-5.063871">
        <ele>1108.36</ele>
        <time>2021-03-27T18:51:13Z</time>
      </trkpt>
      <trkpt lat="43.026809" lon="-5.063161">
        <ele>1104.92</ele>
        <time>2021-03-27T18:51:16Z</time>
      </trkpt>
      <trkpt lat="43.026619" lon="-5.062635">
        <ele>1107.73</ele>
        <time>2021-03-27T18:51:19Z</time>
      </trkpt>
      <trkpt lat="43.0265" lon="-5.062088">
        <ele>1107.4</ele>
        <time>2021-03-27T18:51:21Z</time>
      </trkpt>
      <trkpt lat="43.026441" lon="-5.061323">
        <ele>1111.12</ele>
        <time>2021-03-27T18:51:24Z</time>
      </trkpt>
      <trkpt lat="43.02664" lon="-5.060186">
        <ele>1102.01</ele>
        <time>2021-03-27T18:51:27Z</time>
      </trkpt>
      <trkpt lat="43.026643" lon="-5.05988">
        <ele>1100.11</ele>
        <time>2021-03-27T18:51:29Z</time>
      </trkpt>
      <trkpt lat="43.0266" lon="-5.059733">
        <ele>1099.52</ele>
        <time>2021-03-27T18:51:32Z</time>
      </trkpt>
      <trkpt lat="43.026403" lon="-5.059288">
        <ele>1106.44</ele>
        <time>2021-03-27T18:51:35Z</time>
      </trkpt>
      <trkpt lat="43.02638" lon="-5.059166">
        <ele>1107.76</ele>
        <time>2021-03-27T18:51:37Z</time>
      </trkpt>
      <trkpt lat="43.026417" lon="-5.057943">
        <ele>1113.39</ele>
        <time>2021-03-27T18:51:40Z</time>
      </trkpt>
      <trkpt lat="43.026396" lon="-5.057694">
        <ele>1114.46</ele>
        <time>2021-03-27T18:51:42Z</time>
      </trkpt>
      <trkpt lat="43.02631" lon="-5.057355">
        <ele>1117.86</ele>
        <time>2021-03-27T18:51:45Z</time>
      </trkpt>
      <trkpt lat="43.025715" lon="-5.056055">
        <ele>1110.03</ele>
        <time>2021-03-27T18:51:48Z</time>
      </trkpt>
      <trkpt lat="43.0256" lon="-5.055619">
        <ele>1109.51</ele>
        <time>2021-03-27T18:51:50Z</time>
      </trkpt>
      <trkpt lat="43.025409" lon="-5.054601">
        <ele>1114.94</ele>
        <time>2021-03-27T18:51:53Z</time>
      </trkpt>
      <trkpt lat="43.025349" lon="-5.053975">
        <ele>1114.53</ele>
        <time>2021-03-27T18:51:56Z</time>
      </trkpt>
      <trkpt lat="43.025386" lon="-5.053427">
        <ele>1115.66</ele>
        <time>2021-03-27T18:51:58Z</time>
      </trkpt>
      <trkpt lat="43.02556" lon="-5.052325">
        <ele>1109.27</ele>
        <time>2021-03-27T18:52:01Z</time>
      </trkpt>
      <trkpt lat="43.025587" lon="-5.051835">
        <ele>1110.01</ele>
        <time>2021-03-27T18:52:04Z</time>
      </trkpt>
      <trkpt lat="43.025552" lon="-5.050717">
        <ele>1114.51</ele>
        <time>2021-03-27T18:52:06Z</time>
      </trkpt>
      <trkpt lat="43.025447" lon="-5.049637">
        <ele>1109.05</ele>
        <time>2021-03-27T18:52:09Z</time>
      </trkpt>
      <trkpt lat="43.025511" lon="-5.048633">
        <ele>1107.5</ele>
        <time>2021-03-27T18:52:12Z</time>
      </trkpt>
      <trkpt lat="43.025522" lon="-5.047997">
        <ele>1103.61</ele>
        <time>2021-03-27T18:52:14Z</time>
      </trkpt>
      <trkpt lat="43.025506" lon="-5.047758">
        <ele>1102.11</ele>
        <time>2021-03-27T18:52:17Z</time>
      </trkpt>
      <trkpt lat="43.025464" lon="-5.04749">
        <ele>1101.29</ele>
        <time>2021-03-27T18:52:20Z</time>
      </trkpt>
      <trkpt lat="43.025369" lon="-5.047123">
        <ele>1100.67</ele>
        <time>2021-03-27T18:52:22Z</time>
      </trkpt>
      <trkpt lat="43.025278" lon="-5.046887">
        <ele>1101.2</ele>
        <time>2021-03-27T18:52:25Z</time>
      </trkpt>
      <trkpt lat="43.025138" lon="-5.046609">
        <ele>1101.7</ele>
        <time>2021-03-27T18:52:28Z</time>
      </trkpt>
      <trkpt lat="43.024985" lon="-5.046368">
        <ele>1102.99</ele>
        <time>2021-03-27T18:52:30Z</time>
      </trkpt>
      <trkpt lat="43.024358" lon="-5.045623">
        <ele>1106.38</ele>
        <time>2021-03-27T18:52:33Z</time>
      </trkpt>
      <trkpt lat="43.024252" lon="-5.045451">
        <ele>1108.09</ele>
        <time>2021-03-27T18:52:36Z</time>
      </trkpt>
      <trkpt lat="43.024141" lon="-5.045213">
        <ele>1109.35</ele>
        <time>2021-03-27T18:52:38Z</time>
      </trkpt>
      <trkpt lat="43.02398" lon="-5.044736">
        <ele>1110.81</ele>
        <time>2021-03-27T18:52:41Z</time>
      </trkpt>
      <trkpt lat="43.023777" lon="-5.044257">
        <ele>1114.76</ele>
        <time>2021-03-27T18:52:44Z</time>
      </trkpt>
      <trkpt lat="43.023644" lon="-5.044058">
        <ele>1117.29</ele>
        <time>2021-03-27T18:52:46Z</time>
      </trkpt>
      <trkpt lat="43.023468" lon="-5.043873">
        <ele>1118.42</ele>
        <time>2021-03-27T18:52:49Z</time>
      </trkpt>
      <trkpt lat="43.023005" lon="-5.043508">
        <ele>1117.15</ele>
        <time>2021-03-27T18:52:52Z</time>
      </trkpt>
      <trkpt lat="43.022877" lon="-5.043376">
        <ele>1118.1</ele>
        <time>2021-03-27T18:52:54Z</time>
      </trkpt>
      <trkpt lat="43.022767" lon="-5.043163">
        <ele>1119.32</ele>
        <time>2021-03-27T18:52:57Z</time>
      </trkpt>
      <trkpt lat="43.022515" lon="-5.042527">
        <ele>1123.83</ele>
        <time>2021-03-27T18:53:00Z</time>
      </trkpt>
      <trkpt lat="43.022391" lon="-5.042316">
        <ele>1125.07</ele>
        <time>2021-03-27T18:53:02Z</time>
      </trkpt>
      <trkpt lat="43.022234" lon="-5.042109">
        <ele>1128.01</ele>
        <time>2021-03-27T18:53:05Z</time>
      </trkpt>
      <trkpt lat="43.021848" lon="-5.041708">
        <ele>1127.43</ele>
        <time>2021-03-27T18:53:08Z</time>
      </trkpt>
      <trkpt lat="43.021687" lon="-5.041454">
        <ele>1127.32</ele>
        <time>2021-03-27T18:53:10Z</time>
      </trkpt>
      <trkpt lat="43.02162" lon="-5.041277">
        <ele>1128.07</ele>
        <time>2021-03-27T18:53:13Z</time>
      </trkpt>
      <trkpt lat="43.021575" lon="-5.041036">
        <ele>1129.99</ele>
        <time>2021-03-27T18:53:15Z</time>
      </trkpt>
      <trkpt lat="43.021574" lon="-5.040821">
        <ele>1131.68</ele>
        <time>2021-03-27T18:53:18Z</time>
      </trkpt>
      <trkpt lat="43.021603" lon="-5.040656">
        <ele>1132.19</ele>
        <time>2021-03-27T18:53:21Z</time>
      </trkpt>
      <trkpt lat="43.021661" lon="-5.040481">
        <ele>1132.12</ele>
        <time>2021-03-27T18:53:23Z</time>
      </trkpt>
      <trkpt lat="43.021754" lon="-5.040288">
        <ele>1131.67</ele>
        <time>2021-03-27T18:53:26Z</time>
      </trkpt>
      <trkpt lat="43.021952" lon="-5.039982">
        <ele>1130.86</ele>
        <time>2021-03-27T18:53:29Z</time>
      </trkpt>
      <trkpt lat="43.022048" lon="-5.039795">
        <ele>1129.81</ele>
        <time>2021-03-27T18:53:31Z</time>
      </trkpt>
      <trkpt lat="43.022112" lon="-5.039587">
        <ele>1129.42</ele>
        <time>2021-03-27T18:53:34Z</time>
      </trkpt>
      <trkpt lat="43.022295" lon="-5.038283">
        <ele>1120.99</ele>
        <time>2021-03-27T18:53:37Z</time>
      </trkpt>
      <trkpt lat="43.022365" lon="-5.037929">
        <ele>1117.97</ele>
        <time>2021-03-27T18:53:39Z</time>
      </trkpt>
      <trkpt lat="43.022422" lon="-5.037767">
        <ele>1116.69</ele>
        <time>2021-03-27T18:53:42Z</time>
      </trkpt>
      <trkpt lat="43.022617" lon="-5.03735">
        <ele>1112.71</ele>
        <time>2021-03-27T18:53:45Z</time>
      </trkpt>
      <trkpt lat="43.022675" lon="-5.037172">
        <ele>1110.81</ele>
        <time>2021-03-27T18:53:47Z</time>
      </trkpt>
      <trkpt lat="43.022708" lon="-5.036967">
        <ele>1108.33</ele>
        <time>2021-03-27T18:53:50Z</time>
      </trkpt>
      <trkpt lat="43.0227" lon="-5.036708">
        <ele>1105.57</ele>
        <time>2021-03-27T18:53:53Z</time>
      </trkpt>
      <trkpt lat="43.022662" lon="-5.036507">
        <ele>1104.56</ele>
        <time>2021-03-27T18:53:55Z</time>
      </trkpt>
      <trkpt lat="43.022592" lon="-5.036327">
        <ele>1104.97</ele>
        <time>2021-03-27T18:53:58Z</time>
      </trkpt>
      <trkpt lat="43.022491" lon="-5.036173">
        <ele>1106.55</ele>
        <time>2021-03-27T18:54:01Z</time>
      </trkpt>
      <trkpt lat="43.02238" lon="-5.036049">
        <ele>1107.82</ele>
        <time>2021-03-27T18:54:03Z</time>
      </trkpt>
      <trkpt lat="43.022248" lon="-5.035952">
        <ele>1110.22</ele>
        <time>2021-03-27T18:54:06Z</time>
      </trkpt>
      <trkpt lat="43.022141" lon="-5.035915">
        <ele>1111.45</ele>
        <time>2021-03-27T18:54:09Z</time>
      </trkpt>
      <trkpt lat="43.021999" lon="-5.035895">
        <ele>1112.3</ele>
        <time>2021-03-27T18:54:11Z</time>
      </trkpt>
      <trkpt lat="43.021809" lon="-5.035913">
        <ele>1112.14</ele>
        <time>2021-03-27T18:54:14Z</time>
      </trkpt>
      <trkpt lat="43.021268" lon="-5.036027">
        <ele>1113.69</ele>
        <time>2021-03-27T18:54:17Z</time>
      </trkpt>
      <trkpt lat="43.020704" lon="-5.036051">
        <ele>1116.17</ele>
        <time>2021-03-27T18:54:19Z</time>
      </trkpt>
      <trkpt lat="43.020369" lon="-5.036004">
        <ele>1115.51</ele>
        <time>2021-03-27T18:54:22Z</time>
      </trkpt>
      <trkpt lat="43.020047" lon="-5.035918">
        <ele>1116.72</ele>
        <time>2021-03-27T18:54:25Z</time>
      </trkpt>
      <trkpt lat="43.019788" lon="-5.035808">
        <ele>1119.32</ele>
        <time>2021-03-27T18:54:27Z</time>
      </trkpt>
      <trkpt lat="43.019426" lon="-5.035612">
        <ele>1121.84</ele>
        <time>2021-03-27T18:54:30Z</time>
      </trkpt>
      <trkpt lat="43.019248" lon="-5.035489">
        <ele>1122.92</ele>
        <time>2021-03-27T18:54:33Z</time>
      </trkpt>
      <trkpt lat="43.018902" lon="-5.035187">
        <ele>1122.56</ele>
        <time>2021-03-27T18:54:35Z</time>
      </trkpt>
      <trkpt lat="43.017956" lon="-5.034101">
        <ele>1129.44</ele>
        <time>2021-03-27T18:54:38Z</time>
      </trkpt>
      <trkpt lat="43.017688" lon="-5.033835">
        <ele>1127.83</ele>
        <time>2021-03-27T18:54:40Z</time>
      </trkpt>
      <trkpt lat="43.017277" lon="-5.033497">
        <ele>1128.75</ele>
        <time>2021-03-27T18:54:43Z</time>
      </trkpt>
      <trkpt lat="43.016855" lon="-5.033221">
        <ele>1130.16</ele>
        <time>2021-03-27T18:54:46Z</time>
      </trkpt>
      <trkpt lat="43.016307" lon="-5.032922">
        <ele>1130.31</ele>
        <time>2021-03-27T18:54:48Z</time>
      </trkpt>
      <trkpt lat="43.016163" lon="-5.03282">
        <ele>1130.9</ele>
        <time>2021-03-27T18:54:51Z</time>
      </trkpt>
      <trkpt lat="43.01602" lon="-5.032681">
        <ele>1131.02</ele>
        <time>2021-03-27T18:54:54Z</time>
      </trkpt>
      <trkpt lat="43.015929" lon="-5.032537">
        <ele>1131.69</ele>
        <time>2021-03-27T18:54:56Z</time>
      </trkpt>
      <trkpt lat="43.015844" lon="-5.032359">
        <ele>1132.34</ele>
        <time>2021-03-27T18:54:59Z</time>
      </trkpt>
      <trkpt lat="43.015794" lon="-5.032186">
        <ele>1133.11</ele>
        <time>2021-03-27T18:55:02Z</time>
      </trkpt>
      <trkpt lat="43.015772" lon="-5.032017">
        <ele>1135.26</ele>
        <time>2021-03-27T18:55:04Z</time>
      </trkpt>
      <trkpt lat="43.015773" lon="-5.03176">
        <ele>1136.91</ele>
        <time>2021-03-27T18:55:07Z</time>
      </trkpt>
      <trkpt lat="43.015793" lon="-5.031593">
        <ele>1137.01</ele>
        <time>2021-03-27T18:55:10Z</time>
      </trkpt>
      <trkpt lat="43.015852" lon="-5.031386">
        <ele>1136.39</ele>
        <time>2021-03-27T18:55:12Z</time>
      </trkpt>
      <trkpt lat="43.015925" lon="-5.03123">
        <ele>1136.27</ele>
        <time>2021-03-27T18:55:15Z</time>
      </trkpt>
      <trkpt lat="43.016019" lon="-5.031088">
        <ele>1135.73</ele>
        <time>2021-03-27T18:55:18Z</time>
      </trkpt>
      <trkpt lat="43.016157" lon="-5.030944">
        <ele>1135.92</ele>
        <time>2021-03-27T18:55:20Z</time>
      </trkpt>
      <trkpt lat="43.016695" lon="-5.0306">
        <ele>1136.65</ele>
        <time>2021-03-27T18:55:23Z</time>
      </trkpt>
      <trkpt lat="43.016791" lon="-5.030506">
        <ele>1135.12</ele>
        <time>2021-03-27T18:55:26Z</time>
      </trkpt>
      <trkpt lat="43.016898" lon="-5.030328">
        <ele>1131.9</ele>
        <time>2021-03-27T18:55:28Z</time>
      </trkpt>
      <trkpt lat="43.016965" lon="-5.030158">
        <ele>1129.65</ele>
        <time>2021-03-27T18:55:31Z</time>
      </trkpt>
      <trkpt lat="43.016997" lon="-5.030028">
        <ele>1128.82</ele>
        <time>2021-03-27T18:55:34Z</time>
      </trkpt>
      <trkpt lat="43.017016" lon="-5.029821">
        <ele>1130.69</ele>
        <time>2021-03-27T18:55:36Z</time>
      </trkpt>
      <trkpt lat="43.017001" lon="-5.029574">
        <ele>1132.32</ele>
        <time>2021-03-27T18:55:39Z</time>
      </trkpt>
      <trkpt lat="43.016945" lon="-5.029333">
        <ele>1133.06</ele>
        <time>2021-03-27T18:55:42Z</time>
      </trkpt>
      <trkpt lat="43.016718" lon="-5.028769">
        <ele>1133.31</ele>
        <time>2021-03-27T18:55:44Z</time>
      </trkpt>
      <trkpt lat="43.01657" lon="-5.028318">
        <ele>1134.61</ele>
        <time>2021-03-27T18:55:47Z</time>
      </trkpt>
      <trkpt lat="43.016393" lon="-5.027446">
        <ele>1131.25</ele>
        <time>2021-03-27T18:55:50Z</time>
      </trkpt>
      <trkpt lat="43.016325" lon="-5.027235">
        <ele>1130.81</ele>
        <time>2021-03-27T18:55:52Z</time>
      </trkpt>
      <trkpt lat="43.016147" lon="-5.026926">
        <ele>1129.98</ele>
        <time>2021-03-27T18:55:55Z</time>
      </trkpt>
      <trkpt lat="43.016028" lon="-5.026797">
        <ele>1129.42</ele>
        <time>2021-03-27T18:55:58Z</time>
      </trkpt>
      <trkpt lat="43.015599" lon="-5.02647">
        <ele>1128.45</ele>
        <time>2021-03-27T18:56:00Z</time>
      </trkpt>
      <trkpt lat="43.015488" lon="-5.026356">
        <ele>1128.0</ele>
        <time>2021-03-27T18:56:03Z</time>
      </trkpt>
      <trkpt lat="43.015206" lon="-5.025936">
        <ele>1125.14</ele>
        <time>2021-03-27T18:56:06Z</time>
      </trkpt>
      <trkpt lat="43.015089" lon="-5.025799">
        <ele>1124.73</ele>
        <time>2021-03-27T18:56:08Z</time>
      </trkpt>
      <trkpt lat="43.014969" lon="-5.025716">
        <ele>1124.39</ele>
        <time>2021-03-27T18:56:11Z</time>
      </trkpt>
      <trkpt lat="43.014409" lon="-5.025541">
        <ele>1122.1</ele>
        <time>2021-03-27T18:56:13Z</time>
      </trkpt>
      <trkpt lat="43.014273" lon="-5.025461">
        <ele>1122.72</ele>
        <time>2021-03-27T18:56:16Z</time>
      </trkpt>
      <trkpt lat="43.014173" lon="-5.02537">
        <ele>1123.41</ele>
        <time>2021-03-27T18:56:19Z</time>
      </trkpt>
      <trkpt lat="43.014076" lon="-5.025246">
        <ele>1123.27</ele>
        <time>2021-03-27T18:56:21Z</time>
      </trkpt>
      <trkpt lat="43.013985" lon="-5.02505">
        <ele>1122.71</ele>
        <time>2021-03-27T18:56:24Z</time>
      </trkpt>
      <trkpt lat="43.013934" lon="-5.024867">
        <ele>1121.58</ele>
        <time>2021-03-27T18:56:27Z</time>
      </trkpt>
      <trkpt lat="43.01391" lon="-5.024629">
        <ele>1120.22</ele>
        <time>2021-03-27T18:56:29Z</time>
      </trkpt>
      <trkpt lat="43.013915" lon="-5.024403">
        <ele>1119.45</ele>
        <time>2021-03-27T18:56:32Z</time>
      </trkpt>
      <trkpt lat="43.013963" lon="-5.023938">
        <ele>1117.5</ele>
        <time>2021-03-27T18:56:35Z</time>
      </trkpt>
      <trkpt lat="43.013919" lon="-5.023626">
        <ele>1113.98</ele>
        <time>2021-03-27T18:56:37Z</time>
      </trkpt>
      <trkpt lat="43.013865" lon="-5.023453">
        <ele>1113.05</ele>
        <time>2021-03-27T18:56:40Z</time>
      </trkpt>
      <trkpt lat="43.013762" lon="-5.023278">
        <ele>1111.97</ele>
        <time>2021-03-27T18:56:43Z</time>
      </trkpt>
      <trkpt lat="43.013644" lon="-5.023132">
        <ele>1110.96</ele>
        <time>2021-03-27T18:56:45Z</time>
      </trkpt>
      <trkpt lat="43.013305" lon="-5.022861">
        <ele>1109.66</ele>
        <time>2021-03-27T18:56:48Z</time>
      </trkpt>
      <trkpt lat="43.01307" lon="-5.022612">
        <ele>1108.77</ele>
        <time>2021-03-27T18:56:51Z</time>
      </trkpt>
      <trkpt lat="43.012949" lon="-5.022345">
        <ele>1108.82</ele>
        <time>2021-03-27T18:56:53Z</time>
      </trkpt>
      <trkpt lat="43.012867" lon="-5.021997">
        <ele>1109.28</ele>
        <time>2021-03-27T18:56:56Z</time>
      </trkpt>
      <trkpt lat="43.012877" lon="-5.021544">
        <ele>1110.11</ele>
        <time>2021-03-27T18:56:59Z</time>
      </trkpt>
      <trkpt lat="43.012865" lon="-5.0214">
        <ele>1109.66</ele>
        <time>2021-03-27T18:57:01Z</time>
      </trkpt>
      <trkpt lat="43.012878" lon="-5.021183">
        <ele>1109.19</ele>
        <time>2021-03-27T18:57:03Z</time>
      </trkpt>
      <trkpt lat="43.013991" lon="-5.021343">
        <ele>1107.33</ele>
        <time>2021-03-27T18:57:07Z</time>
      </trkpt>
      <trkpt lat="43.014261" lon="-5.021333">
        <ele>1104.55</ele>
        <time>2021-03-27T18:57:12Z</time>
      </trkpt>
      <trkpt lat="43.014558" lon="-5.021259">
        <ele>1109.02</ele>
        <time>2021-03-27T18:57:16Z</time>
      </trkpt>
      <trkpt lat="43.014885" lon="-5.021082">
        <ele>1113.46</ele>
        <time>2021-03-27T18:57:21Z</time>
      </trkpt>
      <trkpt lat="43.016294" lon="-5.020227">
        <ele>1110.09</ele>
        <time>2021-03-27T18:57:26Z</time>
      </trkpt>
      <trkpt lat="43.016623" lon="-5.020215">
        <ele>1107.53</ele>
        <time>2021-03-27T18:57:30Z</time>
      </trkpt>
      <trkpt lat="43.017084" lon="-5.020308">
        <ele>1108.65</ele>
        <time>2021-03-27T18:57:35Z</time>
      </trkpt>
      <trkpt lat="43.018436" lon="-5.019883">
        <ele>1113.79</ele>
        <time>2021-03-27T18:57:39Z</time>
      </trkpt>
      <trkpt lat="43.019867" lon="-5.019832">
        <ele>1106.37</ele>
        <time>2021-03-27T18:57:44Z</time>
      </trkpt>
      <trkpt lat="43.021898" lon="-5.019801">
        <ele>1123.87</ele>
        <time>2021-03-27T18:57:49Z</time>
      </trkpt>
      <trkpt lat="43.022137" lon="-5.019705">
        <ele>1122.8</ele>
        <time>2021-03-27T18:57:53Z</time>
      </trkpt>
      <trkpt lat="43.022713" lon="-5.019377">
        <ele>1122.43</ele>
        <time>2021-03-27T18:57:58Z</time>
      </trkpt>
      <trkpt lat="43.023335" lon="-5.0193">
        <ele>1133.7</ele>
        <time>2021-03-27T18:58:02Z</time>
      </trkpt>
      <trkpt lat="43.023972" lon="-5.019108">
        <ele>1127.14</ele>
        <time>2021-03-27T18:58:07Z</time>
      </trkpt>
      <trkpt lat="43.024877" lon="-5.019112">
        <ele>1136.72</ele>
        <time>2021-03-27T18:58:12Z</time>
      </trkpt>
      <trkpt lat="43.025581" lon="-5.0188">
        <ele>1129.49</ele>
        <time>2021-03-27T18:58:16Z</time>
      </trkpt>
      <trkpt lat="43.026056" lon="-5.018772">
        <ele>1130.59</ele>
        <time>2021-03-27T18:58:21Z</time>
      </trkpt>
      <trkpt lat="43.026679" lon="-5.018932">
        <ele>1124.96</ele>
        <time>2021-03-27T18:58:25Z</time>
      </trkpt>
      <trkpt lat="43.026979" lon="-5.018881">
        <ele>1130.07</ele>
        <time>2021-03-27T18:58:30Z</time>
      </trkpt>
      <trkpt lat="43.028389" lon="-5.01839">
        <ele>1132.19</ele>
        <time>2021-03-27T18:58:35Z</time>
      </trkpt>
      <trkpt lat="43.029413" lon="-5.017168">
        <ele>1120.09</ele>
        <time>2021-03-27T18:58:39Z</time>
      </trkpt>
      <trkpt lat="43.030375" lon="-5.01589">
        <ele>1118.48</ele>
        <time>2021-03-27T18:58:44Z</time>
      </trkpt>
      <trkpt lat="43.030681" lon="-5.015613">
        <ele>1116.38</ele>
        <time>2021-03-27T18:58:48Z</time>
      </trkpt>
      <trkpt lat="43.031702" lon="-5.014856">
        <ele>1107.34</ele>
        <time>2021-03-27T18:58:53Z</time>
      </trkpt>
      <trkpt lat="43.03202" lon="-5.014685">
        <ele>1104.19</ele>
        <time>2021-03-27T18:58:58Z</time>
      </trkpt>
      <trkpt lat="43.033883" lon="-5.014155">
        <ele>1107.75</ele>
        <time>2021-03-27T18:59:02Z</time>
      </trkpt>
      <trkpt lat="43.034009" lon="-5.014079">
        <ele>1109.36</ele>
        <time>2021-03-27T18:59:07Z</time>
      </trkpt>
      <trkpt lat="43.035072" lon="-5.01322">
        <ele>1108.7</ele>
        <time>2021-03-27T18:59:11Z</time>
      </trkpt>
      <trkpt lat="43.036305" lon="-5.012157">
        <ele>1112.13</ele>
        <time>2021-03-27T18:59:16Z</time>
      </trkpt>
      <trkpt lat="43.037164" lon="-5.011636">
        <ele>1115.15</ele>
        <time>2021-03-27T18:59:21Z</time>
      </trkpt>
      <trkpt lat="43.038795" lon="-5.011157">
        <ele>1112.04</ele>
        <time>2021-03-27T18:59:25Z</time>
      </trkpt>
      <trkpt lat="43.039927" lon="-5.010971">
        <ele>1124.69</ele>
        <time>2021-03-27T18:59:30Z</time>
      </trkpt>
      <trkpt lat="43.041959" lon="-5.009878">
        <ele>1119.24</ele>
        <time>2021-03-27T18:59:34Z</time>
      </trkpt>
      <trkpt lat="43.042628" lon="-5.009139">
        <ele>1117.94</ele>
        <time>2021-03-27T18:59:39Z</time>
      </trkpt>
      <trkpt lat="43.043349" lon="-5.007959">
        <ele>1119.27</ele>
        <time>2021-03-27T18:59:44Z</time>
      </trkpt>
      <trkpt lat="43.04361" lon="-5.007567">
        <ele>1113.49</ele>
        <time>2021-03-27T18:59:48Z</time>
      </trkpt>
      <trkpt lat="43.043684" lon="-5.007485">
        <ele>1112.46</ele>
        <time>2021-03-27T18:59:53Z</time>
      </trkpt>
      <trkpt lat="43.043747" lon="-5.007459">
        <ele>1112.09</ele>
        <time>2021-03-27T18:59:57Z</time>
      </trkpt>
      <trkpt lat="43.043872" lon="-5.00747">
        <ele>1111.32</ele>
        <time>2021-03-27T19:00:02Z</time>
      </trkpt>
      <trkpt lat="43.043989" lon="-5.007558">
        <ele>1114.79</ele>
        <time>2021-03-27T19:00:07Z</time>
      </trkpt>
      <trkpt lat="43.044371" lon="-5.008007">
        <ele>1118.72</ele>
        <time>2021-03-27T19:00:11Z</time>
      </trkpt>
      <trkpt lat="43.044706" lon="-5.008323">
        <ele>1121.74</ele>
        <time>2021-03-27T19:00:16Z</time>
      </trkpt>
      <trkpt lat="43.045156" lon="-5.008619">
        <ele>1125.48</ele>
        <time>2021-03-27T19:00:20Z</time>
      </trkpt>
      <trkpt lat="43.045881" lon="-5.008819">
        <ele>1121.23</ele>
        <time>2021-03-27T19:00:25Z</time>
      </trkpt>
      <trkpt lat="43.04696" lon="-5.009003">
        <ele>1121.7</ele>
        <time>2021-03-27T19:00:30Z</time>
      </trkpt>
      <trkpt lat="43.047261" lon="-5.009138">
        <ele>1119.86</ele>
        <time>2021-03-27T19:00:34Z</time>
      </trkpt>
      <trkpt lat="43.047551" lon="-5.009295">
        <ele>1118.46</ele>
        <time>2021-03-27T19:00:39Z</time>
      </trkpt>
      <trkpt lat="43.060129" lon="-5.018589">
        <ele>1147.68</ele>
        <time>2021-03-27T19:00:43Z</time>
      </trkpt>
      <trkpt lat="43.060394" lon="-5.018735">
        <ele>1149.46</ele>
        <time>2021-03-27T19:00:48Z</time>
      </trkpt>
      <trkpt lat="43.060703" lon="-5.018825">
        <ele>1150.29</ele>
        <time>2021-03-27T19:00:53Z</time>
      </trkpt>
      <trkpt lat="43.062369" lon="-5.018973">
        <ele>1153.23</ele>
        <time>2021-03-27T19:00:57Z</time>
      </trkpt>
      <trkpt lat="43.065955" lon="-5.020746">
        <ele>1161.27</ele>
        <time>2021-03-27T19:01:02Z</time>
      </trkpt>
      <trkpt lat="43.067096" lon="-5.021055">
        <ele>1162.04</ele>
        <time>2021-03-27T19:01:06Z</time>
      </trkpt>
      <trkpt lat="43.068074" lon="-5.020949">
        <ele>1168.71</ele>
        <time>2021-03-27T19:01:11Z</time>
      </trkpt>
      <trkpt lat="43.070189" lon="-5.021073">
        <ele>1166.09</ele>
        <time>2021-03-27T19:01:16Z</time>
      </trkpt>
      <trkpt lat="43.070688" lon="-5.021007">
        <ele>1167.85</ele>
        <time>2021-03-27T19:01:20Z</time>
      </trkpt>
      <trkpt lat="43.071569" lon="-5.020617">
        <ele>1172.63</ele>
        <time>2021-03-27T19:01:25Z</time>
      </trkpt>
      <trkpt lat="43.07205" lon="-5.020244">
        <ele>1175.23</ele>
        <time>2021-03-27T19:01:29Z</time>
      </trkpt>
      <trkpt lat="43.072971" lon="-5.019311">
        <ele>1180.69</ele>
        <time>2021-03-27T19:01:34Z</time>
      </trkpt>
      <trkpt lat="43.073528" lon="-5.018889">
        <ele>1184.47</ele>
        <time>2021-03-27T19:01:39Z</time>
      </trkpt>
      <trkpt lat="43.074137" lon="-5.018392">
        <ele>1180.08</ele>
        <time>2021-03-27T19:01:43Z</time>
      </trkpt>
      <trkpt lat="43.074662" lon="-5.018063">
        <ele>1182.06</ele>
        <time>2021-03-27T19:01:48Z</time>
      </trkpt>
      <trkpt lat="43.074853" lon="-5.018038">
        <ele>1183.64</ele>
        <time>2021-03-27T19:01:52Z</time>
      </trkpt>
      <trkpt lat="43.075059" lon="-5.018062">
        <ele>1184.91</ele>
        <time>2021-03-27T19:01:57Z</time>
      </trkpt>
      <trkpt lat="43.075542" lon="-5.0182">
        <ele>1186.83</ele>
        <time>2021-03-27T19:02:02Z</time>
      </trkpt>
      <trkpt lat="43.075857" lon="-5.018448">
        <ele>1186.52</ele>
        <time>2021-03-27T19:02:06Z</time>
      </trkpt>
      <trkpt lat="43.076482" lon="-5.0191">
        <ele>1185.16</ele>
        <time>2021-03-27T19:02:11Z</time>
      </trkpt>
      <trkpt lat="43.077286" lon="-5.01958">
        <ele>1183.27</ele>
        <time>2021-03-27T19:02:15Z</time>
      </trkpt>
      <trkpt lat="43.078169" lon="-5.019967">
        <ele>1185.43</ele>
        <time>2021-03-27T19:02:20Z</time>
      </trkpt>
      <trkpt lat="43.079481" lon="-5.020381">
        <ele>1190.84</ele>
        <time>2021-03-27T19:02:25Z</time>
      </trkpt>
      <trkpt lat="43.080536" lon="-5.020798">
        <ele>1194.94</ele>
        <time>2021-03-27T19:02:29Z</time>
      </trkpt>
      <trkpt lat="43.080632" lon="-5.020825">
        <ele>1195.23</ele>
        <time>2021-03-27T19:02:34Z</time>
      </trkpt>
      <trkpt lat="43.080792" lon="-5.02082">
        <ele>1195.65</ele>
        <time>2021-03-27T19:02:38Z</time>
      </trkpt>
      <trkpt lat="43.081022" lon="-5.020678">
        <ele>1194.87</ele>
        <time>2021-03-27T19:02:43Z</time>
      </trkpt>
      <trkpt lat="43.082775" lon="-5.019414">
        <ele>1196.98</ele>
        <time>2021-03-27T19:02:48Z</time>
      </trkpt>
      <trkpt lat="43.08358" lon="-5.019142">
        <ele>1202.34</ele>
        <time>2021-03-27T19:02:52Z</time>
      </trkpt>
      <trkpt lat="43.083969" lon="-5.019119">
        <ele>1206.03</ele>
        <time>2021-03-27T19:02:57Z</time>
      </trkpt>
      <trkpt lat="43.084288" lon="-5.019177">
        <ele>1208.97</ele>
        <time>2021-03-27T19:03:01Z</time>
      </trkpt>
      <trkpt lat="43.085298" lon="-5.019053">
        <ele>1210.71</ele>
        <time>2021-03-27T19:03:06Z</time>
      </trkpt>
      <trkpt lat="43.085565" lon="-5.018931">
        <ele>1209.18</ele>
        <time>2021-03-27T19:03:11Z</time>
      </trkpt>
      <trkpt lat="43.086478" lon="-5.017834">
        <ele>1203.8</ele>
        <time>2021-03-27T19:03:15Z</time>
      </trkpt>
      <trkpt lat="43.086926" lon="-5.017264">
        <ele>1207.92</ele>
        <time>2021-03-27T19:03:20Z</time>
      </trkpt>
      <trkpt lat="43.087451" lon="-5.016686">
        <ele>1206.95</ele>
        <time>2021-03-27T19:03:24Z</time>
      </trkpt>
      <trkpt lat="43.087709" lon="-5.016469">
        <ele>1212.58</ele>
        <time>2021-03-27T19:03:29Z</time>
      </trkpt>
      <trkpt lat="43.087873" lon="-5.01641">
        <ele>1213.23</ele>
        <time>2021-03-27T19:03:34Z</time>
      </trkpt>
      <trkpt lat="43.088107" lon="-5.01638">
        <ele>1212.66</ele>
        <time>2021-03-27T19:03:38Z</time>
      </trkpt>
      <trkpt lat="43.088339" lon="-5.016395">
        <ele>1215.09</ele>
        <time>2021-03-27T19:03:43Z</time>
      </trkpt>
      <trkpt lat="43.089108" lon="-5.016587">
        <ele>1223.34</ele>
        <time>2021-03-27T19:03:47Z</time>
      </trkpt>
      <trkpt lat="43.089365" lon="-5.016729">
        <ele>1222.16</ele>
        <time>2021-03-27T19:03:52Z</time>
      </trkpt>
      <trkpt lat="43.089693" lon="-5.017057">
        <ele>1220.49</ele>
        <time>2021-03-27T19:03:57Z</time>
      </trkpt>
      <trkpt lat="43.090519" lon="-5.018058">
        <ele>1224.23</ele>
        <time>2021-03-27T19:04:01Z</time>
      </trkpt>
      <trkpt lat="43.090971" lon="-5.018758">
        <ele>1228.33</ele>
        <time>2021-03-27T19:04:06Z</time>
      </trkpt>
      <trkpt lat="43.091232" lon="-5.018957">
        <ele>1227.95</ele>
        <time>2021-03-27T19:04:10Z</time>
      </trkpt>
      <trkpt lat="43.091574" lon="-5.019161">
        <ele>1236.81</ele>
        <time>2021-03-27T19:04:15Z</time>
      </trkpt>
      <trkpt lat="43.091727" lon="-5.019301">
        <ele>1239.0</ele>
        <time>2021-03-27T19:04:20Z</time>
      </trkpt>
      <trkpt lat="43.091971" lon="-5.019657">
        <ele>1240.73</ele>
        <time>2021-03-27T19:04:24Z</time>
      </trkpt>
      <trkpt lat="43.092167" lon="-5.019979">
        <ele>1235.43</ele>
        <time>2021-03-27T19:04:29Z</time>
      </trkpt>
      <trkpt lat="43.092383" lon="-5.020133">
        <ele>1230.21</ele>
        <time>2021-03-27T19:04:33Z</time>
      </trkpt>
      <trkpt lat="43.092671" lon="-5.020233">
        <ele>1230.3</ele>
        <time>2021-03-27T19:04:38Z</time>
      </trkpt>
      <trkpt lat="43.092913" lon="-5.020262">
        <ele>1230.16</ele>
        <time>2021-03-27T19:04:43Z</time>
      </trkpt>
      <trkpt lat="43.093065" lon="-5.020247">
        <ele>1229.39</ele>
        <time>2021-03-27T19:04:47Z</time>
      </trkpt>
      <trkpt lat="43.093202" lon="-5.020195">
        <ele>1232.0</ele>
        <time>2021-03-27T19:04:52Z</time>
      </trkpt>
      <trkpt lat="43.095102" lon="-5.019199">
        <ele>1239.8</ele>
        <time>2021-03-27T19:04:56Z</time>
      </trkpt>
      <trkpt lat="43.095499" lon="-5.018831">
        <ele>1243.99</ele>
        <time>2021-03-27T19:05:01Z</time>
      </trkpt>
      <trkpt lat="43.09588" lon="-5.018394">
        <ele>1245.91</ele>
        <time>2021-03-27T19:05:06Z</time>
      </trkpt>
      <trkpt lat="43.097973" lon="-5.015044">
        <ele>1257.22</ele>
        <time>2021-03-27T19:05:10Z</time>
      </trkpt>
      <trkpt lat="43.09848" lon="-5.013974">
        <ele>1259.91</ele>
        <time>2021-03-27T19:05:15Z</time>
      </trkpt>
      <trkpt lat="43.098618" lon="-5.01375">
        <ele>1260.38</ele>
        <time>2021-03-27T19:05:19Z</time>
      </trkpt>
      <trkpt lat="43.098852" lon="-5.01358">
        <ele>1258.2</ele>
        <time>2021-03-27T19:05:24Z</time>
      </trkpt>
      <trkpt lat="43.098998" lon="-5.013562">
        <ele>1258.64</ele>
        <time>2021-03-27T19:05:29Z</time>
      </trkpt>
      <trkpt lat="43.099203" lon="-5.013609">
        <ele>1261.9</ele>
        <time>2021-03-27T19:05:33Z</time>
      </trkpt>
      <trkpt lat="43.099345" lon="-5.013686">
        <ele>1265.85</ele>
        <time>2021-03-27T19:05:38Z</time>
      </trkpt>
      <trkpt lat="43.099466" lon="-5.013697">
        <ele>1269.31</ele>
        <time>2021-03-27T19:05:39Z</time>
      </trkpt>
      <trkpt lat="43.099522" lon="-5.01368">
        <ele>1270.95</ele>
        <time>2021-03-27T19:05:39Z</time>
      </trkpt>
      <trkpt lat="43.09959" lon="-5.013508">
        <ele>1272.36</ele>
        <time>2021-03-27T19:05:40Z</time>
      </trkpt>
      <trkpt lat="43.099607" lon="-5.013015">
        <ele>1270.28</ele>
        <time>2021-03-27T19:05:43Z</time>
      </trkpt>
      <trkpt lat="43.099573" lon="-5.012352">
        <ele>1269.93</ele>
        <time>2021-03-27T19:05:46Z</time>
      </trkpt>
      <trkpt lat="43.099439" lon="-5.011692">
        <ele>1264.1</ele>
        <time>2021-03-27T19:05:49Z</time>
      </trkpt>
      <trkpt lat="43.099425" lon="-5.011542">
        <ele>1263.28</ele>
        <time>2021-03-27T19:05:52Z</time>
      </trkpt>
      <trkpt lat="43.099434" lon="-5.011372">
        <ele>1262.86</ele>
        <time>2021-03-27T19:05:55Z</time>
      </trkpt>
      <trkpt lat="43.099477" lon="-5.011197">
        <ele>1264.1</ele>
        <time>2021-03-27T19:05:58Z</time>
      </trkpt>
      <trkpt lat="43.100058" lon="-5.009745">
        <ele>1270.57</ele>
        <time>2021-03-27T19:06:01Z</time>
      </trkpt>
      <trkpt lat="43.100157" lon="-5.009421">
        <ele>1270.06</ele>
        <time>2021-03-27T19:06:04Z</time>
      </trkpt>
      <trkpt lat="43.100845" lon="-5.006724">
        <ele>1282.68</ele>
        <time>2021-03-27T19:06:07Z</time>
      </trkpt>
      <trkpt lat="43.100955" lon="-5.006347">
        <ele>1287.27</ele>
        <time>2021-03-27T19:06:10Z</time>
      </trkpt>
      <trkpt lat="43.101041" lon="-5.006122">
        <ele>1290.49</ele>
        <time>2021-03-27T19:06:13Z</time>
      </trkpt>
      <trkpt lat="43.101149" lon="-5.005911">
        <ele>1293.76</ele>
        <time>2021-03-27T19:06:15Z</time>
      </trkpt>
      <trkpt lat="43.101272" lon="-5.005715">
        <ele>1294.97</ele>
        <time>2021-03-27T19:06:18Z</time>
      </trkpt>
      <trkpt lat="43.10186" lon="-5.004949">
        <ele>1292.81</ele>
        <time>2021-03-27T19:06:21Z</time>
      </trkpt>
      <trkpt lat="43.102049" lon="-5.004663">
        <ele>1296.13</ele>
        <time>2021-03-27T19:06:24Z</time>
      </trkpt>
      <trkpt lat="43.102175" lon="-5.00443">
        <ele>1298.42</ele>
        <time>2021-03-27T19:06:27Z</time>
      </trkpt>
      <trkpt lat="43.102606" lon="-5.003404">
        <ele>1301.93</ele>
        <time>2021-03-27T19:06:30Z</time>
      </trkpt>
      <trkpt lat="43.102702" lon="-5.003222">
        <ele>1304.49</ele>
        <time>2021-03-27T19:06:33Z</time>
      </trkpt>
      <trkpt lat="43.102925" lon="-5.002893">
        <ele>1308.82</ele>
        <time>2021-03-27T19:06:36Z</time>
      </trkpt>
      <trkpt lat="43.103292" lon="-5.002402">
        <ele>1308.46</ele>
        <time>2021-03-27T19:06:39Z</time>
      </trkpt>
      <trkpt lat="43.103537" lon="-5.002207">
        <ele>1309.65</ele>
        <time>2021-03-27T19:06:42Z</time>
      </trkpt>
      <trkpt lat="43.103866" lon="-5.002009">
        <ele>1317.45</ele>
        <time>2021-03-27T19:06:45Z</time>
      </trkpt>
      <trkpt lat="43.104016" lon="-5.00188">
        <ele>1322.06</ele>
        <time>2021-03-27T19:06:48Z</time>
      </trkpt>
      <trkpt lat="43.104119" lon="-5.001746">
        <ele>1324.5</ele>
        <time>2021-03-27T19:06:51Z</time>
      </trkpt>
      <trkpt lat="43.104211" lon="-5.001561">
        <ele>1323.58</ele>
        <time>2021-03-27T19:06:53Z</time>
      </trkpt>
      <trkpt lat="43.104432" lon="-5.000958">
        <ele>1316.02</ele>
        <time>2021-03-27T19:06:56Z</time>
      </trkpt>
      <trkpt lat="43.105111" lon="-4.999417">
        <ele>1325.87</ele>
        <time>2021-03-27T19:06:59Z</time>
      </trkpt>
      <trkpt lat="43.105233" lon="-4.999216">
        <ele>1326.54</ele>
        <time>2021-03-27T19:07:02Z</time>
      </trkpt>
      <trkpt lat="43.105802" lon="-4.998469">
        <ele>1328.68</ele>
        <time>2021-03-27T19:07:05Z</time>
      </trkpt>
      <trkpt lat="43.105978" lon="-4.998229">
        <ele>1332.45</ele>
        <time>2021-03-27T19:07:08Z</time>
      </trkpt>
      <trkpt lat="43.106074" lon="-4.998068">
        <ele>1333.88</ele>
        <time>2021-03-27T19:07:11Z</time>
      </trkpt>
      <trkpt lat="43.106138" lon="-4.997916">
        <ele>1334.74</ele>
        <time>2021-03-27T19:07:14Z</time>
      </trkpt>
      <trkpt lat="43.106185" lon="-4.997752">
        <ele>1335.3</ele>
        <time>2021-03-27T19:07:17Z</time>
      </trkpt>
      <trkpt lat="43.106281" lon="-4.997282">
        <ele>1335.9</ele>
        <time>2021-03-27T19:07:20Z</time>
      </trkpt>
      <trkpt lat="43.10634" lon="-4.996897">
        <ele>1333.78</ele>
        <time>2021-03-27T19:07:23Z</time>
      </trkpt>
      <trkpt lat="43.106336" lon="-4.99662">
        <ele>1333.21</ele>
        <time>2021-03-27T19:07:26Z</time>
      </trkpt>
      <trkpt lat="43.10621" lon="-4.995918">
        <ele>1338.71</ele>
        <time>2021-03-27T19:07:29Z</time>
      </trkpt>
      <trkpt lat="43.106221" lon="-4.995764">
        <ele>1340.33</ele>
        <time>2021-03-27T19:07:31Z</time>
      </trkpt>
      <trkpt lat="43.106297" lon="-4.995456">
        <ele>1343.47</ele>
        <time>2021-03-27T19:07:34Z</time>
      </trkpt>
      <trkpt lat="43.106397" lon="-4.99526">
        <ele>1345.26</ele>
        <time>2021-03-27T19:07:37Z</time>
      </trkpt>
      <trkpt lat="43.107081" lon="-4.994612">
        <ele>1355.77</ele>
        <time>2021-03-27T19:07:40Z</time>
      </trkpt>
      <trkpt lat="43.107244" lon="-4.994479">
        <ele>1357.6</ele>
        <time>2021-03-27T19:07:43Z</time>
      </trkpt>
      <trkpt lat="43.107433" lon="-4.994372">
        <ele>1359.77</ele>
        <time>2021-03-27T19:07:46Z</time>
      </trkpt>
      <trkpt lat="43.107628" lon="-4.994305">
        <ele>1362.11</ele>
        <time>2021-03-27T19:07:49Z</time>
      </trkpt>
      <trkpt lat="43.107821" lon="-4.994295">
        <ele>1364.7</ele>
        <time>2021-03-27T19:07:52Z</time>
      </trkpt>
      <trkpt lat="43.108013" lon="-4.994328">
        <ele>1368.4</ele>
        <time>2021-03-27T19:07:55Z</time>
      </trkpt>
      <trkpt lat="43.108387" lon="-4.994461">
        <ele>1374.45</ele>
        <time>2021-03-27T19:07:58Z</time>
      </trkpt>
      <trkpt lat="43.108981" lon="-4.994616">
        <ele>1376.94</ele>
        <time>2021-03-27T19:08:01Z</time>
      </trkpt>
      <trkpt lat="43.109174" lon="-4.99468">
        <ele>1374.82</ele>
        <time>2021-03-27T19:08:04Z</time>
      </trkpt>
      <trkpt lat="43.109369" lon="-4.994777">
        <ele>1374.97</ele>
        <time>2021-03-27T19:08:07Z</time>
      </trkpt>
      <trkpt lat="43.109539" lon="-4.994897">
        <ele>1376.95</ele>
        <time>2021-03-27T19:08:09Z</time>
      </trkpt>
      <trkpt lat="43.10988" lon="-4.995234">
        <ele>1383.5</ele>
        <time>2021-03-27T19:08:12Z</time>
      </trkpt>
      <trkpt lat="43.110341" lon="-4.995836">
        <ele>1388.92</ele>
        <time>2021-03-27T19:08:15Z</time>
      </trkpt>
      <trkpt lat="43.110505" lon="-4.996019">
        <ele>1390.47</ele>
        <time>2021-03-27T19:08:18Z</time>
      </trkpt>
      <trkpt lat="43.110691" lon="-4.996156">
        <ele>1392.16</ele>
        <time>2021-03-27T19:08:21Z</time>
      </trkpt>
      <trkpt lat="43.110896" lon="-4.996246">
        <ele>1393.17</ele>
        <time>2021-03-27T19:08:24Z</time>
      </trkpt>
      <trkpt lat="43.111687" lon="-4.99652">
        <ele>1396.92</ele>
        <time>2021-03-27T19:08:27Z</time>
      </trkpt>
      <trkpt lat="43.11195" lon="-4.996594">
        <ele>1394.58</ele>
        <time>2021-03-27T19:08:30Z</time>
      </trkpt>
      <trkpt lat="43.112216" lon="-4.996555">
        <ele>1400.62</ele>
        <time>2021-03-27T19:08:33Z</time>
      </trkpt>
      <trkpt lat="43.112931" lon="-4.996212">
        <ele>1406.25</ele>
        <time>2021-03-27T19:08:36Z</time>
      </trkpt>
      <trkpt lat="43.113556" lon="-4.995724">
        <ele>1405.15</ele>
        <time>2021-03-27T19:08:39Z</time>
      </trkpt>
      <trkpt lat="43.114055" lon="-4.99517">
        <ele>1408.64</ele>
        <time>2021-03-27T19:08:42Z</time>
      </trkpt>
      <trkpt lat="43.114366" lon="-4.994781">
        <ele>1414.8</ele>
        <time>2021-03-27T19:08:44Z</time>
      </trkpt>
      <trkpt lat="43.114497" lon="-4.994549">
        <ele>1416.74</ele>
        <time>2021-03-27T19:08:47Z</time>
      </trkpt>
      <trkpt lat="43.114601" lon="-4.994279">
        <ele>1416.26</ele>
        <time>2021-03-27T19:08:50Z</time>
      </trkpt>
      <trkpt lat="43.115041" lon="-4.992761">
        <ele>1420.78</ele>
        <time>2021-03-27T19:08:53Z</time>
      </trkpt>
      <trkpt lat="43.11516" lon="-4.992439">
        <ele>1422.38</ele>
        <time>2021-03-27T19:08:56Z</time>
      </trkpt>
      <trkpt lat="43.115256" lon="-4.992233">
        <ele>1421.92</ele>
        <time>2021-03-27T19:08:59Z</time>
      </trkpt>
      <trkpt lat="43.116027" lon="-4.991033">
        <ele>1439.09</ele>
        <time>2021-03-27T19:09:02Z</time>
      </trkpt>
      <trkpt lat="43.116234" lon="-4.990612">
        <ele>1439.47</ele>
        <time>2021-03-27T19:09:05Z</time>
      </trkpt>
      <trkpt lat="43.116311" lon="-4.990371">
        <ele>1440.99</ele>
        <time>2021-03-27T19:09:08Z</time>
      </trkpt>
      <trkpt lat="43.116367" lon="-4.990117">
        <ele>1442.9</ele>
        <time>2021-03-27T19:09:11Z</time>
      </trkpt>
      <trkpt lat="43.116454" lon="-4.98957">
        <ele>1443.41</ele>
        <time>2021-03-27T19:09:14Z</time>
      </trkpt>
      <trkpt lat="43.116518" lon="-4.989279">
        <ele>1440.9</ele>
        <time>2021-03-27T19:09:17Z</time>
      </trkpt>
      <trkpt lat="43.116603" lon="-4.989004">
        <ele>1440.54</ele>
        <time>2021-03-27T19:09:20Z</time>
      </trkpt>
      <trkpt lat="43.116938" lon="-4.988184">
        <ele>1452.19</ele>
        <time>2021-03-27T19:09:22Z</time>
      </trkpt>
      <trkpt lat="43.11711" lon="-4.987939">
        <ele>1450.88</ele>
        <time>2021-03-27T19:09:25Z</time>
      </trkpt>
      <trkpt lat="43.117349" lon="-4.987811">
        <ele>1446.97</ele>
        <time>2021-03-27T19:09:28Z</time>
      </trkpt>
      <trkpt lat="43.118393" lon="-4.987529">
        <ele>1455.24</ele>
        <time>2021-03-27T19:09:31Z</time>
      </trkpt>
      <trkpt lat="43.118637" lon="-4.98742">
        <ele>1453.75</ele>
        <time>2021-03-27T19:09:34Z</time>
      </trkpt>
      <trkpt lat="43.119119" lon="-4.987078">
        <ele>1455.55</ele>
        <time>2021-03-27T19:09:37Z</time>
      </trkpt>
      <trkpt lat="43.119494" lon="-4.986865">
        <ele>1457.46</ele>
        <time>2021-03-27T19:09:40Z</time>
      </trkpt>
      <trkpt lat="43.120097" lon="-4.986691">
        <ele>1460.67</ele>
        <time>2021-03-27T19:09:43Z</time>
      </trkpt>
      <trkpt lat="43.120696" lon="-4.986293">
        <ele>1460.89</ele>
        <time>2021-03-27T19:09:46Z</time>
      </trkpt>
      <trkpt lat="43.120924" lon="-4.986102">
        <ele>1462.31</ele>
        <time>2021-03-27T19:09:49Z</time>
      </trkpt>
      <trkpt lat="43.121166" lon="-4.985818">
        <ele>1466.53</ele>
        <time>2021-03-27T19:09:52Z</time>
      </trkpt>
      <trkpt lat="43.122075" lon="-4.984839">
        <ele>1471.7</ele>
        <time>2021-03-27T19:09:55Z</time>
      </trkpt>
      <trkpt lat="43.122678" lon="-4.984138">
        <ele>1466.32</ele>
        <time>2021-03-27T19:09:58Z</time>
      </trkpt>
      <trkpt lat="43.12294" lon="-4.983793">
        <ele>1466.57</ele>
        <time>2021-03-27T19:10:00Z</time>
      </trkpt>
      <trkpt lat="43.123139" lon="-4.983566">
        <ele>1469.52</ele>
        <time>2021-03-27T19:10:03Z</time>
      </trkpt>
      <trkpt lat="43.123272" lon="-4.983478">
        <ele>1473.52</ele>
        <time>2021-03-27T19:10:06Z</time>
      </trkpt>
      <trkpt lat="43.123576" lon="-4.983417">
        <ele>1468.19</ele>
        <time>2021-03-27T19:10:09Z</time>
      </trkpt>
      <trkpt lat="43.12363" lon="-4.983371">
        <ele>1467.88</ele>
        <time>2021-03-27T19:10:12Z</time>
      </trkpt>
      <trkpt lat="43.123849" lon="-4.983157">
        <ele>1463.94</ele>
        <time>2021-03-27T19:10:15Z</time>
      </trkpt>
      <trkpt lat="43.124488" lon="-4.982408">
        <ele>1457.34</ele>
        <time>2021-03-27T19:10:18Z</time>
      </trkpt>
      <trkpt lat="43.124593" lon="-4.982276">
        <ele>1457.54</ele>
        <time>2021-03-27T19:10:21Z</time>
      </trkpt>
      <trkpt lat="43.124659" lon="-4.982163">
        <ele>1457.67</ele>
        <time>2021-03-27T19:10:24Z</time>
      </trkpt>
      <trkpt lat="43.124718" lon="-4.982004">
        <ele>1457.81</ele>
        <time>2021-03-27T19:10:27Z</time>
      </trkpt>
      <trkpt lat="43.124956" lon="-4.981124">
        <ele>1463.94</ele>
        <time>2021-03-27T19:10:30Z</time>
      </trkpt>
      <trkpt lat="43.125061" lon="-4.980911">
        <ele>1458.14</ele>
        <time>2021-03-27T19:10:33Z</time>
      </trkpt>
      <trkpt lat="43.125173" lon="-4.980783">
        <ele>1455.8</ele>
        <time>2021-03-27T19:10:36Z</time>
      </trkpt>
      <trkpt lat="43.125317" lon="-4.980731">
        <ele>1454.76</ele>
        <time>2021-03-27T19:10:38Z</time>
      </trkpt>
      <trkpt lat="43.125547" lon="-4.980755">
        <ele>1452.53</ele>
        <time>2021-03-27T19:10:41Z</time>
      </trkpt>
      <trkpt lat="43.125988" lon="-4.980886">
        <ele>1457.71</ele>
        <time>2021-03-27T19:10:44Z</time>
      </trkpt>
      <trkpt lat="43.126044" lon="-4.980876">
        <ele>1459.57</ele>
        <time>2021-03-27T19:10:47Z</time>
      </trkpt>
      <trkpt lat="43.126095" lon="-4.980835">
        <ele>1461.42</ele>
        <time>2021-03-27T19:10:50Z</time>
      </trkpt>
      <trkpt lat="43.126226" lon="-4.98056">
        <ele>1459.43</ele>
        <time>2021-03-27T19:10:53Z</time>
      </trkpt>
      <trkpt lat="43.126327" lon="-4.980292">
        <ele>1453.91</ele>
        <time>2021-03-27T19:10:56Z</time>
      </trkpt>
      <trkpt lat="43.126524" lon="-4.979981">
        <ele>1447.2</ele>
        <time>2021-03-27T19:10:59Z</time>
      </trkpt>
      <trkpt lat="43.127069" lon="-4.979297">
        <ele>1440.97</ele>
        <time>2021-03-27T19:11:02Z</time>
      </trkpt>
      <trkpt lat="43.127502" lon="-4.978839">
        <ele>1428.59</ele>
        <time>2021-03-27T19:11:05Z</time>
      </trkpt>
      <trkpt lat="43.127637" lon="-4.978712">
        <ele>1426.13</ele>
        <time>2021-03-27T19:11:08Z</time>
      </trkpt>
      <trkpt lat="43.127734" lon="-4.978649">
        <ele>1424.4</ele>
        <time>2021-03-27T19:11:11Z</time>
      </trkpt>
      <trkpt lat="43.127848" lon="-4.978617">
        <ele>1423.79</ele>
        <time>2021-03-27T19:11:14Z</time>
      </trkpt>
      <trkpt lat="43.128037" lon="-4.978618">
        <ele>1425.21</ele>
        <time>2021-03-27T19:11:16Z</time>
      </trkpt>
      <trkpt lat="43.128471" lon="-4.978769">
        <ele>1427.85</ele>
        <time>2021-03-27T19:11:19Z</time>
      </trkpt>
      <trkpt lat="43.128548" lon="-4.978777">
        <ele>1425.9</ele>
        <time>2021-03-27T19:11:22Z</time>
      </trkpt>
      <trkpt lat="43.128609" lon="-4.978766">
        <ele>1423.43</ele>
        <time>2021-03-27T19:11:25Z</time>
      </trkpt>
      <trkpt lat="43.12879" lon="-4.978664">
        <ele>1414.4</ele>
        <time>2021-03-27T19:11:28Z</time>
      </trkpt>
      <trkpt lat="43.128895" lon="-4.978638">
        <ele>1411.27</ele>
        <time>2021-03-27T19:11:31Z</time>
      </trkpt>
      <trkpt lat="43.129042" lon="-4.978652">
        <ele>1411.76</ele>
        <time>2021-03-27T19:11:34Z</time>
      </trkpt>
      <trkpt lat="43.12938" lon="-4.978855">
        <ele>1420.06</ele>
        <time>2021-03-27T19:11:37Z</time>
      </trkpt>
      <trkpt lat="43.12984" lon="-4.979021">
        <ele>1415.86</ele>
        <time>2021-03-27T19:11:40Z</time>
      </trkpt>
      <trkpt lat="43.129917" lon="-4.979088">
        <ele>1414.8</ele>
        <time>2021-03-27T19:11:43Z</time>
      </trkpt>
      <trkpt lat="43.129987" lon="-4.979201">
        <ele>1415.35</ele>
        <time>2021-03-27T19:11:46Z</time>
      </trkpt>
      <trkpt lat="43.130086" lon="-4.979521">
        <ele>1420.52</ele>
        <time>2021-03-27T19:11:49Z</time>
      </trkpt>
      <trkpt lat="43.130133" lon="-4.97961">
        <ele>1422.13</ele>
        <time>2021-03-27T19:11:51Z</time>
      </trkpt>
      <trkpt lat="43.13021" lon="-4.979683">
        <ele>1421.57</ele>
        <time>2021-03-27T19:11:54Z</time>
      </trkpt>
      <trkpt lat="43.13033" lon="-4.979706">
        <ele>1418.02</ele>
        <time>2021-03-27T19:11:57Z</time>
      </trkpt>
      <trkpt lat="43.130733" lon="-4.979602">
        <ele>1405.39</ele>
        <time>2021-03-27T19:12:00Z</time>
      </trkpt>
      <trkpt lat="43.130841" lon="-4.979512">
        <ele>1400.66</ele>
        <time>2021-03-27T19:12:03Z</time>
      </trkpt>
      <trkpt lat="43.130983" lon="-4.979245">
        <ele>1390.29</ele>
        <time>2021-03-27T19:12:06Z</time>
      </trkpt>
      <trkpt lat="43.13114" lon="-4.979136">
        <ele>1386.57</ele>
        <time>2021-03-27T19:12:09Z</time>
      </trkpt>
      <trkpt lat="43.131205" lon="-4.979125">
        <ele>1387.66</ele>
        <time>2021-03-27T19:12:12Z</time>
      </trkpt>
      <trkpt lat="43.131489" lon="-4.979153">
        <ele>1396.59</ele>
        <time>2021-03-27T19:12:15Z</time>
      </trkpt>
      <trkpt lat="43.131569" lon="-4.979109">
        <ele>1397.33</ele>
        <time>2021-03-27T19:12:18Z</time>
      </trkpt>
      <trkpt lat="43.131616" lon="-4.979053">
        <ele>1396.64</ele>
        <time>2021-03-27T19:12:21Z</time>
      </trkpt>
      <trkpt lat="43.131831" lon="-4.978239">
        <ele>1380.18</ele>
        <time>2021-03-27T19:12:24Z</time>
      </trkpt>
      <trkpt lat="43.132028" lon="-4.977949">
        <ele>1382.2</ele>
        <time>2021-03-27T19:12:27Z</time>
      </trkpt>
      <trkpt lat="43.132083" lon="-4.977799">
        <ele>1382.75</ele>
        <time>2021-03-27T19:12:29Z</time>
      </trkpt>
      <trkpt lat="43.132082" lon="-4.977719">
        <ele>1382.02</ele>
        <time>2021-03-27T19:12:32Z</time>
      </trkpt>
      <trkpt lat="43.131965" lon="-4.97727">
        <ele>1372.48</ele>
        <time>2021-03-27T19:12:35Z</time>
      </trkpt>
      <trkpt lat="43.131935" lon="-4.977081">
        <ele>1369.3</ele>
        <time>2021-03-27T19:12:38Z</time>
      </trkpt>
      <trkpt lat="43.131928" lon="-4.976898">
        <ele>1367.57</ele>
        <time>2021-03-27T19:12:41Z</time>
      </trkpt>
      <trkpt lat="43.131956" lon="-4.976572">
        <ele>1367.61</ele>
        <time>2021-03-27T19:12:44Z</time>
      </trkpt>
      <trkpt lat="43.132095" lon="-4.975983">
        <ele>1363.55</ele>
        <time>2021-03-27T19:12:47Z</time>
      </trkpt>
      <trkpt lat="43.132128" lon="-4.975688">
        <ele>1357.94</ele>
        <time>2021-03-27T19:12:50Z</time>
      </trkpt>
      <trkpt lat="43.132151" lon="-4.974106">
        <ele>1343.97</ele>
        <time>2021-03-27T19:12:53Z</time>
      </trkpt>
      <trkpt lat="43.132123" lon="-4.973763">
        <ele>1335.43</ele>
        <time>2021-03-27T19:12:56Z</time>
      </trkpt>
      <trkpt lat="43.132071" lon="-4.973518">
        <ele>1331.98</ele>
        <time>2021-03-27T19:12:59Z</time>
      </trkpt>
      <trkpt lat="43.131857" lon="-4.972753">
        <ele>1329.95</ele>
        <time>2021-03-27T19:13:02Z</time>
      </trkpt>
      <trkpt lat="43.131612" lon="-4.972163">
        <ele>1329.84</ele>
        <time>2021-03-27T19:13:05Z</time>
      </trkpt>
      <trkpt lat="43.131346" lon="-4.971184">
        <ele>1335.84</ele>
        <time>2021-03-27T19:13:07Z</time>
      </trkpt>
      <trkpt lat="43.131268" lon="-4.971052">
        <ele>1335.45</ele>
        <time>2021-03-27T19:13:10Z</time>
      </trkpt>
      <trkpt lat="43.131201" lon="-4.970987">
        <ele>1334.61</ele>
        <time>2021-03-27T19:13:13Z</time>
      </trkpt>
      <trkpt lat="43.130885" lon="-4.97095">
        <ele>1323.14</ele>
        <time>2021-03-27T19:13:16Z</time>
      </trkpt>
      <trkpt lat="43.130682" lon="-4.970863">
        <ele>1318.52</ele>
        <time>2021-03-27T19:13:19Z</time>
      </trkpt>
      <trkpt lat="43.13056" lon="-4.970706">
        <ele>1318.38</ele>
        <time>2021-03-27T19:13:22Z</time>
      </trkpt>
      <trkpt lat="43.130295" lon="-4.970129">
        <ele>1323.69</ele>
        <time>2021-03-27T19:13:25Z</time>
      </trkpt>
      <trkpt lat="43.129861" lon="-4.96953">
        <ele>1309.8</ele>
        <time>2021-03-27T19:13:28Z</time>
      </trkpt>
      <trkpt lat="43.129765" lon="-4.969363">
        <ele>1307.91</ele>
        <time>2021-03-27T19:13:31Z</time>
      </trkpt>
      <trkpt lat="43.129721" lon="-4.969256">
        <ele>1306.99</ele>
        <time>2021-03-27T19:13:34Z</time>
      </trkpt>
      <trkpt lat="43.129669" lon="-4.968988">
        <ele>1306.66</ele>
        <time>2021-03-27T19:13:37Z</time>
      </trkpt>
      <trkpt lat="43.129657" lon="-4.968462">
        <ele>1303.39</ele>
        <time>2021-03-27T19:13:40Z</time>
      </trkpt>
      <trkpt lat="43.129639" lon="-4.968344">
        <ele>1300.89</ele>
        <time>2021-03-27T19:13:43Z</time>
      </trkpt>
      <trkpt lat="43.129602" lon="-4.968263">
        <ele>1297.61</ele>
        <time>2021-03-27T19:13:45Z</time>
      </trkpt>
      <trkpt lat="43.129559" lon="-4.96821">
        <ele>1294.59</ele>
        <time>2021-03-27T19:13:48Z</time>
      </trkpt>
      <trkpt lat="43.129458" lon="-4.968188">
        <ele>1289.88</ele>
        <time>2021-03-27T19:13:51Z</time>
      </trkpt>
      <trkpt lat="43.129386" lon="-4.968236">
        <ele>1288.36</ele>
        <time>2021-03-27T19:13:54Z</time>
      </trkpt>
      <trkpt lat="43.129315" lon="-4.968367">
        <ele>1288.96</ele>
        <time>2021-03-27T19:13:57Z</time>
      </trkpt>
      <trkpt lat="43.129286" lon="-4.968602">
        <ele>1292.13</ele>
        <time>2021-03-27T19:14:00Z</time>
      </trkpt>
      <trkpt lat="43.129281" lon="-4.969068">
        <ele>1292.41</ele>
        <time>2021-03-27T19:14:03Z</time>
      </trkpt>
      <trkpt lat="43.129296" lon="-4.969225">
        <ele>1291.57</ele>
        <time>2021-03-27T19:14:06Z</time>
      </trkpt>
      <trkpt lat="43.129367" lon="-4.969437">
        <ele>1291.15</ele>
        <time>2021-03-27T19:14:09Z</time>
      </trkpt>
      <trkpt lat="43.129548" lon="-4.969737">
        <ele>1292.56</ele>
        <time>2021-03-27T19:14:12Z</time>
      </trkpt>
      <trkpt lat="43.12987" lon="-4.970374">
        <ele>1294.38</ele>
        <time>2021-03-27T19:14:15Z</time>
      </trkpt>
      <trkpt lat="43.129901" lon="-4.970566">
        <ele>1293.6</ele>
        <time>2021-03-27T19:14:18Z</time>
      </trkpt>
      <trkpt lat="43.129886" lon="-4.971035">
        <ele>1287.72</ele>
        <time>2021-03-27T19:14:21Z</time>
      </trkpt>
      <trkpt lat="43.129906" lon="-4.971218">
        <ele>1286.2</ele>
        <time>2021-03-27T19:14:23Z</time>
      </trkpt>
      <trkpt lat="43.129944" lon="-4.971368">
        <ele>1285.84</ele>
        <time>2021-03-27T19:14:26Z</time>
      </trkpt>
      <trkpt lat="43.130431" lon="-4.972299">
        <ele>1282.48</ele>
        <time>2021-03-27T19:14:29Z</time>
      </trkpt>
      <trkpt lat="43.130484" lon="-4.972489">
        <ele>1285.18</ele>
        <time>2021-03-27T19:14:32Z</time>
      </trkpt>
      <trkpt lat="43.130454" lon="-4.972713">
        <ele>1283.51</ele>
        <time>2021-03-27T19:14:35Z</time>
      </trkpt>
      <trkpt lat="43.130315" lon="-4.973182">
        <ele>1277.88</ele>
        <time>2021-03-27T19:14:38Z</time>
      </trkpt>
      <trkpt lat="43.130294" lon="-4.97356">
        <ele>1274.34</ele>
        <time>2021-03-27T19:14:41Z</time>
      </trkpt>
      <trkpt lat="43.130312" lon="-4.974128">
        <ele>1266.42</ele>
        <time>2021-03-27T19:14:44Z</time>
      </trkpt>
      <trkpt lat="43.13031" lon="-4.975154">
        <ele>1267.12</ele>
        <time>2021-03-27T19:14:47Z</time>
      </trkpt>
      <trkpt lat="43.130284" lon="-4.975317">
        <ele>1266.09</ele>
        <time>2021-03-27T19:14:50Z</time>
      </trkpt>
      <trkpt lat="43.130226" lon="-4.975479">
        <ele>1264.97</ele>
        <time>2021-03-27T19:14:53Z</time>
      </trkpt>
      <trkpt lat="43.130109" lon="-4.975586">
        <ele>1265.48</ele>
        <time>2021-03-27T19:14:56Z</time>
      </trkpt>
      <trkpt lat="43.129942" lon="-4.975608">
        <ele>1267.12</ele>
        <time>2021-03-27T19:14:59Z</time>
      </trkpt>
      <trkpt lat="43.129802" lon="-4.975572">
        <ele>1269.15</ele>
        <time>2021-03-27T19:15:01Z</time>
      </trkpt>
      <trkpt lat="43.129527" lon="-4.975289">
        <ele>1265.81</ele>
        <time>2021-03-27T19:15:04Z</time>
      </trkpt>
      <trkpt lat="43.129025" lon="-4.974656">
        <ele>1248.52</ele>
        <time>2021-03-27T19:15:07Z</time>
      </trkpt>
      <trkpt lat="43.127996" lon="-4.973826">
        <ele>1241.85</ele>
        <time>2021-03-27T19:15:10Z</time>
      </trkpt>
      <trkpt lat="43.12784" lon="-4.973724">
        <ele>1238.8</ele>
        <time>2021-03-27T19:15:13Z</time>
      </trkpt>
      <trkpt lat="43.127555" lon="-4.973592">
        <ele>1235.94</ele>
        <time>2021-03-27T19:15:16Z</time>
      </trkpt>
      <trkpt lat="43.127469" lon="-4.973446">
        <ele>1237.31</ele>
        <time>2021-03-27T19:15:19Z</time>
      </trkpt>
      <trkpt lat="43.127433" lon="-4.973276">
        <ele>1239.7</ele>
        <time>2021-03-27T19:15:22Z</time>
      </trkpt>
      <trkpt lat="43.127537" lon="-4.97297">
        <ele>1236.94</ele>
        <time>2021-03-27T19:15:25Z</time>
      </trkpt>
      <trkpt lat="43.127656" lon="-4.972739">
        <ele>1233.61</ele>
        <time>2021-03-27T19:15:28Z</time>
      </trkpt>
      <trkpt lat="43.127853" lon="-4.972449">
        <ele>1230.47</ele>
        <time>2021-03-27T19:15:31Z</time>
      </trkpt>
      <trkpt lat="43.127967" lon="-4.972202">
        <ele>1227.4</ele>
        <time>2021-03-27T19:15:34Z</time>
      </trkpt>
      <trkpt lat="43.128004" lon="-4.972012">
        <ele>1224.61</ele>
        <time>2021-03-27T19:15:36Z</time>
      </trkpt>
      <trkpt lat="43.127978" lon="-4.971852">
        <ele>1222.88</ele>
        <time>2021-03-27T19:15:39Z</time>
      </trkpt>
      <trkpt lat="43.127885" lon="-4.971637">
        <ele>1221.58</ele>
        <time>2021-03-27T19:15:42Z</time>
      </trkpt>
      <trkpt lat="43.127587" lon="-4.971201">
        <ele>1220.85</ele>
        <time>2021-03-27T19:15:45Z</time>
      </trkpt>
      <trkpt lat="43.127257" lon="-4.970389">
        <ele>1217.77</ele>
        <time>2021-03-27T19:15:48Z</time>
      </trkpt>
      <trkpt lat="43.12706" lon="-4.969953">
        <ele>1218.09</ele>
        <time>2021-03-27T19:15:51Z</time>
      </trkpt>
      <trkpt lat="43.126681" lon="-4.969348">
        <ele>1219.44</ele>
        <time>2021-03-27T19:15:54Z</time>
      </trkpt>
      <trkpt lat="43.126507" lon="-4.969011">
        <ele>1221.23</ele>
        <time>2021-03-27T19:15:57Z</time>
      </trkpt>
      <trkpt lat="43.126492" lon="-4.968797">
        <ele>1217.38</ele>
        <time>2021-03-27T19:16:00Z</time>
      </trkpt>
      <trkpt lat="43.126497" lon="-4.968199">
        <ele>1205.24</ele>
        <time>2021-03-27T19:16:03Z</time>
      </trkpt>
      <trkpt lat="43.126469" lon="-4.967984">
        <ele>1199.78</ele>
        <time>2021-03-27T19:16:06Z</time>
      </trkpt>
      <trkpt lat="43.126383" lon="-4.967843">
        <ele>1196.79</ele>
        <time>2021-03-27T19:16:09Z</time>
      </trkpt>
      <trkpt lat="43.126294" lon="-4.967786">
        <ele>1193.71</ele>
        <time>2021-03-27T19:16:12Z</time>
      </trkpt>
      <trkpt lat="43.126148" lon="-4.967788">
        <ele>1192.81</ele>
        <time>2021-03-27T19:16:14Z</time>
      </trkpt>
      <trkpt lat="43.125866" lon="-4.96794">
        <ele>1202.22</ele>
        <time>2021-03-27T19:16:17Z</time>
      </trkpt>
      <trkpt lat="43.125085" lon="-4.968107">
        <ele>1210.89</ele>
        <time>2021-03-27T19:16:20Z</time>
      </trkpt>
      <trkpt lat="43.124945" lon="-4.968013">
        <ele>1207.13</ele>
        <time>2021-03-27T19:16:23Z</time>
      </trkpt>
      <trkpt lat="43.124881" lon="-4.967874">
        <ele>1204.59</ele>
        <time>2021-03-27T19:16:26Z</time>
      </trkpt>
      <trkpt lat="43.124882" lon="-4.967681">
        <ele>1201.51</ele>
        <time>2021-03-27T19:16:29Z</time>
      </trkpt>
      <trkpt lat="43.124932" lon="-4.967459">
        <ele>1198.49</ele>
        <time>2021-03-27T19:16:32Z</time>
      </trkpt>
      <trkpt lat="43.125218" lon="-4.966993">
        <ele>1199.07</ele>
        <time>2021-03-27T19:16:35Z</time>
      </trkpt>
      <trkpt lat="43.125414" lon="-4.966781">
        <ele>1199.09</ele>
        <time>2021-03-27T19:16:38Z</time>
      </trkpt>
      <trkpt lat="43.125724" lon="-4.966526">
        <ele>1195.99</ele>
        <time>2021-03-27T19:16:41Z</time>
      </trkpt>
      <trkpt lat="43.125962" lon="-4.966375">
        <ele>1194.67</ele>
        <time>2021-03-27T19:16:44Z</time>
      </trkpt>
      <trkpt lat="43.12645" lon="-4.966117">
        <ele>1192.85</ele>
        <time>2021-03-27T19:16:47Z</time>
      </trkpt>
      <trkpt lat="43.126631" lon="-4.965975">
        <ele>1191.79</ele>
        <time>2021-03-27T19:16:50Z</time>
      </trkpt>
      <trkpt lat="43.126833" lon="-4.965753">
        <ele>1191.78</ele>
        <time>2021-03-27T19:16:52Z</time>
      </trkpt>
      <trkpt lat="43.127408" lon="-4.964888">
        <ele>1191.05</ele>
        <time>2021-03-27T19:16:55Z</time>
      </trkpt>
      <trkpt lat="43.127526" lon="-4.964664">
        <ele>1189.79</ele>
        <time>2021-03-27T19:16:58Z</time>
      </trkpt>
      <trkpt lat="43.127615" lon="-4.964407">
        <ele>1189.2</ele>
        <time>2021-03-27T19:17:01Z</time>
      </trkpt>
      <trkpt lat="43.127678" lon="-4.964133">
        <ele>1188.32</ele>
        <time>2021-03-27T19:17:04Z</time>
      </trkpt>
      <trkpt lat="43.127704" lon="-4.963531">
        <ele>1187.95</ele>
        <time>2021-03-27T19:17:07Z</time>
      </trkpt>
      <trkpt lat="43.127731" lon="-4.963241">
        <ele>1183.59</ele>
        <time>2021-03-27T19:17:10Z</time>
      </trkpt>
      <trkpt lat="43.127816" lon="-4.962997">
        <ele>1178.85</ele>
        <time>2021-03-27T19:17:13Z</time>
      </trkpt>
      <trkpt lat="43.127957" lon="-4.962787">
        <ele>1177.73</ele>
        <time>2021-03-27T19:17:16Z</time>
      </trkpt>
      <trkpt lat="43.128322" lon="-4.962425">
        <ele>1188.01</ele>
        <time>2021-03-27T19:17:19Z</time>
      </trkpt>
      <trkpt lat="43.128539" lon="-4.962294">
        <ele>1191.87</ele>
        <time>2021-03-27T19:17:22Z</time>
      </trkpt>
      <trkpt lat="43.129373" lon="-4.962319">
        <ele>1176.03</ele>
        <time>2021-03-27T19:17:25Z</time>
      </trkpt>
      <trkpt lat="43.12956" lon="-4.962299">
        <ele>1176.31</ele>
        <time>2021-03-27T19:17:28Z</time>
      </trkpt>
      <trkpt lat="43.129932" lon="-4.962206">
        <ele>1177.76</ele>
        <time>2021-03-27T19:17:30Z</time>
      </trkpt>
      <trkpt lat="43.130175" lon="-4.962109">
        <ele>1178.39</ele>
        <time>2021-03-27T19:17:33Z</time>
      </trkpt>
      <trkpt lat="43.130708" lon="-4.961826">
        <ele>1174.86</ele>
        <time>2021-03-27T19:17:36Z</time>
      </trkpt>
      <trkpt lat="43.131363" lon="-4.961363">
        <ele>1173.93</ele>
        <time>2021-03-27T19:17:39Z</time>
      </trkpt>
      <trkpt lat="43.132522" lon="-4.960675">
        <ele>1163.71</ele>
        <time>2021-03-27T19:17:42Z</time>
      </trkpt>
      <trkpt lat="43.132705" lon="-4.960546">
        <ele>1160.55</ele>
        <time>2021-03-27T19:17:45Z</time>
      </trkpt>
      <trkpt lat="43.133113" lon="-4.960181">
        <ele>1154.85</ele>
        <time>2021-03-27T19:17:48Z</time>
      </trkpt>
      <trkpt lat="43.133797" lon="-4.959634">
        <ele>1154.18</ele>
        <time>2021-03-27T19:17:51Z</time>
      </trkpt>
      <trkpt lat="43.134241" lon="-4.95925">
        <ele>1148.96</ele>
        <time>2021-03-27T19:17:54Z</time>
      </trkpt>
      <trkpt lat="43.134834" lon="-4.958891">
        <ele>1140.12</ele>
        <time>2021-03-27T19:17:57Z</time>
      </trkpt>
      <trkpt lat="43.135013" lon="-4.958727">
        <ele>1140.84</ele>
        <time>2021-03-27T19:18:00Z</time>
      </trkpt>
      <trkpt lat="43.135165" lon="-4.958513">
        <ele>1142.27</ele>
        <time>2021-03-27T19:18:03Z</time>
      </trkpt>
      <trkpt lat="43.135474" lon="-4.95802">
        <ele>1144.16</ele>
        <time>2021-03-27T19:18:06Z</time>
      </trkpt>
      <trkpt lat="43.13588" lon="-4.95755">
        <ele>1144.79</ele>
        <time>2021-03-27T19:18:08Z</time>
      </trkpt>
      <trkpt lat="43.136265" lon="-4.957141">
        <ele>1131.27</ele>
        <time>2021-03-27T19:18:11Z</time>
      </trkpt>
      <trkpt lat="43.136421" lon="-4.956908">
        <ele>1126.42</ele>
        <time>2021-03-27T19:18:14Z</time>
      </trkpt>
      <trkpt lat="43.136557" lon="-4.95666">
        <ele>1123.8</ele>
        <time>2021-03-27T19:18:17Z</time>
      </trkpt>
      <trkpt lat="43.136914" lon="-4.95588">
        <ele>1122.9</ele>
        <time>2021-03-27T19:18:20Z</time>
      </trkpt>
      <trkpt lat="43.137136" lon="-4.955318">
        <ele>1112.91</ele>
        <time>2021-03-27T19:18:23Z</time>
      </trkpt>
      <trkpt lat="43.137301" lon="-4.954703">
        <ele>1108.56</ele>
        <time>2021-03-27T19:18:26Z</time>
      </trkpt>
      <trkpt lat="43.13735" lon="-4.954396">
        <ele>1106.61</ele>
        <time>2021-03-27T19:18:29Z</time>
      </trkpt>
      <trkpt lat="43.137343" lon="-4.954083">
        <ele>1102.15</ele>
        <time>2021-03-27T19:18:32Z</time>
      </trkpt>
      <trkpt lat="43.137283" lon="-4.953795">
        <ele>1097.28</ele>
        <time>2021-03-27T19:18:35Z</time>
      </trkpt>
      <trkpt lat="43.13717" lon="-4.953569">
        <ele>1093.99</ele>
        <time>2021-03-27T19:18:38Z</time>
      </trkpt>
      <trkpt lat="43.136998" lon="-4.95345">
        <ele>1091.88</ele>
        <time>2021-03-27T19:18:41Z</time>
      </trkpt>
      <trkpt lat="43.136807" lon="-4.953481">
        <ele>1092.92</ele>
        <time>2021-03-27T19:18:44Z</time>
      </trkpt>
      <trkpt lat="43.13657" lon="-4.953581">
        <ele>1095.46</ele>
        <time>2021-03-27T19:18:46Z</time>
      </trkpt>
      <trkpt lat="43.136388" lon="-4.953518">
        <ele>1095.01</ele>
        <time>2021-03-27T19:18:49Z</time>
      </trkpt>
      <trkpt lat="43.136296" lon="-4.953282">
        <ele>1096.1</ele>
        <time>2021-03-27T19:18:52Z</time>
      </trkpt>
      <trkpt lat="43.136352" lon="-4.952997">
        <ele>1096.85</ele>
        <time>2021-03-27T19:18:55Z</time>
      </trkpt>
      <trkpt lat="43.136525" lon="-4.952702">
        <ele>1093.69</ele>
        <time>2021-03-27T19:18:58Z</time>
      </trkpt>
      <trkpt lat="43.136957" lon="-4.952106">
        <ele>1090.69</ele>
        <time>2021-03-27T19:19:01Z</time>
      </trkpt>
      <trkpt lat="43.137195" lon="-4.951666">
        <ele>1087.3</ele>
        <time>2021-03-27T19:19:04Z</time>
      </trkpt>
      <trkpt lat="43.13729" lon="-4.951441">
        <ele>1087.21</ele>
        <time>2021-03-27T19:19:07Z</time>
      </trkpt>
      <trkpt lat="43.137365" lon="-4.951168">
        <ele>1085.51</ele>
        <time>2021-03-27T19:19:10Z</time>
      </trkpt>
      <trkpt lat="43.137425" lon="-4.950853">
        <ele>1081.6</ele>
        <time>2021-03-27T19:19:13Z</time>
      </trkpt>
      <trkpt lat="43.137591" lon="-4.949835">
        <ele>1077.35</ele>
        <time>2021-03-27T19:19:16Z</time>
      </trkpt>
      <trkpt lat="43.137593" lon="-4.949518">
        <ele>1075.79</ele>
        <time>2021-03-27T19:19:19Z</time>
      </trkpt>
      <trkpt lat="43.137557" lon="-4.949229">
        <ele>1071.67</ele>
        <time>2021-03-27T19:19:21Z</time>
      </trkpt>
      <trkpt lat="43.137475" lon="-4.948969">
        <ele>1069.41</ele>
        <time>2021-03-27T19:19:24Z</time>
      </trkpt>
      <trkpt lat="43.137353" lon="-4.948731">
        <ele>1069.77</ele>
        <time>2021-03-27T19:19:27Z</time>
      </trkpt>
      <trkpt lat="43.136261" lon="-4.947457">
        <ele>1073.69</ele>
        <time>2021-03-27T19:19:30Z</time>
      </trkpt>
      <trkpt lat="43.136127" lon="-4.947272">
        <ele>1069.08</ele>
        <time>2021-03-27T19:19:33Z</time>
      </trkpt>
      <trkpt lat="43.13605" lon="-4.947043">
        <ele>1063.83</ele>
        <time>2021-03-27T19:19:36Z</time>
      </trkpt>
      <trkpt lat="43.136121" lon="-4.946756">
        <ele>1057.22</ele>
        <time>2021-03-27T19:19:39Z</time>
      </trkpt>
      <trkpt lat="43.136275" lon="-4.946511">
        <ele>1058.61</ele>
        <time>2021-03-27T19:19:42Z</time>
      </trkpt>
      <trkpt lat="43.136496" lon="-4.946455">
        <ele>1060.17</ele>
        <time>2021-03-27T19:19:45Z</time>
      </trkpt>
      <trkpt lat="43.136982" lon="-4.946695">
        <ele>1059.59</ele>
        <time>2021-03-27T19:19:48Z</time>
      </trkpt>
      <trkpt lat="43.137251" lon="-4.946752">
        <ele>1058.71</ele>
        <time>2021-03-27T19:19:51Z</time>
      </trkpt>
      <trkpt lat="43.137515" lon="-4.946737">
        <ele>1058.43</ele>
        <time>2021-03-27T19:19:54Z</time>
      </trkpt>
      <trkpt lat="43.137764" lon="-4.946633">
        <ele>1059.55</ele>
        <time>2021-03-27T19:19:57Z</time>
      </trkpt>
      <trkpt lat="43.137931" lon="-4.946503">
        <ele>1058.82</ele>
        <time>2021-03-27T19:19:59Z</time>
      </trkpt>
      <trkpt lat="43.138096" lon="-4.946338">
        <ele>1058.21</ele>
        <time>2021-03-27T19:20:02Z</time>
      </trkpt>
      <trkpt lat="43.138558" lon="-4.945823">
        <ele>1055.4</ele>
        <time>2021-03-27T19:20:05Z</time>
      </trkpt>
      <trkpt lat="43.139182" lon="-4.945093">
        <ele>1056.55</ele>
        <time>2021-03-27T19:20:08Z</time>
      </trkpt>
      <trkpt lat="43.139318" lon="-4.944886">
        <ele>1057.29</ele>
        <time>2021-03-27T19:20:11Z</time>
      </trkpt>
      <trkpt lat="43.139575" lon="-4.944418">
        <ele>1055.59</ele>
        <time>2021-03-27T19:20:14Z</time>
      </trkpt>
      <trkpt lat="43.139945" lon="-4.94367">
        <ele>1049.2</ele>
        <time>2021-03-27T19:20:17Z</time>
      </trkpt>
      <trkpt lat="43.140123" lon="-4.943153">
        <ele>1042.88</ele>
        <time>2021-03-27T19:20:20Z</time>
      </trkpt>
      <trkpt lat="43.140392" lon="-4.941223">
        <ele>1033.74</ele>
        <time>2021-03-27T19:20:23Z</time>
      </trkpt>
      <trkpt lat="43.1404" lon="-4.940959">
        <ele>1029.71</ele>
        <time>2021-03-27T19:20:26Z</time>
      </trkpt>
      <trkpt lat="43.140352" lon="-4.940677">
        <ele>1026.0</ele>
        <time>2021-03-27T19:20:29Z</time>
      </trkpt>
      <trkpt lat="43.140198" lon="-4.940164">
        <ele>1025.31</ele>
        <time>2021-03-27T19:20:32Z</time>
      </trkpt>
      <trkpt lat="43.140173" lon="-4.940012">
        <ele>1025.53</ele>
        <time>2021-03-27T19:20:35Z</time>
      </trkpt>
      <trkpt lat="43.140196" lon="-4.939816">
        <ele>1024.23</ele>
        <time>2021-03-27T19:20:37Z</time>
      </trkpt>
      <trkpt lat="43.140245" lon="-4.939644">
        <ele>1022.76</ele>
        <time>2021-03-27T19:20:40Z</time>
      </trkpt>
      <trkpt lat="43.140375" lon="-4.939325">
        <ele>1018.52</ele>
        <time>2021-03-27T19:20:43Z</time>
      </trkpt>
      <trkpt lat="43.140429" lon="-4.939145">
        <ele>1016.9</ele>
        <time>2021-03-27T19:20:46Z</time>
      </trkpt>
      <trkpt lat="43.140423" lon="-4.938982">
        <ele>1014.71</ele>
        <time>2021-03-27T19:20:49Z</time>
      </trkpt>
      <trkpt lat="43.140375" lon="-4.93885">
        <ele>1013.56</ele>
        <time>2021-03-27T19:20:52Z</time>
      </trkpt>
      <trkpt lat="43.140269" lon="-4.938727">
        <ele>1013.35</ele>
        <time>2021-03-27T19:20:55Z</time>
      </trkpt>
      <trkpt lat="43.139934" lon="-4.938399">
        <ele>1013.9</ele>
        <time>2021-03-27T19:20:58Z</time>
      </trkpt>
      <trkpt lat="43.139879" lon="-4.938319">
        <ele>1013.16</ele>
        <time>2021-03-27T19:21:01Z</time>
      </trkpt>
      <trkpt lat="43.139859" lon="-4.938255">
        <ele>1012.22</ele>
        <time>2021-03-27T19:21:04Z</time>
      </trkpt>
      <trkpt lat="43.139859" lon="-4.938089">
        <ele>1008.33</ele>
        <time>2021-03-27T19:21:07Z</time>
      </trkpt>
      <trkpt lat="43.139891" lon="-4.937965">
        <ele>1005.97</ele>
        <time>2021-03-27T19:21:10Z</time>
      </trkpt>
      <trkpt lat="43.140011" lon="-4.93777">
        <ele>1001.88</ele>
        <time>2021-03-27T19:21:13Z</time>
      </trkpt>
      <trkpt lat="43.140169" lon="-4.937654">
        <ele>1000.98</ele>
        <time>2021-03-27T19:21:15Z</time>
      </trkpt>
      <trkpt lat="43.14066" lon="-4.937392">
        <ele>1003.14</ele>
        <time>2021-03-27T19:21:18Z</time>
      </trkpt>
      <trkpt lat="43.140935" lon="-4.937327">
        <ele>1002.22</ele>
        <time>2021-03-27T19:21:21Z</time>
      </trkpt>
      <trkpt lat="43.141322" lon="-4.937288">
        <ele>1002.68</ele>
        <time>2021-03-27T19:21:24Z</time>
      </trkpt>
      <trkpt lat="43.141785" lon="-4.937443">
        <ele>996.91</ele>
        <time>2021-03-27T19:21:27Z</time>
      </trkpt>
      <trkpt lat="43.141906" lon="-4.937467">
        <ele>995.16</ele>
        <time>2021-03-27T19:21:30Z</time>
      </trkpt>
      <trkpt lat="43.142031" lon="-4.937444">
        <ele>992.53</ele>
        <time>2021-03-27T19:21:33Z</time>
      </trkpt>
      <trkpt lat="43.142166" lon="-4.937364">
        <ele>989.85</ele>
        <time>2021-03-27T19:21:36Z</time>
      </trkpt>
      <trkpt lat="43.142333" lon="-4.937182">
        <ele>990.33</ele>
        <time>2021-03-27T19:21:39Z</time>
      </trkpt>
      <trkpt lat="43.142464" lon="-4.937">
        <ele>993.25</ele>
        <time>2021-03-27T19:21:42Z</time>
      </trkpt>
      <trkpt lat="43.142656" lon="-4.936609">
        <ele>992.12</ele>
        <time>2021-03-27T19:21:45Z</time>
      </trkpt>
      <trkpt lat="43.142778" lon="-4.936307">
        <ele>990.75</ele>
        <time>2021-03-27T19:21:48Z</time>
      </trkpt>
      <trkpt lat="43.142878" lon="-4.935891">
        <ele>990.96</ele>
        <time>2021-03-27T19:21:51Z</time>
      </trkpt>
      <trkpt lat="43.14316" lon="-4.93529">
        <ele>979.85</ele>
        <time>2021-03-27T19:21:53Z</time>
      </trkpt>
      <trkpt lat="43.14361" lon="-4.934257">
        <ele>971.39</ele>
        <time>2021-03-27T19:21:56Z</time>
      </trkpt>
      <trkpt lat="43.143764" lon="-4.933989">
        <ele>970.58</ele>
        <time>2021-03-27T19:21:59Z</time>
      </trkpt>
      <trkpt lat="43.143891" lon="-4.933699">
        <ele>968.62</ele>
        <time>2021-03-27T19:22:02Z</time>
      </trkpt>
      <trkpt lat="43.14414" lon="-4.933005">
        <ele>963.29</ele>
        <time>2021-03-27T19:22:05Z</time>
      </trkpt>
      <trkpt lat="43.14432" lon="-4.932652">
        <ele>961.59</ele>
        <time>2021-03-27T19:22:08Z</time>
      </trkpt>
      <trkpt lat="43.144851" lon="-4.931966">
        <ele>954.53</ele>
        <time>2021-03-27T19:22:11Z</time>
      </trkpt>
      <trkpt lat="43.145168" lon="-4.931306">
        <ele>956.68</ele>
        <time>2021-03-27T19:22:14Z</time>
      </trkpt>
      <trkpt lat="43.145373" lon="-4.930751">
        <ele>956.01</ele>
        <time>2021-03-27T19:22:17Z</time>
      </trkpt>
      <trkpt lat="43.145572" lon="-4.930413">
        <ele>950.66</ele>
        <time>2021-03-27T19:22:20Z</time>
      </trkpt>
      <trkpt lat="43.145857" lon="-4.929983">
        <ele>948.81</ele>
        <time>2021-03-27T19:22:23Z</time>
      </trkpt>
      <trkpt lat="43.146366" lon="-4.9294">
        <ele>944.3</ele>
        <time>2021-03-27T19:22:26Z</time>
      </trkpt>
      <trkpt lat="43.147307" lon="-4.928106">
        <ele>942.4</ele>
        <time>2021-03-27T19:22:28Z</time>
      </trkpt>
      <trkpt lat="43.14754" lon="-4.927882">
        <ele>939.17</ele>
        <time>2021-03-27T19:22:32Z</time>
      </trkpt>
      <trkpt lat="43.14754" lon="-4.927882">
        <ele>939.17</ele>
        <time>2021-03-27T19:22:32Z</time>
      </trkpt>
      <trkpt lat="43.14781" lon="-4.927622">
        <ele>935.93</ele>
        <time>2021-03-27T19:22:35Z</time>
      </trkpt>
      <trkpt lat="43.147913" lon="-4.927468">
        <ele>933.44</ele>
        <time>2021-03-27T19:22:38Z</time>
      </trkpt>
      <trkpt lat="43.147967" lon="-4.927254">
        <ele>933.55</ele>
        <time>2021-03-27T19:22:41Z</time>
      </trkpt>
      <trkpt lat="43.148033" lon="-4.926378">
        <ele>935.51</ele>
        <time>2021-03-27T19:22:45Z</time>
      </trkpt>
      <trkpt lat="43.148103" lon="-4.926013">
        <ele>935.54</ele>
        <time>2021-03-27T19:22:48Z</time>
      </trkpt>
      <trkpt lat="43.148164" lon="-4.925787">
        <ele>937.33</ele>
        <time>2021-03-27T19:22:51Z</time>
      </trkpt>
      <trkpt lat="43.148436" lon="-4.925099">
        <ele>940.74</ele>
        <time>2021-03-27T19:22:54Z</time>
      </trkpt>
      <trkpt lat="43.148467" lon="-4.924938">
        <ele>940.1</ele>
        <time>2021-03-27T19:22:57Z</time>
      </trkpt>
      <trkpt lat="43.148507" lon="-4.924538">
        <ele>936.72</ele>
        <time>2021-03-27T19:23:01Z</time>
      </trkpt>
      <trkpt lat="43.148537" lon="-4.923543">
        <ele>926.15</ele>
        <time>2021-03-27T19:23:04Z</time>
      </trkpt>
      <trkpt lat="43.148606" lon="-4.923227">
        <ele>925.12</ele>
        <time>2021-03-27T19:23:07Z</time>
      </trkpt>
      <trkpt lat="43.148751" lon="-4.922825">
        <ele>926.86</ele>
        <time>2021-03-27T19:23:10Z</time>
      </trkpt>
      <trkpt lat="43.149007" lon="-4.922327">
        <ele>927.4</ele>
        <time>2021-03-27T19:23:14Z</time>
      </trkpt>
      <trkpt lat="43.149235" lon="-4.922147">
        <ele>926.6</ele>
        <time>2021-03-27T19:23:17Z</time>
      </trkpt>
      <trkpt lat="43.150127" lon="-4.921843">
        <ele>919.99</ele>
        <time>2021-03-27T19:23:20Z</time>
      </trkpt>
      <trkpt lat="43.15022" lon="-4.921771">
        <ele>919.64</ele>
        <time>2021-03-27T19:23:23Z</time>
      </trkpt>
      <trkpt lat="43.150271" lon="-4.921709">
        <ele>919.09</ele>
        <time>2021-03-27T19:23:27Z</time>
      </trkpt>
      <trkpt lat="43.150325" lon="-4.921603">
        <ele>918.79</ele>
        <time>2021-03-27T19:23:30Z</time>
      </trkpt>
      <trkpt lat="43.150414" lon="-4.921269">
        <ele>918.23</ele>
        <time>2021-03-27T19:23:33Z</time>
      </trkpt>
      <trkpt lat="43.150646" lon="-4.919226">
        <ele>920.8</ele>
        <time>2021-03-27T19:23:36Z</time>
      </trkpt>
      <trkpt lat="43.150661" lon="-4.918984">
        <ele>920.86</ele>
        <time>2021-03-27T19:23:40Z</time>
      </trkpt>
      <trkpt lat="43.150719" lon="-4.918709">
        <ele>920.5</ele>
        <time>2021-03-27T19:23:43Z</time>
      </trkpt>
      <trkpt lat="43.150862" lon="-4.918469">
        <ele>919.86</ele>
        <time>2021-03-27T19:23:46Z</time>
      </trkpt>
      <trkpt lat="43.151048" lon="-4.91826">
        <ele>920.19</ele>
        <time>2021-03-27T19:23:49Z</time>
      </trkpt>
      <trkpt lat="43.151436" lon="-4.917685">
        <ele>923.34</ele>
        <time>2021-03-27T19:23:53Z</time>
      </trkpt>
      <trkpt lat="43.151118" lon="-4.917497">
        <ele>927.01</ele>
        <time>2021-03-27T19:23:55Z</time>
      </trkpt>
      <trkpt lat="43.150535" lon="-4.917222">
        <ele>930.7</ele>
        <time>2021-03-27T19:23:57Z</time>
      </trkpt>
      <trkpt lat="43.150152" lon="-4.916986">
        <ele>927.93</ele>
        <time>2021-03-27T19:24:00Z</time>
      </trkpt>
      <trkpt lat="43.149987" lon="-4.916819">
        <ele>929.28</ele>
        <time>2021-03-27T19:24:02Z</time>
      </trkpt>
      <trkpt lat="43.149898" lon="-4.916597">
        <ele>932.78</ele>
        <time>2021-03-27T19:24:05Z</time>
      </trkpt>
      <trkpt lat="43.149814" lon="-4.916245">
        <ele>937.56</ele>
        <time>2021-03-27T19:24:07Z</time>
      </trkpt>
      <trkpt lat="43.149449" lon="-4.915489">
        <ele>943.23</ele>
        <time>2021-03-27T19:24:09Z</time>
      </trkpt>
      <trkpt lat="43.149315" lon="-4.915397">
        <ele>943.37</ele>
        <time>2021-03-27T19:24:12Z</time>
      </trkpt>
      <trkpt lat="43.149147" lon="-4.915213">
        <ele>944.61</ele>
        <time>2021-03-27T19:24:14Z</time>
      </trkpt>
      <trkpt lat="43.148953" lon="-4.915076">
        <ele>946.99</ele>
        <time>2021-03-27T19:24:17Z</time>
      </trkpt>
      <trkpt lat="43.148821" lon="-4.915014">
        <ele>947.92</ele>
        <time>2021-03-27T19:24:19Z</time>
      </trkpt>
      <trkpt lat="43.148552" lon="-4.914963">
        <ele>948.21</ele>
        <time>2021-03-27T19:24:21Z</time>
      </trkpt>
      <trkpt lat="43.148361" lon="-4.914839">
        <ele>948.9</ele>
        <time>2021-03-27T19:24:24Z</time>
      </trkpt>
      <trkpt lat="43.148187" lon="-4.914811">
        <ele>948.83</ele>
        <time>2021-03-27T19:24:26Z</time>
      </trkpt>
      <trkpt lat="43.147983" lon="-4.91458">
        <ele>949.76</ele>
        <time>2021-03-27T19:24:29Z</time>
      </trkpt>
      <trkpt lat="43.14782" lon="-4.914464">
        <ele>950.01</ele>
        <time>2021-03-27T19:24:31Z</time>
      </trkpt>
      <trkpt lat="43.147616" lon="-4.914364">
        <ele>950.41</ele>
        <time>2021-03-27T19:24:33Z</time>
      </trkpt>
      <trkpt lat="43.147531" lon="-4.914273">
        <ele>950.69</ele>
        <time>2021-03-27T19:24:36Z</time>
      </trkpt>
      <trkpt lat="43.147477" lon="-4.914158">
        <ele>951.14</ele>
        <time>2021-03-27T19:24:38Z</time>
      </trkpt>
      <trkpt lat="43.147314" lon="-4.913922">
        <ele>952.84</ele>
        <time>2021-03-27T19:24:41Z</time>
      </trkpt>
      <trkpt lat="43.147228" lon="-4.913706">
        <ele>953.68</ele>
        <time>2021-03-27T19:24:43Z</time>
      </trkpt>
      <trkpt lat="43.147212" lon="-4.913578">
        <ele>954.3</ele>
        <time>2021-03-27T19:24:45Z</time>
      </trkpt>
      <trkpt lat="43.147142" lon="-4.913458">
        <ele>955.36</ele>
        <time>2021-03-27T19:24:48Z</time>
      </trkpt>
      <trkpt lat="43.147052" lon="-4.913344">
        <ele>955.97</ele>
        <time>2021-03-27T19:24:50Z</time>
      </trkpt>
      <trkpt lat="43.146891" lon="-4.912943">
        <ele>957.33</ele>
        <time>2021-03-27T19:24:53Z</time>
      </trkpt>
      <trkpt lat="43.146773" lon="-4.912753">
        <ele>957.47</ele>
        <time>2021-03-27T19:24:55Z</time>
      </trkpt>
      <trkpt lat="43.146699" lon="-4.912667">
        <ele>957.52</ele>
        <time>2021-03-27T19:24:57Z</time>
      </trkpt>
      <trkpt lat="43.146639" lon="-4.912543">
        <ele>958.24</ele>
        <time>2021-03-27T19:25:00Z</time>
      </trkpt>
      <trkpt lat="43.146655" lon="-4.912241">
        <ele>959.1</ele>
        <time>2021-03-27T19:25:02Z</time>
      </trkpt>
      <trkpt lat="43.146748" lon="-4.911974">
        <ele>960.71</ele>
        <time>2021-03-27T19:25:05Z</time>
      </trkpt>
      <trkpt lat="43.146838" lon="-4.911774">
        <ele>964.21</ele>
        <time>2021-03-27T19:25:07Z</time>
      </trkpt>
      <trkpt lat="43.146826" lon="-4.911633">
        <ele>966.06</ele>
        <time>2021-03-27T19:25:10Z</time>
      </trkpt>
      <trkpt lat="43.146771" lon="-4.911408">
        <ele>968.9</ele>
        <time>2021-03-27T19:25:12Z</time>
      </trkpt>
      <trkpt lat="43.146669" lon="-4.91112">
        <ele>970.91</ele>
        <time>2021-03-27T19:25:14Z</time>
      </trkpt>
      <trkpt lat="43.146504" lon="-4.910761">
        <ele>972.93</ele>
        <time>2021-03-27T19:25:17Z</time>
      </trkpt>
      <trkpt lat="43.146427" lon="-4.910651">
        <ele>973.45</ele>
        <time>2021-03-27T19:25:19Z</time>
      </trkpt>
      <trkpt lat="43.146074" lon="-4.910345">
        <ele>981.73</ele>
        <time>2021-03-27T19:25:22Z</time>
      </trkpt>
      <trkpt lat="43.14592" lon="-4.910139">
        <ele>982.06</ele>
        <time>2021-03-27T19:25:24Z</time>
      </trkpt>
      <trkpt lat="43.145667" lon="-4.909717">
        <ele>982.72</ele>
        <time>2021-03-27T19:25:26Z</time>
      </trkpt>
      <trkpt lat="43.145248" lon="-4.909165">
        <ele>989.39</ele>
        <time>2021-03-27T19:25:29Z</time>
      </trkpt>
      <trkpt lat="43.145104" lon="-4.909004">
        <ele>988.29</ele>
        <time>2021-03-27T19:25:31Z</time>
      </trkpt>
      <trkpt lat="43.144974" lon="-4.908815">
        <ele>988.57</ele>
        <time>2021-03-27T19:25:34Z</time>
      </trkpt>
      <trkpt lat="43.144838" lon="-4.908552">
        <ele>996.04</ele>
        <time>2021-03-27T19:25:36Z</time>
      </trkpt>
      <trkpt lat="43.144732" lon="-4.908177">
        <ele>1004.51</ele>
        <time>2021-03-27T19:25:38Z</time>
      </trkpt>
      <trkpt lat="43.14473" lon="-4.907916">
        <ele>1008.15</ele>
        <time>2021-03-27T19:25:41Z</time>
      </trkpt>
      <trkpt lat="43.14477" lon="-4.907628">
        <ele>1011.65</ele>
        <time>2021-03-27T19:25:43Z</time>
      </trkpt>
      <trkpt lat="43.144767" lon="-4.907492">
        <ele>1012.93</ele>
        <time>2021-03-27T19:25:46Z</time>
      </trkpt>
      <trkpt lat="43.144739" lon="-4.907356">
        <ele>1014.32</ele>
        <time>2021-03-27T19:25:48Z</time>
      </trkpt>
      <trkpt lat="43.144598" lon="-4.907072">
        <ele>1015.13</ele>
        <time>2021-03-27T19:25:50Z</time>
      </trkpt>
      <trkpt lat="43.14456" lon="-4.906874">
        <ele>1018.01</ele>
        <time>2021-03-27T19:25:53Z</time>
      </trkpt>
      <trkpt lat="43.144446" lon="-4.906544">
        <ele>1022.67</ele>
        <time>2021-03-27T19:25:55Z</time>
      </trkpt>
      <trkpt lat="43.144404" lon="-4.906282">
        <ele>1027.01</ele>
        <time>2021-03-27T19:25:58Z</time>
      </trkpt>
      <trkpt lat="43.144321" lon="-4.905987">
        <ele>1030.01</ele>
        <time>2021-03-27T19:26:00Z</time>
      </trkpt>
      <trkpt lat="43.144102" lon="-4.905548">
        <ele>1028.49</ele>
        <time>2021-03-27T19:26:02Z</time>
      </trkpt>
      <trkpt lat="43.144017" lon="-4.905329">
        <ele>1030.37</ele>
        <time>2021-03-27T19:26:05Z</time>
      </trkpt>
      <trkpt lat="43.14385" lon="-4.904807">
        <ele>1036.3</ele>
        <time>2021-03-27T19:26:07Z</time>
      </trkpt>
      <trkpt lat="43.143639" lon="-4.904033">
        <ele>1038.93</ele>
        <time>2021-03-27T19:26:10Z</time>
      </trkpt>
      <trkpt lat="43.143588" lon="-4.903786">
        <ele>1041.35</ele>
        <time>2021-03-27T19:26:12Z</time>
      </trkpt>
      <trkpt lat="43.143601" lon="-4.903504">
        <ele>1046.33</ele>
        <time>2021-03-27T19:26:14Z</time>
      </trkpt>
      <trkpt lat="43.143586" lon="-4.903209">
        <ele>1050.76</ele>
        <time>2021-03-27T19:26:17Z</time>
      </trkpt>
      <trkpt lat="43.143552" lon="-4.903022">
        <ele>1053.33</ele>
        <time>2021-03-27T19:26:19Z</time>
      </trkpt>
      <trkpt lat="43.143251" lon="-4.902512">
        <ele>1057.92</ele>
        <time>2021-03-27T19:26:22Z</time>
      </trkpt>
      <trkpt lat="43.143112" lon="-4.902336">
        <ele>1060.87</ele>
        <time>2021-03-27T19:26:24Z</time>
      </trkpt>
      <trkpt lat="43.142961" lon="-4.902185">
        <ele>1065.46</ele>
        <time>2021-03-27T19:26:26Z</time>
      </trkpt>
      <trkpt lat="43.142782" lon="-4.902066">
        <ele>1070.19</ele>
        <time>2021-03-27T19:26:29Z</time>
      </trkpt>
      <trkpt lat="43.14259" lon="-4.901986">
        <ele>1070.07</ele>
        <time>2021-03-27T19:26:31Z</time>
      </trkpt>
      <trkpt lat="43.14238" lon="-4.901926">
        <ele>1069.26</ele>
        <time>2021-03-27T19:26:34Z</time>
      </trkpt>
      <trkpt lat="43.14206" lon="-4.901552">
        <ele>1076.69</ele>
        <time>2021-03-27T19:26:36Z</time>
      </trkpt>
      <trkpt lat="43.141959" lon="-4.901461">
        <ele>1079.91</ele>
        <time>2021-03-27T19:26:39Z</time>
      </trkpt>
      <trkpt lat="43.14185" lon="-4.901432">
        <ele>1082.16</ele>
        <time>2021-03-27T19:26:41Z</time>
      </trkpt>
      <trkpt lat="43.141673" lon="-4.901578">
        <ele>1077.74</ele>
        <time>2021-03-27T19:26:43Z</time>
      </trkpt>
      <trkpt lat="43.141491" lon="-4.901538">
        <ele>1080.22</ele>
        <time>2021-03-27T19:26:46Z</time>
      </trkpt>
      <trkpt lat="43.141135" lon="-4.901233">
        <ele>1087.75</ele>
        <time>2021-03-27T19:26:48Z</time>
      </trkpt>
      <trkpt lat="43.140815" lon="-4.900894">
        <ele>1091.64</ele>
        <time>2021-03-27T19:26:51Z</time>
      </trkpt>
      <trkpt lat="43.140636" lon="-4.900798">
        <ele>1090.94</ele>
        <time>2021-03-27T19:26:53Z</time>
      </trkpt>
      <trkpt lat="43.140377" lon="-4.900608">
        <ele>1095.19</ele>
        <time>2021-03-27T19:26:55Z</time>
      </trkpt>
      <trkpt lat="43.140268" lon="-4.900574">
        <ele>1096.48</ele>
        <time>2021-03-27T19:26:58Z</time>
      </trkpt>
      <trkpt lat="43.139976" lon="-4.900598">
        <ele>1096.38</ele>
        <time>2021-03-27T19:27:00Z</time>
      </trkpt>
      <trkpt lat="43.139733" lon="-4.900593">
        <ele>1100.99</ele>
        <time>2021-03-27T19:27:03Z</time>
      </trkpt>
      <trkpt lat="43.139522" lon="-4.900526">
        <ele>1101.82</ele>
        <time>2021-03-27T19:27:05Z</time>
      </trkpt>
      <trkpt lat="43.139323" lon="-4.900551">
        <ele>1101.51</ele>
        <time>2021-03-27T19:27:07Z</time>
      </trkpt>
      <trkpt lat="43.139237" lon="-4.90054">
        <ele>1101.95</ele>
        <time>2021-03-27T19:27:10Z</time>
      </trkpt>
      <trkpt lat="43.138938" lon="-4.900352">
        <ele>1101.3</ele>
        <time>2021-03-27T19:27:12Z</time>
      </trkpt>
      <trkpt lat="43.138848" lon="-4.900249">
        <ele>1101.85</ele>
        <time>2021-03-27T19:27:15Z</time>
      </trkpt>
      <trkpt lat="43.138785" lon="-4.900111">
        <ele>1102.45</ele>
        <time>2021-03-27T19:27:17Z</time>
      </trkpt>
      <trkpt lat="43.138697" lon="-4.899851">
        <ele>1104.38</ele>
        <time>2021-03-27T19:27:19Z</time>
      </trkpt>
      <trkpt lat="43.138627" lon="-4.899568">
        <ele>1108.53</ele>
        <time>2021-03-27T19:27:22Z</time>
      </trkpt>
      <trkpt lat="43.13851" lon="-4.89932">
        <ele>1110.65</ele>
        <time>2021-03-27T19:27:24Z</time>
      </trkpt>
      <trkpt lat="43.138241" lon="-4.898882">
        <ele>1113.46</ele>
        <time>2021-03-27T19:27:27Z</time>
      </trkpt>
      <trkpt lat="43.138151" lon="-4.898664">
        <ele>1114.27</ele>
        <time>2021-03-27T19:27:29Z</time>
      </trkpt>
      <trkpt lat="43.138009" lon="-4.89822">
        <ele>1119.9</ele>
        <time>2021-03-27T19:27:31Z</time>
      </trkpt>
      <trkpt lat="43.137841" lon="-4.897915">
        <ele>1117.19</ele>
        <time>2021-03-27T19:27:34Z</time>
      </trkpt>
      <trkpt lat="43.137731" lon="-4.897629">
        <ele>1115.15</ele>
        <time>2021-03-27T19:27:36Z</time>
      </trkpt>
      <trkpt lat="43.137651" lon="-4.89735">
        <ele>1113.33</ele>
        <time>2021-03-27T19:27:39Z</time>
      </trkpt>
      <trkpt lat="43.137594" lon="-4.89704">
        <ele>1113.05</ele>
        <time>2021-03-27T19:27:41Z</time>
      </trkpt>
      <trkpt lat="43.13757" lon="-4.896742">
        <ele>1114.26</ele>
        <time>2021-03-27T19:27:43Z</time>
      </trkpt>
      <trkpt lat="43.137572" lon="-4.896432">
        <ele>1118.27</ele>
        <time>2021-03-27T19:27:46Z</time>
      </trkpt>
      <trkpt lat="43.137539" lon="-4.896326">
        <ele>1118.11</ele>
        <time>2021-03-27T19:27:48Z</time>
      </trkpt>
      <trkpt lat="43.137468" lon="-4.89625">
        <ele>1116.48</ele>
        <time>2021-03-27T19:27:51Z</time>
      </trkpt>
      <trkpt lat="43.137336" lon="-4.895989">
        <ele>1115.44</ele>
        <time>2021-03-27T19:27:53Z</time>
      </trkpt>
      <trkpt lat="43.137251" lon="-4.895743">
        <ele>1115.03</ele>
        <time>2021-03-27T19:27:56Z</time>
      </trkpt>
      <trkpt lat="43.137176" lon="-4.895462">
        <ele>1115.94</ele>
        <time>2021-03-27T19:27:58Z</time>
      </trkpt>
      <trkpt lat="43.137062" lon="-4.895188">
        <ele>1115.01</ele>
        <time>2021-03-27T19:28:00Z</time>
      </trkpt>
      <trkpt lat="43.136822" lon="-4.894704">
        <ele>1114.14</ele>
        <time>2021-03-27T19:28:03Z</time>
      </trkpt>
      <trkpt lat="43.136547" lon="-4.894255">
        <ele>1117.1</ele>
        <time>2021-03-27T19:28:05Z</time>
      </trkpt>
      <trkpt lat="43.136513" lon="-4.894116">
        <ele>1118.22</ele>
        <time>2021-03-27T19:28:08Z</time>
      </trkpt>
      <trkpt lat="43.136463" lon="-4.894004">
        <ele>1118.13</ele>
        <time>2021-03-27T19:28:10Z</time>
      </trkpt>
      <trkpt lat="43.136133" lon="-4.893438">
        <ele>1116.4</ele>
        <time>2021-03-27T19:28:12Z</time>
      </trkpt>
      <trkpt lat="43.135689" lon="-4.892555">
        <ele>1118.85</ele>
        <time>2021-03-27T19:28:15Z</time>
      </trkpt>
      <trkpt lat="43.135497" lon="-4.892107">
        <ele>1118.7</ele>
        <time>2021-03-27T19:28:17Z</time>
      </trkpt>
      <trkpt lat="43.13534" lon="-4.891548">
        <ele>1119.93</ele>
        <time>2021-03-27T19:28:20Z</time>
      </trkpt>
      <trkpt lat="43.135277" lon="-4.891254">
        <ele>1123.43</ele>
        <time>2021-03-27T19:28:22Z</time>
      </trkpt>
      <trkpt lat="43.13526" lon="-4.890961">
        <ele>1127.8</ele>
        <time>2021-03-27T19:28:24Z</time>
      </trkpt>
      <trkpt lat="43.13518" lon="-4.89044">
        <ele>1131.08</ele>
        <time>2021-03-27T19:28:27Z</time>
      </trkpt>
      <trkpt lat="43.135045" lon="-4.889942">
        <ele>1132.44</ele>
        <time>2021-03-27T19:28:29Z</time>
      </trkpt>
      <trkpt lat="43.13496" lon="-4.889425">
        <ele>1137.69</ele>
        <time>2021-03-27T19:28:32Z</time>
      </trkpt>
      <trkpt lat="43.134921" lon="-4.888927">
        <ele>1143.41</ele>
        <time>2021-03-27T19:28:34Z</time>
      </trkpt>
      <trkpt lat="43.134794" lon="-4.888605">
        <ele>1146.4</ele>
        <time>2021-03-27T19:28:36Z</time>
      </trkpt>
      <trkpt lat="43.134666" lon="-4.888426">
        <ele>1148.4</ele>
        <time>2021-03-27T19:28:39Z</time>
      </trkpt>
      <trkpt lat="43.134504" lon="-4.888279">
        <ele>1150.78</ele>
        <time>2021-03-27T19:28:41Z</time>
      </trkpt>
      <trkpt lat="43.134392" lon="-4.888106">
        <ele>1153.12</ele>
        <time>2021-03-27T19:28:44Z</time>
      </trkpt>
      <trkpt lat="43.134237" lon="-4.887657">
        <ele>1155.69</ele>
        <time>2021-03-27T19:28:46Z</time>
      </trkpt>
      <trkpt lat="43.134223" lon="-4.887544">
        <ele>1156.04</ele>
        <time>2021-03-27T19:28:48Z</time>
      </trkpt>
      <trkpt lat="43.134012" lon="-4.887028">
        <ele>1160.47</ele>
        <time>2021-03-27T19:28:51Z</time>
      </trkpt>
      <trkpt lat="43.133723" lon="-4.886569">
        <ele>1163.91</ele>
        <time>2021-03-27T19:28:53Z</time>
      </trkpt>
      <trkpt lat="43.133687" lon="-4.886447">
        <ele>1165.41</ele>
        <time>2021-03-27T19:28:56Z</time>
      </trkpt>
      <trkpt lat="43.133634" lon="-4.886173">
        <ele>1167.04</ele>
        <time>2021-03-27T19:28:58Z</time>
      </trkpt>
      <trkpt lat="43.13357" lon="-4.885708">
        <ele>1168.46</ele>
        <time>2021-03-27T19:29:00Z</time>
      </trkpt>
      <trkpt lat="43.133547" lon="-4.885668">
        <ele>1168.5</ele>
        <time>2021-03-27T19:29:03Z</time>
      </trkpt>
      <trkpt lat="43.13354" lon="-4.884818">
        <ele>1175.35</ele>
        <time>2021-03-27T19:29:05Z</time>
      </trkpt>
      <trkpt lat="43.133488" lon="-4.883477">
        <ele>1193.52</ele>
        <time>2021-03-27T19:29:08Z</time>
      </trkpt>
      <trkpt lat="43.133504" lon="-4.88321">
        <ele>1196.34</ele>
        <time>2021-03-27T19:29:10Z</time>
      </trkpt>
      <trkpt lat="43.133569" lon="-4.882977">
        <ele>1201.64</ele>
        <time>2021-03-27T19:29:13Z</time>
      </trkpt>
      <trkpt lat="43.133508" lon="-4.882842">
        <ele>1202.55</ele>
        <time>2021-03-27T19:29:15Z</time>
      </trkpt>
      <trkpt lat="43.133389" lon="-4.88269">
        <ele>1200.78</ele>
        <time>2021-03-27T19:29:18Z</time>
      </trkpt>
      <trkpt lat="43.133215" lon="-4.882561">
        <ele>1199.1</ele>
        <time>2021-03-27T19:29:20Z</time>
      </trkpt>
      <trkpt lat="43.132765" lon="-4.882277">
        <ele>1196.91</ele>
        <time>2021-03-27T19:29:23Z</time>
      </trkpt>
      <trkpt lat="43.13259" lon="-4.882054">
        <ele>1199.51</ele>
        <time>2021-03-27T19:29:25Z</time>
      </trkpt>
      <trkpt lat="43.13212" lon="-4.881321">
        <ele>1208.06</ele>
        <time>2021-03-27T19:29:27Z</time>
      </trkpt>
      <trkpt lat="43.131979" lon="-4.881149">
        <ele>1209.87</ele>
        <time>2021-03-27T19:29:30Z</time>
      </trkpt>
      <trkpt lat="43.131811" lon="-4.881002">
        <ele>1208.91</ele>
        <time>2021-03-27T19:29:32Z</time>
      </trkpt>
      <trkpt lat="43.130665" lon="-4.880166">
        <ele>1222.81</ele>
        <time>2021-03-27T19:29:35Z</time>
      </trkpt>
      <trkpt lat="43.130451" lon="-4.880041">
        <ele>1225.45</ele>
        <time>2021-03-27T19:29:37Z</time>
      </trkpt>
      <trkpt lat="43.129774" lon="-4.879741">
        <ele>1229.78</ele>
        <time>2021-03-27T19:29:40Z</time>
      </trkpt>
      <trkpt lat="43.129411" lon="-4.879642">
        <ele>1233.4</ele>
        <time>2021-03-27T19:29:42Z</time>
      </trkpt>
      <trkpt lat="43.129227" lon="-4.87966">
        <ele>1235.18</ele>
        <time>2021-03-27T19:29:45Z</time>
      </trkpt>
      <trkpt lat="43.129079" lon="-4.879789">
        <ele>1235.45</ele>
        <time>2021-03-27T19:29:47Z</time>
      </trkpt>
      <trkpt lat="43.128734" lon="-4.880242">
        <ele>1234.88</ele>
        <time>2021-03-27T19:29:50Z</time>
      </trkpt>
      <trkpt lat="43.128512" lon="-4.880362">
        <ele>1235.05</ele>
        <time>2021-03-27T19:29:52Z</time>
      </trkpt>
      <trkpt lat="43.128393" lon="-4.880348">
        <ele>1235.91</ele>
        <time>2021-03-27T19:29:55Z</time>
      </trkpt>
      <trkpt lat="43.128111" lon="-4.880142">
        <ele>1236.05</ele>
        <time>2021-03-27T19:29:57Z</time>
      </trkpt>
      <trkpt lat="43.127094" lon="-4.879099">
        <ele>1251.79</ele>
        <time>2021-03-27T19:30:00Z</time>
      </trkpt>
      <trkpt lat="43.12691" lon="-4.878979">
        <ele>1254.07</ele>
        <time>2021-03-27T19:30:02Z</time>
      </trkpt>
      <trkpt lat="43.126713" lon="-4.878957">
        <ele>1254.47</ele>
        <time>2021-03-27T19:30:05Z</time>
      </trkpt>
      <trkpt lat="43.12653" lon="-4.879072">
        <ele>1254.51</ele>
        <time>2021-03-27T19:30:07Z</time>
      </trkpt>
      <trkpt lat="43.126144" lon="-4.879731">
        <ele>1258.76</ele>
        <time>2021-03-27T19:30:10Z</time>
      </trkpt>
      <trkpt lat="43.126001" lon="-4.8799">
        <ele>1260.47</ele>
        <time>2021-03-27T19:30:12Z</time>
      </trkpt>
      <trkpt lat="43.125837" lon="-4.879989">
        <ele>1262.04</ele>
        <time>2021-03-27T19:30:15Z</time>
      </trkpt>
      <trkpt lat="43.125653" lon="-4.879948">
        <ele>1267.04</ele>
        <time>2021-03-27T19:30:17Z</time>
      </trkpt>
      <trkpt lat="43.125516" lon="-4.879768">
        <ele>1273.31</ele>
        <time>2021-03-27T19:30:20Z</time>
      </trkpt>
      <trkpt lat="43.125476" lon="-4.879519">
        <ele>1279.48</ele>
        <time>2021-03-27T19:30:22Z</time>
      </trkpt>
      <trkpt lat="43.125539" lon="-4.87927">
        <ele>1284.17</ele>
        <time>2021-03-27T19:30:25Z</time>
      </trkpt>
      <trkpt lat="43.125739" lon="-4.878808">
        <ele>1289.34</ele>
        <time>2021-03-27T19:30:27Z</time>
      </trkpt>
      <trkpt lat="43.125953" lon="-4.878427">
        <ele>1288.97</ele>
        <time>2021-03-27T19:30:30Z</time>
      </trkpt>
      <trkpt lat="43.126162" lon="-4.878143">
        <ele>1286.27</ele>
        <time>2021-03-27T19:30:32Z</time>
      </trkpt>
      <trkpt lat="43.126545" lon="-4.878052">
        <ele>1284.17</ele>
        <time>2021-03-27T19:30:35Z</time>
      </trkpt>
      <trkpt lat="43.127422" lon="-4.877907">
        <ele>1286.46</ele>
        <time>2021-03-27T19:30:37Z</time>
      </trkpt>
      <trkpt lat="43.12759" lon="-4.877799">
        <ele>1288.95</ele>
        <time>2021-03-27T19:30:40Z</time>
      </trkpt>
      <trkpt lat="43.127747" lon="-4.877626">
        <ele>1291.33</ele>
        <time>2021-03-27T19:30:42Z</time>
      </trkpt>
      <trkpt lat="43.12806" lon="-4.87714">
        <ele>1297.09</ele>
        <time>2021-03-27T19:30:45Z</time>
      </trkpt>
      <trkpt lat="43.128201" lon="-4.87697">
        <ele>1297.39</ele>
        <time>2021-03-27T19:30:47Z</time>
      </trkpt>
      <trkpt lat="43.128282" lon="-4.876891">
        <ele>1298.53</ele>
        <time>2021-03-27T19:30:50Z</time>
      </trkpt>
      <trkpt lat="43.12836" lon="-4.87688">
        <ele>1298.38</ele>
        <time>2021-03-27T19:30:52Z</time>
      </trkpt>
      <trkpt lat="43.128559" lon="-4.876931">
        <ele>1296.56</ele>
        <time>2021-03-27T19:30:55Z</time>
      </trkpt>
      <trkpt lat="43.128698" lon="-4.877026">
        <ele>1293.86</ele>
        <time>2021-03-27T19:30:57Z</time>
      </trkpt>
      <trkpt lat="43.129033" lon="-4.877193">
        <ele>1294.47</ele>
        <time>2021-03-27T19:31:00Z</time>
      </trkpt>
      <trkpt lat="43.129206" lon="-4.877204">
        <ele>1298.28</ele>
        <time>2021-03-27T19:31:02Z</time>
      </trkpt>
      <trkpt lat="43.129602" lon="-4.877089">
        <ele>1304.78</ele>
        <time>2021-03-27T19:31:05Z</time>
      </trkpt>
      <trkpt lat="43.129792" lon="-4.877064">
        <ele>1306.27</ele>
        <time>2021-03-27T19:31:07Z</time>
      </trkpt>
      <trkpt lat="43.129939" lon="-4.877117">
        <ele>1306.82</ele>
        <time>2021-03-27T19:31:10Z</time>
      </trkpt>
      <trkpt lat="43.130413" lon="-4.877603">
        <ele>1312.07</ele>
        <time>2021-03-27T19:31:12Z</time>
      </trkpt>
      <trkpt lat="43.130738" lon="-4.877836">
        <ele>1319.21</ele>
        <time>2021-03-27T19:31:15Z</time>
      </trkpt>
      <trkpt lat="43.130912" lon="-4.877992">
        <ele>1319.66</ele>
        <time>2021-03-27T19:31:17Z</time>
      </trkpt>
      <trkpt lat="43.131438" lon="-4.878663">
        <ele>1307.62</ele>
        <time>2021-03-27T19:31:20Z</time>
      </trkpt>
      <trkpt lat="43.131599" lon="-4.878774">
        <ele>1309.32</ele>
        <time>2021-03-27T19:31:22Z</time>
      </trkpt>
      <trkpt lat="43.131814" lon="-4.878795">
        <ele>1314.73</ele>
        <time>2021-03-27T19:31:25Z</time>
      </trkpt>
      <trkpt lat="43.131955" lon="-4.878756">
        <ele>1319.09</ele>
        <time>2021-03-27T19:31:27Z</time>
      </trkpt>
      <trkpt lat="43.132066" lon="-4.878664">
        <ele>1320.26</ele>
        <time>2021-03-27T19:31:30Z</time>
      </trkpt>
      <trkpt lat="43.132153" lon="-4.878542">
        <ele>1321.53</ele>
        <time>2021-03-27T19:31:32Z</time>
      </trkpt>
      <trkpt lat="43.132238" lon="-4.87835">
        <ele>1322.43</ele>
        <time>2021-03-27T19:31:35Z</time>
      </trkpt>
      <trkpt lat="43.132284" lon="-4.877504">
        <ele>1342.91</ele>
        <time>2021-03-27T19:31:37Z</time>
      </trkpt>
      <trkpt lat="43.132385" lon="-4.87719">
        <ele>1340.03</ele>
        <time>2021-03-27T19:31:40Z</time>
      </trkpt>
      <trkpt lat="43.132462" lon="-4.877096">
        <ele>1337.75</ele>
        <time>2021-03-27T19:31:42Z</time>
      </trkpt>
      <trkpt lat="43.132586" lon="-4.877028">
        <ele>1335.14</ele>
        <time>2021-03-27T19:31:45Z</time>
      </trkpt>
      <trkpt lat="43.132793" lon="-4.87698">
        <ele>1330.93</ele>
        <time>2021-03-27T19:31:47Z</time>
      </trkpt>
      <trkpt lat="43.13299" lon="-4.876896">
        <ele>1331.02</ele>
        <time>2021-03-27T19:31:50Z</time>
      </trkpt>
      <trkpt lat="43.133152" lon="-4.876697">
        <ele>1335.16</ele>
        <time>2021-03-27T19:31:52Z</time>
      </trkpt>
      <trkpt lat="43.133302" lon="-4.876461">
        <ele>1339.44</ele>
        <time>2021-03-27T19:31:55Z</time>
      </trkpt>
      <trkpt lat="43.133474" lon="-4.876264">
        <ele>1345.04</ele>
        <time>2021-03-27T19:31:57Z</time>
      </trkpt>
      <trkpt lat="43.133595" lon="-4.876218">
        <ele>1345.97</ele>
        <time>2021-03-27T19:32:00Z</time>
      </trkpt>
      <trkpt lat="43.133713" lon="-4.876222">
        <ele>1345.15</ele>
        <time>2021-03-27T19:32:02Z</time>
      </trkpt>
      <trkpt lat="43.133919" lon="-4.876401">
        <ele>1341.42</ele>
        <time>2021-03-27T19:32:05Z</time>
      </trkpt>
      <trkpt lat="43.134385" lon="-4.877091">
        <ele>1341.3</ele>
        <time>2021-03-27T19:32:07Z</time>
      </trkpt>
      <trkpt lat="43.134495" lon="-4.877189">
        <ele>1340.24</ele>
        <time>2021-03-27T19:32:10Z</time>
      </trkpt>
      <trkpt lat="43.134619" lon="-4.877213">
        <ele>1341.07</ele>
        <time>2021-03-27T19:32:12Z</time>
      </trkpt>
      <trkpt lat="43.134672" lon="-4.877203">
        <ele>1341.88</ele>
        <time>2021-03-27T19:32:15Z</time>
      </trkpt>
      <trkpt lat="43.134767" lon="-4.87711">
        <ele>1346.25</ele>
        <time>2021-03-27T19:32:17Z</time>
      </trkpt>
      <trkpt lat="43.134808" lon="-4.877041">
        <ele>1349.49</ele>
        <time>2021-03-27T19:32:20Z</time>
      </trkpt>
      <trkpt lat="43.134849" lon="-4.876869">
        <ele>1354.71</ele>
        <time>2021-03-27T19:32:22Z</time>
      </trkpt>
      <trkpt lat="43.134848" lon="-4.876759">
        <ele>1356.54</ele>
        <time>2021-03-27T19:32:25Z</time>
      </trkpt>
      <trkpt lat="43.134829" lon="-4.876652">
        <ele>1357.78</ele>
        <time>2021-03-27T19:32:27Z</time>
      </trkpt>
      <trkpt lat="43.134744" lon="-4.876448">
        <ele>1360.08</ele>
        <time>2021-03-27T19:32:30Z</time>
      </trkpt>
      <trkpt lat="43.134411" lon="-4.875802">
        <ele>1364.14</ele>
        <time>2021-03-27T19:32:32Z</time>
      </trkpt>
      <trkpt lat="43.134275" lon="-4.87561">
        <ele>1361.99</ele>
        <time>2021-03-27T19:32:35Z</time>
      </trkpt>
      <trkpt lat="43.134112" lon="-4.875451">
        <ele>1361.18</ele>
        <time>2021-03-27T19:32:37Z</time>
      </trkpt>
      <trkpt lat="43.133923" lon="-4.875326">
        <ele>1363.23</ele>
        <time>2021-03-27T19:32:40Z</time>
      </trkpt>
      <trkpt lat="43.133133" lon="-4.874923">
        <ele>1374.38</ele>
        <time>2021-03-27T19:32:42Z</time>
      </trkpt>
      <trkpt lat="43.132921" lon="-4.874859">
        <ele>1374.29</ele>
        <time>2021-03-27T19:32:45Z</time>
      </trkpt>
      <trkpt lat="43.132076" lon="-4.874795">
        <ele>1379.24</ele>
        <time>2021-03-27T19:32:47Z</time>
      </trkpt>
      <trkpt lat="43.131876" lon="-4.874849">
        <ele>1381.08</ele>
        <time>2021-03-27T19:32:50Z</time>
      </trkpt>
      <trkpt lat="43.131691" lon="-4.874977">
        <ele>1382.05</ele>
        <time>2021-03-27T19:32:52Z</time>
      </trkpt>
      <trkpt lat="43.131586" lon="-4.875187">
        <ele>1385.49</ele>
        <time>2021-03-27T19:32:54Z</time>
      </trkpt>
      <trkpt lat="43.131373" lon="-4.875977">
        <ele>1389.7</ele>
        <time>2021-03-27T19:32:57Z</time>
      </trkpt>
      <trkpt lat="43.131312" lon="-4.876103">
        <ele>1389.2</ele>
        <time>2021-03-27T19:32:59Z</time>
      </trkpt>
      <trkpt lat="43.131181" lon="-4.876181">
        <ele>1389.67</ele>
        <time>2021-03-27T19:33:02Z</time>
      </trkpt>
      <trkpt lat="43.131055" lon="-4.876177">
        <ele>1389.07</ele>
        <time>2021-03-27T19:33:04Z</time>
      </trkpt>
      <trkpt lat="43.130917" lon="-4.876124">
        <ele>1386.76</ele>
        <time>2021-03-27T19:33:07Z</time>
      </trkpt>
      <trkpt lat="43.130814" lon="-4.876028">
        <ele>1387.39</ele>
        <time>2021-03-27T19:33:09Z</time>
      </trkpt>
      <trkpt lat="43.130192" lon="-4.875245">
        <ele>1386.22</ele>
        <time>2021-03-27T19:33:12Z</time>
      </trkpt>
      <trkpt lat="43.129829" lon="-4.874328">
        <ele>1409.04</ele>
        <time>2021-03-27T19:33:14Z</time>
      </trkpt>
      <trkpt lat="43.129648" lon="-4.874091">
        <ele>1411.35</ele>
        <time>2021-03-27T19:33:17Z</time>
      </trkpt>
      <trkpt lat="43.129429" lon="-4.873963">
        <ele>1405.44</ele>
        <time>2021-03-27T19:33:19Z</time>
      </trkpt>
      <trkpt lat="43.129172" lon="-4.87385">
        <ele>1401.3</ele>
        <time>2021-03-27T19:33:22Z</time>
      </trkpt>
      <trkpt lat="43.127568" lon="-4.873304">
        <ele>1416.54</ele>
        <time>2021-03-27T19:33:24Z</time>
      </trkpt>
      <trkpt lat="43.127381" lon="-4.873217">
        <ele>1417.49</ele>
        <time>2021-03-27T19:33:27Z</time>
      </trkpt>
      <trkpt lat="43.127029" lon="-4.872969">
        <ele>1418.85</ele>
        <time>2021-03-27T19:33:29Z</time>
      </trkpt>
      <trkpt lat="43.126827" lon="-4.872862">
        <ele>1418.66</ele>
        <time>2021-03-27T19:33:32Z</time>
      </trkpt>
      <trkpt lat="43.126611" lon="-4.872793">
        <ele>1418.83</ele>
        <time>2021-03-27T19:33:34Z</time>
      </trkpt>
      <trkpt lat="43.125176" lon="-4.872694">
        <ele>1426.82</ele>
        <time>2021-03-27T19:33:37Z</time>
      </trkpt>
      <trkpt lat="43.124948" lon="-4.87271">
        <ele>1429.53</ele>
        <time>2021-03-27T19:33:39Z</time>
      </trkpt>
      <trkpt lat="43.123865" lon="-4.872997">
        <ele>1434.24</ele>
        <time>2021-03-27T19:33:42Z</time>
      </trkpt>
      <trkpt lat="43.123655" lon="-4.87302">
        <ele>1435.43</ele>
        <time>2021-03-27T19:33:44Z</time>
      </trkpt>
      <trkpt lat="43.123555" lon="-4.872987">
        <ele>1436.28</ele>
        <time>2021-03-27T19:33:47Z</time>
      </trkpt>
      <trkpt lat="43.123447" lon="-4.8729">
        <ele>1437.77</ele>
        <time>2021-03-27T19:33:49Z</time>
      </trkpt>
      <trkpt lat="43.122829" lon="-4.872174">
        <ele>1445.91</ele>
        <time>2021-03-27T19:33:52Z</time>
      </trkpt>
      <trkpt lat="43.122504" lon="-4.871761">
        <ele>1453.28</ele>
        <time>2021-03-27T19:33:54Z</time>
      </trkpt>
      <trkpt lat="43.122355" lon="-4.871645">
        <ele>1457.11</ele>
        <time>2021-03-27T19:33:57Z</time>
      </trkpt>
      <trkpt lat="43.122214" lon="-4.871619">
        <ele>1458.74</ele>
        <time>2021-03-27T19:33:59Z</time>
      </trkpt>
      <trkpt lat="43.12213" lon="-4.871663">
        <ele>1459.43</ele>
        <time>2021-03-27T19:34:02Z</time>
      </trkpt>
      <trkpt lat="43.122009" lon="-4.871772">
        <ele>1459.02</ele>
        <time>2021-03-27T19:34:04Z</time>
      </trkpt>
      <trkpt lat="43.121285" lon="-4.872495">
        <ele>1462.26</ele>
        <time>2021-03-27T19:34:07Z</time>
      </trkpt>
      <trkpt lat="43.120442" lon="-4.873409">
        <ele>1467.84</ele>
        <time>2021-03-27T19:34:09Z</time>
      </trkpt>
      <trkpt lat="43.120262" lon="-4.873513">
        <ele>1468.88</ele>
        <time>2021-03-27T19:34:12Z</time>
      </trkpt>
      <trkpt lat="43.119678" lon="-4.873647">
        <ele>1470.17</ele>
        <time>2021-03-27T19:34:14Z</time>
      </trkpt>
      <trkpt lat="43.119493" lon="-4.873716">
        <ele>1472.55</ele>
        <time>2021-03-27T19:34:17Z</time>
      </trkpt>
      <trkpt lat="43.119342" lon="-4.873864">
        <ele>1474.71</ele>
        <time>2021-03-27T19:34:19Z</time>
      </trkpt>
      <trkpt lat="43.119193" lon="-4.874045">
        <ele>1477.06</ele>
        <time>2021-03-27T19:34:22Z</time>
      </trkpt>
      <trkpt lat="43.118957" lon="-4.87451">
        <ele>1480.08</ele>
        <time>2021-03-27T19:34:24Z</time>
      </trkpt>
      <trkpt lat="43.118863" lon="-4.874736">
        <ele>1480.22</ele>
        <time>2021-03-27T19:34:27Z</time>
      </trkpt>
      <trkpt lat="43.118735" lon="-4.874914">
        <ele>1479.7</ele>
        <time>2021-03-27T19:34:29Z</time>
      </trkpt>
      <trkpt lat="43.118633" lon="-4.874962">
        <ele>1481.08</ele>
        <time>2021-03-27T19:34:32Z</time>
      </trkpt>
      <trkpt lat="43.118521" lon="-4.874974">
        <ele>1481.08</ele>
        <time>2021-03-27T19:34:34Z</time>
      </trkpt>
      <trkpt lat="43.118398" lon="-4.874919">
        <ele>1481.62</ele>
        <time>2021-03-27T19:34:37Z</time>
      </trkpt>
      <trkpt lat="43.118253" lon="-4.874821">
        <ele>1481.96</ele>
        <time>2021-03-27T19:34:39Z</time>
      </trkpt>
      <trkpt lat="43.117934" lon="-4.874465">
        <ele>1486.05</ele>
        <time>2021-03-27T19:34:42Z</time>
      </trkpt>
      <trkpt lat="43.117677" lon="-4.874276">
        <ele>1493.73</ele>
        <time>2021-03-27T19:34:44Z</time>
      </trkpt>
      <trkpt lat="43.117572" lon="-4.874267">
        <ele>1495.82</ele>
        <time>2021-03-27T19:34:47Z</time>
      </trkpt>
      <trkpt lat="43.117385" lon="-4.874336">
        <ele>1496.21</ele>
        <time>2021-03-27T19:34:49Z</time>
      </trkpt>
      <trkpt lat="43.117005" lon="-4.874531">
        <ele>1492.68</ele>
        <time>2021-03-27T19:34:52Z</time>
      </trkpt>
      <trkpt lat="43.116823" lon="-4.874598">
        <ele>1492.68</ele>
        <time>2021-03-27T19:34:54Z</time>
      </trkpt>
      <trkpt lat="43.116602" lon="-4.874769">
        <ele>1495.58</ele>
        <time>2021-03-27T19:34:57Z</time>
      </trkpt>
      <trkpt lat="43.116543" lon="-4.874848">
        <ele>1498.48</ele>
        <time>2021-03-27T19:34:59Z</time>
      </trkpt>
      <trkpt lat="43.116508" lon="-4.874979">
        <ele>1499.3</ele>
        <time>2021-03-27T19:35:02Z</time>
      </trkpt>
      <trkpt lat="43.116535" lon="-4.875445">
        <ele>1495.87</ele>
        <time>2021-03-27T19:35:04Z</time>
      </trkpt>
      <trkpt lat="43.116516" lon="-4.875754">
        <ele>1495.75</ele>
        <time>2021-03-27T19:35:07Z</time>
      </trkpt>
      <trkpt lat="43.116465" lon="-4.875908">
        <ele>1496.41</ele>
        <time>2021-03-27T19:35:09Z</time>
      </trkpt>
      <trkpt lat="43.116372" lon="-4.876035">
        <ele>1498.94</ele>
        <time>2021-03-27T19:35:12Z</time>
      </trkpt>
      <trkpt lat="43.116182" lon="-4.876211">
        <ele>1499.57</ele>
        <time>2021-03-27T19:35:14Z</time>
      </trkpt>
      <trkpt lat="43.115971" lon="-4.876232">
        <ele>1501.83</ele>
        <time>2021-03-27T19:35:17Z</time>
      </trkpt>
      <trkpt lat="43.115565" lon="-4.876036">
        <ele>1509.52</ele>
        <time>2021-03-27T19:35:19Z</time>
      </trkpt>
      <trkpt lat="43.115323" lon="-4.875963">
        <ele>1512.86</ele>
        <time>2021-03-27T19:35:22Z</time>
      </trkpt>
      <trkpt lat="43.115185" lon="-4.876001">
        <ele>1512.84</ele>
        <time>2021-03-27T19:35:24Z</time>
      </trkpt>
      <trkpt lat="43.115034" lon="-4.876065">
        <ele>1512.01</ele>
        <time>2021-03-27T19:35:27Z</time>
      </trkpt>
      <trkpt lat="43.114882" lon="-4.876235">
        <ele>1510.47</ele>
        <time>2021-03-27T19:35:29Z</time>
      </trkpt>
      <trkpt lat="43.114611" lon="-4.876597">
        <ele>1509.76</ele>
        <time>2021-03-27T19:35:32Z</time>
      </trkpt>
      <trkpt lat="43.114404" lon="-4.876798">
        <ele>1511.75</ele>
        <time>2021-03-27T19:35:34Z</time>
      </trkpt>
      <trkpt lat="43.114167" lon="-4.876875">
        <ele>1512.5</ele>
        <time>2021-03-27T19:35:37Z</time>
      </trkpt>
      <trkpt lat="43.113896" lon="-4.876798">
        <ele>1515.11</ele>
        <time>2021-03-27T19:35:39Z</time>
      </trkpt>
      <trkpt lat="43.113332" lon="-4.87634">
        <ele>1519.22</ele>
        <time>2021-03-27T19:35:42Z</time>
      </trkpt>
      <trkpt lat="43.113231" lon="-4.876283">
        <ele>1519.94</ele>
        <time>2021-03-27T19:35:44Z</time>
      </trkpt>
      <trkpt lat="43.113106" lon="-4.876277">
        <ele>1519.18</ele>
        <time>2021-03-27T19:35:47Z</time>
      </trkpt>
      <trkpt lat="43.112908" lon="-4.876385">
        <ele>1517.14</ele>
        <time>2021-03-27T19:35:49Z</time>
      </trkpt>
      <trkpt lat="43.11276" lon="-4.876387">
        <ele>1518.09</ele>
        <time>2021-03-27T19:35:52Z</time>
      </trkpt>
      <trkpt lat="43.11264" lon="-4.876307">
        <ele>1519.97</ele>
        <time>2021-03-27T19:35:54Z</time>
      </trkpt>
      <trkpt lat="43.112441" lon="-4.87608">
        <ele>1524.35</ele>
        <time>2021-03-27T19:35:57Z</time>
      </trkpt>
      <trkpt lat="43.112339" lon="-4.875996">
        <ele>1525.49</ele>
        <time>2021-03-27T19:35:59Z</time>
      </trkpt>
      <trkpt lat="43.112195" lon="-4.875972">
        <ele>1525.94</ele>
        <time>2021-03-27T19:36:02Z</time>
      </trkpt>
      <trkpt lat="43.111775" lon="-4.876238">
        <ele>1529.65</ele>
        <time>2021-03-27T19:36:04Z</time>
      </trkpt>
      <trkpt lat="43.111583" lon="-4.876331">
        <ele>1531.98</ele>
        <time>2021-03-27T19:36:07Z</time>
      </trkpt>
      <trkpt lat="43.111201" lon="-4.876486">
        <ele>1532.79</ele>
        <time>2021-03-27T19:36:09Z</time>
      </trkpt>
      <trkpt lat="43.111008" lon="-4.876513">
        <ele>1533.1</ele>
        <time>2021-03-27T19:36:12Z</time>
      </trkpt>
      <trkpt lat="43.110811" lon="-4.876498">
        <ele>1533.82</ele>
        <time>2021-03-27T19:36:14Z</time>
      </trkpt>
      <trkpt lat="43.110415" lon="-4.876387">
        <ele>1538.54</ele>
        <time>2021-03-27T19:36:17Z</time>
      </trkpt>
      <trkpt lat="43.110047" lon="-4.876126">
        <ele>1542.18</ele>
        <time>2021-03-27T19:36:19Z</time>
      </trkpt>
      <trkpt lat="43.109653" lon="-4.875894">
        <ele>1545.22</ele>
        <time>2021-03-27T19:36:21Z</time>
      </trkpt>
      <trkpt lat="43.10945" lon="-4.875818">
        <ele>1546.41</ele>
        <time>2021-03-27T19:36:24Z</time>
      </trkpt>
      <trkpt lat="43.10925" lon="-4.875787">
        <ele>1548.33</ele>
        <time>2021-03-27T19:36:26Z</time>
      </trkpt>
      <trkpt lat="43.109041" lon="-4.875846">
        <ele>1550.53</ele>
        <time>2021-03-27T19:36:29Z</time>
      </trkpt>
      <trkpt lat="43.1087" lon="-4.876119">
        <ele>1554.61</ele>
        <time>2021-03-27T19:36:31Z</time>
      </trkpt>
      <trkpt lat="43.10852" lon="-4.876238">
        <ele>1556.56</ele>
        <time>2021-03-27T19:36:34Z</time>
      </trkpt>
      <trkpt lat="43.108328" lon="-4.876311">
        <ele>1558.32</ele>
        <time>2021-03-27T19:36:36Z</time>
      </trkpt>
      <trkpt lat="43.108145" lon="-4.876333">
        <ele>1560.45</ele>
        <time>2021-03-27T19:36:39Z</time>
      </trkpt>
      <trkpt lat="43.107648" lon="-4.87625">
        <ele>1562.76</ele>
        <time>2021-03-27T19:36:41Z</time>
      </trkpt>
      <trkpt lat="43.107498" lon="-4.876277">
        <ele>1562.03</ele>
        <time>2021-03-27T19:36:44Z</time>
      </trkpt>
      <trkpt lat="43.107424" lon="-4.876327">
        <ele>1561.81</ele>
        <time>2021-03-27T19:36:46Z</time>
      </trkpt>
      <trkpt lat="43.107305" lon="-4.876458">
        <ele>1561.21</ele>
        <time>2021-03-27T19:36:49Z</time>
      </trkpt>
      <trkpt lat="43.107163" lon="-4.876652">
        <ele>1560.78</ele>
        <time>2021-03-27T19:36:51Z</time>
      </trkpt>
      <trkpt lat="43.107" lon="-4.876745">
        <ele>1561.72</ele>
        <time>2021-03-27T19:36:54Z</time>
      </trkpt>
      <trkpt lat="43.106798" lon="-4.876639">
        <ele>1562.62</ele>
        <time>2021-03-27T19:36:56Z</time>
      </trkpt>
      <trkpt lat="43.105852" lon="-4.876021">
        <ele>1559.92</ele>
        <time>2021-03-27T19:36:59Z</time>
      </trkpt>
      <trkpt lat="43.105692" lon="-4.875862">
        <ele>1557.12</ele>
        <time>2021-03-27T19:37:01Z</time>
      </trkpt>
      <trkpt lat="43.105412" lon="-4.875493">
        <ele>1551.86</ele>
        <time>2021-03-27T19:37:04Z</time>
      </trkpt>
      <trkpt lat="43.104785" lon="-4.87473">
        <ele>1548.61</ele>
        <time>2021-03-27T19:37:06Z</time>
      </trkpt>
      <trkpt lat="43.104644" lon="-4.87451">
        <ele>1548.12</ele>
        <time>2021-03-27T19:37:09Z</time>
      </trkpt>
      <trkpt lat="43.104555" lon="-4.874233">
        <ele>1546.58</ele>
        <time>2021-03-27T19:37:11Z</time>
      </trkpt>
      <trkpt lat="43.104545" lon="-4.873946">
        <ele>1544.87</ele>
        <time>2021-03-27T19:37:14Z</time>
      </trkpt>
      <trkpt lat="43.104801" lon="-4.873442">
        <ele>1545.33</ele>
        <time>2021-03-27T19:37:16Z</time>
      </trkpt>
      <trkpt lat="43.104846" lon="-4.873119">
        <ele>1542.38</ele>
        <time>2021-03-27T19:37:19Z</time>
      </trkpt>
      <trkpt lat="43.104839" lon="-4.87277">
        <ele>1537.77</ele>
        <time>2021-03-27T19:37:21Z</time>
      </trkpt>
      <trkpt lat="43.104813" lon="-4.872409">
        <ele>1537.06</ele>
        <time>2021-03-27T19:37:24Z</time>
      </trkpt>
      <trkpt lat="43.104707" lon="-4.872074">
        <ele>1537.81</ele>
        <time>2021-03-27T19:37:26Z</time>
      </trkpt>
      <trkpt lat="43.104602" lon="-4.871874">
        <ele>1538.89</ele>
        <time>2021-03-27T19:37:29Z</time>
      </trkpt>
      <trkpt lat="43.104389" lon="-4.871694">
        <ele>1538.68</ele>
        <time>2021-03-27T19:37:31Z</time>
      </trkpt>
      <trkpt lat="43.104124" lon="-4.871653">
        <ele>1532.75</ele>
        <time>2021-03-27T19:37:34Z</time>
      </trkpt>
      <trkpt lat="43.103873" lon="-4.871582">
        <ele>1530.27</ele>
        <time>2021-03-27T19:37:36Z</time>
      </trkpt>
      <trkpt lat="43.103629" lon="-4.871471">
        <ele>1529.79</ele>
        <time>2021-03-27T19:37:39Z</time>
      </trkpt>
      <trkpt lat="43.103412" lon="-4.871302">
        <ele>1527.86</ele>
        <time>2021-03-27T19:37:41Z</time>
      </trkpt>
      <trkpt lat="43.103198" lon="-4.871095">
        <ele>1525.99</ele>
        <time>2021-03-27T19:37:44Z</time>
      </trkpt>
      <trkpt lat="43.102945" lon="-4.87098">
        <ele>1521.54</ele>
        <time>2021-03-27T19:37:46Z</time>
      </trkpt>
      <trkpt lat="43.102712" lon="-4.870814">
        <ele>1518.1</ele>
        <time>2021-03-27T19:37:49Z</time>
      </trkpt>
      <trkpt lat="43.102111" lon="-4.870097">
        <ele>1518.25</ele>
        <time>2021-03-27T19:37:51Z</time>
      </trkpt>
      <trkpt lat="43.101879" lon="-4.869897">
        <ele>1515.79</ele>
        <time>2021-03-27T19:37:54Z</time>
      </trkpt>
      <trkpt lat="43.100962" lon="-4.869214">
        <ele>1512.37</ele>
        <time>2021-03-27T19:37:56Z</time>
      </trkpt>
      <trkpt lat="43.100774" lon="-4.868982">
        <ele>1513.76</ele>
        <time>2021-03-27T19:37:59Z</time>
      </trkpt>
      <trkpt lat="43.100455" lon="-4.868429">
        <ele>1510.23</ele>
        <time>2021-03-27T19:38:01Z</time>
      </trkpt>
      <trkpt lat="43.100335" lon="-4.868124">
        <ele>1508.53</ele>
        <time>2021-03-27T19:38:04Z</time>
      </trkpt>
      <trkpt lat="43.1" lon="-4.867078">
        <ele>1505.56</ele>
        <time>2021-03-27T19:38:06Z</time>
      </trkpt>
      <trkpt lat="43.099897" lon="-4.86686">
        <ele>1504.28</ele>
        <time>2021-03-27T19:38:09Z</time>
      </trkpt>
      <trkpt lat="43.09976" lon="-4.866668">
        <ele>1503.92</ele>
        <time>2021-03-27T19:38:11Z</time>
      </trkpt>
      <trkpt lat="43.099015" lon="-4.865911">
        <ele>1498.07</ele>
        <time>2021-03-27T19:38:14Z</time>
      </trkpt>
      <trkpt lat="43.098885" lon="-4.865732">
        <ele>1495.97</ele>
        <time>2021-03-27T19:38:16Z</time>
      </trkpt>
      <trkpt lat="43.098387" lon="-4.864895">
        <ele>1490.75</ele>
        <time>2021-03-27T19:38:19Z</time>
      </trkpt>
      <trkpt lat="43.098238" lon="-4.864688">
        <ele>1488.87</ele>
        <time>2021-03-27T19:38:21Z</time>
      </trkpt>
      <trkpt lat="43.097911" lon="-4.864346">
        <ele>1484.55</ele>
        <time>2021-03-27T19:38:24Z</time>
      </trkpt>
      <trkpt lat="43.097779" lon="-4.864156">
        <ele>1482.21</ele>
        <time>2021-03-27T19:38:26Z</time>
      </trkpt>
      <trkpt lat="43.097572" lon="-4.863708">
        <ele>1479.41</ele>
        <time>2021-03-27T19:38:29Z</time>
      </trkpt>
      <trkpt lat="43.097446" lon="-4.863225">
        <ele>1479.05</ele>
        <time>2021-03-27T19:38:31Z</time>
      </trkpt>
      <trkpt lat="43.097362" lon="-4.862992">
        <ele>1479.55</ele>
        <time>2021-03-27T19:38:34Z</time>
      </trkpt>
      <trkpt lat="43.097257" lon="-4.862776">
        <ele>1480.03</ele>
        <time>2021-03-27T19:38:36Z</time>
      </trkpt>
      <trkpt lat="43.097131" lon="-4.862581">
        <ele>1478.6</ele>
        <time>2021-03-27T19:38:39Z</time>
      </trkpt>
      <trkpt lat="43.096979" lon="-4.862428">
        <ele>1475.47</ele>
        <time>2021-03-27T19:38:41Z</time>
      </trkpt>
      <trkpt lat="43.096286" lon="-4.861814">
        <ele>1469.4</ele>
        <time>2021-03-27T19:38:44Z</time>
      </trkpt>
      <trkpt lat="43.095632" lon="-4.861263">
        <ele>1467.56</ele>
        <time>2021-03-27T19:38:46Z</time>
      </trkpt>
      <trkpt lat="43.095433" lon="-4.861067">
        <ele>1465.47</ele>
        <time>2021-03-27T19:38:49Z</time>
      </trkpt>
      <trkpt lat="43.0953" lon="-4.8608">
        <ele>1464.79</ele>
        <time>2021-03-27T19:38:51Z</time>
      </trkpt>
      <trkpt lat="43.095084" lon="-4.860203">
        <ele>1460.58</ele>
        <time>2021-03-27T19:38:54Z</time>
      </trkpt>
      <trkpt lat="43.09494" lon="-4.859751">
        <ele>1458.7</ele>
        <time>2021-03-27T19:38:56Z</time>
      </trkpt>
      <trkpt lat="43.094848" lon="-4.859621">
        <ele>1459.08</ele>
        <time>2021-03-27T19:38:59Z</time>
      </trkpt>
      <trkpt lat="43.094425" lon="-4.859266">
        <ele>1456.48</ele>
        <time>2021-03-27T19:39:01Z</time>
      </trkpt>
      <trkpt lat="43.094262" lon="-4.859007">
        <ele>1455.98</ele>
        <time>2021-03-27T19:39:04Z</time>
      </trkpt>
      <trkpt lat="43.093796" lon="-4.858175">
        <ele>1446.13</ele>
        <time>2021-03-27T19:39:06Z</time>
      </trkpt>
      <trkpt lat="43.093686" lon="-4.857855">
        <ele>1446.78</ele>
        <time>2021-03-27T19:39:09Z</time>
      </trkpt>
      <trkpt lat="43.093666" lon="-4.857606">
        <ele>1448.31</ele>
        <time>2021-03-27T19:39:11Z</time>
      </trkpt>
      <trkpt lat="43.093659" lon="-4.857369">
        <ele>1448.94</ele>
        <time>2021-03-27T19:39:14Z</time>
      </trkpt>
      <trkpt lat="43.093697" lon="-4.856885">
        <ele>1444.4</ele>
        <time>2021-03-27T19:39:16Z</time>
      </trkpt>
      <trkpt lat="43.093721" lon="-4.856764">
        <ele>1442.22</ele>
        <time>2021-03-27T19:39:19Z</time>
      </trkpt>
      <trkpt lat="43.093867" lon="-4.856397">
        <ele>1438.42</ele>
        <time>2021-03-27T19:39:21Z</time>
      </trkpt>
      <trkpt lat="43.09401" lon="-4.855872">
        <ele>1433.66</ele>
        <time>2021-03-27T19:39:24Z</time>
      </trkpt>
      <trkpt lat="43.094097" lon="-4.855611">
        <ele>1433.54</ele>
        <time>2021-03-27T19:39:26Z</time>
      </trkpt>
      <trkpt lat="43.094336" lon="-4.855127">
        <ele>1435.13</ele>
        <time>2021-03-27T19:39:29Z</time>
      </trkpt>
      <trkpt lat="43.094438" lon="-4.85486">
        <ele>1432.19</ele>
        <time>2021-03-27T19:39:31Z</time>
      </trkpt>
      <trkpt lat="43.094833" lon="-4.853477">
        <ele>1426.38</ele>
        <time>2021-03-27T19:39:34Z</time>
      </trkpt>
      <trkpt lat="43.09499" lon="-4.852985">
        <ele>1425.23</ele>
        <time>2021-03-27T19:39:36Z</time>
      </trkpt>
      <trkpt lat="43.095424" lon="-4.85175">
        <ele>1428.1</ele>
        <time>2021-03-27T19:39:39Z</time>
      </trkpt>
      <trkpt lat="43.095469" lon="-4.851454">
        <ele>1428.2</ele>
        <time>2021-03-27T19:39:41Z</time>
      </trkpt>
      <trkpt lat="43.09547" lon="-4.851272">
        <ele>1427.6</ele>
        <time>2021-03-27T19:39:44Z</time>
      </trkpt>
      <trkpt lat="43.095438" lon="-4.851123">
        <ele>1426.1</ele>
        <time>2021-03-27T19:39:46Z</time>
      </trkpt>
      <trkpt lat="43.095312" lon="-4.850965">
        <ele>1422.6</ele>
        <time>2021-03-27T19:39:48Z</time>
      </trkpt>
      <trkpt lat="43.095163" lon="-4.850889">
        <ele>1423.49</ele>
        <time>2021-03-27T19:39:51Z</time>
      </trkpt>
      <trkpt lat="43.095081" lon="-4.8509">
        <ele>1424.49</ele>
        <time>2021-03-27T19:39:53Z</time>
      </trkpt>
      <trkpt lat="43.094995" lon="-4.85095">
        <ele>1425.28</ele>
        <time>2021-03-27T19:39:56Z</time>
      </trkpt>
      <trkpt lat="43.094866" lon="-4.851144">
        <ele>1426.54</ele>
        <time>2021-03-27T19:39:58Z</time>
      </trkpt>
      <trkpt lat="43.094364" lon="-4.852367">
        <ele>1421.03</ele>
        <time>2021-03-27T19:40:01Z</time>
      </trkpt>
      <trkpt lat="43.094213" lon="-4.852667">
        <ele>1417.8</ele>
        <time>2021-03-27T19:40:03Z</time>
      </trkpt>
      <trkpt lat="43.093883" lon="-4.853097">
        <ele>1420.04</ele>
        <time>2021-03-27T19:40:06Z</time>
      </trkpt>
      <trkpt lat="43.093785" lon="-4.853302">
        <ele>1422.48</ele>
        <time>2021-03-27T19:40:08Z</time>
      </trkpt>
      <trkpt lat="43.093343" lon="-4.854558">
        <ele>1422.03</ele>
        <time>2021-03-27T19:40:11Z</time>
      </trkpt>
      <trkpt lat="43.093291" lon="-4.854869">
        <ele>1420.52</ele>
        <time>2021-03-27T19:40:13Z</time>
      </trkpt>
      <trkpt lat="43.093171" lon="-4.855092">
        <ele>1416.01</ele>
        <time>2021-03-27T19:40:16Z</time>
      </trkpt>
      <trkpt lat="43.093065" lon="-4.855161">
        <ele>1412.52</ele>
        <time>2021-03-27T19:40:18Z</time>
      </trkpt>
      <trkpt lat="43.092703" lon="-4.855207">
        <ele>1415.47</ele>
        <time>2021-03-27T19:40:21Z</time>
      </trkpt>
      <trkpt lat="43.092528" lon="-4.855294">
        <ele>1414.1</ele>
        <time>2021-03-27T19:40:23Z</time>
      </trkpt>
      <trkpt lat="43.092189" lon="-4.855605">
        <ele>1406.93</ele>
        <time>2021-03-27T19:40:26Z</time>
      </trkpt>
      <trkpt lat="43.091833" lon="-4.855884">
        <ele>1403.59</ele>
        <time>2021-03-27T19:40:28Z</time>
      </trkpt>
      <trkpt lat="43.091029" lon="-4.856264">
        <ele>1398.19</ele>
        <time>2021-03-27T19:40:31Z</time>
      </trkpt>
      <trkpt lat="43.090799" lon="-4.856307">
        <ele>1394.21</ele>
        <time>2021-03-27T19:40:33Z</time>
      </trkpt>
      <trkpt lat="43.090568" lon="-4.856271">
        <ele>1393.38</ele>
        <time>2021-03-27T19:40:36Z</time>
      </trkpt>
      <trkpt lat="43.089645" lon="-4.855986">
        <ele>1394.6</ele>
        <time>2021-03-27T19:40:38Z</time>
      </trkpt>
      <trkpt lat="43.089401" lon="-4.855927">
        <ele>1389.69</ele>
        <time>2021-03-27T19:40:41Z</time>
      </trkpt>
      <trkpt lat="43.088678" lon="-4.855822">
        <ele>1388.46</ele>
        <time>2021-03-27T19:40:43Z</time>
      </trkpt>
      <trkpt lat="43.088462" lon="-4.855716">
        <ele>1385.31</ele>
        <time>2021-03-27T19:40:46Z</time>
      </trkpt>
      <trkpt lat="43.088049" lon="-4.855415">
        <ele>1385.93</ele>
        <time>2021-03-27T19:40:48Z</time>
      </trkpt>
      <trkpt lat="43.087829" lon="-4.855296">
        <ele>1384.8</ele>
        <time>2021-03-27T19:40:51Z</time>
      </trkpt>
      <trkpt lat="43.087607" lon="-4.855231">
        <ele>1383.3</ele>
        <time>2021-03-27T19:40:53Z</time>
      </trkpt>
      <trkpt lat="43.087172" lon="-4.85523">
        <ele>1375.89</ele>
        <time>2021-03-27T19:40:56Z</time>
      </trkpt>
      <trkpt lat="43.086955" lon="-4.8552">
        <ele>1374.24</ele>
        <time>2021-03-27T19:40:58Z</time>
      </trkpt>
      <trkpt lat="43.086528" lon="-4.855103">
        <ele>1375.39</ele>
        <time>2021-03-27T19:41:01Z</time>
      </trkpt>
      <trkpt lat="43.086127" lon="-4.854883">
        <ele>1379.6</ele>
        <time>2021-03-27T19:41:03Z</time>
      </trkpt>
      <trkpt lat="43.085522" lon="-4.854465">
        <ele>1374.53</ele>
        <time>2021-03-27T19:41:06Z</time>
      </trkpt>
      <trkpt lat="43.085335" lon="-4.854428">
        <ele>1370.38</ele>
        <time>2021-03-27T19:41:08Z</time>
      </trkpt>
      <trkpt lat="43.08446" lon="-4.854462">
        <ele>1361.61</ele>
        <time>2021-03-27T19:41:11Z</time>
      </trkpt>
      <trkpt lat="43.083625" lon="-4.854344">
        <ele>1356.87</ele>
        <time>2021-03-27T19:41:13Z</time>
      </trkpt>
      <trkpt lat="43.083501" lon="-4.854395">
        <ele>1356.54</ele>
        <time>2021-03-27T19:41:16Z</time>
      </trkpt>
      <trkpt lat="43.083423" lon="-4.854457">
        <ele>1356.21</ele>
        <time>2021-03-27T19:41:18Z</time>
      </trkpt>
      <trkpt lat="43.083357" lon="-4.854591">
        <ele>1355.19</ele>
        <time>2021-03-27T19:41:21Z</time>
      </trkpt>
      <trkpt lat="43.083341" lon="-4.854778">
        <ele>1353.1</ele>
        <time>2021-03-27T19:41:23Z</time>
      </trkpt>
      <trkpt lat="43.083386" lon="-4.854995">
        <ele>1349.51</ele>
        <time>2021-03-27T19:41:26Z</time>
      </trkpt>
      <trkpt lat="43.083382" lon="-4.855334">
        <ele>1347.93</ele>
        <time>2021-03-27T19:41:28Z</time>
      </trkpt>
      <trkpt lat="43.083296" lon="-4.855856">
        <ele>1345.48</ele>
        <time>2021-03-27T19:41:31Z</time>
      </trkpt>
      <trkpt lat="43.083242" lon="-4.856081">
        <ele>1344.27</ele>
        <time>2021-03-27T19:41:33Z</time>
      </trkpt>
      <trkpt lat="43.083092" lon="-4.856406">
        <ele>1343.78</ele>
        <time>2021-03-27T19:41:36Z</time>
      </trkpt>
      <trkpt lat="43.082966" lon="-4.856609">
        <ele>1344.98</ele>
        <time>2021-03-27T19:41:38Z</time>
      </trkpt>
      <trkpt lat="43.082806" lon="-4.856805">
        <ele>1344.11</ele>
        <time>2021-03-27T19:41:41Z</time>
      </trkpt>
      <trkpt lat="43.082473" lon="-4.857078">
        <ele>1335.53</ele>
        <time>2021-03-27T19:41:43Z</time>
      </trkpt>
      <trkpt lat="43.0823" lon="-4.857167">
        <ele>1332.71</ele>
        <time>2021-03-27T19:41:46Z</time>
      </trkpt>
      <trkpt lat="43.082169" lon="-4.857149">
        <ele>1331.68</ele>
        <time>2021-03-27T19:41:48Z</time>
      </trkpt>
      <trkpt lat="43.082038" lon="-4.85709">
        <ele>1332.52</ele>
        <time>2021-03-27T19:41:51Z</time>
      </trkpt>
      <trkpt lat="43.081859" lon="-4.856927">
        <ele>1333.98</ele>
        <time>2021-03-27T19:41:53Z</time>
      </trkpt>
      <trkpt lat="43.081515" lon="-4.85648">
        <ele>1336.0</ele>
        <time>2021-03-27T19:41:56Z</time>
      </trkpt>
      <trkpt lat="43.081314" lon="-4.856267">
        <ele>1335.74</ele>
        <time>2021-03-27T19:41:58Z</time>
      </trkpt>
      <trkpt lat="43.081099" lon="-4.856128">
        <ele>1336.06</ele>
        <time>2021-03-27T19:42:01Z</time>
      </trkpt>
      <trkpt lat="43.080849" lon="-4.856022">
        <ele>1338.63</ele>
        <time>2021-03-27T19:42:03Z</time>
      </trkpt>
      <trkpt lat="43.080591" lon="-4.855942">
        <ele>1336.67</ele>
        <time>2021-03-27T19:42:06Z</time>
      </trkpt>
      <trkpt lat="43.079847" lon="-4.855798">
        <ele>1329.62</ele>
        <time>2021-03-27T19:42:08Z</time>
      </trkpt>
      <trkpt lat="43.079614" lon="-4.855817">
        <ele>1328.11</ele>
        <time>2021-03-27T19:42:11Z</time>
      </trkpt>
      <trkpt lat="43.07918" lon="-4.8559">
        <ele>1330.69</ele>
        <time>2021-03-27T19:42:13Z</time>
      </trkpt>
      <trkpt lat="43.07824" lon="-4.855975">
        <ele>1322.78</ele>
        <time>2021-03-27T19:42:16Z</time>
      </trkpt>
      <trkpt lat="43.078005" lon="-4.85605">
        <ele>1325.27</ele>
        <time>2021-03-27T19:42:18Z</time>
      </trkpt>
      <trkpt lat="43.077326" lon="-4.856476">
        <ele>1324.62</ele>
        <time>2021-03-27T19:42:21Z</time>
      </trkpt>
      <trkpt lat="43.076669" lon="-4.856919">
        <ele>1318.91</ele>
        <time>2021-03-27T19:42:23Z</time>
      </trkpt>
      <trkpt lat="43.076448" lon="-4.857018">
        <ele>1317.78</ele>
        <time>2021-03-27T19:42:26Z</time>
      </trkpt>
      <trkpt lat="43.076214" lon="-4.85707">
        <ele>1316.15</ele>
        <time>2021-03-27T19:42:28Z</time>
      </trkpt>
      <trkpt lat="43.075501" lon="-4.857176">
        <ele>1318.77</ele>
        <time>2021-03-27T19:42:31Z</time>
      </trkpt>
      <trkpt lat="43.075284" lon="-4.857265">
        <ele>1314.46</ele>
        <time>2021-03-27T19:42:33Z</time>
      </trkpt>
      <trkpt lat="43.072185" lon="-4.858832">
        <ele>1307.88</ele>
        <time>2021-03-27T19:42:36Z</time>
      </trkpt>
      <trkpt lat="43.071768" lon="-4.858956">
        <ele>1304.52</ele>
        <time>2021-03-27T19:42:38Z</time>
      </trkpt>
      <trkpt lat="43.071554" lon="-4.85895">
        <ele>1303.81</ele>
        <time>2021-03-27T19:42:41Z</time>
      </trkpt>
      <trkpt lat="43.071142" lon="-4.858886">
        <ele>1305.07</ele>
        <time>2021-03-27T19:42:43Z</time>
      </trkpt>
      <trkpt lat="43.070934" lon="-4.858883">
        <ele>1304.55</ele>
        <time>2021-03-27T19:42:46Z</time>
      </trkpt>
      <trkpt lat="43.070755" lon="-4.858957">
        <ele>1303.13</ele>
        <time>2021-03-27T19:42:48Z</time>
      </trkpt>
      <trkpt lat="43.070603" lon="-4.859083">
        <ele>1300.43</ele>
        <time>2021-03-27T19:42:51Z</time>
      </trkpt>
      <trkpt lat="43.070137" lon="-4.859603">
        <ele>1300.77</ele>
        <time>2021-03-27T19:42:53Z</time>
      </trkpt>
      <trkpt lat="43.069848" lon="-4.860061">
        <ele>1301.96</ele>
        <time>2021-03-27T19:42:56Z</time>
      </trkpt>
      <trkpt lat="43.069668" lon="-4.860284">
        <ele>1299.15</ele>
        <time>2021-03-27T19:42:58Z</time>
      </trkpt>
      <trkpt lat="43.069565" lon="-4.860384">
        <ele>1298.1</ele>
        <time>2021-03-27T19:43:01Z</time>
      </trkpt>
      <trkpt lat="43.06946" lon="-4.860445">
        <ele>1296.5</ele>
        <time>2021-03-27T19:43:03Z</time>
      </trkpt>
      <trkpt lat="43.069329" lon="-4.86047">
        <ele>1295.15</ele>
        <time>2021-03-27T19:43:06Z</time>
      </trkpt>
      <trkpt lat="43.069191" lon="-4.860429">
        <ele>1295.32</ele>
        <time>2021-03-27T19:43:08Z</time>
      </trkpt>
      <trkpt lat="43.068942" lon="-4.860236">
        <ele>1299.42</ele>
        <time>2021-03-27T19:43:11Z</time>
      </trkpt>
      <trkpt lat="43.06839" lon="-4.85972">
        <ele>1302.73</ele>
        <time>2021-03-27T19:43:13Z</time>
      </trkpt>
      <trkpt lat="43.067797" lon="-4.859263">
        <ele>1298.85</ele>
        <time>2021-03-27T19:43:16Z</time>
      </trkpt>
      <trkpt lat="43.067422" lon="-4.85888">
        <ele>1295.18</ele>
        <time>2021-03-27T19:43:18Z</time>
      </trkpt>
      <trkpt lat="43.066654" lon="-4.858022">
        <ele>1284.36</ele>
        <time>2021-03-27T19:43:20Z</time>
      </trkpt>
      <trkpt lat="43.066467" lon="-4.857844">
        <ele>1286.53</ele>
        <time>2021-03-27T19:43:23Z</time>
      </trkpt>
      <trkpt lat="43.066262" lon="-4.857709">
        <ele>1289.78</ele>
        <time>2021-03-27T19:43:25Z</time>
      </trkpt>
      <trkpt lat="43.066041" lon="-4.85761">
        <ele>1290.36</ele>
        <time>2021-03-27T19:43:28Z</time>
      </trkpt>
      <trkpt lat="43.065819" lon="-4.857557">
        <ele>1289.28</ele>
        <time>2021-03-27T19:43:30Z</time>
      </trkpt>
      <trkpt lat="43.065379" lon="-4.857555">
        <ele>1295.67</ele>
        <time>2021-03-27T19:43:33Z</time>
      </trkpt>
      <trkpt lat="43.065161" lon="-4.857577">
        <ele>1294.94</ele>
        <time>2021-03-27T19:43:35Z</time>
      </trkpt>
      <trkpt lat="43.064962" lon="-4.857633">
        <ele>1287.88</ele>
        <time>2021-03-27T19:43:38Z</time>
      </trkpt>
      <trkpt lat="43.064772" lon="-4.857715">
        <ele>1280.28</ele>
        <time>2021-03-27T19:43:40Z</time>
      </trkpt>
      <trkpt lat="43.064432" lon="-4.857922">
        <ele>1281.53</ele>
        <time>2021-03-27T19:43:43Z</time>
      </trkpt>
      <trkpt lat="43.064297" lon="-4.85791">
        <ele>1282.05</ele>
        <time>2021-03-27T19:43:45Z</time>
      </trkpt>
      <trkpt lat="43.063976" lon="-4.857689">
        <ele>1282.13</ele>
        <time>2021-03-27T19:43:48Z</time>
      </trkpt>
      <trkpt lat="43.063601" lon="-4.857343">
        <ele>1281.74</ele>
        <time>2021-03-27T19:43:50Z</time>
      </trkpt>
      <trkpt lat="43.063397" lon="-4.85718">
        <ele>1285.9</ele>
        <time>2021-03-27T19:43:53Z</time>
      </trkpt>
      <trkpt lat="43.063174" lon="-4.857064">
        <ele>1287.3</ele>
        <time>2021-03-27T19:43:55Z</time>
      </trkpt>
      <trkpt lat="43.06229" lon="-4.856726">
        <ele>1281.19</ele>
        <time>2021-03-27T19:43:58Z</time>
      </trkpt>
      <trkpt lat="43.062086" lon="-4.856606">
        <ele>1279.56</ele>
        <time>2021-03-27T19:44:00Z</time>
      </trkpt>
      <trkpt lat="43.061896" lon="-4.856467">
        <ele>1277.78</ele>
        <time>2021-03-27T19:44:03Z</time>
      </trkpt>
      <trkpt lat="43.061748" lon="-4.856283">
        <ele>1276.38</ele>
        <time>2021-03-27T19:44:05Z</time>
      </trkpt>
      <trkpt lat="43.06152" lon="-4.855768">
        <ele>1281.2</ele>
        <time>2021-03-27T19:44:08Z</time>
      </trkpt>
      <trkpt lat="43.06095" lon="-4.85498">
        <ele>1280.45</ele>
        <time>2021-03-27T19:44:10Z</time>
      </trkpt>
      <trkpt lat="43.060791" lon="-4.854821">
        <ele>1277.43</ele>
        <time>2021-03-27T19:44:13Z</time>
      </trkpt>
      <trkpt lat="43.060625" lon="-4.854707">
        <ele>1276.26</ele>
        <time>2021-03-27T19:44:15Z</time>
      </trkpt>
      <trkpt lat="43.060435" lon="-4.854668">
        <ele>1275.11</ele>
        <time>2021-03-27T19:44:18Z</time>
      </trkpt>
      <trkpt lat="43.060194" lon="-4.854753">
        <ele>1272.48</ele>
        <time>2021-03-27T19:44:20Z</time>
      </trkpt>
      <trkpt lat="43.059964" lon="-4.85494">
        <ele>1270.93</ele>
        <time>2021-03-27T19:44:23Z</time>
      </trkpt>
      <trkpt lat="43.059845" lon="-4.855141">
        <ele>1271.05</ele>
        <time>2021-03-27T19:44:25Z</time>
      </trkpt>
      <trkpt lat="43.059704" lon="-4.855292">
        <ele>1270.06</ele>
        <time>2021-03-27T19:44:28Z</time>
      </trkpt>
      <trkpt lat="43.05936" lon="-4.855513">
        <ele>1270.05</ele>
        <time>2021-03-27T19:44:30Z</time>
      </trkpt>
      <trkpt lat="43.059192" lon="-4.855653">
        <ele>1270.21</ele>
        <time>2021-03-27T19:44:33Z</time>
      </trkpt>
      <trkpt lat="43.058557" lon="-4.856416">
        <ele>1278.98</ele>
        <time>2021-03-27T19:44:35Z</time>
      </trkpt>
      <trkpt lat="43.058351" lon="-4.856561">
        <ele>1277.81</ele>
        <time>2021-03-27T19:44:38Z</time>
      </trkpt>
      <trkpt lat="43.058126" lon="-4.856632">
        <ele>1278.11</ele>
        <time>2021-03-27T19:44:40Z</time>
      </trkpt>
      <trkpt lat="43.057892" lon="-4.856644">
        <ele>1276.79</ele>
        <time>2021-03-27T19:44:43Z</time>
      </trkpt>
      <trkpt lat="43.05767" lon="-4.856689">
        <ele>1274.63</ele>
        <time>2021-03-27T19:44:45Z</time>
      </trkpt>
      <trkpt lat="43.057027" lon="-4.857035">
        <ele>1265.34</ele>
        <time>2021-03-27T19:44:48Z</time>
      </trkpt>
      <trkpt lat="43.0568" lon="-4.857074">
        <ele>1265.59</ele>
        <time>2021-03-27T19:44:50Z</time>
      </trkpt>
      <trkpt lat="43.056576" lon="-4.85704">
        <ele>1265.55</ele>
        <time>2021-03-27T19:44:53Z</time>
      </trkpt>
      <trkpt lat="43.056346" lon="-4.85697">
        <ele>1264.56</ele>
        <time>2021-03-27T19:44:55Z</time>
      </trkpt>
      <trkpt lat="43.056138" lon="-4.856835">
        <ele>1265.82</ele>
        <time>2021-03-27T19:44:58Z</time>
      </trkpt>
      <trkpt lat="43.05595" lon="-4.856678">
        <ele>1263.8</ele>
        <time>2021-03-27T19:45:00Z</time>
      </trkpt>
      <trkpt lat="43.055776" lon="-4.856493">
        <ele>1262.68</ele>
        <time>2021-03-27T19:45:03Z</time>
      </trkpt>
      <trkpt lat="43.055631" lon="-4.856252">
        <ele>1264.13</ele>
        <time>2021-03-27T19:45:05Z</time>
      </trkpt>
      <trkpt lat="43.054873" lon="-4.854405">
        <ele>1269.98</ele>
        <time>2021-03-27T19:45:08Z</time>
      </trkpt>
      <trkpt lat="43.054076" lon="-4.852517">
        <ele>1252.16</ele>
        <time>2021-03-27T19:45:10Z</time>
      </trkpt>
      <trkpt lat="43.053941" lon="-4.852246">
        <ele>1251.7</ele>
        <time>2021-03-27T19:45:13Z</time>
      </trkpt>
      <trkpt lat="43.053788" lon="-4.852038">
        <ele>1253.83</ele>
        <time>2021-03-27T19:45:15Z</time>
      </trkpt>
      <trkpt lat="43.053585" lon="-4.851924">
        <ele>1255.68</ele>
        <time>2021-03-27T19:45:18Z</time>
      </trkpt>
      <trkpt lat="43.053359" lon="-4.851886">
        <ele>1257.4</ele>
        <time>2021-03-27T19:45:20Z</time>
      </trkpt>
      <trkpt lat="43.053114" lon="-4.851901">
        <ele>1255.89</ele>
        <time>2021-03-27T19:45:23Z</time>
      </trkpt>
      <trkpt lat="43.052647" lon="-4.852073">
        <ele>1251.98</ele>
        <time>2021-03-27T19:45:25Z</time>
      </trkpt>
      <trkpt lat="43.051464" lon="-4.852721">
        <ele>1249.7</ele>
        <time>2021-03-27T19:45:28Z</time>
      </trkpt>
      <trkpt lat="43.051283" lon="-4.852702">
        <ele>1249.26</ele>
        <time>2021-03-27T19:45:30Z</time>
      </trkpt>
      <trkpt lat="43.05106" lon="-4.852645">
        <ele>1249.15</ele>
        <time>2021-03-27T19:45:33Z</time>
      </trkpt>
      <trkpt lat="43.049704" lon="-4.852212">
        <ele>1246.17</ele>
        <time>2021-03-27T19:45:35Z</time>
      </trkpt>
      <trkpt lat="43.049518" lon="-4.852086">
        <ele>1247.12</ele>
        <time>2021-03-27T19:45:38Z</time>
      </trkpt>
      <trkpt lat="43.04934" lon="-4.851926">
        <ele>1246.52</ele>
        <time>2021-03-27T19:45:40Z</time>
      </trkpt>
      <trkpt lat="43.049166" lon="-4.851712">
        <ele>1242.64</ele>
        <time>2021-03-27T19:45:43Z</time>
      </trkpt>
      <trkpt lat="43.048866" lon="-4.851068">
        <ele>1244.79</ele>
        <time>2021-03-27T19:45:45Z</time>
      </trkpt>
      <trkpt lat="43.04874" lon="-4.850907">
        <ele>1245.62</ele>
        <time>2021-03-27T19:45:48Z</time>
      </trkpt>
      <trkpt lat="43.048535" lon="-4.850799">
        <ele>1244.13</ele>
        <time>2021-03-27T19:45:50Z</time>
      </trkpt>
      <trkpt lat="43.048313" lon="-4.850735">
        <ele>1244.16</ele>
        <time>2021-03-27T19:45:53Z</time>
      </trkpt>
      <trkpt lat="43.047632" lon="-4.850733">
        <ele>1241.6</ele>
        <time>2021-03-27T19:45:55Z</time>
      </trkpt>
      <trkpt lat="43.04742" lon="-4.85068">
        <ele>1242.95</ele>
        <time>2021-03-27T19:45:58Z</time>
      </trkpt>
      <trkpt lat="43.047219" lon="-4.850563">
        <ele>1242.92</ele>
        <time>2021-03-27T19:46:00Z</time>
      </trkpt>
      <trkpt lat="43.046822" lon="-4.85021">
        <ele>1235.45</ele>
        <time>2021-03-27T19:46:03Z</time>
      </trkpt>
      <trkpt lat="43.046635" lon="-4.850018">
        <ele>1232.87</ele>
        <time>2021-03-27T19:46:05Z</time>
      </trkpt>
      <trkpt lat="43.046472" lon="-4.849793">
        <ele>1234.23</ele>
        <time>2021-03-27T19:46:08Z</time>
      </trkpt>
      <trkpt lat="43.046357" lon="-4.849252">
        <ele>1235.3</ele>
        <time>2021-03-27T19:46:10Z</time>
      </trkpt>
      <trkpt lat="43.046276" lon="-4.849013">
        <ele>1235.02</ele>
        <time>2021-03-27T19:46:13Z</time>
      </trkpt>
      <trkpt lat="43.046179" lon="-4.848833">
        <ele>1234.07</ele>
        <time>2021-03-27T19:46:15Z</time>
      </trkpt>
      <trkpt lat="43.046086" lon="-4.848812">
        <ele>1232.77</ele>
        <time>2021-03-27T19:46:18Z</time>
      </trkpt>
      <trkpt lat="43.045819" lon="-4.848917">
        <ele>1235.35</ele>
        <time>2021-03-27T19:46:20Z</time>
      </trkpt>
      <trkpt lat="43.04573" lon="-4.848912">
        <ele>1237.43</ele>
        <time>2021-03-27T19:46:23Z</time>
      </trkpt>
      <trkpt lat="43.045413" lon="-4.848593">
        <ele>1239.47</ele>
        <time>2021-03-27T19:46:25Z</time>
      </trkpt>
      <trkpt lat="43.04529" lon="-4.84851">
        <ele>1240.4</ele>
        <time>2021-03-27T19:46:28Z</time>
      </trkpt>
      <trkpt lat="43.045148" lon="-4.848507">
        <ele>1242.14</ele>
        <time>2021-03-27T19:46:30Z</time>
      </trkpt>
      <trkpt lat="43.044963" lon="-4.848604">
        <ele>1243.62</ele>
        <time>2021-03-27T19:46:33Z</time>
      </trkpt>
      <trkpt lat="43.044798" lon="-4.848812">
        <ele>1242.15</ele>
        <time>2021-03-27T19:46:35Z</time>
      </trkpt>
      <trkpt lat="43.044294" lon="-4.84962">
        <ele>1252.32</ele>
        <time>2021-03-27T19:46:38Z</time>
      </trkpt>
      <trkpt lat="43.043695" lon="-4.850112">
        <ele>1269.97</ele>
        <time>2021-03-27T19:46:40Z</time>
      </trkpt>
      <trkpt lat="43.043156" lon="-4.850755">
        <ele>1248.37</ele>
        <time>2021-03-27T19:46:43Z</time>
      </trkpt>
      <trkpt lat="43.042796" lon="-4.851126">
        <ele>1239.51</ele>
        <time>2021-03-27T19:46:45Z</time>
      </trkpt>
      <trkpt lat="43.042661" lon="-4.851319">
        <ele>1236.49</ele>
        <time>2021-03-27T19:46:47Z</time>
      </trkpt>
      <trkpt lat="43.042513" lon="-4.851485">
        <ele>1230.45</ele>
        <time>2021-03-27T19:46:50Z</time>
      </trkpt>
      <trkpt lat="43.042312" lon="-4.851612">
        <ele>1227.29</ele>
        <time>2021-03-27T19:46:52Z</time>
      </trkpt>
      <trkpt lat="43.041967" lon="-4.851665">
        <ele>1227.84</ele>
        <time>2021-03-27T19:46:55Z</time>
      </trkpt>
      <trkpt lat="43.041497" lon="-4.851794">
        <ele>1229.2</ele>
        <time>2021-03-27T19:46:57Z</time>
      </trkpt>
      <trkpt lat="43.041419" lon="-4.851928">
        <ele>1229.26</ele>
        <time>2021-03-27T19:47:00Z</time>
      </trkpt>
      <trkpt lat="43.041388" lon="-4.852054">
        <ele>1229.38</ele>
        <time>2021-03-27T19:47:02Z</time>
      </trkpt>
      <trkpt lat="43.041371" lon="-4.852326">
        <ele>1230.79</ele>
        <time>2021-03-27T19:47:05Z</time>
      </trkpt>
      <trkpt lat="43.041283" lon="-4.852593">
        <ele>1232.51</ele>
        <time>2021-03-27T19:47:07Z</time>
      </trkpt>
      <trkpt lat="43.041123" lon="-4.852785">
        <ele>1235.44</ele>
        <time>2021-03-27T19:47:10Z</time>
      </trkpt>
      <trkpt lat="43.040942" lon="-4.852913">
        <ele>1237.2</ele>
        <time>2021-03-27T19:47:12Z</time>
      </trkpt>
      <trkpt lat="43.040724" lon="-4.852959">
        <ele>1234.95</ele>
        <time>2021-03-27T19:47:15Z</time>
      </trkpt>
      <trkpt lat="43.04051" lon="-4.852956">
        <ele>1233.08</ele>
        <time>2021-03-27T19:47:17Z</time>
      </trkpt>
      <trkpt lat="43.040278" lon="-4.852905">
        <ele>1235.2</ele>
        <time>2021-03-27T19:47:20Z</time>
      </trkpt>
      <trkpt lat="43.040062" lon="-4.852775">
        <ele>1235.04</ele>
        <time>2021-03-27T19:47:22Z</time>
      </trkpt>
      <trkpt lat="43.039063" lon="-4.852056">
        <ele>1219.54</ele>
        <time>2021-03-27T19:47:25Z</time>
      </trkpt>
      <trkpt lat="43.038813" lon="-4.851939">
        <ele>1215.8</ele>
        <time>2021-03-27T19:47:27Z</time>
      </trkpt>
      <trkpt lat="43.038268" lon="-4.85219">
        <ele>1221.46</ele>
        <time>2021-03-27T19:47:29Z</time>
      </trkpt>
      <trkpt lat="43.038221" lon="-4.852267">
        <ele>1222.14</ele>
        <time>2021-03-27T19:47:30Z</time>
      </trkpt>
      <trkpt lat="43.038184" lon="-4.852372">
        <ele>1221.95</ele>
        <time>2021-03-27T19:47:31Z</time>
      </trkpt>
      <trkpt lat="43.03818" lon="-4.852546">
        <ele>1221.22</ele>
        <time>2021-03-27T19:47:33Z</time>
      </trkpt>
      <trkpt lat="43.038395" lon="-4.853387">
        <ele>1224.16</ele>
        <time>2021-03-27T19:47:34Z</time>
      </trkpt>
      <trkpt lat="43.038434" lon="-4.853595">
        <ele>1225.07</ele>
        <time>2021-03-27T19:47:35Z</time>
      </trkpt>
      <trkpt lat="43.038449" lon="-4.853832">
        <ele>1226.82</ele>
        <time>2021-03-27T19:47:37Z</time>
      </trkpt>
      <trkpt lat="43.038425" lon="-4.854118">
        <ele>1229.34</ele>
        <time>2021-03-27T19:47:38Z</time>
      </trkpt>
      <trkpt lat="43.038344" lon="-4.85448">
        <ele>1227.1</ele>
        <time>2021-03-27T19:47:39Z</time>
      </trkpt>
      <trkpt lat="43.038344" lon="-4.85448">
        <ele>1227.1</ele>
        <time>2021-03-27T19:47:39Z</time>
      </trkpt>
      <trkpt lat="43.038219" lon="-4.855034">
        <ele>1224.85</ele>
        <time>2021-03-27T19:47:42Z</time>
      </trkpt>
      <trkpt lat="43.038177" lon="-4.855302">
        <ele>1226.23</ele>
        <time>2021-03-27T19:47:45Z</time>
      </trkpt>
      <trkpt lat="43.037871" lon="-4.8562">
        <ele>1231.65</ele>
        <time>2021-03-27T19:47:48Z</time>
      </trkpt>
      <trkpt lat="43.037226" lon="-4.85737">
        <ele>1213.05</ele>
        <time>2021-03-27T19:47:52Z</time>
      </trkpt>
      <trkpt lat="43.036875" lon="-4.858142">
        <ele>1217.38</ele>
        <time>2021-03-27T19:47:55Z</time>
      </trkpt>
      <trkpt lat="43.036675" lon="-4.858345">
        <ele>1221.41</ele>
        <time>2021-03-27T19:47:58Z</time>
      </trkpt>
      <trkpt lat="43.0361" lon="-4.858467">
        <ele>1226.43</ele>
        <time>2021-03-27T19:48:01Z</time>
      </trkpt>
      <trkpt lat="43.035909" lon="-4.858454">
        <ele>1228.7</ele>
        <time>2021-03-27T19:48:04Z</time>
      </trkpt>
      <trkpt lat="43.0358" lon="-4.858412">
        <ele>1229.26</ele>
        <time>2021-03-27T19:48:07Z</time>
      </trkpt>
      <trkpt lat="43.035696" lon="-4.858312">
        <ele>1229.87</ele>
        <time>2021-03-27T19:48:10Z</time>
      </trkpt>
      <trkpt lat="43.035589" lon="-4.858146">
        <ele>1229.36</ele>
        <time>2021-03-27T19:48:13Z</time>
      </trkpt>
      <trkpt lat="43.035543" lon="-4.858011">
        <ele>1227.73</ele>
        <time>2021-03-27T19:48:16Z</time>
      </trkpt>
      <trkpt lat="43.035532" lon="-4.857658">
        <ele>1220.6</ele>
        <time>2021-03-27T19:48:19Z</time>
      </trkpt>
      <trkpt lat="43.035543" lon="-4.85592">
        <ele>1215.2</ele>
        <time>2021-03-27T19:48:22Z</time>
      </trkpt>
      <trkpt lat="43.035512" lon="-4.85538">
        <ele>1208.69</ele>
        <time>2021-03-27T19:48:25Z</time>
      </trkpt>
      <trkpt lat="43.035464" lon="-4.855245">
        <ele>1207.76</ele>
        <time>2021-03-27T19:48:28Z</time>
      </trkpt>
      <trkpt lat="43.03539" lon="-4.85515">
        <ele>1207.86</ele>
        <time>2021-03-27T19:48:31Z</time>
      </trkpt>
      <trkpt lat="43.035309" lon="-4.855128">
        <ele>1208.58</ele>
        <time>2021-03-27T19:48:34Z</time>
      </trkpt>
      <trkpt lat="43.035213" lon="-4.855144">
        <ele>1209.39</ele>
        <time>2021-03-27T19:48:37Z</time>
      </trkpt>
      <trkpt lat="43.035115" lon="-4.855244">
        <ele>1210.86</ele>
        <time>2021-03-27T19:48:40Z</time>
      </trkpt>
      <trkpt lat="43.034634" lon="-4.856135">
        <ele>1215.4</ele>
        <time>2021-03-27T19:48:43Z</time>
      </trkpt>
      <trkpt lat="43.03442" lon="-4.856403">
        <ele>1212.06</ele>
        <time>2021-03-27T19:48:46Z</time>
      </trkpt>
      <trkpt lat="43.034139" lon="-4.85657">
        <ele>1212.52</ele>
        <time>2021-03-27T19:48:49Z</time>
      </trkpt>
      <trkpt lat="43.033983" lon="-4.856618">
        <ele>1213.66</ele>
        <time>2021-03-27T19:48:52Z</time>
      </trkpt>
      <trkpt lat="43.033816" lon="-4.856624">
        <ele>1213.99</ele>
        <time>2021-03-27T19:48:55Z</time>
      </trkpt>
      <trkpt lat="43.033586" lon="-4.85657">
        <ele>1212.89</ele>
        <time>2021-03-27T19:48:58Z</time>
      </trkpt>
      <trkpt lat="43.033186" lon="-4.856366">
        <ele>1206.24</ele>
        <time>2021-03-27T19:49:01Z</time>
      </trkpt>
      <trkpt lat="43.032771" lon="-4.856043">
        <ele>1209.01</ele>
        <time>2021-03-27T19:49:04Z</time>
      </trkpt>
      <trkpt lat="43.032131" lon="-4.855337">
        <ele>1205.1</ele>
        <time>2021-03-27T19:49:07Z</time>
      </trkpt>
      <trkpt lat="43.032009" lon="-4.855227">
        <ele>1203.29</ele>
        <time>2021-03-27T19:49:10Z</time>
      </trkpt>
      <trkpt lat="43.03189" lon="-4.855174">
        <ele>1202.78</ele>
        <time>2021-03-27T19:49:13Z</time>
      </trkpt>
      <trkpt lat="43.031777" lon="-4.855148">
        <ele>1202.44</ele>
        <time>2021-03-27T19:49:16Z</time>
      </trkpt>
      <trkpt lat="43.031683" lon="-4.855157">
        <ele>1202.67</ele>
        <time>2021-03-27T19:49:19Z</time>
      </trkpt>
      <trkpt lat="43.031593" lon="-4.855206">
        <ele>1202.76</ele>
        <time>2021-03-27T19:49:22Z</time>
      </trkpt>
      <trkpt lat="43.031487" lon="-4.855338">
        <ele>1203.58</ele>
        <time>2021-03-27T19:49:25Z</time>
      </trkpt>
      <trkpt lat="43.031347" lon="-4.85571">
        <ele>1206.9</ele>
        <time>2021-03-27T19:49:28Z</time>
      </trkpt>
      <trkpt lat="43.031267" lon="-4.856196">
        <ele>1206.76</ele>
        <time>2021-03-27T19:49:31Z</time>
      </trkpt>
      <trkpt lat="43.031171" lon="-4.85753">
        <ele>1208.45</ele>
        <time>2021-03-27T19:49:34Z</time>
      </trkpt>
      <trkpt lat="43.031123" lon="-4.857715">
        <ele>1211.71</ele>
        <time>2021-03-27T19:49:37Z</time>
      </trkpt>
      <trkpt lat="43.031034" lon="-4.85792">
        <ele>1212.29</ele>
        <time>2021-03-27T19:49:40Z</time>
      </trkpt>
      <trkpt lat="43.030385" lon="-4.858879">
        <ele>1204.18</ele>
        <time>2021-03-27T19:49:43Z</time>
      </trkpt>
      <trkpt lat="43.030168" lon="-4.859143">
        <ele>1203.72</ele>
        <time>2021-03-27T19:49:46Z</time>
      </trkpt>
      <trkpt lat="43.030012" lon="-4.859242">
        <ele>1202.55</ele>
        <time>2021-03-27T19:49:49Z</time>
      </trkpt>
      <trkpt lat="43.029857" lon="-4.859279">
        <ele>1201.37</ele>
        <time>2021-03-27T19:49:52Z</time>
      </trkpt>
      <trkpt lat="43.029215" lon="-4.859303">
        <ele>1202.72</ele>
        <time>2021-03-27T19:49:55Z</time>
      </trkpt>
      <trkpt lat="43.029054" lon="-4.859256">
        <ele>1204.34</ele>
        <time>2021-03-27T19:49:58Z</time>
      </trkpt>
      <trkpt lat="43.028972" lon="-4.859167">
        <ele>1203.92</ele>
        <time>2021-03-27T19:50:01Z</time>
      </trkpt>
      <trkpt lat="43.028911" lon="-4.85906">
        <ele>1204.29</ele>
        <time>2021-03-27T19:50:04Z</time>
      </trkpt>
      <trkpt lat="43.028541" lon="-4.858282">
        <ele>1200.05</ele>
        <time>2021-03-27T19:50:07Z</time>
      </trkpt>
      <trkpt lat="43.028371" lon="-4.858005">
        <ele>1200.24</ele>
        <time>2021-03-27T19:50:10Z</time>
      </trkpt>
      <trkpt lat="43.02829" lon="-4.857904">
        <ele>1198.89</ele>
        <time>2021-03-27T19:50:14Z</time>
      </trkpt>
      <trkpt lat="43.028205" lon="-4.857848">
        <ele>1197.22</ele>
        <time>2021-03-27T19:50:17Z</time>
      </trkpt>
      <trkpt lat="43.028125" lon="-4.857839">
        <ele>1196.44</ele>
        <time>2021-03-27T19:50:20Z</time>
      </trkpt>
      <trkpt lat="43.028053" lon="-4.857892">
        <ele>1196.61</ele>
        <time>2021-03-27T19:50:23Z</time>
      </trkpt>
      <trkpt lat="43.027348" lon="-4.859133">
        <ele>1191.43</ele>
        <time>2021-03-27T19:50:26Z</time>
      </trkpt>
      <trkpt lat="43.027107" lon="-4.859829">
        <ele>1199.34</ele>
        <time>2021-03-27T19:50:29Z</time>
      </trkpt>
      <trkpt lat="43.026886" lon="-4.860229">
        <ele>1204.53</ele>
        <time>2021-03-27T19:50:32Z</time>
      </trkpt>
      <trkpt lat="43.026617" lon="-4.860487">
        <ele>1208.95</ele>
        <time>2021-03-27T19:50:35Z</time>
      </trkpt>
      <trkpt lat="43.026333" lon="-4.860554">
        <ele>1198.97</ele>
        <time>2021-03-27T19:50:38Z</time>
      </trkpt>
      <trkpt lat="43.026232" lon="-4.860561">
        <ele>1201.11</ele>
        <time>2021-03-27T19:50:41Z</time>
      </trkpt>
      <trkpt lat="43.025605" lon="-4.860306">
        <ele>1194.18</ele>
        <time>2021-03-27T19:50:44Z</time>
      </trkpt>
      <trkpt lat="43.025484" lon="-4.860276">
        <ele>1191.15</ele>
        <time>2021-03-27T19:50:47Z</time>
      </trkpt>
      <trkpt lat="43.025358" lon="-4.860293">
        <ele>1188.44</ele>
        <time>2021-03-27T19:50:50Z</time>
      </trkpt>
      <trkpt lat="43.025274" lon="-4.860341">
        <ele>1187.56</ele>
        <time>2021-03-27T19:50:53Z</time>
      </trkpt>
      <trkpt lat="43.025098" lon="-4.860689">
        <ele>1189.64</ele>
        <time>2021-03-27T19:50:56Z</time>
      </trkpt>
      <trkpt lat="43.025031" lon="-4.860932">
        <ele>1190.93</ele>
        <time>2021-03-27T19:50:59Z</time>
      </trkpt>
      <trkpt lat="43.024899" lon="-4.862697">
        <ele>1195.34</ele>
        <time>2021-03-27T19:51:02Z</time>
      </trkpt>
      <trkpt lat="43.024845" lon="-4.862931">
        <ele>1196.35</ele>
        <time>2021-03-27T19:51:05Z</time>
      </trkpt>
      <trkpt lat="43.024693" lon="-4.86329">
        <ele>1196.48</ele>
        <time>2021-03-27T19:51:08Z</time>
      </trkpt>
      <trkpt lat="43.024597" lon="-4.863422">
        <ele>1196.93</ele>
        <time>2021-03-27T19:51:11Z</time>
      </trkpt>
      <trkpt lat="43.024462" lon="-4.86351">
        <ele>1195.3</ele>
        <time>2021-03-27T19:51:14Z</time>
      </trkpt>
      <trkpt lat="43.023984" lon="-4.863708">
        <ele>1193.63</ele>
        <time>2021-03-27T19:51:17Z</time>
      </trkpt>
      <trkpt lat="43.023809" lon="-4.863717">
        <ele>1191.17</ele>
        <time>2021-03-27T19:51:20Z</time>
      </trkpt>
      <trkpt lat="43.023352" lon="-4.863611">
        <ele>1188.94</ele>
        <time>2021-03-27T19:51:23Z</time>
      </trkpt>
      <trkpt lat="43.023157" lon="-4.863604">
        <ele>1188.31</ele>
        <time>2021-03-27T19:51:26Z</time>
      </trkpt>
      <trkpt lat="43.023051" lon="-4.863626">
        <ele>1188.15</ele>
        <time>2021-03-27T19:51:29Z</time>
      </trkpt>
      <trkpt lat="43.022929" lon="-4.863681">
        <ele>1187.3</ele>
        <time>2021-03-27T19:51:32Z</time>
      </trkpt>
      <trkpt lat="43.022811" lon="-4.863816">
        <ele>1186.36</ele>
        <time>2021-03-27T19:51:35Z</time>
      </trkpt>
      <trkpt lat="43.022752" lon="-4.864009">
        <ele>1186.35</ele>
        <time>2021-03-27T19:51:38Z</time>
      </trkpt>
      <trkpt lat="43.022706" lon="-4.864813">
        <ele>1187.44</ele>
        <time>2021-03-27T19:51:41Z</time>
      </trkpt>
      <trkpt lat="43.022643" lon="-4.865">
        <ele>1186.11</ele>
        <time>2021-03-27T19:51:44Z</time>
      </trkpt>
      <trkpt lat="43.022472" lon="-4.865392">
        <ele>1184.83</ele>
        <time>2021-03-27T19:51:47Z</time>
      </trkpt>
      <trkpt lat="43.022415" lon="-4.865615">
        <ele>1186.41</ele>
        <time>2021-03-27T19:51:50Z</time>
      </trkpt>
      <trkpt lat="43.022341" lon="-4.865755">
        <ele>1186.86</ele>
        <time>2021-03-27T19:51:53Z</time>
      </trkpt>
      <trkpt lat="43.022224" lon="-4.865876">
        <ele>1186.34</ele>
        <time>2021-03-27T19:51:56Z</time>
      </trkpt>
      <trkpt lat="43.022074" lon="-4.866008">
        <ele>1184.26</ele>
        <time>2021-03-27T19:51:59Z</time>
      </trkpt>
      <trkpt lat="43.021923" lon="-4.866108">
        <ele>1181.54</ele>
        <time>2021-03-27T19:52:02Z</time>
      </trkpt>
      <trkpt lat="43.021785" lon="-4.86626">
        <ele>1180.01</ele>
        <time>2021-03-27T19:52:05Z</time>
      </trkpt>
      <trkpt lat="43.021622" lon="-4.866621">
        <ele>1181.84</ele>
        <time>2021-03-27T19:52:08Z</time>
      </trkpt>
      <trkpt lat="43.020401" lon="-4.869804">
        <ele>1182.54</ele>
        <time>2021-03-27T19:52:11Z</time>
      </trkpt>
      <trkpt lat="43.020246" lon="-4.870112">
        <ele>1182.34</ele>
        <time>2021-03-27T19:52:14Z</time>
      </trkpt>
      <trkpt lat="43.020049" lon="-4.870368">
        <ele>1180.53</ele>
        <time>2021-03-27T19:52:17Z</time>
      </trkpt>
      <trkpt lat="43.019431" lon="-4.870982">
        <ele>1176.6</ele>
        <time>2021-03-27T19:52:20Z</time>
      </trkpt>
      <trkpt lat="43.018903" lon="-4.871475">
        <ele>1188.81</ele>
        <time>2021-03-27T19:52:23Z</time>
      </trkpt>
      <trkpt lat="43.01825" lon="-4.8718">
        <ele>1184.59</ele>
        <time>2021-03-27T19:52:26Z</time>
      </trkpt>
      <trkpt lat="43.018126" lon="-4.871918">
        <ele>1181.61</ele>
        <time>2021-03-27T19:52:29Z</time>
      </trkpt>
      <trkpt lat="43.018032" lon="-4.872056">
        <ele>1181.68</ele>
        <time>2021-03-27T19:52:32Z</time>
      </trkpt>
      <trkpt lat="43.017924" lon="-4.87216">
        <ele>1181.1</ele>
        <time>2021-03-27T19:52:35Z</time>
      </trkpt>
      <trkpt lat="43.015983" lon="-4.873381">
        <ele>1170.08</ele>
        <time>2021-03-27T19:52:39Z</time>
      </trkpt>
      <trkpt lat="43.015915" lon="-4.873486">
        <ele>1170.49</ele>
        <time>2021-03-27T19:52:42Z</time>
      </trkpt>
      <trkpt lat="43.015875" lon="-4.87362">
        <ele>1170.85</ele>
        <time>2021-03-27T19:52:45Z</time>
      </trkpt>
      <trkpt lat="43.015383" lon="-4.876218">
        <ele>1182.47</ele>
        <time>2021-03-27T19:52:48Z</time>
      </trkpt>
      <trkpt lat="43.015238" lon="-4.876634">
        <ele>1183.4</ele>
        <time>2021-03-27T19:52:51Z</time>
      </trkpt>
      <trkpt lat="43.014837" lon="-4.876885">
        <ele>1174.08</ele>
        <time>2021-03-27T19:52:54Z</time>
      </trkpt>
      <trkpt lat="43.01474" lon="-4.876969">
        <ele>1171.58</ele>
        <time>2021-03-27T19:52:57Z</time>
      </trkpt>
      <trkpt lat="43.013911" lon="-4.879636">
        <ele>1170.94</ele>
        <time>2021-03-27T19:53:00Z</time>
      </trkpt>
      <trkpt lat="43.013736" lon="-4.880251">
        <ele>1177.55</ele>
        <time>2021-03-27T19:53:03Z</time>
      </trkpt>
      <trkpt lat="43.013638" lon="-4.880401">
        <ele>1177.19</ele>
        <time>2021-03-27T19:53:06Z</time>
      </trkpt>
      <trkpt lat="43.013486" lon="-4.880547">
        <ele>1176.52</ele>
        <time>2021-03-27T19:53:09Z</time>
      </trkpt>
      <trkpt lat="43.012697" lon="-4.880829">
        <ele>1172.94</ele>
        <time>2021-03-27T19:53:12Z</time>
      </trkpt>
      <trkpt lat="43.012592" lon="-4.880973">
        <ele>1171.66</ele>
        <time>2021-03-27T19:53:15Z</time>
      </trkpt>
      <trkpt lat="43.011594" lon="-4.88263">
        <ele>1172.03</ele>
        <time>2021-03-27T19:53:18Z</time>
      </trkpt>
      <trkpt lat="43.011219" lon="-4.883221">
        <ele>1171.79</ele>
        <time>2021-03-27T19:53:21Z</time>
      </trkpt>
      <trkpt lat="43.010932" lon="-4.883432">
        <ele>1173.96</ele>
        <time>2021-03-27T19:53:24Z</time>
      </trkpt>
      <trkpt lat="43.010689" lon="-4.883512">
        <ele>1174.28</ele>
        <time>2021-03-27T19:53:27Z</time>
      </trkpt>
      <trkpt lat="43.010511" lon="-4.883619">
        <ele>1176.05</ele>
        <time>2021-03-27T19:53:30Z</time>
      </trkpt>
      <trkpt lat="43.010416" lon="-4.883739">
        <ele>1185.39</ele>
        <time>2021-03-27T19:53:33Z</time>
      </trkpt>
      <trkpt lat="43.010094" lon="-4.884263">
        <ele>1188.1</ele>
        <time>2021-03-27T19:53:36Z</time>
      </trkpt>
      <trkpt lat="43.009902" lon="-4.884488">
        <ele>1185.88</ele>
        <time>2021-03-27T19:53:39Z</time>
      </trkpt>
      <trkpt lat="43.009502" lon="-4.884786">
        <ele>1182.42</ele>
        <time>2021-03-27T19:53:42Z</time>
      </trkpt>
      <trkpt lat="43.009406" lon="-4.884929">
        <ele>1180.01</ele>
        <time>2021-03-27T19:53:45Z</time>
      </trkpt>
      <trkpt lat="43.009157" lon="-4.885464">
        <ele>1176.41</ele>
        <time>2021-03-27T19:53:48Z</time>
      </trkpt>
      <trkpt lat="43.008361" lon="-4.887266">
        <ele>1157.0</ele>
        <time>2021-03-27T19:53:51Z</time>
      </trkpt>
      <trkpt lat="43.008232" lon="-4.887729">
        <ele>1159.25</ele>
        <time>2021-03-27T19:53:54Z</time>
      </trkpt>
      <trkpt lat="43.008121" lon="-4.887958">
        <ele>1165.04</ele>
        <time>2021-03-27T19:53:57Z</time>
      </trkpt>
      <trkpt lat="43.007971" lon="-4.888114">
        <ele>1166.97</ele>
        <time>2021-03-27T19:54:00Z</time>
      </trkpt>
      <trkpt lat="43.007125" lon="-4.888814">
        <ele>1171.74</ele>
        <time>2021-03-27T19:54:03Z</time>
      </trkpt>
      <trkpt lat="43.006604" lon="-4.889375">
        <ele>1173.78</ele>
        <time>2021-03-27T19:54:06Z</time>
      </trkpt>
      <trkpt lat="43.006409" lon="-4.88956">
        <ele>1173.24</ele>
        <time>2021-03-27T19:54:09Z</time>
      </trkpt>
      <trkpt lat="43.006163" lon="-4.889722">
        <ele>1176.39</ele>
        <time>2021-03-27T19:54:12Z</time>
      </trkpt>
      <trkpt lat="43.005545" lon="-4.890007">
        <ele>1170.2</ele>
        <time>2021-03-27T19:54:15Z</time>
      </trkpt>
      <trkpt lat="43.005276" lon="-4.890104">
        <ele>1171.72</ele>
        <time>2021-03-27T19:54:18Z</time>
      </trkpt>
      <trkpt lat="43.00504" lon="-4.890129">
        <ele>1170.55</ele>
        <time>2021-03-27T19:54:21Z</time>
      </trkpt>
      <trkpt lat="43.004821" lon="-4.890033">
        <ele>1168.44</ele>
        <time>2021-03-27T19:54:24Z</time>
      </trkpt>
      <trkpt lat="43.002934" lon="-4.889011">
        <ele>1165.16</ele>
        <time>2021-03-27T19:54:27Z</time>
      </trkpt>
      <trkpt lat="43.002592" lon="-4.888845">
        <ele>1165.53</ele>
        <time>2021-03-27T19:54:30Z</time>
      </trkpt>
      <trkpt lat="43.001892" lon="-4.88868">
        <ele>1159.88</ele>
        <time>2021-03-27T19:54:33Z</time>
      </trkpt>
      <trkpt lat="43.001564" lon="-4.888695">
        <ele>1160.77</ele>
        <time>2021-03-27T19:54:36Z</time>
      </trkpt>
      <trkpt lat="42.995547" lon="-4.889432">
        <ele>1153.7</ele>
        <time>2021-03-27T19:54:39Z</time>
      </trkpt>
      <trkpt lat="42.995299" lon="-4.889552">
        <ele>1156.23</ele>
        <time>2021-03-27T19:54:42Z</time>
      </trkpt>
      <trkpt lat="42.995185" lon="-4.889743">
        <ele>1159.21</ele>
        <time>2021-03-27T19:54:45Z</time>
      </trkpt>
      <trkpt lat="42.994458" lon="-4.891157">
        <ele>1152.0</ele>
        <time>2021-03-27T19:54:48Z</time>
      </trkpt>
      <trkpt lat="42.994379" lon="-4.891351">
        <ele>1151.05</ele>
        <time>2021-03-27T19:54:51Z</time>
      </trkpt>
      <trkpt lat="42.994329" lon="-4.891557">
        <ele>1152.62</ele>
        <time>2021-03-27T19:54:54Z</time>
      </trkpt>
      <trkpt lat="42.994282" lon="-4.892406">
        <ele>1153.72</ele>
        <time>2021-03-27T19:54:57Z</time>
      </trkpt>
      <trkpt lat="42.994252" lon="-4.892655">
        <ele>1149.16</ele>
        <time>2021-03-27T19:55:01Z</time>
      </trkpt>
      <trkpt lat="42.994177" lon="-4.892889">
        <ele>1143.6</ele>
        <time>2021-03-27T19:55:04Z</time>
      </trkpt>
      <trkpt lat="42.994062" lon="-4.893153">
        <ele>1143.74</ele>
        <time>2021-03-27T19:55:07Z</time>
      </trkpt>
      <trkpt lat="42.993603" lon="-4.893823">
        <ele>1145.76</ele>
        <time>2021-03-27T19:55:10Z</time>
      </trkpt>
      <trkpt lat="42.993499" lon="-4.894002">
        <ele>1146.65</ele>
        <time>2021-03-27T19:55:13Z</time>
      </trkpt>
      <trkpt lat="42.993446" lon="-4.894199">
        <ele>1147.39</ele>
        <time>2021-03-27T19:55:16Z</time>
      </trkpt>
      <trkpt lat="42.993419" lon="-4.894414">
        <ele>1146.56</ele>
        <time>2021-03-27T19:55:19Z</time>
      </trkpt>
      <trkpt lat="42.993418" lon="-4.894639">
        <ele>1147.51</ele>
        <time>2021-03-27T19:55:22Z</time>
      </trkpt>
      <trkpt lat="42.993501" lon="-4.895339">
        <ele>1152.36</ele>
        <time>2021-03-27T19:55:25Z</time>
      </trkpt>
      <trkpt lat="42.993497" lon="-4.895577">
        <ele>1153.29</ele>
        <time>2021-03-27T19:55:28Z</time>
      </trkpt>
      <trkpt lat="42.993104" lon="-4.897166">
        <ele>1152.48</ele>
        <time>2021-03-27T19:55:31Z</time>
      </trkpt>
      <trkpt lat="42.993022" lon="-4.897371">
        <ele>1151.16</ele>
        <time>2021-03-27T19:55:34Z</time>
      </trkpt>
      <trkpt lat="42.992921" lon="-4.897552">
        <ele>1149.51</ele>
        <time>2021-03-27T19:55:37Z</time>
      </trkpt>
      <trkpt lat="42.992439" lon="-4.89808">
        <ele>1144.89</ele>
        <time>2021-03-27T19:55:40Z</time>
      </trkpt>
      <trkpt lat="42.991785" lon="-4.898596">
        <ele>1147.83</ele>
        <time>2021-03-27T19:55:43Z</time>
      </trkpt>
      <trkpt lat="42.991095" lon="-4.899245">
        <ele>1145.97</ele>
        <time>2021-03-27T19:55:46Z</time>
      </trkpt>
      <trkpt lat="42.990928" lon="-4.899374">
        <ele>1142.96</ele>
        <time>2021-03-27T19:55:49Z</time>
      </trkpt>
      <trkpt lat="42.99078" lon="-4.899448">
        <ele>1140.25</ele>
        <time>2021-03-27T19:55:52Z</time>
      </trkpt>
      <trkpt lat="42.990671" lon="-4.899476">
        <ele>1138.9</ele>
        <time>2021-03-27T19:55:55Z</time>
      </trkpt>
      <trkpt lat="42.990426" lon="-4.899625">
        <ele>1138.32</ele>
        <time>2021-03-27T19:55:58Z</time>
      </trkpt>
      <trkpt lat="42.98902" lon="-4.901512">
        <ele>1135.13</ele>
        <time>2021-03-27T19:56:01Z</time>
      </trkpt>
      <trkpt lat="42.986423" lon="-4.904907">
        <ele>1130.71</ele>
        <time>2021-03-27T19:56:04Z</time>
      </trkpt>
      <trkpt lat="42.981821" lon="-4.911062">
        <ele>1130.97</ele>
        <time>2021-03-27T19:56:07Z</time>
      </trkpt>
      <trkpt lat="42.981648" lon="-4.911258">
        <ele>1132.13</ele>
        <time>2021-03-27T19:56:10Z</time>
      </trkpt>
      <trkpt lat="42.981281" lon="-4.911492">
        <ele>1132.33</ele>
        <time>2021-03-27T19:56:13Z</time>
      </trkpt>
      <trkpt lat="42.979781" lon="-4.912102">
        <ele>1123.01</ele>
        <time>2021-03-27T19:56:16Z</time>
      </trkpt>
      <trkpt lat="42.979397" lon="-4.912322">
        <ele>1120.43</ele>
        <time>2021-03-27T19:56:19Z</time>
      </trkpt>
      <trkpt lat="42.97842" lon="-4.913199">
        <ele>1128.57</ele>
        <time>2021-03-27T19:56:22Z</time>
      </trkpt>
      <trkpt lat="42.978262" lon="-4.913318">
        <ele>1129.41</ele>
        <time>2021-03-27T19:56:25Z</time>
      </trkpt>
      <trkpt lat="42.978112" lon="-4.913479">
        <ele>1129.44</ele>
        <time>2021-03-27T19:56:28Z</time>
      </trkpt>
      <trkpt lat="42.977986" lon="-4.913657">
        <ele>1129.04</ele>
        <time>2021-03-27T19:56:31Z</time>
      </trkpt>
      <trkpt lat="42.977897" lon="-4.913838">
        <ele>1129.78</ele>
        <time>2021-03-27T19:56:34Z</time>
      </trkpt>
      <trkpt lat="42.977772" lon="-4.914031">
        <ele>1128.41</ele>
        <time>2021-03-27T19:56:37Z</time>
      </trkpt>
      <trkpt lat="42.977604" lon="-4.914182">
        <ele>1127.54</ele>
        <time>2021-03-27T19:56:40Z</time>
      </trkpt>
      <trkpt lat="42.977331" lon="-4.914548">
        <ele>1123.3</ele>
        <time>2021-03-27T19:56:43Z</time>
      </trkpt>
      <trkpt lat="42.977144" lon="-4.914964">
        <ele>1119.06</ele>
        <time>2021-03-27T19:56:46Z</time>
      </trkpt>
      <trkpt lat="42.97469" lon="-4.921784">
        <ele>1111.83</ele>
        <time>2021-03-27T19:56:49Z</time>
      </trkpt>
      <trkpt lat="42.974128" lon="-4.923441">
        <ele>1112.98</ele>
        <time>2021-03-27T19:56:52Z</time>
      </trkpt>
      <trkpt lat="42.973821" lon="-4.925213">
        <ele>1113.17</ele>
        <time>2021-03-27T19:56:55Z</time>
      </trkpt>
      <trkpt lat="42.97319" lon="-4.924893">
        <ele>1112.38</ele>
        <time>2021-03-27T19:56:58Z</time>
      </trkpt>
      <trkpt lat="42.973068" lon="-4.924801">
        <ele>1112.72</ele>
        <time>2021-03-27T19:57:00Z</time>
      </trkpt>
      <trkpt lat="42.972943" lon="-4.924686">
        <ele>1113.13</ele>
        <time>2021-03-27T19:57:02Z</time>
      </trkpt>
      <trkpt lat="42.972635" lon="-4.924215">
        <ele>1113.4</ele>
        <time>2021-03-27T19:57:04Z</time>
      </trkpt>
      <trkpt lat="42.972425" lon="-4.924112">
        <ele>1111.78</ele>
        <time>2021-03-27T19:57:07Z</time>
      </trkpt>
      <trkpt lat="42.972156" lon="-4.924119">
        <ele>1108.44</ele>
        <time>2021-03-27T19:57:09Z</time>
      </trkpt>
      <trkpt lat="42.972008" lon="-4.924102">
        <ele>1107.1</ele>
        <time>2021-03-27T19:57:11Z</time>
      </trkpt>
      <trkpt lat="42.971734" lon="-4.924043">
        <ele>1104.93</ele>
        <time>2021-03-27T19:57:13Z</time>
      </trkpt>
      <trkpt lat="42.971483" lon="-4.923953">
        <ele>1104.23</ele>
        <time>2021-03-27T19:57:16Z</time>
      </trkpt>
      <trkpt lat="42.970573" lon="-4.923241">
        <ele>1106.9</ele>
        <time>2021-03-27T19:57:18Z</time>
      </trkpt>
      <trkpt lat="42.970445" lon="-4.923154">
        <ele>1107.4</ele>
        <time>2021-03-27T19:57:20Z</time>
      </trkpt>
      <trkpt lat="42.970357" lon="-4.923124">
        <ele>1107.71</ele>
        <time>2021-03-27T19:57:22Z</time>
      </trkpt>
      <trkpt lat="42.969984" lon="-4.923114">
        <ele>1111.74</ele>
        <time>2021-03-27T19:57:25Z</time>
      </trkpt>
      <trkpt lat="42.969147" lon="-4.923378">
        <ele>1112.8</ele>
        <time>2021-03-27T19:57:27Z</time>
      </trkpt>
      <trkpt lat="42.968839" lon="-4.92342">
        <ele>1114.1</ele>
        <time>2021-03-27T19:57:29Z</time>
      </trkpt>
      <trkpt lat="42.968013" lon="-4.923437">
        <ele>1118.19</ele>
        <time>2021-03-27T19:57:31Z</time>
      </trkpt>
      <trkpt lat="42.967859" lon="-4.92339">
        <ele>1119.79</ele>
        <time>2021-03-27T19:57:33Z</time>
      </trkpt>
      <trkpt lat="42.967577" lon="-4.923263">
        <ele>1120.73</ele>
        <time>2021-03-27T19:57:36Z</time>
      </trkpt>
      <trkpt lat="42.967062" lon="-4.922805">
        <ele>1122.73</ele>
        <time>2021-03-27T19:57:38Z</time>
      </trkpt>
      <trkpt lat="42.966828" lon="-4.922508">
        <ele>1123.51</ele>
        <time>2021-03-27T19:57:40Z</time>
      </trkpt>
      <trkpt lat="42.966185" lon="-4.921573">
        <ele>1129.9</ele>
        <time>2021-03-27T19:57:42Z</time>
      </trkpt>
      <trkpt lat="42.965937" lon="-4.921348">
        <ele>1128.52</ele>
        <time>2021-03-27T19:57:45Z</time>
      </trkpt>
      <trkpt lat="42.965661" lon="-4.921197">
        <ele>1128.0</ele>
        <time>2021-03-27T19:57:47Z</time>
      </trkpt>
      <trkpt lat="42.965367" lon="-4.921103">
        <ele>1130.61</ele>
        <time>2021-03-27T19:57:49Z</time>
      </trkpt>
      <trkpt lat="42.965058" lon="-4.92106">
        <ele>1128.83</ele>
        <time>2021-03-27T19:57:51Z</time>
      </trkpt>
      <trkpt lat="42.964737" lon="-4.921055">
        <ele>1126.32</ele>
        <time>2021-03-27T19:57:54Z</time>
      </trkpt>
      <trkpt lat="42.963775" lon="-4.921155">
        <ele>1133.95</ele>
        <time>2021-03-27T19:57:56Z</time>
      </trkpt>
      <trkpt lat="42.963121" lon="-4.921197">
        <ele>1124.16</ele>
        <time>2021-03-27T19:57:58Z</time>
      </trkpt>
      <trkpt lat="42.962165" lon="-4.921441">
        <ele>1121.77</ele>
        <time>2021-03-27T19:58:00Z</time>
      </trkpt>
      <trkpt lat="42.961167" lon="-4.921621">
        <ele>1124.54</ele>
        <time>2021-03-27T19:58:02Z</time>
      </trkpt>
      <trkpt lat="42.960853" lon="-4.921656">
        <ele>1125.14</ele>
        <time>2021-03-27T19:58:05Z</time>
      </trkpt>
      <trkpt lat="42.960576" lon="-4.921617">
        <ele>1126.68</ele>
        <time>2021-03-27T19:58:07Z</time>
      </trkpt>
      <trkpt lat="42.960319" lon="-4.921493">
        <ele>1130.2</ele>
        <time>2021-03-27T19:58:09Z</time>
      </trkpt>
      <trkpt lat="42.959816" lon="-4.921109">
        <ele>1138.07</ele>
        <time>2021-03-27T19:58:11Z</time>
      </trkpt>
      <trkpt lat="42.959549" lon="-4.920932">
        <ele>1136.52</ele>
        <time>2021-03-27T19:58:14Z</time>
      </trkpt>
      <trkpt lat="42.959272" lon="-4.920791">
        <ele>1134.14</ele>
        <time>2021-03-27T19:58:16Z</time>
      </trkpt>
      <trkpt lat="42.95898" lon="-4.920701">
        <ele>1133.95</ele>
        <time>2021-03-27T19:58:18Z</time>
      </trkpt>
      <trkpt lat="42.957013" lon="-4.920225">
        <ele>1135.63</ele>
        <time>2021-03-27T19:58:20Z</time>
      </trkpt>
      <trkpt lat="42.956708" lon="-4.92018">
        <ele>1133.81</ele>
        <time>2021-03-27T19:58:23Z</time>
      </trkpt>
      <trkpt lat="42.956409" lon="-4.92023">
        <ele>1132.69</ele>
        <time>2021-03-27T19:58:25Z</time>
      </trkpt>
      <trkpt lat="42.956117" lon="-4.920358">
        <ele>1130.16</ele>
        <time>2021-03-27T19:58:27Z</time>
      </trkpt>
      <trkpt lat="42.955811" lon="-4.920439">
        <ele>1130.95</ele>
        <time>2021-03-27T19:58:29Z</time>
      </trkpt>
      <trkpt lat="42.955493" lon="-4.920422">
        <ele>1132.56</ele>
        <time>2021-03-27T19:58:32Z</time>
      </trkpt>
      <trkpt lat="42.955179" lon="-4.920354">
        <ele>1133.81</ele>
        <time>2021-03-27T19:58:34Z</time>
      </trkpt>
      <trkpt lat="42.954881" lon="-4.920264">
        <ele>1135.53</ele>
        <time>2021-03-27T19:58:36Z</time>
      </trkpt>
      <trkpt lat="42.954594" lon="-4.920151">
        <ele>1135.53</ele>
        <time>2021-03-27T19:58:38Z</time>
      </trkpt>
      <trkpt lat="42.954179" lon="-4.920068">
        <ele>1134.27</ele>
        <time>2021-03-27T19:58:40Z</time>
      </trkpt>
      <trkpt lat="42.953973" lon="-4.920104">
        <ele>1136.22</ele>
        <time>2021-03-27T19:58:43Z</time>
      </trkpt>
      <trkpt lat="42.953818" lon="-4.920176">
        <ele>1135.64</ele>
        <time>2021-03-27T19:58:45Z</time>
      </trkpt>
      <trkpt lat="42.953659" lon="-4.920214">
        <ele>1136.87</ele>
        <time>2021-03-27T19:58:47Z</time>
      </trkpt>
      <trkpt lat="42.953517" lon="-4.920195">
        <ele>1138.52</ele>
        <time>2021-03-27T19:58:49Z</time>
      </trkpt>
      <trkpt lat="42.95338" lon="-4.920132">
        <ele>1140.93</ele>
        <time>2021-03-27T19:58:52Z</time>
      </trkpt>
      <trkpt lat="42.953168" lon="-4.919981">
        <ele>1141.37</ele>
        <time>2021-03-27T19:58:54Z</time>
      </trkpt>
      <trkpt lat="42.95259" lon="-4.919619">
        <ele>1137.06</ele>
        <time>2021-03-27T19:58:56Z</time>
      </trkpt>
      <trkpt lat="42.952273" lon="-4.919483">
        <ele>1140.94</ele>
        <time>2021-03-27T19:58:58Z</time>
      </trkpt>
      <trkpt lat="42.951313" lon="-4.919181">
        <ele>1143.44</ele>
        <time>2021-03-27T19:59:01Z</time>
      </trkpt>
      <trkpt lat="42.951005" lon="-4.919049">
        <ele>1143.59</ele>
        <time>2021-03-27T19:59:03Z</time>
      </trkpt>
      <trkpt lat="42.950719" lon="-4.918874">
        <ele>1142.37</ele>
        <time>2021-03-27T19:59:05Z</time>
      </trkpt>
      <trkpt lat="42.949561" lon="-4.918015">
        <ele>1142.97</ele>
        <time>2021-03-27T19:59:07Z</time>
      </trkpt>
      <trkpt lat="42.949256" lon="-4.917832">
        <ele>1142.18</ele>
        <time>2021-03-27T19:59:10Z</time>
      </trkpt>
      <trkpt lat="42.94894" lon="-4.917698">
        <ele>1142.44</ele>
        <time>2021-03-27T19:59:12Z</time>
      </trkpt>
      <trkpt lat="42.948629" lon="-4.917626">
        <ele>1143.7</ele>
        <time>2021-03-27T19:59:14Z</time>
      </trkpt>
      <trkpt lat="42.948016" lon="-4.91758">
        <ele>1143.1</ele>
        <time>2021-03-27T19:59:16Z</time>
      </trkpt>
      <trkpt lat="42.947815" lon="-4.917547">
        <ele>1141.78</ele>
        <time>2021-03-27T19:59:18Z</time>
      </trkpt>
      <trkpt lat="42.947673" lon="-4.917459">
        <ele>1141.09</ele>
        <time>2021-03-27T19:59:21Z</time>
      </trkpt>
      <trkpt lat="42.947458" lon="-4.917275">
        <ele>1141.1</ele>
        <time>2021-03-27T19:59:23Z</time>
      </trkpt>
      <trkpt lat="42.946607" lon="-4.916636">
        <ele>1146.18</ele>
        <time>2021-03-27T19:59:25Z</time>
      </trkpt>
      <trkpt lat="42.946324" lon="-4.916399">
        <ele>1147.39</ele>
        <time>2021-03-27T19:59:27Z</time>
      </trkpt>
      <trkpt lat="42.945803" lon="-4.91584">
        <ele>1156.77</ele>
        <time>2021-03-27T19:59:30Z</time>
      </trkpt>
      <trkpt lat="42.94553" lon="-4.915586">
        <ele>1154.26</ele>
        <time>2021-03-27T19:59:32Z</time>
      </trkpt>
      <trkpt lat="42.944597" lon="-4.915012">
        <ele>1147.35</ele>
        <time>2021-03-27T19:59:34Z</time>
      </trkpt>
      <trkpt lat="42.944014" lon="-4.914553">
        <ele>1150.1</ele>
        <time>2021-03-27T19:59:36Z</time>
      </trkpt>
      <trkpt lat="42.943712" lon="-4.914352">
        <ele>1149.78</ele>
        <time>2021-03-27T19:59:39Z</time>
      </trkpt>
      <trkpt lat="42.943393" lon="-4.914188">
        <ele>1152.08</ele>
        <time>2021-03-27T19:59:41Z</time>
      </trkpt>
      <trkpt lat="42.943071" lon="-4.914088">
        <ele>1153.1</ele>
        <time>2021-03-27T19:59:43Z</time>
      </trkpt>
      <trkpt lat="42.942744" lon="-4.914036">
        <ele>1147.95</ele>
        <time>2021-03-27T19:59:45Z</time>
      </trkpt>
      <trkpt lat="42.941783" lon="-4.914016">
        <ele>1152.76</ele>
        <time>2021-03-27T19:59:47Z</time>
      </trkpt>
      <trkpt lat="42.94115" lon="-4.914032">
        <ele>1158.7</ele>
        <time>2021-03-27T19:59:50Z</time>
      </trkpt>
      <trkpt lat="42.940838" lon="-4.914062">
        <ele>1163.3</ele>
        <time>2021-03-27T19:59:52Z</time>
      </trkpt>
      <trkpt lat="42.939893" lon="-4.914212">
        <ele>1166.11</ele>
        <time>2021-03-27T19:59:54Z</time>
      </trkpt>
      <trkpt lat="42.939584" lon="-4.914229">
        <ele>1159.41</ele>
        <time>2021-03-27T19:59:56Z</time>
      </trkpt>
      <trkpt lat="42.939305" lon="-4.914193">
        <ele>1152.3</ele>
        <time>2021-03-27T19:59:59Z</time>
      </trkpt>
      <trkpt lat="42.939047" lon="-4.914059">
        <ele>1155.56</ele>
        <time>2021-03-27T20:00:01Z</time>
      </trkpt>
      <trkpt lat="42.938776" lon="-4.913839">
        <ele>1156.48</ele>
        <time>2021-03-27T20:00:03Z</time>
      </trkpt>
      <trkpt lat="42.938423" lon="-4.91349">
        <ele>1154.07</ele>
        <time>2021-03-27T20:00:07Z</time>
      </trkpt>
      <trkpt lat="42.938319" lon="-4.913414">
        <ele>1151.43</ele>
        <time>2021-03-27T20:00:10Z</time>
      </trkpt>
      <trkpt lat="42.938159" lon="-4.913398">
        <ele>1148.29</ele>
        <time>2021-03-27T20:00:13Z</time>
      </trkpt>
      <trkpt lat="42.936881" lon="-4.913475">
        <ele>1163.33</ele>
        <time>2021-03-27T20:00:17Z</time>
      </trkpt>
      <trkpt lat="42.936242" lon="-4.913665">
        <ele>1157.68</ele>
        <time>2021-03-27T20:00:20Z</time>
      </trkpt>
      <trkpt lat="42.93577" lon="-4.91372">
        <ele>1159.22</ele>
        <time>2021-03-27T20:00:23Z</time>
      </trkpt>
      <trkpt lat="42.935103" lon="-4.913719">
        <ele>1160.76</ele>
        <time>2021-03-27T20:00:27Z</time>
      </trkpt>
      <trkpt lat="42.934558" lon="-4.913809">
        <ele>1161.8</ele>
        <time>2021-03-27T20:00:30Z</time>
      </trkpt>
      <trkpt lat="42.933934" lon="-4.913765">
        <ele>1160.88</ele>
        <time>2021-03-27T20:00:33Z</time>
      </trkpt>
      <trkpt lat="42.933314" lon="-4.91405">
        <ele>1163.29</ele>
        <time>2021-03-27T20:00:37Z</time>
      </trkpt>
      <trkpt lat="42.932994" lon="-4.914069">
        <ele>1164.96</ele>
        <time>2021-03-27T20:00:40Z</time>
      </trkpt>
      <trkpt lat="42.93268" lon="-4.91398">
        <ele>1164.76</ele>
        <time>2021-03-27T20:00:44Z</time>
      </trkpt>
      <trkpt lat="42.93204" lon="-4.91376">
        <ele>1166.36</ele>
        <time>2021-03-27T20:00:47Z</time>
      </trkpt>
      <trkpt lat="42.93135" lon="-4.913825">
        <ele>1168.51</ele>
        <time>2021-03-27T20:00:50Z</time>
      </trkpt>
      <trkpt lat="42.931009" lon="-4.913936">
        <ele>1172.91</ele>
        <time>2021-03-27T20:00:54Z</time>
      </trkpt>
      <trkpt lat="42.930776" lon="-4.914067">
        <ele>1175.92</ele>
        <time>2021-03-27T20:00:57Z</time>
      </trkpt>
      <trkpt lat="42.929568" lon="-4.91583">
        <ele>1182.29</ele>
        <time>2021-03-27T20:01:00Z</time>
      </trkpt>
      <trkpt lat="42.929438" lon="-4.916268">
        <ele>1184.06</ele>
        <time>2021-03-27T20:01:04Z</time>
      </trkpt>
      <trkpt lat="42.928878" lon="-4.918385">
        <ele>1194.07</ele>
        <time>2021-03-27T20:01:07Z</time>
      </trkpt>
      <trkpt lat="42.92886" lon="-4.91866">
        <ele>1195.27</ele>
        <time>2021-03-27T20:01:10Z</time>
      </trkpt>
      <trkpt lat="42.928873" lon="-4.918923">
        <ele>1195.36</ele>
        <time>2021-03-27T20:01:14Z</time>
      </trkpt>
      <trkpt lat="42.929717" lon="-4.921761">
        <ele>1205.24</ele>
        <time>2021-03-27T20:01:17Z</time>
      </trkpt>
      <trkpt lat="42.92972" lon="-4.92265">
        <ele>1211.56</ele>
        <time>2021-03-27T20:01:21Z</time>
      </trkpt>
      <trkpt lat="42.929762" lon="-4.922955">
        <ele>1216.35</ele>
        <time>2021-03-27T20:01:24Z</time>
      </trkpt>
      <trkpt lat="42.929829" lon="-4.923248">
        <ele>1221.48</ele>
        <time>2021-03-27T20:01:27Z</time>
      </trkpt>
      <trkpt lat="42.930194" lon="-4.924203">
        <ele>1232.07</ele>
        <time>2021-03-27T20:01:31Z</time>
      </trkpt>
      <trkpt lat="42.93028" lon="-4.92458">
        <ele>1233.57</ele>
        <time>2021-03-27T20:01:34Z</time>
      </trkpt>
      <trkpt lat="42.930304" lon="-4.92495">
        <ele>1235.35</ele>
        <time>2021-03-27T20:01:37Z</time>
      </trkpt>
      <trkpt lat="42.93028" lon="-4.92531">
        <ele>1236.04</ele>
        <time>2021-03-27T20:01:41Z</time>
      </trkpt>
      <trkpt lat="42.930004" lon="-4.927047">
        <ele>1237.76</ele>
        <time>2021-03-27T20:01:44Z</time>
      </trkpt>
      <trkpt lat="42.930026" lon="-4.927418">
        <ele>1238.42</ele>
        <time>2021-03-27T20:01:47Z</time>
      </trkpt>
      <trkpt lat="42.930087" lon="-4.927771">
        <ele>1242.21</ele>
        <time>2021-03-27T20:01:51Z</time>
      </trkpt>
      <trkpt lat="42.930204" lon="-4.928263">
        <ele>1246.61</ele>
        <time>2021-03-27T20:01:54Z</time>
      </trkpt>
      <trkpt lat="42.930284" lon="-4.928454">
        <ele>1247.04</ele>
        <time>2021-03-27T20:01:58Z</time>
      </trkpt>
      <trkpt lat="42.930076" lon="-4.928509">
        <ele>1247.92</ele>
        <time>2021-03-27T20:02:00Z</time>
      </trkpt>
      <trkpt lat="42.92972" lon="-4.92866">
        <ele>1250.35</ele>
        <time>2021-03-27T20:02:02Z</time>
      </trkpt>
      <trkpt lat="42.929622" lon="-4.928615">
        <ele>1250.04</ele>
        <time>2021-03-27T20:02:04Z</time>
      </trkpt>
      <trkpt lat="42.929554" lon="-4.928507">
        <ele>1249.25</ele>
        <time>2021-03-27T20:02:06Z</time>
      </trkpt>
      <trkpt lat="42.929385" lon="-4.928044">
        <ele>1248.22</ele>
        <time>2021-03-27T20:02:09Z</time>
      </trkpt>
      <trkpt lat="42.92929" lon="-4.92797">
        <ele>1249.51</ele>
        <time>2021-03-27T20:02:11Z</time>
      </trkpt>
      <trkpt lat="42.929209" lon="-4.927964">
        <ele>1250.92</ele>
        <time>2021-03-27T20:02:13Z</time>
      </trkpt>
      <trkpt lat="42.929128" lon="-4.927984">
        <ele>1252.08</ele>
        <time>2021-03-27T20:02:15Z</time>
      </trkpt>
      <trkpt lat="42.928709" lon="-4.928241">
        <ele>1255.59</ele>
        <time>2021-03-27T20:02:18Z</time>
      </trkpt>
      <trkpt lat="42.928594" lon="-4.92821">
        <ele>1255.38</ele>
        <time>2021-03-27T20:02:20Z</time>
      </trkpt>
      <trkpt lat="42.928535" lon="-4.928152">
        <ele>1257.42</ele>
        <time>2021-03-27T20:02:22Z</time>
      </trkpt>
      <trkpt lat="42.928485" lon="-4.92805">
        <ele>1258.86</ele>
        <time>2021-03-27T20:02:24Z</time>
      </trkpt>
      <trkpt lat="42.928291" lon="-4.927124">
        <ele>1263.32</ele>
        <time>2021-03-27T20:02:27Z</time>
      </trkpt>
      <trkpt lat="42.928094" lon="-4.926614">
        <ele>1266.63</ele>
        <time>2021-03-27T20:02:29Z</time>
      </trkpt>
      <trkpt lat="42.927995" lon="-4.926029">
        <ele>1262.63</ele>
        <time>2021-03-27T20:02:31Z</time>
      </trkpt>
      <trkpt lat="42.92783" lon="-4.92569">
        <ele>1264.18</ele>
        <time>2021-03-27T20:02:33Z</time>
      </trkpt>
      <trkpt lat="42.927687" lon="-4.925488">
        <ele>1268.44</ele>
        <time>2021-03-27T20:02:36Z</time>
      </trkpt>
      <trkpt lat="42.92754" lon="-4.925375">
        <ele>1272.95</ele>
        <time>2021-03-27T20:02:38Z</time>
      </trkpt>
      <trkpt lat="42.927354" lon="-4.924858">
        <ele>1275.92</ele>
        <time>2021-03-27T20:02:40Z</time>
      </trkpt>
      <trkpt lat="42.92724" lon="-4.924357">
        <ele>1275.53</ele>
        <time>2021-03-27T20:02:42Z</time>
      </trkpt>
      <trkpt lat="42.927034" lon="-4.923578">
        <ele>1272.69</ele>
        <time>2021-03-27T20:02:45Z</time>
      </trkpt>
      <trkpt lat="42.92663" lon="-4.922922">
        <ele>1273.8</ele>
        <time>2021-03-27T20:02:47Z</time>
      </trkpt>
      <trkpt lat="42.92646" lon="-4.92278">
        <ele>1272.3</ele>
        <time>2021-03-27T20:02:49Z</time>
      </trkpt>
      <trkpt lat="42.926329" lon="-4.922742">
        <ele>1270.72</ele>
        <time>2021-03-27T20:02:51Z</time>
      </trkpt>
      <trkpt lat="42.926206" lon="-4.922735">
        <ele>1268.47</ele>
        <time>2021-03-27T20:02:53Z</time>
      </trkpt>
      <trkpt lat="42.926117" lon="-4.92283">
        <ele>1269.99</ele>
        <time>2021-03-27T20:02:56Z</time>
      </trkpt>
      <trkpt lat="42.925845" lon="-4.923453">
        <ele>1281.35</ele>
        <time>2021-03-27T20:02:58Z</time>
      </trkpt>
      <trkpt lat="42.925495" lon="-4.923671">
        <ele>1279.38</ele>
        <time>2021-03-27T20:03:00Z</time>
      </trkpt>
      <trkpt lat="42.925339" lon="-4.923928">
        <ele>1282.74</ele>
        <time>2021-03-27T20:03:02Z</time>
      </trkpt>
      <trkpt lat="42.925229" lon="-4.924235">
        <ele>1288.33</ele>
        <time>2021-03-27T20:03:05Z</time>
      </trkpt>
      <trkpt lat="42.925147" lon="-4.924324">
        <ele>1290.35</ele>
        <time>2021-03-27T20:03:07Z</time>
      </trkpt>
      <trkpt lat="42.925033" lon="-4.924316">
        <ele>1289.55</ele>
        <time>2021-03-27T20:03:09Z</time>
      </trkpt>
      <trkpt lat="42.924799" lon="-4.924227">
        <ele>1286.48</ele>
        <time>2021-03-27T20:03:11Z</time>
      </trkpt>
      <trkpt lat="42.92466" lon="-4.924288">
        <ele>1287.5</ele>
        <time>2021-03-27T20:03:14Z</time>
      </trkpt>
      <trkpt lat="42.924475" lon="-4.924435">
        <ele>1286.79</ele>
        <time>2021-03-27T20:03:16Z</time>
      </trkpt>
      <trkpt lat="42.924021" lon="-4.925229">
        <ele>1301.44</ele>
        <time>2021-03-27T20:03:18Z</time>
      </trkpt>
      <trkpt lat="42.923963" lon="-4.925262">
        <ele>1303.17</ele>
        <time>2021-03-27T20:03:20Z</time>
      </trkpt>
      <trkpt lat="42.923902" lon="-4.925218">
        <ele>1303.84</ele>
        <time>2021-03-27T20:03:23Z</time>
      </trkpt>
      <trkpt lat="42.923873" lon="-4.923987">
        <ele>1297.62</ele>
        <time>2021-03-27T20:03:25Z</time>
      </trkpt>
      <trkpt lat="42.924431" lon="-4.921748">
        <ele>1299.77</ele>
        <time>2021-03-27T20:03:27Z</time>
      </trkpt>
      <trkpt lat="42.924447" lon="-4.921527">
        <ele>1296.35</ele>
        <time>2021-03-27T20:03:29Z</time>
      </trkpt>
      <trkpt lat="42.9244" lon="-4.92127">
        <ele>1292.49</ele>
        <time>2021-03-27T20:03:32Z</time>
      </trkpt>
      <trkpt lat="42.92427" lon="-4.92106">
        <ele>1291.79</ele>
        <time>2021-03-27T20:03:34Z</time>
      </trkpt>
      <trkpt lat="42.923828" lon="-4.920879">
        <ele>1298.31</ele>
        <time>2021-03-27T20:03:36Z</time>
      </trkpt>
      <trkpt lat="42.92337" lon="-4.920821">
        <ele>1303.31</ele>
        <time>2021-03-27T20:03:38Z</time>
      </trkpt>
      <trkpt lat="42.922912" lon="-4.921001">
        <ele>1312.35</ele>
        <time>2021-03-27T20:03:40Z</time>
      </trkpt>
      <trkpt lat="42.922731" lon="-4.920975">
        <ele>1312.63</ele>
        <time>2021-03-27T20:03:43Z</time>
      </trkpt>
      <trkpt lat="42.922369" lon="-4.920764">
        <ele>1306.85</ele>
        <time>2021-03-27T20:03:45Z</time>
      </trkpt>
      <trkpt lat="42.922236" lon="-4.920758">
        <ele>1307.22</ele>
        <time>2021-03-27T20:03:47Z</time>
      </trkpt>
      <trkpt lat="42.922116" lon="-4.920837">
        <ele>1311.29</ele>
        <time>2021-03-27T20:03:49Z</time>
      </trkpt>
      <trkpt lat="42.922008" lon="-4.920849">
        <ele>1312.95</ele>
        <time>2021-03-27T20:03:52Z</time>
      </trkpt>
      <trkpt lat="42.92194" lon="-4.920806">
        <ele>1312.24</ele>
        <time>2021-03-27T20:03:54Z</time>
      </trkpt>
      <trkpt lat="42.921897" lon="-4.920669">
        <ele>1309.36</ele>
        <time>2021-03-27T20:03:56Z</time>
      </trkpt>
      <trkpt lat="42.92193" lon="-4.920393">
        <ele>1303.41</ele>
        <time>2021-03-27T20:03:58Z</time>
      </trkpt>
      <trkpt lat="42.921858" lon="-4.920251">
        <ele>1305.31</ele>
        <time>2021-03-27T20:04:01Z</time>
      </trkpt>
      <trkpt lat="42.921718" lon="-4.92012">
        <ele>1310.38</ele>
        <time>2021-03-27T20:04:03Z</time>
      </trkpt>
      <trkpt lat="42.921533" lon="-4.919764">
        <ele>1317.24</ele>
        <time>2021-03-27T20:04:05Z</time>
      </trkpt>
      <trkpt lat="42.921537" lon="-4.919647">
        <ele>1316.19</ele>
        <time>2021-03-27T20:04:07Z</time>
      </trkpt>
      <trkpt lat="42.921574" lon="-4.919523">
        <ele>1314.42</ele>
        <time>2021-03-27T20:04:10Z</time>
      </trkpt>
      <trkpt lat="42.921676" lon="-4.919409">
        <ele>1312.1</ele>
        <time>2021-03-27T20:04:12Z</time>
      </trkpt>
      <trkpt lat="42.921781" lon="-4.919358">
        <ele>1311.33</ele>
        <time>2021-03-27T20:04:14Z</time>
      </trkpt>
      <trkpt lat="42.922363" lon="-4.919342">
        <ele>1307.71</ele>
        <time>2021-03-27T20:04:16Z</time>
      </trkpt>
      <trkpt lat="42.922735" lon="-4.919139">
        <ele>1307.44</ele>
        <time>2021-03-27T20:04:19Z</time>
      </trkpt>
      <trkpt lat="42.923115" lon="-4.918803">
        <ele>1306.42</ele>
        <time>2021-03-27T20:04:21Z</time>
      </trkpt>
      <trkpt lat="42.923412" lon="-4.918419">
        <ele>1309.3</ele>
        <time>2021-03-27T20:04:23Z</time>
      </trkpt>
      <trkpt lat="42.923559" lon="-4.918027">
        <ele>1318.33</ele>
        <time>2021-03-27T20:04:25Z</time>
      </trkpt>
      <trkpt lat="42.923945" lon="-4.917782">
        <ele>1319.02</ele>
        <time>2021-03-27T20:04:28Z</time>
      </trkpt>
      <trkpt lat="42.924411" lon="-4.917558">
        <ele>1317.22</ele>
        <time>2021-03-27T20:04:30Z</time>
      </trkpt>
      <trkpt lat="42.924543" lon="-4.917398">
        <ele>1317.2</ele>
        <time>2021-03-27T20:04:32Z</time>
      </trkpt>
      <trkpt lat="42.924628" lon="-4.917254">
        <ele>1317.2</ele>
        <time>2021-03-27T20:04:34Z</time>
      </trkpt>
      <trkpt lat="42.924682" lon="-4.91676">
        <ele>1318.99</ele>
        <time>2021-03-27T20:04:36Z</time>
      </trkpt>
      <trkpt lat="42.924656" lon="-4.916229">
        <ele>1320.18</ele>
        <time>2021-03-27T20:04:39Z</time>
      </trkpt>
      <trkpt lat="42.924544" lon="-4.915719">
        <ele>1324.04</ele>
        <time>2021-03-27T20:04:41Z</time>
      </trkpt>
      <trkpt lat="42.924326" lon="-4.915072">
        <ele>1324.14</ele>
        <time>2021-03-27T20:04:43Z</time>
      </trkpt>
      <trkpt lat="42.924064" lon="-4.914671">
        <ele>1325.97</ele>
        <time>2021-03-27T20:04:45Z</time>
      </trkpt>
      <trkpt lat="42.923928" lon="-4.914538">
        <ele>1329.52</ele>
        <time>2021-03-27T20:04:48Z</time>
      </trkpt>
      <trkpt lat="42.923508" lon="-4.914548">
        <ele>1340.82</ele>
        <time>2021-03-27T20:04:50Z</time>
      </trkpt>
      <trkpt lat="42.923443" lon="-4.914486">
        <ele>1340.73</ele>
        <time>2021-03-27T20:04:52Z</time>
      </trkpt>
      <trkpt lat="42.923396" lon="-4.914372">
        <ele>1339.77</ele>
        <time>2021-03-27T20:04:54Z</time>
      </trkpt>
      <trkpt lat="42.923316" lon="-4.914074">
        <ele>1337.17</ele>
        <time>2021-03-27T20:04:57Z</time>
      </trkpt>
      <trkpt lat="42.923074" lon="-4.91367">
        <ele>1337.53</ele>
        <time>2021-03-27T20:04:59Z</time>
      </trkpt>
      <trkpt lat="42.922854" lon="-4.913579">
        <ele>1344.32</ele>
        <time>2021-03-27T20:05:01Z</time>
      </trkpt>
      <trkpt lat="42.922696" lon="-4.913556">
        <ele>1349.94</ele>
        <time>2021-03-27T20:05:03Z</time>
      </trkpt>
      <trkpt lat="42.922543" lon="-4.913299">
        <ele>1349.06</ele>
        <time>2021-03-27T20:05:06Z</time>
      </trkpt>
      <trkpt lat="42.922354" lon="-4.912851">
        <ele>1352.77</ele>
        <time>2021-03-27T20:05:08Z</time>
      </trkpt>
      <trkpt lat="42.922299" lon="-4.912358">
        <ele>1349.02</ele>
        <time>2021-03-27T20:05:10Z</time>
      </trkpt>
      <trkpt lat="42.922182" lon="-4.912041">
        <ele>1347.81</ele>
        <time>2021-03-27T20:05:12Z</time>
      </trkpt>
      <trkpt lat="42.922021" lon="-4.911773">
        <ele>1351.22</ele>
        <time>2021-03-27T20:05:15Z</time>
      </trkpt>
      <trkpt lat="42.92174" lon="-4.91136">
        <ele>1357.31</ele>
        <time>2021-03-27T20:05:17Z</time>
      </trkpt>
      <trkpt lat="42.921308" lon="-4.910998">
        <ele>1352.09</ele>
        <time>2021-03-27T20:05:19Z</time>
      </trkpt>
      <trkpt lat="42.921107" lon="-4.910895">
        <ele>1352.53</ele>
        <time>2021-03-27T20:05:21Z</time>
      </trkpt>
      <trkpt lat="42.920867" lon="-4.91088">
        <ele>1356.81</ele>
        <time>2021-03-27T20:05:23Z</time>
      </trkpt>
      <trkpt lat="42.920728" lon="-4.910933">
        <ele>1355.86</ele>
        <time>2021-03-27T20:05:26Z</time>
      </trkpt>
      <trkpt lat="42.92038" lon="-4.911394">
        <ele>1360.92</ele>
        <time>2021-03-27T20:05:28Z</time>
      </trkpt>
      <trkpt lat="42.920073" lon="-4.911556">
        <ele>1355.25</ele>
        <time>2021-03-27T20:05:30Z</time>
      </trkpt>
      <trkpt lat="42.919735" lon="-4.911994">
        <ele>1360.72</ele>
        <time>2021-03-27T20:05:32Z</time>
      </trkpt>
      <trkpt lat="42.91954" lon="-4.912377">
        <ele>1366.96</ele>
        <time>2021-03-27T20:05:35Z</time>
      </trkpt>
      <trkpt lat="42.919333" lon="-4.912635">
        <ele>1368.21</ele>
        <time>2021-03-27T20:05:37Z</time>
      </trkpt>
      <trkpt lat="42.919034" lon="-4.913091">
        <ele>1371.76</ele>
        <time>2021-03-27T20:05:39Z</time>
      </trkpt>
      <trkpt lat="42.918928" lon="-4.91329">
        <ele>1376.91</ele>
        <time>2021-03-27T20:05:41Z</time>
      </trkpt>
      <trkpt lat="42.918479" lon="-4.913309">
        <ele>1369.86</ele>
        <time>2021-03-27T20:05:44Z</time>
      </trkpt>
      <trkpt lat="42.918355" lon="-4.913395">
        <ele>1372.12</ele>
        <time>2021-03-27T20:05:46Z</time>
      </trkpt>
      <trkpt lat="42.918029" lon="-4.913742">
        <ele>1385.94</ele>
        <time>2021-03-27T20:05:48Z</time>
      </trkpt>
      <trkpt lat="42.917535" lon="-4.913728">
        <ele>1390.98</ele>
        <time>2021-03-27T20:05:50Z</time>
      </trkpt>
      <trkpt lat="42.917201" lon="-4.913599">
        <ele>1384.99</ele>
        <time>2021-03-27T20:05:53Z</time>
      </trkpt>
      <trkpt lat="42.91626" lon="-4.913989">
        <ele>1385.92</ele>
        <time>2021-03-27T20:05:55Z</time>
      </trkpt>
      <trkpt lat="42.916075" lon="-4.914175">
        <ele>1390.56</ele>
        <time>2021-03-27T20:05:57Z</time>
      </trkpt>
      <trkpt lat="42.915686" lon="-4.91464">
        <ele>1401.43</ele>
        <time>2021-03-27T20:05:59Z</time>
      </trkpt>
      <trkpt lat="42.915532" lon="-4.914639">
        <ele>1401.89</ele>
        <time>2021-03-27T20:06:02Z</time>
      </trkpt>
      <trkpt lat="42.915079" lon="-4.91441">
        <ele>1395.55</ele>
        <time>2021-03-27T20:06:04Z</time>
      </trkpt>
      <trkpt lat="42.914914" lon="-4.914401">
        <ele>1394.76</ele>
        <time>2021-03-27T20:06:06Z</time>
      </trkpt>
      <trkpt lat="42.914547" lon="-4.914621">
        <ele>1401.41</ele>
        <time>2021-03-27T20:06:08Z</time>
      </trkpt>
      <trkpt lat="42.914393" lon="-4.914805">
        <ele>1410.07</ele>
        <time>2021-03-27T20:06:11Z</time>
      </trkpt>
      <trkpt lat="42.914228" lon="-4.914858">
        <ele>1412.42</ele>
        <time>2021-03-27T20:06:13Z</time>
      </trkpt>
      <trkpt lat="42.914094" lon="-4.914804">
        <ele>1409.27</ele>
        <time>2021-03-27T20:06:15Z</time>
      </trkpt>
      <trkpt lat="42.913886" lon="-4.914558">
        <ele>1400.3</ele>
        <time>2021-03-27T20:06:17Z</time>
      </trkpt>
      <trkpt lat="42.91371" lon="-4.914467">
        <ele>1398.35</ele>
        <time>2021-03-27T20:06:19Z</time>
      </trkpt>
      <trkpt lat="42.913564" lon="-4.914488">
        <ele>1398.95</ele>
        <time>2021-03-27T20:06:22Z</time>
      </trkpt>
      <trkpt lat="42.913361" lon="-4.914615">
        <ele>1401.94</ele>
        <time>2021-03-27T20:06:24Z</time>
      </trkpt>
      <trkpt lat="42.913174" lon="-4.914818">
        <ele>1408.07</ele>
        <time>2021-03-27T20:06:26Z</time>
      </trkpt>
      <trkpt lat="42.912496" lon="-4.914984">
        <ele>1414.5</ele>
        <time>2021-03-27T20:06:28Z</time>
      </trkpt>
      <trkpt lat="42.911784" lon="-4.914902">
        <ele>1420.71</ele>
        <time>2021-03-27T20:06:31Z</time>
      </trkpt>
      <trkpt lat="42.91126" lon="-4.9147">
        <ele>1418.65</ele>
        <time>2021-03-27T20:06:33Z</time>
      </trkpt>
      <trkpt lat="42.910838" lon="-4.914848">
        <ele>1417.71</ele>
        <time>2021-03-27T20:06:35Z</time>
      </trkpt>
      <trkpt lat="42.9105" lon="-4.915075">
        <ele>1416.84</ele>
        <time>2021-03-27T20:06:37Z</time>
      </trkpt>
      <trkpt lat="42.910372" lon="-4.915078">
        <ele>1417.25</ele>
        <time>2021-03-27T20:06:40Z</time>
      </trkpt>
      <trkpt lat="42.91017" lon="-4.914937">
        <ele>1421.14</ele>
        <time>2021-03-27T20:06:42Z</time>
      </trkpt>
      <trkpt lat="42.910069" lon="-4.914921">
        <ele>1422.17</ele>
        <time>2021-03-27T20:06:44Z</time>
      </trkpt>
      <trkpt lat="42.909267" lon="-4.915323">
        <ele>1428.52</ele>
        <time>2021-03-27T20:06:46Z</time>
      </trkpt>
      <trkpt lat="42.909141" lon="-4.915466">
        <ele>1427.65</ele>
        <time>2021-03-27T20:06:49Z</time>
      </trkpt>
      <trkpt lat="42.909045" lon="-4.915719">
        <ele>1425.56</ele>
        <time>2021-03-27T20:06:51Z</time>
      </trkpt>
      <trkpt lat="42.909003" lon="-4.916236">
        <ele>1421.98</ele>
        <time>2021-03-27T20:06:53Z</time>
      </trkpt>
      <trkpt lat="42.908952" lon="-4.916403">
        <ele>1422.42</ele>
        <time>2021-03-27T20:06:55Z</time>
      </trkpt>
      <trkpt lat="42.908361" lon="-4.917113">
        <ele>1422.46</ele>
        <time>2021-03-27T20:06:58Z</time>
      </trkpt>
      <trkpt lat="42.908214" lon="-4.917219">
        <ele>1424.79</ele>
        <time>2021-03-27T20:07:00Z</time>
      </trkpt>
      <trkpt lat="42.908123" lon="-4.917396">
        <ele>1425.82</ele>
        <time>2021-03-27T20:07:02Z</time>
      </trkpt>
      <trkpt lat="42.908054" lon="-4.91785">
        <ele>1424.51</ele>
        <time>2021-03-27T20:07:04Z</time>
      </trkpt>
      <trkpt lat="42.907653" lon="-4.918867">
        <ele>1416.35</ele>
        <time>2021-03-27T20:07:06Z</time>
      </trkpt>
      <trkpt lat="42.907424" lon="-4.919338">
        <ele>1420.39</ele>
        <time>2021-03-27T20:07:09Z</time>
      </trkpt>
      <trkpt lat="42.907255" lon="-4.919874">
        <ele>1417.02</ele>
        <time>2021-03-27T20:07:11Z</time>
      </trkpt>
      <trkpt lat="42.907115" lon="-4.920152">
        <ele>1416.04</ele>
        <time>2021-03-27T20:07:13Z</time>
      </trkpt>
      <trkpt lat="42.906877" lon="-4.92038">
        <ele>1415.44</ele>
        <time>2021-03-27T20:07:15Z</time>
      </trkpt>
      <trkpt lat="42.906345" lon="-4.920777">
        <ele>1414.9</ele>
        <time>2021-03-27T20:07:18Z</time>
      </trkpt>
      <trkpt lat="42.906029" lon="-4.920856">
        <ele>1420.2</ele>
        <time>2021-03-27T20:07:20Z</time>
      </trkpt>
      <trkpt lat="42.905561" lon="-4.921305">
        <ele>1421.35</ele>
        <time>2021-03-27T20:07:22Z</time>
      </trkpt>
      <trkpt lat="42.904862" lon="-4.922041">
        <ele>1421.75</ele>
        <time>2021-03-27T20:07:24Z</time>
      </trkpt>
      <trkpt lat="42.90463" lon="-4.922115">
        <ele>1423.15</ele>
        <time>2021-03-27T20:07:27Z</time>
      </trkpt>
      <trkpt lat="42.904387" lon="-4.92206">
        <ele>1423.66</ele>
        <time>2021-03-27T20:07:29Z</time>
      </trkpt>
      <trkpt lat="42.9041" lon="-4.92175">
        <ele>1426.9</ele>
        <time>2021-03-27T20:07:31Z</time>
      </trkpt>
      <trkpt lat="42.903441" lon="-4.920651">
        <ele>1433.43</ele>
        <time>2021-03-27T20:07:33Z</time>
      </trkpt>
      <trkpt lat="42.903397" lon="-4.920431">
        <ele>1432.66</ele>
        <time>2021-03-27T20:07:36Z</time>
      </trkpt>
      <trkpt lat="42.903413" lon="-4.920255">
        <ele>1431.56</ele>
        <time>2021-03-27T20:07:38Z</time>
      </trkpt>
      <trkpt lat="42.903486" lon="-4.920161">
        <ele>1431.2</ele>
        <time>2021-03-27T20:07:40Z</time>
      </trkpt>
      <trkpt lat="42.903719" lon="-4.919992">
        <ele>1432.46</ele>
        <time>2021-03-27T20:07:42Z</time>
      </trkpt>
      <trkpt lat="42.904208" lon="-4.919757">
        <ele>1434.05</ele>
        <time>2021-03-27T20:07:45Z</time>
      </trkpt>
      <trkpt lat="42.904308" lon="-4.919645">
        <ele>1433.28</ele>
        <time>2021-03-27T20:07:47Z</time>
      </trkpt>
      <trkpt lat="42.904358" lon="-4.919496">
        <ele>1431.26</ele>
        <time>2021-03-27T20:07:49Z</time>
      </trkpt>
      <trkpt lat="42.904459" lon="-4.918599">
        <ele>1423.32</ele>
        <time>2021-03-27T20:07:51Z</time>
      </trkpt>
      <trkpt lat="42.9044" lon="-4.918405">
        <ele>1422.32</ele>
        <time>2021-03-27T20:07:54Z</time>
      </trkpt>
      <trkpt lat="42.904278" lon="-4.918246">
        <ele>1420.79</ele>
        <time>2021-03-27T20:07:56Z</time>
      </trkpt>
      <trkpt lat="42.904142" lon="-4.918149">
        <ele>1419.4</ele>
        <time>2021-03-27T20:07:58Z</time>
      </trkpt>
      <trkpt lat="42.900518" lon="-4.9158">
        <ele>1396.94</ele>
        <time>2021-03-27T20:08:00Z</time>
      </trkpt>
      <trkpt lat="42.90034" lon="-4.915625">
        <ele>1396.33</ele>
        <time>2021-03-27T20:08:02Z</time>
      </trkpt>
      <trkpt lat="42.90019" lon="-4.91539">
        <ele>1395.36</ele>
        <time>2021-03-27T20:08:05Z</time>
      </trkpt>
      <trkpt lat="42.899993" lon="-4.914724">
        <ele>1392.87</ele>
        <time>2021-03-27T20:08:07Z</time>
      </trkpt>
      <trkpt lat="42.89978" lon="-4.914228">
        <ele>1391.83</ele>
        <time>2021-03-27T20:08:09Z</time>
      </trkpt>
      <trkpt lat="42.899395" lon="-4.911626">
        <ele>1383.58</ele>
        <time>2021-03-27T20:08:11Z</time>
      </trkpt>
      <trkpt lat="42.899397" lon="-4.911047">
        <ele>1382.02</ele>
        <time>2021-03-27T20:08:14Z</time>
      </trkpt>
      <trkpt lat="42.899578" lon="-4.909517">
        <ele>1371.05</ele>
        <time>2021-03-27T20:08:16Z</time>
      </trkpt>
      <trkpt lat="42.899419" lon="-4.908832">
        <ele>1369.24</ele>
        <time>2021-03-27T20:08:18Z</time>
      </trkpt>
      <trkpt lat="42.899375" lon="-4.908201">
        <ele>1364.18</ele>
        <time>2021-03-27T20:08:20Z</time>
      </trkpt>
      <trkpt lat="42.899333" lon="-4.905992">
        <ele>1355.08</ele>
        <time>2021-03-27T20:08:23Z</time>
      </trkpt>
      <trkpt lat="42.899387" lon="-4.905715">
        <ele>1356.63</ele>
        <time>2021-03-27T20:08:25Z</time>
      </trkpt>
      <trkpt lat="42.899643" lon="-4.905201">
        <ele>1356.3</ele>
        <time>2021-03-27T20:08:27Z</time>
      </trkpt>
      <trkpt lat="42.899649" lon="-4.905023">
        <ele>1355.77</ele>
        <time>2021-03-27T20:08:29Z</time>
      </trkpt>
      <trkpt lat="42.899584" lon="-4.904875">
        <ele>1356.08</ele>
        <time>2021-03-27T20:08:32Z</time>
      </trkpt>
      <trkpt lat="42.89926" lon="-4.904697">
        <ele>1349.0</ele>
        <time>2021-03-27T20:08:34Z</time>
      </trkpt>
      <trkpt lat="42.899131" lon="-4.904592">
        <ele>1346.58</ele>
        <time>2021-03-27T20:08:36Z</time>
      </trkpt>
      <trkpt lat="42.899035" lon="-4.904435">
        <ele>1345.8</ele>
        <time>2021-03-27T20:08:38Z</time>
      </trkpt>
      <trkpt lat="42.898696" lon="-4.903222">
        <ele>1346.71</ele>
        <time>2021-03-27T20:08:41Z</time>
      </trkpt>
      <trkpt lat="42.898635" lon="-4.902803">
        <ele>1348.92</ele>
        <time>2021-03-27T20:08:43Z</time>
      </trkpt>
      <trkpt lat="42.898808" lon="-4.901826">
        <ele>1346.29</ele>
        <time>2021-03-27T20:08:45Z</time>
      </trkpt>
      <trkpt lat="42.898802" lon="-4.900882">
        <ele>1340.89</ele>
        <time>2021-03-27T20:08:47Z</time>
      </trkpt>
      <trkpt lat="42.898756" lon="-4.899667">
        <ele>1333.7</ele>
        <time>2021-03-27T20:08:49Z</time>
      </trkpt>
      <trkpt lat="42.898405" lon="-4.895375">
        <ele>1310.96</ele>
        <time>2021-03-27T20:08:52Z</time>
      </trkpt>
      <trkpt lat="42.898434" lon="-4.895038">
        <ele>1309.23</ele>
        <time>2021-03-27T20:08:54Z</time>
      </trkpt>
      <trkpt lat="42.89861" lon="-4.894306">
        <ele>1309.96</ele>
        <time>2021-03-27T20:08:56Z</time>
      </trkpt>
      <trkpt lat="42.898586" lon="-4.893141">
        <ele>1304.67</ele>
        <time>2021-03-27T20:08:58Z</time>
      </trkpt>
      <trkpt lat="42.898566" lon="-4.89284">
        <ele>1303.19</ele>
        <time>2021-03-27T20:09:01Z</time>
      </trkpt>
      <trkpt lat="42.89849" lon="-4.892563">
        <ele>1299.75</ele>
        <time>2021-03-27T20:09:03Z</time>
      </trkpt>
      <trkpt lat="42.898041" lon="-4.891589">
        <ele>1301.91</ele>
        <time>2021-03-27T20:09:05Z</time>
      </trkpt>
      <trkpt lat="42.89799" lon="-4.891364">
        <ele>1300.48</ele>
        <time>2021-03-27T20:09:07Z</time>
      </trkpt>
      <trkpt lat="42.897841" lon="-4.890264">
        <ele>1289.42</ele>
        <time>2021-03-27T20:09:10Z</time>
      </trkpt>
      <trkpt lat="42.89779" lon="-4.88999">
        <ele>1289.34</ele>
        <time>2021-03-27T20:09:12Z</time>
      </trkpt>
      <trkpt lat="42.897708" lon="-4.889768">
        <ele>1288.74</ele>
        <time>2021-03-27T20:09:14Z</time>
      </trkpt>
      <trkpt lat="42.897245" lon="-4.888932">
        <ele>1281.62</ele>
        <time>2021-03-27T20:09:16Z</time>
      </trkpt>
      <trkpt lat="42.897184" lon="-4.88873">
        <ele>1280.51</ele>
        <time>2021-03-27T20:09:19Z</time>
      </trkpt>
      <trkpt lat="42.897195" lon="-4.888302">
        <ele>1280.47</ele>
        <time>2021-03-27T20:09:21Z</time>
      </trkpt>
      <trkpt lat="42.897178" lon="-4.888088">
        <ele>1279.64</ele>
        <time>2021-03-27T20:09:23Z</time>
      </trkpt>
      <trkpt lat="42.897103" lon="-4.8879">
        <ele>1276.89</ele>
        <time>2021-03-27T20:09:25Z</time>
      </trkpt>
      <trkpt lat="42.896938" lon="-4.887991">
        <ele>1271.66</ele>
        <time>2021-03-27T20:09:28Z</time>
      </trkpt>
      <trkpt lat="42.896837" lon="-4.888005">
        <ele>1270.13</ele>
        <time>2021-03-27T20:09:31Z</time>
      </trkpt>
      <trkpt lat="42.896445" lon="-4.887983">
        <ele>1264.68</ele>
        <time>2021-03-27T20:09:34Z</time>
      </trkpt>
      <trkpt lat="42.89272" lon="-4.88757">
        <ele>1269.57</ele>
        <time>2021-03-27T20:09:37Z</time>
      </trkpt>
      <trkpt lat="42.892442" lon="-4.887577">
        <ele>1271.23</ele>
        <time>2021-03-27T20:09:40Z</time>
      </trkpt>
      <trkpt lat="42.891995" lon="-4.887637">
        <ele>1274.94</ele>
        <time>2021-03-27T20:09:43Z</time>
      </trkpt>
      <trkpt lat="42.891506" lon="-4.88774">
        <ele>1277.24</ele>
        <time>2021-03-27T20:09:46Z</time>
      </trkpt>
      <trkpt lat="42.89002" lon="-4.888346">
        <ele>1265.41</ele>
        <time>2021-03-27T20:09:49Z</time>
      </trkpt>
      <trkpt lat="42.889813" lon="-4.888379">
        <ele>1263.87</ele>
        <time>2021-03-27T20:09:51Z</time>
      </trkpt>
      <trkpt lat="42.889623" lon="-4.888381">
        <ele>1263.17</ele>
        <time>2021-03-27T20:09:54Z</time>
      </trkpt>
      <trkpt lat="42.88943" lon="-4.888343">
        <ele>1263.09</ele>
        <time>2021-03-27T20:09:57Z</time>
      </trkpt>
      <trkpt lat="42.889156" lon="-4.888246">
        <ele>1263.31</ele>
        <time>2021-03-27T20:10:00Z</time>
      </trkpt>
      <trkpt lat="42.8876" lon="-4.887523">
        <ele>1264.34</ele>
        <time>2021-03-27T20:10:03Z</time>
      </trkpt>
      <trkpt lat="42.887423" lon="-4.887414">
        <ele>1266.0</ele>
        <time>2021-03-27T20:10:06Z</time>
      </trkpt>
      <trkpt lat="42.887215" lon="-4.88724">
        <ele>1263.79</ele>
        <time>2021-03-27T20:10:09Z</time>
      </trkpt>
      <trkpt lat="42.88682" lon="-4.886736">
        <ele>1258.27</ele>
        <time>2021-03-27T20:10:12Z</time>
      </trkpt>
      <trkpt lat="42.886608" lon="-4.886525">
        <ele>1255.18</ele>
        <time>2021-03-27T20:10:15Z</time>
      </trkpt>
      <trkpt lat="42.886372" lon="-4.886361">
        <ele>1252.94</ele>
        <time>2021-03-27T20:10:18Z</time>
      </trkpt>
      <trkpt lat="42.885881" lon="-4.886077">
        <ele>1256.92</ele>
        <time>2021-03-27T20:10:21Z</time>
      </trkpt>
      <trkpt lat="42.885626" lon="-4.885957">
        <ele>1262.21</ele>
        <time>2021-03-27T20:10:23Z</time>
      </trkpt>
      <trkpt lat="42.885444" lon="-4.8859">
        <ele>1265.2</ele>
        <time>2021-03-27T20:10:26Z</time>
      </trkpt>
      <trkpt lat="42.883944" lon="-4.885673">
        <ele>1256.35</ele>
        <time>2021-03-27T20:10:29Z</time>
      </trkpt>
      <trkpt lat="42.883279" lon="-4.885437">
        <ele>1258.19</ele>
        <time>2021-03-27T20:10:32Z</time>
      </trkpt>
      <trkpt lat="42.881794" lon="-4.88476">
        <ele>1255.55</ele>
        <time>2021-03-27T20:10:35Z</time>
      </trkpt>
      <trkpt lat="42.881603" lon="-4.884695">
        <ele>1255.91</ele>
        <time>2021-03-27T20:10:38Z</time>
      </trkpt>
      <trkpt lat="42.881385" lon="-4.884651">
        <ele>1255.99</ele>
        <time>2021-03-27T20:10:41Z</time>
      </trkpt>
      <trkpt lat="42.879715" lon="-4.884475">
        <ele>1254.8</ele>
        <time>2021-03-27T20:10:44Z</time>
      </trkpt>
      <trkpt lat="42.879263" lon="-4.884389">
        <ele>1253.94</ele>
        <time>2021-03-27T20:10:47Z</time>
      </trkpt>
      <trkpt lat="42.878935" lon="-4.884268">
        <ele>1257.32</ele>
        <time>2021-03-27T20:10:50Z</time>
      </trkpt>
      <trkpt lat="42.878142" lon="-4.883912">
        <ele>1256.54</ele>
        <time>2021-03-27T20:10:53Z</time>
      </trkpt>
      <trkpt lat="42.878013" lon="-4.883846">
        <ele>1255.87</ele>
        <time>2021-03-27T20:10:55Z</time>
      </trkpt>
      <trkpt lat="42.877591" lon="-4.883549">
        <ele>1252.86</ele>
        <time>2021-03-27T20:10:58Z</time>
      </trkpt>
      <trkpt lat="42.877443" lon="-4.883465">
        <ele>1253.92</ele>
        <time>2021-03-27T20:11:01Z</time>
      </trkpt>
      <trkpt lat="42.877137" lon="-4.883312">
        <ele>1253.79</ele>
        <time>2021-03-27T20:11:04Z</time>
      </trkpt>
      <trkpt lat="42.876511" lon="-4.88304">
        <ele>1256.34</ele>
        <time>2021-03-27T20:11:07Z</time>
      </trkpt>
      <trkpt lat="42.876245" lon="-4.88285">
        <ele>1255.71</ele>
        <time>2021-03-27T20:11:10Z</time>
      </trkpt>
      <trkpt lat="42.876027" lon="-4.882594">
        <ele>1256.58</ele>
        <time>2021-03-27T20:11:13Z</time>
      </trkpt>
      <trkpt lat="42.875848" lon="-4.882307">
        <ele>1254.4</ele>
        <time>2021-03-27T20:11:16Z</time>
      </trkpt>
      <trkpt lat="42.874637" lon="-4.879832">
        <ele>1257.15</ele>
        <time>2021-03-27T20:11:19Z</time>
      </trkpt>
      <trkpt lat="42.874001" lon="-4.878597">
        <ele>1253.07</ele>
        <time>2021-03-27T20:11:22Z</time>
      </trkpt>
      <trkpt lat="42.873249" lon="-4.877064">
        <ele>1251.51</ele>
        <time>2021-03-27T20:11:25Z</time>
      </trkpt>
      <trkpt lat="42.873104" lon="-4.876667">
        <ele>1257.73</ele>
        <time>2021-03-27T20:11:27Z</time>
      </trkpt>
      <trkpt lat="42.873003" lon="-4.876262">
        <ele>1260.24</ele>
        <time>2021-03-27T20:11:30Z</time>
      </trkpt>
      <trkpt lat="42.872941" lon="-4.875854">
        <ele>1261.01</ele>
        <time>2021-03-27T20:11:33Z</time>
      </trkpt>
      <trkpt lat="42.872882" lon="-4.875095">
        <ele>1251.35</ele>
        <time>2021-03-27T20:11:36Z</time>
      </trkpt>
      <trkpt lat="42.872794" lon="-4.874731">
        <ele>1251.73</ele>
        <time>2021-03-27T20:11:39Z</time>
      </trkpt>
      <trkpt lat="42.87266" lon="-4.874389">
        <ele>1255.37</ele>
        <time>2021-03-27T20:11:42Z</time>
      </trkpt>
      <trkpt lat="42.87249" lon="-4.874081">
        <ele>1256.6</ele>
        <time>2021-03-27T20:11:45Z</time>
      </trkpt>
      <trkpt lat="42.872088" lon="-4.873492">
        <ele>1257.72</ele>
        <time>2021-03-27T20:11:48Z</time>
      </trkpt>
      <trkpt lat="42.871896" lon="-4.873182">
        <ele>1257.42</ele>
        <time>2021-03-27T20:11:51Z</time>
      </trkpt>
      <trkpt lat="42.871746" lon="-4.872841">
        <ele>1256.46</ele>
        <time>2021-03-27T20:11:54Z</time>
      </trkpt>
      <trkpt lat="42.871628" lon="-4.872478">
        <ele>1256.23</ele>
        <time>2021-03-27T20:11:57Z</time>
      </trkpt>
      <trkpt lat="42.87115" lon="-4.870588">
        <ele>1254.96</ele>
        <time>2021-03-27T20:11:59Z</time>
      </trkpt>
      <trkpt lat="42.870844" lon="-4.868942">
        <ele>1260.44</ele>
        <time>2021-03-27T20:12:02Z</time>
      </trkpt>
      <trkpt lat="42.870507" lon="-4.867799">
        <ele>1263.5</ele>
        <time>2021-03-27T20:12:05Z</time>
      </trkpt>
      <trkpt lat="42.869631" lon="-4.865251">
        <ele>1273.54</ele>
        <time>2021-03-27T20:12:08Z</time>
      </trkpt>
      <trkpt lat="42.869427" lon="-4.864515">
        <ele>1264.22</ele>
        <time>2021-03-27T20:12:11Z</time>
      </trkpt>
      <trkpt lat="42.869291" lon="-4.863794">
        <ele>1265.46</ele>
        <time>2021-03-27T20:12:14Z</time>
      </trkpt>
      <trkpt lat="42.869247" lon="-4.863435">
        <ele>1267.92</ele>
        <time>2021-03-27T20:12:17Z</time>
      </trkpt>
      <trkpt lat="42.869254" lon="-4.863097">
        <ele>1268.39</ele>
        <time>2021-03-27T20:12:20Z</time>
      </trkpt>
      <trkpt lat="42.869313" lon="-4.86277">
        <ele>1267.25</ele>
        <time>2021-03-27T20:12:23Z</time>
      </trkpt>
      <trkpt lat="42.869494" lon="-4.862191">
        <ele>1265.69</ele>
        <time>2021-03-27T20:12:26Z</time>
      </trkpt>
      <trkpt lat="42.869616" lon="-4.861925">
        <ele>1265.94</ele>
        <time>2021-03-27T20:12:29Z</time>
      </trkpt>
      <trkpt lat="42.869751" lon="-4.861678">
        <ele>1265.48</ele>
        <time>2021-03-27T20:12:31Z</time>
      </trkpt>
      <trkpt lat="42.869853" lon="-4.861409">
        <ele>1271.08</ele>
        <time>2021-03-27T20:12:34Z</time>
      </trkpt>
      <trkpt lat="42.86989" lon="-4.861161">
        <ele>1275.61</ele>
        <time>2021-03-27T20:12:37Z</time>
      </trkpt>
      <trkpt lat="42.869881" lon="-4.860964">
        <ele>1278.16</ele>
        <time>2021-03-27T20:12:40Z</time>
      </trkpt>
      <trkpt lat="42.869847" lon="-4.860823">
        <ele>1279.56</ele>
        <time>2021-03-27T20:12:43Z</time>
      </trkpt>
      <trkpt lat="42.869771" lon="-4.860631">
        <ele>1279.48</ele>
        <time>2021-03-27T20:12:46Z</time>
      </trkpt>
      <trkpt lat="42.869695" lon="-4.860503">
        <ele>1279.17</ele>
        <time>2021-03-27T20:12:49Z</time>
      </trkpt>
      <trkpt lat="42.869541" lon="-4.860338">
        <ele>1279.27</ele>
        <time>2021-03-27T20:12:52Z</time>
      </trkpt>
      <trkpt lat="42.869324" lon="-4.860239">
        <ele>1277.12</ele>
        <time>2021-03-27T20:12:55Z</time>
      </trkpt>
      <trkpt lat="42.868749" lon="-4.860148">
        <ele>1269.16</ele>
        <time>2021-03-27T20:12:58Z</time>
      </trkpt>
      <trkpt lat="42.868522" lon="-4.860083">
        <ele>1267.22</ele>
        <time>2021-03-27T20:13:01Z</time>
      </trkpt>
      <trkpt lat="42.868302" lon="-4.859966">
        <ele>1265.58</ele>
        <time>2021-03-27T20:13:03Z</time>
      </trkpt>
      <trkpt lat="42.867636" lon="-4.85943">
        <ele>1263.26</ele>
        <time>2021-03-27T20:13:06Z</time>
      </trkpt>
      <trkpt lat="42.867427" lon="-4.859232">
        <ele>1261.82</ele>
        <time>2021-03-27T20:13:09Z</time>
      </trkpt>
      <trkpt lat="42.867071" lon="-4.858736">
        <ele>1255.67</ele>
        <time>2021-03-27T20:13:12Z</time>
      </trkpt>
      <trkpt lat="42.866926" lon="-4.858461">
        <ele>1253.57</ele>
        <time>2021-03-27T20:13:15Z</time>
      </trkpt>
      <trkpt lat="42.866576" lon="-4.857577">
        <ele>1247.88</ele>
        <time>2021-03-27T20:13:18Z</time>
      </trkpt>
      <trkpt lat="42.866484" lon="-4.857291">
        <ele>1245.7</ele>
        <time>2021-03-27T20:13:21Z</time>
      </trkpt>
      <trkpt lat="42.866378" lon="-4.857031">
        <ele>1242.84</ele>
        <time>2021-03-27T20:13:24Z</time>
      </trkpt>
      <trkpt lat="42.86616" lon="-4.856584">
        <ele>1239.56</ele>
        <time>2021-03-27T20:13:27Z</time>
      </trkpt>
      <trkpt lat="42.866013" lon="-4.856341">
        <ele>1238.92</ele>
        <time>2021-03-27T20:13:30Z</time>
      </trkpt>
      <trkpt lat="42.865808" lon="-4.856101">
        <ele>1238.89</ele>
        <time>2021-03-27T20:13:32Z</time>
      </trkpt>
      <trkpt lat="42.865547" lon="-4.855899">
        <ele>1234.22</ele>
        <time>2021-03-27T20:13:35Z</time>
      </trkpt>
      <trkpt lat="42.863411" lon="-4.854775">
        <ele>1224.46</ele>
        <time>2021-03-27T20:13:38Z</time>
      </trkpt>
      <trkpt lat="42.863104" lon="-4.854649">
        <ele>1221.46</ele>
        <time>2021-03-27T20:13:41Z</time>
      </trkpt>
      <trkpt lat="42.862168" lon="-4.85433">
        <ele>1217.22</ele>
        <time>2021-03-27T20:13:44Z</time>
      </trkpt>
      <trkpt lat="42.861534" lon="-4.854086">
        <ele>1211.17</ele>
        <time>2021-03-27T20:13:47Z</time>
      </trkpt>
      <trkpt lat="42.860861" lon="-4.85374">
        <ele>1209.48</ele>
        <time>2021-03-27T20:13:50Z</time>
      </trkpt>
      <trkpt lat="42.86062" lon="-4.853652">
        <ele>1208.65</ele>
        <time>2021-03-27T20:13:53Z</time>
      </trkpt>
      <trkpt lat="42.860396" lon="-4.853612">
        <ele>1206.88</ele>
        <time>2021-03-27T20:13:56Z</time>
      </trkpt>
      <trkpt lat="42.859548" lon="-4.853534">
        <ele>1200.81</ele>
        <time>2021-03-27T20:13:59Z</time>
      </trkpt>
      <trkpt lat="42.857936" lon="-4.853515">
        <ele>1205.11</ele>
        <time>2021-03-27T20:14:02Z</time>
      </trkpt>
      <trkpt lat="42.857631" lon="-4.853483">
        <ele>1203.31</ele>
        <time>2021-03-27T20:14:04Z</time>
      </trkpt>
      <trkpt lat="42.857166" lon="-4.853376">
        <ele>1188.83</ele>
        <time>2021-03-27T20:14:07Z</time>
      </trkpt>
      <trkpt lat="42.857016" lon="-4.853312">
        <ele>1187.72</ele>
        <time>2021-03-27T20:14:10Z</time>
      </trkpt>
      <trkpt lat="42.855963" lon="-4.852669">
        <ele>1177.23</ele>
        <time>2021-03-27T20:14:13Z</time>
      </trkpt>
      <trkpt lat="42.855383" lon="-4.852413">
        <ele>1180.82</ele>
        <time>2021-03-27T20:14:16Z</time>
      </trkpt>
      <trkpt lat="42.855101" lon="-4.852309">
        <ele>1174.98</ele>
        <time>2021-03-27T20:14:19Z</time>
      </trkpt>
      <trkpt lat="42.854065" lon="-4.852157">
        <ele>1171.63</ele>
        <time>2021-03-27T20:14:22Z</time>
      </trkpt>
      <trkpt lat="42.853307" lon="-4.852239">
        <ele>1162.44</ele>
        <time>2021-03-27T20:14:25Z</time>
      </trkpt>
      <trkpt lat="42.85302" lon="-4.852291">
        <ele>1163.22</ele>
        <time>2021-03-27T20:14:28Z</time>
      </trkpt>
      <trkpt lat="42.852763" lon="-4.852372">
        <ele>1162.92</ele>
        <time>2021-03-27T20:14:31Z</time>
      </trkpt>
      <trkpt lat="42.851732" lon="-4.85297">
        <ele>1152.63</ele>
        <time>2021-03-27T20:14:34Z</time>
      </trkpt>
      <trkpt lat="42.851435" lon="-4.853124">
        <ele>1154.65</ele>
        <time>2021-03-27T20:14:36Z</time>
      </trkpt>
      <trkpt lat="42.851262" lon="-4.853179">
        <ele>1155.99</ele>
        <time>2021-03-27T20:14:39Z</time>
      </trkpt>
      <trkpt lat="42.851093" lon="-4.853214">
        <ele>1156.6</ele>
        <time>2021-03-27T20:14:42Z</time>
      </trkpt>
      <trkpt lat="42.850807" lon="-4.853224">
        <ele>1153.22</ele>
        <time>2021-03-27T20:14:45Z</time>
      </trkpt>
      <trkpt lat="42.849506" lon="-4.853205">
        <ele>1157.17</ele>
        <time>2021-03-27T20:14:48Z</time>
      </trkpt>
      <trkpt lat="42.849319" lon="-4.853229">
        <ele>1156.96</ele>
        <time>2021-03-27T20:14:51Z</time>
      </trkpt>
      <trkpt lat="42.849153" lon="-4.853286">
        <ele>1156.4</ele>
        <time>2021-03-27T20:14:54Z</time>
      </trkpt>
      <trkpt lat="42.848563" lon="-4.85359">
        <ele>1159.27</ele>
        <time>2021-03-27T20:14:57Z</time>
      </trkpt>
      <trkpt lat="42.847328" lon="-4.854154">
        <ele>1157.42</ele>
        <time>2021-03-27T20:15:00Z</time>
      </trkpt>
      <trkpt lat="42.846691" lon="-4.854467">
        <ele>1153.25</ele>
        <time>2021-03-27T20:15:03Z</time>
      </trkpt>
      <trkpt lat="42.846025" lon="-4.854655">
        <ele>1155.17</ele>
        <time>2021-03-27T20:15:06Z</time>
      </trkpt>
      <trkpt lat="42.845713" lon="-4.854706">
        <ele>1155.56</ele>
        <time>2021-03-27T20:15:08Z</time>
      </trkpt>
      <trkpt lat="42.845507" lon="-4.85471">
        <ele>1155.12</ele>
        <time>2021-03-27T20:15:11Z</time>
      </trkpt>
      <trkpt lat="42.84524" lon="-4.854669">
        <ele>1151.66</ele>
        <time>2021-03-27T20:15:14Z</time>
      </trkpt>
      <trkpt lat="42.844829" lon="-4.85466">
        <ele>1152.45</ele>
        <time>2021-03-27T20:15:17Z</time>
      </trkpt>
      <trkpt lat="42.843847" lon="-4.854834">
        <ele>1149.06</ele>
        <time>2021-03-27T20:15:20Z</time>
      </trkpt>
      <trkpt lat="42.843565" lon="-4.85497">
        <ele>1148.57</ele>
        <time>2021-03-27T20:15:23Z</time>
      </trkpt>
      <trkpt lat="42.84329" lon="-4.855194">
        <ele>1145.94</ele>
        <time>2021-03-27T20:15:26Z</time>
      </trkpt>
      <trkpt lat="42.84309" lon="-4.855491">
        <ele>1143.6</ele>
        <time>2021-03-27T20:15:29Z</time>
      </trkpt>
      <trkpt lat="42.843003" lon="-4.85566">
        <ele>1143.16</ele>
        <time>2021-03-27T20:15:32Z</time>
      </trkpt>
      <trkpt lat="42.842696" lon="-4.856374">
        <ele>1140.29</ele>
        <time>2021-03-27T20:15:35Z</time>
      </trkpt>
      <trkpt lat="42.842498" lon="-4.85668">
        <ele>1140.93</ele>
        <time>2021-03-27T20:15:38Z</time>
      </trkpt>
      <trkpt lat="42.842375" lon="-4.856796">
        <ele>1140.02</ele>
        <time>2021-03-27T20:15:40Z</time>
      </trkpt>
      <trkpt lat="42.842245" lon="-4.856881">
        <ele>1140.31</ele>
        <time>2021-03-27T20:15:43Z</time>
      </trkpt>
      <trkpt lat="42.842089" lon="-4.856948">
        <ele>1141.5</ele>
        <time>2021-03-27T20:15:46Z</time>
      </trkpt>
      <trkpt lat="42.841748" lon="-4.857022">
        <ele>1142.08</ele>
        <time>2021-03-27T20:15:49Z</time>
      </trkpt>
      <trkpt lat="42.841286" lon="-4.857092">
        <ele>1137.56</ele>
        <time>2021-03-27T20:15:52Z</time>
      </trkpt>
      <trkpt lat="42.840978" lon="-4.857073">
        <ele>1135.74</ele>
        <time>2021-03-27T20:15:55Z</time>
      </trkpt>
      <trkpt lat="42.840825" lon="-4.857039">
        <ele>1135.34</ele>
        <time>2021-03-27T20:15:58Z</time>
      </trkpt>
      <trkpt lat="42.834153" lon="-4.854617">
        <ele>1131.57</ele>
        <time>2021-03-27T20:16:01Z</time>
      </trkpt>
      <trkpt lat="42.832205" lon="-4.853882">
        <ele>1125.44</ele>
        <time>2021-03-27T20:16:04Z</time>
      </trkpt>
      <trkpt lat="42.831971" lon="-4.85373">
        <ele>1129.54</ele>
        <time>2021-03-27T20:16:07Z</time>
      </trkpt>
      <trkpt lat="42.831776" lon="-4.853507">
        <ele>1132.63</ele>
        <time>2021-03-27T20:16:10Z</time>
      </trkpt>
      <trkpt lat="42.83121" lon="-4.852659">
        <ele>1131.7</ele>
        <time>2021-03-27T20:16:12Z</time>
      </trkpt>
      <trkpt lat="42.831018" lon="-4.852397">
        <ele>1130.49</ele>
        <time>2021-03-27T20:16:15Z</time>
      </trkpt>
      <trkpt lat="42.830605" lon="-4.851933">
        <ele>1131.76</ele>
        <time>2021-03-27T20:16:18Z</time>
      </trkpt>
      <trkpt lat="42.830204" lon="-4.851516">
        <ele>1131.78</ele>
        <time>2021-03-27T20:16:21Z</time>
      </trkpt>
      <trkpt lat="42.829975" lon="-4.851328">
        <ele>1131.36</ele>
        <time>2021-03-27T20:16:24Z</time>
      </trkpt>
      <trkpt lat="42.82978" lon="-4.851122">
        <ele>1129.88</ele>
        <time>2021-03-27T20:16:27Z</time>
      </trkpt>
      <trkpt lat="42.829711" lon="-4.851017">
        <ele>1129.49</ele>
        <time>2021-03-27T20:16:30Z</time>
      </trkpt>
      <trkpt lat="42.829634" lon="-4.850856">
        <ele>1129.43</ele>
        <time>2021-03-27T20:16:33Z</time>
      </trkpt>
      <trkpt lat="42.829413" lon="-4.850318">
        <ele>1125.7</ele>
        <time>2021-03-27T20:16:36Z</time>
      </trkpt>
      <trkpt lat="42.829171" lon="-4.849789">
        <ele>1124.91</ele>
        <time>2021-03-27T20:16:39Z</time>
      </trkpt>
      <trkpt lat="42.829009" lon="-4.849592">
        <ele>1125.84</ele>
        <time>2021-03-27T20:16:42Z</time>
      </trkpt>
      <trkpt lat="42.828922" lon="-4.84952">
        <ele>1126.39</ele>
        <time>2021-03-27T20:16:44Z</time>
      </trkpt>
      <trkpt lat="42.828676" lon="-4.849406">
        <ele>1127.81</ele>
        <time>2021-03-27T20:16:47Z</time>
      </trkpt>
      <trkpt lat="42.827472" lon="-4.849123">
        <ele>1125.64</ele>
        <time>2021-03-27T20:16:50Z</time>
      </trkpt>
      <trkpt lat="42.827092" lon="-4.848998">
        <ele>1123.06</ele>
        <time>2021-03-27T20:16:53Z</time>
      </trkpt>
      <trkpt lat="42.826413" lon="-4.848711">
        <ele>1122.9</ele>
        <time>2021-03-27T20:16:56Z</time>
      </trkpt>
      <trkpt lat="42.826316" lon="-4.84864">
        <ele>1121.68</ele>
        <time>2021-03-27T20:16:59Z</time>
      </trkpt>
      <trkpt lat="42.82622" lon="-4.848517">
        <ele>1119.97</ele>
        <time>2021-03-27T20:17:02Z</time>
      </trkpt>
      <trkpt lat="42.826058" lon="-4.847794">
        <ele>1117.14</ele>
        <time>2021-03-27T20:17:05Z</time>
      </trkpt>
      <trkpt lat="42.825979" lon="-4.847549">
        <ele>1118.3</ele>
        <time>2021-03-27T20:17:08Z</time>
      </trkpt>
      <trkpt lat="42.826056" lon="-4.847519">
        <ele>1118.13</ele>
        <time>2021-03-27T20:17:12Z</time>
      </trkpt>
      <trkpt lat="42.826219" lon="-4.847384">
        <ele>1118.22</ele>
        <time>2021-03-27T20:17:17Z</time>
      </trkpt>
      <trkpt lat="42.826801" lon="-4.846183">
        <ele>1121.13</ele>
        <time>2021-03-27T20:17:22Z</time>
      </trkpt>
      <trkpt lat="42.826971" lon="-4.845865">
        <ele>1122.69</ele>
        <time>2021-03-27T20:17:26Z</time>
      </trkpt>
      <trkpt lat="42.827069" lon="-4.845612">
        <ele>1122.91</ele>
        <time>2021-03-27T20:17:31Z</time>
      </trkpt>
      <trkpt lat="42.827396" lon="-4.84498">
        <ele>1119.33</ele>
        <time>2021-03-27T20:17:35Z</time>
      </trkpt>
      <trkpt lat="42.827866" lon="-4.843841">
        <ele>1122.17</ele>
        <time>2021-03-27T20:17:40Z</time>
      </trkpt>
      <trkpt lat="42.827938" lon="-4.843681">
        <ele>1122.75</ele>
        <time>2021-03-27T20:17:44Z</time>
      </trkpt>
      <trkpt lat="42.82798" lon="-4.843637">
        <ele>1122.91</ele>
        <time>2021-03-27T20:17:49Z</time>
      </trkpt>
      <trkpt lat="42.828048" lon="-4.843588">
        <ele>1123.16</ele>
        <time>2021-03-27T20:17:54Z</time>
      </trkpt>
      <trkpt lat="42.828105" lon="-4.843574">
        <ele>1123.24</ele>
        <time>2021-03-27T20:17:58Z</time>
      </trkpt>
      <trkpt lat="42.828427" lon="-4.84353">
        <ele>1123.19</ele>
        <time>2021-03-27T20:18:03Z</time>
      </trkpt>
      <trkpt lat="42.828741" lon="-4.843515">
        <ele>1123.0</ele>
        <time>2021-03-27T20:18:07Z</time>
      </trkpt>
      <trkpt lat="42.828889" lon="-4.843458">
        <ele>1123.0</ele>
        <time>2021-03-27T20:18:12Z</time>
      </trkpt>
      <trkpt lat="42.829316" lon="-4.843014">
        <ele>1122.54</ele>
        <time>2021-03-27T20:18:17Z</time>
      </trkpt>
      <trkpt lat="42.829391" lon="-4.842976">
        <ele>1122.81</ele>
        <time>2021-03-27T20:18:21Z</time>
      </trkpt>
      <trkpt lat="42.82954" lon="-4.842942">
        <ele>1123.0</ele>
        <time>2021-03-27T20:18:26Z</time>
      </trkpt>
      <trkpt lat="42.830138" lon="-4.842875">
        <ele>1119.85</ele>
        <time>2021-03-27T20:18:30Z</time>
      </trkpt>
      <trkpt lat="42.830839" lon="-4.84257">
        <ele>1121.25</ele>
        <time>2021-03-27T20:18:35Z</time>
      </trkpt>
      <trkpt lat="42.831506" lon="-4.84186">
        <ele>1123.38</ele>
        <time>2021-03-27T20:18:40Z</time>
      </trkpt>
      <trkpt lat="42.831705" lon="-4.841706">
        <ele>1124.98</ele>
        <time>2021-03-27T20:18:44Z</time>
      </trkpt>
      <trkpt lat="42.832371" lon="-4.841692">
        <ele>1126.14</ele>
        <time>2021-03-27T20:18:49Z</time>
      </trkpt>
      <trkpt lat="42.832807" lon="-4.841582">
        <ele>1130.19</ele>
        <time>2021-03-27T20:18:53Z</time>
      </trkpt>
      <trkpt lat="42.833172" lon="-4.841438">
        <ele>1130.13</ele>
        <time>2021-03-27T20:18:58Z</time>
      </trkpt>
      <trkpt lat="42.833423" lon="-4.841257">
        <ele>1130.2</ele>
        <time>2021-03-27T20:19:03Z</time>
      </trkpt>
      <trkpt lat="42.833675" lon="-4.841154">
        <ele>1131.1</ele>
        <time>2021-03-27T20:19:07Z</time>
      </trkpt>
      <trkpt lat="42.833952" lon="-4.841122">
        <ele>1131.58</ele>
        <time>2021-03-27T20:19:12Z</time>
      </trkpt>
      <trkpt lat="42.834179" lon="-4.841178">
        <ele>1130.09</ele>
        <time>2021-03-27T20:19:16Z</time>
      </trkpt>
      <trkpt lat="42.834384" lon="-4.841343">
        <ele>1129.1</ele>
        <time>2021-03-27T20:19:21Z</time>
      </trkpt>
      <trkpt lat="42.834604" lon="-4.841551">
        <ele>1130.04</ele>
        <time>2021-03-27T20:19:26Z</time>
      </trkpt>
      <trkpt lat="42.834755" lon="-4.841633">
        <ele>1130.25</ele>
        <time>2021-03-27T20:19:30Z</time>
      </trkpt>
      <trkpt lat="42.834936" lon="-4.841655">
        <ele>1129.35</ele>
        <time>2021-03-27T20:19:35Z</time>
      </trkpt>
      <trkpt lat="42.83517" lon="-4.841587">
        <ele>1127.68</ele>
        <time>2021-03-27T20:19:39Z</time>
      </trkpt>
      <trkpt lat="42.835573" lon="-4.841269">
        <ele>1131.78</ele>
        <time>2021-03-27T20:19:44Z</time>
      </trkpt>
      <trkpt lat="42.835724" lon="-4.841174">
        <ele>1133.7</ele>
        <time>2021-03-27T20:19:49Z</time>
      </trkpt>
      <trkpt lat="42.836128" lon="-4.841084">
        <ele>1131.2</ele>
        <time>2021-03-27T20:19:53Z</time>
      </trkpt>
      <trkpt lat="42.836456" lon="-4.841043">
        <ele>1129.81</ele>
        <time>2021-03-27T20:19:58Z</time>
      </trkpt>
      <trkpt lat="42.836637" lon="-4.841089">
        <ele>1129.99</ele>
        <time>2021-03-27T20:20:02Z</time>
      </trkpt>
      <trkpt lat="42.836972" lon="-4.841413">
        <ele>1133.2</ele>
        <time>2021-03-27T20:20:07Z</time>
      </trkpt>
      <trkpt lat="42.837216" lon="-4.8415">
        <ele>1134.96</ele>
        <time>2021-03-27T20:20:12Z</time>
      </trkpt>
      <trkpt lat="42.837498" lon="-4.841489">
        <ele>1133.29</ele>
        <time>2021-03-27T20:20:16Z</time>
      </trkpt>
      <trkpt lat="42.838016" lon="-4.841319">
        <ele>1132.76</ele>
        <time>2021-03-27T20:20:21Z</time>
      </trkpt>
      <trkpt lat="42.839087" lon="-4.841094">
        <ele>1135.32</ele>
        <time>2021-03-27T20:20:25Z</time>
      </trkpt>
      <trkpt lat="42.839874" lon="-4.840888">
        <ele>1135.22</ele>
        <time>2021-03-27T20:20:30Z</time>
      </trkpt>
      <trkpt lat="42.840282" lon="-4.840652">
        <ele>1139.93</ele>
        <time>2021-03-27T20:20:34Z</time>
      </trkpt>
      <trkpt lat="42.84187" lon="-4.839466">
        <ele>1139.47</ele>
        <time>2021-03-27T20:20:39Z</time>
      </trkpt>
      <trkpt lat="42.891263" lon="-4.753759">
        <ele>1223.32</ele>
        <time>2021-03-27T12:39:18Z</time>
      </trkpt>
      <trkpt lat="42.891358" lon="-4.753093">
        <ele>1220.33</ele>
        <time>2021-03-27T12:39:25Z</time>
      </trkpt>
      <trkpt lat="42.891465" lon="-4.750648">
        <ele>1227.0</ele>
        <time>2021-03-27T12:39:31Z</time>
      </trkpt>
      <trkpt lat="42.891625" lon="-4.750126">
        <ele>1227.31</ele>
        <time>2021-03-27T12:39:38Z</time>
      </trkpt>
      <trkpt lat="42.892443" lon="-4.748578">
        <ele>1228.82</ele>
        <time>2021-03-27T12:39:45Z</time>
      </trkpt>
      <trkpt lat="42.893471" lon="-4.746684">
        <ele>1231.0</ele>
        <time>2021-03-27T12:39:52Z</time>
      </trkpt>
      <trkpt lat="42.893711" lon="-4.746294">
        <ele>1230.81</ele>
        <time>2021-03-27T12:39:59Z</time>
      </trkpt>
      <trkpt lat="42.893979" lon="-4.746252">
        <ele>1231.99</ele>
        <time>2021-03-27T12:40:06Z</time>
      </trkpt>
      <trkpt lat="42.894153" lon="-4.746484">
        <ele>1233.91</ele>
        <time>2021-03-27T12:40:08Z</time>
      </trkpt>
      <trkpt lat="42.894688" lon="-4.747373">
        <ele>1234.57</ele>
        <time>2021-03-27T12:40:11Z</time>
      </trkpt>
      <trkpt lat="42.895638" lon="-4.749249">
        <ele>1237.1</ele>
        <time>2021-03-27T12:40:13Z</time>
      </trkpt>
      <trkpt lat="42.895813" lon="-4.749378">
        <ele>1238.84</ele>
        <time>2021-03-27T12:40:16Z</time>
      </trkpt>
      <trkpt lat="42.896057" lon="-4.749327">
        <ele>1241.75</ele>
        <time>2021-03-27T12:40:19Z</time>
      </trkpt>
      <trkpt lat="42.896225" lon="-4.749135">
        <ele>1244.6</ele>
        <time>2021-03-27T12:40:21Z</time>
      </trkpt>
      <trkpt lat="42.896494" lon="-4.748726">
        <ele>1246.14</ele>
        <time>2021-03-27T12:40:24Z</time>
      </trkpt>
      <trkpt lat="42.896632" lon="-4.748477">
        <ele>1246.71</ele>
        <time>2021-03-27T12:40:26Z</time>
      </trkpt>
      <trkpt lat="42.896738" lon="-4.748196">
        <ele>1249.1</ele>
        <time>2021-03-27T12:40:29Z</time>
      </trkpt>
      <trkpt lat="42.896888" lon="-4.747603">
        <ele>1254.99</ele>
        <time>2021-03-27T12:40:32Z</time>
      </trkpt>
      <trkpt lat="42.896943" lon="-4.747305">
        <ele>1257.21</ele>
        <time>2021-03-27T12:40:34Z</time>
      </trkpt>
      <trkpt lat="42.896982" lon="-4.747017">
        <ele>1257.99</ele>
        <time>2021-03-27T12:40:37Z</time>
      </trkpt>
      <trkpt lat="42.897002" lon="-4.746426">
        <ele>1254.05</ele>
        <time>2021-03-27T12:40:40Z</time>
      </trkpt>
      <trkpt lat="42.897034" lon="-4.746142">
        <ele>1254.33</ele>
        <time>2021-03-27T12:40:42Z</time>
      </trkpt>
      <trkpt lat="42.897155" lon="-4.745561">
        <ele>1254.85</ele>
        <time>2021-03-27T12:40:45Z</time>
      </trkpt>
      <trkpt lat="42.897239" lon="-4.745046">
        <ele>1259.68</ele>
        <time>2021-03-27T12:40:47Z</time>
      </trkpt>
      <trkpt lat="42.897236" lon="-4.74476">
        <ele>1262.24</ele>
        <time>2021-03-27T12:40:50Z</time>
      </trkpt>
      <trkpt lat="42.897204" lon="-4.744183">
        <ele>1265.21</ele>
        <time>2021-03-27T12:40:53Z</time>
      </trkpt>
      <trkpt lat="42.897221" lon="-4.743895">
        <ele>1265.96</ele>
        <time>2021-03-27T12:40:55Z</time>
      </trkpt>
      <trkpt lat="42.897437" lon="-4.741913">
        <ele>1277.34</ele>
        <time>2021-03-27T12:40:58Z</time>
      </trkpt>
      <trkpt lat="42.897519" lon="-4.74141">
        <ele>1276.34</ele>
        <time>2021-03-27T12:41:00Z</time>
      </trkpt>
      <trkpt lat="42.897832" lon="-4.740468">
        <ele>1276.7</ele>
        <time>2021-03-27T12:41:03Z</time>
      </trkpt>
      <trkpt lat="42.898075" lon="-4.74005">
        <ele>1274.57</ele>
        <time>2021-03-27T12:41:06Z</time>
      </trkpt>
      <trkpt lat="42.89852" lon="-4.739741">
        <ele>1284.19</ele>
        <time>2021-03-27T12:41:08Z</time>
      </trkpt>
      <trkpt lat="42.898899" lon="-4.7394">
        <ele>1281.41</ele>
        <time>2021-03-27T12:41:11Z</time>
      </trkpt>
      <trkpt lat="42.899158" lon="-4.739056">
        <ele>1282.38</ele>
        <time>2021-03-27T12:41:13Z</time>
      </trkpt>
      <trkpt lat="42.899234" lon="-4.73898">
        <ele>1284.2</ele>
        <time>2021-03-27T12:41:16Z</time>
      </trkpt>
      <trkpt lat="42.899568" lon="-4.73877">
        <ele>1291.9</ele>
        <time>2021-03-27T12:41:19Z</time>
      </trkpt>
      <trkpt lat="42.899696" lon="-4.738645">
        <ele>1293.83</ele>
        <time>2021-03-27T12:41:21Z</time>
      </trkpt>
      <trkpt lat="42.900126" lon="-4.737976">
        <ele>1296.3</ele>
        <time>2021-03-27T12:41:24Z</time>
      </trkpt>
      <trkpt lat="42.900275" lon="-4.737675">
        <ele>1293.85</ele>
        <time>2021-03-27T12:41:26Z</time>
      </trkpt>
      <trkpt lat="42.900373" lon="-4.737483">
        <ele>1297.86</ele>
        <time>2021-03-27T12:41:29Z</time>
      </trkpt>
      <trkpt lat="42.900416" lon="-4.737434">
        <ele>1298.96</ele>
        <time>2021-03-27T12:41:32Z</time>
      </trkpt>
      <trkpt lat="42.900539" lon="-4.737381">
        <ele>1301.32</ele>
        <time>2021-03-27T12:41:34Z</time>
      </trkpt>
      <trkpt lat="42.900652" lon="-4.737366">
        <ele>1303.48</ele>
        <time>2021-03-27T12:41:37Z</time>
      </trkpt>
      <trkpt lat="42.901392" lon="-4.737454">
        <ele>1301.67</ele>
        <time>2021-03-27T12:41:40Z</time>
      </trkpt>
      <trkpt lat="42.901805" lon="-4.73744">
        <ele>1302.15</ele>
        <time>2021-03-27T12:41:42Z</time>
      </trkpt>
      <trkpt lat="42.901973" lon="-4.737399">
        <ele>1302.63</ele>
        <time>2021-03-27T12:41:45Z</time>
      </trkpt>
      <trkpt lat="42.902037" lon="-4.737358">
        <ele>1302.1</ele>
        <time>2021-03-27T12:41:47Z</time>
      </trkpt>
      <trkpt lat="42.902091" lon="-4.737293">
        <ele>1301.11</ele>
        <time>2021-03-27T12:41:50Z</time>
      </trkpt>
      <trkpt lat="42.902167" lon="-4.737157">
        <ele>1299.66</ele>
        <time>2021-03-27T12:41:53Z</time>
      </trkpt>
      <trkpt lat="42.902215" lon="-4.736963">
        <ele>1298.09</ele>
        <time>2021-03-27T12:41:55Z</time>
      </trkpt>
      <trkpt lat="42.902236" lon="-4.736682">
        <ele>1295.45</ele>
        <time>2021-03-27T12:41:58Z</time>
      </trkpt>
      <trkpt lat="42.902256" lon="-4.736585">
        <ele>1294.53</ele>
        <time>2021-03-27T12:42:00Z</time>
      </trkpt>
      <trkpt lat="42.902315" lon="-4.736443">
        <ele>1293.52</ele>
        <time>2021-03-27T12:42:03Z</time>
      </trkpt>
      <trkpt lat="42.902399" lon="-4.736343">
        <ele>1293.66</ele>
        <time>2021-03-27T12:42:06Z</time>
      </trkpt>
      <trkpt lat="42.902504" lon="-4.736284">
        <ele>1294.16</ele>
        <time>2021-03-27T12:42:08Z</time>
      </trkpt>
      <trkpt lat="42.902705" lon="-4.736215">
        <ele>1294.63</ele>
        <time>2021-03-27T12:42:11Z</time>
      </trkpt>
      <trkpt lat="42.903296" lon="-4.736113">
        <ele>1298.66</ele>
        <time>2021-03-27T12:42:13Z</time>
      </trkpt>
      <trkpt lat="42.903502" lon="-4.736116">
        <ele>1300.39</ele>
        <time>2021-03-27T12:42:16Z</time>
      </trkpt>
      <trkpt lat="42.903859" lon="-4.736167">
        <ele>1302.83</ele>
        <time>2021-03-27T12:42:19Z</time>
      </trkpt>
      <trkpt lat="42.904379" lon="-4.736112">
        <ele>1296.72</ele>
        <time>2021-03-27T12:42:21Z</time>
      </trkpt>
      <trkpt lat="42.904669" lon="-4.736165">
        <ele>1297.19</ele>
        <time>2021-03-27T12:42:24Z</time>
      </trkpt>
      <trkpt lat="42.904801" lon="-4.736226">
        <ele>1296.56</ele>
        <time>2021-03-27T12:42:27Z</time>
      </trkpt>
      <trkpt lat="42.904885" lon="-4.73629">
        <ele>1296.33</ele>
        <time>2021-03-27T12:42:29Z</time>
      </trkpt>
      <trkpt lat="42.905041" lon="-4.73646">
        <ele>1299.43</ele>
        <time>2021-03-27T12:42:32Z</time>
      </trkpt>
      <trkpt lat="42.905324" lon="-4.736815">
        <ele>1305.05</ele>
        <time>2021-03-27T12:42:34Z</time>
      </trkpt>
      <trkpt lat="42.905876" lon="-4.737692">
        <ele>1307.14</ele>
        <time>2021-03-27T12:42:37Z</time>
      </trkpt>
      <trkpt lat="42.906385" lon="-4.738326">
        <ele>1306.96</ele>
        <time>2021-03-27T12:42:40Z</time>
      </trkpt>
      <trkpt lat="42.906552" lon="-4.738586">
        <ele>1305.6</ele>
        <time>2021-03-27T12:42:42Z</time>
      </trkpt>
      <trkpt lat="42.906783" lon="-4.739177">
        <ele>1301.38</ele>
        <time>2021-03-27T12:42:45Z</time>
      </trkpt>
      <trkpt lat="42.907115" lon="-4.739845">
        <ele>1300.22</ele>
        <time>2021-03-27T12:42:47Z</time>
      </trkpt>
      <trkpt lat="42.907327" lon="-4.740519">
        <ele>1301.98</ele>
        <time>2021-03-27T12:42:50Z</time>
      </trkpt>
      <trkpt lat="42.907417" lon="-4.740746">
        <ele>1300.26</ele>
        <time>2021-03-27T12:42:53Z</time>
      </trkpt>
      <trkpt lat="42.907758" lon="-4.741448">
        <ele>1302.41</ele>
        <time>2021-03-27T12:42:55Z</time>
      </trkpt>
      <trkpt lat="42.907913" lon="-4.741639">
        <ele>1303.34</ele>
        <time>2021-03-27T12:42:58Z</time>
      </trkpt>
      <trkpt lat="42.908704" lon="-4.74232">
        <ele>1297.0</ele>
        <time>2021-03-27T12:43:00Z</time>
      </trkpt>
      <trkpt lat="42.908849" lon="-4.742468">
        <ele>1294.88</ele>
        <time>2021-03-27T12:43:03Z</time>
      </trkpt>
      <trkpt lat="42.908971" lon="-4.742638">
        <ele>1294.52</ele>
        <time>2021-03-27T12:43:06Z</time>
      </trkpt>
      <trkpt lat="42.909077" lon="-4.742835">
        <ele>1295.26</ele>
        <time>2021-03-27T12:43:08Z</time>
      </trkpt>
      <trkpt lat="42.909233" lon="-4.743259">
        <ele>1299.27</ele>
        <time>2021-03-27T12:43:11Z</time>
      </trkpt>
      <trkpt lat="42.909307" lon="-4.743616">
        <ele>1299.92</ele>
        <time>2021-03-27T12:43:14Z</time>
      </trkpt>
      <trkpt lat="42.909304" lon="-4.743943">
        <ele>1299.17</ele>
        <time>2021-03-27T12:43:16Z</time>
      </trkpt>
      <trkpt lat="42.909221" lon="-4.744245">
        <ele>1302.57</ele>
        <time>2021-03-27T12:43:19Z</time>
      </trkpt>
      <trkpt lat="42.909181" lon="-4.744523">
        <ele>1304.74</ele>
        <time>2021-03-27T12:43:21Z</time>
      </trkpt>
      <trkpt lat="42.909191" lon="-4.74482">
        <ele>1303.18</ele>
        <time>2021-03-27T12:43:24Z</time>
      </trkpt>
      <trkpt lat="42.909175" lon="-4.745108">
        <ele>1303.51</ele>
        <time>2021-03-27T12:43:27Z</time>
      </trkpt>
      <trkpt lat="42.909065" lon="-4.745453">
        <ele>1307.61</ele>
        <time>2021-03-27T12:43:29Z</time>
      </trkpt>
      <trkpt lat="42.909034" lon="-4.745846">
        <ele>1307.57</ele>
        <time>2021-03-27T12:43:32Z</time>
      </trkpt>
      <trkpt lat="42.909084" lon="-4.746191">
        <ele>1304.3</ele>
        <time>2021-03-27T12:43:34Z</time>
      </trkpt>
      <trkpt lat="42.909071" lon="-4.746533">
        <ele>1301.72</ele>
        <time>2021-03-27T12:43:37Z</time>
      </trkpt>
      <trkpt lat="42.908963" lon="-4.747535">
        <ele>1306.08</ele>
        <time>2021-03-27T12:43:40Z</time>
      </trkpt>
      <trkpt lat="42.909066" lon="-4.748061">
        <ele>1304.19</ele>
        <time>2021-03-27T12:43:42Z</time>
      </trkpt>
      <trkpt lat="42.909284" lon="-4.748426">
        <ele>1304.53</ele>
        <time>2021-03-27T12:43:45Z</time>
      </trkpt>
      <trkpt lat="42.909784" lon="-4.748837">
        <ele>1297.78</ele>
        <time>2021-03-27T12:43:47Z</time>
      </trkpt>
      <trkpt lat="42.910012" lon="-4.749344">
        <ele>1295.7</ele>
        <time>2021-03-27T12:43:50Z</time>
      </trkpt>
      <trkpt lat="42.910143" lon="-4.750196">
        <ele>1301.41</ele>
        <time>2021-03-27T12:43:53Z</time>
      </trkpt>
      <trkpt lat="42.910194" lon="-4.75094">
        <ele>1307.34</ele>
        <time>2021-03-27T12:43:55Z</time>
      </trkpt>
      <trkpt lat="42.910405" lon="-4.75138">
        <ele>1303.95</ele>
        <time>2021-03-27T12:43:58Z</time>
      </trkpt>
      <trkpt lat="42.910656" lon="-4.751742">
        <ele>1299.64</ele>
        <time>2021-03-27T12:44:00Z</time>
      </trkpt>
      <trkpt lat="42.9109" lon="-4.75223">
        <ele>1296.86</ele>
        <time>2021-03-27T12:44:03Z</time>
      </trkpt>
      <trkpt lat="42.910966" lon="-4.752549">
        <ele>1295.41</ele>
        <time>2021-03-27T12:44:06Z</time>
      </trkpt>
      <trkpt lat="42.910951" lon="-4.753544">
        <ele>1305.18</ele>
        <time>2021-03-27T12:44:08Z</time>
      </trkpt>
      <trkpt lat="42.911208" lon="-4.754686">
        <ele>1307.08</ele>
        <time>2021-03-27T12:44:11Z</time>
      </trkpt>
      <trkpt lat="42.911246" lon="-4.75534">
        <ele>1304.95</ele>
        <time>2021-03-27T12:44:14Z</time>
      </trkpt>
      <trkpt lat="42.911907" lon="-4.75729">
        <ele>1303.8</ele>
        <time>2021-03-27T12:44:16Z</time>
      </trkpt>
      <trkpt lat="42.91369" lon="-4.759407">
        <ele>1304.36</ele>
        <time>2021-03-27T12:44:19Z</time>
      </trkpt>
      <trkpt lat="42.914665" lon="-4.759894">
        <ele>1302.49</ele>
        <time>2021-03-27T12:44:21Z</time>
      </trkpt>
      <trkpt lat="42.915146" lon="-4.760414">
        <ele>1299.86</ele>
        <time>2021-03-27T12:44:24Z</time>
      </trkpt>
      <trkpt lat="42.915672" lon="-4.76058">
        <ele>1303.2</ele>
        <time>2021-03-27T12:44:27Z</time>
      </trkpt>
      <trkpt lat="42.91666" lon="-4.760734">
        <ele>1303.92</ele>
        <time>2021-03-27T12:44:29Z</time>
      </trkpt>
      <trkpt lat="42.917019" lon="-4.76067">
        <ele>1305.82</ele>
        <time>2021-03-27T12:44:32Z</time>
      </trkpt>
      <trkpt lat="42.917384" lon="-4.760491">
        <ele>1305.64</ele>
        <time>2021-03-27T12:44:34Z</time>
      </trkpt>
      <trkpt lat="42.917771" lon="-4.76053">
        <ele>1305.56</ele>
        <time>2021-03-27T12:44:37Z</time>
      </trkpt>
      <trkpt lat="42.918167" lon="-4.760953">
        <ele>1304.94</ele>
        <time>2021-03-27T12:44:40Z</time>
      </trkpt>
      <trkpt lat="42.918808" lon="-4.76212">
        <ele>1302.48</ele>
        <time>2021-03-27T12:44:42Z</time>
      </trkpt>
      <trkpt lat="42.919039" lon="-4.762671">
        <ele>1306.87</ele>
        <time>2021-03-27T12:44:45Z</time>
      </trkpt>
      <trkpt lat="42.919122" lon="-4.763216">
        <ele>1307.24</ele>
        <time>2021-03-27T12:44:47Z</time>
      </trkpt>
      <trkpt lat="42.919366" lon="-4.763396">
        <ele>1302.22</ele>
        <time>2021-03-27T12:44:50Z</time>
      </trkpt>
      <trkpt lat="42.9197" lon="-4.763383">
        <ele>1306.69</ele>
        <time>2021-03-27T12:44:53Z</time>
      </trkpt>
      <trkpt lat="42.920219" lon="-4.762986">
        <ele>1304.1</ele>
        <time>2021-03-27T12:44:55Z</time>
      </trkpt>
      <trkpt lat="42.920604" lon="-4.762806">
        <ele>1302.93</ele>
        <time>2021-03-27T12:44:58Z</time>
      </trkpt>
      <trkpt lat="42.920925" lon="-4.762588">
        <ele>1305.28</ele>
        <time>2021-03-27T12:45:01Z</time>
      </trkpt>
      <trkpt lat="42.921181" lon="-4.762036">
        <ele>1304.93</ele>
        <time>2021-03-27T12:45:03Z</time>
      </trkpt>
      <trkpt lat="42.921297" lon="-4.761369">
        <ele>1305.02</ele>
        <time>2021-03-27T12:45:06Z</time>
      </trkpt>
      <trkpt lat="42.921425" lon="-4.760375">
        <ele>1299.76</ele>
        <time>2021-03-27T12:45:08Z</time>
      </trkpt>
      <trkpt lat="42.921656" lon="-4.760054">
        <ele>1295.59</ele>
        <time>2021-03-27T12:45:11Z</time>
      </trkpt>
      <trkpt lat="42.922746" lon="-4.759631">
        <ele>1298.73</ele>
        <time>2021-03-27T12:45:14Z</time>
      </trkpt>
      <trkpt lat="42.923144" lon="-4.75958">
        <ele>1300.74</ele>
        <time>2021-03-27T12:45:16Z</time>
      </trkpt>
      <trkpt lat="42.92621" lon="-4.759644">
        <ele>1299.55</ele>
        <time>2021-03-27T12:45:19Z</time>
      </trkpt>
      <trkpt lat="42.929192" lon="-4.759939">
        <ele>1304.6</ele>
        <time>2021-03-27T12:45:21Z</time>
      </trkpt>
      <trkpt lat="42.929487" lon="-4.75976">
        <ele>1305.24</ele>
        <time>2021-03-27T12:45:24Z</time>
      </trkpt>
      <trkpt lat="42.929569" lon="-4.759546">
        <ele>1303.67</ele>
        <time>2021-03-27T12:45:27Z</time>
      </trkpt>
      <trkpt lat="42.929708" lon="-4.759099">
        <ele>1299.74</ele>
        <time>2021-03-27T12:45:29Z</time>
      </trkpt>
      <trkpt lat="42.929763" lon="-4.758776">
        <ele>1298.98</ele>
        <time>2021-03-27T12:45:32Z</time>
      </trkpt>
      <trkpt lat="42.929757" lon="-4.758614">
        <ele>1298.63</ele>
        <time>2021-03-27T12:45:34Z</time>
      </trkpt>
      <trkpt lat="42.929718" lon="-4.758522">
        <ele>1298.61</ele>
        <time>2021-03-27T12:45:37Z</time>
      </trkpt>
      <trkpt lat="42.929577" lon="-4.758284">
        <ele>1298.95</ele>
        <time>2021-03-27T12:45:40Z</time>
      </trkpt>
      <trkpt lat="42.928512" lon="-4.757078">
        <ele>1297.67</ele>
        <time>2021-03-27T12:45:42Z</time>
      </trkpt>
      <trkpt lat="42.928127" lon="-4.756796">
        <ele>1297.7</ele>
        <time>2021-03-27T12:45:45Z</time>
      </trkpt>
      <trkpt lat="42.926453" lon="-4.756322">
        <ele>1296.2</ele>
        <time>2021-03-27T12:45:47Z</time>
      </trkpt>
      <trkpt lat="42.925248" lon="-4.755655">
        <ele>1297.39</ele>
        <time>2021-03-27T12:45:50Z</time>
      </trkpt>
      <trkpt lat="42.924768" lon="-4.755457">
        <ele>1295.56</ele>
        <time>2021-03-27T12:45:53Z</time>
      </trkpt>
      <trkpt lat="42.924347" lon="-4.755416">
        <ele>1300.19</ele>
        <time>2021-03-27T12:45:55Z</time>
      </trkpt>
      <trkpt lat="42.922428" lon="-4.755652">
        <ele>1294.57</ele>
        <time>2021-03-27T12:45:58Z</time>
      </trkpt>
      <trkpt lat="42.922197" lon="-4.755652">
        <ele>1292.52</ele>
        <time>2021-03-27T12:46:01Z</time>
      </trkpt>
      <trkpt lat="42.921918" lon="-4.755547">
        <ele>1293.11</ele>
        <time>2021-03-27T12:46:03Z</time>
      </trkpt>
      <trkpt lat="42.920954" lon="-4.754772">
        <ele>1296.92</ele>
        <time>2021-03-27T12:46:06Z</time>
      </trkpt>
      <trkpt lat="42.920807" lon="-4.754536">
        <ele>1298.67</ele>
        <time>2021-03-27T12:46:08Z</time>
      </trkpt>
      <trkpt lat="42.920581" lon="-4.753979">
        <ele>1303.03</ele>
        <time>2021-03-27T12:46:11Z</time>
      </trkpt>
      <trkpt lat="42.920174" lon="-4.753526">
        <ele>1301.32</ele>
        <time>2021-03-27T12:46:14Z</time>
      </trkpt>
      <trkpt lat="42.920074" lon="-4.753288">
        <ele>1301.51</ele>
        <time>2021-03-27T12:46:16Z</time>
      </trkpt>
      <trkpt lat="42.919953" lon="-4.752463">
        <ele>1304.68</ele>
        <time>2021-03-27T12:46:19Z</time>
      </trkpt>
      <trkpt lat="42.91974" lon="-4.752055">
        <ele>1305.1</ele>
        <time>2021-03-27T12:46:21Z</time>
      </trkpt>
      <trkpt lat="42.919098" lon="-4.751562">
        <ele>1297.03</ele>
        <time>2021-03-27T12:46:24Z</time>
      </trkpt>
      <trkpt lat="42.91877" lon="-4.75127">
        <ele>1299.39</ele>
        <time>2021-03-27T12:46:27Z</time>
      </trkpt>
      <trkpt lat="42.917731" lon="-4.749578">
        <ele>1303.1</ele>
        <time>2021-03-27T12:46:29Z</time>
      </trkpt>
      <trkpt lat="42.91617" lon="-4.748018">
        <ele>1293.01</ele>
        <time>2021-03-27T12:46:32Z</time>
      </trkpt>
      <trkpt lat="42.915558" lon="-4.747151">
        <ele>1292.96</ele>
        <time>2021-03-27T12:46:34Z</time>
      </trkpt>
      <trkpt lat="42.91472" lon="-4.746134">
        <ele>1301.58</ele>
        <time>2021-03-27T12:46:37Z</time>
      </trkpt>
      <trkpt lat="42.914526" lon="-4.745749">
        <ele>1305.54</ele>
        <time>2021-03-27T12:46:40Z</time>
      </trkpt>
      <trkpt lat="42.914441" lon="-4.74535">
        <ele>1304.63</ele>
        <time>2021-03-27T12:46:42Z</time>
      </trkpt>
      <trkpt lat="42.914468" lon="-4.744849">
        <ele>1304.09</ele>
        <time>2021-03-27T12:46:45Z</time>
      </trkpt>
      <trkpt lat="42.914605" lon="-4.743927">
        <ele>1293.53</ele>
        <time>2021-03-27T12:46:48Z</time>
      </trkpt>
      <trkpt lat="42.914706" lon="-4.743799">
        <ele>1291.35</ele>
        <time>2021-03-27T12:46:50Z</time>
      </trkpt>
      <trkpt lat="42.914855" lon="-4.743681">
        <ele>1290.11</ele>
        <time>2021-03-27T12:46:53Z</time>
      </trkpt>
      <trkpt lat="42.915056" lon="-4.743665">
        <ele>1291.72</ele>
        <time>2021-03-27T12:46:55Z</time>
      </trkpt>
      <trkpt lat="42.915387" lon="-4.743733">
        <ele>1303.44</ele>
        <time>2021-03-27T12:46:58Z</time>
      </trkpt>
      <trkpt lat="42.915676" lon="-4.743654">
        <ele>1308.52</ele>
        <time>2021-03-27T12:47:01Z</time>
      </trkpt>
      <trkpt lat="42.915903" lon="-4.743348">
        <ele>1301.51</ele>
        <time>2021-03-27T12:47:03Z</time>
      </trkpt>
      <trkpt lat="42.915916" lon="-4.743112">
        <ele>1297.41</ele>
        <time>2021-03-27T12:47:06Z</time>
      </trkpt>
      <trkpt lat="42.915897" lon="-4.742876">
        <ele>1295.19</ele>
        <time>2021-03-27T12:47:08Z</time>
      </trkpt>
      <trkpt lat="42.915788" lon="-4.742658">
        <ele>1294.3</ele>
        <time>2021-03-27T12:47:11Z</time>
      </trkpt>
      <trkpt lat="42.9156" lon="-4.74246">
        <ele>1296.47</ele>
        <time>2021-03-27T12:47:14Z</time>
      </trkpt>
      <trkpt lat="42.915382" lon="-4.742455">
        <ele>1300.77</ele>
        <time>2021-03-27T12:47:16Z</time>
      </trkpt>
      <trkpt lat="42.914603" lon="-4.742576">
        <ele>1300.16</ele>
        <time>2021-03-27T12:47:19Z</time>
      </trkpt>
      <trkpt lat="42.914419" lon="-4.742626">
        <ele>1298.92</ele>
        <time>2021-03-27T12:47:21Z</time>
      </trkpt>
      <trkpt lat="42.91424" lon="-4.742721">
        <ele>1299.16</ele>
        <time>2021-03-27T12:47:24Z</time>
      </trkpt>
      <trkpt lat="42.914063" lon="-4.742844">
        <ele>1298.58</ele>
        <time>2021-03-27T12:47:27Z</time>
      </trkpt>
      <trkpt lat="42.913865" lon="-4.74294">
        <ele>1299.31</ele>
        <time>2021-03-27T12:47:29Z</time>
      </trkpt>
      <trkpt lat="42.913643" lon="-4.742967">
        <ele>1299.2</ele>
        <time>2021-03-27T12:47:32Z</time>
      </trkpt>
      <trkpt lat="42.912766" lon="-4.742779">
        <ele>1294.93</ele>
        <time>2021-03-27T12:47:35Z</time>
      </trkpt>
      <trkpt lat="42.912592" lon="-4.742686">
        <ele>1295.76</ele>
        <time>2021-03-27T12:47:37Z</time>
      </trkpt>
      <trkpt lat="42.912479" lon="-4.742501">
        <ele>1296.54</ele>
        <time>2021-03-27T12:47:40Z</time>
      </trkpt>
      <trkpt lat="42.912403" lon="-4.742247">
        <ele>1297.0</ele>
        <time>2021-03-27T12:47:42Z</time>
      </trkpt>
      <trkpt lat="42.912339" lon="-4.741947">
        <ele>1297.6</ele>
        <time>2021-03-27T12:47:45Z</time>
      </trkpt>
      <trkpt lat="42.911704" lon="-4.738279">
        <ele>1321.66</ele>
        <time>2021-03-27T12:47:48Z</time>
      </trkpt>
      <trkpt lat="42.911613" lon="-4.737974">
        <ele>1322.81</ele>
        <time>2021-03-27T12:47:50Z</time>
      </trkpt>
      <trkpt lat="42.911469" lon="-4.737729">
        <ele>1322.23</ele>
        <time>2021-03-27T12:47:53Z</time>
      </trkpt>
      <trkpt lat="42.911274" lon="-4.737561">
        <ele>1321.11</ele>
        <time>2021-03-27T12:47:55Z</time>
      </trkpt>
      <trkpt lat="42.911092" lon="-4.737368">
        <ele>1320.4</ele>
        <time>2021-03-27T12:47:58Z</time>
      </trkpt>
      <trkpt lat="42.910943" lon="-4.737112">
        <ele>1322.91</ele>
        <time>2021-03-27T12:48:01Z</time>
      </trkpt>
      <trkpt lat="42.910822" lon="-4.73681">
        <ele>1325.91</ele>
        <time>2021-03-27T12:48:03Z</time>
      </trkpt>
      <trkpt lat="42.910725" lon="-4.736504">
        <ele>1325.46</ele>
        <time>2021-03-27T12:48:06Z</time>
      </trkpt>
      <trkpt lat="42.910671" lon="-4.736189">
        <ele>1326.82</ele>
        <time>2021-03-27T12:48:08Z</time>
      </trkpt>
      <trkpt lat="42.910688" lon="-4.735875">
        <ele>1331.71</ele>
        <time>2021-03-27T12:48:11Z</time>
      </trkpt>
      <trkpt lat="42.910738" lon="-4.735579">
        <ele>1337.29</ele>
        <time>2021-03-27T12:48:14Z</time>
      </trkpt>
      <trkpt lat="42.91074" lon="-4.735274">
        <ele>1341.33</ele>
        <time>2021-03-27T12:48:16Z</time>
      </trkpt>
      <trkpt lat="42.910659" lon="-4.73498">
        <ele>1339.98</ele>
        <time>2021-03-27T12:48:19Z</time>
      </trkpt>
      <trkpt lat="42.909851" lon="-4.733436">
        <ele>1338.03</ele>
        <time>2021-03-27T12:48:21Z</time>
      </trkpt>
      <trkpt lat="42.909392" lon="-4.732609">
        <ele>1341.12</ele>
        <time>2021-03-27T12:48:24Z</time>
      </trkpt>
      <trkpt lat="42.9093" lon="-4.732364">
        <ele>1339.59</ele>
        <time>2021-03-27T12:48:27Z</time>
      </trkpt>
      <trkpt lat="42.909298" lon="-4.732096">
        <ele>1340.08</ele>
        <time>2021-03-27T12:48:29Z</time>
      </trkpt>
      <trkpt lat="42.909368" lon="-4.731832">
        <ele>1341.73</ele>
        <time>2021-03-27T12:48:32Z</time>
      </trkpt>
      <trkpt lat="42.909707" lon="-4.73102">
        <ele>1342.43</ele>
        <time>2021-03-27T12:48:35Z</time>
      </trkpt>
      <trkpt lat="42.909907" lon="-4.730417">
        <ele>1344.17</ele>
        <time>2021-03-27T12:48:37Z</time>
      </trkpt>
      <trkpt lat="42.909938" lon="-4.730104">
        <ele>1344.69</ele>
        <time>2021-03-27T12:48:40Z</time>
      </trkpt>
      <trkpt lat="42.909906" lon="-4.729803">
        <ele>1344.9</ele>
        <time>2021-03-27T12:48:42Z</time>
      </trkpt>
      <trkpt lat="42.909744" lon="-4.729203">
        <ele>1346.09</ele>
        <time>2021-03-27T12:48:45Z</time>
      </trkpt>
      <trkpt lat="42.908967" lon="-4.72695">
        <ele>1346.73</ele>
        <time>2021-03-27T12:48:48Z</time>
      </trkpt>
      <trkpt lat="42.908824" lon="-4.726485">
        <ele>1350.05</ele>
        <time>2021-03-27T12:48:50Z</time>
      </trkpt>
      <trkpt lat="42.908799" lon="-4.726335">
        <ele>1351.2</ele>
        <time>2021-03-27T12:48:53Z</time>
      </trkpt>
      <trkpt lat="42.908796" lon="-4.726159">
        <ele>1352.11</ele>
        <time>2021-03-27T12:48:55Z</time>
      </trkpt>
      <trkpt lat="42.908811" lon="-4.726054">
        <ele>1352.06</ele>
        <time>2021-03-27T12:48:58Z</time>
      </trkpt>
      <trkpt lat="42.908889" lon="-4.725872">
        <ele>1351.0</ele>
        <time>2021-03-27T12:49:01Z</time>
      </trkpt>
      <trkpt lat="42.90895" lon="-4.725785">
        <ele>1350.17</ele>
        <time>2021-03-27T12:49:03Z</time>
      </trkpt>
      <trkpt lat="42.90911" lon="-4.725658">
        <ele>1347.64</ele>
        <time>2021-03-27T12:49:06Z</time>
      </trkpt>
      <trkpt lat="42.909211" lon="-4.725625">
        <ele>1346.99</ele>
        <time>2021-03-27T12:49:08Z</time>
      </trkpt>
      <trkpt lat="42.909357" lon="-4.725613">
        <ele>1347.71</ele>
        <time>2021-03-27T12:49:11Z</time>
      </trkpt>
      <trkpt lat="42.910937" lon="-4.725805">
        <ele>1338.15</ele>
        <time>2021-03-27T12:49:14Z</time>
      </trkpt>
      <trkpt lat="42.911386" lon="-4.72583">
        <ele>1335.96</ele>
        <time>2021-03-27T12:49:16Z</time>
      </trkpt>
      <trkpt lat="42.911605" lon="-4.725795">
        <ele>1333.92</ele>
        <time>2021-03-27T12:49:19Z</time>
      </trkpt>
      <trkpt lat="42.911741" lon="-4.725748">
        <ele>1332.95</ele>
        <time>2021-03-27T12:49:22Z</time>
      </trkpt>
      <trkpt lat="42.911997" lon="-4.725607">
        <ele>1331.16</ele>
        <time>2021-03-27T12:49:24Z</time>
      </trkpt>
      <trkpt lat="42.912417" lon="-4.725212">
        <ele>1328.92</ele>
        <time>2021-03-27T12:49:27Z</time>
      </trkpt>
      <trkpt lat="42.912599" lon="-4.725166">
        <ele>1327.02</ele>
        <time>2021-03-27T12:49:29Z</time>
      </trkpt>
      <trkpt lat="42.912707" lon="-4.725196">
        <ele>1325.39</ele>
        <time>2021-03-27T12:49:32Z</time>
      </trkpt>
      <trkpt lat="42.912844" lon="-4.725273">
        <ele>1322.08</ele>
        <time>2021-03-27T12:49:35Z</time>
      </trkpt>
      <trkpt lat="42.912955" lon="-4.725469">
        <ele>1320.35</ele>
        <time>2021-03-27T12:49:37Z</time>
      </trkpt>
      <trkpt lat="42.91301" lon="-4.725632">
        <ele>1321.54</ele>
        <time>2021-03-27T12:49:40Z</time>
      </trkpt>
      <trkpt lat="42.913099" lon="-4.726074">
        <ele>1332.51</ele>
        <time>2021-03-27T12:49:42Z</time>
      </trkpt>
      <trkpt lat="42.913172" lon="-4.726604">
        <ele>1328.03</ele>
        <time>2021-03-27T12:49:45Z</time>
      </trkpt>
      <trkpt lat="42.913242" lon="-4.726967">
        <ele>1324.98</ele>
        <time>2021-03-27T12:49:48Z</time>
      </trkpt>
      <trkpt lat="42.913389" lon="-4.727216">
        <ele>1317.59</ele>
        <time>2021-03-27T12:49:50Z</time>
      </trkpt>
      <trkpt lat="42.913596" lon="-4.727341">
        <ele>1312.43</ele>
        <time>2021-03-27T12:49:53Z</time>
      </trkpt>
      <trkpt lat="42.913828" lon="-4.727335">
        <ele>1310.29</ele>
        <time>2021-03-27T12:49:55Z</time>
      </trkpt>
      <trkpt lat="42.914036" lon="-4.727139">
        <ele>1310.96</ele>
        <time>2021-03-27T12:49:58Z</time>
      </trkpt>
      <trkpt lat="42.914125" lon="-4.726922">
        <ele>1311.46</ele>
        <time>2021-03-27T12:50:01Z</time>
      </trkpt>
      <trkpt lat="42.914302" lon="-4.72584">
        <ele>1306.0</ele>
        <time>2021-03-27T12:50:03Z</time>
      </trkpt>
      <trkpt lat="42.91442" lon="-4.724982">
        <ele>1303.36</ele>
        <time>2021-03-27T12:50:06Z</time>
      </trkpt>
      <trkpt lat="42.914418" lon="-4.724706">
        <ele>1300.47</ele>
        <time>2021-03-27T12:50:08Z</time>
      </trkpt>
      <trkpt lat="42.914354" lon="-4.724446">
        <ele>1298.7</ele>
        <time>2021-03-27T12:50:11Z</time>
      </trkpt>
      <trkpt lat="42.914104" lon="-4.723667">
        <ele>1297.67</ele>
        <time>2021-03-27T12:50:14Z</time>
      </trkpt>
      <trkpt lat="42.914031" lon="-4.723305">
        <ele>1297.07</ele>
        <time>2021-03-27T12:50:16Z</time>
      </trkpt>
      <trkpt lat="42.914017" lon="-4.722999">
        <ele>1296.78</ele>
        <time>2021-03-27T12:50:19Z</time>
      </trkpt>
      <trkpt lat="42.91405" lon="-4.722719">
        <ele>1297.2</ele>
        <time>2021-03-27T12:50:22Z</time>
      </trkpt>
      <trkpt lat="42.914157" lon="-4.722498">
        <ele>1297.88</ele>
        <time>2021-03-27T12:50:24Z</time>
      </trkpt>
      <trkpt lat="42.914526" lon="-4.722095">
        <ele>1294.09</ele>
        <time>2021-03-27T12:50:27Z</time>
      </trkpt>
      <trkpt lat="42.914608" lon="-4.721744">
        <ele>1294.26</ele>
        <time>2021-03-27T12:50:29Z</time>
      </trkpt>
      <trkpt lat="42.914547" lon="-4.721389">
        <ele>1298.73</ele>
        <time>2021-03-27T12:50:32Z</time>
      </trkpt>
      <trkpt lat="42.914408" lon="-4.721234">
        <ele>1301.7</ele>
        <time>2021-03-27T12:50:35Z</time>
      </trkpt>
      <trkpt lat="42.914226" lon="-4.721147">
        <ele>1302.62</ele>
        <time>2021-03-27T12:50:37Z</time>
      </trkpt>
      <trkpt lat="42.914022" lon="-4.721116">
        <ele>1299.77</ele>
        <time>2021-03-27T12:50:40Z</time>
      </trkpt>
      <trkpt lat="42.913815" lon="-4.721055">
        <ele>1296.9</ele>
        <time>2021-03-27T12:50:42Z</time>
      </trkpt>
      <trkpt lat="42.913626" lon="-4.720954">
        <ele>1294.93</ele>
        <time>2021-03-27T12:50:45Z</time>
      </trkpt>
      <trkpt lat="42.913462" lon="-4.720808">
        <ele>1293.27</ele>
        <time>2021-03-27T12:50:48Z</time>
      </trkpt>
      <trkpt lat="42.913333" lon="-4.720625">
        <ele>1293.24</ele>
        <time>2021-03-27T12:50:50Z</time>
      </trkpt>
      <trkpt lat="42.913226" lon="-4.720417">
        <ele>1295.37</ele>
        <time>2021-03-27T12:50:53Z</time>
      </trkpt>
      <trkpt lat="42.913141" lon="-4.720099">
        <ele>1297.28</ele>
        <time>2021-03-27T12:50:55Z</time>
      </trkpt>
      <trkpt lat="42.913083" lon="-4.719481">
        <ele>1300.64</ele>
        <time>2021-03-27T12:50:58Z</time>
      </trkpt>
      <trkpt lat="42.912957" lon="-4.719213">
        <ele>1300.43</ele>
        <time>2021-03-27T12:51:01Z</time>
      </trkpt>
      <trkpt lat="42.912751" lon="-4.719055">
        <ele>1298.19</ele>
        <time>2021-03-27T12:51:03Z</time>
      </trkpt>
      <trkpt lat="42.912506" lon="-4.719086">
        <ele>1297.46</ele>
        <time>2021-03-27T12:51:06Z</time>
      </trkpt>
      <trkpt lat="42.912343" lon="-4.7192">
        <ele>1297.9</ele>
        <time>2021-03-27T12:51:09Z</time>
      </trkpt>
      <trkpt lat="42.91184" lon="-4.719741">
        <ele>1296.96</ele>
        <time>2021-03-27T12:51:11Z</time>
      </trkpt>
      <trkpt lat="42.911643" lon="-4.719917">
        <ele>1295.02</ele>
        <time>2021-03-27T12:51:14Z</time>
      </trkpt>
      <trkpt lat="42.911436" lon="-4.720046">
        <ele>1297.18</ele>
        <time>2021-03-27T12:51:16Z</time>
      </trkpt>
      <trkpt lat="42.910772" lon="-4.720362">
        <ele>1299.68</ele>
        <time>2021-03-27T12:51:19Z</time>
      </trkpt>
      <trkpt lat="42.910567" lon="-4.720402">
        <ele>1296.53</ele>
        <time>2021-03-27T12:51:22Z</time>
      </trkpt>
      <trkpt lat="42.910356" lon="-4.720368">
        <ele>1294.97</ele>
        <time>2021-03-27T12:51:24Z</time>
      </trkpt>
      <trkpt lat="42.910155" lon="-4.720277">
        <ele>1294.13</ele>
        <time>2021-03-27T12:51:27Z</time>
      </trkpt>
      <trkpt lat="42.909981" lon="-4.720126">
        <ele>1295.13</ele>
        <time>2021-03-27T12:51:29Z</time>
      </trkpt>
      <trkpt lat="42.909659" lon="-4.719776">
        <ele>1302.88</ele>
        <time>2021-03-27T12:51:32Z</time>
      </trkpt>
      <trkpt lat="42.909478" lon="-4.719685">
        <ele>1304.28</ele>
        <time>2021-03-27T12:51:35Z</time>
      </trkpt>
      <trkpt lat="42.909244" lon="-4.719767">
        <ele>1304.03</ele>
        <time>2021-03-27T12:51:37Z</time>
      </trkpt>
      <trkpt lat="42.909074" lon="-4.720022">
        <ele>1301.89</ele>
        <time>2021-03-27T12:51:40Z</time>
      </trkpt>
      <trkpt lat="42.908925" lon="-4.720158">
        <ele>1301.56</ele>
        <time>2021-03-27T12:51:42Z</time>
      </trkpt>
      <trkpt lat="42.908742" lon="-4.720216">
        <ele>1303.4</ele>
        <time>2021-03-27T12:51:45Z</time>
      </trkpt>
      <trkpt lat="42.90834" lon="-4.720221">
        <ele>1304.43</ele>
        <time>2021-03-27T12:51:48Z</time>
      </trkpt>
      <trkpt lat="42.908154" lon="-4.720203">
        <ele>1302.3</ele>
        <time>2021-03-27T12:51:50Z</time>
      </trkpt>
      <trkpt lat="42.907953" lon="-4.720037">
        <ele>1301.3</ele>
        <time>2021-03-27T12:51:53Z</time>
      </trkpt>
      <trkpt lat="42.907861" lon="-4.719746">
        <ele>1302.81</ele>
        <time>2021-03-27T12:51:56Z</time>
      </trkpt>
      <trkpt lat="42.907681" lon="-4.718755">
        <ele>1302.9</ele>
        <time>2021-03-27T12:51:58Z</time>
      </trkpt>
      <trkpt lat="42.907694" lon="-4.718411">
        <ele>1301.78</ele>
        <time>2021-03-27T12:52:01Z</time>
      </trkpt>
      <trkpt lat="42.907962" lon="-4.717274">
        <ele>1301.08</ele>
        <time>2021-03-27T12:52:03Z</time>
      </trkpt>
      <trkpt lat="42.907989" lon="-4.716959">
        <ele>1300.38</ele>
        <time>2021-03-27T12:52:06Z</time>
      </trkpt>
      <trkpt lat="42.907957" lon="-4.71663">
        <ele>1299.52</ele>
        <time>2021-03-27T12:52:09Z</time>
      </trkpt>
      <trkpt lat="42.907574" lon="-4.715182">
        <ele>1296.08</ele>
        <time>2021-03-27T12:52:11Z</time>
      </trkpt>
      <trkpt lat="42.907502" lon="-4.714859">
        <ele>1296.08</ele>
        <time>2021-03-27T12:52:14Z</time>
      </trkpt>
      <trkpt lat="42.907467" lon="-4.714527">
        <ele>1296.8</ele>
        <time>2021-03-27T12:52:16Z</time>
      </trkpt>
      <trkpt lat="42.907461" lon="-4.71419">
        <ele>1297.15</ele>
        <time>2021-03-27T12:52:19Z</time>
      </trkpt>
      <trkpt lat="42.907483" lon="-4.713485">
        <ele>1293.3</ele>
        <time>2021-03-27T12:52:22Z</time>
      </trkpt>
      <trkpt lat="42.907532" lon="-4.713148">
        <ele>1293.79</ele>
        <time>2021-03-27T12:52:24Z</time>
      </trkpt>
      <trkpt lat="42.907603" lon="-4.712831">
        <ele>1295.46</ele>
        <time>2021-03-27T12:52:27Z</time>
      </trkpt>
      <trkpt lat="42.907648" lon="-4.7125">
        <ele>1295.66</ele>
        <time>2021-03-27T12:52:29Z</time>
      </trkpt>
      <trkpt lat="42.907655" lon="-4.712141">
        <ele>1296.07</ele>
        <time>2021-03-27T12:52:32Z</time>
      </trkpt>
      <trkpt lat="42.907477" lon="-4.710391">
        <ele>1298.69</ele>
        <time>2021-03-27T12:52:35Z</time>
      </trkpt>
      <trkpt lat="42.907466" lon="-4.710072">
        <ele>1300.01</ele>
        <time>2021-03-27T12:52:37Z</time>
      </trkpt>
      <trkpt lat="42.907505" lon="-4.709799">
        <ele>1300.39</ele>
        <time>2021-03-27T12:52:40Z</time>
      </trkpt>
      <trkpt lat="42.90761" lon="-4.70956">
        <ele>1301.33</ele>
        <time>2021-03-27T12:52:42Z</time>
      </trkpt>
      <trkpt lat="42.907757" lon="-4.709375">
        <ele>1301.98</ele>
        <time>2021-03-27T12:52:45Z</time>
      </trkpt>
      <trkpt lat="42.907929" lon="-4.709265">
        <ele>1302.34</ele>
        <time>2021-03-27T12:52:48Z</time>
      </trkpt>
      <trkpt lat="42.908125" lon="-4.709221">
        <ele>1303.08</ele>
        <time>2021-03-27T12:52:50Z</time>
      </trkpt>
      <trkpt lat="42.90898" lon="-4.709383">
        <ele>1303.52</ele>
        <time>2021-03-27T12:52:53Z</time>
      </trkpt>
      <trkpt lat="42.909174" lon="-4.709367">
        <ele>1303.31</ele>
        <time>2021-03-27T12:52:56Z</time>
      </trkpt>
      <trkpt lat="42.909399" lon="-4.709171">
        <ele>1299.9</ele>
        <time>2021-03-27T12:52:58Z</time>
      </trkpt>
      <trkpt lat="42.9095" lon="-4.708855">
        <ele>1300.4</ele>
        <time>2021-03-27T12:53:01Z</time>
      </trkpt>
      <trkpt lat="42.909457" lon="-4.708527">
        <ele>1301.33</ele>
        <time>2021-03-27T12:53:03Z</time>
      </trkpt>
      <trkpt lat="42.909103" lon="-4.707565">
        <ele>1298.87</ele>
        <time>2021-03-27T12:53:06Z</time>
      </trkpt>
      <trkpt lat="42.909056" lon="-4.707302">
        <ele>1299.92</ele>
        <time>2021-03-27T12:53:09Z</time>
      </trkpt>
      <trkpt lat="42.909068" lon="-4.707021">
        <ele>1301.38</ele>
        <time>2021-03-27T12:53:11Z</time>
      </trkpt>
      <trkpt lat="42.909142" lon="-4.706763">
        <ele>1302.05</ele>
        <time>2021-03-27T12:53:14Z</time>
      </trkpt>
      <trkpt lat="42.909266" lon="-4.706551">
        <ele>1301.56</ele>
        <time>2021-03-27T12:53:16Z</time>
      </trkpt>
      <trkpt lat="42.909425" lon="-4.706407">
        <ele>1301.92</ele>
        <time>2021-03-27T12:53:19Z</time>
      </trkpt>
      <trkpt lat="42.909609" lon="-4.706328">
        <ele>1302.64</ele>
        <time>2021-03-27T12:53:22Z</time>
      </trkpt>
      <trkpt lat="42.910045" lon="-4.706214">
        <ele>1304.16</ele>
        <time>2021-03-27T12:53:24Z</time>
      </trkpt>
      <trkpt lat="42.910226" lon="-4.706046">
        <ele>1301.21</ele>
        <time>2021-03-27T12:53:27Z</time>
      </trkpt>
      <trkpt lat="42.910327" lon="-4.705751">
        <ele>1298.7</ele>
        <time>2021-03-27T12:53:29Z</time>
      </trkpt>
      <trkpt lat="42.91033" lon="-4.705468">
        <ele>1298.43</ele>
        <time>2021-03-27T12:53:32Z</time>
      </trkpt>
      <trkpt lat="42.910253" lon="-4.705207">
        <ele>1299.47</ele>
        <time>2021-03-27T12:53:35Z</time>
      </trkpt>
      <trkpt lat="42.910094" lon="-4.705068">
        <ele>1298.78</ele>
        <time>2021-03-27T12:53:37Z</time>
      </trkpt>
      <trkpt lat="42.909905" lon="-4.70494">
        <ele>1297.42</ele>
        <time>2021-03-27T12:53:40Z</time>
      </trkpt>
      <trkpt lat="42.909705" lon="-4.70474">
        <ele>1296.62</ele>
        <time>2021-03-27T12:53:43Z</time>
      </trkpt>
      <trkpt lat="42.909358" lon="-4.704188">
        <ele>1296.99</ele>
        <time>2021-03-27T12:53:45Z</time>
      </trkpt>
      <trkpt lat="42.909149" lon="-4.703944">
        <ele>1295.7</ele>
        <time>2021-03-27T12:53:48Z</time>
      </trkpt>
      <trkpt lat="42.908708" lon="-4.703576">
        <ele>1299.69</ele>
        <time>2021-03-27T12:53:50Z</time>
      </trkpt>
      <trkpt lat="42.908277" lon="-4.703257">
        <ele>1299.45</ele>
        <time>2021-03-27T12:53:53Z</time>
      </trkpt>
      <trkpt lat="42.908101" lon="-4.703077">
        <ele>1298.26</ele>
        <time>2021-03-27T12:53:56Z</time>
      </trkpt>
      <trkpt lat="42.90802" lon="-4.702834">
        <ele>1299.24</ele>
        <time>2021-03-27T12:53:58Z</time>
      </trkpt>
      <trkpt lat="42.908032" lon="-4.70256">
        <ele>1299.74</ele>
        <time>2021-03-27T12:54:01Z</time>
      </trkpt>
      <trkpt lat="42.908135" lon="-4.702306">
        <ele>1300.16</ele>
        <time>2021-03-27T12:54:03Z</time>
      </trkpt>
      <trkpt lat="42.908314" lon="-4.702128">
        <ele>1300.8</ele>
        <time>2021-03-27T12:54:06Z</time>
      </trkpt>
      <trkpt lat="42.908523" lon="-4.702017">
        <ele>1300.46</ele>
        <time>2021-03-27T12:54:09Z</time>
      </trkpt>
      <trkpt lat="42.908748" lon="-4.70194">
        <ele>1300.92</ele>
        <time>2021-03-27T12:54:11Z</time>
      </trkpt>
      <trkpt lat="42.908985" lon="-4.701902">
        <ele>1301.29</ele>
        <time>2021-03-27T12:54:14Z</time>
      </trkpt>
      <trkpt lat="42.909211" lon="-4.701899">
        <ele>1301.19</ele>
        <time>2021-03-27T12:54:16Z</time>
      </trkpt>
      <trkpt lat="42.910102" lon="-4.702051">
        <ele>1296.7</ele>
        <time>2021-03-27T12:54:19Z</time>
      </trkpt>
      <trkpt lat="42.9103" lon="-4.702028">
        <ele>1295.49</ele>
        <time>2021-03-27T12:54:22Z</time>
      </trkpt>
      <trkpt lat="42.91046" lon="-4.70191">
        <ele>1294.49</ele>
        <time>2021-03-27T12:54:24Z</time>
      </trkpt>
      <trkpt lat="42.910608" lon="-4.701632">
        <ele>1295.09</ele>
        <time>2021-03-27T12:54:27Z</time>
      </trkpt>
      <trkpt lat="42.910617" lon="-4.701312">
        <ele>1296.67</ele>
        <time>2021-03-27T12:54:29Z</time>
      </trkpt>
      <trkpt lat="42.910494" lon="-4.701007">
        <ele>1296.67</ele>
        <time>2021-03-27T12:54:32Z</time>
      </trkpt>
      <trkpt lat="42.909368" lon="-4.699132">
        <ele>1302.69</ele>
        <time>2021-03-27T12:54:35Z</time>
      </trkpt>
      <trkpt lat="42.909234" lon="-4.698881">
        <ele>1303.49</ele>
        <time>2021-03-27T12:54:37Z</time>
      </trkpt>
      <trkpt lat="42.909128" lon="-4.698622">
        <ele>1302.55</ele>
        <time>2021-03-27T12:54:40Z</time>
      </trkpt>
      <trkpt lat="42.90906" lon="-4.698362">
        <ele>1303.64</ele>
        <time>2021-03-27T12:54:43Z</time>
      </trkpt>
      <trkpt lat="42.909021" lon="-4.698095">
        <ele>1305.59</ele>
        <time>2021-03-27T12:54:45Z</time>
      </trkpt>
      <trkpt lat="42.909022" lon="-4.697813">
        <ele>1306.83</ele>
        <time>2021-03-27T12:54:48Z</time>
      </trkpt>
      <trkpt lat="42.909226" lon="-4.694097">
        <ele>1300.97</ele>
        <time>2021-03-27T12:54:50Z</time>
      </trkpt>
      <trkpt lat="42.909261" lon="-4.693135">
        <ele>1298.64</ele>
        <time>2021-03-27T12:54:53Z</time>
      </trkpt>
      <trkpt lat="42.909299" lon="-4.692834">
        <ele>1297.69</ele>
        <time>2021-03-27T12:54:56Z</time>
      </trkpt>
      <trkpt lat="42.909391" lon="-4.692553">
        <ele>1296.92</ele>
        <time>2021-03-27T12:54:58Z</time>
      </trkpt>
      <trkpt lat="42.909547" lon="-4.692339">
        <ele>1296.31</ele>
        <time>2021-03-27T12:55:01Z</time>
      </trkpt>
      <trkpt lat="42.90975" lon="-4.692237">
        <ele>1296.36</ele>
        <time>2021-03-27T12:55:03Z</time>
      </trkpt>
      <trkpt lat="42.909979" lon="-4.692202">
        <ele>1296.57</ele>
        <time>2021-03-27T12:55:06Z</time>
      </trkpt>
      <trkpt lat="42.910474" lon="-4.692216">
        <ele>1295.49</ele>
        <time>2021-03-27T12:55:09Z</time>
      </trkpt>
      <trkpt lat="42.91072" lon="-4.692254">
        <ele>1295.73</ele>
        <time>2021-03-27T12:55:11Z</time>
      </trkpt>
      <trkpt lat="42.910956" lon="-4.692338">
        <ele>1297.5</ele>
        <time>2021-03-27T12:55:14Z</time>
      </trkpt>
      <trkpt lat="42.911174" lon="-4.692453">
        <ele>1299.8</ele>
        <time>2021-03-27T12:55:16Z</time>
      </trkpt>
      <trkpt lat="42.911368" lon="-4.692587">
        <ele>1301.33</ele>
        <time>2021-03-27T12:55:19Z</time>
      </trkpt>
      <trkpt lat="42.911552" lon="-4.692742">
        <ele>1301.29</ele>
        <time>2021-03-27T12:55:22Z</time>
      </trkpt>
      <trkpt lat="42.91174" lon="-4.69285">
        <ele>1300.37</ele>
        <time>2021-03-27T12:55:24Z</time>
      </trkpt>
      <trkpt lat="42.911934" lon="-4.692848">
        <ele>1298.6</ele>
        <time>2021-03-27T12:55:27Z</time>
      </trkpt>
      <trkpt lat="42.912097" lon="-4.692742">
        <ele>1298.43</ele>
        <time>2021-03-27T12:55:30Z</time>
      </trkpt>
      <trkpt lat="42.912215" lon="-4.692554">
        <ele>1298.93</ele>
        <time>2021-03-27T12:55:32Z</time>
      </trkpt>
      <trkpt lat="42.912268" lon="-4.692301">
        <ele>1301.15</ele>
        <time>2021-03-27T12:55:35Z</time>
      </trkpt>
      <trkpt lat="42.912303" lon="-4.691726">
        <ele>1302.31</ele>
        <time>2021-03-27T12:55:37Z</time>
      </trkpt>
      <trkpt lat="42.91237" lon="-4.691434">
        <ele>1300.82</ele>
        <time>2021-03-27T12:55:40Z</time>
      </trkpt>
      <trkpt lat="42.912483" lon="-4.691149">
        <ele>1299.3</ele>
        <time>2021-03-27T12:55:43Z</time>
      </trkpt>
      <trkpt lat="42.912634" lon="-4.690898">
        <ele>1298.45</ele>
        <time>2021-03-27T12:55:45Z</time>
      </trkpt>
      <trkpt lat="42.912826" lon="-4.690693">
        <ele>1299.44</ele>
        <time>2021-03-27T12:55:48Z</time>
      </trkpt>
      <trkpt lat="42.913304" lon="-4.690349">
        <ele>1301.17</ele>
        <time>2021-03-27T12:55:50Z</time>
      </trkpt>
      <trkpt lat="42.914873" lon="-4.689321">
        <ele>1305.27</ele>
        <time>2021-03-27T12:55:53Z</time>
      </trkpt>
      <trkpt lat="42.916054" lon="-4.688677">
        <ele>1303.99</ele>
        <time>2021-03-27T12:55:56Z</time>
      </trkpt>
      <trkpt lat="42.916258" lon="-4.688603">
        <ele>1301.3</ele>
        <time>2021-03-27T12:55:58Z</time>
      </trkpt>
      <trkpt lat="42.916735" lon="-4.688702">
        <ele>1299.88</ele>
        <time>2021-03-27T12:56:01Z</time>
      </trkpt>
      <trkpt lat="42.916977" lon="-4.688703">
        <ele>1299.97</ele>
        <time>2021-03-27T12:56:03Z</time>
      </trkpt>
      <trkpt lat="42.91721" lon="-4.688627">
        <ele>1301.89</ele>
        <time>2021-03-27T12:56:06Z</time>
      </trkpt>
      <trkpt lat="42.917431" lon="-4.688489">
        <ele>1303.8</ele>
        <time>2021-03-27T12:56:09Z</time>
      </trkpt>
      <trkpt lat="42.918864" lon="-4.687191">
        <ele>1297.74</ele>
        <time>2021-03-27T12:56:11Z</time>
      </trkpt>
      <trkpt lat="42.919755" lon="-4.686346">
        <ele>1298.59</ele>
        <time>2021-03-27T12:56:14Z</time>
      </trkpt>
      <trkpt lat="42.920678" lon="-4.685521">
        <ele>1294.81</ele>
        <time>2021-03-27T12:56:17Z</time>
      </trkpt>
      <trkpt lat="42.921317" lon="-4.684918">
        <ele>1297.19</ele>
        <time>2021-03-27T12:56:19Z</time>
      </trkpt>
      <trkpt lat="42.921582" lon="-4.684639">
        <ele>1299.09</ele>
        <time>2021-03-27T12:56:22Z</time>
      </trkpt>
      <trkpt lat="42.921879" lon="-4.684146">
        <ele>1297.93</ele>
        <time>2021-03-27T12:56:24Z</time>
      </trkpt>
      <trkpt lat="42.922396" lon="-4.683139">
        <ele>1298.11</ele>
        <time>2021-03-27T12:56:27Z</time>
      </trkpt>
      <trkpt lat="42.92253" lon="-4.682881">
        <ele>1297.44</ele>
        <time>2021-03-27T12:56:30Z</time>
      </trkpt>
      <trkpt lat="42.922684" lon="-4.682533">
        <ele>1297.36</ele>
        <time>2021-03-27T12:56:32Z</time>
      </trkpt>
      <trkpt lat="42.922846" lon="-4.681878">
        <ele>1297.24</ele>
        <time>2021-03-27T12:56:35Z</time>
      </trkpt>
      <trkpt lat="42.922916" lon="-4.681692">
        <ele>1297.5</ele>
        <time>2021-03-27T12:56:37Z</time>
      </trkpt>
      <trkpt lat="42.923414" lon="-4.680709">
        <ele>1298.13</ele>
        <time>2021-03-27T12:56:40Z</time>
      </trkpt>
      <trkpt lat="42.923459" lon="-4.680438">
        <ele>1298.45</ele>
        <time>2021-03-27T12:56:43Z</time>
      </trkpt>
      <trkpt lat="42.923436" lon="-4.680227">
        <ele>1298.44</ele>
        <time>2021-03-27T12:56:45Z</time>
      </trkpt>
      <trkpt lat="42.923389" lon="-4.680024">
        <ele>1298.39</ele>
        <time>2021-03-27T12:56:48Z</time>
      </trkpt>
      <trkpt lat="42.923298" lon="-4.679828">
        <ele>1297.87</ele>
        <time>2021-03-27T12:56:50Z</time>
      </trkpt>
      <trkpt lat="42.922685" lon="-4.678993">
        <ele>1296.42</ele>
        <time>2021-03-27T12:56:53Z</time>
      </trkpt>
      <trkpt lat="42.922349" lon="-4.678526">
        <ele>1298.17</ele>
        <time>2021-03-27T12:56:56Z</time>
      </trkpt>
      <trkpt lat="42.922046" lon="-4.678205">
        <ele>1298.49</ele>
        <time>2021-03-27T12:56:58Z</time>
      </trkpt>
      <trkpt lat="42.92186" lon="-4.678092">
        <ele>1298.86</ele>
        <time>2021-03-27T12:57:01Z</time>
      </trkpt>
      <trkpt lat="42.921682" lon="-4.678028">
        <ele>1299.29</ele>
        <time>2021-03-27T12:57:03Z</time>
      </trkpt>
      <trkpt lat="42.921479" lon="-4.678012">
        <ele>1300.93</ele>
        <time>2021-03-27T12:57:06Z</time>
      </trkpt>
      <trkpt lat="42.921282" lon="-4.678038">
        <ele>1302.82</ele>
        <time>2021-03-27T12:57:09Z</time>
      </trkpt>
      <trkpt lat="42.921071" lon="-4.678127">
        <ele>1304.44</ele>
        <time>2021-03-27T12:57:11Z</time>
      </trkpt>
      <trkpt lat="42.920529" lon="-4.67857">
        <ele>1305.84</ele>
        <time>2021-03-27T12:57:14Z</time>
      </trkpt>
      <trkpt lat="42.920339" lon="-4.678747">
        <ele>1306.26</ele>
        <time>2021-03-27T12:57:17Z</time>
      </trkpt>
      <trkpt lat="42.92014" lon="-4.678898">
        <ele>1307.36</ele>
        <time>2021-03-27T12:57:19Z</time>
      </trkpt>
      <trkpt lat="42.920008" lon="-4.678929">
        <ele>1309.28</ele>
        <time>2021-03-27T12:57:22Z</time>
      </trkpt>
      <trkpt lat="42.919901" lon="-4.6789">
        <ele>1310.57</ele>
        <time>2021-03-27T12:57:24Z</time>
      </trkpt>
      <trkpt lat="42.919814" lon="-4.678833">
        <ele>1311.95</ele>
        <time>2021-03-27T12:57:27Z</time>
      </trkpt>
      <trkpt lat="42.919743" lon="-4.678719">
        <ele>1313.68</ele>
        <time>2021-03-27T12:57:30Z</time>
      </trkpt>
      <trkpt lat="42.919651" lon="-4.678441">
        <ele>1315.87</ele>
        <time>2021-03-27T12:57:32Z</time>
      </trkpt>
      <trkpt lat="42.919545" lon="-4.678002">
        <ele>1318.06</ele>
        <time>2021-03-27T12:57:35Z</time>
      </trkpt>
      <trkpt lat="42.919308" lon="-4.676969">
        <ele>1323.84</ele>
        <time>2021-03-27T12:57:37Z</time>
      </trkpt>
      <trkpt lat="42.919244" lon="-4.676566">
        <ele>1326.02</ele>
        <time>2021-03-27T12:57:40Z</time>
      </trkpt>
      <trkpt lat="42.919228" lon="-4.676147">
        <ele>1327.72</ele>
        <time>2021-03-27T12:57:43Z</time>
      </trkpt>
      <trkpt lat="42.919389" lon="-4.674943">
        <ele>1331.06</ele>
        <time>2021-03-27T12:57:45Z</time>
      </trkpt>
      <trkpt lat="42.919434" lon="-4.674437">
        <ele>1335.01</ele>
        <time>2021-03-27T12:57:48Z</time>
      </trkpt>
      <trkpt lat="42.919391" lon="-4.674142">
        <ele>1338.85</ele>
        <time>2021-03-27T12:57:50Z</time>
      </trkpt>
      <trkpt lat="42.919106" lon="-4.673029">
        <ele>1338.66</ele>
        <time>2021-03-27T12:57:53Z</time>
      </trkpt>
      <trkpt lat="42.919048" lon="-4.672603">
        <ele>1342.06</ele>
        <time>2021-03-27T12:57:56Z</time>
      </trkpt>
      <trkpt lat="42.919077" lon="-4.672293">
        <ele>1344.96</ele>
        <time>2021-03-27T12:57:58Z</time>
      </trkpt>
      <trkpt lat="42.919143" lon="-4.671905">
        <ele>1346.81</ele>
        <time>2021-03-27T12:58:01Z</time>
      </trkpt>
      <trkpt lat="42.919232" lon="-4.671239">
        <ele>1348.59</ele>
        <time>2021-03-27T12:58:04Z</time>
      </trkpt>
      <trkpt lat="42.919228" lon="-4.67109">
        <ele>1348.72</ele>
        <time>2021-03-27T12:58:06Z</time>
      </trkpt>
      <trkpt lat="42.919205" lon="-4.670941">
        <ele>1348.94</ele>
        <time>2021-03-27T12:58:09Z</time>
      </trkpt>
      <trkpt lat="42.919108" lon="-4.670645">
        <ele>1350.57</ele>
        <time>2021-03-27T12:58:11Z</time>
      </trkpt>
      <trkpt lat="42.918992" lon="-4.670361">
        <ele>1353.22</ele>
        <time>2021-03-27T12:58:14Z</time>
      </trkpt>
      <trkpt lat="42.918531" lon="-4.669304">
        <ele>1358.8</ele>
        <time>2021-03-27T12:58:17Z</time>
      </trkpt>
      <trkpt lat="42.918456" lon="-4.669049">
        <ele>1360.11</ele>
        <time>2021-03-27T12:58:19Z</time>
      </trkpt>
      <trkpt lat="42.918412" lon="-4.668761">
        <ele>1360.87</ele>
        <time>2021-03-27T12:58:22Z</time>
      </trkpt>
      <trkpt lat="42.918371" lon="-4.668227">
        <ele>1361.1</ele>
        <time>2021-03-27T12:58:24Z</time>
      </trkpt>
      <trkpt lat="42.918306" lon="-4.667679">
        <ele>1363.87</ele>
        <time>2021-03-27T12:58:27Z</time>
      </trkpt>
      <trkpt lat="42.91821" lon="-4.667482">
        <ele>1365.33</ele>
        <time>2021-03-27T12:58:30Z</time>
      </trkpt>
      <trkpt lat="42.918044" lon="-4.66733">
        <ele>1366.44</ele>
        <time>2021-03-27T12:58:32Z</time>
      </trkpt>
      <trkpt lat="42.917859" lon="-4.66729">
        <ele>1367.21</ele>
        <time>2021-03-27T12:58:35Z</time>
      </trkpt>
      <trkpt lat="42.917675" lon="-4.667367">
        <ele>1366.46</ele>
        <time>2021-03-27T12:58:37Z</time>
      </trkpt>
      <trkpt lat="42.917484" lon="-4.667503">
        <ele>1365.4</ele>
        <time>2021-03-27T12:58:40Z</time>
      </trkpt>
      <trkpt lat="42.917074" lon="-4.667816">
        <ele>1370.45</ele>
        <time>2021-03-27T12:58:43Z</time>
      </trkpt>
      <trkpt lat="42.916873" lon="-4.667891">
        <ele>1374.79</ele>
        <time>2021-03-27T12:58:45Z</time>
      </trkpt>
      <trkpt lat="42.916738" lon="-4.667873">
        <ele>1377.41</ele>
        <time>2021-03-27T12:58:48Z</time>
      </trkpt>
      <trkpt lat="42.916536" lon="-4.667692">
        <ele>1379.84</ele>
        <time>2021-03-27T12:58:50Z</time>
      </trkpt>
      <trkpt lat="42.916448" lon="-4.667515">
        <ele>1380.51</ele>
        <time>2021-03-27T12:58:53Z</time>
      </trkpt>
      <trkpt lat="42.916141" lon="-4.666649">
        <ele>1380.62</ele>
        <time>2021-03-27T12:58:56Z</time>
      </trkpt>
      <trkpt lat="42.915691" lon="-4.665362">
        <ele>1384.7</ele>
        <time>2021-03-27T12:58:58Z</time>
      </trkpt>
      <trkpt lat="42.915223" lon="-4.664091">
        <ele>1387.4</ele>
        <time>2021-03-27T12:59:01Z</time>
      </trkpt>
      <trkpt lat="42.915046" lon="-4.663543">
        <ele>1389.83</ele>
        <time>2021-03-27T12:59:04Z</time>
      </trkpt>
      <trkpt lat="42.914994" lon="-4.663312">
        <ele>1389.11</ele>
        <time>2021-03-27T12:59:06Z</time>
      </trkpt>
      <trkpt lat="42.914966" lon="-4.663044">
        <ele>1390.08</ele>
        <time>2021-03-27T12:59:09Z</time>
      </trkpt>
      <trkpt lat="42.914965" lon="-4.662772">
        <ele>1389.09</ele>
        <time>2021-03-27T12:59:11Z</time>
      </trkpt>
      <trkpt lat="42.915635" lon="-4.656402">
        <ele>1403.65</ele>
        <time>2021-03-27T12:59:14Z</time>
      </trkpt>
      <trkpt lat="42.915658" lon="-4.656072">
        <ele>1405.5</ele>
        <time>2021-03-27T12:59:17Z</time>
      </trkpt>
      <trkpt lat="42.91564" lon="-4.655786">
        <ele>1407.11</ele>
        <time>2021-03-27T12:59:19Z</time>
      </trkpt>
      <trkpt lat="42.915557" lon="-4.655557">
        <ele>1407.02</ele>
        <time>2021-03-27T12:59:22Z</time>
      </trkpt>
      <trkpt lat="42.915413" lon="-4.655358">
        <ele>1407.24</ele>
        <time>2021-03-27T12:59:24Z</time>
      </trkpt>
      <trkpt lat="42.915275" lon="-4.655283">
        <ele>1406.95</ele>
        <time>2021-03-27T12:59:27Z</time>
      </trkpt>
      <trkpt lat="42.91502" lon="-4.655324">
        <ele>1407.43</ele>
        <time>2021-03-27T12:59:30Z</time>
      </trkpt>
      <trkpt lat="42.914848" lon="-4.655487">
        <ele>1407.23</ele>
        <time>2021-03-27T12:59:32Z</time>
      </trkpt>
      <trkpt lat="42.914711" lon="-4.655675">
        <ele>1405.1</ele>
        <time>2021-03-27T12:59:35Z</time>
      </trkpt>
      <trkpt lat="42.914537" lon="-4.655861">
        <ele>1403.84</ele>
        <time>2021-03-27T12:59:37Z</time>
      </trkpt>
      <trkpt lat="42.914351" lon="-4.655954">
        <ele>1403.73</ele>
        <time>2021-03-27T12:59:40Z</time>
      </trkpt>
      <trkpt lat="42.914125" lon="-4.655983">
        <ele>1406.09</ele>
        <time>2021-03-27T12:59:43Z</time>
      </trkpt>
      <trkpt lat="42.913903" lon="-4.655936">
        <ele>1405.97</ele>
        <time>2021-03-27T12:59:45Z</time>
      </trkpt>
      <trkpt lat="42.913698" lon="-4.655802">
        <ele>1403.34</ele>
        <time>2021-03-27T12:59:48Z</time>
      </trkpt>
      <trkpt lat="42.913509" lon="-4.65556">
        <ele>1403.1</ele>
        <time>2021-03-27T12:59:51Z</time>
      </trkpt>
      <trkpt lat="42.913388" lon="-4.65531">
        <ele>1404.69</ele>
        <time>2021-03-27T12:59:53Z</time>
      </trkpt>
      <trkpt lat="42.913112" lon="-4.654393">
        <ele>1399.57</ele>
        <time>2021-03-27T12:59:56Z</time>
      </trkpt>
      <trkpt lat="42.912986" lon="-4.654134">
        <ele>1399.47</ele>
        <time>2021-03-27T12:59:58Z</time>
      </trkpt>
      <trkpt lat="42.912829" lon="-4.653908">
        <ele>1400.46</ele>
        <time>2021-03-27T13:00:01Z</time>
      </trkpt>
      <trkpt lat="42.912641" lon="-4.653765">
        <ele>1400.53</ele>
        <time>2021-03-27T13:00:04Z</time>
      </trkpt>
      <trkpt lat="42.912444" lon="-4.653683">
        <ele>1400.59</ele>
        <time>2021-03-27T13:00:06Z</time>
      </trkpt>
      <trkpt lat="42.91221" lon="-4.653704">
        <ele>1399.6</ele>
        <time>2021-03-27T13:00:09Z</time>
      </trkpt>
      <trkpt lat="42.911547" lon="-4.653935">
        <ele>1397.31</ele>
        <time>2021-03-27T13:00:11Z</time>
      </trkpt>
      <trkpt lat="42.911394" lon="-4.654101">
        <ele>1397.09</ele>
        <time>2021-03-27T13:00:14Z</time>
      </trkpt>
      <trkpt lat="42.911192" lon="-4.654542">
        <ele>1398.52</ele>
        <time>2021-03-27T13:00:17Z</time>
      </trkpt>
      <trkpt lat="42.911038" lon="-4.654755">
        <ele>1399.17</ele>
        <time>2021-03-27T13:00:19Z</time>
      </trkpt>
      <trkpt lat="42.91083" lon="-4.654851">
        <ele>1399.58</ele>
        <time>2021-03-27T13:00:22Z</time>
      </trkpt>
      <trkpt lat="42.910602" lon="-4.654866">
        <ele>1397.34</ele>
        <time>2021-03-27T13:00:24Z</time>
      </trkpt>
      <trkpt lat="42.910293" lon="-4.654714">
        <ele>1396.25</ele>
        <time>2021-03-27T13:00:27Z</time>
      </trkpt>
      <trkpt lat="42.91006" lon="-4.654422">
        <ele>1393.05</ele>
        <time>2021-03-27T13:00:30Z</time>
      </trkpt>
      <trkpt lat="42.909597" lon="-4.65374">
        <ele>1396.4</ele>
        <time>2021-03-27T13:00:32Z</time>
      </trkpt>
      <trkpt lat="42.909255" lon="-4.653284">
        <ele>1400.66</ele>
        <time>2021-03-27T13:00:35Z</time>
      </trkpt>
      <trkpt lat="42.909147" lon="-4.653002">
        <ele>1398.54</ele>
        <time>2021-03-27T13:00:38Z</time>
      </trkpt>
      <trkpt lat="42.909105" lon="-4.652725">
        <ele>1397.25</ele>
        <time>2021-03-27T13:00:40Z</time>
      </trkpt>
      <trkpt lat="42.909114" lon="-4.652414">
        <ele>1396.8</ele>
        <time>2021-03-27T13:00:43Z</time>
      </trkpt>
      <trkpt lat="42.90917" lon="-4.65214">
        <ele>1396.76</ele>
        <time>2021-03-27T13:00:45Z</time>
      </trkpt>
      <trkpt lat="42.909292" lon="-4.651889">
        <ele>1397.63</ele>
        <time>2021-03-27T13:00:48Z</time>
      </trkpt>
      <trkpt lat="42.90945" lon="-4.651712">
        <ele>1398.44</ele>
        <time>2021-03-27T13:00:51Z</time>
      </trkpt>
      <trkpt lat="42.909647" lon="-4.65157">
        <ele>1401.09</ele>
        <time>2021-03-27T13:00:53Z</time>
      </trkpt>
      <trkpt lat="42.909873" lon="-4.651507">
        <ele>1404.41</ele>
        <time>2021-03-27T13:00:56Z</time>
      </trkpt>
      <trkpt lat="42.910309" lon="-4.651449">
        <ele>1406.97</ele>
        <time>2021-03-27T13:00:58Z</time>
      </trkpt>
      <trkpt lat="42.910498" lon="-4.651369">
        <ele>1404.98</ele>
        <time>2021-03-27T13:01:01Z</time>
      </trkpt>
      <trkpt lat="42.910636" lon="-4.651197">
        <ele>1403.6</ele>
        <time>2021-03-27T13:01:04Z</time>
      </trkpt>
      <trkpt lat="42.910701" lon="-4.650992">
        <ele>1403.07</ele>
        <time>2021-03-27T13:01:06Z</time>
      </trkpt>
      <trkpt lat="42.910709" lon="-4.650726">
        <ele>1404.96</ele>
        <time>2021-03-27T13:01:09Z</time>
      </trkpt>
      <trkpt lat="42.910637" lon="-4.650517">
        <ele>1407.35</ele>
        <time>2021-03-27T13:01:11Z</time>
      </trkpt>
      <trkpt lat="42.91051" lon="-4.650343">
        <ele>1408.97</ele>
        <time>2021-03-27T13:01:14Z</time>
      </trkpt>
      <trkpt lat="42.910143" lon="-4.650054">
        <ele>1409.5</ele>
        <time>2021-03-27T13:01:17Z</time>
      </trkpt>
      <trkpt lat="42.909962" lon="-4.649861">
        <ele>1409.37</ele>
        <time>2021-03-27T13:01:19Z</time>
      </trkpt>
      <trkpt lat="42.909831" lon="-4.649635">
        <ele>1410.83</ele>
        <time>2021-03-27T13:01:22Z</time>
      </trkpt>
      <trkpt lat="42.909731" lon="-4.649367">
        <ele>1412.71</ele>
        <time>2021-03-27T13:01:24Z</time>
      </trkpt>
      <trkpt lat="42.909673" lon="-4.649005">
        <ele>1413.77</ele>
        <time>2021-03-27T13:01:27Z</time>
      </trkpt>
      <trkpt lat="42.90966" lon="-4.648769">
        <ele>1415.49</ele>
        <time>2021-03-27T13:01:30Z</time>
      </trkpt>
      <trkpt lat="42.909616" lon="-4.648544">
        <ele>1417.38</ele>
        <time>2021-03-27T13:01:32Z</time>
      </trkpt>
      <trkpt lat="42.90951" lon="-4.648358">
        <ele>1419.43</ele>
        <time>2021-03-27T13:01:35Z</time>
      </trkpt>
      <trkpt lat="42.909269" lon="-4.648138">
        <ele>1423.86</ele>
        <time>2021-03-27T13:01:38Z</time>
      </trkpt>
      <trkpt lat="42.909089" lon="-4.647883">
        <ele>1425.11</ele>
        <time>2021-03-27T13:01:40Z</time>
      </trkpt>
      <trkpt lat="42.908992" lon="-4.647527">
        <ele>1424.61</ele>
        <time>2021-03-27T13:01:43Z</time>
      </trkpt>
      <trkpt lat="42.908807" lon="-4.646298">
        <ele>1430.05</ele>
        <time>2021-03-27T13:01:45Z</time>
      </trkpt>
      <trkpt lat="42.908788" lon="-4.646018">
        <ele>1432.31</ele>
        <time>2021-03-27T13:01:48Z</time>
      </trkpt>
      <trkpt lat="42.908823" lon="-4.645804">
        <ele>1434.42</ele>
        <time>2021-03-27T13:01:51Z</time>
      </trkpt>
      <trkpt lat="42.908858" lon="-4.645706">
        <ele>1435.37</ele>
        <time>2021-03-27T13:01:53Z</time>
      </trkpt>
      <trkpt lat="42.908998" lon="-4.64544">
        <ele>1436.86</ele>
        <time>2021-03-27T13:01:56Z</time>
      </trkpt>
      <trkpt lat="42.909531" lon="-4.644563">
        <ele>1432.39</ele>
        <time>2021-03-27T13:01:58Z</time>
      </trkpt>
      <trkpt lat="42.909638" lon="-4.644358">
        <ele>1431.59</ele>
        <time>2021-03-27T13:02:01Z</time>
      </trkpt>
      <trkpt lat="42.90971" lon="-4.644168">
        <ele>1432.63</ele>
        <time>2021-03-27T13:02:04Z</time>
      </trkpt>
      <trkpt lat="42.909722" lon="-4.64403">
        <ele>1432.98</ele>
        <time>2021-03-27T13:02:06Z</time>
      </trkpt>
      <trkpt lat="42.909711" lon="-4.643936">
        <ele>1432.64</ele>
        <time>2021-03-27T13:02:09Z</time>
      </trkpt>
      <trkpt lat="42.909629" lon="-4.643688">
        <ele>1430.95</ele>
        <time>2021-03-27T13:02:11Z</time>
      </trkpt>
      <trkpt lat="42.909205" lon="-4.642935">
        <ele>1422.0</ele>
        <time>2021-03-27T13:02:14Z</time>
      </trkpt>
      <trkpt lat="42.909161" lon="-4.642828">
        <ele>1422.12</ele>
        <time>2021-03-27T13:02:17Z</time>
      </trkpt>
      <trkpt lat="42.909132" lon="-4.642684">
        <ele>1422.33</ele>
        <time>2021-03-27T13:02:19Z</time>
      </trkpt>
      <trkpt lat="42.909127" lon="-4.642559">
        <ele>1422.63</ele>
        <time>2021-03-27T13:02:22Z</time>
      </trkpt>
      <trkpt lat="42.909142" lon="-4.642401">
        <ele>1421.94</ele>
        <time>2021-03-27T13:02:25Z</time>
      </trkpt>
      <trkpt lat="42.909177" lon="-4.642257">
        <ele>1420.66</ele>
        <time>2021-03-27T13:02:27Z</time>
      </trkpt>
      <trkpt lat="42.909232" lon="-4.642145">
        <ele>1418.85</ele>
        <time>2021-03-27T13:02:30Z</time>
      </trkpt>
      <trkpt lat="42.909296" lon="-4.642055">
        <ele>1417.09</ele>
        <time>2021-03-27T13:02:32Z</time>
      </trkpt>
      <trkpt lat="42.910193" lon="-4.641287">
        <ele>1423.37</ele>
        <time>2021-03-27T13:02:35Z</time>
      </trkpt>
      <trkpt lat="42.910377" lon="-4.641036">
        <ele>1423.59</ele>
        <time>2021-03-27T13:02:38Z</time>
      </trkpt>
      <trkpt lat="42.910481" lon="-4.640773">
        <ele>1423.18</ele>
        <time>2021-03-27T13:02:40Z</time>
      </trkpt>
      <trkpt lat="42.910518" lon="-4.640629">
        <ele>1423.74</ele>
        <time>2021-03-27T13:02:43Z</time>
      </trkpt>
      <trkpt lat="42.910531" lon="-4.640507">
        <ele>1422.91</ele>
        <time>2021-03-27T13:02:45Z</time>
      </trkpt>
      <trkpt lat="42.910505" lon="-4.640273">
        <ele>1416.72</ele>
        <time>2021-03-27T13:02:48Z</time>
      </trkpt>
      <trkpt lat="42.910463" lon="-4.640118">
        <ele>1410.78</ele>
        <time>2021-03-27T13:02:51Z</time>
      </trkpt>
      <trkpt lat="42.910176" lon="-4.639409">
        <ele>1400.32</ele>
        <time>2021-03-27T13:02:53Z</time>
      </trkpt>
      <trkpt lat="42.910055" lon="-4.639048">
        <ele>1407.29</ele>
        <time>2021-03-27T13:02:56Z</time>
      </trkpt>
      <trkpt lat="42.910038" lon="-4.638806">
        <ele>1409.15</ele>
        <time>2021-03-27T13:02:58Z</time>
      </trkpt>
      <trkpt lat="42.910052" lon="-4.638673">
        <ele>1408.27</ele>
        <time>2021-03-27T13:03:01Z</time>
      </trkpt>
      <trkpt lat="42.910125" lon="-4.638371">
        <ele>1404.31</ele>
        <time>2021-03-27T13:03:04Z</time>
      </trkpt>
      <trkpt lat="42.910223" lon="-4.638163">
        <ele>1402.88</ele>
        <time>2021-03-27T13:03:06Z</time>
      </trkpt>
      <trkpt lat="42.910295" lon="-4.638067">
        <ele>1403.19</ele>
        <time>2021-03-27T13:03:09Z</time>
      </trkpt>
      <trkpt lat="42.910645" lon="-4.637724">
        <ele>1409.59</ele>
        <time>2021-03-27T13:03:11Z</time>
      </trkpt>
      <trkpt lat="42.910723" lon="-4.637624">
        <ele>1409.9</ele>
        <time>2021-03-27T13:03:14Z</time>
      </trkpt>
      <trkpt lat="42.910804" lon="-4.637464">
        <ele>1409.85</ele>
        <time>2021-03-27T13:03:17Z</time>
      </trkpt>
      <trkpt lat="42.910825" lon="-4.637292">
        <ele>1410.54</ele>
        <time>2021-03-27T13:03:19Z</time>
      </trkpt>
      <trkpt lat="42.910783" lon="-4.636827">
        <ele>1399.19</ele>
        <time>2021-03-27T13:03:22Z</time>
      </trkpt>
      <trkpt lat="42.910788" lon="-4.636577">
        <ele>1393.79</ele>
        <time>2021-03-27T13:03:25Z</time>
      </trkpt>
      <trkpt lat="42.910858" lon="-4.63639">
        <ele>1393.0</ele>
        <time>2021-03-27T13:03:27Z</time>
      </trkpt>
      <trkpt lat="42.911053" lon="-4.636128">
        <ele>1393.76</ele>
        <time>2021-03-27T13:03:30Z</time>
      </trkpt>
      <trkpt lat="42.911114" lon="-4.636018">
        <ele>1393.76</ele>
        <time>2021-03-27T13:03:32Z</time>
      </trkpt>
      <trkpt lat="42.911157" lon="-4.635904">
        <ele>1392.8</ele>
        <time>2021-03-27T13:03:35Z</time>
      </trkpt>
      <trkpt lat="42.911175" lon="-4.635805">
        <ele>1391.89</ele>
        <time>2021-03-27T13:03:38Z</time>
      </trkpt>
      <trkpt lat="42.911183" lon="-4.635688">
        <ele>1391.96</ele>
        <time>2021-03-27T13:03:40Z</time>
      </trkpt>
      <trkpt lat="42.911165" lon="-4.635535">
        <ele>1391.01</ele>
        <time>2021-03-27T13:03:43Z</time>
      </trkpt>
      <trkpt lat="42.911074" lon="-4.635059">
        <ele>1393.79</ele>
        <time>2021-03-27T13:03:45Z</time>
      </trkpt>
      <trkpt lat="42.911027" lon="-4.634923">
        <ele>1393.78</ele>
        <time>2021-03-27T13:03:48Z</time>
      </trkpt>
      <trkpt lat="42.910977" lon="-4.634831">
        <ele>1393.27</ele>
        <time>2021-03-27T13:03:51Z</time>
      </trkpt>
      <trkpt lat="42.910844" lon="-4.634687">
        <ele>1392.02</ele>
        <time>2021-03-27T13:03:53Z</time>
      </trkpt>
      <trkpt lat="42.910753" lon="-4.634644">
        <ele>1391.66</ele>
        <time>2021-03-27T13:03:56Z</time>
      </trkpt>
      <trkpt lat="42.910514" lon="-4.634598">
        <ele>1388.81</ele>
        <time>2021-03-27T13:03:58Z</time>
      </trkpt>
      <trkpt lat="42.910172" lon="-4.634491">
        <ele>1383.05</ele>
        <time>2021-03-27T13:04:01Z</time>
      </trkpt>
      <trkpt lat="42.909718" lon="-4.634294">
        <ele>1376.2</ele>
        <time>2021-03-27T13:04:04Z</time>
      </trkpt>
      <trkpt lat="42.909349" lon="-4.634104">
        <ele>1371.76</ele>
        <time>2021-03-27T13:04:06Z</time>
      </trkpt>
      <trkpt lat="42.909168" lon="-4.633998">
        <ele>1370.5</ele>
        <time>2021-03-27T13:04:09Z</time>
      </trkpt>
      <trkpt lat="42.908267" lon="-4.633386">
        <ele>1363.3</ele>
        <time>2021-03-27T13:04:12Z</time>
      </trkpt>
      <trkpt lat="42.908125" lon="-4.633267">
        <ele>1361.88</ele>
        <time>2021-03-27T13:04:14Z</time>
      </trkpt>
      <trkpt lat="42.908057" lon="-4.633178">
        <ele>1361.28</ele>
        <time>2021-03-27T13:04:17Z</time>
      </trkpt>
      <trkpt lat="42.907963" lon="-4.632978">
        <ele>1360.5</ele>
        <time>2021-03-27T13:04:19Z</time>
      </trkpt>
      <trkpt lat="42.907896" lon="-4.632549">
        <ele>1363.09</ele>
        <time>2021-03-27T13:04:22Z</time>
      </trkpt>
      <trkpt lat="42.907837" lon="-4.632363">
        <ele>1361.84</ele>
        <time>2021-03-27T13:04:25Z</time>
      </trkpt>
      <trkpt lat="42.907792" lon="-4.632271">
        <ele>1360.39</ele>
        <time>2021-03-27T13:04:27Z</time>
      </trkpt>
      <trkpt lat="42.907557" lon="-4.631944">
        <ele>1355.65</ele>
        <time>2021-03-27T13:04:30Z</time>
      </trkpt>
      <trkpt lat="42.907437" lon="-4.631692">
        <ele>1355.12</ele>
        <time>2021-03-27T13:04:32Z</time>
      </trkpt>
      <trkpt lat="42.907378" lon="-4.631531">
        <ele>1355.08</ele>
        <time>2021-03-27T13:04:35Z</time>
      </trkpt>
      <trkpt lat="42.906765" lon="-4.629374">
        <ele>1348.73</ele>
        <time>2021-03-27T13:04:38Z</time>
      </trkpt>
      <trkpt lat="42.906589" lon="-4.628924">
        <ele>1346.86</ele>
        <time>2021-03-27T13:04:40Z</time>
      </trkpt>
      <trkpt lat="42.906437" lon="-4.628648">
        <ele>1340.57</ele>
        <time>2021-03-27T13:04:43Z</time>
      </trkpt>
      <trkpt lat="42.906258" lon="-4.628404">
        <ele>1335.96</ele>
        <time>2021-03-27T13:04:45Z</time>
      </trkpt>
      <trkpt lat="42.905974" lon="-4.628134">
        <ele>1334.98</ele>
        <time>2021-03-27T13:04:48Z</time>
      </trkpt>
      <trkpt lat="42.905277" lon="-4.627757">
        <ele>1334.15</ele>
        <time>2021-03-27T13:04:51Z</time>
      </trkpt>
      <trkpt lat="42.905125" lon="-4.627644">
        <ele>1336.06</ele>
        <time>2021-03-27T13:04:53Z</time>
      </trkpt>
      <trkpt lat="42.905013" lon="-4.62747">
        <ele>1337.39</ele>
        <time>2021-03-27T13:04:56Z</time>
      </trkpt>
      <trkpt lat="42.904971" lon="-4.627351">
        <ele>1334.85</ele>
        <time>2021-03-27T13:04:59Z</time>
      </trkpt>
      <trkpt lat="42.904945" lon="-4.627211">
        <ele>1331.65</ele>
        <time>2021-03-27T13:05:01Z</time>
      </trkpt>
      <trkpt lat="42.904934" lon="-4.626888">
        <ele>1326.29</ele>
        <time>2021-03-27T13:05:04Z</time>
      </trkpt>
      <trkpt lat="42.904954" lon="-4.626725">
        <ele>1324.51</ele>
        <time>2021-03-27T13:05:06Z</time>
      </trkpt>
      <trkpt lat="42.905036" lon="-4.62648">
        <ele>1322.2</ele>
        <time>2021-03-27T13:05:09Z</time>
      </trkpt>
      <trkpt lat="42.905171" lon="-4.626343">
        <ele>1321.73</ele>
        <time>2021-03-27T13:05:12Z</time>
      </trkpt>
      <trkpt lat="42.905264" lon="-4.62629">
        <ele>1321.74</ele>
        <time>2021-03-27T13:05:14Z</time>
      </trkpt>
      <trkpt lat="42.905343" lon="-4.626275">
        <ele>1321.02</ele>
        <time>2021-03-27T13:05:17Z</time>
      </trkpt>
      <trkpt lat="42.905593" lon="-4.626307">
        <ele>1320.32</ele>
        <time>2021-03-27T13:05:19Z</time>
      </trkpt>
      <trkpt lat="42.905741" lon="-4.626275">
        <ele>1321.76</ele>
        <time>2021-03-27T13:05:22Z</time>
      </trkpt>
      <trkpt lat="42.905932" lon="-4.626171">
        <ele>1322.78</ele>
        <time>2021-03-27T13:05:25Z</time>
      </trkpt>
      <trkpt lat="42.906024" lon="-4.6261">
        <ele>1323.17</ele>
        <time>2021-03-27T13:05:27Z</time>
      </trkpt>
      <trkpt lat="42.906113" lon="-4.62599">
        <ele>1322.02</ele>
        <time>2021-03-27T13:05:30Z</time>
      </trkpt>
      <trkpt lat="42.906174" lon="-4.625867">
        <ele>1321.05</ele>
        <time>2021-03-27T13:05:32Z</time>
      </trkpt>
      <trkpt lat="42.906248" lon="-4.625634">
        <ele>1318.63</ele>
        <time>2021-03-27T13:05:35Z</time>
      </trkpt>
      <trkpt lat="42.906342" lon="-4.625118">
        <ele>1310.71</ele>
        <time>2021-03-27T13:05:38Z</time>
      </trkpt>
      <trkpt lat="42.906454" lon="-4.624307">
        <ele>1304.26</ele>
        <time>2021-03-27T13:05:40Z</time>
      </trkpt>
      <trkpt lat="42.906499" lon="-4.624148">
        <ele>1304.22</ele>
        <time>2021-03-27T13:05:43Z</time>
      </trkpt>
      <trkpt lat="42.9066" lon="-4.623972">
        <ele>1304.26</ele>
        <time>2021-03-27T13:05:45Z</time>
      </trkpt>
      <trkpt lat="42.90689" lon="-4.623803">
        <ele>1305.68</ele>
        <time>2021-03-27T13:05:48Z</time>
      </trkpt>
      <trkpt lat="42.907052" lon="-4.623658">
        <ele>1307.01</ele>
        <time>2021-03-27T13:05:51Z</time>
      </trkpt>
      <trkpt lat="42.907117" lon="-4.623577">
        <ele>1307.51</ele>
        <time>2021-03-27T13:05:53Z</time>
      </trkpt>
      <trkpt lat="42.907235" lon="-4.623348">
        <ele>1308.68</ele>
        <time>2021-03-27T13:05:56Z</time>
      </trkpt>
      <trkpt lat="42.907289" lon="-4.623086">
        <ele>1307.3</ele>
        <time>2021-03-27T13:05:59Z</time>
      </trkpt>
      <trkpt lat="42.907291" lon="-4.622954">
        <ele>1305.26</ele>
        <time>2021-03-27T13:06:01Z</time>
      </trkpt>
      <trkpt lat="42.90726" lon="-4.622694">
        <ele>1300.22</ele>
        <time>2021-03-27T13:06:04Z</time>
      </trkpt>
      <trkpt lat="42.907178" lon="-4.622438">
        <ele>1295.33</ele>
        <time>2021-03-27T13:06:06Z</time>
      </trkpt>
      <trkpt lat="42.906814" lon="-4.621694">
        <ele>1294.44</ele>
        <time>2021-03-27T13:06:09Z</time>
      </trkpt>
      <trkpt lat="42.906721" lon="-4.621348">
        <ele>1291.49</ele>
        <time>2021-03-27T13:06:12Z</time>
      </trkpt>
      <trkpt lat="42.906683" lon="-4.621117">
        <ele>1289.71</ele>
        <time>2021-03-27T13:06:14Z</time>
      </trkpt>
      <trkpt lat="42.906661" lon="-4.620731">
        <ele>1286.69</ele>
        <time>2021-03-27T13:06:17Z</time>
      </trkpt>
      <trkpt lat="42.906668" lon="-4.620557">
        <ele>1285.06</ele>
        <time>2021-03-27T13:06:19Z</time>
      </trkpt>
      <trkpt lat="42.906722" lon="-4.620183">
        <ele>1282.37</ele>
        <time>2021-03-27T13:06:22Z</time>
      </trkpt>
      <trkpt lat="42.90682" lon="-4.619821">
        <ele>1278.78</ele>
        <time>2021-03-27T13:06:25Z</time>
      </trkpt>
      <trkpt lat="42.906914" lon="-4.619551">
        <ele>1278.99</ele>
        <time>2021-03-27T13:06:27Z</time>
      </trkpt>
      <trkpt lat="42.907386" lon="-4.618402">
        <ele>1273.86</ele>
        <time>2021-03-27T13:06:30Z</time>
      </trkpt>
      <trkpt lat="42.907608" lon="-4.618013">
        <ele>1271.05</ele>
        <time>2021-03-27T13:06:32Z</time>
      </trkpt>
      <trkpt lat="42.907839" lon="-4.617695">
        <ele>1269.08</ele>
        <time>2021-03-27T13:06:35Z</time>
      </trkpt>
      <trkpt lat="42.907985" lon="-4.617389">
        <ele>1265.97</ele>
        <time>2021-03-27T13:06:38Z</time>
      </trkpt>
      <trkpt lat="42.908022" lon="-4.617233">
        <ele>1265.03</ele>
        <time>2021-03-27T13:06:40Z</time>
      </trkpt>
      <trkpt lat="42.908049" lon="-4.616949">
        <ele>1262.81</ele>
        <time>2021-03-27T13:06:43Z</time>
      </trkpt>
      <trkpt lat="42.907994" lon="-4.616227">
        <ele>1258.01</ele>
        <time>2021-03-27T13:06:46Z</time>
      </trkpt>
      <trkpt lat="42.908034" lon="-4.615935">
        <ele>1257.57</ele>
        <time>2021-03-27T13:06:48Z</time>
      </trkpt>
      <trkpt lat="42.908073" lon="-4.615813">
        <ele>1257.32</ele>
        <time>2021-03-27T13:06:51Z</time>
      </trkpt>
      <trkpt lat="42.908134" lon="-4.615688">
        <ele>1256.75</ele>
        <time>2021-03-27T13:06:53Z</time>
      </trkpt>
      <trkpt lat="42.908227" lon="-4.615555">
        <ele>1255.7</ele>
        <time>2021-03-27T13:06:56Z</time>
      </trkpt>
      <trkpt lat="42.90915" lon="-4.614562">
        <ele>1256.11</ele>
        <time>2021-03-27T13:06:59Z</time>
      </trkpt>
      <trkpt lat="42.90923" lon="-4.614443">
        <ele>1254.42</ele>
        <time>2021-03-27T13:07:01Z</time>
      </trkpt>
      <trkpt lat="42.909271" lon="-4.614331">
        <ele>1252.29</ele>
        <time>2021-03-27T13:07:04Z</time>
      </trkpt>
      <trkpt lat="42.909301" lon="-4.614107">
        <ele>1248.21</ele>
        <time>2021-03-27T13:07:06Z</time>
      </trkpt>
      <trkpt lat="42.909294" lon="-4.613983">
        <ele>1246.52</ele>
        <time>2021-03-27T13:07:09Z</time>
      </trkpt>
      <trkpt lat="42.909242" lon="-4.613808">
        <ele>1244.56</ele>
        <time>2021-03-27T13:07:12Z</time>
      </trkpt>
      <trkpt lat="42.909132" lon="-4.613651">
        <ele>1242.98</ele>
        <time>2021-03-27T13:07:14Z</time>
      </trkpt>
      <trkpt lat="42.908533" lon="-4.61332">
        <ele>1237.3</ele>
        <time>2021-03-27T13:07:17Z</time>
      </trkpt>
      <trkpt lat="42.90845" lon="-4.61325">
        <ele>1237.17</ele>
        <time>2021-03-27T13:07:19Z</time>
      </trkpt>
      <trkpt lat="42.908321" lon="-4.613059">
        <ele>1237.74</ele>
        <time>2021-03-27T13:07:22Z</time>
      </trkpt>
      <trkpt lat="42.908241" lon="-4.612808">
        <ele>1237.82</ele>
        <time>2021-03-27T13:07:25Z</time>
      </trkpt>
      <trkpt lat="42.908051" lon="-4.61191">
        <ele>1232.01</ele>
        <time>2021-03-27T13:07:27Z</time>
      </trkpt>
      <trkpt lat="42.907933" lon="-4.611573">
        <ele>1231.11</ele>
        <time>2021-03-27T13:07:30Z</time>
      </trkpt>
      <trkpt lat="42.907396" lon="-4.610446">
        <ele>1226.18</ele>
        <time>2021-03-27T13:07:32Z</time>
      </trkpt>
      <trkpt lat="42.907199" lon="-4.61015">
        <ele>1220.67</ele>
        <time>2021-03-27T13:07:35Z</time>
      </trkpt>
      <trkpt lat="42.906911" lon="-4.609805">
        <ele>1213.79</ele>
        <time>2021-03-27T13:07:38Z</time>
      </trkpt>
      <trkpt lat="42.906366" lon="-4.609208">
        <ele>1210.59</ele>
        <time>2021-03-27T13:07:40Z</time>
      </trkpt>
      <trkpt lat="42.90626" lon="-4.609031">
        <ele>1210.52</ele>
        <time>2021-03-27T13:07:43Z</time>
      </trkpt>
      <trkpt lat="42.906241" lon="-4.608941">
        <ele>1211.13</ele>
        <time>2021-03-27T13:07:46Z</time>
      </trkpt>
      <trkpt lat="42.906253" lon="-4.608846">
        <ele>1211.48</ele>
        <time>2021-03-27T13:07:48Z</time>
      </trkpt>
      <trkpt lat="42.906283" lon="-4.608785">
        <ele>1211.2</ele>
        <time>2021-03-27T13:07:51Z</time>
      </trkpt>
      <trkpt lat="42.906394" lon="-4.608683">
        <ele>1209.51</ele>
        <time>2021-03-27T13:07:53Z</time>
      </trkpt>
      <trkpt lat="42.906511" lon="-4.608626">
        <ele>1208.74</ele>
        <time>2021-03-27T13:07:56Z</time>
      </trkpt>
      <trkpt lat="42.907073" lon="-4.608455">
        <ele>1205.25</ele>
        <time>2021-03-27T13:07:59Z</time>
      </trkpt>
      <trkpt lat="42.907179" lon="-4.608433">
        <ele>1205.08</ele>
        <time>2021-03-27T13:08:01Z</time>
      </trkpt>
      <trkpt lat="42.907494" lon="-4.60843">
        <ele>1209.34</ele>
        <time>2021-03-27T13:08:04Z</time>
      </trkpt>
      <trkpt lat="42.907644" lon="-4.608387">
        <ele>1206.16</ele>
        <time>2021-03-27T13:08:06Z</time>
      </trkpt>
      <trkpt lat="42.907934" lon="-4.608204">
        <ele>1200.73</ele>
        <time>2021-03-27T13:08:09Z</time>
      </trkpt>
      <trkpt lat="42.908119" lon="-4.608118">
        <ele>1201.72</ele>
        <time>2021-03-27T13:08:12Z</time>
      </trkpt>
      <trkpt lat="42.908424" lon="-4.608018">
        <ele>1208.32</ele>
        <time>2021-03-27T13:08:14Z</time>
      </trkpt>
      <trkpt lat="42.908495" lon="-4.607931">
        <ele>1209.08</ele>
        <time>2021-03-27T13:08:17Z</time>
      </trkpt>
      <trkpt lat="42.908535" lon="-4.607814">
        <ele>1209.28</ele>
        <time>2021-03-27T13:08:19Z</time>
      </trkpt>
      <trkpt lat="42.908543" lon="-4.607691">
        <ele>1208.89</ele>
        <time>2021-03-27T13:08:22Z</time>
      </trkpt>
      <trkpt lat="42.908527" lon="-4.607194">
        <ele>1204.07</ele>
        <time>2021-03-27T13:08:25Z</time>
      </trkpt>
      <trkpt lat="42.90849" lon="-4.607025">
        <ele>1203.11</ele>
        <time>2021-03-27T13:08:27Z</time>
      </trkpt>
      <trkpt lat="42.908378" lon="-4.606865">
        <ele>1204.33</ele>
        <time>2021-03-27T13:08:30Z</time>
      </trkpt>
      <trkpt lat="42.908148" lon="-4.606618">
        <ele>1204.33</ele>
        <time>2021-03-27T13:08:33Z</time>
      </trkpt>
      <trkpt lat="42.907707" lon="-4.606204">
        <ele>1200.7</ele>
        <time>2021-03-27T13:08:35Z</time>
      </trkpt>
      <trkpt lat="42.907297" lon="-4.605884">
        <ele>1193.89</ele>
        <time>2021-03-27T13:08:38Z</time>
      </trkpt>
      <trkpt lat="42.907099" lon="-4.605652">
        <ele>1192.56</ele>
        <time>2021-03-27T13:08:40Z</time>
      </trkpt>
      <trkpt lat="42.906921" lon="-4.605352">
        <ele>1191.07</ele>
        <time>2021-03-27T13:08:43Z</time>
      </trkpt>
      <trkpt lat="42.906619" lon="-4.60463">
        <ele>1185.41</ele>
        <time>2021-03-27T13:08:46Z</time>
      </trkpt>
      <trkpt lat="42.906509" lon="-4.60428">
        <ele>1183.04</ele>
        <time>2021-03-27T13:08:48Z</time>
      </trkpt>
      <trkpt lat="42.906474" lon="-4.604014">
        <ele>1182.5</ele>
        <time>2021-03-27T13:08:51Z</time>
      </trkpt>
      <trkpt lat="42.906491" lon="-4.603681">
        <ele>1183.41</ele>
        <time>2021-03-27T13:08:53Z</time>
      </trkpt>
      <trkpt lat="42.906524" lon="-4.60351">
        <ele>1184.69</ele>
        <time>2021-03-27T13:08:56Z</time>
      </trkpt>
      <trkpt lat="42.906575" lon="-4.603356">
        <ele>1186.12</ele>
        <time>2021-03-27T13:08:59Z</time>
      </trkpt>
      <trkpt lat="42.906654" lon="-4.603196">
        <ele>1186.59</ele>
        <time>2021-03-27T13:09:01Z</time>
      </trkpt>
      <trkpt lat="42.906989" lon="-4.602642">
        <ele>1182.1</ele>
        <time>2021-03-27T13:09:04Z</time>
      </trkpt>
      <trkpt lat="42.907044" lon="-4.602517">
        <ele>1181.48</ele>
        <time>2021-03-27T13:09:06Z</time>
      </trkpt>
      <trkpt lat="42.907104" lon="-4.60222">
        <ele>1180.89</ele>
        <time>2021-03-27T13:09:09Z</time>
      </trkpt>
      <trkpt lat="42.907111" lon="-4.60194">
        <ele>1181.37</ele>
        <time>2021-03-27T13:09:12Z</time>
      </trkpt>
      <trkpt lat="42.907095" lon="-4.601784">
        <ele>1180.34</ele>
        <time>2021-03-27T13:09:14Z</time>
      </trkpt>
      <trkpt lat="42.90692" lon="-4.600919">
        <ele>1175.95</ele>
        <time>2021-03-27T13:09:17Z</time>
      </trkpt>
      <trkpt lat="42.906899" lon="-4.600748">
        <ele>1176.98</ele>
        <time>2021-03-27T13:09:20Z</time>
      </trkpt>
      <trkpt lat="42.906898" lon="-4.600509">
        <ele>1177.88</ele>
        <time>2021-03-27T13:09:22Z</time>
      </trkpt>
      <trkpt lat="42.906942" lon="-4.60026">
        <ele>1176.63</ele>
        <time>2021-03-27T13:09:25Z</time>
      </trkpt>
      <trkpt lat="42.907045" lon="-4.600059">
        <ele>1175.3</ele>
        <time>2021-03-27T13:09:27Z</time>
      </trkpt>
      <trkpt lat="42.907227" lon="-4.599901">
        <ele>1175.86</ele>
        <time>2021-03-27T13:09:30Z</time>
      </trkpt>
      <trkpt lat="42.908202" lon="-4.599394">
        <ele>1173.61</ele>
        <time>2021-03-27T13:09:33Z</time>
      </trkpt>
      <trkpt lat="42.908348" lon="-4.599232">
        <ele>1171.38</ele>
        <time>2021-03-27T13:09:35Z</time>
      </trkpt>
      <trkpt lat="42.908404" lon="-4.599067">
        <ele>1169.95</ele>
        <time>2021-03-27T13:09:38Z</time>
      </trkpt>
      <trkpt lat="42.908428" lon="-4.598836">
        <ele>1168.57</ele>
        <time>2021-03-27T13:09:40Z</time>
      </trkpt>
      <trkpt lat="42.908411" lon="-4.598505">
        <ele>1169.59</ele>
        <time>2021-03-27T13:09:43Z</time>
      </trkpt>
      <trkpt lat="42.908196" lon="-4.597362">
        <ele>1179.13</ele>
        <time>2021-03-27T13:09:46Z</time>
      </trkpt>
      <trkpt lat="42.908159" lon="-4.597248">
        <ele>1178.13</ele>
        <time>2021-03-27T13:09:48Z</time>
      </trkpt>
      <trkpt lat="42.908059" lon="-4.597103">
        <ele>1174.95</ele>
        <time>2021-03-27T13:09:51Z</time>
      </trkpt>
      <trkpt lat="42.907918" lon="-4.59702">
        <ele>1174.69</ele>
        <time>2021-03-27T13:09:53Z</time>
      </trkpt>
      <trkpt lat="42.907827" lon="-4.596994">
        <ele>1173.42</ele>
        <time>2021-03-27T13:09:56Z</time>
      </trkpt>
      <trkpt lat="42.907704" lon="-4.596993">
        <ele>1171.19</ele>
        <time>2021-03-27T13:09:59Z</time>
      </trkpt>
      <trkpt lat="42.907602" lon="-4.597019">
        <ele>1168.8</ele>
        <time>2021-03-27T13:10:01Z</time>
      </trkpt>
      <trkpt lat="42.907401" lon="-4.597116">
        <ele>1163.26</ele>
        <time>2021-03-27T13:10:04Z</time>
      </trkpt>
      <trkpt lat="42.907222" lon="-4.597155">
        <ele>1161.46</ele>
        <time>2021-03-27T13:10:06Z</time>
      </trkpt>
      <trkpt lat="42.907088" lon="-4.597123">
        <ele>1161.22</ele>
        <time>2021-03-27T13:10:09Z</time>
      </trkpt>
      <trkpt lat="42.906824" lon="-4.59693">
        <ele>1164.93</ele>
        <time>2021-03-27T13:10:12Z</time>
      </trkpt>
      <trkpt lat="42.906757" lon="-4.596901">
        <ele>1164.66</ele>
        <time>2021-03-27T13:10:14Z</time>
      </trkpt>
      <trkpt lat="42.906603" lon="-4.596889">
        <ele>1164.07</ele>
        <time>2021-03-27T13:10:17Z</time>
      </trkpt>
      <trkpt lat="42.906439" lon="-4.596962">
        <ele>1163.42</ele>
        <time>2021-03-27T13:10:20Z</time>
      </trkpt>
      <trkpt lat="42.906033" lon="-4.597325">
        <ele>1165.07</ele>
        <time>2021-03-27T13:10:22Z</time>
      </trkpt>
      <trkpt lat="42.905835" lon="-4.59744">
        <ele>1163.7</ele>
        <time>2021-03-27T13:10:25Z</time>
      </trkpt>
      <trkpt lat="42.905595" lon="-4.597514">
        <ele>1157.23</ele>
        <time>2021-03-27T13:10:27Z</time>
      </trkpt>
      <trkpt lat="42.90538" lon="-4.597546">
        <ele>1154.25</ele>
        <time>2021-03-27T13:10:30Z</time>
      </trkpt>
      <trkpt lat="42.905066" lon="-4.597555">
        <ele>1152.0</ele>
        <time>2021-03-27T13:10:33Z</time>
      </trkpt>
      <trkpt lat="42.904827" lon="-4.597486">
        <ele>1150.3</ele>
        <time>2021-03-27T13:10:35Z</time>
      </trkpt>
      <trkpt lat="42.9046" lon="-4.597352">
        <ele>1149.84</ele>
        <time>2021-03-27T13:10:38Z</time>
      </trkpt>
      <trkpt lat="42.903889" lon="-4.596791">
        <ele>1151.32</ele>
        <time>2021-03-27T13:10:40Z</time>
      </trkpt>
      <trkpt lat="42.90279" lon="-4.596132">
        <ele>1145.86</ele>
        <time>2021-03-27T13:10:43Z</time>
      </trkpt>
      <trkpt lat="42.901537" lon="-4.595525">
        <ele>1141.95</ele>
        <time>2021-03-27T13:10:46Z</time>
      </trkpt>
      <trkpt lat="42.901363" lon="-4.595423">
        <ele>1139.0</ele>
        <time>2021-03-27T13:10:48Z</time>
      </trkpt>
      <trkpt lat="42.901202" lon="-4.595287">
        <ele>1137.86</ele>
        <time>2021-03-27T13:10:51Z</time>
      </trkpt>
      <trkpt lat="42.901039" lon="-4.595077">
        <ele>1136.86</ele>
        <time>2021-03-27T13:10:53Z</time>
      </trkpt>
      <trkpt lat="42.900723" lon="-4.594607">
        <ele>1134.85</ele>
        <time>2021-03-27T13:10:56Z</time>
      </trkpt>
      <trkpt lat="42.900614" lon="-4.594351">
        <ele>1129.91</ele>
        <time>2021-03-27T13:10:59Z</time>
      </trkpt>
      <trkpt lat="42.900593" lon="-4.594168">
        <ele>1128.35</ele>
        <time>2021-03-27T13:11:01Z</time>
      </trkpt>
      <trkpt lat="42.900601" lon="-4.593956">
        <ele>1128.14</ele>
        <time>2021-03-27T13:11:04Z</time>
      </trkpt>
      <trkpt lat="42.900651" lon="-4.593783">
        <ele>1128.54</ele>
        <time>2021-03-27T13:11:07Z</time>
      </trkpt>
      <trkpt lat="42.900719" lon="-4.593652">
        <ele>1128.52</ele>
        <time>2021-03-27T13:11:09Z</time>
      </trkpt>
      <trkpt lat="42.900814" lon="-4.593542">
        <ele>1127.83</ele>
        <time>2021-03-27T13:11:12Z</time>
      </trkpt>
      <trkpt lat="42.900907" lon="-4.593473">
        <ele>1127.41</ele>
        <time>2021-03-27T13:11:14Z</time>
      </trkpt>
      <trkpt lat="42.901008" lon="-4.593443">
        <ele>1127.46</ele>
        <time>2021-03-27T13:11:17Z</time>
      </trkpt>
      <trkpt lat="42.901346" lon="-4.593495">
        <ele>1127.22</ele>
        <time>2021-03-27T13:11:20Z</time>
      </trkpt>
      <trkpt lat="42.90148" lon="-4.593466">
        <ele>1127.35</ele>
        <time>2021-03-27T13:11:22Z</time>
      </trkpt>
      <trkpt lat="42.901586" lon="-4.593376">
        <ele>1126.42</ele>
        <time>2021-03-27T13:11:25Z</time>
      </trkpt>
      <trkpt lat="42.901826" lon="-4.593054">
        <ele>1123.84</ele>
        <time>2021-03-27T13:11:27Z</time>
      </trkpt>
      <trkpt lat="42.901914" lon="-4.592837">
        <ele>1120.99</ele>
        <time>2021-03-27T13:11:30Z</time>
      </trkpt>
      <trkpt lat="42.901928" lon="-4.592644">
        <ele>1119.43</ele>
        <time>2021-03-27T13:11:33Z</time>
      </trkpt>
      <trkpt lat="42.901896" lon="-4.592446">
        <ele>1119.41</ele>
        <time>2021-03-27T13:11:35Z</time>
      </trkpt>
      <trkpt lat="42.901804" lon="-4.592257">
        <ele>1121.11</ele>
        <time>2021-03-27T13:11:38Z</time>
      </trkpt>
      <trkpt lat="42.901656" lon="-4.592129">
        <ele>1122.11</ele>
        <time>2021-03-27T13:11:40Z</time>
      </trkpt>
      <trkpt lat="42.901314" lon="-4.592007">
        <ele>1119.29</ele>
        <time>2021-03-27T13:11:43Z</time>
      </trkpt>
      <trkpt lat="42.900001" lon="-4.591655">
        <ele>1111.42</ele>
        <time>2021-03-27T13:11:46Z</time>
      </trkpt>
      <trkpt lat="42.899697" lon="-4.591606">
        <ele>1111.74</ele>
        <time>2021-03-27T13:11:48Z</time>
      </trkpt>
      <trkpt lat="42.899169" lon="-4.591627">
        <ele>1111.27</ele>
        <time>2021-03-27T13:11:51Z</time>
      </trkpt>
      <trkpt lat="42.899169" lon="-4.591627">
        <ele>1111.27</ele>
        <time>2021-03-27T13:11:51Z</time>
      </trkpt>
      <trkpt lat="42.899032" lon="-4.591633">
        <ele>1110.79</ele>
        <time>2021-03-27T13:11:54Z</time>
      </trkpt>
      <trkpt lat="42.898759" lon="-4.591588">
        <ele>1109.88</ele>
        <time>2021-03-27T13:11:57Z</time>
      </trkpt>
      <trkpt lat="42.898604" lon="-4.591515">
        <ele>1109.18</ele>
        <time>2021-03-27T13:11:59Z</time>
      </trkpt>
      <trkpt lat="42.898395" lon="-4.591366">
        <ele>1110.18</ele>
        <time>2021-03-27T13:12:02Z</time>
      </trkpt>
      <trkpt lat="42.898271" lon="-4.591218">
        <ele>1108.49</ele>
        <time>2021-03-27T13:12:05Z</time>
      </trkpt>
      <trkpt lat="42.898171" lon="-4.591038">
        <ele>1106.5</ele>
        <time>2021-03-27T13:12:07Z</time>
      </trkpt>
      <trkpt lat="42.897967" lon="-4.590486">
        <ele>1105.94</ele>
        <time>2021-03-27T13:12:10Z</time>
      </trkpt>
      <trkpt lat="42.897926" lon="-4.590412">
        <ele>1105.84</ele>
        <time>2021-03-27T13:12:13Z</time>
      </trkpt>
      <trkpt lat="42.897828" lon="-4.590308">
        <ele>1104.77</ele>
        <time>2021-03-27T13:12:15Z</time>
      </trkpt>
      <trkpt lat="42.897681" lon="-4.590227">
        <ele>1103.89</ele>
        <time>2021-03-27T13:12:18Z</time>
      </trkpt>
      <trkpt lat="42.897058" lon="-4.590006">
        <ele>1099.05</ele>
        <time>2021-03-27T13:12:20Z</time>
      </trkpt>
      <trkpt lat="42.896848" lon="-4.589904">
        <ele>1096.07</ele>
        <time>2021-03-27T13:12:23Z</time>
      </trkpt>
      <trkpt lat="42.896605" lon="-4.58974">
        <ele>1093.27</ele>
        <time>2021-03-27T13:12:26Z</time>
      </trkpt>
      <trkpt lat="42.895835" lon="-4.589121">
        <ele>1087.35</ele>
        <time>2021-03-27T13:12:28Z</time>
      </trkpt>
      <trkpt lat="42.895756" lon="-4.589016">
        <ele>1086.67</ele>
        <time>2021-03-27T13:12:31Z</time>
      </trkpt>
      <trkpt lat="42.895592" lon="-4.588723">
        <ele>1084.9</ele>
        <time>2021-03-27T13:12:34Z</time>
      </trkpt>
      <trkpt lat="42.894085" lon="-4.58578">
        <ele>1073.0</ele>
        <time>2021-03-27T13:12:36Z</time>
      </trkpt>
      <trkpt lat="42.893903" lon="-4.585461">
        <ele>1073.02</ele>
        <time>2021-03-27T13:12:39Z</time>
      </trkpt>
      <trkpt lat="42.893828" lon="-4.585356">
        <ele>1073.0</ele>
        <time>2021-03-27T13:12:42Z</time>
      </trkpt>
      <trkpt lat="42.893714" lon="-4.585246">
        <ele>1073.08</ele>
        <time>2021-03-27T13:12:44Z</time>
      </trkpt>
      <trkpt lat="42.892699" lon="-4.584429">
        <ele>1069.33</ele>
        <time>2021-03-27T13:12:47Z</time>
      </trkpt>
      <trkpt lat="42.892449" lon="-4.584182">
        <ele>1067.42</ele>
        <time>2021-03-27T13:12:49Z</time>
      </trkpt>
      <trkpt lat="42.892195" lon="-4.583826">
        <ele>1064.18</ele>
        <time>2021-03-27T13:12:52Z</time>
      </trkpt>
      <trkpt lat="42.890207" lon="-4.580334">
        <ele>1065.74</ele>
        <time>2021-03-27T13:12:55Z</time>
      </trkpt>
      <trkpt lat="42.889696" lon="-4.579483">
        <ele>1057.67</ele>
        <time>2021-03-27T13:12:57Z</time>
      </trkpt>
      <trkpt lat="42.88733" lon="-4.575857">
        <ele>1062.46</ele>
        <time>2021-03-27T13:13:00Z</time>
      </trkpt>
      <trkpt lat="42.886158" lon="-4.574286">
        <ele>1058.48</ele>
        <time>2021-03-27T13:13:03Z</time>
      </trkpt>
      <trkpt lat="42.885471" lon="-4.573125">
        <ele>1055.32</ele>
        <time>2021-03-27T13:13:05Z</time>
      </trkpt>
      <trkpt lat="42.885387" lon="-4.572959">
        <ele>1056.48</ele>
        <time>2021-03-27T13:13:08Z</time>
      </trkpt>
      <trkpt lat="42.885137" lon="-4.572257">
        <ele>1059.86</ele>
        <time>2021-03-27T13:13:11Z</time>
      </trkpt>
      <trkpt lat="42.883874" lon="-4.568189">
        <ele>1050.95</ele>
        <time>2021-03-27T13:13:13Z</time>
      </trkpt>
      <trkpt lat="42.883466" lon="-4.566922">
        <ele>1057.04</ele>
        <time>2021-03-27T13:13:16Z</time>
      </trkpt>
      <trkpt lat="42.883344" lon="-4.566642">
        <ele>1057.0</ele>
        <time>2021-03-27T13:13:18Z</time>
      </trkpt>
      <trkpt lat="42.88223" lon="-4.564555">
        <ele>1051.88</ele>
        <time>2021-03-27T13:13:21Z</time>
      </trkpt>
      <trkpt lat="42.882101" lon="-4.564228">
        <ele>1052.91</ele>
        <time>2021-03-27T13:13:24Z</time>
      </trkpt>
      <trkpt lat="42.882012" lon="-4.563756">
        <ele>1050.25</ele>
        <time>2021-03-27T13:13:26Z</time>
      </trkpt>
      <trkpt lat="42.881858" lon="-4.562451">
        <ele>1048.68</ele>
        <time>2021-03-27T13:13:29Z</time>
      </trkpt>
      <trkpt lat="42.881805" lon="-4.562132">
        <ele>1049.48</ele>
        <time>2021-03-27T13:13:32Z</time>
      </trkpt>
      <trkpt lat="42.881706" lon="-4.561815">
        <ele>1048.77</ele>
        <time>2021-03-27T13:13:34Z</time>
      </trkpt>
      <trkpt lat="42.881398" lon="-4.561293">
        <ele>1047.09</ele>
        <time>2021-03-27T13:13:37Z</time>
      </trkpt>
      <trkpt lat="42.881035" lon="-4.560702">
        <ele>1052.9</ele>
        <time>2021-03-27T13:13:40Z</time>
      </trkpt>
      <trkpt lat="42.880873" lon="-4.560501">
        <ele>1056.85</ele>
        <time>2021-03-27T13:13:42Z</time>
      </trkpt>
      <trkpt lat="42.880758" lon="-4.560424">
        <ele>1057.12</ele>
        <time>2021-03-27T13:13:45Z</time>
      </trkpt>
      <trkpt lat="42.880404" lon="-4.560387">
        <ele>1053.58</ele>
        <time>2021-03-27T13:13:47Z</time>
      </trkpt>
      <trkpt lat="42.880222" lon="-4.560284">
        <ele>1053.7</ele>
        <time>2021-03-27T13:13:50Z</time>
      </trkpt>
      <trkpt lat="42.880112" lon="-4.56019">
        <ele>1054.42</ele>
        <time>2021-03-27T13:13:53Z</time>
      </trkpt>
      <trkpt lat="42.880024" lon="-4.560083">
        <ele>1054.67</ele>
        <time>2021-03-27T13:13:55Z</time>
      </trkpt>
      <trkpt lat="42.879951" lon="-4.559956">
        <ele>1054.91</ele>
        <time>2021-03-27T13:13:58Z</time>
      </trkpt>
      <trkpt lat="42.87989" lon="-4.559797">
        <ele>1056.06</ele>
        <time>2021-03-27T13:14:01Z</time>
      </trkpt>
      <trkpt lat="42.879854" lon="-4.559614">
        <ele>1057.91</ele>
        <time>2021-03-27T13:14:03Z</time>
      </trkpt>
      <trkpt lat="42.879834" lon="-4.559234">
        <ele>1061.04</ele>
        <time>2021-03-27T13:14:06Z</time>
      </trkpt>
      <trkpt lat="42.879802" lon="-4.559139">
        <ele>1060.62</ele>
        <time>2021-03-27T13:14:09Z</time>
      </trkpt>
      <trkpt lat="42.879628" lon="-4.558896">
        <ele>1055.99</ele>
        <time>2021-03-27T13:14:11Z</time>
      </trkpt>
      <trkpt lat="42.879546" lon="-4.558751">
        <ele>1054.2</ele>
        <time>2021-03-27T13:14:14Z</time>
      </trkpt>
      <trkpt lat="42.879439" lon="-4.558457">
        <ele>1052.5</ele>
        <time>2021-03-27T13:14:16Z</time>
      </trkpt>
      <trkpt lat="42.879378" lon="-4.55817">
        <ele>1053.02</ele>
        <time>2021-03-27T13:14:19Z</time>
      </trkpt>
      <trkpt lat="42.879371" lon="-4.558002">
        <ele>1053.81</ele>
        <time>2021-03-27T13:14:22Z</time>
      </trkpt>
      <trkpt lat="42.879418" lon="-4.557271">
        <ele>1056.56</ele>
        <time>2021-03-27T13:14:24Z</time>
      </trkpt>
      <trkpt lat="42.879528" lon="-4.55625">
        <ele>1053.1</ele>
        <time>2021-03-27T13:14:27Z</time>
      </trkpt>
      <trkpt lat="42.879603" lon="-4.55593">
        <ele>1052.77</ele>
        <time>2021-03-27T13:14:30Z</time>
      </trkpt>
      <trkpt lat="42.880201" lon="-4.553835">
        <ele>1052.81</ele>
        <time>2021-03-27T13:14:32Z</time>
      </trkpt>
      <trkpt lat="42.880278" lon="-4.553455">
        <ele>1051.88</ele>
        <time>2021-03-27T13:14:35Z</time>
      </trkpt>
      <trkpt lat="42.880291" lon="-4.553155">
        <ele>1049.71</ele>
        <time>2021-03-27T13:14:38Z</time>
      </trkpt>
      <trkpt lat="42.880282" lon="-4.552845">
        <ele>1048.23</ele>
        <time>2021-03-27T13:14:40Z</time>
      </trkpt>
      <trkpt lat="42.880216" lon="-4.552212">
        <ele>1044.36</ele>
        <time>2021-03-27T13:14:43Z</time>
      </trkpt>
      <trkpt lat="42.880257" lon="-4.551891">
        <ele>1041.87</ele>
        <time>2021-03-27T13:14:45Z</time>
      </trkpt>
      <trkpt lat="42.880434" lon="-4.551321">
        <ele>1042.58</ele>
        <time>2021-03-27T13:14:48Z</time>
      </trkpt>
      <trkpt lat="42.880508" lon="-4.551035">
        <ele>1043.59</ele>
        <time>2021-03-27T13:14:51Z</time>
      </trkpt>
      <trkpt lat="42.880521" lon="-4.550751">
        <ele>1045.61</ele>
        <time>2021-03-27T13:14:53Z</time>
      </trkpt>
      <trkpt lat="42.880412" lon="-4.549862">
        <ele>1048.57</ele>
        <time>2021-03-27T13:14:56Z</time>
      </trkpt>
      <trkpt lat="42.880409" lon="-4.54953">
        <ele>1046.12</ele>
        <time>2021-03-27T13:14:59Z</time>
      </trkpt>
      <trkpt lat="42.880437" lon="-4.549209">
        <ele>1044.12</ele>
        <time>2021-03-27T13:15:01Z</time>
      </trkpt>
      <trkpt lat="42.880506" lon="-4.548917">
        <ele>1044.0</ele>
        <time>2021-03-27T13:15:04Z</time>
      </trkpt>
      <trkpt lat="42.880621" lon="-4.548675">
        <ele>1045.14</ele>
        <time>2021-03-27T13:15:07Z</time>
      </trkpt>
      <trkpt lat="42.880802" lon="-4.548503">
        <ele>1046.51</ele>
        <time>2021-03-27T13:15:09Z</time>
      </trkpt>
      <trkpt lat="42.881011" lon="-4.548414">
        <ele>1046.09</ele>
        <time>2021-03-27T13:15:12Z</time>
      </trkpt>
      <trkpt lat="42.881237" lon="-4.548389">
        <ele>1045.73</ele>
        <time>2021-03-27T13:15:14Z</time>
      </trkpt>
      <trkpt lat="42.881454" lon="-4.5484">
        <ele>1045.4</ele>
        <time>2021-03-27T13:15:17Z</time>
      </trkpt>
      <trkpt lat="42.881658" lon="-4.548383">
        <ele>1044.63</ele>
        <time>2021-03-27T13:15:20Z</time>
      </trkpt>
      <trkpt lat="42.881904" lon="-4.548202">
        <ele>1046.96</ele>
        <time>2021-03-27T13:15:22Z</time>
      </trkpt>
      <trkpt lat="42.882009" lon="-4.547877">
        <ele>1042.67</ele>
        <time>2021-03-27T13:15:25Z</time>
      </trkpt>
      <trkpt lat="42.881962" lon="-4.547558">
        <ele>1040.39</ele>
        <time>2021-03-27T13:15:28Z</time>
      </trkpt>
      <trkpt lat="42.881763" lon="-4.547366">
        <ele>1044.71</ele>
        <time>2021-03-27T13:15:30Z</time>
      </trkpt>
      <trkpt lat="42.881578" lon="-4.54734">
        <ele>1047.93</ele>
        <time>2021-03-27T13:15:33Z</time>
      </trkpt>
      <trkpt lat="42.881369" lon="-4.547359">
        <ele>1052.03</ele>
        <time>2021-03-27T13:15:36Z</time>
      </trkpt>
      <trkpt lat="42.88114" lon="-4.547316">
        <ele>1052.94</ele>
        <time>2021-03-27T13:15:38Z</time>
      </trkpt>
      <trkpt lat="42.880919" lon="-4.547229">
        <ele>1051.45</ele>
        <time>2021-03-27T13:15:41Z</time>
      </trkpt>
      <trkpt lat="42.880699" lon="-4.547106">
        <ele>1046.92</ele>
        <time>2021-03-27T13:15:43Z</time>
      </trkpt>
      <trkpt lat="42.880501" lon="-4.546934">
        <ele>1042.0</ele>
        <time>2021-03-27T13:15:46Z</time>
      </trkpt>
      <trkpt lat="42.880182" lon="-4.54648">
        <ele>1043.09</ele>
        <time>2021-03-27T13:15:49Z</time>
      </trkpt>
      <trkpt lat="42.880063" lon="-4.546236">
        <ele>1043.18</ele>
        <time>2021-03-27T13:15:51Z</time>
      </trkpt>
      <trkpt lat="42.879899" lon="-4.545696">
        <ele>1044.11</ele>
        <time>2021-03-27T13:15:54Z</time>
      </trkpt>
      <trkpt lat="42.879784" lon="-4.545463">
        <ele>1044.11</ele>
        <time>2021-03-27T13:15:57Z</time>
      </trkpt>
      <trkpt lat="42.879614" lon="-4.545316">
        <ele>1041.49</ele>
        <time>2021-03-27T13:15:59Z</time>
      </trkpt>
      <trkpt lat="42.879405" lon="-4.545181">
        <ele>1038.5</ele>
        <time>2021-03-27T13:16:02Z</time>
      </trkpt>
      <trkpt lat="42.87923" lon="-4.544997">
        <ele>1039.73</ele>
        <time>2021-03-27T13:16:05Z</time>
      </trkpt>
      <trkpt lat="42.8791" lon="-4.544749">
        <ele>1041.96</ele>
        <time>2021-03-27T13:16:07Z</time>
      </trkpt>
      <trkpt lat="42.879041" lon="-4.544485">
        <ele>1044.29</ele>
        <time>2021-03-27T13:16:10Z</time>
      </trkpt>
      <trkpt lat="42.878949" lon="-4.543912">
        <ele>1045.21</ele>
        <time>2021-03-27T13:16:13Z</time>
      </trkpt>
      <trkpt lat="42.878919" lon="-4.543615">
        <ele>1044.44</ele>
        <time>2021-03-27T13:16:15Z</time>
      </trkpt>
      <trkpt lat="42.878918" lon="-4.543305">
        <ele>1042.31</ele>
        <time>2021-03-27T13:16:18Z</time>
      </trkpt>
      <trkpt lat="42.87898" lon="-4.543023">
        <ele>1041.86</ele>
        <time>2021-03-27T13:16:20Z</time>
      </trkpt>
      <trkpt lat="42.87911" lon="-4.542798">
        <ele>1042.46</ele>
        <time>2021-03-27T13:16:23Z</time>
      </trkpt>
      <trkpt lat="42.879285" lon="-4.542602">
        <ele>1043.86</ele>
        <time>2021-03-27T13:16:26Z</time>
      </trkpt>
      <trkpt lat="42.879683" lon="-4.542267">
        <ele>1047.19</ele>
        <time>2021-03-27T13:16:28Z</time>
      </trkpt>
      <trkpt lat="42.880511" lon="-4.541677">
        <ele>1052.23</ele>
        <time>2021-03-27T13:16:31Z</time>
      </trkpt>
      <trkpt lat="42.880659" lon="-4.541466">
        <ele>1054.59</ele>
        <time>2021-03-27T13:16:34Z</time>
      </trkpt>
      <trkpt lat="42.880729" lon="-4.541192">
        <ele>1055.5</ele>
        <time>2021-03-27T13:16:36Z</time>
      </trkpt>
      <trkpt lat="42.880722" lon="-4.540901">
        <ele>1055.09</ele>
        <time>2021-03-27T13:16:39Z</time>
      </trkpt>
      <trkpt lat="42.880617" lon="-4.540672">
        <ele>1053.81</ele>
        <time>2021-03-27T13:16:42Z</time>
      </trkpt>
      <trkpt lat="42.880469" lon="-4.540515">
        <ele>1052.3</ele>
        <time>2021-03-27T13:16:44Z</time>
      </trkpt>
      <trkpt lat="42.880287" lon="-4.540435">
        <ele>1051.37</ele>
        <time>2021-03-27T13:16:47Z</time>
      </trkpt>
      <trkpt lat="42.880076" lon="-4.540443">
        <ele>1055.57</ele>
        <time>2021-03-27T13:16:49Z</time>
      </trkpt>
      <trkpt lat="42.879592" lon="-4.540622">
        <ele>1056.28</ele>
        <time>2021-03-27T13:16:52Z</time>
      </trkpt>
      <trkpt lat="42.879333" lon="-4.540649">
        <ele>1055.91</ele>
        <time>2021-03-27T13:16:55Z</time>
      </trkpt>
      <trkpt lat="42.879088" lon="-4.540586">
        <ele>1056.39</ele>
        <time>2021-03-27T13:16:57Z</time>
      </trkpt>
      <trkpt lat="42.878866" lon="-4.540451">
        <ele>1060.16</ele>
        <time>2021-03-27T13:17:00Z</time>
      </trkpt>
      <trkpt lat="42.878686" lon="-4.540241">
        <ele>1063.87</ele>
        <time>2021-03-27T13:17:03Z</time>
      </trkpt>
      <trkpt lat="42.878561" lon="-4.539984">
        <ele>1067.21</ele>
        <time>2021-03-27T13:17:05Z</time>
      </trkpt>
      <trkpt lat="42.878493" lon="-4.539686">
        <ele>1067.95</ele>
        <time>2021-03-27T13:17:08Z</time>
      </trkpt>
      <trkpt lat="42.878483" lon="-4.539363">
        <ele>1068.82</ele>
        <time>2021-03-27T13:17:11Z</time>
      </trkpt>
      <trkpt lat="42.878554" lon="-4.538737">
        <ele>1074.97</ele>
        <time>2021-03-27T13:17:13Z</time>
      </trkpt>
      <trkpt lat="42.878533" lon="-4.538421">
        <ele>1077.95</ele>
        <time>2021-03-27T13:17:16Z</time>
      </trkpt>
      <trkpt lat="42.87828" lon="-4.537008">
        <ele>1083.63</ele>
        <time>2021-03-27T13:17:18Z</time>
      </trkpt>
      <trkpt lat="42.878206" lon="-4.536639">
        <ele>1084.69</ele>
        <time>2021-03-27T13:17:21Z</time>
      </trkpt>
      <trkpt lat="42.878109" lon="-4.536299">
        <ele>1086.61</ele>
        <time>2021-03-27T13:17:24Z</time>
      </trkpt>
      <trkpt lat="42.87797" lon="-4.535999">
        <ele>1089.11</ele>
        <time>2021-03-27T13:17:26Z</time>
      </trkpt>
      <trkpt lat="42.877815" lon="-4.535723">
        <ele>1090.07</ele>
        <time>2021-03-27T13:17:29Z</time>
      </trkpt>
      <trkpt lat="42.877689" lon="-4.535433">
        <ele>1091.1</ele>
        <time>2021-03-27T13:17:32Z</time>
      </trkpt>
      <trkpt lat="42.877607" lon="-4.535119">
        <ele>1090.98</ele>
        <time>2021-03-27T13:17:34Z</time>
      </trkpt>
      <trkpt lat="42.877563" lon="-4.534797">
        <ele>1091.97</ele>
        <time>2021-03-27T13:17:37Z</time>
      </trkpt>
      <trkpt lat="42.877576" lon="-4.534453">
        <ele>1095.13</ele>
        <time>2021-03-27T13:17:40Z</time>
      </trkpt>
      <trkpt lat="42.87763" lon="-4.534114">
        <ele>1097.54</ele>
        <time>2021-03-27T13:17:42Z</time>
      </trkpt>
      <trkpt lat="42.877724" lon="-4.533796">
        <ele>1099.79</ele>
        <time>2021-03-27T13:17:45Z</time>
      </trkpt>
      <trkpt lat="42.878021" lon="-4.53292">
        <ele>1111.57</ele>
        <time>2021-03-27T13:17:47Z</time>
      </trkpt>
      <trkpt lat="42.878048" lon="-4.532644">
        <ele>1110.89</ele>
        <time>2021-03-27T13:17:50Z</time>
      </trkpt>
      <trkpt lat="42.877977" lon="-4.532384">
        <ele>1109.72</ele>
        <time>2021-03-27T13:17:53Z</time>
      </trkpt>
      <trkpt lat="42.87781" lon="-4.532195">
        <ele>1108.25</ele>
        <time>2021-03-27T13:17:55Z</time>
      </trkpt>
      <trkpt lat="42.87736" lon="-4.531885">
        <ele>1107.47</ele>
        <time>2021-03-27T13:17:58Z</time>
      </trkpt>
      <trkpt lat="42.877182" lon="-4.531675">
        <ele>1108.5</ele>
        <time>2021-03-27T13:18:01Z</time>
      </trkpt>
      <trkpt lat="42.877118" lon="-4.531552">
        <ele>1108.69</ele>
        <time>2021-03-27T13:18:03Z</time>
      </trkpt>
      <trkpt lat="42.877054" lon="-4.531384">
        <ele>1109.65</ele>
        <time>2021-03-27T13:18:06Z</time>
      </trkpt>
      <trkpt lat="42.877019" lon="-4.531047">
        <ele>1115.17</ele>
        <time>2021-03-27T13:18:09Z</time>
      </trkpt>
      <trkpt lat="42.87704" lon="-4.530106">
        <ele>1125.6</ele>
        <time>2021-03-27T13:18:11Z</time>
      </trkpt>
      <trkpt lat="42.876992" lon="-4.529889">
        <ele>1126.76</ele>
        <time>2021-03-27T13:18:14Z</time>
      </trkpt>
      <trkpt lat="42.876817" lon="-4.529647">
        <ele>1127.18</ele>
        <time>2021-03-27T13:18:16Z</time>
      </trkpt>
      <trkpt lat="42.876543" lon="-4.52947">
        <ele>1128.55</ele>
        <time>2021-03-27T13:18:19Z</time>
      </trkpt>
      <trkpt lat="42.876034" lon="-4.529325">
        <ele>1125.89</ele>
        <time>2021-03-27T13:18:22Z</time>
      </trkpt>
      <trkpt lat="42.875541" lon="-4.529146">
        <ele>1126.2</ele>
        <time>2021-03-27T13:18:24Z</time>
      </trkpt>
      <trkpt lat="42.875332" lon="-4.52898">
        <ele>1127.61</ele>
        <time>2021-03-27T13:18:27Z</time>
      </trkpt>
      <trkpt lat="42.875191" lon="-4.528721">
        <ele>1129.02</ele>
        <time>2021-03-27T13:18:30Z</time>
      </trkpt>
      <trkpt lat="42.875153" lon="-4.528259">
        <ele>1132.0</ele>
        <time>2021-03-27T13:18:32Z</time>
      </trkpt>
      <trkpt lat="42.875169" lon="-4.526243">
        <ele>1131.98</ele>
        <time>2021-03-27T13:18:35Z</time>
      </trkpt>
      <trkpt lat="42.875219" lon="-4.525925">
        <ele>1134.24</ele>
        <time>2021-03-27T13:18:38Z</time>
      </trkpt>
      <trkpt lat="42.87552" lon="-4.525438">
        <ele>1136.56</ele>
        <time>2021-03-27T13:18:40Z</time>
      </trkpt>
      <trkpt lat="42.875627" lon="-4.52518">
        <ele>1138.73</ele>
        <time>2021-03-27T13:18:43Z</time>
      </trkpt>
      <trkpt lat="42.875639" lon="-4.524931">
        <ele>1140.05</ele>
        <time>2021-03-27T13:18:45Z</time>
      </trkpt>
      <trkpt lat="42.875587" lon="-4.524742">
        <ele>1139.61</ele>
        <time>2021-03-27T13:18:48Z</time>
      </trkpt>
      <trkpt lat="42.875425" lon="-4.524489">
        <ele>1137.12</ele>
        <time>2021-03-27T13:18:51Z</time>
      </trkpt>
      <trkpt lat="42.873626" lon="-4.522505">
        <ele>1141.11</ele>
        <time>2021-03-27T13:18:53Z</time>
      </trkpt>
      <trkpt lat="42.873414" lon="-4.522254">
        <ele>1140.29</ele>
        <time>2021-03-27T13:18:56Z</time>
      </trkpt>
      <trkpt lat="42.873177" lon="-4.521925">
        <ele>1140.51</ele>
        <time>2021-03-27T13:18:59Z</time>
      </trkpt>
      <trkpt lat="42.872846" lon="-4.521368">
        <ele>1139.47</ele>
        <time>2021-03-27T13:19:01Z</time>
      </trkpt>
      <trkpt lat="42.872011" lon="-4.519684">
        <ele>1141.25</ele>
        <time>2021-03-27T13:19:04Z</time>
      </trkpt>
      <trkpt lat="42.8716" lon="-4.518819">
        <ele>1138.99</ele>
        <time>2021-03-27T13:19:07Z</time>
      </trkpt>
      <trkpt lat="42.871507" lon="-4.518566">
        <ele>1138.67</ele>
        <time>2021-03-27T13:19:09Z</time>
      </trkpt>
      <trkpt lat="42.871384" lon="-4.518069">
        <ele>1138.11</ele>
        <time>2021-03-27T13:19:12Z</time>
      </trkpt>
      <trkpt lat="42.870916" lon="-4.515869">
        <ele>1130.3</ele>
        <time>2021-03-27T13:19:14Z</time>
      </trkpt>
      <trkpt lat="42.870714" lon="-4.515226">
        <ele>1129.71</ele>
        <time>2021-03-27T13:19:17Z</time>
      </trkpt>
      <trkpt lat="42.870583" lon="-4.51492">
        <ele>1128.58</ele>
        <time>2021-03-27T13:19:20Z</time>
      </trkpt>
      <trkpt lat="42.870301" lon="-4.514342">
        <ele>1127.01</ele>
        <time>2021-03-27T13:19:22Z</time>
      </trkpt>
      <trkpt lat="42.869893" lon="-4.513535">
        <ele>1120.39</ele>
        <time>2021-03-27T13:19:25Z</time>
      </trkpt>
      <trkpt lat="42.869362" lon="-4.512541">
        <ele>1112.3</ele>
        <time>2021-03-27T13:19:28Z</time>
      </trkpt>
      <trkpt lat="42.86913" lon="-4.512068">
        <ele>1108.5</ele>
        <time>2021-03-27T13:19:30Z</time>
      </trkpt>
      <trkpt lat="42.868919" lon="-4.511575">
        <ele>1105.74</ele>
        <time>2021-03-27T13:19:33Z</time>
      </trkpt>
      <trkpt lat="42.868437" lon="-4.510258">
        <ele>1107.37</ele>
        <time>2021-03-27T13:19:36Z</time>
      </trkpt>
      <trkpt lat="42.868398" lon="-4.509961">
        <ele>1104.1</ele>
        <time>2021-03-27T13:19:38Z</time>
      </trkpt>
      <trkpt lat="42.868405" lon="-4.509579">
        <ele>1099.68</ele>
        <time>2021-03-27T13:19:41Z</time>
      </trkpt>
      <trkpt lat="42.868616" lon="-4.508557">
        <ele>1092.09</ele>
        <time>2021-03-27T13:19:43Z</time>
      </trkpt>
      <trkpt lat="42.868642" lon="-4.508267">
        <ele>1091.34</ele>
        <time>2021-03-27T13:19:46Z</time>
      </trkpt>
      <trkpt lat="42.868635" lon="-4.508">
        <ele>1087.99</ele>
        <time>2021-03-27T13:19:49Z</time>
      </trkpt>
      <trkpt lat="42.868593" lon="-4.507801">
        <ele>1085.13</ele>
        <time>2021-03-27T13:19:51Z</time>
      </trkpt>
      <trkpt lat="42.868474" lon="-4.507378">
        <ele>1081.7</ele>
        <time>2021-03-27T13:19:54Z</time>
      </trkpt>
      <trkpt lat="42.868323" lon="-4.506899">
        <ele>1081.85</ele>
        <time>2021-03-27T13:19:57Z</time>
      </trkpt>
      <trkpt lat="42.868166" lon="-4.506587">
        <ele>1080.38</ele>
        <time>2021-03-27T13:19:59Z</time>
      </trkpt>
      <trkpt lat="42.868005" lon="-4.50645">
        <ele>1078.49</ele>
        <time>2021-03-27T13:20:02Z</time>
      </trkpt>
      <trkpt lat="42.867824" lon="-4.50641">
        <ele>1075.23</ele>
        <time>2021-03-27T13:20:05Z</time>
      </trkpt>
      <trkpt lat="42.867635" lon="-4.50645">
        <ele>1074.84</ele>
        <time>2021-03-27T13:20:07Z</time>
      </trkpt>
      <trkpt lat="42.866854" lon="-4.506834">
        <ele>1069.31</ele>
        <time>2021-03-27T13:20:10Z</time>
      </trkpt>
      <trkpt lat="42.86662" lon="-4.506873">
        <ele>1068.08</ele>
        <time>2021-03-27T13:20:12Z</time>
      </trkpt>
      <trkpt lat="42.866401" lon="-4.506813">
        <ele>1068.68</ele>
        <time>2021-03-27T13:20:15Z</time>
      </trkpt>
      <trkpt lat="42.866196" lon="-4.506667">
        <ele>1070.65</ele>
        <time>2021-03-27T13:20:18Z</time>
      </trkpt>
      <trkpt lat="42.866026" lon="-4.506444">
        <ele>1068.93</ele>
        <time>2021-03-27T13:20:20Z</time>
      </trkpt>
      <trkpt lat="42.865893" lon="-4.506169">
        <ele>1066.14</ele>
        <time>2021-03-27T13:20:23Z</time>
      </trkpt>
      <trkpt lat="42.865838" lon="-4.505869">
        <ele>1061.65</ele>
        <time>2021-03-27T13:20:26Z</time>
      </trkpt>
      <trkpt lat="42.865859" lon="-4.505571">
        <ele>1060.27</ele>
        <time>2021-03-27T13:20:28Z</time>
      </trkpt>
      <trkpt lat="42.866291" lon="-4.503915">
        <ele>1048.13</ele>
        <time>2021-03-27T13:20:31Z</time>
      </trkpt>
      <trkpt lat="42.866409" lon="-4.503367">
        <ele>1048.06</ele>
        <time>2021-03-27T13:20:34Z</time>
      </trkpt>
      <trkpt lat="42.866418" lon="-4.503087">
        <ele>1046.05</ele>
        <time>2021-03-27T13:20:36Z</time>
      </trkpt>
      <trkpt lat="42.866378" lon="-4.502819">
        <ele>1043.98</ele>
        <time>2021-03-27T13:20:39Z</time>
      </trkpt>
      <trkpt lat="42.866288" lon="-4.502579">
        <ele>1044.22</ele>
        <time>2021-03-27T13:20:41Z</time>
      </trkpt>
      <trkpt lat="42.866166" lon="-4.502367">
        <ele>1043.77</ele>
        <time>2021-03-27T13:20:44Z</time>
      </trkpt>
      <trkpt lat="42.86608" lon="-4.5022">
        <ele>1040.71</ele>
        <time>2021-03-27T13:20:47Z</time>
      </trkpt>
      <trkpt lat="42.866057" lon="-4.50203">
        <ele>1035.28</ele>
        <time>2021-03-27T13:20:49Z</time>
      </trkpt>
      <trkpt lat="42.866099" lon="-4.501827">
        <ele>1029.16</ele>
        <time>2021-03-27T13:20:52Z</time>
      </trkpt>
      <trkpt lat="42.866168" lon="-4.501715">
        <ele>1025.77</ele>
        <time>2021-03-27T13:20:55Z</time>
      </trkpt>
      <trkpt lat="42.866281" lon="-4.501642">
        <ele>1023.42</ele>
        <time>2021-03-27T13:20:57Z</time>
      </trkpt>
      <trkpt lat="42.866395" lon="-4.501632">
        <ele>1022.46</ele>
        <time>2021-03-27T13:21:00Z</time>
      </trkpt>
      <trkpt lat="42.8665" lon="-4.501664">
        <ele>1022.16</ele>
        <time>2021-03-27T13:21:03Z</time>
      </trkpt>
      <trkpt lat="42.866594" lon="-4.501762">
        <ele>1023.07</ele>
        <time>2021-03-27T13:21:05Z</time>
      </trkpt>
      <trkpt lat="42.866657" lon="-4.501875">
        <ele>1024.12</ele>
        <time>2021-03-27T13:21:08Z</time>
      </trkpt>
      <trkpt lat="42.866854" lon="-4.502371">
        <ele>1027.95</ele>
        <time>2021-03-27T13:21:10Z</time>
      </trkpt>
      <trkpt lat="42.866937" lon="-4.502528">
        <ele>1028.18</ele>
        <time>2021-03-27T13:21:13Z</time>
      </trkpt>
      <trkpt lat="42.867043" lon="-4.502592">
        <ele>1025.4</ele>
        <time>2021-03-27T13:21:16Z</time>
      </trkpt>
      <trkpt lat="42.867165" lon="-4.502623">
        <ele>1022.34</ele>
        <time>2021-03-27T13:21:18Z</time>
      </trkpt>
      <trkpt lat="42.867282" lon="-4.50259">
        <ele>1020.65</ele>
        <time>2021-03-27T13:21:21Z</time>
      </trkpt>
      <trkpt lat="42.867358" lon="-4.502539">
        <ele>1020.28</ele>
        <time>2021-03-27T13:21:24Z</time>
      </trkpt>
      <trkpt lat="42.867667" lon="-4.502059">
        <ele>1018.51</ele>
        <time>2021-03-27T13:21:26Z</time>
      </trkpt>
      <trkpt lat="42.868018" lon="-4.501416">
        <ele>1015.8</ele>
        <time>2021-03-27T13:21:29Z</time>
      </trkpt>
      <trkpt lat="42.868072" lon="-4.50126">
        <ele>1014.64</ele>
        <time>2021-03-27T13:21:32Z</time>
      </trkpt>
      <trkpt lat="42.868041" lon="-4.501017">
        <ele>1011.84</ele>
        <time>2021-03-27T13:21:34Z</time>
      </trkpt>
      <trkpt lat="42.867629" lon="-4.500676">
        <ele>1007.43</ele>
        <time>2021-03-27T13:21:37Z</time>
      </trkpt>
      <trkpt lat="42.867421" lon="-4.500444">
        <ele>1006.48</ele>
        <time>2021-03-27T13:21:39Z</time>
      </trkpt>
      <trkpt lat="42.866971" lon="-4.499761">
        <ele>999.42</ele>
        <time>2021-03-27T13:21:42Z</time>
      </trkpt>
      <trkpt lat="42.866628" lon="-4.499319">
        <ele>1000.8</ele>
        <time>2021-03-27T13:21:45Z</time>
      </trkpt>
      <trkpt lat="42.866604" lon="-4.499198">
        <ele>1001.36</ele>
        <time>2021-03-27T13:21:47Z</time>
      </trkpt>
      <trkpt lat="42.866616" lon="-4.498825">
        <ele>1003.41</ele>
        <time>2021-03-27T13:21:50Z</time>
      </trkpt>
      <trkpt lat="42.867794" lon="-4.498594">
        <ele>1002.06</ele>
        <time>2021-03-27T13:21:55Z</time>
      </trkpt>
      <trkpt lat="42.868132" lon="-4.498535">
        <ele>1003.0</ele>
        <time>2021-03-27T13:21:59Z</time>
      </trkpt>
      <trkpt lat="42.868202" lon="-4.49854">
        <ele>1003.27</ele>
        <time>2021-03-27T13:22:03Z</time>
      </trkpt>
      <trkpt lat="42.868411" lon="-4.498582">
        <ele>1003.62</ele>
        <time>2021-03-27T13:22:08Z</time>
      </trkpt>
      <trkpt lat="42.868632" lon="-4.49873">
        <ele>1002.88</ele>
        <time>2021-03-27T13:22:12Z</time>
      </trkpt>
      <trkpt lat="42.869217" lon="-4.499284">
        <ele>1001.7</ele>
        <time>2021-03-27T13:22:17Z</time>
      </trkpt>
      <trkpt lat="42.869303" lon="-4.499331">
        <ele>1000.62</ele>
        <time>2021-03-27T13:22:21Z</time>
      </trkpt>
      <trkpt lat="42.869414" lon="-4.499329">
        <ele>999.02</ele>
        <time>2021-03-27T13:22:25Z</time>
      </trkpt>
      <trkpt lat="42.869485" lon="-4.499267">
        <ele>998.36</ele>
        <time>2021-03-27T13:22:30Z</time>
      </trkpt>
      <trkpt lat="42.869944" lon="-4.498663">
        <ele>998.96</ele>
        <time>2021-03-27T13:22:34Z</time>
      </trkpt>
      <trkpt lat="42.870361" lon="-4.498016">
        <ele>1000.0</ele>
        <time>2021-03-27T13:22:38Z</time>
      </trkpt>
      <trkpt lat="42.872196" lon="-4.495202">
        <ele>1005.36</ele>
        <time>2021-03-27T13:22:43Z</time>
      </trkpt>
      <trkpt lat="42.872299" lon="-4.495094">
        <ele>1006.14</ele>
        <time>2021-03-27T13:22:47Z</time>
      </trkpt>
      <trkpt lat="42.872447" lon="-4.495018">
        <ele>1006.11</ele>
        <time>2021-03-27T13:22:52Z</time>
      </trkpt>
      <trkpt lat="42.872842" lon="-4.494999">
        <ele>1009.71</ele>
        <time>2021-03-27T13:22:56Z</time>
      </trkpt>
      <trkpt lat="42.872924" lon="-4.494986">
        <ele>1010.73</ele>
        <time>2021-03-27T13:23:00Z</time>
      </trkpt>
      <trkpt lat="42.873044" lon="-4.494936">
        <ele>1012.56</ele>
        <time>2021-03-27T13:23:05Z</time>
      </trkpt>
      <trkpt lat="42.873227" lon="-4.494817">
        <ele>1013.98</ele>
        <time>2021-03-27T13:23:09Z</time>
      </trkpt>
      <trkpt lat="42.873309" lon="-4.494737">
        <ele>1014.84</ele>
        <time>2021-03-27T13:23:14Z</time>
      </trkpt>
      <trkpt lat="42.873414" lon="-4.494613">
        <ele>1015.58</ele>
        <time>2021-03-27T13:23:18Z</time>
      </trkpt>
      <trkpt lat="42.873623" lon="-4.494285">
        <ele>1017.95</ele>
        <time>2021-03-27T13:23:22Z</time>
      </trkpt>
      <trkpt lat="42.87371" lon="-4.49419">
        <ele>1019.44</ele>
        <time>2021-03-27T13:23:27Z</time>
      </trkpt>
      <trkpt lat="42.873862" lon="-4.494119">
        <ele>1019.8</ele>
        <time>2021-03-27T13:23:31Z</time>
      </trkpt>
      <trkpt lat="42.874194" lon="-4.494082">
        <ele>1019.94</ele>
        <time>2021-03-27T13:23:36Z</time>
      </trkpt>
      <trkpt lat="42.874347" lon="-4.493983">
        <ele>1021.34</ele>
        <time>2021-03-27T13:23:40Z</time>
      </trkpt>
      <trkpt lat="42.874427" lon="-4.493828">
        <ele>1021.66</ele>
        <time>2021-03-27T13:23:44Z</time>
      </trkpt>
      <trkpt lat="42.874444" lon="-4.493732">
        <ele>1022.13</ele>
        <time>2021-03-27T13:23:49Z</time>
      </trkpt>
      <trkpt lat="42.874459" lon="-4.493608">
        <ele>1022.91</ele>
        <time>2021-03-27T13:23:53Z</time>
      </trkpt>
      <trkpt lat="42.874455" lon="-4.493125">
        <ele>1024.7</ele>
        <time>2021-03-27T13:23:58Z</time>
      </trkpt>
      <trkpt lat="42.874488" lon="-4.492919">
        <ele>1027.57</ele>
        <time>2021-03-27T13:24:02Z</time>
      </trkpt>
      <trkpt lat="42.874574" lon="-4.492639">
        <ele>1031.94</ele>
        <time>2021-03-27T13:24:06Z</time>
      </trkpt>
      <trkpt lat="42.874621" lon="-4.492534">
        <ele>1032.69</ele>
        <time>2021-03-27T13:24:11Z</time>
      </trkpt>
      <trkpt lat="42.87501" lon="-4.491936">
        <ele>1041.09</ele>
        <time>2021-03-27T13:24:15Z</time>
      </trkpt>
      <trkpt lat="42.875263" lon="-4.491638">
        <ele>1039.99</ele>
        <time>2021-03-27T13:24:20Z</time>
      </trkpt>
      <trkpt lat="42.8755" lon="-4.491449">
        <ele>1040.52</ele>
        <time>2021-03-27T13:24:24Z</time>
      </trkpt>
      <trkpt lat="42.87561" lon="-4.491393">
        <ele>1040.74</ele>
        <time>2021-03-27T13:24:28Z</time>
      </trkpt>
      <trkpt lat="42.875702" lon="-4.491365">
        <ele>1040.93</ele>
        <time>2021-03-27T13:24:33Z</time>
      </trkpt>
      <trkpt lat="42.875778" lon="-4.491375">
        <ele>1040.43</ele>
        <time>2021-03-27T13:24:37Z</time>
      </trkpt>
      <trkpt lat="42.875847" lon="-4.491428">
        <ele>1040.19</ele>
        <time>2021-03-27T13:24:41Z</time>
      </trkpt>
      <trkpt lat="42.875891" lon="-4.491497">
        <ele>1040.45</ele>
        <time>2021-03-27T13:24:46Z</time>
      </trkpt>
      <trkpt lat="42.875917" lon="-4.491595">
        <ele>1041.11</ele>
        <time>2021-03-27T13:24:50Z</time>
      </trkpt>
      <trkpt lat="42.875916" lon="-4.491704">
        <ele>1042.15</ele>
        <time>2021-03-27T13:24:55Z</time>
      </trkpt>
      <trkpt lat="42.875893" lon="-4.491816">
        <ele>1043.52</ele>
        <time>2021-03-27T13:24:59Z</time>
      </trkpt>
      <trkpt lat="42.875704" lon="-4.492484">
        <ele>1047.55</ele>
        <time>2021-03-27T13:25:03Z</time>
      </trkpt>
      <trkpt lat="42.875468" lon="-4.493111">
        <ele>1045.41</ele>
        <time>2021-03-27T13:25:08Z</time>
      </trkpt>
      <trkpt lat="42.875444" lon="-4.493295">
        <ele>1044.08</ele>
        <time>2021-03-27T13:25:12Z</time>
      </trkpt>
      <trkpt lat="42.875444" lon="-4.493454">
        <ele>1043.37</ele>
        <time>2021-03-27T13:25:17Z</time>
      </trkpt>
      <trkpt lat="42.875478" lon="-4.493732">
        <ele>1043.17</ele>
        <time>2021-03-27T13:25:21Z</time>
      </trkpt>
      <trkpt lat="42.875662" lon="-4.494439">
        <ele>1050.01</ele>
        <time>2021-03-27T13:25:25Z</time>
      </trkpt>
      <trkpt lat="42.875687" lon="-4.494687">
        <ele>1054.23</ele>
        <time>2021-03-27T13:25:30Z</time>
      </trkpt>
      <trkpt lat="42.875674" lon="-4.494789">
        <ele>1055.51</ele>
        <time>2021-03-27T13:25:34Z</time>
      </trkpt>
      <trkpt lat="42.875617" lon="-4.494957">
        <ele>1056.9</ele>
        <time>2021-03-27T13:25:39Z</time>
      </trkpt>
      <trkpt lat="42.875584" lon="-4.495018">
        <ele>1057.06</ele>
        <time>2021-03-27T13:25:43Z</time>
      </trkpt>
      <trkpt lat="42.875518" lon="-4.495086">
        <ele>1056.54</ele>
        <time>2021-03-27T13:25:47Z</time>
      </trkpt>
      <trkpt lat="42.87545" lon="-4.495124">
        <ele>1055.72</ele>
        <time>2021-03-27T13:25:52Z</time>
      </trkpt>
      <trkpt lat="42.875189" lon="-4.495206">
        <ele>1051.15</ele>
        <time>2021-03-27T13:25:56Z</time>
      </trkpt>
      <trkpt lat="42.875125" lon="-4.495261">
        <ele>1050.45</ele>
        <time>2021-03-27T13:26:01Z</time>
      </trkpt>
      <trkpt lat="42.875072" lon="-4.4954">
        <ele>1049.34</ele>
        <time>2021-03-27T13:26:05Z</time>
      </trkpt>
      <trkpt lat="42.875074" lon="-4.495507">
        <ele>1049.22</ele>
        <time>2021-03-27T13:26:09Z</time>
      </trkpt>
      <trkpt lat="42.875183" lon="-4.495789">
        <ele>1050.57</ele>
        <time>2021-03-27T13:26:14Z</time>
      </trkpt>
      <trkpt lat="42.875288" lon="-4.495946">
        <ele>1052.72</ele>
        <time>2021-03-27T13:26:18Z</time>
      </trkpt>
      <trkpt lat="42.875421" lon="-4.4961">
        <ele>1055.29</ele>
        <time>2021-03-27T13:26:23Z</time>
      </trkpt>
      <trkpt lat="42.875701" lon="-4.496302">
        <ele>1057.8</ele>
        <time>2021-03-27T13:26:27Z</time>
      </trkpt>
      <trkpt lat="42.875865" lon="-4.496376">
        <ele>1058.35</ele>
        <time>2021-03-27T13:26:31Z</time>
      </trkpt>
      <trkpt lat="42.876169" lon="-4.496461">
        <ele>1057.27</ele>
        <time>2021-03-27T13:26:36Z</time>
      </trkpt>
      <trkpt lat="42.876308" lon="-4.496456">
        <ele>1058.1</ele>
        <time>2021-03-27T13:26:40Z</time>
      </trkpt>
      <trkpt lat="42.876407" lon="-4.496425">
        <ele>1059.15</ele>
        <time>2021-03-27T13:26:44Z</time>
      </trkpt>
      <trkpt lat="42.876752" lon="-4.496254">
        <ele>1064.39</ele>
        <time>2021-03-27T13:26:49Z</time>
      </trkpt>
      <trkpt lat="42.876901" lon="-4.496255">
        <ele>1067.81</ele>
        <time>2021-03-27T13:26:53Z</time>
      </trkpt>
      <trkpt lat="42.876978" lon="-4.496302">
        <ele>1068.21</ele>
        <time>2021-03-27T13:26:58Z</time>
      </trkpt>
      <trkpt lat="42.877183" lon="-4.49654">
        <ele>1068.3</ele>
        <time>2021-03-27T13:27:02Z</time>
      </trkpt>
      <trkpt lat="42.877278" lon="-4.496615">
        <ele>1069.31</ele>
        <time>2021-03-27T13:27:06Z</time>
      </trkpt>
      <trkpt lat="42.877752" lon="-4.496886">
        <ele>1070.54</ele>
        <time>2021-03-27T13:27:11Z</time>
      </trkpt>
      <trkpt lat="42.877874" lon="-4.496927">
        <ele>1069.57</ele>
        <time>2021-03-27T13:27:15Z</time>
      </trkpt>
      <trkpt lat="42.878115" lon="-4.496917">
        <ele>1070.23</ele>
        <time>2021-03-27T13:27:20Z</time>
      </trkpt>
      <trkpt lat="42.878239" lon="-4.496883">
        <ele>1071.72</ele>
        <time>2021-03-27T13:27:24Z</time>
      </trkpt>
      <trkpt lat="42.878808" lon="-4.49659">
        <ele>1072.35</ele>
        <time>2021-03-27T13:27:28Z</time>
      </trkpt>
      <trkpt lat="42.8789" lon="-4.49651">
        <ele>1074.02</ele>
        <time>2021-03-27T13:27:33Z</time>
      </trkpt>
      <trkpt lat="42.879042" lon="-4.496347">
        <ele>1078.1</ele>
        <time>2021-03-27T13:27:37Z</time>
      </trkpt>
      <trkpt lat="42.879605" lon="-4.495493">
        <ele>1083.44</ele>
        <time>2021-03-27T13:27:42Z</time>
      </trkpt>
      <trkpt lat="42.879953" lon="-4.495143">
        <ele>1084.43</ele>
        <time>2021-03-27T13:27:46Z</time>
      </trkpt>
      <trkpt lat="42.8804" lon="-4.494765">
        <ele>1091.01</ele>
        <time>2021-03-27T13:27:50Z</time>
      </trkpt>
      <trkpt lat="42.88068" lon="-4.4946">
        <ele>1092.56</ele>
        <time>2021-03-27T13:27:55Z</time>
      </trkpt>
      <trkpt lat="42.880959" lon="-4.494403">
        <ele>1093.78</ele>
        <time>2021-03-27T13:27:59Z</time>
      </trkpt>
      <trkpt lat="42.881123" lon="-4.494232">
        <ele>1094.12</ele>
        <time>2021-03-27T13:28:04Z</time>
      </trkpt>
      <trkpt lat="42.881628" lon="-4.493593">
        <ele>1097.08</ele>
        <time>2021-03-27T13:28:08Z</time>
      </trkpt>
      <trkpt lat="42.882047" lon="-4.493001">
        <ele>1101.55</ele>
        <time>2021-03-27T13:28:12Z</time>
      </trkpt>
      <trkpt lat="42.882503" lon="-4.492402">
        <ele>1102.7</ele>
        <time>2021-03-27T13:28:17Z</time>
      </trkpt>
      <trkpt lat="42.884815" lon="-4.489979">
        <ele>1122.98</ele>
        <time>2021-03-27T13:28:21Z</time>
      </trkpt>
      <trkpt lat="42.885825" lon="-4.489177">
        <ele>1126.81</ele>
        <time>2021-03-27T13:28:26Z</time>
      </trkpt>
      <trkpt lat="42.886545" lon="-4.488854">
        <ele>1130.44</ele>
        <time>2021-03-27T13:28:30Z</time>
      </trkpt>
      <trkpt lat="42.886814" lon="-4.488701">
        <ele>1133.06</ele>
        <time>2021-03-27T13:28:34Z</time>
      </trkpt>
      <trkpt lat="42.887475" lon="-4.488208">
        <ele>1136.4</ele>
        <time>2021-03-27T13:28:39Z</time>
      </trkpt>
      <trkpt lat="42.888784" lon="-4.487158">
        <ele>1145.08</ele>
        <time>2021-03-27T13:28:43Z</time>
      </trkpt>
      <trkpt lat="42.889627" lon="-4.486511">
        <ele>1157.28</ele>
        <time>2021-03-27T13:28:47Z</time>
      </trkpt>
      <trkpt lat="42.889848" lon="-4.486386">
        <ele>1159.01</ele>
        <time>2021-03-27T13:28:52Z</time>
      </trkpt>
      <trkpt lat="42.89014" lon="-4.486273">
        <ele>1159.42</ele>
        <time>2021-03-27T13:28:56Z</time>
      </trkpt>
      <trkpt lat="42.891147" lon="-4.485975">
        <ele>1163.07</ele>
        <time>2021-03-27T13:29:01Z</time>
      </trkpt>
      <trkpt lat="42.891538" lon="-4.485881">
        <ele>1162.72</ele>
        <time>2021-03-27T13:29:05Z</time>
      </trkpt>
      <trkpt lat="42.891881" lon="-4.48583">
        <ele>1162.76</ele>
        <time>2021-03-27T13:29:09Z</time>
      </trkpt>
      <trkpt lat="42.892935" lon="-4.485745">
        <ele>1165.23</ele>
        <time>2021-03-27T13:29:14Z</time>
      </trkpt>
      <trkpt lat="42.893269" lon="-4.48574">
        <ele>1164.99</ele>
        <time>2021-03-27T13:29:18Z</time>
      </trkpt>
      <trkpt lat="42.893482" lon="-4.485773">
        <ele>1165.35</ele>
        <time>2021-03-27T13:29:23Z</time>
      </trkpt>
      <trkpt lat="42.893639" lon="-4.485818">
        <ele>1166.1</ele>
        <time>2021-03-27T13:29:27Z</time>
      </trkpt>
      <trkpt lat="42.893766" lon="-4.485879">
        <ele>1165.84</ele>
        <time>2021-03-27T13:29:31Z</time>
      </trkpt>
      <trkpt lat="42.893877" lon="-4.485957">
        <ele>1166.27</ele>
        <time>2021-03-27T13:29:36Z</time>
      </trkpt>
      <trkpt lat="42.893982" lon="-4.48609">
        <ele>1166.84</ele>
        <time>2021-03-27T13:29:40Z</time>
      </trkpt>
      <trkpt lat="42.894041" lon="-4.486237">
        <ele>1167.68</ele>
        <time>2021-03-27T13:29:45Z</time>
      </trkpt>
      <trkpt lat="42.894163" lon="-4.48679">
        <ele>1169.1</ele>
        <time>2021-03-27T13:29:49Z</time>
      </trkpt>
      <trkpt lat="42.894292" lon="-4.487201">
        <ele>1166.21</ele>
        <time>2021-03-27T13:29:53Z</time>
      </trkpt>
      <trkpt lat="42.894304" lon="-4.487414">
        <ele>1165.68</ele>
        <time>2021-03-27T13:29:58Z</time>
      </trkpt>
      <trkpt lat="42.89428" lon="-4.487533">
        <ele>1166.0</ele>
        <time>2021-03-27T13:30:02Z</time>
      </trkpt>
      <trkpt lat="42.894179" lon="-4.487828">
        <ele>1168.01</ele>
        <time>2021-03-27T13:30:07Z</time>
      </trkpt>
      <trkpt lat="42.8942" lon="-4.488013">
        <ele>1168.57</ele>
        <time>2021-03-27T13:30:11Z</time>
      </trkpt>
      <trkpt lat="42.894287" lon="-4.488175">
        <ele>1169.36</ele>
        <time>2021-03-27T13:30:15Z</time>
      </trkpt>
      <trkpt lat="42.894484" lon="-4.488316">
        <ele>1170.61</ele>
        <time>2021-03-27T13:30:20Z</time>
      </trkpt>
      <trkpt lat="42.894625" lon="-4.488351">
        <ele>1170.65</ele>
        <time>2021-03-27T13:30:24Z</time>
      </trkpt>
      <trkpt lat="42.894763" lon="-4.488355">
        <ele>1170.69</ele>
        <time>2021-03-27T13:30:29Z</time>
      </trkpt>
      <trkpt lat="42.895124" lon="-4.488324">
        <ele>1173.17</ele>
        <time>2021-03-27T13:30:33Z</time>
      </trkpt>
      <trkpt lat="42.895686" lon="-4.488181">
        <ele>1169.5</ele>
        <time>2021-03-27T13:30:37Z</time>
      </trkpt>
      <trkpt lat="42.896109" lon="-4.488013">
        <ele>1169.21</ele>
        <time>2021-03-27T13:30:42Z</time>
      </trkpt>
      <trkpt lat="42.896524" lon="-4.487766">
        <ele>1166.3</ele>
        <time>2021-03-27T13:30:46Z</time>
      </trkpt>
      <trkpt lat="42.896669" lon="-4.4877">
        <ele>1164.58</ele>
        <time>2021-03-27T13:30:50Z</time>
      </trkpt>
      <trkpt lat="42.896765" lon="-4.487697">
        <ele>1163.58</ele>
        <time>2021-03-27T13:30:55Z</time>
      </trkpt>
      <trkpt lat="42.896858" lon="-4.487724">
        <ele>1163.1</ele>
        <time>2021-03-27T13:30:59Z</time>
      </trkpt>
      <trkpt lat="42.896949" lon="-4.487786">
        <ele>1163.15</ele>
        <time>2021-03-27T13:31:04Z</time>
      </trkpt>
      <trkpt lat="42.897043" lon="-4.48791">
        <ele>1164.8</ele>
        <time>2021-03-27T13:31:08Z</time>
      </trkpt>
      <trkpt lat="42.897409" lon="-4.48863">
        <ele>1170.33</ele>
        <time>2021-03-27T13:31:12Z</time>
      </trkpt>
      <trkpt lat="42.897505" lon="-4.488779">
        <ele>1171.49</ele>
        <time>2021-03-27T13:31:17Z</time>
      </trkpt>
      <trkpt lat="42.897758" lon="-4.4891">
        <ele>1171.12</ele>
        <time>2021-03-27T13:31:21Z</time>
      </trkpt>
      <trkpt lat="42.897987" lon="-4.4895">
        <ele>1172.49</ele>
        <time>2021-03-27T13:31:26Z</time>
      </trkpt>
      <trkpt lat="42.898198" lon="-4.489808">
        <ele>1170.43</ele>
        <time>2021-03-27T13:31:30Z</time>
      </trkpt>
      <trkpt lat="42.898542" lon="-4.490078">
        <ele>1168.72</ele>
        <time>2021-03-27T13:31:34Z</time>
      </trkpt>
      <trkpt lat="42.899305" lon="-4.490533">
        <ele>1172.06</ele>
        <time>2021-03-27T13:31:39Z</time>
      </trkpt>
      <trkpt lat="42.899929" lon="-4.49085">
        <ele>1168.29</ele>
        <time>2021-03-27T13:31:43Z</time>
      </trkpt>
      <trkpt lat="42.900349" lon="-4.491187">
        <ele>1162.4</ele>
        <time>2021-03-27T13:31:48Z</time>
      </trkpt>
      <trkpt lat="42.900751" lon="-4.491551">
        <ele>1169.59</ele>
        <time>2021-03-27T13:31:52Z</time>
      </trkpt>
      <trkpt lat="42.901153" lon="-4.492067">
        <ele>1168.6</ele>
        <time>2021-03-27T13:31:56Z</time>
      </trkpt>
      <trkpt lat="42.901375" lon="-4.492525">
        <ele>1168.63</ele>
        <time>2021-03-27T13:32:01Z</time>
      </trkpt>
      <trkpt lat="42.901441" lon="-4.492876">
        <ele>1170.67</ele>
        <time>2021-03-27T13:32:05Z</time>
      </trkpt>
      <trkpt lat="42.901451" lon="-4.493274">
        <ele>1175.31</ele>
        <time>2021-03-27T13:32:10Z</time>
      </trkpt>
      <trkpt lat="42.901552" lon="-4.493567">
        <ele>1175.73</ele>
        <time>2021-03-27T13:32:14Z</time>
      </trkpt>
      <trkpt lat="42.901679" lon="-4.493679">
        <ele>1173.94</ele>
        <time>2021-03-27T13:32:18Z</time>
      </trkpt>
      <trkpt lat="42.901869" lon="-4.493702">
        <ele>1170.27</ele>
        <time>2021-03-27T13:32:23Z</time>
      </trkpt>
      <trkpt lat="42.902337" lon="-4.49364">
        <ele>1168.91</ele>
        <time>2021-03-27T13:32:27Z</time>
      </trkpt>
      <trkpt lat="42.902664" lon="-4.493646">
        <ele>1171.25</ele>
        <time>2021-03-27T13:32:32Z</time>
      </trkpt>
      <trkpt lat="42.903165" lon="-4.493751">
        <ele>1168.34</ele>
        <time>2021-03-27T13:32:36Z</time>
      </trkpt>
      <trkpt lat="42.903328" lon="-4.493842">
        <ele>1168.21</ele>
        <time>2021-03-27T13:32:40Z</time>
      </trkpt>
      <trkpt lat="42.903922" lon="-4.494265">
        <ele>1174.58</ele>
        <time>2021-03-27T13:32:45Z</time>
      </trkpt>
      <trkpt lat="42.904304" lon="-4.494446">
        <ele>1173.06</ele>
        <time>2021-03-27T13:32:49Z</time>
      </trkpt>
      <trkpt lat="42.904438" lon="-4.49449">
        <ele>1171.91</ele>
        <time>2021-03-27T13:32:54Z</time>
      </trkpt>
      <trkpt lat="42.904571" lon="-4.494507">
        <ele>1172.13</ele>
        <time>2021-03-27T13:32:58Z</time>
      </trkpt>
      <trkpt lat="42.904659" lon="-4.494494">
        <ele>1171.88</ele>
        <time>2021-03-27T13:33:02Z</time>
      </trkpt>
      <trkpt lat="42.904769" lon="-4.494418">
        <ele>1171.23</ele>
        <time>2021-03-27T13:33:07Z</time>
      </trkpt>
      <trkpt lat="42.905061" lon="-4.493988">
        <ele>1169.59</ele>
        <time>2021-03-27T13:33:11Z</time>
      </trkpt>
      <trkpt lat="42.905315" lon="-4.493697">
        <ele>1166.83</ele>
        <time>2021-03-27T13:33:15Z</time>
      </trkpt>
      <trkpt lat="42.905955" lon="-4.493469">
        <ele>1166.56</ele>
        <time>2021-03-27T13:33:20Z</time>
      </trkpt>
      <trkpt lat="42.906082" lon="-4.493446">
        <ele>1167.38</ele>
        <time>2021-03-27T13:33:24Z</time>
      </trkpt>
      <trkpt lat="42.906942" lon="-4.493401">
        <ele>1170.97</ele>
        <time>2021-03-27T13:33:29Z</time>
      </trkpt>
      <trkpt lat="42.907084" lon="-4.493356">
        <ele>1170.75</ele>
        <time>2021-03-27T13:33:33Z</time>
      </trkpt>
      <trkpt lat="42.907231" lon="-4.493271">
        <ele>1170.37</ele>
        <time>2021-03-27T13:33:37Z</time>
      </trkpt>
      <trkpt lat="42.907604" lon="-4.492792">
        <ele>1169.26</ele>
        <time>2021-03-27T13:33:42Z</time>
      </trkpt>
      <trkpt lat="42.907936" lon="-4.492468">
        <ele>1168.4</ele>
        <time>2021-03-27T13:33:46Z</time>
      </trkpt>
      <trkpt lat="42.908052" lon="-4.492329">
        <ele>1168.37</ele>
        <time>2021-03-27T13:33:51Z</time>
      </trkpt>
      <trkpt lat="42.90813" lon="-4.492135">
        <ele>1170.16</ele>
        <time>2021-03-27T13:33:55Z</time>
      </trkpt>
      <trkpt lat="42.908388" lon="-4.490599">
        <ele>1166.95</ele>
        <time>2021-03-27T13:33:59Z</time>
      </trkpt>
      <trkpt lat="42.908437" lon="-4.489938">
        <ele>1160.26</ele>
        <time>2021-03-27T13:34:04Z</time>
      </trkpt>
      <trkpt lat="42.908427" lon="-4.488904">
        <ele>1162.91</ele>
        <time>2021-03-27T13:34:08Z</time>
      </trkpt>
      <trkpt lat="42.908329" lon="-4.488293">
        <ele>1163.91</ele>
        <time>2021-03-27T13:34:13Z</time>
      </trkpt>
      <trkpt lat="42.908188" lon="-4.487838">
        <ele>1163.57</ele>
        <time>2021-03-27T13:34:17Z</time>
      </trkpt>
      <trkpt lat="42.907927" lon="-4.487255">
        <ele>1158.85</ele>
        <time>2021-03-27T13:34:21Z</time>
      </trkpt>
      <trkpt lat="42.907832" lon="-4.48684">
        <ele>1154.19</ele>
        <time>2021-03-27T13:34:26Z</time>
      </trkpt>
      <trkpt lat="42.907769" lon="-4.48642">
        <ele>1153.24</ele>
        <time>2021-03-27T13:34:30Z</time>
      </trkpt>
      <trkpt lat="42.907725" lon="-4.48562">
        <ele>1150.52</ele>
        <time>2021-03-27T13:34:35Z</time>
      </trkpt>
      <trkpt lat="42.907731" lon="-4.485023">
        <ele>1147.39</ele>
        <time>2021-03-27T13:34:39Z</time>
      </trkpt>
      <trkpt lat="42.907798" lon="-4.484832">
        <ele>1145.9</ele>
        <time>2021-03-27T13:34:43Z</time>
      </trkpt>
      <trkpt lat="42.907901" lon="-4.484737">
        <ele>1145.53</ele>
        <time>2021-03-27T13:34:48Z</time>
      </trkpt>
      <trkpt lat="42.908035" lon="-4.484697">
        <ele>1144.98</ele>
        <time>2021-03-27T13:34:52Z</time>
      </trkpt>
      <trkpt lat="42.90822" lon="-4.484695">
        <ele>1143.95</ele>
        <time>2021-03-27T13:34:57Z</time>
      </trkpt>
      <trkpt lat="42.908417" lon="-4.484737">
        <ele>1144.34</ele>
        <time>2021-03-27T13:35:01Z</time>
      </trkpt>
      <trkpt lat="42.908586" lon="-4.484824">
        <ele>1145.47</ele>
        <time>2021-03-27T13:35:05Z</time>
      </trkpt>
      <trkpt lat="42.909009" lon="-4.485287">
        <ele>1137.27</ele>
        <time>2021-03-27T13:35:10Z</time>
      </trkpt>
      <trkpt lat="42.909272" lon="-4.485633">
        <ele>1133.95</ele>
        <time>2021-03-27T13:35:14Z</time>
      </trkpt>
      <trkpt lat="42.909773" lon="-4.486232">
        <ele>1133.42</ele>
        <time>2021-03-27T13:35:18Z</time>
      </trkpt>
      <trkpt lat="42.910257" lon="-4.486644">
        <ele>1130.25</ele>
        <time>2021-03-27T13:35:23Z</time>
      </trkpt>
      <trkpt lat="42.911265" lon="-4.487395">
        <ele>1117.06</ele>
        <time>2021-03-27T13:35:27Z</time>
      </trkpt>
      <trkpt lat="42.911688" lon="-4.487688">
        <ele>1116.0</ele>
        <time>2021-03-27T13:35:32Z</time>
      </trkpt>
      <trkpt lat="42.912785" lon="-4.488517">
        <ele>1105.0</ele>
        <time>2021-03-27T13:35:36Z</time>
      </trkpt>
      <trkpt lat="42.914024" lon="-4.489037">
        <ele>1100.97</ele>
        <time>2021-03-27T13:35:40Z</time>
      </trkpt>
      <trkpt lat="42.914956" lon="-4.489586">
        <ele>1093.65</ele>
        <time>2021-03-27T13:35:45Z</time>
      </trkpt>
      <trkpt lat="42.915278" lon="-4.489745">
        <ele>1092.84</ele>
        <time>2021-03-27T13:35:49Z</time>
      </trkpt>
      <trkpt lat="42.915608" lon="-4.489872">
        <ele>1091.2</ele>
        <time>2021-03-27T13:35:54Z</time>
      </trkpt>
      <trkpt lat="42.916058" lon="-4.489968">
        <ele>1090.78</ele>
        <time>2021-03-27T13:35:58Z</time>
      </trkpt>
      <trkpt lat="42.916543" lon="-4.489966">
        <ele>1087.32</ele>
        <time>2021-03-27T13:36:02Z</time>
      </trkpt>
      <trkpt lat="42.916734" lon="-4.489911">
        <ele>1085.1</ele>
        <time>2021-03-27T13:36:07Z</time>
      </trkpt>
      <trkpt lat="42.916944" lon="-4.489819">
        <ele>1083.66</ele>
        <time>2021-03-27T13:36:11Z</time>
      </trkpt>
      <trkpt lat="42.917062" lon="-4.489724">
        <ele>1083.99</ele>
        <time>2021-03-27T13:36:16Z</time>
      </trkpt>
      <trkpt lat="42.917262" lon="-4.489441">
        <ele>1085.43</ele>
        <time>2021-03-27T13:36:20Z</time>
      </trkpt>
      <trkpt lat="42.918136" lon="-4.487776">
        <ele>1081.55</ele>
        <time>2021-03-27T13:36:24Z</time>
      </trkpt>
      <trkpt lat="42.918333" lon="-4.487565">
        <ele>1077.25</ele>
        <time>2021-03-27T13:36:29Z</time>
      </trkpt>
      <trkpt lat="42.918661" lon="-4.487403">
        <ele>1076.42</ele>
        <time>2021-03-27T13:36:33Z</time>
      </trkpt>
      <trkpt lat="42.919617" lon="-4.487084">
        <ele>1076.06</ele>
        <time>2021-03-27T13:36:38Z</time>
      </trkpt>
      <trkpt lat="42.921225" lon="-4.486499">
        <ele>1083.32</ele>
        <time>2021-03-27T13:36:42Z</time>
      </trkpt>
      <trkpt lat="42.921352" lon="-4.486514">
        <ele>1083.6</ele>
        <time>2021-03-27T13:36:46Z</time>
      </trkpt>
      <trkpt lat="42.921532" lon="-4.486618">
        <ele>1085.61</ele>
        <time>2021-03-27T13:36:51Z</time>
      </trkpt>
      <trkpt lat="42.922401" lon="-4.487605">
        <ele>1080.99</ele>
        <time>2021-03-27T13:36:55Z</time>
      </trkpt>
      <trkpt lat="42.923167" lon="-4.488482">
        <ele>1078.78</ele>
        <time>2021-03-27T13:37:00Z</time>
      </trkpt>
      <trkpt lat="42.924555" lon="-4.489129">
        <ele>1088.6</ele>
        <time>2021-03-27T13:37:04Z</time>
      </trkpt>
      <trkpt lat="42.924982" lon="-4.489435">
        <ele>1086.03</ele>
        <time>2021-03-27T13:37:08Z</time>
      </trkpt>
      <trkpt lat="42.925402" lon="-4.489683">
        <ele>1082.8</ele>
        <time>2021-03-27T13:37:13Z</time>
      </trkpt>
      <trkpt lat="42.925597" lon="-4.489764">
        <ele>1082.7</ele>
        <time>2021-03-27T13:37:17Z</time>
      </trkpt>
      <trkpt lat="42.925787" lon="-4.489742">
        <ele>1085.14</ele>
        <time>2021-03-27T13:37:21Z</time>
      </trkpt>
      <trkpt lat="42.926825" lon="-4.489388">
        <ele>1080.48</ele>
        <time>2021-03-27T13:37:26Z</time>
      </trkpt>
      <trkpt lat="42.926966" lon="-4.489268">
        <ele>1080.98</ele>
        <time>2021-03-27T13:37:30Z</time>
      </trkpt>
      <trkpt lat="42.927246" lon="-4.488973">
        <ele>1081.44</ele>
        <time>2021-03-27T13:37:35Z</time>
      </trkpt>
      <trkpt lat="42.927587" lon="-4.488822">
        <ele>1081.63</ele>
        <time>2021-03-27T13:37:39Z</time>
      </trkpt>
      <trkpt lat="42.927968" lon="-4.488785">
        <ele>1086.41</ele>
        <time>2021-03-27T13:37:43Z</time>
      </trkpt>
      <trkpt lat="42.928192" lon="-4.488682">
        <ele>1089.46</ele>
        <time>2021-03-27T13:37:48Z</time>
      </trkpt>
      <trkpt lat="42.928535" lon="-4.488476">
        <ele>1088.51</ele>
        <time>2021-03-27T13:37:52Z</time>
      </trkpt>
      <trkpt lat="42.929214" lon="-4.487683">
        <ele>1085.55</ele>
        <time>2021-03-27T13:37:57Z</time>
      </trkpt>
      <trkpt lat="42.929408" lon="-4.487511">
        <ele>1084.31</ele>
        <time>2021-03-27T13:38:01Z</time>
      </trkpt>
      <trkpt lat="42.929639" lon="-4.487423">
        <ele>1086.24</ele>
        <time>2021-03-27T13:38:05Z</time>
      </trkpt>
      <trkpt lat="42.930089" lon="-4.487393">
        <ele>1083.91</ele>
        <time>2021-03-27T13:38:10Z</time>
      </trkpt>
      <trkpt lat="42.930446" lon="-4.487333">
        <ele>1084.07</ele>
        <time>2021-03-27T13:38:14Z</time>
      </trkpt>
      <trkpt lat="42.930799" lon="-4.487331">
        <ele>1084.33</ele>
        <time>2021-03-27T13:38:19Z</time>
      </trkpt>
      <trkpt lat="42.930993" lon="-4.487399">
        <ele>1085.77</ele>
        <time>2021-03-27T13:38:23Z</time>
      </trkpt>
      <trkpt lat="42.93118" lon="-4.487528">
        <ele>1087.59</ele>
        <time>2021-03-27T13:38:27Z</time>
      </trkpt>
      <trkpt lat="42.931403" lon="-4.487741">
        <ele>1090.69</ele>
        <time>2021-03-27T13:38:32Z</time>
      </trkpt>
      <trkpt lat="42.931547" lon="-4.488017">
        <ele>1090.83</ele>
        <time>2021-03-27T13:38:36Z</time>
      </trkpt>
      <trkpt lat="42.931821" lon="-4.488731">
        <ele>1084.36</ele>
        <time>2021-03-27T13:38:41Z</time>
      </trkpt>
      <trkpt lat="42.932443" lon="-4.490459">
        <ele>1084.19</ele>
        <time>2021-03-27T13:38:45Z</time>
      </trkpt>
      <trkpt lat="42.932685" lon="-4.490984">
        <ele>1080.23</ele>
        <time>2021-03-27T13:38:49Z</time>
      </trkpt>
      <trkpt lat="42.932886" lon="-4.491191">
        <ele>1081.65</ele>
        <time>2021-03-27T13:38:54Z</time>
      </trkpt>
      <trkpt lat="42.933096" lon="-4.491309">
        <ele>1084.77</ele>
        <time>2021-03-27T13:38:58Z</time>
      </trkpt>
      <trkpt lat="42.933323" lon="-4.491329">
        <ele>1087.31</ele>
        <time>2021-03-27T13:39:03Z</time>
      </trkpt>
      <trkpt lat="42.933528" lon="-4.491294">
        <ele>1087.68</ele>
        <time>2021-03-27T13:39:07Z</time>
      </trkpt>
      <trkpt lat="42.933676" lon="-4.491232">
        <ele>1087.2</ele>
        <time>2021-03-27T13:39:11Z</time>
      </trkpt>
      <trkpt lat="42.933866" lon="-4.491108">
        <ele>1085.34</ele>
        <time>2021-03-27T13:39:16Z</time>
      </trkpt>
      <trkpt lat="42.934294" lon="-4.490566">
        <ele>1085.53</ele>
        <time>2021-03-27T13:39:20Z</time>
      </trkpt>
      <trkpt lat="42.934776" lon="-4.489854">
        <ele>1085.8</ele>
        <time>2021-03-27T13:39:24Z</time>
      </trkpt>
      <trkpt lat="42.93508" lon="-4.489463">
        <ele>1086.91</ele>
        <time>2021-03-27T13:39:29Z</time>
      </trkpt>
      <trkpt lat="42.935351" lon="-4.489028">
        <ele>1089.82</ele>
        <time>2021-03-27T13:39:33Z</time>
      </trkpt>
      <trkpt lat="42.93581" lon="-4.488382">
        <ele>1093.05</ele>
        <time>2021-03-27T13:39:38Z</time>
      </trkpt>
      <trkpt lat="42.936285" lon="-4.487835">
        <ele>1089.15</ele>
        <time>2021-03-27T13:39:42Z</time>
      </trkpt>
      <trkpt lat="42.936623" lon="-4.487576">
        <ele>1094.3</ele>
        <time>2021-03-27T13:39:46Z</time>
      </trkpt>
      <trkpt lat="42.936841" lon="-4.487458">
        <ele>1092.06</ele>
        <time>2021-03-27T13:39:51Z</time>
      </trkpt>
      <trkpt lat="42.937031" lon="-4.4874">
        <ele>1092.26</ele>
        <time>2021-03-27T13:39:55Z</time>
      </trkpt>
      <trkpt lat="42.937231" lon="-4.48737">
        <ele>1093.17</ele>
        <time>2021-03-27T13:40:00Z</time>
      </trkpt>
      <trkpt lat="42.937438" lon="-4.487375">
        <ele>1095.53</ele>
        <time>2021-03-27T13:40:04Z</time>
      </trkpt>
      <trkpt lat="42.938505" lon="-4.487546">
        <ele>1087.9</ele>
        <time>2021-03-27T13:40:08Z</time>
      </trkpt>
      <trkpt lat="42.938766" lon="-4.487632">
        <ele>1086.47</ele>
        <time>2021-03-27T13:40:13Z</time>
      </trkpt>
      <trkpt lat="42.939031" lon="-4.487753">
        <ele>1086.92</ele>
        <time>2021-03-27T13:40:17Z</time>
      </trkpt>
      <trkpt lat="42.939707" lon="-4.488144">
        <ele>1090.63</ele>
        <time>2021-03-27T13:40:22Z</time>
      </trkpt>
      <trkpt lat="42.940057" lon="-4.488454">
        <ele>1082.28</ele>
        <time>2021-03-27T13:40:26Z</time>
      </trkpt>
      <trkpt lat="42.940393" lon="-4.488697">
        <ele>1085.92</ele>
        <time>2021-03-27T13:40:30Z</time>
      </trkpt>
      <trkpt lat="42.941775" lon="-4.489573">
        <ele>1087.84</ele>
        <time>2021-03-27T13:40:35Z</time>
      </trkpt>
      <trkpt lat="42.942975" lon="-4.490266">
        <ele>1090.98</ele>
        <time>2021-03-27T13:40:39Z</time>
      </trkpt>
      <trkpt lat="42.943644" lon="-4.490727">
        <ele>1086.44</ele>
        <time>2021-03-27T13:40:44Z</time>
      </trkpt>
      <trkpt lat="42.943835" lon="-4.490795">
        <ele>1087.11</ele>
        <time>2021-03-27T13:40:48Z</time>
      </trkpt>
      <trkpt lat="42.944241" lon="-4.490875">
        <ele>1088.95</ele>
        <time>2021-03-27T13:40:52Z</time>
      </trkpt>
      <trkpt lat="42.948104" lon="-4.490975">
        <ele>1090.01</ele>
        <time>2021-03-27T13:40:57Z</time>
      </trkpt>
      <trkpt lat="42.948453" lon="-4.490905">
        <ele>1088.32</ele>
        <time>2021-03-27T13:41:01Z</time>
      </trkpt>
      <trkpt lat="42.961026" lon="-4.487515">
        <ele>1099.91</ele>
        <time>2021-03-27T13:41:06Z</time>
      </trkpt>
      <trkpt lat="42.962293" lon="-4.487209">
        <ele>1099.88</ele>
        <time>2021-03-27T13:41:10Z</time>
      </trkpt>
      <trkpt lat="42.96263" lon="-4.487241">
        <ele>1098.9</ele>
        <time>2021-03-27T13:41:14Z</time>
      </trkpt>
      <trkpt lat="42.962752" lon="-4.487269">
        <ele>1098.81</ele>
        <time>2021-03-27T13:41:19Z</time>
      </trkpt>
      <trkpt lat="42.962953" lon="-4.48737">
        <ele>1099.1</ele>
        <time>2021-03-27T13:41:23Z</time>
      </trkpt>
      <trkpt lat="42.965819" lon="-4.489992">
        <ele>1104.97</ele>
        <time>2021-03-27T13:41:27Z</time>
      </trkpt>
      <trkpt lat="42.969359" lon="-4.493357">
        <ele>1109.61</ele>
        <time>2021-03-27T13:41:32Z</time>
      </trkpt>
      <trkpt lat="42.969621" lon="-4.493581">
        <ele>1110.45</ele>
        <time>2021-03-27T13:41:36Z</time>
      </trkpt>
      <trkpt lat="42.970042" lon="-4.4939">
        <ele>1110.22</ele>
        <time>2021-03-27T13:41:41Z</time>
      </trkpt>
      <trkpt lat="42.970315" lon="-4.494061">
        <ele>1111.38</ele>
        <time>2021-03-27T13:41:45Z</time>
      </trkpt>
      <trkpt lat="42.970469" lon="-4.494128">
        <ele>1111.14</ele>
        <time>2021-03-27T13:41:49Z</time>
      </trkpt>
      <trkpt lat="42.970671" lon="-4.49415">
        <ele>1111.47</ele>
        <time>2021-03-27T13:41:54Z</time>
      </trkpt>
      <trkpt lat="42.972584" lon="-4.494253">
        <ele>1113.67</ele>
        <time>2021-03-27T13:41:58Z</time>
      </trkpt>
      <trkpt lat="42.973682" lon="-4.494275">
        <ele>1114.87</ele>
        <time>2021-03-27T13:42:03Z</time>
      </trkpt>
      <trkpt lat="42.976745" lon="-4.494102">
        <ele>1110.43</ele>
        <time>2021-03-27T13:42:07Z</time>
      </trkpt>
      <trkpt lat="42.976962" lon="-4.494139">
        <ele>1108.94</ele>
        <time>2021-03-27T13:42:11Z</time>
      </trkpt>
      <trkpt lat="42.977767" lon="-4.494592">
        <ele>1116.84</ele>
        <time>2021-03-27T13:42:16Z</time>
      </trkpt>
      <trkpt lat="42.978503" lon="-4.494914">
        <ele>1123.53</ele>
        <time>2021-03-27T13:42:20Z</time>
      </trkpt>
      <trkpt lat="42.981562" lon="-4.496125">
        <ele>1126.43</ele>
        <time>2021-03-27T13:42:25Z</time>
      </trkpt>
      <trkpt lat="42.98196" lon="-4.496202">
        <ele>1123.9</ele>
        <time>2021-03-27T13:42:29Z</time>
      </trkpt>
      <trkpt lat="42.982298" lon="-4.496241">
        <ele>1121.17</ele>
        <time>2021-03-27T13:42:33Z</time>
      </trkpt>
      <trkpt lat="42.982763" lon="-4.496196">
        <ele>1120.83</ele>
        <time>2021-03-27T13:42:38Z</time>
      </trkpt>
      <trkpt lat="42.983279" lon="-4.496084">
        <ele>1121.94</ele>
        <time>2021-03-27T13:42:42Z</time>
      </trkpt>
      <trkpt lat="42.983518" lon="-4.495918">
        <ele>1125.87</ele>
        <time>2021-03-27T13:42:47Z</time>
      </trkpt>
      <trkpt lat="42.983718" lon="-4.495711">
        <ele>1128.47</ele>
        <time>2021-03-27T13:42:51Z</time>
      </trkpt>
      <trkpt lat="42.983872" lon="-4.495472">
        <ele>1125.71</ele>
        <time>2021-03-27T13:42:55Z</time>
      </trkpt>
      <trkpt lat="42.984029" lon="-4.495147">
        <ele>1125.94</ele>
        <time>2021-03-27T13:43:00Z</time>
      </trkpt>
      <trkpt lat="42.984198" lon="-4.494674">
        <ele>1126.74</ele>
        <time>2021-03-27T13:43:04Z</time>
      </trkpt>
      <trkpt lat="42.984381" lon="-4.493742">
        <ele>1134.81</ele>
        <time>2021-03-27T13:43:09Z</time>
      </trkpt>
      <trkpt lat="42.984455" lon="-4.493547">
        <ele>1136.26</ele>
        <time>2021-03-27T13:43:13Z</time>
      </trkpt>
      <trkpt lat="42.98455" lon="-4.49339">
        <ele>1138.41</ele>
        <time>2021-03-27T13:43:17Z</time>
      </trkpt>
      <trkpt lat="42.984902" lon="-4.492945">
        <ele>1132.49</ele>
        <time>2021-03-27T13:43:22Z</time>
      </trkpt>
      <trkpt lat="42.985364" lon="-4.492207">
        <ele>1129.46</ele>
        <time>2021-03-27T13:43:26Z</time>
      </trkpt>
      <trkpt lat="42.985917" lon="-4.491411">
        <ele>1128.71</ele>
        <time>2021-03-27T13:43:30Z</time>
      </trkpt>
      <trkpt lat="42.986364" lon="-4.490912">
        <ele>1134.72</ele>
        <time>2021-03-27T13:43:35Z</time>
      </trkpt>
      <trkpt lat="42.988308" lon="-4.489051">
        <ele>1140.62</ele>
        <time>2021-03-27T13:43:39Z</time>
      </trkpt>
      <trkpt lat="42.988555" lon="-4.488878">
        <ele>1140.72</ele>
        <time>2021-03-27T13:43:44Z</time>
      </trkpt>
      <trkpt lat="42.988729" lon="-4.488788">
        <ele>1141.36</ele>
        <time>2021-03-27T13:43:48Z</time>
      </trkpt>
      <trkpt lat="42.988898" lon="-4.48874">
        <ele>1142.14</ele>
        <time>2021-03-27T13:43:52Z</time>
      </trkpt>
      <trkpt lat="42.990498" lon="-4.488355">
        <ele>1144.13</ele>
        <time>2021-03-27T13:43:57Z</time>
      </trkpt>
      <trkpt lat="42.990666" lon="-4.48835">
        <ele>1144.34</ele>
        <time>2021-03-27T13:44:01Z</time>
      </trkpt>
      <trkpt lat="42.990829" lon="-4.488375">
        <ele>1144.84</ele>
        <time>2021-03-27T13:44:06Z</time>
      </trkpt>
      <trkpt lat="42.990971" lon="-4.488426">
        <ele>1145.33</ele>
        <time>2021-03-27T13:44:10Z</time>
      </trkpt>
      <trkpt lat="42.991125" lon="-4.488538">
        <ele>1146.14</ele>
        <time>2021-03-27T13:44:14Z</time>
      </trkpt>
      <trkpt lat="42.991729" lon="-4.489357">
        <ele>1148.17</ele>
        <time>2021-03-27T13:44:19Z</time>
      </trkpt>
      <trkpt lat="42.993927" lon="-4.491863">
        <ele>1169.88</ele>
        <time>2021-03-27T13:44:23Z</time>
      </trkpt>
      <trkpt lat="42.994191" lon="-4.492049">
        <ele>1171.87</ele>
        <time>2021-03-27T13:44:28Z</time>
      </trkpt>
      <trkpt lat="42.994583" lon="-4.492208">
        <ele>1175.02</ele>
        <time>2021-03-27T13:44:32Z</time>
      </trkpt>
      <trkpt lat="42.994802" lon="-4.492242">
        <ele>1176.89</ele>
        <time>2021-03-27T13:44:36Z</time>
      </trkpt>
      <trkpt lat="42.995088" lon="-4.492253">
        <ele>1174.44</ele>
        <time>2021-03-27T13:44:41Z</time>
      </trkpt>
      <trkpt lat="42.995377" lon="-4.4922">
        <ele>1168.95</ele>
        <time>2021-03-27T13:44:45Z</time>
      </trkpt>
      <trkpt lat="42.995641" lon="-4.492124">
        <ele>1167.65</ele>
        <time>2021-03-27T13:44:50Z</time>
      </trkpt>
      <trkpt lat="42.995993" lon="-4.491977">
        <ele>1167.04</ele>
        <time>2021-03-27T13:44:54Z</time>
      </trkpt>
      <trkpt lat="42.997749" lon="-4.491205">
        <ele>1166.31</ele>
        <time>2021-03-27T13:44:58Z</time>
      </trkpt>
      <trkpt lat="42.999455" lon="-4.490502">
        <ele>1173.79</ele>
        <time>2021-03-27T13:45:03Z</time>
      </trkpt>
      <trkpt lat="42.999673" lon="-4.49048">
        <ele>1174.46</ele>
        <time>2021-03-27T13:45:07Z</time>
      </trkpt>
      <trkpt lat="43.004928" lon="-4.491512">
        <ele>1173.62</ele>
        <time>2021-03-27T13:45:12Z</time>
      </trkpt>
      <trkpt lat="43.005216" lon="-4.491641">
        <ele>1170.72</ele>
        <time>2021-03-27T13:45:16Z</time>
      </trkpt>
      <trkpt lat="43.006904" lon="-4.49265">
        <ele>1174.65</ele>
        <time>2021-03-27T13:45:20Z</time>
      </trkpt>
      <trkpt lat="43.007753" lon="-4.493206">
        <ele>1167.1</ele>
        <time>2021-03-27T13:45:25Z</time>
      </trkpt>
      <trkpt lat="43.007927" lon="-4.493356">
        <ele>1168.97</ele>
        <time>2021-03-27T13:45:29Z</time>
      </trkpt>
      <trkpt lat="43.008115" lon="-4.493623">
        <ele>1170.15</ele>
        <time>2021-03-27T13:45:33Z</time>
      </trkpt>
      <trkpt lat="43.008813" lon="-4.494787">
        <ele>1168.06</ele>
        <time>2021-03-27T13:45:38Z</time>
      </trkpt>
      <trkpt lat="43.009005" lon="-4.495071">
        <ele>1165.48</ele>
        <time>2021-03-27T13:45:42Z</time>
      </trkpt>
      <trkpt lat="43.009191" lon="-4.495301">
        <ele>1165.68</ele>
        <time>2021-03-27T13:45:47Z</time>
      </trkpt>
      <trkpt lat="43.010223" lon="-4.495953">
        <ele>1172.57</ele>
        <time>2021-03-27T13:45:51Z</time>
      </trkpt>
      <trkpt lat="43.011342" lon="-4.496522">
        <ele>1167.07</ele>
        <time>2021-03-27T13:45:55Z</time>
      </trkpt>
      <trkpt lat="43.01146" lon="-4.496554">
        <ele>1166.73</ele>
        <time>2021-03-27T13:46:00Z</time>
      </trkpt>
      <trkpt lat="43.011637" lon="-4.496567">
        <ele>1167.86</ele>
        <time>2021-03-27T13:46:04Z</time>
      </trkpt>
      <trkpt lat="43.011787" lon="-4.496529">
        <ele>1169.79</ele>
        <time>2021-03-27T13:46:09Z</time>
      </trkpt>
      <trkpt lat="43.012155" lon="-4.496358">
        <ele>1173.08</ele>
        <time>2021-03-27T13:46:13Z</time>
      </trkpt>
      <trkpt lat="43.012279" lon="-4.496353">
        <ele>1174.08</ele>
        <time>2021-03-27T13:46:17Z</time>
      </trkpt>
      <trkpt lat="43.012535" lon="-4.496409">
        <ele>1179.95</ele>
        <time>2021-03-27T13:46:22Z</time>
      </trkpt>
      <trkpt lat="43.012622" lon="-4.496362">
        <ele>1181.87</ele>
        <time>2021-03-27T13:46:26Z</time>
      </trkpt>
      <trkpt lat="43.012762" lon="-4.496157">
        <ele>1183.94</ele>
        <time>2021-03-27T13:46:31Z</time>
      </trkpt>
      <trkpt lat="43.012898" lon="-4.495868">
        <ele>1181.8</ele>
        <time>2021-03-27T13:46:35Z</time>
      </trkpt>
      <trkpt lat="43.012961" lon="-4.495677">
        <ele>1179.69</ele>
        <time>2021-03-27T13:46:39Z</time>
      </trkpt>
      <trkpt lat="43.013009" lon="-4.495365">
        <ele>1177.76</ele>
        <time>2021-03-27T13:46:44Z</time>
      </trkpt>
      <trkpt lat="43.013023" lon="-4.495093">
        <ele>1177.73</ele>
        <time>2021-03-27T13:46:48Z</time>
      </trkpt>
      <trkpt lat="43.012979" lon="-4.494711">
        <ele>1178.24</ele>
        <time>2021-03-27T13:46:53Z</time>
      </trkpt>
      <trkpt lat="43.012766" lon="-4.494002">
        <ele>1179.86</ele>
        <time>2021-03-27T13:46:57Z</time>
      </trkpt>
      <trkpt lat="43.012127" lon="-4.492125">
        <ele>1182.25</ele>
        <time>2021-03-27T13:47:01Z</time>
      </trkpt>
      <trkpt lat="43.011829" lon="-4.491585">
        <ele>1181.39</ele>
        <time>2021-03-27T13:47:06Z</time>
      </trkpt>
      <trkpt lat="43.011713" lon="-4.491312">
        <ele>1180.5</ele>
        <time>2021-03-27T13:47:10Z</time>
      </trkpt>
      <trkpt lat="43.01171" lon="-4.491218">
        <ele>1181.07</ele>
        <time>2021-03-27T13:47:15Z</time>
      </trkpt>
      <trkpt lat="43.01173" lon="-4.491124">
        <ele>1182.06</ele>
        <time>2021-03-27T13:47:19Z</time>
      </trkpt>
      <trkpt lat="43.011788" lon="-4.490996">
        <ele>1182.83</ele>
        <time>2021-03-27T13:47:23Z</time>
      </trkpt>
      <trkpt lat="43.012406" lon="-4.490142">
        <ele>1179.52</ele>
        <time>2021-03-27T13:47:28Z</time>
      </trkpt>
      <trkpt lat="43.012795" lon="-4.489588">
        <ele>1179.38</ele>
        <time>2021-03-27T13:47:32Z</time>
      </trkpt>
      <trkpt lat="43.013806" lon="-4.488218">
        <ele>1181.53</ele>
        <time>2021-03-27T13:47:36Z</time>
      </trkpt>
      <trkpt lat="43.016293" lon="-4.484792">
        <ele>1201.24</ele>
        <time>2021-03-27T13:47:41Z</time>
      </trkpt>
      <trkpt lat="43.016413" lon="-4.48457">
        <ele>1200.68</ele>
        <time>2021-03-27T13:47:45Z</time>
      </trkpt>
      <trkpt lat="43.01651" lon="-4.484289">
        <ele>1199.19</ele>
        <time>2021-03-27T13:47:50Z</time>
      </trkpt>
      <trkpt lat="43.01714" lon="-4.482112">
        <ele>1194.71</ele>
        <time>2021-03-27T13:47:54Z</time>
      </trkpt>
      <trkpt lat="43.017376" lon="-4.481358">
        <ele>1196.89</ele>
        <time>2021-03-27T13:47:58Z</time>
      </trkpt>
      <trkpt lat="43.017465" lon="-4.481183">
        <ele>1196.28</ele>
        <time>2021-03-27T13:48:03Z</time>
      </trkpt>
      <trkpt lat="43.017569" lon="-4.481093">
        <ele>1197.26</ele>
        <time>2021-03-27T13:48:07Z</time>
      </trkpt>
      <trkpt lat="43.017735" lon="-4.481034">
        <ele>1199.77</ele>
        <time>2021-03-27T13:48:12Z</time>
      </trkpt>
      <trkpt lat="43.021212" lon="-4.479917">
        <ele>1206.09</ele>
        <time>2021-03-27T13:48:16Z</time>
      </trkpt>
      <trkpt lat="43.021411" lon="-4.479822">
        <ele>1206.71</ele>
        <time>2021-03-27T13:48:20Z</time>
      </trkpt>
      <trkpt lat="43.02159" lon="-4.479694">
        <ele>1206.04</ele>
        <time>2021-03-27T13:48:25Z</time>
      </trkpt>
      <trkpt lat="43.022519" lon="-4.478935">
        <ele>1209.66</ele>
        <time>2021-03-27T13:48:29Z</time>
      </trkpt>
      <trkpt lat="43.022622" lon="-4.478814">
        <ele>1208.56</ele>
        <time>2021-03-27T13:48:34Z</time>
      </trkpt>
      <trkpt lat="43.022719" lon="-4.478621">
        <ele>1205.19</ele>
        <time>2021-03-27T13:48:38Z</time>
      </trkpt>
      <trkpt lat="43.023042" lon="-4.477824">
        <ele>1200.11</ele>
        <time>2021-03-27T13:48:42Z</time>
      </trkpt>
      <trkpt lat="43.023561" lon="-4.476496">
        <ele>1209.53</ele>
        <time>2021-03-27T13:48:47Z</time>
      </trkpt>
      <trkpt lat="43.023718" lon="-4.476218">
        <ele>1210.39</ele>
        <time>2021-03-27T13:48:51Z</time>
      </trkpt>
      <trkpt lat="43.024489" lon="-4.475127">
        <ele>1218.55</ele>
        <time>2021-03-27T13:48:56Z</time>
      </trkpt>
      <trkpt lat="43.024703" lon="-4.474663">
        <ele>1220.76</ele>
        <time>2021-03-27T13:49:00Z</time>
      </trkpt>
      <trkpt lat="43.025034" lon="-4.473771">
        <ele>1224.23</ele>
        <time>2021-03-27T13:49:04Z</time>
      </trkpt>
      <trkpt lat="43.025078" lon="-4.47358">
        <ele>1225.63</ele>
        <time>2021-03-27T13:49:09Z</time>
      </trkpt>
      <trkpt lat="43.025113" lon="-4.473037">
        <ele>1225.19</ele>
        <time>2021-03-27T13:49:13Z</time>
      </trkpt>
      <trkpt lat="43.025086" lon="-4.470998">
        <ele>1222.08</ele>
        <time>2021-03-27T13:49:18Z</time>
      </trkpt>
      <trkpt lat="43.025124" lon="-4.470721">
        <ele>1221.35</ele>
        <time>2021-03-27T13:49:22Z</time>
      </trkpt>
      <trkpt lat="43.025225" lon="-4.470431">
        <ele>1221.16</ele>
        <time>2021-03-27T13:49:26Z</time>
      </trkpt>
      <trkpt lat="43.025621" lon="-4.469715">
        <ele>1224.92</ele>
        <time>2021-03-27T13:49:31Z</time>
      </trkpt>
      <trkpt lat="43.025994" lon="-4.469057">
        <ele>1232.69</ele>
        <time>2021-03-27T13:49:35Z</time>
      </trkpt>
      <trkpt lat="43.026482" lon="-4.468338">
        <ele>1237.41</ele>
        <time>2021-03-27T13:49:39Z</time>
      </trkpt>
      <trkpt lat="43.026751" lon="-4.467982">
        <ele>1241.04</ele>
        <time>2021-03-27T13:49:44Z</time>
      </trkpt>
      <trkpt lat="43.027122" lon="-4.467639">
        <ele>1242.97</ele>
        <time>2021-03-27T13:49:48Z</time>
      </trkpt>
      <trkpt lat="43.027289" lon="-4.467573">
        <ele>1243.7</ele>
        <time>2021-03-27T13:49:53Z</time>
      </trkpt>
      <trkpt lat="43.027547" lon="-4.46754">
        <ele>1244.32</ele>
        <time>2021-03-27T13:49:57Z</time>
      </trkpt>
      <trkpt lat="43.029084" lon="-4.466614">
        <ele>1245.11</ele>
        <time>2021-03-27T13:50:01Z</time>
      </trkpt>
      <trkpt lat="43.029499" lon="-4.466287">
        <ele>1245.62</ele>
        <time>2021-03-27T13:50:06Z</time>
      </trkpt>
      <trkpt lat="43.029713" lon="-4.466082">
        <ele>1247.43</ele>
        <time>2021-03-27T13:50:10Z</time>
      </trkpt>
      <trkpt lat="43.02986" lon="-4.465877">
        <ele>1246.8</ele>
        <time>2021-03-27T13:50:15Z</time>
      </trkpt>
      <trkpt lat="43.029934" lon="-4.465695">
        <ele>1246.69</ele>
        <time>2021-03-27T13:50:19Z</time>
      </trkpt>
      <trkpt lat="43.030124" lon="-4.465029">
        <ele>1252.71</ele>
        <time>2021-03-27T13:50:23Z</time>
      </trkpt>
      <trkpt lat="43.030321" lon="-4.464222">
        <ele>1272.74</ele>
        <time>2021-03-27T13:50:28Z</time>
      </trkpt>
      <trkpt lat="43.030349" lon="-4.464163">
        <ele>1275.34</ele>
        <time>2021-03-27T13:50:32Z</time>
      </trkpt>
      <trkpt lat="43.030424" lon="-4.464123">
        <ele>1281.94</ele>
        <time>2021-03-27T13:50:37Z</time>
      </trkpt>
      <trkpt lat="43.030907" lon="-4.464088">
        <ele>1286.46</ele>
        <time>2021-03-27T13:50:41Z</time>
      </trkpt>
      <trkpt lat="43.031216" lon="-4.463955">
        <ele>1276.4</ele>
        <time>2021-03-27T13:50:45Z</time>
      </trkpt>
      <trkpt lat="43.031564" lon="-4.463677">
        <ele>1275.29</ele>
        <time>2021-03-27T13:50:50Z</time>
      </trkpt>
      <trkpt lat="43.031647" lon="-4.463566">
        <ele>1275.9</ele>
        <time>2021-03-27T13:50:54Z</time>
      </trkpt>
      <trkpt lat="43.031708" lon="-4.463397">
        <ele>1276.39</ele>
        <time>2021-03-27T13:50:59Z</time>
      </trkpt>
      <trkpt lat="43.031769" lon="-4.46314">
        <ele>1276.08</ele>
        <time>2021-03-27T13:51:03Z</time>
      </trkpt>
      <trkpt lat="43.032035" lon="-4.46251">
        <ele>1269.55</ele>
        <time>2021-03-27T13:51:07Z</time>
      </trkpt>
      <trkpt lat="43.032029" lon="-4.462423">
        <ele>1268.6</ele>
        <time>2021-03-27T13:51:12Z</time>
      </trkpt>
      <trkpt lat="43.031943" lon="-4.462165">
        <ele>1266.62</ele>
        <time>2021-03-27T13:51:16Z</time>
      </trkpt>
      <trkpt lat="43.031909" lon="-4.46193">
        <ele>1266.13</ele>
        <time>2021-03-27T13:51:21Z</time>
      </trkpt>
      <trkpt lat="43.031883" lon="-4.461479">
        <ele>1264.16</ele>
        <time>2021-03-27T13:51:25Z</time>
      </trkpt>
      <trkpt lat="43.031839" lon="-4.461258">
        <ele>1263.42</ele>
        <time>2021-03-27T13:51:29Z</time>
      </trkpt>
      <trkpt lat="43.031502" lon="-4.460355">
        <ele>1266.59</ele>
        <time>2021-03-27T13:51:34Z</time>
      </trkpt>
      <trkpt lat="43.031362" lon="-4.460078">
        <ele>1269.08</ele>
        <time>2021-03-27T13:51:38Z</time>
      </trkpt>
      <trkpt lat="43.031182" lon="-4.459802">
        <ele>1272.79</ele>
        <time>2021-03-27T13:51:43Z</time>
      </trkpt>
      <trkpt lat="43.030923" lon="-4.459277">
        <ele>1277.87</ele>
        <time>2021-03-27T13:51:47Z</time>
      </trkpt>
      <trkpt lat="43.030787" lon="-4.458691">
        <ele>1280.91</ele>
        <time>2021-03-27T13:51:51Z</time>
      </trkpt>
      <trkpt lat="43.030765" lon="-4.458149">
        <ele>1283.2</ele>
        <time>2021-03-27T13:51:56Z</time>
      </trkpt>
      <trkpt lat="43.030771" lon="-4.457831">
        <ele>1285.42</ele>
        <time>2021-03-27T13:52:00Z</time>
      </trkpt>
      <trkpt lat="43.030793" lon="-4.457616">
        <ele>1284.22</ele>
        <time>2021-03-27T13:52:04Z</time>
      </trkpt>
      <trkpt lat="43.030849" lon="-4.457445">
        <ele>1281.48</ele>
        <time>2021-03-27T13:52:09Z</time>
      </trkpt>
      <trkpt lat="43.030971" lon="-4.457288">
        <ele>1278.64</ele>
        <time>2021-03-27T13:52:13Z</time>
      </trkpt>
      <trkpt lat="43.031085" lon="-4.457254">
        <ele>1276.48</ele>
        <time>2021-03-27T13:52:18Z</time>
      </trkpt>
      <trkpt lat="43.031165" lon="-4.457278">
        <ele>1277.31</ele>
        <time>2021-03-27T13:52:22Z</time>
      </trkpt>
      <trkpt lat="43.031262" lon="-4.457401">
        <ele>1279.46</ele>
        <time>2021-03-27T13:52:26Z</time>
      </trkpt>
      <trkpt lat="43.031516" lon="-4.458554">
        <ele>1282.04</ele>
        <time>2021-03-27T13:52:31Z</time>
      </trkpt>
      <trkpt lat="43.031574" lon="-4.458759">
        <ele>1287.11</ele>
        <time>2021-03-27T13:52:35Z</time>
      </trkpt>
      <trkpt lat="43.031712" lon="-4.45913">
        <ele>1289.9</ele>
        <time>2021-03-27T13:52:40Z</time>
      </trkpt>
      <trkpt lat="43.031904" lon="-4.459545">
        <ele>1282.8</ele>
        <time>2021-03-27T13:52:44Z</time>
      </trkpt>
      <trkpt lat="43.032107" lon="-4.459885">
        <ele>1280.91</ele>
        <time>2021-03-27T13:52:48Z</time>
      </trkpt>
      <trkpt lat="43.032518" lon="-4.460443">
        <ele>1281.07</ele>
        <time>2021-03-27T13:52:53Z</time>
      </trkpt>
      <trkpt lat="43.032913" lon="-4.460921">
        <ele>1278.22</ele>
        <time>2021-03-27T13:52:57Z</time>
      </trkpt>
      <trkpt lat="43.033015" lon="-4.460989">
        <ele>1280.01</ele>
        <time>2021-03-27T13:53:02Z</time>
      </trkpt>
      <trkpt lat="43.033111" lon="-4.461002">
        <ele>1281.54</ele>
        <time>2021-03-27T13:53:06Z</time>
      </trkpt>
      <trkpt lat="43.033239" lon="-4.46098">
        <ele>1283.11</ele>
        <time>2021-03-27T13:53:10Z</time>
      </trkpt>
      <trkpt lat="43.033365" lon="-4.46091">
        <ele>1286.1</ele>
        <time>2021-03-27T13:53:15Z</time>
      </trkpt>
      <trkpt lat="43.033456" lon="-4.460806">
        <ele>1287.26</ele>
        <time>2021-03-27T13:53:19Z</time>
      </trkpt>
      <trkpt lat="43.033947" lon="-4.459816">
        <ele>1293.74</ele>
        <time>2021-03-27T13:53:24Z</time>
      </trkpt>
      <trkpt lat="43.034228" lon="-4.459136">
        <ele>1290.66</ele>
        <time>2021-03-27T13:53:28Z</time>
      </trkpt>
      <trkpt lat="43.034268" lon="-4.458788">
        <ele>1298.52</ele>
        <time>2021-03-27T13:53:32Z</time>
      </trkpt>
      <trkpt lat="43.034222" lon="-4.458298">
        <ele>1305.08</ele>
        <time>2021-03-27T13:53:37Z</time>
      </trkpt>
      <trkpt lat="43.034208" lon="-4.457809">
        <ele>1309.26</ele>
        <time>2021-03-27T13:53:41Z</time>
      </trkpt>
      <trkpt lat="43.034227" lon="-4.457489">
        <ele>1309.69</ele>
        <time>2021-03-27T13:53:46Z</time>
      </trkpt>
      <trkpt lat="43.034263" lon="-4.457218">
        <ele>1310.56</ele>
        <time>2021-03-27T13:53:50Z</time>
      </trkpt>
      <trkpt lat="43.034328" lon="-4.456976">
        <ele>1311.12</ele>
        <time>2021-03-27T13:53:54Z</time>
      </trkpt>
      <trkpt lat="43.034396" lon="-4.456801">
        <ele>1311.31</ele>
        <time>2021-03-27T13:53:59Z</time>
      </trkpt>
      <trkpt lat="43.034469" lon="-4.456673">
        <ele>1311.62</ele>
        <time>2021-03-27T13:54:03Z</time>
      </trkpt>
      <trkpt lat="43.034921" lon="-4.456171">
        <ele>1318.5</ele>
        <time>2021-03-27T13:54:07Z</time>
      </trkpt>
      <trkpt lat="43.03501" lon="-4.456151">
        <ele>1318.39</ele>
        <time>2021-03-27T13:54:12Z</time>
      </trkpt>
      <trkpt lat="43.03509" lon="-4.456172">
        <ele>1318.81</ele>
        <time>2021-03-27T13:54:16Z</time>
      </trkpt>
      <trkpt lat="43.0355" lon="-4.456693">
        <ele>1314.36</ele>
        <time>2021-03-27T13:54:21Z</time>
      </trkpt>
      <trkpt lat="43.035669" lon="-4.456808">
        <ele>1315.51</ele>
        <time>2021-03-27T13:54:25Z</time>
      </trkpt>
      <trkpt lat="43.036025" lon="-4.456922">
        <ele>1319.31</ele>
        <time>2021-03-27T13:54:29Z</time>
      </trkpt>
      <trkpt lat="43.036615" lon="-4.457062">
        <ele>1321.02</ele>
        <time>2021-03-27T13:54:34Z</time>
      </trkpt>
      <trkpt lat="43.036871" lon="-4.457044">
        <ele>1321.57</ele>
        <time>2021-03-27T13:54:38Z</time>
      </trkpt>
      <trkpt lat="43.037054" lon="-4.45696">
        <ele>1323.55</ele>
        <time>2021-03-27T13:54:43Z</time>
      </trkpt>
      <trkpt lat="43.037211" lon="-4.456924">
        <ele>1325.08</ele>
        <time>2021-03-27T13:54:47Z</time>
      </trkpt>
      <trkpt lat="43.037343" lon="-4.456968">
        <ele>1325.48</ele>
        <time>2021-03-27T13:54:51Z</time>
      </trkpt>
      <trkpt lat="43.037917" lon="-4.457567">
        <ele>1324.88</ele>
        <time>2021-03-27T13:54:56Z</time>
      </trkpt>
      <trkpt lat="43.038098" lon="-4.457692">
        <ele>1325.88</ele>
        <time>2021-03-27T13:55:00Z</time>
      </trkpt>
      <trkpt lat="43.038426" lon="-4.457798">
        <ele>1324.67</ele>
        <time>2021-03-27T13:55:05Z</time>
      </trkpt>
      <trkpt lat="43.038641" lon="-4.457814">
        <ele>1326.58</ele>
        <time>2021-03-27T13:55:09Z</time>
      </trkpt>
      <trkpt lat="43.039637" lon="-4.457722">
        <ele>1333.68</ele>
        <time>2021-03-27T13:55:13Z</time>
      </trkpt>
      <trkpt lat="43.039978" lon="-4.45758">
        <ele>1337.97</ele>
        <time>2021-03-27T13:55:18Z</time>
      </trkpt>
      <trkpt lat="43.040054" lon="-4.457568">
        <ele>1338.8</ele>
        <time>2021-03-27T13:55:22Z</time>
      </trkpt>
      <trkpt lat="43.040123" lon="-4.457576">
        <ele>1339.43</ele>
        <time>2021-03-27T13:55:27Z</time>
      </trkpt>
      <trkpt lat="43.040229" lon="-4.457653">
        <ele>1340.36</ele>
        <time>2021-03-27T13:55:31Z</time>
      </trkpt>
      <trkpt lat="43.040443" lon="-4.457944">
        <ele>1342.78</ele>
        <time>2021-03-27T13:55:35Z</time>
      </trkpt>
      <trkpt lat="43.040646" lon="-4.458094">
        <ele>1345.07</ele>
        <time>2021-03-27T13:55:40Z</time>
      </trkpt>
      <trkpt lat="43.040837" lon="-4.458148">
        <ele>1347.03</ele>
        <time>2021-03-27T13:55:44Z</time>
      </trkpt>
      <trkpt lat="43.041117" lon="-4.458186">
        <ele>1349.46</ele>
        <time>2021-03-27T13:55:49Z</time>
      </trkpt>
      <trkpt lat="43.041307" lon="-4.458146">
        <ele>1349.09</ele>
        <time>2021-03-27T13:55:53Z</time>
      </trkpt>
      <trkpt lat="43.041408" lon="-4.458094">
        <ele>1348.78</ele>
        <time>2021-03-27T13:55:57Z</time>
      </trkpt>
      <trkpt lat="43.042498" lon="-4.456954">
        <ele>1346.79</ele>
        <time>2021-03-27T13:56:02Z</time>
      </trkpt>
      <trkpt lat="43.042762" lon="-4.456715">
        <ele>1346.7</ele>
        <time>2021-03-27T13:56:06Z</time>
      </trkpt>
      <trkpt lat="43.043283" lon="-4.456295">
        <ele>1344.16</ele>
        <time>2021-03-27T13:56:10Z</time>
      </trkpt>
      <trkpt lat="43.043359" lon="-4.456212">
        <ele>1344.05</ele>
        <time>2021-03-27T13:56:15Z</time>
      </trkpt>
      <trkpt lat="43.043414" lon="-4.456132">
        <ele>1344.23</ele>
        <time>2021-03-27T13:56:19Z</time>
      </trkpt>
      <trkpt lat="43.043489" lon="-4.455959">
        <ele>1345.31</ele>
        <time>2021-03-27T13:56:24Z</time>
      </trkpt>
      <trkpt lat="43.043587" lon="-4.45563">
        <ele>1347.53</ele>
        <time>2021-03-27T13:56:28Z</time>
      </trkpt>
      <trkpt lat="43.043929" lon="-4.453808">
        <ele>1343.27</ele>
        <time>2021-03-27T13:56:32Z</time>
      </trkpt>
      <trkpt lat="43.043956" lon="-4.453725">
        <ele>1343.77</ele>
        <time>2021-03-27T13:56:37Z</time>
      </trkpt>
      <trkpt lat="43.043986" lon="-4.453674">
        <ele>1344.23</ele>
        <time>2021-03-27T13:56:41Z</time>
      </trkpt>
      <trkpt lat="43.044083" lon="-4.453619">
        <ele>1345.31</ele>
        <time>2021-03-27T13:56:46Z</time>
      </trkpt>
      <trkpt lat="43.044168" lon="-4.4536">
        <ele>1346.1</ele>
        <time>2021-03-27T13:56:50Z</time>
      </trkpt>
      <trkpt lat="43.044503" lon="-4.453609">
        <ele>1341.56</ele>
        <time>2021-03-27T13:56:54Z</time>
      </trkpt>
      <trkpt lat="43.044635" lon="-4.453557">
        <ele>1339.23</ele>
        <time>2021-03-27T13:56:59Z</time>
      </trkpt>
      <trkpt lat="43.04472" lon="-4.453425">
        <ele>1339.41</ele>
        <time>2021-03-27T13:57:03Z</time>
      </trkpt>
      <trkpt lat="43.044839" lon="-4.452895">
        <ele>1342.23</ele>
        <time>2021-03-27T13:57:08Z</time>
      </trkpt>
      <trkpt lat="43.044893" lon="-4.452746">
        <ele>1341.61</ele>
        <time>2021-03-27T13:57:12Z</time>
      </trkpt>
      <trkpt lat="43.045014" lon="-4.452492">
        <ele>1340.47</ele>
        <time>2021-03-27T13:57:16Z</time>
      </trkpt>
      <trkpt lat="43.045451" lon="-4.451707">
        <ele>1337.96</ele>
        <time>2021-03-27T13:57:21Z</time>
      </trkpt>
      <trkpt lat="43.045621" lon="-4.451516">
        <ele>1336.43</ele>
        <time>2021-03-27T13:57:25Z</time>
      </trkpt>
      <trkpt lat="43.046081" lon="-4.451201">
        <ele>1330.65</ele>
        <time>2021-03-27T13:57:30Z</time>
      </trkpt>
      <trkpt lat="43.04619" lon="-4.451167">
        <ele>1330.65</ele>
        <time>2021-03-27T13:57:34Z</time>
      </trkpt>
      <trkpt lat="43.046312" lon="-4.451164">
        <ele>1330.81</ele>
        <time>2021-03-27T13:57:38Z</time>
      </trkpt>
      <trkpt lat="43.046418" lon="-4.451194">
        <ele>1330.63</ele>
        <time>2021-03-27T13:57:43Z</time>
      </trkpt>
      <trkpt lat="43.046636" lon="-4.451335">
        <ele>1330.73</ele>
        <time>2021-03-27T13:57:47Z</time>
      </trkpt>
      <trkpt lat="43.046723" lon="-4.451419">
        <ele>1329.99</ele>
        <time>2021-03-27T13:57:52Z</time>
      </trkpt>
      <trkpt lat="43.04683" lon="-4.45164">
        <ele>1328.09</ele>
        <time>2021-03-27T13:57:56Z</time>
      </trkpt>
      <trkpt lat="43.046949" lon="-4.452027">
        <ele>1325.57</ele>
        <time>2021-03-27T13:58:00Z</time>
      </trkpt>
      <trkpt lat="43.047062" lon="-4.452253">
        <ele>1322.99</ele>
        <time>2021-03-27T13:58:05Z</time>
      </trkpt>
      <trkpt lat="43.04732" lon="-4.452599">
        <ele>1320.85</ele>
        <time>2021-03-27T13:58:09Z</time>
      </trkpt>
      <trkpt lat="43.047694" lon="-4.452919">
        <ele>1321.49</ele>
        <time>2021-03-27T13:58:13Z</time>
      </trkpt>
      <trkpt lat="43.047884" lon="-4.45315">
        <ele>1321.39</ele>
        <time>2021-03-27T13:58:18Z</time>
      </trkpt>
      <trkpt lat="43.048167" lon="-4.45361">
        <ele>1321.46</ele>
        <time>2021-03-27T13:58:22Z</time>
      </trkpt>
      <trkpt lat="43.048584" lon="-4.454146">
        <ele>1318.74</ele>
        <time>2021-03-27T13:58:27Z</time>
      </trkpt>
      <trkpt lat="43.048806" lon="-4.454474">
        <ele>1318.85</ele>
        <time>2021-03-27T13:58:31Z</time>
      </trkpt>
      <trkpt lat="43.049083" lon="-4.455054">
        <ele>1317.29</ele>
        <time>2021-03-27T13:58:35Z</time>
      </trkpt>
      <trkpt lat="43.049293" lon="-4.455629">
        <ele>1312.21</ele>
        <time>2021-03-27T13:58:40Z</time>
      </trkpt>
      <trkpt lat="43.049506" lon="-4.456103">
        <ele>1313.19</ele>
        <time>2021-03-27T13:58:44Z</time>
      </trkpt>
      <trkpt lat="43.049605" lon="-4.456231">
        <ele>1312.48</ele>
        <time>2021-03-27T13:58:49Z</time>
      </trkpt>
      <trkpt lat="43.050346" lon="-4.457025">
        <ele>1304.77</ele>
        <time>2021-03-27T13:58:53Z</time>
      </trkpt>
      <trkpt lat="43.050453" lon="-4.457096">
        <ele>1302.46</ele>
        <time>2021-03-27T13:58:57Z</time>
      </trkpt>
      <trkpt lat="43.050555" lon="-4.457128">
        <ele>1301.04</ele>
        <time>2021-03-27T13:59:02Z</time>
      </trkpt>
      <trkpt lat="43.050935" lon="-4.45714">
        <ele>1302.95</ele>
        <time>2021-03-27T13:59:06Z</time>
      </trkpt>
      <trkpt lat="43.051288" lon="-4.457254">
        <ele>1301.28</ele>
        <time>2021-03-27T13:59:11Z</time>
      </trkpt>
      <trkpt lat="43.051594" lon="-4.457288">
        <ele>1299.84</ele>
        <time>2021-03-27T13:59:15Z</time>
      </trkpt>
      <trkpt lat="43.051824" lon="-4.457244">
        <ele>1297.69</ele>
        <time>2021-03-27T13:59:19Z</time>
      </trkpt>
      <trkpt lat="43.051924" lon="-4.457195">
        <ele>1296.85</ele>
        <time>2021-03-27T13:59:24Z</time>
      </trkpt>
      <trkpt lat="43.052123" lon="-4.457004">
        <ele>1292.99</ele>
        <time>2021-03-27T13:59:28Z</time>
      </trkpt>
      <trkpt lat="43.052299" lon="-4.456692">
        <ele>1291.7</ele>
        <time>2021-03-27T13:59:33Z</time>
      </trkpt>
      <trkpt lat="43.052844" lon="-4.455491">
        <ele>1286.72</ele>
        <time>2021-03-27T13:59:37Z</time>
      </trkpt>
      <trkpt lat="43.053117" lon="-4.454952">
        <ele>1284.52</ele>
        <time>2021-03-27T13:59:41Z</time>
      </trkpt>
      <trkpt lat="43.053515" lon="-4.454276">
        <ele>1278.19</ele>
        <time>2021-03-27T13:59:46Z</time>
      </trkpt>
      <trkpt lat="43.053655" lon="-4.45399">
        <ele>1276.46</ele>
        <time>2021-03-27T13:59:50Z</time>
      </trkpt>
      <trkpt lat="43.053745" lon="-4.45379">
        <ele>1273.34</ele>
        <time>2021-03-27T13:59:55Z</time>
      </trkpt>
      <trkpt lat="43.053915" lon="-4.45331">
        <ele>1269.55</ele>
        <time>2021-03-27T13:59:59Z</time>
      </trkpt>
      <trkpt lat="43.054285" lon="-4.452425">
        <ele>1266.02</ele>
        <time>2021-03-27T14:00:03Z</time>
      </trkpt>
      <trkpt lat="43.0544" lon="-4.452255">
        <ele>1267.47</ele>
        <time>2021-03-27T14:00:08Z</time>
      </trkpt>
      <trkpt lat="43.054503" lon="-4.452217">
        <ele>1270.45</ele>
        <time>2021-03-27T14:00:12Z</time>
      </trkpt>
      <trkpt lat="43.054556" lon="-4.452226">
        <ele>1272.34</ele>
        <time>2021-03-27T14:00:16Z</time>
      </trkpt>
      <trkpt lat="43.054613" lon="-4.452268">
        <ele>1273.93</ele>
        <time>2021-03-27T14:00:21Z</time>
      </trkpt>
      <trkpt lat="43.054671" lon="-4.452359">
        <ele>1274.93</ele>
        <time>2021-03-27T14:00:25Z</time>
      </trkpt>
      <trkpt lat="43.054741" lon="-4.452518">
        <ele>1275.6</ele>
        <time>2021-03-27T14:00:30Z</time>
      </trkpt>
      <trkpt lat="43.054893" lon="-4.453029">
        <ele>1272.73</ele>
        <time>2021-03-27T14:00:34Z</time>
      </trkpt>
      <trkpt lat="43.054926" lon="-4.453178">
        <ele>1270.94</ele>
        <time>2021-03-27T14:00:38Z</time>
      </trkpt>
      <trkpt lat="43.054966" lon="-4.453478">
        <ele>1265.12</ele>
        <time>2021-03-27T14:00:43Z</time>
      </trkpt>
      <trkpt lat="43.055004" lon="-4.453813">
        <ele>1255.66</ele>
        <time>2021-03-27T14:00:47Z</time>
      </trkpt>
      <trkpt lat="43.055037" lon="-4.453966">
        <ele>1253.73</ele>
        <time>2021-03-27T14:00:52Z</time>
      </trkpt>
      <trkpt lat="43.055186" lon="-4.454496">
        <ele>1248.05</ele>
        <time>2021-03-27T14:00:56Z</time>
      </trkpt>
      <trkpt lat="43.055336" lon="-4.455649">
        <ele>1249.35</ele>
        <time>2021-03-27T14:01:00Z</time>
      </trkpt>
      <trkpt lat="43.05532" lon="-4.455844">
        <ele>1250.64</ele>
        <time>2021-03-27T14:01:05Z</time>
      </trkpt>
      <trkpt lat="43.055238" lon="-4.456164">
        <ele>1245.9</ele>
        <time>2021-03-27T14:01:09Z</time>
      </trkpt>
      <trkpt lat="43.055113" lon="-4.456782">
        <ele>1244.74</ele>
        <time>2021-03-27T14:01:14Z</time>
      </trkpt>
      <trkpt lat="43.05512" lon="-4.457095">
        <ele>1247.35</ele>
        <time>2021-03-27T14:01:18Z</time>
      </trkpt>
      <trkpt lat="43.055196" lon="-4.457778">
        <ele>1249.38</ele>
        <time>2021-03-27T14:01:22Z</time>
      </trkpt>
      <trkpt lat="43.055204" lon="-4.458002">
        <ele>1247.37</ele>
        <time>2021-03-27T14:01:27Z</time>
      </trkpt>
      <trkpt lat="43.05519" lon="-4.458485">
        <ele>1234.87</ele>
        <time>2021-03-27T14:01:31Z</time>
      </trkpt>
      <trkpt lat="43.055212" lon="-4.459026">
        <ele>1223.76</ele>
        <time>2021-03-27T14:01:36Z</time>
      </trkpt>
      <trkpt lat="43.055212" lon="-4.459026">
        <ele>1223.76</ele>
        <time>2021-03-27T14:01:36Z</time>
      </trkpt>
      <trkpt lat="43.05519" lon="-4.458485">
        <ele>1234.87</ele>
        <time>2021-03-27T14:01:40Z</time>
      </trkpt>
      <trkpt lat="43.055204" lon="-4.458002">
        <ele>1247.37</ele>
        <time>2021-03-27T14:01:45Z</time>
      </trkpt>
      <trkpt lat="43.055196" lon="-4.457778">
        <ele>1249.38</ele>
        <time>2021-03-27T14:01:49Z</time>
      </trkpt>
      <trkpt lat="43.05512" lon="-4.457095">
        <ele>1247.35</ele>
        <time>2021-03-27T14:01:54Z</time>
      </trkpt>
      <trkpt lat="43.055113" lon="-4.456782">
        <ele>1244.74</ele>
        <time>2021-03-27T14:01:58Z</time>
      </trkpt>
      <trkpt lat="43.055238" lon="-4.456164">
        <ele>1245.9</ele>
        <time>2021-03-27T14:02:03Z</time>
      </trkpt>
      <trkpt lat="43.05532" lon="-4.455844">
        <ele>1250.64</ele>
        <time>2021-03-27T14:02:07Z</time>
      </trkpt>
      <trkpt lat="43.055336" lon="-4.455649">
        <ele>1249.35</ele>
        <time>2021-03-27T14:02:12Z</time>
      </trkpt>
      <trkpt lat="43.055186" lon="-4.454496">
        <ele>1248.05</ele>
        <time>2021-03-27T14:02:16Z</time>
      </trkpt>
      <trkpt lat="43.055037" lon="-4.453966">
        <ele>1253.73</ele>
        <time>2021-03-27T14:02:21Z</time>
      </trkpt>
      <trkpt lat="43.055004" lon="-4.453813">
        <ele>1255.66</ele>
        <time>2021-03-27T14:02:25Z</time>
      </trkpt>
      <trkpt lat="43.054966" lon="-4.453478">
        <ele>1265.12</ele>
        <time>2021-03-27T14:02:30Z</time>
      </trkpt>
      <trkpt lat="43.054926" lon="-4.453178">
        <ele>1270.94</ele>
        <time>2021-03-27T14:02:34Z</time>
      </trkpt>
      <trkpt lat="43.054893" lon="-4.453029">
        <ele>1272.73</ele>
        <time>2021-03-27T14:02:39Z</time>
      </trkpt>
      <trkpt lat="43.054741" lon="-4.452518">
        <ele>1275.6</ele>
        <time>2021-03-27T14:02:43Z</time>
      </trkpt>
      <trkpt lat="43.054671" lon="-4.452359">
        <ele>1274.93</ele>
        <time>2021-03-27T14:02:48Z</time>
      </trkpt>
      <trkpt lat="43.054613" lon="-4.452268">
        <ele>1273.93</ele>
        <time>2021-03-27T14:02:52Z</time>
      </trkpt>
      <trkpt lat="43.054556" lon="-4.452226">
        <ele>1272.34</ele>
        <time>2021-03-27T14:02:57Z</time>
      </trkpt>
      <trkpt lat="43.054503" lon="-4.452217">
        <ele>1270.45</ele>
        <time>2021-03-27T14:03:01Z</time>
      </trkpt>
      <trkpt lat="43.0544" lon="-4.452255">
        <ele>1267.47</ele>
        <time>2021-03-27T14:03:06Z</time>
      </trkpt>
      <trkpt lat="43.054285" lon="-4.452425">
        <ele>1266.02</ele>
        <time>2021-03-27T14:03:10Z</time>
      </trkpt>
      <trkpt lat="43.053915" lon="-4.45331">
        <ele>1269.55</ele>
        <time>2021-03-27T14:03:15Z</time>
      </trkpt>
      <trkpt lat="43.053745" lon="-4.45379">
        <ele>1273.34</ele>
        <time>2021-03-27T14:03:19Z</time>
      </trkpt>
      <trkpt lat="43.053655" lon="-4.45399">
        <ele>1276.46</ele>
        <time>2021-03-27T14:03:24Z</time>
      </trkpt>
      <trkpt lat="43.053515" lon="-4.454276">
        <ele>1278.19</ele>
        <time>2021-03-27T14:03:28Z</time>
      </trkpt>
      <trkpt lat="43.053117" lon="-4.454952">
        <ele>1284.52</ele>
        <time>2021-03-27T14:03:33Z</time>
      </trkpt>
      <trkpt lat="43.052844" lon="-4.455491">
        <ele>1286.72</ele>
        <time>2021-03-27T14:03:38Z</time>
      </trkpt>
      <trkpt lat="43.052299" lon="-4.456692">
        <ele>1291.7</ele>
        <time>2021-03-27T14:03:42Z</time>
      </trkpt>
      <trkpt lat="43.052123" lon="-4.457004">
        <ele>1292.99</ele>
        <time>2021-03-27T14:03:47Z</time>
      </trkpt>
      <trkpt lat="43.051924" lon="-4.457195">
        <ele>1296.85</ele>
        <time>2021-03-27T14:03:51Z</time>
      </trkpt>
      <trkpt lat="43.051824" lon="-4.457244">
        <ele>1297.69</ele>
        <time>2021-03-27T14:03:56Z</time>
      </trkpt>
      <trkpt lat="43.051594" lon="-4.457288">
        <ele>1299.84</ele>
        <time>2021-03-27T14:04:00Z</time>
      </trkpt>
      <trkpt lat="43.051288" lon="-4.457254">
        <ele>1301.28</ele>
        <time>2021-03-27T14:04:05Z</time>
      </trkpt>
      <trkpt lat="43.050935" lon="-4.45714">
        <ele>1302.95</ele>
        <time>2021-03-27T14:04:09Z</time>
      </trkpt>
      <trkpt lat="43.050555" lon="-4.457128">
        <ele>1301.04</ele>
        <time>2021-03-27T14:04:14Z</time>
      </trkpt>
      <trkpt lat="43.050453" lon="-4.457096">
        <ele>1302.46</ele>
        <time>2021-03-27T14:04:18Z</time>
      </trkpt>
      <trkpt lat="43.050346" lon="-4.457025">
        <ele>1304.77</ele>
        <time>2021-03-27T14:04:23Z</time>
      </trkpt>
      <trkpt lat="43.049605" lon="-4.456231">
        <ele>1312.48</ele>
        <time>2021-03-27T14:04:27Z</time>
      </trkpt>
      <trkpt lat="43.049506" lon="-4.456103">
        <ele>1313.19</ele>
        <time>2021-03-27T14:04:32Z</time>
      </trkpt>
      <trkpt lat="43.049293" lon="-4.455629">
        <ele>1312.21</ele>
        <time>2021-03-27T14:04:36Z</time>
      </trkpt>
      <trkpt lat="43.049083" lon="-4.455054">
        <ele>1317.29</ele>
        <time>2021-03-27T14:04:41Z</time>
      </trkpt>
      <trkpt lat="43.048806" lon="-4.454474">
        <ele>1318.85</ele>
        <time>2021-03-27T14:04:45Z</time>
      </trkpt>
      <trkpt lat="43.048584" lon="-4.454146">
        <ele>1318.74</ele>
        <time>2021-03-27T14:04:50Z</time>
      </trkpt>
      <trkpt lat="43.048167" lon="-4.45361">
        <ele>1321.46</ele>
        <time>2021-03-27T14:04:54Z</time>
      </trkpt>
      <trkpt lat="43.047884" lon="-4.45315">
        <ele>1321.39</ele>
        <time>2021-03-27T14:04:59Z</time>
      </trkpt>
      <trkpt lat="43.047694" lon="-4.452919">
        <ele>1321.49</ele>
        <time>2021-03-27T14:05:03Z</time>
      </trkpt>
      <trkpt lat="43.04732" lon="-4.452599">
        <ele>1320.85</ele>
        <time>2021-03-27T14:05:08Z</time>
      </trkpt>
      <trkpt lat="43.047062" lon="-4.452253">
        <ele>1322.99</ele>
        <time>2021-03-27T14:05:12Z</time>
      </trkpt>
      <trkpt lat="43.046949" lon="-4.452027">
        <ele>1325.57</ele>
        <time>2021-03-27T14:05:17Z</time>
      </trkpt>
      <trkpt lat="43.04683" lon="-4.45164">
        <ele>1328.09</ele>
        <time>2021-03-27T14:05:21Z</time>
      </trkpt>
      <trkpt lat="43.046723" lon="-4.451419">
        <ele>1329.99</ele>
        <time>2021-03-27T14:05:26Z</time>
      </trkpt>
      <trkpt lat="43.046636" lon="-4.451335">
        <ele>1330.73</ele>
        <time>2021-03-27T14:05:30Z</time>
      </trkpt>
      <trkpt lat="43.046418" lon="-4.451194">
        <ele>1330.63</ele>
        <time>2021-03-27T14:05:35Z</time>
      </trkpt>
      <trkpt lat="43.046312" lon="-4.451164">
        <ele>1330.81</ele>
        <time>2021-03-27T14:05:39Z</time>
      </trkpt>
      <trkpt lat="43.04619" lon="-4.451167">
        <ele>1330.65</ele>
        <time>2021-03-27T14:05:44Z</time>
      </trkpt>
      <trkpt lat="43.046081" lon="-4.451201">
        <ele>1330.65</ele>
        <time>2021-03-27T14:05:48Z</time>
      </trkpt>
      <trkpt lat="43.045621" lon="-4.451516">
        <ele>1336.43</ele>
        <time>2021-03-27T14:05:53Z</time>
      </trkpt>
      <trkpt lat="43.045451" lon="-4.451707">
        <ele>1337.96</ele>
        <time>2021-03-27T14:05:57Z</time>
      </trkpt>
      <trkpt lat="43.045014" lon="-4.452492">
        <ele>1340.47</ele>
        <time>2021-03-27T14:06:02Z</time>
      </trkpt>
      <trkpt lat="43.044893" lon="-4.452746">
        <ele>1341.61</ele>
        <time>2021-03-27T14:06:06Z</time>
      </trkpt>
      <trkpt lat="43.044839" lon="-4.452895">
        <ele>1342.23</ele>
        <time>2021-03-27T14:06:11Z</time>
      </trkpt>
      <trkpt lat="43.04472" lon="-4.453425">
        <ele>1339.41</ele>
        <time>2021-03-27T14:06:16Z</time>
      </trkpt>
      <trkpt lat="43.044635" lon="-4.453557">
        <ele>1339.23</ele>
        <time>2021-03-27T14:06:20Z</time>
      </trkpt>
      <trkpt lat="43.044503" lon="-4.453609">
        <ele>1341.56</ele>
        <time>2021-03-27T14:06:25Z</time>
      </trkpt>
      <trkpt lat="43.044168" lon="-4.4536">
        <ele>1346.1</ele>
        <time>2021-03-27T14:06:29Z</time>
      </trkpt>
      <trkpt lat="43.044083" lon="-4.453619">
        <ele>1345.31</ele>
        <time>2021-03-27T14:06:34Z</time>
      </trkpt>
      <trkpt lat="43.043986" lon="-4.453674">
        <ele>1344.23</ele>
        <time>2021-03-27T14:06:38Z</time>
      </trkpt>
      <trkpt lat="43.043956" lon="-4.453725">
        <ele>1343.77</ele>
        <time>2021-03-27T14:06:43Z</time>
      </trkpt>
      <trkpt lat="43.043929" lon="-4.453808">
        <ele>1343.27</ele>
        <time>2021-03-27T14:06:47Z</time>
      </trkpt>
      <trkpt lat="43.043587" lon="-4.45563">
        <ele>1347.53</ele>
        <time>2021-03-27T14:06:52Z</time>
      </trkpt>
      <trkpt lat="43.043489" lon="-4.455959">
        <ele>1345.31</ele>
        <time>2021-03-27T14:06:56Z</time>
      </trkpt>
      <trkpt lat="43.043414" lon="-4.456132">
        <ele>1344.23</ele>
        <time>2021-03-27T14:07:01Z</time>
      </trkpt>
      <trkpt lat="43.043359" lon="-4.456212">
        <ele>1344.05</ele>
        <time>2021-03-27T14:07:05Z</time>
      </trkpt>
      <trkpt lat="43.043283" lon="-4.456295">
        <ele>1344.16</ele>
        <time>2021-03-27T14:07:10Z</time>
      </trkpt>
      <trkpt lat="43.042762" lon="-4.456715">
        <ele>1346.7</ele>
        <time>2021-03-27T14:07:14Z</time>
      </trkpt>
      <trkpt lat="43.042498" lon="-4.456954">
        <ele>1346.79</ele>
        <time>2021-03-27T14:07:19Z</time>
      </trkpt>
      <trkpt lat="43.041408" lon="-4.458094">
        <ele>1348.78</ele>
        <time>2021-03-27T14:07:23Z</time>
      </trkpt>
      <trkpt lat="43.041307" lon="-4.458146">
        <ele>1349.09</ele>
        <time>2021-03-27T14:07:28Z</time>
      </trkpt>
      <trkpt lat="43.041117" lon="-4.458186">
        <ele>1349.46</ele>
        <time>2021-03-27T14:07:32Z</time>
      </trkpt>
      <trkpt lat="43.040837" lon="-4.458148">
        <ele>1347.03</ele>
        <time>2021-03-27T14:07:37Z</time>
      </trkpt>
      <trkpt lat="43.040646" lon="-4.458094">
        <ele>1345.07</ele>
        <time>2021-03-27T14:07:41Z</time>
      </trkpt>
      <trkpt lat="43.040443" lon="-4.457944">
        <ele>1342.78</ele>
        <time>2021-03-27T14:07:46Z</time>
      </trkpt>
      <trkpt lat="43.040229" lon="-4.457653">
        <ele>1340.36</ele>
        <time>2021-03-27T14:07:50Z</time>
      </trkpt>
      <trkpt lat="43.040123" lon="-4.457576">
        <ele>1339.43</ele>
        <time>2021-03-27T14:07:55Z</time>
      </trkpt>
      <trkpt lat="43.040054" lon="-4.457568">
        <ele>1338.8</ele>
        <time>2021-03-27T14:07:59Z</time>
      </trkpt>
      <trkpt lat="43.039978" lon="-4.45758">
        <ele>1337.97</ele>
        <time>2021-03-27T14:08:04Z</time>
      </trkpt>
      <trkpt lat="43.039637" lon="-4.457722">
        <ele>1333.68</ele>
        <time>2021-03-27T14:08:08Z</time>
      </trkpt>
      <trkpt lat="43.038641" lon="-4.457814">
        <ele>1326.58</ele>
        <time>2021-03-27T14:08:13Z</time>
      </trkpt>
      <trkpt lat="43.038426" lon="-4.457798">
        <ele>1324.67</ele>
        <time>2021-03-27T14:08:17Z</time>
      </trkpt>
      <trkpt lat="43.038098" lon="-4.457692">
        <ele>1325.88</ele>
        <time>2021-03-27T14:08:22Z</time>
      </trkpt>
      <trkpt lat="43.037917" lon="-4.457567">
        <ele>1324.88</ele>
        <time>2021-03-27T14:08:26Z</time>
      </trkpt>
      <trkpt lat="43.037343" lon="-4.456968">
        <ele>1325.48</ele>
        <time>2021-03-27T14:08:31Z</time>
      </trkpt>
      <trkpt lat="43.037211" lon="-4.456924">
        <ele>1325.08</ele>
        <time>2021-03-27T14:08:35Z</time>
      </trkpt>
      <trkpt lat="43.037054" lon="-4.45696">
        <ele>1323.55</ele>
        <time>2021-03-27T14:08:40Z</time>
      </trkpt>
      <trkpt lat="43.036871" lon="-4.457044">
        <ele>1321.57</ele>
        <time>2021-03-27T14:08:44Z</time>
      </trkpt>
      <trkpt lat="43.036615" lon="-4.457062">
        <ele>1321.02</ele>
        <time>2021-03-27T14:08:49Z</time>
      </trkpt>
      <trkpt lat="43.036025" lon="-4.456922">
        <ele>1319.31</ele>
        <time>2021-03-27T14:08:54Z</time>
      </trkpt>
      <trkpt lat="43.035669" lon="-4.456808">
        <ele>1315.51</ele>
        <time>2021-03-27T14:08:58Z</time>
      </trkpt>
      <trkpt lat="43.0355" lon="-4.456693">
        <ele>1314.36</ele>
        <time>2021-03-27T14:09:03Z</time>
      </trkpt>
      <trkpt lat="43.03509" lon="-4.456172">
        <ele>1318.81</ele>
        <time>2021-03-27T14:09:07Z</time>
      </trkpt>
      <trkpt lat="43.03501" lon="-4.456151">
        <ele>1318.39</ele>
        <time>2021-03-27T14:09:12Z</time>
      </trkpt>
      <trkpt lat="43.034921" lon="-4.456171">
        <ele>1318.5</ele>
        <time>2021-03-27T14:09:16Z</time>
      </trkpt>
      <trkpt lat="43.034469" lon="-4.456673">
        <ele>1311.62</ele>
        <time>2021-03-27T14:09:21Z</time>
      </trkpt>
      <trkpt lat="43.034396" lon="-4.456801">
        <ele>1311.31</ele>
        <time>2021-03-27T14:09:25Z</time>
      </trkpt>
      <trkpt lat="43.034328" lon="-4.456976">
        <ele>1311.12</ele>
        <time>2021-03-27T14:09:30Z</time>
      </trkpt>
      <trkpt lat="43.034263" lon="-4.457218">
        <ele>1310.56</ele>
        <time>2021-03-27T14:09:34Z</time>
      </trkpt>
      <trkpt lat="43.034227" lon="-4.457489">
        <ele>1309.69</ele>
        <time>2021-03-27T14:09:39Z</time>
      </trkpt>
      <trkpt lat="43.034208" lon="-4.457809">
        <ele>1309.26</ele>
        <time>2021-03-27T14:09:43Z</time>
      </trkpt>
      <trkpt lat="43.034222" lon="-4.458298">
        <ele>1305.08</ele>
        <time>2021-03-27T14:09:48Z</time>
      </trkpt>
      <trkpt lat="43.034268" lon="-4.458788">
        <ele>1298.52</ele>
        <time>2021-03-27T14:09:52Z</time>
      </trkpt>
      <trkpt lat="43.034228" lon="-4.459136">
        <ele>1290.66</ele>
        <time>2021-03-27T14:09:57Z</time>
      </trkpt>
      <trkpt lat="43.033947" lon="-4.459816">
        <ele>1293.74</ele>
        <time>2021-03-27T14:10:01Z</time>
      </trkpt>
      <trkpt lat="43.033456" lon="-4.460806">
        <ele>1287.26</ele>
        <time>2021-03-27T14:10:06Z</time>
      </trkpt>
      <trkpt lat="43.033365" lon="-4.46091">
        <ele>1286.1</ele>
        <time>2021-03-27T14:10:10Z</time>
      </trkpt>
      <trkpt lat="43.033239" lon="-4.46098">
        <ele>1283.11</ele>
        <time>2021-03-27T14:10:15Z</time>
      </trkpt>
      <trkpt lat="43.033111" lon="-4.461002">
        <ele>1281.54</ele>
        <time>2021-03-27T14:10:19Z</time>
      </trkpt>
      <trkpt lat="43.033015" lon="-4.460989">
        <ele>1280.01</ele>
        <time>2021-03-27T14:10:24Z</time>
      </trkpt>
      <trkpt lat="43.032913" lon="-4.460921">
        <ele>1278.22</ele>
        <time>2021-03-27T14:10:28Z</time>
      </trkpt>
      <trkpt lat="43.032518" lon="-4.460443">
        <ele>1281.07</ele>
        <time>2021-03-27T14:10:33Z</time>
      </trkpt>
      <trkpt lat="43.032107" lon="-4.459885">
        <ele>1280.91</ele>
        <time>2021-03-27T14:10:37Z</time>
      </trkpt>
      <trkpt lat="43.031904" lon="-4.459545">
        <ele>1282.8</ele>
        <time>2021-03-27T14:10:42Z</time>
      </trkpt>
      <trkpt lat="43.031712" lon="-4.45913">
        <ele>1289.9</ele>
        <time>2021-03-27T14:10:46Z</time>
      </trkpt>
      <trkpt lat="43.031574" lon="-4.458759">
        <ele>1287.11</ele>
        <time>2021-03-27T14:10:51Z</time>
      </trkpt>
      <trkpt lat="43.031516" lon="-4.458554">
        <ele>1282.04</ele>
        <time>2021-03-27T14:10:55Z</time>
      </trkpt>
      <trkpt lat="43.031262" lon="-4.457401">
        <ele>1279.46</ele>
        <time>2021-03-27T14:11:00Z</time>
      </trkpt>
      <trkpt lat="43.031165" lon="-4.457278">
        <ele>1277.31</ele>
        <time>2021-03-27T14:11:04Z</time>
      </trkpt>
      <trkpt lat="43.031085" lon="-4.457254">
        <ele>1276.48</ele>
        <time>2021-03-27T14:11:09Z</time>
      </trkpt>
      <trkpt lat="43.030971" lon="-4.457288">
        <ele>1278.64</ele>
        <time>2021-03-27T14:11:13Z</time>
      </trkpt>
      <trkpt lat="43.030849" lon="-4.457445">
        <ele>1281.48</ele>
        <time>2021-03-27T14:11:18Z</time>
      </trkpt>
      <trkpt lat="43.030793" lon="-4.457616">
        <ele>1284.22</ele>
        <time>2021-03-27T14:11:22Z</time>
      </trkpt>
      <trkpt lat="43.030771" lon="-4.457831">
        <ele>1285.42</ele>
        <time>2021-03-27T14:11:27Z</time>
      </trkpt>
      <trkpt lat="43.030765" lon="-4.458149">
        <ele>1283.2</ele>
        <time>2021-03-27T14:11:31Z</time>
      </trkpt>
      <trkpt lat="43.030787" lon="-4.458691">
        <ele>1280.91</ele>
        <time>2021-03-27T14:11:36Z</time>
      </trkpt>
      <trkpt lat="43.030923" lon="-4.459277">
        <ele>1277.87</ele>
        <time>2021-03-27T14:11:41Z</time>
      </trkpt>
      <trkpt lat="43.031182" lon="-4.459802">
        <ele>1272.79</ele>
        <time>2021-03-27T14:11:45Z</time>
      </trkpt>
      <trkpt lat="43.031362" lon="-4.460078">
        <ele>1269.08</ele>
        <time>2021-03-27T14:11:50Z</time>
      </trkpt>
      <trkpt lat="43.031502" lon="-4.460355">
        <ele>1266.59</ele>
        <time>2021-03-27T14:11:54Z</time>
      </trkpt>
      <trkpt lat="43.031839" lon="-4.461258">
        <ele>1263.42</ele>
        <time>2021-03-27T14:11:59Z</time>
      </trkpt>
      <trkpt lat="43.031883" lon="-4.461479">
        <ele>1264.16</ele>
        <time>2021-03-27T14:12:03Z</time>
      </trkpt>
      <trkpt lat="43.031909" lon="-4.46193">
        <ele>1266.13</ele>
        <time>2021-03-27T14:12:08Z</time>
      </trkpt>
      <trkpt lat="43.031943" lon="-4.462165">
        <ele>1266.62</ele>
        <time>2021-03-27T14:12:12Z</time>
      </trkpt>
      <trkpt lat="43.032029" lon="-4.462423">
        <ele>1268.6</ele>
        <time>2021-03-27T14:12:17Z</time>
      </trkpt>
      <trkpt lat="43.032035" lon="-4.46251">
        <ele>1269.55</ele>
        <time>2021-03-27T14:12:21Z</time>
      </trkpt>
      <trkpt lat="43.031769" lon="-4.46314">
        <ele>1276.08</ele>
        <time>2021-03-27T14:12:26Z</time>
      </trkpt>
      <trkpt lat="43.031708" lon="-4.463397">
        <ele>1276.39</ele>
        <time>2021-03-27T14:12:30Z</time>
      </trkpt>
      <trkpt lat="43.031647" lon="-4.463566">
        <ele>1275.9</ele>
        <time>2021-03-27T14:12:35Z</time>
      </trkpt>
      <trkpt lat="43.031564" lon="-4.463677">
        <ele>1275.29</ele>
        <time>2021-03-27T14:12:39Z</time>
      </trkpt>
      <trkpt lat="43.031216" lon="-4.463955">
        <ele>1276.4</ele>
        <time>2021-03-27T14:12:44Z</time>
      </trkpt>
      <trkpt lat="43.030907" lon="-4.464088">
        <ele>1286.46</ele>
        <time>2021-03-27T14:12:48Z</time>
      </trkpt>
      <trkpt lat="43.030424" lon="-4.464123">
        <ele>1281.94</ele>
        <time>2021-03-27T14:12:53Z</time>
      </trkpt>
      <trkpt lat="43.030349" lon="-4.464163">
        <ele>1275.34</ele>
        <time>2021-03-27T14:12:57Z</time>
      </trkpt>
      <trkpt lat="43.030321" lon="-4.464222">
        <ele>1272.74</ele>
        <time>2021-03-27T14:13:02Z</time>
      </trkpt>
      <trkpt lat="43.030124" lon="-4.465029">
        <ele>1252.71</ele>
        <time>2021-03-27T14:13:06Z</time>
      </trkpt>
      <trkpt lat="43.029934" lon="-4.465695">
        <ele>1246.69</ele>
        <time>2021-03-27T14:13:11Z</time>
      </trkpt>
      <trkpt lat="43.02986" lon="-4.465877">
        <ele>1246.8</ele>
        <time>2021-03-27T14:13:15Z</time>
      </trkpt>
      <trkpt lat="43.029713" lon="-4.466082">
        <ele>1247.43</ele>
        <time>2021-03-27T14:13:20Z</time>
      </trkpt>
      <trkpt lat="43.029499" lon="-4.466287">
        <ele>1245.62</ele>
        <time>2021-03-27T14:13:24Z</time>
      </trkpt>
      <trkpt lat="43.029084" lon="-4.466614">
        <ele>1245.11</ele>
        <time>2021-03-27T14:13:29Z</time>
      </trkpt>
      <trkpt lat="43.027547" lon="-4.46754">
        <ele>1244.32</ele>
        <time>2021-03-27T14:13:33Z</time>
      </trkpt>
      <trkpt lat="43.027289" lon="-4.467573">
        <ele>1243.7</ele>
        <time>2021-03-27T14:13:38Z</time>
      </trkpt>
      <trkpt lat="43.027122" lon="-4.467639">
        <ele>1242.97</ele>
        <time>2021-03-27T14:13:42Z</time>
      </trkpt>
      <trkpt lat="43.026751" lon="-4.467982">
        <ele>1241.04</ele>
        <time>2021-03-27T14:13:47Z</time>
      </trkpt>
      <trkpt lat="43.026482" lon="-4.468338">
        <ele>1237.41</ele>
        <time>2021-03-27T14:13:51Z</time>
      </trkpt>
      <trkpt lat="43.025994" lon="-4.469057">
        <ele>1232.69</ele>
        <time>2021-03-27T14:13:56Z</time>
      </trkpt>
      <trkpt lat="43.025621" lon="-4.469715">
        <ele>1224.92</ele>
        <time>2021-03-27T14:14:00Z</time>
      </trkpt>
      <trkpt lat="43.025225" lon="-4.470431">
        <ele>1221.16</ele>
        <time>2021-03-27T14:14:05Z</time>
      </trkpt>
      <trkpt lat="43.025124" lon="-4.470721">
        <ele>1221.35</ele>
        <time>2021-03-27T14:14:09Z</time>
      </trkpt>
      <trkpt lat="43.025086" lon="-4.470998">
        <ele>1222.08</ele>
        <time>2021-03-27T14:14:14Z</time>
      </trkpt>
      <trkpt lat="43.025113" lon="-4.473037">
        <ele>1225.19</ele>
        <time>2021-03-27T14:14:19Z</time>
      </trkpt>
      <trkpt lat="43.025078" lon="-4.47358">
        <ele>1225.63</ele>
        <time>2021-03-27T14:14:23Z</time>
      </trkpt>
      <trkpt lat="43.025034" lon="-4.473771">
        <ele>1224.23</ele>
        <time>2021-03-27T14:14:28Z</time>
      </trkpt>
      <trkpt lat="43.024703" lon="-4.474663">
        <ele>1220.76</ele>
        <time>2021-03-27T14:14:32Z</time>
      </trkpt>
      <trkpt lat="43.024489" lon="-4.475127">
        <ele>1218.55</ele>
        <time>2021-03-27T14:14:37Z</time>
      </trkpt>
      <trkpt lat="43.023718" lon="-4.476218">
        <ele>1210.39</ele>
        <time>2021-03-27T14:14:41Z</time>
      </trkpt>
      <trkpt lat="43.023561" lon="-4.476496">
        <ele>1209.53</ele>
        <time>2021-03-27T14:14:46Z</time>
      </trkpt>
      <trkpt lat="43.023042" lon="-4.477824">
        <ele>1200.11</ele>
        <time>2021-03-27T14:14:50Z</time>
      </trkpt>
      <trkpt lat="43.022719" lon="-4.478621">
        <ele>1205.19</ele>
        <time>2021-03-27T14:14:55Z</time>
      </trkpt>
      <trkpt lat="43.022622" lon="-4.478814">
        <ele>1208.56</ele>
        <time>2021-03-27T14:14:59Z</time>
      </trkpt>
      <trkpt lat="43.022519" lon="-4.478935">
        <ele>1209.66</ele>
        <time>2021-03-27T14:15:04Z</time>
      </trkpt>
      <trkpt lat="43.02159" lon="-4.479694">
        <ele>1206.04</ele>
        <time>2021-03-27T14:15:08Z</time>
      </trkpt>
      <trkpt lat="43.021411" lon="-4.479822">
        <ele>1206.71</ele>
        <time>2021-03-27T14:15:13Z</time>
      </trkpt>
      <trkpt lat="43.021212" lon="-4.479917">
        <ele>1206.09</ele>
        <time>2021-03-27T14:15:17Z</time>
      </trkpt>
      <trkpt lat="43.017735" lon="-4.481034">
        <ele>1199.77</ele>
        <time>2021-03-27T14:15:22Z</time>
      </trkpt>
      <trkpt lat="43.017569" lon="-4.481093">
        <ele>1197.26</ele>
        <time>2021-03-27T14:15:26Z</time>
      </trkpt>
      <trkpt lat="43.017465" lon="-4.481183">
        <ele>1196.28</ele>
        <time>2021-03-27T14:15:31Z</time>
      </trkpt>
      <trkpt lat="43.017376" lon="-4.481358">
        <ele>1196.89</ele>
        <time>2021-03-27T14:15:35Z</time>
      </trkpt>
      <trkpt lat="43.01714" lon="-4.482112">
        <ele>1194.71</ele>
        <time>2021-03-27T14:15:40Z</time>
      </trkpt>
      <trkpt lat="43.01651" lon="-4.484289">
        <ele>1199.19</ele>
        <time>2021-03-27T14:15:44Z</time>
      </trkpt>
      <trkpt lat="43.016413" lon="-4.48457">
        <ele>1200.68</ele>
        <time>2021-03-27T14:15:49Z</time>
      </trkpt>
      <trkpt lat="43.016293" lon="-4.484792">
        <ele>1201.24</ele>
        <time>2021-03-27T14:15:53Z</time>
      </trkpt>
      <trkpt lat="43.013806" lon="-4.488218">
        <ele>1181.53</ele>
        <time>2021-03-27T14:15:58Z</time>
      </trkpt>
      <trkpt lat="43.012795" lon="-4.489588">
        <ele>1179.38</ele>
        <time>2021-03-27T14:16:02Z</time>
      </trkpt>
      <trkpt lat="43.012406" lon="-4.490142">
        <ele>1179.52</ele>
        <time>2021-03-27T14:16:07Z</time>
      </trkpt>
      <trkpt lat="43.011788" lon="-4.490996">
        <ele>1182.83</ele>
        <time>2021-03-27T14:16:11Z</time>
      </trkpt>
      <trkpt lat="43.01173" lon="-4.491124">
        <ele>1182.06</ele>
        <time>2021-03-27T14:16:16Z</time>
      </trkpt>
      <trkpt lat="43.01171" lon="-4.491218">
        <ele>1181.07</ele>
        <time>2021-03-27T14:16:20Z</time>
      </trkpt>
      <trkpt lat="43.011713" lon="-4.491312">
        <ele>1180.5</ele>
        <time>2021-03-27T14:16:25Z</time>
      </trkpt>
      <trkpt lat="43.011829" lon="-4.491585">
        <ele>1181.39</ele>
        <time>2021-03-27T14:16:29Z</time>
      </trkpt>
      <trkpt lat="43.012127" lon="-4.492125">
        <ele>1182.25</ele>
        <time>2021-03-27T14:16:34Z</time>
      </trkpt>
      <trkpt lat="43.012766" lon="-4.494002">
        <ele>1179.86</ele>
        <time>2021-03-27T14:16:38Z</time>
      </trkpt>
      <trkpt lat="43.012979" lon="-4.494711">
        <ele>1178.24</ele>
        <time>2021-03-27T14:16:43Z</time>
      </trkpt>
      <trkpt lat="43.013023" lon="-4.495093">
        <ele>1177.73</ele>
        <time>2021-03-27T14:16:47Z</time>
      </trkpt>
      <trkpt lat="43.013009" lon="-4.495365">
        <ele>1177.76</ele>
        <time>2021-03-27T14:16:52Z</time>
      </trkpt>
      <trkpt lat="43.012961" lon="-4.495677">
        <ele>1179.69</ele>
        <time>2021-03-27T14:16:57Z</time>
      </trkpt>
      <trkpt lat="43.012898" lon="-4.495868">
        <ele>1181.8</ele>
        <time>2021-03-27T14:17:01Z</time>
      </trkpt>
      <trkpt lat="43.012762" lon="-4.496157">
        <ele>1183.94</ele>
        <time>2021-03-27T14:17:06Z</time>
      </trkpt>
      <trkpt lat="43.012622" lon="-4.496362">
        <ele>1181.87</ele>
        <time>2021-03-27T14:17:10Z</time>
      </trkpt>
      <trkpt lat="43.012535" lon="-4.496409">
        <ele>1179.95</ele>
        <time>2021-03-27T14:17:15Z</time>
      </trkpt>
      <trkpt lat="43.012279" lon="-4.496353">
        <ele>1174.08</ele>
        <time>2021-03-27T14:17:19Z</time>
      </trkpt>
      <trkpt lat="43.012155" lon="-4.496358">
        <ele>1173.08</ele>
        <time>2021-03-27T14:17:24Z</time>
      </trkpt>
      <trkpt lat="43.011787" lon="-4.496529">
        <ele>1169.79</ele>
        <time>2021-03-27T14:17:28Z</time>
      </trkpt>
      <trkpt lat="43.011637" lon="-4.496567">
        <ele>1167.86</ele>
        <time>2021-03-27T14:17:33Z</time>
      </trkpt>
      <trkpt lat="43.01146" lon="-4.496554">
        <ele>1166.73</ele>
        <time>2021-03-27T14:17:37Z</time>
      </trkpt>
      <trkpt lat="43.011342" lon="-4.496522">
        <ele>1167.07</ele>
        <time>2021-03-27T14:17:42Z</time>
      </trkpt>
      <trkpt lat="43.010223" lon="-4.495953">
        <ele>1172.57</ele>
        <time>2021-03-27T14:17:46Z</time>
      </trkpt>
      <trkpt lat="43.009191" lon="-4.495301">
        <ele>1165.68</ele>
        <time>2021-03-27T14:17:51Z</time>
      </trkpt>
      <trkpt lat="43.009005" lon="-4.495071">
        <ele>1165.48</ele>
        <time>2021-03-27T14:17:55Z</time>
      </trkpt>
      <trkpt lat="43.008813" lon="-4.494787">
        <ele>1168.06</ele>
        <time>2021-03-27T14:18:00Z</time>
      </trkpt>
      <trkpt lat="43.008115" lon="-4.493623">
        <ele>1170.15</ele>
        <time>2021-03-27T14:18:04Z</time>
      </trkpt>
      <trkpt lat="43.007927" lon="-4.493356">
        <ele>1168.97</ele>
        <time>2021-03-27T14:18:09Z</time>
      </trkpt>
      <trkpt lat="43.007753" lon="-4.493206">
        <ele>1167.1</ele>
        <time>2021-03-27T14:18:13Z</time>
      </trkpt>
      <trkpt lat="43.006904" lon="-4.49265">
        <ele>1174.65</ele>
        <time>2021-03-27T14:18:18Z</time>
      </trkpt>
      <trkpt lat="43.005216" lon="-4.491641">
        <ele>1170.72</ele>
        <time>2021-03-27T14:18:22Z</time>
      </trkpt>
      <trkpt lat="43.004928" lon="-4.491512">
        <ele>1173.62</ele>
        <time>2021-03-27T14:18:27Z</time>
      </trkpt>
      <trkpt lat="42.999673" lon="-4.49048">
        <ele>1174.46</ele>
        <time>2021-03-27T14:18:31Z</time>
      </trkpt>
      <trkpt lat="42.999455" lon="-4.490502">
        <ele>1173.79</ele>
        <time>2021-03-27T14:18:36Z</time>
      </trkpt>
      <trkpt lat="42.997749" lon="-4.491205">
        <ele>1166.31</ele>
        <time>2021-03-27T14:18:40Z</time>
      </trkpt>
      <trkpt lat="42.995993" lon="-4.491977">
        <ele>1167.04</ele>
        <time>2021-03-27T14:18:45Z</time>
      </trkpt>
      <trkpt lat="42.995641" lon="-4.492124">
        <ele>1167.65</ele>
        <time>2021-03-27T14:18:49Z</time>
      </trkpt>
      <trkpt lat="42.995377" lon="-4.4922">
        <ele>1168.95</ele>
        <time>2021-03-27T14:18:54Z</time>
      </trkpt>
      <trkpt lat="42.995088" lon="-4.492253">
        <ele>1174.44</ele>
        <time>2021-03-27T14:18:58Z</time>
      </trkpt>
      <trkpt lat="42.994802" lon="-4.492242">
        <ele>1176.89</ele>
        <time>2021-03-27T14:19:03Z</time>
      </trkpt>
      <trkpt lat="42.994583" lon="-4.492208">
        <ele>1175.02</ele>
        <time>2021-03-27T14:19:07Z</time>
      </trkpt>
      <trkpt lat="42.994191" lon="-4.492049">
        <ele>1171.87</ele>
        <time>2021-03-27T14:19:12Z</time>
      </trkpt>
      <trkpt lat="42.993927" lon="-4.491863">
        <ele>1169.88</ele>
        <time>2021-03-27T14:19:16Z</time>
      </trkpt>
      <trkpt lat="42.991729" lon="-4.489357">
        <ele>1148.17</ele>
        <time>2021-03-27T14:19:21Z</time>
      </trkpt>
      <trkpt lat="42.991125" lon="-4.488538">
        <ele>1146.14</ele>
        <time>2021-03-27T14:19:25Z</time>
      </trkpt>
      <trkpt lat="42.990971" lon="-4.488426">
        <ele>1145.33</ele>
        <time>2021-03-27T14:19:30Z</time>
      </trkpt>
      <trkpt lat="42.990829" lon="-4.488375">
        <ele>1144.84</ele>
        <time>2021-03-27T14:19:34Z</time>
      </trkpt>
      <trkpt lat="42.990666" lon="-4.48835">
        <ele>1144.34</ele>
        <time>2021-03-27T14:19:39Z</time>
      </trkpt>
      <trkpt lat="42.990498" lon="-4.488355">
        <ele>1144.13</ele>
        <time>2021-03-27T14:19:44Z</time>
      </trkpt>
      <trkpt lat="42.988898" lon="-4.48874">
        <ele>1142.14</ele>
        <time>2021-03-27T14:19:48Z</time>
      </trkpt>
      <trkpt lat="42.988729" lon="-4.488788">
        <ele>1141.36</ele>
        <time>2021-03-27T14:19:53Z</time>
      </trkpt>
      <trkpt lat="42.988555" lon="-4.488878">
        <ele>1140.72</ele>
        <time>2021-03-27T14:19:57Z</time>
      </trkpt>
      <trkpt lat="42.988308" lon="-4.489051">
        <ele>1140.62</ele>
        <time>2021-03-27T14:20:02Z</time>
      </trkpt>
      <trkpt lat="42.986364" lon="-4.490912">
        <ele>1134.72</ele>
        <time>2021-03-27T14:20:06Z</time>
      </trkpt>
      <trkpt lat="42.985917" lon="-4.491411">
        <ele>1128.71</ele>
        <time>2021-03-27T14:20:11Z</time>
      </trkpt>
      <trkpt lat="42.985364" lon="-4.492207">
        <ele>1129.46</ele>
        <time>2021-03-27T14:20:15Z</time>
      </trkpt>
      <trkpt lat="42.984902" lon="-4.492945">
        <ele>1132.49</ele>
        <time>2021-03-27T14:20:20Z</time>
      </trkpt>
      <trkpt lat="42.98455" lon="-4.49339">
        <ele>1138.41</ele>
        <time>2021-03-27T14:20:24Z</time>
      </trkpt>
      <trkpt lat="42.984455" lon="-4.493547">
        <ele>1136.26</ele>
        <time>2021-03-27T14:20:29Z</time>
      </trkpt>
      <trkpt lat="42.984381" lon="-4.493742">
        <ele>1134.81</ele>
        <time>2021-03-27T14:20:33Z</time>
      </trkpt>
      <trkpt lat="42.984198" lon="-4.494674">
        <ele>1126.74</ele>
        <time>2021-03-27T14:20:38Z</time>
      </trkpt>
      <trkpt lat="42.984029" lon="-4.495147">
        <ele>1125.94</ele>
        <time>2021-03-27T14:20:42Z</time>
      </trkpt>
      <trkpt lat="42.983872" lon="-4.495472">
        <ele>1125.71</ele>
        <time>2021-03-27T14:20:47Z</time>
      </trkpt>
      <trkpt lat="42.983718" lon="-4.495711">
        <ele>1128.47</ele>
        <time>2021-03-27T14:20:51Z</time>
      </trkpt>
      <trkpt lat="42.983518" lon="-4.495918">
        <ele>1125.87</ele>
        <time>2021-03-27T14:20:56Z</time>
      </trkpt>
      <trkpt lat="42.983279" lon="-4.496084">
        <ele>1121.94</ele>
        <time>2021-03-27T14:21:00Z</time>
      </trkpt>
      <trkpt lat="42.982763" lon="-4.496196">
        <ele>1120.83</ele>
        <time>2021-03-27T14:21:05Z</time>
      </trkpt>
      <trkpt lat="42.982298" lon="-4.496241">
        <ele>1121.17</ele>
        <time>2021-03-27T14:21:09Z</time>
      </trkpt>
      <trkpt lat="42.98196" lon="-4.496202">
        <ele>1123.9</ele>
        <time>2021-03-27T14:21:14Z</time>
      </trkpt>
      <trkpt lat="42.981562" lon="-4.496125">
        <ele>1126.43</ele>
        <time>2021-03-27T14:21:18Z</time>
      </trkpt>
      <trkpt lat="42.978503" lon="-4.494914">
        <ele>1123.53</ele>
        <time>2021-03-27T14:21:23Z</time>
      </trkpt>
      <trkpt lat="42.977767" lon="-4.494592">
        <ele>1116.84</ele>
        <time>2021-03-27T14:21:27Z</time>
      </trkpt>
      <trkpt lat="42.976962" lon="-4.494139">
        <ele>1108.94</ele>
        <time>2021-03-27T14:21:32Z</time>
      </trkpt>
      <trkpt lat="42.976745" lon="-4.494102">
        <ele>1110.43</ele>
        <time>2021-03-27T14:21:36Z</time>
      </trkpt>
      <trkpt lat="42.973682" lon="-4.494275">
        <ele>1114.87</ele>
        <time>2021-03-27T14:21:41Z</time>
      </trkpt>
      <trkpt lat="42.972584" lon="-4.494253">
        <ele>1113.67</ele>
        <time>2021-03-27T14:21:45Z</time>
      </trkpt>
      <trkpt lat="42.970671" lon="-4.49415">
        <ele>1111.47</ele>
        <time>2021-03-27T14:21:50Z</time>
      </trkpt>
      <trkpt lat="42.970469" lon="-4.494128">
        <ele>1111.14</ele>
        <time>2021-03-27T14:21:54Z</time>
      </trkpt>
      <trkpt lat="42.970315" lon="-4.494061">
        <ele>1111.38</ele>
        <time>2021-03-27T14:21:59Z</time>
      </trkpt>
      <trkpt lat="42.970042" lon="-4.4939">
        <ele>1110.22</ele>
        <time>2021-03-27T14:22:03Z</time>
      </trkpt>
      <trkpt lat="42.969621" lon="-4.493581">
        <ele>1110.45</ele>
        <time>2021-03-27T14:22:08Z</time>
      </trkpt>
      <trkpt lat="42.969359" lon="-4.493357">
        <ele>1109.61</ele>
        <time>2021-03-27T14:22:12Z</time>
      </trkpt>
      <trkpt lat="42.965819" lon="-4.489992">
        <ele>1104.97</ele>
        <time>2021-03-27T14:22:17Z</time>
      </trkpt>
      <trkpt lat="42.962953" lon="-4.48737">
        <ele>1099.1</ele>
        <time>2021-03-27T14:22:22Z</time>
      </trkpt>
      <trkpt lat="42.962752" lon="-4.487269">
        <ele>1098.81</ele>
        <time>2021-03-27T14:22:26Z</time>
      </trkpt>
      <trkpt lat="42.96263" lon="-4.487241">
        <ele>1098.9</ele>
        <time>2021-03-27T14:22:31Z</time>
      </trkpt>
      <trkpt lat="42.962293" lon="-4.487209">
        <ele>1099.88</ele>
        <time>2021-03-27T14:22:35Z</time>
      </trkpt>
      <trkpt lat="42.961026" lon="-4.487515">
        <ele>1099.91</ele>
        <time>2021-03-27T14:22:40Z</time>
      </trkpt>
      <trkpt lat="42.948453" lon="-4.490905">
        <ele>1088.32</ele>
        <time>2021-03-27T14:22:44Z</time>
      </trkpt>
      <trkpt lat="42.948104" lon="-4.490975">
        <ele>1090.01</ele>
        <time>2021-03-27T14:22:49Z</time>
      </trkpt>
      <trkpt lat="42.944241" lon="-4.490875">
        <ele>1088.95</ele>
        <time>2021-03-27T14:22:53Z</time>
      </trkpt>
      <trkpt lat="42.943835" lon="-4.490795">
        <ele>1087.11</ele>
        <time>2021-03-27T14:22:58Z</time>
      </trkpt>
      <trkpt lat="42.943644" lon="-4.490727">
        <ele>1086.44</ele>
        <time>2021-03-27T14:23:02Z</time>
      </trkpt>
      <trkpt lat="42.942975" lon="-4.490266">
        <ele>1090.98</ele>
        <time>2021-03-27T14:23:07Z</time>
      </trkpt>
      <trkpt lat="42.941775" lon="-4.489573">
        <ele>1087.84</ele>
        <time>2021-03-27T14:23:11Z</time>
      </trkpt>
      <trkpt lat="42.940393" lon="-4.488697">
        <ele>1085.92</ele>
        <time>2021-03-27T14:23:16Z</time>
      </trkpt>
      <trkpt lat="42.940057" lon="-4.488454">
        <ele>1082.28</ele>
        <time>2021-03-27T14:23:20Z</time>
      </trkpt>
      <trkpt lat="42.939707" lon="-4.488144">
        <ele>1090.63</ele>
        <time>2021-03-27T14:23:25Z</time>
      </trkpt>
      <trkpt lat="42.939031" lon="-4.487753">
        <ele>1086.92</ele>
        <time>2021-03-27T14:23:29Z</time>
      </trkpt>
      <trkpt lat="42.938766" lon="-4.487632">
        <ele>1086.47</ele>
        <time>2021-03-27T14:23:34Z</time>
      </trkpt>
      <trkpt lat="42.938505" lon="-4.487546">
        <ele>1087.9</ele>
        <time>2021-03-27T14:23:38Z</time>
      </trkpt>
      <trkpt lat="42.937438" lon="-4.487375">
        <ele>1095.53</ele>
        <time>2021-03-27T14:23:43Z</time>
      </trkpt>
      <trkpt lat="42.937231" lon="-4.48737">
        <ele>1093.17</ele>
        <time>2021-03-27T14:23:47Z</time>
      </trkpt>
      <trkpt lat="42.937031" lon="-4.4874">
        <ele>1092.26</ele>
        <time>2021-03-27T14:23:52Z</time>
      </trkpt>
      <trkpt lat="42.936841" lon="-4.487458">
        <ele>1092.06</ele>
        <time>2021-03-27T14:23:56Z</time>
      </trkpt>
      <trkpt lat="42.936623" lon="-4.487576">
        <ele>1094.3</ele>
        <time>2021-03-27T14:24:01Z</time>
      </trkpt>
      <trkpt lat="42.936285" lon="-4.487835">
        <ele>1089.15</ele>
        <time>2021-03-27T14:24:05Z</time>
      </trkpt>
      <trkpt lat="42.93581" lon="-4.488382">
        <ele>1093.05</ele>
        <time>2021-03-27T14:24:10Z</time>
      </trkpt>
      <trkpt lat="42.935351" lon="-4.489028">
        <ele>1089.82</ele>
        <time>2021-03-27T14:24:14Z</time>
      </trkpt>
      <trkpt lat="42.93508" lon="-4.489463">
        <ele>1086.91</ele>
        <time>2021-03-27T14:24:19Z</time>
      </trkpt>
      <trkpt lat="42.934776" lon="-4.489854">
        <ele>1085.8</ele>
        <time>2021-03-27T14:24:23Z</time>
      </trkpt>
      <trkpt lat="42.934294" lon="-4.490566">
        <ele>1085.53</ele>
        <time>2021-03-27T14:24:28Z</time>
      </trkpt>
      <trkpt lat="42.933866" lon="-4.491108">
        <ele>1085.34</ele>
        <time>2021-03-27T14:24:32Z</time>
      </trkpt>
      <trkpt lat="42.933676" lon="-4.491232">
        <ele>1087.2</ele>
        <time>2021-03-27T14:24:37Z</time>
      </trkpt>
      <trkpt lat="42.933528" lon="-4.491294">
        <ele>1087.68</ele>
        <time>2021-03-27T14:24:41Z</time>
      </trkpt>
      <trkpt lat="42.933323" lon="-4.491329">
        <ele>1087.31</ele>
        <time>2021-03-27T14:24:46Z</time>
      </trkpt>
      <trkpt lat="42.933096" lon="-4.491309">
        <ele>1084.77</ele>
        <time>2021-03-27T14:24:50Z</time>
      </trkpt>
      <trkpt lat="42.932886" lon="-4.491191">
        <ele>1081.65</ele>
        <time>2021-03-27T14:24:55Z</time>
      </trkpt>
      <trkpt lat="42.932685" lon="-4.490984">
        <ele>1080.23</ele>
        <time>2021-03-27T14:24:59Z</time>
      </trkpt>
      <trkpt lat="42.932443" lon="-4.490459">
        <ele>1084.19</ele>
        <time>2021-03-27T14:25:04Z</time>
      </trkpt>
      <trkpt lat="42.931821" lon="-4.488731">
        <ele>1084.36</ele>
        <time>2021-03-27T14:25:09Z</time>
      </trkpt>
      <trkpt lat="42.931547" lon="-4.488017">
        <ele>1090.83</ele>
        <time>2021-03-27T14:25:13Z</time>
      </trkpt>
      <trkpt lat="42.931403" lon="-4.487741">
        <ele>1090.69</ele>
        <time>2021-03-27T14:25:18Z</time>
      </trkpt>
      <trkpt lat="42.93118" lon="-4.487528">
        <ele>1087.59</ele>
        <time>2021-03-27T14:25:22Z</time>
      </trkpt>
      <trkpt lat="42.930993" lon="-4.487399">
        <ele>1085.77</ele>
        <time>2021-03-27T14:25:27Z</time>
      </trkpt>
      <trkpt lat="42.930799" lon="-4.487331">
        <ele>1084.33</ele>
        <time>2021-03-27T14:25:31Z</time>
      </trkpt>
      <trkpt lat="42.930446" lon="-4.487333">
        <ele>1084.07</ele>
        <time>2021-03-27T14:25:36Z</time>
      </trkpt>
      <trkpt lat="42.930089" lon="-4.487393">
        <ele>1083.91</ele>
        <time>2021-03-27T14:25:40Z</time>
      </trkpt>
      <trkpt lat="42.929639" lon="-4.487423">
        <ele>1086.24</ele>
        <time>2021-03-27T14:25:45Z</time>
      </trkpt>
      <trkpt lat="42.929408" lon="-4.487511">
        <ele>1084.31</ele>
        <time>2021-03-27T14:25:49Z</time>
      </trkpt>
      <trkpt lat="42.929214" lon="-4.487683">
        <ele>1085.55</ele>
        <time>2021-03-27T14:25:54Z</time>
      </trkpt>
      <trkpt lat="42.928535" lon="-4.488476">
        <ele>1088.51</ele>
        <time>2021-03-27T14:25:58Z</time>
      </trkpt>
      <trkpt lat="42.928192" lon="-4.488682">
        <ele>1089.46</ele>
        <time>2021-03-27T14:26:03Z</time>
      </trkpt>
      <trkpt lat="42.927968" lon="-4.488785">
        <ele>1086.41</ele>
        <time>2021-03-27T14:26:07Z</time>
      </trkpt>
      <trkpt lat="42.927587" lon="-4.488822">
        <ele>1081.63</ele>
        <time>2021-03-27T14:26:12Z</time>
      </trkpt>
      <trkpt lat="42.927246" lon="-4.488973">
        <ele>1081.44</ele>
        <time>2021-03-27T14:26:16Z</time>
      </trkpt>
      <trkpt lat="42.926966" lon="-4.489268">
        <ele>1080.98</ele>
        <time>2021-03-27T14:26:21Z</time>
      </trkpt>
      <trkpt lat="42.926825" lon="-4.489388">
        <ele>1080.48</ele>
        <time>2021-03-27T14:26:25Z</time>
      </trkpt>
      <trkpt lat="42.925787" lon="-4.489742">
        <ele>1085.14</ele>
        <time>2021-03-27T14:26:30Z</time>
      </trkpt>
      <trkpt lat="42.925597" lon="-4.489764">
        <ele>1082.7</ele>
        <time>2021-03-27T14:26:34Z</time>
      </trkpt>
      <trkpt lat="42.925402" lon="-4.489683">
        <ele>1082.8</ele>
        <time>2021-03-27T14:26:39Z</time>
      </trkpt>
      <trkpt lat="42.924982" lon="-4.489435">
        <ele>1086.03</ele>
        <time>2021-03-27T14:26:43Z</time>
      </trkpt>
      <trkpt lat="42.924555" lon="-4.489129">
        <ele>1088.6</ele>
        <time>2021-03-27T14:26:48Z</time>
      </trkpt>
      <trkpt lat="42.923167" lon="-4.488482">
        <ele>1078.78</ele>
        <time>2021-03-27T14:26:52Z</time>
      </trkpt>
      <trkpt lat="42.922401" lon="-4.487605">
        <ele>1080.99</ele>
        <time>2021-03-27T14:26:57Z</time>
      </trkpt>
      <trkpt lat="42.921532" lon="-4.486618">
        <ele>1085.61</ele>
        <time>2021-03-27T14:27:01Z</time>
      </trkpt>
      <trkpt lat="42.921352" lon="-4.486514">
        <ele>1083.6</ele>
        <time>2021-03-27T14:27:06Z</time>
      </trkpt>
      <trkpt lat="42.921225" lon="-4.486499">
        <ele>1083.32</ele>
        <time>2021-03-27T14:27:10Z</time>
      </trkpt>
      <trkpt lat="42.919617" lon="-4.487084">
        <ele>1076.06</ele>
        <time>2021-03-27T14:27:15Z</time>
      </trkpt>
      <trkpt lat="42.918661" lon="-4.487403">
        <ele>1076.42</ele>
        <time>2021-03-27T14:27:19Z</time>
      </trkpt>
      <trkpt lat="42.918333" lon="-4.487565">
        <ele>1077.25</ele>
        <time>2021-03-27T14:27:24Z</time>
      </trkpt>
      <trkpt lat="42.918136" lon="-4.487776">
        <ele>1081.55</ele>
        <time>2021-03-27T14:27:28Z</time>
      </trkpt>
      <trkpt lat="42.917262" lon="-4.489441">
        <ele>1085.43</ele>
        <time>2021-03-27T14:27:33Z</time>
      </trkpt>
      <trkpt lat="42.917062" lon="-4.489724">
        <ele>1083.99</ele>
        <time>2021-03-27T14:27:37Z</time>
      </trkpt>
      <trkpt lat="42.916944" lon="-4.489819">
        <ele>1083.66</ele>
        <time>2021-03-27T14:27:42Z</time>
      </trkpt>
      <trkpt lat="42.916734" lon="-4.489911">
        <ele>1085.1</ele>
        <time>2021-03-27T14:27:47Z</time>
      </trkpt>
      <trkpt lat="42.916543" lon="-4.489966">
        <ele>1087.32</ele>
        <time>2021-03-27T14:27:51Z</time>
      </trkpt>
      <trkpt lat="42.916058" lon="-4.489968">
        <ele>1090.78</ele>
        <time>2021-03-27T14:27:56Z</time>
      </trkpt>
      <trkpt lat="42.915608" lon="-4.489872">
        <ele>1091.2</ele>
        <time>2021-03-27T14:28:00Z</time>
      </trkpt>
      <trkpt lat="42.915278" lon="-4.489745">
        <ele>1092.84</ele>
        <time>2021-03-27T14:28:05Z</time>
      </trkpt>
      <trkpt lat="42.914956" lon="-4.489586">
        <ele>1093.65</ele>
        <time>2021-03-27T14:28:09Z</time>
      </trkpt>
      <trkpt lat="42.914024" lon="-4.489037">
        <ele>1100.97</ele>
        <time>2021-03-27T14:28:14Z</time>
      </trkpt>
      <trkpt lat="42.912785" lon="-4.488517">
        <ele>1105.0</ele>
        <time>2021-03-27T14:28:18Z</time>
      </trkpt>
      <trkpt lat="42.911688" lon="-4.487688">
        <ele>1116.0</ele>
        <time>2021-03-27T14:28:23Z</time>
      </trkpt>
      <trkpt lat="42.911265" lon="-4.487395">
        <ele>1117.06</ele>
        <time>2021-03-27T14:28:27Z</time>
      </trkpt>
      <trkpt lat="42.910257" lon="-4.486644">
        <ele>1130.25</ele>
        <time>2021-03-27T14:28:32Z</time>
      </trkpt>
      <trkpt lat="42.909773" lon="-4.486232">
        <ele>1133.42</ele>
        <time>2021-03-27T14:28:36Z</time>
      </trkpt>
      <trkpt lat="42.909272" lon="-4.485633">
        <ele>1133.95</ele>
        <time>2021-03-27T14:28:41Z</time>
      </trkpt>
      <trkpt lat="42.909009" lon="-4.485287">
        <ele>1137.27</ele>
        <time>2021-03-27T14:28:45Z</time>
      </trkpt>
      <trkpt lat="42.908586" lon="-4.484824">
        <ele>1145.47</ele>
        <time>2021-03-27T14:28:50Z</time>
      </trkpt>
      <trkpt lat="42.908417" lon="-4.484737">
        <ele>1144.34</ele>
        <time>2021-03-27T14:28:54Z</time>
      </trkpt>
      <trkpt lat="42.90822" lon="-4.484695">
        <ele>1143.95</ele>
        <time>2021-03-27T14:28:59Z</time>
      </trkpt>
      <trkpt lat="42.908035" lon="-4.484697">
        <ele>1144.98</ele>
        <time>2021-03-27T14:29:03Z</time>
      </trkpt>
      <trkpt lat="42.907901" lon="-4.484737">
        <ele>1145.53</ele>
        <time>2021-03-27T14:29:08Z</time>
      </trkpt>
      <trkpt lat="42.907798" lon="-4.484832">
        <ele>1145.9</ele>
        <time>2021-03-27T14:29:12Z</time>
      </trkpt>
      <trkpt lat="42.907731" lon="-4.485023">
        <ele>1147.39</ele>
        <time>2021-03-27T14:29:17Z</time>
      </trkpt>
      <trkpt lat="42.907725" lon="-4.48562">
        <ele>1150.52</ele>
        <time>2021-03-27T14:29:21Z</time>
      </trkpt>
      <trkpt lat="42.907769" lon="-4.48642">
        <ele>1153.24</ele>
        <time>2021-03-27T14:29:26Z</time>
      </trkpt>
      <trkpt lat="42.907832" lon="-4.48684">
        <ele>1154.19</ele>
        <time>2021-03-27T14:29:30Z</time>
      </trkpt>
      <trkpt lat="42.907927" lon="-4.487255">
        <ele>1158.85</ele>
        <time>2021-03-27T14:29:35Z</time>
      </trkpt>
      <trkpt lat="42.908188" lon="-4.487838">
        <ele>1163.57</ele>
        <time>2021-03-27T14:29:39Z</time>
      </trkpt>
      <trkpt lat="42.908329" lon="-4.488293">
        <ele>1163.91</ele>
        <time>2021-03-27T14:29:44Z</time>
      </trkpt>
      <trkpt lat="42.908427" lon="-4.488904">
        <ele>1162.91</ele>
        <time>2021-03-27T14:29:48Z</time>
      </trkpt>
      <trkpt lat="42.908437" lon="-4.489938">
        <ele>1160.26</ele>
        <time>2021-03-27T14:29:53Z</time>
      </trkpt>
      <trkpt lat="42.908388" lon="-4.490599">
        <ele>1166.95</ele>
        <time>2021-03-27T14:29:57Z</time>
      </trkpt>
      <trkpt lat="42.90813" lon="-4.492135">
        <ele>1170.16</ele>
        <time>2021-03-27T14:30:02Z</time>
      </trkpt>
      <trkpt lat="42.908052" lon="-4.492329">
        <ele>1168.37</ele>
        <time>2021-03-27T14:30:06Z</time>
      </trkpt>
      <trkpt lat="42.907936" lon="-4.492468">
        <ele>1168.4</ele>
        <time>2021-03-27T14:30:11Z</time>
      </trkpt>
      <trkpt lat="42.907604" lon="-4.492792">
        <ele>1169.26</ele>
        <time>2021-03-27T14:30:15Z</time>
      </trkpt>
      <trkpt lat="42.907231" lon="-4.493271">
        <ele>1170.37</ele>
        <time>2021-03-27T14:30:20Z</time>
      </trkpt>
      <trkpt lat="42.907084" lon="-4.493356">
        <ele>1170.75</ele>
        <time>2021-03-27T14:30:25Z</time>
      </trkpt>
      <trkpt lat="42.906942" lon="-4.493401">
        <ele>1170.97</ele>
        <time>2021-03-27T14:30:29Z</time>
      </trkpt>
      <trkpt lat="42.906082" lon="-4.493446">
        <ele>1167.38</ele>
        <time>2021-03-27T14:30:34Z</time>
      </trkpt>
      <trkpt lat="42.905955" lon="-4.493469">
        <ele>1166.56</ele>
        <time>2021-03-27T14:30:38Z</time>
      </trkpt>
      <trkpt lat="42.905315" lon="-4.493697">
        <ele>1166.83</ele>
        <time>2021-03-27T14:30:43Z</time>
      </trkpt>
      <trkpt lat="42.905061" lon="-4.493988">
        <ele>1169.59</ele>
        <time>2021-03-27T14:30:47Z</time>
      </trkpt>
      <trkpt lat="42.904769" lon="-4.494418">
        <ele>1171.23</ele>
        <time>2021-03-27T14:30:52Z</time>
      </trkpt>
      <trkpt lat="42.904659" lon="-4.494494">
        <ele>1171.88</ele>
        <time>2021-03-27T14:30:56Z</time>
      </trkpt>
      <trkpt lat="42.904571" lon="-4.494507">
        <ele>1172.13</ele>
        <time>2021-03-27T14:31:01Z</time>
      </trkpt>
      <trkpt lat="42.904438" lon="-4.49449">
        <ele>1171.91</ele>
        <time>2021-03-27T14:31:05Z</time>
      </trkpt>
      <trkpt lat="42.904304" lon="-4.494446">
        <ele>1173.06</ele>
        <time>2021-03-27T14:31:10Z</time>
      </trkpt>
      <trkpt lat="42.903922" lon="-4.494265">
        <ele>1174.58</ele>
        <time>2021-03-27T14:31:14Z</time>
      </trkpt>
      <trkpt lat="42.903328" lon="-4.493842">
        <ele>1168.21</ele>
        <time>2021-03-27T14:31:19Z</time>
      </trkpt>
      <trkpt lat="42.903165" lon="-4.493751">
        <ele>1168.34</ele>
        <time>2021-03-27T14:31:23Z</time>
      </trkpt>
      <trkpt lat="42.902664" lon="-4.493646">
        <ele>1171.25</ele>
        <time>2021-03-27T14:31:28Z</time>
      </trkpt>
      <trkpt lat="42.902337" lon="-4.49364">
        <ele>1168.91</ele>
        <time>2021-03-27T14:31:32Z</time>
      </trkpt>
      <trkpt lat="42.901869" lon="-4.493702">
        <ele>1170.27</ele>
        <time>2021-03-27T14:31:37Z</time>
      </trkpt>
      <trkpt lat="42.901679" lon="-4.493679">
        <ele>1173.94</ele>
        <time>2021-03-27T14:31:41Z</time>
      </trkpt>
      <trkpt lat="42.901552" lon="-4.493567">
        <ele>1175.73</ele>
        <time>2021-03-27T14:31:46Z</time>
      </trkpt>
      <trkpt lat="42.901451" lon="-4.493274">
        <ele>1175.31</ele>
        <time>2021-03-27T14:31:50Z</time>
      </trkpt>
      <trkpt lat="42.901441" lon="-4.492876">
        <ele>1170.67</ele>
        <time>2021-03-27T14:31:55Z</time>
      </trkpt>
      <trkpt lat="42.901375" lon="-4.492525">
        <ele>1168.63</ele>
        <time>2021-03-27T14:31:59Z</time>
      </trkpt>
      <trkpt lat="42.901153" lon="-4.492067">
        <ele>1168.6</ele>
        <time>2021-03-27T14:32:04Z</time>
      </trkpt>
      <trkpt lat="42.900751" lon="-4.491551">
        <ele>1169.59</ele>
        <time>2021-03-27T14:32:08Z</time>
      </trkpt>
      <trkpt lat="42.900349" lon="-4.491187">
        <ele>1162.4</ele>
        <time>2021-03-27T14:32:13Z</time>
      </trkpt>
      <trkpt lat="42.899929" lon="-4.49085">
        <ele>1168.29</ele>
        <time>2021-03-27T14:32:17Z</time>
      </trkpt>
      <trkpt lat="42.899305" lon="-4.490533">
        <ele>1172.06</ele>
        <time>2021-03-27T14:32:22Z</time>
      </trkpt>
      <trkpt lat="42.898542" lon="-4.490078">
        <ele>1168.72</ele>
        <time>2021-03-27T14:32:26Z</time>
      </trkpt>
      <trkpt lat="42.898198" lon="-4.489808">
        <ele>1170.43</ele>
        <time>2021-03-27T14:32:31Z</time>
      </trkpt>
      <trkpt lat="42.897987" lon="-4.4895">
        <ele>1172.49</ele>
        <time>2021-03-27T14:32:35Z</time>
      </trkpt>
      <trkpt lat="42.897758" lon="-4.4891">
        <ele>1171.12</ele>
        <time>2021-03-27T14:32:40Z</time>
      </trkpt>
      <trkpt lat="42.897505" lon="-4.488779">
        <ele>1171.49</ele>
        <time>2021-03-27T14:32:44Z</time>
      </trkpt>
      <trkpt lat="42.897409" lon="-4.48863">
        <ele>1170.33</ele>
        <time>2021-03-27T14:32:49Z</time>
      </trkpt>
      <trkpt lat="42.897043" lon="-4.48791">
        <ele>1164.8</ele>
        <time>2021-03-27T14:32:53Z</time>
      </trkpt>
      <trkpt lat="42.896949" lon="-4.487786">
        <ele>1163.15</ele>
        <time>2021-03-27T14:32:58Z</time>
      </trkpt>
      <trkpt lat="42.896858" lon="-4.487724">
        <ele>1163.1</ele>
        <time>2021-03-27T14:33:02Z</time>
      </trkpt>
      <trkpt lat="42.896765" lon="-4.487697">
        <ele>1163.58</ele>
        <time>2021-03-27T14:33:07Z</time>
      </trkpt>
      <trkpt lat="42.896669" lon="-4.4877">
        <ele>1164.58</ele>
        <time>2021-03-27T14:33:12Z</time>
      </trkpt>
      <trkpt lat="42.896524" lon="-4.487766">
        <ele>1166.3</ele>
        <time>2021-03-27T14:33:16Z</time>
      </trkpt>
      <trkpt lat="42.896109" lon="-4.488013">
        <ele>1169.21</ele>
        <time>2021-03-27T14:33:21Z</time>
      </trkpt>
      <trkpt lat="42.895686" lon="-4.488181">
        <ele>1169.5</ele>
        <time>2021-03-27T14:33:25Z</time>
      </trkpt>
      <trkpt lat="42.895124" lon="-4.488324">
        <ele>1173.17</ele>
        <time>2021-03-27T14:33:30Z</time>
      </trkpt>
      <trkpt lat="42.894763" lon="-4.488355">
        <ele>1170.69</ele>
        <time>2021-03-27T14:33:34Z</time>
      </trkpt>
      <trkpt lat="42.894625" lon="-4.488351">
        <ele>1170.65</ele>
        <time>2021-03-27T14:33:39Z</time>
      </trkpt>
      <trkpt lat="42.894484" lon="-4.488316">
        <ele>1170.61</ele>
        <time>2021-03-27T14:33:43Z</time>
      </trkpt>
      <trkpt lat="42.894287" lon="-4.488175">
        <ele>1169.36</ele>
        <time>2021-03-27T14:33:48Z</time>
      </trkpt>
      <trkpt lat="42.8942" lon="-4.488013">
        <ele>1168.57</ele>
        <time>2021-03-27T14:33:52Z</time>
      </trkpt>
      <trkpt lat="42.894179" lon="-4.487828">
        <ele>1168.01</ele>
        <time>2021-03-27T14:33:57Z</time>
      </trkpt>
      <trkpt lat="42.89428" lon="-4.487533">
        <ele>1166.0</ele>
        <time>2021-03-27T14:34:01Z</time>
      </trkpt>
      <trkpt lat="42.894304" lon="-4.487414">
        <ele>1165.68</ele>
        <time>2021-03-27T14:34:06Z</time>
      </trkpt>
      <trkpt lat="42.894292" lon="-4.487201">
        <ele>1166.21</ele>
        <time>2021-03-27T14:34:10Z</time>
      </trkpt>
      <trkpt lat="42.894163" lon="-4.48679">
        <ele>1169.1</ele>
        <time>2021-03-27T14:34:15Z</time>
      </trkpt>
      <trkpt lat="42.894041" lon="-4.486237">
        <ele>1167.68</ele>
        <time>2021-03-27T14:34:19Z</time>
      </trkpt>
      <trkpt lat="42.893982" lon="-4.48609">
        <ele>1166.84</ele>
        <time>2021-03-27T14:34:24Z</time>
      </trkpt>
      <trkpt lat="42.893877" lon="-4.485957">
        <ele>1166.27</ele>
        <time>2021-03-27T14:34:28Z</time>
      </trkpt>
      <trkpt lat="42.893766" lon="-4.485879">
        <ele>1165.84</ele>
        <time>2021-03-27T14:34:33Z</time>
      </trkpt>
      <trkpt lat="42.893639" lon="-4.485818">
        <ele>1166.1</ele>
        <time>2021-03-27T14:34:37Z</time>
      </trkpt>
      <trkpt lat="42.893482" lon="-4.485773">
        <ele>1165.35</ele>
        <time>2021-03-27T14:34:42Z</time>
      </trkpt>
      <trkpt lat="42.893269" lon="-4.48574">
        <ele>1164.99</ele>
        <time>2021-03-27T14:34:46Z</time>
      </trkpt>
      <trkpt lat="42.892935" lon="-4.485745">
        <ele>1165.23</ele>
        <time>2021-03-27T14:34:51Z</time>
      </trkpt>
      <trkpt lat="42.891881" lon="-4.48583">
        <ele>1162.76</ele>
        <time>2021-03-27T14:34:55Z</time>
      </trkpt>
      <trkpt lat="42.891538" lon="-4.485881">
        <ele>1162.72</ele>
        <time>2021-03-27T14:35:00Z</time>
      </trkpt>
      <trkpt lat="42.891147" lon="-4.485975">
        <ele>1163.07</ele>
        <time>2021-03-27T14:35:04Z</time>
      </trkpt>
      <trkpt lat="42.89014" lon="-4.486273">
        <ele>1159.42</ele>
        <time>2021-03-27T14:35:09Z</time>
      </trkpt>
      <trkpt lat="42.889848" lon="-4.486386">
        <ele>1159.01</ele>
        <time>2021-03-27T14:35:13Z</time>
      </trkpt>
      <trkpt lat="42.889627" lon="-4.486511">
        <ele>1157.28</ele>
        <time>2021-03-27T14:35:18Z</time>
      </trkpt>
      <trkpt lat="42.888784" lon="-4.487158">
        <ele>1145.08</ele>
        <time>2021-03-27T14:35:22Z</time>
      </trkpt>
      <trkpt lat="42.887475" lon="-4.488208">
        <ele>1136.4</ele>
        <time>2021-03-27T14:35:27Z</time>
      </trkpt>
      <trkpt lat="42.886814" lon="-4.488701">
        <ele>1133.06</ele>
        <time>2021-03-27T14:35:31Z</time>
      </trkpt>
      <trkpt lat="42.886545" lon="-4.488854">
        <ele>1130.44</ele>
        <time>2021-03-27T14:35:36Z</time>
      </trkpt>
      <trkpt lat="42.885825" lon="-4.489177">
        <ele>1126.81</ele>
        <time>2021-03-27T14:35:40Z</time>
      </trkpt>
      <trkpt lat="42.884815" lon="-4.489979">
        <ele>1122.98</ele>
        <time>2021-03-27T14:35:45Z</time>
      </trkpt>
      <trkpt lat="42.882503" lon="-4.492402">
        <ele>1102.7</ele>
        <time>2021-03-27T14:35:50Z</time>
      </trkpt>
      <trkpt lat="42.882047" lon="-4.493001">
        <ele>1101.55</ele>
        <time>2021-03-27T14:35:54Z</time>
      </trkpt>
      <trkpt lat="42.881628" lon="-4.493593">
        <ele>1097.08</ele>
        <time>2021-03-27T14:35:59Z</time>
      </trkpt>
      <trkpt lat="42.881123" lon="-4.494232">
        <ele>1094.12</ele>
        <time>2021-03-27T14:36:03Z</time>
      </trkpt>
      <trkpt lat="42.880959" lon="-4.494403">
        <ele>1093.78</ele>
        <time>2021-03-27T14:36:08Z</time>
      </trkpt>
      <trkpt lat="42.88068" lon="-4.4946">
        <ele>1092.56</ele>
        <time>2021-03-27T14:36:12Z</time>
      </trkpt>
      <trkpt lat="42.8804" lon="-4.494765">
        <ele>1091.01</ele>
        <time>2021-03-27T14:36:17Z</time>
      </trkpt>
      <trkpt lat="42.879953" lon="-4.495143">
        <ele>1084.43</ele>
        <time>2021-03-27T14:36:21Z</time>
      </trkpt>
      <trkpt lat="42.879605" lon="-4.495493">
        <ele>1083.44</ele>
        <time>2021-03-27T14:36:26Z</time>
      </trkpt>
      <trkpt lat="42.879042" lon="-4.496347">
        <ele>1078.1</ele>
        <time>2021-03-27T14:36:30Z</time>
      </trkpt>
      <trkpt lat="42.8789" lon="-4.49651">
        <ele>1074.02</ele>
        <time>2021-03-27T14:36:35Z</time>
      </trkpt>
      <trkpt lat="42.878808" lon="-4.49659">
        <ele>1072.35</ele>
        <time>2021-03-27T14:36:39Z</time>
      </trkpt>
      <trkpt lat="42.878239" lon="-4.496883">
        <ele>1071.72</ele>
        <time>2021-03-27T14:36:44Z</time>
      </trkpt>
      <trkpt lat="42.878115" lon="-4.496917">
        <ele>1070.23</ele>
        <time>2021-03-27T14:36:48Z</time>
      </trkpt>
      <trkpt lat="42.877874" lon="-4.496927">
        <ele>1069.57</ele>
        <time>2021-03-27T14:36:53Z</time>
      </trkpt>
      <trkpt lat="42.877752" lon="-4.496886">
        <ele>1070.54</ele>
        <time>2021-03-27T14:36:57Z</time>
      </trkpt>
      <trkpt lat="42.877278" lon="-4.496615">
        <ele>1069.31</ele>
        <time>2021-03-27T14:37:02Z</time>
      </trkpt>
      <trkpt lat="42.877183" lon="-4.49654">
        <ele>1068.3</ele>
        <time>2021-03-27T14:37:06Z</time>
      </trkpt>
      <trkpt lat="42.876978" lon="-4.496302">
        <ele>1068.21</ele>
        <time>2021-03-27T14:37:11Z</time>
      </trkpt>
      <trkpt lat="42.876901" lon="-4.496255">
        <ele>1067.81</ele>
        <time>2021-03-27T14:37:15Z</time>
      </trkpt>
      <trkpt lat="42.876752" lon="-4.496254">
        <ele>1064.39</ele>
        <time>2021-03-27T14:37:20Z</time>
      </trkpt>
      <trkpt lat="42.876407" lon="-4.496425">
        <ele>1059.15</ele>
        <time>2021-03-27T14:37:24Z</time>
      </trkpt>
      <trkpt lat="42.876308" lon="-4.496456">
        <ele>1058.1</ele>
        <time>2021-03-27T14:37:29Z</time>
      </trkpt>
      <trkpt lat="42.876169" lon="-4.496461">
        <ele>1057.27</ele>
        <time>2021-03-27T14:37:33Z</time>
      </trkpt>
      <trkpt lat="42.875865" lon="-4.496376">
        <ele>1058.35</ele>
        <time>2021-03-27T14:37:38Z</time>
      </trkpt>
      <trkpt lat="42.875701" lon="-4.496302">
        <ele>1057.8</ele>
        <time>2021-03-27T14:37:42Z</time>
      </trkpt>
      <trkpt lat="42.875421" lon="-4.4961">
        <ele>1055.29</ele>
        <time>2021-03-27T14:37:47Z</time>
      </trkpt>
      <trkpt lat="42.875288" lon="-4.495946">
        <ele>1052.72</ele>
        <time>2021-03-27T14:37:51Z</time>
      </trkpt>
      <trkpt lat="42.875183" lon="-4.495789">
        <ele>1050.57</ele>
        <time>2021-03-27T14:37:56Z</time>
      </trkpt>
      <trkpt lat="42.875074" lon="-4.495507">
        <ele>1049.22</ele>
        <time>2021-03-27T14:38:00Z</time>
      </trkpt>
      <trkpt lat="42.875072" lon="-4.4954">
        <ele>1049.34</ele>
        <time>2021-03-27T14:38:05Z</time>
      </trkpt>
      <trkpt lat="42.875125" lon="-4.495261">
        <ele>1050.45</ele>
        <time>2021-03-27T14:38:09Z</time>
      </trkpt>
      <trkpt lat="42.875189" lon="-4.495206">
        <ele>1051.15</ele>
        <time>2021-03-27T14:38:14Z</time>
      </trkpt>
      <trkpt lat="42.87545" lon="-4.495124">
        <ele>1055.72</ele>
        <time>2021-03-27T14:38:18Z</time>
      </trkpt>
      <trkpt lat="42.875518" lon="-4.495086">
        <ele>1056.54</ele>
        <time>2021-03-27T14:38:23Z</time>
      </trkpt>
      <trkpt lat="42.875584" lon="-4.495018">
        <ele>1057.06</ele>
        <time>2021-03-27T14:38:28Z</time>
      </trkpt>
      <trkpt lat="42.875617" lon="-4.494957">
        <ele>1056.9</ele>
        <time>2021-03-27T14:38:32Z</time>
      </trkpt>
      <trkpt lat="42.875674" lon="-4.494789">
        <ele>1055.51</ele>
        <time>2021-03-27T14:38:37Z</time>
      </trkpt>
      <trkpt lat="42.875687" lon="-4.494687">
        <ele>1054.23</ele>
        <time>2021-03-27T14:38:41Z</time>
      </trkpt>
      <trkpt lat="42.875662" lon="-4.494439">
        <ele>1050.01</ele>
        <time>2021-03-27T14:38:46Z</time>
      </trkpt>
      <trkpt lat="42.875478" lon="-4.493732">
        <ele>1043.17</ele>
        <time>2021-03-27T14:38:50Z</time>
      </trkpt>
      <trkpt lat="42.875444" lon="-4.493454">
        <ele>1043.37</ele>
        <time>2021-03-27T14:38:55Z</time>
      </trkpt>
      <trkpt lat="42.875444" lon="-4.493295">
        <ele>1044.08</ele>
        <time>2021-03-27T14:38:59Z</time>
      </trkpt>
      <trkpt lat="42.875468" lon="-4.493111">
        <ele>1045.41</ele>
        <time>2021-03-27T14:39:04Z</time>
      </trkpt>
      <trkpt lat="42.875548" lon="-4.492876">
        <ele>1047.45</ele>
        <time>2021-03-27T14:39:08Z</time>
      </trkpt>
      <trkpt lat="42.875698" lon="-4.492916">
        <ele>1049.8</ele>
        <time>2021-03-27T14:39:13Z</time>
      </trkpt>
      <trkpt lat="42.875793" lon="-4.49286">
        <ele>1050.75</ele>
        <time>2021-03-27T14:39:17Z</time>
      </trkpt>
      <trkpt lat="42.877002" lon="-4.491428">
        <ele>1055.14</ele>
        <time>2021-03-27T14:39:22Z</time>
      </trkpt>
      <trkpt lat="42.877272" lon="-4.490972">
        <ele>1057.39</ele>
        <time>2021-03-27T14:39:26Z</time>
      </trkpt>
      <trkpt lat="42.877389" lon="-4.490826">
        <ele>1057.93</ele>
        <time>2021-03-27T14:39:30Z</time>
      </trkpt>
      <trkpt lat="42.877822" lon="-4.490467">
        <ele>1064.88</ele>
        <time>2021-03-27T14:39:35Z</time>
      </trkpt>
      <trkpt lat="42.878159" lon="-4.490215">
        <ele>1068.53</ele>
        <time>2021-03-27T14:39:39Z</time>
      </trkpt>
      <trkpt lat="42.878679" lon="-4.489878">
        <ele>1071.97</ele>
        <time>2021-03-27T14:39:44Z</time>
      </trkpt>
      <trkpt lat="42.878882" lon="-4.489683">
        <ele>1075.04</ele>
        <time>2021-03-27T14:39:48Z</time>
      </trkpt>
      <trkpt lat="42.87902" lon="-4.489468">
        <ele>1076.47</ele>
        <time>2021-03-27T14:39:53Z</time>
      </trkpt>
      <trkpt lat="42.879064" lon="-4.489312">
        <ele>1076.98</ele>
        <time>2021-03-27T14:39:57Z</time>
      </trkpt>
      <trkpt lat="42.879151" lon="-4.488348">
        <ele>1081.17</ele>
        <time>2021-03-27T14:40:02Z</time>
      </trkpt>
      <trkpt lat="42.878967" lon="-4.488121">
        <ele>1083.15</ele>
        <time>2021-03-27T14:40:06Z</time>
      </trkpt>
      <trkpt lat="42.878742" lon="-4.487747">
        <ele>1081.83</ele>
        <time>2021-03-27T14:40:10Z</time>
      </trkpt>
      <trkpt lat="42.878614" lon="-4.487367">
        <ele>1080.04</ele>
        <time>2021-03-27T14:40:15Z</time>
      </trkpt>
      <trkpt lat="42.878582" lon="-4.487142">
        <ele>1079.1</ele>
        <time>2021-03-27T14:40:19Z</time>
      </trkpt>
      <trkpt lat="42.878325" lon="-4.486722">
        <ele>1080.08</ele>
        <time>2021-03-27T14:40:23Z</time>
      </trkpt>
      <trkpt lat="42.878284" lon="-4.486513">
        <ele>1080.63</ele>
        <time>2021-03-27T14:40:27Z</time>
      </trkpt>
      <trkpt lat="42.878323" lon="-4.485466">
        <ele>1078.57</ele>
        <time>2021-03-27T14:40:32Z</time>
      </trkpt>
      <trkpt lat="42.878289" lon="-4.485151">
        <ele>1077.04</ele>
        <time>2021-03-27T14:40:36Z</time>
      </trkpt>
      <trkpt lat="42.878464" lon="-4.484236">
        <ele>1069.4</ele>
        <time>2021-03-27T14:40:40Z</time>
      </trkpt>
      <trkpt lat="42.878459" lon="-4.483743">
        <ele>1067.36</ele>
        <time>2021-03-27T14:40:45Z</time>
      </trkpt>
      <trkpt lat="42.878645" lon="-4.483025">
        <ele>1064.26</ele>
        <time>2021-03-27T14:40:49Z</time>
      </trkpt>
      <trkpt lat="42.878686" lon="-4.482702">
        <ele>1063.1</ele>
        <time>2021-03-27T14:40:53Z</time>
      </trkpt>
      <trkpt lat="42.878558" lon="-4.481604">
        <ele>1058.34</ele>
        <time>2021-03-27T14:40:58Z</time>
      </trkpt>
      <trkpt lat="42.878558" lon="-4.481164">
        <ele>1051.68</ele>
        <time>2021-03-27T14:41:02Z</time>
      </trkpt>
      <trkpt lat="42.878538" lon="-4.481045">
        <ele>1049.56</ele>
        <time>2021-03-27T14:41:06Z</time>
      </trkpt>
      <trkpt lat="42.878502" lon="-4.480976">
        <ele>1048.72</ele>
        <time>2021-03-27T14:41:11Z</time>
      </trkpt>
      <trkpt lat="42.878129" lon="-4.480652">
        <ele>1050.03</ele>
        <time>2021-03-27T14:41:15Z</time>
      </trkpt>
      <trkpt lat="42.878117" lon="-4.480556">
        <ele>1049.23</ele>
        <time>2021-03-27T14:41:19Z</time>
      </trkpt>
      <trkpt lat="42.878134" lon="-4.48046">
        <ele>1048.3</ele>
        <time>2021-03-27T14:41:23Z</time>
      </trkpt>
      <trkpt lat="42.878175" lon="-4.480364">
        <ele>1046.56</ele>
        <time>2021-03-27T14:41:28Z</time>
      </trkpt>
      <trkpt lat="42.878846" lon="-4.479762">
        <ele>1033.68</ele>
        <time>2021-03-27T14:41:32Z</time>
      </trkpt>
      <trkpt lat="42.87903" lon="-4.479465">
        <ele>1031.45</ele>
        <time>2021-03-27T14:41:36Z</time>
      </trkpt>
      <trkpt lat="42.87913" lon="-4.478213">
        <ele>1023.84</ele>
        <time>2021-03-27T14:41:41Z</time>
      </trkpt>
      <trkpt lat="42.879085" lon="-4.477941">
        <ele>1020.11</ele>
        <time>2021-03-27T14:41:45Z</time>
      </trkpt>
      <trkpt lat="42.878371" lon="-4.476217">
        <ele>1012.94</ele>
        <time>2021-03-27T14:41:49Z</time>
      </trkpt>
      <trkpt lat="42.878391" lon="-4.475906">
        <ele>1010.91</ele>
        <time>2021-03-27T14:41:54Z</time>
      </trkpt>
      <trkpt lat="42.878677" lon="-4.475073">
        <ele>1010.44</ele>
        <time>2021-03-27T14:41:58Z</time>
      </trkpt>
      <trkpt lat="42.878725" lon="-4.474735">
        <ele>1010.98</ele>
        <time>2021-03-27T14:42:02Z</time>
      </trkpt>
      <trkpt lat="42.878725" lon="-4.474555">
        <ele>1011.24</ele>
        <time>2021-03-27T14:42:07Z</time>
      </trkpt>
      <trkpt lat="42.878693" lon="-4.474384">
        <ele>1011.36</ele>
        <time>2021-03-27T14:42:11Z</time>
      </trkpt>
      <trkpt lat="42.878538" lon="-4.474042">
        <ele>1011.07</ele>
        <time>2021-03-27T14:42:15Z</time>
      </trkpt>
      <trkpt lat="42.878545" lon="-4.473862">
        <ele>1011.45</ele>
        <time>2021-03-27T14:42:19Z</time>
      </trkpt>
      <trkpt lat="42.878651" lon="-4.473542">
        <ele>1010.54</ele>
        <time>2021-03-27T14:42:24Z</time>
      </trkpt>
      <trkpt lat="42.878487" lon="-4.472424">
        <ele>1010.24</ele>
        <time>2021-03-27T14:42:28Z</time>
      </trkpt>
      <trkpt lat="42.878474" lon="-4.472148">
        <ele>1010.04</ele>
        <time>2021-03-27T14:42:32Z</time>
      </trkpt>
      <trkpt lat="42.878603" lon="-4.471319">
        <ele>1018.95</ele>
        <time>2021-03-27T14:42:37Z</time>
      </trkpt>
      <trkpt lat="42.878625" lon="-4.470574">
        <ele>1026.76</ele>
        <time>2021-03-27T14:42:41Z</time>
      </trkpt>
      <trkpt lat="42.878561" lon="-4.470328">
        <ele>1026.2</ele>
        <time>2021-03-27T14:42:45Z</time>
      </trkpt>
      <trkpt lat="42.878413" lon="-4.46996">
        <ele>1025.95</ele>
        <time>2021-03-27T14:42:50Z</time>
      </trkpt>
      <trkpt lat="42.87824" lon="-4.469683">
        <ele>1029.42</ele>
        <time>2021-03-27T14:42:54Z</time>
      </trkpt>
      <trkpt lat="42.87822" lon="-4.469315">
        <ele>1031.3</ele>
        <time>2021-03-27T14:42:58Z</time>
      </trkpt>
      <trkpt lat="42.878172" lon="-4.469068">
        <ele>1033.66</ele>
        <time>2021-03-27T14:43:03Z</time>
      </trkpt>
      <trkpt lat="42.877916" lon="-4.468131">
        <ele>1044.02</ele>
        <time>2021-03-27T14:43:07Z</time>
      </trkpt>
      <trkpt lat="42.877809" lon="-4.4676">
        <ele>1045.43</ele>
        <time>2021-03-27T14:43:11Z</time>
      </trkpt>
      <trkpt lat="42.877195" lon="-4.466162">
        <ele>1054.03</ele>
        <time>2021-03-27T14:43:16Z</time>
      </trkpt>
      <trkpt lat="42.877105" lon="-4.465741">
        <ele>1052.79</ele>
        <time>2021-03-27T14:43:20Z</time>
      </trkpt>
      <trkpt lat="42.876909" lon="-4.465154">
        <ele>1055.82</ele>
        <time>2021-03-27T14:43:24Z</time>
      </trkpt>
      <trkpt lat="42.876646" lon="-4.464509">
        <ele>1062.86</ele>
        <time>2021-03-27T14:43:28Z</time>
      </trkpt>
      <trkpt lat="42.876562" lon="-4.464228">
        <ele>1063.83</ele>
        <time>2021-03-27T14:43:33Z</time>
      </trkpt>
      <trkpt lat="42.876533" lon="-4.46386">
        <ele>1064.27</ele>
        <time>2021-03-27T14:43:37Z</time>
      </trkpt>
      <trkpt lat="42.876587" lon="-4.463591">
        <ele>1066.95</ele>
        <time>2021-03-27T14:43:41Z</time>
      </trkpt>
      <trkpt lat="42.876652" lon="-4.463434">
        <ele>1069.33</ele>
        <time>2021-03-27T14:43:46Z</time>
      </trkpt>
      <trkpt lat="42.876712" lon="-4.463358">
        <ele>1070.44</ele>
        <time>2021-03-27T14:43:50Z</time>
      </trkpt>
      <trkpt lat="42.876837" lon="-4.463318">
        <ele>1070.51</ele>
        <time>2021-03-27T14:43:54Z</time>
      </trkpt>
      <trkpt lat="42.877016" lon="-4.463349">
        <ele>1070.47</ele>
        <time>2021-03-27T14:43:59Z</time>
      </trkpt>
      <trkpt lat="42.877277" lon="-4.463544">
        <ele>1071.4</ele>
        <time>2021-03-27T14:44:03Z</time>
      </trkpt>
      <trkpt lat="42.877439" lon="-4.463614">
        <ele>1068.8</ele>
        <time>2021-03-27T14:44:07Z</time>
      </trkpt>
      <trkpt lat="42.878806" lon="-4.463829">
        <ele>1070.36</ele>
        <time>2021-03-27T14:44:12Z</time>
      </trkpt>
      <trkpt lat="42.879048" lon="-4.463899">
        <ele>1072.95</ele>
        <time>2021-03-27T14:44:16Z</time>
      </trkpt>
      <trkpt lat="42.8798" lon="-4.464306">
        <ele>1065.73</ele>
        <time>2021-03-27T14:44:20Z</time>
      </trkpt>
      <trkpt lat="42.879973" lon="-4.46437">
        <ele>1065.6</ele>
        <time>2021-03-27T14:44:24Z</time>
      </trkpt>
      <trkpt lat="42.880076" lon="-4.464374">
        <ele>1066.04</ele>
        <time>2021-03-27T14:44:29Z</time>
      </trkpt>
      <trkpt lat="42.880142" lon="-4.464314">
        <ele>1066.08</ele>
        <time>2021-03-27T14:44:33Z</time>
      </trkpt>
      <trkpt lat="42.880503" lon="-4.463761">
        <ele>1069.27</ele>
        <time>2021-03-27T14:44:37Z</time>
      </trkpt>
      <trkpt lat="42.880686" lon="-4.463568">
        <ele>1069.77</ele>
        <time>2021-03-27T14:44:42Z</time>
      </trkpt>
      <trkpt lat="42.880802" lon="-4.463534">
        <ele>1069.48</ele>
        <time>2021-03-27T14:44:46Z</time>
      </trkpt>
      <trkpt lat="42.881755" lon="-4.463588">
        <ele>1080.17</ele>
        <time>2021-03-27T14:44:50Z</time>
      </trkpt>
      <trkpt lat="42.882502" lon="-4.463921">
        <ele>1079.22</ele>
        <time>2021-03-27T14:44:55Z</time>
      </trkpt>
      <trkpt lat="42.882846" lon="-4.464239">
        <ele>1079.08</ele>
        <time>2021-03-27T14:44:59Z</time>
      </trkpt>
      <trkpt lat="42.882964" lon="-4.46427">
        <ele>1078.33</ele>
        <time>2021-03-27T14:45:03Z</time>
      </trkpt>
      <trkpt lat="42.883041" lon="-4.464249">
        <ele>1077.8</ele>
        <time>2021-03-27T14:45:08Z</time>
      </trkpt>
      <trkpt lat="42.883412" lon="-4.463829">
        <ele>1080.29</ele>
        <time>2021-03-27T14:45:12Z</time>
      </trkpt>
      <trkpt lat="42.883437" lon="-4.46374">
        <ele>1080.83</ele>
        <time>2021-03-27T14:45:16Z</time>
      </trkpt>
      <trkpt lat="42.883441" lon="-4.463621">
        <ele>1081.14</ele>
        <time>2021-03-27T14:45:20Z</time>
      </trkpt>
      <trkpt lat="42.883339" lon="-4.463324">
        <ele>1081.14</ele>
        <time>2021-03-27T14:45:25Z</time>
      </trkpt>
      <trkpt lat="42.883329" lon="-4.463192">
        <ele>1081.43</ele>
        <time>2021-03-27T14:45:29Z</time>
      </trkpt>
      <trkpt lat="42.88334" lon="-4.462934">
        <ele>1082.16</ele>
        <time>2021-03-27T14:45:33Z</time>
      </trkpt>
      <trkpt lat="42.883447" lon="-4.462331">
        <ele>1082.26</ele>
        <time>2021-03-27T14:45:38Z</time>
      </trkpt>
      <trkpt lat="42.88342" lon="-4.461785">
        <ele>1081.4</ele>
        <time>2021-03-27T14:45:42Z</time>
      </trkpt>
      <trkpt lat="42.883457" lon="-4.461585">
        <ele>1081.63</ele>
        <time>2021-03-27T14:45:46Z</time>
      </trkpt>
      <trkpt lat="42.883513" lon="-4.461467">
        <ele>1081.79</ele>
        <time>2021-03-27T14:45:51Z</time>
      </trkpt>
      <trkpt lat="42.883651" lon="-4.461272">
        <ele>1081.54</ele>
        <time>2021-03-27T14:45:55Z</time>
      </trkpt>
      <trkpt lat="42.883805" lon="-4.461173">
        <ele>1082.44</ele>
        <time>2021-03-27T14:45:59Z</time>
      </trkpt>
      <trkpt lat="42.885099" lon="-4.460694">
        <ele>1090.35</ele>
        <time>2021-03-27T14:46:04Z</time>
      </trkpt>
      <trkpt lat="42.885176" lon="-4.460587">
        <ele>1089.86</ele>
        <time>2021-03-27T14:46:08Z</time>
      </trkpt>
      <trkpt lat="42.885185" lon="-4.460481">
        <ele>1089.13</ele>
        <time>2021-03-27T14:46:12Z</time>
      </trkpt>
      <trkpt lat="42.88516" lon="-4.460308">
        <ele>1087.8</ele>
        <time>2021-03-27T14:46:16Z</time>
      </trkpt>
      <trkpt lat="42.884065" lon="-4.457155">
        <ele>1081.87</ele>
        <time>2021-03-27T14:46:21Z</time>
      </trkpt>
      <trkpt lat="42.883932" lon="-4.456558">
        <ele>1078.25</ele>
        <time>2021-03-27T14:46:25Z</time>
      </trkpt>
      <trkpt lat="42.883774" lon="-4.455741">
        <ele>1077.96</ele>
        <time>2021-03-27T14:46:29Z</time>
      </trkpt>
      <trkpt lat="42.883751" lon="-4.455505">
        <ele>1075.47</ele>
        <time>2021-03-27T14:46:34Z</time>
      </trkpt>
      <trkpt lat="42.883793" lon="-4.45535">
        <ele>1074.41</ele>
        <time>2021-03-27T14:46:38Z</time>
      </trkpt>
      <trkpt lat="42.883961" lon="-4.454932">
        <ele>1073.99</ele>
        <time>2021-03-27T14:46:42Z</time>
      </trkpt>
      <trkpt lat="42.884002" lon="-4.454712">
        <ele>1073.55</ele>
        <time>2021-03-27T14:46:47Z</time>
      </trkpt>
      <trkpt lat="42.884023" lon="-4.454472">
        <ele>1072.53</ele>
        <time>2021-03-27T14:46:51Z</time>
      </trkpt>
      <trkpt lat="42.884023" lon="-4.454241">
        <ele>1072.02</ele>
        <time>2021-03-27T14:46:55Z</time>
      </trkpt>
      <trkpt lat="42.883977" lon="-4.454061">
        <ele>1070.91</ele>
        <time>2021-03-27T14:47:00Z</time>
      </trkpt>
      <trkpt lat="42.883732" lon="-4.453667">
        <ele>1064.72</ele>
        <time>2021-03-27T14:47:04Z</time>
      </trkpt>
      <trkpt lat="42.883667" lon="-4.453582">
        <ele>1063.8</ele>
        <time>2021-03-27T14:47:08Z</time>
      </trkpt>
      <trkpt lat="42.883532" lon="-4.453454">
        <ele>1062.84</ele>
        <time>2021-03-27T14:47:12Z</time>
      </trkpt>
      <trkpt lat="42.88316" lon="-4.452774">
        <ele>1069.62</ele>
        <time>2021-03-27T14:47:17Z</time>
      </trkpt>
      <trkpt lat="42.882987" lon="-4.452248">
        <ele>1067.39</ele>
        <time>2021-03-27T14:47:21Z</time>
      </trkpt>
      <trkpt lat="42.882774" lon="-4.452007">
        <ele>1067.24</ele>
        <time>2021-03-27T14:47:25Z</time>
      </trkpt>
      <trkpt lat="42.882754" lon="-4.45175">
        <ele>1066.59</ele>
        <time>2021-03-27T14:47:30Z</time>
      </trkpt>
      <trkpt lat="42.882495" lon="-4.450966">
        <ele>1071.56</ele>
        <time>2021-03-27T14:47:34Z</time>
      </trkpt>
      <trkpt lat="42.882433" lon="-4.4505">
        <ele>1074.36</ele>
        <time>2021-03-27T14:47:38Z</time>
      </trkpt>
      <trkpt lat="42.882256" lon="-4.449737">
        <ele>1074.34</ele>
        <time>2021-03-27T14:47:43Z</time>
      </trkpt>
      <trkpt lat="42.881956" lon="-4.448588">
        <ele>1075.05</ele>
        <time>2021-03-27T14:47:47Z</time>
      </trkpt>
      <trkpt lat="42.881768" lon="-4.447567">
        <ele>1077.12</ele>
        <time>2021-03-27T14:47:51Z</time>
      </trkpt>
      <trkpt lat="42.881673" lon="-4.447374">
        <ele>1077.91</ele>
        <time>2021-03-27T14:47:56Z</time>
      </trkpt>
      <trkpt lat="42.881399" lon="-4.447218">
        <ele>1077.14</ele>
        <time>2021-03-27T14:48:00Z</time>
      </trkpt>
      <trkpt lat="42.881249" lon="-4.447097">
        <ele>1074.61</ele>
        <time>2021-03-27T14:48:04Z</time>
      </trkpt>
      <trkpt lat="42.881179" lon="-4.446896">
        <ele>1073.4</ele>
        <time>2021-03-27T14:48:09Z</time>
      </trkpt>
      <trkpt lat="42.881108" lon="-4.446535">
        <ele>1071.39</ele>
        <time>2021-03-27T14:48:13Z</time>
      </trkpt>
      <trkpt lat="42.881085" lon="-4.445626">
        <ele>1069.24</ele>
        <time>2021-03-27T14:48:17Z</time>
      </trkpt>
      <trkpt lat="42.881029" lon="-4.445249">
        <ele>1069.28</ele>
        <time>2021-03-27T14:48:21Z</time>
      </trkpt>
      <trkpt lat="42.881032" lon="-4.445104">
        <ele>1069.64</ele>
        <time>2021-03-27T14:48:26Z</time>
      </trkpt>
      <trkpt lat="42.881105" lon="-4.444755">
        <ele>1070.88</ele>
        <time>2021-03-27T14:48:30Z</time>
      </trkpt>
      <trkpt lat="42.881208" lon="-4.444477">
        <ele>1070.42</ele>
        <time>2021-03-27T14:48:34Z</time>
      </trkpt>
      <trkpt lat="42.881241" lon="-4.444015">
        <ele>1065.73</ele>
        <time>2021-03-27T14:48:39Z</time>
      </trkpt>
      <trkpt lat="42.88132" lon="-4.443682">
        <ele>1064.15</ele>
        <time>2021-03-27T14:48:43Z</time>
      </trkpt>
      <trkpt lat="42.881323" lon="-4.442758">
        <ele>1062.1</ele>
        <time>2021-03-27T14:48:47Z</time>
      </trkpt>
      <trkpt lat="42.881091" lon="-4.44191">
        <ele>1064.63</ele>
        <time>2021-03-27T14:48:52Z</time>
      </trkpt>
      <trkpt lat="42.880869" lon="-4.441508">
        <ele>1063.22</ele>
        <time>2021-03-27T14:48:56Z</time>
      </trkpt>
      <trkpt lat="42.880711" lon="-4.440664">
        <ele>1062.56</ele>
        <time>2021-03-27T14:49:00Z</time>
      </trkpt>
      <trkpt lat="42.880717" lon="-4.440092">
        <ele>1060.22</ele>
        <time>2021-03-27T14:49:05Z</time>
      </trkpt>
      <trkpt lat="42.880737" lon="-4.439927">
        <ele>1059.09</ele>
        <time>2021-03-27T14:49:09Z</time>
      </trkpt>
      <trkpt lat="42.880867" lon="-4.439387">
        <ele>1053.67</ele>
        <time>2021-03-27T14:49:13Z</time>
      </trkpt>
      <trkpt lat="42.881011" lon="-4.439093">
        <ele>1051.93</ele>
        <time>2021-03-27T14:49:17Z</time>
      </trkpt>
      <trkpt lat="42.881076" lon="-4.438993">
        <ele>1050.96</ele>
        <time>2021-03-27T14:49:22Z</time>
      </trkpt>
      <trkpt lat="42.881161" lon="-4.438748">
        <ele>1049.44</ele>
        <time>2021-03-27T14:49:26Z</time>
      </trkpt>
      <trkpt lat="42.88117" lon="-4.438081">
        <ele>1044.01</ele>
        <time>2021-03-27T14:49:30Z</time>
      </trkpt>
      <trkpt lat="42.881076" lon="-4.43778">
        <ele>1040.78</ele>
        <time>2021-03-27T14:49:35Z</time>
      </trkpt>
      <trkpt lat="42.880999" lon="-4.437309">
        <ele>1037.77</ele>
        <time>2021-03-27T14:49:39Z</time>
      </trkpt>
      <trkpt lat="42.880996" lon="-4.436807">
        <ele>1034.95</ele>
        <time>2021-03-27T14:49:43Z</time>
      </trkpt>
      <trkpt lat="42.881055" lon="-4.436297">
        <ele>1032.94</ele>
        <time>2021-03-27T14:49:48Z</time>
      </trkpt>
      <trkpt lat="42.881258" lon="-4.435843">
        <ele>1033.26</ele>
        <time>2021-03-27T14:49:52Z</time>
      </trkpt>
      <trkpt lat="42.881317" lon="-4.435606">
        <ele>1034.74</ele>
        <time>2021-03-27T14:49:56Z</time>
      </trkpt>
      <trkpt lat="42.881332" lon="-4.43508">
        <ele>1031.59</ele>
        <time>2021-03-27T14:50:01Z</time>
      </trkpt>
      <trkpt lat="42.881388" lon="-4.434762">
        <ele>1027.31</ele>
        <time>2021-03-27T14:50:05Z</time>
      </trkpt>
      <trkpt lat="42.881697" lon="-4.433637">
        <ele>1015.91</ele>
        <time>2021-03-27T14:50:09Z</time>
      </trkpt>
      <trkpt lat="42.8817" lon="-4.43344">
        <ele>1016.54</ele>
        <time>2021-03-27T14:50:13Z</time>
      </trkpt>
      <trkpt lat="42.881653" lon="-4.433179">
        <ele>1016.97</ele>
        <time>2021-03-27T14:50:18Z</time>
      </trkpt>
      <trkpt lat="42.881476" lon="-4.432785">
        <ele>1013.33</ele>
        <time>2021-03-27T14:50:22Z</time>
      </trkpt>
      <trkpt lat="42.881441" lon="-4.432552">
        <ele>1011.94</ele>
        <time>2021-03-27T14:50:26Z</time>
      </trkpt>
      <trkpt lat="42.881358" lon="-4.43238">
        <ele>1011.11</ele>
        <time>2021-03-27T14:50:31Z</time>
      </trkpt>
      <trkpt lat="42.880219" lon="-4.4315">
        <ele>1012.54</ele>
        <time>2021-03-27T14:50:35Z</time>
      </trkpt>
      <trkpt lat="42.879919" lon="-4.431403">
        <ele>1013.15</ele>
        <time>2021-03-27T14:50:39Z</time>
      </trkpt>
      <trkpt lat="42.879371" lon="-4.430929">
        <ele>1011.44</ele>
        <time>2021-03-27T14:50:44Z</time>
      </trkpt>
      <trkpt lat="42.877348" lon="-4.428499">
        <ele>1008.66</ele>
        <time>2021-03-27T14:50:48Z</time>
      </trkpt>
      <trkpt lat="42.876612" lon="-4.42788">
        <ele>1007.56</ele>
        <time>2021-03-27T14:50:52Z</time>
      </trkpt>
      <trkpt lat="42.87567" lon="-4.427446">
        <ele>1002.83</ele>
        <time>2021-03-27T14:50:57Z</time>
      </trkpt>
      <trkpt lat="42.8756" lon="-4.427321">
        <ele>1001.23</ele>
        <time>2021-03-27T14:51:01Z</time>
      </trkpt>
      <trkpt lat="42.875491" lon="-4.427008">
        <ele>999.23</ele>
        <time>2021-03-27T14:51:05Z</time>
      </trkpt>
      <trkpt lat="42.875385" lon="-4.426887">
        <ele>999.21</ele>
        <time>2021-03-27T14:51:09Z</time>
      </trkpt>
      <trkpt lat="42.875144" lon="-4.42686">
        <ele>999.79</ele>
        <time>2021-03-27T14:51:14Z</time>
      </trkpt>
      <trkpt lat="42.87506" lon="-4.42706">
        <ele>1000.2</ele>
        <time>2021-03-27T14:51:19Z</time>
      </trkpt>
      <trkpt lat="42.874954" lon="-4.427159">
        <ele>1000.68</ele>
        <time>2021-03-27T14:51:23Z</time>
      </trkpt>
      <trkpt lat="42.874747" lon="-4.427227">
        <ele>1000.11</ele>
        <time>2021-03-27T14:51:28Z</time>
      </trkpt>
      <trkpt lat="42.874179" lon="-4.427523">
        <ele>994.09</ele>
        <time>2021-03-27T14:51:33Z</time>
      </trkpt>
      <trkpt lat="42.874099" lon="-4.42751">
        <ele>994.02</ele>
        <time>2021-03-27T14:51:37Z</time>
      </trkpt>
      <trkpt lat="42.874017" lon="-4.427454">
        <ele>993.99</ele>
        <time>2021-03-27T14:51:42Z</time>
      </trkpt>
      <trkpt lat="42.873892" lon="-4.427319">
        <ele>993.37</ele>
        <time>2021-03-27T14:51:47Z</time>
      </trkpt>
      <trkpt lat="42.873851" lon="-4.427168">
        <ele>992.81</ele>
        <time>2021-03-27T14:51:52Z</time>
      </trkpt>
      <trkpt lat="42.873805" lon="-4.426778">
        <ele>991.82</ele>
        <time>2021-03-27T14:51:56Z</time>
      </trkpt>
      <trkpt lat="42.873733" lon="-4.426541">
        <ele>992.54</ele>
        <time>2021-03-27T14:52:01Z</time>
      </trkpt>
      <trkpt lat="42.873627" lon="-4.426354">
        <ele>993.37</ele>
        <time>2021-03-27T14:52:06Z</time>
      </trkpt>
      <trkpt lat="42.873413" lon="-4.426108">
        <ele>995.02</ele>
        <time>2021-03-27T14:52:11Z</time>
      </trkpt>
      <trkpt lat="42.872535" lon="-4.425352">
        <ele>991.16</ele>
        <time>2021-03-27T14:52:15Z</time>
      </trkpt>
      <trkpt lat="42.872407" lon="-4.425155">
        <ele>990.08</ele>
        <time>2021-03-27T14:52:20Z</time>
      </trkpt>
      <trkpt lat="42.872299" lon="-4.42493">
        <ele>989.72</ele>
        <time>2021-03-27T14:52:25Z</time>
      </trkpt>
      <trkpt lat="42.872087" lon="-4.424334">
        <ele>989.84</ele>
        <time>2021-03-27T14:52:29Z</time>
      </trkpt>
      <trkpt lat="42.871733" lon="-4.423477">
        <ele>987.7</ele>
        <time>2021-03-27T14:52:34Z</time>
      </trkpt>
      <trkpt lat="42.871577" lon="-4.423221">
        <ele>991.91</ele>
        <time>2021-03-27T14:52:39Z</time>
      </trkpt>
      <trkpt lat="42.871456" lon="-4.423083">
        <ele>992.68</ele>
        <time>2021-03-27T14:52:44Z</time>
      </trkpt>
      <trkpt lat="42.871278" lon="-4.422938">
        <ele>991.69</ele>
        <time>2021-03-27T14:52:48Z</time>
      </trkpt>
      <trkpt lat="42.871033" lon="-4.422882">
        <ele>990.02</ele>
        <time>2021-03-27T14:52:53Z</time>
      </trkpt>
      <trkpt lat="42.870238" lon="-4.422804">
        <ele>986.85</ele>
        <time>2021-03-27T14:52:58Z</time>
      </trkpt>
      <trkpt lat="42.869968" lon="-4.422712">
        <ele>984.01</ele>
        <time>2021-03-27T14:53:03Z</time>
      </trkpt>
      <trkpt lat="42.869773" lon="-4.422521">
        <ele>983.29</ele>
        <time>2021-03-27T14:53:07Z</time>
      </trkpt>
      <trkpt lat="42.86956" lon="-4.422255">
        <ele>982.2</ele>
        <time>2021-03-27T14:53:12Z</time>
      </trkpt>
      <trkpt lat="42.869332" lon="-4.422079">
        <ele>982.66</ele>
        <time>2021-03-27T14:53:17Z</time>
      </trkpt>
      <trkpt lat="42.868445" lon="-4.421815">
        <ele>980.41</ele>
        <time>2021-03-27T14:53:21Z</time>
      </trkpt>
      <trkpt lat="42.868267" lon="-4.42173">
        <ele>981.43</ele>
        <time>2021-03-27T14:53:26Z</time>
      </trkpt>
      <trkpt lat="42.86706" lon="-4.420954">
        <ele>983.47</ele>
        <time>2021-03-27T14:53:31Z</time>
      </trkpt>
      <trkpt lat="42.866884" lon="-4.420878">
        <ele>985.37</ele>
        <time>2021-03-27T14:53:36Z</time>
      </trkpt>
      <trkpt lat="42.865554" lon="-4.42079">
        <ele>979.1</ele>
        <time>2021-03-27T14:53:40Z</time>
      </trkpt>
      <trkpt lat="42.864188" lon="-4.420388">
        <ele>982.92</ele>
        <time>2021-03-27T14:53:45Z</time>
      </trkpt>
      <trkpt lat="42.862142" lon="-4.419324">
        <ele>979.57</ele>
        <time>2021-03-27T14:53:50Z</time>
      </trkpt>
      <trkpt lat="42.861302" lon="-4.418681">
        <ele>970.62</ele>
        <time>2021-03-27T14:53:54Z</time>
      </trkpt>
      <trkpt lat="42.860777" lon="-4.418106">
        <ele>975.33</ele>
        <time>2021-03-27T14:53:59Z</time>
      </trkpt>
      <trkpt lat="42.860583" lon="-4.418014">
        <ele>977.8</ele>
        <time>2021-03-27T14:54:04Z</time>
      </trkpt>
      <trkpt lat="42.859794" lon="-4.418002">
        <ele>982.8</ele>
        <time>2021-03-27T14:54:09Z</time>
      </trkpt>
      <trkpt lat="42.85957" lon="-4.417901">
        <ele>979.73</ele>
        <time>2021-03-27T14:54:13Z</time>
      </trkpt>
      <trkpt lat="42.859255" lon="-4.417632">
        <ele>971.42</ele>
        <time>2021-03-27T14:54:18Z</time>
      </trkpt>
      <trkpt lat="42.859001" lon="-4.41728">
        <ele>969.59</ele>
        <time>2021-03-27T14:54:23Z</time>
      </trkpt>
      <trkpt lat="42.858258" lon="-4.415863">
        <ele>970.7</ele>
        <time>2021-03-27T14:54:28Z</time>
      </trkpt>
      <trkpt lat="42.858171" lon="-4.415755">
        <ele>970.3</ele>
        <time>2021-03-27T14:54:32Z</time>
      </trkpt>
      <trkpt lat="42.858068" lon="-4.415707">
        <ele>970.02</ele>
        <time>2021-03-27T14:54:37Z</time>
      </trkpt>
      <trkpt lat="42.857954" lon="-4.415702">
        <ele>970.0</ele>
        <time>2021-03-27T14:54:42Z</time>
      </trkpt>
      <trkpt lat="42.857853" lon="-4.415766">
        <ele>970.0</ele>
        <time>2021-03-27T14:54:46Z</time>
      </trkpt>
      <trkpt lat="42.857604" lon="-4.416085">
        <ele>967.5</ele>
        <time>2021-03-27T14:54:51Z</time>
      </trkpt>
      <trkpt lat="42.857443" lon="-4.416197">
        <ele>966.2</ele>
        <time>2021-03-27T14:54:56Z</time>
      </trkpt>
      <trkpt lat="42.8566" lon="-4.414287">
        <ele>961.24</ele>
        <time>2021-03-27T14:55:02Z</time>
      </trkpt>
      <trkpt lat="42.855598" lon="-4.411998">
        <ele>966.98</ele>
        <time>2021-03-27T14:55:07Z</time>
      </trkpt>
      <trkpt lat="42.851276" lon="-4.402354">
        <ele>956.0</ele>
        <time>2021-03-27T14:55:13Z</time>
      </trkpt>
      <trkpt lat="42.851196" lon="-4.402131">
        <ele>955.77</ele>
        <time>2021-03-27T14:55:19Z</time>
      </trkpt>
      <trkpt lat="42.851109" lon="-4.401819">
        <ele>954.99</ele>
        <time>2021-03-27T14:55:25Z</time>
      </trkpt>
      <trkpt lat="42.851044" lon="-4.401514">
        <ele>953.79</ele>
        <time>2021-03-27T14:55:30Z</time>
      </trkpt>
      <trkpt lat="42.850988" lon="-4.400998">
        <ele>951.81</ele>
        <time>2021-03-27T14:55:36Z</time>
      </trkpt>
      <trkpt lat="42.850979" lon="-4.400505">
        <ele>950.52</ele>
        <time>2021-03-27T14:55:42Z</time>
      </trkpt>
      <trkpt lat="42.850959" lon="-4.396949">
        <ele>950.81</ele>
        <time>2021-03-27T14:55:48Z</time>
      </trkpt>
      <trkpt lat="42.850965" lon="-4.392052">
        <ele>948.95</ele>
        <time>2021-03-27T14:55:53Z</time>
      </trkpt>
      <trkpt lat="42.850994" lon="-4.391411">
        <ele>947.47</ele>
        <time>2021-03-27T14:55:59Z</time>
      </trkpt>
      <trkpt lat="42.85112" lon="-4.389919">
        <ele>947.74</ele>
        <time>2021-03-27T14:56:05Z</time>
      </trkpt>
      <trkpt lat="42.851235" lon="-4.389075">
        <ele>947.7</ele>
        <time>2021-03-27T14:56:11Z</time>
      </trkpt>
      <trkpt lat="42.851378" lon="-4.388239">
        <ele>950.01</ele>
        <time>2021-03-27T14:56:16Z</time>
      </trkpt>
      <trkpt lat="42.851545" lon="-4.387426">
        <ele>950.14</ele>
        <time>2021-03-27T14:56:22Z</time>
      </trkpt>
      <trkpt lat="42.852074" lon="-4.385394">
        <ele>956.24</ele>
        <time>2021-03-27T14:56:28Z</time>
      </trkpt>
      <trkpt lat="42.853433" lon="-4.380388">
        <ele>947.57</ele>
        <time>2021-03-27T14:56:34Z</time>
      </trkpt>
      <trkpt lat="42.853673" lon="-4.379324">
        <ele>951.44</ele>
        <time>2021-03-27T14:56:39Z</time>
      </trkpt>
      <trkpt lat="42.853768" lon="-4.378788">
        <ele>950.36</ele>
        <time>2021-03-27T14:56:45Z</time>
      </trkpt>
      <trkpt lat="42.853839" lon="-4.378208">
        <ele>952.82</ele>
        <time>2021-03-27T14:56:51Z</time>
      </trkpt>
      <trkpt lat="42.853872" lon="-4.377597">
        <ele>954.27</ele>
        <time>2021-03-27T14:56:57Z</time>
      </trkpt>
      <trkpt lat="42.853856" lon="-4.376881">
        <ele>954.11</ele>
        <time>2021-03-27T14:57:02Z</time>
      </trkpt>
      <trkpt lat="42.853786" lon="-4.376198">
        <ele>955.0</ele>
        <time>2021-03-27T14:57:08Z</time>
      </trkpt>
      <trkpt lat="42.853632" lon="-4.375461">
        <ele>956.92</ele>
        <time>2021-03-27T14:57:14Z</time>
      </trkpt>
      <trkpt lat="42.85347" lon="-4.374907">
        <ele>955.64</ele>
        <time>2021-03-27T14:57:19Z</time>
      </trkpt>
      <trkpt lat="42.853336" lon="-4.374544">
        <ele>951.76</ele>
        <time>2021-03-27T14:57:25Z</time>
      </trkpt>
      <trkpt lat="42.852993" lon="-4.373815">
        <ele>946.89</ele>
        <time>2021-03-27T14:57:31Z</time>
      </trkpt>
      <trkpt lat="42.85276" lon="-4.373422">
        <ele>948.7</ele>
        <time>2021-03-27T14:57:37Z</time>
      </trkpt>
      <trkpt lat="42.852515" lon="-4.37308">
        <ele>948.09</ele>
        <time>2021-03-27T14:57:42Z</time>
      </trkpt>
      <trkpt lat="42.852045" lon="-4.37258">
        <ele>948.09</ele>
        <time>2021-03-27T14:57:48Z</time>
      </trkpt>
      <trkpt lat="42.8516" lon="-4.372186">
        <ele>950.34</ele>
        <time>2021-03-27T14:57:54Z</time>
      </trkpt>
      <trkpt lat="42.851196" lon="-4.371878">
        <ele>951.07</ele>
        <time>2021-03-27T14:58:00Z</time>
      </trkpt>
      <trkpt lat="42.850161" lon="-4.371242">
        <ele>949.22</ele>
        <time>2021-03-27T14:58:05Z</time>
      </trkpt>
      <trkpt lat="42.849374" lon="-4.370808">
        <ele>945.84</ele>
        <time>2021-03-27T14:58:11Z</time>
      </trkpt>
      <trkpt lat="42.848685" lon="-4.370401">
        <ele>945.27</ele>
        <time>2021-03-27T14:58:17Z</time>
      </trkpt>
      <trkpt lat="42.848311" lon="-4.370148">
        <ele>946.89</ele>
        <time>2021-03-27T14:58:23Z</time>
      </trkpt>
      <trkpt lat="42.848061" lon="-4.369906">
        <ele>948.68</ele>
        <time>2021-03-27T14:58:28Z</time>
      </trkpt>
      <trkpt lat="42.847876" lon="-4.369716">
        <ele>948.7</ele>
        <time>2021-03-27T14:58:34Z</time>
      </trkpt>
      <trkpt lat="42.847687" lon="-4.369488">
        <ele>947.11</ele>
        <time>2021-03-27T14:58:40Z</time>
      </trkpt>
      <trkpt lat="42.847521" lon="-4.369239">
        <ele>948.3</ele>
        <time>2021-03-27T14:58:46Z</time>
      </trkpt>
      <trkpt lat="42.847354" lon="-4.368915">
        <ele>951.72</ele>
        <time>2021-03-27T14:58:51Z</time>
      </trkpt>
      <trkpt lat="42.847224" lon="-4.368575">
        <ele>953.14</ele>
        <time>2021-03-27T14:58:57Z</time>
      </trkpt>
      <trkpt lat="42.847133" lon="-4.368258">
        <ele>954.4</ele>
        <time>2021-03-27T14:59:03Z</time>
      </trkpt>
      <trkpt lat="42.847047" lon="-4.367733">
        <ele>958.96</ele>
        <time>2021-03-27T14:59:09Z</time>
      </trkpt>
      <trkpt lat="42.847025" lon="-4.367429">
        <ele>960.21</ele>
        <time>2021-03-27T14:59:14Z</time>
      </trkpt>
      <trkpt lat="42.847049" lon="-4.366878">
        <ele>961.88</ele>
        <time>2021-03-27T14:59:20Z</time>
      </trkpt>
      <trkpt lat="42.84713" lon="-4.366381">
        <ele>962.65</ele>
        <time>2021-03-27T14:59:26Z</time>
      </trkpt>
      <trkpt lat="42.847197" lon="-4.366122">
        <ele>962.76</ele>
        <time>2021-03-27T14:59:32Z</time>
      </trkpt>
      <trkpt lat="42.847339" lon="-4.365694">
        <ele>961.26</ele>
        <time>2021-03-27T14:59:37Z</time>
      </trkpt>
      <trkpt lat="42.847495" lon="-4.365292">
        <ele>958.14</ele>
        <time>2021-03-27T14:59:43Z</time>
      </trkpt>
      <trkpt lat="42.848875" lon="-4.362147">
        <ele>957.95</ele>
        <time>2021-03-27T14:59:49Z</time>
      </trkpt>
      <trkpt lat="42.849251" lon="-4.361255">
        <ele>965.2</ele>
        <time>2021-03-27T14:59:55Z</time>
      </trkpt>
      <trkpt lat="42.849499" lon="-4.360541">
        <ele>965.16</ele>
        <time>2021-03-27T15:00:00Z</time>
      </trkpt>
      <trkpt lat="42.849658" lon="-4.359981">
        <ele>966.55</ele>
        <time>2021-03-27T15:00:06Z</time>
      </trkpt>
      <trkpt lat="42.849831" lon="-4.359151">
        <ele>966.73</ele>
        <time>2021-03-27T15:00:12Z</time>
      </trkpt>
      <trkpt lat="42.849936" lon="-4.358341">
        <ele>969.29</ele>
        <time>2021-03-27T15:00:18Z</time>
      </trkpt>
      <trkpt lat="42.849991" lon="-4.357122">
        <ele>973.68</ele>
        <time>2021-03-27T15:00:23Z</time>
      </trkpt>
      <trkpt lat="42.850233" lon="-4.349026">
        <ele>984.42</ele>
        <time>2021-03-27T15:00:29Z</time>
      </trkpt>
      <trkpt lat="42.850195" lon="-4.348384">
        <ele>986.52</ele>
        <time>2021-03-27T15:00:35Z</time>
      </trkpt>
      <trkpt lat="42.850138" lon="-4.347889">
        <ele>987.4</ele>
        <time>2021-03-27T15:00:41Z</time>
      </trkpt>
      <trkpt lat="42.850042" lon="-4.347278">
        <ele>983.69</ele>
        <time>2021-03-27T15:00:46Z</time>
      </trkpt>
      <trkpt lat="42.849331" lon="-4.343242">
        <ele>978.99</ele>
        <time>2021-03-27T15:00:52Z</time>
      </trkpt>
      <trkpt lat="42.849109" lon="-4.342151">
        <ele>982.36</ele>
        <time>2021-03-27T15:00:58Z</time>
      </trkpt>
      <trkpt lat="42.849009" lon="-4.341799">
        <ele>982.57</ele>
        <time>2021-03-27T15:01:04Z</time>
      </trkpt>
      <trkpt lat="42.848768" lon="-4.341106">
        <ele>983.01</ele>
        <time>2021-03-27T15:01:09Z</time>
      </trkpt>
      <trkpt lat="42.847171" lon="-4.336963">
        <ele>988.14</ele>
        <time>2021-03-27T15:01:15Z</time>
      </trkpt>
      <trkpt lat="42.846862" lon="-4.33603">
        <ele>981.3</ele>
        <time>2021-03-27T15:01:21Z</time>
      </trkpt>
      <trkpt lat="42.846789" lon="-4.335699">
        <ele>981.33</ele>
        <time>2021-03-27T15:01:26Z</time>
      </trkpt>
      <trkpt lat="42.846692" lon="-4.335198">
        <ele>982.0</ele>
        <time>2021-03-27T15:01:32Z</time>
      </trkpt>
      <trkpt lat="42.846571" lon="-4.334348">
        <ele>982.1</ele>
        <time>2021-03-27T15:01:38Z</time>
      </trkpt>
      <trkpt lat="42.845717" lon="-4.328043">
        <ele>976.72</ele>
        <time>2021-03-27T15:01:44Z</time>
      </trkpt>
      <trkpt lat="42.845634" lon="-4.327512">
        <ele>974.61</ele>
        <time>2021-03-27T15:01:49Z</time>
      </trkpt>
      <trkpt lat="42.845562" lon="-4.327215">
        <ele>974.0</ele>
        <time>2021-03-27T15:01:55Z</time>
      </trkpt>
      <trkpt lat="42.84536" lon="-4.326639">
        <ele>971.83</ele>
        <time>2021-03-27T15:02:01Z</time>
      </trkpt>
      <trkpt lat="42.845216" lon="-4.326345">
        <ele>969.68</ele>
        <time>2021-03-27T15:02:07Z</time>
      </trkpt>
      <trkpt lat="42.845038" lon="-4.326045">
        <ele>967.76</ele>
        <time>2021-03-27T15:02:12Z</time>
      </trkpt>
      <trkpt lat="42.844289" lon="-4.32499">
        <ele>964.12</ele>
        <time>2021-03-27T15:02:18Z</time>
      </trkpt>
      <trkpt lat="42.844031" lon="-4.324563">
        <ele>966.48</ele>
        <time>2021-03-27T15:02:24Z</time>
      </trkpt>
      <trkpt lat="42.843819" lon="-4.324015">
        <ele>966.68</ele>
        <time>2021-03-27T15:02:30Z</time>
      </trkpt>
      <trkpt lat="42.843672" lon="-4.323439">
        <ele>971.79</ele>
        <time>2021-03-27T15:02:35Z</time>
      </trkpt>
      <trkpt lat="42.843594" lon="-4.32286">
        <ele>973.22</ele>
        <time>2021-03-27T15:02:41Z</time>
      </trkpt>
      <trkpt lat="42.843583" lon="-4.322453">
        <ele>973.17</ele>
        <time>2021-03-27T15:02:47Z</time>
      </trkpt>
      <trkpt lat="42.843611" lon="-4.321999">
        <ele>974.8</ele>
        <time>2021-03-27T15:02:53Z</time>
      </trkpt>
      <trkpt lat="42.844529" lon="-4.314192">
        <ele>965.54</ele>
        <time>2021-03-27T15:02:58Z</time>
      </trkpt>
      <trkpt lat="42.844592" lon="-4.313713">
        <ele>966.26</ele>
        <time>2021-03-27T15:03:04Z</time>
      </trkpt>
      <trkpt lat="42.84464" lon="-4.313165">
        <ele>969.43</ele>
        <time>2021-03-27T15:03:10Z</time>
      </trkpt>
      <trkpt lat="42.844602" lon="-4.312468">
        <ele>967.77</ele>
        <time>2021-03-27T15:03:16Z</time>
      </trkpt>
      <trkpt lat="42.84452" lon="-4.311907">
        <ele>964.63</ele>
        <time>2021-03-27T15:03:21Z</time>
      </trkpt>
      <trkpt lat="42.844373" lon="-4.311423">
        <ele>963.73</ele>
        <time>2021-03-27T15:03:27Z</time>
      </trkpt>
      <trkpt lat="42.844213" lon="-4.311038">
        <ele>965.68</ele>
        <time>2021-03-27T15:03:33Z</time>
      </trkpt>
      <trkpt lat="42.843977" lon="-4.310616">
        <ele>963.2</ele>
        <time>2021-03-27T15:03:39Z</time>
      </trkpt>
      <trkpt lat="42.843865" lon="-4.310474">
        <ele>961.86</ele>
        <time>2021-03-27T15:03:44Z</time>
      </trkpt>
      <trkpt lat="42.84404" lon="-4.310313">
        <ele>961.67</ele>
        <time>2021-03-27T15:03:48Z</time>
      </trkpt>
      <trkpt lat="42.844141" lon="-4.310265">
        <ele>961.86</ele>
        <time>2021-03-27T15:03:52Z</time>
      </trkpt>
      <trkpt lat="42.844243" lon="-4.310277">
        <ele>961.72</ele>
        <time>2021-03-27T15:03:56Z</time>
      </trkpt>
      <trkpt lat="42.84457" lon="-4.310438">
        <ele>960.61</ele>
        <time>2021-03-27T15:04:00Z</time>
      </trkpt>
      <trkpt lat="42.845991" lon="-4.311364">
        <ele>956.95</ele>
        <time>2021-03-27T15:04:03Z</time>
      </trkpt>
      <trkpt lat="42.846179" lon="-4.311427">
        <ele>957.49</ele>
        <time>2021-03-27T15:04:07Z</time>
      </trkpt>
      <trkpt lat="42.846338" lon="-4.311391">
        <ele>957.83</ele>
        <time>2021-03-27T15:04:11Z</time>
      </trkpt>
      <trkpt lat="42.846833" lon="-4.311141">
        <ele>954.02</ele>
        <time>2021-03-27T15:04:15Z</time>
      </trkpt>
      <trkpt lat="42.846994" lon="-4.311135">
        <ele>952.99</ele>
        <time>2021-03-27T15:04:19Z</time>
      </trkpt>
      <trkpt lat="42.849142" lon="-4.311707">
        <ele>961.84</ele>
        <time>2021-03-27T15:04:23Z</time>
      </trkpt>
      <trkpt lat="42.849354" lon="-4.31173">
        <ele>962.36</ele>
        <time>2021-03-27T15:04:26Z</time>
      </trkpt>
      <trkpt lat="42.849987" lon="-4.311685">
        <ele>962.93</ele>
        <time>2021-03-27T15:04:30Z</time>
      </trkpt>
      <trkpt lat="42.850193" lon="-4.311651">
        <ele>962.31</ele>
        <time>2021-03-27T15:04:34Z</time>
      </trkpt>
      <trkpt lat="42.850413" lon="-4.311559">
        <ele>962.3</ele>
        <time>2021-03-27T15:04:38Z</time>
      </trkpt>
      <trkpt lat="42.85078" lon="-4.311329">
        <ele>963.23</ele>
        <time>2021-03-27T15:04:42Z</time>
      </trkpt>
      <trkpt lat="42.85119" lon="-4.311146">
        <ele>961.97</ele>
        <time>2021-03-27T15:04:46Z</time>
      </trkpt>
      <trkpt lat="42.851482" lon="-4.311046">
        <ele>960.51</ele>
        <time>2021-03-27T15:04:49Z</time>
      </trkpt>
      <trkpt lat="42.851731" lon="-4.311014">
        <ele>960.31</ele>
        <time>2021-03-27T15:04:53Z</time>
      </trkpt>
      <trkpt lat="42.852026" lon="-4.310909">
        <ele>962.31</ele>
        <time>2021-03-27T15:04:57Z</time>
      </trkpt>
      <trkpt lat="42.852266" lon="-4.310847">
        <ele>963.96</ele>
        <time>2021-03-27T15:05:01Z</time>
      </trkpt>
      <trkpt lat="42.853014" lon="-4.31084">
        <ele>965.7</ele>
        <time>2021-03-27T15:05:05Z</time>
      </trkpt>
      <trkpt lat="42.853552" lon="-4.310569">
        <ele>966.17</ele>
        <time>2021-03-27T15:05:09Z</time>
      </trkpt>
      <trkpt lat="42.853869" lon="-4.310449">
        <ele>964.17</ele>
        <time>2021-03-27T15:05:12Z</time>
      </trkpt>
      <trkpt lat="42.85471" lon="-4.309917">
        <ele>969.0</ele>
        <time>2021-03-27T15:05:16Z</time>
      </trkpt>
      <trkpt lat="42.854846" lon="-4.309793">
        <ele>969.66</ele>
        <time>2021-03-27T15:05:20Z</time>
      </trkpt>
      <trkpt lat="42.854939" lon="-4.309654">
        <ele>971.11</ele>
        <time>2021-03-27T15:05:24Z</time>
      </trkpt>
      <trkpt lat="42.855053" lon="-4.309426">
        <ele>973.3</ele>
        <time>2021-03-27T15:05:28Z</time>
      </trkpt>
      <trkpt lat="42.855339" lon="-4.309074">
        <ele>974.0</ele>
        <time>2021-03-27T15:05:32Z</time>
      </trkpt>
      <trkpt lat="42.855399" lon="-4.30885">
        <ele>974.0</ele>
        <time>2021-03-27T15:05:35Z</time>
      </trkpt>
      <trkpt lat="42.855434" lon="-4.308138">
        <ele>975.26</ele>
        <time>2021-03-27T15:05:39Z</time>
      </trkpt>
      <trkpt lat="42.855423" lon="-4.307944">
        <ele>976.13</ele>
        <time>2021-03-27T15:05:43Z</time>
      </trkpt>
      <trkpt lat="42.854925" lon="-4.306062">
        <ele>975.5</ele>
        <time>2021-03-27T15:05:47Z</time>
      </trkpt>
      <trkpt lat="42.854846" lon="-4.305614">
        <ele>973.8</ele>
        <time>2021-03-27T15:05:51Z</time>
      </trkpt>
      <trkpt lat="42.854795" lon="-4.304629">
        <ele>976.91</ele>
        <time>2021-03-27T15:05:54Z</time>
      </trkpt>
      <trkpt lat="42.854724" lon="-4.303758">
        <ele>978.04</ele>
        <time>2021-03-27T15:05:58Z</time>
      </trkpt>
      <trkpt lat="42.854691" lon="-4.302926">
        <ele>976.57</ele>
        <time>2021-03-27T15:06:02Z</time>
      </trkpt>
      <trkpt lat="42.854616" lon="-4.302153">
        <ele>981.1</ele>
        <time>2021-03-27T15:06:06Z</time>
      </trkpt>
      <trkpt lat="42.854409" lon="-4.301053">
        <ele>981.77</ele>
        <time>2021-03-27T15:06:10Z</time>
      </trkpt>
      <trkpt lat="42.85437" lon="-4.300787">
        <ele>981.9</ele>
        <time>2021-03-27T15:06:14Z</time>
      </trkpt>
      <trkpt lat="42.854359" lon="-4.300515">
        <ele>982.89</ele>
        <time>2021-03-27T15:06:17Z</time>
      </trkpt>
      <trkpt lat="42.854379" lon="-4.299858">
        <ele>982.42</ele>
        <time>2021-03-27T15:06:21Z</time>
      </trkpt>
      <trkpt lat="42.854361" lon="-4.299558">
        <ele>981.51</ele>
        <time>2021-03-27T15:06:25Z</time>
      </trkpt>
      <trkpt lat="42.854254" lon="-4.29907">
        <ele>981.24</ele>
        <time>2021-03-27T15:06:29Z</time>
      </trkpt>
      <trkpt lat="42.85401" lon="-4.297559">
        <ele>976.84</ele>
        <time>2021-03-27T15:06:33Z</time>
      </trkpt>
      <trkpt lat="42.853875" lon="-4.295932">
        <ele>974.11</ele>
        <time>2021-03-27T15:06:37Z</time>
      </trkpt>
      <trkpt lat="42.853894" lon="-4.29461">
        <ele>969.63</ele>
        <time>2021-03-27T15:06:40Z</time>
      </trkpt>
      <trkpt lat="42.853922" lon="-4.293803">
        <ele>969.73</ele>
        <time>2021-03-27T15:06:44Z</time>
      </trkpt>
      <trkpt lat="42.853938" lon="-4.293406">
        <ele>969.92</ele>
        <time>2021-03-27T15:06:48Z</time>
      </trkpt>
      <trkpt lat="42.853983" lon="-4.293033">
        <ele>970.64</ele>
        <time>2021-03-27T15:06:52Z</time>
      </trkpt>
      <trkpt lat="42.854077" lon="-4.292655">
        <ele>971.33</ele>
        <time>2021-03-27T15:06:56Z</time>
      </trkpt>
      <trkpt lat="42.854222" lon="-4.292168">
        <ele>967.45</ele>
        <time>2021-03-27T15:07:00Z</time>
      </trkpt>
      <trkpt lat="42.854417" lon="-4.29179">
        <ele>965.94</ele>
        <time>2021-03-27T15:07:03Z</time>
      </trkpt>
      <trkpt lat="42.854825" lon="-4.291258">
        <ele>964.08</ele>
        <time>2021-03-27T15:07:07Z</time>
      </trkpt>
      <trkpt lat="42.855865" lon="-4.289662">
        <ele>967.12</ele>
        <time>2021-03-27T15:07:11Z</time>
      </trkpt>
      <trkpt lat="42.856783" lon="-4.288202">
        <ele>964.62</ele>
        <time>2021-03-27T15:07:15Z</time>
      </trkpt>
      <trkpt lat="42.857355" lon="-4.286745">
        <ele>962.88</ele>
        <time>2021-03-27T15:07:19Z</time>
      </trkpt>
      <trkpt lat="42.857847" lon="-4.285934">
        <ele>963.06</ele>
        <time>2021-03-27T15:07:22Z</time>
      </trkpt>
      <trkpt lat="42.858128" lon="-4.285149">
        <ele>964.94</ele>
        <time>2021-03-27T15:07:26Z</time>
      </trkpt>
      <trkpt lat="42.85854" lon="-4.284369">
        <ele>966.39</ele>
        <time>2021-03-27T15:07:30Z</time>
      </trkpt>
      <trkpt lat="42.858662" lon="-4.283925">
        <ele>964.63</ele>
        <time>2021-03-27T15:07:34Z</time>
      </trkpt>
      <trkpt lat="42.859126" lon="-4.282021">
        <ele>959.32</ele>
        <time>2021-03-27T15:07:38Z</time>
      </trkpt>
      <trkpt lat="42.859348" lon="-4.281398">
        <ele>958.02</ele>
        <time>2021-03-27T15:07:42Z</time>
      </trkpt>
      <trkpt lat="42.859562" lon="-4.280474">
        <ele>953.98</ele>
        <time>2021-03-27T15:07:45Z</time>
      </trkpt>
      <trkpt lat="42.859636" lon="-4.280217">
        <ele>954.07</ele>
        <time>2021-03-27T15:07:49Z</time>
      </trkpt>
      <trkpt lat="42.859865" lon="-4.279621">
        <ele>955.33</ele>
        <time>2021-03-27T15:07:53Z</time>
      </trkpt>
      <trkpt lat="42.860136" lon="-4.279225">
        <ele>954.61</ele>
        <time>2021-03-27T15:07:57Z</time>
      </trkpt>
      <trkpt lat="42.86036" lon="-4.278981">
        <ele>953.72</ele>
        <time>2021-03-27T15:08:01Z</time>
      </trkpt>
      <trkpt lat="42.860608" lon="-4.278874">
        <ele>954.46</ele>
        <time>2021-03-27T15:08:05Z</time>
      </trkpt>
      <trkpt lat="42.861052" lon="-4.278828">
        <ele>955.6</ele>
        <time>2021-03-27T15:08:08Z</time>
      </trkpt>
      <trkpt lat="42.861502" lon="-4.278672">
        <ele>955.2</ele>
        <time>2021-03-27T15:08:12Z</time>
      </trkpt>
      <trkpt lat="42.861695" lon="-4.278539">
        <ele>956.98</ele>
        <time>2021-03-27T15:08:16Z</time>
      </trkpt>
      <trkpt lat="42.861965" lon="-4.278305">
        <ele>959.51</ele>
        <time>2021-03-27T15:08:20Z</time>
      </trkpt>
      <trkpt lat="42.862114" lon="-4.278247">
        <ele>957.96</ele>
        <time>2021-03-27T15:08:24Z</time>
      </trkpt>
      <trkpt lat="42.862173" lon="-4.278168">
        <ele>956.31</ele>
        <time>2021-03-27T15:08:28Z</time>
      </trkpt>
      <trkpt lat="42.862307" lon="-4.277885">
        <ele>952.46</ele>
        <time>2021-03-27T15:08:31Z</time>
      </trkpt>
      <trkpt lat="42.862458" lon="-4.277777">
        <ele>951.84</ele>
        <time>2021-03-27T15:08:35Z</time>
      </trkpt>
      <trkpt lat="42.862646" lon="-4.277738">
        <ele>953.29</ele>
        <time>2021-03-27T15:08:39Z</time>
      </trkpt>
      <trkpt lat="42.863008" lon="-4.277818">
        <ele>955.02</ele>
        <time>2021-03-27T15:08:43Z</time>
      </trkpt>
      <trkpt lat="42.863087" lon="-4.277818">
        <ele>955.02</ele>
        <time>2021-03-27T15:08:47Z</time>
      </trkpt>
      <trkpt lat="42.863302" lon="-4.277704">
        <ele>955.03</ele>
        <time>2021-03-27T15:08:51Z</time>
      </trkpt>
      <trkpt lat="42.863561" lon="-4.277282">
        <ele>955.99</ele>
        <time>2021-03-27T15:08:54Z</time>
      </trkpt>
      <trkpt lat="42.863867" lon="-4.277043">
        <ele>954.66</ele>
        <time>2021-03-27T15:08:58Z</time>
      </trkpt>
      <trkpt lat="42.864028" lon="-4.276749">
        <ele>953.75</ele>
        <time>2021-03-27T15:09:02Z</time>
      </trkpt>
      <trkpt lat="42.864217" lon="-4.276286">
        <ele>953.48</ele>
        <time>2021-03-27T15:09:06Z</time>
      </trkpt>
      <trkpt lat="42.864268" lon="-4.276218">
        <ele>953.76</ele>
        <time>2021-03-27T15:09:10Z</time>
      </trkpt>
      <trkpt lat="42.864566" lon="-4.276008">
        <ele>954.65</ele>
        <time>2021-03-27T15:09:13Z</time>
      </trkpt>
      <trkpt lat="42.864631" lon="-4.275852">
        <ele>954.98</ele>
        <time>2021-03-27T15:09:17Z</time>
      </trkpt>
      <trkpt lat="42.864684" lon="-4.275605">
        <ele>955.0</ele>
        <time>2021-03-27T15:09:21Z</time>
      </trkpt>
      <trkpt lat="42.86474" lon="-4.275181">
        <ele>954.65</ele>
        <time>2021-03-27T15:09:25Z</time>
      </trkpt>
      <trkpt lat="42.864838" lon="-4.274894">
        <ele>953.68</ele>
        <time>2021-03-27T15:09:29Z</time>
      </trkpt>
      <trkpt lat="42.860807" lon="-4.270013">
        <ele>947.95</ele>
        <time>2021-03-27T15:09:34Z</time>
      </trkpt>
      <trkpt lat="42.860342" lon="-4.269312">
        <ele>945.71</ele>
        <time>2021-03-27T15:09:40Z</time>
      </trkpt>
      <trkpt lat="42.860122" lon="-4.268934">
        <ele>945.44</ele>
        <time>2021-03-27T15:09:46Z</time>
      </trkpt>
      <trkpt lat="42.859911" lon="-4.268508">
        <ele>944.17</ele>
        <time>2021-03-27T15:09:52Z</time>
      </trkpt>
      <trkpt lat="42.859725" lon="-4.268044">
        <ele>945.07</ele>
        <time>2021-03-27T15:09:57Z</time>
      </trkpt>
      <trkpt lat="42.85926" lon="-4.266777">
        <ele>948.87</ele>
        <time>2021-03-27T15:10:03Z</time>
      </trkpt>
      <trkpt lat="42.859118" lon="-4.266453">
        <ele>948.65</ele>
        <time>2021-03-27T15:10:09Z</time>
      </trkpt>
      <trkpt lat="42.858979" lon="-4.266149">
        <ele>948.23</ele>
        <time>2021-03-27T15:10:14Z</time>
      </trkpt>
      <trkpt lat="42.858674" lon="-4.265592">
        <ele>948.77</ele>
        <time>2021-03-27T15:10:20Z</time>
      </trkpt>
      <trkpt lat="42.858508" lon="-4.265321">
        <ele>950.22</ele>
        <time>2021-03-27T15:10:26Z</time>
      </trkpt>
      <trkpt lat="42.858274" lon="-4.264981">
        <ele>951.38</ele>
        <time>2021-03-27T15:10:32Z</time>
      </trkpt>
      <trkpt lat="42.857969" lon="-4.264593">
        <ele>949.86</ele>
        <time>2021-03-27T15:10:37Z</time>
      </trkpt>
      <trkpt lat="42.856269" lon="-4.26283">
        <ele>939.57</ele>
        <time>2021-03-27T15:10:43Z</time>
      </trkpt>
      <trkpt lat="42.855982" lon="-4.262479">
        <ele>940.12</ele>
        <time>2021-03-27T15:10:49Z</time>
      </trkpt>
      <trkpt lat="42.855375" lon="-4.261541">
        <ele>940.6</ele>
        <time>2021-03-27T15:10:54Z</time>
      </trkpt>
      <trkpt lat="42.854899" lon="-4.260659">
        <ele>939.68</ele>
        <time>2021-03-27T15:11:00Z</time>
      </trkpt>
      <trkpt lat="42.854719" lon="-4.260229">
        <ele>938.0</ele>
        <time>2021-03-27T15:11:06Z</time>
      </trkpt>
      <trkpt lat="42.854671" lon="-4.260042">
        <ele>938.0</ele>
        <time>2021-03-27T15:11:12Z</time>
      </trkpt>
      <trkpt lat="42.85404" lon="-4.257561">
        <ele>940.35</ele>
        <time>2021-03-27T15:11:17Z</time>
      </trkpt>
      <trkpt lat="42.853933" lon="-4.257328">
        <ele>940.42</ele>
        <time>2021-03-27T15:11:23Z</time>
      </trkpt>
      <trkpt lat="42.852691" lon="-4.255622">
        <ele>933.52</ele>
        <time>2021-03-27T15:11:29Z</time>
      </trkpt>
      <trkpt lat="42.852131" lon="-4.254846">
        <ele>933.82</ele>
        <time>2021-03-27T15:11:34Z</time>
      </trkpt>
      <trkpt lat="42.848764" lon="-4.250238">
        <ele>927.45</ele>
        <time>2021-03-27T15:11:40Z</time>
      </trkpt>
      <trkpt lat="42.847332" lon="-4.24824">
        <ele>924.68</ele>
        <time>2021-03-27T15:11:46Z</time>
      </trkpt>
      <trkpt lat="42.846986" lon="-4.247732">
        <ele>925.86</ele>
        <time>2021-03-27T15:11:52Z</time>
      </trkpt>
      <trkpt lat="42.842762" lon="-4.240665">
        <ele>921.06</ele>
        <time>2021-03-27T15:11:57Z</time>
      </trkpt>
      <trkpt lat="42.841864" lon="-4.239189">
        <ele>921.39</ele>
        <time>2021-03-27T15:12:03Z</time>
      </trkpt>
      <trkpt lat="42.841633" lon="-4.238881">
        <ele>921.12</ele>
        <time>2021-03-27T15:12:09Z</time>
      </trkpt>
      <trkpt lat="42.841343" lon="-4.238576">
        <ele>921.84</ele>
        <time>2021-03-27T15:12:14Z</time>
      </trkpt>
      <trkpt lat="42.839425" lon="-4.236771">
        <ele>922.55</ele>
        <time>2021-03-27T15:12:20Z</time>
      </trkpt>
      <trkpt lat="42.838392" lon="-4.23565">
        <ele>923.0</ele>
        <time>2021-03-27T15:12:26Z</time>
      </trkpt>
      <trkpt lat="42.838069" lon="-4.235404">
        <ele>920.72</ele>
        <time>2021-03-27T15:12:31Z</time>
      </trkpt>
      <trkpt lat="42.837711" lon="-4.235234">
        <ele>924.73</ele>
        <time>2021-03-27T15:12:37Z</time>
      </trkpt>
      <trkpt lat="42.837462" lon="-4.235182">
        <ele>928.26</ele>
        <time>2021-03-27T15:12:43Z</time>
      </trkpt>
      <trkpt lat="42.83718" lon="-4.235179">
        <ele>930.03</ele>
        <time>2021-03-27T15:12:49Z</time>
      </trkpt>
      <trkpt lat="42.836888" lon="-4.235243">
        <ele>929.04</ele>
        <time>2021-03-27T15:12:54Z</time>
      </trkpt>
      <trkpt lat="42.836682" lon="-4.235315">
        <ele>927.71</ele>
        <time>2021-03-27T15:13:00Z</time>
      </trkpt>
      <trkpt lat="42.835938" lon="-4.235711">
        <ele>926.88</ele>
        <time>2021-03-27T15:13:06Z</time>
      </trkpt>
      <trkpt lat="42.835618" lon="-4.235815">
        <ele>930.54</ele>
        <time>2021-03-27T15:13:11Z</time>
      </trkpt>
      <trkpt lat="42.835211" lon="-4.235859">
        <ele>929.9</ele>
        <time>2021-03-27T15:13:17Z</time>
      </trkpt>
      <trkpt lat="42.833981" lon="-4.23594">
        <ele>932.62</ele>
        <time>2021-03-27T15:13:23Z</time>
      </trkpt>
      <trkpt lat="42.833704" lon="-4.236027">
        <ele>931.89</ele>
        <time>2021-03-27T15:13:29Z</time>
      </trkpt>
      <trkpt lat="42.833433" lon="-4.236209">
        <ele>934.04</ele>
        <time>2021-03-27T15:13:34Z</time>
      </trkpt>
      <trkpt lat="42.833336" lon="-4.23631">
        <ele>934.89</ele>
        <time>2021-03-27T15:13:40Z</time>
      </trkpt>
      <trkpt lat="42.833235" lon="-4.236422">
        <ele>936.0</ele>
        <time>2021-03-27T15:13:46Z</time>
      </trkpt>
      <trkpt lat="42.833021" lon="-4.236767">
        <ele>935.94</ele>
        <time>2021-03-27T15:13:51Z</time>
      </trkpt>
      <trkpt lat="42.832948" lon="-4.236957">
        <ele>935.42</ele>
        <time>2021-03-27T15:13:57Z</time>
      </trkpt>
      <trkpt lat="42.832906" lon="-4.237126">
        <ele>934.14</ele>
        <time>2021-03-27T15:14:03Z</time>
      </trkpt>
      <trkpt lat="42.832718" lon="-4.238054">
        <ele>934.85</ele>
        <time>2021-03-27T15:14:09Z</time>
      </trkpt>
      <trkpt lat="42.832636" lon="-4.238387">
        <ele>937.92</ele>
        <time>2021-03-27T15:14:14Z</time>
      </trkpt>
      <trkpt lat="42.83249" lon="-4.238788">
        <ele>940.09</ele>
        <time>2021-03-27T15:14:20Z</time>
      </trkpt>
      <trkpt lat="42.832319" lon="-4.239131">
        <ele>940.21</ele>
        <time>2021-03-27T15:14:26Z</time>
      </trkpt>
      <trkpt lat="42.832092" lon="-4.239459">
        <ele>935.45</ele>
        <time>2021-03-27T15:14:31Z</time>
      </trkpt>
      <trkpt lat="42.831865" lon="-4.239707">
        <ele>933.41</ele>
        <time>2021-03-27T15:14:37Z</time>
      </trkpt>
      <trkpt lat="42.831747" lon="-4.239812">
        <ele>933.71</ele>
        <time>2021-03-27T15:14:43Z</time>
      </trkpt>
      <trkpt lat="42.831449" lon="-4.240023">
        <ele>934.95</ele>
        <time>2021-03-27T15:14:48Z</time>
      </trkpt>
      <trkpt lat="42.831014" lon="-4.240217">
        <ele>938.05</ele>
        <time>2021-03-27T15:14:54Z</time>
      </trkpt>
      <trkpt lat="42.82637" lon="-4.241674">
        <ele>944.13</ele>
        <time>2021-03-27T15:15:00Z</time>
      </trkpt>
      <trkpt lat="42.82566" lon="-4.241934">
        <ele>944.05</ele>
        <time>2021-03-27T15:15:06Z</time>
      </trkpt>
      <trkpt lat="42.825485" lon="-4.24202">
        <ele>943.51</ele>
        <time>2021-03-27T15:15:11Z</time>
      </trkpt>
      <trkpt lat="42.825143" lon="-4.242246">
        <ele>943.69</ele>
        <time>2021-03-27T15:15:17Z</time>
      </trkpt>
      <trkpt lat="42.822057" lon="-4.244614">
        <ele>926.94</ele>
        <time>2021-03-27T15:15:23Z</time>
      </trkpt>
      <trkpt lat="42.822057" lon="-4.244614">
        <ele>926.94</ele>
        <time>2021-03-27T15:15:23Z</time>
      </trkpt>
      <trkpt lat="42.813839" lon="-4.250886">
        <ele>928.33</ele>
        <time>2021-03-27T15:15:47Z</time>
      </trkpt>
      <trkpt lat="42.813535" lon="-4.251154">
        <ele>928.96</ele>
        <time>2021-03-27T15:16:12Z</time>
      </trkpt>
      <trkpt lat="42.811957" lon="-4.252659">
        <ele>921.79</ele>
        <time>2021-03-27T15:16:36Z</time>
      </trkpt>
      <trkpt lat="42.811641" lon="-4.252887">
        <ele>918.57</ele>
        <time>2021-03-27T15:17:01Z</time>
      </trkpt>
      <trkpt lat="42.811253" lon="-4.253097">
        <ele>918.28</ele>
        <time>2021-03-27T15:17:26Z</time>
      </trkpt>
      <trkpt lat="42.800124" lon="-4.258332">
        <ele>909.99</ele>
        <time>2021-03-27T15:17:50Z</time>
      </trkpt>
      <trkpt lat="42.795761" lon="-4.260395">
        <ele>906.27</ele>
        <time>2021-03-27T15:18:15Z</time>
      </trkpt>
      <trkpt lat="42.795682" lon="-4.260487">
        <ele>906.62</ele>
        <time>2021-03-27T15:18:39Z</time>
      </trkpt>
      <trkpt lat="42.795593" lon="-4.260578">
        <ele>907.15</ele>
        <time>2021-03-27T15:18:41Z</time>
      </trkpt>
      <trkpt lat="42.795508" lon="-4.260615">
        <ele>907.43</ele>
        <time>2021-03-27T15:18:43Z</time>
      </trkpt>
      <trkpt lat="42.794997" lon="-4.259546">
        <ele>903.64</ele>
        <time>2021-03-27T15:18:58Z</time>
      </trkpt>
      <trkpt lat="42.79391" lon="-4.257339">
        <ele>901.03</ele>
        <time>2021-03-27T15:19:13Z</time>
      </trkpt>
      <trkpt lat="42.793626" lon="-4.256907">
        <ele>900.8</ele>
        <time>2021-03-27T15:19:29Z</time>
      </trkpt>
      <trkpt lat="42.79358" lon="-4.256887">
        <ele>900.25</ele>
        <time>2021-03-27T15:19:35Z</time>
      </trkpt>
      <trkpt lat="42.793542" lon="-4.256824">
        <ele>899.39</ele>
        <time>2021-03-27T15:19:41Z</time>
      </trkpt>
      <trkpt lat="42.79353" lon="-4.256313">
        <ele>899.54</ele>
        <time>2021-03-27T15:19:48Z</time>
      </trkpt>
      <trkpt lat="42.793485" lon="-4.25595">
        <ele>900.95</ele>
        <time>2021-03-27T15:19:54Z</time>
      </trkpt>
      <trkpt lat="42.793423" lon="-4.255672">
        <ele>901.35</ele>
        <time>2021-03-27T15:20:00Z</time>
      </trkpt>
      <trkpt lat="42.793209" lon="-4.255003">
        <ele>902.35</ele>
        <time>2021-03-27T15:20:06Z</time>
      </trkpt>
      <trkpt lat="42.792983" lon="-4.254346">
        <ele>899.68</ele>
        <time>2021-03-27T15:20:13Z</time>
      </trkpt>
      <trkpt lat="42.792618" lon="-4.25317">
        <ele>899.19</ele>
        <time>2021-03-27T15:20:19Z</time>
      </trkpt>
      <trkpt lat="42.792296" lon="-4.252243">
        <ele>907.17</ele>
        <time>2021-03-27T15:20:25Z</time>
      </trkpt>
      <trkpt lat="42.791408" lon="-4.249482">
        <ele>905.14</ele>
        <time>2021-03-27T15:20:31Z</time>
      </trkpt>
      <trkpt lat="42.791328" lon="-4.249363">
        <ele>905.22</ele>
        <time>2021-03-27T15:20:38Z</time>
      </trkpt>
      <trkpt lat="42.79126" lon="-4.249313">
        <ele>905.46</ele>
        <time>2021-03-27T15:20:44Z</time>
      </trkpt>
      <trkpt lat="42.791186" lon="-4.249293">
        <ele>905.73</ele>
        <time>2021-03-27T15:20:47Z</time>
      </trkpt>
      <trkpt lat="42.791098" lon="-4.249196">
        <ele>906.0</ele>
        <time>2021-03-27T15:20:50Z</time>
      </trkpt>
      <trkpt lat="42.791064" lon="-4.24906">
        <ele>906.06</ele>
        <time>2021-03-27T15:20:52Z</time>
      </trkpt>
      <trkpt lat="42.791109" lon="-4.248778">
        <ele>906.01</ele>
        <time>2021-03-27T15:20:55Z</time>
      </trkpt>
      <trkpt lat="42.791093" lon="-4.248652">
        <ele>906.06</ele>
        <time>2021-03-27T15:20:58Z</time>
      </trkpt>
      <trkpt lat="42.790879" lon="-4.248239">
        <ele>906.56</ele>
        <time>2021-03-27T15:21:01Z</time>
      </trkpt>
      <trkpt lat="42.789714" lon="-4.246148">
        <ele>901.05</ele>
        <time>2021-03-27T15:21:04Z</time>
      </trkpt>
      <trkpt lat="42.789663" lon="-4.24601">
        <ele>902.08</ele>
        <time>2021-03-27T15:21:07Z</time>
      </trkpt>
      <trkpt lat="42.789634" lon="-4.24584">
        <ele>903.27</ele>
        <time>2021-03-27T15:21:10Z</time>
      </trkpt>
      <trkpt lat="42.789653" lon="-4.245425">
        <ele>905.09</ele>
        <time>2021-03-27T15:21:12Z</time>
      </trkpt>
      <trkpt lat="42.789642" lon="-4.245243">
        <ele>905.71</ele>
        <time>2021-03-27T15:21:15Z</time>
      </trkpt>
      <trkpt lat="42.789608" lon="-4.245119">
        <ele>905.59</ele>
        <time>2021-03-27T15:21:18Z</time>
      </trkpt>
      <trkpt lat="42.789555" lon="-4.245018">
        <ele>905.4</ele>
        <time>2021-03-27T15:21:21Z</time>
      </trkpt>
      <trkpt lat="42.78949" lon="-4.244918">
        <ele>904.57</ele>
        <time>2021-03-27T15:21:24Z</time>
      </trkpt>
      <trkpt lat="42.789423" lon="-4.244855">
        <ele>903.77</ele>
        <time>2021-03-27T15:21:27Z</time>
      </trkpt>
      <trkpt lat="42.789277" lon="-4.244853">
        <ele>902.45</ele>
        <time>2021-03-27T15:21:29Z</time>
      </trkpt>
      <trkpt lat="42.789159" lon="-4.244924">
        <ele>901.67</ele>
        <time>2021-03-27T15:21:32Z</time>
      </trkpt>
      <trkpt lat="42.789102" lon="-4.245017">
        <ele>901.53</ele>
        <time>2021-03-27T15:21:37Z</time>
      </trkpt>
      <trkpt lat="42.789052" lon="-4.24506">
        <ele>901.17</ele>
        <time>2021-03-27T15:21:42Z</time>
      </trkpt>
      <trkpt lat="42.788937" lon="-4.245089">
        <ele>900.35</ele>
        <time>2021-03-27T15:21:47Z</time>
      </trkpt>
      <trkpt lat="42.788826" lon="-4.24504">
        <ele>900.26</ele>
        <time>2021-03-27T15:21:52Z</time>
      </trkpt>
      <trkpt lat="42.788753" lon="-4.244941">
        <ele>900.38</ele>
        <time>2021-03-27T15:21:57Z</time>
      </trkpt>
      <trkpt lat="42.788642" lon="-4.244834">
        <ele>900.82</ele>
        <time>2021-03-27T15:22:02Z</time>
      </trkpt>
      <trkpt lat="42.788482" lon="-4.244738">
        <ele>901.49</ele>
        <time>2021-03-27T15:22:06Z</time>
      </trkpt>
      <trkpt lat="42.783737" lon="-4.244456">
        <ele>890.48</ele>
        <time>2021-03-27T15:22:11Z</time>
      </trkpt>
      <trkpt lat="42.782826" lon="-4.244397">
        <ele>888.18</ele>
        <time>2021-03-27T15:22:16Z</time>
      </trkpt>
      <trkpt lat="42.782629" lon="-4.244364">
        <ele>888.16</ele>
        <time>2021-03-27T15:22:21Z</time>
      </trkpt>
      <trkpt lat="42.782325" lon="-4.244235">
        <ele>888.75</ele>
        <time>2021-03-27T15:22:26Z</time>
      </trkpt>
      <trkpt lat="42.782086" lon="-4.244026">
        <ele>889.75</ele>
        <time>2021-03-27T15:22:31Z</time>
      </trkpt>
      <trkpt lat="42.781989" lon="-4.243911">
        <ele>889.99</ele>
        <time>2021-03-27T15:22:36Z</time>
      </trkpt>
      <trkpt lat="42.781888" lon="-4.24375">
        <ele>890.5</ele>
        <time>2021-03-27T15:22:41Z</time>
      </trkpt>
      <trkpt lat="42.781791" lon="-4.24355">
        <ele>890.33</ele>
        <time>2021-03-27T15:22:45Z</time>
      </trkpt>
      <trkpt lat="42.781701" lon="-4.24331">
        <ele>889.39</ele>
        <time>2021-03-27T15:22:50Z</time>
      </trkpt>
      <trkpt lat="42.781609" lon="-4.243066">
        <ele>890.93</ele>
        <time>2021-03-27T15:22:55Z</time>
      </trkpt>
      <trkpt lat="42.781492" lon="-4.242909">
        <ele>891.86</ele>
        <time>2021-03-27T15:23:00Z</time>
      </trkpt>
      <trkpt lat="42.781362" lon="-4.242795">
        <ele>892.58</ele>
        <time>2021-03-27T15:23:05Z</time>
      </trkpt>
      <trkpt lat="42.781273" lon="-4.242774">
        <ele>891.77</ele>
        <time>2021-03-27T15:23:07Z</time>
      </trkpt>
      <trkpt lat="42.781194" lon="-4.242717">
        <ele>891.12</ele>
        <time>2021-03-27T15:23:09Z</time>
      </trkpt>
      <trkpt lat="42.781132" lon="-4.242628">
        <ele>890.77</ele>
        <time>2021-03-27T15:23:11Z</time>
      </trkpt>
      <trkpt lat="42.780841" lon="-4.242435">
        <ele>889.05</ele>
        <time>2021-03-27T15:23:13Z</time>
      </trkpt>
      <trkpt lat="42.780714" lon="-4.242342">
        <ele>888.57</ele>
        <time>2021-03-27T15:23:15Z</time>
      </trkpt>
      <trkpt lat="42.780602" lon="-4.242198">
        <ele>888.23</ele>
        <time>2021-03-27T15:23:17Z</time>
      </trkpt>
      <trkpt lat="42.780499" lon="-4.241995">
        <ele>888.65</ele>
        <time>2021-03-27T15:23:20Z</time>
      </trkpt>
      <trkpt lat="42.78038" lon="-4.241707">
        <ele>888.05</ele>
        <time>2021-03-27T15:23:22Z</time>
      </trkpt>
      <trkpt lat="42.780122" lon="-4.240984">
        <ele>886.9</ele>
        <time>2021-03-27T15:23:24Z</time>
      </trkpt>
      <trkpt lat="42.780001" lon="-4.240606">
        <ele>887.82</ele>
        <time>2021-03-27T15:23:26Z</time>
      </trkpt>
      <trkpt lat="42.779953" lon="-4.240377">
        <ele>889.06</ele>
        <time>2021-03-27T15:23:28Z</time>
      </trkpt>
      <trkpt lat="42.779951" lon="-4.240093">
        <ele>890.61</ele>
        <time>2021-03-27T15:23:30Z</time>
      </trkpt>
      <trkpt lat="42.779993" lon="-4.239909">
        <ele>891.31</ele>
        <time>2021-03-27T15:23:32Z</time>
      </trkpt>
      <trkpt lat="42.780038" lon="-4.239593">
        <ele>891.59</ele>
        <time>2021-03-27T15:23:34Z</time>
      </trkpt>
      <trkpt lat="42.780026" lon="-4.239481">
        <ele>891.28</ele>
        <time>2021-03-27T15:23:37Z</time>
      </trkpt>
      <trkpt lat="42.780039" lon="-4.239369">
        <ele>891.36</ele>
        <time>2021-03-27T15:23:39Z</time>
      </trkpt>
      <trkpt lat="42.780075" lon="-4.239267">
        <ele>891.89</ele>
        <time>2021-03-27T15:23:41Z</time>
      </trkpt>
      <trkpt lat="42.780123" lon="-4.238786">
        <ele>891.89</ele>
        <time>2021-03-27T15:23:44Z</time>
      </trkpt>
      <trkpt lat="42.780162" lon="-4.238567">
        <ele>891.82</ele>
        <time>2021-03-27T15:23:46Z</time>
      </trkpt>
      <trkpt lat="42.780242" lon="-4.238408">
        <ele>892.71</ele>
        <time>2021-03-27T15:23:49Z</time>
      </trkpt>
      <trkpt lat="42.780356" lon="-4.238288">
        <ele>892.04</ele>
        <time>2021-03-27T15:23:51Z</time>
      </trkpt>
      <trkpt lat="42.780474" lon="-4.238231">
        <ele>890.53</ele>
        <time>2021-03-27T15:23:53Z</time>
      </trkpt>
      <trkpt lat="42.780686" lon="-4.238223">
        <ele>888.45</ele>
        <time>2021-03-27T15:23:56Z</time>
      </trkpt>
      <trkpt lat="42.781792" lon="-4.238394">
        <ele>891.58</ele>
        <time>2021-03-27T15:23:58Z</time>
      </trkpt>
      <trkpt lat="42.781981" lon="-4.238409">
        <ele>893.18</ele>
        <time>2021-03-27T15:24:00Z</time>
      </trkpt>
      <trkpt lat="42.782173" lon="-4.238374">
        <ele>892.44</ele>
        <time>2021-03-27T15:24:03Z</time>
      </trkpt>
      <trkpt lat="42.782329" lon="-4.238292">
        <ele>891.41</ele>
        <time>2021-03-27T15:24:05Z</time>
      </trkpt>
      <trkpt lat="42.782482" lon="-4.23815">
        <ele>889.79</ele>
        <time>2021-03-27T15:24:08Z</time>
      </trkpt>
      <trkpt lat="42.782545" lon="-4.238067">
        <ele>888.92</ele>
        <time>2021-03-27T15:24:10Z</time>
      </trkpt>
      <trkpt lat="42.782648" lon="-4.237871">
        <ele>887.45</ele>
        <time>2021-03-27T15:24:12Z</time>
      </trkpt>
      <trkpt lat="42.782712" lon="-4.237653">
        <ele>886.47</ele>
        <time>2021-03-27T15:24:15Z</time>
      </trkpt>
      <trkpt lat="42.782859" lon="-4.236858">
        <ele>893.63</ele>
        <time>2021-03-27T15:24:17Z</time>
      </trkpt>
      <trkpt lat="42.782974" lon="-4.236505">
        <ele>892.25</ele>
        <time>2021-03-27T15:24:20Z</time>
      </trkpt>
      <trkpt lat="42.78306" lon="-4.236134">
        <ele>892.11</ele>
        <time>2021-03-27T15:24:22Z</time>
      </trkpt>
      <trkpt lat="42.783043" lon="-4.236054">
        <ele>892.07</ele>
        <time>2021-03-27T15:24:28Z</time>
      </trkpt>
      <trkpt lat="42.783046" lon="-4.23597">
        <ele>892.39</ele>
        <time>2021-03-27T15:24:33Z</time>
      </trkpt>
      <trkpt lat="42.783068" lon="-4.235892">
        <ele>893.1</ele>
        <time>2021-03-27T15:24:39Z</time>
      </trkpt>
      <trkpt lat="42.783107" lon="-4.235827">
        <ele>894.31</ele>
        <time>2021-03-27T15:24:44Z</time>
      </trkpt>
      <trkpt lat="42.783158" lon="-4.235781">
        <ele>895.7</ele>
        <time>2021-03-27T15:24:50Z</time>
      </trkpt>
      <trkpt lat="42.783235" lon="-4.235572">
        <ele>897.85</ele>
        <time>2021-03-27T15:24:55Z</time>
      </trkpt>
      <trkpt lat="42.783252" lon="-4.235447">
        <ele>897.64</ele>
        <time>2021-03-27T15:25:01Z</time>
      </trkpt>
      <trkpt lat="42.783116" lon="-4.234766">
        <ele>895.63</ele>
        <time>2021-03-27T15:25:06Z</time>
      </trkpt>
      <trkpt lat="42.783059" lon="-4.234186">
        <ele>894.05</ele>
        <time>2021-03-27T15:25:12Z</time>
      </trkpt>
      <trkpt lat="42.783047" lon="-4.233719">
        <ele>892.35</ele>
        <time>2021-03-27T15:25:18Z</time>
      </trkpt>
      <trkpt lat="42.783097" lon="-4.232698">
        <ele>892.55</ele>
        <time>2021-03-27T15:25:23Z</time>
      </trkpt>
      <trkpt lat="42.783467" lon="-4.22758">
        <ele>890.42</ele>
        <time>2021-03-27T15:25:29Z</time>
      </trkpt>
      <trkpt lat="42.783542" lon="-4.22614">
        <ele>895.69</ele>
        <time>2021-03-27T15:25:34Z</time>
      </trkpt>
      <trkpt lat="42.783523" lon="-4.225499">
        <ele>895.06</ele>
        <time>2021-03-27T15:25:40Z</time>
      </trkpt>
      <trkpt lat="42.783442" lon="-4.224803">
        <ele>894.24</ele>
        <time>2021-03-27T15:25:45Z</time>
      </trkpt>
      <trkpt lat="42.783308" lon="-4.224141">
        <ele>894.07</ele>
        <time>2021-03-27T15:25:51Z</time>
      </trkpt>
      <trkpt lat="42.783142" lon="-4.223524">
        <ele>894.41</ele>
        <time>2021-03-27T15:25:56Z</time>
      </trkpt>
      <trkpt lat="42.782782" lon="-4.222363">
        <ele>892.04</ele>
        <time>2021-03-27T15:26:02Z</time>
      </trkpt>
      <trkpt lat="42.782579" lon="-4.221755">
        <ele>890.49</ele>
        <time>2021-03-27T15:26:08Z</time>
      </trkpt>
      <trkpt lat="42.782442" lon="-4.221404">
        <ele>893.65</ele>
        <time>2021-03-27T15:26:13Z</time>
      </trkpt>
      <trkpt lat="42.782379" lon="-4.221434">
        <ele>893.21</ele>
        <time>2021-03-27T15:26:13Z</time>
      </trkpt>
      <trkpt lat="42.782333" lon="-4.221433">
        <ele>893.12</ele>
        <time>2021-03-27T15:26:14Z</time>
      </trkpt>
      <trkpt lat="42.782247" lon="-4.221367">
        <ele>893.1</ele>
        <time>2021-03-27T15:26:14Z</time>
      </trkpt>
      <trkpt lat="42.782215" lon="-4.221292">
        <ele>893.05</ele>
        <time>2021-03-27T15:26:15Z</time>
      </trkpt>
      <trkpt lat="42.78221" lon="-4.221194">
        <ele>893.09</ele>
        <time>2021-03-27T15:26:15Z</time>
      </trkpt>
      <trkpt lat="42.782225" lon="-4.22113">
        <ele>893.02</ele>
        <time>2021-03-27T15:26:15Z</time>
      </trkpt>
      <trkpt lat="42.782282" lon="-4.221048">
        <ele>893.38</ele>
        <time>2021-03-27T15:26:16Z</time>
      </trkpt>
      <trkpt lat="42.782077" lon="-4.220621">
        <ele>893.89</ele>
        <time>2021-03-27T15:26:25Z</time>
      </trkpt>
      <trkpt lat="42.781064" lon="-4.218645">
        <ele>895.88</ele>
        <time>2021-03-27T15:26:34Z</time>
      </trkpt>
      <trkpt lat="42.77906" lon="-4.214472">
        <ele>901.76</ele>
        <time>2021-03-27T15:26:43Z</time>
      </trkpt>
      <trkpt lat="42.777267" lon="-4.210826">
        <ele>904.47</ele>
        <time>2021-03-27T15:26:52Z</time>
      </trkpt>
      <trkpt lat="42.777045" lon="-4.210302">
        <ele>907.62</ele>
        <time>2021-03-27T15:27:01Z</time>
      </trkpt>
      <trkpt lat="42.776866" lon="-4.209826">
        <ele>911.4</ele>
        <time>2021-03-27T15:27:10Z</time>
      </trkpt>
      <trkpt lat="42.776733" lon="-4.209361">
        <ele>910.11</ele>
        <time>2021-03-27T15:27:19Z</time>
      </trkpt>
      <trkpt lat="42.776639" lon="-4.208929">
        <ele>908.12</ele>
        <time>2021-03-27T15:27:28Z</time>
      </trkpt>
      <trkpt lat="42.776178" lon="-4.20591">
        <ele>910.99</ele>
        <time>2021-03-27T15:27:38Z</time>
      </trkpt>
      <trkpt lat="42.776029" lon="-4.205174">
        <ele>916.96</ele>
        <time>2021-03-27T15:27:47Z</time>
      </trkpt>
      <trkpt lat="42.77579" lon="-4.204397">
        <ele>916.66</ele>
        <time>2021-03-27T15:27:56Z</time>
      </trkpt>
      <trkpt lat="42.775439" lon="-4.203617">
        <ele>920.14</ele>
        <time>2021-03-27T15:28:05Z</time>
      </trkpt>
      <trkpt lat="42.77502" lon="-4.202926">
        <ele>921.88</ele>
        <time>2021-03-27T15:28:14Z</time>
      </trkpt>
      <trkpt lat="42.77143" lon="-4.197715">
        <ele>923.54</ele>
        <time>2021-03-27T15:28:23Z</time>
      </trkpt>
      <trkpt lat="42.770304" lon="-4.1962">
        <ele>923.73</ele>
        <time>2021-03-27T15:28:32Z</time>
      </trkpt>
      <trkpt lat="42.769359" lon="-4.195033">
        <ele>923.88</ele>
        <time>2021-03-27T15:28:41Z</time>
      </trkpt>
      <trkpt lat="42.765904" lon="-4.190855">
        <ele>909.18</ele>
        <time>2021-03-27T15:28:50Z</time>
      </trkpt>
      <trkpt lat="42.763301" lon="-4.187614">
        <ele>908.93</ele>
        <time>2021-03-27T15:28:59Z</time>
      </trkpt>
      <trkpt lat="42.761817" lon="-4.185793">
        <ele>908.23</ele>
        <time>2021-03-27T15:29:08Z</time>
      </trkpt>
      <trkpt lat="42.759163" lon="-4.182542">
        <ele>904.99</ele>
        <time>2021-03-27T15:29:17Z</time>
      </trkpt>
      <trkpt lat="42.759" lon="-4.182303">
        <ele>904.4</ele>
        <time>2021-03-27T15:29:26Z</time>
      </trkpt>
      <trkpt lat="42.758862" lon="-4.182052">
        <ele>903.61</ele>
        <time>2021-03-27T15:29:35Z</time>
      </trkpt>
      <trkpt lat="42.758764" lon="-4.181823">
        <ele>902.16</ele>
        <time>2021-03-27T15:29:45Z</time>
      </trkpt>
      <trkpt lat="42.758673" lon="-4.181525">
        <ele>901.84</ele>
        <time>2021-03-27T15:29:54Z</time>
      </trkpt>
      <trkpt lat="42.758464" lon="-4.180711">
        <ele>904.21</ele>
        <time>2021-03-27T15:30:03Z</time>
      </trkpt>
      <trkpt lat="42.758374" lon="-4.180503">
        <ele>904.01</ele>
        <time>2021-03-27T15:30:12Z</time>
      </trkpt>
      <trkpt lat="42.75822" lon="-4.180473">
        <ele>903.82</ele>
        <time>2021-03-27T15:30:13Z</time>
      </trkpt>
      <trkpt lat="42.758148" lon="-4.180572">
        <ele>904.04</ele>
        <time>2021-03-27T15:30:15Z</time>
      </trkpt>
      <trkpt lat="42.758072" lon="-4.180622">
        <ele>904.22</ele>
        <time>2021-03-27T15:30:17Z</time>
      </trkpt>
      <trkpt lat="42.757994" lon="-4.180639">
        <ele>904.3</ele>
        <time>2021-03-27T15:30:19Z</time>
      </trkpt>
      <trkpt lat="42.757866" lon="-4.180603">
        <ele>904.17</ele>
        <time>2021-03-27T15:30:21Z</time>
      </trkpt>
      <trkpt lat="42.75778" lon="-4.18052">
        <ele>904.13</ele>
        <time>2021-03-27T15:30:23Z</time>
      </trkpt>
      <trkpt lat="42.757672" lon="-4.180473">
        <ele>904.45</ele>
        <time>2021-03-27T15:30:25Z</time>
      </trkpt>
      <trkpt lat="42.757593" lon="-4.180461">
        <ele>904.55</ele>
        <time>2021-03-27T15:30:27Z</time>
      </trkpt>
      <trkpt lat="42.757109" lon="-4.180722">
        <ele>904.51</ele>
        <time>2021-03-27T15:30:29Z</time>
      </trkpt>
      <trkpt lat="42.756997" lon="-4.180945">
        <ele>903.22</ele>
        <time>2021-03-27T15:30:31Z</time>
      </trkpt>
      <trkpt lat="42.75699" lon="-4.181053">
        <ele>903.07</ele>
        <time>2021-03-27T15:30:38Z</time>
      </trkpt>
      <trkpt lat="42.756961" lon="-4.181155">
        <ele>902.83</ele>
        <time>2021-03-27T15:30:45Z</time>
      </trkpt>
      <trkpt lat="42.756911" lon="-4.18124">
        <ele>902.71</ele>
        <time>2021-03-27T15:30:51Z</time>
      </trkpt>
      <trkpt lat="42.75685" lon="-4.181298">
        <ele>902.9</ele>
        <time>2021-03-27T15:30:58Z</time>
      </trkpt>
      <trkpt lat="42.75678" lon="-4.181331">
        <ele>903.27</ele>
        <time>2021-03-27T15:31:05Z</time>
      </trkpt>
      <trkpt lat="42.756706" lon="-4.181337">
        <ele>903.74</ele>
        <time>2021-03-27T15:31:12Z</time>
      </trkpt>
      <trkpt lat="42.756634" lon="-4.181315">
        <ele>904.23</ele>
        <time>2021-03-27T15:31:18Z</time>
      </trkpt>
      <trkpt lat="42.756568" lon="-4.181267">
        <ele>904.71</ele>
        <time>2021-03-27T15:31:25Z</time>
      </trkpt>
      <trkpt lat="42.756515" lon="-4.181197">
        <ele>905.09</ele>
        <time>2021-03-27T15:31:32Z</time>
      </trkpt>
      <trkpt lat="42.75648" lon="-4.181115">
        <ele>905.34</ele>
        <time>2021-03-27T15:31:39Z</time>
      </trkpt>
      <trkpt lat="42.75646" lon="-4.180963">
        <ele>905.49</ele>
        <time>2021-03-27T15:31:45Z</time>
      </trkpt>
      <trkpt lat="42.756306" lon="-4.180703">
        <ele>905.97</ele>
        <time>2021-03-27T15:31:52Z</time>
      </trkpt>
      <trkpt lat="42.756192" lon="-4.180604">
        <ele>906.47</ele>
        <time>2021-03-27T15:31:59Z</time>
      </trkpt>
      <trkpt lat="42.756085" lon="-4.180481">
        <ele>907.26</ele>
        <time>2021-03-27T15:32:05Z</time>
      </trkpt>
      <trkpt lat="42.755989" lon="-4.180335">
        <ele>907.97</ele>
        <time>2021-03-27T15:32:12Z</time>
      </trkpt>
      <trkpt lat="42.755837" lon="-4.179987">
        <ele>908.97</ele>
        <time>2021-03-27T15:32:19Z</time>
      </trkpt>
      <trkpt lat="42.755636" lon="-4.178999">
        <ele>910.77</ele>
        <time>2021-03-27T15:32:26Z</time>
      </trkpt>
      <trkpt lat="42.755505" lon="-4.178475">
        <ele>912.49</ele>
        <time>2021-03-27T15:32:32Z</time>
      </trkpt>
      <trkpt lat="42.755439" lon="-4.17827">
        <ele>913.23</ele>
        <time>2021-03-27T15:32:39Z</time>
      </trkpt>
      <trkpt lat="42.755275" lon="-4.177888">
        <ele>914.59</ele>
        <time>2021-03-27T15:32:46Z</time>
      </trkpt>
      <trkpt lat="42.755101" lon="-4.177598">
        <ele>914.19</ele>
        <time>2021-03-27T15:32:53Z</time>
      </trkpt>
      <trkpt lat="42.754479" lon="-4.176783">
        <ele>907.98</ele>
        <time>2021-03-27T15:32:59Z</time>
      </trkpt>
      <trkpt lat="42.753416" lon="-4.175512">
        <ele>909.55</ele>
        <time>2021-03-27T15:33:06Z</time>
      </trkpt>
      <trkpt lat="42.753061" lon="-4.175023">
        <ele>910.9</ele>
        <time>2021-03-27T15:33:13Z</time>
      </trkpt>
      <trkpt lat="42.752749" lon="-4.174497">
        <ele>912.92</ele>
        <time>2021-03-27T15:33:20Z</time>
      </trkpt>
      <trkpt lat="42.7525" lon="-4.174013">
        <ele>913.55</ele>
        <time>2021-03-27T15:33:26Z</time>
      </trkpt>
      <trkpt lat="42.751424" lon="-4.171625">
        <ele>907.15</ele>
        <time>2021-03-27T15:33:33Z</time>
      </trkpt>
      <trkpt lat="42.750811" lon="-4.170319">
        <ele>909.36</ele>
        <time>2021-03-27T15:33:40Z</time>
      </trkpt>
      <trkpt lat="42.746193" lon="-4.160241">
        <ele>912.1</ele>
        <time>2021-03-27T15:33:47Z</time>
      </trkpt>
      <trkpt lat="42.741666" lon="-4.150389">
        <ele>912.6</ele>
        <time>2021-03-27T15:33:53Z</time>
      </trkpt>
      <trkpt lat="42.740607" lon="-4.148039">
        <ele>915.89</ele>
        <time>2021-03-27T15:34:00Z</time>
      </trkpt>
      <trkpt lat="42.740443" lon="-4.147525">
        <ele>914.4</ele>
        <time>2021-03-27T15:34:07Z</time>
      </trkpt>
      <trkpt lat="42.740341" lon="-4.147082">
        <ele>918.55</ele>
        <time>2021-03-27T15:34:13Z</time>
      </trkpt>
      <trkpt lat="42.740266" lon="-4.146613">
        <ele>919.92</ele>
        <time>2021-03-27T15:34:20Z</time>
      </trkpt>
      <trkpt lat="42.739358" lon="-4.139627">
        <ele>929.0</ele>
        <time>2021-03-27T15:34:27Z</time>
      </trkpt>
      <trkpt lat="42.739162" lon="-4.138438">
        <ele>930.22</ele>
        <time>2021-03-27T15:34:34Z</time>
      </trkpt>
      <trkpt lat="42.739017" lon="-4.137845">
        <ele>927.4</ele>
        <time>2021-03-27T15:34:40Z</time>
      </trkpt>
      <trkpt lat="42.738876" lon="-4.137483">
        <ele>927.02</ele>
        <time>2021-03-27T15:34:47Z</time>
      </trkpt>
      <trkpt lat="42.738876" lon="-4.137483">
        <ele>927.02</ele>
        <time>2021-03-27T15:34:47Z</time>
      </trkpt>
      <trkpt lat="42.738726" lon="-4.137143">
        <ele>926.67</ele>
        <time>2021-03-27T15:34:53Z</time>
      </trkpt>
      <trkpt lat="42.738266" lon="-4.136287">
        <ele>923.0</ele>
        <time>2021-03-27T15:34:58Z</time>
      </trkpt>
      <trkpt lat="42.738169" lon="-4.136082">
        <ele>923.06</ele>
        <time>2021-03-27T15:35:04Z</time>
      </trkpt>
      <trkpt lat="42.738085" lon="-4.135875">
        <ele>923.76</ele>
        <time>2021-03-27T15:35:09Z</time>
      </trkpt>
      <trkpt lat="42.737948" lon="-4.135431">
        <ele>923.33</ele>
        <time>2021-03-27T15:35:15Z</time>
      </trkpt>
      <trkpt lat="42.737875" lon="-4.135026">
        <ele>922.39</ele>
        <time>2021-03-27T15:35:20Z</time>
      </trkpt>
      <trkpt lat="42.737836" lon="-4.134581">
        <ele>922.79</ele>
        <time>2021-03-27T15:35:26Z</time>
      </trkpt>
      <trkpt lat="42.737842" lon="-4.1341">
        <ele>923.53</ele>
        <time>2021-03-27T15:35:31Z</time>
      </trkpt>
      <trkpt lat="42.737875" lon="-4.133741">
        <ele>922.84</ele>
        <time>2021-03-27T15:35:37Z</time>
      </trkpt>
      <trkpt lat="42.737931" lon="-4.133128">
        <ele>923.74</ele>
        <time>2021-03-27T15:35:42Z</time>
      </trkpt>
      <trkpt lat="42.73795" lon="-4.132583">
        <ele>925.27</ele>
        <time>2021-03-27T15:35:48Z</time>
      </trkpt>
      <trkpt lat="42.73792" lon="-4.13211">
        <ele>925.89</ele>
        <time>2021-03-27T15:35:53Z</time>
      </trkpt>
      <trkpt lat="42.737862" lon="-4.131735">
        <ele>927.45</ele>
        <time>2021-03-27T15:35:59Z</time>
      </trkpt>
      <trkpt lat="42.737767" lon="-4.131295">
        <ele>928.99</ele>
        <time>2021-03-27T15:36:04Z</time>
      </trkpt>
      <trkpt lat="42.736685" lon="-4.127958">
        <ele>931.81</ele>
        <time>2021-03-27T15:36:10Z</time>
      </trkpt>
      <trkpt lat="42.736481" lon="-4.127233">
        <ele>932.66</ele>
        <time>2021-03-27T15:36:15Z</time>
      </trkpt>
      <trkpt lat="42.736306" lon="-4.126385">
        <ele>930.3</ele>
        <time>2021-03-27T15:36:21Z</time>
      </trkpt>
      <trkpt lat="42.734532" lon="-4.115616">
        <ele>938.97</ele>
        <time>2021-03-27T15:36:27Z</time>
      </trkpt>
      <trkpt lat="42.734428" lon="-4.114796">
        <ele>940.57</ele>
        <time>2021-03-27T15:36:32Z</time>
      </trkpt>
      <trkpt lat="42.734306" lon="-4.113551">
        <ele>940.61</ele>
        <time>2021-03-27T15:36:38Z</time>
      </trkpt>
      <trkpt lat="42.734217" lon="-4.113358">
        <ele>940.34</ele>
        <time>2021-03-27T15:36:38Z</time>
      </trkpt>
      <trkpt lat="42.734092" lon="-4.113271">
        <ele>938.59</ele>
        <time>2021-03-27T15:36:39Z</time>
      </trkpt>
      <trkpt lat="42.734181" lon="-4.113153">
        <ele>940.17</ele>
        <time>2021-03-27T15:36:40Z</time>
      </trkpt>
      <trkpt lat="42.734255" lon="-4.112972">
        <ele>941.07</ele>
        <time>2021-03-27T15:36:41Z</time>
      </trkpt>
      <trkpt lat="42.733707" lon="-4.106732">
        <ele>939.26</ele>
        <time>2021-03-27T15:36:47Z</time>
      </trkpt>
      <trkpt lat="42.733624" lon="-4.106062">
        <ele>938.79</ele>
        <time>2021-03-27T15:36:53Z</time>
      </trkpt>
      <trkpt lat="42.733494" lon="-4.105384">
        <ele>937.8</ele>
        <time>2021-03-27T15:36:59Z</time>
      </trkpt>
      <trkpt lat="42.733043" lon="-4.103765">
        <ele>942.51</ele>
        <time>2021-03-27T15:37:05Z</time>
      </trkpt>
      <trkpt lat="42.732864" lon="-4.102976">
        <ele>940.31</ele>
        <time>2021-03-27T15:37:11Z</time>
      </trkpt>
      <trkpt lat="42.732792" lon="-4.102516">
        <ele>940.0</ele>
        <time>2021-03-27T15:37:17Z</time>
      </trkpt>
      <trkpt lat="42.732748" lon="-4.102085">
        <ele>940.84</ele>
        <time>2021-03-27T15:37:23Z</time>
      </trkpt>
      <trkpt lat="42.732659" lon="-4.100878">
        <ele>940.16</ele>
        <time>2021-03-27T15:37:29Z</time>
      </trkpt>
      <trkpt lat="42.732633" lon="-4.100384">
        <ele>936.89</ele>
        <time>2021-03-27T15:37:35Z</time>
      </trkpt>
      <trkpt lat="42.732635" lon="-4.099958">
        <ele>936.51</ele>
        <time>2021-03-27T15:37:41Z</time>
      </trkpt>
      <trkpt lat="42.73265" lon="-4.099753">
        <ele>936.46</ele>
        <time>2021-03-27T15:37:47Z</time>
      </trkpt>
      <trkpt lat="42.73273" lon="-4.099278">
        <ele>935.23</ele>
        <time>2021-03-27T15:37:53Z</time>
      </trkpt>
      <trkpt lat="42.732891" lon="-4.098716">
        <ele>934.63</ele>
        <time>2021-03-27T15:37:59Z</time>
      </trkpt>
      <trkpt lat="42.73308" lon="-4.098178">
        <ele>937.26</ele>
        <time>2021-03-27T15:38:05Z</time>
      </trkpt>
      <trkpt lat="42.733244" lon="-4.097561">
        <ele>939.04</ele>
        <time>2021-03-27T15:38:12Z</time>
      </trkpt>
      <trkpt lat="42.73332" lon="-4.097015">
        <ele>939.65</ele>
        <time>2021-03-27T15:38:18Z</time>
      </trkpt>
      <trkpt lat="42.73333" lon="-4.096695">
        <ele>939.99</ele>
        <time>2021-03-27T15:38:24Z</time>
      </trkpt>
      <trkpt lat="42.733317" lon="-4.096424">
        <ele>939.12</ele>
        <time>2021-03-27T15:38:30Z</time>
      </trkpt>
      <trkpt lat="42.733282" lon="-4.096133">
        <ele>938.66</ele>
        <time>2021-03-27T15:38:36Z</time>
      </trkpt>
      <trkpt lat="42.733221" lon="-4.095839">
        <ele>938.59</ele>
        <time>2021-03-27T15:38:42Z</time>
      </trkpt>
      <trkpt lat="42.733051" lon="-4.095259">
        <ele>939.0</ele>
        <time>2021-03-27T15:38:48Z</time>
      </trkpt>
      <trkpt lat="42.732944" lon="-4.094978">
        <ele>938.63</ele>
        <time>2021-03-27T15:38:54Z</time>
      </trkpt>
      <trkpt lat="42.732449" lon="-4.093856">
        <ele>937.86</ele>
        <time>2021-03-27T15:39:00Z</time>
      </trkpt>
      <trkpt lat="42.732287" lon="-4.093479">
        <ele>936.12</ele>
        <time>2021-03-27T15:39:06Z</time>
      </trkpt>
      <trkpt lat="42.731998" lon="-4.092738">
        <ele>937.81</ele>
        <time>2021-03-27T15:39:12Z</time>
      </trkpt>
      <trkpt lat="42.731749" lon="-4.091965">
        <ele>940.51</ele>
        <time>2021-03-27T15:39:18Z</time>
      </trkpt>
      <trkpt lat="42.73165" lon="-4.091611">
        <ele>939.21</ele>
        <time>2021-03-27T15:39:24Z</time>
      </trkpt>
      <trkpt lat="42.731514" lon="-4.091014">
        <ele>938.01</ele>
        <time>2021-03-27T15:39:30Z</time>
      </trkpt>
      <trkpt lat="42.731341" lon="-4.090102">
        <ele>934.82</ele>
        <time>2021-03-27T15:39:36Z</time>
      </trkpt>
      <trkpt lat="42.730339" lon="-4.084196">
        <ele>939.98</ele>
        <time>2021-03-27T15:39:42Z</time>
      </trkpt>
      <trkpt lat="42.729975" lon="-4.08206">
        <ele>943.05</ele>
        <time>2021-03-27T15:39:48Z</time>
      </trkpt>
      <trkpt lat="42.729749" lon="-4.080691">
        <ele>944.22</ele>
        <time>2021-03-27T15:39:54Z</time>
      </trkpt>
      <trkpt lat="42.729567" lon="-4.079771">
        <ele>948.19</ele>
        <time>2021-03-27T15:40:00Z</time>
      </trkpt>
      <trkpt lat="42.729439" lon="-4.07934">
        <ele>947.63</ele>
        <time>2021-03-27T15:40:06Z</time>
      </trkpt>
      <trkpt lat="42.729295" lon="-4.078925">
        <ele>947.07</ele>
        <time>2021-03-27T15:40:12Z</time>
      </trkpt>
      <trkpt lat="42.728904" lon="-4.077973">
        <ele>949.66</ele>
        <time>2021-03-27T15:40:18Z</time>
      </trkpt>
      <trkpt lat="42.728723" lon="-4.077455">
        <ele>947.84</ele>
        <time>2021-03-27T15:40:24Z</time>
      </trkpt>
      <trkpt lat="42.728658" lon="-4.0772">
        <ele>946.99</ele>
        <time>2021-03-27T15:40:30Z</time>
      </trkpt>
      <trkpt lat="42.728403" lon="-4.075593">
        <ele>944.37</ele>
        <time>2021-03-27T15:40:36Z</time>
      </trkpt>
      <trkpt lat="42.728067" lon="-4.073237">
        <ele>943.7</ele>
        <time>2021-03-27T15:40:42Z</time>
      </trkpt>
      <trkpt lat="42.727909" lon="-4.072479">
        <ele>945.53</ele>
        <time>2021-03-27T15:40:48Z</time>
      </trkpt>
      <trkpt lat="42.727804" lon="-4.072084">
        <ele>945.9</ele>
        <time>2021-03-27T15:40:55Z</time>
      </trkpt>
      <trkpt lat="42.727619" lon="-4.071514">
        <ele>945.05</ele>
        <time>2021-03-27T15:41:01Z</time>
      </trkpt>
      <trkpt lat="42.723718" lon="-4.060757">
        <ele>955.72</ele>
        <time>2021-03-27T15:41:07Z</time>
      </trkpt>
      <trkpt lat="42.723481" lon="-4.060023">
        <ele>956.45</ele>
        <time>2021-03-27T15:41:13Z</time>
      </trkpt>
      <trkpt lat="42.723355" lon="-4.059511">
        <ele>958.76</ele>
        <time>2021-03-27T15:41:19Z</time>
      </trkpt>
      <trkpt lat="42.723241" lon="-4.058931">
        <ele>959.67</ele>
        <time>2021-03-27T15:41:25Z</time>
      </trkpt>
      <trkpt lat="42.722924" lon="-4.056">
        <ele>964.32</ele>
        <time>2021-03-27T15:41:31Z</time>
      </trkpt>
      <trkpt lat="42.722863" lon="-4.055303">
        <ele>962.12</ele>
        <time>2021-03-27T15:41:37Z</time>
      </trkpt>
      <trkpt lat="42.722856" lon="-4.054599">
        <ele>962.32</ele>
        <time>2021-03-27T15:41:43Z</time>
      </trkpt>
      <trkpt lat="42.722913" lon="-4.053314">
        <ele>966.0</ele>
        <time>2021-03-27T15:41:49Z</time>
      </trkpt>
      <trkpt lat="42.722915" lon="-4.052998">
        <ele>966.1</ele>
        <time>2021-03-27T15:41:55Z</time>
      </trkpt>
      <trkpt lat="42.722888" lon="-4.052382">
        <ele>964.74</ele>
        <time>2021-03-27T15:42:01Z</time>
      </trkpt>
      <trkpt lat="42.72281" lon="-4.051826">
        <ele>965.91</ele>
        <time>2021-03-27T15:42:07Z</time>
      </trkpt>
      <trkpt lat="42.722652" lon="-4.05105">
        <ele>967.42</ele>
        <time>2021-03-27T15:42:13Z</time>
      </trkpt>
      <trkpt lat="42.722209" lon="-4.049339">
        <ele>967.44</ele>
        <time>2021-03-27T15:42:19Z</time>
      </trkpt>
      <trkpt lat="42.722097" lon="-4.048836">
        <ele>969.64</ele>
        <time>2021-03-27T15:42:25Z</time>
      </trkpt>
      <trkpt lat="42.721931" lon="-4.04792">
        <ele>971.98</ele>
        <time>2021-03-27T15:42:31Z</time>
      </trkpt>
      <trkpt lat="42.721727" lon="-4.0464">
        <ele>972.78</ele>
        <time>2021-03-27T15:42:37Z</time>
      </trkpt>
      <trkpt lat="42.721699" lon="-4.045927">
        <ele>973.76</ele>
        <time>2021-03-27T15:42:43Z</time>
      </trkpt>
      <trkpt lat="42.721707" lon="-4.045259">
        <ele>976.21</ele>
        <time>2021-03-27T15:42:49Z</time>
      </trkpt>
      <trkpt lat="42.721764" lon="-4.043391">
        <ele>972.28</ele>
        <time>2021-03-27T15:42:55Z</time>
      </trkpt>
      <trkpt lat="42.721749" lon="-4.042886">
        <ele>970.09</ele>
        <time>2021-03-27T15:43:01Z</time>
      </trkpt>
      <trkpt lat="42.72166" lon="-4.042065">
        <ele>968.4</ele>
        <time>2021-03-27T15:43:07Z</time>
      </trkpt>
      <trkpt lat="42.721058" lon="-4.03907">
        <ele>963.93</ele>
        <time>2021-03-27T15:43:13Z</time>
      </trkpt>
      <trkpt lat="42.720371" lon="-4.03597">
        <ele>953.16</ele>
        <time>2021-03-27T15:43:19Z</time>
      </trkpt>
      <trkpt lat="42.719901" lon="-4.033923">
        <ele>949.95</ele>
        <time>2021-03-27T15:43:25Z</time>
      </trkpt>
      <trkpt lat="42.7193" lon="-4.031335">
        <ele>951.02</ele>
        <time>2021-03-27T15:43:31Z</time>
      </trkpt>
      <trkpt lat="42.718825" lon="-4.029789">
        <ele>945.11</ele>
        <time>2021-03-27T15:43:38Z</time>
      </trkpt>
      <trkpt lat="42.718244" lon="-4.027986">
        <ele>938.1</ele>
        <time>2021-03-27T15:43:44Z</time>
      </trkpt>
      <trkpt lat="42.717873" lon="-4.026986">
        <ele>937.47</ele>
        <time>2021-03-27T15:43:50Z</time>
      </trkpt>
      <trkpt lat="42.717274" lon="-4.025458">
        <ele>935.51</ele>
        <time>2021-03-27T15:43:56Z</time>
      </trkpt>
      <trkpt lat="42.71645" lon="-4.022766">
        <ele>928.78</ele>
        <time>2021-03-27T15:44:02Z</time>
      </trkpt>
      <trkpt lat="42.716078" lon="-4.021672">
        <ele>930.02</ele>
        <time>2021-03-27T15:44:08Z</time>
      </trkpt>
      <trkpt lat="42.715566" lon="-4.020453">
        <ele>931.94</ele>
        <time>2021-03-27T15:44:14Z</time>
      </trkpt>
      <trkpt lat="42.715281" lon="-4.01985">
        <ele>929.38</ele>
        <time>2021-03-27T15:44:20Z</time>
      </trkpt>
      <trkpt lat="42.714995" lon="-4.019291">
        <ele>923.42</ele>
        <time>2021-03-27T15:44:26Z</time>
      </trkpt>
      <trkpt lat="42.714678" lon="-4.018722">
        <ele>926.08</ele>
        <time>2021-03-27T15:44:32Z</time>
      </trkpt>
      <trkpt lat="42.714333" lon="-4.018162">
        <ele>929.72</ele>
        <time>2021-03-27T15:44:38Z</time>
      </trkpt>
      <trkpt lat="42.713264" lon="-4.016505">
        <ele>924.92</ele>
        <time>2021-03-27T15:44:44Z</time>
      </trkpt>
      <trkpt lat="42.713249" lon="-4.016173">
        <ele>922.82</ele>
        <time>2021-03-27T15:44:47Z</time>
      </trkpt>
      <trkpt lat="42.713312" lon="-4.014656">
        <ele>917.02</ele>
        <time>2021-03-27T15:44:51Z</time>
      </trkpt>
      <trkpt lat="42.713307" lon="-4.014438">
        <ele>917.14</ele>
        <time>2021-03-27T15:44:54Z</time>
      </trkpt>
      <trkpt lat="42.713273" lon="-4.014309">
        <ele>918.09</ele>
        <time>2021-03-27T15:44:58Z</time>
      </trkpt>
      <trkpt lat="42.713226" lon="-4.014186">
        <ele>918.89</ele>
        <time>2021-03-27T15:45:01Z</time>
      </trkpt>
      <trkpt lat="42.712714" lon="-4.013303">
        <ele>927.81</ele>
        <time>2021-03-27T15:45:05Z</time>
      </trkpt>
      <trkpt lat="42.711648" lon="-4.011531">
        <ele>941.04</ele>
        <time>2021-03-27T15:45:08Z</time>
      </trkpt>
      <trkpt lat="42.711593" lon="-4.011389">
        <ele>942.26</ele>
        <time>2021-03-27T15:45:12Z</time>
      </trkpt>
      <trkpt lat="42.71156" lon="-4.011225">
        <ele>942.38</ele>
        <time>2021-03-27T15:45:15Z</time>
      </trkpt>
      <trkpt lat="42.711544" lon="-4.011036">
        <ele>942.32</ele>
        <time>2021-03-27T15:45:19Z</time>
      </trkpt>
      <trkpt lat="42.711528" lon="-4.009942">
        <ele>942.5</ele>
        <time>2021-03-27T15:45:22Z</time>
      </trkpt>
      <trkpt lat="42.711463" lon="-4.009691">
        <ele>942.3</ele>
        <time>2021-03-27T15:45:26Z</time>
      </trkpt>
      <trkpt lat="42.710749" lon="-4.007755">
        <ele>937.28</ele>
        <time>2021-03-27T15:45:29Z</time>
      </trkpt>
      <trkpt lat="42.710093" lon="-4.005917">
        <ele>933.64</ele>
        <time>2021-03-27T15:45:33Z</time>
      </trkpt>
      <trkpt lat="42.709861" lon="-4.004807">
        <ele>931.3</ele>
        <time>2021-03-27T15:45:36Z</time>
      </trkpt>
      <trkpt lat="42.709829" lon="-4.004718">
        <ele>930.99</ele>
        <time>2021-03-27T15:45:39Z</time>
      </trkpt>
      <trkpt lat="42.709739" lon="-4.004586">
        <ele>930.51</ele>
        <time>2021-03-27T15:45:40Z</time>
      </trkpt>
      <trkpt lat="42.709615" lon="-4.004466">
        <ele>929.69</ele>
        <time>2021-03-27T15:45:41Z</time>
      </trkpt>
      <trkpt lat="42.709445" lon="-4.004425">
        <ele>928.93</ele>
        <time>2021-03-27T15:45:42Z</time>
      </trkpt>
      <trkpt lat="42.709255" lon="-4.003722">
        <ele>926.03</ele>
        <time>2021-03-27T15:45:54Z</time>
      </trkpt>
      <trkpt lat="42.709059" lon="-4.003145">
        <ele>922.88</ele>
        <time>2021-03-27T15:46:07Z</time>
      </trkpt>
      <trkpt lat="42.70632" lon="-3.995535">
        <ele>904.91</ele>
        <time>2021-03-27T15:46:19Z</time>
      </trkpt>
      <trkpt lat="42.706079" lon="-3.994927">
        <ele>902.36</ele>
        <time>2021-03-27T15:46:31Z</time>
      </trkpt>
      <trkpt lat="42.705815" lon="-3.994321">
        <ele>900.16</ele>
        <time>2021-03-27T15:46:43Z</time>
      </trkpt>
      <trkpt lat="42.703301" lon="-3.989276">
        <ele>911.53</ele>
        <time>2021-03-27T15:46:56Z</time>
      </trkpt>
      <trkpt lat="42.703158" lon="-3.989161">
        <ele>912.24</ele>
        <time>2021-03-27T15:46:57Z</time>
      </trkpt>
      <trkpt lat="42.703033" lon="-3.989027">
        <ele>912.7</ele>
        <time>2021-03-27T15:46:59Z</time>
      </trkpt>
      <trkpt lat="42.703002" lon="-3.988904">
        <ele>912.8</ele>
        <time>2021-03-27T15:47:00Z</time>
      </trkpt>
      <trkpt lat="42.702944" lon="-3.988913">
        <ele>913.58</ele>
        <time>2021-03-27T15:47:01Z</time>
      </trkpt>
      <trkpt lat="42.702896" lon="-3.988881">
        <ele>914.3</ele>
        <time>2021-03-27T15:47:01Z</time>
      </trkpt>
      <trkpt lat="42.702854" lon="-3.988803">
        <ele>914.9</ele>
        <time>2021-03-27T15:47:02Z</time>
      </trkpt>
      <trkpt lat="42.702845" lon="-3.988676">
        <ele>915.03</ele>
        <time>2021-03-27T15:47:03Z</time>
      </trkpt>
      <trkpt lat="42.702872" lon="-3.98845">
        <ele>914.06</ele>
        <time>2021-03-27T15:47:05Z</time>
      </trkpt>
      <trkpt lat="42.702949" lon="-3.988077">
        <ele>912.75</ele>
        <time>2021-03-27T15:47:07Z</time>
      </trkpt>
      <trkpt lat="42.70288" lon="-3.987807">
        <ele>914.81</ele>
        <time>2021-03-27T15:47:09Z</time>
      </trkpt>
      <trkpt lat="42.70297" lon="-3.987841">
        <ele>914.46</ele>
        <time>2021-03-27T15:47:09Z</time>
      </trkpt>
      <trkpt lat="42.702978" lon="-3.987635">
        <ele>915.0</ele>
        <time>2021-03-27T15:47:13Z</time>
      </trkpt>
      <trkpt lat="42.702998" lon="-3.987522">
        <ele>915.0</ele>
        <time>2021-03-27T15:47:16Z</time>
      </trkpt>
      <trkpt lat="42.703053" lon="-3.98616">
        <ele>904.38</ele>
        <time>2021-03-27T15:47:20Z</time>
      </trkpt>
      <trkpt lat="42.70307" lon="-3.985936">
        <ele>903.42</ele>
        <time>2021-03-27T15:47:23Z</time>
      </trkpt>
      <trkpt lat="42.703109" lon="-3.98576">
        <ele>903.57</ele>
        <time>2021-03-27T15:47:26Z</time>
      </trkpt>
      <trkpt lat="42.703204" lon="-3.985542">
        <ele>903.93</ele>
        <time>2021-03-27T15:47:30Z</time>
      </trkpt>
      <trkpt lat="42.70423" lon="-3.983827">
        <ele>903.22</ele>
        <time>2021-03-27T15:47:33Z</time>
      </trkpt>
      <trkpt lat="42.704634" lon="-3.983105">
        <ele>907.97</ele>
        <time>2021-03-27T15:47:37Z</time>
      </trkpt>
      <trkpt lat="42.705102" lon="-3.981608">
        <ele>917.31</ele>
        <time>2021-03-27T15:47:40Z</time>
      </trkpt>
      <trkpt lat="42.705303" lon="-3.980989">
        <ele>920.78</ele>
        <time>2021-03-27T15:47:43Z</time>
      </trkpt>
      <trkpt lat="42.705366" lon="-3.98085">
        <ele>920.99</ele>
        <time>2021-03-27T15:47:47Z</time>
      </trkpt>
      <trkpt lat="42.705479" lon="-3.980718">
        <ele>922.06</ele>
        <time>2021-03-27T15:47:50Z</time>
      </trkpt>
      <trkpt lat="42.705551" lon="-3.980671">
        <ele>922.95</ele>
        <time>2021-03-27T15:47:54Z</time>
      </trkpt>
      <trkpt lat="42.7068" lon="-3.980324">
        <ele>929.98</ele>
        <time>2021-03-27T15:47:57Z</time>
      </trkpt>
      <trkpt lat="42.708086" lon="-3.980166">
        <ele>937.42</ele>
        <time>2021-03-27T15:48:00Z</time>
      </trkpt>
      <trkpt lat="42.709543" lon="-3.97998">
        <ele>930.88</ele>
        <time>2021-03-27T15:48:04Z</time>
      </trkpt>
      <trkpt lat="42.709761" lon="-3.979885">
        <ele>932.6</ele>
        <time>2021-03-27T15:48:08Z</time>
      </trkpt>
      <trkpt lat="42.710023" lon="-3.97974">
        <ele>934.13</ele>
        <time>2021-03-27T15:48:12Z</time>
      </trkpt>
      <trkpt lat="42.710141" lon="-3.979703">
        <ele>933.68</ele>
        <time>2021-03-27T15:48:16Z</time>
      </trkpt>
      <trkpt lat="42.710994" lon="-3.979643">
        <ele>924.97</ele>
        <time>2021-03-27T15:48:20Z</time>
      </trkpt>
      <trkpt lat="42.711432" lon="-3.979655">
        <ele>923.96</ele>
        <time>2021-03-27T15:48:24Z</time>
      </trkpt>
      <trkpt lat="42.712291" lon="-3.979835">
        <ele>923.87</ele>
        <time>2021-03-27T15:48:28Z</time>
      </trkpt>
      <trkpt lat="42.71249" lon="-3.979911">
        <ele>923.41</ele>
        <time>2021-03-27T15:48:32Z</time>
      </trkpt>
      <trkpt lat="42.714819" lon="-3.981118">
        <ele>918.36</ele>
        <time>2021-03-27T15:48:35Z</time>
      </trkpt>
      <trkpt lat="42.714918" lon="-3.981153">
        <ele>918.75</ele>
        <time>2021-03-27T15:48:39Z</time>
      </trkpt>
      <trkpt lat="42.715002" lon="-3.98115">
        <ele>918.99</ele>
        <time>2021-03-27T15:48:43Z</time>
      </trkpt>
      <trkpt lat="42.715076" lon="-3.981099">
        <ele>918.7</ele>
        <time>2021-03-27T15:48:47Z</time>
      </trkpt>
      <trkpt lat="42.716318" lon="-3.979762">
        <ele>920.68</ele>
        <time>2021-03-27T15:48:51Z</time>
      </trkpt>
      <trkpt lat="42.716318" lon="-3.979762">
        <ele>920.68</ele>
        <time>2021-03-27T15:48:51Z</time>
      </trkpt>
      <trkpt lat="42.716795" lon="-3.979248">
        <ele>922.67</ele>
        <time>2021-03-27T15:48:53Z</time>
      </trkpt>
      <trkpt lat="42.717393" lon="-3.978835">
        <ele>921.0</ele>
        <time>2021-03-27T15:48:55Z</time>
      </trkpt>
      <trkpt lat="42.717497" lon="-3.978725">
        <ele>919.83</ele>
        <time>2021-03-27T15:48:57Z</time>
      </trkpt>
      <trkpt lat="42.717534" lon="-3.978577">
        <ele>918.88</ele>
        <time>2021-03-27T15:48:59Z</time>
      </trkpt>
      <trkpt lat="42.717536" lon="-3.978463">
        <ele>918.07</ele>
        <time>2021-03-27T15:49:01Z</time>
      </trkpt>
      <trkpt lat="42.717388" lon="-3.977293">
        <ele>911.21</ele>
        <time>2021-03-27T15:49:03Z</time>
      </trkpt>
      <trkpt lat="42.71726" lon="-3.976493">
        <ele>901.66</ele>
        <time>2021-03-27T15:49:06Z</time>
      </trkpt>
      <trkpt lat="42.717284" lon="-3.975963">
        <ele>896.1</ele>
        <time>2021-03-27T15:49:08Z</time>
      </trkpt>
      <trkpt lat="42.717321" lon="-3.975786">
        <ele>893.1</ele>
        <time>2021-03-27T15:49:10Z</time>
      </trkpt>
      <trkpt lat="42.717434" lon="-3.97554">
        <ele>888.63</ele>
        <time>2021-03-27T15:49:12Z</time>
      </trkpt>
      <trkpt lat="42.71755" lon="-3.975446">
        <ele>889.11</ele>
        <time>2021-03-27T15:49:14Z</time>
      </trkpt>
      <trkpt lat="42.717768" lon="-3.975307">
        <ele>892.04</ele>
        <time>2021-03-27T15:49:16Z</time>
      </trkpt>
      <trkpt lat="42.717796" lon="-3.975241">
        <ele>892.13</ele>
        <time>2021-03-27T15:49:18Z</time>
      </trkpt>
      <trkpt lat="42.717796" lon="-3.975184">
        <ele>892.13</ele>
        <time>2021-03-27T15:49:20Z</time>
      </trkpt>
      <trkpt lat="42.717736" lon="-3.975064">
        <ele>891.24</ele>
        <time>2021-03-27T15:49:22Z</time>
      </trkpt>
      <trkpt lat="42.717413" lon="-3.97484">
        <ele>885.58</ele>
        <time>2021-03-27T15:49:24Z</time>
      </trkpt>
      <trkpt lat="42.717015" lon="-3.974304">
        <ele>880.65</ele>
        <time>2021-03-27T15:49:26Z</time>
      </trkpt>
      <trkpt lat="42.716667" lon="-3.973812">
        <ele>876.3</ele>
        <time>2021-03-27T15:49:28Z</time>
      </trkpt>
      <trkpt lat="42.716621" lon="-3.973724">
        <ele>875.26</ele>
        <time>2021-03-27T15:49:30Z</time>
      </trkpt>
      <trkpt lat="42.716598" lon="-3.973576">
        <ele>875.03</ele>
        <time>2021-03-27T15:49:33Z</time>
      </trkpt>
      <trkpt lat="42.716589" lon="-3.97252">
        <ele>875.55</ele>
        <time>2021-03-27T15:49:35Z</time>
      </trkpt>
      <trkpt lat="42.716577" lon="-3.972299">
        <ele>875.83</ele>
        <time>2021-03-27T15:49:37Z</time>
      </trkpt>
      <trkpt lat="42.716529" lon="-3.971996">
        <ele>875.34</ele>
        <time>2021-03-27T15:49:39Z</time>
      </trkpt>
      <trkpt lat="42.716464" lon="-3.970278">
        <ele>870.43</ele>
        <time>2021-03-27T15:49:41Z</time>
      </trkpt>
      <trkpt lat="42.716512" lon="-3.969909">
        <ele>870.09</ele>
        <time>2021-03-27T15:49:43Z</time>
      </trkpt>
      <trkpt lat="42.716573" lon="-3.969691">
        <ele>870.22</ele>
        <time>2021-03-27T15:49:45Z</time>
      </trkpt>
      <trkpt lat="42.716644" lon="-3.969515">
        <ele>869.51</ele>
        <time>2021-03-27T15:49:47Z</time>
      </trkpt>
      <trkpt lat="42.717256" lon="-3.968269">
        <ele>867.1</ele>
        <time>2021-03-27T15:49:49Z</time>
      </trkpt>
      <trkpt lat="42.717305" lon="-3.968134">
        <ele>866.5</ele>
        <time>2021-03-27T15:49:51Z</time>
      </trkpt>
      <trkpt lat="42.717326" lon="-3.968042">
        <ele>865.76</ele>
        <time>2021-03-27T15:49:53Z</time>
      </trkpt>
      <trkpt lat="42.717386" lon="-3.966989">
        <ele>862.34</ele>
        <time>2021-03-27T15:49:55Z</time>
      </trkpt>
      <trkpt lat="42.7174" lon="-3.96685">
        <ele>861.72</ele>
        <time>2021-03-27T15:49:57Z</time>
      </trkpt>
      <trkpt lat="42.717455" lon="-3.966598">
        <ele>860.34</ele>
        <time>2021-03-27T15:50:00Z</time>
      </trkpt>
      <trkpt lat="42.718018" lon="-3.96533">
        <ele>859.79</ele>
        <time>2021-03-27T15:50:02Z</time>
      </trkpt>
      <trkpt lat="42.718194" lon="-3.964883">
        <ele>856.44</ele>
        <time>2021-03-27T15:50:04Z</time>
      </trkpt>
      <trkpt lat="42.718278" lon="-3.964596">
        <ele>853.72</ele>
        <time>2021-03-27T15:50:06Z</time>
      </trkpt>
      <trkpt lat="42.718287" lon="-3.964482">
        <ele>852.55</ele>
        <time>2021-03-27T15:50:08Z</time>
      </trkpt>
      <trkpt lat="42.718237" lon="-3.963184">
        <ele>854.3</ele>
        <time>2021-03-27T15:50:10Z</time>
      </trkpt>
      <trkpt lat="42.718254" lon="-3.963063">
        <ele>854.43</ele>
        <time>2021-03-27T15:50:12Z</time>
      </trkpt>
      <trkpt lat="42.718287" lon="-3.962994">
        <ele>855.07</ele>
        <time>2021-03-27T15:50:14Z</time>
      </trkpt>
      <trkpt lat="42.718416" lon="-3.962966">
        <ele>856.34</ele>
        <time>2021-03-27T15:50:18Z</time>
      </trkpt>
      <trkpt lat="42.718715" lon="-3.962953">
        <ele>858.29</ele>
        <time>2021-03-27T15:50:22Z</time>
      </trkpt>
      <trkpt lat="42.719234" lon="-3.962871">
        <ele>858.24</ele>
        <time>2021-03-27T15:50:26Z</time>
      </trkpt>
      <trkpt lat="42.719885" lon="-3.962887">
        <ele>856.04</ele>
        <time>2021-03-27T15:50:30Z</time>
      </trkpt>
      <trkpt lat="42.720432" lon="-3.962827">
        <ele>861.59</ele>
        <time>2021-03-27T15:50:34Z</time>
      </trkpt>
      <trkpt lat="42.721074" lon="-3.962612">
        <ele>862.9</ele>
        <time>2021-03-27T15:50:38Z</time>
      </trkpt>
      <trkpt lat="42.721527" lon="-3.962593">
        <ele>871.3</ele>
        <time>2021-03-27T15:50:42Z</time>
      </trkpt>
      <trkpt lat="42.721657" lon="-3.962568">
        <ele>875.53</ele>
        <time>2021-03-27T15:50:46Z</time>
      </trkpt>
      <trkpt lat="42.721782" lon="-3.962515">
        <ele>877.06</ele>
        <time>2021-03-27T15:50:50Z</time>
      </trkpt>
      <trkpt lat="42.722167" lon="-3.962221">
        <ele>883.63</ele>
        <time>2021-03-27T15:50:53Z</time>
      </trkpt>
      <trkpt lat="42.722482" lon="-3.962064">
        <ele>879.64</ele>
        <time>2021-03-27T15:50:57Z</time>
      </trkpt>
      <trkpt lat="42.722635" lon="-3.962032">
        <ele>877.93</ele>
        <time>2021-03-27T15:51:01Z</time>
      </trkpt>
      <trkpt lat="42.723242" lon="-3.962067">
        <ele>869.51</ele>
        <time>2021-03-27T15:51:05Z</time>
      </trkpt>
      <trkpt lat="42.72377" lon="-3.96218">
        <ele>864.59</ele>
        <time>2021-03-27T15:51:09Z</time>
      </trkpt>
      <trkpt lat="42.724039" lon="-3.962332">
        <ele>866.58</ele>
        <time>2021-03-27T15:51:13Z</time>
      </trkpt>
      <trkpt lat="42.724456" lon="-3.962609">
        <ele>866.47</ele>
        <time>2021-03-27T15:51:17Z</time>
      </trkpt>
      <trkpt lat="42.724656" lon="-3.962826">
        <ele>870.22</ele>
        <time>2021-03-27T15:51:21Z</time>
      </trkpt>
      <trkpt lat="42.724949" lon="-3.96358">
        <ele>874.04</ele>
        <time>2021-03-27T15:51:25Z</time>
      </trkpt>
      <trkpt lat="42.72503" lon="-3.963716">
        <ele>874.15</ele>
        <time>2021-03-27T15:51:29Z</time>
      </trkpt>
      <trkpt lat="42.725247" lon="-3.963944">
        <ele>873.38</ele>
        <time>2021-03-27T15:51:33Z</time>
      </trkpt>
      <trkpt lat="42.725549" lon="-3.964176">
        <ele>876.64</ele>
        <time>2021-03-27T15:51:37Z</time>
      </trkpt>
      <trkpt lat="42.725644" lon="-3.964186">
        <ele>875.79</ele>
        <time>2021-03-27T15:51:41Z</time>
      </trkpt>
      <trkpt lat="42.725716" lon="-3.964167">
        <ele>875.84</ele>
        <time>2021-03-27T15:51:45Z</time>
      </trkpt>
      <trkpt lat="42.725827" lon="-3.964098">
        <ele>878.22</ele>
        <time>2021-03-27T15:51:49Z</time>
      </trkpt>
      <trkpt lat="42.726279" lon="-3.963716">
        <ele>889.37</ele>
        <time>2021-03-27T15:51:53Z</time>
      </trkpt>
      <trkpt lat="42.72683" lon="-3.96329">
        <ele>897.02</ele>
        <time>2021-03-27T15:51:56Z</time>
      </trkpt>
      <trkpt lat="42.727532" lon="-3.962698">
        <ele>906.13</ele>
        <time>2021-03-27T15:52:00Z</time>
      </trkpt>
      <trkpt lat="42.727967" lon="-3.962382">
        <ele>912.74</ele>
        <time>2021-03-27T15:52:04Z</time>
      </trkpt>
      <trkpt lat="42.728115" lon="-3.96225">
        <ele>914.39</ele>
        <time>2021-03-27T15:52:08Z</time>
      </trkpt>
      <trkpt lat="42.728236" lon="-3.962073">
        <ele>914.7</ele>
        <time>2021-03-27T15:52:12Z</time>
      </trkpt>
      <trkpt lat="42.728996" lon="-3.960481">
        <ele>926.6</ele>
        <time>2021-03-27T15:52:16Z</time>
      </trkpt>
      <trkpt lat="42.729151" lon="-3.959926">
        <ele>928.81</ele>
        <time>2021-03-27T15:52:20Z</time>
      </trkpt>
      <trkpt lat="42.729591" lon="-3.959216">
        <ele>928.73</ele>
        <time>2021-03-27T15:52:24Z</time>
      </trkpt>
      <trkpt lat="42.729792" lon="-3.958825">
        <ele>930.18</ele>
        <time>2021-03-27T15:52:28Z</time>
      </trkpt>
      <trkpt lat="42.730202" lon="-3.958236">
        <ele>932.14</ele>
        <time>2021-03-27T15:52:32Z</time>
      </trkpt>
      <trkpt lat="42.730332" lon="-3.958012">
        <ele>932.27</ele>
        <time>2021-03-27T15:52:36Z</time>
      </trkpt>
      <trkpt lat="42.730469" lon="-3.957703">
        <ele>933.43</ele>
        <time>2021-03-27T15:52:40Z</time>
      </trkpt>
      <trkpt lat="42.730821" lon="-3.956489">
        <ele>940.94</ele>
        <time>2021-03-27T15:52:44Z</time>
      </trkpt>
      <trkpt lat="42.730869" lon="-3.956252">
        <ele>941.07</ele>
        <time>2021-03-27T15:52:48Z</time>
      </trkpt>
      <trkpt lat="42.730927" lon="-3.955833">
        <ele>940.66</ele>
        <time>2021-03-27T15:52:52Z</time>
      </trkpt>
      <trkpt lat="42.730948" lon="-3.955568">
        <ele>940.59</ele>
        <time>2021-03-27T15:52:55Z</time>
      </trkpt>
      <trkpt lat="42.730934" lon="-3.955335">
        <ele>940.92</ele>
        <time>2021-03-27T15:52:59Z</time>
      </trkpt>
      <trkpt lat="42.730892" lon="-3.955136">
        <ele>942.02</ele>
        <time>2021-03-27T15:53:03Z</time>
      </trkpt>
      <trkpt lat="42.730797" lon="-3.954843">
        <ele>943.77</ele>
        <time>2021-03-27T15:53:07Z</time>
      </trkpt>
      <trkpt lat="42.7307" lon="-3.954613">
        <ele>945.54</ele>
        <time>2021-03-27T15:53:11Z</time>
      </trkpt>
      <trkpt lat="42.730466" lon="-3.954146">
        <ele>949.89</ele>
        <time>2021-03-27T15:53:15Z</time>
      </trkpt>
      <trkpt lat="42.729556" lon="-3.953109">
        <ele>950.51</ele>
        <time>2021-03-27T15:53:19Z</time>
      </trkpt>
      <trkpt lat="42.729484" lon="-3.952983">
        <ele>951.65</ele>
        <time>2021-03-27T15:53:23Z</time>
      </trkpt>
      <trkpt lat="42.729359" lon="-3.952693">
        <ele>954.63</ele>
        <time>2021-03-27T15:53:27Z</time>
      </trkpt>
      <trkpt lat="42.728884" lon="-3.951709">
        <ele>960.97</ele>
        <time>2021-03-27T15:53:31Z</time>
      </trkpt>
      <trkpt lat="42.728787" lon="-3.951542">
        <ele>962.38</ele>
        <time>2021-03-27T15:53:35Z</time>
      </trkpt>
      <trkpt lat="42.728641" lon="-3.951384">
        <ele>965.1</ele>
        <time>2021-03-27T15:53:39Z</time>
      </trkpt>
      <trkpt lat="42.728303" lon="-3.95122">
        <ele>970.31</ele>
        <time>2021-03-27T15:53:43Z</time>
      </trkpt>
      <trkpt lat="42.728243" lon="-3.951141">
        <ele>969.91</ele>
        <time>2021-03-27T15:53:47Z</time>
      </trkpt>
      <trkpt lat="42.728173" lon="-3.95099">
        <ele>969.97</ele>
        <time>2021-03-27T15:53:51Z</time>
      </trkpt>
      <trkpt lat="42.728141" lon="-3.950804">
        <ele>969.83</ele>
        <time>2021-03-27T15:53:55Z</time>
      </trkpt>
      <trkpt lat="42.728145" lon="-3.950612">
        <ele>968.15</ele>
        <time>2021-03-27T15:53:58Z</time>
      </trkpt>
      <trkpt lat="42.728273" lon="-3.949751">
        <ele>960.53</ele>
        <time>2021-03-27T15:54:02Z</time>
      </trkpt>
      <trkpt lat="42.72872" lon="-3.948247">
        <ele>972.81</ele>
        <time>2021-03-27T15:54:06Z</time>
      </trkpt>
      <trkpt lat="42.728785" lon="-3.94807">
        <ele>975.23</ele>
        <time>2021-03-27T15:54:10Z</time>
      </trkpt>
      <trkpt lat="42.729665" lon="-3.946147">
        <ele>987.48</ele>
        <time>2021-03-27T15:54:14Z</time>
      </trkpt>
      <trkpt lat="42.729746" lon="-3.945891">
        <ele>990.97</ele>
        <time>2021-03-27T15:54:18Z</time>
      </trkpt>
      <trkpt lat="42.729799" lon="-3.94562">
        <ele>993.24</ele>
        <time>2021-03-27T15:54:22Z</time>
      </trkpt>
      <trkpt lat="42.729825" lon="-3.945339">
        <ele>994.61</ele>
        <time>2021-03-27T15:54:26Z</time>
      </trkpt>
      <trkpt lat="42.729813" lon="-3.944791">
        <ele>996.67</ele>
        <time>2021-03-27T15:54:30Z</time>
      </trkpt>
      <trkpt lat="42.729873" lon="-3.944453">
        <ele>1000.08</ele>
        <time>2021-03-27T15:54:34Z</time>
      </trkpt>
      <trkpt lat="42.729945" lon="-3.944192">
        <ele>1004.34</ele>
        <time>2021-03-27T15:54:38Z</time>
      </trkpt>
      <trkpt lat="42.72995" lon="-3.944062">
        <ele>1005.61</ele>
        <time>2021-03-27T15:54:42Z</time>
      </trkpt>
      <trkpt lat="42.729922" lon="-3.943921">
        <ele>1005.87</ele>
        <time>2021-03-27T15:54:46Z</time>
      </trkpt>
      <trkpt lat="42.729741" lon="-3.943482">
        <ele>1005.61</ele>
        <time>2021-03-27T15:54:50Z</time>
      </trkpt>
      <trkpt lat="42.729343" lon="-3.942183">
        <ele>1009.85</ele>
        <time>2021-03-27T15:54:54Z</time>
      </trkpt>
      <trkpt lat="42.728745" lon="-3.941474">
        <ele>1006.44</ele>
        <time>2021-03-27T15:54:58Z</time>
      </trkpt>
      <trkpt lat="42.728667" lon="-3.94136">
        <ele>1007.73</ele>
        <time>2021-03-27T15:55:01Z</time>
      </trkpt>
      <trkpt lat="42.728595" lon="-3.941215">
        <ele>1009.07</ele>
        <time>2021-03-27T15:55:05Z</time>
      </trkpt>
      <trkpt lat="42.728352" lon="-3.940045">
        <ele>1015.12</ele>
        <time>2021-03-27T15:55:09Z</time>
      </trkpt>
      <trkpt lat="42.728303" lon="-3.9399">
        <ele>1015.36</ele>
        <time>2021-03-27T15:55:13Z</time>
      </trkpt>
      <trkpt lat="42.727898" lon="-3.939282">
        <ele>1021.42</ele>
        <time>2021-03-27T15:55:17Z</time>
      </trkpt>
      <trkpt lat="42.727796" lon="-3.939153">
        <ele>1022.16</ele>
        <time>2021-03-27T15:55:21Z</time>
      </trkpt>
      <trkpt lat="42.72733" lon="-3.938671">
        <ele>1021.56</ele>
        <time>2021-03-27T15:55:25Z</time>
      </trkpt>
      <trkpt lat="42.727221" lon="-3.938516">
        <ele>1021.34</ele>
        <time>2021-03-27T15:55:29Z</time>
      </trkpt>
      <trkpt lat="42.727022" lon="-3.938169">
        <ele>1021.87</ele>
        <time>2021-03-27T15:55:33Z</time>
      </trkpt>
      <trkpt lat="42.726934" lon="-3.937898">
        <ele>1022.58</ele>
        <time>2021-03-27T15:55:37Z</time>
      </trkpt>
      <trkpt lat="42.726911" lon="-3.937475">
        <ele>1023.08</ele>
        <time>2021-03-27T15:55:41Z</time>
      </trkpt>
      <trkpt lat="42.726922" lon="-3.937229">
        <ele>1023.9</ele>
        <time>2021-03-27T15:55:45Z</time>
      </trkpt>
      <trkpt lat="42.72695" lon="-3.937072">
        <ele>1023.5</ele>
        <time>2021-03-27T15:55:49Z</time>
      </trkpt>
      <trkpt lat="42.727064" lon="-3.936788">
        <ele>1023.62</ele>
        <time>2021-03-27T15:55:53Z</time>
      </trkpt>
      <trkpt lat="42.727844" lon="-3.935729">
        <ele>1027.77</ele>
        <time>2021-03-27T15:55:57Z</time>
      </trkpt>
      <trkpt lat="42.72793" lon="-3.93559">
        <ele>1028.49</ele>
        <time>2021-03-27T15:56:01Z</time>
      </trkpt>
      <trkpt lat="42.728053" lon="-3.935312">
        <ele>1029.01</ele>
        <time>2021-03-27T15:56:04Z</time>
      </trkpt>
      <trkpt lat="42.728081" lon="-3.93512">
        <ele>1030.78</ele>
        <time>2021-03-27T15:56:08Z</time>
      </trkpt>
      <trkpt lat="42.728083" lon="-3.932216">
        <ele>1034.78</ele>
        <time>2021-03-27T15:56:12Z</time>
      </trkpt>
      <trkpt lat="42.728104" lon="-3.931853">
        <ele>1033.83</ele>
        <time>2021-03-27T15:56:16Z</time>
      </trkpt>
      <trkpt lat="42.728917" lon="-3.927278">
        <ele>1036.3</ele>
        <time>2021-03-27T15:56:20Z</time>
      </trkpt>
      <trkpt lat="42.728977" lon="-3.926994">
        <ele>1037.39</ele>
        <time>2021-03-27T15:56:24Z</time>
      </trkpt>
      <trkpt lat="42.729037" lon="-3.926789">
        <ele>1037.76</ele>
        <time>2021-03-27T15:56:28Z</time>
      </trkpt>
      <trkpt lat="42.729195" lon="-3.926506">
        <ele>1038.15</ele>
        <time>2021-03-27T15:56:32Z</time>
      </trkpt>
      <trkpt lat="42.729468" lon="-3.926197">
        <ele>1036.53</ele>
        <time>2021-03-27T15:56:36Z</time>
      </trkpt>
      <trkpt lat="42.731935" lon="-3.923769">
        <ele>1033.58</ele>
        <time>2021-03-27T15:56:40Z</time>
      </trkpt>
      <trkpt lat="42.732053" lon="-3.923633">
        <ele>1033.08</ele>
        <time>2021-03-27T15:56:44Z</time>
      </trkpt>
      <trkpt lat="42.732171" lon="-3.923472">
        <ele>1032.19</ele>
        <time>2021-03-27T15:56:48Z</time>
      </trkpt>
      <trkpt lat="42.7324" lon="-3.923088">
        <ele>1029.08</ele>
        <time>2021-03-27T15:56:52Z</time>
      </trkpt>
      <trkpt lat="42.733195" lon="-3.921716">
        <ele>1032.59</ele>
        <time>2021-03-27T15:56:56Z</time>
      </trkpt>
      <trkpt lat="42.733431" lon="-3.921275">
        <ele>1032.06</ele>
        <time>2021-03-27T15:57:00Z</time>
      </trkpt>
      <trkpt lat="42.734355" lon="-3.919378">
        <ele>1025.27</ele>
        <time>2021-03-27T15:57:04Z</time>
      </trkpt>
      <trkpt lat="42.735735" lon="-3.916627">
        <ele>1033.53</ele>
        <time>2021-03-27T15:57:07Z</time>
      </trkpt>
      <trkpt lat="42.735892" lon="-3.916269">
        <ele>1036.85</ele>
        <time>2021-03-27T15:57:11Z</time>
      </trkpt>
      <trkpt lat="42.735986" lon="-3.91601">
        <ele>1037.74</ele>
        <time>2021-03-27T15:57:15Z</time>
      </trkpt>
      <trkpt lat="42.736179" lon="-3.915329">
        <ele>1040.16</ele>
        <time>2021-03-27T15:57:19Z</time>
      </trkpt>
      <trkpt lat="42.736996" lon="-3.911899">
        <ele>1037.04</ele>
        <time>2021-03-27T15:57:23Z</time>
      </trkpt>
      <trkpt lat="42.737117" lon="-3.911171">
        <ele>1033.51</ele>
        <time>2021-03-27T15:57:27Z</time>
      </trkpt>
      <trkpt lat="42.737269" lon="-3.910763">
        <ele>1033.85</ele>
        <time>2021-03-27T15:57:31Z</time>
      </trkpt>
      <trkpt lat="42.737365" lon="-3.910412">
        <ele>1032.71</ele>
        <time>2021-03-27T15:57:35Z</time>
      </trkpt>
      <trkpt lat="42.737543" lon="-3.910019">
        <ele>1032.85</ele>
        <time>2021-03-27T15:57:39Z</time>
      </trkpt>
      <trkpt lat="42.740917" lon="-3.90446">
        <ele>1045.14</ele>
        <time>2021-03-27T15:57:43Z</time>
      </trkpt>
      <trkpt lat="42.741088" lon="-3.904265">
        <ele>1046.56</ele>
        <time>2021-03-27T15:57:47Z</time>
      </trkpt>
      <trkpt lat="42.742707" lon="-3.90313">
        <ele>1048.55</ele>
        <time>2021-03-27T15:57:51Z</time>
      </trkpt>
      <trkpt lat="42.743015" lon="-3.902963">
        <ele>1048.09</ele>
        <time>2021-03-27T15:57:55Z</time>
      </trkpt>
      <trkpt lat="42.745148" lon="-3.902165">
        <ele>1050.09</ele>
        <time>2021-03-27T15:57:59Z</time>
      </trkpt>
      <trkpt lat="42.747361" lon="-3.901143">
        <ele>1053.5</ele>
        <time>2021-03-27T15:58:03Z</time>
      </trkpt>
      <trkpt lat="42.74888" lon="-3.900408">
        <ele>1055.02</ele>
        <time>2021-03-27T15:58:07Z</time>
      </trkpt>
      <trkpt lat="42.749061" lon="-3.900282">
        <ele>1054.38</ele>
        <time>2021-03-27T15:58:10Z</time>
      </trkpt>
      <trkpt lat="42.749161" lon="-3.900172">
        <ele>1053.65</ele>
        <time>2021-03-27T15:58:14Z</time>
      </trkpt>
      <trkpt lat="42.74932" lon="-3.899929">
        <ele>1051.04</ele>
        <time>2021-03-27T15:58:18Z</time>
      </trkpt>
      <trkpt lat="42.749688" lon="-3.899267">
        <ele>1051.13</ele>
        <time>2021-03-27T15:58:22Z</time>
      </trkpt>
      <trkpt lat="42.751217" lon="-3.896659">
        <ele>1034.53</ele>
        <time>2021-03-27T15:58:26Z</time>
      </trkpt>
      <trkpt lat="42.751515" lon="-3.896246">
        <ele>1034.16</ele>
        <time>2021-03-27T15:58:30Z</time>
      </trkpt>
      <trkpt lat="42.752145" lon="-3.895505">
        <ele>1026.16</ele>
        <time>2021-03-27T15:58:34Z</time>
      </trkpt>
      <trkpt lat="42.752326" lon="-3.895319">
        <ele>1024.63</ele>
        <time>2021-03-27T15:58:38Z</time>
      </trkpt>
      <trkpt lat="42.756114" lon="-3.89238">
        <ele>1013.43</ele>
        <time>2021-03-27T15:58:42Z</time>
      </trkpt>
      <trkpt lat="42.759084" lon="-3.88959">
        <ele>1010.07</ele>
        <time>2021-03-27T15:58:46Z</time>
      </trkpt>
      <trkpt lat="42.759416" lon="-3.889154">
        <ele>1010.29</ele>
        <time>2021-03-27T15:58:50Z</time>
      </trkpt>
      <trkpt lat="42.763064" lon="-3.883752">
        <ele>1006.97</ele>
        <time>2021-03-27T15:58:54Z</time>
      </trkpt>
      <trkpt lat="42.763226" lon="-3.883396">
        <ele>1006.38</ele>
        <time>2021-03-27T15:58:58Z</time>
      </trkpt>
      <trkpt lat="42.763989" lon="-3.880739">
        <ele>1006.21</ele>
        <time>2021-03-27T15:59:02Z</time>
      </trkpt>
      <trkpt lat="42.763989" lon="-3.880739">
        <ele>1006.21</ele>
        <time>2021-03-27T15:59:02Z</time>
      </trkpt>
      <trkpt lat="42.765937" lon="-3.873943">
        <ele>1002.76</ele>
        <time>2021-03-27T15:59:04Z</time>
      </trkpt>
      <trkpt lat="42.766027" lon="-3.873706">
        <ele>1002.5</ele>
        <time>2021-03-27T15:59:06Z</time>
      </trkpt>
      <trkpt lat="42.766304" lon="-3.873115">
        <ele>1003.15</ele>
        <time>2021-03-27T15:59:09Z</time>
      </trkpt>
      <trkpt lat="42.766502" lon="-3.872751">
        <ele>1004.56</ele>
        <time>2021-03-27T15:59:11Z</time>
      </trkpt>
      <trkpt lat="42.766627" lon="-3.872654">
        <ele>1005.36</ele>
        <time>2021-03-27T15:59:14Z</time>
      </trkpt>
      <trkpt lat="42.766759" lon="-3.872603">
        <ele>1006.29</ele>
        <time>2021-03-27T15:59:16Z</time>
      </trkpt>
      <trkpt lat="42.767361" lon="-3.872467">
        <ele>1010.49</ele>
        <time>2021-03-27T15:59:18Z</time>
      </trkpt>
      <trkpt lat="42.767516" lon="-3.872376">
        <ele>1012.09</ele>
        <time>2021-03-27T15:59:21Z</time>
      </trkpt>
      <trkpt lat="42.767692" lon="-3.872212">
        <ele>1012.69</ele>
        <time>2021-03-27T15:59:23Z</time>
      </trkpt>
      <trkpt lat="42.76874" lon="-3.871001">
        <ele>1012.93</ele>
        <time>2021-03-27T15:59:25Z</time>
      </trkpt>
      <trkpt lat="42.768837" lon="-3.870834">
        <ele>1013.63</ele>
        <time>2021-03-27T15:59:28Z</time>
      </trkpt>
      <trkpt lat="42.768895" lon="-3.870654">
        <ele>1013.37</ele>
        <time>2021-03-27T15:59:30Z</time>
      </trkpt>
      <trkpt lat="42.768907" lon="-3.870474">
        <ele>1013.07</ele>
        <time>2021-03-27T15:59:32Z</time>
      </trkpt>
      <trkpt lat="42.768812" lon="-3.869528">
        <ele>1012.22</ele>
        <time>2021-03-27T15:59:35Z</time>
      </trkpt>
      <trkpt lat="42.767919" lon="-3.855749">
        <ele>995.52</ele>
        <time>2021-03-27T15:59:37Z</time>
      </trkpt>
      <trkpt lat="42.767847" lon="-3.855216">
        <ele>995.49</ele>
        <time>2021-03-27T15:59:39Z</time>
      </trkpt>
      <trkpt lat="42.767766" lon="-3.854854">
        <ele>994.89</ele>
        <time>2021-03-27T15:59:42Z</time>
      </trkpt>
      <trkpt lat="42.767414" lon="-3.853759">
        <ele>992.91</ele>
        <time>2021-03-27T15:59:44Z</time>
      </trkpt>
      <trkpt lat="42.767118" lon="-3.851934">
        <ele>984.06</ele>
        <time>2021-03-27T15:59:46Z</time>
      </trkpt>
      <trkpt lat="42.767092" lon="-3.85165">
        <ele>982.07</ele>
        <time>2021-03-27T15:59:49Z</time>
      </trkpt>
      <trkpt lat="42.767099" lon="-3.851215">
        <ele>979.09</ele>
        <time>2021-03-27T15:59:51Z</time>
      </trkpt>
      <trkpt lat="42.767127" lon="-3.850903">
        <ele>977.93</ele>
        <time>2021-03-27T15:59:54Z</time>
      </trkpt>
      <trkpt lat="42.767192" lon="-3.850509">
        <ele>977.06</ele>
        <time>2021-03-27T15:59:56Z</time>
      </trkpt>
      <trkpt lat="42.767381" lon="-3.849566">
        <ele>974.9</ele>
        <time>2021-03-27T15:59:58Z</time>
      </trkpt>
      <trkpt lat="42.76743" lon="-3.848938">
        <ele>971.91</ele>
        <time>2021-03-27T16:00:01Z</time>
      </trkpt>
      <trkpt lat="42.767425" lon="-3.848541">
        <ele>970.78</ele>
        <time>2021-03-27T16:00:03Z</time>
      </trkpt>
      <trkpt lat="42.767377" lon="-3.848194">
        <ele>969.4</ele>
        <time>2021-03-27T16:00:05Z</time>
      </trkpt>
      <trkpt lat="42.767294" lon="-3.847876">
        <ele>966.95</ele>
        <time>2021-03-27T16:00:08Z</time>
      </trkpt>
      <trkpt lat="42.767215" lon="-3.847636">
        <ele>966.4</ele>
        <time>2021-03-27T16:00:10Z</time>
      </trkpt>
      <trkpt lat="42.76712" lon="-3.847434">
        <ele>965.91</ele>
        <time>2021-03-27T16:00:12Z</time>
      </trkpt>
      <trkpt lat="42.766918" lon="-3.847166">
        <ele>964.3</ele>
        <time>2021-03-27T16:00:15Z</time>
      </trkpt>
      <trkpt lat="42.766793" lon="-3.847053">
        <ele>963.87</ele>
        <time>2021-03-27T16:00:17Z</time>
      </trkpt>
      <trkpt lat="42.766488" lon="-3.846879">
        <ele>961.88</ele>
        <time>2021-03-27T16:00:19Z</time>
      </trkpt>
      <trkpt lat="42.766335" lon="-3.846772">
        <ele>960.95</ele>
        <time>2021-03-27T16:00:22Z</time>
      </trkpt>
      <trkpt lat="42.766261" lon="-3.846681">
        <ele>960.59</ele>
        <time>2021-03-27T16:00:24Z</time>
      </trkpt>
      <trkpt lat="42.766203" lon="-3.846567">
        <ele>959.97</ele>
        <time>2021-03-27T16:00:27Z</time>
      </trkpt>
      <trkpt lat="42.766178" lon="-3.846428">
        <ele>959.14</ele>
        <time>2021-03-27T16:00:29Z</time>
      </trkpt>
      <trkpt lat="42.766175" lon="-3.846233">
        <ele>959.36</ele>
        <time>2021-03-27T16:00:31Z</time>
      </trkpt>
      <trkpt lat="42.766347" lon="-3.845457">
        <ele>960.4</ele>
        <time>2021-03-27T16:00:34Z</time>
      </trkpt>
      <trkpt lat="42.766363" lon="-3.845265">
        <ele>960.22</ele>
        <time>2021-03-27T16:00:36Z</time>
      </trkpt>
      <trkpt lat="42.766333" lon="-3.844628">
        <ele>958.6</ele>
        <time>2021-03-27T16:00:38Z</time>
      </trkpt>
      <trkpt lat="42.7663" lon="-3.844483">
        <ele>958.36</ele>
        <time>2021-03-27T16:00:41Z</time>
      </trkpt>
      <trkpt lat="42.766238" lon="-3.844354">
        <ele>958.11</ele>
        <time>2021-03-27T16:00:43Z</time>
      </trkpt>
      <trkpt lat="42.766171" lon="-3.844287">
        <ele>957.65</ele>
        <time>2021-03-27T16:00:45Z</time>
      </trkpt>
      <trkpt lat="42.766083" lon="-3.84424">
        <ele>957.15</ele>
        <time>2021-03-27T16:00:48Z</time>
      </trkpt>
      <trkpt lat="42.765932" lon="-3.844224">
        <ele>957.11</ele>
        <time>2021-03-27T16:00:50Z</time>
      </trkpt>
      <trkpt lat="42.765597" lon="-3.844458">
        <ele>953.06</ele>
        <time>2021-03-27T16:00:52Z</time>
      </trkpt>
      <trkpt lat="42.765409" lon="-3.844559">
        <ele>951.3</ele>
        <time>2021-03-27T16:00:55Z</time>
      </trkpt>
      <trkpt lat="42.765303" lon="-3.844596">
        <ele>949.91</ele>
        <time>2021-03-27T16:00:57Z</time>
      </trkpt>
      <trkpt lat="42.765206" lon="-3.844578">
        <ele>949.07</ele>
        <time>2021-03-27T16:01:00Z</time>
      </trkpt>
      <trkpt lat="42.765122" lon="-3.844533">
        <ele>948.18</ele>
        <time>2021-03-27T16:01:02Z</time>
      </trkpt>
      <trkpt lat="42.764877" lon="-3.844265">
        <ele>949.61</ele>
        <time>2021-03-27T16:01:04Z</time>
      </trkpt>
      <trkpt lat="42.764745" lon="-3.84407">
        <ele>950.77</ele>
        <time>2021-03-27T16:01:07Z</time>
      </trkpt>
      <trkpt lat="42.764668" lon="-3.843931">
        <ele>950.43</ele>
        <time>2021-03-27T16:01:09Z</time>
      </trkpt>
      <trkpt lat="42.764462" lon="-3.843404">
        <ele>948.34</ele>
        <time>2021-03-27T16:01:11Z</time>
      </trkpt>
      <trkpt lat="42.764037" lon="-3.842607">
        <ele>945.26</ele>
        <time>2021-03-27T16:01:14Z</time>
      </trkpt>
      <trkpt lat="42.763935" lon="-3.842465">
        <ele>944.46</ele>
        <time>2021-03-27T16:01:16Z</time>
      </trkpt>
      <trkpt lat="42.763819" lon="-3.84238">
        <ele>945.55</ele>
        <time>2021-03-27T16:01:18Z</time>
      </trkpt>
      <trkpt lat="42.763592" lon="-3.842295">
        <ele>945.64</ele>
        <time>2021-03-27T16:01:21Z</time>
      </trkpt>
      <trkpt lat="42.763108" lon="-3.842263">
        <ele>942.77</ele>
        <time>2021-03-27T16:01:23Z</time>
      </trkpt>
      <trkpt lat="42.761967" lon="-3.842137">
        <ele>937.41</ele>
        <time>2021-03-27T16:01:25Z</time>
      </trkpt>
      <trkpt lat="42.76187" lon="-3.842086">
        <ele>937.64</ele>
        <time>2021-03-27T16:01:28Z</time>
      </trkpt>
      <trkpt lat="42.761726" lon="-3.841976">
        <ele>936.76</ele>
        <time>2021-03-27T16:01:30Z</time>
      </trkpt>
      <trkpt lat="42.761409" lon="-3.841636">
        <ele>939.07</ele>
        <time>2021-03-27T16:01:32Z</time>
      </trkpt>
      <trkpt lat="42.760941" lon="-3.840835">
        <ele>937.16</ele>
        <time>2021-03-27T16:01:35Z</time>
      </trkpt>
      <trkpt lat="42.760844" lon="-3.840677">
        <ele>937.87</ele>
        <time>2021-03-27T16:01:37Z</time>
      </trkpt>
      <trkpt lat="42.7608" lon="-3.840639">
        <ele>937.76</ele>
        <time>2021-03-27T16:01:40Z</time>
      </trkpt>
      <trkpt lat="42.760715" lon="-3.840584">
        <ele>937.16</ele>
        <time>2021-03-27T16:01:42Z</time>
      </trkpt>
      <trkpt lat="42.760625" lon="-3.840559">
        <ele>936.0</ele>
        <time>2021-03-27T16:01:44Z</time>
      </trkpt>
      <trkpt lat="42.760484" lon="-3.840578">
        <ele>934.33</ele>
        <time>2021-03-27T16:01:47Z</time>
      </trkpt>
      <trkpt lat="42.760021" lon="-3.84071">
        <ele>931.78</ele>
        <time>2021-03-27T16:01:49Z</time>
      </trkpt>
      <trkpt lat="42.759919" lon="-3.84072">
        <ele>931.78</ele>
        <time>2021-03-27T16:01:51Z</time>
      </trkpt>
      <trkpt lat="42.759815" lon="-3.840692">
        <ele>931.47</ele>
        <time>2021-03-27T16:01:54Z</time>
      </trkpt>
      <trkpt lat="42.759592" lon="-3.840521">
        <ele>929.54</ele>
        <time>2021-03-27T16:01:56Z</time>
      </trkpt>
      <trkpt lat="42.759495" lon="-3.840398">
        <ele>928.82</ele>
        <time>2021-03-27T16:01:58Z</time>
      </trkpt>
      <trkpt lat="42.759433" lon="-3.840231">
        <ele>928.36</ele>
        <time>2021-03-27T16:02:01Z</time>
      </trkpt>
      <trkpt lat="42.759312" lon="-3.839793">
        <ele>930.11</ele>
        <time>2021-03-27T16:02:03Z</time>
      </trkpt>
      <trkpt lat="42.759273" lon="-3.839512">
        <ele>930.76</ele>
        <time>2021-03-27T16:02:05Z</time>
      </trkpt>
      <trkpt lat="42.759261" lon="-3.839235">
        <ele>930.5</ele>
        <time>2021-03-27T16:02:08Z</time>
      </trkpt>
      <trkpt lat="42.759273" lon="-3.838992">
        <ele>930.14</ele>
        <time>2021-03-27T16:02:10Z</time>
      </trkpt>
      <trkpt lat="42.759345" lon="-3.838541">
        <ele>930.97</ele>
        <time>2021-03-27T16:02:13Z</time>
      </trkpt>
      <trkpt lat="42.759602" lon="-3.83745">
        <ele>928.86</ele>
        <time>2021-03-27T16:02:15Z</time>
      </trkpt>
      <trkpt lat="42.759773" lon="-3.836999">
        <ele>923.64</ele>
        <time>2021-03-27T16:02:17Z</time>
      </trkpt>
      <trkpt lat="42.759893" lon="-3.836801">
        <ele>923.67</ele>
        <time>2021-03-27T16:02:20Z</time>
      </trkpt>
      <trkpt lat="42.760199" lon="-3.836397">
        <ele>922.63</ele>
        <time>2021-03-27T16:02:22Z</time>
      </trkpt>
      <trkpt lat="42.760373" lon="-3.836277">
        <ele>921.79</ele>
        <time>2021-03-27T16:02:24Z</time>
      </trkpt>
      <trkpt lat="42.760917" lon="-3.835971">
        <ele>920.24</ele>
        <time>2021-03-27T16:02:27Z</time>
      </trkpt>
      <trkpt lat="42.76106" lon="-3.835833">
        <ele>918.81</ele>
        <time>2021-03-27T16:02:29Z</time>
      </trkpt>
      <trkpt lat="42.761167" lon="-3.835694">
        <ele>918.2</ele>
        <time>2021-03-27T16:02:31Z</time>
      </trkpt>
      <trkpt lat="42.761241" lon="-3.835555">
        <ele>917.8</ele>
        <time>2021-03-27T16:02:34Z</time>
      </trkpt>
      <trkpt lat="42.761301" lon="-3.835385">
        <ele>917.45</ele>
        <time>2021-03-27T16:02:36Z</time>
      </trkpt>
      <trkpt lat="42.761345" lon="-3.835196">
        <ele>916.51</ele>
        <time>2021-03-27T16:02:38Z</time>
      </trkpt>
      <trkpt lat="42.761368" lon="-3.834984">
        <ele>914.87</ele>
        <time>2021-03-27T16:02:41Z</time>
      </trkpt>
      <trkpt lat="42.761359" lon="-3.833755">
        <ele>914.97</ele>
        <time>2021-03-27T16:02:43Z</time>
      </trkpt>
      <trkpt lat="42.761368" lon="-3.833537">
        <ele>915.21</ele>
        <time>2021-03-27T16:02:45Z</time>
      </trkpt>
      <trkpt lat="42.761396" lon="-3.833386">
        <ele>914.2</ele>
        <time>2021-03-27T16:02:48Z</time>
      </trkpt>
      <trkpt lat="42.761461" lon="-3.833203">
        <ele>913.86</ele>
        <time>2021-03-27T16:02:50Z</time>
      </trkpt>
      <trkpt lat="42.761535" lon="-3.833102">
        <ele>912.65</ele>
        <time>2021-03-27T16:02:53Z</time>
      </trkpt>
      <trkpt lat="42.761701" lon="-3.832976">
        <ele>910.27</ele>
        <time>2021-03-27T16:02:55Z</time>
      </trkpt>
      <trkpt lat="42.762218" lon="-3.832818">
        <ele>908.87</ele>
        <time>2021-03-27T16:02:57Z</time>
      </trkpt>
      <trkpt lat="42.762306" lon="-3.832768">
        <ele>908.86</ele>
        <time>2021-03-27T16:03:00Z</time>
      </trkpt>
      <trkpt lat="42.762396" lon="-3.832667">
        <ele>908.88</ele>
        <time>2021-03-27T16:03:02Z</time>
      </trkpt>
      <trkpt lat="42.762463" lon="-3.832553">
        <ele>907.8</ele>
        <time>2021-03-27T16:03:04Z</time>
      </trkpt>
      <trkpt lat="42.762676" lon="-3.831986">
        <ele>907.85</ele>
        <time>2021-03-27T16:03:07Z</time>
      </trkpt>
      <trkpt lat="42.762787" lon="-3.831781">
        <ele>907.07</ele>
        <time>2021-03-27T16:03:09Z</time>
      </trkpt>
      <trkpt lat="42.763704" lon="-3.830403">
        <ele>899.36</ele>
        <time>2021-03-27T16:03:11Z</time>
      </trkpt>
      <trkpt lat="42.76387" lon="-3.830195">
        <ele>898.48</ele>
        <time>2021-03-27T16:03:14Z</time>
      </trkpt>
      <trkpt lat="42.763984" lon="-3.830097">
        <ele>898.69</ele>
        <time>2021-03-27T16:03:16Z</time>
      </trkpt>
      <trkpt lat="42.764602" lon="-3.829668">
        <ele>895.94</ele>
        <time>2021-03-27T16:03:18Z</time>
      </trkpt>
      <trkpt lat="42.764702" lon="-3.829564">
        <ele>895.33</ele>
        <time>2021-03-27T16:03:21Z</time>
      </trkpt>
      <trkpt lat="42.76479" lon="-3.829432">
        <ele>895.26</ele>
        <time>2021-03-27T16:03:23Z</time>
      </trkpt>
      <trkpt lat="42.764843" lon="-3.829296">
        <ele>895.27</ele>
        <time>2021-03-27T16:03:26Z</time>
      </trkpt>
      <trkpt lat="42.764982" lon="-3.828426">
        <ele>893.41</ele>
        <time>2021-03-27T16:03:28Z</time>
      </trkpt>
      <trkpt lat="42.765037" lon="-3.828183">
        <ele>893.47</ele>
        <time>2021-03-27T16:03:30Z</time>
      </trkpt>
      <trkpt lat="42.765433" lon="-3.827272">
        <ele>891.52</ele>
        <time>2021-03-27T16:03:33Z</time>
      </trkpt>
      <trkpt lat="42.765512" lon="-3.827026">
        <ele>889.5</ele>
        <time>2021-03-27T16:03:35Z</time>
      </trkpt>
      <trkpt lat="42.76554" lon="-3.82683">
        <ele>888.42</ele>
        <time>2021-03-27T16:03:37Z</time>
      </trkpt>
      <trkpt lat="42.765526" lon="-3.826203">
        <ele>884.88</ele>
        <time>2021-03-27T16:03:40Z</time>
      </trkpt>
      <trkpt lat="42.765502" lon="-3.825947">
        <ele>883.12</ele>
        <time>2021-03-27T16:03:42Z</time>
      </trkpt>
      <trkpt lat="42.765461" lon="-3.825755">
        <ele>882.47</ele>
        <time>2021-03-27T16:03:44Z</time>
      </trkpt>
      <trkpt lat="42.76541" lon="-3.82562">
        <ele>882.16</ele>
        <time>2021-03-27T16:03:47Z</time>
      </trkpt>
      <trkpt lat="42.765273" lon="-3.825408">
        <ele>880.95</ele>
        <time>2021-03-27T16:03:49Z</time>
      </trkpt>
      <trkpt lat="42.764776" lon="-3.82492">
        <ele>882.72</ele>
        <time>2021-03-27T16:03:51Z</time>
      </trkpt>
      <trkpt lat="42.764688" lon="-3.8248">
        <ele>882.44</ele>
        <time>2021-03-27T16:03:54Z</time>
      </trkpt>
      <trkpt lat="42.76448" lon="-3.824365">
        <ele>879.43</ele>
        <time>2021-03-27T16:03:56Z</time>
      </trkpt>
      <trkpt lat="42.764317" lon="-3.824068">
        <ele>877.11</ele>
        <time>2021-03-27T16:03:58Z</time>
      </trkpt>
      <trkpt lat="42.764153" lon="-3.823907">
        <ele>875.02</ele>
        <time>2021-03-27T16:04:01Z</time>
      </trkpt>
      <trkpt lat="42.764067" lon="-3.82386">
        <ele>874.78</ele>
        <time>2021-03-27T16:04:03Z</time>
      </trkpt>
      <trkpt lat="42.763968" lon="-3.823838">
        <ele>874.39</ele>
        <time>2021-03-27T16:04:06Z</time>
      </trkpt>
      <trkpt lat="42.763581" lon="-3.823942">
        <ele>876.07</ele>
        <time>2021-03-27T16:04:08Z</time>
      </trkpt>
      <trkpt lat="42.76347" lon="-3.823926">
        <ele>876.8</ele>
        <time>2021-03-27T16:04:10Z</time>
      </trkpt>
      <trkpt lat="42.763373" lon="-3.82387">
        <ele>876.35</ele>
        <time>2021-03-27T16:04:13Z</time>
      </trkpt>
      <trkpt lat="42.762933" lon="-3.82351">
        <ele>872.39</ele>
        <time>2021-03-27T16:04:15Z</time>
      </trkpt>
      <trkpt lat="42.762546" lon="-3.823125">
        <ele>869.34</ele>
        <time>2021-03-27T16:04:17Z</time>
      </trkpt>
      <trkpt lat="42.762428" lon="-3.822984">
        <ele>870.35</ele>
        <time>2021-03-27T16:04:20Z</time>
      </trkpt>
      <trkpt lat="42.762285" lon="-3.822709">
        <ele>872.79</ele>
        <time>2021-03-27T16:04:22Z</time>
      </trkpt>
      <trkpt lat="42.762146" lon="-3.822346">
        <ele>873.61</ele>
        <time>2021-03-27T16:04:24Z</time>
      </trkpt>
      <trkpt lat="42.762074" lon="-3.822094">
        <ele>873.45</ele>
        <time>2021-03-27T16:04:27Z</time>
      </trkpt>
      <trkpt lat="42.761805" lon="-3.820937">
        <ele>877.8</ele>
        <time>2021-03-27T16:04:29Z</time>
      </trkpt>
      <trkpt lat="42.761778" lon="-3.820704">
        <ele>877.01</ele>
        <time>2021-03-27T16:04:31Z</time>
      </trkpt>
      <trkpt lat="42.761801" lon="-3.820474">
        <ele>873.32</ele>
        <time>2021-03-27T16:04:34Z</time>
      </trkpt>
      <trkpt lat="42.761917" lon="-3.81995">
        <ele>865.48</ele>
        <time>2021-03-27T16:04:36Z</time>
      </trkpt>
      <trkpt lat="42.761912" lon="-3.819862">
        <ele>864.88</ele>
        <time>2021-03-27T16:04:39Z</time>
      </trkpt>
      <trkpt lat="42.761884" lon="-3.819799">
        <ele>865.03</ele>
        <time>2021-03-27T16:04:41Z</time>
      </trkpt>
      <trkpt lat="42.76184" lon="-3.819761">
        <ele>865.68</ele>
        <time>2021-03-27T16:04:43Z</time>
      </trkpt>
      <trkpt lat="42.761623" lon="-3.819761">
        <ele>870.19</ele>
        <time>2021-03-27T16:04:46Z</time>
      </trkpt>
      <trkpt lat="42.761222" lon="-3.819915">
        <ele>879.41</ele>
        <time>2021-03-27T16:04:48Z</time>
      </trkpt>
      <trkpt lat="42.761174" lon="-3.819915">
        <ele>880.35</ele>
        <time>2021-03-27T16:04:50Z</time>
      </trkpt>
      <trkpt lat="42.761118" lon="-3.819884">
        <ele>880.53</ele>
        <time>2021-03-27T16:04:53Z</time>
      </trkpt>
      <trkpt lat="42.761072" lon="-3.819811">
        <ele>880.04</ele>
        <time>2021-03-27T16:04:55Z</time>
      </trkpt>
      <trkpt lat="42.761039" lon="-3.819695">
        <ele>878.78</ele>
        <time>2021-03-27T16:04:57Z</time>
      </trkpt>
      <trkpt lat="42.761" lon="-3.819301">
        <ele>876.78</ele>
        <time>2021-03-27T16:05:00Z</time>
      </trkpt>
      <trkpt lat="42.760886" lon="-3.818686">
        <ele>879.52</ele>
        <time>2021-03-27T16:05:02Z</time>
      </trkpt>
      <trkpt lat="42.760877" lon="-3.818579">
        <ele>879.63</ele>
        <time>2021-03-27T16:05:04Z</time>
      </trkpt>
      <trkpt lat="42.760896" lon="-3.818433">
        <ele>879.88</ele>
        <time>2021-03-27T16:05:07Z</time>
      </trkpt>
      <trkpt lat="42.761005" lon="-3.81803">
        <ele>880.77</ele>
        <time>2021-03-27T16:05:09Z</time>
      </trkpt>
      <trkpt lat="42.761245" lon="-3.817541">
        <ele>882.05</ele>
        <time>2021-03-27T16:05:11Z</time>
      </trkpt>
      <trkpt lat="42.761308" lon="-3.817368">
        <ele>881.51</ele>
        <time>2021-03-27T16:05:14Z</time>
      </trkpt>
      <trkpt lat="42.761651" lon="-3.816037">
        <ele>886.74</ele>
        <time>2021-03-27T16:05:16Z</time>
      </trkpt>
      <trkpt lat="42.762023" lon="-3.815015">
        <ele>887.1</ele>
        <time>2021-03-27T16:05:19Z</time>
      </trkpt>
      <trkpt lat="42.762072" lon="-3.814814">
        <ele>885.66</ele>
        <time>2021-03-27T16:05:21Z</time>
      </trkpt>
      <trkpt lat="42.762097" lon="-3.81458">
        <ele>884.68</ele>
        <time>2021-03-27T16:05:23Z</time>
      </trkpt>
      <trkpt lat="42.762093" lon="-3.814337">
        <ele>883.71</ele>
        <time>2021-03-27T16:05:26Z</time>
      </trkpt>
      <trkpt lat="42.76194" lon="-3.812925">
        <ele>881.13</ele>
        <time>2021-03-27T16:05:28Z</time>
      </trkpt>
      <trkpt lat="42.761931" lon="-3.812304">
        <ele>879.49</ele>
        <time>2021-03-27T16:05:30Z</time>
      </trkpt>
      <trkpt lat="42.761947" lon="-3.81207">
        <ele>879.47</ele>
        <time>2021-03-27T16:05:33Z</time>
      </trkpt>
      <trkpt lat="42.761982" lon="-3.811837">
        <ele>879.49</ele>
        <time>2021-03-27T16:05:35Z</time>
      </trkpt>
      <trkpt lat="42.762333" lon="-3.810254">
        <ele>875.51</ele>
        <time>2021-03-27T16:05:37Z</time>
      </trkpt>
      <trkpt lat="42.762389" lon="-3.809759">
        <ele>872.18</ele>
        <time>2021-03-27T16:05:40Z</time>
      </trkpt>
      <trkpt lat="42.762394" lon="-3.809062">
        <ele>873.07</ele>
        <time>2021-03-27T16:05:42Z</time>
      </trkpt>
      <trkpt lat="42.762384" lon="-3.808886">
        <ele>872.28</ele>
        <time>2021-03-27T16:05:44Z</time>
      </trkpt>
      <trkpt lat="42.762313" lon="-3.808542">
        <ele>869.48</ele>
        <time>2021-03-27T16:05:47Z</time>
      </trkpt>
      <trkpt lat="42.762243" lon="-3.808397">
        <ele>869.37</ele>
        <time>2021-03-27T16:05:49Z</time>
      </trkpt>
      <trkpt lat="42.761991" lon="-3.808015">
        <ele>869.18</ele>
        <time>2021-03-27T16:05:52Z</time>
      </trkpt>
      <trkpt lat="42.761171" lon="-3.806082">
        <ele>867.03</ele>
        <time>2021-03-27T16:05:54Z</time>
      </trkpt>
      <trkpt lat="42.761097" lon="-3.80571">
        <ele>862.76</ele>
        <time>2021-03-27T16:05:56Z</time>
      </trkpt>
      <trkpt lat="42.761016" lon="-3.804998">
        <ele>856.37</ele>
        <time>2021-03-27T16:05:59Z</time>
      </trkpt>
      <trkpt lat="42.760979" lon="-3.804818">
        <ele>855.08</ele>
        <time>2021-03-27T16:06:01Z</time>
      </trkpt>
      <trkpt lat="42.76093" lon="-3.804686">
        <ele>853.86</ele>
        <time>2021-03-27T16:06:03Z</time>
      </trkpt>
      <trkpt lat="42.760852" lon="-3.804538">
        <ele>851.26</ele>
        <time>2021-03-27T16:06:06Z</time>
      </trkpt>
      <trkpt lat="42.760771" lon="-3.80444">
        <ele>849.14</ele>
        <time>2021-03-27T16:06:08Z</time>
      </trkpt>
      <trkpt lat="42.759914" lon="-3.803844">
        <ele>847.55</ele>
        <time>2021-03-27T16:06:10Z</time>
      </trkpt>
      <trkpt lat="42.759671" lon="-3.803724">
        <ele>842.03</ele>
        <time>2021-03-27T16:06:13Z</time>
      </trkpt>
      <trkpt lat="42.759548" lon="-3.803686">
        <ele>839.55</ele>
        <time>2021-03-27T16:06:15Z</time>
      </trkpt>
      <trkpt lat="42.759264" lon="-3.803658">
        <ele>837.03</ele>
        <time>2021-03-27T16:06:17Z</time>
      </trkpt>
      <trkpt lat="42.759058" lon="-3.803699">
        <ele>838.04</ele>
        <time>2021-03-27T16:06:20Z</time>
      </trkpt>
      <trkpt lat="42.758715" lon="-3.803592">
        <ele>832.6</ele>
        <time>2021-03-27T16:06:22Z</time>
      </trkpt>
      <trkpt lat="42.758625" lon="-3.803601">
        <ele>831.89</ele>
        <time>2021-03-27T16:06:24Z</time>
      </trkpt>
      <trkpt lat="42.758486" lon="-3.803651">
        <ele>831.44</ele>
        <time>2021-03-27T16:06:27Z</time>
      </trkpt>
      <trkpt lat="42.757849" lon="-3.803982">
        <ele>827.82</ele>
        <time>2021-03-27T16:06:29Z</time>
      </trkpt>
      <trkpt lat="42.757382" lon="-3.804361">
        <ele>821.23</ele>
        <time>2021-03-27T16:06:32Z</time>
      </trkpt>
      <trkpt lat="42.756372" lon="-3.805348">
        <ele>813.49</ele>
        <time>2021-03-27T16:06:34Z</time>
      </trkpt>
      <trkpt lat="42.755765" lon="-3.806073">
        <ele>810.67</ele>
        <time>2021-03-27T16:06:36Z</time>
      </trkpt>
      <trkpt lat="42.7554" lon="-3.806316">
        <ele>803.88</ele>
        <time>2021-03-27T16:06:39Z</time>
      </trkpt>
      <trkpt lat="42.755062" lon="-3.806631">
        <ele>800.24</ele>
        <time>2021-03-27T16:06:41Z</time>
      </trkpt>
      <trkpt lat="42.754944" lon="-3.806789">
        <ele>797.94</ele>
        <time>2021-03-27T16:06:43Z</time>
      </trkpt>
      <trkpt lat="42.754754" lon="-3.80717">
        <ele>794.93</ele>
        <time>2021-03-27T16:06:46Z</time>
      </trkpt>
      <trkpt lat="42.754721" lon="-3.807375">
        <ele>795.63</ele>
        <time>2021-03-27T16:06:48Z</time>
      </trkpt>
      <trkpt lat="42.754705" lon="-3.807911">
        <ele>801.01</ele>
        <time>2021-03-27T16:06:50Z</time>
      </trkpt>
      <trkpt lat="42.754684" lon="-3.808022">
        <ele>801.78</ele>
        <time>2021-03-27T16:06:53Z</time>
      </trkpt>
      <trkpt lat="42.75464" lon="-3.808088">
        <ele>801.85</ele>
        <time>2021-03-27T16:06:55Z</time>
      </trkpt>
      <trkpt lat="42.754562" lon="-3.808138">
        <ele>801.2</ele>
        <time>2021-03-27T16:06:57Z</time>
      </trkpt>
      <trkpt lat="42.754478" lon="-3.808142">
        <ele>799.55</ele>
        <time>2021-03-27T16:07:00Z</time>
      </trkpt>
      <trkpt lat="42.753761" lon="-3.807773">
        <ele>786.74</ele>
        <time>2021-03-27T16:07:02Z</time>
      </trkpt>
      <trkpt lat="42.753415" lon="-3.807653">
        <ele>784.46</ele>
        <time>2021-03-27T16:07:05Z</time>
      </trkpt>
      <trkpt lat="42.75302" lon="-3.807555">
        <ele>781.28</ele>
        <time>2021-03-27T16:07:07Z</time>
      </trkpt>
      <trkpt lat="42.752723" lon="-3.807505">
        <ele>778.22</ele>
        <time>2021-03-27T16:07:09Z</time>
      </trkpt>
      <trkpt lat="42.75226" lon="-3.80747">
        <ele>779.51</ele>
        <time>2021-03-27T16:07:12Z</time>
      </trkpt>
      <trkpt lat="42.752179" lon="-3.807438">
        <ele>779.99</ele>
        <time>2021-03-27T16:07:14Z</time>
      </trkpt>
      <trkpt lat="42.752103" lon="-3.807363">
        <ele>779.29</ele>
        <time>2021-03-27T16:07:16Z</time>
      </trkpt>
      <trkpt lat="42.751965" lon="-3.80715">
        <ele>775.41</ele>
        <time>2021-03-27T16:07:19Z</time>
      </trkpt>
      <trkpt lat="42.751434" lon="-3.806089">
        <ele>765.21</ele>
        <time>2021-03-27T16:07:21Z</time>
      </trkpt>
      <trkpt lat="42.751158" lon="-3.805496">
        <ele>767.18</ele>
        <time>2021-03-27T16:07:23Z</time>
      </trkpt>
      <trkpt lat="42.751084" lon="-3.805291">
        <ele>766.37</ele>
        <time>2021-03-27T16:07:26Z</time>
      </trkpt>
      <trkpt lat="42.750984" lon="-3.804938">
        <ele>761.21</ele>
        <time>2021-03-27T16:07:28Z</time>
      </trkpt>
      <trkpt lat="42.75076" lon="-3.804036">
        <ele>760.89</ele>
        <time>2021-03-27T16:07:30Z</time>
      </trkpt>
      <trkpt lat="42.750468" lon="-3.802523">
        <ele>747.73</ele>
        <time>2021-03-27T16:07:33Z</time>
      </trkpt>
      <trkpt lat="42.750232" lon="-3.801996">
        <ele>748.09</ele>
        <time>2021-03-27T16:07:35Z</time>
      </trkpt>
      <trkpt lat="42.7502" lon="-3.801892">
        <ele>747.02</ele>
        <time>2021-03-27T16:07:37Z</time>
      </trkpt>
      <trkpt lat="42.750192" lon="-3.801788">
        <ele>745.17</ele>
        <time>2021-03-27T16:07:40Z</time>
      </trkpt>
      <trkpt lat="42.750216" lon="-3.801722">
        <ele>742.82</ele>
        <time>2021-03-27T16:07:42Z</time>
      </trkpt>
      <trkpt lat="42.750264" lon="-3.801684">
        <ele>739.95</ele>
        <time>2021-03-27T16:07:45Z</time>
      </trkpt>
      <trkpt lat="42.750315" lon="-3.801684">
        <ele>737.22</ele>
        <time>2021-03-27T16:07:47Z</time>
      </trkpt>
      <trkpt lat="42.750361" lon="-3.801715">
        <ele>735.23</ele>
        <time>2021-03-27T16:07:49Z</time>
      </trkpt>
      <trkpt lat="42.750406" lon="-3.801785">
        <ele>734.19</ele>
        <time>2021-03-27T16:07:52Z</time>
      </trkpt>
      <trkpt lat="42.750727" lon="-3.802655">
        <ele>736.91</ele>
        <time>2021-03-27T16:07:54Z</time>
      </trkpt>
      <trkpt lat="42.750975" lon="-3.803261">
        <ele>733.35</ele>
        <time>2021-03-27T16:07:56Z</time>
      </trkpt>
      <trkpt lat="42.751158" lon="-3.803645">
        <ele>727.73</ele>
        <time>2021-03-27T16:07:59Z</time>
      </trkpt>
      <trkpt lat="42.75135" lon="-3.804001">
        <ele>726.1</ele>
        <time>2021-03-27T16:08:01Z</time>
      </trkpt>
      <trkpt lat="42.751767" lon="-3.804582">
        <ele>723.07</ele>
        <time>2021-03-27T16:08:03Z</time>
      </trkpt>
      <trkpt lat="42.751894" lon="-3.804695">
        <ele>721.86</ele>
        <time>2021-03-27T16:08:06Z</time>
      </trkpt>
      <trkpt lat="42.752087" lon="-3.804815">
        <ele>719.94</ele>
        <time>2021-03-27T16:08:08Z</time>
      </trkpt>
      <trkpt lat="42.752269" lon="-3.804897">
        <ele>718.01</ele>
        <time>2021-03-27T16:08:10Z</time>
      </trkpt>
      <trkpt lat="42.752394" lon="-3.804906">
        <ele>716.79</ele>
        <time>2021-03-27T16:08:13Z</time>
      </trkpt>
      <trkpt lat="42.752561" lon="-3.804847">
        <ele>714.69</ele>
        <time>2021-03-27T16:08:15Z</time>
      </trkpt>
      <trkpt lat="42.753997" lon="-3.804027">
        <ele>704.25</ele>
        <time>2021-03-27T16:08:18Z</time>
      </trkpt>
      <trkpt lat="42.754337" lon="-3.803759">
        <ele>698.72</ele>
        <time>2021-03-27T16:08:20Z</time>
      </trkpt>
      <trkpt lat="42.755469" lon="-3.802482">
        <ele>690.73</ele>
        <time>2021-03-27T16:08:22Z</time>
      </trkpt>
      <trkpt lat="42.755705" lon="-3.802122">
        <ele>688.08</ele>
        <time>2021-03-27T16:08:25Z</time>
      </trkpt>
      <trkpt lat="42.755717" lon="-3.802005">
        <ele>686.24</ele>
        <time>2021-03-27T16:08:27Z</time>
      </trkpt>
      <trkpt lat="42.75567" lon="-3.801796">
        <ele>684.83</ele>
        <time>2021-03-27T16:08:29Z</time>
      </trkpt>
      <trkpt lat="42.756049" lon="-3.801562">
        <ele>688.04</ele>
        <time>2021-03-27T16:08:34Z</time>
      </trkpt>
      <trkpt lat="42.75627" lon="-3.801333">
        <ele>690.23</ele>
        <time>2021-03-27T16:08:38Z</time>
      </trkpt>
      <trkpt lat="42.756654" lon="-3.800844">
        <ele>689.97</ele>
        <time>2021-03-27T16:08:43Z</time>
      </trkpt>
      <trkpt lat="42.756844" lon="-3.800669">
        <ele>691.17</ele>
        <time>2021-03-27T16:08:47Z</time>
      </trkpt>
      <trkpt lat="42.757134" lon="-3.800497">
        <ele>692.11</ele>
        <time>2021-03-27T16:08:51Z</time>
      </trkpt>
      <trkpt lat="42.757706" lon="-3.800239">
        <ele>690.49</ele>
        <time>2021-03-27T16:08:56Z</time>
      </trkpt>
      <trkpt lat="42.757876" lon="-3.800119">
        <ele>691.28</ele>
        <time>2021-03-27T16:09:00Z</time>
      </trkpt>
      <trkpt lat="42.75979" lon="-3.798507">
        <ele>682.34</ele>
        <time>2021-03-27T16:09:04Z</time>
      </trkpt>
      <trkpt lat="42.761148" lon="-3.797391">
        <ele>681.03</ele>
        <time>2021-03-27T16:09:09Z</time>
      </trkpt>
      <trkpt lat="42.761492" lon="-3.797144">
        <ele>682.34</ele>
        <time>2021-03-27T16:09:13Z</time>
      </trkpt>
      <trkpt lat="42.761718" lon="-3.797036">
        <ele>682.5</ele>
        <time>2021-03-27T16:09:17Z</time>
      </trkpt>
      <trkpt lat="42.76247" lon="-3.79681">
        <ele>683.34</ele>
        <time>2021-03-27T16:09:22Z</time>
      </trkpt>
      <trkpt lat="42.762714" lon="-3.79666">
        <ele>683.71</ele>
        <time>2021-03-27T16:09:26Z</time>
      </trkpt>
      <trkpt lat="42.763004" lon="-3.79633">
        <ele>682.76</ele>
        <time>2021-03-27T16:09:30Z</time>
      </trkpt>
      <trkpt lat="42.763207" lon="-3.796019">
        <ele>685.68</ele>
        <time>2021-03-27T16:09:35Z</time>
      </trkpt>
      <trkpt lat="42.763441" lon="-3.795401">
        <ele>686.49</ele>
        <time>2021-03-27T16:09:39Z</time>
      </trkpt>
      <trkpt lat="42.763665" lon="-3.794861">
        <ele>685.36</ele>
        <time>2021-03-27T16:09:44Z</time>
      </trkpt>
      <trkpt lat="42.764486" lon="-3.792255">
        <ele>691.25</ele>
        <time>2021-03-27T16:09:48Z</time>
      </trkpt>
      <trkpt lat="42.764858" lon="-3.791284">
        <ele>698.04</ele>
        <time>2021-03-27T16:09:52Z</time>
      </trkpt>
      <trkpt lat="42.765048" lon="-3.790886">
        <ele>699.67</ele>
        <time>2021-03-27T16:09:57Z</time>
      </trkpt>
      <trkpt lat="42.765869" lon="-3.789568">
        <ele>705.07</ele>
        <time>2021-03-27T16:10:01Z</time>
      </trkpt>
      <trkpt lat="42.766059" lon="-3.789154">
        <ele>700.16</ele>
        <time>2021-03-27T16:10:05Z</time>
      </trkpt>
      <trkpt lat="42.766253" lon="-3.788618">
        <ele>701.14</ele>
        <time>2021-03-27T16:10:10Z</time>
      </trkpt>
      <trkpt lat="42.766602" lon="-3.787492">
        <ele>701.92</ele>
        <time>2021-03-27T16:10:14Z</time>
      </trkpt>
      <trkpt lat="42.767791" lon="-3.784088">
        <ele>725.5</ele>
        <time>2021-03-27T16:10:18Z</time>
      </trkpt>
      <trkpt lat="42.767886" lon="-3.783866">
        <ele>722.56</ele>
        <time>2021-03-27T16:10:23Z</time>
      </trkpt>
      <trkpt lat="42.768017" lon="-3.783654">
        <ele>720.46</ele>
        <time>2021-03-27T16:10:27Z</time>
      </trkpt>
      <trkpt lat="42.768298" lon="-3.783315">
        <ele>718.33</ele>
        <time>2021-03-27T16:10:31Z</time>
      </trkpt>
      <trkpt lat="42.770355" lon="-3.781565">
        <ele>718.27</ele>
        <time>2021-03-27T16:10:36Z</time>
      </trkpt>
      <trkpt lat="42.770829" lon="-3.781126">
        <ele>721.27</ele>
        <time>2021-03-27T16:10:40Z</time>
      </trkpt>
      <trkpt lat="42.771995" lon="-3.779906">
        <ele>720.76</ele>
        <time>2021-03-27T16:10:45Z</time>
      </trkpt>
      <trkpt lat="42.772304" lon="-3.779682">
        <ele>722.56</ele>
        <time>2021-03-27T16:10:49Z</time>
      </trkpt>
      <trkpt lat="42.7733" lon="-3.779035">
        <ele>723.87</ele>
        <time>2021-03-27T16:10:53Z</time>
      </trkpt>
      <trkpt lat="42.773435" lon="-3.778912">
        <ele>724.13</ele>
        <time>2021-03-27T16:10:58Z</time>
      </trkpt>
      <trkpt lat="42.773655" lon="-3.778644">
        <ele>723.85</ele>
        <time>2021-03-27T16:11:02Z</time>
      </trkpt>
      <trkpt lat="42.773792" lon="-3.778396">
        <ele>722.07</ele>
        <time>2021-03-27T16:11:06Z</time>
      </trkpt>
      <trkpt lat="42.77385" lon="-3.778258">
        <ele>721.67</ele>
        <time>2021-03-27T16:11:11Z</time>
      </trkpt>
      <trkpt lat="42.774019" lon="-3.777468">
        <ele>725.04</ele>
        <time>2021-03-27T16:11:15Z</time>
      </trkpt>
      <trkpt lat="42.774025" lon="-3.776737">
        <ele>722.39</ele>
        <time>2021-03-27T16:11:19Z</time>
      </trkpt>
      <trkpt lat="42.774025" lon="-3.776737">
        <ele>722.39</ele>
        <time>2021-03-27T16:11:19Z</time>
      </trkpt>
      <trkpt lat="42.774006" lon="-3.774583">
        <ele>721.26</ele>
        <time>2021-03-27T16:11:22Z</time>
      </trkpt>
      <trkpt lat="42.774011" lon="-3.774241">
        <ele>721.32</ele>
        <time>2021-03-27T16:11:25Z</time>
      </trkpt>
      <trkpt lat="42.774063" lon="-3.7737">
        <ele>725.37</ele>
        <time>2021-03-27T16:11:27Z</time>
      </trkpt>
      <trkpt lat="42.774144" lon="-3.773304">
        <ele>726.98</ele>
        <time>2021-03-27T16:11:30Z</time>
      </trkpt>
      <trkpt lat="42.774223" lon="-3.773044">
        <ele>725.8</ele>
        <time>2021-03-27T16:11:32Z</time>
      </trkpt>
      <trkpt lat="42.774426" lon="-3.772581">
        <ele>725.73</ele>
        <time>2021-03-27T16:11:35Z</time>
      </trkpt>
      <trkpt lat="42.774657" lon="-3.772204">
        <ele>725.73</ele>
        <time>2021-03-27T16:11:37Z</time>
      </trkpt>
      <trkpt lat="42.774823" lon="-3.771996">
        <ele>724.33</ele>
        <time>2021-03-27T16:11:40Z</time>
      </trkpt>
      <trkpt lat="42.774986" lon="-3.771828">
        <ele>722.94</ele>
        <time>2021-03-27T16:11:42Z</time>
      </trkpt>
      <trkpt lat="42.775267" lon="-3.771607">
        <ele>720.41</ele>
        <time>2021-03-27T16:11:45Z</time>
      </trkpt>
      <trkpt lat="42.777506" lon="-3.770381">
        <ele>708.35</ele>
        <time>2021-03-27T16:11:47Z</time>
      </trkpt>
      <trkpt lat="42.777727" lon="-3.770212">
        <ele>705.75</ele>
        <time>2021-03-27T16:11:50Z</time>
      </trkpt>
      <trkpt lat="42.777902" lon="-3.770054">
        <ele>704.62</ele>
        <time>2021-03-27T16:11:52Z</time>
      </trkpt>
      <trkpt lat="42.778076" lon="-3.769866">
        <ele>704.02</ele>
        <time>2021-03-27T16:11:55Z</time>
      </trkpt>
      <trkpt lat="42.778234" lon="-3.769651">
        <ele>704.22</ele>
        <time>2021-03-27T16:11:57Z</time>
      </trkpt>
      <trkpt lat="42.778515" lon="-3.769175">
        <ele>701.09</ele>
        <time>2021-03-27T16:12:00Z</time>
      </trkpt>
      <trkpt lat="42.778686" lon="-3.76878">
        <ele>697.74</ele>
        <time>2021-03-27T16:12:02Z</time>
      </trkpt>
      <trkpt lat="42.779462" lon="-3.766699">
        <ele>695.34</ele>
        <time>2021-03-27T16:12:05Z</time>
      </trkpt>
      <trkpt lat="42.779567" lon="-3.766458">
        <ele>695.16</ele>
        <time>2021-03-27T16:12:08Z</time>
      </trkpt>
      <trkpt lat="42.779671" lon="-3.766275">
        <ele>695.83</ele>
        <time>2021-03-27T16:12:10Z</time>
      </trkpt>
      <trkpt lat="42.77983" lon="-3.766093">
        <ele>698.53</ele>
        <time>2021-03-27T16:12:13Z</time>
      </trkpt>
      <trkpt lat="42.78" lon="-3.765948">
        <ele>700.65</ele>
        <time>2021-03-27T16:12:15Z</time>
      </trkpt>
      <trkpt lat="42.78018" lon="-3.76585">
        <ele>701.99</ele>
        <time>2021-03-27T16:12:18Z</time>
      </trkpt>
      <trkpt lat="42.780473" lon="-3.765788">
        <ele>701.65</ele>
        <time>2021-03-27T16:12:20Z</time>
      </trkpt>
      <trkpt lat="42.780689" lon="-3.765807">
        <ele>698.3</ele>
        <time>2021-03-27T16:12:23Z</time>
      </trkpt>
      <trkpt lat="42.780813" lon="-3.765839">
        <ele>695.62</ele>
        <time>2021-03-27T16:12:25Z</time>
      </trkpt>
      <trkpt lat="42.781021" lon="-3.765945">
        <ele>693.5</ele>
        <time>2021-03-27T16:12:28Z</time>
      </trkpt>
      <trkpt lat="42.781228" lon="-3.766127">
        <ele>692.68</ele>
        <time>2021-03-27T16:12:30Z</time>
      </trkpt>
      <trkpt lat="42.781403" lon="-3.766339">
        <ele>692.87</ele>
        <time>2021-03-27T16:12:33Z</time>
      </trkpt>
      <trkpt lat="42.781864" lon="-3.767012">
        <ele>692.95</ele>
        <time>2021-03-27T16:12:35Z</time>
      </trkpt>
      <trkpt lat="42.781979" lon="-3.76715">
        <ele>691.73</ele>
        <time>2021-03-27T16:12:38Z</time>
      </trkpt>
      <trkpt lat="42.782185" lon="-3.767334">
        <ele>689.44</ele>
        <time>2021-03-27T16:12:40Z</time>
      </trkpt>
      <trkpt lat="42.782428" lon="-3.767476">
        <ele>689.5</ele>
        <time>2021-03-27T16:12:43Z</time>
      </trkpt>
      <trkpt lat="42.78264" lon="-3.767532">
        <ele>690.43</ele>
        <time>2021-03-27T16:12:45Z</time>
      </trkpt>
      <trkpt lat="42.782909" lon="-3.767538">
        <ele>691.98</ele>
        <time>2021-03-27T16:12:48Z</time>
      </trkpt>
      <trkpt lat="42.783913" lon="-3.767314">
        <ele>685.15</ele>
        <time>2021-03-27T16:12:51Z</time>
      </trkpt>
      <trkpt lat="42.784262" lon="-3.767191">
        <ele>685.27</ele>
        <time>2021-03-27T16:12:53Z</time>
      </trkpt>
      <trkpt lat="42.785038" lon="-3.766754">
        <ele>686.52</ele>
        <time>2021-03-27T16:12:56Z</time>
      </trkpt>
      <trkpt lat="42.786329" lon="-3.765971">
        <ele>687.21</ele>
        <time>2021-03-27T16:12:58Z</time>
      </trkpt>
      <trkpt lat="42.78678" lon="-3.765762">
        <ele>687.76</ele>
        <time>2021-03-27T16:13:01Z</time>
      </trkpt>
      <trkpt lat="42.78701" lon="-3.76569">
        <ele>689.7</ele>
        <time>2021-03-27T16:13:03Z</time>
      </trkpt>
      <trkpt lat="42.787189" lon="-3.765648">
        <ele>689.43</ele>
        <time>2021-03-27T16:13:06Z</time>
      </trkpt>
      <trkpt lat="42.787351" lon="-3.765654">
        <ele>689.49</ele>
        <time>2021-03-27T16:13:08Z</time>
      </trkpt>
      <trkpt lat="42.787601" lon="-3.765623">
        <ele>688.37</ele>
        <time>2021-03-27T16:13:11Z</time>
      </trkpt>
      <trkpt lat="42.787884" lon="-3.76563">
        <ele>687.97</ele>
        <time>2021-03-27T16:13:13Z</time>
      </trkpt>
      <trkpt lat="42.788253" lon="-3.765696">
        <ele>686.75</ele>
        <time>2021-03-27T16:13:16Z</time>
      </trkpt>
      <trkpt lat="42.788679" lon="-3.765847">
        <ele>682.4</ele>
        <time>2021-03-27T16:13:18Z</time>
      </trkpt>
      <trkpt lat="42.788995" lon="-3.766014">
        <ele>679.28</ele>
        <time>2021-03-27T16:13:21Z</time>
      </trkpt>
      <trkpt lat="42.789566" lon="-3.766452">
        <ele>684.51</ele>
        <time>2021-03-27T16:13:23Z</time>
      </trkpt>
      <trkpt lat="42.790267" lon="-3.767146">
        <ele>687.45</ele>
        <time>2021-03-27T16:13:26Z</time>
      </trkpt>
      <trkpt lat="42.790687" lon="-3.767593">
        <ele>680.57</ele>
        <time>2021-03-27T16:13:28Z</time>
      </trkpt>
      <trkpt lat="42.790885" lon="-3.767868">
        <ele>676.57</ele>
        <time>2021-03-27T16:13:31Z</time>
      </trkpt>
      <trkpt lat="42.791043" lon="-3.768132">
        <ele>675.34</ele>
        <time>2021-03-27T16:13:34Z</time>
      </trkpt>
      <trkpt lat="42.791185" lon="-3.768414">
        <ele>675.38</ele>
        <time>2021-03-27T16:13:36Z</time>
      </trkpt>
      <trkpt lat="42.791411" lon="-3.769005">
        <ele>674.65</ele>
        <time>2021-03-27T16:13:39Z</time>
      </trkpt>
      <trkpt lat="42.791661" lon="-3.769811">
        <ele>678.72</ele>
        <time>2021-03-27T16:13:41Z</time>
      </trkpt>
      <trkpt lat="42.792064" lon="-3.770831">
        <ele>679.38</ele>
        <time>2021-03-27T16:13:44Z</time>
      </trkpt>
      <trkpt lat="42.792208" lon="-3.77111">
        <ele>676.74</ele>
        <time>2021-03-27T16:13:46Z</time>
      </trkpt>
      <trkpt lat="42.792377" lon="-3.771339">
        <ele>677.31</ele>
        <time>2021-03-27T16:13:49Z</time>
      </trkpt>
      <trkpt lat="42.792537" lon="-3.771494">
        <ele>677.12</ele>
        <time>2021-03-27T16:13:51Z</time>
      </trkpt>
      <trkpt lat="42.793901" lon="-3.772415">
        <ele>668.35</ele>
        <time>2021-03-27T16:13:54Z</time>
      </trkpt>
      <trkpt lat="42.794314" lon="-3.772614">
        <ele>667.46</ele>
        <time>2021-03-27T16:13:56Z</time>
      </trkpt>
      <trkpt lat="42.794528" lon="-3.772654">
        <ele>666.03</ele>
        <time>2021-03-27T16:13:59Z</time>
      </trkpt>
      <trkpt lat="42.794912" lon="-3.772604">
        <ele>662.82</ele>
        <time>2021-03-27T16:14:01Z</time>
      </trkpt>
      <trkpt lat="42.79521" lon="-3.772469">
        <ele>661.07</ele>
        <time>2021-03-27T16:14:04Z</time>
      </trkpt>
      <trkpt lat="42.795564" lon="-3.772225">
        <ele>663.11</ele>
        <time>2021-03-27T16:14:06Z</time>
      </trkpt>
      <trkpt lat="42.798309" lon="-3.76988">
        <ele>665.87</ele>
        <time>2021-03-27T16:14:09Z</time>
      </trkpt>
      <trkpt lat="42.798453" lon="-3.769779">
        <ele>665.84</ele>
        <time>2021-03-27T16:14:11Z</time>
      </trkpt>
      <trkpt lat="42.798571" lon="-3.769733">
        <ele>665.93</ele>
        <time>2021-03-27T16:14:14Z</time>
      </trkpt>
      <trkpt lat="42.798704" lon="-3.769712">
        <ele>665.29</ele>
        <time>2021-03-27T16:14:17Z</time>
      </trkpt>
      <trkpt lat="42.800346" lon="-3.769721">
        <ele>662.23</ele>
        <time>2021-03-27T16:14:19Z</time>
      </trkpt>
      <trkpt lat="42.800663" lon="-3.769661">
        <ele>662.82</ele>
        <time>2021-03-27T16:14:22Z</time>
      </trkpt>
      <trkpt lat="42.80079" lon="-3.769604">
        <ele>662.92</ele>
        <time>2021-03-27T16:14:24Z</time>
      </trkpt>
      <trkpt lat="42.800913" lon="-3.769503">
        <ele>662.19</ele>
        <time>2021-03-27T16:14:27Z</time>
      </trkpt>
      <trkpt lat="42.800999" lon="-3.769363">
        <ele>660.64</ele>
        <time>2021-03-27T16:14:29Z</time>
      </trkpt>
      <trkpt lat="42.801124" lon="-3.769068">
        <ele>658.05</ele>
        <time>2021-03-27T16:14:32Z</time>
      </trkpt>
      <trkpt lat="42.801365" lon="-3.768388">
        <ele>664.22</ele>
        <time>2021-03-27T16:14:34Z</time>
      </trkpt>
      <trkpt lat="42.80141" lon="-3.768302">
        <ele>666.15</ele>
        <time>2021-03-27T16:14:37Z</time>
      </trkpt>
      <trkpt lat="42.801465" lon="-3.768244">
        <ele>668.84</ele>
        <time>2021-03-27T16:14:39Z</time>
      </trkpt>
      <trkpt lat="42.801553" lon="-3.768237">
        <ele>671.25</ele>
        <time>2021-03-27T16:14:42Z</time>
      </trkpt>
      <trkpt lat="42.801731" lon="-3.768344">
        <ele>672.62</ele>
        <time>2021-03-27T16:14:44Z</time>
      </trkpt>
      <trkpt lat="42.803465" lon="-3.770058">
        <ele>669.8</ele>
        <time>2021-03-27T16:14:47Z</time>
      </trkpt>
      <trkpt lat="42.804026" lon="-3.770694">
        <ele>669.2</ele>
        <time>2021-03-27T16:14:49Z</time>
      </trkpt>
      <trkpt lat="42.804184" lon="-3.770916">
        <ele>668.86</ele>
        <time>2021-03-27T16:14:52Z</time>
      </trkpt>
      <trkpt lat="42.804332" lon="-3.771172">
        <ele>668.46</ele>
        <time>2021-03-27T16:14:54Z</time>
      </trkpt>
      <trkpt lat="42.804725" lon="-3.771989">
        <ele>669.13</ele>
        <time>2021-03-27T16:14:57Z</time>
      </trkpt>
      <trkpt lat="42.805937" lon="-3.774203">
        <ele>687.49</ele>
        <time>2021-03-27T16:15:00Z</time>
      </trkpt>
      <trkpt lat="42.806122" lon="-3.774474">
        <ele>688.65</ele>
        <time>2021-03-27T16:15:02Z</time>
      </trkpt>
      <trkpt lat="42.806322" lon="-3.774679">
        <ele>687.29</ele>
        <time>2021-03-27T16:15:05Z</time>
      </trkpt>
      <trkpt lat="42.806598" lon="-3.774855">
        <ele>685.4</ele>
        <time>2021-03-27T16:15:07Z</time>
      </trkpt>
      <trkpt lat="42.806855" lon="-3.774975">
        <ele>686.76</ele>
        <time>2021-03-27T16:15:10Z</time>
      </trkpt>
      <trkpt lat="42.807056" lon="-3.775014">
        <ele>691.27</ele>
        <time>2021-03-27T16:15:12Z</time>
      </trkpt>
      <trkpt lat="42.807109" lon="-3.775138">
        <ele>689.45</ele>
        <time>2021-03-27T16:15:15Z</time>
      </trkpt>
      <trkpt lat="42.807196" lon="-3.77518">
        <ele>690.51</ele>
        <time>2021-03-27T16:15:17Z</time>
      </trkpt>
      <trkpt lat="42.807462" lon="-3.775242">
        <ele>692.3</ele>
        <time>2021-03-27T16:15:20Z</time>
      </trkpt>
      <trkpt lat="42.808054" lon="-3.775421">
        <ele>687.36</ele>
        <time>2021-03-27T16:15:22Z</time>
      </trkpt>
      <trkpt lat="42.808188" lon="-3.775426">
        <ele>687.16</ele>
        <time>2021-03-27T16:15:25Z</time>
      </trkpt>
      <trkpt lat="42.808422" lon="-3.775396">
        <ele>688.05</ele>
        <time>2021-03-27T16:15:27Z</time>
      </trkpt>
      <trkpt lat="42.809083" lon="-3.775171">
        <ele>688.34</ele>
        <time>2021-03-27T16:15:30Z</time>
      </trkpt>
      <trkpt lat="42.809292" lon="-3.77514">
        <ele>685.9</ele>
        <time>2021-03-27T16:15:32Z</time>
      </trkpt>
      <trkpt lat="42.810586" lon="-3.775368">
        <ele>679.58</ele>
        <time>2021-03-27T16:15:35Z</time>
      </trkpt>
      <trkpt lat="42.810944" lon="-3.775404">
        <ele>676.76</ele>
        <time>2021-03-27T16:15:37Z</time>
      </trkpt>
      <trkpt lat="42.811283" lon="-3.775411">
        <ele>677.17</ele>
        <time>2021-03-27T16:15:40Z</time>
      </trkpt>
      <trkpt lat="42.812117" lon="-3.775537">
        <ele>679.51</ele>
        <time>2021-03-27T16:15:42Z</time>
      </trkpt>
      <trkpt lat="42.812294" lon="-3.775569">
        <ele>678.35</ele>
        <time>2021-03-27T16:15:45Z</time>
      </trkpt>
      <trkpt lat="42.812463" lon="-3.775632">
        <ele>676.68</ele>
        <time>2021-03-27T16:15:47Z</time>
      </trkpt>
      <trkpt lat="42.812549" lon="-3.775758">
        <ele>676.02</ele>
        <time>2021-03-27T16:15:50Z</time>
      </trkpt>
      <trkpt lat="42.812618" lon="-3.775931">
        <ele>676.28</ele>
        <time>2021-03-27T16:15:52Z</time>
      </trkpt>
      <trkpt lat="42.812614" lon="-3.776199">
        <ele>676.36</ele>
        <time>2021-03-27T16:15:55Z</time>
      </trkpt>
      <trkpt lat="42.812344" lon="-3.77767">
        <ele>672.02</ele>
        <time>2021-03-27T16:15:57Z</time>
      </trkpt>
      <trkpt lat="42.812367" lon="-3.777921">
        <ele>671.84</ele>
        <time>2021-03-27T16:16:00Z</time>
      </trkpt>
      <trkpt lat="42.812464" lon="-3.778368">
        <ele>672.97</ele>
        <time>2021-03-27T16:16:02Z</time>
      </trkpt>
      <trkpt lat="42.812477" lon="-3.778523">
        <ele>672.73</ele>
        <time>2021-03-27T16:16:05Z</time>
      </trkpt>
      <trkpt lat="42.812259" lon="-3.780939">
        <ele>670.28</ele>
        <time>2021-03-27T16:16:07Z</time>
      </trkpt>
      <trkpt lat="42.812044" lon="-3.7831">
        <ele>670.23</ele>
        <time>2021-03-27T16:16:09Z</time>
      </trkpt>
      <trkpt lat="42.811963" lon="-3.783435">
        <ele>668.56</ele>
        <time>2021-03-27T16:16:12Z</time>
      </trkpt>
      <trkpt lat="42.811134" lon="-3.786169">
        <ele>669.8</ele>
        <time>2021-03-27T16:16:14Z</time>
      </trkpt>
      <trkpt lat="42.811123" lon="-3.786308">
        <ele>669.93</ele>
        <time>2021-03-27T16:16:17Z</time>
      </trkpt>
      <trkpt lat="42.811131" lon="-3.786459">
        <ele>670.02</ele>
        <time>2021-03-27T16:16:19Z</time>
      </trkpt>
      <trkpt lat="42.811175" lon="-3.78662">
        <ele>669.9</ele>
        <time>2021-03-27T16:16:22Z</time>
      </trkpt>
      <trkpt lat="42.811284" lon="-3.786785">
        <ele>670.45</ele>
        <time>2021-03-27T16:16:24Z</time>
      </trkpt>
      <trkpt lat="42.811473" lon="-3.786873">
        <ele>672.17</ele>
        <time>2021-03-27T16:16:27Z</time>
      </trkpt>
      <trkpt lat="42.811701" lon="-3.786908">
        <ele>673.92</ele>
        <time>2021-03-27T16:16:29Z</time>
      </trkpt>
      <trkpt lat="42.813216" lon="-3.78692">
        <ele>675.87</ele>
        <time>2021-03-27T16:16:32Z</time>
      </trkpt>
      <trkpt lat="42.814857" lon="-3.786725">
        <ele>679.8</ele>
        <time>2021-03-27T16:16:34Z</time>
      </trkpt>
      <trkpt lat="42.815053" lon="-3.786741">
        <ele>679.32</ele>
        <time>2021-03-27T16:16:37Z</time>
      </trkpt>
      <trkpt lat="42.815155" lon="-3.78679">
        <ele>677.37</ele>
        <time>2021-03-27T16:16:39Z</time>
      </trkpt>
      <trkpt lat="42.815446" lon="-3.787035">
        <ele>674.11</ele>
        <time>2021-03-27T16:16:42Z</time>
      </trkpt>
      <trkpt lat="42.816672" lon="-3.787921">
        <ele>670.54</ele>
        <time>2021-03-27T16:16:44Z</time>
      </trkpt>
      <trkpt lat="42.817964" lon="-3.789067">
        <ele>670.15</ele>
        <time>2021-03-27T16:16:47Z</time>
      </trkpt>
      <trkpt lat="42.818407" lon="-3.789491">
        <ele>673.41</ele>
        <time>2021-03-27T16:16:49Z</time>
      </trkpt>
      <trkpt lat="42.818592" lon="-3.789702">
        <ele>672.42</ele>
        <time>2021-03-27T16:16:52Z</time>
      </trkpt>
      <trkpt lat="42.818896" lon="-3.79014">
        <ele>666.83</ele>
        <time>2021-03-27T16:16:54Z</time>
      </trkpt>
      <trkpt lat="42.819397" lon="-3.791159">
        <ele>671.01</ele>
        <time>2021-03-27T16:16:57Z</time>
      </trkpt>
      <trkpt lat="42.820366" lon="-3.792892">
        <ele>668.3</ele>
        <time>2021-03-27T16:16:59Z</time>
      </trkpt>
      <trkpt lat="42.820506" lon="-3.793058">
        <ele>668.43</ele>
        <time>2021-03-27T16:17:02Z</time>
      </trkpt>
      <trkpt lat="42.820564" lon="-3.793093">
        <ele>668.57</ele>
        <time>2021-03-27T16:17:04Z</time>
      </trkpt>
      <trkpt lat="42.820804" lon="-3.793155">
        <ele>670.83</ele>
        <time>2021-03-27T16:17:07Z</time>
      </trkpt>
      <trkpt lat="42.821167" lon="-3.793124">
        <ele>674.48</ele>
        <time>2021-03-27T16:17:09Z</time>
      </trkpt>
      <trkpt lat="42.821391" lon="-3.792993">
        <ele>681.7</ele>
        <time>2021-03-27T16:17:12Z</time>
      </trkpt>
      <trkpt lat="42.821587" lon="-3.792835">
        <ele>684.82</ele>
        <time>2021-03-27T16:17:14Z</time>
      </trkpt>
      <trkpt lat="42.821907" lon="-3.792629">
        <ele>680.72</ele>
        <time>2021-03-27T16:17:17Z</time>
      </trkpt>
      <trkpt lat="42.822029" lon="-3.792511">
        <ele>678.72</ele>
        <time>2021-03-27T16:17:19Z</time>
      </trkpt>
      <trkpt lat="42.822484" lon="-3.792144">
        <ele>674.65</ele>
        <time>2021-03-27T16:17:22Z</time>
      </trkpt>
      <trkpt lat="42.823062" lon="-3.791732">
        <ele>677.02</ele>
        <time>2021-03-27T16:17:24Z</time>
      </trkpt>
      <trkpt lat="42.823163" lon="-3.791671">
        <ele>677.33</ele>
        <time>2021-03-27T16:17:27Z</time>
      </trkpt>
      <trkpt lat="42.823471" lon="-3.791548">
        <ele>676.92</ele>
        <time>2021-03-27T16:17:29Z</time>
      </trkpt>
      <trkpt lat="42.823913" lon="-3.791412">
        <ele>674.91</ele>
        <time>2021-03-27T16:17:32Z</time>
      </trkpt>
      <trkpt lat="42.824432" lon="-3.791325">
        <ele>673.62</ele>
        <time>2021-03-27T16:17:34Z</time>
      </trkpt>
      <trkpt lat="42.825505" lon="-3.791301">
        <ele>678.5</ele>
        <time>2021-03-27T16:17:37Z</time>
      </trkpt>
      <trkpt lat="42.826179" lon="-3.79133">
        <ele>676.22</ele>
        <time>2021-03-27T16:17:39Z</time>
      </trkpt>
      <trkpt lat="42.826475" lon="-3.791404">
        <ele>676.43</ele>
        <time>2021-03-27T16:17:42Z</time>
      </trkpt>
      <trkpt lat="42.827166" lon="-3.791501">
        <ele>673.59</ele>
        <time>2021-03-27T16:17:44Z</time>
      </trkpt>
      <trkpt lat="42.827359" lon="-3.791496">
        <ele>673.38</ele>
        <time>2021-03-27T16:17:46Z</time>
      </trkpt>
      <trkpt lat="42.827709" lon="-3.791413">
        <ele>672.37</ele>
        <time>2021-03-27T16:17:49Z</time>
      </trkpt>
      <trkpt lat="42.828497" lon="-3.790958">
        <ele>666.7</ele>
        <time>2021-03-27T16:17:51Z</time>
      </trkpt>
      <trkpt lat="42.828672" lon="-3.790796">
        <ele>667.15</ele>
        <time>2021-03-27T16:17:54Z</time>
      </trkpt>
      <trkpt lat="42.829245" lon="-3.790153">
        <ele>668.95</ele>
        <time>2021-03-27T16:17:56Z</time>
      </trkpt>
      <trkpt lat="42.83119" lon="-3.787884">
        <ele>672.45</ele>
        <time>2021-03-27T16:17:59Z</time>
      </trkpt>
      <trkpt lat="42.831707" lon="-3.787251">
        <ele>670.1</ele>
        <time>2021-03-27T16:18:01Z</time>
      </trkpt>
      <trkpt lat="42.831882" lon="-3.787114">
        <ele>671.43</ele>
        <time>2021-03-27T16:18:04Z</time>
      </trkpt>
      <trkpt lat="42.832273" lon="-3.786886">
        <ele>672.65</ele>
        <time>2021-03-27T16:18:06Z</time>
      </trkpt>
      <trkpt lat="42.832567" lon="-3.786774">
        <ele>673.94</ele>
        <time>2021-03-27T16:18:09Z</time>
      </trkpt>
      <trkpt lat="42.833218" lon="-3.786591">
        <ele>676.23</ele>
        <time>2021-03-27T16:18:11Z</time>
      </trkpt>
      <trkpt lat="42.833555" lon="-3.786521">
        <ele>674.41</ele>
        <time>2021-03-27T16:18:14Z</time>
      </trkpt>
      <trkpt lat="42.833833" lon="-3.786486">
        <ele>673.68</ele>
        <time>2021-03-27T16:18:16Z</time>
      </trkpt>
      <trkpt lat="42.834048" lon="-3.786483">
        <ele>676.38</ele>
        <time>2021-03-27T16:18:19Z</time>
      </trkpt>
      <trkpt lat="42.834828" lon="-3.786587">
        <ele>674.75</ele>
        <time>2021-03-27T16:18:21Z</time>
      </trkpt>
      <trkpt lat="42.83499" lon="-3.786582">
        <ele>675.77</ele>
        <time>2021-03-27T16:18:24Z</time>
      </trkpt>
      <trkpt lat="42.835258" lon="-3.786542">
        <ele>674.83</ele>
        <time>2021-03-27T16:18:26Z</time>
      </trkpt>
      <trkpt lat="42.835313" lon="-3.786545">
        <ele>674.69</ele>
        <time>2021-03-27T16:18:29Z</time>
      </trkpt>
      <trkpt lat="42.83541" lon="-3.786584">
        <ele>673.91</ele>
        <time>2021-03-27T16:18:31Z</time>
      </trkpt>
      <trkpt lat="42.836531" lon="-3.787856">
        <ele>674.84</ele>
        <time>2021-03-27T16:18:34Z</time>
      </trkpt>
      <trkpt lat="42.837003" lon="-3.788529">
        <ele>673.75</ele>
        <time>2021-03-27T16:18:36Z</time>
      </trkpt>
      <trkpt lat="42.837108" lon="-3.788757">
        <ele>672.12</ele>
        <time>2021-03-27T16:18:39Z</time>
      </trkpt>
      <trkpt lat="42.837536" lon="-3.790044">
        <ele>679.62</ele>
        <time>2021-03-27T16:18:41Z</time>
      </trkpt>
      <trkpt lat="42.83762" lon="-3.790398">
        <ele>682.01</ele>
        <time>2021-03-27T16:18:44Z</time>
      </trkpt>
      <trkpt lat="42.837627" lon="-3.790538">
        <ele>682.07</ele>
        <time>2021-03-27T16:18:46Z</time>
      </trkpt>
      <trkpt lat="42.837543" lon="-3.791037">
        <ele>679.71</ele>
        <time>2021-03-27T16:18:49Z</time>
      </trkpt>
      <trkpt lat="42.837463" lon="-3.791824">
        <ele>676.69</ele>
        <time>2021-03-27T16:18:51Z</time>
      </trkpt>
      <trkpt lat="42.83741" lon="-3.791978">
        <ele>677.01</ele>
        <time>2021-03-27T16:18:54Z</time>
      </trkpt>
      <trkpt lat="42.837277" lon="-3.792254">
        <ele>676.69</ele>
        <time>2021-03-27T16:18:56Z</time>
      </trkpt>
      <trkpt lat="42.837212" lon="-3.792346">
        <ele>676.13</ele>
        <time>2021-03-27T16:18:59Z</time>
      </trkpt>
      <trkpt lat="42.837158" lon="-3.792397">
        <ele>676.4</ele>
        <time>2021-03-27T16:19:01Z</time>
      </trkpt>
      <trkpt lat="42.83706" lon="-3.79245">
        <ele>675.98</ele>
        <time>2021-03-27T16:19:04Z</time>
      </trkpt>
      <trkpt lat="42.836859" lon="-3.792494">
        <ele>676.47</ele>
        <time>2021-03-27T16:19:06Z</time>
      </trkpt>
      <trkpt lat="42.83516" lon="-3.792636">
        <ele>680.99</ele>
        <time>2021-03-27T16:19:09Z</time>
      </trkpt>
      <trkpt lat="42.834567" lon="-3.792786">
        <ele>684.47</ele>
        <time>2021-03-27T16:19:11Z</time>
      </trkpt>
      <trkpt lat="42.834509" lon="-3.792778">
        <ele>685.08</ele>
        <time>2021-03-27T16:19:14Z</time>
      </trkpt>
      <trkpt lat="42.834428" lon="-3.792725">
        <ele>685.18</ele>
        <time>2021-03-27T16:19:16Z</time>
      </trkpt>
      <trkpt lat="42.834305" lon="-3.792591">
        <ele>686.31</ele>
        <time>2021-03-27T16:19:19Z</time>
      </trkpt>
      <trkpt lat="42.83422" lon="-3.792339">
        <ele>686.13</ele>
        <time>2021-03-27T16:19:21Z</time>
      </trkpt>
      <trkpt lat="42.834133" lon="-3.792204">
        <ele>687.94</ele>
        <time>2021-03-27T16:19:23Z</time>
      </trkpt>
      <trkpt lat="42.833983" lon="-3.792168">
        <ele>692.58</ele>
        <time>2021-03-27T16:19:26Z</time>
      </trkpt>
      <trkpt lat="42.833585" lon="-3.792247">
        <ele>694.72</ele>
        <time>2021-03-27T16:19:28Z</time>
      </trkpt>
      <trkpt lat="42.833295" lon="-3.792344">
        <ele>690.47</ele>
        <time>2021-03-27T16:19:31Z</time>
      </trkpt>
      <trkpt lat="42.833222" lon="-3.792388">
        <ele>688.84</ele>
        <time>2021-03-27T16:19:33Z</time>
      </trkpt>
      <trkpt lat="42.833011" lon="-3.792631">
        <ele>688.57</ele>
        <time>2021-03-27T16:19:36Z</time>
      </trkpt>
      <trkpt lat="42.832891" lon="-3.792725">
        <ele>687.84</ele>
        <time>2021-03-27T16:19:38Z</time>
      </trkpt>
      <trkpt lat="42.832626" lon="-3.792881">
        <ele>685.97</ele>
        <time>2021-03-27T16:19:41Z</time>
      </trkpt>
      <trkpt lat="42.832535" lon="-3.792997">
        <ele>686.05</ele>
        <time>2021-03-27T16:19:43Z</time>
      </trkpt>
      <trkpt lat="42.832307" lon="-3.79341">
        <ele>689.63</ele>
        <time>2021-03-27T16:19:46Z</time>
      </trkpt>
      <trkpt lat="42.832093" lon="-3.793735">
        <ele>691.71</ele>
        <time>2021-03-27T16:19:48Z</time>
      </trkpt>
      <trkpt lat="42.832299" lon="-3.793702">
        <ele>699.71</ele>
        <time>2021-03-27T16:20:05Z</time>
      </trkpt>
      <trkpt lat="42.8324" lon="-3.793661">
        <ele>702.86</ele>
        <time>2021-03-27T16:20:22Z</time>
      </trkpt>
      <trkpt lat="42.832665" lon="-3.793374">
        <ele>701.16</ele>
        <time>2021-03-27T16:20:39Z</time>
      </trkpt>
      <trkpt lat="42.832796" lon="-3.793139">
        <ele>697.18</ele>
        <time>2021-03-27T16:20:56Z</time>
      </trkpt>
      <trkpt lat="42.832963" lon="-3.793063">
        <ele>699.54</ele>
        <time>2021-03-27T16:21:12Z</time>
      </trkpt>
      <trkpt lat="42.833049" lon="-3.793068">
        <ele>702.12</ele>
        <time>2021-03-27T16:21:29Z</time>
      </trkpt>
      <trkpt lat="42.833192" lon="-3.793156">
        <ele>705.79</ele>
        <time>2021-03-27T16:21:46Z</time>
      </trkpt>
      <trkpt lat="42.833371" lon="-3.793209">
        <ele>707.38</ele>
        <time>2021-03-27T16:22:03Z</time>
      </trkpt>
      <trkpt lat="42.833435" lon="-3.793278">
        <ele>707.67</ele>
        <time>2021-03-27T16:22:20Z</time>
      </trkpt>
      <trkpt lat="42.833516" lon="-3.793493">
        <ele>708.06</ele>
        <time>2021-03-27T16:22:37Z</time>
      </trkpt>
      <trkpt lat="42.833753" lon="-3.79359">
        <ele>708.4</ele>
        <time>2021-03-27T16:22:53Z</time>
      </trkpt>
      <trkpt lat="42.833837" lon="-3.793455">
        <ele>707.79</ele>
        <time>2021-03-27T16:23:07Z</time>
      </trkpt>
      <trkpt lat="42.833972" lon="-3.793345">
        <ele>706.8</ele>
        <time>2021-03-27T16:23:20Z</time>
      </trkpt>
      <trkpt lat="42.833999" lon="-3.793458">
        <ele>707.68</ele>
        <time>2021-03-27T16:23:30Z</time>
      </trkpt>
      <trkpt lat="42.834077" lon="-3.793592">
        <ele>708.82</ele>
        <time>2021-03-27T16:23:40Z</time>
      </trkpt>
      <trkpt lat="42.834139" lon="-3.793547">
        <ele>708.33</ele>
        <time>2021-03-27T16:23:50Z</time>
      </trkpt>
      <trkpt lat="42.834317" lon="-3.793478">
        <ele>706.52</ele>
        <time>2021-03-27T16:24:00Z</time>
      </trkpt>
      <trkpt lat="42.834388" lon="-3.793471">
        <ele>705.94</ele>
        <time>2021-03-27T16:24:10Z</time>
      </trkpt>
      <trkpt lat="42.834388" lon="-3.793471">
        <ele>705.94</ele>
        <time>2021-03-27T16:24:10Z</time>
      </trkpt>
      <trkpt lat="42.834317" lon="-3.793478">
        <ele>706.52</ele>
        <time>2021-03-27T16:24:20Z</time>
      </trkpt>
      <trkpt lat="42.834139" lon="-3.793547">
        <ele>708.33</ele>
        <time>2021-03-27T16:24:30Z</time>
      </trkpt>
      <trkpt lat="42.834077" lon="-3.793592">
        <ele>708.82</ele>
        <time>2021-03-27T16:24:40Z</time>
      </trkpt>
      <trkpt lat="42.833999" lon="-3.793458">
        <ele>707.68</ele>
        <time>2021-03-27T16:24:50Z</time>
      </trkpt>
      <trkpt lat="42.833972" lon="-3.793345">
        <ele>706.8</ele>
        <time>2021-03-27T16:25:00Z</time>
      </trkpt>
      <trkpt lat="42.833837" lon="-3.793455">
        <ele>707.79</ele>
        <time>2021-03-27T16:25:13Z</time>
      </trkpt>
      <trkpt lat="42.833753" lon="-3.79359">
        <ele>708.4</ele>
        <time>2021-03-27T16:25:26Z</time>
      </trkpt>
      <trkpt lat="42.833516" lon="-3.793493">
        <ele>708.06</ele>
        <time>2021-03-27T16:25:42Z</time>
      </trkpt>
      <trkpt lat="42.833435" lon="-3.793278">
        <ele>707.67</ele>
        <time>2021-03-27T16:25:57Z</time>
      </trkpt>
      <trkpt lat="42.833371" lon="-3.793209">
        <ele>707.38</ele>
        <time>2021-03-27T16:26:13Z</time>
      </trkpt>
      <trkpt lat="42.833192" lon="-3.793156">
        <ele>705.79</ele>
        <time>2021-03-27T16:26:28Z</time>
      </trkpt>
      <trkpt lat="42.833049" lon="-3.793068">
        <ele>702.12</ele>
        <time>2021-03-27T16:26:44Z</time>
      </trkpt>
      <trkpt lat="42.832963" lon="-3.793063">
        <ele>699.54</ele>
        <time>2021-03-27T16:26:59Z</time>
      </trkpt>
      <trkpt lat="42.832796" lon="-3.793139">
        <ele>697.18</ele>
        <time>2021-03-27T16:27:15Z</time>
      </trkpt>
      <trkpt lat="42.832665" lon="-3.793374">
        <ele>701.16</ele>
        <time>2021-03-27T16:27:30Z</time>
      </trkpt>
      <trkpt lat="42.8324" lon="-3.793661">
        <ele>702.86</ele>
        <time>2021-03-27T16:27:50Z</time>
      </trkpt>
      <trkpt lat="42.832299" lon="-3.793702">
        <ele>699.71</ele>
        <time>2021-03-27T16:28:11Z</time>
      </trkpt>
      <trkpt lat="42.832093" lon="-3.793735">
        <ele>691.71</ele>
        <time>2021-03-27T16:28:31Z</time>
      </trkpt>
      <trkpt lat="42.832307" lon="-3.79341">
        <ele>689.63</ele>
        <time>2021-03-27T16:28:34Z</time>
      </trkpt>
      <trkpt lat="42.832535" lon="-3.792997">
        <ele>686.05</ele>
        <time>2021-03-27T16:28:36Z</time>
      </trkpt>
      <trkpt lat="42.832626" lon="-3.792881">
        <ele>685.97</ele>
        <time>2021-03-27T16:28:39Z</time>
      </trkpt>
      <trkpt lat="42.832891" lon="-3.792725">
        <ele>687.84</ele>
        <time>2021-03-27T16:28:41Z</time>
      </trkpt>
      <trkpt lat="42.833011" lon="-3.792631">
        <ele>688.57</ele>
        <time>2021-03-27T16:28:44Z</time>
      </trkpt>
      <trkpt lat="42.833222" lon="-3.792388">
        <ele>688.84</ele>
        <time>2021-03-27T16:28:46Z</time>
      </trkpt>
      <trkpt lat="42.833295" lon="-3.792344">
        <ele>690.47</ele>
        <time>2021-03-27T16:28:49Z</time>
      </trkpt>
      <trkpt lat="42.833585" lon="-3.792247">
        <ele>694.72</ele>
        <time>2021-03-27T16:28:51Z</time>
      </trkpt>
      <trkpt lat="42.833983" lon="-3.792168">
        <ele>692.58</ele>
        <time>2021-03-27T16:28:54Z</time>
      </trkpt>
      <trkpt lat="42.834133" lon="-3.792204">
        <ele>687.94</ele>
        <time>2021-03-27T16:28:56Z</time>
      </trkpt>
      <trkpt lat="42.83422" lon="-3.792339">
        <ele>686.13</ele>
        <time>2021-03-27T16:28:59Z</time>
      </trkpt>
      <trkpt lat="42.834305" lon="-3.792591">
        <ele>686.31</ele>
        <time>2021-03-27T16:29:01Z</time>
      </trkpt>
      <trkpt lat="42.834428" lon="-3.792725">
        <ele>685.18</ele>
        <time>2021-03-27T16:29:04Z</time>
      </trkpt>
      <trkpt lat="42.834509" lon="-3.792778">
        <ele>685.08</ele>
        <time>2021-03-27T16:29:06Z</time>
      </trkpt>
      <trkpt lat="42.834567" lon="-3.792786">
        <ele>684.47</ele>
        <time>2021-03-27T16:29:09Z</time>
      </trkpt>
      <trkpt lat="42.83516" lon="-3.792636">
        <ele>680.99</ele>
        <time>2021-03-27T16:29:11Z</time>
      </trkpt>
      <trkpt lat="42.836859" lon="-3.792494">
        <ele>676.47</ele>
        <time>2021-03-27T16:29:14Z</time>
      </trkpt>
      <trkpt lat="42.83706" lon="-3.79245">
        <ele>675.98</ele>
        <time>2021-03-27T16:29:16Z</time>
      </trkpt>
      <trkpt lat="42.837158" lon="-3.792397">
        <ele>676.4</ele>
        <time>2021-03-27T16:29:19Z</time>
      </trkpt>
      <trkpt lat="42.837212" lon="-3.792346">
        <ele>676.13</ele>
        <time>2021-03-27T16:29:21Z</time>
      </trkpt>
      <trkpt lat="42.837277" lon="-3.792254">
        <ele>676.69</ele>
        <time>2021-03-27T16:29:24Z</time>
      </trkpt>
      <trkpt lat="42.83741" lon="-3.791978">
        <ele>677.01</ele>
        <time>2021-03-27T16:29:26Z</time>
      </trkpt>
      <trkpt lat="42.837463" lon="-3.791824">
        <ele>676.69</ele>
        <time>2021-03-27T16:29:29Z</time>
      </trkpt>
      <trkpt lat="42.837543" lon="-3.791037">
        <ele>679.71</ele>
        <time>2021-03-27T16:29:31Z</time>
      </trkpt>
      <trkpt lat="42.837627" lon="-3.790538">
        <ele>682.07</ele>
        <time>2021-03-27T16:29:34Z</time>
      </trkpt>
      <trkpt lat="42.83762" lon="-3.790398">
        <ele>682.01</ele>
        <time>2021-03-27T16:29:36Z</time>
      </trkpt>
      <trkpt lat="42.837536" lon="-3.790044">
        <ele>679.62</ele>
        <time>2021-03-27T16:29:39Z</time>
      </trkpt>
      <trkpt lat="42.837108" lon="-3.788757">
        <ele>672.12</ele>
        <time>2021-03-27T16:29:41Z</time>
      </trkpt>
      <trkpt lat="42.837003" lon="-3.788529">
        <ele>673.75</ele>
        <time>2021-03-27T16:29:44Z</time>
      </trkpt>
      <trkpt lat="42.836531" lon="-3.787856">
        <ele>674.84</ele>
        <time>2021-03-27T16:29:46Z</time>
      </trkpt>
      <trkpt lat="42.83541" lon="-3.786584">
        <ele>673.91</ele>
        <time>2021-03-27T16:29:49Z</time>
      </trkpt>
      <trkpt lat="42.835313" lon="-3.786545">
        <ele>674.69</ele>
        <time>2021-03-27T16:29:51Z</time>
      </trkpt>
      <trkpt lat="42.835258" lon="-3.786542">
        <ele>674.83</ele>
        <time>2021-03-27T16:29:54Z</time>
      </trkpt>
      <trkpt lat="42.83499" lon="-3.786582">
        <ele>675.77</ele>
        <time>2021-03-27T16:29:56Z</time>
      </trkpt>
      <trkpt lat="42.834828" lon="-3.786587">
        <ele>674.75</ele>
        <time>2021-03-27T16:29:58Z</time>
      </trkpt>
      <trkpt lat="42.834048" lon="-3.786483">
        <ele>676.38</ele>
        <time>2021-03-27T16:30:01Z</time>
      </trkpt>
      <trkpt lat="42.833833" lon="-3.786486">
        <ele>673.68</ele>
        <time>2021-03-27T16:30:03Z</time>
      </trkpt>
      <trkpt lat="42.833555" lon="-3.786521">
        <ele>674.41</ele>
        <time>2021-03-27T16:30:06Z</time>
      </trkpt>
      <trkpt lat="42.833218" lon="-3.786591">
        <ele>676.23</ele>
        <time>2021-03-27T16:30:08Z</time>
      </trkpt>
      <trkpt lat="42.832567" lon="-3.786774">
        <ele>673.94</ele>
        <time>2021-03-27T16:30:11Z</time>
      </trkpt>
      <trkpt lat="42.832273" lon="-3.786886">
        <ele>672.65</ele>
        <time>2021-03-27T16:30:13Z</time>
      </trkpt>
      <trkpt lat="42.831882" lon="-3.787114">
        <ele>671.43</ele>
        <time>2021-03-27T16:30:16Z</time>
      </trkpt>
      <trkpt lat="42.831707" lon="-3.787251">
        <ele>670.1</ele>
        <time>2021-03-27T16:30:18Z</time>
      </trkpt>
      <trkpt lat="42.83119" lon="-3.787884">
        <ele>672.45</ele>
        <time>2021-03-27T16:30:21Z</time>
      </trkpt>
      <trkpt lat="42.829245" lon="-3.790153">
        <ele>668.95</ele>
        <time>2021-03-27T16:30:23Z</time>
      </trkpt>
      <trkpt lat="42.828672" lon="-3.790796">
        <ele>667.15</ele>
        <time>2021-03-27T16:30:26Z</time>
      </trkpt>
      <trkpt lat="42.828497" lon="-3.790958">
        <ele>666.7</ele>
        <time>2021-03-27T16:30:28Z</time>
      </trkpt>
      <trkpt lat="42.827709" lon="-3.791413">
        <ele>672.37</ele>
        <time>2021-03-27T16:30:31Z</time>
      </trkpt>
      <trkpt lat="42.827359" lon="-3.791496">
        <ele>673.38</ele>
        <time>2021-03-27T16:30:33Z</time>
      </trkpt>
      <trkpt lat="42.827166" lon="-3.791501">
        <ele>673.59</ele>
        <time>2021-03-27T16:30:36Z</time>
      </trkpt>
      <trkpt lat="42.826475" lon="-3.791404">
        <ele>676.43</ele>
        <time>2021-03-27T16:30:38Z</time>
      </trkpt>
      <trkpt lat="42.826179" lon="-3.79133">
        <ele>676.22</ele>
        <time>2021-03-27T16:30:41Z</time>
      </trkpt>
      <trkpt lat="42.825505" lon="-3.791301">
        <ele>678.5</ele>
        <time>2021-03-27T16:30:43Z</time>
      </trkpt>
      <trkpt lat="42.824432" lon="-3.791325">
        <ele>673.62</ele>
        <time>2021-03-27T16:30:46Z</time>
      </trkpt>
      <trkpt lat="42.823913" lon="-3.791412">
        <ele>674.91</ele>
        <time>2021-03-27T16:30:48Z</time>
      </trkpt>
      <trkpt lat="42.823471" lon="-3.791548">
        <ele>676.92</ele>
        <time>2021-03-27T16:30:51Z</time>
      </trkpt>
      <trkpt lat="42.823163" lon="-3.791671">
        <ele>677.33</ele>
        <time>2021-03-27T16:30:53Z</time>
      </trkpt>
      <trkpt lat="42.823062" lon="-3.791732">
        <ele>677.02</ele>
        <time>2021-03-27T16:30:56Z</time>
      </trkpt>
      <trkpt lat="42.822484" lon="-3.792144">
        <ele>674.65</ele>
        <time>2021-03-27T16:30:58Z</time>
      </trkpt>
      <trkpt lat="42.822029" lon="-3.792511">
        <ele>678.72</ele>
        <time>2021-03-27T16:31:01Z</time>
      </trkpt>
      <trkpt lat="42.821907" lon="-3.792629">
        <ele>680.72</ele>
        <time>2021-03-27T16:31:03Z</time>
      </trkpt>
      <trkpt lat="42.821587" lon="-3.792835">
        <ele>684.82</ele>
        <time>2021-03-27T16:31:06Z</time>
      </trkpt>
      <trkpt lat="42.821391" lon="-3.792993">
        <ele>681.7</ele>
        <time>2021-03-27T16:31:08Z</time>
      </trkpt>
      <trkpt lat="42.821167" lon="-3.793124">
        <ele>674.48</ele>
        <time>2021-03-27T16:31:11Z</time>
      </trkpt>
      <trkpt lat="42.820804" lon="-3.793155">
        <ele>670.83</ele>
        <time>2021-03-27T16:31:13Z</time>
      </trkpt>
      <trkpt lat="42.820564" lon="-3.793093">
        <ele>668.57</ele>
        <time>2021-03-27T16:31:16Z</time>
      </trkpt>
      <trkpt lat="42.820506" lon="-3.793058">
        <ele>668.43</ele>
        <time>2021-03-27T16:31:18Z</time>
      </trkpt>
      <trkpt lat="42.820366" lon="-3.792892">
        <ele>668.3</ele>
        <time>2021-03-27T16:31:21Z</time>
      </trkpt>
      <trkpt lat="42.819397" lon="-3.791159">
        <ele>671.01</ele>
        <time>2021-03-27T16:31:23Z</time>
      </trkpt>
      <trkpt lat="42.818896" lon="-3.79014">
        <ele>666.83</ele>
        <time>2021-03-27T16:31:26Z</time>
      </trkpt>
      <trkpt lat="42.818592" lon="-3.789702">
        <ele>672.42</ele>
        <time>2021-03-27T16:31:28Z</time>
      </trkpt>
      <trkpt lat="42.818407" lon="-3.789491">
        <ele>673.41</ele>
        <time>2021-03-27T16:31:31Z</time>
      </trkpt>
      <trkpt lat="42.817964" lon="-3.789067">
        <ele>670.15</ele>
        <time>2021-03-27T16:31:33Z</time>
      </trkpt>
      <trkpt lat="42.816672" lon="-3.787921">
        <ele>670.54</ele>
        <time>2021-03-27T16:31:35Z</time>
      </trkpt>
      <trkpt lat="42.815446" lon="-3.787035">
        <ele>674.11</ele>
        <time>2021-03-27T16:31:38Z</time>
      </trkpt>
      <trkpt lat="42.815155" lon="-3.78679">
        <ele>677.37</ele>
        <time>2021-03-27T16:31:40Z</time>
      </trkpt>
      <trkpt lat="42.815053" lon="-3.786741">
        <ele>679.32</ele>
        <time>2021-03-27T16:31:43Z</time>
      </trkpt>
      <trkpt lat="42.814857" lon="-3.786725">
        <ele>679.8</ele>
        <time>2021-03-27T16:31:45Z</time>
      </trkpt>
      <trkpt lat="42.813216" lon="-3.78692">
        <ele>675.87</ele>
        <time>2021-03-27T16:31:48Z</time>
      </trkpt>
      <trkpt lat="42.811701" lon="-3.786908">
        <ele>673.92</ele>
        <time>2021-03-27T16:31:50Z</time>
      </trkpt>
      <trkpt lat="42.811473" lon="-3.786873">
        <ele>672.17</ele>
        <time>2021-03-27T16:31:53Z</time>
      </trkpt>
      <trkpt lat="42.811284" lon="-3.786785">
        <ele>670.45</ele>
        <time>2021-03-27T16:31:55Z</time>
      </trkpt>
      <trkpt lat="42.811175" lon="-3.78662">
        <ele>669.9</ele>
        <time>2021-03-27T16:31:58Z</time>
      </trkpt>
      <trkpt lat="42.811131" lon="-3.786459">
        <ele>670.02</ele>
        <time>2021-03-27T16:32:00Z</time>
      </trkpt>
      <trkpt lat="42.811123" lon="-3.786308">
        <ele>669.93</ele>
        <time>2021-03-27T16:32:03Z</time>
      </trkpt>
      <trkpt lat="42.811134" lon="-3.786169">
        <ele>669.8</ele>
        <time>2021-03-27T16:32:05Z</time>
      </trkpt>
      <trkpt lat="42.811963" lon="-3.783435">
        <ele>668.56</ele>
        <time>2021-03-27T16:32:08Z</time>
      </trkpt>
      <trkpt lat="42.812044" lon="-3.7831">
        <ele>670.23</ele>
        <time>2021-03-27T16:32:10Z</time>
      </trkpt>
      <trkpt lat="42.812259" lon="-3.780939">
        <ele>670.28</ele>
        <time>2021-03-27T16:32:13Z</time>
      </trkpt>
      <trkpt lat="42.812477" lon="-3.778523">
        <ele>672.73</ele>
        <time>2021-03-27T16:32:15Z</time>
      </trkpt>
      <trkpt lat="42.812464" lon="-3.778368">
        <ele>672.97</ele>
        <time>2021-03-27T16:32:18Z</time>
      </trkpt>
      <trkpt lat="42.812367" lon="-3.777921">
        <ele>671.84</ele>
        <time>2021-03-27T16:32:20Z</time>
      </trkpt>
      <trkpt lat="42.812344" lon="-3.77767">
        <ele>672.02</ele>
        <time>2021-03-27T16:32:23Z</time>
      </trkpt>
      <trkpt lat="42.812614" lon="-3.776199">
        <ele>676.36</ele>
        <time>2021-03-27T16:32:25Z</time>
      </trkpt>
      <trkpt lat="42.812618" lon="-3.775931">
        <ele>676.28</ele>
        <time>2021-03-27T16:32:28Z</time>
      </trkpt>
      <trkpt lat="42.812549" lon="-3.775758">
        <ele>676.02</ele>
        <time>2021-03-27T16:32:30Z</time>
      </trkpt>
      <trkpt lat="42.812463" lon="-3.775632">
        <ele>676.68</ele>
        <time>2021-03-27T16:32:33Z</time>
      </trkpt>
      <trkpt lat="42.812294" lon="-3.775569">
        <ele>678.35</ele>
        <time>2021-03-27T16:32:35Z</time>
      </trkpt>
      <trkpt lat="42.812117" lon="-3.775537">
        <ele>679.51</ele>
        <time>2021-03-27T16:32:38Z</time>
      </trkpt>
      <trkpt lat="42.811283" lon="-3.775411">
        <ele>677.17</ele>
        <time>2021-03-27T16:32:40Z</time>
      </trkpt>
      <trkpt lat="42.810944" lon="-3.775404">
        <ele>676.76</ele>
        <time>2021-03-27T16:32:43Z</time>
      </trkpt>
      <trkpt lat="42.810586" lon="-3.775368">
        <ele>679.58</ele>
        <time>2021-03-27T16:32:45Z</time>
      </trkpt>
      <trkpt lat="42.809292" lon="-3.77514">
        <ele>685.9</ele>
        <time>2021-03-27T16:32:48Z</time>
      </trkpt>
      <trkpt lat="42.809083" lon="-3.775171">
        <ele>688.34</ele>
        <time>2021-03-27T16:32:50Z</time>
      </trkpt>
      <trkpt lat="42.808422" lon="-3.775396">
        <ele>688.05</ele>
        <time>2021-03-27T16:32:53Z</time>
      </trkpt>
      <trkpt lat="42.808188" lon="-3.775426">
        <ele>687.16</ele>
        <time>2021-03-27T16:32:55Z</time>
      </trkpt>
      <trkpt lat="42.808054" lon="-3.775421">
        <ele>687.36</ele>
        <time>2021-03-27T16:32:58Z</time>
      </trkpt>
      <trkpt lat="42.807462" lon="-3.775242">
        <ele>692.3</ele>
        <time>2021-03-27T16:33:00Z</time>
      </trkpt>
      <trkpt lat="42.807196" lon="-3.77518">
        <ele>690.51</ele>
        <time>2021-03-27T16:33:03Z</time>
      </trkpt>
      <trkpt lat="42.807109" lon="-3.775138">
        <ele>689.45</ele>
        <time>2021-03-27T16:33:05Z</time>
      </trkpt>
      <trkpt lat="42.807056" lon="-3.775014">
        <ele>691.27</ele>
        <time>2021-03-27T16:33:08Z</time>
      </trkpt>
      <trkpt lat="42.807871" lon="-3.775157">
        <ele>697.34</ele>
        <time>2021-03-27T16:33:11Z</time>
      </trkpt>
      <trkpt lat="42.808033" lon="-3.775159">
        <ele>697.9</ele>
        <time>2021-03-27T16:33:14Z</time>
      </trkpt>
      <trkpt lat="42.808222" lon="-3.775088">
        <ele>702.17</ele>
        <time>2021-03-27T16:33:18Z</time>
      </trkpt>
      <trkpt lat="42.808954" lon="-3.774745">
        <ele>706.08</ele>
        <time>2021-03-27T16:33:21Z</time>
      </trkpt>
      <trkpt lat="42.810529" lon="-3.774471">
        <ele>708.84</ele>
        <time>2021-03-27T16:33:24Z</time>
      </trkpt>
      <trkpt lat="42.810719" lon="-3.774406">
        <ele>710.35</ele>
        <time>2021-03-27T16:33:28Z</time>
      </trkpt>
      <trkpt lat="42.813348" lon="-3.77291">
        <ele>733.59</ele>
        <time>2021-03-27T16:33:31Z</time>
      </trkpt>
      <trkpt lat="42.813479" lon="-3.772856">
        <ele>734.12</ele>
        <time>2021-03-27T16:33:34Z</time>
      </trkpt>
      <trkpt lat="42.814638" lon="-3.772856">
        <ele>736.07</ele>
        <time>2021-03-27T16:33:38Z</time>
      </trkpt>
      <trkpt lat="42.814929" lon="-3.77277">
        <ele>740.78</ele>
        <time>2021-03-27T16:33:41Z</time>
      </trkpt>
      <trkpt lat="42.816181" lon="-3.772297">
        <ele>750.09</ele>
        <time>2021-03-27T16:33:45Z</time>
      </trkpt>
      <trkpt lat="42.816423" lon="-3.772275">
        <ele>749.02</ele>
        <time>2021-03-27T16:33:48Z</time>
      </trkpt>
      <trkpt lat="42.816949" lon="-3.772331">
        <ele>754.15</ele>
        <time>2021-03-27T16:33:51Z</time>
      </trkpt>
      <trkpt lat="42.817125" lon="-3.772295">
        <ele>759.08</ele>
        <time>2021-03-27T16:33:55Z</time>
      </trkpt>
      <trkpt lat="42.817194" lon="-3.772247">
        <ele>760.54</ele>
        <time>2021-03-27T16:33:58Z</time>
      </trkpt>
      <trkpt lat="42.817265" lon="-3.772137">
        <ele>763.47</ele>
        <time>2021-03-27T16:34:01Z</time>
      </trkpt>
      <trkpt lat="42.817284" lon="-3.77201">
        <ele>764.59</ele>
        <time>2021-03-27T16:34:05Z</time>
      </trkpt>
      <trkpt lat="42.817283" lon="-3.771881">
        <ele>765.26</ele>
        <time>2021-03-27T16:34:08Z</time>
      </trkpt>
      <trkpt lat="42.817247" lon="-3.771771">
        <ele>764.88</ele>
        <time>2021-03-27T16:34:12Z</time>
      </trkpt>
      <trkpt lat="42.817202" lon="-3.7717">
        <ele>764.25</ele>
        <time>2021-03-27T16:34:15Z</time>
      </trkpt>
      <trkpt lat="42.817087" lon="-3.771617">
        <ele>764.16</ele>
        <time>2021-03-27T16:34:18Z</time>
      </trkpt>
      <trkpt lat="42.81695" lon="-3.771625">
        <ele>761.89</ele>
        <time>2021-03-27T16:34:22Z</time>
      </trkpt>
      <trkpt lat="42.816455" lon="-3.771902">
        <ele>753.68</ele>
        <time>2021-03-27T16:34:25Z</time>
      </trkpt>
      <trkpt lat="42.816087" lon="-3.772026">
        <ele>757.77</ele>
        <time>2021-03-27T16:34:28Z</time>
      </trkpt>
      <trkpt lat="42.81558" lon="-3.772051">
        <ele>762.54</ele>
        <time>2021-03-27T16:34:32Z</time>
      </trkpt>
      <trkpt lat="42.814858" lon="-3.772152">
        <ele>764.48</ele>
        <time>2021-03-27T16:34:35Z</time>
      </trkpt>
      <trkpt lat="42.814666" lon="-3.772122">
        <ele>763.52</ele>
        <time>2021-03-27T16:34:39Z</time>
      </trkpt>
      <trkpt lat="42.814506" lon="-3.772065">
        <ele>765.23</ele>
        <time>2021-03-27T16:34:42Z</time>
      </trkpt>
      <trkpt lat="42.814192" lon="-3.771921">
        <ele>768.78</ele>
        <time>2021-03-27T16:34:45Z</time>
      </trkpt>
      <trkpt lat="42.813675" lon="-3.771621">
        <ele>769.23</ele>
        <time>2021-03-27T16:34:49Z</time>
      </trkpt>
      <trkpt lat="42.813532" lon="-3.771587">
        <ele>770.14</ele>
        <time>2021-03-27T16:34:52Z</time>
      </trkpt>
      <trkpt lat="42.813312" lon="-3.771582">
        <ele>771.91</ele>
        <time>2021-03-27T16:34:55Z</time>
      </trkpt>
      <trkpt lat="42.812734" lon="-3.771781">
        <ele>768.28</ele>
        <time>2021-03-27T16:34:59Z</time>
      </trkpt>
      <trkpt lat="42.812629" lon="-3.771798">
        <ele>769.09</ele>
        <time>2021-03-27T16:35:02Z</time>
      </trkpt>
      <trkpt lat="42.812558" lon="-3.771766">
        <ele>771.03</ele>
        <time>2021-03-27T16:35:05Z</time>
      </trkpt>
      <trkpt lat="42.81251" lon="-3.771658">
        <ele>775.21</ele>
        <time>2021-03-27T16:35:09Z</time>
      </trkpt>
      <trkpt lat="42.812507" lon="-3.771518">
        <ele>780.74</ele>
        <time>2021-03-27T16:35:12Z</time>
      </trkpt>
      <trkpt lat="42.812525" lon="-3.771447">
        <ele>783.27</ele>
        <time>2021-03-27T16:35:16Z</time>
      </trkpt>
      <trkpt lat="42.812644" lon="-3.771373">
        <ele>784.07</ele>
        <time>2021-03-27T16:35:19Z</time>
      </trkpt>
      <trkpt lat="42.813362" lon="-3.771217">
        <ele>782.43</ele>
        <time>2021-03-27T16:35:22Z</time>
      </trkpt>
      <trkpt lat="42.813489" lon="-3.771216">
        <ele>782.99</ele>
        <time>2021-03-27T16:35:26Z</time>
      </trkpt>
      <trkpt lat="42.814491" lon="-3.771634">
        <ele>780.09</ele>
        <time>2021-03-27T16:35:29Z</time>
      </trkpt>
      <trkpt lat="42.814692" lon="-3.771683">
        <ele>780.86</ele>
        <time>2021-03-27T16:35:32Z</time>
      </trkpt>
      <trkpt lat="42.814881" lon="-3.771683">
        <ele>784.1</ele>
        <time>2021-03-27T16:35:36Z</time>
      </trkpt>
      <trkpt lat="42.815252" lon="-3.77163">
        <ele>791.96</ele>
        <time>2021-03-27T16:35:39Z</time>
      </trkpt>
      <trkpt lat="42.815514" lon="-3.771536">
        <ele>801.08</ele>
        <time>2021-03-27T16:35:43Z</time>
      </trkpt>
      <trkpt lat="42.815821" lon="-3.771375">
        <ele>815.04</ele>
        <time>2021-03-27T16:35:46Z</time>
      </trkpt>
      <trkpt lat="42.81598" lon="-3.771267">
        <ele>806.63</ele>
        <time>2021-03-27T16:35:49Z</time>
      </trkpt>
      <trkpt lat="42.816125" lon="-3.771128">
        <ele>805.6</ele>
        <time>2021-03-27T16:35:53Z</time>
      </trkpt>
      <trkpt lat="42.817215" lon="-3.769906">
        <ele>804.59</ele>
        <time>2021-03-27T16:35:56Z</time>
      </trkpt>
      <trkpt lat="42.817322" lon="-3.769809">
        <ele>806.2</ele>
        <time>2021-03-27T16:35:59Z</time>
      </trkpt>
      <trkpt lat="42.81748" lon="-3.769713">
        <ele>807.31</ele>
        <time>2021-03-27T16:36:03Z</time>
      </trkpt>
      <trkpt lat="42.818068" lon="-3.769421">
        <ele>814.13</ele>
        <time>2021-03-27T16:36:06Z</time>
      </trkpt>
      <trkpt lat="42.818199" lon="-3.769294">
        <ele>815.76</ele>
        <time>2021-03-27T16:36:09Z</time>
      </trkpt>
      <trkpt lat="42.818675" lon="-3.768478">
        <ele>819.77</ele>
        <time>2021-03-27T16:36:13Z</time>
      </trkpt>
      <trkpt lat="42.819099" lon="-3.768027">
        <ele>822.62</ele>
        <time>2021-03-27T16:36:16Z</time>
      </trkpt>
      <trkpt lat="42.819393" lon="-3.767875">
        <ele>826.38</ele>
        <time>2021-03-27T16:36:20Z</time>
      </trkpt>
      <trkpt lat="42.819686" lon="-3.767781">
        <ele>827.89</ele>
        <time>2021-03-27T16:36:23Z</time>
      </trkpt>
      <trkpt lat="42.820149" lon="-3.767836">
        <ele>832.13</ele>
        <time>2021-03-27T16:36:26Z</time>
      </trkpt>
      <trkpt lat="42.820483" lon="-3.767791">
        <ele>833.83</ele>
        <time>2021-03-27T16:36:30Z</time>
      </trkpt>
      <trkpt lat="42.820578" lon="-3.76774">
        <ele>834.29</ele>
        <time>2021-03-27T16:36:33Z</time>
      </trkpt>
      <trkpt lat="42.820743" lon="-3.76757">
        <ele>835.59</ele>
        <time>2021-03-27T16:36:36Z</time>
      </trkpt>
      <trkpt lat="42.820853" lon="-3.767321">
        <ele>836.23</ele>
        <time>2021-03-27T16:36:40Z</time>
      </trkpt>
      <trkpt lat="42.821044" lon="-3.766791">
        <ele>837.93</ele>
        <time>2021-03-27T16:36:43Z</time>
      </trkpt>
      <trkpt lat="42.82118" lon="-3.766621">
        <ele>839.23</ele>
        <time>2021-03-27T16:36:47Z</time>
      </trkpt>
      <trkpt lat="42.821248" lon="-3.766567">
        <ele>840.55</ele>
        <time>2021-03-27T16:36:50Z</time>
      </trkpt>
      <trkpt lat="42.821419" lon="-3.766533">
        <ele>842.77</ele>
        <time>2021-03-27T16:36:53Z</time>
      </trkpt>
      <trkpt lat="42.821595" lon="-3.766529">
        <ele>844.71</ele>
        <time>2021-03-27T16:36:57Z</time>
      </trkpt>
      <trkpt lat="42.822887" lon="-3.767132">
        <ele>847.76</ele>
        <time>2021-03-27T16:37:00Z</time>
      </trkpt>
      <trkpt lat="42.823129" lon="-3.767343">
        <ele>849.6</ele>
        <time>2021-03-27T16:37:03Z</time>
      </trkpt>
      <trkpt lat="42.825371" lon="-3.771423">
        <ele>866.67</ele>
        <time>2021-03-27T16:37:07Z</time>
      </trkpt>
      <trkpt lat="42.825558" lon="-3.771707">
        <ele>867.87</ele>
        <time>2021-03-27T16:37:10Z</time>
      </trkpt>
      <trkpt lat="42.825859" lon="-3.772107">
        <ele>868.98</ele>
        <time>2021-03-27T16:37:14Z</time>
      </trkpt>
      <trkpt lat="42.826754" lon="-3.773209">
        <ele>869.28</ele>
        <time>2021-03-27T16:37:17Z</time>
      </trkpt>
      <trkpt lat="42.827188" lon="-3.773633">
        <ele>868.61</ele>
        <time>2021-03-27T16:37:20Z</time>
      </trkpt>
      <trkpt lat="42.827386" lon="-3.773751">
        <ele>869.76</ele>
        <time>2021-03-27T16:37:24Z</time>
      </trkpt>
      <trkpt lat="42.827618" lon="-3.773861">
        <ele>870.76</ele>
        <time>2021-03-27T16:37:27Z</time>
      </trkpt>
      <trkpt lat="42.827922" lon="-3.773954">
        <ele>869.59</ele>
        <time>2021-03-27T16:37:30Z</time>
      </trkpt>
      <trkpt lat="42.831466" lon="-3.774962">
        <ele>865.06</ele>
        <time>2021-03-27T16:37:34Z</time>
      </trkpt>
      <trkpt lat="42.836402" lon="-3.776429">
        <ele>859.67</ele>
        <time>2021-03-27T16:37:37Z</time>
      </trkpt>
      <trkpt lat="42.836796" lon="-3.776484">
        <ele>857.88</ele>
        <time>2021-03-27T16:37:40Z</time>
      </trkpt>
      <trkpt lat="42.837294" lon="-3.776469">
        <ele>855.27</ele>
        <time>2021-03-27T16:37:44Z</time>
      </trkpt>
      <trkpt lat="42.838199" lon="-3.776396">
        <ele>847.43</ele>
        <time>2021-03-27T16:37:47Z</time>
      </trkpt>
      <trkpt lat="42.838516" lon="-3.776412">
        <ele>844.55</ele>
        <time>2021-03-27T16:37:51Z</time>
      </trkpt>
      <trkpt lat="42.838721" lon="-3.776449">
        <ele>843.4</ele>
        <time>2021-03-27T16:37:54Z</time>
      </trkpt>
      <trkpt lat="42.838932" lon="-3.776541">
        <ele>841.74</ele>
        <time>2021-03-27T16:37:57Z</time>
      </trkpt>
      <trkpt lat="42.839308" lon="-3.776746">
        <ele>839.43</ele>
        <time>2021-03-27T16:38:01Z</time>
      </trkpt>
      <trkpt lat="42.839569" lon="-3.776986">
        <ele>839.6</ele>
        <time>2021-03-27T16:38:04Z</time>
      </trkpt>
      <trkpt lat="42.839707" lon="-3.777158">
        <ele>839.35</ele>
        <time>2021-03-27T16:38:07Z</time>
      </trkpt>
      <trkpt lat="42.839808" lon="-3.777336">
        <ele>839.77</ele>
        <time>2021-03-27T16:38:11Z</time>
      </trkpt>
      <trkpt lat="42.839999" lon="-3.777738">
        <ele>842.99</ele>
        <time>2021-03-27T16:38:14Z</time>
      </trkpt>
      <trkpt lat="42.840342" lon="-3.778615">
        <ele>848.68</ele>
        <time>2021-03-27T16:38:18Z</time>
      </trkpt>
      <trkpt lat="42.8406" lon="-3.779161">
        <ele>849.51</ele>
        <time>2021-03-27T16:38:21Z</time>
      </trkpt>
      <trkpt lat="42.840706" lon="-3.779334">
        <ele>850.63</ele>
        <time>2021-03-27T16:38:24Z</time>
      </trkpt>
      <trkpt lat="42.840894" lon="-3.779541">
        <ele>852.71</ele>
        <time>2021-03-27T16:38:28Z</time>
      </trkpt>
      <trkpt lat="42.841227" lon="-3.779864">
        <ele>853.28</ele>
        <time>2021-03-27T16:38:31Z</time>
      </trkpt>
      <trkpt lat="42.841385" lon="-3.779974">
        <ele>852.2</ele>
        <time>2021-03-27T16:38:34Z</time>
      </trkpt>
      <trkpt lat="42.841521" lon="-3.78005">
        <ele>851.65</ele>
        <time>2021-03-27T16:38:38Z</time>
      </trkpt>
      <trkpt lat="42.842203" lon="-3.780344">
        <ele>847.61</ele>
        <time>2021-03-27T16:38:41Z</time>
      </trkpt>
      <trkpt lat="42.842491" lon="-3.780487">
        <ele>845.76</ele>
        <time>2021-03-27T16:38:45Z</time>
      </trkpt>
      <trkpt lat="42.842799" lon="-3.780699">
        <ele>844.41</ele>
        <time>2021-03-27T16:38:48Z</time>
      </trkpt>
      <trkpt lat="42.843023" lon="-3.780933">
        <ele>841.72</ele>
        <time>2021-03-27T16:38:51Z</time>
      </trkpt>
      <trkpt lat="42.843263" lon="-3.781277">
        <ele>842.49</ele>
        <time>2021-03-27T16:38:55Z</time>
      </trkpt>
      <trkpt lat="42.843719" lon="-3.782133">
        <ele>843.45</ele>
        <time>2021-03-27T16:38:58Z</time>
      </trkpt>
      <trkpt lat="42.84384" lon="-3.78232">
        <ele>842.65</ele>
        <time>2021-03-27T16:39:01Z</time>
      </trkpt>
      <trkpt lat="42.844252" lon="-3.782741">
        <ele>842.08</ele>
        <time>2021-03-27T16:39:05Z</time>
      </trkpt>
      <trkpt lat="42.84471" lon="-3.783024">
        <ele>839.27</ele>
        <time>2021-03-27T16:39:08Z</time>
      </trkpt>
      <trkpt lat="42.844889" lon="-3.783092">
        <ele>838.19</ele>
        <time>2021-03-27T16:39:11Z</time>
      </trkpt>
      <trkpt lat="42.845223" lon="-3.783155">
        <ele>833.49</ele>
        <time>2021-03-27T16:39:15Z</time>
      </trkpt>
      <trkpt lat="42.846528" lon="-3.783213">
        <ele>830.13</ele>
        <time>2021-03-27T16:39:18Z</time>
      </trkpt>
      <trkpt lat="42.846801" lon="-3.783252">
        <ele>832.66</ele>
        <time>2021-03-27T16:39:22Z</time>
      </trkpt>
      <trkpt lat="42.847115" lon="-3.783333">
        <ele>834.62</ele>
        <time>2021-03-27T16:39:25Z</time>
      </trkpt>
      <trkpt lat="42.847373" lon="-3.783432">
        <ele>836.22</ele>
        <time>2021-03-27T16:39:28Z</time>
      </trkpt>
      <trkpt lat="42.847602" lon="-3.783546">
        <ele>836.85</ele>
        <time>2021-03-27T16:39:32Z</time>
      </trkpt>
      <trkpt lat="42.847783" lon="-3.783662">
        <ele>837.4</ele>
        <time>2021-03-27T16:39:35Z</time>
      </trkpt>
      <trkpt lat="42.848171" lon="-3.783973">
        <ele>840.77</ele>
        <time>2021-03-27T16:39:38Z</time>
      </trkpt>
      <trkpt lat="42.849297" lon="-3.785073">
        <ele>846.73</ele>
        <time>2021-03-27T16:39:42Z</time>
      </trkpt>
      <trkpt lat="42.849466" lon="-3.785221">
        <ele>846.36</ele>
        <time>2021-03-27T16:39:45Z</time>
      </trkpt>
      <trkpt lat="42.850026" lon="-3.785608">
        <ele>849.98</ele>
        <time>2021-03-27T16:39:49Z</time>
      </trkpt>
      <trkpt lat="42.86077" lon="-3.792666">
        <ele>876.02</ele>
        <time>2021-03-27T16:39:52Z</time>
      </trkpt>
      <trkpt lat="42.86077" lon="-3.792666">
        <ele>876.02</ele>
        <time>2021-03-27T16:39:52Z</time>
      </trkpt>
      <trkpt lat="42.867004" lon="-3.796771">
        <ele>929.18</ele>
        <time>2021-03-27T16:40:01Z</time>
      </trkpt>
      <trkpt lat="42.87446" lon="-3.79942">
        <ele>925.29</ele>
        <time>2021-03-27T16:40:10Z</time>
      </trkpt>
      <trkpt lat="42.874725" lon="-3.799497">
        <ele>926.61</ele>
        <time>2021-03-27T16:40:19Z</time>
      </trkpt>
      <trkpt lat="42.875411" lon="-3.799586">
        <ele>921.79</ele>
        <time>2021-03-27T16:40:28Z</time>
      </trkpt>
      <trkpt lat="42.875731" lon="-3.79965">
        <ele>920.56</ele>
        <time>2021-03-27T16:40:37Z</time>
      </trkpt>
      <trkpt lat="42.876111" lon="-3.799797">
        <ele>922.8</ele>
        <time>2021-03-27T16:40:46Z</time>
      </trkpt>
      <trkpt lat="42.876441" lon="-3.799978">
        <ele>926.72</ele>
        <time>2021-03-27T16:40:55Z</time>
      </trkpt>
      <trkpt lat="42.876739" lon="-3.800211">
        <ele>928.88</ele>
        <time>2021-03-27T16:41:04Z</time>
      </trkpt>
      <trkpt lat="42.877053" lon="-3.800528">
        <ele>930.23</ele>
        <time>2021-03-27T16:41:13Z</time>
      </trkpt>
      <trkpt lat="42.878008" lon="-3.801617">
        <ele>935.71</ele>
        <time>2021-03-27T16:41:22Z</time>
      </trkpt>
      <trkpt lat="42.878181" lon="-3.801795">
        <ele>936.91</ele>
        <time>2021-03-27T16:41:31Z</time>
      </trkpt>
      <trkpt lat="42.878444" lon="-3.802141">
        <ele>938.0</ele>
        <time>2021-03-27T16:41:40Z</time>
      </trkpt>
      <trkpt lat="42.878591" lon="-3.802388">
        <ele>937.96</ele>
        <time>2021-03-27T16:41:49Z</time>
      </trkpt>
      <trkpt lat="42.883746" lon="-3.811951">
        <ele>931.52</ele>
        <time>2021-03-27T16:41:58Z</time>
      </trkpt>
      <trkpt lat="42.884754" lon="-3.813323">
        <ele>936.8</ele>
        <time>2021-03-27T16:42:07Z</time>
      </trkpt>
      <trkpt lat="42.885104" lon="-3.814045">
        <ele>937.38</ele>
        <time>2021-03-27T16:42:16Z</time>
      </trkpt>
      <trkpt lat="42.885413" lon="-3.814779">
        <ele>936.87</ele>
        <time>2021-03-27T16:42:25Z</time>
      </trkpt>
      <trkpt lat="42.886259" lon="-3.81627">
        <ele>934.97</ele>
        <time>2021-03-27T16:42:34Z</time>
      </trkpt>
      <trkpt lat="42.889271" lon="-3.821414">
        <ele>952.38</ele>
        <time>2021-03-27T16:42:43Z</time>
      </trkpt>
      <trkpt lat="42.889467" lon="-3.821803">
        <ele>952.96</ele>
        <time>2021-03-27T16:42:52Z</time>
      </trkpt>
      <trkpt lat="42.889616" lon="-3.822169">
        <ele>953.19</ele>
        <time>2021-03-27T16:43:01Z</time>
      </trkpt>
      <trkpt lat="42.889757" lon="-3.822636">
        <ele>955.25</ele>
        <time>2021-03-27T16:43:10Z</time>
      </trkpt>
      <trkpt lat="42.890422" lon="-3.825529">
        <ele>966.95</ele>
        <time>2021-03-27T16:43:19Z</time>
      </trkpt>
      <trkpt lat="42.890601" lon="-3.82622">
        <ele>969.65</ele>
        <time>2021-03-27T16:43:28Z</time>
      </trkpt>
      <trkpt lat="42.890721" lon="-3.826552">
        <ele>970.95</ele>
        <time>2021-03-27T16:43:37Z</time>
      </trkpt>
      <trkpt lat="42.891301" lon="-3.827713">
        <ele>975.93</ele>
        <time>2021-03-27T16:43:46Z</time>
      </trkpt>
      <trkpt lat="42.891629" lon="-3.828326">
        <ele>977.57</ele>
        <time>2021-03-27T16:43:55Z</time>
      </trkpt>
      <trkpt lat="42.891958" lon="-3.828786">
        <ele>981.0</ele>
        <time>2021-03-27T16:44:04Z</time>
      </trkpt>
      <trkpt lat="42.892098" lon="-3.828922">
        <ele>980.88</ele>
        <time>2021-03-27T16:44:13Z</time>
      </trkpt>
      <trkpt lat="42.892624" lon="-3.829252">
        <ele>981.76</ele>
        <time>2021-03-27T16:44:22Z</time>
      </trkpt>
      <trkpt lat="42.894586" lon="-3.829846">
        <ele>974.9</ele>
        <time>2021-03-27T16:44:31Z</time>
      </trkpt>
      <trkpt lat="42.898588" lon="-3.83096">
        <ele>976.56</ele>
        <time>2021-03-27T16:44:40Z</time>
      </trkpt>
      <trkpt lat="42.898588" lon="-3.83096">
        <ele>976.56</ele>
        <time>2021-03-27T16:44:40Z</time>
      </trkpt>
      <trkpt lat="42.910614" lon="-3.834296">
        <ele>983.93</ele>
        <time>2021-03-27T16:44:44Z</time>
      </trkpt>
      <trkpt lat="42.911771" lon="-3.83462">
        <ele>979.64</ele>
        <time>2021-03-27T16:44:48Z</time>
      </trkpt>
      <trkpt lat="42.912843" lon="-3.834936">
        <ele>978.53</ele>
        <time>2021-03-27T16:44:52Z</time>
      </trkpt>
      <trkpt lat="42.913364" lon="-3.835066">
        <ele>976.64</ele>
        <time>2021-03-27T16:44:56Z</time>
      </trkpt>
      <trkpt lat="42.913509" lon="-3.835081">
        <ele>974.92</ele>
        <time>2021-03-27T16:45:00Z</time>
      </trkpt>
      <trkpt lat="42.913631" lon="-3.83508">
        <ele>973.41</ele>
        <time>2021-03-27T16:45:04Z</time>
      </trkpt>
      <trkpt lat="42.91377" lon="-3.835053">
        <ele>971.41</ele>
        <time>2021-03-27T16:45:08Z</time>
      </trkpt>
      <trkpt lat="42.913898" lon="-3.834987">
        <ele>970.03</ele>
        <time>2021-03-27T16:45:12Z</time>
      </trkpt>
      <trkpt lat="42.914014" lon="-3.834879">
        <ele>969.95</ele>
        <time>2021-03-27T16:45:16Z</time>
      </trkpt>
      <trkpt lat="42.914132" lon="-3.834721">
        <ele>970.38</ele>
        <time>2021-03-27T16:45:20Z</time>
      </trkpt>
      <trkpt lat="42.914606" lon="-3.83398">
        <ele>968.73</ele>
        <time>2021-03-27T16:45:24Z</time>
      </trkpt>
      <trkpt lat="42.915049" lon="-3.833184">
        <ele>966.82</ele>
        <time>2021-03-27T16:45:28Z</time>
      </trkpt>
      <trkpt lat="42.915281" lon="-3.832798">
        <ele>968.39</ele>
        <time>2021-03-27T16:45:32Z</time>
      </trkpt>
      <trkpt lat="42.91568" lon="-3.832383">
        <ele>966.09</ele>
        <time>2021-03-27T16:45:36Z</time>
      </trkpt>
      <trkpt lat="42.916206" lon="-3.831962">
        <ele>955.47</ele>
        <time>2021-03-27T16:45:40Z</time>
      </trkpt>
      <trkpt lat="42.916596" lon="-3.831733">
        <ele>949.34</ele>
        <time>2021-03-27T16:45:44Z</time>
      </trkpt>
      <trkpt lat="42.918162" lon="-3.831057">
        <ele>947.03</ele>
        <time>2021-03-27T16:45:48Z</time>
      </trkpt>
      <trkpt lat="42.919536" lon="-3.830322">
        <ele>955.3</ele>
        <time>2021-03-27T16:45:52Z</time>
      </trkpt>
      <trkpt lat="42.920139" lon="-3.829954">
        <ele>956.33</ele>
        <time>2021-03-27T16:45:56Z</time>
      </trkpt>
      <trkpt lat="42.920514" lon="-3.829684">
        <ele>957.24</ele>
        <time>2021-03-27T16:46:00Z</time>
      </trkpt>
      <trkpt lat="42.921225" lon="-3.829267">
        <ele>956.87</ele>
        <time>2021-03-27T16:46:04Z</time>
      </trkpt>
      <trkpt lat="42.92182" lon="-3.82887">
        <ele>959.39</ele>
        <time>2021-03-27T16:46:08Z</time>
      </trkpt>
      <trkpt lat="42.922491" lon="-3.828284">
        <ele>965.48</ele>
        <time>2021-03-27T16:46:12Z</time>
      </trkpt>
      <trkpt lat="42.922982" lon="-3.827905">
        <ele>969.49</ele>
        <time>2021-03-27T16:46:16Z</time>
      </trkpt>
      <trkpt lat="42.923253" lon="-3.827811">
        <ele>972.63</ele>
        <time>2021-03-27T16:46:20Z</time>
      </trkpt>
      <trkpt lat="42.924127" lon="-3.827709">
        <ele>980.59</ele>
        <time>2021-03-27T16:46:24Z</time>
      </trkpt>
      <trkpt lat="42.925672" lon="-3.827408">
        <ele>978.89</ele>
        <time>2021-03-27T16:46:28Z</time>
      </trkpt>
      <trkpt lat="42.925955" lon="-3.827399">
        <ele>982.38</ele>
        <time>2021-03-27T16:46:32Z</time>
      </trkpt>
      <trkpt lat="42.929388" lon="-3.827611">
        <ele>978.52</ele>
        <time>2021-03-27T16:46:36Z</time>
      </trkpt>
      <trkpt lat="42.93082" lon="-3.827817">
        <ele>984.52</ele>
        <time>2021-03-27T16:46:40Z</time>
      </trkpt>
      <trkpt lat="42.931233" lon="-3.827914">
        <ele>988.46</ele>
        <time>2021-03-27T16:46:44Z</time>
      </trkpt>
      <trkpt lat="42.931644" lon="-3.82807">
        <ele>995.93</ele>
        <time>2021-03-27T16:46:48Z</time>
      </trkpt>
      <trkpt lat="42.932274" lon="-3.82837">
        <ele>989.79</ele>
        <time>2021-03-27T16:46:52Z</time>
      </trkpt>
      <trkpt lat="42.932626" lon="-3.828505">
        <ele>990.5</ele>
        <time>2021-03-27T16:46:56Z</time>
      </trkpt>
      <trkpt lat="42.933111" lon="-3.828648">
        <ele>995.8</ele>
        <time>2021-03-27T16:47:00Z</time>
      </trkpt>
      <trkpt lat="42.9333" lon="-3.828722">
        <ele>996.25</ele>
        <time>2021-03-27T16:47:04Z</time>
      </trkpt>
      <trkpt lat="42.93346" lon="-3.828803">
        <ele>996.68</ele>
        <time>2021-03-27T16:47:08Z</time>
      </trkpt>
      <trkpt lat="42.933968" lon="-3.829143">
        <ele>998.14</ele>
        <time>2021-03-27T16:47:12Z</time>
      </trkpt>
      <trkpt lat="42.934267" lon="-3.829275">
        <ele>1000.04</ele>
        <time>2021-03-27T16:47:16Z</time>
      </trkpt>
      <trkpt lat="42.934486" lon="-3.82933">
        <ele>1002.31</ele>
        <time>2021-03-27T16:47:20Z</time>
      </trkpt>
      <trkpt lat="42.935462" lon="-3.829367">
        <ele>999.78</ele>
        <time>2021-03-27T16:47:24Z</time>
      </trkpt>
      <trkpt lat="42.935673" lon="-3.829418">
        <ele>1003.12</ele>
        <time>2021-03-27T16:47:28Z</time>
      </trkpt>
      <trkpt lat="42.935891" lon="-3.829512">
        <ele>1005.41</ele>
        <time>2021-03-27T16:47:32Z</time>
      </trkpt>
      <trkpt lat="42.93664" lon="-3.829908">
        <ele>1003.33</ele>
        <time>2021-03-27T16:47:36Z</time>
      </trkpt>
      <trkpt lat="42.936779" lon="-3.829962">
        <ele>1004.85</ele>
        <time>2021-03-27T16:47:40Z</time>
      </trkpt>
      <trkpt lat="42.937077" lon="-3.830024">
        <ele>1009.35</ele>
        <time>2021-03-27T16:47:44Z</time>
      </trkpt>
      <trkpt lat="42.937352" lon="-3.829997">
        <ele>1011.57</ele>
        <time>2021-03-27T16:47:48Z</time>
      </trkpt>
      <trkpt lat="42.937559" lon="-3.829938">
        <ele>1011.81</ele>
        <time>2021-03-27T16:47:52Z</time>
      </trkpt>
      <trkpt lat="42.938242" lon="-3.829626">
        <ele>1008.36</ele>
        <time>2021-03-27T16:47:56Z</time>
      </trkpt>
      <trkpt lat="42.938552" lon="-3.82952">
        <ele>1006.11</ele>
        <time>2021-03-27T16:48:00Z</time>
      </trkpt>
      <trkpt lat="42.938731" lon="-3.829508">
        <ele>1005.51</ele>
        <time>2021-03-27T16:48:04Z</time>
      </trkpt>
      <trkpt lat="42.939184" lon="-3.829544">
        <ele>1005.97</ele>
        <time>2021-03-27T16:48:08Z</time>
      </trkpt>
      <trkpt lat="42.939416" lon="-3.829592">
        <ele>1008.56</ele>
        <time>2021-03-27T16:48:12Z</time>
      </trkpt>
      <trkpt lat="42.939671" lon="-3.829677">
        <ele>1010.99</ele>
        <time>2021-03-27T16:48:16Z</time>
      </trkpt>
      <trkpt lat="42.940049" lon="-3.829885">
        <ele>1004.95</ele>
        <time>2021-03-27T16:48:20Z</time>
      </trkpt>
      <trkpt lat="42.94031" lon="-3.830068">
        <ele>1002.13</ele>
        <time>2021-03-27T16:48:24Z</time>
      </trkpt>
      <trkpt lat="42.940974" lon="-3.830804">
        <ele>1000.35</ele>
        <time>2021-03-27T16:48:28Z</time>
      </trkpt>
      <trkpt lat="42.941133" lon="-3.831002">
        <ele>996.89</ele>
        <time>2021-03-27T16:48:32Z</time>
      </trkpt>
      <trkpt lat="42.941279" lon="-3.831237">
        <ele>993.27</ele>
        <time>2021-03-27T16:48:36Z</time>
      </trkpt>
      <trkpt lat="42.941384" lon="-3.831461">
        <ele>991.5</ele>
        <time>2021-03-27T16:48:40Z</time>
      </trkpt>
      <trkpt lat="42.941596" lon="-3.832153">
        <ele>985.31</ele>
        <time>2021-03-27T16:48:43Z</time>
      </trkpt>
      <trkpt lat="42.941693" lon="-3.832378">
        <ele>985.65</ele>
        <time>2021-03-27T16:48:47Z</time>
      </trkpt>
      <trkpt lat="42.941748" lon="-3.832466">
        <ele>986.41</ele>
        <time>2021-03-27T16:48:51Z</time>
      </trkpt>
      <trkpt lat="42.941905" lon="-3.832602">
        <ele>984.9</ele>
        <time>2021-03-27T16:48:55Z</time>
      </trkpt>
      <trkpt lat="42.942344" lon="-3.83272">
        <ele>978.6</ele>
        <time>2021-03-27T16:48:59Z</time>
      </trkpt>
      <trkpt lat="42.942428" lon="-3.832768">
        <ele>978.24</ele>
        <time>2021-03-27T16:49:03Z</time>
      </trkpt>
      <trkpt lat="42.942512" lon="-3.832857">
        <ele>978.4</ele>
        <time>2021-03-27T16:49:07Z</time>
      </trkpt>
      <trkpt lat="42.942614" lon="-3.832992">
        <ele>978.44</ele>
        <time>2021-03-27T16:49:11Z</time>
      </trkpt>
      <trkpt lat="42.942798" lon="-3.833351">
        <ele>978.52</ele>
        <time>2021-03-27T16:49:15Z</time>
      </trkpt>
      <trkpt lat="42.943031" lon="-3.834041">
        <ele>981.54</ele>
        <time>2021-03-27T16:49:19Z</time>
      </trkpt>
      <trkpt lat="42.943111" lon="-3.83413">
        <ele>980.16</ele>
        <time>2021-03-27T16:49:23Z</time>
      </trkpt>
      <trkpt lat="42.943691" lon="-3.834528">
        <ele>971.11</ele>
        <time>2021-03-27T16:49:27Z</time>
      </trkpt>
      <trkpt lat="42.943919" lon="-3.834765">
        <ele>970.96</ele>
        <time>2021-03-27T16:49:31Z</time>
      </trkpt>
      <trkpt lat="42.944286" lon="-3.835199">
        <ele>966.52</ele>
        <time>2021-03-27T16:49:35Z</time>
      </trkpt>
      <trkpt lat="42.944504" lon="-3.835556">
        <ele>964.28</ele>
        <time>2021-03-27T16:49:39Z</time>
      </trkpt>
      <trkpt lat="42.944684" lon="-3.835921">
        <ele>962.9</ele>
        <time>2021-03-27T16:49:43Z</time>
      </trkpt>
      <trkpt lat="42.944809" lon="-3.836228">
        <ele>961.26</ele>
        <time>2021-03-27T16:49:47Z</time>
      </trkpt>
      <trkpt lat="42.944844" lon="-3.836427">
        <ele>960.62</ele>
        <time>2021-03-27T16:49:51Z</time>
      </trkpt>
      <trkpt lat="42.94482" lon="-3.836692">
        <ele>961.49</ele>
        <time>2021-03-27T16:49:55Z</time>
      </trkpt>
      <trkpt lat="42.944755" lon="-3.837067">
        <ele>965.96</ele>
        <time>2021-03-27T16:49:59Z</time>
      </trkpt>
      <trkpt lat="42.944752" lon="-3.837139">
        <ele>966.88</ele>
        <time>2021-03-27T16:50:03Z</time>
      </trkpt>
      <trkpt lat="42.944784" lon="-3.837271">
        <ele>967.89</ele>
        <time>2021-03-27T16:50:07Z</time>
      </trkpt>
      <trkpt lat="42.944834" lon="-3.837341">
        <ele>967.66</ele>
        <time>2021-03-27T16:50:11Z</time>
      </trkpt>
      <trkpt lat="42.945118" lon="-3.837616">
        <ele>964.59</ele>
        <time>2021-03-27T16:50:15Z</time>
      </trkpt>
      <trkpt lat="42.945341" lon="-3.837686">
        <ele>960.81</ele>
        <time>2021-03-27T16:50:19Z</time>
      </trkpt>
      <trkpt lat="42.945643" lon="-3.837726">
        <ele>955.72</ele>
        <time>2021-03-27T16:50:23Z</time>
      </trkpt>
      <trkpt lat="42.945771" lon="-3.837771">
        <ele>953.6</ele>
        <time>2021-03-27T16:50:27Z</time>
      </trkpt>
      <trkpt lat="42.945893" lon="-3.837849">
        <ele>952.32</ele>
        <time>2021-03-27T16:50:31Z</time>
      </trkpt>
      <trkpt lat="42.946022" lon="-3.837976">
        <ele>951.02</ele>
        <time>2021-03-27T16:50:35Z</time>
      </trkpt>
      <trkpt lat="42.946285" lon="-3.838351">
        <ele>948.7</ele>
        <time>2021-03-27T16:50:39Z</time>
      </trkpt>
      <trkpt lat="42.946456" lon="-3.838788">
        <ele>951.33</ele>
        <time>2021-03-27T16:50:43Z</time>
      </trkpt>
      <trkpt lat="42.946561" lon="-3.838975">
        <ele>952.3</ele>
        <time>2021-03-27T16:50:47Z</time>
      </trkpt>
      <trkpt lat="42.94668" lon="-3.839095">
        <ele>951.37</ele>
        <time>2021-03-27T16:50:51Z</time>
      </trkpt>
      <trkpt lat="42.947039" lon="-3.839261">
        <ele>940.63</ele>
        <time>2021-03-27T16:50:55Z</time>
      </trkpt>
      <trkpt lat="42.947162" lon="-3.839356">
        <ele>937.42</ele>
        <time>2021-03-27T16:50:59Z</time>
      </trkpt>
      <trkpt lat="42.947309" lon="-3.839536">
        <ele>935.49</ele>
        <time>2021-03-27T16:51:03Z</time>
      </trkpt>
      <trkpt lat="42.947438" lon="-3.839754">
        <ele>935.26</ele>
        <time>2021-03-27T16:51:07Z</time>
      </trkpt>
      <trkpt lat="42.947546" lon="-3.840007">
        <ele>937.48</ele>
        <time>2021-03-27T16:51:11Z</time>
      </trkpt>
      <trkpt lat="42.947621" lon="-3.840267">
        <ele>939.98</ele>
        <time>2021-03-27T16:51:15Z</time>
      </trkpt>
      <trkpt lat="42.947729" lon="-3.84056">
        <ele>940.7</ele>
        <time>2021-03-27T16:51:19Z</time>
      </trkpt>
      <trkpt lat="42.947891" lon="-3.840884">
        <ele>938.06</ele>
        <time>2021-03-27T16:51:23Z</time>
      </trkpt>
      <trkpt lat="42.94853" lon="-3.841895">
        <ele>927.32</ele>
        <time>2021-03-27T16:51:27Z</time>
      </trkpt>
      <trkpt lat="42.948783" lon="-3.842359">
        <ele>928.2</ele>
        <time>2021-03-27T16:51:31Z</time>
      </trkpt>
      <trkpt lat="42.948909" lon="-3.84252">
        <ele>928.13</ele>
        <time>2021-03-27T16:51:35Z</time>
      </trkpt>
      <trkpt lat="42.949255" lon="-3.842753">
        <ele>922.42</ele>
        <time>2021-03-27T16:51:39Z</time>
      </trkpt>
      <trkpt lat="42.949346" lon="-3.842872">
        <ele>922.02</ele>
        <time>2021-03-27T16:51:43Z</time>
      </trkpt>
      <trkpt lat="42.949823" lon="-3.843704">
        <ele>920.74</ele>
        <time>2021-03-27T16:51:47Z</time>
      </trkpt>
      <trkpt lat="42.949991" lon="-3.843964">
        <ele>916.71</ele>
        <time>2021-03-27T16:51:51Z</time>
      </trkpt>
      <trkpt lat="42.950429" lon="-3.844375">
        <ele>915.3</ele>
        <time>2021-03-27T16:51:55Z</time>
      </trkpt>
      <trkpt lat="42.951021" lon="-3.844851">
        <ele>908.86</ele>
        <time>2021-03-27T16:51:59Z</time>
      </trkpt>
      <trkpt lat="42.951589" lon="-3.845363">
        <ele>904.64</ele>
        <time>2021-03-27T16:52:03Z</time>
      </trkpt>
      <trkpt lat="42.951894" lon="-3.845612">
        <ele>901.38</ele>
        <time>2021-03-27T16:52:07Z</time>
      </trkpt>
      <trkpt lat="42.952228" lon="-3.845846">
        <ele>896.98</ele>
        <time>2021-03-27T16:52:11Z</time>
      </trkpt>
      <trkpt lat="42.952488" lon="-3.845985">
        <ele>896.57</ele>
        <time>2021-03-27T16:52:15Z</time>
      </trkpt>
      <trkpt lat="42.952959" lon="-3.846193">
        <ele>891.53</ele>
        <time>2021-03-27T16:52:19Z</time>
      </trkpt>
      <trkpt lat="42.953341" lon="-3.846302">
        <ele>889.38</ele>
        <time>2021-03-27T16:52:23Z</time>
      </trkpt>
      <trkpt lat="42.953701" lon="-3.84635">
        <ele>890.37</ele>
        <time>2021-03-27T16:52:27Z</time>
      </trkpt>
      <trkpt lat="42.954321" lon="-3.846358">
        <ele>891.67</ele>
        <time>2021-03-27T16:52:31Z</time>
      </trkpt>
      <trkpt lat="42.956295" lon="-3.846226">
        <ele>884.13</ele>
        <time>2021-03-27T16:52:35Z</time>
      </trkpt>
      <trkpt lat="42.95668" lon="-3.846238">
        <ele>887.0</ele>
        <time>2021-03-27T16:52:39Z</time>
      </trkpt>
      <trkpt lat="42.957361" lon="-3.84641">
        <ele>884.0</ele>
        <time>2021-03-27T16:52:43Z</time>
      </trkpt>
      <trkpt lat="42.958236" lon="-3.846757">
        <ele>873.4</ele>
        <time>2021-03-27T16:52:47Z</time>
      </trkpt>
      <trkpt lat="42.958834" lon="-3.847058">
        <ele>870.0</ele>
        <time>2021-03-27T16:52:51Z</time>
      </trkpt>
      <trkpt lat="42.959273" lon="-3.847242">
        <ele>865.8</ele>
        <time>2021-03-27T16:52:55Z</time>
      </trkpt>
      <trkpt lat="42.959785" lon="-3.847365">
        <ele>861.92</ele>
        <time>2021-03-27T16:52:59Z</time>
      </trkpt>
      <trkpt lat="42.960624" lon="-3.847463">
        <ele>852.37</ele>
        <time>2021-03-27T16:53:03Z</time>
      </trkpt>
      <trkpt lat="42.961225" lon="-3.847508">
        <ele>848.83</ele>
        <time>2021-03-27T16:53:07Z</time>
      </trkpt>
      <trkpt lat="42.963894" lon="-3.847581">
        <ele>860.0</ele>
        <time>2021-03-27T16:53:11Z</time>
      </trkpt>
      <trkpt lat="42.964308" lon="-3.84763">
        <ele>860.24</ele>
        <time>2021-03-27T16:53:15Z</time>
      </trkpt>
      <trkpt lat="42.965169" lon="-3.847805">
        <ele>860.39</ele>
        <time>2021-03-27T16:53:19Z</time>
      </trkpt>
      <trkpt lat="42.965396" lon="-3.847869">
        <ele>859.3</ele>
        <time>2021-03-27T16:53:23Z</time>
      </trkpt>
      <trkpt lat="42.965396" lon="-3.847869">
        <ele>859.3</ele>
        <time>2021-03-27T16:53:23Z</time>
      </trkpt>
      <trkpt lat="42.966653" lon="-3.848438">
        <ele>852.38</ele>
        <time>2021-03-27T16:53:37Z</time>
      </trkpt>
      <trkpt lat="42.967789" lon="-3.848842">
        <ele>854.05</ele>
        <time>2021-03-27T16:53:52Z</time>
      </trkpt>
      <trkpt lat="42.970136" lon="-3.849283">
        <ele>863.21</ele>
        <time>2021-03-27T16:54:06Z</time>
      </trkpt>
      <trkpt lat="42.970343" lon="-3.849294">
        <ele>863.93</ele>
        <time>2021-03-27T16:54:20Z</time>
      </trkpt>
      <trkpt lat="42.973059" lon="-3.84909">
        <ele>875.0</ele>
        <time>2021-03-27T16:54:35Z</time>
      </trkpt>
      <trkpt lat="42.973036" lon="-3.849319">
        <ele>875.47</ele>
        <time>2021-03-27T16:54:36Z</time>
      </trkpt>
      <trkpt lat="42.972961" lon="-3.849566">
        <ele>875.61</ele>
        <time>2021-03-27T16:54:38Z</time>
      </trkpt>
      <trkpt lat="42.97294" lon="-3.849757">
        <ele>875.68</ele>
        <time>2021-03-27T16:54:40Z</time>
      </trkpt>
      <trkpt lat="42.972941" lon="-3.850235">
        <ele>875.03</ele>
        <time>2021-03-27T16:54:42Z</time>
      </trkpt>
      <trkpt lat="42.97292" lon="-3.850472">
        <ele>875.7</ele>
        <time>2021-03-27T16:54:45Z</time>
      </trkpt>
      <trkpt lat="42.972871" lon="-3.85061">
        <ele>876.33</ele>
        <time>2021-03-27T16:54:47Z</time>
      </trkpt>
      <trkpt lat="42.972749" lon="-3.850821">
        <ele>877.81</ele>
        <time>2021-03-27T16:54:50Z</time>
      </trkpt>
      <trkpt lat="42.972631" lon="-3.85095">
        <ele>877.89</ele>
        <time>2021-03-27T16:54:52Z</time>
      </trkpt>
      <trkpt lat="42.972549" lon="-3.851008">
        <ele>877.8</ele>
        <time>2021-03-27T16:54:55Z</time>
      </trkpt>
      <trkpt lat="42.97234" lon="-3.851088">
        <ele>877.92</ele>
        <time>2021-03-27T16:54:57Z</time>
      </trkpt>
      <trkpt lat="42.971135" lon="-3.851509">
        <ele>884.51</ele>
        <time>2021-03-27T16:54:59Z</time>
      </trkpt>
      <trkpt lat="42.971045" lon="-3.851561">
        <ele>884.38</ele>
        <time>2021-03-27T16:55:02Z</time>
      </trkpt>
      <trkpt lat="42.970955" lon="-3.851662">
        <ele>884.42</ele>
        <time>2021-03-27T16:55:04Z</time>
      </trkpt>
      <trkpt lat="42.970833" lon="-3.851886">
        <ele>884.79</ele>
        <time>2021-03-27T16:55:07Z</time>
      </trkpt>
      <trkpt lat="42.970551" lon="-3.852488">
        <ele>884.99</ele>
        <time>2021-03-27T16:55:09Z</time>
      </trkpt>
      <trkpt lat="42.970485" lon="-3.852577">
        <ele>884.54</ele>
        <time>2021-03-27T16:55:12Z</time>
      </trkpt>
      <trkpt lat="42.970316" lon="-3.852745">
        <ele>884.02</ele>
        <time>2021-03-27T16:55:14Z</time>
      </trkpt>
      <trkpt lat="42.969281" lon="-3.853618">
        <ele>887.05</ele>
        <time>2021-03-27T16:55:17Z</time>
      </trkpt>
      <trkpt lat="42.968908" lon="-3.853954">
        <ele>888.32</ele>
        <time>2021-03-27T16:55:19Z</time>
      </trkpt>
      <trkpt lat="42.968759" lon="-3.854103">
        <ele>887.48</ele>
        <time>2021-03-27T16:55:22Z</time>
      </trkpt>
      <trkpt lat="42.968674" lon="-3.85422">
        <ele>886.87</ele>
        <time>2021-03-27T16:55:24Z</time>
      </trkpt>
      <trkpt lat="42.968613" lon="-3.854396">
        <ele>886.85</ele>
        <time>2021-03-27T16:55:26Z</time>
      </trkpt>
      <trkpt lat="42.968494" lon="-3.855297">
        <ele>883.71</ele>
        <time>2021-03-27T16:55:29Z</time>
      </trkpt>
      <trkpt lat="42.968431" lon="-3.855616">
        <ele>882.76</ele>
        <time>2021-03-27T16:55:31Z</time>
      </trkpt>
      <trkpt lat="42.968395" lon="-3.855738">
        <ele>883.05</ele>
        <time>2021-03-27T16:55:34Z</time>
      </trkpt>
      <trkpt lat="42.968267" lon="-3.85601">
        <ele>883.07</ele>
        <time>2021-03-27T16:55:36Z</time>
      </trkpt>
      <trkpt lat="42.967699" lon="-3.857026">
        <ele>882.45</ele>
        <time>2021-03-27T16:55:39Z</time>
      </trkpt>
      <trkpt lat="42.967482" lon="-3.857299">
        <ele>880.83</ele>
        <time>2021-03-27T16:55:41Z</time>
      </trkpt>
      <trkpt lat="42.965162" lon="-3.859824">
        <ele>878.95</ele>
        <time>2021-03-27T16:55:44Z</time>
      </trkpt>
      <trkpt lat="42.965102" lon="-3.859917">
        <ele>879.07</ele>
        <time>2021-03-27T16:55:46Z</time>
      </trkpt>
      <trkpt lat="42.965025" lon="-3.860117">
        <ele>878.67</ele>
        <time>2021-03-27T16:55:48Z</time>
      </trkpt>
      <trkpt lat="42.964692" lon="-3.861391">
        <ele>869.87</ele>
        <time>2021-03-27T16:55:51Z</time>
      </trkpt>
      <trkpt lat="42.964621" lon="-3.861538">
        <ele>868.41</ele>
        <time>2021-03-27T16:55:53Z</time>
      </trkpt>
      <trkpt lat="42.964578" lon="-3.861585">
        <ele>868.09</ele>
        <time>2021-03-27T16:55:56Z</time>
      </trkpt>
      <trkpt lat="42.964394" lon="-3.861667">
        <ele>867.81</ele>
        <time>2021-03-27T16:55:58Z</time>
      </trkpt>
      <trkpt lat="42.964126" lon="-3.861697">
        <ele>866.78</ele>
        <time>2021-03-27T16:56:01Z</time>
      </trkpt>
      <trkpt lat="42.9639" lon="-3.861609">
        <ele>867.62</ele>
        <time>2021-03-27T16:56:03Z</time>
      </trkpt>
      <trkpt lat="42.963571" lon="-3.861448">
        <ele>866.64</ele>
        <time>2021-03-27T16:56:06Z</time>
      </trkpt>
      <trkpt lat="42.963412" lon="-3.861434">
        <ele>866.12</ele>
        <time>2021-03-27T16:56:08Z</time>
      </trkpt>
      <trkpt lat="42.963238" lon="-3.861522">
        <ele>865.68</ele>
        <time>2021-03-27T16:56:11Z</time>
      </trkpt>
      <trkpt lat="42.963132" lon="-3.861689">
        <ele>865.74</ele>
        <time>2021-03-27T16:56:13Z</time>
      </trkpt>
      <trkpt lat="42.96258" lon="-3.863033">
        <ele>869.9</ele>
        <time>2021-03-27T16:56:15Z</time>
      </trkpt>
      <trkpt lat="42.96251" lon="-3.863319">
        <ele>874.71</ele>
        <time>2021-03-27T16:56:18Z</time>
      </trkpt>
      <trkpt lat="42.96252" lon="-3.863702">
        <ele>879.09</ele>
        <time>2021-03-27T16:56:20Z</time>
      </trkpt>
      <trkpt lat="42.962591" lon="-3.864251">
        <ele>879.65</ele>
        <time>2021-03-27T16:56:23Z</time>
      </trkpt>
      <trkpt lat="42.962591" lon="-3.864251">
        <ele>879.65</ele>
        <time>2021-03-27T16:56:23Z</time>
      </trkpt>
      <trkpt lat="42.962747" lon="-3.86508">
        <ele>887.75</ele>
        <time>2021-03-27T16:56:26Z</time>
      </trkpt>
      <trkpt lat="42.963015" lon="-3.866038">
        <ele>893.2</ele>
        <time>2021-03-27T16:56:30Z</time>
      </trkpt>
      <trkpt lat="42.963486" lon="-3.867116">
        <ele>899.47</ele>
        <time>2021-03-27T16:56:33Z</time>
      </trkpt>
      <trkpt lat="42.963616" lon="-3.867374">
        <ele>901.69</ele>
        <time>2021-03-27T16:56:37Z</time>
      </trkpt>
      <trkpt lat="42.964666" lon="-3.869015">
        <ele>911.29</ele>
        <time>2021-03-27T16:56:40Z</time>
      </trkpt>
      <trkpt lat="42.964817" lon="-3.869176">
        <ele>912.14</ele>
        <time>2021-03-27T16:56:43Z</time>
      </trkpt>
      <trkpt lat="42.965221" lon="-3.869536">
        <ele>913.6</ele>
        <time>2021-03-27T16:56:47Z</time>
      </trkpt>
      <trkpt lat="42.965335" lon="-3.869658">
        <ele>915.14</ele>
        <time>2021-03-27T16:56:50Z</time>
      </trkpt>
      <trkpt lat="42.965473" lon="-3.869852">
        <ele>917.46</ele>
        <time>2021-03-27T16:56:54Z</time>
      </trkpt>
      <trkpt lat="42.965521" lon="-3.869943">
        <ele>918.43</ele>
        <time>2021-03-27T16:56:57Z</time>
      </trkpt>
      <trkpt lat="42.965575" lon="-3.870145">
        <ele>918.86</ele>
        <time>2021-03-27T16:57:01Z</time>
      </trkpt>
      <trkpt lat="42.965776" lon="-3.871435">
        <ele>922.15</ele>
        <time>2021-03-27T16:57:04Z</time>
      </trkpt>
      <trkpt lat="42.965871" lon="-3.871773">
        <ele>923.89</ele>
        <time>2021-03-27T16:57:08Z</time>
      </trkpt>
      <trkpt lat="42.966112" lon="-3.872182">
        <ele>923.7</ele>
        <time>2021-03-27T16:57:11Z</time>
      </trkpt>
      <trkpt lat="42.966539" lon="-3.872816">
        <ele>921.93</ele>
        <time>2021-03-27T16:57:14Z</time>
      </trkpt>
      <trkpt lat="42.966672" lon="-3.873101">
        <ele>921.8</ele>
        <time>2021-03-27T16:57:18Z</time>
      </trkpt>
      <trkpt lat="42.966804" lon="-3.873599">
        <ele>919.55</ele>
        <time>2021-03-27T16:57:21Z</time>
      </trkpt>
      <trkpt lat="42.9669" lon="-3.873798">
        <ele>919.62</ele>
        <time>2021-03-27T16:57:25Z</time>
      </trkpt>
      <trkpt lat="42.967254" lon="-3.874282">
        <ele>921.05</ele>
        <time>2021-03-27T16:57:28Z</time>
      </trkpt>
      <trkpt lat="42.96748" lon="-3.874628">
        <ele>921.31</ele>
        <time>2021-03-27T16:57:32Z</time>
      </trkpt>
      <trkpt lat="42.967528" lon="-3.874749">
        <ele>920.91</ele>
        <time>2021-03-27T16:57:35Z</time>
      </trkpt>
      <trkpt lat="42.967799" lon="-3.87568">
        <ele>921.12</ele>
        <time>2021-03-27T16:57:38Z</time>
      </trkpt>
      <trkpt lat="42.968174" lon="-3.876527">
        <ele>917.58</ele>
        <time>2021-03-27T16:57:42Z</time>
      </trkpt>
      <trkpt lat="42.968513" lon="-3.87808">
        <ele>913.88</ele>
        <time>2021-03-27T16:57:45Z</time>
      </trkpt>
      <trkpt lat="42.968906" lon="-3.879483">
        <ele>912.66</ele>
        <time>2021-03-27T16:57:49Z</time>
      </trkpt>
      <trkpt lat="42.969098" lon="-3.880647">
        <ele>905.67</ele>
        <time>2021-03-27T16:57:52Z</time>
      </trkpt>
      <trkpt lat="42.969199" lon="-3.880942">
        <ele>906.12</ele>
        <time>2021-03-27T16:57:56Z</time>
      </trkpt>
      <trkpt lat="42.969536" lon="-3.881571">
        <ele>908.66</ele>
        <time>2021-03-27T16:57:59Z</time>
      </trkpt>
      <trkpt lat="42.969636" lon="-3.881826">
        <ele>909.57</ele>
        <time>2021-03-27T16:58:03Z</time>
      </trkpt>
      <trkpt lat="42.969654" lon="-3.881923">
        <ele>909.92</ele>
        <time>2021-03-27T16:58:06Z</time>
      </trkpt>
      <trkpt lat="42.969699" lon="-3.882336">
        <ele>911.33</ele>
        <time>2021-03-27T16:58:09Z</time>
      </trkpt>
      <trkpt lat="42.96967" lon="-3.88274">
        <ele>912.35</ele>
        <time>2021-03-27T16:58:13Z</time>
      </trkpt>
      <trkpt lat="42.969354" lon="-3.884342">
        <ele>906.02</ele>
        <time>2021-03-27T16:58:16Z</time>
      </trkpt>
      <trkpt lat="42.969334" lon="-3.884621">
        <ele>905.8</ele>
        <time>2021-03-27T16:58:20Z</time>
      </trkpt>
      <trkpt lat="42.969334" lon="-3.884899">
        <ele>905.42</ele>
        <time>2021-03-27T16:58:23Z</time>
      </trkpt>
      <trkpt lat="42.969267" lon="-3.885305">
        <ele>902.4</ele>
        <time>2021-03-27T16:58:27Z</time>
      </trkpt>
      <trkpt lat="42.969183" lon="-3.886141">
        <ele>895.23</ele>
        <time>2021-03-27T16:58:30Z</time>
      </trkpt>
      <trkpt lat="42.96903" lon="-3.887119">
        <ele>891.39</ele>
        <time>2021-03-27T16:58:33Z</time>
      </trkpt>
      <trkpt lat="42.968956" lon="-3.887509">
        <ele>889.46</ele>
        <time>2021-03-27T16:58:37Z</time>
      </trkpt>
      <trkpt lat="42.968946" lon="-3.887741">
        <ele>888.72</ele>
        <time>2021-03-27T16:58:40Z</time>
      </trkpt>
      <trkpt lat="42.968975" lon="-3.888034">
        <ele>888.92</ele>
        <time>2021-03-27T16:58:44Z</time>
      </trkpt>
      <trkpt lat="42.968972" lon="-3.888227">
        <ele>888.28</ele>
        <time>2021-03-27T16:58:47Z</time>
      </trkpt>
      <trkpt lat="42.968819" lon="-3.889213">
        <ele>883.04</ele>
        <time>2021-03-27T16:58:51Z</time>
      </trkpt>
      <trkpt lat="42.968578" lon="-3.890471">
        <ele>877.37</ele>
        <time>2021-03-27T16:58:54Z</time>
      </trkpt>
      <trkpt lat="42.968399" lon="-3.890988">
        <ele>874.15</ele>
        <time>2021-03-27T16:58:57Z</time>
      </trkpt>
      <trkpt lat="42.966393" lon="-3.896316">
        <ele>866.97</ele>
        <time>2021-03-27T16:59:01Z</time>
      </trkpt>
      <trkpt lat="42.966099" lon="-3.896209">
        <ele>868.35</ele>
        <time>2021-03-27T16:59:03Z</time>
      </trkpt>
      <trkpt lat="42.965821" lon="-3.896183">
        <ele>868.22</ele>
        <time>2021-03-27T16:59:05Z</time>
      </trkpt>
      <trkpt lat="42.965758" lon="-3.896198">
        <ele>868.04</ele>
        <time>2021-03-27T16:59:08Z</time>
      </trkpt>
      <trkpt lat="42.965639" lon="-3.896285">
        <ele>867.93</ele>
        <time>2021-03-27T16:59:10Z</time>
      </trkpt>
      <trkpt lat="42.965166" lon="-3.896803">
        <ele>866.71</ele>
        <time>2021-03-27T16:59:12Z</time>
      </trkpt>
      <trkpt lat="42.965033" lon="-3.896911">
        <ele>865.36</ele>
        <time>2021-03-27T16:59:14Z</time>
      </trkpt>
      <trkpt lat="42.964877" lon="-3.89695">
        <ele>863.22</ele>
        <time>2021-03-27T16:59:16Z</time>
      </trkpt>
      <trkpt lat="42.964772" lon="-3.896914">
        <ele>861.91</ele>
        <time>2021-03-27T16:59:19Z</time>
      </trkpt>
      <trkpt lat="42.964577" lon="-3.896795">
        <ele>861.55</ele>
        <time>2021-03-27T16:59:21Z</time>
      </trkpt>
      <trkpt lat="42.964357" lon="-3.896586">
        <ele>862.08</ele>
        <time>2021-03-27T16:59:23Z</time>
      </trkpt>
      <trkpt lat="42.96426" lon="-3.896553">
        <ele>861.61</ele>
        <time>2021-03-27T16:59:25Z</time>
      </trkpt>
      <trkpt lat="42.964206" lon="-3.896561">
        <ele>861.25</ele>
        <time>2021-03-27T16:59:27Z</time>
      </trkpt>
      <trkpt lat="42.964004" lon="-3.896684">
        <ele>859.83</ele>
        <time>2021-03-27T16:59:30Z</time>
      </trkpt>
      <trkpt lat="42.963729" lon="-3.896794">
        <ele>857.28</ele>
        <time>2021-03-27T16:59:32Z</time>
      </trkpt>
      <trkpt lat="42.963618" lon="-3.896831">
        <ele>856.07</ele>
        <time>2021-03-27T16:59:34Z</time>
      </trkpt>
      <trkpt lat="42.963369" lon="-3.896855">
        <ele>853.1</ele>
        <time>2021-03-27T16:59:36Z</time>
      </trkpt>
      <trkpt lat="42.963138" lon="-3.896839">
        <ele>851.48</ele>
        <time>2021-03-27T16:59:38Z</time>
      </trkpt>
      <trkpt lat="42.962632" lon="-3.896756">
        <ele>851.01</ele>
        <time>2021-03-27T16:59:41Z</time>
      </trkpt>
      <trkpt lat="42.961889" lon="-3.896682">
        <ele>855.89</ele>
        <time>2021-03-27T16:59:43Z</time>
      </trkpt>
      <trkpt lat="42.961283" lon="-3.896469">
        <ele>856.33</ele>
        <time>2021-03-27T16:59:45Z</time>
      </trkpt>
      <trkpt lat="42.960881" lon="-3.896383">
        <ele>854.35</ele>
        <time>2021-03-27T16:59:47Z</time>
      </trkpt>
      <trkpt lat="42.960585" lon="-3.896347">
        <ele>854.0</ele>
        <time>2021-03-27T16:59:49Z</time>
      </trkpt>
      <trkpt lat="42.960377" lon="-3.896405">
        <ele>854.66</ele>
        <time>2021-03-27T16:59:52Z</time>
      </trkpt>
      <trkpt lat="42.960287" lon="-3.896461">
        <ele>854.98</ele>
        <time>2021-03-27T16:59:54Z</time>
      </trkpt>
      <trkpt lat="42.95991" lon="-3.896818">
        <ele>857.28</ele>
        <time>2021-03-27T16:59:56Z</time>
      </trkpt>
      <trkpt lat="42.959468" lon="-3.897305">
        <ele>860.39</ele>
        <time>2021-03-27T16:59:58Z</time>
      </trkpt>
      <trkpt lat="42.959319" lon="-3.897411">
        <ele>861.22</ele>
        <time>2021-03-27T17:00:00Z</time>
      </trkpt>
      <trkpt lat="42.95924" lon="-3.89745">
        <ele>861.65</ele>
        <time>2021-03-27T17:00:02Z</time>
      </trkpt>
      <trkpt lat="42.959162" lon="-3.897462">
        <ele>862.14</ele>
        <time>2021-03-27T17:00:05Z</time>
      </trkpt>
      <trkpt lat="42.958997" lon="-3.897456">
        <ele>862.16</ele>
        <time>2021-03-27T17:00:07Z</time>
      </trkpt>
      <trkpt lat="42.958246" lon="-3.897173">
        <ele>858.04</ele>
        <time>2021-03-27T17:00:09Z</time>
      </trkpt>
      <trkpt lat="42.957851" lon="-3.897055">
        <ele>857.91</ele>
        <time>2021-03-27T17:00:11Z</time>
      </trkpt>
      <trkpt lat="42.95759" lon="-3.897003">
        <ele>857.98</ele>
        <time>2021-03-27T17:00:13Z</time>
      </trkpt>
      <trkpt lat="42.956784" lon="-3.896951">
        <ele>855.6</ele>
        <time>2021-03-27T17:00:16Z</time>
      </trkpt>
      <trkpt lat="42.956583" lon="-3.896906">
        <ele>856.4</ele>
        <time>2021-03-27T17:00:18Z</time>
      </trkpt>
      <trkpt lat="42.955847" lon="-3.896492">
        <ele>860.59</ele>
        <time>2021-03-27T17:00:20Z</time>
      </trkpt>
      <trkpt lat="42.955667" lon="-3.896423">
        <ele>861.52</ele>
        <time>2021-03-27T17:00:22Z</time>
      </trkpt>
      <trkpt lat="42.955532" lon="-3.896416">
        <ele>862.53</ele>
        <time>2021-03-27T17:00:24Z</time>
      </trkpt>
      <trkpt lat="42.955195" lon="-3.896444">
        <ele>864.98</ele>
        <time>2021-03-27T17:00:27Z</time>
      </trkpt>
      <trkpt lat="42.954957" lon="-3.896491">
        <ele>865.1</ele>
        <time>2021-03-27T17:00:29Z</time>
      </trkpt>
      <trkpt lat="42.954774" lon="-3.896497">
        <ele>866.38</ele>
        <time>2021-03-27T17:00:31Z</time>
      </trkpt>
      <trkpt lat="42.954128" lon="-3.896453">
        <ele>866.73</ele>
        <time>2021-03-27T17:00:33Z</time>
      </trkpt>
      <trkpt lat="42.954028" lon="-3.896464">
        <ele>866.94</ele>
        <time>2021-03-27T17:00:35Z</time>
      </trkpt>
      <trkpt lat="42.953922" lon="-3.896488">
        <ele>867.38</ele>
        <time>2021-03-27T17:00:38Z</time>
      </trkpt>
      <trkpt lat="42.953775" lon="-3.896555">
        <ele>868.96</ele>
        <time>2021-03-27T17:00:40Z</time>
      </trkpt>
      <trkpt lat="42.95333" lon="-3.896791">
        <ele>869.77</ele>
        <time>2021-03-27T17:00:42Z</time>
      </trkpt>
      <trkpt lat="42.953084" lon="-3.896873">
        <ele>869.41</ele>
        <time>2021-03-27T17:00:44Z</time>
      </trkpt>
      <trkpt lat="42.952768" lon="-3.89693">
        <ele>869.89</ele>
        <time>2021-03-27T17:00:46Z</time>
      </trkpt>
      <trkpt lat="42.950238" lon="-3.896925">
        <ele>878.95</ele>
        <time>2021-03-27T17:00:49Z</time>
      </trkpt>
      <trkpt lat="42.94975" lon="-3.896947">
        <ele>878.98</ele>
        <time>2021-03-27T17:00:51Z</time>
      </trkpt>
      <trkpt lat="42.949323" lon="-3.897037">
        <ele>875.71</ele>
        <time>2021-03-27T17:00:53Z</time>
      </trkpt>
      <trkpt lat="42.949168" lon="-3.89709">
        <ele>874.96</ele>
        <time>2021-03-27T17:00:55Z</time>
      </trkpt>
      <trkpt lat="42.949031" lon="-3.897163">
        <ele>874.91</ele>
        <time>2021-03-27T17:00:57Z</time>
      </trkpt>
      <trkpt lat="42.948736" lon="-3.897451">
        <ele>873.62</ele>
        <time>2021-03-27T17:00:59Z</time>
      </trkpt>
      <trkpt lat="42.948139" lon="-3.898155">
        <ele>871.73</ele>
        <time>2021-03-27T17:01:01Z</time>
      </trkpt>
      <trkpt lat="42.947603" lon="-3.898727">
        <ele>867.47</ele>
        <time>2021-03-27T17:01:03Z</time>
      </trkpt>
      <trkpt lat="42.947483" lon="-3.898877">
        <ele>868.06</ele>
        <time>2021-03-27T17:01:05Z</time>
      </trkpt>
      <trkpt lat="42.947428" lon="-3.898987">
        <ele>868.61</ele>
        <time>2021-03-27T17:01:07Z</time>
      </trkpt>
      <trkpt lat="42.947386" lon="-3.899142">
        <ele>869.32</ele>
        <time>2021-03-27T17:01:08Z</time>
      </trkpt>
      <trkpt lat="42.947372" lon="-3.899363">
        <ele>869.79</ele>
        <time>2021-03-27T17:01:10Z</time>
      </trkpt>
      <trkpt lat="42.947381" lon="-3.899523">
        <ele>870.42</ele>
        <time>2021-03-27T17:01:12Z</time>
      </trkpt>
      <trkpt lat="42.947438" lon="-3.899904">
        <ele>872.1</ele>
        <time>2021-03-27T17:01:14Z</time>
      </trkpt>
      <trkpt lat="42.947645" lon="-3.90077">
        <ele>875.48</ele>
        <time>2021-03-27T17:01:16Z</time>
      </trkpt>
      <trkpt lat="42.947678" lon="-3.901064">
        <ele>875.36</ele>
        <time>2021-03-27T17:01:18Z</time>
      </trkpt>
      <trkpt lat="42.947681" lon="-3.901304">
        <ele>875.8</ele>
        <time>2021-03-27T17:01:20Z</time>
      </trkpt>
      <trkpt lat="42.947632" lon="-3.9022">
        <ele>874.64</ele>
        <time>2021-03-27T17:01:22Z</time>
      </trkpt>
      <trkpt lat="42.947615" lon="-3.902969">
        <ele>872.3</ele>
        <time>2021-03-27T17:01:24Z</time>
      </trkpt>
      <trkpt lat="42.947622" lon="-3.903671">
        <ele>871.13</ele>
        <time>2021-03-27T17:01:25Z</time>
      </trkpt>
      <trkpt lat="42.947647" lon="-3.904048">
        <ele>868.9</ele>
        <time>2021-03-27T17:01:27Z</time>
      </trkpt>
      <trkpt lat="42.947642" lon="-3.9042">
        <ele>868.24</ele>
        <time>2021-03-27T17:01:29Z</time>
      </trkpt>
      <trkpt lat="42.94762" lon="-3.9043">
        <ele>867.61</ele>
        <time>2021-03-27T17:01:31Z</time>
      </trkpt>
      <trkpt lat="42.947575" lon="-3.904393">
        <ele>867.1</ele>
        <time>2021-03-27T17:01:33Z</time>
      </trkpt>
      <trkpt lat="42.94745" lon="-3.904498">
        <ele>866.65</ele>
        <time>2021-03-27T17:01:35Z</time>
      </trkpt>
      <trkpt lat="42.947351" lon="-3.904549">
        <ele>866.45</ele>
        <time>2021-03-27T17:01:37Z</time>
      </trkpt>
      <trkpt lat="42.946926" lon="-3.90468">
        <ele>866.14</ele>
        <time>2021-03-27T17:01:39Z</time>
      </trkpt>
      <trkpt lat="42.946818" lon="-3.904745">
        <ele>865.92</ele>
        <time>2021-03-27T17:01:41Z</time>
      </trkpt>
      <trkpt lat="42.946639" lon="-3.905019">
        <ele>865.04</ele>
        <time>2021-03-27T17:01:42Z</time>
      </trkpt>
      <trkpt lat="42.946363" lon="-3.905495">
        <ele>865.31</ele>
        <time>2021-03-27T17:01:44Z</time>
      </trkpt>
      <trkpt lat="42.946133" lon="-3.905781">
        <ele>864.36</ele>
        <time>2021-03-27T17:01:46Z</time>
      </trkpt>
      <trkpt lat="42.944914" lon="-3.907077">
        <ele>866.38</ele>
        <time>2021-03-27T17:01:48Z</time>
      </trkpt>
      <trkpt lat="42.944761" lon="-3.907312">
        <ele>865.7</ele>
        <time>2021-03-27T17:01:50Z</time>
      </trkpt>
      <trkpt lat="42.944649" lon="-3.907522">
        <ele>867.36</ele>
        <time>2021-03-27T17:01:52Z</time>
      </trkpt>
      <trkpt lat="42.944489" lon="-3.90795">
        <ele>869.78</ele>
        <time>2021-03-27T17:01:54Z</time>
      </trkpt>
      <trkpt lat="42.944316" lon="-3.908309">
        <ele>869.54</ele>
        <time>2021-03-27T17:01:56Z</time>
      </trkpt>
      <trkpt lat="42.944095" lon="-3.908624">
        <ele>870.28</ele>
        <time>2021-03-27T17:01:58Z</time>
      </trkpt>
      <trkpt lat="42.94387" lon="-3.908908">
        <ele>873.07</ele>
        <time>2021-03-27T17:01:59Z</time>
      </trkpt>
      <trkpt lat="42.943674" lon="-3.909076">
        <ele>874.39</ele>
        <time>2021-03-27T17:02:01Z</time>
      </trkpt>
      <trkpt lat="42.943264" lon="-3.909374">
        <ele>875.26</ele>
        <time>2021-03-27T17:02:03Z</time>
      </trkpt>
      <trkpt lat="42.942752" lon="-3.909916">
        <ele>882.21</ele>
        <time>2021-03-27T17:02:05Z</time>
      </trkpt>
      <trkpt lat="42.942532" lon="-3.91003">
        <ele>883.55</ele>
        <time>2021-03-27T17:02:07Z</time>
      </trkpt>
      <trkpt lat="42.942461" lon="-3.910045">
        <ele>883.7</ele>
        <time>2021-03-27T17:02:09Z</time>
      </trkpt>
      <trkpt lat="42.942359" lon="-3.910025">
        <ele>883.86</ele>
        <time>2021-03-27T17:02:11Z</time>
      </trkpt>
      <trkpt lat="42.942259" lon="-3.910366">
        <ele>882.55</ele>
        <time>2021-03-27T17:02:15Z</time>
      </trkpt>
      <trkpt lat="42.942203" lon="-3.910774">
        <ele>881.95</ele>
        <time>2021-03-27T17:02:18Z</time>
      </trkpt>
      <trkpt lat="42.942211" lon="-3.910992">
        <ele>881.43</ele>
        <time>2021-03-27T17:02:22Z</time>
      </trkpt>
      <trkpt lat="42.942286" lon="-3.911544">
        <ele>881.61</ele>
        <time>2021-03-27T17:02:26Z</time>
      </trkpt>
      <trkpt lat="42.94238" lon="-3.912773">
        <ele>875.74</ele>
        <time>2021-03-27T17:02:30Z</time>
      </trkpt>
      <trkpt lat="42.942482" lon="-3.913665">
        <ele>873.73</ele>
        <time>2021-03-27T17:02:33Z</time>
      </trkpt>
      <trkpt lat="42.942556" lon="-3.913938">
        <ele>871.89</ele>
        <time>2021-03-27T17:02:37Z</time>
      </trkpt>
      <trkpt lat="42.942613" lon="-3.914073">
        <ele>871.88</ele>
        <time>2021-03-27T17:02:41Z</time>
      </trkpt>
      <trkpt lat="42.944818" lon="-3.918128">
        <ele>885.56</ele>
        <time>2021-03-27T17:02:45Z</time>
      </trkpt>
      <trkpt lat="42.944881" lon="-3.91829">
        <ele>884.94</ele>
        <time>2021-03-27T17:02:49Z</time>
      </trkpt>
      <trkpt lat="42.944934" lon="-3.918575">
        <ele>885.14</ele>
        <time>2021-03-27T17:02:52Z</time>
      </trkpt>
      <trkpt lat="42.945955" lon="-3.925875">
        <ele>904.12</ele>
        <time>2021-03-27T17:02:56Z</time>
      </trkpt>
      <trkpt lat="42.946036" lon="-3.926116">
        <ele>903.55</ele>
        <time>2021-03-27T17:03:00Z</time>
      </trkpt>
      <trkpt lat="42.94629" lon="-3.926567">
        <ele>903.23</ele>
        <time>2021-03-27T17:03:04Z</time>
      </trkpt>
      <trkpt lat="42.946355" lon="-3.926744">
        <ele>903.43</ele>
        <time>2021-03-27T17:03:07Z</time>
      </trkpt>
      <trkpt lat="42.946835" lon="-3.928918">
        <ele>901.79</ele>
        <time>2021-03-27T17:03:11Z</time>
      </trkpt>
      <trkpt lat="42.947241" lon="-3.930549">
        <ele>894.71</ele>
        <time>2021-03-27T17:03:15Z</time>
      </trkpt>
      <trkpt lat="42.947402" lon="-3.931068">
        <ele>892.71</ele>
        <time>2021-03-27T17:03:19Z</time>
      </trkpt>
      <trkpt lat="42.947614" lon="-3.931541">
        <ele>890.58</ele>
        <time>2021-03-27T17:03:23Z</time>
      </trkpt>
      <trkpt lat="42.947739" lon="-3.931752">
        <ele>889.11</ele>
        <time>2021-03-27T17:03:26Z</time>
      </trkpt>
      <trkpt lat="42.94783" lon="-3.931871">
        <ele>887.84</ele>
        <time>2021-03-27T17:03:30Z</time>
      </trkpt>
      <trkpt lat="42.948619" lon="-3.932543">
        <ele>882.93</ele>
        <time>2021-03-27T17:03:34Z</time>
      </trkpt>
      <trkpt lat="42.948698" lon="-3.932641">
        <ele>882.22</ele>
        <time>2021-03-27T17:03:38Z</time>
      </trkpt>
      <trkpt lat="42.948773" lon="-3.93279">
        <ele>881.23</ele>
        <time>2021-03-27T17:03:41Z</time>
      </trkpt>
      <trkpt lat="42.94948" lon="-3.934526">
        <ele>868.0</ele>
        <time>2021-03-27T17:03:45Z</time>
      </trkpt>
      <trkpt lat="42.949543" lon="-3.934638">
        <ele>868.0</ele>
        <time>2021-03-27T17:03:49Z</time>
      </trkpt>
      <trkpt lat="42.949658" lon="-3.93471">
        <ele>868.0</ele>
        <time>2021-03-27T17:03:53Z</time>
      </trkpt>
      <trkpt lat="42.949771" lon="-3.934714">
        <ele>867.83</ele>
        <time>2021-03-27T17:03:57Z</time>
      </trkpt>
      <trkpt lat="42.950027" lon="-3.934648">
        <ele>867.17</ele>
        <time>2021-03-27T17:04:00Z</time>
      </trkpt>
      <trkpt lat="42.950201" lon="-3.934638">
        <ele>866.58</ele>
        <time>2021-03-27T17:04:04Z</time>
      </trkpt>
      <trkpt lat="42.950293" lon="-3.934661">
        <ele>866.21</ele>
        <time>2021-03-27T17:04:08Z</time>
      </trkpt>
      <trkpt lat="42.950338" lon="-3.934692">
        <ele>866.09</ele>
        <time>2021-03-27T17:04:12Z</time>
      </trkpt>
      <trkpt lat="42.950483" lon="-3.934836">
        <ele>866.0</ele>
        <time>2021-03-27T17:04:15Z</time>
      </trkpt>
      <trkpt lat="42.951007" lon="-3.935742">
        <ele>863.03</ele>
        <time>2021-03-27T17:04:19Z</time>
      </trkpt>
      <trkpt lat="42.951096" lon="-3.935954">
        <ele>861.57</ele>
        <time>2021-03-27T17:04:23Z</time>
      </trkpt>
      <trkpt lat="42.951152" lon="-3.93632">
        <ele>860.77</ele>
        <time>2021-03-27T17:04:27Z</time>
      </trkpt>
      <trkpt lat="42.951237" lon="-3.937675">
        <ele>868.85</ele>
        <time>2021-03-27T17:04:31Z</time>
      </trkpt>
      <trkpt lat="42.951237" lon="-3.937675">
        <ele>868.85</ele>
        <time>2021-03-27T17:04:31Z</time>
      </trkpt>
      <trkpt lat="42.951289" lon="-3.938444">
        <ele>870.82</ele>
        <time>2021-03-27T17:04:34Z</time>
      </trkpt>
      <trkpt lat="42.951533" lon="-3.940243">
        <ele>875.33</ele>
        <time>2021-03-27T17:04:38Z</time>
      </trkpt>
      <trkpt lat="42.951592" lon="-3.940572">
        <ele>877.78</ele>
        <time>2021-03-27T17:04:41Z</time>
      </trkpt>
      <trkpt lat="42.951954" lon="-3.941811">
        <ele>878.04</ele>
        <time>2021-03-27T17:04:45Z</time>
      </trkpt>
      <trkpt lat="42.952002" lon="-3.941991">
        <ele>878.07</ele>
        <time>2021-03-27T17:04:48Z</time>
      </trkpt>
      <trkpt lat="42.952034" lon="-3.942205">
        <ele>877.69</ele>
        <time>2021-03-27T17:04:52Z</time>
      </trkpt>
      <trkpt lat="42.952008" lon="-3.943567">
        <ele>882.03</ele>
        <time>2021-03-27T17:04:55Z</time>
      </trkpt>
      <trkpt lat="42.952086" lon="-3.945166">
        <ele>881.09</ele>
        <time>2021-03-27T17:04:59Z</time>
      </trkpt>
      <trkpt lat="42.952167" lon="-3.946304">
        <ele>880.64</ele>
        <time>2021-03-27T17:05:02Z</time>
      </trkpt>
      <trkpt lat="42.952294" lon="-3.947131">
        <ele>883.69</ele>
        <time>2021-03-27T17:05:06Z</time>
      </trkpt>
      <trkpt lat="42.952333" lon="-3.947508">
        <ele>885.02</ele>
        <time>2021-03-27T17:05:09Z</time>
      </trkpt>
      <trkpt lat="42.952334" lon="-3.949473">
        <ele>892.19</ele>
        <time>2021-03-27T17:05:13Z</time>
      </trkpt>
      <trkpt lat="42.952341" lon="-3.94968">
        <ele>892.15</ele>
        <time>2021-03-27T17:05:16Z</time>
      </trkpt>
      <trkpt lat="42.952362" lon="-3.949835">
        <ele>891.99</ele>
        <time>2021-03-27T17:05:20Z</time>
      </trkpt>
      <trkpt lat="42.952428" lon="-3.950076">
        <ele>891.52</ele>
        <time>2021-03-27T17:05:23Z</time>
      </trkpt>
      <trkpt lat="42.952585" lon="-3.95041">
        <ele>891.64</ele>
        <time>2021-03-27T17:05:27Z</time>
      </trkpt>
      <trkpt lat="42.953159" lon="-3.951405">
        <ele>888.25</ele>
        <time>2021-03-27T17:05:30Z</time>
      </trkpt>
      <trkpt lat="42.953549" lon="-3.952044">
        <ele>888.44</ele>
        <time>2021-03-27T17:05:34Z</time>
      </trkpt>
      <trkpt lat="42.954244" lon="-3.95261">
        <ele>891.18</ele>
        <time>2021-03-27T17:05:37Z</time>
      </trkpt>
      <trkpt lat="42.954338" lon="-3.952657">
        <ele>892.09</ele>
        <time>2021-03-27T17:05:41Z</time>
      </trkpt>
      <trkpt lat="42.954405" lon="-3.95266">
        <ele>892.51</ele>
        <time>2021-03-27T17:05:44Z</time>
      </trkpt>
      <trkpt lat="42.954964" lon="-3.952446">
        <ele>891.91</ele>
        <time>2021-03-27T17:05:48Z</time>
      </trkpt>
      <trkpt lat="42.955207" lon="-3.952275">
        <ele>891.93</ele>
        <time>2021-03-27T17:05:51Z</time>
      </trkpt>
      <trkpt lat="42.955357" lon="-3.952216">
        <ele>892.24</ele>
        <time>2021-03-27T17:05:55Z</time>
      </trkpt>
      <trkpt lat="42.955489" lon="-3.952192">
        <ele>892.54</ele>
        <time>2021-03-27T17:05:58Z</time>
      </trkpt>
      <trkpt lat="42.955864" lon="-3.952058">
        <ele>890.89</ele>
        <time>2021-03-27T17:06:02Z</time>
      </trkpt>
      <trkpt lat="42.956025" lon="-3.952062">
        <ele>890.31</ele>
        <time>2021-03-27T17:06:05Z</time>
      </trkpt>
      <trkpt lat="42.956124" lon="-3.952157">
        <ele>890.01</ele>
        <time>2021-03-27T17:06:09Z</time>
      </trkpt>
      <trkpt lat="42.95691" lon="-3.953128">
        <ele>884.15</ele>
        <time>2021-03-27T17:06:12Z</time>
      </trkpt>
      <trkpt lat="42.957076" lon="-3.953254">
        <ele>882.54</ele>
        <time>2021-03-27T17:06:16Z</time>
      </trkpt>
      <trkpt lat="42.95759" lon="-3.953481">
        <ele>884.36</ele>
        <time>2021-03-27T17:06:20Z</time>
      </trkpt>
      <trkpt lat="42.958891" lon="-3.953993">
        <ele>879.99</ele>
        <time>2021-03-27T17:06:23Z</time>
      </trkpt>
      <trkpt lat="42.959042" lon="-3.954082">
        <ele>879.83</ele>
        <time>2021-03-27T17:06:27Z</time>
      </trkpt>
      <trkpt lat="42.959278" lon="-3.954287">
        <ele>880.26</ele>
        <time>2021-03-27T17:06:30Z</time>
      </trkpt>
      <trkpt lat="42.960018" lon="-3.955048">
        <ele>880.78</ele>
        <time>2021-03-27T17:06:34Z</time>
      </trkpt>
      <trkpt lat="42.960277" lon="-3.955293">
        <ele>881.0</ele>
        <time>2021-03-27T17:06:37Z</time>
      </trkpt>
      <trkpt lat="42.960917" lon="-3.95568">
        <ele>881.01</ele>
        <time>2021-03-27T17:06:41Z</time>
      </trkpt>
      <trkpt lat="42.961389" lon="-3.955996">
        <ele>881.58</ele>
        <time>2021-03-27T17:06:44Z</time>
      </trkpt>
      <trkpt lat="42.963021" lon="-3.957244">
        <ele>887.03</ele>
        <time>2021-03-27T17:06:48Z</time>
      </trkpt>
      <trkpt lat="42.963285" lon="-3.957378">
        <ele>888.95</ele>
        <time>2021-03-27T17:06:51Z</time>
      </trkpt>
      <trkpt lat="42.963901" lon="-3.957613">
        <ele>893.41</ele>
        <time>2021-03-27T17:06:55Z</time>
      </trkpt>
      <trkpt lat="42.964292" lon="-3.957697">
        <ele>893.26</ele>
        <time>2021-03-27T17:06:58Z</time>
      </trkpt>
      <trkpt lat="42.965078" lon="-3.957825">
        <ele>898.57</ele>
        <time>2021-03-27T17:07:02Z</time>
      </trkpt>
      <trkpt lat="42.965157" lon="-3.957846">
        <ele>898.92</ele>
        <time>2021-03-27T17:07:05Z</time>
      </trkpt>
      <trkpt lat="42.965251" lon="-3.957904">
        <ele>899.4</ele>
        <time>2021-03-27T17:07:09Z</time>
      </trkpt>
      <trkpt lat="42.96532" lon="-3.957991">
        <ele>899.47</ele>
        <time>2021-03-27T17:07:12Z</time>
      </trkpt>
      <trkpt lat="42.965369" lon="-3.958119">
        <ele>899.73</ele>
        <time>2021-03-27T17:07:16Z</time>
      </trkpt>
      <trkpt lat="42.965502" lon="-3.958805">
        <ele>902.59</ele>
        <time>2021-03-27T17:07:19Z</time>
      </trkpt>
      <trkpt lat="42.965544" lon="-3.958978">
        <ele>903.99</ele>
        <time>2021-03-27T17:07:23Z</time>
      </trkpt>
      <trkpt lat="42.965601" lon="-3.959129">
        <ele>904.96</ele>
        <time>2021-03-27T17:07:26Z</time>
      </trkpt>
      <trkpt lat="42.965806" lon="-3.959486">
        <ele>905.49</ele>
        <time>2021-03-27T17:07:30Z</time>
      </trkpt>
      <trkpt lat="42.965905" lon="-3.959583">
        <ele>905.74</ele>
        <time>2021-03-27T17:07:33Z</time>
      </trkpt>
      <trkpt lat="42.965974" lon="-3.959613">
        <ele>905.81</ele>
        <time>2021-03-27T17:07:37Z</time>
      </trkpt>
      <trkpt lat="42.966114" lon="-3.959637">
        <ele>905.79</ele>
        <time>2021-03-27T17:07:40Z</time>
      </trkpt>
      <trkpt lat="42.967041" lon="-3.95952">
        <ele>906.31</ele>
        <time>2021-03-27T17:07:44Z</time>
      </trkpt>
      <trkpt lat="42.967157" lon="-3.95946">
        <ele>906.53</ele>
        <time>2021-03-27T17:07:47Z</time>
      </trkpt>
      <trkpt lat="42.967252" lon="-3.95937">
        <ele>906.5</ele>
        <time>2021-03-27T17:07:51Z</time>
      </trkpt>
      <trkpt lat="42.967287" lon="-3.95931">
        <ele>906.35</ele>
        <time>2021-03-27T17:07:54Z</time>
      </trkpt>
      <trkpt lat="42.967325" lon="-3.959187">
        <ele>905.98</ele>
        <time>2021-03-27T17:07:58Z</time>
      </trkpt>
      <trkpt lat="42.96734" lon="-3.958771">
        <ele>902.91</ele>
        <time>2021-03-27T17:08:01Z</time>
      </trkpt>
      <trkpt lat="42.967373" lon="-3.958577">
        <ele>901.89</ele>
        <time>2021-03-27T17:08:05Z</time>
      </trkpt>
      <trkpt lat="42.967424" lon="-3.958425">
        <ele>901.3</ele>
        <time>2021-03-27T17:08:08Z</time>
      </trkpt>
      <trkpt lat="42.9678" lon="-3.957563">
        <ele>897.85</ele>
        <time>2021-03-27T17:08:12Z</time>
      </trkpt>
      <trkpt lat="42.967873" lon="-3.957337">
        <ele>896.69</ele>
        <time>2021-03-27T17:08:15Z</time>
      </trkpt>
      <trkpt lat="42.967965" lon="-3.957122">
        <ele>895.03</ele>
        <time>2021-03-27T17:08:19Z</time>
      </trkpt>
      <trkpt lat="42.968076" lon="-3.957009">
        <ele>893.46</ele>
        <time>2021-03-27T17:08:23Z</time>
      </trkpt>
      <trkpt lat="42.968181" lon="-3.956991">
        <ele>891.92</ele>
        <time>2021-03-27T17:08:26Z</time>
      </trkpt>
      <trkpt lat="42.968254" lon="-3.957009">
        <ele>891.34</ele>
        <time>2021-03-27T17:08:30Z</time>
      </trkpt>
      <trkpt lat="42.968354" lon="-3.957113">
        <ele>892.36</ele>
        <time>2021-03-27T17:08:33Z</time>
      </trkpt>
      <trkpt lat="42.968533" lon="-3.957463">
        <ele>896.45</ele>
        <time>2021-03-27T17:08:37Z</time>
      </trkpt>
      <trkpt lat="42.968631" lon="-3.957593">
        <ele>896.92</ele>
        <time>2021-03-27T17:08:40Z</time>
      </trkpt>
      <trkpt lat="42.968873" lon="-3.957789">
        <ele>895.52</ele>
        <time>2021-03-27T17:08:44Z</time>
      </trkpt>
      <trkpt lat="42.969194" lon="-3.958123">
        <ele>897.32</ele>
        <time>2021-03-27T17:08:47Z</time>
      </trkpt>
      <trkpt lat="42.969865" lon="-3.958723">
        <ele>896.14</ele>
        <time>2021-03-27T17:08:51Z</time>
      </trkpt>
      <trkpt lat="42.970145" lon="-3.95901">
        <ele>895.72</ele>
        <time>2021-03-27T17:08:54Z</time>
      </trkpt>
      <trkpt lat="42.970494" lon="-3.959502">
        <ele>894.27</ele>
        <time>2021-03-27T17:08:58Z</time>
      </trkpt>
      <trkpt lat="42.970595" lon="-3.95966">
        <ele>894.53</ele>
        <time>2021-03-27T17:09:01Z</time>
      </trkpt>
      <trkpt lat="42.970801" lon="-3.960073">
        <ele>892.39</ele>
        <time>2021-03-27T17:09:05Z</time>
      </trkpt>
      <trkpt lat="42.970846" lon="-3.960148">
        <ele>891.4</ele>
        <time>2021-03-27T17:09:08Z</time>
      </trkpt>
      <trkpt lat="42.970954" lon="-3.960267">
        <ele>889.65</ele>
        <time>2021-03-27T17:09:12Z</time>
      </trkpt>
      <trkpt lat="42.971139" lon="-3.960385">
        <ele>888.23</ele>
        <time>2021-03-27T17:09:15Z</time>
      </trkpt>
      <trkpt lat="42.97136" lon="-3.96048">
        <ele>887.51</ele>
        <time>2021-03-27T17:09:19Z</time>
      </trkpt>
      <trkpt lat="42.97145" lon="-3.960542">
        <ele>887.62</ele>
        <time>2021-03-27T17:09:22Z</time>
      </trkpt>
      <trkpt lat="42.97156" lon="-3.960705">
        <ele>887.74</ele>
        <time>2021-03-27T17:09:26Z</time>
      </trkpt>
      <trkpt lat="42.971722" lon="-3.960826">
        <ele>888.52</ele>
        <time>2021-03-27T17:09:29Z</time>
      </trkpt>
      <trkpt lat="42.97246" lon="-3.961025">
        <ele>876.36</ele>
        <time>2021-03-27T17:09:33Z</time>
      </trkpt>
      <trkpt lat="42.972799" lon="-3.960988">
        <ele>869.96</ele>
        <time>2021-03-27T17:09:36Z</time>
      </trkpt>
      <trkpt lat="42.973613" lon="-3.960642">
        <ele>865.66</ele>
        <time>2021-03-27T17:09:40Z</time>
      </trkpt>
      <trkpt lat="42.973994" lon="-3.960601">
        <ele>862.12</ele>
        <time>2021-03-27T17:09:43Z</time>
      </trkpt>
      <trkpt lat="42.974103" lon="-3.96057">
        <ele>862.08</ele>
        <time>2021-03-27T17:09:47Z</time>
      </trkpt>
      <trkpt lat="42.974184" lon="-3.960523">
        <ele>862.12</ele>
        <time>2021-03-27T17:09:50Z</time>
      </trkpt>
      <trkpt lat="42.974504" lon="-3.96021">
        <ele>863.13</ele>
        <time>2021-03-27T17:09:54Z</time>
      </trkpt>
      <trkpt lat="42.97457" lon="-3.960167">
        <ele>863.32</ele>
        <time>2021-03-27T17:09:57Z</time>
      </trkpt>
      <trkpt lat="42.974674" lon="-3.960146">
        <ele>863.79</ele>
        <time>2021-03-27T17:10:01Z</time>
      </trkpt>
      <trkpt lat="42.974922" lon="-3.96021">
        <ele>865.23</ele>
        <time>2021-03-27T17:10:04Z</time>
      </trkpt>
      <trkpt lat="42.975577" lon="-3.960464">
        <ele>862.67</ele>
        <time>2021-03-27T17:10:08Z</time>
      </trkpt>
      <trkpt lat="42.976084" lon="-3.960864">
        <ele>862.11</ele>
        <time>2021-03-27T17:10:11Z</time>
      </trkpt>
      <trkpt lat="42.977122" lon="-3.961397">
        <ele>857.97</ele>
        <time>2021-03-27T17:10:15Z</time>
      </trkpt>
      <trkpt lat="42.97729" lon="-3.961437">
        <ele>858.16</ele>
        <time>2021-03-27T17:10:18Z</time>
      </trkpt>
      <trkpt lat="42.977449" lon="-3.961405">
        <ele>858.86</ele>
        <time>2021-03-27T17:10:22Z</time>
      </trkpt>
      <trkpt lat="42.97821" lon="-3.961006">
        <ele>857.83</ele>
        <time>2021-03-27T17:10:25Z</time>
      </trkpt>
      <trkpt lat="42.979051" lon="-3.960669">
        <ele>857.9</ele>
        <time>2021-03-27T17:10:29Z</time>
      </trkpt>
      <trkpt lat="42.979368" lon="-3.960499">
        <ele>856.32</ele>
        <time>2021-03-27T17:10:33Z</time>
      </trkpt>
      <trkpt lat="42.979641" lon="-3.960426">
        <ele>858.52</ele>
        <time>2021-03-27T17:10:36Z</time>
      </trkpt>
      <trkpt lat="42.980048" lon="-3.960415">
        <ele>860.83</ele>
        <time>2021-03-27T17:10:40Z</time>
      </trkpt>
      <trkpt lat="42.980661" lon="-3.960564">
        <ele>861.41</ele>
        <time>2021-03-27T17:10:43Z</time>
      </trkpt>
      <trkpt lat="42.980824" lon="-3.96065">
        <ele>862.31</ele>
        <time>2021-03-27T17:10:47Z</time>
      </trkpt>
      <trkpt lat="42.98139" lon="-3.961039">
        <ele>863.0</ele>
        <time>2021-03-27T17:10:50Z</time>
      </trkpt>
      <trkpt lat="42.981562" lon="-3.961108">
        <ele>862.99</ele>
        <time>2021-03-27T17:10:54Z</time>
      </trkpt>
      <trkpt lat="42.981668" lon="-3.961127">
        <ele>863.0</ele>
        <time>2021-03-27T17:10:57Z</time>
      </trkpt>
      <trkpt lat="42.982029" lon="-3.961176">
        <ele>864.3</ele>
        <time>2021-03-27T17:11:01Z</time>
      </trkpt>
      <trkpt lat="42.982491" lon="-3.961121">
        <ele>865.0</ele>
        <time>2021-03-27T17:11:04Z</time>
      </trkpt>
      <trkpt lat="42.982622" lon="-3.961185">
        <ele>864.56</ele>
        <time>2021-03-27T17:11:08Z</time>
      </trkpt>
      <trkpt lat="42.982765" lon="-3.961328">
        <ele>864.05</ele>
        <time>2021-03-27T17:11:11Z</time>
      </trkpt>
      <trkpt lat="42.98284" lon="-3.96138">
        <ele>863.34</ele>
        <time>2021-03-27T17:11:15Z</time>
      </trkpt>
      <trkpt lat="42.982915" lon="-3.96139">
        <ele>862.51</ele>
        <time>2021-03-27T17:11:18Z</time>
      </trkpt>
      <trkpt lat="42.983136" lon="-3.961377">
        <ele>860.79</ele>
        <time>2021-03-27T17:11:22Z</time>
      </trkpt>
      <trkpt lat="42.98355" lon="-3.961311">
        <ele>858.43</ele>
        <time>2021-03-27T17:11:25Z</time>
      </trkpt>
      <trkpt lat="42.983864" lon="-3.961192">
        <ele>857.57</ele>
        <time>2021-03-27T17:11:29Z</time>
      </trkpt>
      <trkpt lat="42.985405" lon="-3.960032">
        <ele>855.37</ele>
        <time>2021-03-27T17:11:32Z</time>
      </trkpt>
      <trkpt lat="42.986019" lon="-3.95965">
        <ele>855.85</ele>
        <time>2021-03-27T17:11:36Z</time>
      </trkpt>
      <trkpt lat="42.986164" lon="-3.959541">
        <ele>856.25</ele>
        <time>2021-03-27T17:11:39Z</time>
      </trkpt>
      <trkpt lat="42.986279" lon="-3.959419">
        <ele>856.48</ele>
        <time>2021-03-27T17:11:43Z</time>
      </trkpt>
      <trkpt lat="42.986612" lon="-3.958955">
        <ele>856.0</ele>
        <time>2021-03-27T17:11:46Z</time>
      </trkpt>
      <trkpt lat="42.986584" lon="-3.958764">
        <ele>856.74</ele>
        <time>2021-03-27T17:11:50Z</time>
      </trkpt>
      <trkpt lat="42.986525" lon="-3.958537">
        <ele>857.91</ele>
        <time>2021-03-27T17:11:54Z</time>
      </trkpt>
      <trkpt lat="42.986382" lon="-3.95814">
        <ele>860.7</ele>
        <time>2021-03-27T17:11:57Z</time>
      </trkpt>
      <trkpt lat="42.986223" lon="-3.957772">
        <ele>860.38</ele>
        <time>2021-03-27T17:12:01Z</time>
      </trkpt>
      <trkpt lat="42.986221" lon="-3.957639">
        <ele>859.9</ele>
        <time>2021-03-27T17:12:04Z</time>
      </trkpt>
      <trkpt lat="42.986294" lon="-3.957009">
        <ele>856.88</ele>
        <time>2021-03-27T17:12:08Z</time>
      </trkpt>
      <trkpt lat="42.986293" lon="-3.95685">
        <ele>856.0</ele>
        <time>2021-03-27T17:12:11Z</time>
      </trkpt>
      <trkpt lat="42.986202" lon="-3.956564">
        <ele>855.42</ele>
        <time>2021-03-27T17:12:15Z</time>
      </trkpt>
      <trkpt lat="42.986147" lon="-3.956458">
        <ele>855.22</ele>
        <time>2021-03-27T17:12:19Z</time>
      </trkpt>
      <trkpt lat="42.985909" lon="-3.956126">
        <ele>852.38</ele>
        <time>2021-03-27T17:12:22Z</time>
      </trkpt>
      <trkpt lat="42.985828" lon="-3.955944">
        <ele>850.77</ele>
        <time>2021-03-27T17:12:26Z</time>
      </trkpt>
      <trkpt lat="42.985523" lon="-3.955178">
        <ele>843.0</ele>
        <time>2021-03-27T17:12:29Z</time>
      </trkpt>
      <trkpt lat="42.985333" lon="-3.954496">
        <ele>840.73</ele>
        <time>2021-03-27T17:12:33Z</time>
      </trkpt>
      <trkpt lat="42.98533" lon="-3.954235">
        <ele>840.09</ele>
        <time>2021-03-27T17:12:36Z</time>
      </trkpt>
      <trkpt lat="42.985326" lon="-3.953307">
        <ele>842.28</ele>
        <time>2021-03-27T17:12:40Z</time>
      </trkpt>
      <trkpt lat="42.985307" lon="-3.953165">
        <ele>842.77</ele>
        <time>2021-03-27T17:12:44Z</time>
      </trkpt>
      <trkpt lat="42.985152" lon="-3.952899">
        <ele>843.99</ele>
        <time>2021-03-27T17:12:47Z</time>
      </trkpt>
      <trkpt lat="42.984886" lon="-3.952578">
        <ele>845.33</ele>
        <time>2021-03-27T17:12:51Z</time>
      </trkpt>
      <trkpt lat="42.984565" lon="-3.95239">
        <ele>848.48</ele>
        <time>2021-03-27T17:12:54Z</time>
      </trkpt>
      <trkpt lat="42.984388" lon="-3.952179">
        <ele>851.47</ele>
        <time>2021-03-27T17:12:58Z</time>
      </trkpt>
      <trkpt lat="42.984109" lon="-3.951746">
        <ele>853.24</ele>
        <time>2021-03-27T17:13:01Z</time>
      </trkpt>
      <trkpt lat="42.983885" lon="-3.951347">
        <ele>846.78</ele>
        <time>2021-03-27T17:13:05Z</time>
      </trkpt>
      <trkpt lat="42.983397" lon="-3.950839">
        <ele>841.43</ele>
        <time>2021-03-27T17:13:09Z</time>
      </trkpt>
      <trkpt lat="42.982995" lon="-3.950311">
        <ele>839.68</ele>
        <time>2021-03-27T17:13:12Z</time>
      </trkpt>
      <trkpt lat="42.982926" lon="-3.950158">
        <ele>839.73</ele>
        <time>2021-03-27T17:13:16Z</time>
      </trkpt>
      <trkpt lat="42.982704" lon="-3.949318">
        <ele>845.21</ele>
        <time>2021-03-27T17:13:19Z</time>
      </trkpt>
      <trkpt lat="42.982649" lon="-3.948785">
        <ele>842.22</ele>
        <time>2021-03-27T17:13:23Z</time>
      </trkpt>
      <trkpt lat="42.982426" lon="-3.947453">
        <ele>844.88</ele>
        <time>2021-03-27T17:13:26Z</time>
      </trkpt>
      <trkpt lat="42.982376" lon="-3.947009">
        <ele>846.41</ele>
        <time>2021-03-27T17:13:30Z</time>
      </trkpt>
      <trkpt lat="42.98231" lon="-3.946598">
        <ele>846.74</ele>
        <time>2021-03-27T17:13:34Z</time>
      </trkpt>
      <trkpt lat="42.981337" lon="-3.941619">
        <ele>853.81</ele>
        <time>2021-03-27T17:13:37Z</time>
      </trkpt>
      <trkpt lat="42.98112" lon="-3.940531">
        <ele>854.2</ele>
        <time>2021-03-27T17:13:41Z</time>
      </trkpt>
      <trkpt lat="42.98112" lon="-3.940531">
        <ele>854.2</ele>
        <time>2021-03-27T17:13:41Z</time>
      </trkpt>
      <trkpt lat="42.980956" lon="-3.939706">
        <ele>854.58</ele>
        <time>2021-03-27T17:13:47Z</time>
      </trkpt>
      <trkpt lat="42.980201" lon="-3.93534">
        <ele>851.84</ele>
        <time>2021-03-27T17:13:54Z</time>
      </trkpt>
      <trkpt lat="42.980153" lon="-3.934947">
        <ele>852.47</ele>
        <time>2021-03-27T17:14:01Z</time>
      </trkpt>
      <trkpt lat="42.979976" lon="-3.932774">
        <ele>853.09</ele>
        <time>2021-03-27T17:14:07Z</time>
      </trkpt>
      <trkpt lat="42.979568" lon="-3.930051">
        <ele>849.45</ele>
        <time>2021-03-27T17:14:14Z</time>
      </trkpt>
      <trkpt lat="42.979489" lon="-3.929102">
        <ele>849.93</ele>
        <time>2021-03-27T17:14:21Z</time>
      </trkpt>
      <trkpt lat="42.979392" lon="-3.927607">
        <ele>849.0</ele>
        <time>2021-03-27T17:14:27Z</time>
      </trkpt>
      <trkpt lat="42.979362" lon="-3.927357">
        <ele>848.34</ele>
        <time>2021-03-27T17:14:34Z</time>
      </trkpt>
      <trkpt lat="42.979274" lon="-3.926822">
        <ele>847.39</ele>
        <time>2021-03-27T17:14:41Z</time>
      </trkpt>
      <trkpt lat="42.979023" lon="-3.925905">
        <ele>849.9</ele>
        <time>2021-03-27T17:14:47Z</time>
      </trkpt>
      <trkpt lat="42.978364" lon="-3.923667">
        <ele>851.82</ele>
        <time>2021-03-27T17:14:54Z</time>
      </trkpt>
      <trkpt lat="42.977506" lon="-3.921449">
        <ele>854.03</ele>
        <time>2021-03-27T17:15:01Z</time>
      </trkpt>
      <trkpt lat="42.977425" lon="-3.921219">
        <ele>853.18</ele>
        <time>2021-03-27T17:15:08Z</time>
      </trkpt>
      <trkpt lat="42.977383" lon="-3.92099">
        <ele>853.87</ele>
        <time>2021-03-27T17:15:14Z</time>
      </trkpt>
      <trkpt lat="42.976633" lon="-3.913077">
        <ele>869.69</ele>
        <time>2021-03-27T17:15:21Z</time>
      </trkpt>
      <trkpt lat="42.976424" lon="-3.910709">
        <ele>876.98</ele>
        <time>2021-03-27T17:15:28Z</time>
      </trkpt>
      <trkpt lat="42.97641" lon="-3.910419">
        <ele>876.34</ele>
        <time>2021-03-27T17:15:34Z</time>
      </trkpt>
      <trkpt lat="42.976389" lon="-3.903362">
        <ele>888.89</ele>
        <time>2021-03-27T17:15:41Z</time>
      </trkpt>
      <trkpt lat="42.976368" lon="-3.900956">
        <ele>891.96</ele>
        <time>2021-03-27T17:15:48Z</time>
      </trkpt>
      <trkpt lat="42.976177" lon="-3.899444">
        <ele>889.52</ele>
        <time>2021-03-27T17:15:54Z</time>
      </trkpt>
      <trkpt lat="42.976101" lon="-3.898929">
        <ele>892.03</ele>
        <time>2021-03-27T17:16:01Z</time>
      </trkpt>
      <trkpt lat="42.976037" lon="-3.898344">
        <ele>894.34</ele>
        <time>2021-03-27T17:16:08Z</time>
      </trkpt>
      <trkpt lat="42.976037" lon="-3.898192">
        <ele>894.58</ele>
        <time>2021-03-27T17:16:14Z</time>
      </trkpt>
      <trkpt lat="42.976064" lon="-3.89791">
        <ele>894.51</ele>
        <time>2021-03-27T17:16:21Z</time>
      </trkpt>
      <trkpt lat="42.97617" lon="-3.897548">
        <ele>893.57</ele>
        <time>2021-03-27T17:16:28Z</time>
      </trkpt>
      <trkpt lat="42.976251" lon="-3.897376">
        <ele>893.22</ele>
        <time>2021-03-27T17:16:34Z</time>
      </trkpt>
      <trkpt lat="42.976489" lon="-3.897059">
        <ele>892.36</ele>
        <time>2021-03-27T17:16:41Z</time>
      </trkpt>
      <trkpt lat="42.977674" lon="-3.895888">
        <ele>885.96</ele>
        <time>2021-03-27T17:16:48Z</time>
      </trkpt>
      <trkpt lat="42.977876" lon="-3.895604">
        <ele>884.06</ele>
        <time>2021-03-27T17:16:54Z</time>
      </trkpt>
      <trkpt lat="42.97803" lon="-3.895282">
        <ele>882.44</ele>
        <time>2021-03-27T17:17:01Z</time>
      </trkpt>
      <trkpt lat="42.978078" lon="-3.895064">
        <ele>882.1</ele>
        <time>2021-03-27T17:17:08Z</time>
      </trkpt>
      <trkpt lat="42.978062" lon="-3.894608">
        <ele>881.8</ele>
        <time>2021-03-27T17:17:14Z</time>
      </trkpt>
      <trkpt lat="42.978004" lon="-3.894315">
        <ele>881.99</ele>
        <time>2021-03-27T17:17:21Z</time>
      </trkpt>
      <trkpt lat="42.977958" lon="-3.894158">
        <ele>881.61</ele>
        <time>2021-03-27T17:17:28Z</time>
      </trkpt>
      <trkpt lat="42.9779" lon="-3.894046">
        <ele>880.62</ele>
        <time>2021-03-27T17:17:34Z</time>
      </trkpt>
      <trkpt lat="42.977131" lon="-3.892892">
        <ele>876.35</ele>
        <time>2021-03-27T17:17:41Z</time>
      </trkpt>
      <trkpt lat="42.977037" lon="-3.892722">
        <ele>875.4</ele>
        <time>2021-03-27T17:17:48Z</time>
      </trkpt>
      <trkpt lat="42.976922" lon="-3.892408">
        <ele>874.15</ele>
        <time>2021-03-27T17:17:55Z</time>
      </trkpt>
      <trkpt lat="42.976093" lon="-3.889408">
        <ele>860.88</ele>
        <time>2021-03-27T17:18:01Z</time>
      </trkpt>
      <trkpt lat="42.97585" lon="-3.88846">
        <ele>861.66</ele>
        <time>2021-03-27T17:18:08Z</time>
      </trkpt>
      <trkpt lat="42.975779" lon="-3.888072">
        <ele>860.51</ele>
        <time>2021-03-27T17:18:15Z</time>
      </trkpt>
      <trkpt lat="42.975731" lon="-3.887392">
        <ele>858.12</ele>
        <time>2021-03-27T17:18:21Z</time>
      </trkpt>
      <trkpt lat="42.975787" lon="-3.886147">
        <ele>855.23</ele>
        <time>2021-03-27T17:18:28Z</time>
      </trkpt>
      <trkpt lat="42.977519" lon="-3.886198">
        <ele>847.33</ele>
        <time>2021-03-27T17:18:33Z</time>
      </trkpt>
      <trkpt lat="42.977918" lon="-3.886176">
        <ele>845.87</ele>
        <time>2021-03-27T17:18:39Z</time>
      </trkpt>
      <trkpt lat="42.978259" lon="-3.886068">
        <ele>844.15</ele>
        <time>2021-03-27T17:18:44Z</time>
      </trkpt>
      <trkpt lat="42.978402" lon="-3.885981">
        <ele>843.27</ele>
        <time>2021-03-27T17:18:49Z</time>
      </trkpt>
      <trkpt lat="42.978526" lon="-3.885868">
        <ele>842.95</ele>
        <time>2021-03-27T17:18:55Z</time>
      </trkpt>
      <trkpt lat="42.978722" lon="-3.88564">
        <ele>843.28</ele>
        <time>2021-03-27T17:19:00Z</time>
      </trkpt>
      <trkpt lat="42.978781" lon="-3.885588">
        <ele>843.54</ele>
        <time>2021-03-27T17:19:05Z</time>
      </trkpt>
      <trkpt lat="42.978939" lon="-3.885518">
        <ele>844.11</ele>
        <time>2021-03-27T17:19:11Z</time>
      </trkpt>
      <trkpt lat="42.979591" lon="-3.885438">
        <ele>840.22</ele>
        <time>2021-03-27T17:19:16Z</time>
      </trkpt>
      <trkpt lat="42.979682" lon="-3.885404">
        <ele>839.36</ele>
        <time>2021-03-27T17:19:22Z</time>
      </trkpt>
      <trkpt lat="42.979748" lon="-3.885352">
        <ele>839.0</ele>
        <time>2021-03-27T17:19:27Z</time>
      </trkpt>
      <trkpt lat="42.979798" lon="-3.885281">
        <ele>839.0</ele>
        <time>2021-03-27T17:19:32Z</time>
      </trkpt>
      <trkpt lat="42.979849" lon="-3.885118">
        <ele>839.0</ele>
        <time>2021-03-27T17:19:38Z</time>
      </trkpt>
      <trkpt lat="42.979857" lon="-3.88496">
        <ele>839.07</ele>
        <time>2021-03-27T17:19:43Z</time>
      </trkpt>
      <trkpt lat="42.979845" lon="-3.884824">
        <ele>839.35</ele>
        <time>2021-03-27T17:19:48Z</time>
      </trkpt>
      <trkpt lat="42.979789" lon="-3.884531">
        <ele>839.07</ele>
        <time>2021-03-27T17:19:54Z</time>
      </trkpt>
      <trkpt lat="42.979723" lon="-3.884242">
        <ele>839.72</ele>
        <time>2021-03-27T17:19:59Z</time>
      </trkpt>
      <trkpt lat="42.979668" lon="-3.884073">
        <ele>840.2</ele>
        <time>2021-03-27T17:20:04Z</time>
      </trkpt>
      <trkpt lat="42.979643" lon="-3.883852">
        <ele>840.32</ele>
        <time>2021-03-27T17:20:10Z</time>
      </trkpt>
      <trkpt lat="42.979728" lon="-3.882389">
        <ele>841.57</ele>
        <time>2021-03-27T17:20:15Z</time>
      </trkpt>
      <trkpt lat="42.979822" lon="-3.881519">
        <ele>841.53</ele>
        <time>2021-03-27T17:20:21Z</time>
      </trkpt>
      <trkpt lat="42.980038" lon="-3.879947">
        <ele>843.7</ele>
        <time>2021-03-27T17:20:26Z</time>
      </trkpt>
      <trkpt lat="42.980115" lon="-3.879483">
        <ele>843.0</ele>
        <time>2021-03-27T17:20:31Z</time>
      </trkpt>
      <trkpt lat="42.980156" lon="-3.879331">
        <ele>843.0</ele>
        <time>2021-03-27T17:20:37Z</time>
      </trkpt>
      <trkpt lat="42.98024" lon="-3.879135">
        <ele>843.0</ele>
        <time>2021-03-27T17:20:42Z</time>
      </trkpt>
      <trkpt lat="42.980363" lon="-3.878937">
        <ele>843.31</ele>
        <time>2021-03-27T17:20:47Z</time>
      </trkpt>
      <trkpt lat="42.981365" lon="-3.877538">
        <ele>839.96</ele>
        <time>2021-03-27T17:20:53Z</time>
      </trkpt>
      <trkpt lat="42.982909" lon="-3.875426">
        <ele>845.49</ele>
        <time>2021-03-27T17:20:58Z</time>
      </trkpt>
      <trkpt lat="42.986507" lon="-3.870402">
        <ele>840.24</ele>
        <time>2021-03-27T17:21:03Z</time>
      </trkpt>
      <trkpt lat="42.99037" lon="-3.865074">
        <ele>844.83</ele>
        <time>2021-03-27T17:21:09Z</time>
      </trkpt>
      <trkpt lat="42.993241" lon="-3.86108">
        <ele>847.74</ele>
        <time>2021-03-27T17:21:14Z</time>
      </trkpt>
      <trkpt lat="42.993357" lon="-3.860954">
        <ele>848.05</ele>
        <time>2021-03-27T17:21:19Z</time>
      </trkpt>
      <trkpt lat="42.993476" lon="-3.86086">
        <ele>848.47</ele>
        <time>2021-03-27T17:21:25Z</time>
      </trkpt>
      <trkpt lat="42.993893" lon="-3.860583">
        <ele>847.87</ele>
        <time>2021-03-27T17:21:30Z</time>
      </trkpt>
      <trkpt lat="42.994131" lon="-3.86025">
        <ele>847.45</ele>
        <time>2021-03-27T17:21:36Z</time>
      </trkpt>
      <trkpt lat="42.994538" lon="-3.859294">
        <ele>852.2</ele>
        <time>2021-03-27T17:21:41Z</time>
      </trkpt>
      <trkpt lat="42.999779" lon="-3.858994">
        <ele>845.91</ele>
        <time>2021-03-27T17:21:47Z</time>
      </trkpt>
      <trkpt lat="43.005351" lon="-3.858689">
        <ele>846.43</ele>
        <time>2021-03-27T17:21:52Z</time>
      </trkpt>
      <trkpt lat="43.005523" lon="-3.858665">
        <ele>844.94</ele>
        <time>2021-03-27T17:21:58Z</time>
      </trkpt>
      <trkpt lat="43.005787" lon="-3.85857">
        <ele>845.34</ele>
        <time>2021-03-27T17:22:04Z</time>
      </trkpt>
      <trkpt lat="43.00622" lon="-3.858346">
        <ele>847.32</ele>
        <time>2021-03-27T17:22:09Z</time>
      </trkpt>
      <trkpt lat="43.007379" lon="-3.85768">
        <ele>846.92</ele>
        <time>2021-03-27T17:22:15Z</time>
      </trkpt>
      <trkpt lat="43.007759" lon="-3.857369">
        <ele>848.04</ele>
        <time>2021-03-27T17:22:21Z</time>
      </trkpt>
      <trkpt lat="43.008194" lon="-3.856947">
        <ele>848.99</ele>
        <time>2021-03-27T17:22:26Z</time>
      </trkpt>
      <trkpt lat="43.009554" lon="-3.855529">
        <ele>841.36</ele>
        <time>2021-03-27T17:22:32Z</time>
      </trkpt>
      <trkpt lat="43.011099" lon="-3.853954">
        <ele>844.03</ele>
        <time>2021-03-27T17:22:38Z</time>
      </trkpt>
      <trkpt lat="43.011311" lon="-3.853801">
        <ele>844.0</ele>
        <time>2021-03-27T17:22:43Z</time>
      </trkpt>
      <trkpt lat="43.011662" lon="-3.853585">
        <ele>844.0</ele>
        <time>2021-03-27T17:22:49Z</time>
      </trkpt>
      <trkpt lat="43.012438" lon="-3.853341">
        <ele>844.21</ele>
        <time>2021-03-27T17:22:55Z</time>
      </trkpt>
      <trkpt lat="43.01281" lon="-3.853297">
        <ele>844.13</ele>
        <time>2021-03-27T17:23:01Z</time>
      </trkpt>
      <trkpt lat="43.013555" lon="-3.853292">
        <ele>844.0</ele>
        <time>2021-03-27T17:23:06Z</time>
      </trkpt>
      <trkpt lat="43.01416" lon="-3.853399">
        <ele>845.0</ele>
        <time>2021-03-27T17:23:12Z</time>
      </trkpt>
      <trkpt lat="43.020332" lon="-3.855867">
        <ele>842.17</ele>
        <time>2021-03-27T17:23:18Z</time>
      </trkpt>
      <trkpt lat="43.021772" lon="-3.856352">
        <ele>843.46</ele>
        <time>2021-03-27T17:23:23Z</time>
      </trkpt>
      <trkpt lat="43.022295" lon="-3.856567">
        <ele>844.91</ele>
        <time>2021-03-27T17:23:29Z</time>
      </trkpt>
      <trkpt lat="43.022537" lon="-3.85669">
        <ele>844.65</ele>
        <time>2021-03-27T17:23:35Z</time>
      </trkpt>
      <trkpt lat="43.022721" lon="-3.856829">
        <ele>842.83</ele>
        <time>2021-03-27T17:23:40Z</time>
      </trkpt>
      <trkpt lat="43.023075" lon="-3.857194">
        <ele>842.97</ele>
        <time>2021-03-27T17:23:46Z</time>
      </trkpt>
      <trkpt lat="43.02315" lon="-3.857321">
        <ele>843.58</ele>
        <time>2021-03-27T17:23:52Z</time>
      </trkpt>
      <trkpt lat="43.027184" lon="-3.861976">
        <ele>848.86</ele>
        <time>2021-03-27T17:23:57Z</time>
      </trkpt>
      <trkpt lat="43.027868" lon="-3.862764">
        <ele>849.69</ele>
        <time>2021-03-27T17:24:03Z</time>
      </trkpt>
      <trkpt lat="43.028126" lon="-3.863003">
        <ele>850.11</ele>
        <time>2021-03-27T17:24:09Z</time>
      </trkpt>
      <trkpt lat="43.028478" lon="-3.863235">
        <ele>852.35</ele>
        <time>2021-03-27T17:24:14Z</time>
      </trkpt>
      <trkpt lat="43.028741" lon="-3.86334">
        <ele>853.94</ele>
        <time>2021-03-27T17:24:20Z</time>
      </trkpt>
      <trkpt lat="43.029006" lon="-3.863394">
        <ele>856.66</ele>
        <time>2021-03-27T17:24:26Z</time>
      </trkpt>
      <trkpt lat="43.029481" lon="-3.863403">
        <ele>859.68</ele>
        <time>2021-03-27T17:24:32Z</time>
      </trkpt>
      <trkpt lat="43.029766" lon="-3.863448">
        <ele>859.94</ele>
        <time>2021-03-27T17:24:37Z</time>
      </trkpt>
      <trkpt lat="43.029955" lon="-3.863502">
        <ele>860.02</ele>
        <time>2021-03-27T17:24:43Z</time>
      </trkpt>
      <trkpt lat="43.030265" lon="-3.863652">
        <ele>862.54</ele>
        <time>2021-03-27T17:24:49Z</time>
      </trkpt>
      <trkpt lat="43.03038" lon="-3.863743">
        <ele>863.9</ele>
        <time>2021-03-27T17:24:54Z</time>
      </trkpt>
      <trkpt lat="43.030939" lon="-3.864274">
        <ele>869.7</ele>
        <time>2021-03-27T17:25:00Z</time>
      </trkpt>
      <trkpt lat="43.031499" lon="-3.864656">
        <ele>876.71</ele>
        <time>2021-03-27T17:25:06Z</time>
      </trkpt>
      <trkpt lat="43.031848" lon="-3.864939">
        <ele>883.13</ele>
        <time>2021-03-27T17:25:11Z</time>
      </trkpt>
      <trkpt lat="43.032624" lon="-3.865824">
        <ele>896.15</ele>
        <time>2021-03-27T17:25:17Z</time>
      </trkpt>
      <trkpt lat="43.032942" lon="-3.866069">
        <ele>902.14</ele>
        <time>2021-03-27T17:25:23Z</time>
      </trkpt>
      <trkpt lat="43.033334" lon="-3.86628">
        <ele>904.64</ele>
        <time>2021-03-27T17:25:28Z</time>
      </trkpt>
      <trkpt lat="43.034135" lon="-3.866536">
        <ele>910.51</ele>
        <time>2021-03-27T17:25:34Z</time>
      </trkpt>
      <trkpt lat="43.034524" lon="-3.86678">
        <ele>916.24</ele>
        <time>2021-03-27T17:25:40Z</time>
      </trkpt>
      <trkpt lat="43.034756" lon="-3.866965">
        <ele>918.85</ele>
        <time>2021-03-27T17:25:45Z</time>
      </trkpt>
      <trkpt lat="43.035161" lon="-3.8672">
        <ele>918.8</ele>
        <time>2021-03-27T17:25:51Z</time>
      </trkpt>
      <trkpt lat="43.035575" lon="-3.867339">
        <ele>920.13</ele>
        <time>2021-03-27T17:25:57Z</time>
      </trkpt>
      <trkpt lat="43.036062" lon="-3.867445">
        <ele>922.97</ele>
        <time>2021-03-27T17:26:03Z</time>
      </trkpt>
      <trkpt lat="43.036263" lon="-3.867529">
        <ele>923.32</ele>
        <time>2021-03-27T17:26:08Z</time>
      </trkpt>
      <trkpt lat="43.036513" lon="-3.867716">
        <ele>924.77</ele>
        <time>2021-03-27T17:26:14Z</time>
      </trkpt>
      <trkpt lat="43.036705" lon="-3.867949">
        <ele>928.06</ele>
        <time>2021-03-27T17:26:20Z</time>
      </trkpt>
      <trkpt lat="43.037897" lon="-3.86994">
        <ele>937.87</ele>
        <time>2021-03-27T17:26:25Z</time>
      </trkpt>
      <trkpt lat="43.038423" lon="-3.871034">
        <ele>943.03</ele>
        <time>2021-03-27T17:26:31Z</time>
      </trkpt>
      <trkpt lat="43.038618" lon="-3.871342">
        <ele>943.79</ele>
        <time>2021-03-27T17:26:37Z</time>
      </trkpt>
      <trkpt lat="43.039194" lon="-3.871981">
        <ele>948.14</ele>
        <time>2021-03-27T17:26:42Z</time>
      </trkpt>
      <trkpt lat="43.039282" lon="-3.872109">
        <ele>948.84</ele>
        <time>2021-03-27T17:26:48Z</time>
      </trkpt>
      <trkpt lat="43.039372" lon="-3.87231">
        <ele>950.46</ele>
        <time>2021-03-27T17:26:54Z</time>
      </trkpt>
      <trkpt lat="43.039822" lon="-3.873902">
        <ele>954.65</ele>
        <time>2021-03-27T17:26:59Z</time>
      </trkpt>
      <trkpt lat="43.040612" lon="-3.876591">
        <ele>971.95</ele>
        <time>2021-03-27T17:27:05Z</time>
      </trkpt>
      <trkpt lat="43.040705" lon="-3.876838">
        <ele>973.82</ele>
        <time>2021-03-27T17:27:11Z</time>
      </trkpt>
      <trkpt lat="43.040856" lon="-3.877103">
        <ele>976.17</ele>
        <time>2021-03-27T17:27:16Z</time>
      </trkpt>
      <trkpt lat="43.04099" lon="-3.87726">
        <ele>977.99</ele>
        <time>2021-03-27T17:27:22Z</time>
      </trkpt>
      <trkpt lat="43.041219" lon="-3.877424">
        <ele>978.54</ele>
        <time>2021-03-27T17:27:28Z</time>
      </trkpt>
      <trkpt lat="43.041219" lon="-3.877424">
        <ele>978.54</ele>
        <time>2021-03-27T17:27:28Z</time>
      </trkpt>
      <trkpt lat="43.04099" lon="-3.87726">
        <ele>977.99</ele>
        <time>2021-03-27T17:27:32Z</time>
      </trkpt>
      <trkpt lat="43.040856" lon="-3.877103">
        <ele>976.17</ele>
        <time>2021-03-27T17:27:35Z</time>
      </trkpt>
      <trkpt lat="43.040705" lon="-3.876838">
        <ele>973.82</ele>
        <time>2021-03-27T17:27:39Z</time>
      </trkpt>
      <trkpt lat="43.040612" lon="-3.876591">
        <ele>971.95</ele>
        <time>2021-03-27T17:27:43Z</time>
      </trkpt>
      <trkpt lat="43.039822" lon="-3.873902">
        <ele>954.65</ele>
        <time>2021-03-27T17:27:47Z</time>
      </trkpt>
      <trkpt lat="43.039372" lon="-3.87231">
        <ele>950.46</ele>
        <time>2021-03-27T17:27:51Z</time>
      </trkpt>
      <trkpt lat="43.039282" lon="-3.872109">
        <ele>948.84</ele>
        <time>2021-03-27T17:27:54Z</time>
      </trkpt>
      <trkpt lat="43.039194" lon="-3.871981">
        <ele>948.14</ele>
        <time>2021-03-27T17:27:58Z</time>
      </trkpt>
      <trkpt lat="43.038618" lon="-3.871342">
        <ele>943.79</ele>
        <time>2021-03-27T17:28:02Z</time>
      </trkpt>
      <trkpt lat="43.038423" lon="-3.871034">
        <ele>943.03</ele>
        <time>2021-03-27T17:28:06Z</time>
      </trkpt>
      <trkpt lat="43.037897" lon="-3.86994">
        <ele>937.87</ele>
        <time>2021-03-27T17:28:10Z</time>
      </trkpt>
      <trkpt lat="43.036705" lon="-3.867949">
        <ele>928.06</ele>
        <time>2021-03-27T17:28:13Z</time>
      </trkpt>
      <trkpt lat="43.036513" lon="-3.867716">
        <ele>924.77</ele>
        <time>2021-03-27T17:28:17Z</time>
      </trkpt>
      <trkpt lat="43.036263" lon="-3.867529">
        <ele>923.32</ele>
        <time>2021-03-27T17:28:21Z</time>
      </trkpt>
      <trkpt lat="43.036062" lon="-3.867445">
        <ele>922.97</ele>
        <time>2021-03-27T17:28:25Z</time>
      </trkpt>
      <trkpt lat="43.035575" lon="-3.867339">
        <ele>920.13</ele>
        <time>2021-03-27T17:28:29Z</time>
      </trkpt>
      <trkpt lat="43.035161" lon="-3.8672">
        <ele>918.8</ele>
        <time>2021-03-27T17:28:32Z</time>
      </trkpt>
      <trkpt lat="43.034756" lon="-3.866965">
        <ele>918.85</ele>
        <time>2021-03-27T17:28:36Z</time>
      </trkpt>
      <trkpt lat="43.034524" lon="-3.86678">
        <ele>916.24</ele>
        <time>2021-03-27T17:28:40Z</time>
      </trkpt>
      <trkpt lat="43.034135" lon="-3.866536">
        <ele>910.51</ele>
        <time>2021-03-27T17:28:44Z</time>
      </trkpt>
      <trkpt lat="43.033334" lon="-3.86628">
        <ele>904.64</ele>
        <time>2021-03-27T17:28:48Z</time>
      </trkpt>
      <trkpt lat="43.032942" lon="-3.866069">
        <ele>902.14</ele>
        <time>2021-03-27T17:28:51Z</time>
      </trkpt>
      <trkpt lat="43.032624" lon="-3.865824">
        <ele>896.15</ele>
        <time>2021-03-27T17:28:55Z</time>
      </trkpt>
      <trkpt lat="43.031848" lon="-3.864939">
        <ele>883.13</ele>
        <time>2021-03-27T17:28:59Z</time>
      </trkpt>
      <trkpt lat="43.031499" lon="-3.864656">
        <ele>876.71</ele>
        <time>2021-03-27T17:29:03Z</time>
      </trkpt>
      <trkpt lat="43.030939" lon="-3.864274">
        <ele>869.7</ele>
        <time>2021-03-27T17:29:07Z</time>
      </trkpt>
      <trkpt lat="43.03038" lon="-3.863743">
        <ele>863.9</ele>
        <time>2021-03-27T17:29:10Z</time>
      </trkpt>
      <trkpt lat="43.030265" lon="-3.863652">
        <ele>862.54</ele>
        <time>2021-03-27T17:29:14Z</time>
      </trkpt>
      <trkpt lat="43.029955" lon="-3.863502">
        <ele>860.02</ele>
        <time>2021-03-27T17:29:18Z</time>
      </trkpt>
      <trkpt lat="43.029766" lon="-3.863448">
        <ele>859.94</ele>
        <time>2021-03-27T17:29:22Z</time>
      </trkpt>
      <trkpt lat="43.029481" lon="-3.863403">
        <ele>859.68</ele>
        <time>2021-03-27T17:29:26Z</time>
      </trkpt>
      <trkpt lat="43.029006" lon="-3.863394">
        <ele>856.66</ele>
        <time>2021-03-27T17:29:29Z</time>
      </trkpt>
      <trkpt lat="43.028741" lon="-3.86334">
        <ele>853.94</ele>
        <time>2021-03-27T17:29:33Z</time>
      </trkpt>
      <trkpt lat="43.028478" lon="-3.863235">
        <ele>852.35</ele>
        <time>2021-03-27T17:29:37Z</time>
      </trkpt>
      <trkpt lat="43.028126" lon="-3.863003">
        <ele>850.11</ele>
        <time>2021-03-27T17:29:41Z</time>
      </trkpt>
      <trkpt lat="43.027868" lon="-3.862764">
        <ele>849.69</ele>
        <time>2021-03-27T17:29:45Z</time>
      </trkpt>
      <trkpt lat="43.027184" lon="-3.861976">
        <ele>848.86</ele>
        <time>2021-03-27T17:29:48Z</time>
      </trkpt>
      <trkpt lat="43.02315" lon="-3.857321">
        <ele>843.58</ele>
        <time>2021-03-27T17:29:52Z</time>
      </trkpt>
      <trkpt lat="43.023018" lon="-3.857224">
        <ele>842.87</ele>
        <time>2021-03-27T17:29:56Z</time>
      </trkpt>
      <trkpt lat="43.022669" lon="-3.856897">
        <ele>842.95</ele>
        <time>2021-03-27T17:30:00Z</time>
      </trkpt>
      <trkpt lat="43.022495" lon="-3.856779">
        <ele>844.59</ele>
        <time>2021-03-27T17:30:04Z</time>
      </trkpt>
      <trkpt lat="43.022351" lon="-3.856671">
        <ele>844.98</ele>
        <time>2021-03-27T17:30:05Z</time>
      </trkpt>
      <trkpt lat="43.022127" lon="-3.85656">
        <ele>844.45</ele>
        <time>2021-03-27T17:30:07Z</time>
      </trkpt>
      <trkpt lat="43.022046" lon="-3.856458">
        <ele>844.21</ele>
        <time>2021-03-27T17:30:09Z</time>
      </trkpt>
      <trkpt lat="43.022002" lon="-3.856383">
        <ele>844.21</ele>
        <time>2021-03-27T17:30:10Z</time>
      </trkpt>
      <trkpt lat="43.021972" lon="-3.856107">
        <ele>843.98</ele>
        <time>2021-03-27T17:30:12Z</time>
      </trkpt>
      <trkpt lat="43.021914" lon="-3.855885">
        <ele>843.19</ele>
        <time>2021-03-27T17:30:14Z</time>
      </trkpt>
      <trkpt lat="43.021482" lon="-3.85537">
        <ele>843.44</ele>
        <time>2021-03-27T17:30:25Z</time>
      </trkpt>
      <trkpt lat="43.020556" lon="-3.854317">
        <ele>843.92</ele>
        <time>2021-03-27T17:30:37Z</time>
      </trkpt>
      <trkpt lat="43.019483" lon="-3.853081">
        <ele>849.54</ele>
        <time>2021-03-27T17:30:48Z</time>
      </trkpt>
      <trkpt lat="43.018086" lon="-3.851479">
        <ele>857.35</ele>
        <time>2021-03-27T17:31:00Z</time>
      </trkpt>
      <trkpt lat="43.018132" lon="-3.851357">
        <ele>858.26</ele>
        <time>2021-03-27T17:31:04Z</time>
      </trkpt>
      <trkpt lat="43.01841" lon="-3.851149">
        <ele>860.35</ele>
        <time>2021-03-27T17:31:08Z</time>
      </trkpt>
      <trkpt lat="43.019296" lon="-3.85041">
        <ele>864.71</ele>
        <time>2021-03-27T17:31:13Z</time>
      </trkpt>
      <trkpt lat="43.019787" lon="-3.850179">
        <ele>867.0</ele>
        <time>2021-03-27T17:31:17Z</time>
      </trkpt>
      <trkpt lat="43.02056" lon="-3.84978">
        <ele>870.79</ele>
        <time>2021-03-27T17:31:22Z</time>
      </trkpt>
      <trkpt lat="43.021247" lon="-3.849401">
        <ele>872.37</ele>
        <time>2021-03-27T17:31:26Z</time>
      </trkpt>
      <trkpt lat="43.021465" lon="-3.849336">
        <ele>874.33</ele>
        <time>2021-03-27T17:31:30Z</time>
      </trkpt>
      <trkpt lat="43.022236" lon="-3.849345">
        <ele>878.38</ele>
        <time>2021-03-27T17:31:35Z</time>
      </trkpt>
      <trkpt lat="43.022495" lon="-3.849316">
        <ele>878.92</ele>
        <time>2021-03-27T17:31:39Z</time>
      </trkpt>
      <trkpt lat="43.023009" lon="-3.849214">
        <ele>877.97</ele>
        <time>2021-03-27T17:31:43Z</time>
      </trkpt>
      <trkpt lat="43.023156" lon="-3.849231">
        <ele>877.49</ele>
        <time>2021-03-27T17:31:48Z</time>
      </trkpt>
      <trkpt lat="43.023859" lon="-3.849384">
        <ele>875.33</ele>
        <time>2021-03-27T17:31:52Z</time>
      </trkpt>
      <trkpt lat="43.024034" lon="-3.849449">
        <ele>874.45</ele>
        <time>2021-03-27T17:31:56Z</time>
      </trkpt>
      <trkpt lat="43.024417" lon="-3.849488">
        <ele>874.89</ele>
        <time>2021-03-27T17:32:01Z</time>
      </trkpt>
      <trkpt lat="43.024586" lon="-3.849485">
        <ele>876.02</ele>
        <time>2021-03-27T17:32:05Z</time>
      </trkpt>
      <trkpt lat="43.024679" lon="-3.849454">
        <ele>876.69</ele>
        <time>2021-03-27T17:32:09Z</time>
      </trkpt>
      <trkpt lat="43.024772" lon="-3.84938">
        <ele>877.54</ele>
        <time>2021-03-27T17:32:14Z</time>
      </trkpt>
      <trkpt lat="43.02483" lon="-3.849293">
        <ele>878.16</ele>
        <time>2021-03-27T17:32:18Z</time>
      </trkpt>
      <trkpt lat="43.02491" lon="-3.848996">
        <ele>878.41</ele>
        <time>2021-03-27T17:32:23Z</time>
      </trkpt>
      <trkpt lat="43.024963" lon="-3.848495">
        <ele>878.46</ele>
        <time>2021-03-27T17:32:27Z</time>
      </trkpt>
      <trkpt lat="43.024993" lon="-3.848351">
        <ele>879.78</ele>
        <time>2021-03-27T17:32:31Z</time>
      </trkpt>
      <trkpt lat="43.025191" lon="-3.847736">
        <ele>887.03</ele>
        <time>2021-03-27T17:32:36Z</time>
      </trkpt>
      <trkpt lat="43.02526" lon="-3.847436">
        <ele>888.14</ele>
        <time>2021-03-27T17:32:40Z</time>
      </trkpt>
      <trkpt lat="43.025265" lon="-3.847287">
        <ele>889.31</ele>
        <time>2021-03-27T17:32:44Z</time>
      </trkpt>
      <trkpt lat="43.025175" lon="-3.846937">
        <ele>891.58</ele>
        <time>2021-03-27T17:32:49Z</time>
      </trkpt>
      <trkpt lat="43.02503" lon="-3.846659">
        <ele>891.66</ele>
        <time>2021-03-27T17:32:53Z</time>
      </trkpt>
      <trkpt lat="43.024952" lon="-3.846581">
        <ele>891.89</ele>
        <time>2021-03-27T17:32:57Z</time>
      </trkpt>
      <trkpt lat="43.024669" lon="-3.846421">
        <ele>892.54</ele>
        <time>2021-03-27T17:33:02Z</time>
      </trkpt>
      <trkpt lat="43.024546" lon="-3.846322">
        <ele>894.05</ele>
        <time>2021-03-27T17:33:06Z</time>
      </trkpt>
      <trkpt lat="43.024403" lon="-3.846164">
        <ele>895.82</ele>
        <time>2021-03-27T17:33:11Z</time>
      </trkpt>
      <trkpt lat="43.024296" lon="-3.846012">
        <ele>896.47</ele>
        <time>2021-03-27T17:33:15Z</time>
      </trkpt>
      <trkpt lat="43.024129" lon="-3.845645">
        <ele>899.07</ele>
        <time>2021-03-27T17:33:19Z</time>
      </trkpt>
      <trkpt lat="43.024073" lon="-3.845371">
        <ele>899.2</ele>
        <time>2021-03-27T17:33:24Z</time>
      </trkpt>
      <trkpt lat="43.024075" lon="-3.84521">
        <ele>899.21</ele>
        <time>2021-03-27T17:33:28Z</time>
      </trkpt>
      <trkpt lat="43.024123" lon="-3.844824">
        <ele>899.78</ele>
        <time>2021-03-27T17:33:32Z</time>
      </trkpt>
      <trkpt lat="43.024162" lon="-3.844327">
        <ele>899.75</ele>
        <time>2021-03-27T17:33:37Z</time>
      </trkpt>
      <trkpt lat="43.024118" lon="-3.84383">
        <ele>903.59</ele>
        <time>2021-03-27T17:33:41Z</time>
      </trkpt>
      <trkpt lat="43.024003" lon="-3.842964">
        <ele>907.11</ele>
        <time>2021-03-27T17:33:45Z</time>
      </trkpt>
      <trkpt lat="43.024032" lon="-3.842614">
        <ele>909.16</ele>
        <time>2021-03-27T17:33:50Z</time>
      </trkpt>
      <trkpt lat="43.024114" lon="-3.842216">
        <ele>912.08</ele>
        <time>2021-03-27T17:33:54Z</time>
      </trkpt>
      <trkpt lat="43.024162" lon="-3.841886">
        <ele>914.33</ele>
        <time>2021-03-27T17:33:58Z</time>
      </trkpt>
      <trkpt lat="43.024154" lon="-3.841683">
        <ele>915.65</ele>
        <time>2021-03-27T17:34:03Z</time>
      </trkpt>
      <trkpt lat="43.024088" lon="-3.841093">
        <ele>916.31</ele>
        <time>2021-03-27T17:34:07Z</time>
      </trkpt>
      <trkpt lat="43.024032" lon="-3.839948">
        <ele>912.93</ele>
        <time>2021-03-27T17:34:12Z</time>
      </trkpt>
      <trkpt lat="43.023967" lon="-3.839687">
        <ele>912.34</ele>
        <time>2021-03-27T17:34:16Z</time>
      </trkpt>
      <trkpt lat="43.023706" lon="-3.839304">
        <ele>914.67</ele>
        <time>2021-03-27T17:34:20Z</time>
      </trkpt>
      <trkpt lat="43.02364" lon="-3.839118">
        <ele>916.4</ele>
        <time>2021-03-27T17:34:25Z</time>
      </trkpt>
      <trkpt lat="43.023627" lon="-3.838999">
        <ele>917.71</ele>
        <time>2021-03-27T17:34:29Z</time>
      </trkpt>
      <trkpt lat="43.023694" lon="-3.838477">
        <ele>919.89</ele>
        <time>2021-03-27T17:34:33Z</time>
      </trkpt>
      <trkpt lat="43.024114" lon="-3.835972">
        <ele>933.0</ele>
        <time>2021-03-27T17:34:38Z</time>
      </trkpt>
      <trkpt lat="43.024121" lon="-3.835771">
        <ele>934.26</ele>
        <time>2021-03-27T17:34:42Z</time>
      </trkpt>
      <trkpt lat="43.02414" lon="-3.835649">
        <ele>934.73</ele>
        <time>2021-03-27T17:34:54Z</time>
      </trkpt>
      <trkpt lat="43.02435" lon="-3.834973">
        <ele>934.05</ele>
        <time>2021-03-27T17:35:05Z</time>
      </trkpt>
      <trkpt lat="43.024603" lon="-3.834334">
        <ele>934.34</ele>
        <time>2021-03-27T17:35:17Z</time>
      </trkpt>
      <trkpt lat="43.024877" lon="-3.833905">
        <ele>931.8</ele>
        <time>2021-03-27T17:35:28Z</time>
      </trkpt>
      <trkpt lat="43.025157" lon="-3.83312">
        <ele>931.53</ele>
        <time>2021-03-27T17:35:40Z</time>
      </trkpt>
      <trkpt lat="43.025818" lon="-3.830509">
        <ele>928.98</ele>
        <time>2021-03-27T17:35:52Z</time>
      </trkpt>
      <trkpt lat="43.026432" lon="-3.827597">
        <ele>927.4</ele>
        <time>2021-03-27T17:36:03Z</time>
      </trkpt>
      <trkpt lat="43.027219" lon="-3.824968">
        <ele>921.96</ele>
        <time>2021-03-27T17:36:15Z</time>
      </trkpt>
      <trkpt lat="43.027346" lon="-3.824406">
        <ele>923.42</ele>
        <time>2021-03-27T17:36:26Z</time>
      </trkpt>
      <trkpt lat="43.027336" lon="-3.823947">
        <ele>923.5</ele>
        <time>2021-03-27T17:36:38Z</time>
      </trkpt>
      <trkpt lat="43.027286" lon="-3.823434">
        <ele>921.02</ele>
        <time>2021-03-27T17:36:49Z</time>
      </trkpt>
      <trkpt lat="43.026985" lon="-3.822165">
        <ele>913.18</ele>
        <time>2021-03-27T17:37:01Z</time>
      </trkpt>
      <trkpt lat="43.026432" lon="-3.82013">
        <ele>896.17</ele>
        <time>2021-03-27T17:37:13Z</time>
      </trkpt>
      <trkpt lat="43.026372" lon="-3.819737">
        <ele>893.99</ele>
        <time>2021-03-27T17:37:24Z</time>
      </trkpt>
      <trkpt lat="43.026412" lon="-3.817565">
        <ele>884.17</ele>
        <time>2021-03-27T17:37:36Z</time>
      </trkpt>
      <trkpt lat="43.026518" lon="-3.816423">
        <ele>879.06</ele>
        <time>2021-03-27T17:37:47Z</time>
      </trkpt>
      <trkpt lat="43.026939" lon="-3.81405">
        <ele>870.75</ele>
        <time>2021-03-27T17:37:59Z</time>
      </trkpt>
      <trkpt lat="43.027199" lon="-3.812863">
        <ele>862.31</ele>
        <time>2021-03-27T17:38:11Z</time>
      </trkpt>
      <trkpt lat="43.027279" lon="-3.811841">
        <ele>851.67</ele>
        <time>2021-03-27T17:38:22Z</time>
      </trkpt>
      <trkpt lat="43.027206" lon="-3.811046">
        <ele>846.97</ele>
        <time>2021-03-27T17:38:34Z</time>
      </trkpt>
      <trkpt lat="43.027032" lon="-3.810544">
        <ele>843.2</ele>
        <time>2021-03-27T17:38:45Z</time>
      </trkpt>
      <trkpt lat="43.027005" lon="-3.810337">
        <ele>841.47</ele>
        <time>2021-03-27T17:38:57Z</time>
      </trkpt>
      <trkpt lat="43.026979" lon="-3.810143">
        <ele>840.14</ele>
        <time>2021-03-27T17:39:08Z</time>
      </trkpt>
      <trkpt lat="43.026539" lon="-3.80849">
        <ele>823.29</ele>
        <time>2021-03-27T17:39:20Z</time>
      </trkpt>
      <trkpt lat="43.026405" lon="-3.807833">
        <ele>819.42</ele>
        <time>2021-03-27T17:39:32Z</time>
      </trkpt>
      <trkpt lat="43.026338" lon="-3.807351">
        <ele>817.0</ele>
        <time>2021-03-27T17:39:43Z</time>
      </trkpt>
      <trkpt lat="43.026376" lon="-3.807039">
        <ele>814.85</ele>
        <time>2021-03-27T17:39:55Z</time>
      </trkpt>
      <trkpt lat="43.026511" lon="-3.806636">
        <ele>812.17</ele>
        <time>2021-03-27T17:40:06Z</time>
      </trkpt>
      <trkpt lat="43.02669" lon="-3.806626">
        <ele>813.3</ele>
        <time>2021-03-27T17:40:09Z</time>
      </trkpt>
      <trkpt lat="43.026859" lon="-3.806774">
        <ele>813.62</ele>
        <time>2021-03-27T17:40:12Z</time>
      </trkpt>
      <trkpt lat="43.027219" lon="-3.80703">
        <ele>810.61</ele>
        <time>2021-03-27T17:40:15Z</time>
      </trkpt>
      <trkpt lat="43.027908" lon="-3.807829">
        <ele>806.58</ele>
        <time>2021-03-27T17:40:18Z</time>
      </trkpt>
      <trkpt lat="43.028388" lon="-3.808252">
        <ele>804.74</ele>
        <time>2021-03-27T17:40:20Z</time>
      </trkpt>
      <trkpt lat="43.028524" lon="-3.808334">
        <ele>803.27</ele>
        <time>2021-03-27T17:40:23Z</time>
      </trkpt>
      <trkpt lat="43.028868" lon="-3.808402">
        <ele>803.87</ele>
        <time>2021-03-27T17:40:26Z</time>
      </trkpt>
      <trkpt lat="43.02929" lon="-3.808641">
        <ele>808.67</ele>
        <time>2021-03-27T17:40:29Z</time>
      </trkpt>
      <trkpt lat="43.029386" lon="-3.80867">
        <ele>809.95</ele>
        <time>2021-03-27T17:40:31Z</time>
      </trkpt>
      <trkpt lat="43.029795" lon="-3.808728">
        <ele>813.99</ele>
        <time>2021-03-27T17:40:34Z</time>
      </trkpt>
      <trkpt lat="43.02986" lon="-3.808672">
        <ele>814.67</ele>
        <time>2021-03-27T17:40:37Z</time>
      </trkpt>
      <trkpt lat="43.029872" lon="-3.808562">
        <ele>815.26</ele>
        <time>2021-03-27T17:40:40Z</time>
      </trkpt>
      <trkpt lat="43.029813" lon="-3.808391">
        <ele>815.45</ele>
        <time>2021-03-27T17:40:43Z</time>
      </trkpt>
      <trkpt lat="43.029547" lon="-3.808023">
        <ele>815.37</ele>
        <time>2021-03-27T17:40:45Z</time>
      </trkpt>
      <trkpt lat="43.029244" lon="-3.807562">
        <ele>814.16</ele>
        <time>2021-03-27T17:40:48Z</time>
      </trkpt>
      <trkpt lat="43.028919" lon="-3.806577">
        <ele>814.68</ele>
        <time>2021-03-27T17:40:51Z</time>
      </trkpt>
      <trkpt lat="43.028735" lon="-3.806177">
        <ele>813.66</ele>
        <time>2021-03-27T17:40:54Z</time>
      </trkpt>
      <trkpt lat="43.028374" lon="-3.805715">
        <ele>814.42</ele>
        <time>2021-03-27T17:40:57Z</time>
      </trkpt>
      <trkpt lat="43.02763" lon="-3.804931">
        <ele>812.65</ele>
        <time>2021-03-27T17:40:59Z</time>
      </trkpt>
      <trkpt lat="43.027382" lon="-3.804813">
        <ele>809.97</ele>
        <time>2021-03-27T17:41:02Z</time>
      </trkpt>
      <trkpt lat="43.027236" lon="-3.804657">
        <ele>807.74</ele>
        <time>2021-03-27T17:41:05Z</time>
      </trkpt>
      <trkpt lat="43.027173" lon="-3.804495">
        <ele>805.62</ele>
        <time>2021-03-27T17:41:08Z</time>
      </trkpt>
      <trkpt lat="43.027141" lon="-3.804231">
        <ele>803.53</ele>
        <time>2021-03-27T17:41:10Z</time>
      </trkpt>
      <trkpt lat="43.027094" lon="-3.80408">
        <ele>802.31</ele>
        <time>2021-03-27T17:41:13Z</time>
      </trkpt>
      <trkpt lat="43.027012" lon="-3.803941">
        <ele>800.91</ele>
        <time>2021-03-27T17:41:16Z</time>
      </trkpt>
      <trkpt lat="43.026988" lon="-3.803784">
        <ele>800.41</ele>
        <time>2021-03-27T17:41:19Z</time>
      </trkpt>
      <trkpt lat="43.027047" lon="-3.80321">
        <ele>798.38</ele>
        <time>2021-03-27T17:41:22Z</time>
      </trkpt>
      <trkpt lat="43.027045" lon="-3.803119">
        <ele>797.82</ele>
        <time>2021-03-27T17:41:24Z</time>
      </trkpt>
      <trkpt lat="43.026673" lon="-3.803287">
        <ele>794.73</ele>
        <time>2021-03-27T17:41:27Z</time>
      </trkpt>
      <trkpt lat="43.026646" lon="-3.803279">
        <ele>794.22</ele>
        <time>2021-03-27T17:41:30Z</time>
      </trkpt>
      <trkpt lat="43.026626" lon="-3.803192">
        <ele>793.1</ele>
        <time>2021-03-27T17:41:33Z</time>
      </trkpt>
      <trkpt lat="43.026585" lon="-3.802634">
        <ele>788.02</ele>
        <time>2021-03-27T17:41:36Z</time>
      </trkpt>
      <trkpt lat="43.026644" lon="-3.802371">
        <ele>788.17</ele>
        <time>2021-03-27T17:41:38Z</time>
      </trkpt>
      <trkpt lat="43.026652" lon="-3.802154">
        <ele>787.53</ele>
        <time>2021-03-27T17:41:41Z</time>
      </trkpt>
      <trkpt lat="43.026858" lon="-3.801778">
        <ele>786.58</ele>
        <time>2021-03-27T17:41:44Z</time>
      </trkpt>
      <trkpt lat="43.026918" lon="-3.801713">
        <ele>786.32</ele>
        <time>2021-03-27T17:41:47Z</time>
      </trkpt>
      <trkpt lat="43.026966" lon="-3.801695">
        <ele>786.39</ele>
        <time>2021-03-27T17:41:50Z</time>
      </trkpt>
      <trkpt lat="43.027212" lon="-3.801653">
        <ele>786.91</ele>
        <time>2021-03-27T17:41:52Z</time>
      </trkpt>
      <trkpt lat="43.027268" lon="-3.801608">
        <ele>787.74</ele>
        <time>2021-03-27T17:41:55Z</time>
      </trkpt>
      <trkpt lat="43.0273" lon="-3.80155">
        <ele>788.15</ele>
        <time>2021-03-27T17:41:58Z</time>
      </trkpt>
      <trkpt lat="43.027312" lon="-3.801458">
        <ele>787.96</ele>
        <time>2021-03-27T17:42:01Z</time>
      </trkpt>
      <trkpt lat="43.02729" lon="-3.801296">
        <ele>787.73</ele>
        <time>2021-03-27T17:42:03Z</time>
      </trkpt>
      <trkpt lat="43.027299" lon="-3.801198">
        <ele>788.38</ele>
        <time>2021-03-27T17:42:06Z</time>
      </trkpt>
      <trkpt lat="43.027425" lon="-3.800788">
        <ele>791.79</ele>
        <time>2021-03-27T17:42:09Z</time>
      </trkpt>
      <trkpt lat="43.027514" lon="-3.8006">
        <ele>793.75</ele>
        <time>2021-03-27T17:42:12Z</time>
      </trkpt>
      <trkpt lat="43.027602" lon="-3.800205">
        <ele>795.8</ele>
        <time>2021-03-27T17:42:15Z</time>
      </trkpt>
      <trkpt lat="43.027659" lon="-3.8001">
        <ele>796.48</ele>
        <time>2021-03-27T17:42:17Z</time>
      </trkpt>
      <trkpt lat="43.027683" lon="-3.799998">
        <ele>797.01</ele>
        <time>2021-03-27T17:42:20Z</time>
      </trkpt>
      <trkpt lat="43.027347" lon="-3.799789">
        <ele>797.21</ele>
        <time>2021-03-27T17:42:22Z</time>
      </trkpt>
      <trkpt lat="43.027202" lon="-3.799613">
        <ele>797.9</ele>
        <time>2021-03-27T17:42:24Z</time>
      </trkpt>
      <trkpt lat="43.027104" lon="-3.799423">
        <ele>799.5</ele>
        <time>2021-03-27T17:42:26Z</time>
      </trkpt>
      <trkpt lat="43.027042" lon="-3.799154">
        <ele>800.62</ele>
        <time>2021-03-27T17:42:28Z</time>
      </trkpt>
      <trkpt lat="43.027073" lon="-3.798658">
        <ele>799.17</ele>
        <time>2021-03-27T17:42:30Z</time>
      </trkpt>
      <trkpt lat="43.027068" lon="-3.798519">
        <ele>799.0</ele>
        <time>2021-03-27T17:42:32Z</time>
      </trkpt>
      <trkpt lat="43.027094" lon="-3.798333">
        <ele>799.0</ele>
        <time>2021-03-27T17:42:34Z</time>
      </trkpt>
      <trkpt lat="43.0275" lon="-3.797027">
        <ele>793.6</ele>
        <time>2021-03-27T17:42:36Z</time>
      </trkpt>
      <trkpt lat="43.027544" lon="-3.796755">
        <ele>792.37</ele>
        <time>2021-03-27T17:42:38Z</time>
      </trkpt>
      <trkpt lat="43.027542" lon="-3.795176">
        <ele>798.91</ele>
        <time>2021-03-27T17:42:40Z</time>
      </trkpt>
      <trkpt lat="43.027514" lon="-3.794628">
        <ele>802.16</ele>
        <time>2021-03-27T17:42:42Z</time>
      </trkpt>
      <trkpt lat="43.027422" lon="-3.793996">
        <ele>803.34</ele>
        <time>2021-03-27T17:42:44Z</time>
      </trkpt>
      <trkpt lat="43.027335" lon="-3.79322">
        <ele>805.83</ele>
        <time>2021-03-27T17:42:46Z</time>
      </trkpt>
      <trkpt lat="43.027347" lon="-3.79237">
        <ele>798.3</ele>
        <time>2021-03-27T17:42:47Z</time>
      </trkpt>
      <trkpt lat="43.027319" lon="-3.792187">
        <ele>796.58</ele>
        <time>2021-03-27T17:42:49Z</time>
      </trkpt>
      <trkpt lat="43.027136" lon="-3.791593">
        <ele>788.47</ele>
        <time>2021-03-27T17:42:51Z</time>
      </trkpt>
      <trkpt lat="43.027092" lon="-3.791507">
        <ele>787.17</ele>
        <time>2021-03-27T17:42:53Z</time>
      </trkpt>
      <trkpt lat="43.026719" lon="-3.791083">
        <ele>782.33</ele>
        <time>2021-03-27T17:42:55Z</time>
      </trkpt>
      <trkpt lat="43.026341" lon="-3.790763">
        <ele>782.7</ele>
        <time>2021-03-27T17:42:57Z</time>
      </trkpt>
      <trkpt lat="43.026163" lon="-3.790676">
        <ele>780.67</ele>
        <time>2021-03-27T17:42:59Z</time>
      </trkpt>
      <trkpt lat="43.0256" lon="-3.790583">
        <ele>778.1</ele>
        <time>2021-03-27T17:43:01Z</time>
      </trkpt>
      <trkpt lat="43.02545" lon="-3.790541">
        <ele>776.45</ele>
        <time>2021-03-27T17:43:03Z</time>
      </trkpt>
      <trkpt lat="43.025338" lon="-3.79049">
        <ele>774.81</ele>
        <time>2021-03-27T17:43:05Z</time>
      </trkpt>
      <trkpt lat="43.025237" lon="-3.790413">
        <ele>773.34</ele>
        <time>2021-03-27T17:43:07Z</time>
      </trkpt>
      <trkpt lat="43.025162" lon="-3.790314">
        <ele>772.28</ele>
        <time>2021-03-27T17:43:09Z</time>
      </trkpt>
      <trkpt lat="43.024744" lon="-3.789634">
        <ele>766.52</ele>
        <time>2021-03-27T17:43:11Z</time>
      </trkpt>
      <trkpt lat="43.024531" lon="-3.789342">
        <ele>764.15</ele>
        <time>2021-03-27T17:43:13Z</time>
      </trkpt>
      <trkpt lat="43.023938" lon="-3.788659">
        <ele>758.7</ele>
        <time>2021-03-27T17:43:15Z</time>
      </trkpt>
      <trkpt lat="43.023162" lon="-3.787687">
        <ele>748.76</ele>
        <time>2021-03-27T17:43:17Z</time>
      </trkpt>
      <trkpt lat="43.022721" lon="-3.787189">
        <ele>743.93</ele>
        <time>2021-03-27T17:43:19Z</time>
      </trkpt>
      <trkpt lat="43.022407" lon="-3.786753">
        <ele>742.7</ele>
        <time>2021-03-27T17:43:21Z</time>
      </trkpt>
      <trkpt lat="43.021363" lon="-3.785804">
        <ele>736.9</ele>
        <time>2021-03-27T17:43:23Z</time>
      </trkpt>
      <trkpt lat="43.02005" lon="-3.78471">
        <ele>730.01</ele>
        <time>2021-03-27T17:43:24Z</time>
      </trkpt>
      <trkpt lat="43.019968" lon="-3.784614">
        <ele>729.31</ele>
        <time>2021-03-27T17:43:26Z</time>
      </trkpt>
      <trkpt lat="43.019904" lon="-3.784517">
        <ele>728.55</ele>
        <time>2021-03-27T17:43:28Z</time>
      </trkpt>
      <trkpt lat="43.019766" lon="-3.784187">
        <ele>726.97</ele>
        <time>2021-03-27T17:43:30Z</time>
      </trkpt>
      <trkpt lat="43.019576" lon="-3.783581">
        <ele>724.38</ele>
        <time>2021-03-27T17:43:32Z</time>
      </trkpt>
      <trkpt lat="43.019534" lon="-3.783497">
        <ele>723.68</ele>
        <time>2021-03-27T17:43:34Z</time>
      </trkpt>
      <trkpt lat="43.019344" lon="-3.783257">
        <ele>720.76</ele>
        <time>2021-03-27T17:43:36Z</time>
      </trkpt>
      <trkpt lat="43.019041" lon="-3.782946">
        <ele>715.24</ele>
        <time>2021-03-27T17:43:38Z</time>
      </trkpt>
      <trkpt lat="43.018952" lon="-3.782827">
        <ele>713.37</ele>
        <time>2021-03-27T17:43:40Z</time>
      </trkpt>
      <trkpt lat="43.018901" lon="-3.782715">
        <ele>712.78</ele>
        <time>2021-03-27T17:43:42Z</time>
      </trkpt>
      <trkpt lat="43.018635" lon="-3.781765">
        <ele>706.07</ele>
        <time>2021-03-27T17:43:44Z</time>
      </trkpt>
      <trkpt lat="43.018633" lon="-3.781663">
        <ele>706.21</ele>
        <time>2021-03-27T17:43:46Z</time>
      </trkpt>
      <trkpt lat="43.018657" lon="-3.781457">
        <ele>704.86</ele>
        <time>2021-03-27T17:43:48Z</time>
      </trkpt>
      <trkpt lat="43.018767" lon="-3.781069">
        <ele>702.38</ele>
        <time>2021-03-27T17:43:50Z</time>
      </trkpt>
      <trkpt lat="43.01884" lon="-3.780645">
        <ele>700.8</ele>
        <time>2021-03-27T17:43:52Z</time>
      </trkpt>
      <trkpt lat="43.018898" lon="-3.78011">
        <ele>701.99</ele>
        <time>2021-03-27T17:43:54Z</time>
      </trkpt>
      <trkpt lat="43.018965" lon="-3.779793">
        <ele>702.41</ele>
        <time>2021-03-27T17:43:56Z</time>
      </trkpt>
      <trkpt lat="43.019034" lon="-3.779578">
        <ele>703.32</ele>
        <time>2021-03-27T17:43:58Z</time>
      </trkpt>
      <trkpt lat="43.019243" lon="-3.779202">
        <ele>708.05</ele>
        <time>2021-03-27T17:44:00Z</time>
      </trkpt>
      <trkpt lat="43.019386" lon="-3.778827">
        <ele>712.52</ele>
        <time>2021-03-27T17:44:02Z</time>
      </trkpt>
      <trkpt lat="43.019524" lon="-3.778542">
        <ele>713.72</ele>
        <time>2021-03-27T17:44:03Z</time>
      </trkpt>
      <trkpt lat="43.019632" lon="-3.778375">
        <ele>714.58</ele>
        <time>2021-03-27T17:44:05Z</time>
      </trkpt>
      <trkpt lat="43.019893" lon="-3.778041">
        <ele>715.89</ele>
        <time>2021-03-27T17:44:07Z</time>
      </trkpt>
      <trkpt lat="43.019935" lon="-3.777964">
        <ele>716.63</ele>
        <time>2021-03-27T17:44:09Z</time>
      </trkpt>
      <trkpt lat="43.020021" lon="-3.777583">
        <ele>717.27</ele>
        <time>2021-03-27T17:44:11Z</time>
      </trkpt>
      <trkpt lat="43.02015" lon="-3.77714">
        <ele>709.07</ele>
        <time>2021-03-27T17:44:13Z</time>
      </trkpt>
      <trkpt lat="43.0202" lon="-3.776919">
        <ele>706.06</ele>
        <time>2021-03-27T17:44:15Z</time>
      </trkpt>
      <trkpt lat="43.020221" lon="-3.776761">
        <ele>704.32</ele>
        <time>2021-03-27T17:44:17Z</time>
      </trkpt>
      <trkpt lat="43.020221" lon="-3.776588">
        <ele>702.79</ele>
        <time>2021-03-27T17:44:19Z</time>
      </trkpt>
      <trkpt lat="43.020204" lon="-3.776447">
        <ele>701.74</ele>
        <time>2021-03-27T17:44:21Z</time>
      </trkpt>
      <trkpt lat="43.01997" lon="-3.775677">
        <ele>694.45</ele>
        <time>2021-03-27T17:44:23Z</time>
      </trkpt>
      <trkpt lat="43.019733" lon="-3.775122">
        <ele>693.15</ele>
        <time>2021-03-27T17:44:25Z</time>
      </trkpt>
      <trkpt lat="43.019288" lon="-3.774272">
        <ele>689.99</ele>
        <time>2021-03-27T17:44:27Z</time>
      </trkpt>
      <trkpt lat="43.019137" lon="-3.774083">
        <ele>689.63</ele>
        <time>2021-03-27T17:44:29Z</time>
      </trkpt>
      <trkpt lat="43.019062" lon="-3.774029">
        <ele>689.31</ele>
        <time>2021-03-27T17:44:31Z</time>
      </trkpt>
      <trkpt lat="43.018861" lon="-3.773939">
        <ele>688.8</ele>
        <time>2021-03-27T17:44:33Z</time>
      </trkpt>
      <trkpt lat="43.018804" lon="-3.773884">
        <ele>688.39</ele>
        <time>2021-03-27T17:44:35Z</time>
      </trkpt>
      <trkpt lat="43.018774" lon="-3.773817">
        <ele>688.17</ele>
        <time>2021-03-27T17:44:37Z</time>
      </trkpt>
      <trkpt lat="43.018762" lon="-3.773746">
        <ele>688.09</ele>
        <time>2021-03-27T17:44:39Z</time>
      </trkpt>
      <trkpt lat="43.018772" lon="-3.773669">
        <ele>688.16</ele>
        <time>2021-03-27T17:44:40Z</time>
      </trkpt>
      <trkpt lat="43.018833" lon="-3.773487">
        <ele>688.78</ele>
        <time>2021-03-27T17:44:42Z</time>
      </trkpt>
      <trkpt lat="43.018901" lon="-3.772976">
        <ele>691.18</ele>
        <time>2021-03-27T17:44:44Z</time>
      </trkpt>
      <trkpt lat="43.018891" lon="-3.772861">
        <ele>692.81</ele>
        <time>2021-03-27T17:44:46Z</time>
      </trkpt>
      <trkpt lat="43.018858" lon="-3.772758">
        <ele>693.98</ele>
        <time>2021-03-27T17:44:48Z</time>
      </trkpt>
      <trkpt lat="43.018807" lon="-3.772672">
        <ele>694.44</ele>
        <time>2021-03-27T17:44:50Z</time>
      </trkpt>
      <trkpt lat="43.018701" lon="-3.772566">
        <ele>694.42</ele>
        <time>2021-03-27T17:44:52Z</time>
      </trkpt>
      <trkpt lat="43.018631" lon="-3.772457">
        <ele>694.22</ele>
        <time>2021-03-27T17:44:54Z</time>
      </trkpt>
      <trkpt lat="43.018579" lon="-3.77229">
        <ele>693.66</ele>
        <time>2021-03-27T17:44:56Z</time>
      </trkpt>
      <trkpt lat="43.018553" lon="-3.772032">
        <ele>693.8</ele>
        <time>2021-03-27T17:44:58Z</time>
      </trkpt>
      <trkpt lat="43.018332" lon="-3.771739">
        <ele>695.5</ele>
        <time>2021-03-27T17:45:00Z</time>
      </trkpt>
      <trkpt lat="43.018132" lon="-3.771363">
        <ele>697.16</ele>
        <time>2021-03-27T17:45:03Z</time>
      </trkpt>
      <trkpt lat="43.017964" lon="-3.771171">
        <ele>695.45</ele>
        <time>2021-03-27T17:45:05Z</time>
      </trkpt>
      <trkpt lat="43.017316" lon="-3.770761">
        <ele>694.05</ele>
        <time>2021-03-27T17:45:08Z</time>
      </trkpt>
      <trkpt lat="43.017202" lon="-3.770661">
        <ele>692.99</ele>
        <time>2021-03-27T17:45:10Z</time>
      </trkpt>
      <trkpt lat="43.017094" lon="-3.770533">
        <ele>691.12</ele>
        <time>2021-03-27T17:45:13Z</time>
      </trkpt>
      <trkpt lat="43.016705" lon="-3.769923">
        <ele>688.96</ele>
        <time>2021-03-27T17:45:15Z</time>
      </trkpt>
      <trkpt lat="43.016322" lon="-3.769372">
        <ele>689.18</ele>
        <time>2021-03-27T17:45:18Z</time>
      </trkpt>
      <trkpt lat="43.015891" lon="-3.768862">
        <ele>690.68</ele>
        <time>2021-03-27T17:45:20Z</time>
      </trkpt>
      <trkpt lat="43.015717" lon="-3.768576">
        <ele>694.04</ele>
        <time>2021-03-27T17:45:23Z</time>
      </trkpt>
      <trkpt lat="43.015211" lon="-3.767556">
        <ele>693.11</ele>
        <time>2021-03-27T17:45:25Z</time>
      </trkpt>
      <trkpt lat="43.014833" lon="-3.766988">
        <ele>694.75</ele>
        <time>2021-03-27T17:45:28Z</time>
      </trkpt>
      <trkpt lat="43.01427" lon="-3.766337">
        <ele>696.97</ele>
        <time>2021-03-27T17:45:30Z</time>
      </trkpt>
      <trkpt lat="43.014094" lon="-3.766154">
        <ele>697.87</ele>
        <time>2021-03-27T17:45:33Z</time>
      </trkpt>
      <trkpt lat="43.013899" lon="-3.765988">
        <ele>700.91</ele>
        <time>2021-03-27T17:45:35Z</time>
      </trkpt>
      <trkpt lat="43.013484" lon="-3.765484">
        <ele>702.57</ele>
        <time>2021-03-27T17:45:38Z</time>
      </trkpt>
      <trkpt lat="43.012548" lon="-3.76444">
        <ele>702.46</ele>
        <time>2021-03-27T17:45:40Z</time>
      </trkpt>
      <trkpt lat="43.012422" lon="-3.764121">
        <ele>702.64</ele>
        <time>2021-03-27T17:45:42Z</time>
      </trkpt>
      <trkpt lat="43.012269" lon="-3.7633">
        <ele>707.79</ele>
        <time>2021-03-27T17:45:45Z</time>
      </trkpt>
      <trkpt lat="43.012108" lon="-3.762703">
        <ele>709.84</ele>
        <time>2021-03-27T17:45:47Z</time>
      </trkpt>
      <trkpt lat="43.011465" lon="-3.761324">
        <ele>719.29</ele>
        <time>2021-03-27T17:45:50Z</time>
      </trkpt>
      <trkpt lat="43.011371" lon="-3.76117">
        <ele>719.96</ele>
        <time>2021-03-27T17:45:52Z</time>
      </trkpt>
      <trkpt lat="43.011202" lon="-3.760958">
        <ele>720.8</ele>
        <time>2021-03-27T17:45:55Z</time>
      </trkpt>
      <trkpt lat="43.010074" lon="-3.760153">
        <ele>724.11</ele>
        <time>2021-03-27T17:45:57Z</time>
      </trkpt>
      <trkpt lat="43.009961" lon="-3.76005">
        <ele>724.61</ele>
        <time>2021-03-27T17:46:00Z</time>
      </trkpt>
      <trkpt lat="43.009863" lon="-3.759925">
        <ele>725.02</ele>
        <time>2021-03-27T17:46:02Z</time>
      </trkpt>
      <trkpt lat="43.009776" lon="-3.759771">
        <ele>724.7</ele>
        <time>2021-03-27T17:46:05Z</time>
      </trkpt>
      <trkpt lat="43.009652" lon="-3.759492">
        <ele>724.4</ele>
        <time>2021-03-27T17:46:07Z</time>
      </trkpt>
      <trkpt lat="43.009436" lon="-3.758783">
        <ele>721.8</ele>
        <time>2021-03-27T17:46:10Z</time>
      </trkpt>
      <trkpt lat="43.009317" lon="-3.75854">
        <ele>723.23</ele>
        <time>2021-03-27T17:46:12Z</time>
      </trkpt>
      <trkpt lat="43.009139" lon="-3.758245">
        <ele>724.15</ele>
        <time>2021-03-27T17:46:15Z</time>
      </trkpt>
      <trkpt lat="43.008799" lon="-3.757841">
        <ele>721.71</ele>
        <time>2021-03-27T17:46:17Z</time>
      </trkpt>
      <trkpt lat="43.008728" lon="-3.757732">
        <ele>721.49</ele>
        <time>2021-03-27T17:46:20Z</time>
      </trkpt>
      <trkpt lat="43.008552" lon="-3.757164">
        <ele>717.7</ele>
        <time>2021-03-27T17:46:22Z</time>
      </trkpt>
      <trkpt lat="43.008466" lon="-3.756795">
        <ele>714.15</ele>
        <time>2021-03-27T17:46:24Z</time>
      </trkpt>
      <trkpt lat="43.008416" lon="-3.756571">
        <ele>714.71</ele>
        <time>2021-03-27T17:46:27Z</time>
      </trkpt>
      <trkpt lat="43.008403" lon="-3.756252">
        <ele>715.38</ele>
        <time>2021-03-27T17:46:29Z</time>
      </trkpt>
      <trkpt lat="43.008633" lon="-3.756984">
        <ele>710.1</ele>
        <time>2021-03-27T17:46:30Z</time>
      </trkpt>
      <trkpt lat="43.008877" lon="-3.75759">
        <ele>711.84</ele>
        <time>2021-03-27T17:46:32Z</time>
      </trkpt>
      <trkpt lat="43.008945" lon="-3.757725">
        <ele>712.45</ele>
        <time>2021-03-27T17:46:33Z</time>
      </trkpt>
      <trkpt lat="43.009032" lon="-3.757802">
        <ele>711.35</ele>
        <time>2021-03-27T17:46:34Z</time>
      </trkpt>
      <trkpt lat="43.009207" lon="-3.757863">
        <ele>707.87</ele>
        <time>2021-03-27T17:46:35Z</time>
      </trkpt>
      <trkpt lat="43.009353" lon="-3.75794">
        <ele>707.37</ele>
        <time>2021-03-27T17:46:36Z</time>
      </trkpt>
      <trkpt lat="43.00958" lon="-3.758248">
        <ele>709.37</ele>
        <time>2021-03-27T17:46:37Z</time>
      </trkpt>
      <trkpt lat="43.009716" lon="-3.758338">
        <ele>708.18</ele>
        <time>2021-03-27T17:46:38Z</time>
      </trkpt>
      <trkpt lat="43.009803" lon="-3.758341">
        <ele>706.94</ele>
        <time>2021-03-27T17:46:39Z</time>
      </trkpt>
      <trkpt lat="43.010066" lon="-3.758277">
        <ele>702.64</ele>
        <time>2021-03-27T17:46:40Z</time>
      </trkpt>
      <trkpt lat="43.010275" lon="-3.758103">
        <ele>699.68</ele>
        <time>2021-03-27T17:46:41Z</time>
      </trkpt>
      <trkpt lat="43.010383" lon="-3.758081">
        <ele>698.99</ele>
        <time>2021-03-27T17:46:42Z</time>
      </trkpt>
      <trkpt lat="43.010561" lon="-3.757994">
        <ele>697.26</ele>
        <time>2021-03-27T17:46:44Z</time>
      </trkpt>
      <trkpt lat="43.010845" lon="-3.757914">
        <ele>691.72</ele>
        <time>2021-03-27T17:46:45Z</time>
      </trkpt>
      <trkpt lat="43.011037" lon="-3.757911">
        <ele>687.55</ele>
        <time>2021-03-27T17:46:46Z</time>
      </trkpt>
      <trkpt lat="43.011133" lon="-3.757869">
        <ele>685.29</ele>
        <time>2021-03-27T17:46:47Z</time>
      </trkpt>
      <trkpt lat="43.011199" lon="-3.757789">
        <ele>683.79</ele>
        <time>2021-03-27T17:46:48Z</time>
      </trkpt>
      <trkpt lat="43.011316" lon="-3.757558">
        <ele>681.84</ele>
        <time>2021-03-27T17:46:49Z</time>
      </trkpt>
      <trkpt lat="43.011379" lon="-3.757478">
        <ele>681.1</ele>
        <time>2021-03-27T17:46:50Z</time>
      </trkpt>
      <trkpt lat="43.011544" lon="-3.757395">
        <ele>681.77</ele>
        <time>2021-03-27T17:46:51Z</time>
      </trkpt>
      <trkpt lat="43.01167" lon="-3.757295">
        <ele>682.81</ele>
        <time>2021-03-27T17:46:52Z</time>
      </trkpt>
      <trkpt lat="43.011862" lon="-3.75699">
        <ele>688.89</ele>
        <time>2021-03-27T17:46:53Z</time>
      </trkpt>
      <trkpt lat="43.011936" lon="-3.756853">
        <ele>691.16</ele>
        <time>2021-03-27T17:46:54Z</time>
      </trkpt>
      <trkpt lat="43.011933" lon="-3.75682">
        <ele>691.22</ele>
        <time>2021-03-27T17:46:55Z</time>
      </trkpt>
      <trkpt lat="43.011545" lon="-3.756182">
        <ele>688.99</ele>
        <time>2021-03-27T17:46:57Z</time>
      </trkpt>
      <trkpt lat="43.011475" lon="-3.756024">
        <ele>688.56</ele>
        <time>2021-03-27T17:46:58Z</time>
      </trkpt>
      <trkpt lat="43.011439" lon="-3.755878">
        <ele>688.56</ele>
        <time>2021-03-27T17:46:59Z</time>
      </trkpt>
      <trkpt lat="43.01144" lon="-3.755765">
        <ele>689.19</ele>
        <time>2021-03-27T17:47:00Z</time>
      </trkpt>
      <trkpt lat="43.011462" lon="-3.75568">
        <ele>690.01</ele>
        <time>2021-03-27T17:47:01Z</time>
      </trkpt>
      <trkpt lat="43.011503" lon="-3.755614">
        <ele>690.9</ele>
        <time>2021-03-27T17:47:02Z</time>
      </trkpt>
      <trkpt lat="43.011557" lon="-3.755586">
        <ele>691.67</ele>
        <time>2021-03-27T17:47:03Z</time>
      </trkpt>
      <trkpt lat="43.011624" lon="-3.755587">
        <ele>692.41</ele>
        <time>2021-03-27T17:47:04Z</time>
      </trkpt>
      <trkpt lat="43.011694" lon="-3.755633">
        <ele>693.12</ele>
        <time>2021-03-27T17:47:05Z</time>
      </trkpt>
      <trkpt lat="43.01213" lon="-3.756402">
        <ele>695.9</ele>
        <time>2021-03-27T17:47:06Z</time>
      </trkpt>
      <trkpt lat="43.012448" lon="-3.756634">
        <ele>697.05</ele>
        <time>2021-03-27T17:47:07Z</time>
      </trkpt>
      <trkpt lat="43.012644" lon="-3.75682">
        <ele>698.2</ele>
        <time>2021-03-27T17:47:09Z</time>
      </trkpt>
      <trkpt lat="43.012757" lon="-3.756813">
        <ele>700.08</ele>
        <time>2021-03-27T17:47:10Z</time>
      </trkpt>
      <trkpt lat="43.012904" lon="-3.756625">
        <ele>706.04</ele>
        <time>2021-03-27T17:47:11Z</time>
      </trkpt>
      <trkpt lat="43.012931" lon="-3.756555">
        <ele>707.36</ele>
        <time>2021-03-27T17:47:12Z</time>
      </trkpt>
      <trkpt lat="43.012935" lon="-3.75647">
        <ele>708.15</ele>
        <time>2021-03-27T17:47:13Z</time>
      </trkpt>
      <trkpt lat="43.012897" lon="-3.756342">
        <ele>708.51</ele>
        <time>2021-03-27T17:47:14Z</time>
      </trkpt>
      <trkpt lat="43.012892" lon="-3.756165">
        <ele>709.82</ele>
        <time>2021-03-27T17:47:15Z</time>
      </trkpt>
      <trkpt lat="43.012943" lon="-3.756043">
        <ele>711.02</ele>
        <time>2021-03-27T17:47:16Z</time>
      </trkpt>
      <trkpt lat="43.013066" lon="-3.755902">
        <ele>712.92</ele>
        <time>2021-03-27T17:47:17Z</time>
      </trkpt>
      <trkpt lat="43.013043" lon="-3.755802">
        <ele>712.75</ele>
        <time>2021-03-27T17:47:19Z</time>
      </trkpt>
      <trkpt lat="43.013042" lon="-3.755506">
        <ele>712.02</ele>
        <time>2021-03-27T17:47:20Z</time>
      </trkpt>
      <trkpt lat="43.013077" lon="-3.755271">
        <ele>713.19</ele>
        <time>2021-03-27T17:47:22Z</time>
      </trkpt>
      <trkpt lat="43.013132" lon="-3.755121">
        <ele>712.85</ele>
        <time>2021-03-27T17:47:23Z</time>
      </trkpt>
      <trkpt lat="43.013275" lon="-3.75485">
        <ele>712.85</ele>
        <time>2021-03-27T17:47:25Z</time>
      </trkpt>
      <trkpt lat="43.013298" lon="-3.754731">
        <ele>712.31</ele>
        <time>2021-03-27T17:47:26Z</time>
      </trkpt>
      <trkpt lat="43.013369" lon="-3.753791">
        <ele>706.5</ele>
        <time>2021-03-27T17:47:28Z</time>
      </trkpt>
      <trkpt lat="43.013362" lon="-3.753425">
        <ele>702.57</ele>
        <time>2021-03-27T17:47:29Z</time>
      </trkpt>
      <trkpt lat="43.013378" lon="-3.753342">
        <ele>702.06</ele>
        <time>2021-03-27T17:47:31Z</time>
      </trkpt>
      <trkpt lat="43.013563" lon="-3.752887">
        <ele>702.79</ele>
        <time>2021-03-27T17:47:32Z</time>
      </trkpt>
      <trkpt lat="43.013601" lon="-3.752758">
        <ele>702.82</ele>
        <time>2021-03-27T17:47:34Z</time>
      </trkpt>
      <trkpt lat="43.013664" lon="-3.752216">
        <ele>703.34</ele>
        <time>2021-03-27T17:47:35Z</time>
      </trkpt>
      <trkpt lat="43.013767" lon="-3.751928">
        <ele>701.94</ele>
        <time>2021-03-27T17:47:37Z</time>
      </trkpt>
      <trkpt lat="43.013971" lon="-3.751517">
        <ele>699.41</ele>
        <time>2021-03-27T17:47:38Z</time>
      </trkpt>
      <trkpt lat="43.014171" lon="-3.750975">
        <ele>697.56</ele>
        <time>2021-03-27T17:47:40Z</time>
      </trkpt>
      <trkpt lat="43.014344" lon="-3.750808">
        <ele>699.05</ele>
        <time>2021-03-27T17:47:41Z</time>
      </trkpt>
      <trkpt lat="43.014375" lon="-3.750753">
        <ele>699.54</ele>
        <time>2021-03-27T17:47:43Z</time>
      </trkpt>
      <trkpt lat="43.014384" lon="-3.750622">
        <ele>700.01</ele>
        <time>2021-03-27T17:47:44Z</time>
      </trkpt>
      <trkpt lat="43.014265" lon="-3.750352">
        <ele>703.31</ele>
        <time>2021-03-27T17:47:45Z</time>
      </trkpt>
      <trkpt lat="43.014272" lon="-3.750231">
        <ele>705.07</ele>
        <time>2021-03-27T17:47:47Z</time>
      </trkpt>
      <trkpt lat="43.014314" lon="-3.75016">
        <ele>705.8</ele>
        <time>2021-03-27T17:47:48Z</time>
      </trkpt>
      <trkpt lat="43.014426" lon="-3.750054">
        <ele>705.7</ele>
        <time>2021-03-27T17:47:50Z</time>
      </trkpt>
      <trkpt lat="43.01483" lon="-3.74974">
        <ele>711.64</ele>
        <time>2021-03-27T17:47:51Z</time>
      </trkpt>
      <trkpt lat="43.015036" lon="-3.749663">
        <ele>713.54</ele>
        <time>2021-03-27T17:47:53Z</time>
      </trkpt>
      <trkpt lat="43.015552" lon="-3.749397">
        <ele>723.17</ele>
        <time>2021-03-27T17:47:54Z</time>
      </trkpt>
      <trkpt lat="43.015579" lon="-3.749343">
        <ele>724.34</ele>
        <time>2021-03-27T17:47:56Z</time>
      </trkpt>
      <trkpt lat="43.015583" lon="-3.74929">
        <ele>725.65</ele>
        <time>2021-03-27T17:47:57Z</time>
      </trkpt>
      <trkpt lat="43.015569" lon="-3.749256">
        <ele>726.63</ele>
        <time>2021-03-27T17:47:59Z</time>
      </trkpt>
      <trkpt lat="43.015541" lon="-3.749237">
        <ele>727.07</ele>
        <time>2021-03-27T17:48:00Z</time>
      </trkpt>
      <trkpt lat="43.015221" lon="-3.749235">
        <ele>723.96</ele>
        <time>2021-03-27T17:48:02Z</time>
      </trkpt>
      <trkpt lat="43.015037" lon="-3.749167">
        <ele>723.39</ele>
        <time>2021-03-27T17:48:03Z</time>
      </trkpt>
      <trkpt lat="43.014949" lon="-3.749084">
        <ele>724.08</ele>
        <time>2021-03-27T17:48:05Z</time>
      </trkpt>
      <trkpt lat="43.014857" lon="-3.748953">
        <ele>725.28</ele>
        <time>2021-03-27T17:48:06Z</time>
      </trkpt>
      <trkpt lat="43.01479" lon="-3.74881">
        <ele>726.27</ele>
        <time>2021-03-27T17:48:08Z</time>
      </trkpt>
      <trkpt lat="43.014761" lon="-3.748692">
        <ele>727.31</ele>
        <time>2021-03-27T17:48:09Z</time>
      </trkpt>
      <trkpt lat="43.014778" lon="-3.748309">
        <ele>729.29</ele>
        <time>2021-03-27T17:48:11Z</time>
      </trkpt>
      <trkpt lat="43.014769" lon="-3.7482">
        <ele>729.65</ele>
        <time>2021-03-27T17:48:12Z</time>
      </trkpt>
      <trkpt lat="43.014736" lon="-3.748078">
        <ele>729.97</ele>
        <time>2021-03-27T17:48:14Z</time>
      </trkpt>
      <trkpt lat="43.014675" lon="-3.747992">
        <ele>729.4</ele>
        <time>2021-03-27T17:48:15Z</time>
      </trkpt>
      <trkpt lat="43.014192" lon="-3.747488">
        <ele>725.49</ele>
        <time>2021-03-27T17:48:17Z</time>
      </trkpt>
      <trkpt lat="43.013908" lon="-3.747103">
        <ele>725.1</ele>
        <time>2021-03-27T17:48:18Z</time>
      </trkpt>
      <trkpt lat="43.01373" lon="-3.747036">
        <ele>725.0</ele>
        <time>2021-03-27T17:48:20Z</time>
      </trkpt>
      <trkpt lat="43.013586" lon="-3.746944">
        <ele>725.09</ele>
        <time>2021-03-27T17:48:21Z</time>
      </trkpt>
      <trkpt lat="43.013235" lon="-3.746454">
        <ele>723.36</ele>
        <time>2021-03-27T17:48:23Z</time>
      </trkpt>
      <trkpt lat="43.01293" lon="-3.746064">
        <ele>724.73</ele>
        <time>2021-03-27T17:48:24Z</time>
      </trkpt>
      <trkpt lat="43.012843" lon="-3.745904">
        <ele>724.78</ele>
        <time>2021-03-27T17:48:26Z</time>
      </trkpt>
      <trkpt lat="43.012609" lon="-3.745166">
        <ele>722.48</ele>
        <time>2021-03-27T17:48:27Z</time>
      </trkpt>
      <trkpt lat="43.01248" lon="-3.744621">
        <ele>721.63</ele>
        <time>2021-03-27T17:48:29Z</time>
      </trkpt>
      <trkpt lat="43.012337" lon="-3.744159">
        <ele>720.85</ele>
        <time>2021-03-27T17:48:30Z</time>
      </trkpt>
      <trkpt lat="43.012273" lon="-3.74404">
        <ele>720.42</ele>
        <time>2021-03-27T17:48:32Z</time>
      </trkpt>
      <trkpt lat="43.011959" lon="-3.743591">
        <ele>719.83</ele>
        <time>2021-03-27T17:48:33Z</time>
      </trkpt>
      <trkpt lat="43.011718" lon="-3.743527">
        <ele>718.63</ele>
        <time>2021-03-27T17:48:35Z</time>
      </trkpt>
      <trkpt lat="43.011655" lon="-3.743475">
        <ele>718.02</ele>
        <time>2021-03-27T17:48:36Z</time>
      </trkpt>
      <trkpt lat="43.01131" lon="-3.742885">
        <ele>714.21</ele>
        <time>2021-03-27T17:48:38Z</time>
      </trkpt>
      <trkpt lat="43.011182" lon="-3.742693">
        <ele>712.95</ele>
        <time>2021-03-27T17:48:39Z</time>
      </trkpt>
      <trkpt lat="43.01092" lon="-3.742388">
        <ele>710.78</ele>
        <time>2021-03-27T17:48:41Z</time>
      </trkpt>
      <trkpt lat="43.010866" lon="-3.742298">
        <ele>710.31</ele>
        <time>2021-03-27T17:48:42Z</time>
      </trkpt>
      <trkpt lat="43.010787" lon="-3.742084">
        <ele>708.84</ele>
        <time>2021-03-27T17:48:44Z</time>
      </trkpt>
      <trkpt lat="43.010691" lon="-3.741918">
        <ele>707.25</ele>
        <time>2021-03-27T17:48:45Z</time>
      </trkpt>
      <trkpt lat="43.010629" lon="-3.741833">
        <ele>706.17</ele>
        <time>2021-03-27T17:48:47Z</time>
      </trkpt>
      <trkpt lat="43.010411" lon="-3.741615">
        <ele>703.01</ele>
        <time>2021-03-27T17:48:48Z</time>
      </trkpt>
      <trkpt lat="43.01032" lon="-3.741493">
        <ele>701.37</ele>
        <time>2021-03-27T17:48:50Z</time>
      </trkpt>
      <trkpt lat="43.009876" lon="-3.740813">
        <ele>691.93</ele>
        <time>2021-03-27T17:48:51Z</time>
      </trkpt>
      <trkpt lat="43.009808" lon="-3.740701">
        <ele>690.34</ele>
        <time>2021-03-27T17:48:53Z</time>
      </trkpt>
      <trkpt lat="43.009749" lon="-3.740475">
        <ele>687.42</ele>
        <time>2021-03-27T17:48:54Z</time>
      </trkpt>
      <trkpt lat="43.009707" lon="-3.740377">
        <ele>685.79</ele>
        <time>2021-03-27T17:48:55Z</time>
      </trkpt>
      <trkpt lat="43.009639" lon="-3.740287">
        <ele>683.6</ele>
        <time>2021-03-27T17:48:57Z</time>
      </trkpt>
      <trkpt lat="43.00952" lon="-3.74047">
        <ele>682.93</ele>
        <time>2021-03-27T17:49:01Z</time>
      </trkpt>
      <trkpt lat="43.00939" lon="-3.74063">
        <ele>682.04</ele>
        <time>2021-03-27T17:49:04Z</time>
      </trkpt>
      <trkpt lat="43.009313" lon="-3.740674">
        <ele>681.14</ele>
        <time>2021-03-27T17:49:08Z</time>
      </trkpt>
      <trkpt lat="43.008998" lon="-3.740784">
        <ele>678.47</ele>
        <time>2021-03-27T17:49:11Z</time>
      </trkpt>
      <trkpt lat="43.008884" lon="-3.74067">
        <ele>677.44</ele>
        <time>2021-03-27T17:49:14Z</time>
      </trkpt>
      <trkpt lat="43.008806" lon="-3.740632">
        <ele>677.65</ele>
        <time>2021-03-27T17:49:17Z</time>
      </trkpt>
      <trkpt lat="43.008389" lon="-3.740064">
        <ele>677.0</ele>
        <time>2021-03-27T17:49:20Z</time>
      </trkpt>
      <trkpt lat="43.008159" lon="-3.739779">
        <ele>678.42</ele>
        <time>2021-03-27T17:49:23Z</time>
      </trkpt>
      <trkpt lat="43.008002" lon="-3.73965">
        <ele>679.19</ele>
        <time>2021-03-27T17:49:27Z</time>
      </trkpt>
      <trkpt lat="43.007573" lon="-3.739371">
        <ele>680.81</ele>
        <time>2021-03-27T17:49:30Z</time>
      </trkpt>
      <trkpt lat="43.007387" lon="-3.739156">
        <ele>681.46</ele>
        <time>2021-03-27T17:49:33Z</time>
      </trkpt>
      <trkpt lat="43.007168" lon="-3.738863">
        <ele>683.47</ele>
        <time>2021-03-27T17:49:36Z</time>
      </trkpt>
      <trkpt lat="43.007247" lon="-3.738765">
        <ele>684.29</ele>
        <time>2021-03-27T17:49:38Z</time>
      </trkpt>
      <trkpt lat="43.007346" lon="-3.738593">
        <ele>685.74</ele>
        <time>2021-03-27T17:49:40Z</time>
      </trkpt>
      <trkpt lat="43.007388" lon="-3.738479">
        <ele>686.83</ele>
        <time>2021-03-27T17:49:42Z</time>
      </trkpt>
      <trkpt lat="43.007542" lon="-3.73784">
        <ele>690.08</ele>
        <time>2021-03-27T17:49:44Z</time>
      </trkpt>
      <trkpt lat="43.007657" lon="-3.737622">
        <ele>691.2</ele>
        <time>2021-03-27T17:49:46Z</time>
      </trkpt>
      <trkpt lat="43.00775" lon="-3.737526">
        <ele>692.52</ele>
        <time>2021-03-27T17:49:48Z</time>
      </trkpt>
      <trkpt lat="43.007863" lon="-3.737456">
        <ele>694.31</ele>
        <time>2021-03-27T17:49:50Z</time>
      </trkpt>
      <trkpt lat="43.00797" lon="-3.73743">
        <ele>695.37</ele>
        <time>2021-03-27T17:49:52Z</time>
      </trkpt>
      <trkpt lat="43.008308" lon="-3.737452">
        <ele>693.08</ele>
        <time>2021-03-27T17:49:54Z</time>
      </trkpt>
      <trkpt lat="43.008414" lon="-3.737438">
        <ele>691.67</ele>
        <time>2021-03-27T17:49:56Z</time>
      </trkpt>
      <trkpt lat="43.008521" lon="-3.73739">
        <ele>690.59</ele>
        <time>2021-03-27T17:49:58Z</time>
      </trkpt>
      <trkpt lat="43.008628" lon="-3.737311">
        <ele>690.29</ele>
        <time>2021-03-27T17:50:00Z</time>
      </trkpt>
      <trkpt lat="43.009555" lon="-3.736457">
        <ele>699.6</ele>
        <time>2021-03-27T17:50:02Z</time>
      </trkpt>
      <trkpt lat="43.009751" lon="-3.736254">
        <ele>702.64</ele>
        <time>2021-03-27T17:50:04Z</time>
      </trkpt>
      <trkpt lat="43.010354" lon="-3.735496">
        <ele>705.89</ele>
        <time>2021-03-27T17:50:06Z</time>
      </trkpt>
      <trkpt lat="43.010648" lon="-3.735165">
        <ele>707.19</ele>
        <time>2021-03-27T17:50:08Z</time>
      </trkpt>
      <trkpt lat="43.011645" lon="-3.734257">
        <ele>715.7</ele>
        <time>2021-03-27T17:50:10Z</time>
      </trkpt>
      <trkpt lat="43.012275" lon="-3.733652">
        <ele>719.84</ele>
        <time>2021-03-27T17:50:12Z</time>
      </trkpt>
      <trkpt lat="43.012508" lon="-3.733468">
        <ele>720.55</ele>
        <time>2021-03-27T17:50:14Z</time>
      </trkpt>
      <trkpt lat="43.014089" lon="-3.732472">
        <ele>721.71</ele>
        <time>2021-03-27T17:50:16Z</time>
      </trkpt>
      <trkpt lat="43.014237" lon="-3.73236">
        <ele>721.64</ele>
        <time>2021-03-27T17:50:18Z</time>
      </trkpt>
      <trkpt lat="43.015191" lon="-3.73148">
        <ele>730.63</ele>
        <time>2021-03-27T17:50:20Z</time>
      </trkpt>
      <trkpt lat="43.01559" lon="-3.731083">
        <ele>736.81</ele>
        <time>2021-03-27T17:50:22Z</time>
      </trkpt>
      <trkpt lat="43.016084" lon="-3.730546">
        <ele>735.89</ele>
        <time>2021-03-27T17:50:24Z</time>
      </trkpt>
      <trkpt lat="43.016317" lon="-3.730268">
        <ele>736.79</ele>
        <time>2021-03-27T17:50:26Z</time>
      </trkpt>
      <trkpt lat="43.016513" lon="-3.729993">
        <ele>739.03</ele>
        <time>2021-03-27T17:50:28Z</time>
      </trkpt>
      <trkpt lat="43.016972" lon="-3.729419">
        <ele>743.16</ele>
        <time>2021-03-27T17:50:30Z</time>
      </trkpt>
      <trkpt lat="43.017579" lon="-3.72877">
        <ele>746.67</ele>
        <time>2021-03-27T17:50:32Z</time>
      </trkpt>
      <trkpt lat="43.019007" lon="-3.727484">
        <ele>749.75</ele>
        <time>2021-03-27T17:50:33Z</time>
      </trkpt>
      <trkpt lat="43.019359" lon="-3.726878">
        <ele>754.33</ele>
        <time>2021-03-27T17:50:35Z</time>
      </trkpt>
      <trkpt lat="43.019491" lon="-3.726614">
        <ele>754.72</ele>
        <time>2021-03-27T17:50:37Z</time>
      </trkpt>
      <trkpt lat="43.019635" lon="-3.726227">
        <ele>756.17</ele>
        <time>2021-03-27T17:50:39Z</time>
      </trkpt>
      <trkpt lat="43.019776" lon="-3.725964">
        <ele>757.63</ele>
        <time>2021-03-27T17:50:41Z</time>
      </trkpt>
      <trkpt lat="43.019851" lon="-3.725877">
        <ele>758.36</ele>
        <time>2021-03-27T17:50:43Z</time>
      </trkpt>
      <trkpt lat="43.020441" lon="-3.725572">
        <ele>758.35</ele>
        <time>2021-03-27T17:50:45Z</time>
      </trkpt>
      <trkpt lat="43.020608" lon="-3.725439">
        <ele>759.61</ele>
        <time>2021-03-27T17:50:47Z</time>
      </trkpt>
      <trkpt lat="43.020765" lon="-3.725256">
        <ele>761.4</ele>
        <time>2021-03-27T17:50:49Z</time>
      </trkpt>
      <trkpt lat="43.020927" lon="-3.724996">
        <ele>764.03</ele>
        <time>2021-03-27T17:50:51Z</time>
      </trkpt>
      <trkpt lat="43.02108" lon="-3.72459">
        <ele>765.5</ele>
        <time>2021-03-27T17:50:53Z</time>
      </trkpt>
      <trkpt lat="43.021229" lon="-3.723951">
        <ele>768.67</ele>
        <time>2021-03-27T17:50:55Z</time>
      </trkpt>
      <trkpt lat="43.021366" lon="-3.72354">
        <ele>771.53</ele>
        <time>2021-03-27T17:50:57Z</time>
      </trkpt>
      <trkpt lat="43.021905" lon="-3.722235">
        <ele>773.85</ele>
        <time>2021-03-27T17:50:59Z</time>
      </trkpt>
      <trkpt lat="43.022037" lon="-3.722007">
        <ele>775.89</ele>
        <time>2021-03-27T17:51:01Z</time>
      </trkpt>
      <trkpt lat="43.022607" lon="-3.721349">
        <ele>778.4</ele>
        <time>2021-03-27T17:51:03Z</time>
      </trkpt>
      <trkpt lat="43.022868" lon="-3.721037">
        <ele>781.4</ele>
        <time>2021-03-27T17:51:05Z</time>
      </trkpt>
      <trkpt lat="43.023116" lon="-3.7207">
        <ele>784.93</ele>
        <time>2021-03-27T17:51:07Z</time>
      </trkpt>
      <trkpt lat="43.023306" lon="-3.720494">
        <ele>787.45</ele>
        <time>2021-03-27T17:51:09Z</time>
      </trkpt>
      <trkpt lat="43.023443" lon="-3.7204">
        <ele>786.87</ele>
        <time>2021-03-27T17:51:11Z</time>
      </trkpt>
      <trkpt lat="43.023672" lon="-3.720295">
        <ele>785.95</ele>
        <time>2021-03-27T17:51:13Z</time>
      </trkpt>
      <trkpt lat="43.024252" lon="-3.720064">
        <ele>785.23</ele>
        <time>2021-03-27T17:51:15Z</time>
      </trkpt>
      <trkpt lat="43.024916" lon="-3.719621">
        <ele>786.68</ele>
        <time>2021-03-27T17:51:17Z</time>
      </trkpt>
      <trkpt lat="43.025198" lon="-3.719374">
        <ele>790.02</ele>
        <time>2021-03-27T17:51:19Z</time>
      </trkpt>
      <trkpt lat="43.026154" lon="-3.718088">
        <ele>797.37</ele>
        <time>2021-03-27T17:51:21Z</time>
      </trkpt>
      <trkpt lat="43.026439" lon="-3.717736">
        <ele>799.5</ele>
        <time>2021-03-27T17:51:23Z</time>
      </trkpt>
      <trkpt lat="43.026554" lon="-3.717623">
        <ele>799.24</ele>
        <time>2021-03-27T17:51:25Z</time>
      </trkpt>
      <trkpt lat="43.027042" lon="-3.717296">
        <ele>798.65</ele>
        <time>2021-03-27T17:51:27Z</time>
      </trkpt>
      <trkpt lat="43.02727" lon="-3.71709">
        <ele>799.14</ele>
        <time>2021-03-27T17:51:29Z</time>
      </trkpt>
      <trkpt lat="43.027364" lon="-3.716952">
        <ele>799.35</ele>
        <time>2021-03-27T17:51:31Z</time>
      </trkpt>
      <trkpt lat="43.027792" lon="-3.716144">
        <ele>800.26</ele>
        <time>2021-03-27T17:51:33Z</time>
      </trkpt>
      <trkpt lat="43.028193" lon="-3.715438">
        <ele>805.23</ele>
        <time>2021-03-27T17:51:35Z</time>
      </trkpt>
      <trkpt lat="43.028554" lon="-3.71485">
        <ele>806.41</ele>
        <time>2021-03-27T17:51:37Z</time>
      </trkpt>
      <trkpt lat="43.029239" lon="-3.713841">
        <ele>811.69</ele>
        <time>2021-03-27T17:51:39Z</time>
      </trkpt>
      <trkpt lat="43.029433" lon="-3.713698">
        <ele>812.63</ele>
        <time>2021-03-27T17:51:41Z</time>
      </trkpt>
      <trkpt lat="43.029686" lon="-3.713597">
        <ele>811.11</ele>
        <time>2021-03-27T17:51:43Z</time>
      </trkpt>
      <trkpt lat="43.029882" lon="-3.713473">
        <ele>812.74</ele>
        <time>2021-03-27T17:51:45Z</time>
      </trkpt>
      <trkpt lat="43.030093" lon="-3.713233">
        <ele>815.94</ele>
        <time>2021-03-27T17:51:47Z</time>
      </trkpt>
      <trkpt lat="43.030529" lon="-3.712597">
        <ele>815.53</ele>
        <time>2021-03-27T17:51:49Z</time>
      </trkpt>
      <trkpt lat="43.030697" lon="-3.71244">
        <ele>813.72</ele>
        <time>2021-03-27T17:51:51Z</time>
      </trkpt>
      <trkpt lat="43.030829" lon="-3.712346">
        <ele>812.43</ele>
        <time>2021-03-27T17:51:53Z</time>
      </trkpt>
      <trkpt lat="43.030949" lon="-3.7123">
        <ele>812.38</ele>
        <time>2021-03-27T17:51:55Z</time>
      </trkpt>
      <trkpt lat="43.031471" lon="-3.712182">
        <ele>810.93</ele>
        <time>2021-03-27T17:51:57Z</time>
      </trkpt>
      <trkpt lat="43.031563" lon="-3.712128">
        <ele>810.94</ele>
        <time>2021-03-27T17:51:59Z</time>
      </trkpt>
      <trkpt lat="43.031641" lon="-3.71205">
        <ele>811.43</ele>
        <time>2021-03-27T17:52:01Z</time>
      </trkpt>
      <trkpt lat="43.03169" lon="-3.711968">
        <ele>811.98</ele>
        <time>2021-03-27T17:52:02Z</time>
      </trkpt>
      <trkpt lat="43.031837" lon="-3.711503">
        <ele>817.29</ele>
        <time>2021-03-27T17:52:04Z</time>
      </trkpt>
      <trkpt lat="43.03196" lon="-3.711247">
        <ele>817.66</ele>
        <time>2021-03-27T17:52:06Z</time>
      </trkpt>
      <trkpt lat="43.032434" lon="-3.71051">
        <ele>821.16</ele>
        <time>2021-03-27T17:52:08Z</time>
      </trkpt>
      <trkpt lat="43.032629" lon="-3.710288">
        <ele>822.45</ele>
        <time>2021-03-27T17:52:10Z</time>
      </trkpt>
      <trkpt lat="43.032717" lon="-3.71025">
        <ele>821.97</ele>
        <time>2021-03-27T17:52:12Z</time>
      </trkpt>
      <trkpt lat="43.032828" lon="-3.710244">
        <ele>820.85</ele>
        <time>2021-03-27T17:52:14Z</time>
      </trkpt>
      <trkpt lat="43.032962" lon="-3.710282">
        <ele>819.27</ele>
        <time>2021-03-27T17:52:16Z</time>
      </trkpt>
      <trkpt lat="43.033239" lon="-3.710426">
        <ele>819.51</ele>
        <time>2021-03-27T17:52:18Z</time>
      </trkpt>
      <trkpt lat="43.033413" lon="-3.710445">
        <ele>820.48</ele>
        <time>2021-03-27T17:52:20Z</time>
      </trkpt>
      <trkpt lat="43.033509" lon="-3.710427">
        <ele>820.55</ele>
        <time>2021-03-27T17:52:22Z</time>
      </trkpt>
      <trkpt lat="43.03369" lon="-3.710315">
        <ele>819.87</ele>
        <time>2021-03-27T17:52:24Z</time>
      </trkpt>
      <trkpt lat="43.034141" lon="-3.709866">
        <ele>818.77</ele>
        <time>2021-03-27T17:52:26Z</time>
      </trkpt>
      <trkpt lat="43.034409" lon="-3.709648">
        <ele>821.23</ele>
        <time>2021-03-27T17:52:28Z</time>
      </trkpt>
      <trkpt lat="43.034663" lon="-3.709507">
        <ele>821.34</ele>
        <time>2021-03-27T17:52:30Z</time>
      </trkpt>
      <trkpt lat="43.034959" lon="-3.70941">
        <ele>822.51</ele>
        <time>2021-03-27T17:52:32Z</time>
      </trkpt>
      <trkpt lat="43.035211" lon="-3.70938">
        <ele>822.17</ele>
        <time>2021-03-27T17:52:34Z</time>
      </trkpt>
      <trkpt lat="43.036148" lon="-3.709388">
        <ele>821.31</ele>
        <time>2021-03-27T17:52:36Z</time>
      </trkpt>
      <trkpt lat="43.036491" lon="-3.709307">
        <ele>822.0</ele>
        <time>2021-03-27T17:52:38Z</time>
      </trkpt>
      <trkpt lat="43.036512" lon="-3.709331">
        <ele>822.0</ele>
        <time>2021-03-27T17:52:39Z</time>
      </trkpt>
      <trkpt lat="43.036512" lon="-3.709331">
        <ele>822.0</ele>
        <time>2021-03-27T17:52:39Z</time>
      </trkpt>
      <trkpt lat="43.036491" lon="-3.709307">
        <ele>822.0</ele>
        <time>2021-03-27T17:52:41Z</time>
      </trkpt>
      <trkpt lat="43.03673" lon="-3.709193">
        <ele>822.04</ele>
        <time>2021-03-27T17:52:45Z</time>
      </trkpt>
      <trkpt lat="43.037002" lon="-3.709001">
        <ele>821.57</ele>
        <time>2021-03-27T17:52:50Z</time>
      </trkpt>
      <trkpt lat="43.037294" lon="-3.708692">
        <ele>818.69</ele>
        <time>2021-03-27T17:52:55Z</time>
      </trkpt>
      <trkpt lat="43.037481" lon="-3.708419">
        <ele>815.51</ele>
        <time>2021-03-27T17:53:00Z</time>
      </trkpt>
      <trkpt lat="43.038151" lon="-3.707039">
        <ele>810.37</ele>
        <time>2021-03-27T17:53:05Z</time>
      </trkpt>
      <trkpt lat="43.038358" lon="-3.706685">
        <ele>806.4</ele>
        <time>2021-03-27T17:53:09Z</time>
      </trkpt>
      <trkpt lat="43.038569" lon="-3.706427">
        <ele>804.14</ele>
        <time>2021-03-27T17:53:14Z</time>
      </trkpt>
      <trkpt lat="43.038741" lon="-3.706279">
        <ele>804.15</ele>
        <time>2021-03-27T17:53:19Z</time>
      </trkpt>
      <trkpt lat="43.038856" lon="-3.706203">
        <ele>804.43</ele>
        <time>2021-03-27T17:53:24Z</time>
      </trkpt>
      <trkpt lat="43.039141" lon="-3.706074">
        <ele>803.49</ele>
        <time>2021-03-27T17:53:29Z</time>
      </trkpt>
      <trkpt lat="43.039385" lon="-3.706026">
        <ele>802.47</ele>
        <time>2021-03-27T17:53:34Z</time>
      </trkpt>
      <trkpt lat="43.039876" lon="-3.706018">
        <ele>800.48</ele>
        <time>2021-03-27T17:53:38Z</time>
      </trkpt>
      <trkpt lat="43.040082" lon="-3.705997">
        <ele>799.93</ele>
        <time>2021-03-27T17:53:43Z</time>
      </trkpt>
      <trkpt lat="43.040206" lon="-3.705938">
        <ele>798.83</ele>
        <time>2021-03-27T17:53:48Z</time>
      </trkpt>
      <trkpt lat="43.040313" lon="-3.705848">
        <ele>797.07</ele>
        <time>2021-03-27T17:53:53Z</time>
      </trkpt>
      <trkpt lat="43.040935" lon="-3.705191">
        <ele>789.65</ele>
        <time>2021-03-27T17:53:58Z</time>
      </trkpt>
      <trkpt lat="43.041081" lon="-3.704945">
        <ele>787.96</ele>
        <time>2021-03-27T17:54:02Z</time>
      </trkpt>
      <trkpt lat="43.041253" lon="-3.704523">
        <ele>784.87</ele>
        <time>2021-03-27T17:54:07Z</time>
      </trkpt>
      <trkpt lat="43.041369" lon="-3.7043">
        <ele>783.79</ele>
        <time>2021-03-27T17:54:12Z</time>
      </trkpt>
      <trkpt lat="43.042067" lon="-3.703323">
        <ele>776.87</ele>
        <time>2021-03-27T17:54:17Z</time>
      </trkpt>
      <trkpt lat="43.042224" lon="-3.703211">
        <ele>775.67</ele>
        <time>2021-03-27T17:54:22Z</time>
      </trkpt>
      <trkpt lat="43.042403" lon="-3.703157">
        <ele>774.44</ele>
        <time>2021-03-27T17:54:26Z</time>
      </trkpt>
      <trkpt lat="43.042537" lon="-3.703084">
        <ele>773.28</ele>
        <time>2021-03-27T17:54:31Z</time>
      </trkpt>
      <trkpt lat="43.042622" lon="-3.703">
        <ele>772.71</ele>
        <time>2021-03-27T17:54:36Z</time>
      </trkpt>
      <trkpt lat="43.042676" lon="-3.702881">
        <ele>771.97</ele>
        <time>2021-03-27T17:54:41Z</time>
      </trkpt>
      <trkpt lat="43.042716" lon="-3.702607">
        <ele>772.17</ele>
        <time>2021-03-27T17:54:46Z</time>
      </trkpt>
      <trkpt lat="43.042723" lon="-3.702336">
        <ele>773.28</ele>
        <time>2021-03-27T17:54:51Z</time>
      </trkpt>
      <trkpt lat="43.042709" lon="-3.702133">
        <ele>773.67</ele>
        <time>2021-03-27T17:54:55Z</time>
      </trkpt>
      <trkpt lat="43.042645" lon="-3.701921">
        <ele>773.05</ele>
        <time>2021-03-27T17:55:00Z</time>
      </trkpt>
      <trkpt lat="43.042392" lon="-3.701465">
        <ele>767.0</ele>
        <time>2021-03-27T17:55:05Z</time>
      </trkpt>
      <trkpt lat="43.042333" lon="-3.701312">
        <ele>764.8</ele>
        <time>2021-03-27T17:55:10Z</time>
      </trkpt>
      <trkpt lat="43.042303" lon="-3.701141">
        <ele>763.18</ele>
        <time>2021-03-27T17:55:15Z</time>
      </trkpt>
      <trkpt lat="43.042221" lon="-3.700201">
        <ele>759.26</ele>
        <time>2021-03-27T17:55:19Z</time>
      </trkpt>
      <trkpt lat="43.042182" lon="-3.69998">
        <ele>759.65</ele>
        <time>2021-03-27T17:55:24Z</time>
      </trkpt>
      <trkpt lat="43.04196" lon="-3.699248">
        <ele>759.35</ele>
        <time>2021-03-27T17:55:29Z</time>
      </trkpt>
      <trkpt lat="43.041909" lon="-3.699003">
        <ele>758.0</ele>
        <time>2021-03-27T17:55:34Z</time>
      </trkpt>
      <trkpt lat="43.041913" lon="-3.698732">
        <ele>756.35</ele>
        <time>2021-03-27T17:55:39Z</time>
      </trkpt>
      <trkpt lat="43.041981" lon="-3.69842">
        <ele>754.25</ele>
        <time>2021-03-27T17:55:43Z</time>
      </trkpt>
      <trkpt lat="43.042046" lon="-3.698211">
        <ele>753.05</ele>
        <time>2021-03-27T17:55:48Z</time>
      </trkpt>
      <trkpt lat="43.042125" lon="-3.698026">
        <ele>752.12</ele>
        <time>2021-03-27T17:55:53Z</time>
      </trkpt>
      <trkpt lat="43.042228" lon="-3.697936">
        <ele>752.56</ele>
        <time>2021-03-27T17:55:58Z</time>
      </trkpt>
      <trkpt lat="43.042336" lon="-3.697918">
        <ele>752.3</ele>
        <time>2021-03-27T17:56:03Z</time>
      </trkpt>
      <trkpt lat="43.042505" lon="-3.697964">
        <ele>752.23</ele>
        <time>2021-03-27T17:56:07Z</time>
      </trkpt>
      <trkpt lat="43.042746" lon="-3.69816">
        <ele>749.15</ele>
        <time>2021-03-27T17:56:12Z</time>
      </trkpt>
      <trkpt lat="43.043477" lon="-3.698938">
        <ele>747.73</ele>
        <time>2021-03-27T17:56:17Z</time>
      </trkpt>
      <trkpt lat="43.043813" lon="-3.699398">
        <ele>748.83</ele>
        <time>2021-03-27T17:56:22Z</time>
      </trkpt>
      <trkpt lat="43.043854" lon="-3.699433">
        <ele>747.94</ele>
        <time>2021-03-27T17:56:27Z</time>
      </trkpt>
      <trkpt lat="43.043968" lon="-3.699444">
        <ele>746.43</ele>
        <time>2021-03-27T17:56:32Z</time>
      </trkpt>
      <trkpt lat="43.044059" lon="-3.699365">
        <ele>745.84</ele>
        <time>2021-03-27T17:56:36Z</time>
      </trkpt>
      <trkpt lat="43.044091" lon="-3.699309">
        <ele>745.77</ele>
        <time>2021-03-27T17:56:41Z</time>
      </trkpt>
      <trkpt lat="43.044107" lon="-3.699178">
        <ele>745.98</ele>
        <time>2021-03-27T17:56:46Z</time>
      </trkpt>
      <trkpt lat="43.044089" lon="-3.698841">
        <ele>745.4</ele>
        <time>2021-03-27T17:56:51Z</time>
      </trkpt>
      <trkpt lat="43.044109" lon="-3.698666">
        <ele>744.5</ele>
        <time>2021-03-27T17:56:56Z</time>
      </trkpt>
      <trkpt lat="43.044155" lon="-3.698554">
        <ele>744.42</ele>
        <time>2021-03-27T17:57:00Z</time>
      </trkpt>
      <trkpt lat="43.044299" lon="-3.698342">
        <ele>745.01</ele>
        <time>2021-03-27T17:57:05Z</time>
      </trkpt>
      <trkpt lat="43.044418" lon="-3.698232">
        <ele>745.57</ele>
        <time>2021-03-27T17:57:10Z</time>
      </trkpt>
      <trkpt lat="43.044819" lon="-3.698117">
        <ele>745.46</ele>
        <time>2021-03-27T17:57:15Z</time>
      </trkpt>
      <trkpt lat="43.044885" lon="-3.698023">
        <ele>745.06</ele>
        <time>2021-03-27T17:57:20Z</time>
      </trkpt>
      <trkpt lat="43.044915" lon="-3.69788">
        <ele>744.55</ele>
        <time>2021-03-27T17:57:24Z</time>
      </trkpt>
      <trkpt lat="43.044871" lon="-3.697714">
        <ele>744.78</ele>
        <time>2021-03-27T17:57:29Z</time>
      </trkpt>
      <trkpt lat="43.044721" lon="-3.697518">
        <ele>743.98</ele>
        <time>2021-03-27T17:57:34Z</time>
      </trkpt>
      <trkpt lat="43.044502" lon="-3.697274">
        <ele>740.99</ele>
        <time>2021-03-27T17:57:39Z</time>
      </trkpt>
      <trkpt lat="43.044369" lon="-3.697037">
        <ele>739.95</ele>
        <time>2021-03-27T17:57:44Z</time>
      </trkpt>
      <trkpt lat="43.044331" lon="-3.696887">
        <ele>740.18</ele>
        <time>2021-03-27T17:57:49Z</time>
      </trkpt>
      <trkpt lat="43.044317" lon="-3.696731">
        <ele>741.16</ele>
        <time>2021-03-27T17:57:53Z</time>
      </trkpt>
      <trkpt lat="43.044347" lon="-3.695464">
        <ele>743.29</ele>
        <time>2021-03-27T17:57:58Z</time>
      </trkpt>
      <trkpt lat="43.044545" lon="-3.693729">
        <ele>738.88</ele>
        <time>2021-03-27T17:58:03Z</time>
      </trkpt>
      <trkpt lat="43.044591" lon="-3.693473">
        <ele>738.82</ele>
        <time>2021-03-27T17:58:08Z</time>
      </trkpt>
      <trkpt lat="43.045213" lon="-3.691015">
        <ele>738.27</ele>
        <time>2021-03-27T17:58:13Z</time>
      </trkpt>
      <trkpt lat="43.045534" lon="-3.689454">
        <ele>738.0</ele>
        <time>2021-03-27T17:58:17Z</time>
      </trkpt>
      <trkpt lat="43.045573" lon="-3.68917">
        <ele>738.0</ele>
        <time>2021-03-27T17:58:22Z</time>
      </trkpt>
      <trkpt lat="43.045589" lon="-3.688928">
        <ele>737.14</ele>
        <time>2021-03-27T17:58:27Z</time>
      </trkpt>
      <trkpt lat="43.045699" lon="-3.68655">
        <ele>736.54</ele>
        <time>2021-03-27T17:58:32Z</time>
      </trkpt>
      <trkpt lat="43.045752" lon="-3.685829">
        <ele>736.09</ele>
        <time>2021-03-27T17:58:37Z</time>
      </trkpt>
      <trkpt lat="43.045901" lon="-3.685175">
        <ele>733.0</ele>
        <time>2021-03-27T17:58:41Z</time>
      </trkpt>
      <trkpt lat="43.046511" lon="-3.682599">
        <ele>732.88</ele>
        <time>2021-03-27T17:58:46Z</time>
      </trkpt>
      <trkpt lat="43.046604" lon="-3.682084">
        <ele>732.22</ele>
        <time>2021-03-27T17:58:51Z</time>
      </trkpt>
      <trkpt lat="43.046789" lon="-3.679908">
        <ele>729.55</ele>
        <time>2021-03-27T17:58:56Z</time>
      </trkpt>
      <trkpt lat="43.046813" lon="-3.679174">
        <ele>725.04</ele>
        <time>2021-03-27T17:59:01Z</time>
      </trkpt>
      <trkpt lat="43.046862" lon="-3.677168">
        <ele>731.11</ele>
        <time>2021-03-27T17:59:06Z</time>
      </trkpt>
      <trkpt lat="43.046916" lon="-3.676548">
        <ele>728.94</ele>
        <time>2021-03-27T17:59:10Z</time>
      </trkpt>
      <trkpt lat="43.047035" lon="-3.675892">
        <ele>729.35</ele>
        <time>2021-03-27T17:59:15Z</time>
      </trkpt>
      <trkpt lat="43.047655" lon="-3.673123">
        <ele>725.24</ele>
        <time>2021-03-27T17:59:20Z</time>
      </trkpt>
      <trkpt lat="43.047729" lon="-3.672869">
        <ele>725.0</ele>
        <time>2021-03-27T17:59:25Z</time>
      </trkpt>
      <trkpt lat="43.04846" lon="-3.671555">
        <ele>728.05</ele>
        <time>2021-03-27T17:59:30Z</time>
      </trkpt>
      <trkpt lat="43.048707" lon="-3.671081">
        <ele>726.31</ele>
        <time>2021-03-27T17:59:34Z</time>
      </trkpt>
      <trkpt lat="43.048758" lon="-3.67089">
        <ele>726.11</ele>
        <time>2021-03-27T17:59:39Z</time>
      </trkpt>
      <trkpt lat="43.049136" lon="-3.667333">
        <ele>718.97</ele>
        <time>2021-03-27T17:59:44Z</time>
      </trkpt>
      <trkpt lat="43.049175" lon="-3.666871">
        <ele>718.32</ele>
        <time>2021-03-27T17:59:49Z</time>
      </trkpt>
      <trkpt lat="43.04917" lon="-3.666643">
        <ele>719.1</ele>
        <time>2021-03-27T17:59:54Z</time>
      </trkpt>
      <trkpt lat="43.04915" lon="-3.666453">
        <ele>719.83</ele>
        <time>2021-03-27T17:59:58Z</time>
      </trkpt>
      <trkpt lat="43.048938" lon="-3.665457">
        <ele>727.18</ele>
        <time>2021-03-27T18:00:03Z</time>
      </trkpt>
      <trkpt lat="43.048924" lon="-3.665251">
        <ele>727.97</ele>
        <time>2021-03-27T18:00:08Z</time>
      </trkpt>
      <trkpt lat="43.048949" lon="-3.665058">
        <ele>728.57</ele>
        <time>2021-03-27T18:00:13Z</time>
      </trkpt>
      <trkpt lat="43.049013" lon="-3.664808">
        <ele>728.86</ele>
        <time>2021-03-27T18:00:18Z</time>
      </trkpt>
      <trkpt lat="43.049624" lon="-3.663137">
        <ele>736.29</ele>
        <time>2021-03-27T18:00:22Z</time>
      </trkpt>
      <trkpt lat="43.049688" lon="-3.66293">
        <ele>736.81</ele>
        <time>2021-03-27T18:00:27Z</time>
      </trkpt>
      <trkpt lat="43.049725" lon="-3.662708">
        <ele>736.75</ele>
        <time>2021-03-27T18:00:32Z</time>
      </trkpt>
      <trkpt lat="43.049713" lon="-3.662483">
        <ele>735.88</ele>
        <time>2021-03-27T18:00:37Z</time>
      </trkpt>
      <trkpt lat="43.049654" lon="-3.662249">
        <ele>734.2</ele>
        <time>2021-03-27T18:00:42Z</time>
      </trkpt>
      <trkpt lat="43.049148" lon="-3.661154">
        <ele>731.14</ele>
        <time>2021-03-27T18:00:47Z</time>
      </trkpt>
      <trkpt lat="43.049112" lon="-3.661049">
        <ele>731.04</ele>
        <time>2021-03-27T18:00:51Z</time>
      </trkpt>
      <trkpt lat="43.049107" lon="-3.660973">
        <ele>731.11</ele>
        <time>2021-03-27T18:00:56Z</time>
      </trkpt>
      <trkpt lat="43.049125" lon="-3.660895">
        <ele>731.12</ele>
        <time>2021-03-27T18:01:01Z</time>
      </trkpt>
      <trkpt lat="43.049173" lon="-3.660845">
        <ele>730.91</ele>
        <time>2021-03-27T18:01:06Z</time>
      </trkpt>
      <trkpt lat="43.049258" lon="-3.660857">
        <ele>729.71</ele>
        <time>2021-03-27T18:01:11Z</time>
      </trkpt>
      <trkpt lat="43.049385" lon="-3.660935">
        <ele>728.15</ele>
        <time>2021-03-27T18:01:15Z</time>
      </trkpt>
      <trkpt lat="43.049829" lon="-3.661294">
        <ele>727.8</ele>
        <time>2021-03-27T18:01:20Z</time>
      </trkpt>
      <trkpt lat="43.050021" lon="-3.661475">
        <ele>728.22</ele>
        <time>2021-03-27T18:01:25Z</time>
      </trkpt>
      <trkpt lat="43.050559" lon="-3.662065">
        <ele>723.16</ele>
        <time>2021-03-27T18:01:30Z</time>
      </trkpt>
      <trkpt lat="43.050696" lon="-3.662177">
        <ele>723.92</ele>
        <time>2021-03-27T18:01:35Z</time>
      </trkpt>
      <trkpt lat="43.050801" lon="-3.662203">
        <ele>723.18</ele>
        <time>2021-03-27T18:01:39Z</time>
      </trkpt>
      <trkpt lat="43.050915" lon="-3.662193">
        <ele>722.49</ele>
        <time>2021-03-27T18:01:44Z</time>
      </trkpt>
      <trkpt lat="43.051015" lon="-3.662137">
        <ele>721.73</ele>
        <time>2021-03-27T18:01:49Z</time>
      </trkpt>
      <trkpt lat="43.051095" lon="-3.662049">
        <ele>720.81</ele>
        <time>2021-03-27T18:01:54Z</time>
      </trkpt>
      <trkpt lat="43.051164" lon="-3.661931">
        <ele>720.1</ele>
        <time>2021-03-27T18:01:59Z</time>
      </trkpt>
      <trkpt lat="43.051366" lon="-3.661304">
        <ele>716.7</ele>
        <time>2021-03-27T18:02:04Z</time>
      </trkpt>
      <trkpt lat="43.051384" lon="-3.661235">
        <ele>716.45</ele>
        <time>2021-03-27T18:02:08Z</time>
      </trkpt>
      <trkpt lat="43.051405" lon="-3.66096">
        <ele>716.77</ele>
        <time>2021-03-27T18:02:13Z</time>
      </trkpt>
      <trkpt lat="43.051357" lon="-3.659091">
        <ele>712.5</ele>
        <time>2021-03-27T18:02:18Z</time>
      </trkpt>
      <trkpt lat="43.051362" lon="-3.658782">
        <ele>712.5</ele>
        <time>2021-03-27T18:02:23Z</time>
      </trkpt>
      <trkpt lat="43.051547" lon="-3.657887">
        <ele>714.06</ele>
        <time>2021-03-27T18:02:28Z</time>
      </trkpt>
      <trkpt lat="43.051581" lon="-3.657656">
        <ele>713.46</ele>
        <time>2021-03-27T18:02:32Z</time>
      </trkpt>
      <trkpt lat="43.051608" lon="-3.656685">
        <ele>709.49</ele>
        <time>2021-03-27T18:02:37Z</time>
      </trkpt>
      <trkpt lat="43.051576" lon="-3.656173">
        <ele>710.45</ele>
        <time>2021-03-27T18:02:42Z</time>
      </trkpt>
      <trkpt lat="43.051488" lon="-3.655464">
        <ele>713.79</ele>
        <time>2021-03-27T18:02:47Z</time>
      </trkpt>
      <trkpt lat="43.051483" lon="-3.655215">
        <ele>713.03</ele>
        <time>2021-03-27T18:02:52Z</time>
      </trkpt>
      <trkpt lat="43.051522" lon="-3.654986">
        <ele>711.26</ele>
        <time>2021-03-27T18:02:56Z</time>
      </trkpt>
      <trkpt lat="43.051598" lon="-3.654782">
        <ele>710.02</ele>
        <time>2021-03-27T18:03:01Z</time>
      </trkpt>
      <trkpt lat="43.051686" lon="-3.654638">
        <ele>709.16</ele>
        <time>2021-03-27T18:03:06Z</time>
      </trkpt>
      <trkpt lat="43.052123" lon="-3.654159">
        <ele>704.98</ele>
        <time>2021-03-27T18:03:11Z</time>
      </trkpt>
      <trkpt lat="43.052184" lon="-3.654047">
        <ele>704.88</ele>
        <time>2021-03-27T18:03:16Z</time>
      </trkpt>
      <trkpt lat="43.052258" lon="-3.653856">
        <ele>704.9</ele>
        <time>2021-03-27T18:03:20Z</time>
      </trkpt>
      <trkpt lat="43.052295" lon="-3.65366">
        <ele>704.39</ele>
        <time>2021-03-27T18:03:25Z</time>
      </trkpt>
      <trkpt lat="43.052307" lon="-3.653456">
        <ele>704.69</ele>
        <time>2021-03-27T18:03:30Z</time>
      </trkpt>
      <trkpt lat="43.052299" lon="-3.652793">
        <ele>706.22</ele>
        <time>2021-03-27T18:03:35Z</time>
      </trkpt>
      <trkpt lat="43.052338" lon="-3.652393">
        <ele>708.22</ele>
        <time>2021-03-27T18:03:40Z</time>
      </trkpt>
      <trkpt lat="43.052944" lon="-3.649865">
        <ele>701.0</ele>
        <time>2021-03-27T18:03:45Z</time>
      </trkpt>
      <trkpt lat="43.053174" lon="-3.648963">
        <ele>700.66</ele>
        <time>2021-03-27T18:03:49Z</time>
      </trkpt>
      <trkpt lat="43.053368" lon="-3.648598">
        <ele>701.12</ele>
        <time>2021-03-27T18:03:54Z</time>
      </trkpt>
      <trkpt lat="43.053636" lon="-3.648272">
        <ele>701.38</ele>
        <time>2021-03-27T18:03:59Z</time>
      </trkpt>
      <trkpt lat="43.053906" lon="-3.64774">
        <ele>703.0</ele>
        <time>2021-03-27T18:04:04Z</time>
      </trkpt>
      <trkpt lat="43.054219" lon="-3.64706">
        <ele>703.19</ele>
        <time>2021-03-27T18:04:09Z</time>
      </trkpt>
      <trkpt lat="43.054378" lon="-3.646649">
        <ele>701.89</ele>
        <time>2021-03-27T18:04:13Z</time>
      </trkpt>
      <trkpt lat="43.054533" lon="-3.646084">
        <ele>700.68</ele>
        <time>2021-03-27T18:04:18Z</time>
      </trkpt>
      <trkpt lat="43.054593" lon="-3.645795">
        <ele>701.0</ele>
        <time>2021-03-27T18:04:23Z</time>
      </trkpt>
      <trkpt lat="43.054873" lon="-3.643998">
        <ele>702.96</ele>
        <time>2021-03-27T18:04:28Z</time>
      </trkpt>
      <trkpt lat="43.055158" lon="-3.642023">
        <ele>702.95</ele>
        <time>2021-03-27T18:04:33Z</time>
      </trkpt>
      <trkpt lat="43.055602" lon="-3.639139">
        <ele>696.73</ele>
        <time>2021-03-27T18:04:37Z</time>
      </trkpt>
      <trkpt lat="43.055874" lon="-3.637754">
        <ele>694.21</ele>
        <time>2021-03-27T18:04:42Z</time>
      </trkpt>
      <trkpt lat="43.056223" lon="-3.636223">
        <ele>697.53</ele>
        <time>2021-03-27T18:04:47Z</time>
      </trkpt>
      <trkpt lat="43.056701" lon="-3.634309">
        <ele>702.4</ele>
        <time>2021-03-27T18:04:52Z</time>
      </trkpt>
      <trkpt lat="43.057231" lon="-3.632255">
        <ele>700.08</ele>
        <time>2021-03-27T18:04:57Z</time>
      </trkpt>
      <trkpt lat="43.057703" lon="-3.630704">
        <ele>701.46</ele>
        <time>2021-03-27T18:05:02Z</time>
      </trkpt>
      <trkpt lat="43.057817" lon="-3.630299">
        <ele>703.93</ele>
        <time>2021-03-27T18:05:06Z</time>
      </trkpt>
      <trkpt lat="43.05785" lon="-3.63009">
        <ele>705.33</ele>
        <time>2021-03-27T18:05:11Z</time>
      </trkpt>
      <trkpt lat="43.057838" lon="-3.629612">
        <ele>705.3</ele>
        <time>2021-03-27T18:05:16Z</time>
      </trkpt>
      <trkpt lat="43.057801" lon="-3.6294">
        <ele>705.56</ele>
        <time>2021-03-27T18:05:21Z</time>
      </trkpt>
      <trkpt lat="43.057651" lon="-3.629017">
        <ele>707.79</ele>
        <time>2021-03-27T18:05:26Z</time>
      </trkpt>
      <trkpt lat="43.057549" lon="-3.628852">
        <ele>709.15</ele>
        <time>2021-03-27T18:05:30Z</time>
      </trkpt>
      <trkpt lat="43.057347" lon="-3.628641">
        <ele>710.38</ele>
        <time>2021-03-27T18:05:35Z</time>
      </trkpt>
      <trkpt lat="43.057149" lon="-3.628511">
        <ele>710.09</ele>
        <time>2021-03-27T18:05:40Z</time>
      </trkpt>
      <trkpt lat="43.056498" lon="-3.62821">
        <ele>712.55</ele>
        <time>2021-03-27T18:05:45Z</time>
      </trkpt>
      <trkpt lat="43.056263" lon="-3.628039">
        <ele>713.52</ele>
        <time>2021-03-27T18:05:50Z</time>
      </trkpt>
      <trkpt lat="43.056097" lon="-3.627843">
        <ele>712.18</ele>
        <time>2021-03-27T18:05:54Z</time>
      </trkpt>
      <trkpt lat="43.055985" lon="-3.627675">
        <ele>711.38</ele>
        <time>2021-03-27T18:05:59Z</time>
      </trkpt>
      <trkpt lat="43.055598" lon="-3.626922">
        <ele>708.13</ele>
        <time>2021-03-27T18:06:04Z</time>
      </trkpt>
      <trkpt lat="43.055424" lon="-3.626547">
        <ele>707.77</ele>
        <time>2021-03-27T18:06:09Z</time>
      </trkpt>
      <trkpt lat="43.055235" lon="-3.626045">
        <ele>703.75</ele>
        <time>2021-03-27T18:06:14Z</time>
      </trkpt>
      <trkpt lat="43.054008" lon="-3.62204">
        <ele>690.72</ele>
        <time>2021-03-27T18:06:18Z</time>
      </trkpt>
      <trkpt lat="43.053922" lon="-3.621633">
        <ele>689.88</ele>
        <time>2021-03-27T18:06:23Z</time>
      </trkpt>
      <trkpt lat="43.053862" lon="-3.621163">
        <ele>688.09</ele>
        <time>2021-03-27T18:06:28Z</time>
      </trkpt>
      <trkpt lat="43.053791" lon="-3.618974">
        <ele>684.34</ele>
        <time>2021-03-27T18:06:33Z</time>
      </trkpt>
      <trkpt lat="43.053797" lon="-3.618605">
        <ele>686.02</ele>
        <time>2021-03-27T18:06:38Z</time>
      </trkpt>
      <trkpt lat="43.053834" lon="-3.618107">
        <ele>685.95</ele>
        <time>2021-03-27T18:06:43Z</time>
      </trkpt>
      <trkpt lat="43.05388" lon="-3.61785">
        <ele>685.23</ele>
        <time>2021-03-27T18:06:47Z</time>
      </trkpt>
      <trkpt lat="43.053936" lon="-3.617605">
        <ele>685.34</ele>
        <time>2021-03-27T18:06:52Z</time>
      </trkpt>
      <trkpt lat="43.057313" lon="-3.607613">
        <ele>717.0</ele>
        <time>2021-03-27T18:06:57Z</time>
      </trkpt>
      <trkpt lat="43.059602" lon="-3.598291">
        <ele>700.72</ele>
        <time>2021-03-27T18:07:02Z</time>
      </trkpt>
      <trkpt lat="43.066751" lon="-3.568942">
        <ele>732.43</ele>
        <time>2021-03-27T18:07:07Z</time>
      </trkpt>
      <trkpt lat="43.066844" lon="-3.568616">
        <ele>733.91</ele>
        <time>2021-03-27T18:07:11Z</time>
      </trkpt>
      <trkpt lat="43.067004" lon="-3.568158">
        <ele>734.51</ele>
        <time>2021-03-27T18:07:16Z</time>
      </trkpt>
      <trkpt lat="43.067277" lon="-3.567638">
        <ele>737.6</ele>
        <time>2021-03-27T18:07:21Z</time>
      </trkpt>
      <trkpt lat="43.067428" lon="-3.567388">
        <ele>739.34</ele>
        <time>2021-03-27T18:07:26Z</time>
      </trkpt>
      <trkpt lat="43.068686" lon="-3.565902">
        <ele>742.61</ele>
        <time>2021-03-27T18:07:31Z</time>
      </trkpt>
      <trkpt lat="43.06897" lon="-3.565649">
        <ele>746.15</ele>
        <time>2021-03-27T18:07:35Z</time>
      </trkpt>
      <trkpt lat="43.069665" lon="-3.565284">
        <ele>749.95</ele>
        <time>2021-03-27T18:07:40Z</time>
      </trkpt>
      <trkpt lat="43.069761" lon="-3.565194">
        <ele>750.6</ele>
        <time>2021-03-27T18:07:45Z</time>
      </trkpt>
      <trkpt lat="43.06987" lon="-3.56505">
        <ele>751.64</ele>
        <time>2021-03-27T18:07:50Z</time>
      </trkpt>
      <trkpt lat="43.070424" lon="-3.563921">
        <ele>754.63</ele>
        <time>2021-03-27T18:07:55Z</time>
      </trkpt>
      <trkpt lat="43.070529" lon="-3.563497">
        <ele>755.99</ele>
        <time>2021-03-27T18:08:00Z</time>
      </trkpt>
      <trkpt lat="43.070632" lon="-3.562735">
        <ele>760.88</ele>
        <time>2021-03-27T18:08:04Z</time>
      </trkpt>
      <trkpt lat="43.0707" lon="-3.562507">
        <ele>762.14</ele>
        <time>2021-03-27T18:08:09Z</time>
      </trkpt>
      <trkpt lat="43.070808" lon="-3.562314">
        <ele>763.23</ele>
        <time>2021-03-27T18:08:14Z</time>
      </trkpt>
      <trkpt lat="43.070931" lon="-3.562146">
        <ele>763.4</ele>
        <time>2021-03-27T18:08:19Z</time>
      </trkpt>
      <trkpt lat="43.071079" lon="-3.562005">
        <ele>763.4</ele>
        <time>2021-03-27T18:08:24Z</time>
      </trkpt>
      <trkpt lat="43.071512" lon="-3.561771">
        <ele>759.06</ele>
        <time>2021-03-27T18:08:28Z</time>
      </trkpt>
      <trkpt lat="43.071662" lon="-3.561609">
        <ele>756.8</ele>
        <time>2021-03-27T18:08:33Z</time>
      </trkpt>
      <trkpt lat="43.071756" lon="-3.5614">
        <ele>756.99</ele>
        <time>2021-03-27T18:08:38Z</time>
      </trkpt>
      <trkpt lat="43.07194" lon="-3.560732">
        <ele>758.96</ele>
        <time>2021-03-27T18:08:43Z</time>
      </trkpt>
      <trkpt lat="43.072082" lon="-3.560401">
        <ele>760.7</ele>
        <time>2021-03-27T18:08:48Z</time>
      </trkpt>
      <trkpt lat="43.072232" lon="-3.560126">
        <ele>761.51</ele>
        <time>2021-03-27T18:08:52Z</time>
      </trkpt>
      <trkpt lat="43.0737" lon="-3.557986">
        <ele>760.83</ele>
        <time>2021-03-27T18:08:57Z</time>
      </trkpt>
      <trkpt lat="43.073889" lon="-3.557742">
        <ele>760.87</ele>
        <time>2021-03-27T18:09:02Z</time>
      </trkpt>
      <trkpt lat="43.074099" lon="-3.557586">
        <ele>760.08</ele>
        <time>2021-03-27T18:09:07Z</time>
      </trkpt>
      <trkpt lat="43.074599" lon="-3.557189">
        <ele>752.37</ele>
        <time>2021-03-27T18:09:12Z</time>
      </trkpt>
      <trkpt lat="43.074892" lon="-3.556908">
        <ele>748.4</ele>
        <time>2021-03-27T18:09:16Z</time>
      </trkpt>
      <trkpt lat="43.075408" lon="-3.556427">
        <ele>745.41</ele>
        <time>2021-03-27T18:09:21Z</time>
      </trkpt>
      <trkpt lat="43.075509" lon="-3.55634">
        <ele>744.62</ele>
        <time>2021-03-27T18:09:26Z</time>
      </trkpt>
      <trkpt lat="43.078966" lon="-3.553553">
        <ele>751.29</ele>
        <time>2021-03-27T18:09:31Z</time>
      </trkpt>
      <trkpt lat="43.079175" lon="-3.55386">
        <ele>752.41</ele>
        <time>2021-03-27T18:09:35Z</time>
      </trkpt>
      <trkpt lat="43.079423" lon="-3.554437">
        <ele>753.66</ele>
        <time>2021-03-27T18:09:38Z</time>
      </trkpt>
      <trkpt lat="43.079664" lon="-3.554886">
        <ele>751.26</ele>
        <time>2021-03-27T18:09:42Z</time>
      </trkpt>
      <trkpt lat="43.081042" lon="-3.556263">
        <ele>747.0</ele>
        <time>2021-03-27T18:09:45Z</time>
      </trkpt>
      <trkpt lat="43.081301" lon="-3.556426">
        <ele>747.82</ele>
        <time>2021-03-27T18:09:49Z</time>
      </trkpt>
      <trkpt lat="43.084105" lon="-3.557434">
        <ele>748.66</ele>
        <time>2021-03-27T18:09:53Z</time>
      </trkpt>
      <trkpt lat="43.084301" lon="-3.557451">
        <ele>749.41</ele>
        <time>2021-03-27T18:09:56Z</time>
      </trkpt>
      <trkpt lat="43.084483" lon="-3.557414">
        <ele>751.28</ele>
        <time>2021-03-27T18:10:00Z</time>
      </trkpt>
      <trkpt lat="43.085183" lon="-3.557177">
        <ele>758.55</ele>
        <time>2021-03-27T18:10:04Z</time>
      </trkpt>
      <trkpt lat="43.085354" lon="-3.557157">
        <ele>758.34</ele>
        <time>2021-03-27T18:10:07Z</time>
      </trkpt>
      <trkpt lat="43.085864" lon="-3.55715">
        <ele>755.11</ele>
        <time>2021-03-27T18:10:11Z</time>
      </trkpt>
      <trkpt lat="43.086188" lon="-3.557028">
        <ele>759.38</ele>
        <time>2021-03-27T18:10:14Z</time>
      </trkpt>
      <trkpt lat="43.087188" lon="-3.55653">
        <ele>758.22</ele>
        <time>2021-03-27T18:10:18Z</time>
      </trkpt>
      <trkpt lat="43.087367" lon="-3.556463">
        <ele>760.39</ele>
        <time>2021-03-27T18:10:22Z</time>
      </trkpt>
      <trkpt lat="43.087567" lon="-3.556443">
        <ele>762.62</ele>
        <time>2021-03-27T18:10:25Z</time>
      </trkpt>
      <trkpt lat="43.087724" lon="-3.556473">
        <ele>764.19</ele>
        <time>2021-03-27T18:10:29Z</time>
      </trkpt>
      <trkpt lat="43.08796" lon="-3.556612">
        <ele>764.09</ele>
        <time>2021-03-27T18:10:32Z</time>
      </trkpt>
      <trkpt lat="43.08855" lon="-3.557063">
        <ele>764.04</ele>
        <time>2021-03-27T18:10:36Z</time>
      </trkpt>
      <trkpt lat="43.088794" lon="-3.557197">
        <ele>762.37</ele>
        <time>2021-03-27T18:10:40Z</time>
      </trkpt>
      <trkpt lat="43.089201" lon="-3.557357">
        <ele>765.88</ele>
        <time>2021-03-27T18:10:43Z</time>
      </trkpt>
      <trkpt lat="43.089333" lon="-3.557451">
        <ele>767.03</ele>
        <time>2021-03-27T18:10:47Z</time>
      </trkpt>
      <trkpt lat="43.089479" lon="-3.557587">
        <ele>767.56</ele>
        <time>2021-03-27T18:10:51Z</time>
      </trkpt>
      <trkpt lat="43.090292" lon="-3.558546">
        <ele>764.82</ele>
        <time>2021-03-27T18:10:54Z</time>
      </trkpt>
      <trkpt lat="43.094451" lon="-3.562955">
        <ele>771.16</ele>
        <time>2021-03-27T18:10:58Z</time>
      </trkpt>
      <trkpt lat="43.094651" lon="-3.563132">
        <ele>772.84</ele>
        <time>2021-03-27T18:11:01Z</time>
      </trkpt>
      <trkpt lat="43.09639" lon="-3.564084">
        <ele>784.0</ele>
        <time>2021-03-27T18:11:05Z</time>
      </trkpt>
      <trkpt lat="43.096597" lon="-3.564171">
        <ele>784.72</ele>
        <time>2021-03-27T18:11:09Z</time>
      </trkpt>
      <trkpt lat="43.09699" lon="-3.564265">
        <ele>785.35</ele>
        <time>2021-03-27T18:11:12Z</time>
      </trkpt>
      <trkpt lat="43.097085" lon="-3.564332">
        <ele>785.11</ele>
        <time>2021-03-27T18:11:16Z</time>
      </trkpt>
      <trkpt lat="43.097184" lon="-3.564448">
        <ele>784.84</ele>
        <time>2021-03-27T18:11:19Z</time>
      </trkpt>
      <trkpt lat="43.097365" lon="-3.564771">
        <ele>783.68</ele>
        <time>2021-03-27T18:11:23Z</time>
      </trkpt>
      <trkpt lat="43.097661" lon="-3.565589">
        <ele>782.09</ele>
        <time>2021-03-27T18:11:27Z</time>
      </trkpt>
      <trkpt lat="43.097865" lon="-3.566082">
        <ele>782.32</ele>
        <time>2021-03-27T18:11:30Z</time>
      </trkpt>
      <trkpt lat="43.099081" lon="-3.567837">
        <ele>777.7</ele>
        <time>2021-03-27T18:11:34Z</time>
      </trkpt>
      <trkpt lat="43.099499" lon="-3.568373">
        <ele>776.05</ele>
        <time>2021-03-27T18:11:38Z</time>
      </trkpt>
      <trkpt lat="43.099844" lon="-3.568741">
        <ele>781.1</ele>
        <time>2021-03-27T18:11:41Z</time>
      </trkpt>
      <trkpt lat="43.101109" lon="-3.569897">
        <ele>786.09</ele>
        <time>2021-03-27T18:11:45Z</time>
      </trkpt>
      <trkpt lat="43.101241" lon="-3.570037">
        <ele>785.34</ele>
        <time>2021-03-27T18:11:48Z</time>
      </trkpt>
      <trkpt lat="43.101602" lon="-3.570508">
        <ele>783.61</ele>
        <time>2021-03-27T18:11:52Z</time>
      </trkpt>
      <trkpt lat="43.101773" lon="-3.570665">
        <ele>784.02</ele>
        <time>2021-03-27T18:11:56Z</time>
      </trkpt>
      <trkpt lat="43.102153" lon="-3.570909">
        <ele>786.56</ele>
        <time>2021-03-27T18:11:59Z</time>
      </trkpt>
      <trkpt lat="43.102651" lon="-3.571353">
        <ele>788.14</ele>
        <time>2021-03-27T18:12:03Z</time>
      </trkpt>
      <trkpt lat="43.102877" lon="-3.571527">
        <ele>788.36</ele>
        <time>2021-03-27T18:12:06Z</time>
      </trkpt>
      <trkpt lat="43.103285" lon="-3.571694">
        <ele>787.53</ele>
        <time>2021-03-27T18:12:10Z</time>
      </trkpt>
      <trkpt lat="43.103534" lon="-3.571711">
        <ele>787.27</ele>
        <time>2021-03-27T18:12:14Z</time>
      </trkpt>
      <trkpt lat="43.103758" lon="-3.571761">
        <ele>785.97</ele>
        <time>2021-03-27T18:12:17Z</time>
      </trkpt>
      <trkpt lat="43.103958" lon="-3.571864">
        <ele>783.3</ele>
        <time>2021-03-27T18:12:21Z</time>
      </trkpt>
      <trkpt lat="43.104192" lon="-3.572058">
        <ele>780.46</ele>
        <time>2021-03-27T18:12:25Z</time>
      </trkpt>
      <trkpt lat="43.114858" lon="-3.581745">
        <ele>794.28</ele>
        <time>2021-03-27T18:12:28Z</time>
      </trkpt>
      <trkpt lat="43.115027" lon="-3.581878">
        <ele>794.98</ele>
        <time>2021-03-27T18:12:32Z</time>
      </trkpt>
      <trkpt lat="43.115185" lon="-3.581972">
        <ele>796.37</ele>
        <time>2021-03-27T18:12:35Z</time>
      </trkpt>
      <trkpt lat="43.115353" lon="-3.582041">
        <ele>797.54</ele>
        <time>2021-03-27T18:12:39Z</time>
      </trkpt>
      <trkpt lat="43.11634" lon="-3.582319">
        <ele>802.26</ele>
        <time>2021-03-27T18:12:43Z</time>
      </trkpt>
      <trkpt lat="43.116432" lon="-3.582373">
        <ele>801.83</ele>
        <time>2021-03-27T18:12:46Z</time>
      </trkpt>
      <trkpt lat="43.116563" lon="-3.582536">
        <ele>799.69</ele>
        <time>2021-03-27T18:12:50Z</time>
      </trkpt>
      <trkpt lat="43.116755" lon="-3.582859">
        <ele>798.66</ele>
        <time>2021-03-27T18:12:54Z</time>
      </trkpt>
      <trkpt lat="43.116904" lon="-3.583052">
        <ele>799.57</ele>
        <time>2021-03-27T18:12:57Z</time>
      </trkpt>
      <trkpt lat="43.117537" lon="-3.583768">
        <ele>803.89</ele>
        <time>2021-03-27T18:13:01Z</time>
      </trkpt>
      <trkpt lat="43.11773" lon="-3.584084">
        <ele>806.24</ele>
        <time>2021-03-27T18:13:04Z</time>
      </trkpt>
      <trkpt lat="43.118014" lon="-3.584693">
        <ele>808.52</ele>
        <time>2021-03-27T18:13:08Z</time>
      </trkpt>
      <trkpt lat="43.118039" lon="-3.584844">
        <ele>806.89</ele>
        <time>2021-03-27T18:13:12Z</time>
      </trkpt>
      <trkpt lat="43.118013" lon="-3.584934">
        <ele>805.02</ele>
        <time>2021-03-27T18:13:15Z</time>
      </trkpt>
      <trkpt lat="43.117697" lon="-3.585297">
        <ele>797.77</ele>
        <time>2021-03-27T18:13:19Z</time>
      </trkpt>
      <trkpt lat="43.117625" lon="-3.585449">
        <ele>798.47</ele>
        <time>2021-03-27T18:13:22Z</time>
      </trkpt>
      <trkpt lat="43.117611" lon="-3.585638">
        <ele>799.61</ele>
        <time>2021-03-27T18:13:26Z</time>
      </trkpt>
      <trkpt lat="43.117709" lon="-3.586805">
        <ele>802.5</ele>
        <time>2021-03-27T18:13:30Z</time>
      </trkpt>
      <trkpt lat="43.11774" lon="-3.587367">
        <ele>802.93</ele>
        <time>2021-03-27T18:13:33Z</time>
      </trkpt>
      <trkpt lat="43.117724" lon="-3.58755">
        <ele>803.18</ele>
        <time>2021-03-27T18:13:37Z</time>
      </trkpt>
      <trkpt lat="43.117506" lon="-3.588812">
        <ele>805.0</ele>
        <time>2021-03-27T18:13:41Z</time>
      </trkpt>
      <trkpt lat="43.117492" lon="-3.58897">
        <ele>805.3</ele>
        <time>2021-03-27T18:13:44Z</time>
      </trkpt>
      <trkpt lat="43.117522" lon="-3.589233">
        <ele>806.46</ele>
        <time>2021-03-27T18:13:48Z</time>
      </trkpt>
      <trkpt lat="43.117789" lon="-3.590124">
        <ele>809.98</ele>
        <time>2021-03-27T18:13:51Z</time>
      </trkpt>
      <trkpt lat="43.117822" lon="-3.590311">
        <ele>810.1</ele>
        <time>2021-03-27T18:13:55Z</time>
      </trkpt>
      <trkpt lat="43.117832" lon="-3.590429">
        <ele>810.44</ele>
        <time>2021-03-27T18:13:59Z</time>
      </trkpt>
      <trkpt lat="43.117803" lon="-3.59121">
        <ele>814.84</ele>
        <time>2021-03-27T18:14:02Z</time>
      </trkpt>
      <trkpt lat="43.117802" lon="-3.591517">
        <ele>816.63</ele>
        <time>2021-03-27T18:14:06Z</time>
      </trkpt>
      <trkpt lat="43.11782" lon="-3.591873">
        <ele>817.08</ele>
        <time>2021-03-27T18:14:09Z</time>
      </trkpt>
      <trkpt lat="43.117918" lon="-3.592753">
        <ele>814.04</ele>
        <time>2021-03-27T18:14:13Z</time>
      </trkpt>
      <trkpt lat="43.118145" lon="-3.594329">
        <ele>813.94</ele>
        <time>2021-03-27T18:14:17Z</time>
      </trkpt>
      <trkpt lat="43.118167" lon="-3.594704">
        <ele>816.07</ele>
        <time>2021-03-27T18:14:20Z</time>
      </trkpt>
      <trkpt lat="43.117999" lon="-3.596528">
        <ele>826.69</ele>
        <time>2021-03-27T18:14:24Z</time>
      </trkpt>
      <trkpt lat="43.117972" lon="-3.597074">
        <ele>825.26</ele>
        <time>2021-03-27T18:14:28Z</time>
      </trkpt>
      <trkpt lat="43.117988" lon="-3.597347">
        <ele>825.72</ele>
        <time>2021-03-27T18:14:31Z</time>
      </trkpt>
      <trkpt lat="43.118037" lon="-3.597602">
        <ele>827.17</ele>
        <time>2021-03-27T18:14:35Z</time>
      </trkpt>
      <trkpt lat="43.118129" lon="-3.598327">
        <ele>829.79</ele>
        <time>2021-03-27T18:14:38Z</time>
      </trkpt>
      <trkpt lat="43.11818" lon="-3.598468">
        <ele>830.99</ele>
        <time>2021-03-27T18:14:42Z</time>
      </trkpt>
      <trkpt lat="43.118239" lon="-3.598574">
        <ele>832.71</ele>
        <time>2021-03-27T18:14:46Z</time>
      </trkpt>
      <trkpt lat="43.118313" lon="-3.598634">
        <ele>834.75</ele>
        <time>2021-03-27T18:14:49Z</time>
      </trkpt>
      <trkpt lat="43.118462" lon="-3.598674">
        <ele>835.81</ele>
        <time>2021-03-27T18:14:53Z</time>
      </trkpt>
      <trkpt lat="43.119868" lon="-3.598879">
        <ele>842.41</ele>
        <time>2021-03-27T18:14:56Z</time>
      </trkpt>
      <trkpt lat="43.120078" lon="-3.598953">
        <ele>841.73</ele>
        <time>2021-03-27T18:15:00Z</time>
      </trkpt>
      <trkpt lat="43.120232" lon="-3.599078">
        <ele>839.22</ele>
        <time>2021-03-27T18:15:04Z</time>
      </trkpt>
      <trkpt lat="43.120358" lon="-3.59935">
        <ele>838.57</ele>
        <time>2021-03-27T18:15:07Z</time>
      </trkpt>
      <trkpt lat="43.12079" lon="-3.600709">
        <ele>844.61</ele>
        <time>2021-03-27T18:15:11Z</time>
      </trkpt>
      <trkpt lat="43.121248" lon="-3.601469">
        <ele>843.71</ele>
        <time>2021-03-27T18:15:15Z</time>
      </trkpt>
      <trkpt lat="43.121309" lon="-3.601651">
        <ele>843.97</ele>
        <time>2021-03-27T18:15:18Z</time>
      </trkpt>
      <trkpt lat="43.121369" lon="-3.601955">
        <ele>844.99</ele>
        <time>2021-03-27T18:15:22Z</time>
      </trkpt>
      <trkpt lat="43.121565" lon="-3.602572">
        <ele>842.82</ele>
        <time>2021-03-27T18:15:25Z</time>
      </trkpt>
      <trkpt lat="43.121652" lon="-3.602943">
        <ele>840.01</ele>
        <time>2021-03-27T18:15:29Z</time>
      </trkpt>
      <trkpt lat="43.121737" lon="-3.603438">
        <ele>845.72</ele>
        <time>2021-03-27T18:15:33Z</time>
      </trkpt>
      <trkpt lat="43.121804" lon="-3.604185">
        <ele>847.61</ele>
        <time>2021-03-27T18:15:36Z</time>
      </trkpt>
      <trkpt lat="43.121868" lon="-3.604628">
        <ele>847.59</ele>
        <time>2021-03-27T18:15:40Z</time>
      </trkpt>
      <trkpt lat="43.122039" lon="-3.605203">
        <ele>848.38</ele>
        <time>2021-03-27T18:15:44Z</time>
      </trkpt>
      <trkpt lat="43.122176" lon="-3.605472">
        <ele>847.32</ele>
        <time>2021-03-27T18:15:47Z</time>
      </trkpt>
      <trkpt lat="43.122349" lon="-3.605677">
        <ele>848.55</ele>
        <time>2021-03-27T18:15:51Z</time>
      </trkpt>
      <trkpt lat="43.122881" lon="-3.606167">
        <ele>854.73</ele>
        <time>2021-03-27T18:15:54Z</time>
      </trkpt>
      <trkpt lat="43.123199" lon="-3.606418">
        <ele>855.88</ele>
        <time>2021-03-27T18:15:58Z</time>
      </trkpt>
      <trkpt lat="43.123613" lon="-3.606664">
        <ele>856.95</ele>
        <time>2021-03-27T18:16:02Z</time>
      </trkpt>
      <trkpt lat="43.123973" lon="-3.606842">
        <ele>856.53</ele>
        <time>2021-03-27T18:16:05Z</time>
      </trkpt>
      <trkpt lat="43.124073" lon="-3.606959">
        <ele>856.48</ele>
        <time>2021-03-27T18:16:09Z</time>
      </trkpt>
      <trkpt lat="43.124158" lon="-3.607099">
        <ele>856.27</ele>
        <time>2021-03-27T18:16:12Z</time>
      </trkpt>
      <trkpt lat="43.124719" lon="-3.608608">
        <ele>856.99</ele>
        <time>2021-03-27T18:16:16Z</time>
      </trkpt>
      <trkpt lat="43.124796" lon="-3.608847">
        <ele>861.02</ele>
        <time>2021-03-27T18:16:20Z</time>
      </trkpt>
      <trkpt lat="43.12484" lon="-3.609038">
        <ele>863.81</ele>
        <time>2021-03-27T18:16:23Z</time>
      </trkpt>
      <trkpt lat="43.124968" lon="-3.609828">
        <ele>866.18</ele>
        <time>2021-03-27T18:16:27Z</time>
      </trkpt>
      <trkpt lat="43.125111" lon="-3.61026">
        <ele>867.11</ele>
        <time>2021-03-27T18:16:29Z</time>
      </trkpt>
      <trkpt lat="43.125189" lon="-3.61044">
        <ele>868.21</ele>
        <time>2021-03-27T18:16:31Z</time>
      </trkpt>
      <trkpt lat="43.126064" lon="-3.611906">
        <ele>862.17</ele>
        <time>2021-03-27T18:16:33Z</time>
      </trkpt>
      <trkpt lat="43.126183" lon="-3.61201">
        <ele>861.05</ele>
        <time>2021-03-27T18:16:35Z</time>
      </trkpt>
      <trkpt lat="43.126368" lon="-3.612053">
        <ele>859.19</ele>
        <time>2021-03-27T18:16:38Z</time>
      </trkpt>
      <trkpt lat="43.126477" lon="-3.612015">
        <ele>857.72</ele>
        <time>2021-03-27T18:16:40Z</time>
      </trkpt>
      <trkpt lat="43.126568" lon="-3.611935">
        <ele>856.36</ele>
        <time>2021-03-27T18:16:42Z</time>
      </trkpt>
      <trkpt lat="43.12686" lon="-3.611592">
        <ele>853.94</ele>
        <time>2021-03-27T18:16:44Z</time>
      </trkpt>
      <trkpt lat="43.127543" lon="-3.610709">
        <ele>857.64</ele>
        <time>2021-03-27T18:16:46Z</time>
      </trkpt>
      <trkpt lat="43.128726" lon="-3.60931">
        <ele>860.85</ele>
        <time>2021-03-27T18:16:48Z</time>
      </trkpt>
      <trkpt lat="43.128862" lon="-3.609203">
        <ele>862.81</ele>
        <time>2021-03-27T18:16:50Z</time>
      </trkpt>
      <trkpt lat="43.129009" lon="-3.609138">
        <ele>865.26</ele>
        <time>2021-03-27T18:16:53Z</time>
      </trkpt>
      <trkpt lat="43.129307" lon="-3.609141">
        <ele>869.1</ele>
        <time>2021-03-27T18:16:55Z</time>
      </trkpt>
      <trkpt lat="43.129423" lon="-3.609187">
        <ele>869.85</ele>
        <time>2021-03-27T18:16:57Z</time>
      </trkpt>
      <trkpt lat="43.129623" lon="-3.609358">
        <ele>871.73</ele>
        <time>2021-03-27T18:16:59Z</time>
      </trkpt>
      <trkpt lat="43.129689" lon="-3.609469">
        <ele>872.72</ele>
        <time>2021-03-27T18:17:01Z</time>
      </trkpt>
      <trkpt lat="43.129967" lon="-3.610233">
        <ele>878.04</ele>
        <time>2021-03-27T18:17:03Z</time>
      </trkpt>
      <trkpt lat="43.130034" lon="-3.610472">
        <ele>879.48</ele>
        <time>2021-03-27T18:17:05Z</time>
      </trkpt>
      <trkpt lat="43.130061" lon="-3.610706">
        <ele>879.12</ele>
        <time>2021-03-27T18:17:07Z</time>
      </trkpt>
      <trkpt lat="43.129991" lon="-3.611918">
        <ele>882.62</ele>
        <time>2021-03-27T18:17:10Z</time>
      </trkpt>
      <trkpt lat="43.130002" lon="-3.612098">
        <ele>883.58</ele>
        <time>2021-03-27T18:17:12Z</time>
      </trkpt>
      <trkpt lat="43.130032" lon="-3.612259">
        <ele>884.72</ele>
        <time>2021-03-27T18:17:14Z</time>
      </trkpt>
      <trkpt lat="43.130144" lon="-3.612546">
        <ele>887.47</ele>
        <time>2021-03-27T18:17:16Z</time>
      </trkpt>
      <trkpt lat="43.130652" lon="-3.613454">
        <ele>895.03</ele>
        <time>2021-03-27T18:17:18Z</time>
      </trkpt>
      <trkpt lat="43.130779" lon="-3.613747">
        <ele>895.85</ele>
        <time>2021-03-27T18:17:20Z</time>
      </trkpt>
      <trkpt lat="43.131019" lon="-3.614962">
        <ele>905.72</ele>
        <time>2021-03-27T18:17:22Z</time>
      </trkpt>
      <trkpt lat="43.131092" lon="-3.615247">
        <ele>907.56</ele>
        <time>2021-03-27T18:17:24Z</time>
      </trkpt>
      <trkpt lat="43.13155" lon="-3.616553">
        <ele>915.71</ele>
        <time>2021-03-27T18:17:27Z</time>
      </trkpt>
      <trkpt lat="43.131686" lon="-3.617194">
        <ele>912.24</ele>
        <time>2021-03-27T18:17:29Z</time>
      </trkpt>
      <trkpt lat="43.13221" lon="-3.618513">
        <ele>922.8</ele>
        <time>2021-03-27T18:17:31Z</time>
      </trkpt>
      <trkpt lat="43.132427" lon="-3.619235">
        <ele>927.4</ele>
        <time>2021-03-27T18:17:33Z</time>
      </trkpt>
      <trkpt lat="43.132607" lon="-3.619897">
        <ele>931.06</ele>
        <time>2021-03-27T18:17:35Z</time>
      </trkpt>
      <trkpt lat="43.132675" lon="-3.620075">
        <ele>931.98</ele>
        <time>2021-03-27T18:17:37Z</time>
      </trkpt>
      <trkpt lat="43.132811" lon="-3.620263">
        <ele>933.59</ele>
        <time>2021-03-27T18:17:39Z</time>
      </trkpt>
      <trkpt lat="43.133848" lon="-3.621343">
        <ele>942.59</ele>
        <time>2021-03-27T18:17:42Z</time>
      </trkpt>
      <trkpt lat="43.133976" lon="-3.62144">
        <ele>942.57</ele>
        <time>2021-03-27T18:17:44Z</time>
      </trkpt>
      <trkpt lat="43.13417" lon="-3.621549">
        <ele>942.91</ele>
        <time>2021-03-27T18:17:46Z</time>
      </trkpt>
      <trkpt lat="43.13712" lon="-3.62252">
        <ele>968.64</ele>
        <time>2021-03-27T18:17:48Z</time>
      </trkpt>
      <trkpt lat="43.13726" lon="-3.622543">
        <ele>969.63</ele>
        <time>2021-03-27T18:17:50Z</time>
      </trkpt>
      <trkpt lat="43.138661" lon="-3.62262">
        <ele>981.75</ele>
        <time>2021-03-27T18:17:52Z</time>
      </trkpt>
      <trkpt lat="43.138791" lon="-3.622588">
        <ele>983.72</ele>
        <time>2021-03-27T18:17:54Z</time>
      </trkpt>
      <trkpt lat="43.13964" lon="-3.622199">
        <ele>987.78</ele>
        <time>2021-03-27T18:17:56Z</time>
      </trkpt>
      <trkpt lat="43.139861" lon="-3.622155">
        <ele>990.43</ele>
        <time>2021-03-27T18:17:59Z</time>
      </trkpt>
      <trkpt lat="43.139971" lon="-3.622165">
        <ele>990.86</ele>
        <time>2021-03-27T18:18:01Z</time>
      </trkpt>
      <trkpt lat="43.140887" lon="-3.622518">
        <ele>998.99</ele>
        <time>2021-03-27T18:18:03Z</time>
      </trkpt>
      <trkpt lat="43.14134" lon="-3.622736">
        <ele>1000.93</ele>
        <time>2021-03-27T18:18:05Z</time>
      </trkpt>
      <trkpt lat="43.142306" lon="-3.623382">
        <ele>1002.83</ele>
        <time>2021-03-27T18:18:07Z</time>
      </trkpt>
      <trkpt lat="43.143039" lon="-3.623713">
        <ele>1004.07</ele>
        <time>2021-03-27T18:18:09Z</time>
      </trkpt>
      <trkpt lat="43.143217" lon="-3.62377">
        <ele>1005.33</ele>
        <time>2021-03-27T18:18:11Z</time>
      </trkpt>
      <trkpt lat="43.145696" lon="-3.624236">
        <ele>1023.26</ele>
        <time>2021-03-27T18:18:13Z</time>
      </trkpt>
      <trkpt lat="43.14618" lon="-3.624212">
        <ele>1023.76</ele>
        <time>2021-03-27T18:18:16Z</time>
      </trkpt>
      <trkpt lat="43.149771" lon="-3.623642">
        <ele>1045.27</ele>
        <time>2021-03-27T18:18:18Z</time>
      </trkpt>
      <trkpt lat="43.149911" lon="-3.623694">
        <ele>1046.73</ele>
        <time>2021-03-27T18:18:20Z</time>
      </trkpt>
      <trkpt lat="43.150006" lon="-3.623769">
        <ele>1047.32</ele>
        <time>2021-03-27T18:18:22Z</time>
      </trkpt>
      <trkpt lat="43.150106" lon="-3.623884">
        <ele>1046.44</ele>
        <time>2021-03-27T18:18:24Z</time>
      </trkpt>
      <trkpt lat="43.150817" lon="-3.624852">
        <ele>1052.7</ele>
        <time>2021-03-27T18:18:26Z</time>
      </trkpt>
      <trkpt lat="43.151075" lon="-3.625151">
        <ele>1055.18</ele>
        <time>2021-03-27T18:18:28Z</time>
      </trkpt>
      <trkpt lat="43.151362" lon="-3.625345">
        <ele>1057.57</ele>
        <time>2021-03-27T18:18:31Z</time>
      </trkpt>
      <trkpt lat="43.152288" lon="-3.62585">
        <ele>1066.18</ele>
        <time>2021-03-27T18:18:33Z</time>
      </trkpt>
      <trkpt lat="43.152962" lon="-3.626172">
        <ele>1071.33</ele>
        <time>2021-03-27T18:18:35Z</time>
      </trkpt>
      <trkpt lat="43.153593" lon="-3.626341">
        <ele>1076.47</ele>
        <time>2021-03-27T18:18:37Z</time>
      </trkpt>
      <trkpt lat="43.153891" lon="-3.626449">
        <ele>1077.35</ele>
        <time>2021-03-27T18:18:39Z</time>
      </trkpt>
      <trkpt lat="43.154117" lon="-3.6265">
        <ele>1076.96</ele>
        <time>2021-03-27T18:18:41Z</time>
      </trkpt>
      <trkpt lat="43.154283" lon="-3.626503">
        <ele>1077.12</ele>
        <time>2021-03-27T18:18:43Z</time>
      </trkpt>
      <trkpt lat="43.154359" lon="-3.626463">
        <ele>1077.84</ele>
        <time>2021-03-27T18:18:45Z</time>
      </trkpt>
      <trkpt lat="43.154435" lon="-3.626394">
        <ele>1078.93</ele>
        <time>2021-03-27T18:18:48Z</time>
      </trkpt>
      <trkpt lat="43.154563" lon="-3.626197">
        <ele>1082.28</ele>
        <time>2021-03-27T18:18:50Z</time>
      </trkpt>
      <trkpt lat="43.15473" lon="-3.625756">
        <ele>1088.03</ele>
        <time>2021-03-27T18:18:52Z</time>
      </trkpt>
      <trkpt lat="43.154939" lon="-3.625274">
        <ele>1091.92</ele>
        <time>2021-03-27T18:18:54Z</time>
      </trkpt>
      <trkpt lat="43.155112" lon="-3.625038">
        <ele>1092.84</ele>
        <time>2021-03-27T18:18:56Z</time>
      </trkpt>
      <trkpt lat="43.155199" lon="-3.62495">
        <ele>1092.61</ele>
        <time>2021-03-27T18:18:58Z</time>
      </trkpt>
      <trkpt lat="43.155969" lon="-3.624334">
        <ele>1093.78</ele>
        <time>2021-03-27T18:19:00Z</time>
      </trkpt>
      <trkpt lat="43.156743" lon="-3.623781">
        <ele>1098.72</ele>
        <time>2021-03-27T18:19:03Z</time>
      </trkpt>
      <trkpt lat="43.157222" lon="-3.623416">
        <ele>1101.7</ele>
        <time>2021-03-27T18:19:05Z</time>
      </trkpt>
      <trkpt lat="43.157347" lon="-3.623382">
        <ele>1101.74</ele>
        <time>2021-03-27T18:19:07Z</time>
      </trkpt>
      <trkpt lat="43.159951" lon="-3.623553">
        <ele>1127.06</ele>
        <time>2021-03-27T18:19:09Z</time>
      </trkpt>
      <trkpt lat="43.160046" lon="-3.623537">
        <ele>1127.43</ele>
        <time>2021-03-27T18:19:11Z</time>
      </trkpt>
      <trkpt lat="43.160615" lon="-3.623327">
        <ele>1132.31</ele>
        <time>2021-03-27T18:19:13Z</time>
      </trkpt>
      <trkpt lat="43.161707" lon="-3.62287">
        <ele>1136.48</ele>
        <time>2021-03-27T18:19:15Z</time>
      </trkpt>
      <trkpt lat="43.162014" lon="-3.622856">
        <ele>1139.98</ele>
        <time>2021-03-27T18:19:17Z</time>
      </trkpt>
      <trkpt lat="43.163103" lon="-3.623053">
        <ele>1148.88</ele>
        <time>2021-03-27T18:19:20Z</time>
      </trkpt>
      <trkpt lat="43.163213" lon="-3.623123">
        <ele>1149.73</ele>
        <time>2021-03-27T18:19:22Z</time>
      </trkpt>
      <trkpt lat="43.163302" lon="-3.623226">
        <ele>1149.44</ele>
        <time>2021-03-27T18:19:24Z</time>
      </trkpt>
      <trkpt lat="43.163554" lon="-3.623601">
        <ele>1147.16</ele>
        <time>2021-03-27T18:19:26Z</time>
      </trkpt>
      <trkpt lat="43.163699" lon="-3.62374">
        <ele>1147.73</ele>
        <time>2021-03-27T18:19:28Z</time>
      </trkpt>
      <trkpt lat="43.163852" lon="-3.62381">
        <ele>1149.88</ele>
        <time>2021-03-27T18:19:30Z</time>
      </trkpt>
      <trkpt lat="43.16446" lon="-3.623997">
        <ele>1157.14</ele>
        <time>2021-03-27T18:19:32Z</time>
      </trkpt>
      <trkpt lat="43.164602" lon="-3.624084">
        <ele>1156.82</ele>
        <time>2021-03-27T18:19:34Z</time>
      </trkpt>
      <trkpt lat="43.164708" lon="-3.624213">
        <ele>1155.12</ele>
        <time>2021-03-27T18:19:37Z</time>
      </trkpt>
      <trkpt lat="43.164753" lon="-3.624389">
        <ele>1153.29</ele>
        <time>2021-03-27T18:19:39Z</time>
      </trkpt>
      <trkpt lat="43.164753" lon="-3.624519">
        <ele>1152.3</ele>
        <time>2021-03-27T18:19:41Z</time>
      </trkpt>
      <trkpt lat="43.164732" lon="-3.624638">
        <ele>1151.56</ele>
        <time>2021-03-27T18:19:43Z</time>
      </trkpt>
      <trkpt lat="43.164698" lon="-3.62472">
        <ele>1150.83</ele>
        <time>2021-03-27T18:19:45Z</time>
      </trkpt>
      <trkpt lat="43.164422" lon="-3.625126">
        <ele>1152.58</ele>
        <time>2021-03-27T18:19:47Z</time>
      </trkpt>
      <trkpt lat="43.16435" lon="-3.625311">
        <ele>1154.0</ele>
        <time>2021-03-27T18:19:49Z</time>
      </trkpt>
      <trkpt lat="43.164313" lon="-3.62553">
        <ele>1155.84</ele>
        <time>2021-03-27T18:19:52Z</time>
      </trkpt>
      <trkpt lat="43.164357" lon="-3.626534">
        <ele>1153.42</ele>
        <time>2021-03-27T18:19:54Z</time>
      </trkpt>
      <trkpt lat="43.16439" lon="-3.626998">
        <ele>1159.56</ele>
        <time>2021-03-27T18:19:56Z</time>
      </trkpt>
      <trkpt lat="43.164441" lon="-3.627423">
        <ele>1165.54</ele>
        <time>2021-03-27T18:19:58Z</time>
      </trkpt>
      <trkpt lat="43.164499" lon="-3.627603">
        <ele>1166.87</ele>
        <time>2021-03-27T18:20:00Z</time>
      </trkpt>
      <trkpt lat="43.164801" lon="-3.628312">
        <ele>1169.93</ele>
        <time>2021-03-27T18:20:02Z</time>
      </trkpt>
      <trkpt lat="43.16502" lon="-3.62878">
        <ele>1171.64</ele>
        <time>2021-03-27T18:20:04Z</time>
      </trkpt>
      <trkpt lat="43.165467" lon="-3.630046">
        <ele>1175.26</ele>
        <time>2021-03-27T18:20:06Z</time>
      </trkpt>
      <trkpt lat="43.165817" lon="-3.631099">
        <ele>1179.35</ele>
        <time>2021-03-27T18:20:09Z</time>
      </trkpt>
      <trkpt lat="43.165882" lon="-3.631255">
        <ele>1179.94</ele>
        <time>2021-03-27T18:20:11Z</time>
      </trkpt>
      <trkpt lat="43.165974" lon="-3.631385">
        <ele>1180.6</ele>
        <time>2021-03-27T18:20:13Z</time>
      </trkpt>
      <trkpt lat="43.166115" lon="-3.631538">
        <ele>1181.93</ele>
        <time>2021-03-27T18:20:15Z</time>
      </trkpt>
      <trkpt lat="43.166951" lon="-3.631977">
        <ele>1182.34</ele>
        <time>2021-03-27T18:20:17Z</time>
      </trkpt>
      <trkpt lat="43.16702" lon="-3.631997">
        <ele>1182.41</ele>
        <time>2021-03-27T18:20:19Z</time>
      </trkpt>
      <trkpt lat="43.167201" lon="-3.631954">
        <ele>1184.64</ele>
        <time>2021-03-27T18:20:21Z</time>
      </trkpt>
      <trkpt lat="43.167698" lon="-3.631729">
        <ele>1192.24</ele>
        <time>2021-03-27T18:20:23Z</time>
      </trkpt>
      <trkpt lat="43.167886" lon="-3.631671">
        <ele>1194.71</ele>
        <time>2021-03-27T18:20:26Z</time>
      </trkpt>
      <trkpt lat="43.167992" lon="-3.631707">
        <ele>1195.04</ele>
        <time>2021-03-27T18:20:28Z</time>
      </trkpt>
      <trkpt lat="43.168058" lon="-3.63176">
        <ele>1195.04</ele>
        <time>2021-03-27T18:20:30Z</time>
      </trkpt>
      <trkpt lat="43.168941" lon="-3.632771">
        <ele>1202.85</ele>
        <time>2021-03-27T18:20:32Z</time>
      </trkpt>
      <trkpt lat="43.169265" lon="-3.63307">
        <ele>1203.6</ele>
        <time>2021-03-27T18:20:34Z</time>
      </trkpt>
      <trkpt lat="43.16947" lon="-3.633166">
        <ele>1205.88</ele>
        <time>2021-03-27T18:20:36Z</time>
      </trkpt>
      <trkpt lat="43.170237" lon="-3.633424">
        <ele>1214.62</ele>
        <time>2021-03-27T18:20:38Z</time>
      </trkpt>
      <trkpt lat="43.170412" lon="-3.633526">
        <ele>1216.9</ele>
        <time>2021-03-27T18:20:41Z</time>
      </trkpt>
      <trkpt lat="43.170545" lon="-3.633657">
        <ele>1218.08</ele>
        <time>2021-03-27T18:20:43Z</time>
      </trkpt>
      <trkpt lat="43.170621" lon="-3.633808">
        <ele>1218.44</ele>
        <time>2021-03-27T18:20:45Z</time>
      </trkpt>
      <trkpt lat="43.170686" lon="-3.634059">
        <ele>1219.09</ele>
        <time>2021-03-27T18:20:47Z</time>
      </trkpt>
      <trkpt lat="43.17082" lon="-3.635121">
        <ele>1224.17</ele>
        <time>2021-03-27T18:20:49Z</time>
      </trkpt>
      <trkpt lat="43.170869" lon="-3.635344">
        <ele>1225.98</ele>
        <time>2021-03-27T18:20:51Z</time>
      </trkpt>
      <trkpt lat="43.17091" lon="-3.635471">
        <ele>1227.17</ele>
        <time>2021-03-27T18:20:53Z</time>
      </trkpt>
      <trkpt lat="43.171014" lon="-3.635692">
        <ele>1229.57</ele>
        <time>2021-03-27T18:20:55Z</time>
      </trkpt>
      <trkpt lat="43.171305" lon="-3.636139">
        <ele>1236.31</ele>
        <time>2021-03-27T18:20:58Z</time>
      </trkpt>
      <trkpt lat="43.171367" lon="-3.636296">
        <ele>1236.42</ele>
        <time>2021-03-27T18:21:00Z</time>
      </trkpt>
      <trkpt lat="43.171429" lon="-3.636514">
        <ele>1237.51</ele>
        <time>2021-03-27T18:21:02Z</time>
      </trkpt>
      <trkpt lat="43.171521" lon="-3.6371">
        <ele>1239.45</ele>
        <time>2021-03-27T18:21:04Z</time>
      </trkpt>
      <trkpt lat="43.171594" lon="-3.63775">
        <ele>1246.43</ele>
        <time>2021-03-27T18:21:06Z</time>
      </trkpt>
      <trkpt lat="43.171761" lon="-3.638682">
        <ele>1250.34</ele>
        <time>2021-03-27T18:21:08Z</time>
      </trkpt>
      <trkpt lat="43.171769" lon="-3.638871">
        <ele>1250.43</ele>
        <time>2021-03-27T18:21:10Z</time>
      </trkpt>
      <trkpt lat="43.171752" lon="-3.639705">
        <ele>1249.15</ele>
        <time>2021-03-27T18:21:12Z</time>
      </trkpt>
      <trkpt lat="43.171768" lon="-3.639945">
        <ele>1248.87</ele>
        <time>2021-03-27T18:21:15Z</time>
      </trkpt>
      <trkpt lat="43.171825" lon="-3.64013">
        <ele>1250.25</ele>
        <time>2021-03-27T18:21:17Z</time>
      </trkpt>
      <trkpt lat="43.17253" lon="-3.641437">
        <ele>1265.85</ele>
        <time>2021-03-27T18:21:19Z</time>
      </trkpt>
      <trkpt lat="43.172607" lon="-3.641613">
        <ele>1267.94</ele>
        <time>2021-03-27T18:21:21Z</time>
      </trkpt>
      <trkpt lat="43.172675" lon="-3.641816">
        <ele>1269.47</ele>
        <time>2021-03-27T18:21:23Z</time>
      </trkpt>
      <trkpt lat="43.172835" lon="-3.642504">
        <ele>1271.28</ele>
        <time>2021-03-27T18:21:25Z</time>
      </trkpt>
      <trkpt lat="43.172887" lon="-3.642832">
        <ele>1273.54</ele>
        <time>2021-03-27T18:21:27Z</time>
      </trkpt>
      <trkpt lat="43.172887" lon="-3.642969">
        <ele>1274.54</ele>
        <time>2021-03-27T18:21:30Z</time>
      </trkpt>
      <trkpt lat="43.172865" lon="-3.64314">
        <ele>1275.22</ele>
        <time>2021-03-27T18:21:32Z</time>
      </trkpt>
      <trkpt lat="43.172761" lon="-3.643531">
        <ele>1277.22</ele>
        <time>2021-03-27T18:21:34Z</time>
      </trkpt>
      <trkpt lat="43.172634" lon="-3.643853">
        <ele>1280.24</ele>
        <time>2021-03-27T18:21:36Z</time>
      </trkpt>
      <trkpt lat="43.172238" lon="-3.644441">
        <ele>1278.19</ele>
        <time>2021-03-27T18:21:38Z</time>
      </trkpt>
      <trkpt lat="43.172147" lon="-3.644675">
        <ele>1278.84</ele>
        <time>2021-03-27T18:21:40Z</time>
      </trkpt>
      <trkpt lat="43.172099" lon="-3.645004">
        <ele>1280.7</ele>
        <time>2021-03-27T18:21:42Z</time>
      </trkpt>
      <trkpt lat="43.172043" lon="-3.646571">
        <ele>1283.31</ele>
        <time>2021-03-27T18:21:44Z</time>
      </trkpt>
      <trkpt lat="43.172102" lon="-3.646856">
        <ele>1284.81</ele>
        <time>2021-03-27T18:21:47Z</time>
      </trkpt>
      <trkpt lat="43.172425" lon="-3.64777">
        <ele>1298.44</ele>
        <time>2021-03-27T18:21:49Z</time>
      </trkpt>
      <trkpt lat="43.172473" lon="-3.647983">
        <ele>1300.05</ele>
        <time>2021-03-27T18:21:51Z</time>
      </trkpt>
      <trkpt lat="43.172497" lon="-3.648271">
        <ele>1299.34</ele>
        <time>2021-03-27T18:21:53Z</time>
      </trkpt>
      <trkpt lat="43.172458" lon="-3.649055">
        <ele>1299.33</ele>
        <time>2021-03-27T18:21:55Z</time>
      </trkpt>
      <trkpt lat="43.172403" lon="-3.649458">
        <ele>1301.69</ele>
        <time>2021-03-27T18:21:57Z</time>
      </trkpt>
      <trkpt lat="43.172351" lon="-3.649674">
        <ele>1301.98</ele>
        <time>2021-03-27T18:21:59Z</time>
      </trkpt>
      <trkpt lat="43.171983" lon="-3.650824">
        <ele>1311.16</ele>
        <time>2021-03-27T18:22:02Z</time>
      </trkpt>
      <trkpt lat="43.171825" lon="-3.651039">
        <ele>1310.88</ele>
        <time>2021-03-27T18:22:04Z</time>
      </trkpt>
      <trkpt lat="43.171374" lon="-3.651416">
        <ele>1307.36</ele>
        <time>2021-03-27T18:22:06Z</time>
      </trkpt>
      <trkpt lat="43.171223" lon="-3.651587">
        <ele>1308.52</ele>
        <time>2021-03-27T18:22:08Z</time>
      </trkpt>
      <trkpt lat="43.171154" lon="-3.651714">
        <ele>1308.96</ele>
        <time>2021-03-27T18:22:10Z</time>
      </trkpt>
      <trkpt lat="43.171022" lon="-3.652112">
        <ele>1308.23</ele>
        <time>2021-03-27T18:22:12Z</time>
      </trkpt>
      <trkpt lat="43.170982" lon="-3.652287">
        <ele>1308.21</ele>
        <time>2021-03-27T18:22:14Z</time>
      </trkpt>
      <trkpt lat="43.17096" lon="-3.652496">
        <ele>1309.17</ele>
        <time>2021-03-27T18:22:16Z</time>
      </trkpt>
      <trkpt lat="43.170951" lon="-3.653877">
        <ele>1318.19</ele>
        <time>2021-03-27T18:22:19Z</time>
      </trkpt>
      <trkpt lat="43.170959" lon="-3.654364">
        <ele>1319.13</ele>
        <time>2021-03-27T18:22:21Z</time>
      </trkpt>
      <trkpt lat="43.170992" lon="-3.654587">
        <ele>1318.71</ele>
        <time>2021-03-27T18:22:23Z</time>
      </trkpt>
      <trkpt lat="43.170992" lon="-3.654587">
        <ele>1318.71</ele>
        <time>2021-03-27T18:22:23Z</time>
      </trkpt>
      <trkpt lat="43.170959" lon="-3.654364">
        <ele>1319.13</ele>
        <time>2021-03-27T18:22:25Z</time>
      </trkpt>
      <trkpt lat="43.170951" lon="-3.653877">
        <ele>1318.19</ele>
        <time>2021-03-27T18:22:27Z</time>
      </trkpt>
      <trkpt lat="43.17096" lon="-3.652496">
        <ele>1309.17</ele>
        <time>2021-03-27T18:22:29Z</time>
      </trkpt>
      <trkpt lat="43.170982" lon="-3.652287">
        <ele>1308.21</ele>
        <time>2021-03-27T18:22:32Z</time>
      </trkpt>
      <trkpt lat="43.171022" lon="-3.652112">
        <ele>1308.23</ele>
        <time>2021-03-27T18:22:34Z</time>
      </trkpt>
      <trkpt lat="43.171154" lon="-3.651714">
        <ele>1308.96</ele>
        <time>2021-03-27T18:22:36Z</time>
      </trkpt>
      <trkpt lat="43.171223" lon="-3.651587">
        <ele>1308.52</ele>
        <time>2021-03-27T18:22:38Z</time>
      </trkpt>
      <trkpt lat="43.171374" lon="-3.651416">
        <ele>1307.36</ele>
        <time>2021-03-27T18:22:40Z</time>
      </trkpt>
      <trkpt lat="43.171825" lon="-3.651039">
        <ele>1310.88</ele>
        <time>2021-03-27T18:22:43Z</time>
      </trkpt>
      <trkpt lat="43.171983" lon="-3.650824">
        <ele>1311.16</ele>
        <time>2021-03-27T18:22:45Z</time>
      </trkpt>
      <trkpt lat="43.172351" lon="-3.649674">
        <ele>1301.98</ele>
        <time>2021-03-27T18:22:47Z</time>
      </trkpt>
      <trkpt lat="43.172403" lon="-3.649458">
        <ele>1301.69</ele>
        <time>2021-03-27T18:22:49Z</time>
      </trkpt>
      <trkpt lat="43.172458" lon="-3.649055">
        <ele>1299.33</ele>
        <time>2021-03-27T18:22:51Z</time>
      </trkpt>
      <trkpt lat="43.172497" lon="-3.648271">
        <ele>1299.34</ele>
        <time>2021-03-27T18:22:53Z</time>
      </trkpt>
      <trkpt lat="43.172473" lon="-3.647983">
        <ele>1300.05</ele>
        <time>2021-03-27T18:22:56Z</time>
      </trkpt>
      <trkpt lat="43.172425" lon="-3.64777">
        <ele>1298.44</ele>
        <time>2021-03-27T18:22:58Z</time>
      </trkpt>
      <trkpt lat="43.172102" lon="-3.646856">
        <ele>1284.81</ele>
        <time>2021-03-27T18:23:00Z</time>
      </trkpt>
      <trkpt lat="43.172043" lon="-3.646571">
        <ele>1283.31</ele>
        <time>2021-03-27T18:23:02Z</time>
      </trkpt>
      <trkpt lat="43.172099" lon="-3.645004">
        <ele>1280.7</ele>
        <time>2021-03-27T18:23:04Z</time>
      </trkpt>
      <trkpt lat="43.172147" lon="-3.644675">
        <ele>1278.84</ele>
        <time>2021-03-27T18:23:07Z</time>
      </trkpt>
      <trkpt lat="43.172238" lon="-3.644441">
        <ele>1278.19</ele>
        <time>2021-03-27T18:23:09Z</time>
      </trkpt>
      <trkpt lat="43.172634" lon="-3.643853">
        <ele>1280.24</ele>
        <time>2021-03-27T18:23:11Z</time>
      </trkpt>
      <trkpt lat="43.172761" lon="-3.643531">
        <ele>1277.22</ele>
        <time>2021-03-27T18:23:13Z</time>
      </trkpt>
      <trkpt lat="43.172865" lon="-3.64314">
        <ele>1275.22</ele>
        <time>2021-03-27T18:23:15Z</time>
      </trkpt>
      <trkpt lat="43.172887" lon="-3.642969">
        <ele>1274.54</ele>
        <time>2021-03-27T18:23:17Z</time>
      </trkpt>
      <trkpt lat="43.172887" lon="-3.642832">
        <ele>1273.54</ele>
        <time>2021-03-27T18:23:20Z</time>
      </trkpt>
      <trkpt lat="43.172835" lon="-3.642504">
        <ele>1271.28</ele>
        <time>2021-03-27T18:23:22Z</time>
      </trkpt>
      <trkpt lat="43.172675" lon="-3.641816">
        <ele>1269.47</ele>
        <time>2021-03-27T18:23:24Z</time>
      </trkpt>
      <trkpt lat="43.172607" lon="-3.641613">
        <ele>1267.94</ele>
        <time>2021-03-27T18:23:26Z</time>
      </trkpt>
      <trkpt lat="43.17253" lon="-3.641437">
        <ele>1265.85</ele>
        <time>2021-03-27T18:23:28Z</time>
      </trkpt>
      <trkpt lat="43.171825" lon="-3.64013">
        <ele>1250.25</ele>
        <time>2021-03-27T18:23:31Z</time>
      </trkpt>
      <trkpt lat="43.171768" lon="-3.639945">
        <ele>1248.87</ele>
        <time>2021-03-27T18:23:33Z</time>
      </trkpt>
      <trkpt lat="43.171752" lon="-3.639705">
        <ele>1249.15</ele>
        <time>2021-03-27T18:23:35Z</time>
      </trkpt>
      <trkpt lat="43.171769" lon="-3.638871">
        <ele>1250.43</ele>
        <time>2021-03-27T18:23:37Z</time>
      </trkpt>
      <trkpt lat="43.171761" lon="-3.638682">
        <ele>1250.34</ele>
        <time>2021-03-27T18:23:39Z</time>
      </trkpt>
      <trkpt lat="43.171594" lon="-3.63775">
        <ele>1246.43</ele>
        <time>2021-03-27T18:23:41Z</time>
      </trkpt>
      <trkpt lat="43.171521" lon="-3.6371">
        <ele>1239.45</ele>
        <time>2021-03-27T18:23:44Z</time>
      </trkpt>
      <trkpt lat="43.171429" lon="-3.636514">
        <ele>1237.51</ele>
        <time>2021-03-27T18:23:46Z</time>
      </trkpt>
      <trkpt lat="43.171367" lon="-3.636296">
        <ele>1236.42</ele>
        <time>2021-03-27T18:23:48Z</time>
      </trkpt>
      <trkpt lat="43.171305" lon="-3.636139">
        <ele>1236.31</ele>
        <time>2021-03-27T18:23:50Z</time>
      </trkpt>
      <trkpt lat="43.171014" lon="-3.635692">
        <ele>1229.57</ele>
        <time>2021-03-27T18:23:52Z</time>
      </trkpt>
      <trkpt lat="43.17091" lon="-3.635471">
        <ele>1227.17</ele>
        <time>2021-03-27T18:23:55Z</time>
      </trkpt>
      <trkpt lat="43.170869" lon="-3.635344">
        <ele>1225.98</ele>
        <time>2021-03-27T18:23:57Z</time>
      </trkpt>
      <trkpt lat="43.17082" lon="-3.635121">
        <ele>1224.17</ele>
        <time>2021-03-27T18:23:59Z</time>
      </trkpt>
      <trkpt lat="43.170686" lon="-3.634059">
        <ele>1219.09</ele>
        <time>2021-03-27T18:24:01Z</time>
      </trkpt>
      <trkpt lat="43.170621" lon="-3.633808">
        <ele>1218.44</ele>
        <time>2021-03-27T18:24:03Z</time>
      </trkpt>
      <trkpt lat="43.170545" lon="-3.633657">
        <ele>1218.08</ele>
        <time>2021-03-27T18:24:05Z</time>
      </trkpt>
      <trkpt lat="43.170412" lon="-3.633526">
        <ele>1216.9</ele>
        <time>2021-03-27T18:24:08Z</time>
      </trkpt>
      <trkpt lat="43.170237" lon="-3.633424">
        <ele>1214.62</ele>
        <time>2021-03-27T18:24:10Z</time>
      </trkpt>
      <trkpt lat="43.16947" lon="-3.633166">
        <ele>1205.88</ele>
        <time>2021-03-27T18:24:12Z</time>
      </trkpt>
      <trkpt lat="43.169265" lon="-3.63307">
        <ele>1203.6</ele>
        <time>2021-03-27T18:24:14Z</time>
      </trkpt>
      <trkpt lat="43.168941" lon="-3.632771">
        <ele>1202.85</ele>
        <time>2021-03-27T18:24:16Z</time>
      </trkpt>
      <trkpt lat="43.168058" lon="-3.63176">
        <ele>1195.04</ele>
        <time>2021-03-27T18:24:18Z</time>
      </trkpt>
      <trkpt lat="43.167992" lon="-3.631707">
        <ele>1195.04</ele>
        <time>2021-03-27T18:24:21Z</time>
      </trkpt>
      <trkpt lat="43.167886" lon="-3.631671">
        <ele>1194.71</ele>
        <time>2021-03-27T18:24:23Z</time>
      </trkpt>
      <trkpt lat="43.167698" lon="-3.631729">
        <ele>1192.24</ele>
        <time>2021-03-27T18:24:25Z</time>
      </trkpt>
      <trkpt lat="43.167201" lon="-3.631954">
        <ele>1184.64</ele>
        <time>2021-03-27T18:24:27Z</time>
      </trkpt>
      <trkpt lat="43.16702" lon="-3.631997">
        <ele>1182.41</ele>
        <time>2021-03-27T18:24:29Z</time>
      </trkpt>
      <trkpt lat="43.166951" lon="-3.631977">
        <ele>1182.34</ele>
        <time>2021-03-27T18:24:32Z</time>
      </trkpt>
      <trkpt lat="43.166115" lon="-3.631538">
        <ele>1181.93</ele>
        <time>2021-03-27T18:24:34Z</time>
      </trkpt>
      <trkpt lat="43.165974" lon="-3.631385">
        <ele>1180.6</ele>
        <time>2021-03-27T18:24:36Z</time>
      </trkpt>
      <trkpt lat="43.165882" lon="-3.631255">
        <ele>1179.94</ele>
        <time>2021-03-27T18:24:38Z</time>
      </trkpt>
      <trkpt lat="43.165817" lon="-3.631099">
        <ele>1179.35</ele>
        <time>2021-03-27T18:24:40Z</time>
      </trkpt>
      <trkpt lat="43.165467" lon="-3.630046">
        <ele>1175.26</ele>
        <time>2021-03-27T18:24:42Z</time>
      </trkpt>
      <trkpt lat="43.16502" lon="-3.62878">
        <ele>1171.64</ele>
        <time>2021-03-27T18:24:45Z</time>
      </trkpt>
      <trkpt lat="43.164801" lon="-3.628312">
        <ele>1169.93</ele>
        <time>2021-03-27T18:24:47Z</time>
      </trkpt>
      <trkpt lat="43.164499" lon="-3.627603">
        <ele>1166.87</ele>
        <time>2021-03-27T18:24:49Z</time>
      </trkpt>
      <trkpt lat="43.164441" lon="-3.627423">
        <ele>1165.54</ele>
        <time>2021-03-27T18:24:51Z</time>
      </trkpt>
      <trkpt lat="43.16439" lon="-3.626998">
        <ele>1159.56</ele>
        <time>2021-03-27T18:24:53Z</time>
      </trkpt>
      <trkpt lat="43.164357" lon="-3.626534">
        <ele>1153.42</ele>
        <time>2021-03-27T18:24:56Z</time>
      </trkpt>
      <trkpt lat="43.164313" lon="-3.62553">
        <ele>1155.84</ele>
        <time>2021-03-27T18:24:58Z</time>
      </trkpt>
      <trkpt lat="43.16435" lon="-3.625311">
        <ele>1154.0</ele>
        <time>2021-03-27T18:25:00Z</time>
      </trkpt>
      <trkpt lat="43.164422" lon="-3.625126">
        <ele>1152.58</ele>
        <time>2021-03-27T18:25:02Z</time>
      </trkpt>
      <trkpt lat="43.164698" lon="-3.62472">
        <ele>1150.83</ele>
        <time>2021-03-27T18:25:04Z</time>
      </trkpt>
      <trkpt lat="43.164732" lon="-3.624638">
        <ele>1151.56</ele>
        <time>2021-03-27T18:25:06Z</time>
      </trkpt>
      <trkpt lat="43.164753" lon="-3.624519">
        <ele>1152.3</ele>
        <time>2021-03-27T18:25:09Z</time>
      </trkpt>
      <trkpt lat="43.164753" lon="-3.624389">
        <ele>1153.29</ele>
        <time>2021-03-27T18:25:11Z</time>
      </trkpt>
      <trkpt lat="43.164708" lon="-3.624213">
        <ele>1155.12</ele>
        <time>2021-03-27T18:25:13Z</time>
      </trkpt>
      <trkpt lat="43.164602" lon="-3.624084">
        <ele>1156.82</ele>
        <time>2021-03-27T18:25:15Z</time>
      </trkpt>
      <trkpt lat="43.16446" lon="-3.623997">
        <ele>1157.14</ele>
        <time>2021-03-27T18:25:17Z</time>
      </trkpt>
      <trkpt lat="43.163852" lon="-3.62381">
        <ele>1149.88</ele>
        <time>2021-03-27T18:25:20Z</time>
      </trkpt>
      <trkpt lat="43.163699" lon="-3.62374">
        <ele>1147.73</ele>
        <time>2021-03-27T18:25:22Z</time>
      </trkpt>
      <trkpt lat="43.163554" lon="-3.623601">
        <ele>1147.16</ele>
        <time>2021-03-27T18:25:24Z</time>
      </trkpt>
      <trkpt lat="43.163302" lon="-3.623226">
        <ele>1149.44</ele>
        <time>2021-03-27T18:25:26Z</time>
      </trkpt>
      <trkpt lat="43.163213" lon="-3.623123">
        <ele>1149.73</ele>
        <time>2021-03-27T18:25:28Z</time>
      </trkpt>
      <trkpt lat="43.163103" lon="-3.623053">
        <ele>1148.88</ele>
        <time>2021-03-27T18:25:30Z</time>
      </trkpt>
      <trkpt lat="43.162014" lon="-3.622856">
        <ele>1139.98</ele>
        <time>2021-03-27T18:25:33Z</time>
      </trkpt>
      <trkpt lat="43.161707" lon="-3.62287">
        <ele>1136.48</ele>
        <time>2021-03-27T18:25:35Z</time>
      </trkpt>
      <trkpt lat="43.160615" lon="-3.623327">
        <ele>1132.31</ele>
        <time>2021-03-27T18:25:37Z</time>
      </trkpt>
      <trkpt lat="43.160046" lon="-3.623537">
        <ele>1127.43</ele>
        <time>2021-03-27T18:25:39Z</time>
      </trkpt>
      <trkpt lat="43.159951" lon="-3.623553">
        <ele>1127.06</ele>
        <time>2021-03-27T18:25:41Z</time>
      </trkpt>
      <trkpt lat="43.157347" lon="-3.623382">
        <ele>1101.74</ele>
        <time>2021-03-27T18:25:44Z</time>
      </trkpt>
      <trkpt lat="43.157222" lon="-3.623416">
        <ele>1101.7</ele>
        <time>2021-03-27T18:25:46Z</time>
      </trkpt>
      <trkpt lat="43.156743" lon="-3.623781">
        <ele>1098.72</ele>
        <time>2021-03-27T18:25:48Z</time>
      </trkpt>
      <trkpt lat="43.155969" lon="-3.624334">
        <ele>1093.78</ele>
        <time>2021-03-27T18:25:50Z</time>
      </trkpt>
      <trkpt lat="43.155199" lon="-3.62495">
        <ele>1092.61</ele>
        <time>2021-03-27T18:25:52Z</time>
      </trkpt>
      <trkpt lat="43.155112" lon="-3.625038">
        <ele>1092.84</ele>
        <time>2021-03-27T18:25:54Z</time>
      </trkpt>
      <trkpt lat="43.154939" lon="-3.625274">
        <ele>1091.92</ele>
        <time>2021-03-27T18:25:57Z</time>
      </trkpt>
      <trkpt lat="43.15473" lon="-3.625756">
        <ele>1088.03</ele>
        <time>2021-03-27T18:25:59Z</time>
      </trkpt>
      <trkpt lat="43.154563" lon="-3.626197">
        <ele>1082.28</ele>
        <time>2021-03-27T18:26:01Z</time>
      </trkpt>
      <trkpt lat="43.154435" lon="-3.626394">
        <ele>1078.93</ele>
        <time>2021-03-27T18:26:03Z</time>
      </trkpt>
      <trkpt lat="43.154359" lon="-3.626463">
        <ele>1077.84</ele>
        <time>2021-03-27T18:26:05Z</time>
      </trkpt>
      <trkpt lat="43.154283" lon="-3.626503">
        <ele>1077.12</ele>
        <time>2021-03-27T18:26:08Z</time>
      </trkpt>
      <trkpt lat="43.154117" lon="-3.6265">
        <ele>1076.96</ele>
        <time>2021-03-27T18:26:10Z</time>
      </trkpt>
      <trkpt lat="43.153891" lon="-3.626449">
        <ele>1077.35</ele>
        <time>2021-03-27T18:26:12Z</time>
      </trkpt>
      <trkpt lat="43.153593" lon="-3.626341">
        <ele>1076.47</ele>
        <time>2021-03-27T18:26:14Z</time>
      </trkpt>
      <trkpt lat="43.152962" lon="-3.626172">
        <ele>1071.33</ele>
        <time>2021-03-27T18:26:16Z</time>
      </trkpt>
      <trkpt lat="43.152288" lon="-3.62585">
        <ele>1066.18</ele>
        <time>2021-03-27T18:26:18Z</time>
      </trkpt>
      <trkpt lat="43.151362" lon="-3.625345">
        <ele>1057.57</ele>
        <time>2021-03-27T18:26:21Z</time>
      </trkpt>
      <trkpt lat="43.151075" lon="-3.625151">
        <ele>1055.18</ele>
        <time>2021-03-27T18:26:23Z</time>
      </trkpt>
      <trkpt lat="43.150817" lon="-3.624852">
        <ele>1052.7</ele>
        <time>2021-03-27T18:26:25Z</time>
      </trkpt>
      <trkpt lat="43.150106" lon="-3.623884">
        <ele>1046.44</ele>
        <time>2021-03-27T18:26:27Z</time>
      </trkpt>
      <trkpt lat="43.150006" lon="-3.623769">
        <ele>1047.32</ele>
        <time>2021-03-27T18:26:29Z</time>
      </trkpt>
      <trkpt lat="43.149911" lon="-3.623694">
        <ele>1046.73</ele>
        <time>2021-03-27T18:26:32Z</time>
      </trkpt>
      <trkpt lat="43.149771" lon="-3.623642">
        <ele>1045.27</ele>
        <time>2021-03-27T18:26:34Z</time>
      </trkpt>
      <trkpt lat="43.14618" lon="-3.624212">
        <ele>1023.76</ele>
        <time>2021-03-27T18:26:36Z</time>
      </trkpt>
      <trkpt lat="43.145696" lon="-3.624236">
        <ele>1023.26</ele>
        <time>2021-03-27T18:26:38Z</time>
      </trkpt>
      <trkpt lat="43.143217" lon="-3.62377">
        <ele>1005.33</ele>
        <time>2021-03-27T18:26:40Z</time>
      </trkpt>
      <trkpt lat="43.143039" lon="-3.623713">
        <ele>1004.07</ele>
        <time>2021-03-27T18:26:42Z</time>
      </trkpt>
      <trkpt lat="43.142306" lon="-3.623382">
        <ele>1002.83</ele>
        <time>2021-03-27T18:26:45Z</time>
      </trkpt>
      <trkpt lat="43.14134" lon="-3.622736">
        <ele>1000.93</ele>
        <time>2021-03-27T18:26:47Z</time>
      </trkpt>
      <trkpt lat="43.140887" lon="-3.622518">
        <ele>998.99</ele>
        <time>2021-03-27T18:26:49Z</time>
      </trkpt>
      <trkpt lat="43.139971" lon="-3.622165">
        <ele>990.86</ele>
        <time>2021-03-27T18:26:51Z</time>
      </trkpt>
      <trkpt lat="43.139861" lon="-3.622155">
        <ele>990.43</ele>
        <time>2021-03-27T18:26:53Z</time>
      </trkpt>
      <trkpt lat="43.13964" lon="-3.622199">
        <ele>987.78</ele>
        <time>2021-03-27T18:26:56Z</time>
      </trkpt>
      <trkpt lat="43.138791" lon="-3.622588">
        <ele>983.72</ele>
        <time>2021-03-27T18:26:58Z</time>
      </trkpt>
      <trkpt lat="43.138661" lon="-3.62262">
        <ele>981.75</ele>
        <time>2021-03-27T18:27:00Z</time>
      </trkpt>
      <trkpt lat="43.13726" lon="-3.622543">
        <ele>969.63</ele>
        <time>2021-03-27T18:27:02Z</time>
      </trkpt>
      <trkpt lat="43.13712" lon="-3.62252">
        <ele>968.64</ele>
        <time>2021-03-27T18:27:04Z</time>
      </trkpt>
      <trkpt lat="43.13417" lon="-3.621549">
        <ele>942.91</ele>
        <time>2021-03-27T18:27:06Z</time>
      </trkpt>
      <trkpt lat="43.133976" lon="-3.62144">
        <ele>942.57</ele>
        <time>2021-03-27T18:27:09Z</time>
      </trkpt>
      <trkpt lat="43.133848" lon="-3.621343">
        <ele>942.59</ele>
        <time>2021-03-27T18:27:11Z</time>
      </trkpt>
      <trkpt lat="43.132811" lon="-3.620263">
        <ele>933.59</ele>
        <time>2021-03-27T18:27:13Z</time>
      </trkpt>
      <trkpt lat="43.132675" lon="-3.620075">
        <ele>931.98</ele>
        <time>2021-03-27T18:27:15Z</time>
      </trkpt>
      <trkpt lat="43.132607" lon="-3.619897">
        <ele>931.06</ele>
        <time>2021-03-27T18:27:17Z</time>
      </trkpt>
      <trkpt lat="43.132427" lon="-3.619235">
        <ele>927.4</ele>
        <time>2021-03-27T18:27:20Z</time>
      </trkpt>
      <trkpt lat="43.13221" lon="-3.618513">
        <ele>922.8</ele>
        <time>2021-03-27T18:27:22Z</time>
      </trkpt>
      <trkpt lat="43.131686" lon="-3.617194">
        <ele>912.24</ele>
        <time>2021-03-27T18:27:24Z</time>
      </trkpt>
      <trkpt lat="43.13155" lon="-3.616553">
        <ele>915.71</ele>
        <time>2021-03-27T18:27:26Z</time>
      </trkpt>
      <trkpt lat="43.131092" lon="-3.615247">
        <ele>907.56</ele>
        <time>2021-03-27T18:27:28Z</time>
      </trkpt>
      <trkpt lat="43.131019" lon="-3.614962">
        <ele>905.72</ele>
        <time>2021-03-27T18:27:30Z</time>
      </trkpt>
      <trkpt lat="43.130779" lon="-3.613747">
        <ele>895.85</ele>
        <time>2021-03-27T18:27:33Z</time>
      </trkpt>
      <trkpt lat="43.130652" lon="-3.613454">
        <ele>895.03</ele>
        <time>2021-03-27T18:27:35Z</time>
      </trkpt>
      <trkpt lat="43.130144" lon="-3.612546">
        <ele>887.47</ele>
        <time>2021-03-27T18:27:37Z</time>
      </trkpt>
      <trkpt lat="43.130032" lon="-3.612259">
        <ele>884.72</ele>
        <time>2021-03-27T18:27:39Z</time>
      </trkpt>
      <trkpt lat="43.130002" lon="-3.612098">
        <ele>883.58</ele>
        <time>2021-03-27T18:27:41Z</time>
      </trkpt>
      <trkpt lat="43.129991" lon="-3.611918">
        <ele>882.62</ele>
        <time>2021-03-27T18:27:44Z</time>
      </trkpt>
      <trkpt lat="43.130061" lon="-3.610706">
        <ele>879.12</ele>
        <time>2021-03-27T18:27:46Z</time>
      </trkpt>
      <trkpt lat="43.130034" lon="-3.610472">
        <ele>879.48</ele>
        <time>2021-03-27T18:27:48Z</time>
      </trkpt>
      <trkpt lat="43.129967" lon="-3.610233">
        <ele>878.04</ele>
        <time>2021-03-27T18:27:50Z</time>
      </trkpt>
      <trkpt lat="43.129689" lon="-3.609469">
        <ele>872.72</ele>
        <time>2021-03-27T18:27:52Z</time>
      </trkpt>
      <trkpt lat="43.129623" lon="-3.609358">
        <ele>871.73</ele>
        <time>2021-03-27T18:27:54Z</time>
      </trkpt>
      <trkpt lat="43.129423" lon="-3.609187">
        <ele>869.85</ele>
        <time>2021-03-27T18:27:57Z</time>
      </trkpt>
      <trkpt lat="43.129307" lon="-3.609141">
        <ele>869.1</ele>
        <time>2021-03-27T18:27:59Z</time>
      </trkpt>
      <trkpt lat="43.129009" lon="-3.609138">
        <ele>865.26</ele>
        <time>2021-03-27T18:28:01Z</time>
      </trkpt>
      <trkpt lat="43.128862" lon="-3.609203">
        <ele>862.81</ele>
        <time>2021-03-27T18:28:03Z</time>
      </trkpt>
      <trkpt lat="43.128726" lon="-3.60931">
        <ele>860.85</ele>
        <time>2021-03-27T18:28:05Z</time>
      </trkpt>
      <trkpt lat="43.127543" lon="-3.610709">
        <ele>857.64</ele>
        <time>2021-03-27T18:28:08Z</time>
      </trkpt>
      <trkpt lat="43.12686" lon="-3.611592">
        <ele>853.94</ele>
        <time>2021-03-27T18:28:10Z</time>
      </trkpt>
      <trkpt lat="43.126568" lon="-3.611935">
        <ele>856.36</ele>
        <time>2021-03-27T18:28:12Z</time>
      </trkpt>
      <trkpt lat="43.126477" lon="-3.612015">
        <ele>857.72</ele>
        <time>2021-03-27T18:28:14Z</time>
      </trkpt>
      <trkpt lat="43.126368" lon="-3.612053">
        <ele>859.19</ele>
        <time>2021-03-27T18:28:16Z</time>
      </trkpt>
      <trkpt lat="43.126183" lon="-3.61201">
        <ele>861.05</ele>
        <time>2021-03-27T18:28:18Z</time>
      </trkpt>
      <trkpt lat="43.126064" lon="-3.611906">
        <ele>862.17</ele>
        <time>2021-03-27T18:28:21Z</time>
      </trkpt>
      <trkpt lat="43.125189" lon="-3.61044">
        <ele>868.21</ele>
        <time>2021-03-27T18:28:23Z</time>
      </trkpt>
      <trkpt lat="43.125111" lon="-3.61026">
        <ele>867.11</ele>
        <time>2021-03-27T18:28:25Z</time>
      </trkpt>
      <trkpt lat="43.124968" lon="-3.609828">
        <ele>866.18</ele>
        <time>2021-03-27T18:28:27Z</time>
      </trkpt>
      <trkpt lat="43.12484" lon="-3.609038">
        <ele>863.81</ele>
        <time>2021-03-27T18:28:29Z</time>
      </trkpt>
      <trkpt lat="43.124796" lon="-3.608847">
        <ele>861.02</ele>
        <time>2021-03-27T18:28:31Z</time>
      </trkpt>
      <trkpt lat="43.124719" lon="-3.608608">
        <ele>856.99</ele>
        <time>2021-03-27T18:28:34Z</time>
      </trkpt>
      <trkpt lat="43.124158" lon="-3.607099">
        <ele>856.27</ele>
        <time>2021-03-27T18:28:36Z</time>
      </trkpt>
      <trkpt lat="43.124073" lon="-3.606959">
        <ele>856.48</ele>
        <time>2021-03-27T18:28:38Z</time>
      </trkpt>
      <trkpt lat="43.123973" lon="-3.606842">
        <ele>856.53</ele>
        <time>2021-03-27T18:28:40Z</time>
      </trkpt>
      <trkpt lat="43.123613" lon="-3.606664">
        <ele>856.95</ele>
        <time>2021-03-27T18:28:42Z</time>
      </trkpt>
      <trkpt lat="43.123199" lon="-3.606418">
        <ele>855.88</ele>
        <time>2021-03-27T18:28:45Z</time>
      </trkpt>
      <trkpt lat="43.122881" lon="-3.606167">
        <ele>854.73</ele>
        <time>2021-03-27T18:28:47Z</time>
      </trkpt>
      <trkpt lat="43.122349" lon="-3.605677">
        <ele>848.55</ele>
        <time>2021-03-27T18:28:49Z</time>
      </trkpt>
      <trkpt lat="43.122176" lon="-3.605472">
        <ele>847.32</ele>
        <time>2021-03-27T18:28:51Z</time>
      </trkpt>
      <trkpt lat="43.122039" lon="-3.605203">
        <ele>848.38</ele>
        <time>2021-03-27T18:28:53Z</time>
      </trkpt>
      <trkpt lat="43.121868" lon="-3.604628">
        <ele>847.59</ele>
        <time>2021-03-27T18:28:55Z</time>
      </trkpt>
      <trkpt lat="43.121804" lon="-3.604185">
        <ele>847.61</ele>
        <time>2021-03-27T18:28:58Z</time>
      </trkpt>
      <trkpt lat="43.121737" lon="-3.603438">
        <ele>845.72</ele>
        <time>2021-03-27T18:29:00Z</time>
      </trkpt>
      <trkpt lat="43.121652" lon="-3.602943">
        <ele>840.01</ele>
        <time>2021-03-27T18:29:02Z</time>
      </trkpt>
      <trkpt lat="43.121565" lon="-3.602572">
        <ele>842.82</ele>
        <time>2021-03-27T18:29:04Z</time>
      </trkpt>
      <trkpt lat="43.121369" lon="-3.601955">
        <ele>844.99</ele>
        <time>2021-03-27T18:29:06Z</time>
      </trkpt>
      <trkpt lat="43.121309" lon="-3.601651">
        <ele>843.97</ele>
        <time>2021-03-27T18:29:09Z</time>
      </trkpt>
      <trkpt lat="43.121248" lon="-3.601469">
        <ele>843.71</ele>
        <time>2021-03-27T18:29:11Z</time>
      </trkpt>
      <trkpt lat="43.12079" lon="-3.600709">
        <ele>844.61</ele>
        <time>2021-03-27T18:29:13Z</time>
      </trkpt>
      <trkpt lat="43.120358" lon="-3.59935">
        <ele>838.57</ele>
        <time>2021-03-27T18:29:15Z</time>
      </trkpt>
      <trkpt lat="43.120232" lon="-3.599078">
        <ele>839.22</ele>
        <time>2021-03-27T18:29:17Z</time>
      </trkpt>
      <trkpt lat="43.120078" lon="-3.598953">
        <ele>841.73</ele>
        <time>2021-03-27T18:29:19Z</time>
      </trkpt>
      <trkpt lat="43.119868" lon="-3.598879">
        <ele>842.41</ele>
        <time>2021-03-27T18:29:22Z</time>
      </trkpt>
      <trkpt lat="43.118462" lon="-3.598674">
        <ele>835.81</ele>
        <time>2021-03-27T18:29:24Z</time>
      </trkpt>
      <trkpt lat="43.118313" lon="-3.598634">
        <ele>834.75</ele>
        <time>2021-03-27T18:29:26Z</time>
      </trkpt>
      <trkpt lat="43.118239" lon="-3.598574">
        <ele>832.71</ele>
        <time>2021-03-27T18:29:28Z</time>
      </trkpt>
      <trkpt lat="43.11818" lon="-3.598468">
        <ele>830.99</ele>
        <time>2021-03-27T18:29:30Z</time>
      </trkpt>
      <trkpt lat="43.118129" lon="-3.598327">
        <ele>829.79</ele>
        <time>2021-03-27T18:29:33Z</time>
      </trkpt>
      <trkpt lat="43.118037" lon="-3.597602">
        <ele>827.17</ele>
        <time>2021-03-27T18:29:35Z</time>
      </trkpt>
      <trkpt lat="43.117988" lon="-3.597347">
        <ele>825.72</ele>
        <time>2021-03-27T18:29:37Z</time>
      </trkpt>
      <trkpt lat="43.117972" lon="-3.597074">
        <ele>825.26</ele>
        <time>2021-03-27T18:29:39Z</time>
      </trkpt>
      <trkpt lat="43.117999" lon="-3.596528">
        <ele>826.69</ele>
        <time>2021-03-27T18:29:41Z</time>
      </trkpt>
      <trkpt lat="43.118167" lon="-3.594704">
        <ele>816.07</ele>
        <time>2021-03-27T18:29:43Z</time>
      </trkpt>
      <trkpt lat="43.118145" lon="-3.594329">
        <ele>813.94</ele>
        <time>2021-03-27T18:29:46Z</time>
      </trkpt>
      <trkpt lat="43.117918" lon="-3.592753">
        <ele>814.04</ele>
        <time>2021-03-27T18:29:48Z</time>
      </trkpt>
      <trkpt lat="43.117852" lon="-3.592164">
        <ele>816.21</ele>
        <time>2021-03-27T18:29:50Z</time>
      </trkpt>
      <trkpt lat="43.11782" lon="-3.591873">
        <ele>817.08</ele>
        <time>2021-03-27T18:29:52Z</time>
      </trkpt>
      <trkpt lat="43.117802" lon="-3.591517">
        <ele>816.63</ele>
        <time>2021-03-27T18:29:54Z</time>
      </trkpt>
      <trkpt lat="43.117832" lon="-3.590429">
        <ele>810.44</ele>
        <time>2021-03-27T18:29:57Z</time>
      </trkpt>
      <trkpt lat="43.117822" lon="-3.590311">
        <ele>810.1</ele>
        <time>2021-03-27T18:29:59Z</time>
      </trkpt>
      <trkpt lat="43.117789" lon="-3.590124">
        <ele>809.98</ele>
        <time>2021-03-27T18:30:01Z</time>
      </trkpt>
      <trkpt lat="43.117522" lon="-3.589233">
        <ele>806.46</ele>
        <time>2021-03-27T18:30:03Z</time>
      </trkpt>
      <trkpt lat="43.117492" lon="-3.58897">
        <ele>805.3</ele>
        <time>2021-03-27T18:30:05Z</time>
      </trkpt>
      <trkpt lat="43.117506" lon="-3.588812">
        <ele>805.0</ele>
        <time>2021-03-27T18:30:07Z</time>
      </trkpt>
      <trkpt lat="43.117724" lon="-3.58755">
        <ele>803.18</ele>
        <time>2021-03-27T18:30:10Z</time>
      </trkpt>
      <trkpt lat="43.11774" lon="-3.587367">
        <ele>802.93</ele>
        <time>2021-03-27T18:30:12Z</time>
      </trkpt>
      <trkpt lat="43.117709" lon="-3.586805">
        <ele>802.5</ele>
        <time>2021-03-27T18:30:14Z</time>
      </trkpt>
      <trkpt lat="43.117611" lon="-3.585638">
        <ele>799.61</ele>
        <time>2021-03-27T18:30:16Z</time>
      </trkpt>
      <trkpt lat="43.117625" lon="-3.585449">
        <ele>798.47</ele>
        <time>2021-03-27T18:30:18Z</time>
      </trkpt>
      <trkpt lat="43.117697" lon="-3.585297">
        <ele>797.77</ele>
        <time>2021-03-27T18:30:21Z</time>
      </trkpt>
      <trkpt lat="43.118013" lon="-3.584934">
        <ele>805.02</ele>
        <time>2021-03-27T18:30:23Z</time>
      </trkpt>
      <trkpt lat="43.118039" lon="-3.584844">
        <ele>806.89</ele>
        <time>2021-03-27T18:30:25Z</time>
      </trkpt>
      <trkpt lat="43.118014" lon="-3.584693">
        <ele>808.52</ele>
        <time>2021-03-27T18:30:27Z</time>
      </trkpt>
      <trkpt lat="43.11773" lon="-3.584084">
        <ele>806.24</ele>
        <time>2021-03-27T18:30:29Z</time>
      </trkpt>
      <trkpt lat="43.117636" lon="-3.583915">
        <ele>805.03</ele>
        <time>2021-03-27T18:30:31Z</time>
      </trkpt>
      <trkpt lat="43.117537" lon="-3.583768">
        <ele>803.89</ele>
        <time>2021-03-27T18:30:34Z</time>
      </trkpt>
      <trkpt lat="43.117172" lon="-3.583355">
        <ele>801.38</ele>
        <time>2021-03-27T18:30:36Z</time>
      </trkpt>
      <trkpt lat="43.117256" lon="-3.583071">
        <ele>803.18</ele>
        <time>2021-03-27T18:30:37Z</time>
      </trkpt>
      <trkpt lat="43.117299" lon="-3.582991">
        <ele>803.79</ele>
        <time>2021-03-27T18:30:38Z</time>
      </trkpt>
      <trkpt lat="43.117519" lon="-3.582797">
        <ele>805.93</ele>
        <time>2021-03-27T18:30:39Z</time>
      </trkpt>
      <trkpt lat="43.117602" lon="-3.582692">
        <ele>806.11</ele>
        <time>2021-03-27T18:30:40Z</time>
      </trkpt>
      <trkpt lat="43.117861" lon="-3.582096">
        <ele>810.07</ele>
        <time>2021-03-27T18:30:41Z</time>
      </trkpt>
      <trkpt lat="43.118055" lon="-3.581508">
        <ele>812.0</ele>
        <time>2021-03-27T18:30:42Z</time>
      </trkpt>
      <trkpt lat="43.118153" lon="-3.581338">
        <ele>812.53</ele>
        <time>2021-03-27T18:30:43Z</time>
      </trkpt>
      <trkpt lat="43.118639" lon="-3.58093">
        <ele>817.23</ele>
        <time>2021-03-27T18:30:44Z</time>
      </trkpt>
      <trkpt lat="43.11871" lon="-3.580909">
        <ele>818.15</ele>
        <time>2021-03-27T18:30:45Z</time>
      </trkpt>
      <trkpt lat="43.119088" lon="-3.580891">
        <ele>821.18</ele>
        <time>2021-03-27T18:30:46Z</time>
      </trkpt>
      <trkpt lat="43.119312" lon="-3.580752">
        <ele>823.47</ele>
        <time>2021-03-27T18:30:47Z</time>
      </trkpt>
      <trkpt lat="43.119569" lon="-3.580736">
        <ele>825.64</ele>
        <time>2021-03-27T18:30:48Z</time>
      </trkpt>
      <trkpt lat="43.119672" lon="-3.580689">
        <ele>826.85</ele>
        <time>2021-03-27T18:30:49Z</time>
      </trkpt>
      <trkpt lat="43.119773" lon="-3.580565">
        <ele>827.76</ele>
        <time>2021-03-27T18:30:50Z</time>
      </trkpt>
      <trkpt lat="43.119905" lon="-3.5803">
        <ele>829.03</ele>
        <time>2021-03-27T18:30:51Z</time>
      </trkpt>
      <trkpt lat="43.119986" lon="-3.580187">
        <ele>829.86</ele>
        <time>2021-03-27T18:30:52Z</time>
      </trkpt>
      <trkpt lat="43.120335" lon="-3.579968">
        <ele>835.42</ele>
        <time>2021-03-27T18:30:53Z</time>
      </trkpt>
      <trkpt lat="43.12037" lon="-3.57993">
        <ele>835.66</ele>
        <time>2021-03-27T18:30:54Z</time>
      </trkpt>
      <trkpt lat="43.120543" lon="-3.579536">
        <ele>837.0</ele>
        <time>2021-03-27T18:30:55Z</time>
      </trkpt>
      <trkpt lat="43.120586" lon="-3.5795">
        <ele>837.26</ele>
        <time>2021-03-27T18:30:56Z</time>
      </trkpt>
      <trkpt lat="43.120628" lon="-3.579482">
        <ele>837.59</ele>
        <time>2021-03-27T18:30:57Z</time>
      </trkpt>
      <trkpt lat="43.120695" lon="-3.579491">
        <ele>838.17</ele>
        <time>2021-03-27T18:30:58Z</time>
      </trkpt>
      <trkpt lat="43.120973" lon="-3.579628">
        <ele>843.17</ele>
        <time>2021-03-27T18:30:59Z</time>
      </trkpt>
      <trkpt lat="43.121042" lon="-3.579641">
        <ele>844.61</ele>
        <time>2021-03-27T18:31:00Z</time>
      </trkpt>
      <trkpt lat="43.121098" lon="-3.579616">
        <ele>845.72</ele>
        <time>2021-03-27T18:31:01Z</time>
      </trkpt>
      <trkpt lat="43.121137" lon="-3.579568">
        <ele>846.47</ele>
        <time>2021-03-27T18:31:02Z</time>
      </trkpt>
      <trkpt lat="43.121298" lon="-3.578938">
        <ele>843.97</ele>
        <time>2021-03-27T18:31:03Z</time>
      </trkpt>
      <trkpt lat="43.121325" lon="-3.578893">
        <ele>843.9</ele>
        <time>2021-03-27T18:31:04Z</time>
      </trkpt>
      <trkpt lat="43.121387" lon="-3.578868">
        <ele>844.81</ele>
        <time>2021-03-27T18:31:05Z</time>
      </trkpt>
      <trkpt lat="43.121458" lon="-3.578897">
        <ele>846.34</ele>
        <time>2021-03-27T18:31:06Z</time>
      </trkpt>
      <trkpt lat="43.121489" lon="-3.578955">
        <ele>847.58</ele>
        <time>2021-03-27T18:31:07Z</time>
      </trkpt>
      <trkpt lat="43.121496" lon="-3.579022">
        <ele>848.47</ele>
        <time>2021-03-27T18:31:08Z</time>
      </trkpt>
      <trkpt lat="43.121402" lon="-3.579761">
        <ele>851.01</ele>
        <time>2021-03-27T18:31:09Z</time>
      </trkpt>
      <trkpt lat="43.121412" lon="-3.579939">
        <ele>850.53</ele>
        <time>2021-03-27T18:31:10Z</time>
      </trkpt>
      <trkpt lat="43.121445" lon="-3.580128">
        <ele>850.62</ele>
        <time>2021-03-27T18:31:11Z</time>
      </trkpt>
      <trkpt lat="43.121629" lon="-3.580582">
        <ele>857.01</ele>
        <time>2021-03-27T18:31:12Z</time>
      </trkpt>
      <trkpt lat="43.121641" lon="-3.580655">
        <ele>857.65</ele>
        <time>2021-03-27T18:31:13Z</time>
      </trkpt>
      <trkpt lat="43.121605" lon="-3.580797">
        <ele>857.28</ele>
        <time>2021-03-27T18:31:14Z</time>
      </trkpt>
      <trkpt lat="43.12142" lon="-3.581072">
        <ele>854.42</ele>
        <time>2021-03-27T18:31:15Z</time>
      </trkpt>
      <trkpt lat="43.121376" lon="-3.581209">
        <ele>854.75</ele>
        <time>2021-03-27T18:31:16Z</time>
      </trkpt>
      <trkpt lat="43.121302" lon="-3.581959">
        <ele>857.2</ele>
        <time>2021-03-27T18:31:17Z</time>
      </trkpt>
      <trkpt lat="43.121308" lon="-3.582166">
        <ele>858.29</ele>
        <time>2021-03-27T18:31:18Z</time>
      </trkpt>
      <trkpt lat="43.121333" lon="-3.582316">
        <ele>859.88</ele>
        <time>2021-03-27T18:31:19Z</time>
      </trkpt>
      <trkpt lat="43.121563" lon="-3.582884">
        <ele>868.62</ele>
        <time>2021-03-27T18:31:20Z</time>
      </trkpt>
      <trkpt lat="43.121605" lon="-3.583041">
        <ele>870.37</ele>
        <time>2021-03-27T18:31:21Z</time>
      </trkpt>
      <trkpt lat="43.121625" lon="-3.583181">
        <ele>871.8</ele>
        <time>2021-03-27T18:31:22Z</time>
      </trkpt>
      <trkpt lat="43.121626" lon="-3.58342">
        <ele>873.05</ele>
        <time>2021-03-27T18:31:23Z</time>
      </trkpt>
      <trkpt lat="43.121643" lon="-3.583498">
        <ele>873.82</ele>
        <time>2021-03-27T18:31:24Z</time>
      </trkpt>
      <trkpt lat="43.121699" lon="-3.583585">
        <ele>875.82</ele>
        <time>2021-03-27T18:31:25Z</time>
      </trkpt>
      <trkpt lat="43.121737" lon="-3.583599">
        <ele>876.95</ele>
        <time>2021-03-27T18:31:26Z</time>
      </trkpt>
      <trkpt lat="43.121802" lon="-3.583581">
        <ele>878.63</ele>
        <time>2021-03-27T18:31:27Z</time>
      </trkpt>
      <trkpt lat="43.12185" lon="-3.583518">
        <ele>879.28</ele>
        <time>2021-03-27T18:31:28Z</time>
      </trkpt>
      <trkpt lat="43.121888" lon="-3.583307">
        <ele>877.8</ele>
        <time>2021-03-27T18:31:29Z</time>
      </trkpt>
      <trkpt lat="43.121891" lon="-3.582907">
        <ele>875.4</ele>
        <time>2021-03-27T18:31:30Z</time>
      </trkpt>
      <trkpt lat="43.121913" lon="-3.582778">
        <ele>875.33</ele>
        <time>2021-03-27T18:31:31Z</time>
      </trkpt>
      <trkpt lat="43.121979" lon="-3.582604">
        <ele>876.32</ele>
        <time>2021-03-27T18:31:32Z</time>
      </trkpt>
      <trkpt lat="43.122543" lon="-3.581786">
        <ele>883.08</ele>
        <time>2021-03-27T18:31:33Z</time>
      </trkpt>
      <trkpt lat="43.12282" lon="-3.581455">
        <ele>885.21</ele>
        <time>2021-03-27T18:31:34Z</time>
      </trkpt>
      <trkpt lat="43.122929" lon="-3.581366">
        <ele>885.86</ele>
        <time>2021-03-27T18:31:35Z</time>
      </trkpt>
      <trkpt lat="43.123266" lon="-3.5812">
        <ele>890.51</ele>
        <time>2021-03-27T18:31:36Z</time>
      </trkpt>
      <trkpt lat="43.123322" lon="-3.581138">
        <ele>891.07</ele>
        <time>2021-03-27T18:31:37Z</time>
      </trkpt>
      <trkpt lat="43.123344" lon="-3.581082">
        <ele>890.93</ele>
        <time>2021-03-27T18:31:38Z</time>
      </trkpt>
      <trkpt lat="43.12339" lon="-3.580842">
        <ele>889.7</ele>
        <time>2021-03-27T18:31:39Z</time>
      </trkpt>
      <trkpt lat="43.12339" lon="-3.580712">
        <ele>889.97</ele>
        <time>2021-03-27T18:31:40Z</time>
      </trkpt>
      <trkpt lat="43.123274" lon="-3.580165">
        <ele>889.92</ele>
        <time>2021-03-27T18:31:41Z</time>
      </trkpt>
      <trkpt lat="43.123214" lon="-3.579777">
        <ele>889.11</ele>
        <time>2021-03-27T18:31:42Z</time>
      </trkpt>
      <trkpt lat="43.123227" lon="-3.579703">
        <ele>889.51</ele>
        <time>2021-03-27T18:31:43Z</time>
      </trkpt>
      <trkpt lat="43.12328" lon="-3.579586">
        <ele>890.86</ele>
        <time>2021-03-27T18:31:44Z</time>
      </trkpt>
      <trkpt lat="43.123496" lon="-3.579373">
        <ele>894.46</ele>
        <time>2021-03-27T18:31:45Z</time>
      </trkpt>
      <trkpt lat="43.12355" lon="-3.579342">
        <ele>895.37</ele>
        <time>2021-03-27T18:31:46Z</time>
      </trkpt>
      <trkpt lat="43.123603" lon="-3.579334">
        <ele>896.43</ele>
        <time>2021-03-27T18:31:47Z</time>
      </trkpt>
      <trkpt lat="43.123933" lon="-3.579428">
        <ele>902.55</ele>
        <time>2021-03-27T18:31:48Z</time>
      </trkpt>
      <trkpt lat="43.124022" lon="-3.579421">
        <ele>905.71</ele>
        <time>2021-03-27T18:31:49Z</time>
      </trkpt>
      <trkpt lat="43.124073" lon="-3.579393">
        <ele>907.38</ele>
        <time>2021-03-27T18:31:50Z</time>
      </trkpt>
      <trkpt lat="43.12412" lon="-3.57934">
        <ele>908.69</ele>
        <time>2021-03-27T18:31:51Z</time>
      </trkpt>
      <trkpt lat="43.124237" lon="-3.579022">
        <ele>908.43</ele>
        <time>2021-03-27T18:31:52Z</time>
      </trkpt>
      <trkpt lat="43.124319" lon="-3.578874">
        <ele>908.11</ele>
        <time>2021-03-27T18:31:53Z</time>
      </trkpt>
      <trkpt lat="43.124397" lon="-3.578814">
        <ele>909.13</ele>
        <time>2021-03-27T18:31:54Z</time>
      </trkpt>
      <trkpt lat="43.124877" lon="-3.578642">
        <ele>913.82</ele>
        <time>2021-03-27T18:31:55Z</time>
      </trkpt>
      <trkpt lat="43.12497" lon="-3.578571">
        <ele>914.83</ele>
        <time>2021-03-27T18:31:56Z</time>
      </trkpt>
      <trkpt lat="43.125134" lon="-3.578111">
        <ele>917.55</ele>
        <time>2021-03-27T18:31:57Z</time>
      </trkpt>
      <trkpt lat="43.125173" lon="-3.578073">
        <ele>917.91</ele>
        <time>2021-03-27T18:31:58Z</time>
      </trkpt>
      <trkpt lat="43.125243" lon="-3.578073">
        <ele>918.68</ele>
        <time>2021-03-27T18:31:59Z</time>
      </trkpt>
      <trkpt lat="43.12531" lon="-3.578112">
        <ele>919.48</ele>
        <time>2021-03-27T18:32:00Z</time>
      </trkpt>
      <trkpt lat="43.125408" lon="-3.578227">
        <ele>921.13</ele>
        <time>2021-03-27T18:32:01Z</time>
      </trkpt>
      <trkpt lat="43.125476" lon="-3.578374">
        <ele>922.92</ele>
        <time>2021-03-27T18:32:02Z</time>
      </trkpt>
      <trkpt lat="43.125483" lon="-3.578449">
        <ele>923.15</ele>
        <time>2021-03-27T18:32:03Z</time>
      </trkpt>
      <trkpt lat="43.125467" lon="-3.578574">
        <ele>923.04</ele>
        <time>2021-03-27T18:32:04Z</time>
      </trkpt>
      <trkpt lat="43.125341" lon="-3.579065">
        <ele>922.49</ele>
        <time>2021-03-27T18:32:05Z</time>
      </trkpt>
      <trkpt lat="43.125279" lon="-3.579468">
        <ele>924.02</ele>
        <time>2021-03-27T18:32:06Z</time>
      </trkpt>
      <trkpt lat="43.125292" lon="-3.579694">
        <ele>924.25</ele>
        <time>2021-03-27T18:32:07Z</time>
      </trkpt>
      <trkpt lat="43.125346" lon="-3.580139">
        <ele>925.84</ele>
        <time>2021-03-27T18:32:08Z</time>
      </trkpt>
      <trkpt lat="43.125313" lon="-3.580313">
        <ele>925.52</ele>
        <time>2021-03-27T18:32:09Z</time>
      </trkpt>
      <trkpt lat="43.125197" lon="-3.580638">
        <ele>926.08</ele>
        <time>2021-03-27T18:32:10Z</time>
      </trkpt>
      <trkpt lat="43.125174" lon="-3.580811">
        <ele>927.71</ele>
        <time>2021-03-27T18:32:11Z</time>
      </trkpt>
      <trkpt lat="43.125227" lon="-3.581223">
        <ele>934.41</ele>
        <time>2021-03-27T18:32:12Z</time>
      </trkpt>
      <trkpt lat="43.125212" lon="-3.581441">
        <ele>935.91</ele>
        <time>2021-03-27T18:32:13Z</time>
      </trkpt>
      <trkpt lat="43.12517" lon="-3.581677">
        <ele>937.38</ele>
        <time>2021-03-27T18:32:14Z</time>
      </trkpt>
      <trkpt lat="43.125183" lon="-3.581761">
        <ele>938.42</ele>
        <time>2021-03-27T18:32:15Z</time>
      </trkpt>
      <trkpt lat="43.125246" lon="-3.581786">
        <ele>940.12</ele>
        <time>2021-03-27T18:32:16Z</time>
      </trkpt>
      <trkpt lat="43.12529" lon="-3.581767">
        <ele>941.04</ele>
        <time>2021-03-27T18:32:17Z</time>
      </trkpt>
      <trkpt lat="43.125414" lon="-3.581555">
        <ele>942.43</ele>
        <time>2021-03-27T18:32:18Z</time>
      </trkpt>
      <trkpt lat="43.125442" lon="-3.581467">
        <ele>942.41</ele>
        <time>2021-03-27T18:32:19Z</time>
      </trkpt>
      <trkpt lat="43.125485" lon="-3.581196">
        <ele>941.58</ele>
        <time>2021-03-27T18:32:20Z</time>
      </trkpt>
      <trkpt lat="43.125545" lon="-3.581053">
        <ele>942.07</ele>
        <time>2021-03-27T18:32:21Z</time>
      </trkpt>
      <trkpt lat="43.125621" lon="-3.580993">
        <ele>943.13</ele>
        <time>2021-03-27T18:32:22Z</time>
      </trkpt>
      <trkpt lat="43.125885" lon="-3.580894">
        <ele>947.73</ele>
        <time>2021-03-27T18:32:23Z</time>
      </trkpt>
      <trkpt lat="43.125951" lon="-3.580828">
        <ele>948.5</ele>
        <time>2021-03-27T18:32:24Z</time>
      </trkpt>
      <trkpt lat="43.125989" lon="-3.580756">
        <ele>948.54</ele>
        <time>2021-03-27T18:32:25Z</time>
      </trkpt>
      <trkpt lat="43.126192" lon="-3.58019">
        <ele>946.79</ele>
        <time>2021-03-27T18:32:27Z</time>
      </trkpt>
      <trkpt lat="43.126289" lon="-3.58006">
        <ele>947.34</ele>
        <time>2021-03-27T18:32:28Z</time>
      </trkpt>
      <trkpt lat="43.126436" lon="-3.579997">
        <ele>949.63</ele>
        <time>2021-03-27T18:32:29Z</time>
      </trkpt>
      <trkpt lat="43.126532" lon="-3.579997">
        <ele>951.02</ele>
        <time>2021-03-27T18:32:30Z</time>
      </trkpt>
      <trkpt lat="43.126798" lon="-3.580051">
        <ele>955.36</ele>
        <time>2021-03-27T18:32:31Z</time>
      </trkpt>
      <trkpt lat="43.126868" lon="-3.580004">
        <ele>955.93</ele>
        <time>2021-03-27T18:32:32Z</time>
      </trkpt>
      <trkpt lat="43.126911" lon="-3.579947">
        <ele>956.31</ele>
        <time>2021-03-27T18:32:33Z</time>
      </trkpt>
      <trkpt lat="43.126946" lon="-3.579861">
        <ele>956.53</ele>
        <time>2021-03-27T18:32:34Z</time>
      </trkpt>
      <trkpt lat="43.12697" lon="-3.579741">
        <ele>956.63</ele>
        <time>2021-03-27T18:32:35Z</time>
      </trkpt>
      <trkpt lat="43.126993" lon="-3.57922">
        <ele>956.31</ele>
        <time>2021-03-27T18:32:36Z</time>
      </trkpt>
      <trkpt lat="43.127016" lon="-3.579172">
        <ele>956.28</ele>
        <time>2021-03-27T18:32:37Z</time>
      </trkpt>
      <trkpt lat="43.127061" lon="-3.579137">
        <ele>956.07</ele>
        <time>2021-03-27T18:32:38Z</time>
      </trkpt>
      <trkpt lat="43.12716" lon="-3.579119">
        <ele>956.04</ele>
        <time>2021-03-27T18:32:39Z</time>
      </trkpt>
      <trkpt lat="43.127595" lon="-3.5794">
        <ele>961.83</ele>
        <time>2021-03-27T18:32:40Z</time>
      </trkpt>
      <trkpt lat="43.12788" lon="-3.579495">
        <ele>962.54</ele>
        <time>2021-03-27T18:32:41Z</time>
      </trkpt>
      <trkpt lat="43.128238" lon="-3.579663">
        <ele>963.99</ele>
        <time>2021-03-27T18:32:42Z</time>
      </trkpt>
      <trkpt lat="43.128372" lon="-3.579779">
        <ele>966.48</ele>
        <time>2021-03-27T18:32:43Z</time>
      </trkpt>
      <trkpt lat="43.128532" lon="-3.579989">
        <ele>971.5</ele>
        <time>2021-03-27T18:32:44Z</time>
      </trkpt>
      <trkpt lat="43.12858" lon="-3.580012">
        <ele>972.01</ele>
        <time>2021-03-27T18:32:45Z</time>
      </trkpt>
      <trkpt lat="43.128689" lon="-3.580006">
        <ele>972.92</ele>
        <time>2021-03-27T18:32:46Z</time>
      </trkpt>
      <trkpt lat="43.128744" lon="-3.579973">
        <ele>972.86</ele>
        <time>2021-03-27T18:32:47Z</time>
      </trkpt>
      <trkpt lat="43.128886" lon="-3.579822">
        <ele>970.49</ele>
        <time>2021-03-27T18:32:48Z</time>
      </trkpt>
      <trkpt lat="43.129" lon="-3.579751">
        <ele>970.33</ele>
        <time>2021-03-27T18:32:49Z</time>
      </trkpt>
      <trkpt lat="43.129147" lon="-3.579745">
        <ele>972.29</ele>
        <time>2021-03-27T18:32:50Z</time>
      </trkpt>
      <trkpt lat="43.129335" lon="-3.579818">
        <ele>976.24</ele>
        <time>2021-03-27T18:32:51Z</time>
      </trkpt>
      <trkpt lat="43.129463" lon="-3.579826">
        <ele>978.01</ele>
        <time>2021-03-27T18:32:52Z</time>
      </trkpt>
      <trkpt lat="43.129546" lon="-3.579751">
        <ele>977.9</ele>
        <time>2021-03-27T18:32:53Z</time>
      </trkpt>
      <trkpt lat="43.12964" lon="-3.579572">
        <ele>975.83</ele>
        <time>2021-03-27T18:32:54Z</time>
      </trkpt>
      <trkpt lat="43.12972" lon="-3.579487">
        <ele>975.86</ele>
        <time>2021-03-27T18:32:55Z</time>
      </trkpt>
      <trkpt lat="43.129933" lon="-3.579438">
        <ele>979.41</ele>
        <time>2021-03-27T18:32:56Z</time>
      </trkpt>
      <trkpt lat="43.129977" lon="-3.579412">
        <ele>979.82</ele>
        <time>2021-03-27T18:32:57Z</time>
      </trkpt>
      <trkpt lat="43.130017" lon="-3.579374">
        <ele>979.9</ele>
        <time>2021-03-27T18:32:58Z</time>
      </trkpt>
      <trkpt lat="43.130698" lon="-3.578314">
        <ele>979.78</ele>
        <time>2021-03-27T18:32:59Z</time>
      </trkpt>
      <trkpt lat="43.130756" lon="-3.57823">
        <ele>979.58</ele>
        <time>2021-03-27T18:33:00Z</time>
      </trkpt>
      <trkpt lat="43.130801" lon="-3.578197">
        <ele>979.91</ele>
        <time>2021-03-27T18:33:01Z</time>
      </trkpt>
      <trkpt lat="43.130897" lon="-3.578164">
        <ele>979.9</ele>
        <time>2021-03-27T18:33:02Z</time>
      </trkpt>
      <trkpt lat="43.130997" lon="-3.578192">
        <ele>980.46</ele>
        <time>2021-03-27T18:33:03Z</time>
      </trkpt>
      <trkpt lat="43.131259" lon="-3.578365">
        <ele>983.22</ele>
        <time>2021-03-27T18:33:04Z</time>
      </trkpt>
      <trkpt lat="43.131407" lon="-3.578416">
        <ele>983.59</ele>
        <time>2021-03-27T18:33:05Z</time>
      </trkpt>
      <trkpt lat="43.131604" lon="-3.578407">
        <ele>985.45</ele>
        <time>2021-03-27T18:33:06Z</time>
      </trkpt>
      <trkpt lat="43.132925" lon="-3.578027">
        <ele>989.38</ele>
        <time>2021-03-27T18:33:07Z</time>
      </trkpt>
      <trkpt lat="43.13363" lon="-3.577844">
        <ele>989.79</ele>
        <time>2021-03-27T18:33:08Z</time>
      </trkpt>
      <trkpt lat="43.133754" lon="-3.577867">
        <ele>989.07</ele>
        <time>2021-03-27T18:33:09Z</time>
      </trkpt>
      <trkpt lat="43.133977" lon="-3.57806">
        <ele>992.73</ele>
        <time>2021-03-27T18:33:10Z</time>
      </trkpt>
      <trkpt lat="43.134071" lon="-3.578083">
        <ele>993.83</ele>
        <time>2021-03-27T18:33:11Z</time>
      </trkpt>
      <trkpt lat="43.134158" lon="-3.578041">
        <ele>993.57</ele>
        <time>2021-03-27T18:33:12Z</time>
      </trkpt>
      <trkpt lat="43.134452" lon="-3.577737">
        <ele>987.93</ele>
        <time>2021-03-27T18:33:13Z</time>
      </trkpt>
      <trkpt lat="43.134575" lon="-3.577658">
        <ele>987.44</ele>
        <time>2021-03-27T18:33:14Z</time>
      </trkpt>
      <trkpt lat="43.134791" lon="-3.577557">
        <ele>987.78</ele>
        <time>2021-03-27T18:33:15Z</time>
      </trkpt>
      <trkpt lat="43.134975" lon="-3.577528">
        <ele>990.17</ele>
        <time>2021-03-27T18:33:16Z</time>
      </trkpt>
      <trkpt lat="43.135721" lon="-3.577694">
        <ele>991.43</ele>
        <time>2021-03-27T18:33:17Z</time>
      </trkpt>
      <trkpt lat="43.13588" lon="-3.577771">
        <ele>991.7</ele>
        <time>2021-03-27T18:33:18Z</time>
      </trkpt>
      <trkpt lat="43.136095" lon="-3.57791">
        <ele>993.47</ele>
        <time>2021-03-27T18:33:19Z</time>
      </trkpt>
      <trkpt lat="43.136292" lon="-3.578143">
        <ele>993.45</ele>
        <time>2021-03-27T18:33:20Z</time>
      </trkpt>
      <trkpt lat="43.136639" lon="-3.578741">
        <ele>994.46</ele>
        <time>2021-03-27T18:33:21Z</time>
      </trkpt>
      <trkpt lat="43.137015" lon="-3.579124">
        <ele>998.98</ele>
        <time>2021-03-27T18:33:22Z</time>
      </trkpt>
      <trkpt lat="43.137074" lon="-3.579209">
        <ele>1000.22</ele>
        <time>2021-03-27T18:33:23Z</time>
      </trkpt>
      <trkpt lat="43.137193" lon="-3.579516">
        <ele>1003.5</ele>
        <time>2021-03-27T18:33:24Z</time>
      </trkpt>
      <trkpt lat="43.137357" lon="-3.579804">
        <ele>1006.07</ele>
        <time>2021-03-27T18:33:25Z</time>
      </trkpt>
      <trkpt lat="43.137438" lon="-3.579904">
        <ele>1006.55</ele>
        <time>2021-03-27T18:33:26Z</time>
      </trkpt>
      <trkpt lat="43.137497" lon="-3.579937">
        <ele>1006.35</ele>
        <time>2021-03-27T18:33:27Z</time>
      </trkpt>
      <trkpt lat="43.137554" lon="-3.579932">
        <ele>1007.14</ele>
        <time>2021-03-27T18:33:28Z</time>
      </trkpt>
      <trkpt lat="43.137663" lon="-3.579855">
        <ele>1008.39</ele>
        <time>2021-03-27T18:33:29Z</time>
      </trkpt>
      <trkpt lat="43.137686" lon="-3.579792">
        <ele>1008.43</ele>
        <time>2021-03-27T18:33:30Z</time>
      </trkpt>
      <trkpt lat="43.137678" lon="-3.579718">
        <ele>1007.81</ele>
        <time>2021-03-27T18:33:31Z</time>
      </trkpt>
      <trkpt lat="43.137613" lon="-3.579489">
        <ele>1004.42</ele>
        <time>2021-03-27T18:33:32Z</time>
      </trkpt>
      <trkpt lat="43.13759" lon="-3.579293">
        <ele>1002.17</ele>
        <time>2021-03-27T18:33:33Z</time>
      </trkpt>
      <trkpt lat="43.137581" lon="-3.578549">
        <ele>1000.76</ele>
        <time>2021-03-27T18:33:34Z</time>
      </trkpt>
      <trkpt lat="43.137514" lon="-3.57812">
        <ele>1006.41</ele>
        <time>2021-03-27T18:33:35Z</time>
      </trkpt>
      <trkpt lat="43.137529" lon="-3.577912">
        <ele>1008.72</ele>
        <time>2021-03-27T18:33:36Z</time>
      </trkpt>
      <trkpt lat="43.137568" lon="-3.577801">
        <ele>1010.32</ele>
        <time>2021-03-27T18:33:37Z</time>
      </trkpt>
      <trkpt lat="43.137604" lon="-3.577734">
        <ele>1010.74</ele>
        <time>2021-03-27T18:33:38Z</time>
      </trkpt>
      <trkpt lat="43.137722" lon="-3.577622">
        <ele>1012.44</ele>
        <time>2021-03-27T18:33:39Z</time>
      </trkpt>
      <trkpt lat="43.138263" lon="-3.577253">
        <ele>1012.38</ele>
        <time>2021-03-27T18:33:40Z</time>
      </trkpt>
      <trkpt lat="43.138399" lon="-3.577183">
        <ele>1011.77</ele>
        <time>2021-03-27T18:33:41Z</time>
      </trkpt>
      <trkpt lat="43.138532" lon="-3.577139">
        <ele>1011.93</ele>
        <time>2021-03-27T18:33:42Z</time>
      </trkpt>
      <trkpt lat="43.138635" lon="-3.577128">
        <ele>1012.53</ele>
        <time>2021-03-27T18:33:43Z</time>
      </trkpt>
      <trkpt lat="43.139012" lon="-3.577148">
        <ele>1016.84</ele>
        <time>2021-03-27T18:33:44Z</time>
      </trkpt>
      <trkpt lat="43.139195" lon="-3.577179">
        <ele>1019.05</ele>
        <time>2021-03-27T18:33:45Z</time>
      </trkpt>
      <trkpt lat="43.140046" lon="-3.577432">
        <ele>1023.65</ele>
        <time>2021-03-27T18:33:46Z</time>
      </trkpt>
      <trkpt lat="43.140744" lon="-3.577456">
        <ele>1027.1</ele>
        <time>2021-03-27T18:33:47Z</time>
      </trkpt>
      <trkpt lat="43.140882" lon="-3.577526">
        <ele>1028.74</ele>
        <time>2021-03-27T18:33:48Z</time>
      </trkpt>
      <trkpt lat="43.141112" lon="-3.577723">
        <ele>1033.82</ele>
        <time>2021-03-27T18:33:49Z</time>
      </trkpt>
      <trkpt lat="43.141248" lon="-3.577788">
        <ele>1035.67</ele>
        <time>2021-03-27T18:33:50Z</time>
      </trkpt>
      <trkpt lat="43.141433" lon="-3.577794">
        <ele>1036.61</ele>
        <time>2021-03-27T18:33:51Z</time>
      </trkpt>
      <trkpt lat="43.141865" lon="-3.577747">
        <ele>1039.98</ele>
        <time>2021-03-27T18:33:52Z</time>
      </trkpt>
      <trkpt lat="43.142105" lon="-3.577783">
        <ele>1045.01</ele>
        <time>2021-03-27T18:33:53Z</time>
      </trkpt>
      <trkpt lat="43.14219" lon="-3.57781">
        <ele>1047.11</ele>
        <time>2021-03-27T18:33:54Z</time>
      </trkpt>
      <trkpt lat="43.14235" lon="-3.577943">
        <ele>1048.18</ele>
        <time>2021-03-27T18:33:55Z</time>
      </trkpt>
      <trkpt lat="43.14243" lon="-3.578078">
        <ele>1048.64</ele>
        <time>2021-03-27T18:33:56Z</time>
      </trkpt>
      <trkpt lat="43.142564" lon="-3.578393">
        <ele>1049.16</ele>
        <time>2021-03-27T18:33:57Z</time>
      </trkpt>
      <trkpt lat="43.14263" lon="-3.578449">
        <ele>1049.21</ele>
        <time>2021-03-27T18:33:58Z</time>
      </trkpt>
      <trkpt lat="43.142764" lon="-3.578472">
        <ele>1047.7</ele>
        <time>2021-03-27T18:33:59Z</time>
      </trkpt>
      <trkpt lat="43.142911" lon="-3.578414">
        <ele>1048.85</ele>
        <time>2021-03-27T18:34:00Z</time>
      </trkpt>
      <trkpt lat="43.143044" lon="-3.578398">
        <ele>1050.95</ele>
        <time>2021-03-27T18:34:01Z</time>
      </trkpt>
      <trkpt lat="43.143512" lon="-3.578577">
        <ele>1057.51</ele>
        <time>2021-03-27T18:34:02Z</time>
      </trkpt>
      <trkpt lat="43.143782" lon="-3.578579">
        <ele>1056.92</ele>
        <time>2021-03-27T18:34:03Z</time>
      </trkpt>
      <trkpt lat="43.143952" lon="-3.578626">
        <ele>1057.09</ele>
        <time>2021-03-27T18:34:04Z</time>
      </trkpt>
      <trkpt lat="43.144086" lon="-3.578739">
        <ele>1057.59</ele>
        <time>2021-03-27T18:34:05Z</time>
      </trkpt>
      <trkpt lat="43.144161" lon="-3.578865">
        <ele>1057.93</ele>
        <time>2021-03-27T18:34:06Z</time>
      </trkpt>
      <trkpt lat="43.144187" lon="-3.578979">
        <ele>1058.82</ele>
        <time>2021-03-27T18:34:07Z</time>
      </trkpt>
      <trkpt lat="43.144186" lon="-3.579046">
        <ele>1059.31</ele>
        <time>2021-03-27T18:34:08Z</time>
      </trkpt>
      <trkpt lat="43.144124" lon="-3.579414">
        <ele>1062.83</ele>
        <time>2021-03-27T18:34:09Z</time>
      </trkpt>
      <trkpt lat="43.144127" lon="-3.579507">
        <ele>1064.23</ele>
        <time>2021-03-27T18:34:10Z</time>
      </trkpt>
      <trkpt lat="43.144141" lon="-3.579586">
        <ele>1065.59</ele>
        <time>2021-03-27T18:34:11Z</time>
      </trkpt>
      <trkpt lat="43.144206" lon="-3.579712">
        <ele>1067.69</ele>
        <time>2021-03-27T18:34:12Z</time>
      </trkpt>
      <trkpt lat="43.144286" lon="-3.579786">
        <ele>1068.13</ele>
        <time>2021-03-27T18:34:13Z</time>
      </trkpt>
      <trkpt lat="43.144726" lon="-3.580028">
        <ele>1070.21</ele>
        <time>2021-03-27T18:34:14Z</time>
      </trkpt>
      <trkpt lat="43.144788" lon="-3.580075">
        <ele>1070.65</ele>
        <time>2021-03-27T18:34:15Z</time>
      </trkpt>
      <trkpt lat="43.144859" lon="-3.58018">
        <ele>1071.15</ele>
        <time>2021-03-27T18:34:16Z</time>
      </trkpt>
      <trkpt lat="43.144923" lon="-3.580372">
        <ele>1071.96</ele>
        <time>2021-03-27T18:34:17Z</time>
      </trkpt>
      <trkpt lat="43.145036" lon="-3.581275">
        <ele>1079.67</ele>
        <time>2021-03-27T18:34:18Z</time>
      </trkpt>
      <trkpt lat="43.145061" lon="-3.581354">
        <ele>1080.97</ele>
        <time>2021-03-27T18:34:19Z</time>
      </trkpt>
      <trkpt lat="43.145137" lon="-3.581461">
        <ele>1082.77</ele>
        <time>2021-03-27T18:34:20Z</time>
      </trkpt>
      <trkpt lat="43.145282" lon="-3.581559">
        <ele>1084.26</ele>
        <time>2021-03-27T18:34:21Z</time>
      </trkpt>
      <trkpt lat="43.145875" lon="-3.581766">
        <ele>1089.12</ele>
        <time>2021-03-27T18:34:22Z</time>
      </trkpt>
      <trkpt lat="43.14597" lon="-3.581819">
        <ele>1089.92</ele>
        <time>2021-03-27T18:34:23Z</time>
      </trkpt>
      <trkpt lat="43.14605" lon="-3.581886">
        <ele>1090.98</ele>
        <time>2021-03-27T18:34:24Z</time>
      </trkpt>
      <trkpt lat="43.146136" lon="-3.581997">
        <ele>1092.39</ele>
        <time>2021-03-27T18:34:25Z</time>
      </trkpt>
      <trkpt lat="43.146231" lon="-3.582158">
        <ele>1093.45</ele>
        <time>2021-03-27T18:34:26Z</time>
      </trkpt>
      <trkpt lat="43.146348" lon="-3.582437">
        <ele>1094.18</ele>
        <time>2021-03-27T18:34:27Z</time>
      </trkpt>
      <trkpt lat="43.14637" lon="-3.582681">
        <ele>1096.07</ele>
        <time>2021-03-27T18:34:28Z</time>
      </trkpt>
      <trkpt lat="43.146373" lon="-3.582985">
        <ele>1099.25</ele>
        <time>2021-03-27T18:34:29Z</time>
      </trkpt>
      <trkpt lat="43.146421" lon="-3.583383">
        <ele>1102.36</ele>
        <time>2021-03-27T18:34:30Z</time>
      </trkpt>
      <trkpt lat="43.146505" lon="-3.583774">
        <ele>1105.17</ele>
        <time>2021-03-27T18:34:31Z</time>
      </trkpt>
      <trkpt lat="43.146557" lon="-3.583866">
        <ele>1105.84</ele>
        <time>2021-03-27T18:34:32Z</time>
      </trkpt>
      <trkpt lat="43.146635" lon="-3.583886">
        <ele>1105.98</ele>
        <time>2021-03-27T18:34:33Z</time>
      </trkpt>
      <trkpt lat="43.147231" lon="-3.583701">
        <ele>1107.81</ele>
        <time>2021-03-27T18:34:34Z</time>
      </trkpt>
      <trkpt lat="43.147357" lon="-3.583641">
        <ele>1109.64</ele>
        <time>2021-03-27T18:34:35Z</time>
      </trkpt>
      <trkpt lat="43.147435" lon="-3.58355">
        <ele>1110.12</ele>
        <time>2021-03-27T18:34:36Z</time>
      </trkpt>
      <trkpt lat="43.14752" lon="-3.583341">
        <ele>1109.74</ele>
        <time>2021-03-27T18:34:37Z</time>
      </trkpt>
      <trkpt lat="43.148043" lon="-3.58138">
        <ele>1121.6</ele>
        <time>2021-03-27T18:34:38Z</time>
      </trkpt>
      <trkpt lat="43.148053" lon="-3.581256">
        <ele>1121.91</ele>
        <time>2021-03-27T18:34:39Z</time>
      </trkpt>
      <trkpt lat="43.148036" lon="-3.580824">
        <ele>1122.42</ele>
        <time>2021-03-27T18:34:40Z</time>
      </trkpt>
      <trkpt lat="43.148064" lon="-3.580569">
        <ele>1124.21</ele>
        <time>2021-03-27T18:34:41Z</time>
      </trkpt>
      <trkpt lat="43.148495" lon="-3.578669">
        <ele>1133.58</ele>
        <time>2021-03-27T18:34:42Z</time>
      </trkpt>
      <trkpt lat="43.148537" lon="-3.578575">
        <ele>1133.71</ele>
        <time>2021-03-27T18:34:43Z</time>
      </trkpt>
      <trkpt lat="43.148611" lon="-3.578479">
        <ele>1134.57</ele>
        <time>2021-03-27T18:34:44Z</time>
      </trkpt>
      <trkpt lat="43.148989" lon="-3.578129">
        <ele>1137.85</ele>
        <time>2021-03-27T18:34:45Z</time>
      </trkpt>
      <trkpt lat="43.149527" lon="-3.577668">
        <ele>1144.41</ele>
        <time>2021-03-27T18:34:46Z</time>
      </trkpt>
      <trkpt lat="43.14996" lon="-3.577193">
        <ele>1149.09</ele>
        <time>2021-03-27T18:34:47Z</time>
      </trkpt>
      <trkpt lat="43.150096" lon="-3.576993">
        <ele>1151.73</ele>
        <time>2021-03-27T18:34:48Z</time>
      </trkpt>
      <trkpt lat="43.150213" lon="-3.576564">
        <ele>1155.98</ele>
        <time>2021-03-27T18:34:49Z</time>
      </trkpt>
      <trkpt lat="43.150229" lon="-3.576379">
        <ele>1156.55</ele>
        <time>2021-03-27T18:34:50Z</time>
      </trkpt>
      <trkpt lat="43.150231" lon="-3.5761">
        <ele>1154.96</ele>
        <time>2021-03-27T18:34:51Z</time>
      </trkpt>
      <trkpt lat="43.150272" lon="-3.575938">
        <ele>1155.27</ele>
        <time>2021-03-27T18:34:52Z</time>
      </trkpt>
      <trkpt lat="43.15033" lon="-3.575827">
        <ele>1156.54</ele>
        <time>2021-03-27T18:34:53Z</time>
      </trkpt>
      <trkpt lat="43.150658" lon="-3.575333">
        <ele>1166.46</ele>
        <time>2021-03-27T18:34:54Z</time>
      </trkpt>
      <trkpt lat="43.150748" lon="-3.57514">
        <ele>1168.36</ele>
        <time>2021-03-27T18:34:55Z</time>
      </trkpt>
      <trkpt lat="43.150766" lon="-3.575014">
        <ele>1168.36</ele>
        <time>2021-03-27T18:34:56Z</time>
      </trkpt>
      <trkpt lat="43.150739" lon="-3.574886">
        <ele>1168.03</ele>
        <time>2021-03-27T18:34:57Z</time>
      </trkpt>
      <trkpt lat="43.150704" lon="-3.574803">
        <ele>1167.46</ele>
        <time>2021-03-27T18:34:58Z</time>
      </trkpt>
      <trkpt lat="43.150439" lon="-3.574359">
        <ele>1162.54</ele>
        <time>2021-03-27T18:34:59Z</time>
      </trkpt>
      <trkpt lat="43.150415" lon="-3.574254">
        <ele>1162.49</ele>
        <time>2021-03-27T18:35:00Z</time>
      </trkpt>
      <trkpt lat="43.150445" lon="-3.574166">
        <ele>1163.81</ele>
        <time>2021-03-27T18:35:01Z</time>
      </trkpt>
      <trkpt lat="43.15052" lon="-3.574133">
        <ele>1166.2</ele>
        <time>2021-03-27T18:35:02Z</time>
      </trkpt>
      <trkpt lat="43.150562" lon="-3.574151">
        <ele>1167.39</ele>
        <time>2021-03-27T18:35:03Z</time>
      </trkpt>
      <trkpt lat="43.151109" lon="-3.574907">
        <ele>1184.57</ele>
        <time>2021-03-27T18:35:04Z</time>
      </trkpt>
      <trkpt lat="43.151159" lon="-3.574997">
        <ele>1186.72</ele>
        <time>2021-03-27T18:35:05Z</time>
      </trkpt>
      <trkpt lat="43.151199" lon="-3.575153">
        <ele>1187.01</ele>
        <time>2021-03-27T18:35:06Z</time>
      </trkpt>
      <trkpt lat="43.151239" lon="-3.576486">
        <ele>1190.81</ele>
        <time>2021-03-27T18:35:07Z</time>
      </trkpt>
      <trkpt lat="43.151232" lon="-3.576607">
        <ele>1191.47</ele>
        <time>2021-03-27T18:35:08Z</time>
      </trkpt>
      <trkpt lat="43.151213" lon="-3.576671">
        <ele>1191.64</ele>
        <time>2021-03-27T18:35:10Z</time>
      </trkpt>
      <trkpt lat="43.151213" lon="-3.576671">
        <ele>1191.64</ele>
        <time>2021-03-27T18:35:10Z</time>
      </trkpt>
      <trkpt lat="43.151232" lon="-3.576607">
        <ele>1191.47</ele>
        <time>2021-03-27T18:35:11Z</time>
      </trkpt>
      <trkpt lat="43.151239" lon="-3.576486">
        <ele>1190.81</ele>
        <time>2021-03-27T18:35:12Z</time>
      </trkpt>
      <trkpt lat="43.151199" lon="-3.575153">
        <ele>1187.01</ele>
        <time>2021-03-27T18:35:13Z</time>
      </trkpt>
      <trkpt lat="43.151159" lon="-3.574997">
        <ele>1186.72</ele>
        <time>2021-03-27T18:35:14Z</time>
      </trkpt>
      <trkpt lat="43.151109" lon="-3.574907">
        <ele>1184.57</ele>
        <time>2021-03-27T18:35:15Z</time>
      </trkpt>
      <trkpt lat="43.150562" lon="-3.574151">
        <ele>1167.39</ele>
        <time>2021-03-27T18:35:16Z</time>
      </trkpt>
      <trkpt lat="43.15052" lon="-3.574133">
        <ele>1166.2</ele>
        <time>2021-03-27T18:35:17Z</time>
      </trkpt>
      <trkpt lat="43.150445" lon="-3.574166">
        <ele>1163.81</ele>
        <time>2021-03-27T18:35:18Z</time>
      </trkpt>
      <trkpt lat="43.150415" lon="-3.574254">
        <ele>1162.49</ele>
        <time>2021-03-27T18:35:19Z</time>
      </trkpt>
      <trkpt lat="43.150439" lon="-3.574359">
        <ele>1162.54</ele>
        <time>2021-03-27T18:35:20Z</time>
      </trkpt>
      <trkpt lat="43.150704" lon="-3.574803">
        <ele>1167.46</ele>
        <time>2021-03-27T18:35:21Z</time>
      </trkpt>
      <trkpt lat="43.150739" lon="-3.574886">
        <ele>1168.03</ele>
        <time>2021-03-27T18:35:22Z</time>
      </trkpt>
      <trkpt lat="43.150766" lon="-3.575014">
        <ele>1168.36</ele>
        <time>2021-03-27T18:35:23Z</time>
      </trkpt>
      <trkpt lat="43.150748" lon="-3.57514">
        <ele>1168.36</ele>
        <time>2021-03-27T18:35:24Z</time>
      </trkpt>
      <trkpt lat="43.150658" lon="-3.575333">
        <ele>1166.46</ele>
        <time>2021-03-27T18:35:25Z</time>
      </trkpt>
      <trkpt lat="43.15033" lon="-3.575827">
        <ele>1156.54</ele>
        <time>2021-03-27T18:35:26Z</time>
      </trkpt>
      <trkpt lat="43.150272" lon="-3.575938">
        <ele>1155.27</ele>
        <time>2021-03-27T18:35:27Z</time>
      </trkpt>
      <trkpt lat="43.150231" lon="-3.5761">
        <ele>1154.96</ele>
        <time>2021-03-27T18:35:28Z</time>
      </trkpt>
      <trkpt lat="43.150229" lon="-3.576379">
        <ele>1156.55</ele>
        <time>2021-03-27T18:35:29Z</time>
      </trkpt>
      <trkpt lat="43.150213" lon="-3.576564">
        <ele>1155.98</ele>
        <time>2021-03-27T18:35:30Z</time>
      </trkpt>
      <trkpt lat="43.150096" lon="-3.576993">
        <ele>1151.73</ele>
        <time>2021-03-27T18:35:31Z</time>
      </trkpt>
      <trkpt lat="43.14996" lon="-3.577193">
        <ele>1149.09</ele>
        <time>2021-03-27T18:35:32Z</time>
      </trkpt>
      <trkpt lat="43.149527" lon="-3.577668">
        <ele>1144.41</ele>
        <time>2021-03-27T18:35:33Z</time>
      </trkpt>
      <trkpt lat="43.148989" lon="-3.578129">
        <ele>1137.85</ele>
        <time>2021-03-27T18:35:34Z</time>
      </trkpt>
      <trkpt lat="43.148611" lon="-3.578479">
        <ele>1134.57</ele>
        <time>2021-03-27T18:35:35Z</time>
      </trkpt>
      <trkpt lat="43.148537" lon="-3.578575">
        <ele>1133.71</ele>
        <time>2021-03-27T18:35:36Z</time>
      </trkpt>
      <trkpt lat="43.148495" lon="-3.578669">
        <ele>1133.58</ele>
        <time>2021-03-27T18:35:37Z</time>
      </trkpt>
      <trkpt lat="43.148064" lon="-3.580569">
        <ele>1124.21</ele>
        <time>2021-03-27T18:35:38Z</time>
      </trkpt>
      <trkpt lat="43.148036" lon="-3.580824">
        <ele>1122.42</ele>
        <time>2021-03-27T18:35:39Z</time>
      </trkpt>
      <trkpt lat="43.148053" lon="-3.581256">
        <ele>1121.91</ele>
        <time>2021-03-27T18:35:40Z</time>
      </trkpt>
      <trkpt lat="43.148043" lon="-3.58138">
        <ele>1121.6</ele>
        <time>2021-03-27T18:35:41Z</time>
      </trkpt>
      <trkpt lat="43.14752" lon="-3.583341">
        <ele>1109.74</ele>
        <time>2021-03-27T18:35:42Z</time>
      </trkpt>
      <trkpt lat="43.147435" lon="-3.58355">
        <ele>1110.12</ele>
        <time>2021-03-27T18:35:43Z</time>
      </trkpt>
      <trkpt lat="43.147357" lon="-3.583641">
        <ele>1109.64</ele>
        <time>2021-03-27T18:35:44Z</time>
      </trkpt>
      <trkpt lat="43.147231" lon="-3.583701">
        <ele>1107.81</ele>
        <time>2021-03-27T18:35:45Z</time>
      </trkpt>
      <trkpt lat="43.146635" lon="-3.583886">
        <ele>1105.98</ele>
        <time>2021-03-27T18:35:46Z</time>
      </trkpt>
      <trkpt lat="43.146557" lon="-3.583866">
        <ele>1105.84</ele>
        <time>2021-03-27T18:35:47Z</time>
      </trkpt>
      <trkpt lat="43.146505" lon="-3.583774">
        <ele>1105.17</ele>
        <time>2021-03-27T18:35:48Z</time>
      </trkpt>
      <trkpt lat="43.146421" lon="-3.583383">
        <ele>1102.36</ele>
        <time>2021-03-27T18:35:49Z</time>
      </trkpt>
      <trkpt lat="43.146373" lon="-3.582985">
        <ele>1099.25</ele>
        <time>2021-03-27T18:35:50Z</time>
      </trkpt>
      <trkpt lat="43.14637" lon="-3.582681">
        <ele>1096.07</ele>
        <time>2021-03-27T18:35:51Z</time>
      </trkpt>
      <trkpt lat="43.146348" lon="-3.582437">
        <ele>1094.18</ele>
        <time>2021-03-27T18:35:52Z</time>
      </trkpt>
      <trkpt lat="43.146231" lon="-3.582158">
        <ele>1093.45</ele>
        <time>2021-03-27T18:35:53Z</time>
      </trkpt>
      <trkpt lat="43.146136" lon="-3.581997">
        <ele>1092.39</ele>
        <time>2021-03-27T18:35:54Z</time>
      </trkpt>
      <trkpt lat="43.14605" lon="-3.581886">
        <ele>1090.98</ele>
        <time>2021-03-27T18:35:55Z</time>
      </trkpt>
      <trkpt lat="43.14597" lon="-3.581819">
        <ele>1089.92</ele>
        <time>2021-03-27T18:35:56Z</time>
      </trkpt>
      <trkpt lat="43.145875" lon="-3.581766">
        <ele>1089.12</ele>
        <time>2021-03-27T18:35:57Z</time>
      </trkpt>
      <trkpt lat="43.145282" lon="-3.581559">
        <ele>1084.26</ele>
        <time>2021-03-27T18:35:58Z</time>
      </trkpt>
      <trkpt lat="43.145137" lon="-3.581461">
        <ele>1082.77</ele>
        <time>2021-03-27T18:35:59Z</time>
      </trkpt>
      <trkpt lat="43.145061" lon="-3.581354">
        <ele>1080.97</ele>
        <time>2021-03-27T18:36:00Z</time>
      </trkpt>
      <trkpt lat="43.145036" lon="-3.581275">
        <ele>1079.67</ele>
        <time>2021-03-27T18:36:01Z</time>
      </trkpt>
      <trkpt lat="43.144923" lon="-3.580372">
        <ele>1071.96</ele>
        <time>2021-03-27T18:36:02Z</time>
      </trkpt>
      <trkpt lat="43.144859" lon="-3.58018">
        <ele>1071.15</ele>
        <time>2021-03-27T18:36:03Z</time>
      </trkpt>
      <trkpt lat="43.144788" lon="-3.580075">
        <ele>1070.65</ele>
        <time>2021-03-27T18:36:04Z</time>
      </trkpt>
      <trkpt lat="43.144726" lon="-3.580028">
        <ele>1070.21</ele>
        <time>2021-03-27T18:36:05Z</time>
      </trkpt>
      <trkpt lat="43.144286" lon="-3.579786">
        <ele>1068.13</ele>
        <time>2021-03-27T18:36:06Z</time>
      </trkpt>
      <trkpt lat="43.144206" lon="-3.579712">
        <ele>1067.69</ele>
        <time>2021-03-27T18:36:07Z</time>
      </trkpt>
      <trkpt lat="43.144141" lon="-3.579586">
        <ele>1065.59</ele>
        <time>2021-03-27T18:36:08Z</time>
      </trkpt>
      <trkpt lat="43.144127" lon="-3.579507">
        <ele>1064.23</ele>
        <time>2021-03-27T18:36:09Z</time>
      </trkpt>
      <trkpt lat="43.144124" lon="-3.579414">
        <ele>1062.83</ele>
        <time>2021-03-27T18:36:10Z</time>
      </trkpt>
      <trkpt lat="43.144186" lon="-3.579046">
        <ele>1059.31</ele>
        <time>2021-03-27T18:36:11Z</time>
      </trkpt>
      <trkpt lat="43.144187" lon="-3.578979">
        <ele>1058.82</ele>
        <time>2021-03-27T18:36:12Z</time>
      </trkpt>
      <trkpt lat="43.144161" lon="-3.578865">
        <ele>1057.93</ele>
        <time>2021-03-27T18:36:13Z</time>
      </trkpt>
      <trkpt lat="43.144086" lon="-3.578739">
        <ele>1057.59</ele>
        <time>2021-03-27T18:36:14Z</time>
      </trkpt>
      <trkpt lat="43.143952" lon="-3.578626">
        <ele>1057.09</ele>
        <time>2021-03-27T18:36:15Z</time>
      </trkpt>
      <trkpt lat="43.143782" lon="-3.578579">
        <ele>1056.92</ele>
        <time>2021-03-27T18:36:16Z</time>
      </trkpt>
      <trkpt lat="43.143512" lon="-3.578577">
        <ele>1057.51</ele>
        <time>2021-03-27T18:36:17Z</time>
      </trkpt>
      <trkpt lat="43.143044" lon="-3.578398">
        <ele>1050.95</ele>
        <time>2021-03-27T18:36:18Z</time>
      </trkpt>
      <trkpt lat="43.142911" lon="-3.578414">
        <ele>1048.85</ele>
        <time>2021-03-27T18:36:19Z</time>
      </trkpt>
      <trkpt lat="43.142764" lon="-3.578472">
        <ele>1047.7</ele>
        <time>2021-03-27T18:36:20Z</time>
      </trkpt>
      <trkpt lat="43.14263" lon="-3.578449">
        <ele>1049.21</ele>
        <time>2021-03-27T18:36:21Z</time>
      </trkpt>
      <trkpt lat="43.142564" lon="-3.578393">
        <ele>1049.16</ele>
        <time>2021-03-27T18:36:22Z</time>
      </trkpt>
      <trkpt lat="43.14243" lon="-3.578078">
        <ele>1048.64</ele>
        <time>2021-03-27T18:36:23Z</time>
      </trkpt>
      <trkpt lat="43.14235" lon="-3.577943">
        <ele>1048.18</ele>
        <time>2021-03-27T18:36:24Z</time>
      </trkpt>
      <trkpt lat="43.14219" lon="-3.57781">
        <ele>1047.11</ele>
        <time>2021-03-27T18:36:25Z</time>
      </trkpt>
      <trkpt lat="43.142105" lon="-3.577783">
        <ele>1045.01</ele>
        <time>2021-03-27T18:36:26Z</time>
      </trkpt>
      <trkpt lat="43.141865" lon="-3.577747">
        <ele>1039.98</ele>
        <time>2021-03-27T18:36:27Z</time>
      </trkpt>
      <trkpt lat="43.141433" lon="-3.577794">
        <ele>1036.61</ele>
        <time>2021-03-27T18:36:28Z</time>
      </trkpt>
      <trkpt lat="43.141248" lon="-3.577788">
        <ele>1035.67</ele>
        <time>2021-03-27T18:36:29Z</time>
      </trkpt>
      <trkpt lat="43.141112" lon="-3.577723">
        <ele>1033.82</ele>
        <time>2021-03-27T18:36:30Z</time>
      </trkpt>
      <trkpt lat="43.140882" lon="-3.577526">
        <ele>1028.74</ele>
        <time>2021-03-27T18:36:31Z</time>
      </trkpt>
      <trkpt lat="43.140744" lon="-3.577456">
        <ele>1027.1</ele>
        <time>2021-03-27T18:36:32Z</time>
      </trkpt>
      <trkpt lat="43.140046" lon="-3.577432">
        <ele>1023.65</ele>
        <time>2021-03-27T18:36:33Z</time>
      </trkpt>
      <trkpt lat="43.139195" lon="-3.577179">
        <ele>1019.05</ele>
        <time>2021-03-27T18:36:34Z</time>
      </trkpt>
      <trkpt lat="43.139012" lon="-3.577148">
        <ele>1016.84</ele>
        <time>2021-03-27T18:36:35Z</time>
      </trkpt>
      <trkpt lat="43.138635" lon="-3.577128">
        <ele>1012.53</ele>
        <time>2021-03-27T18:36:36Z</time>
      </trkpt>
      <trkpt lat="43.138532" lon="-3.577139">
        <ele>1011.93</ele>
        <time>2021-03-27T18:36:37Z</time>
      </trkpt>
      <trkpt lat="43.138399" lon="-3.577183">
        <ele>1011.77</ele>
        <time>2021-03-27T18:36:38Z</time>
      </trkpt>
      <trkpt lat="43.138263" lon="-3.577253">
        <ele>1012.38</ele>
        <time>2021-03-27T18:36:39Z</time>
      </trkpt>
      <trkpt lat="43.137722" lon="-3.577622">
        <ele>1012.44</ele>
        <time>2021-03-27T18:36:40Z</time>
      </trkpt>
      <trkpt lat="43.137604" lon="-3.577734">
        <ele>1010.74</ele>
        <time>2021-03-27T18:36:41Z</time>
      </trkpt>
      <trkpt lat="43.137568" lon="-3.577801">
        <ele>1010.32</ele>
        <time>2021-03-27T18:36:42Z</time>
      </trkpt>
      <trkpt lat="43.137529" lon="-3.577912">
        <ele>1008.72</ele>
        <time>2021-03-27T18:36:43Z</time>
      </trkpt>
      <trkpt lat="43.137514" lon="-3.57812">
        <ele>1006.41</ele>
        <time>2021-03-27T18:36:44Z</time>
      </trkpt>
      <trkpt lat="43.137581" lon="-3.578549">
        <ele>1000.76</ele>
        <time>2021-03-27T18:36:45Z</time>
      </trkpt>
      <trkpt lat="43.13759" lon="-3.579293">
        <ele>1002.17</ele>
        <time>2021-03-27T18:36:46Z</time>
      </trkpt>
      <trkpt lat="43.137613" lon="-3.579489">
        <ele>1004.42</ele>
        <time>2021-03-27T18:36:47Z</time>
      </trkpt>
      <trkpt lat="43.137678" lon="-3.579718">
        <ele>1007.81</ele>
        <time>2021-03-27T18:36:48Z</time>
      </trkpt>
      <trkpt lat="43.137686" lon="-3.579792">
        <ele>1008.43</ele>
        <time>2021-03-27T18:36:49Z</time>
      </trkpt>
      <trkpt lat="43.137663" lon="-3.579855">
        <ele>1008.39</ele>
        <time>2021-03-27T18:36:50Z</time>
      </trkpt>
      <trkpt lat="43.137554" lon="-3.579932">
        <ele>1007.14</ele>
        <time>2021-03-27T18:36:51Z</time>
      </trkpt>
      <trkpt lat="43.137497" lon="-3.579937">
        <ele>1006.35</ele>
        <time>2021-03-27T18:36:52Z</time>
      </trkpt>
      <trkpt lat="43.137438" lon="-3.579904">
        <ele>1006.55</ele>
        <time>2021-03-27T18:36:53Z</time>
      </trkpt>
      <trkpt lat="43.137357" lon="-3.579804">
        <ele>1006.07</ele>
        <time>2021-03-27T18:36:54Z</time>
      </trkpt>
      <trkpt lat="43.137193" lon="-3.579516">
        <ele>1003.5</ele>
        <time>2021-03-27T18:36:55Z</time>
      </trkpt>
      <trkpt lat="43.137074" lon="-3.579209">
        <ele>1000.22</ele>
        <time>2021-03-27T18:36:56Z</time>
      </trkpt>
      <trkpt lat="43.137015" lon="-3.579124">
        <ele>998.98</ele>
        <time>2021-03-27T18:36:57Z</time>
      </trkpt>
      <trkpt lat="43.136639" lon="-3.578741">
        <ele>994.46</ele>
        <time>2021-03-27T18:36:58Z</time>
      </trkpt>
      <trkpt lat="43.136292" lon="-3.578143">
        <ele>993.45</ele>
        <time>2021-03-27T18:36:59Z</time>
      </trkpt>
      <trkpt lat="43.136095" lon="-3.57791">
        <ele>993.47</ele>
        <time>2021-03-27T18:37:00Z</time>
      </trkpt>
      <trkpt lat="43.13588" lon="-3.577771">
        <ele>991.7</ele>
        <time>2021-03-27T18:37:01Z</time>
      </trkpt>
      <trkpt lat="43.135721" lon="-3.577694">
        <ele>991.43</ele>
        <time>2021-03-27T18:37:02Z</time>
      </trkpt>
      <trkpt lat="43.134975" lon="-3.577528">
        <ele>990.17</ele>
        <time>2021-03-27T18:37:03Z</time>
      </trkpt>
      <trkpt lat="43.134791" lon="-3.577557">
        <ele>987.78</ele>
        <time>2021-03-27T18:37:04Z</time>
      </trkpt>
      <trkpt lat="43.134575" lon="-3.577658">
        <ele>987.44</ele>
        <time>2021-03-27T18:37:05Z</time>
      </trkpt>
      <trkpt lat="43.134452" lon="-3.577737">
        <ele>987.93</ele>
        <time>2021-03-27T18:37:06Z</time>
      </trkpt>
      <trkpt lat="43.134158" lon="-3.578041">
        <ele>993.57</ele>
        <time>2021-03-27T18:37:07Z</time>
      </trkpt>
      <trkpt lat="43.134071" lon="-3.578083">
        <ele>993.83</ele>
        <time>2021-03-27T18:37:08Z</time>
      </trkpt>
      <trkpt lat="43.133977" lon="-3.57806">
        <ele>992.73</ele>
        <time>2021-03-27T18:37:09Z</time>
      </trkpt>
      <trkpt lat="43.133754" lon="-3.577867">
        <ele>989.07</ele>
        <time>2021-03-27T18:37:10Z</time>
      </trkpt>
      <trkpt lat="43.13363" lon="-3.577844">
        <ele>989.79</ele>
        <time>2021-03-27T18:37:11Z</time>
      </trkpt>
      <trkpt lat="43.132925" lon="-3.578027">
        <ele>989.38</ele>
        <time>2021-03-27T18:37:12Z</time>
      </trkpt>
      <trkpt lat="43.131604" lon="-3.578407">
        <ele>985.45</ele>
        <time>2021-03-27T18:37:13Z</time>
      </trkpt>
      <trkpt lat="43.131407" lon="-3.578416">
        <ele>983.59</ele>
        <time>2021-03-27T18:37:14Z</time>
      </trkpt>
      <trkpt lat="43.131259" lon="-3.578365">
        <ele>983.22</ele>
        <time>2021-03-27T18:37:15Z</time>
      </trkpt>
      <trkpt lat="43.130997" lon="-3.578192">
        <ele>980.46</ele>
        <time>2021-03-27T18:37:16Z</time>
      </trkpt>
      <trkpt lat="43.130897" lon="-3.578164">
        <ele>979.9</ele>
        <time>2021-03-27T18:37:17Z</time>
      </trkpt>
      <trkpt lat="43.130801" lon="-3.578197">
        <ele>979.91</ele>
        <time>2021-03-27T18:37:18Z</time>
      </trkpt>
      <trkpt lat="43.130756" lon="-3.57823">
        <ele>979.58</ele>
        <time>2021-03-27T18:37:19Z</time>
      </trkpt>
      <trkpt lat="43.130698" lon="-3.578314">
        <ele>979.78</ele>
        <time>2021-03-27T18:37:20Z</time>
      </trkpt>
      <trkpt lat="43.130017" lon="-3.579374">
        <ele>979.9</ele>
        <time>2021-03-27T18:37:21Z</time>
      </trkpt>
      <trkpt lat="43.129977" lon="-3.579412">
        <ele>979.82</ele>
        <time>2021-03-27T18:37:22Z</time>
      </trkpt>
      <trkpt lat="43.129933" lon="-3.579438">
        <ele>979.41</ele>
        <time>2021-03-27T18:37:23Z</time>
      </trkpt>
      <trkpt lat="43.12972" lon="-3.579487">
        <ele>975.86</ele>
        <time>2021-03-27T18:37:24Z</time>
      </trkpt>
      <trkpt lat="43.12964" lon="-3.579572">
        <ele>975.83</ele>
        <time>2021-03-27T18:37:25Z</time>
      </trkpt>
      <trkpt lat="43.129546" lon="-3.579751">
        <ele>977.9</ele>
        <time>2021-03-27T18:37:26Z</time>
      </trkpt>
      <trkpt lat="43.129463" lon="-3.579826">
        <ele>978.01</ele>
        <time>2021-03-27T18:37:27Z</time>
      </trkpt>
      <trkpt lat="43.129335" lon="-3.579818">
        <ele>976.24</ele>
        <time>2021-03-27T18:37:28Z</time>
      </trkpt>
      <trkpt lat="43.129147" lon="-3.579745">
        <ele>972.29</ele>
        <time>2021-03-27T18:37:29Z</time>
      </trkpt>
      <trkpt lat="43.129" lon="-3.579751">
        <ele>970.33</ele>
        <time>2021-03-27T18:37:30Z</time>
      </trkpt>
      <trkpt lat="43.128886" lon="-3.579822">
        <ele>970.49</ele>
        <time>2021-03-27T18:37:31Z</time>
      </trkpt>
      <trkpt lat="43.128744" lon="-3.579973">
        <ele>972.86</ele>
        <time>2021-03-27T18:37:32Z</time>
      </trkpt>
      <trkpt lat="43.128689" lon="-3.580006">
        <ele>972.92</ele>
        <time>2021-03-27T18:37:33Z</time>
      </trkpt>
      <trkpt lat="43.12858" lon="-3.580012">
        <ele>972.01</ele>
        <time>2021-03-27T18:37:34Z</time>
      </trkpt>
      <trkpt lat="43.128532" lon="-3.579989">
        <ele>971.5</ele>
        <time>2021-03-27T18:37:35Z</time>
      </trkpt>
      <trkpt lat="43.128372" lon="-3.579779">
        <ele>966.48</ele>
        <time>2021-03-27T18:37:36Z</time>
      </trkpt>
      <trkpt lat="43.128238" lon="-3.579663">
        <ele>963.99</ele>
        <time>2021-03-27T18:37:37Z</time>
      </trkpt>
      <trkpt lat="43.12788" lon="-3.579495">
        <ele>962.54</ele>
        <time>2021-03-27T18:37:38Z</time>
      </trkpt>
      <trkpt lat="43.127595" lon="-3.5794">
        <ele>961.83</ele>
        <time>2021-03-27T18:37:39Z</time>
      </trkpt>
      <trkpt lat="43.12716" lon="-3.579119">
        <ele>956.04</ele>
        <time>2021-03-27T18:37:40Z</time>
      </trkpt>
      <trkpt lat="43.127061" lon="-3.579137">
        <ele>956.07</ele>
        <time>2021-03-27T18:37:41Z</time>
      </trkpt>
      <trkpt lat="43.127016" lon="-3.579172">
        <ele>956.28</ele>
        <time>2021-03-27T18:37:42Z</time>
      </trkpt>
      <trkpt lat="43.126993" lon="-3.57922">
        <ele>956.31</ele>
        <time>2021-03-27T18:37:43Z</time>
      </trkpt>
      <trkpt lat="43.12697" lon="-3.579741">
        <ele>956.63</ele>
        <time>2021-03-27T18:37:44Z</time>
      </trkpt>
      <trkpt lat="43.126946" lon="-3.579861">
        <ele>956.53</ele>
        <time>2021-03-27T18:37:45Z</time>
      </trkpt>
      <trkpt lat="43.126911" lon="-3.579947">
        <ele>956.31</ele>
        <time>2021-03-27T18:37:46Z</time>
      </trkpt>
      <trkpt lat="43.126868" lon="-3.580004">
        <ele>955.93</ele>
        <time>2021-03-27T18:37:47Z</time>
      </trkpt>
      <trkpt lat="43.126798" lon="-3.580051">
        <ele>955.36</ele>
        <time>2021-03-27T18:37:48Z</time>
      </trkpt>
      <trkpt lat="43.126532" lon="-3.579997">
        <ele>951.02</ele>
        <time>2021-03-27T18:37:49Z</time>
      </trkpt>
      <trkpt lat="43.126436" lon="-3.579997">
        <ele>949.63</ele>
        <time>2021-03-27T18:37:50Z</time>
      </trkpt>
      <trkpt lat="43.126289" lon="-3.58006">
        <ele>947.34</ele>
        <time>2021-03-27T18:37:51Z</time>
      </trkpt>
      <trkpt lat="43.126192" lon="-3.58019">
        <ele>946.79</ele>
        <time>2021-03-27T18:37:52Z</time>
      </trkpt>
      <trkpt lat="43.125989" lon="-3.580756">
        <ele>948.54</ele>
        <time>2021-03-27T18:37:53Z</time>
      </trkpt>
      <trkpt lat="43.125951" lon="-3.580828">
        <ele>948.5</ele>
        <time>2021-03-27T18:37:54Z</time>
      </trkpt>
      <trkpt lat="43.125885" lon="-3.580894">
        <ele>947.73</ele>
        <time>2021-03-27T18:37:55Z</time>
      </trkpt>
      <trkpt lat="43.125621" lon="-3.580993">
        <ele>943.13</ele>
        <time>2021-03-27T18:37:56Z</time>
      </trkpt>
      <trkpt lat="43.125545" lon="-3.581053">
        <ele>942.07</ele>
        <time>2021-03-27T18:37:57Z</time>
      </trkpt>
      <trkpt lat="43.125485" lon="-3.581196">
        <ele>941.58</ele>
        <time>2021-03-27T18:37:58Z</time>
      </trkpt>
      <trkpt lat="43.125442" lon="-3.581467">
        <ele>942.41</ele>
        <time>2021-03-27T18:37:59Z</time>
      </trkpt>
      <trkpt lat="43.125414" lon="-3.581555">
        <ele>942.43</ele>
        <time>2021-03-27T18:38:00Z</time>
      </trkpt>
      <trkpt lat="43.12529" lon="-3.581767">
        <ele>941.04</ele>
        <time>2021-03-27T18:38:01Z</time>
      </trkpt>
      <trkpt lat="43.125246" lon="-3.581786">
        <ele>940.12</ele>
        <time>2021-03-27T18:38:02Z</time>
      </trkpt>
      <trkpt lat="43.125183" lon="-3.581761">
        <ele>938.42</ele>
        <time>2021-03-27T18:38:03Z</time>
      </trkpt>
      <trkpt lat="43.12517" lon="-3.581677">
        <ele>937.38</ele>
        <time>2021-03-27T18:38:04Z</time>
      </trkpt>
      <trkpt lat="43.125212" lon="-3.581441">
        <ele>935.91</ele>
        <time>2021-03-27T18:38:05Z</time>
      </trkpt>
      <trkpt lat="43.125227" lon="-3.581223">
        <ele>934.41</ele>
        <time>2021-03-27T18:38:06Z</time>
      </trkpt>
      <trkpt lat="43.125174" lon="-3.580811">
        <ele>927.71</ele>
        <time>2021-03-27T18:38:07Z</time>
      </trkpt>
      <trkpt lat="43.125197" lon="-3.580638">
        <ele>926.08</ele>
        <time>2021-03-27T18:38:08Z</time>
      </trkpt>
      <trkpt lat="43.125313" lon="-3.580313">
        <ele>925.52</ele>
        <time>2021-03-27T18:38:09Z</time>
      </trkpt>
      <trkpt lat="43.125346" lon="-3.580139">
        <ele>925.84</ele>
        <time>2021-03-27T18:38:10Z</time>
      </trkpt>
      <trkpt lat="43.125292" lon="-3.579694">
        <ele>924.25</ele>
        <time>2021-03-27T18:38:11Z</time>
      </trkpt>
      <trkpt lat="43.125279" lon="-3.579468">
        <ele>924.02</ele>
        <time>2021-03-27T18:38:12Z</time>
      </trkpt>
      <trkpt lat="43.125341" lon="-3.579065">
        <ele>922.49</ele>
        <time>2021-03-27T18:38:13Z</time>
      </trkpt>
      <trkpt lat="43.125467" lon="-3.578574">
        <ele>923.04</ele>
        <time>2021-03-27T18:38:15Z</time>
      </trkpt>
      <trkpt lat="43.125483" lon="-3.578449">
        <ele>923.15</ele>
        <time>2021-03-27T18:38:16Z</time>
      </trkpt>
      <trkpt lat="43.125476" lon="-3.578374">
        <ele>922.92</ele>
        <time>2021-03-27T18:38:17Z</time>
      </trkpt>
      <trkpt lat="43.125408" lon="-3.578227">
        <ele>921.13</ele>
        <time>2021-03-27T18:38:18Z</time>
      </trkpt>
      <trkpt lat="43.12531" lon="-3.578112">
        <ele>919.48</ele>
        <time>2021-03-27T18:38:19Z</time>
      </trkpt>
      <trkpt lat="43.125243" lon="-3.578073">
        <ele>918.68</ele>
        <time>2021-03-27T18:38:20Z</time>
      </trkpt>
      <trkpt lat="43.125173" lon="-3.578073">
        <ele>917.91</ele>
        <time>2021-03-27T18:38:21Z</time>
      </trkpt>
      <trkpt lat="43.125134" lon="-3.578111">
        <ele>917.55</ele>
        <time>2021-03-27T18:38:22Z</time>
      </trkpt>
      <trkpt lat="43.12497" lon="-3.578571">
        <ele>914.83</ele>
        <time>2021-03-27T18:38:23Z</time>
      </trkpt>
      <trkpt lat="43.124877" lon="-3.578642">
        <ele>913.82</ele>
        <time>2021-03-27T18:38:24Z</time>
      </trkpt>
      <trkpt lat="43.124397" lon="-3.578814">
        <ele>909.13</ele>
        <time>2021-03-27T18:38:25Z</time>
      </trkpt>
      <trkpt lat="43.124319" lon="-3.578874">
        <ele>908.11</ele>
        <time>2021-03-27T18:38:26Z</time>
      </trkpt>
      <trkpt lat="43.124237" lon="-3.579022">
        <ele>908.43</ele>
        <time>2021-03-27T18:38:27Z</time>
      </trkpt>
      <trkpt lat="43.12412" lon="-3.57934">
        <ele>908.69</ele>
        <time>2021-03-27T18:38:28Z</time>
      </trkpt>
      <trkpt lat="43.124073" lon="-3.579393">
        <ele>907.38</ele>
        <time>2021-03-27T18:38:29Z</time>
      </trkpt>
      <trkpt lat="43.124022" lon="-3.579421">
        <ele>905.71</ele>
        <time>2021-03-27T18:38:30Z</time>
      </trkpt>
      <trkpt lat="43.123933" lon="-3.579428">
        <ele>902.55</ele>
        <time>2021-03-27T18:38:31Z</time>
      </trkpt>
      <trkpt lat="43.123603" lon="-3.579334">
        <ele>896.43</ele>
        <time>2021-03-27T18:38:32Z</time>
      </trkpt>
      <trkpt lat="43.12355" lon="-3.579342">
        <ele>895.37</ele>
        <time>2021-03-27T18:38:33Z</time>
      </trkpt>
      <trkpt lat="43.123496" lon="-3.579373">
        <ele>894.46</ele>
        <time>2021-03-27T18:38:34Z</time>
      </trkpt>
      <trkpt lat="43.12328" lon="-3.579586">
        <ele>890.86</ele>
        <time>2021-03-27T18:38:35Z</time>
      </trkpt>
      <trkpt lat="43.123227" lon="-3.579703">
        <ele>889.51</ele>
        <time>2021-03-27T18:38:36Z</time>
      </trkpt>
      <trkpt lat="43.123214" lon="-3.579777">
        <ele>889.11</ele>
        <time>2021-03-27T18:38:37Z</time>
      </trkpt>
      <trkpt lat="43.123274" lon="-3.580165">
        <ele>889.92</ele>
        <time>2021-03-27T18:38:38Z</time>
      </trkpt>
      <trkpt lat="43.12339" lon="-3.580712">
        <ele>889.97</ele>
        <time>2021-03-27T18:38:39Z</time>
      </trkpt>
      <trkpt lat="43.12339" lon="-3.580842">
        <ele>889.7</ele>
        <time>2021-03-27T18:38:40Z</time>
      </trkpt>
      <trkpt lat="43.123344" lon="-3.581082">
        <ele>890.93</ele>
        <time>2021-03-27T18:38:41Z</time>
      </trkpt>
      <trkpt lat="43.123322" lon="-3.581138">
        <ele>891.07</ele>
        <time>2021-03-27T18:38:42Z</time>
      </trkpt>
      <trkpt lat="43.123266" lon="-3.5812">
        <ele>890.51</ele>
        <time>2021-03-27T18:38:43Z</time>
      </trkpt>
      <trkpt lat="43.122929" lon="-3.581366">
        <ele>885.86</ele>
        <time>2021-03-27T18:38:44Z</time>
      </trkpt>
      <trkpt lat="43.12282" lon="-3.581455">
        <ele>885.21</ele>
        <time>2021-03-27T18:38:45Z</time>
      </trkpt>
      <trkpt lat="43.122543" lon="-3.581786">
        <ele>883.08</ele>
        <time>2021-03-27T18:38:46Z</time>
      </trkpt>
      <trkpt lat="43.121979" lon="-3.582604">
        <ele>876.32</ele>
        <time>2021-03-27T18:38:47Z</time>
      </trkpt>
      <trkpt lat="43.121913" lon="-3.582778">
        <ele>875.33</ele>
        <time>2021-03-27T18:38:48Z</time>
      </trkpt>
      <trkpt lat="43.121891" lon="-3.582907">
        <ele>875.4</ele>
        <time>2021-03-27T18:38:49Z</time>
      </trkpt>
      <trkpt lat="43.121888" lon="-3.583307">
        <ele>877.8</ele>
        <time>2021-03-27T18:38:50Z</time>
      </trkpt>
      <trkpt lat="43.12185" lon="-3.583518">
        <ele>879.28</ele>
        <time>2021-03-27T18:38:51Z</time>
      </trkpt>
      <trkpt lat="43.121802" lon="-3.583581">
        <ele>878.63</ele>
        <time>2021-03-27T18:38:52Z</time>
      </trkpt>
      <trkpt lat="43.121737" lon="-3.583599">
        <ele>876.95</ele>
        <time>2021-03-27T18:38:53Z</time>
      </trkpt>
      <trkpt lat="43.121699" lon="-3.583585">
        <ele>875.82</ele>
        <time>2021-03-27T18:38:54Z</time>
      </trkpt>
      <trkpt lat="43.121643" lon="-3.583498">
        <ele>873.82</ele>
        <time>2021-03-27T18:38:55Z</time>
      </trkpt>
      <trkpt lat="43.121626" lon="-3.58342">
        <ele>873.05</ele>
        <time>2021-03-27T18:38:56Z</time>
      </trkpt>
      <trkpt lat="43.121625" lon="-3.583181">
        <ele>871.8</ele>
        <time>2021-03-27T18:38:57Z</time>
      </trkpt>
      <trkpt lat="43.121605" lon="-3.583041">
        <ele>870.37</ele>
        <time>2021-03-27T18:38:58Z</time>
      </trkpt>
      <trkpt lat="43.121563" lon="-3.582884">
        <ele>868.62</ele>
        <time>2021-03-27T18:38:59Z</time>
      </trkpt>
      <trkpt lat="43.121333" lon="-3.582316">
        <ele>859.88</ele>
        <time>2021-03-27T18:39:00Z</time>
      </trkpt>
      <trkpt lat="43.121308" lon="-3.582166">
        <ele>858.29</ele>
        <time>2021-03-27T18:39:01Z</time>
      </trkpt>
      <trkpt lat="43.121302" lon="-3.581959">
        <ele>857.2</ele>
        <time>2021-03-27T18:39:02Z</time>
      </trkpt>
      <trkpt lat="43.121376" lon="-3.581209">
        <ele>854.75</ele>
        <time>2021-03-27T18:39:03Z</time>
      </trkpt>
      <trkpt lat="43.12142" lon="-3.581072">
        <ele>854.42</ele>
        <time>2021-03-27T18:39:04Z</time>
      </trkpt>
      <trkpt lat="43.121605" lon="-3.580797">
        <ele>857.28</ele>
        <time>2021-03-27T18:39:05Z</time>
      </trkpt>
      <trkpt lat="43.121641" lon="-3.580655">
        <ele>857.65</ele>
        <time>2021-03-27T18:39:06Z</time>
      </trkpt>
      <trkpt lat="43.121629" lon="-3.580582">
        <ele>857.01</ele>
        <time>2021-03-27T18:39:07Z</time>
      </trkpt>
      <trkpt lat="43.121445" lon="-3.580128">
        <ele>850.62</ele>
        <time>2021-03-27T18:39:08Z</time>
      </trkpt>
      <trkpt lat="43.121412" lon="-3.579939">
        <ele>850.53</ele>
        <time>2021-03-27T18:39:09Z</time>
      </trkpt>
      <trkpt lat="43.121402" lon="-3.579761">
        <ele>851.01</ele>
        <time>2021-03-27T18:39:10Z</time>
      </trkpt>
      <trkpt lat="43.121496" lon="-3.579022">
        <ele>848.47</ele>
        <time>2021-03-27T18:39:11Z</time>
      </trkpt>
      <trkpt lat="43.121489" lon="-3.578955">
        <ele>847.58</ele>
        <time>2021-03-27T18:39:12Z</time>
      </trkpt>
      <trkpt lat="43.121458" lon="-3.578897">
        <ele>846.34</ele>
        <time>2021-03-27T18:39:13Z</time>
      </trkpt>
      <trkpt lat="43.121387" lon="-3.578868">
        <ele>844.81</ele>
        <time>2021-03-27T18:39:14Z</time>
      </trkpt>
      <trkpt lat="43.121325" lon="-3.578893">
        <ele>843.9</ele>
        <time>2021-03-27T18:39:15Z</time>
      </trkpt>
      <trkpt lat="43.121298" lon="-3.578938">
        <ele>843.97</ele>
        <time>2021-03-27T18:39:16Z</time>
      </trkpt>
      <trkpt lat="43.121137" lon="-3.579568">
        <ele>846.47</ele>
        <time>2021-03-27T18:39:17Z</time>
      </trkpt>
      <trkpt lat="43.121098" lon="-3.579616">
        <ele>845.72</ele>
        <time>2021-03-27T18:39:18Z</time>
      </trkpt>
      <trkpt lat="43.121042" lon="-3.579641">
        <ele>844.61</ele>
        <time>2021-03-27T18:39:19Z</time>
      </trkpt>
      <trkpt lat="43.120973" lon="-3.579628">
        <ele>843.17</ele>
        <time>2021-03-27T18:39:20Z</time>
      </trkpt>
      <trkpt lat="43.120695" lon="-3.579491">
        <ele>838.17</ele>
        <time>2021-03-27T18:39:21Z</time>
      </trkpt>
      <trkpt lat="43.120628" lon="-3.579482">
        <ele>837.59</ele>
        <time>2021-03-27T18:39:22Z</time>
      </trkpt>
      <trkpt lat="43.120586" lon="-3.5795">
        <ele>837.26</ele>
        <time>2021-03-27T18:39:23Z</time>
      </trkpt>
      <trkpt lat="43.120543" lon="-3.579536">
        <ele>837.0</ele>
        <time>2021-03-27T18:39:24Z</time>
      </trkpt>
      <trkpt lat="43.12037" lon="-3.57993">
        <ele>835.66</ele>
        <time>2021-03-27T18:39:25Z</time>
      </trkpt>
      <trkpt lat="43.120335" lon="-3.579968">
        <ele>835.42</ele>
        <time>2021-03-27T18:39:26Z</time>
      </trkpt>
      <trkpt lat="43.119986" lon="-3.580187">
        <ele>829.86</ele>
        <time>2021-03-27T18:39:27Z</time>
      </trkpt>
      <trkpt lat="43.119905" lon="-3.5803">
        <ele>829.03</ele>
        <time>2021-03-27T18:39:28Z</time>
      </trkpt>
      <trkpt lat="43.119773" lon="-3.580565">
        <ele>827.76</ele>
        <time>2021-03-27T18:39:29Z</time>
      </trkpt>
      <trkpt lat="43.119672" lon="-3.580689">
        <ele>826.85</ele>
        <time>2021-03-27T18:39:30Z</time>
      </trkpt>
      <trkpt lat="43.119569" lon="-3.580736">
        <ele>825.64</ele>
        <time>2021-03-27T18:39:31Z</time>
      </trkpt>
      <trkpt lat="43.119312" lon="-3.580752">
        <ele>823.47</ele>
        <time>2021-03-27T18:39:32Z</time>
      </trkpt>
      <trkpt lat="43.119088" lon="-3.580891">
        <ele>821.18</ele>
        <time>2021-03-27T18:39:33Z</time>
      </trkpt>
      <trkpt lat="43.11871" lon="-3.580909">
        <ele>818.15</ele>
        <time>2021-03-27T18:39:34Z</time>
      </trkpt>
      <trkpt lat="43.118639" lon="-3.58093">
        <ele>817.23</ele>
        <time>2021-03-27T18:39:35Z</time>
      </trkpt>
      <trkpt lat="43.118153" lon="-3.581338">
        <ele>812.53</ele>
        <time>2021-03-27T18:39:36Z</time>
      </trkpt>
      <trkpt lat="43.118055" lon="-3.581508">
        <ele>812.0</ele>
        <time>2021-03-27T18:39:37Z</time>
      </trkpt>
      <trkpt lat="43.117861" lon="-3.582096">
        <ele>810.07</ele>
        <time>2021-03-27T18:39:38Z</time>
      </trkpt>
      <trkpt lat="43.117602" lon="-3.582692">
        <ele>806.11</ele>
        <time>2021-03-27T18:39:39Z</time>
      </trkpt>
      <trkpt lat="43.117519" lon="-3.582797">
        <ele>805.93</ele>
        <time>2021-03-27T18:39:40Z</time>
      </trkpt>
      <trkpt lat="43.117299" lon="-3.582991">
        <ele>803.79</ele>
        <time>2021-03-27T18:39:41Z</time>
      </trkpt>
      <trkpt lat="43.117256" lon="-3.583071">
        <ele>803.18</ele>
        <time>2021-03-27T18:39:42Z</time>
      </trkpt>
      <trkpt lat="43.117172" lon="-3.583355">
        <ele>801.38</ele>
        <time>2021-03-27T18:39:43Z</time>
      </trkpt>
      <trkpt lat="43.116904" lon="-3.583052">
        <ele>799.57</ele>
        <time>2021-03-27T18:39:48Z</time>
      </trkpt>
      <trkpt lat="43.116755" lon="-3.582859">
        <ele>798.66</ele>
        <time>2021-03-27T18:39:53Z</time>
      </trkpt>
      <trkpt lat="43.116563" lon="-3.582536">
        <ele>799.69</ele>
        <time>2021-03-27T18:39:58Z</time>
      </trkpt>
      <trkpt lat="43.116432" lon="-3.582373">
        <ele>801.83</ele>
        <time>2021-03-27T18:40:03Z</time>
      </trkpt>
      <trkpt lat="43.11634" lon="-3.582319">
        <ele>802.26</ele>
        <time>2021-03-27T18:40:08Z</time>
      </trkpt>
      <trkpt lat="43.115353" lon="-3.582041">
        <ele>797.54</ele>
        <time>2021-03-27T18:40:13Z</time>
      </trkpt>
      <trkpt lat="43.115185" lon="-3.581972">
        <ele>796.37</ele>
        <time>2021-03-27T18:40:18Z</time>
      </trkpt>
      <trkpt lat="43.115027" lon="-3.581878">
        <ele>794.98</ele>
        <time>2021-03-27T18:40:23Z</time>
      </trkpt>
      <trkpt lat="43.114858" lon="-3.581745">
        <ele>794.28</ele>
        <time>2021-03-27T18:40:28Z</time>
      </trkpt>
      <trkpt lat="43.104192" lon="-3.572058">
        <ele>780.46</ele>
        <time>2021-03-27T18:40:33Z</time>
      </trkpt>
      <trkpt lat="43.103958" lon="-3.571864">
        <ele>783.3</ele>
        <time>2021-03-27T18:40:38Z</time>
      </trkpt>
      <trkpt lat="43.103758" lon="-3.571761">
        <ele>785.97</ele>
        <time>2021-03-27T18:40:43Z</time>
      </trkpt>
      <trkpt lat="43.103534" lon="-3.571711">
        <ele>787.27</ele>
        <time>2021-03-27T18:40:48Z</time>
      </trkpt>
      <trkpt lat="43.103285" lon="-3.571694">
        <ele>787.53</ele>
        <time>2021-03-27T18:40:53Z</time>
      </trkpt>
      <trkpt lat="43.102877" lon="-3.571527">
        <ele>788.36</ele>
        <time>2021-03-27T18:40:58Z</time>
      </trkpt>
      <trkpt lat="43.102651" lon="-3.571353">
        <ele>788.14</ele>
        <time>2021-03-27T18:41:02Z</time>
      </trkpt>
      <trkpt lat="43.102153" lon="-3.570909">
        <ele>786.56</ele>
        <time>2021-03-27T18:41:07Z</time>
      </trkpt>
      <trkpt lat="43.101773" lon="-3.570665">
        <ele>784.02</ele>
        <time>2021-03-27T18:41:12Z</time>
      </trkpt>
      <trkpt lat="43.101602" lon="-3.570508">
        <ele>783.61</ele>
        <time>2021-03-27T18:41:17Z</time>
      </trkpt>
      <trkpt lat="43.101241" lon="-3.570037">
        <ele>785.34</ele>
        <time>2021-03-27T18:41:22Z</time>
      </trkpt>
      <trkpt lat="43.101109" lon="-3.569897">
        <ele>786.09</ele>
        <time>2021-03-27T18:41:27Z</time>
      </trkpt>
      <trkpt lat="43.099844" lon="-3.568741">
        <ele>781.1</ele>
        <time>2021-03-27T18:41:32Z</time>
      </trkpt>
      <trkpt lat="43.099499" lon="-3.568373">
        <ele>776.05</ele>
        <time>2021-03-27T18:41:37Z</time>
      </trkpt>
      <trkpt lat="43.099081" lon="-3.567837">
        <ele>777.7</ele>
        <time>2021-03-27T18:41:42Z</time>
      </trkpt>
      <trkpt lat="43.097865" lon="-3.566082">
        <ele>782.32</ele>
        <time>2021-03-27T18:41:47Z</time>
      </trkpt>
      <trkpt lat="43.097661" lon="-3.565589">
        <ele>782.09</ele>
        <time>2021-03-27T18:41:52Z</time>
      </trkpt>
      <trkpt lat="43.097365" lon="-3.564771">
        <ele>783.68</ele>
        <time>2021-03-27T18:41:57Z</time>
      </trkpt>
      <trkpt lat="43.097184" lon="-3.564448">
        <ele>784.84</ele>
        <time>2021-03-27T18:42:02Z</time>
      </trkpt>
      <trkpt lat="43.097085" lon="-3.564332">
        <ele>785.11</ele>
        <time>2021-03-27T18:42:07Z</time>
      </trkpt>
      <trkpt lat="43.09699" lon="-3.564265">
        <ele>785.35</ele>
        <time>2021-03-27T18:42:12Z</time>
      </trkpt>
      <trkpt lat="43.096597" lon="-3.564171">
        <ele>784.72</ele>
        <time>2021-03-27T18:42:17Z</time>
      </trkpt>
      <trkpt lat="43.09639" lon="-3.564084">
        <ele>784.0</ele>
        <time>2021-03-27T18:42:22Z</time>
      </trkpt>
      <trkpt lat="43.094651" lon="-3.563132">
        <ele>772.84</ele>
        <time>2021-03-27T18:42:27Z</time>
      </trkpt>
      <trkpt lat="43.094451" lon="-3.562955">
        <ele>771.16</ele>
        <time>2021-03-27T18:42:32Z</time>
      </trkpt>
      <trkpt lat="43.090292" lon="-3.558546">
        <ele>764.82</ele>
        <time>2021-03-27T18:42:37Z</time>
      </trkpt>
      <trkpt lat="43.089479" lon="-3.557587">
        <ele>767.56</ele>
        <time>2021-03-27T18:42:42Z</time>
      </trkpt>
      <trkpt lat="43.089333" lon="-3.557451">
        <ele>767.03</ele>
        <time>2021-03-27T18:42:47Z</time>
      </trkpt>
      <trkpt lat="43.089201" lon="-3.557357">
        <ele>765.88</ele>
        <time>2021-03-27T18:42:51Z</time>
      </trkpt>
      <trkpt lat="43.088794" lon="-3.557197">
        <ele>762.37</ele>
        <time>2021-03-27T18:42:56Z</time>
      </trkpt>
      <trkpt lat="43.08855" lon="-3.557063">
        <ele>764.04</ele>
        <time>2021-03-27T18:43:01Z</time>
      </trkpt>
      <trkpt lat="43.08796" lon="-3.556612">
        <ele>764.09</ele>
        <time>2021-03-27T18:43:06Z</time>
      </trkpt>
      <trkpt lat="43.087724" lon="-3.556473">
        <ele>764.19</ele>
        <time>2021-03-27T18:43:11Z</time>
      </trkpt>
      <trkpt lat="43.087567" lon="-3.556443">
        <ele>762.62</ele>
        <time>2021-03-27T18:43:16Z</time>
      </trkpt>
      <trkpt lat="43.087367" lon="-3.556463">
        <ele>760.39</ele>
        <time>2021-03-27T18:43:21Z</time>
      </trkpt>
      <trkpt lat="43.087188" lon="-3.55653">
        <ele>758.22</ele>
        <time>2021-03-27T18:43:26Z</time>
      </trkpt>
      <trkpt lat="43.086188" lon="-3.557028">
        <ele>759.38</ele>
        <time>2021-03-27T18:43:31Z</time>
      </trkpt>
      <trkpt lat="43.085864" lon="-3.55715">
        <ele>755.11</ele>
        <time>2021-03-27T18:43:36Z</time>
      </trkpt>
      <trkpt lat="43.085354" lon="-3.557157">
        <ele>758.34</ele>
        <time>2021-03-27T18:43:41Z</time>
      </trkpt>
      <trkpt lat="43.085183" lon="-3.557177">
        <ele>758.55</ele>
        <time>2021-03-27T18:43:46Z</time>
      </trkpt>
      <trkpt lat="43.084483" lon="-3.557414">
        <ele>751.28</ele>
        <time>2021-03-27T18:43:51Z</time>
      </trkpt>
      <trkpt lat="43.084301" lon="-3.557451">
        <ele>749.41</ele>
        <time>2021-03-27T18:43:56Z</time>
      </trkpt>
      <trkpt lat="43.084105" lon="-3.557434">
        <ele>748.66</ele>
        <time>2021-03-27T18:44:01Z</time>
      </trkpt>
      <trkpt lat="43.081301" lon="-3.556426">
        <ele>747.82</ele>
        <time>2021-03-27T18:44:06Z</time>
      </trkpt>
      <trkpt lat="43.081042" lon="-3.556263">
        <ele>747.0</ele>
        <time>2021-03-27T18:44:11Z</time>
      </trkpt>
      <trkpt lat="43.079664" lon="-3.554886">
        <ele>751.26</ele>
        <time>2021-03-27T18:44:16Z</time>
      </trkpt>
      <trkpt lat="43.079423" lon="-3.554437">
        <ele>753.66</ele>
        <time>2021-03-27T18:44:21Z</time>
      </trkpt>
      <trkpt lat="43.079175" lon="-3.55386">
        <ele>752.41</ele>
        <time>2021-03-27T18:44:26Z</time>
      </trkpt>
      <trkpt lat="43.078966" lon="-3.553553">
        <ele>751.29</ele>
        <time>2021-03-27T18:44:31Z</time>
      </trkpt>
      <trkpt lat="43.07844" lon="-3.552651">
        <ele>754.25</ele>
        <time>2021-03-27T18:44:35Z</time>
      </trkpt>
      <trkpt lat="43.078326" lon="-3.552511">
        <ele>753.92</ele>
        <time>2021-03-27T18:44:40Z</time>
      </trkpt>
      <trkpt lat="43.07833" lon="-3.552436">
        <ele>754.46</ele>
        <time>2021-03-27T18:44:46Z</time>
      </trkpt>
      <trkpt lat="43.078152" lon="-3.551028">
        <ele>757.7</ele>
        <time>2021-03-27T18:44:52Z</time>
      </trkpt>
      <trkpt lat="43.078844" lon="-3.551027">
        <ele>760.57</ele>
        <time>2021-03-27T18:44:55Z</time>
      </trkpt>
      <trkpt lat="43.078873" lon="-3.55102">
        <ele>760.85</ele>
        <time>2021-03-27T18:44:59Z</time>
      </trkpt>
      <trkpt lat="43.078906" lon="-3.550978">
        <ele>761.46</ele>
        <time>2021-03-27T18:45:03Z</time>
      </trkpt>
      <trkpt lat="43.078963" lon="-3.550753">
        <ele>762.86</ele>
        <time>2021-03-27T18:45:07Z</time>
      </trkpt>
      <trkpt lat="43.078962" lon="-3.550475">
        <ele>762.79</ele>
        <time>2021-03-27T18:45:11Z</time>
      </trkpt>
      <trkpt lat="43.079067" lon="-3.550265">
        <ele>763.92</ele>
        <time>2021-03-27T18:45:14Z</time>
      </trkpt>
      <trkpt lat="43.079249" lon="-3.550003">
        <ele>765.89</ele>
        <time>2021-03-27T18:45:18Z</time>
      </trkpt>
      <trkpt lat="43.079326" lon="-3.549831">
        <ele>766.72</ele>
        <time>2021-03-27T18:45:22Z</time>
      </trkpt>
      <trkpt lat="43.07935" lon="-3.54967">
        <ele>767.17</ele>
        <time>2021-03-27T18:45:26Z</time>
      </trkpt>
      <trkpt lat="43.079451" lon="-3.54945">
        <ele>769.14</ele>
        <time>2021-03-27T18:45:29Z</time>
      </trkpt>
      <trkpt lat="43.079487" lon="-3.54929">
        <ele>770.55</ele>
        <time>2021-03-27T18:45:33Z</time>
      </trkpt>
      <trkpt lat="43.079446" lon="-3.548924">
        <ele>770.91</ele>
        <time>2021-03-27T18:45:37Z</time>
      </trkpt>
      <trkpt lat="43.079579" lon="-3.548496">
        <ele>773.08</ele>
        <time>2021-03-27T18:45:41Z</time>
      </trkpt>
      <trkpt lat="43.079661" lon="-3.548377">
        <ele>774.46</ele>
        <time>2021-03-27T18:45:45Z</time>
      </trkpt>
      <trkpt lat="43.079929" lon="-3.548103">
        <ele>781.05</ele>
        <time>2021-03-27T18:45:49Z</time>
      </trkpt>
      <trkpt lat="43.080029" lon="-3.548025">
        <ele>783.38</ele>
        <time>2021-03-27T18:45:53Z</time>
      </trkpt>
      <trkpt lat="43.080373" lon="-3.547818">
        <ele>789.76</ele>
        <time>2021-03-27T18:45:58Z</time>
      </trkpt>
      <trkpt lat="43.080633" lon="-3.547701">
        <ele>796.39</ele>
        <time>2021-03-27T18:46:02Z</time>
      </trkpt>
      <trkpt lat="43.080703" lon="-3.547645">
        <ele>797.88</ele>
        <time>2021-03-27T18:46:06Z</time>
      </trkpt>
      <trkpt lat="43.08079" lon="-3.547529">
        <ele>799.03</ele>
        <time>2021-03-27T18:46:10Z</time>
      </trkpt>
      <trkpt lat="43.080808" lon="-3.547389">
        <ele>799.59</ele>
        <time>2021-03-27T18:46:14Z</time>
      </trkpt>
      <trkpt lat="43.080796" lon="-3.547326">
        <ele>799.41</ele>
        <time>2021-03-27T18:46:18Z</time>
      </trkpt>
      <trkpt lat="43.080694" lon="-3.547129">
        <ele>798.35</ele>
        <time>2021-03-27T18:46:22Z</time>
      </trkpt>
      <trkpt lat="43.080423" lon="-3.546834">
        <ele>797.46</ele>
        <time>2021-03-27T18:46:27Z</time>
      </trkpt>
      <trkpt lat="43.080219" lon="-3.546675">
        <ele>794.18</ele>
        <time>2021-03-27T18:46:31Z</time>
      </trkpt>
      <trkpt lat="43.080124" lon="-3.546542">
        <ele>793.17</ele>
        <time>2021-03-27T18:46:35Z</time>
      </trkpt>
      <trkpt lat="43.080097" lon="-3.546395">
        <ele>794.35</ele>
        <time>2021-03-27T18:46:39Z</time>
      </trkpt>
      <trkpt lat="43.080165" lon="-3.54596">
        <ele>798.86</ele>
        <time>2021-03-27T18:46:43Z</time>
      </trkpt>
      <trkpt lat="43.080134" lon="-3.545037">
        <ele>805.42</ele>
        <time>2021-03-27T18:46:47Z</time>
      </trkpt>
      <trkpt lat="43.080164" lon="-3.544849">
        <ele>805.18</ele>
        <time>2021-03-27T18:46:51Z</time>
      </trkpt>
      <trkpt lat="43.080323" lon="-3.544468">
        <ele>806.72</ele>
        <time>2021-03-27T18:46:55Z</time>
      </trkpt>
      <trkpt lat="43.080389" lon="-3.544103">
        <ele>808.15</ele>
        <time>2021-03-27T18:47:00Z</time>
      </trkpt>
      <trkpt lat="43.080414" lon="-3.544031">
        <ele>808.71</ele>
        <time>2021-03-27T18:47:04Z</time>
      </trkpt>
      <trkpt lat="43.080516" lon="-3.543899">
        <ele>810.42</ele>
        <time>2021-03-27T18:47:08Z</time>
      </trkpt>
      <trkpt lat="43.08064" lon="-3.543841">
        <ele>811.92</ele>
        <time>2021-03-27T18:47:12Z</time>
      </trkpt>
      <trkpt lat="43.080722" lon="-3.543828">
        <ele>812.62</ele>
        <time>2021-03-27T18:47:16Z</time>
      </trkpt>
      <trkpt lat="43.080886" lon="-3.54384">
        <ele>813.49</ele>
        <time>2021-03-27T18:47:20Z</time>
      </trkpt>
      <trkpt lat="43.081145" lon="-3.543921">
        <ele>813.45</ele>
        <time>2021-03-27T18:47:24Z</time>
      </trkpt>
      <trkpt lat="43.081203" lon="-3.543911">
        <ele>813.77</ele>
        <time>2021-03-27T18:47:29Z</time>
      </trkpt>
      <trkpt lat="43.081295" lon="-3.54383">
        <ele>814.11</ele>
        <time>2021-03-27T18:47:33Z</time>
      </trkpt>
      <trkpt lat="43.081361" lon="-3.543653">
        <ele>813.95</ele>
        <time>2021-03-27T18:47:37Z</time>
      </trkpt>
      <trkpt lat="43.081396" lon="-3.543411">
        <ele>813.43</ele>
        <time>2021-03-27T18:47:41Z</time>
      </trkpt>
      <trkpt lat="43.081477" lon="-3.543106">
        <ele>814.65</ele>
        <time>2021-03-27T18:47:45Z</time>
      </trkpt>
      <trkpt lat="43.081555" lon="-3.54291">
        <ele>816.51</ele>
        <time>2021-03-27T18:47:49Z</time>
      </trkpt>
      <trkpt lat="43.081654" lon="-3.542716">
        <ele>818.97</ele>
        <time>2021-03-27T18:47:53Z</time>
      </trkpt>
      <trkpt lat="43.081836" lon="-3.542484">
        <ele>822.42</ele>
        <time>2021-03-27T18:47:58Z</time>
      </trkpt>
      <trkpt lat="43.082002" lon="-3.54233">
        <ele>824.78</ele>
        <time>2021-03-27T18:48:02Z</time>
      </trkpt>
      <trkpt lat="43.082159" lon="-3.542257">
        <ele>826.51</ele>
        <time>2021-03-27T18:48:06Z</time>
      </trkpt>
      <trkpt lat="43.082244" lon="-3.542183">
        <ele>827.33</ele>
        <time>2021-03-27T18:48:10Z</time>
      </trkpt>
      <trkpt lat="43.082291" lon="-3.542087">
        <ele>828.01</ele>
        <time>2021-03-27T18:48:14Z</time>
      </trkpt>
      <trkpt lat="43.082553" lon="-3.54122">
        <ele>830.11</ele>
        <time>2021-03-27T18:48:18Z</time>
      </trkpt>
      <trkpt lat="43.083095" lon="-3.539859">
        <ele>834.27</ele>
        <time>2021-03-27T18:48:22Z</time>
      </trkpt>
      <trkpt lat="43.083161" lon="-3.539764">
        <ele>835.11</ele>
        <time>2021-03-27T18:48:27Z</time>
      </trkpt>
      <trkpt lat="43.083243" lon="-3.539691">
        <ele>836.19</ele>
        <time>2021-03-27T18:48:31Z</time>
      </trkpt>
      <trkpt lat="43.08336" lon="-3.539624">
        <ele>837.64</ele>
        <time>2021-03-27T18:48:35Z</time>
      </trkpt>
      <trkpt lat="43.083445" lon="-3.539601">
        <ele>838.56</ele>
        <time>2021-03-27T18:48:39Z</time>
      </trkpt>
      <trkpt lat="43.083539" lon="-3.539615">
        <ele>839.9</ele>
        <time>2021-03-27T18:48:43Z</time>
      </trkpt>
      <trkpt lat="43.084036" lon="-3.539943">
        <ele>847.55</ele>
        <time>2021-03-27T18:48:47Z</time>
      </trkpt>
      <trkpt lat="43.084116" lon="-3.539957">
        <ele>848.3</ele>
        <time>2021-03-27T18:48:51Z</time>
      </trkpt>
      <trkpt lat="43.084179" lon="-3.539934">
        <ele>848.8</ele>
        <time>2021-03-27T18:48:55Z</time>
      </trkpt>
      <trkpt lat="43.084224" lon="-3.53987">
        <ele>849.32</ele>
        <time>2021-03-27T18:49:00Z</time>
      </trkpt>
      <trkpt lat="43.084247" lon="-3.53978">
        <ele>848.98</ele>
        <time>2021-03-27T18:49:04Z</time>
      </trkpt>
      <trkpt lat="43.08418" lon="-3.53944">
        <ele>847.25</ele>
        <time>2021-03-27T18:49:08Z</time>
      </trkpt>
      <trkpt lat="43.084189" lon="-3.539218">
        <ele>847.54</ele>
        <time>2021-03-27T18:49:12Z</time>
      </trkpt>
      <trkpt lat="43.084286" lon="-3.538887">
        <ele>851.02</ele>
        <time>2021-03-27T18:49:16Z</time>
      </trkpt>
      <trkpt lat="43.08437" lon="-3.538678">
        <ele>852.77</ele>
        <time>2021-03-27T18:49:20Z</time>
      </trkpt>
      <trkpt lat="43.084482" lon="-3.538483">
        <ele>853.76</ele>
        <time>2021-03-27T18:49:24Z</time>
      </trkpt>
      <trkpt lat="43.08459" lon="-3.53839">
        <ele>855.03</ele>
        <time>2021-03-27T18:49:29Z</time>
      </trkpt>
      <trkpt lat="43.085206" lon="-3.538164">
        <ele>863.29</ele>
        <time>2021-03-27T18:49:33Z</time>
      </trkpt>
      <trkpt lat="43.08553" lon="-3.537965">
        <ele>868.4</ele>
        <time>2021-03-27T18:49:37Z</time>
      </trkpt>
      <trkpt lat="43.085736" lon="-3.537804">
        <ele>872.95</ele>
        <time>2021-03-27T18:49:41Z</time>
      </trkpt>
      <trkpt lat="43.085871" lon="-3.537664">
        <ele>876.36</ele>
        <time>2021-03-27T18:49:45Z</time>
      </trkpt>
      <trkpt lat="43.085967" lon="-3.537529">
        <ele>879.27</ele>
        <time>2021-03-27T18:49:49Z</time>
      </trkpt>
      <trkpt lat="43.086202" lon="-3.537052">
        <ele>883.35</ele>
        <time>2021-03-27T18:49:53Z</time>
      </trkpt>
      <trkpt lat="43.08649" lon="-3.536576">
        <ele>888.61</ele>
        <time>2021-03-27T18:49:58Z</time>
      </trkpt>
      <trkpt lat="43.086575" lon="-3.536366">
        <ele>889.91</ele>
        <time>2021-03-27T18:50:02Z</time>
      </trkpt>
      <trkpt lat="43.08809" lon="-3.534556">
        <ele>919.07</ele>
        <time>2021-03-27T18:50:06Z</time>
      </trkpt>
      <trkpt lat="43.088387" lon="-3.534249">
        <ele>922.12</ele>
        <time>2021-03-27T18:50:10Z</time>
      </trkpt>
      <trkpt lat="43.088704" lon="-3.533993">
        <ele>925.53</ele>
        <time>2021-03-27T18:50:14Z</time>
      </trkpt>
      <trkpt lat="43.089106" lon="-3.533764">
        <ele>928.88</ele>
        <time>2021-03-27T18:50:18Z</time>
      </trkpt>
      <trkpt lat="43.089223" lon="-3.533742">
        <ele>930.07</ele>
        <time>2021-03-27T18:50:22Z</time>
      </trkpt>
      <trkpt lat="43.089368" lon="-3.533746">
        <ele>931.96</ele>
        <time>2021-03-27T18:50:27Z</time>
      </trkpt>
      <trkpt lat="43.089906" lon="-3.533867">
        <ele>940.24</ele>
        <time>2021-03-27T18:50:31Z</time>
      </trkpt>
      <trkpt lat="43.090379" lon="-3.533935">
        <ele>943.8</ele>
        <time>2021-03-27T18:50:35Z</time>
      </trkpt>
      <trkpt lat="43.090645" lon="-3.534034">
        <ele>945.31</ele>
        <time>2021-03-27T18:50:39Z</time>
      </trkpt>
      <trkpt lat="43.090879" lon="-3.534203">
        <ele>948.04</ele>
        <time>2021-03-27T18:50:43Z</time>
      </trkpt>
      <trkpt lat="43.091136" lon="-3.534466">
        <ele>953.46</ele>
        <time>2021-03-27T18:50:47Z</time>
      </trkpt>
      <trkpt lat="43.091555" lon="-3.534945">
        <ele>960.93</ele>
        <time>2021-03-27T18:50:51Z</time>
      </trkpt>
      <trkpt lat="43.09183" lon="-3.535302">
        <ele>967.31</ele>
        <time>2021-03-27T18:50:55Z</time>
      </trkpt>
      <trkpt lat="43.091928" lon="-3.535488">
        <ele>969.98</ele>
        <time>2021-03-27T18:51:00Z</time>
      </trkpt>
      <trkpt lat="43.093004" lon="-3.537818">
        <ele>988.14</ele>
        <time>2021-03-27T18:51:04Z</time>
      </trkpt>
      <trkpt lat="43.093102" lon="-3.537958">
        <ele>990.78</ele>
        <time>2021-03-27T18:51:08Z</time>
      </trkpt>
      <trkpt lat="43.093164" lon="-3.538004">
        <ele>991.58</ele>
        <time>2021-03-27T18:51:12Z</time>
      </trkpt>
      <trkpt lat="43.093242" lon="-3.538032">
        <ele>991.88</ele>
        <time>2021-03-27T18:51:16Z</time>
      </trkpt>
      <trkpt lat="43.093584" lon="-3.5381">
        <ele>993.71</ele>
        <time>2021-03-27T18:51:20Z</time>
      </trkpt>
      <trkpt lat="43.094123" lon="-3.538189">
        <ele>996.8</ele>
        <time>2021-03-27T18:51:24Z</time>
      </trkpt>
      <trkpt lat="43.094381" lon="-3.538186">
        <ele>996.99</ele>
        <time>2021-03-27T18:51:29Z</time>
      </trkpt>
      <trkpt lat="43.09454" lon="-3.538155">
        <ele>997.81</ele>
        <time>2021-03-27T18:51:33Z</time>
      </trkpt>
      <trkpt lat="43.095096" lon="-3.537973">
        <ele>1004.45</ele>
        <time>2021-03-27T18:51:37Z</time>
      </trkpt>
      <trkpt lat="43.095415" lon="-3.537848">
        <ele>1006.25</ele>
        <time>2021-03-27T18:51:41Z</time>
      </trkpt>
      <trkpt lat="43.095555" lon="-3.53774">
        <ele>1006.0</ele>
        <time>2021-03-27T18:51:45Z</time>
      </trkpt>
      <trkpt lat="43.096715" lon="-3.536157">
        <ele>1013.91</ele>
        <time>2021-03-27T18:51:49Z</time>
      </trkpt>
      <trkpt lat="43.096848" lon="-3.536002">
        <ele>1013.41</ele>
        <time>2021-03-27T18:51:53Z</time>
      </trkpt>
      <trkpt lat="43.097051" lon="-3.535843">
        <ele>1013.14</ele>
        <time>2021-03-27T18:51:58Z</time>
      </trkpt>
      <trkpt lat="43.097633" lon="-3.535588">
        <ele>1016.27</ele>
        <time>2021-03-27T18:52:02Z</time>
      </trkpt>
      <trkpt lat="43.097811" lon="-3.535492">
        <ele>1019.6</ele>
        <time>2021-03-27T18:52:06Z</time>
      </trkpt>
      <trkpt lat="43.097962" lon="-3.535396">
        <ele>1023.06</ele>
        <time>2021-03-27T18:52:10Z</time>
      </trkpt>
      <trkpt lat="43.098239" lon="-3.535147">
        <ele>1028.69</ele>
        <time>2021-03-27T18:52:14Z</time>
      </trkpt>
      <trkpt lat="43.098415" lon="-3.534976">
        <ele>1032.28</ele>
        <time>2021-03-27T18:52:18Z</time>
      </trkpt>
      <trkpt lat="43.098523" lon="-3.534832">
        <ele>1035.28</ele>
        <time>2021-03-27T18:52:22Z</time>
      </trkpt>
      <trkpt lat="43.099306" lon="-3.533566">
        <ele>1047.35</ele>
        <time>2021-03-27T18:52:27Z</time>
      </trkpt>
      <trkpt lat="43.099581" lon="-3.533231">
        <ele>1051.22</ele>
        <time>2021-03-27T18:52:31Z</time>
      </trkpt>
      <trkpt lat="43.099759" lon="-3.533052">
        <ele>1052.91</ele>
        <time>2021-03-27T18:52:35Z</time>
      </trkpt>
      <trkpt lat="43.100305" lon="-3.532608">
        <ele>1062.01</ele>
        <time>2021-03-27T18:52:39Z</time>
      </trkpt>
      <trkpt lat="43.100532" lon="-3.532458">
        <ele>1066.59</ele>
        <time>2021-03-27T18:52:43Z</time>
      </trkpt>
      <trkpt lat="43.100763" lon="-3.532348">
        <ele>1072.0</ele>
        <time>2021-03-27T18:52:47Z</time>
      </trkpt>
      <trkpt lat="43.101774" lon="-3.53202">
        <ele>1089.46</ele>
        <time>2021-03-27T18:52:51Z</time>
      </trkpt>
      <trkpt lat="43.102199" lon="-3.531968">
        <ele>1098.83</ele>
        <time>2021-03-27T18:52:55Z</time>
      </trkpt>
      <trkpt lat="43.102367" lon="-3.531929">
        <ele>1101.41</ele>
        <time>2021-03-27T18:53:00Z</time>
      </trkpt>
      <trkpt lat="43.102646" lon="-3.531788">
        <ele>1104.83</ele>
        <time>2021-03-27T18:53:04Z</time>
      </trkpt>
      <trkpt lat="43.102925" lon="-3.531709">
        <ele>1108.11</ele>
        <time>2021-03-27T18:53:08Z</time>
      </trkpt>
      <trkpt lat="43.103742" lon="-3.531781">
        <ele>1117.98</ele>
        <time>2021-03-27T18:53:12Z</time>
      </trkpt>
      <trkpt lat="43.103967" lon="-3.531826">
        <ele>1122.03</ele>
        <time>2021-03-27T18:53:16Z</time>
      </trkpt>
      <trkpt lat="43.104273" lon="-3.531944">
        <ele>1128.36</ele>
        <time>2021-03-27T18:53:20Z</time>
      </trkpt>
      <trkpt lat="43.105005" lon="-3.532396">
        <ele>1138.96</ele>
        <time>2021-03-27T18:53:24Z</time>
      </trkpt>
      <trkpt lat="43.105063" lon="-3.532411">
        <ele>1140.17</ele>
        <time>2021-03-27T18:53:29Z</time>
      </trkpt>
      <trkpt lat="43.105228" lon="-3.53236">
        <ele>1142.59</ele>
        <time>2021-03-27T18:53:33Z</time>
      </trkpt>
      <trkpt lat="43.105635" lon="-3.532108">
        <ele>1144.34</ele>
        <time>2021-03-27T18:53:37Z</time>
      </trkpt>
      <trkpt lat="43.105802" lon="-3.532068">
        <ele>1145.11</ele>
        <time>2021-03-27T18:53:41Z</time>
      </trkpt>
      <trkpt lat="43.105936" lon="-3.532094">
        <ele>1146.74</ele>
        <time>2021-03-27T18:53:45Z</time>
      </trkpt>
      <trkpt lat="43.106236" lon="-3.532226">
        <ele>1152.85</ele>
        <time>2021-03-27T18:53:49Z</time>
      </trkpt>
      <trkpt lat="43.106318" lon="-3.532242">
        <ele>1154.31</ele>
        <time>2021-03-27T18:53:53Z</time>
      </trkpt>
      <trkpt lat="43.10688" lon="-3.532151">
        <ele>1162.43</ele>
        <time>2021-03-27T18:53:58Z</time>
      </trkpt>
      <trkpt lat="43.107242" lon="-3.532138">
        <ele>1165.63</ele>
        <time>2021-03-27T18:54:02Z</time>
      </trkpt>
      <trkpt lat="43.107736" lon="-3.532302">
        <ele>1169.86</ele>
        <time>2021-03-27T18:54:06Z</time>
      </trkpt>
      <trkpt lat="43.108097" lon="-3.532489">
        <ele>1174.48</ele>
        <time>2021-03-27T18:54:10Z</time>
      </trkpt>
      <trkpt lat="43.108272" lon="-3.532519">
        <ele>1177.13</ele>
        <time>2021-03-27T18:54:14Z</time>
      </trkpt>
      <trkpt lat="43.108354" lon="-3.532497">
        <ele>1178.27</ele>
        <time>2021-03-27T18:54:18Z</time>
      </trkpt>
      <trkpt lat="43.108519" lon="-3.532396">
        <ele>1179.93</ele>
        <time>2021-03-27T18:54:22Z</time>
      </trkpt>
      <trkpt lat="43.108984" lon="-3.532014">
        <ele>1186.46</ele>
        <time>2021-03-27T18:54:27Z</time>
      </trkpt>
      <trkpt lat="43.109238" lon="-3.53183">
        <ele>1189.31</ele>
        <time>2021-03-27T18:54:31Z</time>
      </trkpt>
      <trkpt lat="43.110037" lon="-3.531376">
        <ele>1198.34</ele>
        <time>2021-03-27T18:54:35Z</time>
      </trkpt>
      <trkpt lat="43.110167" lon="-3.531325">
        <ele>1199.44</ele>
        <time>2021-03-27T18:54:39Z</time>
      </trkpt>
      <trkpt lat="43.112349" lon="-3.530813">
        <ele>1216.78</ele>
        <time>2021-03-27T18:54:43Z</time>
      </trkpt>
      <trkpt lat="43.112977" lon="-3.530832">
        <ele>1221.14</ele>
        <time>2021-03-27T18:54:47Z</time>
      </trkpt>
      <trkpt lat="43.114045" lon="-3.530937">
        <ele>1238.52</ele>
        <time>2021-03-27T18:54:51Z</time>
      </trkpt>
      <trkpt lat="43.114746" lon="-3.530814">
        <ele>1248.93</ele>
        <time>2021-03-27T18:54:55Z</time>
      </trkpt>
      <trkpt lat="43.115212" lon="-3.530764">
        <ele>1253.8</ele>
        <time>2021-03-27T18:55:00Z</time>
      </trkpt>
      <trkpt lat="43.115409" lon="-3.530778">
        <ele>1256.59</ele>
        <time>2021-03-27T18:55:04Z</time>
      </trkpt>
      <trkpt lat="43.116043" lon="-3.530883">
        <ele>1263.04</ele>
        <time>2021-03-27T18:55:08Z</time>
      </trkpt>
      <trkpt lat="43.116268" lon="-3.530976">
        <ele>1266.04</ele>
        <time>2021-03-27T18:55:12Z</time>
      </trkpt>
      <trkpt lat="43.117043" lon="-3.531598">
        <ele>1277.51</ele>
        <time>2021-03-27T18:55:16Z</time>
      </trkpt>
      <trkpt lat="43.118154" lon="-3.532418">
        <ele>1290.33</ele>
        <time>2021-03-27T18:55:20Z</time>
      </trkpt>
      <trkpt lat="43.118586" lon="-3.532643">
        <ele>1296.25</ele>
        <time>2021-03-27T18:55:24Z</time>
      </trkpt>
      <trkpt lat="43.120068" lon="-3.533336">
        <ele>1311.85</ele>
        <time>2021-03-27T18:55:29Z</time>
      </trkpt>
      <trkpt lat="43.120279" lon="-3.533406">
        <ele>1315.42</ele>
        <time>2021-03-27T18:55:33Z</time>
      </trkpt>
      <trkpt lat="43.121538" lon="-3.533715">
        <ele>1333.81</ele>
        <time>2021-03-27T18:55:37Z</time>
      </trkpt>
      <trkpt lat="43.122618" lon="-3.53401">
        <ele>1352.37</ele>
        <time>2021-03-27T18:55:41Z</time>
      </trkpt>
      <trkpt lat="43.124478" lon="-3.534422">
        <ele>1375.26</ele>
        <time>2021-03-27T18:55:45Z</time>
      </trkpt>
      <trkpt lat="43.125" lon="-3.534576">
        <ele>1379.27</ele>
        <time>2021-03-27T18:55:49Z</time>
      </trkpt>
      <trkpt lat="43.125298" lon="-3.534707">
        <ele>1380.99</ele>
        <time>2021-03-27T18:55:53Z</time>
      </trkpt>
      <trkpt lat="43.127476" lon="-3.536107">
        <ele>1395.58</ele>
        <time>2021-03-27T18:55:58Z</time>
      </trkpt>
      <trkpt lat="43.127555" lon="-3.536175">
        <ele>1396.64</ele>
        <time>2021-03-27T18:56:02Z</time>
      </trkpt>
      <trkpt lat="43.127639" lon="-3.536303">
        <ele>1397.85</ele>
        <time>2021-03-27T18:56:06Z</time>
      </trkpt>
      <trkpt lat="43.127716" lon="-3.53651">
        <ele>1399.27</ele>
        <time>2021-03-27T18:56:10Z</time>
      </trkpt>
      <trkpt lat="43.127845" lon="-3.537011">
        <ele>1401.02</ele>
        <time>2021-03-27T18:56:14Z</time>
      </trkpt>
      <trkpt lat="43.127905" lon="-3.537179">
        <ele>1402.3</ele>
        <time>2021-03-27T18:56:18Z</time>
      </trkpt>
      <trkpt lat="43.127989" lon="-3.537338">
        <ele>1404.63</ele>
        <time>2021-03-27T18:56:22Z</time>
      </trkpt>
      <trkpt lat="43.128235" lon="-3.537702">
        <ele>1412.38</ele>
        <time>2021-03-27T18:56:27Z</time>
      </trkpt>
      <trkpt lat="43.128334" lon="-3.537897">
        <ele>1415.58</ele>
        <time>2021-03-27T18:56:31Z</time>
      </trkpt>
      <trkpt lat="43.128376" lon="-3.538103">
        <ele>1416.8</ele>
        <time>2021-03-27T18:56:35Z</time>
      </trkpt>
      <trkpt lat="43.128495" lon="-3.539199">
        <ele>1420.33</ele>
        <time>2021-03-27T18:56:39Z</time>
      </trkpt>
      <trkpt lat="43.128505" lon="-3.539386">
        <ele>1421.92</ele>
        <time>2021-03-27T18:56:43Z</time>
      </trkpt>
      <trkpt lat="43.128496" lon="-3.539739">
        <ele>1422.18</ele>
        <time>2021-03-27T18:56:47Z</time>
      </trkpt>
      <trkpt lat="43.128514" lon="-3.539906">
        <ele>1422.9</ele>
        <time>2021-03-27T18:56:51Z</time>
      </trkpt>
      <trkpt lat="43.128738" lon="-3.541005">
        <ele>1433.46</ele>
        <time>2021-03-27T18:56:55Z</time>
      </trkpt>
      <trkpt lat="43.128795" lon="-3.541209">
        <ele>1437.34</ele>
        <time>2021-03-27T18:57:00Z</time>
      </trkpt>
      <trkpt lat="43.128865" lon="-3.541308">
        <ele>1441.2</ele>
        <time>2021-03-27T18:57:04Z</time>
      </trkpt>
      <trkpt lat="43.128958" lon="-3.541323">
        <ele>1444.1</ele>
        <time>2021-03-27T18:57:08Z</time>
      </trkpt>
      <trkpt lat="43.129005" lon="-3.541307">
        <ele>1445.16</ele>
        <time>2021-03-27T18:57:12Z</time>
      </trkpt>
      <trkpt lat="43.129077" lon="-3.541206">
        <ele>1446.22</ele>
        <time>2021-03-27T18:57:16Z</time>
      </trkpt>
      <trkpt lat="43.129117" lon="-3.541">
        <ele>1445.77</ele>
        <time>2021-03-27T18:57:20Z</time>
      </trkpt>
      <trkpt lat="43.129176" lon="-3.54017">
        <ele>1444.11</ele>
        <time>2021-03-27T18:57:24Z</time>
      </trkpt>
      <trkpt lat="43.129222" lon="-3.540002">
        <ele>1444.8</ele>
        <time>2021-03-27T18:57:29Z</time>
      </trkpt>
      <trkpt lat="43.129265" lon="-3.539935">
        <ele>1445.33</ele>
        <time>2021-03-27T18:57:33Z</time>
      </trkpt>
      <trkpt lat="43.129345" lon="-3.539866">
        <ele>1446.26</ele>
        <time>2021-03-27T18:57:37Z</time>
      </trkpt>
      <trkpt lat="43.129438" lon="-3.539878">
        <ele>1447.48</ele>
        <time>2021-03-27T18:57:41Z</time>
      </trkpt>
      <trkpt lat="43.129482" lon="-3.539906">
        <ele>1447.89</ele>
        <time>2021-03-27T18:57:45Z</time>
      </trkpt>
      <trkpt lat="43.129549" lon="-3.540055">
        <ele>1448.55</ele>
        <time>2021-03-27T18:57:49Z</time>
      </trkpt>
      <trkpt lat="43.129592" lon="-3.540252">
        <ele>1448.15</ele>
        <time>2021-03-27T18:57:53Z</time>
      </trkpt>
      <trkpt lat="43.129722" lon="-3.541188">
        <ele>1456.83</ele>
        <time>2021-03-27T18:57:58Z</time>
      </trkpt>
      <trkpt lat="43.129743" lon="-3.54144">
        <ele>1458.93</ele>
        <time>2021-03-27T18:58:02Z</time>
      </trkpt>
      <trkpt lat="43.129727" lon="-3.541686">
        <ele>1463.14</ele>
        <time>2021-03-27T18:58:06Z</time>
      </trkpt>
      <trkpt lat="43.129693" lon="-3.541861">
        <ele>1465.38</ele>
        <time>2021-03-27T18:58:10Z</time>
      </trkpt>
      <trkpt lat="43.129586" lon="-3.542297">
        <ele>1470.29</ele>
        <time>2021-03-27T18:58:14Z</time>
      </trkpt>
      <trkpt lat="43.129232" lon="-3.543299">
        <ele>1484.61</ele>
        <time>2021-03-27T18:58:18Z</time>
      </trkpt>
      <trkpt lat="43.129136" lon="-3.543488">
        <ele>1485.53</ele>
        <time>2021-03-27T18:58:22Z</time>
      </trkpt>
      <trkpt lat="43.128866" lon="-3.543885">
        <ele>1486.36</ele>
        <time>2021-03-27T18:58:27Z</time>
      </trkpt>
      <trkpt lat="43.128779" lon="-3.544112">
        <ele>1487.13</ele>
        <time>2021-03-27T18:58:31Z</time>
      </trkpt>
      <trkpt lat="43.128775" lon="-3.54426">
        <ele>1487.92</ele>
        <time>2021-03-27T18:58:35Z</time>
      </trkpt>
      <trkpt lat="43.128833" lon="-3.544418">
        <ele>1490.13</ele>
        <time>2021-03-27T18:58:39Z</time>
      </trkpt>
      <trkpt lat="43.128971" lon="-3.544634">
        <ele>1491.93</ele>
        <time>2021-03-27T18:58:43Z</time>
      </trkpt>
      <trkpt lat="43.129237" lon="-3.544979">
        <ele>1494.04</ele>
        <time>2021-03-27T18:58:47Z</time>
      </trkpt>
      <trkpt lat="43.129326" lon="-3.545056">
        <ele>1495.13</ele>
        <time>2021-03-27T18:58:51Z</time>
      </trkpt>
      <trkpt lat="43.129925" lon="-3.545363">
        <ele>1506.3</ele>
        <time>2021-03-27T18:58:55Z</time>
      </trkpt>
      <trkpt lat="43.13016" lon="-3.545387">
        <ele>1511.37</ele>
        <time>2021-03-27T18:59:00Z</time>
      </trkpt>
      <trkpt lat="43.130225" lon="-3.545419">
        <ele>1512.33</ele>
        <time>2021-03-27T18:59:04Z</time>
      </trkpt>
      <trkpt lat="43.130629" lon="-3.545999">
        <ele>1510.57</ele>
        <time>2021-03-27T18:59:08Z</time>
      </trkpt>
      <trkpt lat="43.130695" lon="-3.546064">
        <ele>1510.6</ele>
        <time>2021-03-27T18:59:12Z</time>
      </trkpt>
      <trkpt lat="43.130771" lon="-3.546103">
        <ele>1511.2</ele>
        <time>2021-03-27T18:59:16Z</time>
      </trkpt>
      <trkpt lat="43.13084" lon="-3.546098">
        <ele>1512.19</ele>
        <time>2021-03-27T18:59:20Z</time>
      </trkpt>
      <trkpt lat="43.130906" lon="-3.546064">
        <ele>1512.98</ele>
        <time>2021-03-27T18:59:24Z</time>
      </trkpt>
      <trkpt lat="43.131021" lon="-3.545933">
        <ele>1515.15</ele>
        <time>2021-03-27T18:59:29Z</time>
      </trkpt>
      <trkpt lat="43.131021" lon="-3.545933">
        <ele>1515.15</ele>
        <time>2021-03-27T18:59:29Z</time>
      </trkpt>
      <trkpt lat="43.130906" lon="-3.546064">
        <ele>1512.98</ele>
        <time>2021-03-27T18:59:33Z</time>
      </trkpt>
      <trkpt lat="43.13084" lon="-3.546098">
        <ele>1512.19</ele>
        <time>2021-03-27T18:59:37Z</time>
      </trkpt>
      <trkpt lat="43.130771" lon="-3.546103">
        <ele>1511.2</ele>
        <time>2021-03-27T18:59:41Z</time>
      </trkpt>
      <trkpt lat="43.130695" lon="-3.546064">
        <ele>1510.6</ele>
        <time>2021-03-27T18:59:45Z</time>
      </trkpt>
      <trkpt lat="43.130629" lon="-3.545999">
        <ele>1510.57</ele>
        <time>2021-03-27T18:59:49Z</time>
      </trkpt>
      <trkpt lat="43.130225" lon="-3.545419">
        <ele>1512.33</ele>
        <time>2021-03-27T18:59:53Z</time>
      </trkpt>
      <trkpt lat="43.13016" lon="-3.545387">
        <ele>1511.37</ele>
        <time>2021-03-27T18:59:58Z</time>
      </trkpt>
      <trkpt lat="43.129925" lon="-3.545363">
        <ele>1506.3</ele>
        <time>2021-03-27T19:00:02Z</time>
      </trkpt>
      <trkpt lat="43.129326" lon="-3.545056">
        <ele>1495.13</ele>
        <time>2021-03-27T19:00:06Z</time>
      </trkpt>
      <trkpt lat="43.129237" lon="-3.544979">
        <ele>1494.04</ele>
        <time>2021-03-27T19:00:10Z</time>
      </trkpt>
      <trkpt lat="43.128971" lon="-3.544634">
        <ele>1491.93</ele>
        <time>2021-03-27T19:00:14Z</time>
      </trkpt>
      <trkpt lat="43.128833" lon="-3.544418">
        <ele>1490.13</ele>
        <time>2021-03-27T19:00:18Z</time>
      </trkpt>
      <trkpt lat="43.128775" lon="-3.54426">
        <ele>1487.92</ele>
        <time>2021-03-27T19:00:22Z</time>
      </trkpt>
      <trkpt lat="43.128779" lon="-3.544112">
        <ele>1487.13</ele>
        <time>2021-03-27T19:00:27Z</time>
      </trkpt>
      <trkpt lat="43.128866" lon="-3.543885">
        <ele>1486.36</ele>
        <time>2021-03-27T19:00:31Z</time>
      </trkpt>
      <trkpt lat="43.129136" lon="-3.543488">
        <ele>1485.53</ele>
        <time>2021-03-27T19:00:35Z</time>
      </trkpt>
      <trkpt lat="43.129232" lon="-3.543299">
        <ele>1484.61</ele>
        <time>2021-03-27T19:00:39Z</time>
      </trkpt>
      <trkpt lat="43.129586" lon="-3.542297">
        <ele>1470.29</ele>
        <time>2021-03-27T19:00:43Z</time>
      </trkpt>
      <trkpt lat="43.129693" lon="-3.541861">
        <ele>1465.38</ele>
        <time>2021-03-27T19:00:47Z</time>
      </trkpt>
      <trkpt lat="43.129727" lon="-3.541686">
        <ele>1463.14</ele>
        <time>2021-03-27T19:00:51Z</time>
      </trkpt>
      <trkpt lat="43.129743" lon="-3.54144">
        <ele>1458.93</ele>
        <time>2021-03-27T19:00:55Z</time>
      </trkpt>
      <trkpt lat="43.129722" lon="-3.541188">
        <ele>1456.83</ele>
        <time>2021-03-27T19:01:00Z</time>
      </trkpt>
      <trkpt lat="43.129592" lon="-3.540252">
        <ele>1448.15</ele>
        <time>2021-03-27T19:01:04Z</time>
      </trkpt>
      <trkpt lat="43.129549" lon="-3.540055">
        <ele>1448.55</ele>
        <time>2021-03-27T19:01:08Z</time>
      </trkpt>
      <trkpt lat="43.129482" lon="-3.539906">
        <ele>1447.89</ele>
        <time>2021-03-27T19:01:12Z</time>
      </trkpt>
      <trkpt lat="43.129438" lon="-3.539878">
        <ele>1447.48</ele>
        <time>2021-03-27T19:01:16Z</time>
      </trkpt>
      <trkpt lat="43.129345" lon="-3.539866">
        <ele>1446.26</ele>
        <time>2021-03-27T19:01:20Z</time>
      </trkpt>
      <trkpt lat="43.129265" lon="-3.539935">
        <ele>1445.33</ele>
        <time>2021-03-27T19:01:24Z</time>
      </trkpt>
      <trkpt lat="43.129222" lon="-3.540002">
        <ele>1444.8</ele>
        <time>2021-03-27T19:01:28Z</time>
      </trkpt>
      <trkpt lat="43.129176" lon="-3.54017">
        <ele>1444.11</ele>
        <time>2021-03-27T19:01:33Z</time>
      </trkpt>
      <trkpt lat="43.129117" lon="-3.541">
        <ele>1445.77</ele>
        <time>2021-03-27T19:01:37Z</time>
      </trkpt>
      <trkpt lat="43.129077" lon="-3.541206">
        <ele>1446.22</ele>
        <time>2021-03-27T19:01:41Z</time>
      </trkpt>
      <trkpt lat="43.129005" lon="-3.541307">
        <ele>1445.16</ele>
        <time>2021-03-27T19:01:45Z</time>
      </trkpt>
      <trkpt lat="43.128958" lon="-3.541323">
        <ele>1444.1</ele>
        <time>2021-03-27T19:01:49Z</time>
      </trkpt>
      <trkpt lat="43.128865" lon="-3.541308">
        <ele>1441.2</ele>
        <time>2021-03-27T19:01:53Z</time>
      </trkpt>
      <trkpt lat="43.128795" lon="-3.541209">
        <ele>1437.34</ele>
        <time>2021-03-27T19:01:57Z</time>
      </trkpt>
      <trkpt lat="43.128738" lon="-3.541005">
        <ele>1433.46</ele>
        <time>2021-03-27T19:02:02Z</time>
      </trkpt>
      <trkpt lat="43.128514" lon="-3.539906">
        <ele>1422.9</ele>
        <time>2021-03-27T19:02:06Z</time>
      </trkpt>
      <trkpt lat="43.128496" lon="-3.539739">
        <ele>1422.18</ele>
        <time>2021-03-27T19:02:10Z</time>
      </trkpt>
      <trkpt lat="43.128505" lon="-3.539386">
        <ele>1421.92</ele>
        <time>2021-03-27T19:02:14Z</time>
      </trkpt>
      <trkpt lat="43.128495" lon="-3.539199">
        <ele>1420.33</ele>
        <time>2021-03-27T19:02:18Z</time>
      </trkpt>
      <trkpt lat="43.128376" lon="-3.538103">
        <ele>1416.8</ele>
        <time>2021-03-27T19:02:22Z</time>
      </trkpt>
      <trkpt lat="43.128334" lon="-3.537897">
        <ele>1415.58</ele>
        <time>2021-03-27T19:02:26Z</time>
      </trkpt>
      <trkpt lat="43.128235" lon="-3.537702">
        <ele>1412.38</ele>
        <time>2021-03-27T19:02:30Z</time>
      </trkpt>
      <trkpt lat="43.127989" lon="-3.537338">
        <ele>1404.63</ele>
        <time>2021-03-27T19:02:35Z</time>
      </trkpt>
      <trkpt lat="43.127905" lon="-3.537179">
        <ele>1402.3</ele>
        <time>2021-03-27T19:02:39Z</time>
      </trkpt>
      <trkpt lat="43.127845" lon="-3.537011">
        <ele>1401.02</ele>
        <time>2021-03-27T19:02:43Z</time>
      </trkpt>
      <trkpt lat="43.127716" lon="-3.53651">
        <ele>1399.27</ele>
        <time>2021-03-27T19:02:47Z</time>
      </trkpt>
      <trkpt lat="43.127639" lon="-3.536303">
        <ele>1397.85</ele>
        <time>2021-03-27T19:02:51Z</time>
      </trkpt>
      <trkpt lat="43.127555" lon="-3.536175">
        <ele>1396.64</ele>
        <time>2021-03-27T19:02:55Z</time>
      </trkpt>
      <trkpt lat="43.127476" lon="-3.536107">
        <ele>1395.58</ele>
        <time>2021-03-27T19:02:59Z</time>
      </trkpt>
      <trkpt lat="43.125298" lon="-3.534707">
        <ele>1380.99</ele>
        <time>2021-03-27T19:03:03Z</time>
      </trkpt>
      <trkpt lat="43.125" lon="-3.534576">
        <ele>1379.27</ele>
        <time>2021-03-27T19:03:08Z</time>
      </trkpt>
      <trkpt lat="43.124478" lon="-3.534422">
        <ele>1375.26</ele>
        <time>2021-03-27T19:03:12Z</time>
      </trkpt>
      <trkpt lat="43.122618" lon="-3.53401">
        <ele>1352.37</ele>
        <time>2021-03-27T19:03:16Z</time>
      </trkpt>
      <trkpt lat="43.121538" lon="-3.533715">
        <ele>1333.81</ele>
        <time>2021-03-27T19:03:20Z</time>
      </trkpt>
      <trkpt lat="43.120279" lon="-3.533406">
        <ele>1315.42</ele>
        <time>2021-03-27T19:03:24Z</time>
      </trkpt>
      <trkpt lat="43.120068" lon="-3.533336">
        <ele>1311.85</ele>
        <time>2021-03-27T19:03:28Z</time>
      </trkpt>
      <trkpt lat="43.118586" lon="-3.532643">
        <ele>1296.25</ele>
        <time>2021-03-27T19:03:32Z</time>
      </trkpt>
      <trkpt lat="43.118154" lon="-3.532418">
        <ele>1290.33</ele>
        <time>2021-03-27T19:03:37Z</time>
      </trkpt>
      <trkpt lat="43.117043" lon="-3.531598">
        <ele>1277.51</ele>
        <time>2021-03-27T19:03:41Z</time>
      </trkpt>
      <trkpt lat="43.116268" lon="-3.530976">
        <ele>1266.04</ele>
        <time>2021-03-27T19:03:45Z</time>
      </trkpt>
      <trkpt lat="43.116043" lon="-3.530883">
        <ele>1263.04</ele>
        <time>2021-03-27T19:03:49Z</time>
      </trkpt>
      <trkpt lat="43.115409" lon="-3.530778">
        <ele>1256.59</ele>
        <time>2021-03-27T19:03:53Z</time>
      </trkpt>
      <trkpt lat="43.115212" lon="-3.530764">
        <ele>1253.8</ele>
        <time>2021-03-27T19:03:57Z</time>
      </trkpt>
      <trkpt lat="43.114746" lon="-3.530814">
        <ele>1248.93</ele>
        <time>2021-03-27T19:04:01Z</time>
      </trkpt>
      <trkpt lat="43.114045" lon="-3.530937">
        <ele>1238.52</ele>
        <time>2021-03-27T19:04:05Z</time>
      </trkpt>
      <trkpt lat="43.112977" lon="-3.530832">
        <ele>1221.14</ele>
        <time>2021-03-27T19:04:10Z</time>
      </trkpt>
      <trkpt lat="43.112349" lon="-3.530813">
        <ele>1216.78</ele>
        <time>2021-03-27T19:04:14Z</time>
      </trkpt>
      <trkpt lat="43.110167" lon="-3.531325">
        <ele>1199.44</ele>
        <time>2021-03-27T19:04:18Z</time>
      </trkpt>
      <trkpt lat="43.110037" lon="-3.531376">
        <ele>1198.34</ele>
        <time>2021-03-27T19:04:22Z</time>
      </trkpt>
      <trkpt lat="43.109238" lon="-3.53183">
        <ele>1189.31</ele>
        <time>2021-03-27T19:04:26Z</time>
      </trkpt>
      <trkpt lat="43.108984" lon="-3.532014">
        <ele>1186.46</ele>
        <time>2021-03-27T19:04:30Z</time>
      </trkpt>
      <trkpt lat="43.108519" lon="-3.532396">
        <ele>1179.93</ele>
        <time>2021-03-27T19:04:34Z</time>
      </trkpt>
      <trkpt lat="43.108354" lon="-3.532497">
        <ele>1178.27</ele>
        <time>2021-03-27T19:04:38Z</time>
      </trkpt>
      <trkpt lat="43.108272" lon="-3.532519">
        <ele>1177.13</ele>
        <time>2021-03-27T19:04:43Z</time>
      </trkpt>
      <trkpt lat="43.108097" lon="-3.532489">
        <ele>1174.48</ele>
        <time>2021-03-27T19:04:47Z</time>
      </trkpt>
      <trkpt lat="43.107736" lon="-3.532302">
        <ele>1169.86</ele>
        <time>2021-03-27T19:04:51Z</time>
      </trkpt>
      <trkpt lat="43.107242" lon="-3.532138">
        <ele>1165.63</ele>
        <time>2021-03-27T19:04:55Z</time>
      </trkpt>
      <trkpt lat="43.10688" lon="-3.532151">
        <ele>1162.43</ele>
        <time>2021-03-27T19:04:59Z</time>
      </trkpt>
      <trkpt lat="43.106318" lon="-3.532242">
        <ele>1154.31</ele>
        <time>2021-03-27T19:05:03Z</time>
      </trkpt>
      <trkpt lat="43.106236" lon="-3.532226">
        <ele>1152.85</ele>
        <time>2021-03-27T19:05:07Z</time>
      </trkpt>
      <trkpt lat="43.105936" lon="-3.532094">
        <ele>1146.74</ele>
        <time>2021-03-27T19:05:12Z</time>
      </trkpt>
      <trkpt lat="43.105802" lon="-3.532068">
        <ele>1145.11</ele>
        <time>2021-03-27T19:05:16Z</time>
      </trkpt>
      <trkpt lat="43.105635" lon="-3.532108">
        <ele>1144.34</ele>
        <time>2021-03-27T19:05:20Z</time>
      </trkpt>
      <trkpt lat="43.105228" lon="-3.53236">
        <ele>1142.59</ele>
        <time>2021-03-27T19:05:24Z</time>
      </trkpt>
      <trkpt lat="43.105063" lon="-3.532411">
        <ele>1140.17</ele>
        <time>2021-03-27T19:05:28Z</time>
      </trkpt>
      <trkpt lat="43.105005" lon="-3.532396">
        <ele>1138.96</ele>
        <time>2021-03-27T19:05:32Z</time>
      </trkpt>
      <trkpt lat="43.104273" lon="-3.531944">
        <ele>1128.36</ele>
        <time>2021-03-27T19:05:36Z</time>
      </trkpt>
      <trkpt lat="43.103967" lon="-3.531826">
        <ele>1122.03</ele>
        <time>2021-03-27T19:05:40Z</time>
      </trkpt>
      <trkpt lat="43.103742" lon="-3.531781">
        <ele>1117.98</ele>
        <time>2021-03-27T19:05:45Z</time>
      </trkpt>
      <trkpt lat="43.102925" lon="-3.531709">
        <ele>1108.11</ele>
        <time>2021-03-27T19:05:49Z</time>
      </trkpt>
      <trkpt lat="43.102646" lon="-3.531788">
        <ele>1104.83</ele>
        <time>2021-03-27T19:05:53Z</time>
      </trkpt>
      <trkpt lat="43.102367" lon="-3.531929">
        <ele>1101.41</ele>
        <time>2021-03-27T19:05:57Z</time>
      </trkpt>
      <trkpt lat="43.102199" lon="-3.531968">
        <ele>1098.83</ele>
        <time>2021-03-27T19:06:01Z</time>
      </trkpt>
      <trkpt lat="43.101774" lon="-3.53202">
        <ele>1089.46</ele>
        <time>2021-03-27T19:06:05Z</time>
      </trkpt>
      <trkpt lat="43.100763" lon="-3.532348">
        <ele>1072.0</ele>
        <time>2021-03-27T19:06:09Z</time>
      </trkpt>
      <trkpt lat="43.100532" lon="-3.532458">
        <ele>1066.59</ele>
        <time>2021-03-27T19:06:13Z</time>
      </trkpt>
      <trkpt lat="43.100305" lon="-3.532608">
        <ele>1062.01</ele>
        <time>2021-03-27T19:06:18Z</time>
      </trkpt>
      <trkpt lat="43.099759" lon="-3.533052">
        <ele>1052.91</ele>
        <time>2021-03-27T19:06:22Z</time>
      </trkpt>
      <trkpt lat="43.099581" lon="-3.533231">
        <ele>1051.22</ele>
        <time>2021-03-27T19:06:26Z</time>
      </trkpt>
      <trkpt lat="43.099306" lon="-3.533566">
        <ele>1047.35</ele>
        <time>2021-03-27T19:06:30Z</time>
      </trkpt>
      <trkpt lat="43.098523" lon="-3.534832">
        <ele>1035.28</ele>
        <time>2021-03-27T19:06:34Z</time>
      </trkpt>
      <trkpt lat="43.098415" lon="-3.534976">
        <ele>1032.28</ele>
        <time>2021-03-27T19:06:38Z</time>
      </trkpt>
      <trkpt lat="43.098239" lon="-3.535147">
        <ele>1028.69</ele>
        <time>2021-03-27T19:06:42Z</time>
      </trkpt>
      <trkpt lat="43.097962" lon="-3.535396">
        <ele>1023.06</ele>
        <time>2021-03-27T19:06:46Z</time>
      </trkpt>
      <trkpt lat="43.097811" lon="-3.535492">
        <ele>1019.6</ele>
        <time>2021-03-27T19:06:51Z</time>
      </trkpt>
      <trkpt lat="43.097633" lon="-3.535588">
        <ele>1016.27</ele>
        <time>2021-03-27T19:06:55Z</time>
      </trkpt>
      <trkpt lat="43.097051" lon="-3.535843">
        <ele>1013.14</ele>
        <time>2021-03-27T19:06:59Z</time>
      </trkpt>
      <trkpt lat="43.096848" lon="-3.536002">
        <ele>1013.41</ele>
        <time>2021-03-27T19:07:03Z</time>
      </trkpt>
      <trkpt lat="43.096715" lon="-3.536157">
        <ele>1013.91</ele>
        <time>2021-03-27T19:07:07Z</time>
      </trkpt>
      <trkpt lat="43.095555" lon="-3.53774">
        <ele>1006.0</ele>
        <time>2021-03-27T19:07:11Z</time>
      </trkpt>
      <trkpt lat="43.095415" lon="-3.537848">
        <ele>1006.25</ele>
        <time>2021-03-27T19:07:15Z</time>
      </trkpt>
      <trkpt lat="43.095096" lon="-3.537973">
        <ele>1004.45</ele>
        <time>2021-03-27T19:07:20Z</time>
      </trkpt>
      <trkpt lat="43.09454" lon="-3.538155">
        <ele>997.81</ele>
        <time>2021-03-27T19:07:24Z</time>
      </trkpt>
      <trkpt lat="43.094381" lon="-3.538186">
        <ele>996.99</ele>
        <time>2021-03-27T19:07:28Z</time>
      </trkpt>
      <trkpt lat="43.094123" lon="-3.538189">
        <ele>996.8</ele>
        <time>2021-03-27T19:07:32Z</time>
      </trkpt>
      <trkpt lat="43.093584" lon="-3.5381">
        <ele>993.71</ele>
        <time>2021-03-27T19:07:36Z</time>
      </trkpt>
      <trkpt lat="43.093242" lon="-3.538032">
        <ele>991.88</ele>
        <time>2021-03-27T19:07:40Z</time>
      </trkpt>
      <trkpt lat="43.093164" lon="-3.538004">
        <ele>991.58</ele>
        <time>2021-03-27T19:07:44Z</time>
      </trkpt>
      <trkpt lat="43.093102" lon="-3.537958">
        <ele>990.78</ele>
        <time>2021-03-27T19:07:48Z</time>
      </trkpt>
      <trkpt lat="43.093004" lon="-3.537818">
        <ele>988.14</ele>
        <time>2021-03-27T19:07:53Z</time>
      </trkpt>
      <trkpt lat="43.091928" lon="-3.535488">
        <ele>969.98</ele>
        <time>2021-03-27T19:07:57Z</time>
      </trkpt>
      <trkpt lat="43.09183" lon="-3.535302">
        <ele>967.31</ele>
        <time>2021-03-27T19:08:01Z</time>
      </trkpt>
      <trkpt lat="43.091555" lon="-3.534945">
        <ele>960.93</ele>
        <time>2021-03-27T19:08:05Z</time>
      </trkpt>
      <trkpt lat="43.091136" lon="-3.534466">
        <ele>953.46</ele>
        <time>2021-03-27T19:08:09Z</time>
      </trkpt>
      <trkpt lat="43.090879" lon="-3.534203">
        <ele>948.04</ele>
        <time>2021-03-27T19:08:13Z</time>
      </trkpt>
      <trkpt lat="43.090645" lon="-3.534034">
        <ele>945.31</ele>
        <time>2021-03-27T19:08:17Z</time>
      </trkpt>
      <trkpt lat="43.090379" lon="-3.533935">
        <ele>943.8</ele>
        <time>2021-03-27T19:08:21Z</time>
      </trkpt>
      <trkpt lat="43.089906" lon="-3.533867">
        <ele>940.24</ele>
        <time>2021-03-27T19:08:26Z</time>
      </trkpt>
      <trkpt lat="43.089368" lon="-3.533746">
        <ele>931.96</ele>
        <time>2021-03-27T19:08:30Z</time>
      </trkpt>
      <trkpt lat="43.089223" lon="-3.533742">
        <ele>930.07</ele>
        <time>2021-03-27T19:08:34Z</time>
      </trkpt>
      <trkpt lat="43.089106" lon="-3.533764">
        <ele>928.88</ele>
        <time>2021-03-27T19:08:38Z</time>
      </trkpt>
      <trkpt lat="43.088704" lon="-3.533993">
        <ele>925.53</ele>
        <time>2021-03-27T19:08:42Z</time>
      </trkpt>
      <trkpt lat="43.088387" lon="-3.534249">
        <ele>922.12</ele>
        <time>2021-03-27T19:08:46Z</time>
      </trkpt>
      <trkpt lat="43.08809" lon="-3.534556">
        <ele>919.07</ele>
        <time>2021-03-27T19:08:50Z</time>
      </trkpt>
      <trkpt lat="43.086575" lon="-3.536366">
        <ele>889.91</ele>
        <time>2021-03-27T19:08:55Z</time>
      </trkpt>
      <trkpt lat="43.08649" lon="-3.536576">
        <ele>888.61</ele>
        <time>2021-03-27T19:08:59Z</time>
      </trkpt>
      <trkpt lat="43.086202" lon="-3.537052">
        <ele>883.35</ele>
        <time>2021-03-27T19:09:03Z</time>
      </trkpt>
      <trkpt lat="43.085967" lon="-3.537529">
        <ele>879.27</ele>
        <time>2021-03-27T19:09:07Z</time>
      </trkpt>
      <trkpt lat="43.085871" lon="-3.537664">
        <ele>876.36</ele>
        <time>2021-03-27T19:09:11Z</time>
      </trkpt>
      <trkpt lat="43.085736" lon="-3.537804">
        <ele>872.95</ele>
        <time>2021-03-27T19:09:15Z</time>
      </trkpt>
      <trkpt lat="43.08553" lon="-3.537965">
        <ele>868.4</ele>
        <time>2021-03-27T19:09:19Z</time>
      </trkpt>
      <trkpt lat="43.085206" lon="-3.538164">
        <ele>863.29</ele>
        <time>2021-03-27T19:09:23Z</time>
      </trkpt>
      <trkpt lat="43.08459" lon="-3.53839">
        <ele>855.03</ele>
        <time>2021-03-27T19:09:28Z</time>
      </trkpt>
      <trkpt lat="43.084482" lon="-3.538483">
        <ele>853.76</ele>
        <time>2021-03-27T19:09:32Z</time>
      </trkpt>
      <trkpt lat="43.08437" lon="-3.538678">
        <ele>852.77</ele>
        <time>2021-03-27T19:09:36Z</time>
      </trkpt>
      <trkpt lat="43.084286" lon="-3.538887">
        <ele>851.02</ele>
        <time>2021-03-27T19:09:40Z</time>
      </trkpt>
      <trkpt lat="43.084189" lon="-3.539218">
        <ele>847.54</ele>
        <time>2021-03-27T19:09:44Z</time>
      </trkpt>
      <trkpt lat="43.08418" lon="-3.53944">
        <ele>847.25</ele>
        <time>2021-03-27T19:09:48Z</time>
      </trkpt>
      <trkpt lat="43.084247" lon="-3.53978">
        <ele>848.98</ele>
        <time>2021-03-27T19:09:52Z</time>
      </trkpt>
      <trkpt lat="43.084224" lon="-3.53987">
        <ele>849.32</ele>
        <time>2021-03-27T19:09:56Z</time>
      </trkpt>
      <trkpt lat="43.084179" lon="-3.539934">
        <ele>848.8</ele>
        <time>2021-03-27T19:10:01Z</time>
      </trkpt>
      <trkpt lat="43.084116" lon="-3.539957">
        <ele>848.3</ele>
        <time>2021-03-27T19:10:05Z</time>
      </trkpt>
      <trkpt lat="43.084036" lon="-3.539943">
        <ele>847.55</ele>
        <time>2021-03-27T19:10:09Z</time>
      </trkpt>
      <trkpt lat="43.083539" lon="-3.539615">
        <ele>839.9</ele>
        <time>2021-03-27T19:10:13Z</time>
      </trkpt>
      <trkpt lat="43.083445" lon="-3.539601">
        <ele>838.56</ele>
        <time>2021-03-27T19:10:17Z</time>
      </trkpt>
      <trkpt lat="43.08336" lon="-3.539624">
        <ele>837.64</ele>
        <time>2021-03-27T19:10:21Z</time>
      </trkpt>
      <trkpt lat="43.083243" lon="-3.539691">
        <ele>836.19</ele>
        <time>2021-03-27T19:10:25Z</time>
      </trkpt>
      <trkpt lat="43.083161" lon="-3.539764">
        <ele>835.11</ele>
        <time>2021-03-27T19:10:30Z</time>
      </trkpt>
      <trkpt lat="43.083095" lon="-3.539859">
        <ele>834.27</ele>
        <time>2021-03-27T19:10:34Z</time>
      </trkpt>
      <trkpt lat="43.082553" lon="-3.54122">
        <ele>830.11</ele>
        <time>2021-03-27T19:10:38Z</time>
      </trkpt>
      <trkpt lat="43.082291" lon="-3.542087">
        <ele>828.01</ele>
        <time>2021-03-27T19:10:42Z</time>
      </trkpt>
      <trkpt lat="43.082244" lon="-3.542183">
        <ele>827.33</ele>
        <time>2021-03-27T19:10:46Z</time>
      </trkpt>
      <trkpt lat="43.082159" lon="-3.542257">
        <ele>826.51</ele>
        <time>2021-03-27T19:10:50Z</time>
      </trkpt>
      <trkpt lat="43.082002" lon="-3.54233">
        <ele>824.78</ele>
        <time>2021-03-27T19:10:54Z</time>
      </trkpt>
      <trkpt lat="43.081836" lon="-3.542484">
        <ele>822.42</ele>
        <time>2021-03-27T19:10:58Z</time>
      </trkpt>
      <trkpt lat="43.081654" lon="-3.542716">
        <ele>818.97</ele>
        <time>2021-03-27T19:11:03Z</time>
      </trkpt>
      <trkpt lat="43.081555" lon="-3.54291">
        <ele>816.51</ele>
        <time>2021-03-27T19:11:07Z</time>
      </trkpt>
      <trkpt lat="43.081477" lon="-3.543106">
        <ele>814.65</ele>
        <time>2021-03-27T19:11:11Z</time>
      </trkpt>
      <trkpt lat="43.081396" lon="-3.543411">
        <ele>813.43</ele>
        <time>2021-03-27T19:11:15Z</time>
      </trkpt>
      <trkpt lat="43.081361" lon="-3.543653">
        <ele>813.95</ele>
        <time>2021-03-27T19:11:19Z</time>
      </trkpt>
      <trkpt lat="43.081295" lon="-3.54383">
        <ele>814.11</ele>
        <time>2021-03-27T19:11:23Z</time>
      </trkpt>
      <trkpt lat="43.081203" lon="-3.543911">
        <ele>813.77</ele>
        <time>2021-03-27T19:11:27Z</time>
      </trkpt>
      <trkpt lat="43.081145" lon="-3.543921">
        <ele>813.45</ele>
        <time>2021-03-27T19:11:31Z</time>
      </trkpt>
      <trkpt lat="43.080886" lon="-3.54384">
        <ele>813.49</ele>
        <time>2021-03-27T19:11:36Z</time>
      </trkpt>
      <trkpt lat="43.080722" lon="-3.543828">
        <ele>812.62</ele>
        <time>2021-03-27T19:11:40Z</time>
      </trkpt>
      <trkpt lat="43.08064" lon="-3.543841">
        <ele>811.92</ele>
        <time>2021-03-27T19:11:44Z</time>
      </trkpt>
      <trkpt lat="43.080516" lon="-3.543899">
        <ele>810.42</ele>
        <time>2021-03-27T19:11:48Z</time>
      </trkpt>
      <trkpt lat="43.080414" lon="-3.544031">
        <ele>808.71</ele>
        <time>2021-03-27T19:11:52Z</time>
      </trkpt>
      <trkpt lat="43.080389" lon="-3.544103">
        <ele>808.15</ele>
        <time>2021-03-27T19:11:56Z</time>
      </trkpt>
      <trkpt lat="43.080323" lon="-3.544468">
        <ele>806.72</ele>
        <time>2021-03-27T19:12:00Z</time>
      </trkpt>
      <trkpt lat="43.080164" lon="-3.544849">
        <ele>805.18</ele>
        <time>2021-03-27T19:12:05Z</time>
      </trkpt>
      <trkpt lat="43.080134" lon="-3.545037">
        <ele>805.42</ele>
        <time>2021-03-27T19:12:09Z</time>
      </trkpt>
      <trkpt lat="43.080165" lon="-3.54596">
        <ele>798.86</ele>
        <time>2021-03-27T19:12:13Z</time>
      </trkpt>
      <trkpt lat="43.080097" lon="-3.546395">
        <ele>794.35</ele>
        <time>2021-03-27T19:12:17Z</time>
      </trkpt>
      <trkpt lat="43.080124" lon="-3.546542">
        <ele>793.17</ele>
        <time>2021-03-27T19:12:21Z</time>
      </trkpt>
      <trkpt lat="43.080219" lon="-3.546675">
        <ele>794.18</ele>
        <time>2021-03-27T19:12:25Z</time>
      </trkpt>
      <trkpt lat="43.080423" lon="-3.546834">
        <ele>797.46</ele>
        <time>2021-03-27T19:12:29Z</time>
      </trkpt>
      <trkpt lat="43.080694" lon="-3.547129">
        <ele>798.35</ele>
        <time>2021-03-27T19:12:33Z</time>
      </trkpt>
      <trkpt lat="43.080796" lon="-3.547326">
        <ele>799.41</ele>
        <time>2021-03-27T19:12:38Z</time>
      </trkpt>
      <trkpt lat="43.080808" lon="-3.547389">
        <ele>799.59</ele>
        <time>2021-03-27T19:12:42Z</time>
      </trkpt>
      <trkpt lat="43.08079" lon="-3.547529">
        <ele>799.03</ele>
        <time>2021-03-27T19:12:46Z</time>
      </trkpt>
      <trkpt lat="43.080703" lon="-3.547645">
        <ele>797.88</ele>
        <time>2021-03-27T19:12:50Z</time>
      </trkpt>
      <trkpt lat="43.080633" lon="-3.547701">
        <ele>796.39</ele>
        <time>2021-03-27T19:12:54Z</time>
      </trkpt>
      <trkpt lat="43.080373" lon="-3.547818">
        <ele>789.76</ele>
        <time>2021-03-27T19:12:58Z</time>
      </trkpt>
      <trkpt lat="43.080029" lon="-3.548025">
        <ele>783.38</ele>
        <time>2021-03-27T19:13:02Z</time>
      </trkpt>
      <trkpt lat="43.079929" lon="-3.548103">
        <ele>781.05</ele>
        <time>2021-03-27T19:13:06Z</time>
      </trkpt>
      <trkpt lat="43.079661" lon="-3.548377">
        <ele>774.46</ele>
        <time>2021-03-27T19:13:11Z</time>
      </trkpt>
      <trkpt lat="43.079579" lon="-3.548496">
        <ele>773.08</ele>
        <time>2021-03-27T19:13:15Z</time>
      </trkpt>
      <trkpt lat="43.079446" lon="-3.548924">
        <ele>770.91</ele>
        <time>2021-03-27T19:13:19Z</time>
      </trkpt>
      <trkpt lat="43.079487" lon="-3.54929">
        <ele>770.55</ele>
        <time>2021-03-27T19:13:23Z</time>
      </trkpt>
      <trkpt lat="43.079451" lon="-3.54945">
        <ele>769.14</ele>
        <time>2021-03-27T19:13:27Z</time>
      </trkpt>
      <trkpt lat="43.07935" lon="-3.54967">
        <ele>767.17</ele>
        <time>2021-03-27T19:13:31Z</time>
      </trkpt>
      <trkpt lat="43.078406" lon="-3.549558">
        <ele>756.96</ele>
        <time>2021-03-27T19:13:37Z</time>
      </trkpt>
      <trkpt lat="43.078096" lon="-3.549478">
        <ele>756.88</ele>
        <time>2021-03-27T19:13:43Z</time>
      </trkpt>
      <trkpt lat="43.078039" lon="-3.549489">
        <ele>756.85</ele>
        <time>2021-03-27T19:13:48Z</time>
      </trkpt>
      <trkpt lat="43.077955" lon="-3.549562">
        <ele>756.73</ele>
        <time>2021-03-27T19:13:54Z</time>
      </trkpt>
      <trkpt lat="43.077914" lon="-3.549631">
        <ele>756.67</ele>
        <time>2021-03-27T19:13:59Z</time>
      </trkpt>
      <trkpt lat="43.077653" lon="-3.549935">
        <ele>756.68</ele>
        <time>2021-03-27T19:14:05Z</time>
      </trkpt>
      <trkpt lat="43.077328" lon="-3.549358">
        <ele>758.45</ele>
        <time>2021-03-27T19:14:08Z</time>
      </trkpt>
      <trkpt lat="43.077136" lon="-3.548953">
        <ele>759.24</ele>
        <time>2021-03-27T19:14:11Z</time>
      </trkpt>
      <trkpt lat="43.076976" lon="-3.548392">
        <ele>759.88</ele>
        <time>2021-03-27T19:14:15Z</time>
      </trkpt>
      <trkpt lat="43.076854" lon="-3.548154">
        <ele>758.71</ele>
        <time>2021-03-27T19:14:18Z</time>
      </trkpt>
      <trkpt lat="43.07659" lon="-3.547859">
        <ele>756.78</ele>
        <time>2021-03-27T19:14:21Z</time>
      </trkpt>
      <trkpt lat="43.076455" lon="-3.547639">
        <ele>756.14</ele>
        <time>2021-03-27T19:14:24Z</time>
      </trkpt>
      <trkpt lat="43.076352" lon="-3.547412">
        <ele>756.13</ele>
        <time>2021-03-27T19:14:27Z</time>
      </trkpt>
      <trkpt lat="43.076222" lon="-3.547289">
        <ele>756.6</ele>
        <time>2021-03-27T19:14:30Z</time>
      </trkpt>
      <trkpt lat="43.076003" lon="-3.546964">
        <ele>756.25</ele>
        <time>2021-03-27T19:14:33Z</time>
      </trkpt>
      <trkpt lat="43.075936" lon="-3.546805">
        <ele>755.05</ele>
        <time>2021-03-27T19:14:37Z</time>
      </trkpt>
      <trkpt lat="43.075761" lon="-3.546198">
        <ele>753.95</ele>
        <time>2021-03-27T19:14:40Z</time>
      </trkpt>
      <trkpt lat="43.075674" lon="-3.546165">
        <ele>754.38</ele>
        <time>2021-03-27T19:14:41Z</time>
      </trkpt>
      <trkpt lat="43.075857" lon="-3.545641">
        <ele>754.46</ele>
        <time>2021-03-27T19:14:48Z</time>
      </trkpt>
      <trkpt lat="43.075899" lon="-3.545317">
        <ele>754.29</ele>
        <time>2021-03-27T19:14:55Z</time>
      </trkpt>
      <trkpt lat="43.075911" lon="-3.544966">
        <ele>754.93</ele>
        <time>2021-03-27T19:15:02Z</time>
      </trkpt>
      <trkpt lat="43.075884" lon="-3.544716">
        <ele>755.86</ele>
        <time>2021-03-27T19:15:10Z</time>
      </trkpt>
      <trkpt lat="43.075834" lon="-3.54453">
        <ele>755.6</ele>
        <time>2021-03-27T19:15:17Z</time>
      </trkpt>
      <trkpt lat="43.075315" lon="-3.542887">
        <ele>752.41</ele>
        <time>2021-03-27T19:15:24Z</time>
      </trkpt>
      <trkpt lat="43.075129" lon="-3.542353">
        <ele>752.82</ele>
        <time>2021-03-27T19:15:32Z</time>
      </trkpt>
      <trkpt lat="43.074244" lon="-3.540402">
        <ele>744.0</ele>
        <time>2021-03-27T19:15:39Z</time>
      </trkpt>
      <trkpt lat="43.074092" lon="-3.540037">
        <ele>743.37</ele>
        <time>2021-03-27T19:15:46Z</time>
      </trkpt>
      <trkpt lat="43.073989" lon="-3.539671">
        <ele>743.43</ele>
        <time>2021-03-27T19:15:53Z</time>
      </trkpt>
      <trkpt lat="43.07383" lon="-3.538928">
        <ele>742.82</ele>
        <time>2021-03-27T19:16:01Z</time>
      </trkpt>
      <trkpt lat="43.073786" lon="-3.538721">
        <ele>742.03</ele>
        <time>2021-03-27T19:16:08Z</time>
      </trkpt>
      <trkpt lat="43.0735" lon="-3.537338">
        <ele>739.23</ele>
        <time>2021-03-27T19:16:15Z</time>
      </trkpt>
      <trkpt lat="43.0734" lon="-3.536853">
        <ele>741.52</ele>
        <time>2021-03-27T19:16:22Z</time>
      </trkpt>
      <trkpt lat="43.072801" lon="-3.534061">
        <ele>736.59</ele>
        <time>2021-03-27T19:16:30Z</time>
      </trkpt>
      <trkpt lat="43.072864" lon="-3.533996">
        <ele>736.2</ele>
        <time>2021-03-27T19:16:34Z</time>
      </trkpt>
      <trkpt lat="43.072924" lon="-3.533873">
        <ele>735.42</ele>
        <time>2021-03-27T19:16:37Z</time>
      </trkpt>
      <trkpt lat="43.075122" lon="-3.523067">
        <ele>720.88</ele>
        <time>2021-03-27T19:16:41Z</time>
      </trkpt>
      <trkpt lat="43.075743" lon="-3.519883">
        <ele>720.25</ele>
        <time>2021-03-27T19:16:45Z</time>
      </trkpt>
      <trkpt lat="43.075822" lon="-3.519252">
        <ele>718.33</ele>
        <time>2021-03-27T19:16:49Z</time>
      </trkpt>
      <trkpt lat="43.075887" lon="-3.51824">
        <ele>721.53</ele>
        <time>2021-03-27T19:16:53Z</time>
      </trkpt>
      <trkpt lat="43.075868" lon="-3.517194">
        <ele>724.24</ele>
        <time>2021-03-27T19:16:57Z</time>
      </trkpt>
      <trkpt lat="43.075847" lon="-3.516871">
        <ele>724.3</ele>
        <time>2021-03-27T19:17:01Z</time>
      </trkpt>
      <trkpt lat="43.075579" lon="-3.514271">
        <ele>729.08</ele>
        <time>2021-03-27T19:17:05Z</time>
      </trkpt>
      <trkpt lat="43.075618" lon="-3.51319">
        <ele>730.37</ele>
        <time>2021-03-27T19:17:09Z</time>
      </trkpt>
      <trkpt lat="43.075664" lon="-3.512909">
        <ele>731.39</ele>
        <time>2021-03-27T19:17:12Z</time>
      </trkpt>
      <trkpt lat="43.07572" lon="-3.512736">
        <ele>731.53</ele>
        <time>2021-03-27T19:17:16Z</time>
      </trkpt>
      <trkpt lat="43.075829" lon="-3.51248">
        <ele>731.9</ele>
        <time>2021-03-27T19:17:20Z</time>
      </trkpt>
      <trkpt lat="43.081523" lon="-3.502081">
        <ele>754.81</ele>
        <time>2021-03-27T19:17:24Z</time>
      </trkpt>
      <trkpt lat="43.081644" lon="-3.501798">
        <ele>753.81</ele>
        <time>2021-03-27T19:17:28Z</time>
      </trkpt>
      <trkpt lat="43.081924" lon="-3.50074">
        <ele>750.47</ele>
        <time>2021-03-27T19:17:32Z</time>
      </trkpt>
      <trkpt lat="43.081991" lon="-3.500524">
        <ele>750.37</ele>
        <time>2021-03-27T19:17:36Z</time>
      </trkpt>
      <trkpt lat="43.082056" lon="-3.500407">
        <ele>750.45</ele>
        <time>2021-03-27T19:17:40Z</time>
      </trkpt>
      <trkpt lat="43.082156" lon="-3.500302">
        <ele>750.67</ele>
        <time>2021-03-27T19:17:44Z</time>
      </trkpt>
      <trkpt lat="43.082382" lon="-3.50014">
        <ele>749.6</ele>
        <time>2021-03-27T19:17:48Z</time>
      </trkpt>
      <trkpt lat="43.082809" lon="-3.499912">
        <ele>749.31</ele>
        <time>2021-03-27T19:17:51Z</time>
      </trkpt>
      <trkpt lat="43.082959" lon="-3.499807">
        <ele>749.68</ele>
        <time>2021-03-27T19:17:55Z</time>
      </trkpt>
      <trkpt lat="43.083035" lon="-3.499712">
        <ele>749.71</ele>
        <time>2021-03-27T19:17:59Z</time>
      </trkpt>
      <trkpt lat="43.083086" lon="-3.499611">
        <ele>749.35</ele>
        <time>2021-03-27T19:18:03Z</time>
      </trkpt>
      <trkpt lat="43.083093" lon="-3.49949">
        <ele>748.58</ele>
        <time>2021-03-27T19:18:07Z</time>
      </trkpt>
      <trkpt lat="43.08307" lon="-3.499294">
        <ele>747.56</ele>
        <time>2021-03-27T19:18:11Z</time>
      </trkpt>
      <trkpt lat="43.08294" lon="-3.498723">
        <ele>743.99</ele>
        <time>2021-03-27T19:18:15Z</time>
      </trkpt>
      <trkpt lat="43.082903" lon="-3.498505">
        <ele>743.57</ele>
        <time>2021-03-27T19:18:19Z</time>
      </trkpt>
      <trkpt lat="43.082899" lon="-3.498333">
        <ele>743.87</ele>
        <time>2021-03-27T19:18:23Z</time>
      </trkpt>
      <trkpt lat="43.082917" lon="-3.498083">
        <ele>743.56</ele>
        <time>2021-03-27T19:18:26Z</time>
      </trkpt>
      <trkpt lat="43.083079" lon="-3.49717">
        <ele>743.14</ele>
        <time>2021-03-27T19:18:30Z</time>
      </trkpt>
      <trkpt lat="43.083137" lon="-3.496998">
        <ele>743.11</ele>
        <time>2021-03-27T19:18:34Z</time>
      </trkpt>
      <trkpt lat="43.083211" lon="-3.496843">
        <ele>742.68</ele>
        <time>2021-03-27T19:18:38Z</time>
      </trkpt>
      <trkpt lat="43.083357" lon="-3.496662">
        <ele>743.07</ele>
        <time>2021-03-27T19:18:42Z</time>
      </trkpt>
      <trkpt lat="43.084117" lon="-3.495879">
        <ele>743.6</ele>
        <time>2021-03-27T19:18:46Z</time>
      </trkpt>
      <trkpt lat="43.084251" lon="-3.495705">
        <ele>743.04</ele>
        <time>2021-03-27T19:18:50Z</time>
      </trkpt>
      <trkpt lat="43.084339" lon="-3.495559">
        <ele>742.52</ele>
        <time>2021-03-27T19:18:54Z</time>
      </trkpt>
      <trkpt lat="43.084422" lon="-3.495335">
        <ele>742.1</ele>
        <time>2021-03-27T19:18:58Z</time>
      </trkpt>
      <trkpt lat="43.08537" lon="-3.491446">
        <ele>742.34</ele>
        <time>2021-03-27T19:19:01Z</time>
      </trkpt>
      <trkpt lat="43.085416" lon="-3.491352">
        <ele>742.92</ele>
        <time>2021-03-27T19:19:05Z</time>
      </trkpt>
      <trkpt lat="43.085483" lon="-3.491298">
        <ele>743.87</ele>
        <time>2021-03-27T19:19:09Z</time>
      </trkpt>
      <trkpt lat="43.085668" lon="-3.491225">
        <ele>746.79</ele>
        <time>2021-03-27T19:19:13Z</time>
      </trkpt>
      <trkpt lat="43.085733" lon="-3.491171">
        <ele>747.7</ele>
        <time>2021-03-27T19:19:17Z</time>
      </trkpt>
      <trkpt lat="43.085772" lon="-3.491073">
        <ele>747.96</ele>
        <time>2021-03-27T19:19:21Z</time>
      </trkpt>
      <trkpt lat="43.085786" lon="-3.490937">
        <ele>747.59</ele>
        <time>2021-03-27T19:19:25Z</time>
      </trkpt>
      <trkpt lat="43.085708" lon="-3.490249">
        <ele>744.14</ele>
        <time>2021-03-27T19:19:29Z</time>
      </trkpt>
      <trkpt lat="43.08572" lon="-3.490028">
        <ele>744.0</ele>
        <time>2021-03-27T19:19:33Z</time>
      </trkpt>
      <trkpt lat="43.086111" lon="-3.487751">
        <ele>744.91</ele>
        <time>2021-03-27T19:19:36Z</time>
      </trkpt>
      <trkpt lat="43.086192" lon="-3.487387">
        <ele>745.58</ele>
        <time>2021-03-27T19:19:40Z</time>
      </trkpt>
      <trkpt lat="43.086294" lon="-3.48706">
        <ele>747.38</ele>
        <time>2021-03-27T19:19:44Z</time>
      </trkpt>
      <trkpt lat="43.087257" lon="-3.4846">
        <ele>758.56</ele>
        <time>2021-03-27T19:19:48Z</time>
      </trkpt>
      <trkpt lat="43.087297" lon="-3.484448">
        <ele>759.34</ele>
        <time>2021-03-27T19:19:52Z</time>
      </trkpt>
      <trkpt lat="43.087306" lon="-3.484337">
        <ele>760.16</ele>
        <time>2021-03-27T19:19:56Z</time>
      </trkpt>
      <trkpt lat="43.087276" lon="-3.484223">
        <ele>760.41</ele>
        <time>2021-03-27T19:20:00Z</time>
      </trkpt>
      <trkpt lat="43.087225" lon="-3.484112">
        <ele>760.63</ele>
        <time>2021-03-27T19:20:04Z</time>
      </trkpt>
      <trkpt lat="43.086775" lon="-3.483566">
        <ele>762.89</ele>
        <time>2021-03-27T19:20:08Z</time>
      </trkpt>
      <trkpt lat="43.086748" lon="-3.483468">
        <ele>763.2</ele>
        <time>2021-03-27T19:20:11Z</time>
      </trkpt>
      <trkpt lat="43.086741" lon="-3.483363">
        <ele>763.85</ele>
        <time>2021-03-27T19:20:15Z</time>
      </trkpt>
      <trkpt lat="43.086759" lon="-3.48324">
        <ele>764.45</ele>
        <time>2021-03-27T19:20:19Z</time>
      </trkpt>
      <trkpt lat="43.086806" lon="-3.483081">
        <ele>765.46</ele>
        <time>2021-03-27T19:20:23Z</time>
      </trkpt>
      <trkpt lat="43.086935" lon="-3.482796">
        <ele>766.84</ele>
        <time>2021-03-27T19:20:27Z</time>
      </trkpt>
      <trkpt lat="43.088167" lon="-3.480653">
        <ele>776.9</ele>
        <time>2021-03-27T19:20:31Z</time>
      </trkpt>
      <trkpt lat="43.088339" lon="-3.480418">
        <ele>779.13</ele>
        <time>2021-03-27T19:20:35Z</time>
      </trkpt>
      <trkpt lat="43.088959" lon="-3.47967">
        <ele>785.12</ele>
        <time>2021-03-27T19:20:39Z</time>
      </trkpt>
      <trkpt lat="43.089086" lon="-3.479597">
        <ele>787.42</ele>
        <time>2021-03-27T19:20:43Z</time>
      </trkpt>
      <trkpt lat="43.089242" lon="-3.47961">
        <ele>789.97</ele>
        <time>2021-03-27T19:20:46Z</time>
      </trkpt>
      <trkpt lat="43.0908" lon="-3.480187">
        <ele>791.63</ele>
        <time>2021-03-27T19:20:50Z</time>
      </trkpt>
      <trkpt lat="43.091017" lon="-3.480241">
        <ele>792.53</ele>
        <time>2021-03-27T19:20:54Z</time>
      </trkpt>
      <trkpt lat="43.09117" lon="-3.480237">
        <ele>792.89</ele>
        <time>2021-03-27T19:20:58Z</time>
      </trkpt>
      <trkpt lat="43.091323" lon="-3.480161">
        <ele>792.9</ele>
        <time>2021-03-27T19:21:02Z</time>
      </trkpt>
      <trkpt lat="43.091501" lon="-3.480025">
        <ele>793.37</ele>
        <time>2021-03-27T19:21:06Z</time>
      </trkpt>
      <trkpt lat="43.092003" lon="-3.479521">
        <ele>792.34</ele>
        <time>2021-03-27T19:21:10Z</time>
      </trkpt>
      <trkpt lat="43.092124" lon="-3.479362">
        <ele>791.06</ele>
        <time>2021-03-27T19:21:14Z</time>
      </trkpt>
      <trkpt lat="43.092154" lon="-3.479245">
        <ele>790.53</ele>
        <time>2021-03-27T19:21:18Z</time>
      </trkpt>
      <trkpt lat="43.092142" lon="-3.479123">
        <ele>790.13</ele>
        <time>2021-03-27T19:21:21Z</time>
      </trkpt>
      <trkpt lat="43.088877" lon="-3.465619">
        <ele>745.19</ele>
        <time>2021-03-27T19:21:25Z</time>
      </trkpt>
      <trkpt lat="43.088795" lon="-3.465163">
        <ele>743.39</ele>
        <time>2021-03-27T19:21:29Z</time>
      </trkpt>
      <trkpt lat="43.08877" lon="-3.464383">
        <ele>743.13</ele>
        <time>2021-03-27T19:21:33Z</time>
      </trkpt>
      <trkpt lat="43.088747" lon="-3.464175">
        <ele>743.47</ele>
        <time>2021-03-27T19:21:37Z</time>
      </trkpt>
      <trkpt lat="43.088681" lon="-3.463877">
        <ele>742.2</ele>
        <time>2021-03-27T19:21:41Z</time>
      </trkpt>
      <trkpt lat="43.088544" lon="-3.463568">
        <ele>740.88</ele>
        <time>2021-03-27T19:21:45Z</time>
      </trkpt>
      <trkpt lat="43.088272" lon="-3.46305">
        <ele>740.22</ele>
        <time>2021-03-27T19:21:49Z</time>
      </trkpt>
      <trkpt lat="43.088198" lon="-3.462845">
        <ele>740.12</ele>
        <time>2021-03-27T19:21:53Z</time>
      </trkpt>
      <trkpt lat="43.086781" lon="-3.456994">
        <ele>738.48</ele>
        <time>2021-03-27T19:21:56Z</time>
      </trkpt>
      <trkpt lat="43.086652" lon="-3.456662">
        <ele>741.07</ele>
        <time>2021-03-27T19:22:00Z</time>
      </trkpt>
      <trkpt lat="43.086595" lon="-3.45655">
        <ele>741.57</ele>
        <time>2021-03-27T19:22:04Z</time>
      </trkpt>
      <trkpt lat="43.086419" lon="-3.456376">
        <ele>741.95</ele>
        <time>2021-03-27T19:22:08Z</time>
      </trkpt>
      <trkpt lat="43.086278" lon="-3.45627">
        <ele>741.17</ele>
        <time>2021-03-27T19:22:12Z</time>
      </trkpt>
      <trkpt lat="43.086193" lon="-3.456262">
        <ele>740.84</ele>
        <time>2021-03-27T19:22:14Z</time>
      </trkpt>
      <trkpt lat="43.086146" lon="-3.456236">
        <ele>740.57</ele>
        <time>2021-03-27T19:22:16Z</time>
      </trkpt>
      <trkpt lat="43.086071" lon="-3.456142">
        <ele>740.25</ele>
        <time>2021-03-27T19:22:18Z</time>
      </trkpt>
      <trkpt lat="43.086036" lon="-3.456012">
        <ele>740.27</ele>
        <time>2021-03-27T19:22:20Z</time>
      </trkpt>
      <trkpt lat="43.086037" lon="-3.455928">
        <ele>740.26</ele>
        <time>2021-03-27T19:22:22Z</time>
      </trkpt>
      <trkpt lat="43.085972" lon="-3.45583">
        <ele>740.5</ele>
        <time>2021-03-27T19:22:24Z</time>
      </trkpt>
      <trkpt lat="43.085903" lon="-3.455762">
        <ele>740.75</ele>
        <time>2021-03-27T19:22:25Z</time>
      </trkpt>
      <trkpt lat="43.085786" lon="-3.4557">
        <ele>741.17</ele>
        <time>2021-03-27T19:22:27Z</time>
      </trkpt>
      <trkpt lat="43.084235" lon="-3.455319">
        <ele>739.26</ele>
        <time>2021-03-27T19:22:29Z</time>
      </trkpt>
      <trkpt lat="43.084067" lon="-3.455253">
        <ele>738.41</ele>
        <time>2021-03-27T19:22:31Z</time>
      </trkpt>
      <trkpt lat="43.083949" lon="-3.455185">
        <ele>737.47</ele>
        <time>2021-03-27T19:22:33Z</time>
      </trkpt>
      <trkpt lat="43.08378" lon="-3.454942">
        <ele>736.26</ele>
        <time>2021-03-27T19:22:35Z</time>
      </trkpt>
      <trkpt lat="43.083183" lon="-3.453594">
        <ele>734.51</ele>
        <time>2021-03-27T19:22:37Z</time>
      </trkpt>
      <trkpt lat="43.083213" lon="-3.45353">
        <ele>734.31</ele>
        <time>2021-03-27T19:22:44Z</time>
      </trkpt>
      <trkpt lat="43.08349" lon="-3.453179">
        <ele>733.76</ele>
        <time>2021-03-27T19:22:50Z</time>
      </trkpt>
      <trkpt lat="43.083609" lon="-3.452967">
        <ele>733.99</ele>
        <time>2021-03-27T19:22:57Z</time>
      </trkpt>
      <trkpt lat="43.084179" lon="-3.451526">
        <ele>736.0</ele>
        <time>2021-03-27T19:23:03Z</time>
      </trkpt>
      <trkpt lat="43.084922" lon="-3.449754">
        <ele>738.72</ele>
        <time>2021-03-27T19:23:10Z</time>
      </trkpt>
      <trkpt lat="43.085121" lon="-3.449407">
        <ele>739.81</ele>
        <time>2021-03-27T19:23:17Z</time>
      </trkpt>
      <trkpt lat="43.085755" lon="-3.448449">
        <ele>739.72</ele>
        <time>2021-03-27T19:23:23Z</time>
      </trkpt>
      <trkpt lat="43.087179" lon="-3.4462">
        <ele>742.74</ele>
        <time>2021-03-27T19:23:30Z</time>
      </trkpt>
      <trkpt lat="43.087249" lon="-3.445852">
        <ele>744.23</ele>
        <time>2021-03-27T19:23:37Z</time>
      </trkpt>
      <trkpt lat="43.087222" lon="-3.445438">
        <ele>744.42</ele>
        <time>2021-03-27T19:23:43Z</time>
      </trkpt>
      <trkpt lat="43.087113" lon="-3.445283">
        <ele>744.19</ele>
        <time>2021-03-27T19:23:50Z</time>
      </trkpt>
      <trkpt lat="43.086991" lon="-3.445182">
        <ele>743.62</ele>
        <time>2021-03-27T19:23:56Z</time>
      </trkpt>
      <trkpt lat="43.08693" lon="-3.445175">
        <ele>743.32</ele>
        <time>2021-03-27T19:24:03Z</time>
      </trkpt>
      <trkpt lat="43.086872" lon="-3.445146">
        <ele>743.21</ele>
        <time>2021-03-27T19:24:04Z</time>
      </trkpt>
      <trkpt lat="43.086809" lon="-3.445081">
        <ele>743.22</ele>
        <time>2021-03-27T19:24:05Z</time>
      </trkpt>
      <trkpt lat="43.086784" lon="-3.445019">
        <ele>743.36</ele>
        <time>2021-03-27T19:24:06Z</time>
      </trkpt>
      <trkpt lat="43.086752" lon="-3.444935">
        <ele>743.7</ele>
        <time>2021-03-27T19:24:08Z</time>
      </trkpt>
      <trkpt lat="43.086752" lon="-3.444783">
        <ele>744.63</ele>
        <time>2021-03-27T19:24:09Z</time>
      </trkpt>
      <trkpt lat="43.086844" lon="-3.444597">
        <ele>745.45</ele>
        <time>2021-03-27T19:24:10Z</time>
      </trkpt>
      <trkpt lat="43.086902" lon="-3.444555">
        <ele>745.6</ele>
        <time>2021-03-27T19:24:11Z</time>
      </trkpt>
      <trkpt lat="43.087057" lon="-3.444554">
        <ele>745.36</ele>
        <time>2021-03-27T19:24:12Z</time>
      </trkpt>
      <trkpt lat="43.087348" lon="-3.444429">
        <ele>745.03</ele>
        <time>2021-03-27T19:24:17Z</time>
      </trkpt>
      <trkpt lat="43.087422" lon="-3.44438">
        <ele>745.16</ele>
        <time>2021-03-27T19:24:22Z</time>
      </trkpt>
      <trkpt lat="43.087558" lon="-3.444336">
        <ele>745.72</ele>
        <time>2021-03-27T19:24:27Z</time>
      </trkpt>
      <trkpt lat="43.088416" lon="-3.443301">
        <ele>749.41</ele>
        <time>2021-03-27T19:24:31Z</time>
      </trkpt>
      <trkpt lat="43.088868" lon="-3.442615">
        <ele>748.49</ele>
        <time>2021-03-27T19:24:36Z</time>
      </trkpt>
      <trkpt lat="43.089237" lon="-3.441957">
        <ele>749.16</ele>
        <time>2021-03-27T19:24:41Z</time>
      </trkpt>
      <trkpt lat="43.089645" lon="-3.441118">
        <ele>748.31</ele>
        <time>2021-03-27T19:24:46Z</time>
      </trkpt>
      <trkpt lat="43.089937" lon="-3.440406">
        <ele>748.77</ele>
        <time>2021-03-27T19:24:51Z</time>
      </trkpt>
      <trkpt lat="43.090325" lon="-3.439148">
        <ele>748.83</ele>
        <time>2021-03-27T19:24:56Z</time>
      </trkpt>
      <trkpt lat="43.090812" lon="-3.437703">
        <ele>751.05</ele>
        <time>2021-03-27T19:25:01Z</time>
      </trkpt>
      <trkpt lat="43.090979" lon="-3.437281">
        <ele>751.53</ele>
        <time>2021-03-27T19:25:05Z</time>
      </trkpt>
      <trkpt lat="43.091802" lon="-3.435609">
        <ele>748.15</ele>
        <time>2021-03-27T19:25:10Z</time>
      </trkpt>
      <trkpt lat="43.091997" lon="-3.435122">
        <ele>750.28</ele>
        <time>2021-03-27T19:25:15Z</time>
      </trkpt>
      <trkpt lat="43.092077" lon="-3.434878">
        <ele>749.81</ele>
        <time>2021-03-27T19:25:20Z</time>
      </trkpt>
      <trkpt lat="43.092202" lon="-3.434402">
        <ele>746.89</ele>
        <time>2021-03-27T19:25:25Z</time>
      </trkpt>
      <trkpt lat="43.092307" lon="-3.433794">
        <ele>740.22</ele>
        <time>2021-03-27T19:25:30Z</time>
      </trkpt>
      <trkpt lat="43.09235" lon="-3.433106">
        <ele>737.25</ele>
        <time>2021-03-27T19:25:35Z</time>
      </trkpt>
      <trkpt lat="43.092324" lon="-3.431453">
        <ele>726.04</ele>
        <time>2021-03-27T19:25:39Z</time>
      </trkpt>
      <trkpt lat="43.092364" lon="-3.431052">
        <ele>723.53</ele>
        <time>2021-03-27T19:25:44Z</time>
      </trkpt>
      <trkpt lat="43.092419" lon="-3.430701">
        <ele>721.59</ele>
        <time>2021-03-27T19:25:49Z</time>
      </trkpt>
      <trkpt lat="43.092603" lon="-3.430018">
        <ele>717.09</ele>
        <time>2021-03-27T19:25:54Z</time>
      </trkpt>
      <trkpt lat="43.092925" lon="-3.429136">
        <ele>709.86</ele>
        <time>2021-03-27T19:25:59Z</time>
      </trkpt>
      <trkpt lat="43.093018" lon="-3.428836">
        <ele>708.65</ele>
        <time>2021-03-27T19:26:04Z</time>
      </trkpt>
      <trkpt lat="43.093096" lon="-3.428496">
        <ele>708.7</ele>
        <time>2021-03-27T19:26:08Z</time>
      </trkpt>
      <trkpt lat="43.093416" lon="-3.426595">
        <ele>697.41</ele>
        <time>2021-03-27T19:26:13Z</time>
      </trkpt>
      <trkpt lat="43.09363" lon="-3.425491">
        <ele>692.24</ele>
        <time>2021-03-27T19:26:18Z</time>
      </trkpt>
      <trkpt lat="43.093861" lon="-3.424499">
        <ele>688.79</ele>
        <time>2021-03-27T19:26:23Z</time>
      </trkpt>
      <trkpt lat="43.094353" lon="-3.423139">
        <ele>686.28</ele>
        <time>2021-03-27T19:26:28Z</time>
      </trkpt>
      <trkpt lat="43.094499" lon="-3.422682">
        <ele>683.33</ele>
        <time>2021-03-27T19:26:33Z</time>
      </trkpt>
      <trkpt lat="43.094657" lon="-3.421949">
        <ele>677.4</ele>
        <time>2021-03-27T19:26:38Z</time>
      </trkpt>
      <trkpt lat="43.094706" lon="-3.421567">
        <ele>676.21</ele>
        <time>2021-03-27T19:26:42Z</time>
      </trkpt>
      <trkpt lat="43.094743" lon="-3.421004">
        <ele>675.21</ele>
        <time>2021-03-27T19:26:47Z</time>
      </trkpt>
      <trkpt lat="43.094773" lon="-3.419837">
        <ele>668.6</ele>
        <time>2021-03-27T19:26:52Z</time>
      </trkpt>
      <trkpt lat="43.094826" lon="-3.419316">
        <ele>665.79</ele>
        <time>2021-03-27T19:26:57Z</time>
      </trkpt>
      <trkpt lat="43.095449" lon="-3.414803">
        <ele>652.83</ele>
        <time>2021-03-27T19:27:02Z</time>
      </trkpt>
      <trkpt lat="43.095589" lon="-3.413681">
        <ele>648.98</ele>
        <time>2021-03-27T19:27:07Z</time>
      </trkpt>
      <trkpt lat="43.095723" lon="-3.412324">
        <ele>644.75</ele>
        <time>2021-03-27T19:27:12Z</time>
      </trkpt>
      <trkpt lat="43.095771" lon="-3.411692">
        <ele>645.09</ele>
        <time>2021-03-27T19:27:16Z</time>
      </trkpt>
      <trkpt lat="43.095835" lon="-3.410194">
        <ele>639.03</ele>
        <time>2021-03-27T19:27:21Z</time>
      </trkpt>
      <trkpt lat="43.095859" lon="-3.406331">
        <ele>623.41</ele>
        <time>2021-03-27T19:27:26Z</time>
      </trkpt>
      <trkpt lat="43.095823" lon="-3.405489">
        <ele>622.73</ele>
        <time>2021-03-27T19:27:31Z</time>
      </trkpt>
      <trkpt lat="43.095754" lon="-3.404653">
        <ele>615.02</ele>
        <time>2021-03-27T19:27:36Z</time>
      </trkpt>
      <trkpt lat="43.095634" lon="-3.403768">
        <ele>610.27</ele>
        <time>2021-03-27T19:27:41Z</time>
      </trkpt>
      <trkpt lat="43.095426" lon="-3.402788">
        <ele>601.79</ele>
        <time>2021-03-27T19:27:45Z</time>
      </trkpt>
      <trkpt lat="43.09523" lon="-3.402107">
        <ele>595.8</ele>
        <time>2021-03-27T19:27:50Z</time>
      </trkpt>
      <trkpt lat="43.095067" lon="-3.401605">
        <ele>590.99</ele>
        <time>2021-03-27T19:27:55Z</time>
      </trkpt>
      <trkpt lat="43.094807" lon="-3.400903">
        <ele>586.99</ele>
        <time>2021-03-27T19:28:00Z</time>
      </trkpt>
      <trkpt lat="43.094231" lon="-3.39952">
        <ele>577.53</ele>
        <time>2021-03-27T19:28:05Z</time>
      </trkpt>
      <trkpt lat="43.093929" lon="-3.398665">
        <ele>568.96</ele>
        <time>2021-03-27T19:28:10Z</time>
      </trkpt>
      <trkpt lat="43.09373" lon="-3.397921">
        <ele>561.69</ele>
        <time>2021-03-27T19:28:15Z</time>
      </trkpt>
      <trkpt lat="43.093597" lon="-3.397324">
        <ele>557.22</ele>
        <time>2021-03-27T19:28:19Z</time>
      </trkpt>
      <trkpt lat="43.093422" lon="-3.396075">
        <ele>550.15</ele>
        <time>2021-03-27T19:28:24Z</time>
      </trkpt>
      <trkpt lat="43.09325" lon="-3.394733">
        <ele>540.1</ele>
        <time>2021-03-27T19:28:29Z</time>
      </trkpt>
      <trkpt lat="43.09315" lon="-3.394116">
        <ele>537.78</ele>
        <time>2021-03-27T19:28:34Z</time>
      </trkpt>
      <trkpt lat="43.092953" lon="-3.393205">
        <ele>532.41</ele>
        <time>2021-03-27T19:28:39Z</time>
      </trkpt>
      <trkpt lat="43.092681" lon="-3.39224">
        <ele>528.46</ele>
        <time>2021-03-27T19:28:44Z</time>
      </trkpt>
      <trkpt lat="43.092424" lon="-3.391402">
        <ele>533.42</ele>
        <time>2021-03-27T19:28:49Z</time>
      </trkpt>
      <trkpt lat="43.092274" lon="-3.390782">
        <ele>537.44</ele>
        <time>2021-03-27T19:28:53Z</time>
      </trkpt>
      <trkpt lat="43.092159" lon="-3.390083">
        <ele>534.98</ele>
        <time>2021-03-27T19:28:58Z</time>
      </trkpt>
      <trkpt lat="43.092132" lon="-3.389519">
        <ele>537.11</ele>
        <time>2021-03-27T19:29:03Z</time>
      </trkpt>
      <trkpt lat="43.092139" lon="-3.388961">
        <ele>540.48</ele>
        <time>2021-03-27T19:29:08Z</time>
      </trkpt>
      <trkpt lat="43.092198" lon="-3.388339">
        <ele>542.32</ele>
        <time>2021-03-27T19:29:13Z</time>
      </trkpt>
      <trkpt lat="43.092269" lon="-3.387926">
        <ele>542.92</ele>
        <time>2021-03-27T19:29:18Z</time>
      </trkpt>
      <trkpt lat="43.092422" lon="-3.387279">
        <ele>544.48</ele>
        <time>2021-03-27T19:29:23Z</time>
      </trkpt>
      <trkpt lat="43.092545" lon="-3.386857">
        <ele>544.57</ele>
        <time>2021-03-27T19:29:27Z</time>
      </trkpt>
      <trkpt lat="43.09281" lon="-3.386245">
        <ele>542.64</ele>
        <time>2021-03-27T19:29:32Z</time>
      </trkpt>
      <trkpt lat="43.09359" lon="-3.38467">
        <ele>530.91</ele>
        <time>2021-03-27T19:29:37Z</time>
      </trkpt>
      <trkpt lat="43.093987" lon="-3.383601">
        <ele>528.59</ele>
        <time>2021-03-27T19:29:42Z</time>
      </trkpt>
      <trkpt lat="43.094203" lon="-3.38278">
        <ele>525.48</ele>
        <time>2021-03-27T19:29:47Z</time>
      </trkpt>
      <trkpt lat="43.094708" lon="-3.380187">
        <ele>521.44</ele>
        <time>2021-03-27T19:29:52Z</time>
      </trkpt>
      <trkpt lat="43.094859" lon="-3.379242">
        <ele>527.6</ele>
        <time>2021-03-27T19:29:56Z</time>
      </trkpt>
      <trkpt lat="43.094938" lon="-3.378442">
        <ele>531.28</ele>
        <time>2021-03-27T19:30:01Z</time>
      </trkpt>
      <trkpt lat="43.094938" lon="-3.37782">
        <ele>533.22</ele>
        <time>2021-03-27T19:30:06Z</time>
      </trkpt>
      <trkpt lat="43.094918" lon="-3.377416">
        <ele>533.7</ele>
        <time>2021-03-27T19:30:11Z</time>
      </trkpt>
      <trkpt lat="43.094859" lon="-3.376953">
        <ele>533.49</ele>
        <time>2021-03-27T19:30:16Z</time>
      </trkpt>
      <trkpt lat="43.094701" lon="-3.375963">
        <ele>532.51</ele>
        <time>2021-03-27T19:30:21Z</time>
      </trkpt>
      <trkpt lat="43.094058" lon="-3.372246">
        <ele>522.34</ele>
        <time>2021-03-27T19:30:26Z</time>
      </trkpt>
      <trkpt lat="43.094043" lon="-3.372067">
        <ele>521.53</ele>
        <time>2021-03-27T19:30:30Z</time>
      </trkpt>
      <trkpt lat="43.094053" lon="-3.369624">
        <ele>508.05</ele>
        <time>2021-03-27T19:30:35Z</time>
      </trkpt>
      <trkpt lat="43.094072" lon="-3.367808">
        <ele>498.59</ele>
        <time>2021-03-27T19:30:40Z</time>
      </trkpt>
      <trkpt lat="43.094059" lon="-3.366869">
        <ele>495.55</ele>
        <time>2021-03-27T19:30:45Z</time>
      </trkpt>
      <trkpt lat="43.094036" lon="-3.366392">
        <ele>495.35</ele>
        <time>2021-03-27T19:30:50Z</time>
      </trkpt>
      <trkpt lat="43.093932" lon="-3.365468">
        <ele>490.85</ele>
        <time>2021-03-27T19:30:55Z</time>
      </trkpt>
      <trkpt lat="43.093772" lon="-3.364605">
        <ele>483.24</ele>
        <time>2021-03-27T19:31:00Z</time>
      </trkpt>
      <trkpt lat="43.093676" lon="-3.364203">
        <ele>479.02</ele>
        <time>2021-03-27T19:31:04Z</time>
      </trkpt>
      <trkpt lat="43.093365" lon="-3.363231">
        <ele>473.05</ele>
        <time>2021-03-27T19:31:09Z</time>
      </trkpt>
      <trkpt lat="43.092501" lon="-3.361098">
        <ele>457.87</ele>
        <time>2021-03-27T19:31:14Z</time>
      </trkpt>
      <trkpt lat="43.092407" lon="-3.360836">
        <ele>456.7</ele>
        <time>2021-03-27T19:31:19Z</time>
      </trkpt>
      <trkpt lat="43.092297" lon="-3.36043">
        <ele>459.58</ele>
        <time>2021-03-27T19:31:24Z</time>
      </trkpt>
      <trkpt lat="43.09228" lon="-3.360267">
        <ele>459.83</ele>
        <time>2021-03-27T19:31:29Z</time>
      </trkpt>
      <trkpt lat="43.092278" lon="-3.359729">
        <ele>456.22</ele>
        <time>2021-03-27T19:31:33Z</time>
      </trkpt>
      <trkpt lat="43.092239" lon="-3.359446">
        <ele>456.51</ele>
        <time>2021-03-27T19:31:38Z</time>
      </trkpt>
      <trkpt lat="43.092194" lon="-3.359287">
        <ele>456.03</ele>
        <time>2021-03-27T19:31:43Z</time>
      </trkpt>
      <trkpt lat="43.091994" lon="-3.358751">
        <ele>452.94</ele>
        <time>2021-03-27T19:31:48Z</time>
      </trkpt>
      <trkpt lat="43.091962" lon="-3.358592">
        <ele>451.41</ele>
        <time>2021-03-27T19:31:53Z</time>
      </trkpt>
      <trkpt lat="43.091939" lon="-3.35841">
        <ele>450.13</ele>
        <time>2021-03-27T19:31:58Z</time>
      </trkpt>
      <trkpt lat="43.091938" lon="-3.358218">
        <ele>449.34</ele>
        <time>2021-03-27T19:32:03Z</time>
      </trkpt>
      <trkpt lat="43.091981" lon="-3.357534">
        <ele>440.95</ele>
        <time>2021-03-27T19:32:07Z</time>
      </trkpt>
      <trkpt lat="43.091952" lon="-3.35723">
        <ele>438.03</ele>
        <time>2021-03-27T19:32:12Z</time>
      </trkpt>
      <trkpt lat="43.091868" lon="-3.356624">
        <ele>438.61</ele>
        <time>2021-03-27T19:32:17Z</time>
      </trkpt>
      <trkpt lat="43.091643" lon="-3.355382">
        <ele>431.15</ele>
        <time>2021-03-27T19:32:22Z</time>
      </trkpt>
      <trkpt lat="43.091624" lon="-3.355202">
        <ele>428.45</ele>
        <time>2021-03-27T19:32:27Z</time>
      </trkpt>
      <trkpt lat="43.091616" lon="-3.354894">
        <ele>425.23</ele>
        <time>2021-03-27T19:32:32Z</time>
      </trkpt>
      <trkpt lat="43.09165" lon="-3.35463">
        <ele>423.02</ele>
        <time>2021-03-27T19:32:37Z</time>
      </trkpt>
      <trkpt lat="43.091647" lon="-3.354433">
        <ele>422.24</ele>
        <time>2021-03-27T19:32:41Z</time>
      </trkpt>
      <trkpt lat="43.091561" lon="-3.35374">
        <ele>417.91</ele>
        <time>2021-03-27T19:32:46Z</time>
      </trkpt>
      <trkpt lat="43.091575" lon="-3.353319">
        <ele>413.89</ele>
        <time>2021-03-27T19:32:51Z</time>
      </trkpt>
      <trkpt lat="43.091607" lon="-3.353052">
        <ele>411.97</ele>
        <time>2021-03-27T19:32:56Z</time>
      </trkpt>
      <trkpt lat="43.092226" lon="-3.349454">
        <ele>389.98</ele>
        <time>2021-03-27T19:33:01Z</time>
      </trkpt>
      <trkpt lat="43.092461" lon="-3.348067">
        <ele>385.05</ele>
        <time>2021-03-27T19:33:06Z</time>
      </trkpt>
      <trkpt lat="43.092936" lon="-3.34544">
        <ele>380.43</ele>
        <time>2021-03-27T19:33:11Z</time>
      </trkpt>
      <trkpt lat="43.092981" lon="-3.345253">
        <ele>380.27</ele>
        <time>2021-03-27T19:33:15Z</time>
      </trkpt>
      <trkpt lat="43.093239" lon="-3.34432">
        <ele>383.77</ele>
        <time>2021-03-27T19:33:20Z</time>
      </trkpt>
      <trkpt lat="43.093542" lon="-3.343488">
        <ele>379.59</ele>
        <time>2021-03-27T19:33:25Z</time>
      </trkpt>
      <trkpt lat="43.093879" lon="-3.342774">
        <ele>374.94</ele>
        <time>2021-03-27T19:33:30Z</time>
      </trkpt>
      <trkpt lat="43.094057" lon="-3.342441">
        <ele>372.06</ele>
        <time>2021-03-27T19:33:35Z</time>
      </trkpt>
      <trkpt lat="43.094335" lon="-3.341986">
        <ele>370.21</ele>
        <time>2021-03-27T19:33:40Z</time>
      </trkpt>
      <trkpt lat="43.095494" lon="-3.340242">
        <ele>364.68</ele>
        <time>2021-03-27T19:33:44Z</time>
      </trkpt>
      <trkpt lat="43.09617" lon="-3.339021">
        <ele>363.1</ele>
        <time>2021-03-27T19:33:49Z</time>
      </trkpt>
      <trkpt lat="43.097077" lon="-3.337183">
        <ele>365.88</ele>
        <time>2021-03-27T19:33:54Z</time>
      </trkpt>
      <trkpt lat="43.099234" lon="-3.332072">
        <ele>366.65</ele>
        <time>2021-03-27T19:33:59Z</time>
      </trkpt>
      <trkpt lat="43.099299" lon="-3.33165">
        <ele>367.0</ele>
        <time>2021-03-27T19:34:01Z</time>
      </trkpt>
      <trkpt lat="43.099177" lon="-3.331635">
        <ele>367.0</ele>
        <time>2021-03-27T19:34:03Z</time>
      </trkpt>
      <trkpt lat="43.0991" lon="-3.331597">
        <ele>366.82</ele>
        <time>2021-03-27T19:34:05Z</time>
      </trkpt>
      <trkpt lat="43.098941" lon="-3.331277">
        <ele>366.75</ele>
        <time>2021-03-27T19:34:07Z</time>
      </trkpt>
      <trkpt lat="43.099805" lon="-3.32962">
        <ele>370.8</ele>
        <time>2021-03-27T19:34:10Z</time>
      </trkpt>
      <trkpt lat="43.099846" lon="-3.329502">
        <ele>371.93</ele>
        <time>2021-03-27T19:34:13Z</time>
      </trkpt>
      <trkpt lat="43.099853" lon="-3.3294">
        <ele>373.01</ele>
        <time>2021-03-27T19:34:16Z</time>
      </trkpt>
      <trkpt lat="43.099841" lon="-3.329268">
        <ele>374.48</ele>
        <time>2021-03-27T19:34:19Z</time>
      </trkpt>
      <trkpt lat="43.099798" lon="-3.329159">
        <ele>375.81</ele>
        <time>2021-03-27T19:34:22Z</time>
      </trkpt>
      <trkpt lat="43.099713" lon="-3.329024">
        <ele>377.56</ele>
        <time>2021-03-27T19:34:25Z</time>
      </trkpt>
      <trkpt lat="43.099612" lon="-3.328925">
        <ele>378.95</ele>
        <time>2021-03-27T19:34:28Z</time>
      </trkpt>
      <trkpt lat="43.099109" lon="-3.328549">
        <ele>382.21</ele>
        <time>2021-03-27T19:34:30Z</time>
      </trkpt>
      <trkpt lat="43.099054" lon="-3.328483">
        <ele>382.38</ele>
        <time>2021-03-27T19:34:33Z</time>
      </trkpt>
      <trkpt lat="43.099011" lon="-3.328342">
        <ele>383.24</ele>
        <time>2021-03-27T19:34:36Z</time>
      </trkpt>
      <trkpt lat="43.099004" lon="-3.328213">
        <ele>383.24</ele>
        <time>2021-03-27T19:34:39Z</time>
      </trkpt>
      <trkpt lat="43.099052" lon="-3.327966">
        <ele>383.76</ele>
        <time>2021-03-27T19:34:42Z</time>
      </trkpt>
      <trkpt lat="43.09948" lon="-3.327181">
        <ele>385.98</ele>
        <time>2021-03-27T19:34:45Z</time>
      </trkpt>
      <trkpt lat="43.099563" lon="-3.326974">
        <ele>385.54</ele>
        <time>2021-03-27T19:34:48Z</time>
      </trkpt>
      <trkpt lat="43.099653" lon="-3.326519">
        <ele>384.62</ele>
        <time>2021-03-27T19:34:51Z</time>
      </trkpt>
      <trkpt lat="43.099718" lon="-3.326344">
        <ele>384.81</ele>
        <time>2021-03-27T19:34:54Z</time>
      </trkpt>
      <trkpt lat="43.099782" lon="-3.32624">
        <ele>385.01</ele>
        <time>2021-03-27T19:34:57Z</time>
      </trkpt>
      <trkpt lat="43.099951" lon="-3.326065">
        <ele>386.3</ele>
        <time>2021-03-27T19:35:00Z</time>
      </trkpt>
      <trkpt lat="43.10005" lon="-3.32581">
        <ele>386.27</ele>
        <time>2021-03-27T19:35:03Z</time>
      </trkpt>
      <trkpt lat="43.100119" lon="-3.325717">
        <ele>386.44</ele>
        <time>2021-03-27T19:35:06Z</time>
      </trkpt>
      <trkpt lat="43.1002" lon="-3.325675">
        <ele>386.87</ele>
        <time>2021-03-27T19:35:06Z</time>
      </trkpt>
      <trkpt lat="43.1003" lon="-3.325684">
        <ele>387.75</ele>
        <time>2021-03-27T19:35:07Z</time>
      </trkpt>
      <trkpt lat="43.100436" lon="-3.324912">
        <ele>387.39</ele>
        <time>2021-03-27T19:35:10Z</time>
      </trkpt>
      <trkpt lat="43.100471" lon="-3.324377">
        <ele>387.0</ele>
        <time>2021-03-27T19:35:13Z</time>
      </trkpt>
      <trkpt lat="43.100463" lon="-3.323965">
        <ele>387.48</ele>
        <time>2021-03-27T19:35:17Z</time>
      </trkpt>
      <trkpt lat="43.100374" lon="-3.322873">
        <ele>390.92</ele>
        <time>2021-03-27T19:35:20Z</time>
      </trkpt>
      <trkpt lat="43.100384" lon="-3.322389">
        <ele>390.4</ele>
        <time>2021-03-27T19:35:23Z</time>
      </trkpt>
      <trkpt lat="43.100424" lon="-3.321806">
        <ele>396.23</ele>
        <time>2021-03-27T19:35:27Z</time>
      </trkpt>
      <trkpt lat="43.100503" lon="-3.321342">
        <ele>400.75</ele>
        <time>2021-03-27T19:35:30Z</time>
      </trkpt>
      <trkpt lat="43.10072" lon="-3.320508">
        <ele>405.02</ele>
        <time>2021-03-27T19:35:33Z</time>
      </trkpt>
      <trkpt lat="43.101332" lon="-3.319001">
        <ele>404.73</ele>
        <time>2021-03-27T19:35:36Z</time>
      </trkpt>
      <trkpt lat="43.10155" lon="-3.318359">
        <ele>396.1</ele>
        <time>2021-03-27T19:35:40Z</time>
      </trkpt>
      <trkpt lat="43.101718" lon="-3.317628">
        <ele>393.82</ele>
        <time>2021-03-27T19:35:43Z</time>
      </trkpt>
      <trkpt lat="43.101915" lon="-3.316542">
        <ele>391.06</ele>
        <time>2021-03-27T19:35:46Z</time>
      </trkpt>
      <trkpt lat="43.102162" lon="-3.315549">
        <ele>386.96</ele>
        <time>2021-03-27T19:35:49Z</time>
      </trkpt>
      <trkpt lat="43.102784" lon="-3.313905">
        <ele>378.9</ele>
        <time>2021-03-27T19:35:53Z</time>
      </trkpt>
      <trkpt lat="43.103051" lon="-3.313134">
        <ele>375.83</ele>
        <time>2021-03-27T19:35:56Z</time>
      </trkpt>
      <trkpt lat="43.103179" lon="-3.312571">
        <ele>374.73</ele>
        <time>2021-03-27T19:35:59Z</time>
      </trkpt>
      <trkpt lat="43.103229" lon="-3.312067">
        <ele>373.7</ele>
        <time>2021-03-27T19:36:02Z</time>
      </trkpt>
      <trkpt lat="43.103248" lon="-3.31148">
        <ele>368.67</ele>
        <time>2021-03-27T19:36:06Z</time>
      </trkpt>
      <trkpt lat="43.103169" lon="-3.310907">
        <ele>366.47</ele>
        <time>2021-03-27T19:36:09Z</time>
      </trkpt>
      <trkpt lat="43.103012" lon="-3.310314">
        <ele>365.76</ele>
        <time>2021-03-27T19:36:12Z</time>
      </trkpt>
      <trkpt lat="43.102798" lon="-3.30976">
        <ele>361.27</ele>
        <time>2021-03-27T19:36:15Z</time>
      </trkpt>
      <trkpt lat="43.101863" lon="-3.307897">
        <ele>350.32</ele>
        <time>2021-03-27T19:36:19Z</time>
      </trkpt>
      <trkpt lat="43.101646" lon="-3.307447">
        <ele>351.15</ele>
        <time>2021-03-27T19:36:22Z</time>
      </trkpt>
      <trkpt lat="43.101653" lon="-3.307279">
        <ele>349.76</ele>
        <time>2021-03-27T19:36:25Z</time>
      </trkpt>
      <trkpt lat="43.101739" lon="-3.307051">
        <ele>346.63</ele>
        <time>2021-03-27T19:36:28Z</time>
      </trkpt>
      <trkpt lat="43.101748" lon="-3.306942">
        <ele>345.8</ele>
        <time>2021-03-27T19:36:31Z</time>
      </trkpt>
      <trkpt lat="43.101718" lon="-3.306599">
        <ele>343.19</ele>
        <time>2021-03-27T19:36:34Z</time>
      </trkpt>
      <trkpt lat="43.10136" lon="-3.304187">
        <ele>327.43</ele>
        <time>2021-03-27T19:36:37Z</time>
      </trkpt>
      <trkpt lat="43.101288" lon="-3.303317">
        <ele>325.64</ele>
        <time>2021-03-27T19:36:40Z</time>
      </trkpt>
      <trkpt lat="43.101246" lon="-3.302527">
        <ele>327.39</ele>
        <time>2021-03-27T19:36:43Z</time>
      </trkpt>
      <trkpt lat="43.10126" lon="-3.302153">
        <ele>329.13</ele>
        <time>2021-03-27T19:36:46Z</time>
      </trkpt>
      <trkpt lat="43.10223" lon="-3.302111">
        <ele>334.0</ele>
        <time>2021-03-27T19:36:48Z</time>
      </trkpt>
      <trkpt lat="43.102377" lon="-3.302068">
        <ele>334.0</ele>
        <time>2021-03-27T19:36:51Z</time>
      </trkpt>
      <trkpt lat="43.103126" lon="-3.301768">
        <ele>335.36</ele>
        <time>2021-03-27T19:36:53Z</time>
      </trkpt>
      <trkpt lat="43.105207" lon="-3.300773">
        <ele>343.33</ele>
        <time>2021-03-27T19:36:56Z</time>
      </trkpt>
      <trkpt lat="43.105496" lon="-3.300651">
        <ele>344.91</ele>
        <time>2021-03-27T19:36:58Z</time>
      </trkpt>
      <trkpt lat="43.106324" lon="-3.300611">
        <ele>347.92</ele>
        <time>2021-03-27T19:37:01Z</time>
      </trkpt>
      <trkpt lat="43.106586" lon="-3.300618">
        <ele>349.64</ele>
        <time>2021-03-27T19:37:03Z</time>
      </trkpt>
      <trkpt lat="43.106901" lon="-3.300733">
        <ele>352.63</ele>
        <time>2021-03-27T19:37:06Z</time>
      </trkpt>
      <trkpt lat="43.108886" lon="-3.301771">
        <ele>358.62</ele>
        <time>2021-03-27T19:37:09Z</time>
      </trkpt>
      <trkpt lat="43.109146" lon="-3.301854">
        <ele>358.02</ele>
        <time>2021-03-27T19:37:11Z</time>
      </trkpt>
      <trkpt lat="43.11018" lon="-3.302081">
        <ele>364.44</ele>
        <time>2021-03-27T19:37:14Z</time>
      </trkpt>
      <trkpt lat="43.110387" lon="-3.301992">
        <ele>365.89</ele>
        <time>2021-03-27T19:37:16Z</time>
      </trkpt>
      <trkpt lat="43.111209" lon="-3.301483">
        <ele>372.35</ele>
        <time>2021-03-27T19:37:19Z</time>
      </trkpt>
      <trkpt lat="43.111342" lon="-3.301417">
        <ele>372.83</ele>
        <time>2021-03-27T19:37:21Z</time>
      </trkpt>
      <trkpt lat="43.111533" lon="-3.301231">
        <ele>373.47</ele>
        <time>2021-03-27T19:37:24Z</time>
      </trkpt>
      <trkpt lat="43.111821" lon="-3.301139">
        <ele>374.71</ele>
        <time>2021-03-27T19:37:26Z</time>
      </trkpt>
      <trkpt lat="43.112045" lon="-3.301119">
        <ele>375.41</ele>
        <time>2021-03-27T19:37:29Z</time>
      </trkpt>
      <trkpt lat="43.112192" lon="-3.301146">
        <ele>376.03</ele>
        <time>2021-03-27T19:37:31Z</time>
      </trkpt>
      <trkpt lat="43.112279" lon="-3.301195">
        <ele>376.3</ele>
        <time>2021-03-27T19:37:34Z</time>
      </trkpt>
      <trkpt lat="43.112369" lon="-3.301279">
        <ele>376.61</ele>
        <time>2021-03-27T19:37:37Z</time>
      </trkpt>
      <trkpt lat="43.112408" lon="-3.301363">
        <ele>376.91</ele>
        <time>2021-03-27T19:37:39Z</time>
      </trkpt>
      <trkpt lat="43.11254" lon="-3.301782">
        <ele>380.12</ele>
        <time>2021-03-27T19:37:42Z</time>
      </trkpt>
      <trkpt lat="43.112629" lon="-3.301892">
        <ele>381.55</ele>
        <time>2021-03-27T19:37:44Z</time>
      </trkpt>
      <trkpt lat="43.112899" lon="-3.302009">
        <ele>383.98</ele>
        <time>2021-03-27T19:37:47Z</time>
      </trkpt>
      <trkpt lat="43.113562" lon="-3.302168">
        <ele>389.39</ele>
        <time>2021-03-27T19:37:49Z</time>
      </trkpt>
      <trkpt lat="43.113632" lon="-3.30216">
        <ele>389.69</ele>
        <time>2021-03-27T19:37:52Z</time>
      </trkpt>
      <trkpt lat="43.113746" lon="-3.30211">
        <ele>389.97</ele>
        <time>2021-03-27T19:37:54Z</time>
      </trkpt>
      <trkpt lat="43.114091" lon="-3.302091">
        <ele>392.77</ele>
        <time>2021-03-27T19:37:57Z</time>
      </trkpt>
      <trkpt lat="43.114368" lon="-3.301883">
        <ele>392.57</ele>
        <time>2021-03-27T19:37:59Z</time>
      </trkpt>
      <trkpt lat="43.11444" lon="-3.30187">
        <ele>392.9</ele>
        <time>2021-03-27T19:38:02Z</time>
      </trkpt>
      <trkpt lat="43.115314" lon="-3.302173">
        <ele>402.38</ele>
        <time>2021-03-27T19:38:05Z</time>
      </trkpt>
      <trkpt lat="43.115434" lon="-3.302124">
        <ele>402.96</ele>
        <time>2021-03-27T19:38:07Z</time>
      </trkpt>
      <trkpt lat="43.115499" lon="-3.302042">
        <ele>402.52</ele>
        <time>2021-03-27T19:38:10Z</time>
      </trkpt>
      <trkpt lat="43.115576" lon="-3.301801">
        <ele>401.85</ele>
        <time>2021-03-27T19:38:12Z</time>
      </trkpt>
      <trkpt lat="43.115636" lon="-3.301728">
        <ele>402.83</ele>
        <time>2021-03-27T19:38:15Z</time>
      </trkpt>
      <trkpt lat="43.115718" lon="-3.301672">
        <ele>404.5</ele>
        <time>2021-03-27T19:38:17Z</time>
      </trkpt>
      <trkpt lat="43.115833" lon="-3.301659">
        <ele>407.08</ele>
        <time>2021-03-27T19:38:20Z</time>
      </trkpt>
      <trkpt lat="43.11678" lon="-3.301802">
        <ele>413.37</ele>
        <time>2021-03-27T19:38:22Z</time>
      </trkpt>
      <trkpt lat="43.116969" lon="-3.301798">
        <ele>414.03</ele>
        <time>2021-03-27T19:38:25Z</time>
      </trkpt>
      <trkpt lat="43.117373" lon="-3.301676">
        <ele>414.63</ele>
        <time>2021-03-27T19:38:28Z</time>
      </trkpt>
      <trkpt lat="43.117457" lon="-3.301676">
        <ele>414.94</ele>
        <time>2021-03-27T19:38:30Z</time>
      </trkpt>
      <trkpt lat="43.117539" lon="-3.301719">
        <ele>415.82</ele>
        <time>2021-03-27T19:38:33Z</time>
      </trkpt>
      <trkpt lat="43.117683" lon="-3.301883">
        <ele>418.14</ele>
        <time>2021-03-27T19:38:35Z</time>
      </trkpt>
      <trkpt lat="43.118648" lon="-3.303468">
        <ele>431.61</ele>
        <time>2021-03-27T19:38:38Z</time>
      </trkpt>
      <trkpt lat="43.119295" lon="-3.304497">
        <ele>440.55</ele>
        <time>2021-03-27T19:38:40Z</time>
      </trkpt>
      <trkpt lat="43.120055" lon="-3.305542">
        <ele>450.82</ele>
        <time>2021-03-27T19:38:43Z</time>
      </trkpt>
      <trkpt lat="43.120156" lon="-3.305637">
        <ele>451.97</ele>
        <time>2021-03-27T19:38:45Z</time>
      </trkpt>
      <trkpt lat="43.120274" lon="-3.305683">
        <ele>451.94</ele>
        <time>2021-03-27T19:38:48Z</time>
      </trkpt>
      <trkpt lat="43.120373" lon="-3.305677">
        <ele>452.07</ele>
        <time>2021-03-27T19:38:50Z</time>
      </trkpt>
      <trkpt lat="43.120445" lon="-3.305624">
        <ele>451.95</ele>
        <time>2021-03-27T19:38:53Z</time>
      </trkpt>
      <trkpt lat="43.120628" lon="-3.305406">
        <ele>451.98</ele>
        <time>2021-03-27T19:38:56Z</time>
      </trkpt>
      <trkpt lat="43.120719" lon="-3.305347">
        <ele>452.43</ele>
        <time>2021-03-27T19:38:58Z</time>
      </trkpt>
      <trkpt lat="43.120806" lon="-3.305334">
        <ele>453.01</ele>
        <time>2021-03-27T19:39:01Z</time>
      </trkpt>
      <trkpt lat="43.121369" lon="-3.305459">
        <ele>458.5</ele>
        <time>2021-03-27T19:39:03Z</time>
      </trkpt>
      <trkpt lat="43.122252" lon="-3.305743">
        <ele>461.51</ele>
        <time>2021-03-27T19:39:06Z</time>
      </trkpt>
      <trkpt lat="43.123928" lon="-3.306369">
        <ele>453.87</ele>
        <time>2021-03-27T19:39:08Z</time>
      </trkpt>
      <trkpt lat="43.124111" lon="-3.306461">
        <ele>452.94</ele>
        <time>2021-03-27T19:39:11Z</time>
      </trkpt>
      <trkpt lat="43.124231" lon="-3.306553">
        <ele>452.27</ele>
        <time>2021-03-27T19:39:13Z</time>
      </trkpt>
      <trkpt lat="43.125186" lon="-3.30772">
        <ele>449.64</ele>
        <time>2021-03-27T19:39:16Z</time>
      </trkpt>
      <trkpt lat="43.125304" lon="-3.307816">
        <ele>449.7</ele>
        <time>2021-03-27T19:39:19Z</time>
      </trkpt>
      <trkpt lat="43.125441" lon="-3.307865">
        <ele>449.83</ele>
        <time>2021-03-27T19:39:21Z</time>
      </trkpt>
      <trkpt lat="43.125571" lon="-3.307885">
        <ele>450.25</ele>
        <time>2021-03-27T19:39:24Z</time>
      </trkpt>
      <trkpt lat="43.125954" lon="-3.307776">
        <ele>449.72</ele>
        <time>2021-03-27T19:39:26Z</time>
      </trkpt>
      <trkpt lat="43.126074" lon="-3.307713">
        <ele>448.92</ele>
        <time>2021-03-27T19:39:29Z</time>
      </trkpt>
      <trkpt lat="43.126271" lon="-3.307496">
        <ele>447.16</ele>
        <time>2021-03-27T19:39:31Z</time>
      </trkpt>
      <trkpt lat="43.126415" lon="-3.307199">
        <ele>446.51</ele>
        <time>2021-03-27T19:39:34Z</time>
      </trkpt>
      <trkpt lat="43.126954" lon="-3.305818">
        <ele>441.03</ele>
        <time>2021-03-27T19:39:36Z</time>
      </trkpt>
      <trkpt lat="43.127015" lon="-3.305703">
        <ele>441.49</ele>
        <time>2021-03-27T19:39:39Z</time>
      </trkpt>
      <trkpt lat="43.127087" lon="-3.305617">
        <ele>441.15</ele>
        <time>2021-03-27T19:39:41Z</time>
      </trkpt>
      <trkpt lat="43.127236" lon="-3.305584">
        <ele>438.59</ele>
        <time>2021-03-27T19:39:44Z</time>
      </trkpt>
      <trkpt lat="43.127948" lon="-3.305608">
        <ele>438.55</ele>
        <time>2021-03-27T19:39:47Z</time>
      </trkpt>
      <trkpt lat="43.128455" lon="-3.305789">
        <ele>436.25</ele>
        <time>2021-03-27T19:39:49Z</time>
      </trkpt>
      <trkpt lat="43.128619" lon="-3.305878">
        <ele>435.71</ele>
        <time>2021-03-27T19:39:52Z</time>
      </trkpt>
      <trkpt lat="43.128693" lon="-3.30596">
        <ele>435.52</ele>
        <time>2021-03-27T19:39:54Z</time>
      </trkpt>
      <trkpt lat="43.128729" lon="-3.306072">
        <ele>435.07</ele>
        <time>2021-03-27T19:39:57Z</time>
      </trkpt>
      <trkpt lat="43.128727" lon="-3.306227">
        <ele>434.59</ele>
        <time>2021-03-27T19:39:59Z</time>
      </trkpt>
      <trkpt lat="43.128689" lon="-3.306339">
        <ele>433.97</ele>
        <time>2021-03-27T19:40:02Z</time>
      </trkpt>
      <trkpt lat="43.128303" lon="-3.307077">
        <ele>431.89</ele>
        <time>2021-03-27T19:40:04Z</time>
      </trkpt>
      <trkpt lat="43.128236" lon="-3.3074">
        <ele>431.03</ele>
        <time>2021-03-27T19:40:07Z</time>
      </trkpt>
      <trkpt lat="43.128167" lon="-3.308317">
        <ele>428.81</ele>
        <time>2021-03-27T19:40:09Z</time>
      </trkpt>
      <trkpt lat="43.128075" lon="-3.308946">
        <ele>424.31</ele>
        <time>2021-03-27T19:40:12Z</time>
      </trkpt>
      <trkpt lat="43.127895" lon="-3.309773">
        <ele>422.98</ele>
        <time>2021-03-27T19:40:15Z</time>
      </trkpt>
      <trkpt lat="43.12783" lon="-3.309974">
        <ele>421.6</ele>
        <time>2021-03-27T19:40:17Z</time>
      </trkpt>
      <trkpt lat="43.12731" lon="-3.31098">
        <ele>410.73</ele>
        <time>2021-03-27T19:40:20Z</time>
      </trkpt>
      <trkpt lat="43.127281" lon="-3.311128">
        <ele>410.15</ele>
        <time>2021-03-27T19:40:22Z</time>
      </trkpt>
      <trkpt lat="43.127301" lon="-3.311256">
        <ele>409.5</ele>
        <time>2021-03-27T19:40:25Z</time>
      </trkpt>
      <trkpt lat="43.127397" lon="-3.311451">
        <ele>409.33</ele>
        <time>2021-03-27T19:40:27Z</time>
      </trkpt>
      <trkpt lat="43.127601" lon="-3.31173">
        <ele>409.58</ele>
        <time>2021-03-27T19:40:30Z</time>
      </trkpt>
      <trkpt lat="43.127685" lon="-3.311894">
        <ele>410.09</ele>
        <time>2021-03-27T19:40:32Z</time>
      </trkpt>
      <trkpt lat="43.127747" lon="-3.31203">
        <ele>410.93</ele>
        <time>2021-03-27T19:40:35Z</time>
      </trkpt>
      <trkpt lat="43.127901" lon="-3.312666">
        <ele>408.88</ele>
        <time>2021-03-27T19:40:38Z</time>
      </trkpt>
      <trkpt lat="43.128012" lon="-3.31292">
        <ele>407.58</ele>
        <time>2021-03-27T19:40:40Z</time>
      </trkpt>
      <trkpt lat="43.128113" lon="-3.313091">
        <ele>406.16</ele>
        <time>2021-03-27T19:40:43Z</time>
      </trkpt>
      <trkpt lat="43.128224" lon="-3.313233">
        <ele>404.85</ele>
        <time>2021-03-27T19:40:45Z</time>
      </trkpt>
      <trkpt lat="43.129178" lon="-3.313843">
        <ele>406.63</ele>
        <time>2021-03-27T19:40:48Z</time>
      </trkpt>
      <trkpt lat="43.129337" lon="-3.313902">
        <ele>407.7</ele>
        <time>2021-03-27T19:40:50Z</time>
      </trkpt>
      <trkpt lat="43.13099" lon="-3.31406">
        <ele>396.7</ele>
        <time>2021-03-27T19:40:53Z</time>
      </trkpt>
      <trkpt lat="43.131156" lon="-3.31404">
        <ele>396.64</ele>
        <time>2021-03-27T19:40:55Z</time>
      </trkpt>
      <trkpt lat="43.131327" lon="-3.313987">
        <ele>397.03</ele>
        <time>2021-03-27T19:40:58Z</time>
      </trkpt>
      <trkpt lat="43.13161" lon="-3.313879">
        <ele>395.24</ele>
        <time>2021-03-27T19:41:00Z</time>
      </trkpt>
      <trkpt lat="43.131757" lon="-3.3138">
        <ele>394.09</ele>
        <time>2021-03-27T19:41:03Z</time>
      </trkpt>
      <trkpt lat="43.13186" lon="-3.313711">
        <ele>393.46</ele>
        <time>2021-03-27T19:41:06Z</time>
      </trkpt>
      <trkpt lat="43.131937" lon="-3.313605">
        <ele>393.24</ele>
        <time>2021-03-27T19:41:08Z</time>
      </trkpt>
      <trkpt lat="43.131969" lon="-3.313447">
        <ele>393.93</ele>
        <time>2021-03-27T19:41:11Z</time>
      </trkpt>
      <trkpt lat="43.131966" lon="-3.313223">
        <ele>396.37</ele>
        <time>2021-03-27T19:41:13Z</time>
      </trkpt>
      <trkpt lat="43.13199" lon="-3.313045">
        <ele>397.33</ele>
        <time>2021-03-27T19:41:16Z</time>
      </trkpt>
      <trkpt lat="43.132029" lon="-3.312913">
        <ele>397.55</ele>
        <time>2021-03-27T19:41:18Z</time>
      </trkpt>
      <trkpt lat="43.132125" lon="-3.312742">
        <ele>395.97</ele>
        <time>2021-03-27T19:41:21Z</time>
      </trkpt>
      <trkpt lat="43.132214" lon="-3.31261">
        <ele>395.53</ele>
        <time>2021-03-27T19:41:23Z</time>
      </trkpt>
      <trkpt lat="43.13238" lon="-3.312432">
        <ele>395.14</ele>
        <time>2021-03-27T19:41:26Z</time>
      </trkpt>
      <trkpt lat="43.132697" lon="-3.312251">
        <ele>391.51</ele>
        <time>2021-03-27T19:41:29Z</time>
      </trkpt>
      <trkpt lat="43.133015" lon="-3.311858">
        <ele>389.51</ele>
        <time>2021-03-27T19:41:31Z</time>
      </trkpt>
      <trkpt lat="43.133094" lon="-3.311796">
        <ele>388.97</ele>
        <time>2021-03-27T19:41:34Z</time>
      </trkpt>
      <trkpt lat="43.133207" lon="-3.311773">
        <ele>387.36</ele>
        <time>2021-03-27T19:41:36Z</time>
      </trkpt>
      <trkpt lat="43.133604" lon="-3.311868">
        <ele>383.64</ele>
        <time>2021-03-27T19:41:39Z</time>
      </trkpt>
      <trkpt lat="43.133722" lon="-3.311865">
        <ele>384.68</ele>
        <time>2021-03-27T19:41:41Z</time>
      </trkpt>
      <trkpt lat="43.134458" lon="-3.311634">
        <ele>383.22</ele>
        <time>2021-03-27T19:41:44Z</time>
      </trkpt>
      <trkpt lat="43.134576" lon="-3.311549">
        <ele>383.45</ele>
        <time>2021-03-27T19:41:46Z</time>
      </trkpt>
      <trkpt lat="43.134718" lon="-3.311357">
        <ele>383.15</ele>
        <time>2021-03-27T19:41:49Z</time>
      </trkpt>
      <trkpt lat="43.136942" lon="-3.307992">
        <ele>371.56</ele>
        <time>2021-03-27T19:41:51Z</time>
      </trkpt>
      <trkpt lat="43.137115" lon="-3.307429">
        <ele>366.02</ele>
        <time>2021-03-27T19:41:54Z</time>
      </trkpt>
      <trkpt lat="43.137394" lon="-3.306394">
        <ele>361.31</ele>
        <time>2021-03-27T19:41:57Z</time>
      </trkpt>
      <trkpt lat="43.13744" lon="-3.30617">
        <ele>358.99</ele>
        <time>2021-03-27T19:41:59Z</time>
      </trkpt>
      <trkpt lat="43.137529" lon="-3.305326">
        <ele>355.79</ele>
        <time>2021-03-27T19:42:02Z</time>
      </trkpt>
      <trkpt lat="43.137558" lon="-3.305171">
        <ele>355.66</ele>
        <time>2021-03-27T19:42:04Z</time>
      </trkpt>
      <trkpt lat="43.137616" lon="-3.30503">
        <ele>355.54</ele>
        <time>2021-03-27T19:42:07Z</time>
      </trkpt>
      <trkpt lat="43.137695" lon="-3.304931">
        <ele>355.62</ele>
        <time>2021-03-27T19:42:09Z</time>
      </trkpt>
      <trkpt lat="43.137837" lon="-3.304812">
        <ele>355.32</ele>
        <time>2021-03-27T19:42:12Z</time>
      </trkpt>
      <trkpt lat="43.138655" lon="-3.304232">
        <ele>354.94</ele>
        <time>2021-03-27T19:42:14Z</time>
      </trkpt>
      <trkpt lat="43.138717" lon="-3.304156">
        <ele>355.26</ele>
        <time>2021-03-27T19:42:17Z</time>
      </trkpt>
      <trkpt lat="43.138768" lon="-3.304024">
        <ele>355.1</ele>
        <time>2021-03-27T19:42:19Z</time>
      </trkpt>
      <trkpt lat="43.138833" lon="-3.302851">
        <ele>352.46</ele>
        <time>2021-03-27T19:42:22Z</time>
      </trkpt>
      <trkpt lat="43.138859" lon="-3.30269">
        <ele>352.56</ele>
        <time>2021-03-27T19:42:25Z</time>
      </trkpt>
      <trkpt lat="43.139104" lon="-3.301836">
        <ele>351.98</ele>
        <time>2021-03-27T19:42:27Z</time>
      </trkpt>
      <trkpt lat="43.139172" lon="-3.301675">
        <ele>351.02</ele>
        <time>2021-03-27T19:42:30Z</time>
      </trkpt>
      <trkpt lat="43.139254" lon="-3.301562">
        <ele>352.2</ele>
        <time>2021-03-27T19:42:32Z</time>
      </trkpt>
      <trkpt lat="43.139352" lon="-3.301447">
        <ele>352.98</ele>
        <time>2021-03-27T19:42:35Z</time>
      </trkpt>
      <trkpt lat="43.139617" lon="-3.30123">
        <ele>356.58</ele>
        <time>2021-03-27T19:42:37Z</time>
      </trkpt>
      <trkpt lat="43.139713" lon="-3.301117">
        <ele>358.83</ele>
        <time>2021-03-27T19:42:40Z</time>
      </trkpt>
      <trkpt lat="43.139773" lon="-3.300956">
        <ele>359.65</ele>
        <time>2021-03-27T19:42:42Z</time>
      </trkpt>
      <trkpt lat="43.139787" lon="-3.300785">
        <ele>360.25</ele>
        <time>2021-03-27T19:42:45Z</time>
      </trkpt>
      <trkpt lat="43.139773" lon="-3.300577">
        <ele>360.28</ele>
        <time>2021-03-27T19:42:48Z</time>
      </trkpt>
      <trkpt lat="43.139807" lon="-3.300327">
        <ele>361.11</ele>
        <time>2021-03-27T19:42:50Z</time>
      </trkpt>
      <trkpt lat="43.13986" lon="-3.300205">
        <ele>361.67</ele>
        <time>2021-03-27T19:42:53Z</time>
      </trkpt>
      <trkpt lat="43.140934" lon="-3.299134">
        <ele>363.22</ele>
        <time>2021-03-27T19:42:55Z</time>
      </trkpt>
      <trkpt lat="43.140975" lon="-3.299025">
        <ele>362.7</ele>
        <time>2021-03-27T19:42:58Z</time>
      </trkpt>
      <trkpt lat="43.141088" lon="-3.298464">
        <ele>359.88</ele>
        <time>2021-03-27T19:43:00Z</time>
      </trkpt>
      <trkpt lat="43.141288" lon="-3.297904">
        <ele>355.89</ele>
        <time>2021-03-27T19:43:03Z</time>
      </trkpt>
      <trkpt lat="43.141375" lon="-3.297706">
        <ele>355.08</ele>
        <time>2021-03-27T19:43:05Z</time>
      </trkpt>
      <trkpt lat="43.142151" lon="-3.296612">
        <ele>351.72</ele>
        <time>2021-03-27T19:43:08Z</time>
      </trkpt>
      <trkpt lat="43.142257" lon="-3.296553">
        <ele>350.44</ele>
        <time>2021-03-27T19:43:10Z</time>
      </trkpt>
      <trkpt lat="43.142358" lon="-3.29656">
        <ele>349.3</ele>
        <time>2021-03-27T19:43:13Z</time>
      </trkpt>
      <trkpt lat="43.143161" lon="-3.296741">
        <ele>341.12</ele>
        <time>2021-03-27T19:43:16Z</time>
      </trkpt>
      <trkpt lat="43.143255" lon="-3.296744">
        <ele>339.25</ele>
        <time>2021-03-27T19:43:18Z</time>
      </trkpt>
      <trkpt lat="43.143354" lon="-3.296708">
        <ele>337.7</ele>
        <time>2021-03-27T19:43:21Z</time>
      </trkpt>
      <trkpt lat="43.143508" lon="-3.296566">
        <ele>337.38</ele>
        <time>2021-03-27T19:43:23Z</time>
      </trkpt>
      <trkpt lat="43.144436" lon="-3.295558">
        <ele>331.12</ele>
        <time>2021-03-27T19:43:26Z</time>
      </trkpt>
      <trkpt lat="43.144513" lon="-3.295363">
        <ele>330.95</ele>
        <time>2021-03-27T19:43:28Z</time>
      </trkpt>
      <trkpt lat="43.144559" lon="-3.295172">
        <ele>330.54</ele>
        <time>2021-03-27T19:43:31Z</time>
      </trkpt>
      <trkpt lat="43.144599" lon="-3.294638">
        <ele>327.97</ele>
        <time>2021-03-27T19:43:33Z</time>
      </trkpt>
      <trkpt lat="43.144628" lon="-3.294523">
        <ele>327.14</ele>
        <time>2021-03-27T19:43:36Z</time>
      </trkpt>
      <trkpt lat="43.145056" lon="-3.293778">
        <ele>325.68</ele>
        <time>2021-03-27T19:43:39Z</time>
      </trkpt>
      <trkpt lat="43.145282" lon="-3.293208">
        <ele>322.66</ele>
        <time>2021-03-27T19:43:41Z</time>
      </trkpt>
      <trkpt lat="43.145982" lon="-3.291309">
        <ele>311.61</ele>
        <time>2021-03-27T19:43:44Z</time>
      </trkpt>
      <trkpt lat="43.146114" lon="-3.291003">
        <ele>311.82</ele>
        <time>2021-03-27T19:43:46Z</time>
      </trkpt>
      <trkpt lat="43.146248" lon="-3.290766">
        <ele>309.02</ele>
        <time>2021-03-27T19:43:49Z</time>
      </trkpt>
      <trkpt lat="43.146771" lon="-3.289994">
        <ele>303.46</ele>
        <time>2021-03-27T19:43:51Z</time>
      </trkpt>
      <trkpt lat="43.146927" lon="-3.289718">
        <ele>302.86</ele>
        <time>2021-03-27T19:43:54Z</time>
      </trkpt>
      <trkpt lat="43.147526" lon="-3.288373">
        <ele>298.25</ele>
        <time>2021-03-27T19:43:56Z</time>
      </trkpt>
      <trkpt lat="43.148454" lon="-3.286198">
        <ele>286.92</ele>
        <time>2021-03-27T19:43:59Z</time>
      </trkpt>
      <trkpt lat="43.14855" lon="-3.286003">
        <ele>285.83</ele>
        <time>2021-03-27T19:44:01Z</time>
      </trkpt>
      <trkpt lat="43.148634" lon="-3.285891">
        <ele>285.59</ele>
        <time>2021-03-27T19:44:04Z</time>
      </trkpt>
      <trkpt lat="43.148634" lon="-3.285891">
        <ele>285.59</ele>
        <time>2021-03-27T19:44:04Z</time>
      </trkpt>
      <trkpt lat="43.149101" lon="-3.285456">
        <ele>282.33</ele>
        <time>2021-03-27T19:44:11Z</time>
      </trkpt>
      <trkpt lat="43.149228" lon="-3.285262">
        <ele>280.76</ele>
        <time>2021-03-27T19:44:17Z</time>
      </trkpt>
      <trkpt lat="43.149692" lon="-3.284286">
        <ele>278.41</ele>
        <time>2021-03-27T19:44:24Z</time>
      </trkpt>
      <trkpt lat="43.149988" lon="-3.283831">
        <ele>277.63</ele>
        <time>2021-03-27T19:44:31Z</time>
      </trkpt>
      <trkpt lat="43.150086" lon="-3.28365">
        <ele>278.39</ele>
        <time>2021-03-27T19:44:38Z</time>
      </trkpt>
      <trkpt lat="43.150166" lon="-3.283301">
        <ele>277.75</ele>
        <time>2021-03-27T19:44:44Z</time>
      </trkpt>
      <trkpt lat="43.150228" lon="-3.282612">
        <ele>272.61</ele>
        <time>2021-03-27T19:44:51Z</time>
      </trkpt>
      <trkpt lat="43.150386" lon="-3.281273">
        <ele>264.37</ele>
        <time>2021-03-27T19:44:58Z</time>
      </trkpt>
      <trkpt lat="43.150777" lon="-3.279804">
        <ele>259.21</ele>
        <time>2021-03-27T19:45:04Z</time>
      </trkpt>
      <trkpt lat="43.150875" lon="-3.27953">
        <ele>259.46</ele>
        <time>2021-03-27T19:45:11Z</time>
      </trkpt>
      <trkpt lat="43.151125" lon="-3.279089">
        <ele>257.24</ele>
        <time>2021-03-27T19:45:18Z</time>
      </trkpt>
      <trkpt lat="43.151238" lon="-3.278828">
        <ele>255.94</ele>
        <time>2021-03-27T19:45:24Z</time>
      </trkpt>
      <trkpt lat="43.152467" lon="-3.275598">
        <ele>244.26</ele>
        <time>2021-03-27T19:45:31Z</time>
      </trkpt>
      <trkpt lat="43.153426" lon="-3.27253">
        <ele>238.48</ele>
        <time>2021-03-27T19:45:38Z</time>
      </trkpt>
      <trkpt lat="43.153496" lon="-3.272362">
        <ele>237.59</ele>
        <time>2021-03-27T19:45:44Z</time>
      </trkpt>
      <trkpt lat="43.153744" lon="-3.27196">
        <ele>233.69</ele>
        <time>2021-03-27T19:45:51Z</time>
      </trkpt>
      <trkpt lat="43.153852" lon="-3.271739">
        <ele>232.29</ele>
        <time>2021-03-27T19:45:58Z</time>
      </trkpt>
      <trkpt lat="43.153912" lon="-3.271571">
        <ele>231.92</ele>
        <time>2021-03-27T19:46:05Z</time>
      </trkpt>
      <trkpt lat="43.154044" lon="-3.27092">
        <ele>232.96</ele>
        <time>2021-03-27T19:46:11Z</time>
      </trkpt>
      <trkpt lat="43.153836" lon="-3.270696">
        <ele>234.9</ele>
        <time>2021-03-27T19:46:14Z</time>
      </trkpt>
      <trkpt lat="43.153406" lon="-3.270518">
        <ele>233.52</ele>
        <time>2021-03-27T19:46:17Z</time>
      </trkpt>
      <trkpt lat="43.153237" lon="-3.270519">
        <ele>232.7</ele>
        <time>2021-03-27T19:46:20Z</time>
      </trkpt>
      <trkpt lat="43.152946" lon="-3.270647">
        <ele>232.0</ele>
        <time>2021-03-27T19:46:23Z</time>
      </trkpt>
      <trkpt lat="43.152435" lon="-3.270654">
        <ele>233.73</ele>
        <time>2021-03-27T19:46:26Z</time>
      </trkpt>
      <trkpt lat="43.151598" lon="-3.270829">
        <ele>233.26</ele>
        <time>2021-03-27T19:46:29Z</time>
      </trkpt>
      <trkpt lat="43.151349" lon="-3.270834">
        <ele>234.29</ele>
        <time>2021-03-27T19:46:31Z</time>
      </trkpt>
      <trkpt lat="43.15087" lon="-3.270734">
        <ele>236.0</ele>
        <time>2021-03-27T19:46:34Z</time>
      </trkpt>
      <trkpt lat="43.150498" lon="-3.270614">
        <ele>234.83</ele>
        <time>2021-03-27T19:46:37Z</time>
      </trkpt>
      <trkpt lat="43.150374" lon="-3.270532">
        <ele>235.08</ele>
        <time>2021-03-27T19:46:40Z</time>
      </trkpt>
      <trkpt lat="43.150235" lon="-3.270372">
        <ele>235.71</ele>
        <time>2021-03-27T19:46:43Z</time>
      </trkpt>
      <trkpt lat="43.149865" lon="-3.26976">
        <ele>236.51</ele>
        <time>2021-03-27T19:46:46Z</time>
      </trkpt>
      <trkpt lat="43.149671" lon="-3.269476">
        <ele>236.72</ele>
        <time>2021-03-27T19:46:49Z</time>
      </trkpt>
      <trkpt lat="43.149479" lon="-3.269324">
        <ele>236.94</ele>
        <time>2021-03-27T19:46:52Z</time>
      </trkpt>
      <trkpt lat="43.148957" lon="-3.269063">
        <ele>236.91</ele>
        <time>2021-03-27T19:46:54Z</time>
      </trkpt>
      <trkpt lat="43.148851" lon="-3.268971">
        <ele>237.23</ele>
        <time>2021-03-27T19:46:57Z</time>
      </trkpt>
      <trkpt lat="43.148759" lon="-3.268823">
        <ele>238.17</ele>
        <time>2021-03-27T19:47:00Z</time>
      </trkpt>
      <trkpt lat="43.148511" lon="-3.26831">
        <ele>241.92</ele>
        <time>2021-03-27T19:47:03Z</time>
      </trkpt>
      <trkpt lat="43.148461" lon="-3.268255">
        <ele>242.45</ele>
        <time>2021-03-27T19:47:06Z</time>
      </trkpt>
      <trkpt lat="43.148345" lon="-3.268186">
        <ele>243.15</ele>
        <time>2021-03-27T19:47:09Z</time>
      </trkpt>
      <trkpt lat="43.148251" lon="-3.268182">
        <ele>242.89</ele>
        <time>2021-03-27T19:47:12Z</time>
      </trkpt>
      <trkpt lat="43.147868" lon="-3.268246">
        <ele>241.93</ele>
        <time>2021-03-27T19:47:15Z</time>
      </trkpt>
      <trkpt lat="43.147633" lon="-3.268265">
        <ele>242.77</ele>
        <time>2021-03-27T19:47:17Z</time>
      </trkpt>
      <trkpt lat="43.147464" lon="-3.268256">
        <ele>243.78</ele>
        <time>2021-03-27T19:47:20Z</time>
      </trkpt>
      <trkpt lat="43.147363" lon="-3.26819">
        <ele>244.77</ele>
        <time>2021-03-27T19:47:23Z</time>
      </trkpt>
      <trkpt lat="43.147164" lon="-3.268001">
        <ele>246.24</ele>
        <time>2021-03-27T19:47:26Z</time>
      </trkpt>
      <trkpt lat="43.147084" lon="-3.267886">
        <ele>246.91</ele>
        <time>2021-03-27T19:47:29Z</time>
      </trkpt>
      <trkpt lat="43.141293" lon="-3.265131">
        <ele>249.37</ele>
        <time>2021-03-27T19:47:32Z</time>
      </trkpt>
      <trkpt lat="43.141048" lon="-3.264978">
        <ele>250.16</ele>
        <time>2021-03-27T19:47:35Z</time>
      </trkpt>
      <trkpt lat="43.140593" lon="-3.264571">
        <ele>251.21</ele>
        <time>2021-03-27T19:47:38Z</time>
      </trkpt>
      <trkpt lat="43.139795" lon="-3.263673">
        <ele>253.74</ele>
        <time>2021-03-27T19:47:40Z</time>
      </trkpt>
      <trkpt lat="43.139744" lon="-3.263513">
        <ele>254.63</ele>
        <time>2021-03-27T19:47:43Z</time>
      </trkpt>
      <trkpt lat="43.13968" lon="-3.263292">
        <ele>255.89</ele>
        <time>2021-03-27T19:47:45Z</time>
      </trkpt>
      <trkpt lat="43.139639" lon="-3.263228">
        <ele>256.09</ele>
        <time>2021-03-27T19:47:46Z</time>
      </trkpt>
      <trkpt lat="43.139476" lon="-3.263099">
        <ele>256.52</ele>
        <time>2021-03-27T19:47:48Z</time>
      </trkpt>
      <trkpt lat="43.139122" lon="-3.262935">
        <ele>255.18</ele>
        <time>2021-03-27T19:47:49Z</time>
      </trkpt>
      <trkpt lat="43.138583" lon="-3.262776">
        <ele>252.22</ele>
        <time>2021-03-27T19:47:51Z</time>
      </trkpt>
      <trkpt lat="43.138341" lon="-3.262681">
        <ele>256.36</ele>
        <time>2021-03-27T19:47:53Z</time>
      </trkpt>
      <trkpt lat="43.137866" lon="-3.262608">
        <ele>260.33</ele>
        <time>2021-03-27T19:47:58Z</time>
      </trkpt>
      <trkpt lat="43.13714" lon="-3.262466">
        <ele>261.61</ele>
        <time>2021-03-27T19:48:03Z</time>
      </trkpt>
      <trkpt lat="43.135583" lon="-3.262083">
        <ele>266.0</ele>
        <time>2021-03-27T19:48:09Z</time>
      </trkpt>
      <trkpt lat="43.135328" lon="-3.262052">
        <ele>266.13</ele>
        <time>2021-03-27T19:48:14Z</time>
      </trkpt>
      <trkpt lat="43.13509" lon="-3.262094">
        <ele>267.27</ele>
        <time>2021-03-27T19:48:19Z</time>
      </trkpt>
      <trkpt lat="43.134957" lon="-3.262149">
        <ele>267.99</ele>
        <time>2021-03-27T19:48:25Z</time>
      </trkpt>
      <trkpt lat="43.134483" lon="-3.26244">
        <ele>272.05</ele>
        <time>2021-03-27T19:48:30Z</time>
      </trkpt>
      <trkpt lat="43.134337" lon="-3.262512">
        <ele>271.19</ele>
        <time>2021-03-27T19:48:35Z</time>
      </trkpt>
      <trkpt lat="43.134066" lon="-3.262581">
        <ele>270.83</ele>
        <time>2021-03-27T19:48:41Z</time>
      </trkpt>
      <trkpt lat="43.13354" lon="-3.262599">
        <ele>266.24</ele>
        <time>2021-03-27T19:48:46Z</time>
      </trkpt>
      <trkpt lat="43.132052" lon="-3.26257">
        <ele>270.85</ele>
        <time>2021-03-27T19:48:51Z</time>
      </trkpt>
      <trkpt lat="43.131512" lon="-3.26245">
        <ele>271.74</ele>
        <time>2021-03-27T19:48:57Z</time>
      </trkpt>
      <trkpt lat="43.130842" lon="-3.262234">
        <ele>271.95</ele>
        <time>2021-03-27T19:49:02Z</time>
      </trkpt>
      <trkpt lat="43.130337" lon="-3.262141">
        <ele>271.12</ele>
        <time>2021-03-27T19:49:07Z</time>
      </trkpt>
      <trkpt lat="43.129649" lon="-3.262082">
        <ele>272.13</ele>
        <time>2021-03-27T19:49:13Z</time>
      </trkpt>
      <trkpt lat="43.12867" lon="-3.262034">
        <ele>273.93</ele>
        <time>2021-03-27T19:49:18Z</time>
      </trkpt>
      <trkpt lat="43.125435" lon="-3.261723">
        <ele>273.32</ele>
        <time>2021-03-27T19:49:23Z</time>
      </trkpt>
      <trkpt lat="43.123476" lon="-3.261555">
        <ele>279.97</ele>
        <time>2021-03-27T19:49:29Z</time>
      </trkpt>
      <trkpt lat="43.123476" lon="-3.261555">
        <ele>279.97</ele>
        <time>2021-03-27T19:49:29Z</time>
      </trkpt>
      <trkpt lat="43.119814" lon="-3.261228">
        <ele>283.78</ele>
        <time>2021-03-27T19:49:47Z</time>
      </trkpt>
      <trkpt lat="43.119257" lon="-3.261376">
        <ele>285.46</ele>
        <time>2021-03-27T19:49:50Z</time>
      </trkpt>
      <trkpt lat="43.118989" lon="-3.261486">
        <ele>285.88</ele>
        <time>2021-03-27T19:49:52Z</time>
      </trkpt>
      <trkpt lat="43.11901" lon="-3.26134">
        <ele>287.65</ele>
        <time>2021-03-27T19:49:54Z</time>
      </trkpt>
      <trkpt lat="43.11899" lon="-3.261261">
        <ele>288.65</ele>
        <time>2021-03-27T19:49:56Z</time>
      </trkpt>
      <trkpt lat="43.118911" lon="-3.261231">
        <ele>289.54</ele>
        <time>2021-03-27T19:49:58Z</time>
      </trkpt>
      <trkpt lat="43.118439" lon="-3.261179">
        <ele>294.48</ele>
        <time>2021-03-27T19:50:00Z</time>
      </trkpt>
      <trkpt lat="43.117306" lon="-3.261096">
        <ele>303.61</ele>
        <time>2021-03-27T19:50:02Z</time>
      </trkpt>
      <trkpt lat="43.117053" lon="-3.261016">
        <ele>306.38</ele>
        <time>2021-03-27T19:50:04Z</time>
      </trkpt>
      <trkpt lat="43.116512" lon="-3.26098">
        <ele>307.94</ele>
        <time>2021-03-27T19:50:08Z</time>
      </trkpt>
      <trkpt lat="43.116085" lon="-3.260995">
        <ele>307.12</ele>
        <time>2021-03-27T19:50:12Z</time>
      </trkpt>
      <trkpt lat="43.115493" lon="-3.261061">
        <ele>303.36</ele>
        <time>2021-03-27T19:50:16Z</time>
      </trkpt>
      <trkpt lat="43.115171" lon="-3.261129">
        <ele>302.49</ele>
        <time>2021-03-27T19:50:20Z</time>
      </trkpt>
      <trkpt lat="43.109952" lon="-3.262387">
        <ele>307.71</ele>
        <time>2021-03-27T19:50:24Z</time>
      </trkpt>
      <trkpt lat="43.109407" lon="-3.262548">
        <ele>310.33</ele>
        <time>2021-03-27T19:50:28Z</time>
      </trkpt>
      <trkpt lat="43.10887" lon="-3.26277">
        <ele>313.1</ele>
        <time>2021-03-27T19:50:32Z</time>
      </trkpt>
      <trkpt lat="43.108578" lon="-3.262914">
        <ele>313.63</ele>
        <time>2021-03-27T19:50:36Z</time>
      </trkpt>
      <trkpt lat="43.107977" lon="-3.263278">
        <ele>314.62</ele>
        <time>2021-03-27T19:50:40Z</time>
      </trkpt>
      <trkpt lat="43.107571" lon="-3.263574">
        <ele>315.52</ele>
        <time>2021-03-27T19:50:44Z</time>
      </trkpt>
      <trkpt lat="43.107037" lon="-3.264031">
        <ele>316.67</ele>
        <time>2021-03-27T19:50:48Z</time>
      </trkpt>
      <trkpt lat="43.106539" lon="-3.264557">
        <ele>323.6</ele>
        <time>2021-03-27T19:50:52Z</time>
      </trkpt>
      <trkpt lat="43.106071" lon="-3.265145">
        <ele>324.16</ele>
        <time>2021-03-27T19:50:56Z</time>
      </trkpt>
      <trkpt lat="43.105819" lon="-3.265509">
        <ele>321.8</ele>
        <time>2021-03-27T19:50:59Z</time>
      </trkpt>
      <trkpt lat="43.105595" lon="-3.265874">
        <ele>325.57</ele>
        <time>2021-03-27T19:51:03Z</time>
      </trkpt>
      <trkpt lat="43.105385" lon="-3.266235">
        <ele>331.07</ele>
        <time>2021-03-27T19:51:07Z</time>
      </trkpt>
      <trkpt lat="43.105199" lon="-3.2666">
        <ele>333.66</ele>
        <time>2021-03-27T19:51:11Z</time>
      </trkpt>
      <trkpt lat="43.104755" lon="-3.267549">
        <ele>332.76</ele>
        <time>2021-03-27T19:51:15Z</time>
      </trkpt>
      <trkpt lat="43.104615" lon="-3.267909">
        <ele>334.44</ele>
        <time>2021-03-27T19:51:19Z</time>
      </trkpt>
      <trkpt lat="43.103666" lon="-3.270106">
        <ele>335.92</ele>
        <time>2021-03-27T19:51:23Z</time>
      </trkpt>
      <trkpt lat="43.103474" lon="-3.270501">
        <ele>336.58</ele>
        <time>2021-03-27T19:51:28Z</time>
      </trkpt>
      <trkpt lat="43.1032" lon="-3.271007">
        <ele>335.42</ele>
        <time>2021-03-27T19:51:32Z</time>
      </trkpt>
      <trkpt lat="43.103123" lon="-3.271175">
        <ele>334.3</ele>
        <time>2021-03-27T19:51:36Z</time>
      </trkpt>
      <trkpt lat="43.103107" lon="-3.271287">
        <ele>333.55</ele>
        <time>2021-03-27T19:51:40Z</time>
      </trkpt>
      <trkpt lat="43.103111" lon="-3.271364">
        <ele>332.98</ele>
        <time>2021-03-27T19:51:40Z</time>
      </trkpt>
      <trkpt lat="43.10308" lon="-3.271443">
        <ele>332.71</ele>
        <time>2021-03-27T19:51:41Z</time>
      </trkpt>
      <trkpt lat="43.103026" lon="-3.27149">
        <ele>332.74</ele>
        <time>2021-03-27T19:51:41Z</time>
      </trkpt>
      <trkpt lat="43.102941" lon="-3.271473">
        <ele>333.11</ele>
        <time>2021-03-27T19:51:42Z</time>
      </trkpt>
      <trkpt lat="43.102889" lon="-3.271387">
        <ele>333.61</ele>
        <time>2021-03-27T19:51:42Z</time>
      </trkpt>
      <trkpt lat="43.102888" lon="-3.271311">
        <ele>333.99</ele>
        <time>2021-03-27T19:51:43Z</time>
      </trkpt>
      <trkpt lat="43.102855" lon="-3.271207">
        <ele>334.56</ele>
        <time>2021-03-27T19:51:43Z</time>
      </trkpt>
      <trkpt lat="43.102612" lon="-3.270888">
        <ele>336.56</ele>
        <time>2021-03-27T19:51:44Z</time>
      </trkpt>
      <trkpt lat="43.102483" lon="-3.270808">
        <ele>337.3</ele>
        <time>2021-03-27T19:51:44Z</time>
      </trkpt>
      <trkpt lat="43.102394" lon="-3.270784">
        <ele>338.05</ele>
        <time>2021-03-27T19:51:46Z</time>
      </trkpt>
      <trkpt lat="43.102352" lon="-3.270709">
        <ele>338.72</ele>
        <time>2021-03-27T19:51:48Z</time>
      </trkpt>
      <trkpt lat="43.102344" lon="-3.270609">
        <ele>339.29</ele>
        <time>2021-03-27T19:51:49Z</time>
      </trkpt>
      <trkpt lat="43.102364" lon="-3.27055">
        <ele>339.52</ele>
        <time>2021-03-27T19:51:51Z</time>
      </trkpt>
      <trkpt lat="43.102293" lon="-3.270424">
        <ele>340.34</ele>
        <time>2021-03-27T19:51:53Z</time>
      </trkpt>
      <trkpt lat="43.102285" lon="-3.270295">
        <ele>340.92</ele>
        <time>2021-03-27T19:51:54Z</time>
      </trkpt>
      <trkpt lat="43.1023" lon="-3.27019">
        <ele>341.0</ele>
        <time>2021-03-27T19:51:56Z</time>
      </trkpt>
      <trkpt lat="43.102355" lon="-3.270074">
        <ele>341.0</ele>
        <time>2021-03-27T19:51:58Z</time>
      </trkpt>
      <trkpt lat="43.102586" lon="-3.269834">
        <ele>341.6</ele>
        <time>2021-03-27T19:52:00Z</time>
      </trkpt>
      <trkpt lat="43.103431" lon="-3.269046">
        <ele>337.45</ele>
        <time>2021-03-27T19:52:01Z</time>
      </trkpt>
      <trkpt lat="43.10364" lon="-3.268819">
        <ele>337.17</ele>
        <time>2021-03-27T19:52:03Z</time>
      </trkpt>
      <trkpt lat="43.10377" lon="-3.268644">
        <ele>337.81</ele>
        <time>2021-03-27T19:52:05Z</time>
      </trkpt>
      <trkpt lat="43.103988" lon="-3.268273">
        <ele>337.64</ele>
        <time>2021-03-27T19:52:06Z</time>
      </trkpt>
      <trkpt lat="43.104117" lon="-3.267988">
        <ele>337.18</ele>
        <time>2021-03-27T19:52:08Z</time>
      </trkpt>
      <trkpt lat="43.104206" lon="-3.267728">
        <ele>337.04</ele>
        <time>2021-03-27T19:52:10Z</time>
      </trkpt>
      <trkpt lat="43.104468" lon="-3.266386">
        <ele>342.0</ele>
        <time>2021-03-27T19:52:11Z</time>
      </trkpt>
      <trkpt lat="43.104875" lon="-3.264191">
        <ele>341.39</ele>
        <time>2021-03-27T19:52:13Z</time>
      </trkpt>
      <trkpt lat="43.106737" lon="-3.256588">
        <ele>355.29</ele>
        <time>2021-03-27T19:52:15Z</time>
      </trkpt>
      <trkpt lat="43.10679" lon="-3.256206">
        <ele>357.04</ele>
        <time>2021-03-27T19:52:17Z</time>
      </trkpt>
      <trkpt lat="43.106768" lon="-3.256074">
        <ele>357.63</ele>
        <time>2021-03-27T19:52:18Z</time>
      </trkpt>
      <trkpt lat="43.106665" lon="-3.255896">
        <ele>358.48</ele>
        <time>2021-03-27T19:52:20Z</time>
      </trkpt>
      <trkpt lat="43.106568" lon="-3.25581">
        <ele>358.86</ele>
        <time>2021-03-27T19:52:22Z</time>
      </trkpt>
      <trkpt lat="43.106015" lon="-3.255421">
        <ele>362.21</ele>
        <time>2021-03-27T19:52:23Z</time>
      </trkpt>
      <trkpt lat="43.105765" lon="-3.255284">
        <ele>364.27</ele>
        <time>2021-03-27T19:52:25Z</time>
      </trkpt>
      <trkpt lat="43.105267" lon="-3.255052">
        <ele>367.23</ele>
        <time>2021-03-27T19:52:27Z</time>
      </trkpt>
      <trkpt lat="43.105147" lon="-3.254953">
        <ele>367.39</ele>
        <time>2021-03-27T19:52:28Z</time>
      </trkpt>
      <trkpt lat="43.105074" lon="-3.254861">
        <ele>367.36</ele>
        <time>2021-03-27T19:52:30Z</time>
      </trkpt>
      <trkpt lat="43.105012" lon="-3.254729">
        <ele>367.02</ele>
        <time>2021-03-27T19:52:32Z</time>
      </trkpt>
      <trkpt lat="43.104968" lon="-3.254528">
        <ele>367.23</ele>
        <time>2021-03-27T19:52:34Z</time>
      </trkpt>
      <trkpt lat="43.104758" lon="-3.251974">
        <ele>375.65</ele>
        <time>2021-03-27T19:52:35Z</time>
      </trkpt>
      <trkpt lat="43.104747" lon="-3.251651">
        <ele>376.8</ele>
        <time>2021-03-27T19:52:37Z</time>
      </trkpt>
      <trkpt lat="43.104786" lon="-3.251457">
        <ele>377.42</ele>
        <time>2021-03-27T19:52:39Z</time>
      </trkpt>
      <trkpt lat="43.104858" lon="-3.251265">
        <ele>377.95</ele>
        <time>2021-03-27T19:52:40Z</time>
      </trkpt>
      <trkpt lat="43.105166" lon="-3.250778">
        <ele>381.04</ele>
        <time>2021-03-27T19:52:42Z</time>
      </trkpt>
      <trkpt lat="43.105304" lon="-3.250607">
        <ele>383.08</ele>
        <time>2021-03-27T19:52:44Z</time>
      </trkpt>
      <trkpt lat="43.105499" lon="-3.250475">
        <ele>384.03</ele>
        <time>2021-03-27T19:52:46Z</time>
      </trkpt>
      <trkpt lat="43.10558" lon="-3.250459">
        <ele>384.1</ele>
        <time>2021-03-27T19:52:47Z</time>
      </trkpt>
      <trkpt lat="43.107444" lon="-3.25043">
        <ele>392.75</ele>
        <time>2021-03-27T19:52:49Z</time>
      </trkpt>
      <trkpt lat="43.107709" lon="-3.250299">
        <ele>395.47</ele>
        <time>2021-03-27T19:52:51Z</time>
      </trkpt>
      <trkpt lat="43.10782" lon="-3.250195">
        <ele>396.1</ele>
        <time>2021-03-27T19:52:52Z</time>
      </trkpt>
      <trkpt lat="43.107885" lon="-3.250106">
        <ele>395.84</ele>
        <time>2021-03-27T19:52:54Z</time>
      </trkpt>
      <trkpt lat="43.107916" lon="-3.250003">
        <ele>395.98</ele>
        <time>2021-03-27T19:52:56Z</time>
      </trkpt>
      <trkpt lat="43.10792" lon="-3.249905">
        <ele>395.61</ele>
        <time>2021-03-27T19:52:57Z</time>
      </trkpt>
      <trkpt lat="43.107904" lon="-3.249823">
        <ele>395.55</ele>
        <time>2021-03-27T19:52:59Z</time>
      </trkpt>
      <trkpt lat="43.10787" lon="-3.24975">
        <ele>395.77</ele>
        <time>2021-03-27T19:53:01Z</time>
      </trkpt>
      <trkpt lat="43.107752" lon="-3.249614">
        <ele>396.44</ele>
        <time>2021-03-27T19:53:03Z</time>
      </trkpt>
      <trkpt lat="43.107097" lon="-3.249101">
        <ele>399.98</ele>
        <time>2021-03-27T19:53:04Z</time>
      </trkpt>
      <trkpt lat="43.106886" lon="-3.248913">
        <ele>401.52</ele>
        <time>2021-03-27T19:53:06Z</time>
      </trkpt>
      <trkpt lat="43.106352" lon="-3.248305">
        <ele>404.22</ele>
        <time>2021-03-27T19:53:08Z</time>
      </trkpt>
      <trkpt lat="43.106237" lon="-3.248103">
        <ele>404.88</ele>
        <time>2021-03-27T19:53:09Z</time>
      </trkpt>
      <trkpt lat="43.106188" lon="-3.247863">
        <ele>405.61</ele>
        <time>2021-03-27T19:53:11Z</time>
      </trkpt>
      <trkpt lat="43.106207" lon="-3.245336">
        <ele>413.91</ele>
        <time>2021-03-27T19:53:13Z</time>
      </trkpt>
      <trkpt lat="43.106188" lon="-3.245175">
        <ele>414.55</ele>
        <time>2021-03-27T19:53:14Z</time>
      </trkpt>
      <trkpt lat="43.106114" lon="-3.244952">
        <ele>415.15</ele>
        <time>2021-03-27T19:53:16Z</time>
      </trkpt>
      <trkpt lat="43.105587" lon="-3.243817">
        <ele>420.43</ele>
        <time>2021-03-27T19:53:18Z</time>
      </trkpt>
      <trkpt lat="43.105431" lon="-3.243548">
        <ele>420.57</ele>
        <time>2021-03-27T19:53:20Z</time>
      </trkpt>
      <trkpt lat="43.105345" lon="-3.243445">
        <ele>420.9</ele>
        <time>2021-03-27T19:53:21Z</time>
      </trkpt>
      <trkpt lat="43.105111" lon="-3.24327">
        <ele>421.83</ele>
        <time>2021-03-27T19:53:23Z</time>
      </trkpt>
      <trkpt lat="43.104929" lon="-3.243199">
        <ele>423.25</ele>
        <time>2021-03-27T19:53:25Z</time>
      </trkpt>
      <trkpt lat="43.104253" lon="-3.243172">
        <ele>430.38</ele>
        <time>2021-03-27T19:53:26Z</time>
      </trkpt>
      <trkpt lat="43.104065" lon="-3.243104">
        <ele>431.36</ele>
        <time>2021-03-27T19:53:28Z</time>
      </trkpt>
      <trkpt lat="43.103871" lon="-3.242983">
        <ele>431.93</ele>
        <time>2021-03-27T19:53:30Z</time>
      </trkpt>
      <trkpt lat="43.103799" lon="-3.2429">
        <ele>432.81</ele>
        <time>2021-03-27T19:53:31Z</time>
      </trkpt>
      <trkpt lat="43.103744" lon="-3.242794">
        <ele>434.05</ele>
        <time>2021-03-27T19:53:33Z</time>
      </trkpt>
      <trkpt lat="43.103735" lon="-3.242705">
        <ele>434.89</ele>
        <time>2021-03-27T19:53:35Z</time>
      </trkpt>
      <trkpt lat="43.103747" lon="-3.242576">
        <ele>435.54</ele>
        <time>2021-03-27T19:53:37Z</time>
      </trkpt>
      <trkpt lat="43.103807" lon="-3.242447">
        <ele>434.92</ele>
        <time>2021-03-27T19:53:38Z</time>
      </trkpt>
      <trkpt lat="43.104822" lon="-3.241104">
        <ele>440.33</ele>
        <time>2021-03-27T19:53:40Z</time>
      </trkpt>
      <trkpt lat="43.104913" lon="-3.240916">
        <ele>441.03</ele>
        <time>2021-03-27T19:53:42Z</time>
      </trkpt>
      <trkpt lat="43.104935" lon="-3.240832">
        <ele>441.47</ele>
        <time>2021-03-27T19:53:43Z</time>
      </trkpt>
      <trkpt lat="43.104968" lon="-3.240539">
        <ele>442.05</ele>
        <time>2021-03-27T19:53:45Z</time>
      </trkpt>
      <trkpt lat="43.105078" lon="-3.237338">
        <ele>458.19</ele>
        <time>2021-03-27T19:53:47Z</time>
      </trkpt>
      <trkpt lat="43.1051" lon="-3.237194">
        <ele>457.6</ele>
        <time>2021-03-27T19:53:48Z</time>
      </trkpt>
      <trkpt lat="43.105163" lon="-3.236994">
        <ele>454.98</ele>
        <time>2021-03-27T19:53:50Z</time>
      </trkpt>
      <trkpt lat="43.105311" lon="-3.236851">
        <ele>453.92</ele>
        <time>2021-03-27T19:53:52Z</time>
      </trkpt>
      <trkpt lat="43.105435" lon="-3.236847">
        <ele>454.83</ele>
        <time>2021-03-27T19:53:54Z</time>
      </trkpt>
      <trkpt lat="43.105615" lon="-3.236972">
        <ele>455.73</ele>
        <time>2021-03-27T19:53:55Z</time>
      </trkpt>
      <trkpt lat="43.105868" lon="-3.237306">
        <ele>456.86</ele>
        <time>2021-03-27T19:53:57Z</time>
      </trkpt>
      <trkpt lat="43.10601" lon="-3.23743">
        <ele>457.57</ele>
        <time>2021-03-27T19:53:59Z</time>
      </trkpt>
      <trkpt lat="43.10608" lon="-3.237468">
        <ele>457.99</ele>
        <time>2021-03-27T19:54:00Z</time>
      </trkpt>
      <trkpt lat="43.106183" lon="-3.237472">
        <ele>459.07</ele>
        <time>2021-03-27T19:54:02Z</time>
      </trkpt>
      <trkpt lat="43.106258" lon="-3.237446">
        <ele>460.17</ele>
        <time>2021-03-27T19:54:04Z</time>
      </trkpt>
      <trkpt lat="43.106318" lon="-3.237395">
        <ele>461.36</ele>
        <time>2021-03-27T19:54:05Z</time>
      </trkpt>
      <trkpt lat="43.10641" lon="-3.237262">
        <ele>463.19</ele>
        <time>2021-03-27T19:54:07Z</time>
      </trkpt>
      <trkpt lat="43.106537" lon="-3.236963">
        <ele>462.76</ele>
        <time>2021-03-27T19:54:09Z</time>
      </trkpt>
      <trkpt lat="43.107206" lon="-3.234997">
        <ele>469.13</ele>
        <time>2021-03-27T19:54:11Z</time>
      </trkpt>
      <trkpt lat="43.107234" lon="-3.234868">
        <ele>469.74</ele>
        <time>2021-03-27T19:54:12Z</time>
      </trkpt>
      <trkpt lat="43.107241" lon="-3.234727">
        <ele>470.61</ele>
        <time>2021-03-27T19:54:14Z</time>
      </trkpt>
      <trkpt lat="43.107229" lon="-3.234639">
        <ele>471.16</ele>
        <time>2021-03-27T19:54:16Z</time>
      </trkpt>
      <trkpt lat="43.107142" lon="-3.23444">
        <ele>473.45</ele>
        <time>2021-03-27T19:54:17Z</time>
      </trkpt>
      <trkpt lat="43.106752" lon="-3.233896">
        <ele>481.42</ele>
        <time>2021-03-27T19:54:19Z</time>
      </trkpt>
      <trkpt lat="43.106638" lon="-3.233798">
        <ele>483.33</ele>
        <time>2021-03-27T19:54:21Z</time>
      </trkpt>
      <trkpt lat="43.106475" lon="-3.233799">
        <ele>483.32</ele>
        <time>2021-03-27T19:54:22Z</time>
      </trkpt>
      <trkpt lat="43.106403" lon="-3.233855">
        <ele>483.12</ele>
        <time>2021-03-27T19:54:24Z</time>
      </trkpt>
      <trkpt lat="43.106322" lon="-3.233945">
        <ele>483.32</ele>
        <time>2021-03-27T19:54:26Z</time>
      </trkpt>
      <trkpt lat="43.106138" lon="-3.234217">
        <ele>484.53</ele>
        <time>2021-03-27T19:54:28Z</time>
      </trkpt>
      <trkpt lat="43.106044" lon="-3.234305">
        <ele>485.59</ele>
        <time>2021-03-27T19:54:29Z</time>
      </trkpt>
      <trkpt lat="43.105941" lon="-3.234366">
        <ele>486.89</ele>
        <time>2021-03-27T19:54:31Z</time>
      </trkpt>
      <trkpt lat="43.105777" lon="-3.234411">
        <ele>488.09</ele>
        <time>2021-03-27T19:54:33Z</time>
      </trkpt>
      <trkpt lat="43.10571" lon="-3.234403">
        <ele>487.99</ele>
        <time>2021-03-27T19:54:34Z</time>
      </trkpt>
      <trkpt lat="43.105602" lon="-3.234337">
        <ele>488.58</ele>
        <time>2021-03-27T19:54:36Z</time>
      </trkpt>
      <trkpt lat="43.105524" lon="-3.234257">
        <ele>489.2</ele>
        <time>2021-03-27T19:54:38Z</time>
      </trkpt>
      <trkpt lat="43.105401" lon="-3.234048">
        <ele>489.86</ele>
        <time>2021-03-27T19:54:39Z</time>
      </trkpt>
      <trkpt lat="43.10535" lon="-3.233923">
        <ele>490.45</ele>
        <time>2021-03-27T19:54:41Z</time>
      </trkpt>
      <trkpt lat="43.105192" lon="-3.233419">
        <ele>490.44</ele>
        <time>2021-03-27T19:54:43Z</time>
      </trkpt>
      <trkpt lat="43.105096" lon="-3.233188">
        <ele>491.15</ele>
        <time>2021-03-27T19:54:45Z</time>
      </trkpt>
      <trkpt lat="43.104615" lon="-3.232311">
        <ele>497.64</ele>
        <time>2021-03-27T19:54:46Z</time>
      </trkpt>
      <trkpt lat="43.104528" lon="-3.232063">
        <ele>499.85</ele>
        <time>2021-03-27T19:54:48Z</time>
      </trkpt>
      <trkpt lat="43.104422" lon="-3.231554">
        <ele>501.34</ele>
        <time>2021-03-27T19:54:50Z</time>
      </trkpt>
      <trkpt lat="43.104372" lon="-3.231384">
        <ele>502.58</ele>
        <time>2021-03-27T19:54:51Z</time>
      </trkpt>
      <trkpt lat="43.104036" lon="-3.230818">
        <ele>510.91</ele>
        <time>2021-03-27T19:54:53Z</time>
      </trkpt>
      <trkpt lat="43.103983" lon="-3.230688">
        <ele>512.0</ele>
        <time>2021-03-27T19:54:55Z</time>
      </trkpt>
      <trkpt lat="43.103916" lon="-3.230421">
        <ele>513.46</ele>
        <time>2021-03-27T19:54:56Z</time>
      </trkpt>
      <trkpt lat="43.103876" lon="-3.229863">
        <ele>514.87</ele>
        <time>2021-03-27T19:54:58Z</time>
      </trkpt>
      <trkpt lat="43.10389" lon="-3.229254">
        <ele>518.02</ele>
        <time>2021-03-27T19:55:00Z</time>
      </trkpt>
      <trkpt lat="43.103932" lon="-3.228986">
        <ele>519.83</ele>
        <time>2021-03-27T19:55:02Z</time>
      </trkpt>
      <trkpt lat="43.104003" lon="-3.228732">
        <ele>521.48</ele>
        <time>2021-03-27T19:55:03Z</time>
      </trkpt>
      <trkpt lat="43.104119" lon="-3.228469">
        <ele>522.1</ele>
        <time>2021-03-27T19:55:05Z</time>
      </trkpt>
      <trkpt lat="43.104254" lon="-3.22826">
        <ele>521.81</ele>
        <time>2021-03-27T19:55:07Z</time>
      </trkpt>
      <trkpt lat="43.104504" lon="-3.227968">
        <ele>520.43</ele>
        <time>2021-03-27T19:55:08Z</time>
      </trkpt>
      <trkpt lat="43.10487" lon="-3.227372">
        <ele>524.2</ele>
        <time>2021-03-27T19:55:10Z</time>
      </trkpt>
      <trkpt lat="43.105532" lon="-3.226234">
        <ele>527.64</ele>
        <time>2021-03-27T19:55:12Z</time>
      </trkpt>
      <trkpt lat="43.105661" lon="-3.22592">
        <ele>528.57</ele>
        <time>2021-03-27T19:55:13Z</time>
      </trkpt>
      <trkpt lat="43.105759" lon="-3.225502">
        <ele>530.38</ele>
        <time>2021-03-27T19:55:15Z</time>
      </trkpt>
      <trkpt lat="43.10582" lon="-3.225164">
        <ele>529.26</ele>
        <time>2021-03-27T19:55:17Z</time>
      </trkpt>
      <trkpt lat="43.10583" lon="-3.225031">
        <ele>529.07</ele>
        <time>2021-03-27T19:55:19Z</time>
      </trkpt>
      <trkpt lat="43.105789" lon="-3.224819">
        <ele>529.04</ele>
        <time>2021-03-27T19:55:20Z</time>
      </trkpt>
      <trkpt lat="43.105686" lon="-3.224617">
        <ele>529.71</ele>
        <time>2021-03-27T19:55:22Z</time>
      </trkpt>
      <trkpt lat="43.105556" lon="-3.224487">
        <ele>530.3</ele>
        <time>2021-03-27T19:55:24Z</time>
      </trkpt>
      <trkpt lat="43.105383" lon="-3.224397">
        <ele>531.1</ele>
        <time>2021-03-27T19:55:25Z</time>
      </trkpt>
      <trkpt lat="43.104716" lon="-3.224343">
        <ele>533.2</ele>
        <time>2021-03-27T19:55:27Z</time>
      </trkpt>
      <trkpt lat="43.103845" lon="-3.224209">
        <ele>534.64</ele>
        <time>2021-03-27T19:55:29Z</time>
      </trkpt>
      <trkpt lat="43.103346" lon="-3.2243">
        <ele>536.4</ele>
        <time>2021-03-27T19:55:31Z</time>
      </trkpt>
      <trkpt lat="43.103256" lon="-3.224285">
        <ele>536.58</ele>
        <time>2021-03-27T19:55:32Z</time>
      </trkpt>
      <trkpt lat="43.103141" lon="-3.224215">
        <ele>536.14</ele>
        <time>2021-03-27T19:55:34Z</time>
      </trkpt>
      <trkpt lat="43.103033" lon="-3.224043">
        <ele>535.68</ele>
        <time>2021-03-27T19:55:36Z</time>
      </trkpt>
      <trkpt lat="43.103003" lon="-3.223938">
        <ele>535.68</ele>
        <time>2021-03-27T19:55:37Z</time>
      </trkpt>
      <trkpt lat="43.102882" lon="-3.223157">
        <ele>530.69</ele>
        <time>2021-03-27T19:55:39Z</time>
      </trkpt>
      <trkpt lat="43.102784" lon="-3.222929">
        <ele>530.44</ele>
        <time>2021-03-27T19:55:41Z</time>
      </trkpt>
      <trkpt lat="43.102617" lon="-3.222673">
        <ele>531.72</ele>
        <time>2021-03-27T19:55:42Z</time>
      </trkpt>
      <trkpt lat="43.102575" lon="-3.222573">
        <ele>531.92</ele>
        <time>2021-03-27T19:55:44Z</time>
      </trkpt>
      <trkpt lat="43.102547" lon="-3.222463">
        <ele>531.71</ele>
        <time>2021-03-27T19:55:46Z</time>
      </trkpt>
      <trkpt lat="43.102542" lon="-3.222346">
        <ele>530.98</ele>
        <time>2021-03-27T19:55:48Z</time>
      </trkpt>
      <trkpt lat="43.102562" lon="-3.222046">
        <ele>528.53</ele>
        <time>2021-03-27T19:55:49Z</time>
      </trkpt>
      <trkpt lat="43.102547" lon="-3.22193">
        <ele>528.01</ele>
        <time>2021-03-27T19:55:51Z</time>
      </trkpt>
      <trkpt lat="43.102499" lon="-3.221835">
        <ele>527.83</ele>
        <time>2021-03-27T19:55:53Z</time>
      </trkpt>
      <trkpt lat="43.102434" lon="-3.221781">
        <ele>528.42</ele>
        <time>2021-03-27T19:55:54Z</time>
      </trkpt>
      <trkpt lat="43.102311" lon="-3.221726">
        <ele>530.04</ele>
        <time>2021-03-27T19:55:56Z</time>
      </trkpt>
      <trkpt lat="43.102102" lon="-3.22168">
        <ele>532.85</ele>
        <time>2021-03-27T19:55:58Z</time>
      </trkpt>
      <trkpt lat="43.102017" lon="-3.221636">
        <ele>533.51</ele>
        <time>2021-03-27T19:55:59Z</time>
      </trkpt>
      <trkpt lat="43.101911" lon="-3.221517">
        <ele>533.57</ele>
        <time>2021-03-27T19:56:01Z</time>
      </trkpt>
      <trkpt lat="43.101879" lon="-3.221443">
        <ele>533.33</ele>
        <time>2021-03-27T19:56:03Z</time>
      </trkpt>
      <trkpt lat="43.10187" lon="-3.221361">
        <ele>533.06</ele>
        <time>2021-03-27T19:56:05Z</time>
      </trkpt>
      <trkpt lat="43.101884" lon="-3.221175">
        <ele>534.06</ele>
        <time>2021-03-27T19:56:06Z</time>
      </trkpt>
      <trkpt lat="43.102053" lon="-3.220742">
        <ele>534.25</ele>
        <time>2021-03-27T19:56:08Z</time>
      </trkpt>
      <trkpt lat="43.102206" lon="-3.220412">
        <ele>534.99</ele>
        <time>2021-03-27T19:56:10Z</time>
      </trkpt>
      <trkpt lat="43.102595" lon="-3.219807">
        <ele>539.3</ele>
        <time>2021-03-27T19:56:11Z</time>
      </trkpt>
      <trkpt lat="43.103662" lon="-3.218251">
        <ele>542.32</ele>
        <time>2021-03-27T19:56:13Z</time>
      </trkpt>
      <trkpt lat="43.104325" lon="-3.217247">
        <ele>549.51</ele>
        <time>2021-03-27T19:56:15Z</time>
      </trkpt>
      <trkpt lat="43.104656" lon="-3.216563">
        <ele>549.14</ele>
        <time>2021-03-27T19:56:16Z</time>
      </trkpt>
      <trkpt lat="43.104714" lon="-3.216336">
        <ele>549.48</ele>
        <time>2021-03-27T19:56:18Z</time>
      </trkpt>
      <trkpt lat="43.104708" lon="-3.21614">
        <ele>550.85</ele>
        <time>2021-03-27T19:56:20Z</time>
      </trkpt>
      <trkpt lat="43.104662" lon="-3.215966">
        <ele>550.99</ele>
        <time>2021-03-27T19:56:22Z</time>
      </trkpt>
      <trkpt lat="43.104558" lon="-3.215807">
        <ele>550.05</ele>
        <time>2021-03-27T19:56:23Z</time>
      </trkpt>
      <trkpt lat="43.104502" lon="-3.215757">
        <ele>549.0</ele>
        <time>2021-03-27T19:56:25Z</time>
      </trkpt>
      <trkpt lat="43.104338" lon="-3.215687">
        <ele>547.18</ele>
        <time>2021-03-27T19:56:27Z</time>
      </trkpt>
      <trkpt lat="43.103918" lon="-3.21566">
        <ele>544.24</ele>
        <time>2021-03-27T19:56:28Z</time>
      </trkpt>
      <trkpt lat="43.102747" lon="-3.215669">
        <ele>546.32</ele>
        <time>2021-03-27T19:56:30Z</time>
      </trkpt>
      <trkpt lat="43.102486" lon="-3.215628">
        <ele>547.15</ele>
        <time>2021-03-27T19:56:32Z</time>
      </trkpt>
      <trkpt lat="43.102297" lon="-3.215505">
        <ele>544.4</ele>
        <time>2021-03-27T19:56:33Z</time>
      </trkpt>
      <trkpt lat="43.101999" lon="-3.21524">
        <ele>542.14</ele>
        <time>2021-03-27T19:56:35Z</time>
      </trkpt>
      <trkpt lat="43.101922" lon="-3.215134">
        <ele>541.52</ele>
        <time>2021-03-27T19:56:37Z</time>
      </trkpt>
      <trkpt lat="43.101693" lon="-3.214722">
        <ele>540.34</ele>
        <time>2021-03-27T19:56:39Z</time>
      </trkpt>
      <trkpt lat="43.1016" lon="-3.21454">
        <ele>540.4</ele>
        <time>2021-03-27T19:56:40Z</time>
      </trkpt>
      <trkpt lat="43.101565" lon="-3.21443">
        <ele>540.17</ele>
        <time>2021-03-27T19:56:42Z</time>
      </trkpt>
      <trkpt lat="43.101579" lon="-3.214288">
        <ele>539.72</ele>
        <time>2021-03-27T19:56:44Z</time>
      </trkpt>
      <trkpt lat="43.101655" lon="-3.214146">
        <ele>538.28</ele>
        <time>2021-03-27T19:56:45Z</time>
      </trkpt>
      <trkpt lat="43.101807" lon="-3.214029">
        <ele>536.46</ele>
        <time>2021-03-27T19:56:47Z</time>
      </trkpt>
      <trkpt lat="43.102193" lon="-3.213822">
        <ele>533.58</ele>
        <time>2021-03-27T19:56:49Z</time>
      </trkpt>
      <trkpt lat="43.102353" lon="-3.213699">
        <ele>532.13</ele>
        <time>2021-03-27T19:56:50Z</time>
      </trkpt>
      <trkpt lat="43.102769" lon="-3.213282">
        <ele>528.13</ele>
        <time>2021-03-27T19:56:52Z</time>
      </trkpt>
      <trkpt lat="43.103055" lon="-3.212957">
        <ele>527.15</ele>
        <time>2021-03-27T19:56:54Z</time>
      </trkpt>
      <trkpt lat="43.103292" lon="-3.21258">
        <ele>525.9</ele>
        <time>2021-03-27T19:56:56Z</time>
      </trkpt>
      <trkpt lat="43.10402" lon="-3.211236">
        <ele>518.57</ele>
        <time>2021-03-27T19:56:57Z</time>
      </trkpt>
      <trkpt lat="43.104981" lon="-3.209911">
        <ele>513.86</ele>
        <time>2021-03-27T19:56:59Z</time>
      </trkpt>
      <trkpt lat="43.10522" lon="-3.209565">
        <ele>513.19</ele>
        <time>2021-03-27T19:57:01Z</time>
      </trkpt>
      <trkpt lat="43.105249" lon="-3.209494">
        <ele>512.54</ele>
        <time>2021-03-27T19:57:02Z</time>
      </trkpt>
      <trkpt lat="43.10527" lon="-3.209379">
        <ele>511.11</ele>
        <time>2021-03-27T19:57:04Z</time>
      </trkpt>
      <trkpt lat="43.10526" lon="-3.209218">
        <ele>508.86</ele>
        <time>2021-03-27T19:57:06Z</time>
      </trkpt>
      <trkpt lat="43.105218" lon="-3.209095">
        <ele>507.86</ele>
        <time>2021-03-27T19:57:07Z</time>
      </trkpt>
      <trkpt lat="43.105109" lon="-3.208952">
        <ele>507.2</ele>
        <time>2021-03-27T19:57:09Z</time>
      </trkpt>
      <trkpt lat="43.105034" lon="-3.208904">
        <ele>507.04</ele>
        <time>2021-03-27T19:57:11Z</time>
      </trkpt>
      <trkpt lat="43.104942" lon="-3.208876">
        <ele>506.78</ele>
        <time>2021-03-27T19:57:13Z</time>
      </trkpt>
      <trkpt lat="43.104562" lon="-3.208796">
        <ele>505.52</ele>
        <time>2021-03-27T19:57:14Z</time>
      </trkpt>
      <trkpt lat="43.104396" lon="-3.208788">
        <ele>504.72</ele>
        <time>2021-03-27T19:57:16Z</time>
      </trkpt>
      <trkpt lat="43.104306" lon="-3.208803">
        <ele>503.46</ele>
        <time>2021-03-27T19:57:18Z</time>
      </trkpt>
      <trkpt lat="43.104161" lon="-3.208892">
        <ele>502.92</ele>
        <time>2021-03-27T19:57:19Z</time>
      </trkpt>
      <trkpt lat="43.103735" lon="-3.209328">
        <ele>500.6</ele>
        <time>2021-03-27T19:57:21Z</time>
      </trkpt>
      <trkpt lat="43.103327" lon="-3.209677">
        <ele>498.89</ele>
        <time>2021-03-27T19:57:23Z</time>
      </trkpt>
      <trkpt lat="43.102967" lon="-3.209886">
        <ele>497.58</ele>
        <time>2021-03-27T19:57:24Z</time>
      </trkpt>
      <trkpt lat="43.102706" lon="-3.209971">
        <ele>497.1</ele>
        <time>2021-03-27T19:57:26Z</time>
      </trkpt>
      <trkpt lat="43.102491" lon="-3.210013">
        <ele>497.39</ele>
        <time>2021-03-27T19:57:28Z</time>
      </trkpt>
      <trkpt lat="43.102354" lon="-3.210009">
        <ele>497.21</ele>
        <time>2021-03-27T19:57:30Z</time>
      </trkpt>
      <trkpt lat="43.102274" lon="-3.209983">
        <ele>496.76</ele>
        <time>2021-03-27T19:57:31Z</time>
      </trkpt>
      <trkpt lat="43.102204" lon="-3.20993">
        <ele>496.12</ele>
        <time>2021-03-27T19:57:33Z</time>
      </trkpt>
      <trkpt lat="43.102162" lon="-3.209869">
        <ele>495.55</ele>
        <time>2021-03-27T19:57:35Z</time>
      </trkpt>
      <trkpt lat="43.10213" lon="-3.209782">
        <ele>494.52</ele>
        <time>2021-03-27T19:57:36Z</time>
      </trkpt>
      <trkpt lat="43.102123" lon="-3.209672">
        <ele>493.67</ele>
        <time>2021-03-27T19:57:38Z</time>
      </trkpt>
      <trkpt lat="43.102208" lon="-3.209447">
        <ele>492.21</ele>
        <time>2021-03-27T19:57:40Z</time>
      </trkpt>
      <trkpt lat="43.102402" lon="-3.209232">
        <ele>488.61</ele>
        <time>2021-03-27T19:57:41Z</time>
      </trkpt>
      <trkpt lat="43.102594" lon="-3.208962">
        <ele>484.31</ele>
        <time>2021-03-27T19:57:43Z</time>
      </trkpt>
      <trkpt lat="43.102689" lon="-3.208801">
        <ele>483.12</ele>
        <time>2021-03-27T19:57:45Z</time>
      </trkpt>
      <trkpt lat="43.103243" lon="-3.207463">
        <ele>482.12</ele>
        <time>2021-03-27T19:57:47Z</time>
      </trkpt>
      <trkpt lat="43.103295" lon="-3.207263">
        <ele>479.52</ele>
        <time>2021-03-27T19:57:48Z</time>
      </trkpt>
      <trkpt lat="43.103302" lon="-3.207095">
        <ele>478.26</ele>
        <time>2021-03-27T19:57:50Z</time>
      </trkpt>
      <trkpt lat="43.10325" lon="-3.206928">
        <ele>479.13</ele>
        <time>2021-03-27T19:57:52Z</time>
      </trkpt>
      <trkpt lat="43.103135" lon="-3.206702">
        <ele>480.25</ele>
        <time>2021-03-27T19:57:53Z</time>
      </trkpt>
      <trkpt lat="43.103097" lon="-3.20659">
        <ele>480.26</ele>
        <time>2021-03-27T19:57:55Z</time>
      </trkpt>
      <trkpt lat="43.103087" lon="-3.206493">
        <ele>479.83</ele>
        <time>2021-03-27T19:57:57Z</time>
      </trkpt>
      <trkpt lat="43.10311" lon="-3.206341">
        <ele>478.5</ele>
        <time>2021-03-27T19:57:58Z</time>
      </trkpt>
      <trkpt lat="43.103166" lon="-3.206241">
        <ele>477.24</ele>
        <time>2021-03-27T19:58:00Z</time>
      </trkpt>
      <trkpt lat="43.103257" lon="-3.206174">
        <ele>475.31</ele>
        <time>2021-03-27T19:58:02Z</time>
      </trkpt>
      <trkpt lat="43.103415" lon="-3.206104">
        <ele>472.28</ele>
        <time>2021-03-27T19:58:04Z</time>
      </trkpt>
      <trkpt lat="43.105742" lon="-3.2053">
        <ele>453.46</ele>
        <time>2021-03-27T19:58:05Z</time>
      </trkpt>
      <trkpt lat="43.105937" lon="-3.205191">
        <ele>450.93</ele>
        <time>2021-03-27T19:58:07Z</time>
      </trkpt>
      <trkpt lat="43.105998" lon="-3.205116">
        <ele>450.55</ele>
        <time>2021-03-27T19:58:09Z</time>
      </trkpt>
      <trkpt lat="43.106296" lon="-3.204443">
        <ele>449.34</ele>
        <time>2021-03-27T19:58:10Z</time>
      </trkpt>
      <trkpt lat="43.106382" lon="-3.204301">
        <ele>448.6</ele>
        <time>2021-03-27T19:58:12Z</time>
      </trkpt>
      <trkpt lat="43.106539" lon="-3.204114">
        <ele>446.94</ele>
        <time>2021-03-27T19:58:14Z</time>
      </trkpt>
      <trkpt lat="43.107157" lon="-3.203715">
        <ele>440.18</ele>
        <time>2021-03-27T19:58:15Z</time>
      </trkpt>
      <trkpt lat="43.108158" lon="-3.20266">
        <ele>435.74</ele>
        <time>2021-03-27T19:58:17Z</time>
      </trkpt>
      <trkpt lat="43.108244" lon="-3.202533">
        <ele>434.36</ele>
        <time>2021-03-27T19:58:19Z</time>
      </trkpt>
      <trkpt lat="43.108288" lon="-3.202413">
        <ele>432.98</ele>
        <time>2021-03-27T19:58:21Z</time>
      </trkpt>
      <trkpt lat="43.108316" lon="-3.202192">
        <ele>430.86</ele>
        <time>2021-03-27T19:58:22Z</time>
      </trkpt>
      <trkpt lat="43.108302" lon="-3.202062">
        <ele>429.61</ele>
        <time>2021-03-27T19:58:24Z</time>
      </trkpt>
      <trkpt lat="43.108216" lon="-3.201857">
        <ele>428.82</ele>
        <time>2021-03-27T19:58:26Z</time>
      </trkpt>
      <trkpt lat="43.108146" lon="-3.201763">
        <ele>428.92</ele>
        <time>2021-03-27T19:58:27Z</time>
      </trkpt>
      <trkpt lat="43.107972" lon="-3.201603">
        <ele>428.54</ele>
        <time>2021-03-27T19:58:29Z</time>
      </trkpt>
      <trkpt lat="43.107488" lon="-3.201278">
        <ele>423.85</ele>
        <time>2021-03-27T19:58:31Z</time>
      </trkpt>
      <trkpt lat="43.106461" lon="-3.200915">
        <ele>422.58</ele>
        <time>2021-03-27T19:58:33Z</time>
      </trkpt>
      <trkpt lat="43.106327" lon="-3.200831">
        <ele>423.07</ele>
        <time>2021-03-27T19:58:34Z</time>
      </trkpt>
      <trkpt lat="43.106263" lon="-3.200761">
        <ele>423.11</ele>
        <time>2021-03-27T19:58:36Z</time>
      </trkpt>
      <trkpt lat="43.106151" lon="-3.200596">
        <ele>422.12</ele>
        <time>2021-03-27T19:58:38Z</time>
      </trkpt>
      <trkpt lat="43.106095" lon="-3.200471">
        <ele>420.69</ele>
        <time>2021-03-27T19:58:39Z</time>
      </trkpt>
      <trkpt lat="43.105422" lon="-3.198308">
        <ele>409.25</ele>
        <time>2021-03-27T19:58:41Z</time>
      </trkpt>
      <trkpt lat="43.10536" lon="-3.198215">
        <ele>408.56</ele>
        <time>2021-03-27T19:58:43Z</time>
      </trkpt>
      <trkpt lat="43.105234" lon="-3.198103">
        <ele>407.7</ele>
        <time>2021-03-27T19:58:44Z</time>
      </trkpt>
      <trkpt lat="43.104854" lon="-3.197932">
        <ele>406.08</ele>
        <time>2021-03-27T19:58:46Z</time>
      </trkpt>
      <trkpt lat="43.104428" lon="-3.197775">
        <ele>403.99</ele>
        <time>2021-03-27T19:58:48Z</time>
      </trkpt>
      <trkpt lat="43.104359" lon="-3.19772">
        <ele>403.13</ele>
        <time>2021-03-27T19:58:50Z</time>
      </trkpt>
      <trkpt lat="43.104306" lon="-3.197648">
        <ele>401.93</ele>
        <time>2021-03-27T19:58:51Z</time>
      </trkpt>
      <trkpt lat="43.104275" lon="-3.197573">
        <ele>400.63</ele>
        <time>2021-03-27T19:58:53Z</time>
      </trkpt>
      <trkpt lat="43.104259" lon="-3.197433">
        <ele>398.2</ele>
        <time>2021-03-27T19:58:55Z</time>
      </trkpt>
      <trkpt lat="43.10428" lon="-3.197343">
        <ele>396.59</ele>
        <time>2021-03-27T19:58:56Z</time>
      </trkpt>
      <trkpt lat="43.104353" lon="-3.197217">
        <ele>394.27</ele>
        <time>2021-03-27T19:58:58Z</time>
      </trkpt>
      <trkpt lat="43.104447" lon="-3.197144">
        <ele>393.16</ele>
        <time>2021-03-27T19:59:00Z</time>
      </trkpt>
      <trkpt lat="43.105021" lon="-3.196946">
        <ele>392.16</ele>
        <time>2021-03-27T19:59:01Z</time>
      </trkpt>
      <trkpt lat="43.105396" lon="-3.196788">
        <ele>392.32</ele>
        <time>2021-03-27T19:59:03Z</time>
      </trkpt>
      <trkpt lat="43.105506" lon="-3.196695">
        <ele>391.3</ele>
        <time>2021-03-27T19:59:05Z</time>
      </trkpt>
      <trkpt lat="43.105797" lon="-3.196378">
        <ele>388.96</ele>
        <time>2021-03-27T19:59:07Z</time>
      </trkpt>
      <trkpt lat="43.105918" lon="-3.196218">
        <ele>388.38</ele>
        <time>2021-03-27T19:59:08Z</time>
      </trkpt>
      <trkpt lat="43.106007" lon="-3.196039">
        <ele>387.84</ele>
        <time>2021-03-27T19:59:10Z</time>
      </trkpt>
      <trkpt lat="43.106044" lon="-3.19576">
        <ele>387.38</ele>
        <time>2021-03-27T19:59:12Z</time>
      </trkpt>
      <trkpt lat="43.106032" lon="-3.195613">
        <ele>387.63</ele>
        <time>2021-03-27T19:59:13Z</time>
      </trkpt>
      <trkpt lat="43.105368" lon="-3.193155">
        <ele>373.71</ele>
        <time>2021-03-27T19:59:15Z</time>
      </trkpt>
      <trkpt lat="43.105358" lon="-3.192803">
        <ele>369.33</ele>
        <time>2021-03-27T19:59:17Z</time>
      </trkpt>
      <trkpt lat="43.105402" lon="-3.192282">
        <ele>368.68</ele>
        <time>2021-03-27T19:59:18Z</time>
      </trkpt>
      <trkpt lat="43.105401" lon="-3.192158">
        <ele>368.99</ele>
        <time>2021-03-27T19:59:20Z</time>
      </trkpt>
      <trkpt lat="43.105373" lon="-3.192034">
        <ele>368.95</ele>
        <time>2021-03-27T19:59:22Z</time>
      </trkpt>
      <trkpt lat="43.105203" lon="-3.191686">
        <ele>366.77</ele>
        <time>2021-03-27T19:59:24Z</time>
      </trkpt>
      <trkpt lat="43.105133" lon="-3.191493">
        <ele>365.77</ele>
        <time>2021-03-27T19:59:25Z</time>
      </trkpt>
      <trkpt lat="43.105135" lon="-3.191336">
        <ele>366.39</ele>
        <time>2021-03-27T19:59:27Z</time>
      </trkpt>
      <trkpt lat="43.10521" lon="-3.191088">
        <ele>368.83</ele>
        <time>2021-03-27T19:59:29Z</time>
      </trkpt>
      <trkpt lat="43.105217" lon="-3.19101">
        <ele>369.12</ele>
        <time>2021-03-27T19:59:30Z</time>
      </trkpt>
      <trkpt lat="43.105203" lon="-3.190929">
        <ele>368.74</ele>
        <time>2021-03-27T19:59:32Z</time>
      </trkpt>
      <trkpt lat="43.105174" lon="-3.19087">
        <ele>367.97</ele>
        <time>2021-03-27T19:59:34Z</time>
      </trkpt>
      <trkpt lat="43.105101" lon="-3.190798">
        <ele>366.05</ele>
        <time>2021-03-27T19:59:35Z</time>
      </trkpt>
      <trkpt lat="43.104806" lon="-3.190703">
        <ele>356.99</ele>
        <time>2021-03-27T19:59:37Z</time>
      </trkpt>
      <trkpt lat="43.104677" lon="-3.190612">
        <ele>354.46</ele>
        <time>2021-03-27T19:59:39Z</time>
      </trkpt>
      <trkpt lat="43.104429" lon="-3.190108">
        <ele>352.33</ele>
        <time>2021-03-27T19:59:41Z</time>
      </trkpt>
      <trkpt lat="43.104347" lon="-3.189838">
        <ele>351.45</ele>
        <time>2021-03-27T19:59:42Z</time>
      </trkpt>
      <trkpt lat="43.104341" lon="-3.189731">
        <ele>351.84</ele>
        <time>2021-03-27T19:59:44Z</time>
      </trkpt>
      <trkpt lat="43.104357" lon="-3.189654">
        <ele>352.86</ele>
        <time>2021-03-27T19:59:46Z</time>
      </trkpt>
      <trkpt lat="43.104726" lon="-3.189007">
        <ele>359.75</ele>
        <time>2021-03-27T19:59:47Z</time>
      </trkpt>
      <trkpt lat="43.104771" lon="-3.188893">
        <ele>359.38</ele>
        <time>2021-03-27T19:59:49Z</time>
      </trkpt>
      <trkpt lat="43.10485" lon="-3.188591">
        <ele>357.1</ele>
        <time>2021-03-27T19:59:51Z</time>
      </trkpt>
      <trkpt lat="43.104886" lon="-3.18838">
        <ele>355.42</ele>
        <time>2021-03-27T19:59:52Z</time>
      </trkpt>
      <trkpt lat="43.104882" lon="-3.188086">
        <ele>352.2</ele>
        <time>2021-03-27T19:59:54Z</time>
      </trkpt>
      <trkpt lat="43.104837" lon="-3.187688">
        <ele>352.16</ele>
        <time>2021-03-27T19:59:56Z</time>
      </trkpt>
      <trkpt lat="43.104816" lon="-3.187597">
        <ele>352.98</ele>
        <time>2021-03-27T19:59:58Z</time>
      </trkpt>
      <trkpt lat="43.10474" lon="-3.18748">
        <ele>352.08</ele>
        <time>2021-03-27T19:59:59Z</time>
      </trkpt>
      <trkpt lat="43.104086" lon="-3.186934">
        <ele>337.18</ele>
        <time>2021-03-27T20:00:01Z</time>
      </trkpt>
      <trkpt lat="43.103997" lon="-3.186775">
        <ele>334.11</ele>
        <time>2021-03-27T20:00:03Z</time>
      </trkpt>
      <trkpt lat="43.103973" lon="-3.186537">
        <ele>330.9</ele>
        <time>2021-03-27T20:00:04Z</time>
      </trkpt>
      <trkpt lat="43.104021" lon="-3.186333">
        <ele>329.57</ele>
        <time>2021-03-27T20:00:06Z</time>
      </trkpt>
      <trkpt lat="43.104357" lon="-3.185795">
        <ele>332.81</ele>
        <time>2021-03-27T20:00:08Z</time>
      </trkpt>
      <trkpt lat="43.10445" lon="-3.185578">
        <ele>331.84</ele>
        <time>2021-03-27T20:00:09Z</time>
      </trkpt>
      <trkpt lat="43.104508" lon="-3.18538">
        <ele>331.65</ele>
        <time>2021-03-27T20:00:11Z</time>
      </trkpt>
      <trkpt lat="43.104539" lon="-3.185139">
        <ele>329.47</ele>
        <time>2021-03-27T20:00:13Z</time>
      </trkpt>
      <trkpt lat="43.104551" lon="-3.184784">
        <ele>326.13</ele>
        <time>2021-03-27T20:00:15Z</time>
      </trkpt>
      <trkpt lat="43.10449" lon="-3.184339">
        <ele>322.85</ele>
        <time>2021-03-27T20:00:16Z</time>
      </trkpt>
      <trkpt lat="43.104462" lon="-3.184025">
        <ele>321.76</ele>
        <time>2021-03-27T20:00:18Z</time>
      </trkpt>
      <trkpt lat="43.10448" lon="-3.182868">
        <ele>317.89</ele>
        <time>2021-03-27T20:00:20Z</time>
      </trkpt>
      <trkpt lat="43.104526" lon="-3.182572">
        <ele>316.94</ele>
        <time>2021-03-27T20:00:21Z</time>
      </trkpt>
      <trkpt lat="43.104668" lon="-3.182102">
        <ele>315.26</ele>
        <time>2021-03-27T20:00:23Z</time>
      </trkpt>
      <trkpt lat="43.106373" lon="-3.178084">
        <ele>295.08</ele>
        <time>2021-03-27T20:00:25Z</time>
      </trkpt>
      <trkpt lat="43.106705" lon="-3.177258">
        <ele>290.96</ele>
        <time>2021-03-27T20:00:26Z</time>
      </trkpt>
      <trkpt lat="43.106837" lon="-3.177052">
        <ele>290.1</ele>
        <time>2021-03-27T20:00:28Z</time>
      </trkpt>
      <trkpt lat="43.107028" lon="-3.176894">
        <ele>289.11</ele>
        <time>2021-03-27T20:00:30Z</time>
      </trkpt>
      <trkpt lat="43.107168" lon="-3.176811">
        <ele>289.11</ele>
        <time>2021-03-27T20:00:32Z</time>
      </trkpt>
      <trkpt lat="43.107718" lon="-3.176669">
        <ele>289.58</ele>
        <time>2021-03-27T20:00:33Z</time>
      </trkpt>
      <trkpt lat="43.107801" lon="-3.176602">
        <ele>290.68</ele>
        <time>2021-03-27T20:00:35Z</time>
      </trkpt>
      <trkpt lat="43.107831" lon="-3.176549">
        <ele>291.53</ele>
        <time>2021-03-27T20:00:37Z</time>
      </trkpt>
      <trkpt lat="43.108174" lon="-3.175253">
        <ele>292.13</ele>
        <time>2021-03-27T20:00:38Z</time>
      </trkpt>
      <trkpt lat="43.108709" lon="-3.173062">
        <ele>288.03</ele>
        <time>2021-03-27T20:00:40Z</time>
      </trkpt>
      <trkpt lat="43.108709" lon="-3.173062">
        <ele>288.03</ele>
        <time>2021-03-27T12:39:47Z</time>
      </trkpt>
      <trkpt lat="43.108762" lon="-3.172846">
        <ele>283.93</ele>
        <time>2021-03-27T12:39:48Z</time>
      </trkpt>
      <trkpt lat="43.108845" lon="-3.172704">
        <ele>283.65</ele>
        <time>2021-03-27T12:39:50Z</time>
      </trkpt>
      <trkpt lat="43.108913" lon="-3.172641">
        <ele>284.14</ele>
        <time>2021-03-27T12:39:51Z</time>
      </trkpt>
      <trkpt lat="43.10922" lon="-3.17245">
        <ele>290.15</ele>
        <time>2021-03-27T12:39:53Z</time>
      </trkpt>
      <trkpt lat="43.109273" lon="-3.172398">
        <ele>291.21</ele>
        <time>2021-03-27T12:39:54Z</time>
      </trkpt>
      <trkpt lat="43.10934" lon="-3.17228">
        <ele>291.74</ele>
        <time>2021-03-27T12:39:55Z</time>
      </trkpt>
      <trkpt lat="43.109364" lon="-3.172139">
        <ele>290.19</ele>
        <time>2021-03-27T12:39:57Z</time>
      </trkpt>
      <trkpt lat="43.109293" lon="-3.171783">
        <ele>280.85</ele>
        <time>2021-03-27T12:39:58Z</time>
      </trkpt>
      <trkpt lat="43.109304" lon="-3.171659">
        <ele>278.33</ele>
        <time>2021-03-27T12:39:59Z</time>
      </trkpt>
      <trkpt lat="43.109327" lon="-3.171611">
        <ele>278.34</ele>
        <time>2021-03-27T12:40:01Z</time>
      </trkpt>
      <trkpt lat="43.109405" lon="-3.171545">
        <ele>279.35</ele>
        <time>2021-03-27T12:40:02Z</time>
      </trkpt>
      <trkpt lat="43.109604" lon="-3.171502">
        <ele>286.01</ele>
        <time>2021-03-27T12:40:04Z</time>
      </trkpt>
      <trkpt lat="43.109744" lon="-3.171401">
        <ele>289.35</ele>
        <time>2021-03-27T12:40:05Z</time>
      </trkpt>
      <trkpt lat="43.109871" lon="-3.171201">
        <ele>290.63</ele>
        <time>2021-03-27T12:40:06Z</time>
      </trkpt>
      <trkpt lat="43.109912" lon="-3.171106">
        <ele>290.44</ele>
        <time>2021-03-27T12:40:08Z</time>
      </trkpt>
      <trkpt lat="43.109956" lon="-3.170909">
        <ele>288.66</ele>
        <time>2021-03-27T12:40:09Z</time>
      </trkpt>
      <trkpt lat="43.10994" lon="-3.170711">
        <ele>285.29</ele>
        <time>2021-03-27T12:40:10Z</time>
      </trkpt>
      <trkpt lat="43.109746" lon="-3.169872">
        <ele>273.08</ele>
        <time>2021-03-27T12:40:12Z</time>
      </trkpt>
      <trkpt lat="43.109753" lon="-3.169704">
        <ele>271.27</ele>
        <time>2021-03-27T12:40:13Z</time>
      </trkpt>
      <trkpt lat="43.109773" lon="-3.169645">
        <ele>271.8</ele>
        <time>2021-03-27T12:40:15Z</time>
      </trkpt>
      <trkpt lat="43.109834" lon="-3.169564">
        <ele>273.0</ele>
        <time>2021-03-27T12:40:16Z</time>
      </trkpt>
      <trkpt lat="43.110116" lon="-3.169321">
        <ele>280.25</ele>
        <time>2021-03-27T12:40:17Z</time>
      </trkpt>
      <trkpt lat="43.110188" lon="-3.169237">
        <ele>282.22</ele>
        <time>2021-03-27T12:40:19Z</time>
      </trkpt>
      <trkpt lat="43.110348" lon="-3.168966">
        <ele>282.95</ele>
        <time>2021-03-27T12:40:20Z</time>
      </trkpt>
      <trkpt lat="43.11042" lon="-3.168766">
        <ele>282.02</ele>
        <time>2021-03-27T12:40:21Z</time>
      </trkpt>
      <trkpt lat="43.110437" lon="-3.168544">
        <ele>279.4</ele>
        <time>2021-03-27T12:40:23Z</time>
      </trkpt>
      <trkpt lat="43.110282" lon="-3.167931">
        <ele>273.6</ele>
        <time>2021-03-27T12:40:24Z</time>
      </trkpt>
      <trkpt lat="43.110261" lon="-3.167778">
        <ele>273.88</ele>
        <time>2021-03-27T12:40:26Z</time>
      </trkpt>
      <trkpt lat="43.110261" lon="-3.167578">
        <ele>272.35</ele>
        <time>2021-03-27T12:40:27Z</time>
      </trkpt>
      <trkpt lat="43.110349" lon="-3.166992">
        <ele>271.08</ele>
        <time>2021-03-27T12:40:28Z</time>
      </trkpt>
      <trkpt lat="43.110423" lon="-3.166704">
        <ele>268.52</ele>
        <time>2021-03-27T12:40:30Z</time>
      </trkpt>
      <trkpt lat="43.110644" lon="-3.166012">
        <ele>263.98</ele>
        <time>2021-03-27T12:40:31Z</time>
      </trkpt>
      <trkpt lat="43.110722" lon="-3.165901">
        <ele>262.6</ele>
        <time>2021-03-27T12:40:32Z</time>
      </trkpt>
      <trkpt lat="43.111017" lon="-3.165661">
        <ele>263.03</ele>
        <time>2021-03-27T12:40:34Z</time>
      </trkpt>
      <trkpt lat="43.111162" lon="-3.165456">
        <ele>262.26</ele>
        <time>2021-03-27T12:40:35Z</time>
      </trkpt>
      <trkpt lat="43.111248" lon="-3.16522">
        <ele>259.48</ele>
        <time>2021-03-27T12:40:36Z</time>
      </trkpt>
      <trkpt lat="43.111367" lon="-3.164722">
        <ele>251.84</ele>
        <time>2021-03-27T12:40:38Z</time>
      </trkpt>
      <trkpt lat="43.111551" lon="-3.164247">
        <ele>255.09</ele>
        <time>2021-03-27T12:40:39Z</time>
      </trkpt>
      <trkpt lat="43.11163" lon="-3.163887">
        <ele>253.3</ele>
        <time>2021-03-27T12:40:41Z</time>
      </trkpt>
      <trkpt lat="43.111702" lon="-3.163721">
        <ele>251.15</ele>
        <time>2021-03-27T12:40:42Z</time>
      </trkpt>
      <trkpt lat="43.111835" lon="-3.163489">
        <ele>248.48</ele>
        <time>2021-03-27T12:40:43Z</time>
      </trkpt>
      <trkpt lat="43.111905" lon="-3.163267">
        <ele>245.12</ele>
        <time>2021-03-27T12:40:45Z</time>
      </trkpt>
      <trkpt lat="43.111985" lon="-3.162858">
        <ele>246.44</ele>
        <time>2021-03-27T12:40:46Z</time>
      </trkpt>
      <trkpt lat="43.112002" lon="-3.162588">
        <ele>247.81</ele>
        <time>2021-03-27T12:40:47Z</time>
      </trkpt>
      <trkpt lat="43.111976" lon="-3.162395">
        <ele>248.4</ele>
        <time>2021-03-27T12:40:49Z</time>
      </trkpt>
      <trkpt lat="43.111938" lon="-3.162289">
        <ele>248.37</ele>
        <time>2021-03-27T12:40:50Z</time>
      </trkpt>
      <trkpt lat="43.111675" lon="-3.161895">
        <ele>241.08</ele>
        <time>2021-03-27T12:40:52Z</time>
      </trkpt>
      <trkpt lat="43.111455" lon="-3.161425">
        <ele>239.75</ele>
        <time>2021-03-27T12:40:53Z</time>
      </trkpt>
      <trkpt lat="43.110999" lon="-3.160536">
        <ele>235.42</ele>
        <time>2021-03-27T12:40:54Z</time>
      </trkpt>
      <trkpt lat="43.110928" lon="-3.160346">
        <ele>233.88</ele>
        <time>2021-03-27T12:40:56Z</time>
      </trkpt>
      <trkpt lat="43.110674" lon="-3.159493">
        <ele>230.13</ele>
        <time>2021-03-27T12:40:57Z</time>
      </trkpt>
      <trkpt lat="43.110643" lon="-3.159333">
        <ele>229.45</ele>
        <time>2021-03-27T12:40:58Z</time>
      </trkpt>
      <trkpt lat="43.110658" lon="-3.159163">
        <ele>229.46</ele>
        <time>2021-03-27T12:41:00Z</time>
      </trkpt>
      <trkpt lat="43.110743" lon="-3.158989">
        <ele>229.63</ele>
        <time>2021-03-27T12:41:01Z</time>
      </trkpt>
      <trkpt lat="43.110953" lon="-3.158685">
        <ele>228.24</ele>
        <time>2021-03-27T12:41:03Z</time>
      </trkpt>
      <trkpt lat="43.111008" lon="-3.158477">
        <ele>225.16</ele>
        <time>2021-03-27T12:41:04Z</time>
      </trkpt>
      <trkpt lat="43.111035" lon="-3.157844">
        <ele>225.24</ele>
        <time>2021-03-27T12:41:05Z</time>
      </trkpt>
      <trkpt lat="43.111078" lon="-3.157651">
        <ele>227.06</ele>
        <time>2021-03-27T12:41:07Z</time>
      </trkpt>
      <trkpt lat="43.111796" lon="-3.15608">
        <ele>217.64</ele>
        <time>2021-03-27T12:41:08Z</time>
      </trkpt>
      <trkpt lat="43.111886" lon="-3.155862">
        <ele>218.1</ele>
        <time>2021-03-27T12:41:09Z</time>
      </trkpt>
      <trkpt lat="43.111967" lon="-3.155568">
        <ele>217.92</ele>
        <time>2021-03-27T12:41:11Z</time>
      </trkpt>
      <trkpt lat="43.111897" lon="-3.155604">
        <ele>218.31</ele>
        <time>2021-03-27T12:41:13Z</time>
      </trkpt>
      <trkpt lat="43.111797" lon="-3.155616">
        <ele>218.94</ele>
        <time>2021-03-27T12:41:15Z</time>
      </trkpt>
      <trkpt lat="43.111499" lon="-3.155568">
        <ele>220.56</ele>
        <time>2021-03-27T12:41:17Z</time>
      </trkpt>
      <trkpt lat="43.111439" lon="-3.155605">
        <ele>220.64</ele>
        <time>2021-03-27T12:41:19Z</time>
      </trkpt>
      <trkpt lat="43.111393" lon="-3.155672">
        <ele>220.56</ele>
        <time>2021-03-27T12:41:21Z</time>
      </trkpt>
      <trkpt lat="43.111339" lon="-3.15587">
        <ele>220.61</ele>
        <time>2021-03-27T12:41:23Z</time>
      </trkpt>
      <trkpt lat="43.111256" lon="-3.156349">
        <ele>223.31</ele>
        <time>2021-03-27T12:41:25Z</time>
      </trkpt>
      <trkpt lat="43.110993" lon="-3.157089">
        <ele>234.49</ele>
        <time>2021-03-27T12:41:27Z</time>
      </trkpt>
      <trkpt lat="43.110879" lon="-3.157369">
        <ele>236.73</ele>
        <time>2021-03-27T12:41:29Z</time>
      </trkpt>
      <trkpt lat="43.110652" lon="-3.157691">
        <ele>236.37</ele>
        <time>2021-03-27T12:41:31Z</time>
      </trkpt>
      <trkpt lat="43.110473" lon="-3.157866">
        <ele>236.97</ele>
        <time>2021-03-27T12:41:33Z</time>
      </trkpt>
      <trkpt lat="43.110174" lon="-3.158045">
        <ele>242.23</ele>
        <time>2021-03-27T12:41:35Z</time>
      </trkpt>
      <trkpt lat="43.109869" lon="-3.158446">
        <ele>251.38</ele>
        <time>2021-03-27T12:41:37Z</time>
      </trkpt>
      <trkpt lat="43.109804" lon="-3.158564">
        <ele>254.26</ele>
        <time>2021-03-27T12:41:39Z</time>
      </trkpt>
      <trkpt lat="43.10976" lon="-3.158687">
        <ele>254.73</ele>
        <time>2021-03-27T12:41:41Z</time>
      </trkpt>
      <trkpt lat="43.109595" lon="-3.159337">
        <ele>248.63</ele>
        <time>2021-03-27T12:41:43Z</time>
      </trkpt>
      <trkpt lat="43.109541" lon="-3.159483">
        <ele>249.32</ele>
        <time>2021-03-27T12:41:45Z</time>
      </trkpt>
      <trkpt lat="43.109151" lon="-3.160327">
        <ele>253.74</ele>
        <time>2021-03-27T12:41:47Z</time>
      </trkpt>
      <trkpt lat="43.109046" lon="-3.160395">
        <ele>255.6</ele>
        <time>2021-03-27T12:41:49Z</time>
      </trkpt>
      <trkpt lat="43.108952" lon="-3.160399">
        <ele>258.1</ele>
        <time>2021-03-27T12:41:51Z</time>
      </trkpt>
      <trkpt lat="43.108564" lon="-3.160344">
        <ele>271.18</ele>
        <time>2021-03-27T12:41:53Z</time>
      </trkpt>
      <trkpt lat="43.108409" lon="-3.160349">
        <ele>274.25</ele>
        <time>2021-03-27T12:41:55Z</time>
      </trkpt>
      <trkpt lat="43.108236" lon="-3.16039">
        <ele>275.61</ele>
        <time>2021-03-27T12:41:57Z</time>
      </trkpt>
      <trkpt lat="43.108053" lon="-3.160506">
        <ele>272.9</ele>
        <time>2021-03-27T12:41:59Z</time>
      </trkpt>
      <trkpt lat="43.10778" lon="-3.160769">
        <ele>265.51</ele>
        <time>2021-03-27T12:42:01Z</time>
      </trkpt>
      <trkpt lat="43.10769" lon="-3.160801">
        <ele>265.23</ele>
        <time>2021-03-27T12:42:03Z</time>
      </trkpt>
      <trkpt lat="43.107576" lon="-3.160779">
        <ele>267.46</ele>
        <time>2021-03-27T12:42:05Z</time>
      </trkpt>
      <trkpt lat="43.107173" lon="-3.160617">
        <ele>278.39</ele>
        <time>2021-03-27T12:42:07Z</time>
      </trkpt>
      <trkpt lat="43.107076" lon="-3.160604">
        <ele>279.0</ele>
        <time>2021-03-27T12:42:09Z</time>
      </trkpt>
      <trkpt lat="43.106937" lon="-3.160617">
        <ele>278.79</ele>
        <time>2021-03-27T12:42:11Z</time>
      </trkpt>
      <trkpt lat="43.106795" lon="-3.160712">
        <ele>279.7</ele>
        <time>2021-03-27T12:42:13Z</time>
      </trkpt>
      <trkpt lat="43.106619" lon="-3.160903">
        <ele>279.38</ele>
        <time>2021-03-27T12:42:15Z</time>
      </trkpt>
      <trkpt lat="43.106539" lon="-3.161019">
        <ele>278.32</ele>
        <time>2021-03-27T12:42:17Z</time>
      </trkpt>
      <trkpt lat="43.1063" lon="-3.161476">
        <ele>272.96</ele>
        <time>2021-03-27T12:42:19Z</time>
      </trkpt>
      <trkpt lat="43.106245" lon="-3.161534">
        <ele>272.16</ele>
        <time>2021-03-27T12:42:21Z</time>
      </trkpt>
      <trkpt lat="43.106125" lon="-3.16157">
        <ele>271.43</ele>
        <time>2021-03-27T12:42:22Z</time>
      </trkpt>
      <trkpt lat="43.106024" lon="-3.161525">
        <ele>272.03</ele>
        <time>2021-03-27T12:42:24Z</time>
      </trkpt>
      <trkpt lat="43.105962" lon="-3.161453">
        <ele>272.79</ele>
        <time>2021-03-27T12:42:26Z</time>
      </trkpt>
      <trkpt lat="43.105693" lon="-3.160965">
        <ele>281.68</ele>
        <time>2021-03-27T12:42:28Z</time>
      </trkpt>
      <trkpt lat="43.105579" lon="-3.160829">
        <ele>283.5</ele>
        <time>2021-03-27T12:42:30Z</time>
      </trkpt>
      <trkpt lat="43.105501" lon="-3.160774">
        <ele>284.66</ele>
        <time>2021-03-27T12:42:32Z</time>
      </trkpt>
      <trkpt lat="43.105314" lon="-3.160738">
        <ele>284.1</ele>
        <time>2021-03-27T12:42:34Z</time>
      </trkpt>
      <trkpt lat="43.105087" lon="-3.160783">
        <ele>284.7</ele>
        <time>2021-03-27T12:42:36Z</time>
      </trkpt>
      <trkpt lat="43.104908" lon="-3.16078">
        <ele>285.57</ele>
        <time>2021-03-27T12:42:38Z</time>
      </trkpt>
      <trkpt lat="43.103957" lon="-3.160668">
        <ele>285.55</ele>
        <time>2021-03-27T12:42:40Z</time>
      </trkpt>
      <trkpt lat="43.103795" lon="-3.160606">
        <ele>285.66</ele>
        <time>2021-03-27T12:42:42Z</time>
      </trkpt>
      <trkpt lat="43.103709" lon="-3.160501">
        <ele>286.15</ele>
        <time>2021-03-27T12:42:44Z</time>
      </trkpt>
      <trkpt lat="43.103673" lon="-3.160415">
        <ele>287.08</ele>
        <time>2021-03-27T12:42:46Z</time>
      </trkpt>
      <trkpt lat="43.103544" lon="-3.15998">
        <ele>293.08</ele>
        <time>2021-03-27T12:42:48Z</time>
      </trkpt>
      <trkpt lat="43.103499" lon="-3.159911">
        <ele>293.87</ele>
        <time>2021-03-27T12:42:50Z</time>
      </trkpt>
      <trkpt lat="43.103422" lon="-3.15984">
        <ele>293.75</ele>
        <time>2021-03-27T12:42:52Z</time>
      </trkpt>
      <trkpt lat="43.103276" lon="-3.159796">
        <ele>292.57</ele>
        <time>2021-03-27T12:42:54Z</time>
      </trkpt>
      <trkpt lat="43.103016" lon="-3.159752">
        <ele>293.83</ele>
        <time>2021-03-27T12:42:56Z</time>
      </trkpt>
      <trkpt lat="43.102812" lon="-3.159778">
        <ele>294.45</ele>
        <time>2021-03-27T12:42:58Z</time>
      </trkpt>
      <trkpt lat="43.102519" lon="-3.159912">
        <ele>296.08</ele>
        <time>2021-03-27T12:43:00Z</time>
      </trkpt>
      <trkpt lat="43.102217" lon="-3.160146">
        <ele>295.91</ele>
        <time>2021-03-27T12:43:02Z</time>
      </trkpt>
      <trkpt lat="43.101835" lon="-3.160338">
        <ele>294.52</ele>
        <time>2021-03-27T12:43:04Z</time>
      </trkpt>
      <trkpt lat="43.101675" lon="-3.160395">
        <ele>294.98</ele>
        <time>2021-03-27T12:43:06Z</time>
      </trkpt>
      <trkpt lat="43.101184" lon="-3.160508">
        <ele>295.34</ele>
        <time>2021-03-27T12:43:08Z</time>
      </trkpt>
      <trkpt lat="43.100994" lon="-3.160518">
        <ele>294.96</ele>
        <time>2021-03-27T12:43:10Z</time>
      </trkpt>
      <trkpt lat="43.100907" lon="-3.160503">
        <ele>294.92</ele>
        <time>2021-03-27T12:43:12Z</time>
      </trkpt>
      <trkpt lat="43.100748" lon="-3.160424">
        <ele>295.28</ele>
        <time>2021-03-27T12:43:14Z</time>
      </trkpt>
      <trkpt lat="43.10057" lon="-3.160281">
        <ele>296.05</ele>
        <time>2021-03-27T12:43:16Z</time>
      </trkpt>
      <trkpt lat="43.100418" lon="-3.160208">
        <ele>297.5</ele>
        <time>2021-03-27T12:43:18Z</time>
      </trkpt>
      <trkpt lat="43.100354" lon="-3.160197">
        <ele>297.88</ele>
        <time>2021-03-27T12:43:20Z</time>
      </trkpt>
      <trkpt lat="43.100146" lon="-3.160201">
        <ele>299.82</ele>
        <time>2021-03-27T12:43:22Z</time>
      </trkpt>
      <trkpt lat="43.099597" lon="-3.160274">
        <ele>301.14</ele>
        <time>2021-03-27T12:43:24Z</time>
      </trkpt>
      <trkpt lat="43.099441" lon="-3.160255">
        <ele>300.23</ele>
        <time>2021-03-27T12:43:26Z</time>
      </trkpt>
      <trkpt lat="43.099296" lon="-3.160187">
        <ele>300.09</ele>
        <time>2021-03-27T12:43:28Z</time>
      </trkpt>
      <trkpt lat="43.099099" lon="-3.159983">
        <ele>300.16</ele>
        <time>2021-03-27T12:43:30Z</time>
      </trkpt>
      <trkpt lat="43.098438" lon="-3.159148">
        <ele>302.27</ele>
        <time>2021-03-27T12:43:32Z</time>
      </trkpt>
      <trkpt lat="43.098365" lon="-3.158997">
        <ele>302.57</ele>
        <time>2021-03-27T12:43:34Z</time>
      </trkpt>
      <trkpt lat="43.098265" lon="-3.158581">
        <ele>303.83</ele>
        <time>2021-03-27T12:43:36Z</time>
      </trkpt>
      <trkpt lat="43.098231" lon="-3.158491">
        <ele>304.56</ele>
        <time>2021-03-27T12:43:38Z</time>
      </trkpt>
      <trkpt lat="43.098148" lon="-3.158357">
        <ele>305.41</ele>
        <time>2021-03-27T12:43:40Z</time>
      </trkpt>
      <trkpt lat="43.098086" lon="-3.158304">
        <ele>305.84</ele>
        <time>2021-03-27T12:43:42Z</time>
      </trkpt>
      <trkpt lat="43.097717" lon="-3.158112">
        <ele>307.93</ele>
        <time>2021-03-27T12:43:44Z</time>
      </trkpt>
      <trkpt lat="43.097488" lon="-3.157967">
        <ele>307.14</ele>
        <time>2021-03-27T12:43:46Z</time>
      </trkpt>
      <trkpt lat="43.097287" lon="-3.157912">
        <ele>307.47</ele>
        <time>2021-03-27T12:43:48Z</time>
      </trkpt>
      <trkpt lat="43.097184" lon="-3.157921">
        <ele>307.22</ele>
        <time>2021-03-27T12:43:50Z</time>
      </trkpt>
      <trkpt lat="43.096588" lon="-3.15807">
        <ele>308.76</ele>
        <time>2021-03-27T12:43:52Z</time>
      </trkpt>
      <trkpt lat="43.096161" lon="-3.158131">
        <ele>307.91</ele>
        <time>2021-03-27T12:43:54Z</time>
      </trkpt>
      <trkpt lat="43.095845" lon="-3.158101">
        <ele>311.21</ele>
        <time>2021-03-27T12:43:56Z</time>
      </trkpt>
      <trkpt lat="43.095564" lon="-3.158122">
        <ele>314.92</ele>
        <time>2021-03-27T12:43:58Z</time>
      </trkpt>
      <trkpt lat="43.095224" lon="-3.158188">
        <ele>318.59</ele>
        <time>2021-03-27T12:44:00Z</time>
      </trkpt>
      <trkpt lat="43.094983" lon="-3.158267">
        <ele>319.44</ele>
        <time>2021-03-27T12:44:02Z</time>
      </trkpt>
      <trkpt lat="43.094475" lon="-3.158573">
        <ele>319.6</ele>
        <time>2021-03-27T12:44:04Z</time>
      </trkpt>
      <trkpt lat="43.094037" lon="-3.158728">
        <ele>325.79</ele>
        <time>2021-03-27T12:44:06Z</time>
      </trkpt>
      <trkpt lat="43.09376" lon="-3.158866">
        <ele>325.67</ele>
        <time>2021-03-27T12:44:08Z</time>
      </trkpt>
      <trkpt lat="43.092627" lon="-3.159471">
        <ele>323.78</ele>
        <time>2021-03-27T12:44:10Z</time>
      </trkpt>
      <trkpt lat="43.090861" lon="-3.160682">
        <ele>330.05</ele>
        <time>2021-03-27T12:44:12Z</time>
      </trkpt>
      <trkpt lat="43.090406" lon="-3.160828">
        <ele>331.1</ele>
        <time>2021-03-27T12:44:14Z</time>
      </trkpt>
      <trkpt lat="43.09021" lon="-3.160946">
        <ele>329.86</ele>
        <time>2021-03-27T12:44:16Z</time>
      </trkpt>
      <trkpt lat="43.089893" lon="-3.161064">
        <ele>332.19</ele>
        <time>2021-03-27T12:44:18Z</time>
      </trkpt>
      <trkpt lat="43.089584" lon="-3.161387">
        <ele>331.55</ele>
        <time>2021-03-27T12:44:20Z</time>
      </trkpt>
      <trkpt lat="43.089247" lon="-3.161671">
        <ele>333.61</ele>
        <time>2021-03-27T12:44:22Z</time>
      </trkpt>
      <trkpt lat="43.089167" lon="-3.161732">
        <ele>334.83</ele>
        <time>2021-03-27T12:44:24Z</time>
      </trkpt>
      <trkpt lat="43.088897" lon="-3.161853">
        <ele>340.07</ele>
        <time>2021-03-27T12:44:26Z</time>
      </trkpt>
      <trkpt lat="43.088726" lon="-3.162106">
        <ele>337.77</ele>
        <time>2021-03-27T12:44:28Z</time>
      </trkpt>
      <trkpt lat="43.088592" lon="-3.162237">
        <ele>338.16</ele>
        <time>2021-03-27T12:44:30Z</time>
      </trkpt>
      <trkpt lat="43.088491" lon="-3.162303">
        <ele>339.02</ele>
        <time>2021-03-27T12:44:32Z</time>
      </trkpt>
      <trkpt lat="43.088341" lon="-3.162363">
        <ele>340.39</ele>
        <time>2021-03-27T12:44:34Z</time>
      </trkpt>
      <trkpt lat="43.088026" lon="-3.162352">
        <ele>347.19</ele>
        <time>2021-03-27T12:44:36Z</time>
      </trkpt>
      <trkpt lat="43.087965" lon="-3.162381">
        <ele>348.65</ele>
        <time>2021-03-27T12:44:38Z</time>
      </trkpt>
      <trkpt lat="43.087861" lon="-3.162504">
        <ele>349.25</ele>
        <time>2021-03-27T12:44:40Z</time>
      </trkpt>
      <trkpt lat="43.087749" lon="-3.16275">
        <ele>349.24</ele>
        <time>2021-03-27T12:44:42Z</time>
      </trkpt>
      <trkpt lat="43.087581" lon="-3.162913">
        <ele>350.05</ele>
        <time>2021-03-27T12:44:44Z</time>
      </trkpt>
      <trkpt lat="43.087369" lon="-3.163019">
        <ele>351.42</ele>
        <time>2021-03-27T12:44:46Z</time>
      </trkpt>
      <trkpt lat="43.086934" lon="-3.163149">
        <ele>357.63</ele>
        <time>2021-03-27T12:44:48Z</time>
      </trkpt>
      <trkpt lat="43.086532" lon="-3.163426">
        <ele>362.93</ele>
        <time>2021-03-27T12:44:50Z</time>
      </trkpt>
      <trkpt lat="43.086129" lon="-3.163779">
        <ele>362.24</ele>
        <time>2021-03-27T12:44:52Z</time>
      </trkpt>
      <trkpt lat="43.085863" lon="-3.163907">
        <ele>366.08</ele>
        <time>2021-03-27T12:44:54Z</time>
      </trkpt>
      <trkpt lat="43.085697" lon="-3.163938">
        <ele>368.65</ele>
        <time>2021-03-27T12:44:56Z</time>
      </trkpt>
      <trkpt lat="43.085176" lon="-3.16379">
        <ele>372.58</ele>
        <time>2021-03-27T12:44:58Z</time>
      </trkpt>
      <trkpt lat="43.085024" lon="-3.163837">
        <ele>372.2</ele>
        <time>2021-03-27T12:45:00Z</time>
      </trkpt>
      <trkpt lat="43.084917" lon="-3.163946">
        <ele>373.17</ele>
        <time>2021-03-27T12:45:02Z</time>
      </trkpt>
      <trkpt lat="43.084746" lon="-3.164309">
        <ele>372.76</ele>
        <time>2021-03-27T12:45:04Z</time>
      </trkpt>
      <trkpt lat="43.084626" lon="-3.164424">
        <ele>373.88</ele>
        <time>2021-03-27T12:45:06Z</time>
      </trkpt>
      <trkpt lat="43.0843" lon="-3.164563">
        <ele>378.4</ele>
        <time>2021-03-27T12:45:08Z</time>
      </trkpt>
      <trkpt lat="43.083353" lon="-3.164912">
        <ele>388.2</ele>
        <time>2021-03-27T12:45:10Z</time>
      </trkpt>
      <trkpt lat="43.082926" lon="-3.164973">
        <ele>390.6</ele>
        <time>2021-03-27T12:45:12Z</time>
      </trkpt>
      <trkpt lat="43.082834" lon="-3.165004">
        <ele>390.55</ele>
        <time>2021-03-27T12:45:14Z</time>
      </trkpt>
      <trkpt lat="43.082405" lon="-3.165207">
        <ele>397.16</ele>
        <time>2021-03-27T12:45:16Z</time>
      </trkpt>
      <trkpt lat="43.082279" lon="-3.165296">
        <ele>399.95</ele>
        <time>2021-03-27T12:45:18Z</time>
      </trkpt>
      <trkpt lat="43.08204" lon="-3.165563">
        <ele>402.71</ele>
        <time>2021-03-27T12:45:20Z</time>
      </trkpt>
      <trkpt lat="43.081957" lon="-3.165626">
        <ele>402.7</ele>
        <time>2021-03-27T12:45:22Z</time>
      </trkpt>
      <trkpt lat="43.081862" lon="-3.165694">
        <ele>403.53</ele>
        <time>2021-03-27T12:45:24Z</time>
      </trkpt>
      <trkpt lat="43.081487" lon="-3.165891">
        <ele>407.08</ele>
        <time>2021-03-27T12:45:26Z</time>
      </trkpt>
      <trkpt lat="43.080556" lon="-3.166185">
        <ele>415.8</ele>
        <time>2021-03-27T12:45:28Z</time>
      </trkpt>
      <trkpt lat="43.080294" lon="-3.166215">
        <ele>415.22</ele>
        <time>2021-03-27T12:45:30Z</time>
      </trkpt>
      <trkpt lat="43.080132" lon="-3.166169">
        <ele>414.92</ele>
        <time>2021-03-27T12:45:32Z</time>
      </trkpt>
      <trkpt lat="43.079933" lon="-3.166031">
        <ele>417.35</ele>
        <time>2021-03-27T12:45:34Z</time>
      </trkpt>
      <trkpt lat="43.079371" lon="-3.165454">
        <ele>427.69</ele>
        <time>2021-03-27T12:45:36Z</time>
      </trkpt>
      <trkpt lat="43.079132" lon="-3.165255">
        <ele>429.64</ele>
        <time>2021-03-27T12:45:38Z</time>
      </trkpt>
      <trkpt lat="43.078897" lon="-3.165096">
        <ele>433.61</ele>
        <time>2021-03-27T12:45:40Z</time>
      </trkpt>
      <trkpt lat="43.078734" lon="-3.165041">
        <ele>438.32</ele>
        <time>2021-03-27T12:45:42Z</time>
      </trkpt>
      <trkpt lat="43.078577" lon="-3.165049">
        <ele>441.25</ele>
        <time>2021-03-27T12:45:44Z</time>
      </trkpt>
      <trkpt lat="43.078249" lon="-3.165252">
        <ele>445.37</ele>
        <time>2021-03-27T12:45:46Z</time>
      </trkpt>
      <trkpt lat="43.078167" lon="-3.165353">
        <ele>446.12</ele>
        <time>2021-03-27T12:45:48Z</time>
      </trkpt>
      <trkpt lat="43.078144" lon="-3.165413">
        <ele>446.04</ele>
        <time>2021-03-27T12:45:50Z</time>
      </trkpt>
      <trkpt lat="43.078131" lon="-3.165622">
        <ele>443.66</ele>
        <time>2021-03-27T12:45:52Z</time>
      </trkpt>
      <trkpt lat="43.07819" lon="-3.165943">
        <ele>437.64</ele>
        <time>2021-03-27T12:45:54Z</time>
      </trkpt>
      <trkpt lat="43.078218" lon="-3.166295">
        <ele>434.75</ele>
        <time>2021-03-27T12:45:56Z</time>
      </trkpt>
      <trkpt lat="43.078208" lon="-3.16639">
        <ele>434.85</ele>
        <time>2021-03-27T12:45:58Z</time>
      </trkpt>
      <trkpt lat="43.07815" lon="-3.166525">
        <ele>436.13</ele>
        <time>2021-03-27T12:46:00Z</time>
      </trkpt>
      <trkpt lat="43.078096" lon="-3.166588">
        <ele>437.53</ele>
        <time>2021-03-27T12:46:02Z</time>
      </trkpt>
      <trkpt lat="43.077966" lon="-3.166657">
        <ele>440.11</ele>
        <time>2021-03-27T12:46:03Z</time>
      </trkpt>
      <trkpt lat="43.077595" lon="-3.166769">
        <ele>444.11</ele>
        <time>2021-03-27T12:46:05Z</time>
      </trkpt>
      <trkpt lat="43.077203" lon="-3.166861">
        <ele>449.2</ele>
        <time>2021-03-27T12:46:07Z</time>
      </trkpt>
      <trkpt lat="43.076861" lon="-3.166879">
        <ele>451.71</ele>
        <time>2021-03-27T12:46:09Z</time>
      </trkpt>
      <trkpt lat="43.076656" lon="-3.166851">
        <ele>454.03</ele>
        <time>2021-03-27T12:46:11Z</time>
      </trkpt>
      <trkpt lat="43.076437" lon="-3.166782">
        <ele>456.75</ele>
        <time>2021-03-27T12:46:13Z</time>
      </trkpt>
      <trkpt lat="43.076185" lon="-3.166654">
        <ele>459.28</ele>
        <time>2021-03-27T12:46:15Z</time>
      </trkpt>
      <trkpt lat="43.076109" lon="-3.166644">
        <ele>458.89</ele>
        <time>2021-03-27T12:46:17Z</time>
      </trkpt>
      <trkpt lat="43.075996" lon="-3.166682">
        <ele>458.39</ele>
        <time>2021-03-27T12:46:19Z</time>
      </trkpt>
      <trkpt lat="43.075683" lon="-3.166849">
        <ele>456.66</ele>
        <time>2021-03-27T12:46:21Z</time>
      </trkpt>
      <trkpt lat="43.075489" lon="-3.166871">
        <ele>456.83</ele>
        <time>2021-03-27T12:46:23Z</time>
      </trkpt>
      <trkpt lat="43.075327" lon="-3.166848">
        <ele>457.0</ele>
        <time>2021-03-27T12:46:25Z</time>
      </trkpt>
      <trkpt lat="43.075083" lon="-3.166783">
        <ele>461.1</ele>
        <time>2021-03-27T12:46:27Z</time>
      </trkpt>
      <trkpt lat="43.074697" lon="-3.166577">
        <ele>470.2</ele>
        <time>2021-03-27T12:46:29Z</time>
      </trkpt>
      <trkpt lat="43.07401" lon="-3.166481">
        <ele>471.25</ele>
        <time>2021-03-27T12:46:31Z</time>
      </trkpt>
      <trkpt lat="43.073901" lon="-3.166437">
        <ele>471.86</ele>
        <time>2021-03-27T12:46:33Z</time>
      </trkpt>
      <trkpt lat="43.073708" lon="-3.166273">
        <ele>477.77</ele>
        <time>2021-03-27T12:46:35Z</time>
      </trkpt>
      <trkpt lat="43.073623" lon="-3.166228">
        <ele>479.57</ele>
        <time>2021-03-27T12:46:37Z</time>
      </trkpt>
      <trkpt lat="43.073483" lon="-3.166204">
        <ele>482.47</ele>
        <time>2021-03-27T12:46:39Z</time>
      </trkpt>
      <trkpt lat="43.073431" lon="-3.16623">
        <ele>482.73</ele>
        <time>2021-03-27T12:46:41Z</time>
      </trkpt>
      <trkpt lat="43.073229" lon="-3.166401">
        <ele>483.14</ele>
        <time>2021-03-27T12:46:43Z</time>
      </trkpt>
      <trkpt lat="43.072893" lon="-3.166598">
        <ele>490.42</ele>
        <time>2021-03-27T12:46:45Z</time>
      </trkpt>
      <trkpt lat="43.072842" lon="-3.166665">
        <ele>491.5</ele>
        <time>2021-03-27T12:46:47Z</time>
      </trkpt>
      <trkpt lat="43.07281" lon="-3.166739">
        <ele>492.93</ele>
        <time>2021-03-27T12:46:49Z</time>
      </trkpt>
      <trkpt lat="43.072797" lon="-3.166822">
        <ele>493.76</ele>
        <time>2021-03-27T12:46:51Z</time>
      </trkpt>
      <trkpt lat="43.072802" lon="-3.166916">
        <ele>493.87</ele>
        <time>2021-03-27T12:46:53Z</time>
      </trkpt>
      <trkpt lat="43.072976" lon="-3.167471">
        <ele>489.03</ele>
        <time>2021-03-27T12:46:55Z</time>
      </trkpt>
      <trkpt lat="43.073018" lon="-3.167674">
        <ele>488.38</ele>
        <time>2021-03-27T12:46:57Z</time>
      </trkpt>
      <trkpt lat="43.073018" lon="-3.167786">
        <ele>488.97</ele>
        <time>2021-03-27T12:46:59Z</time>
      </trkpt>
      <trkpt lat="43.072962" lon="-3.16809">
        <ele>494.89</ele>
        <time>2021-03-27T12:47:01Z</time>
      </trkpt>
      <trkpt lat="43.072969" lon="-3.1682">
        <ele>496.19</ele>
        <time>2021-03-27T12:47:03Z</time>
      </trkpt>
      <trkpt lat="43.073002" lon="-3.168302">
        <ele>495.83</ele>
        <time>2021-03-27T12:47:05Z</time>
      </trkpt>
      <trkpt lat="43.073138" lon="-3.168532">
        <ele>495.51</ele>
        <time>2021-03-27T12:47:07Z</time>
      </trkpt>
      <trkpt lat="43.073384" lon="-3.168796">
        <ele>490.64</ele>
        <time>2021-03-27T12:47:09Z</time>
      </trkpt>
      <trkpt lat="43.073547" lon="-3.169051">
        <ele>488.18</ele>
        <time>2021-03-27T12:47:11Z</time>
      </trkpt>
      <trkpt lat="43.073687" lon="-3.169358">
        <ele>485.87</ele>
        <time>2021-03-27T12:47:13Z</time>
      </trkpt>
      <trkpt lat="43.073706" lon="-3.169452">
        <ele>485.93</ele>
        <time>2021-03-27T12:47:15Z</time>
      </trkpt>
      <trkpt lat="43.073685" lon="-3.169591">
        <ele>485.87</ele>
        <time>2021-03-27T12:47:17Z</time>
      </trkpt>
      <trkpt lat="43.07363" lon="-3.169666">
        <ele>486.8</ele>
        <time>2021-03-27T12:47:19Z</time>
      </trkpt>
      <trkpt lat="43.073574" lon="-3.169704">
        <ele>487.51</ele>
        <time>2021-03-27T12:47:21Z</time>
      </trkpt>
      <trkpt lat="43.073462" lon="-3.169727">
        <ele>488.5</ele>
        <time>2021-03-27T12:47:23Z</time>
      </trkpt>
      <trkpt lat="43.072958" lon="-3.169748">
        <ele>495.6</ele>
        <time>2021-03-27T12:47:25Z</time>
      </trkpt>
      <trkpt lat="43.072455" lon="-3.169718">
        <ele>504.46</ele>
        <time>2021-03-27T12:47:27Z</time>
      </trkpt>
      <trkpt lat="43.071863" lon="-3.169719">
        <ele>506.86</ele>
        <time>2021-03-27T12:47:29Z</time>
      </trkpt>
      <trkpt lat="43.071786" lon="-3.169735">
        <ele>508.11</ele>
        <time>2021-03-27T12:47:31Z</time>
      </trkpt>
      <trkpt lat="43.071668" lon="-3.169818">
        <ele>508.89</ele>
        <time>2021-03-27T12:47:33Z</time>
      </trkpt>
      <trkpt lat="43.071625" lon="-3.169897">
        <ele>509.36</ele>
        <time>2021-03-27T12:47:35Z</time>
      </trkpt>
      <trkpt lat="43.07154" lon="-3.170326">
        <ele>505.88</ele>
        <time>2021-03-27T12:47:37Z</time>
      </trkpt>
      <trkpt lat="43.07147" lon="-3.170442">
        <ele>508.12</ele>
        <time>2021-03-27T12:47:39Z</time>
      </trkpt>
      <trkpt lat="43.071316" lon="-3.170584">
        <ele>514.7</ele>
        <time>2021-03-27T12:47:41Z</time>
      </trkpt>
      <trkpt lat="43.071262" lon="-3.170662">
        <ele>516.54</ele>
        <time>2021-03-27T12:47:43Z</time>
      </trkpt>
      <trkpt lat="43.071234" lon="-3.170739">
        <ele>516.99</ele>
        <time>2021-03-27T12:47:45Z</time>
      </trkpt>
      <trkpt lat="43.071218" lon="-3.170846">
        <ele>516.26</ele>
        <time>2021-03-27T12:47:47Z</time>
      </trkpt>
      <trkpt lat="43.071233" lon="-3.17118">
        <ele>511.26</ele>
        <time>2021-03-27T12:47:49Z</time>
      </trkpt>
      <trkpt lat="43.071174" lon="-3.171329">
        <ele>511.97</ele>
        <time>2021-03-27T12:47:51Z</time>
      </trkpt>
      <trkpt lat="43.071047" lon="-3.171456">
        <ele>512.76</ele>
        <time>2021-03-27T12:47:53Z</time>
      </trkpt>
      <trkpt lat="43.070671" lon="-3.171657">
        <ele>519.73</ele>
        <time>2021-03-27T12:47:55Z</time>
      </trkpt>
      <trkpt lat="43.070589" lon="-3.171718">
        <ele>521.29</ele>
        <time>2021-03-27T12:47:57Z</time>
      </trkpt>
      <trkpt lat="43.070227" lon="-3.17209">
        <ele>534.48</ele>
        <time>2021-03-27T12:47:59Z</time>
      </trkpt>
      <trkpt lat="43.070128" lon="-3.172246">
        <ele>536.09</ele>
        <time>2021-03-27T12:48:01Z</time>
      </trkpt>
      <trkpt lat="43.07" lon="-3.172647">
        <ele>535.31</ele>
        <time>2021-03-27T12:48:03Z</time>
      </trkpt>
      <trkpt lat="43.069876" lon="-3.172859">
        <ele>536.91</ele>
        <time>2021-03-27T12:48:05Z</time>
      </trkpt>
      <trkpt lat="43.06979" lon="-3.173105">
        <ele>537.82</ele>
        <time>2021-03-27T12:48:07Z</time>
      </trkpt>
      <trkpt lat="43.069781" lon="-3.173364">
        <ele>535.58</ele>
        <time>2021-03-27T12:48:09Z</time>
      </trkpt>
      <trkpt lat="43.069873" lon="-3.173752">
        <ele>528.54</ele>
        <time>2021-03-27T12:48:11Z</time>
      </trkpt>
      <trkpt lat="43.069866" lon="-3.173857">
        <ele>528.08</ele>
        <time>2021-03-27T12:48:13Z</time>
      </trkpt>
      <trkpt lat="43.069837" lon="-3.173938">
        <ele>528.03</ele>
        <time>2021-03-27T12:48:15Z</time>
      </trkpt>
      <trkpt lat="43.069741" lon="-3.174079">
        <ele>528.17</ele>
        <time>2021-03-27T12:48:17Z</time>
      </trkpt>
      <trkpt lat="43.069558" lon="-3.174188">
        <ele>529.88</ele>
        <time>2021-03-27T12:48:19Z</time>
      </trkpt>
      <trkpt lat="43.06944" lon="-3.174229">
        <ele>531.07</ele>
        <time>2021-03-27T12:48:21Z</time>
      </trkpt>
      <trkpt lat="43.068928" lon="-3.174326">
        <ele>534.68</ele>
        <time>2021-03-27T12:48:23Z</time>
      </trkpt>
      <trkpt lat="43.068789" lon="-3.174374">
        <ele>535.57</ele>
        <time>2021-03-27T12:48:25Z</time>
      </trkpt>
      <trkpt lat="43.068453" lon="-3.174566">
        <ele>541.24</ele>
        <time>2021-03-27T12:48:27Z</time>
      </trkpt>
      <trkpt lat="43.068319" lon="-3.174682">
        <ele>543.46</ele>
        <time>2021-03-27T12:48:29Z</time>
      </trkpt>
      <trkpt lat="43.067971" lon="-3.175078">
        <ele>544.82</ele>
        <time>2021-03-27T12:48:31Z</time>
      </trkpt>
      <trkpt lat="43.067009" lon="-3.176288">
        <ele>546.65</ele>
        <time>2021-03-27T12:48:33Z</time>
      </trkpt>
      <trkpt lat="43.066838" lon="-3.176436">
        <ele>545.29</ele>
        <time>2021-03-27T12:48:35Z</time>
      </trkpt>
      <trkpt lat="43.065834" lon="-3.176981">
        <ele>547.46</ele>
        <time>2021-03-27T12:48:37Z</time>
      </trkpt>
      <trkpt lat="43.065525" lon="-3.177079">
        <ele>551.88</ele>
        <time>2021-03-27T12:48:39Z</time>
      </trkpt>
      <trkpt lat="43.065352" lon="-3.177099">
        <ele>553.62</ele>
        <time>2021-03-27T12:48:41Z</time>
      </trkpt>
      <trkpt lat="43.065085" lon="-3.17709">
        <ele>555.17</ele>
        <time>2021-03-27T12:48:43Z</time>
      </trkpt>
      <trkpt lat="43.064858" lon="-3.177044">
        <ele>556.48</ele>
        <time>2021-03-27T12:48:45Z</time>
      </trkpt>
      <trkpt lat="43.063964" lon="-3.176739">
        <ele>559.41</ele>
        <time>2021-03-27T12:48:47Z</time>
      </trkpt>
      <trkpt lat="43.063733" lon="-3.176687">
        <ele>560.49</ele>
        <time>2021-03-27T12:48:49Z</time>
      </trkpt>
      <trkpt lat="43.059884" lon="-3.176003">
        <ele>549.61</ele>
        <time>2021-03-27T12:48:51Z</time>
      </trkpt>
      <trkpt lat="43.059622" lon="-3.175973">
        <ele>548.78</ele>
        <time>2021-03-27T12:48:53Z</time>
      </trkpt>
      <trkpt lat="43.059328" lon="-3.176008">
        <ele>547.05</ele>
        <time>2021-03-27T12:48:55Z</time>
      </trkpt>
      <trkpt lat="43.059009" lon="-3.176087">
        <ele>546.87</ele>
        <time>2021-03-27T12:48:57Z</time>
      </trkpt>
      <trkpt lat="43.057161" lon="-3.176664">
        <ele>545.73</ele>
        <time>2021-03-27T12:48:59Z</time>
      </trkpt>
      <trkpt lat="43.056976" lon="-3.176707">
        <ele>545.85</ele>
        <time>2021-03-27T12:49:01Z</time>
      </trkpt>
      <trkpt lat="43.056662" lon="-3.176726">
        <ele>548.9</ele>
        <time>2021-03-27T12:49:03Z</time>
      </trkpt>
      <trkpt lat="43.056533" lon="-3.176697">
        <ele>549.51</ele>
        <time>2021-03-27T12:49:05Z</time>
      </trkpt>
      <trkpt lat="43.056356" lon="-3.176626">
        <ele>549.36</ele>
        <time>2021-03-27T12:49:07Z</time>
      </trkpt>
      <trkpt lat="43.056074" lon="-3.176448">
        <ele>547.44</ele>
        <time>2021-03-27T12:49:09Z</time>
      </trkpt>
      <trkpt lat="43.055231" lon="-3.175688">
        <ele>543.01</ele>
        <time>2021-03-27T12:49:11Z</time>
      </trkpt>
      <trkpt lat="43.054993" lon="-3.175521">
        <ele>543.49</ele>
        <time>2021-03-27T12:49:13Z</time>
      </trkpt>
      <trkpt lat="43.054724" lon="-3.175402">
        <ele>546.2</ele>
        <time>2021-03-27T12:49:15Z</time>
      </trkpt>
      <trkpt lat="43.054515" lon="-3.175341">
        <ele>546.63</ele>
        <time>2021-03-27T12:49:17Z</time>
      </trkpt>
      <trkpt lat="43.053552" lon="-3.175101">
        <ele>545.17</ele>
        <time>2021-03-27T12:49:19Z</time>
      </trkpt>
      <trkpt lat="43.053408" lon="-3.175081">
        <ele>545.09</ele>
        <time>2021-03-27T12:49:21Z</time>
      </trkpt>
      <trkpt lat="43.053204" lon="-3.175074">
        <ele>545.19</ele>
        <time>2021-03-27T12:49:23Z</time>
      </trkpt>
      <trkpt lat="43.05301" lon="-3.175103">
        <ele>545.75</ele>
        <time>2021-03-27T12:49:25Z</time>
      </trkpt>
      <trkpt lat="43.051826" lon="-3.175602">
        <ele>548.42</ele>
        <time>2021-03-27T12:49:27Z</time>
      </trkpt>
      <trkpt lat="43.051597" lon="-3.175666">
        <ele>546.79</ele>
        <time>2021-03-27T12:49:29Z</time>
      </trkpt>
      <trkpt lat="43.051165" lon="-3.175701">
        <ele>547.35</ele>
        <time>2021-03-27T12:49:31Z</time>
      </trkpt>
      <trkpt lat="43.050628" lon="-3.175666">
        <ele>552.05</ele>
        <time>2021-03-27T12:49:33Z</time>
      </trkpt>
      <trkpt lat="43.050464" lon="-3.175672">
        <ele>552.49</ele>
        <time>2021-03-27T12:49:35Z</time>
      </trkpt>
      <trkpt lat="43.050124" lon="-3.175725">
        <ele>552.38</ele>
        <time>2021-03-27T12:49:37Z</time>
      </trkpt>
      <trkpt lat="43.049077" lon="-3.176083">
        <ele>554.78</ele>
        <time>2021-03-27T12:49:39Z</time>
      </trkpt>
      <trkpt lat="43.048921" lon="-3.176117">
        <ele>556.02</ele>
        <time>2021-03-27T12:49:41Z</time>
      </trkpt>
      <trkpt lat="43.048751" lon="-3.176124">
        <ele>556.81</ele>
        <time>2021-03-27T12:49:43Z</time>
      </trkpt>
      <trkpt lat="43.048494" lon="-3.176074">
        <ele>555.33</ele>
        <time>2021-03-27T12:49:45Z</time>
      </trkpt>
      <trkpt lat="43.04758" lon="-3.175671">
        <ele>553.64</ele>
        <time>2021-03-27T12:49:46Z</time>
      </trkpt>
      <trkpt lat="43.047402" lon="-3.175631">
        <ele>553.54</ele>
        <time>2021-03-27T12:49:48Z</time>
      </trkpt>
      <trkpt lat="43.047082" lon="-3.175615">
        <ele>554.22</ele>
        <time>2021-03-27T12:49:50Z</time>
      </trkpt>
      <trkpt lat="43.046811" lon="-3.175651">
        <ele>555.43</ele>
        <time>2021-03-27T12:49:52Z</time>
      </trkpt>
      <trkpt lat="43.045986" lon="-3.175827">
        <ele>555.43</ele>
        <time>2021-03-27T12:49:54Z</time>
      </trkpt>
      <trkpt lat="43.045401" lon="-3.175903">
        <ele>557.63</ele>
        <time>2021-03-27T12:49:56Z</time>
      </trkpt>
      <trkpt lat="43.045271" lon="-3.17594">
        <ele>558.26</ele>
        <time>2021-03-27T12:49:58Z</time>
      </trkpt>
      <trkpt lat="43.044929" lon="-3.176086">
        <ele>558.81</ele>
        <time>2021-03-27T12:50:00Z</time>
      </trkpt>
      <trkpt lat="43.044716" lon="-3.176259">
        <ele>560.63</ele>
        <time>2021-03-27T12:50:02Z</time>
      </trkpt>
      <trkpt lat="43.044611" lon="-3.176378">
        <ele>562.13</ele>
        <time>2021-03-27T12:50:04Z</time>
      </trkpt>
      <trkpt lat="43.04443" lon="-3.17669">
        <ele>565.15</ele>
        <time>2021-03-27T12:50:06Z</time>
      </trkpt>
      <trkpt lat="43.043952" lon="-3.177848">
        <ele>571.95</ele>
        <time>2021-03-27T12:50:08Z</time>
      </trkpt>
      <trkpt lat="43.04355" lon="-3.178948">
        <ele>576.75</ele>
        <time>2021-03-27T12:50:10Z</time>
      </trkpt>
      <trkpt lat="43.043448" lon="-3.179163">
        <ele>578.43</ele>
        <time>2021-03-27T12:50:12Z</time>
      </trkpt>
      <trkpt lat="43.043178" lon="-3.179599">
        <ele>581.31</ele>
        <time>2021-03-27T12:50:14Z</time>
      </trkpt>
      <trkpt lat="43.043057" lon="-3.179761">
        <ele>582.72</ele>
        <time>2021-03-27T12:50:16Z</time>
      </trkpt>
      <trkpt lat="43.04253" lon="-3.180369">
        <ele>585.07</ele>
        <time>2021-03-27T12:50:18Z</time>
      </trkpt>
      <trkpt lat="43.042128" lon="-3.180949">
        <ele>588.62</ele>
        <time>2021-03-27T12:50:20Z</time>
      </trkpt>
      <trkpt lat="43.042012" lon="-3.18115">
        <ele>588.89</ele>
        <time>2021-03-27T12:50:22Z</time>
      </trkpt>
      <trkpt lat="43.041923" lon="-3.181361">
        <ele>589.23</ele>
        <time>2021-03-27T12:50:24Z</time>
      </trkpt>
      <trkpt lat="43.041782" lon="-3.181853">
        <ele>588.76</ele>
        <time>2021-03-27T12:50:26Z</time>
      </trkpt>
      <trkpt lat="43.04128" lon="-3.184956">
        <ele>603.23</ele>
        <time>2021-03-27T12:50:28Z</time>
      </trkpt>
      <trkpt lat="43.041151" lon="-3.185818">
        <ele>608.33</ele>
        <time>2021-03-27T12:50:30Z</time>
      </trkpt>
      <trkpt lat="43.041131" lon="-3.186036">
        <ele>609.85</ele>
        <time>2021-03-27T12:50:32Z</time>
      </trkpt>
      <trkpt lat="43.041112" lon="-3.186769">
        <ele>611.77</ele>
        <time>2021-03-27T12:50:34Z</time>
      </trkpt>
      <trkpt lat="43.041125" lon="-3.188314">
        <ele>618.47</ele>
        <time>2021-03-27T12:50:36Z</time>
      </trkpt>
      <trkpt lat="43.041158" lon="-3.188975">
        <ele>622.64</ele>
        <time>2021-03-27T12:50:38Z</time>
      </trkpt>
      <trkpt lat="43.041245" lon="-3.189846">
        <ele>626.99</ele>
        <time>2021-03-27T12:50:40Z</time>
      </trkpt>
      <trkpt lat="43.041238" lon="-3.189986">
        <ele>627.57</ele>
        <time>2021-03-27T12:50:42Z</time>
      </trkpt>
      <trkpt lat="43.041207" lon="-3.19012">
        <ele>627.76</ele>
        <time>2021-03-27T12:50:44Z</time>
      </trkpt>
      <trkpt lat="43.041151" lon="-3.190254">
        <ele>627.62</ele>
        <time>2021-03-27T12:50:46Z</time>
      </trkpt>
      <trkpt lat="43.041047" lon="-3.190374">
        <ele>627.28</ele>
        <time>2021-03-27T12:50:48Z</time>
      </trkpt>
      <trkpt lat="43.040851" lon="-3.190476">
        <ele>626.73</ele>
        <time>2021-03-27T12:50:50Z</time>
      </trkpt>
      <trkpt lat="43.040496" lon="-3.190474">
        <ele>627.13</ele>
        <time>2021-03-27T12:50:52Z</time>
      </trkpt>
      <trkpt lat="43.040115" lon="-3.190434">
        <ele>629.25</ele>
        <time>2021-03-27T12:50:54Z</time>
      </trkpt>
      <trkpt lat="43.038828" lon="-3.190187">
        <ele>638.56</ele>
        <time>2021-03-27T12:50:56Z</time>
      </trkpt>
      <trkpt lat="43.037154" lon="-3.190147">
        <ele>645.98</ele>
        <time>2021-03-27T12:50:58Z</time>
      </trkpt>
      <trkpt lat="43.036915" lon="-3.190193">
        <ele>646.14</ele>
        <time>2021-03-27T12:51:00Z</time>
      </trkpt>
      <trkpt lat="43.036791" lon="-3.190251">
        <ele>646.03</ele>
        <time>2021-03-27T12:51:02Z</time>
      </trkpt>
      <trkpt lat="43.036344" lon="-3.190581">
        <ele>655.61</ele>
        <time>2021-03-27T12:51:04Z</time>
      </trkpt>
      <trkpt lat="43.036158" lon="-3.19065">
        <ele>660.15</ele>
        <time>2021-03-27T12:51:06Z</time>
      </trkpt>
      <trkpt lat="43.036014" lon="-3.190665">
        <ele>662.66</ele>
        <time>2021-03-27T12:51:08Z</time>
      </trkpt>
      <trkpt lat="43.03564" lon="-3.190631">
        <ele>667.27</ele>
        <time>2021-03-27T12:51:10Z</time>
      </trkpt>
      <trkpt lat="43.035272" lon="-3.190537">
        <ele>666.11</ele>
        <time>2021-03-27T12:51:12Z</time>
      </trkpt>
      <trkpt lat="43.035075" lon="-3.190435">
        <ele>664.45</ele>
        <time>2021-03-27T12:51:14Z</time>
      </trkpt>
      <trkpt lat="43.034872" lon="-3.190274">
        <ele>661.07</ele>
        <time>2021-03-27T12:51:16Z</time>
      </trkpt>
      <trkpt lat="43.034707" lon="-3.190186">
        <ele>661.39</ele>
        <time>2021-03-27T12:51:18Z</time>
      </trkpt>
      <trkpt lat="43.034516" lon="-3.190165">
        <ele>660.8</ele>
        <time>2021-03-27T12:51:20Z</time>
      </trkpt>
      <trkpt lat="43.033633" lon="-3.190308">
        <ele>671.51</ele>
        <time>2021-03-27T12:51:22Z</time>
      </trkpt>
      <trkpt lat="43.033417" lon="-3.190386">
        <ele>669.41</ele>
        <time>2021-03-27T12:51:24Z</time>
      </trkpt>
      <trkpt lat="43.033231" lon="-3.19051">
        <ele>669.05</ele>
        <time>2021-03-27T12:51:26Z</time>
      </trkpt>
      <trkpt lat="43.032944" lon="-3.190797">
        <ele>669.48</ele>
        <time>2021-03-27T12:51:28Z</time>
      </trkpt>
      <trkpt lat="43.032685" lon="-3.19113">
        <ele>669.4</ele>
        <time>2021-03-27T12:51:30Z</time>
      </trkpt>
      <trkpt lat="43.032453" lon="-3.191502">
        <ele>678.17</ele>
        <time>2021-03-27T12:51:32Z</time>
      </trkpt>
      <trkpt lat="43.032304" lon="-3.19169">
        <ele>684.84</ele>
        <time>2021-03-27T12:51:34Z</time>
      </trkpt>
      <trkpt lat="43.031923" lon="-3.192043">
        <ele>694.18</ele>
        <time>2021-03-27T12:51:36Z</time>
      </trkpt>
      <trkpt lat="43.031805" lon="-3.192117">
        <ele>697.7</ele>
        <time>2021-03-27T12:51:38Z</time>
      </trkpt>
      <trkpt lat="43.031399" lon="-3.192213">
        <ele>700.06</ele>
        <time>2021-03-27T12:51:40Z</time>
      </trkpt>
      <trkpt lat="43.030546" lon="-3.192345">
        <ele>704.92</ele>
        <time>2021-03-27T12:51:42Z</time>
      </trkpt>
      <trkpt lat="43.029476" lon="-3.192666">
        <ele>711.02</ele>
        <time>2021-03-27T12:51:44Z</time>
      </trkpt>
      <trkpt lat="43.028832" lon="-3.192754">
        <ele>714.54</ele>
        <time>2021-03-27T12:51:46Z</time>
      </trkpt>
      <trkpt lat="43.02807" lon="-3.192745">
        <ele>718.64</ele>
        <time>2021-03-27T12:51:48Z</time>
      </trkpt>
      <trkpt lat="43.027166" lon="-3.19254">
        <ele>723.67</ele>
        <time>2021-03-27T12:51:50Z</time>
      </trkpt>
      <trkpt lat="43.026772" lon="-3.192317">
        <ele>726.2</ele>
        <time>2021-03-27T12:51:52Z</time>
      </trkpt>
      <trkpt lat="43.02582" lon="-3.191845">
        <ele>720.63</ele>
        <time>2021-03-27T12:51:54Z</time>
      </trkpt>
      <trkpt lat="43.025547" lon="-3.191732">
        <ele>719.53</ele>
        <time>2021-03-27T12:51:56Z</time>
      </trkpt>
      <trkpt lat="43.025331" lon="-3.191694">
        <ele>720.81</ele>
        <time>2021-03-27T12:51:58Z</time>
      </trkpt>
      <trkpt lat="43.025099" lon="-3.191691">
        <ele>722.41</ele>
        <time>2021-03-27T12:52:00Z</time>
      </trkpt>
      <trkpt lat="43.024821" lon="-3.191741">
        <ele>723.91</ele>
        <time>2021-03-27T12:52:02Z</time>
      </trkpt>
      <trkpt lat="43.024584" lon="-3.191836">
        <ele>725.1</ele>
        <time>2021-03-27T12:52:04Z</time>
      </trkpt>
      <trkpt lat="43.024346" lon="-3.191964">
        <ele>726.0</ele>
        <time>2021-03-27T12:52:06Z</time>
      </trkpt>
      <trkpt lat="43.021815" lon="-3.193805">
        <ele>724.74</ele>
        <time>2021-03-27T12:52:08Z</time>
      </trkpt>
      <trkpt lat="43.019697" lon="-3.195872">
        <ele>723.37</ele>
        <time>2021-03-27T12:52:10Z</time>
      </trkpt>
      <trkpt lat="43.018353" lon="-3.197248">
        <ele>721.33</ele>
        <time>2021-03-27T12:52:12Z</time>
      </trkpt>
      <trkpt lat="43.017278" lon="-3.198813">
        <ele>722.42</ele>
        <time>2021-03-27T12:52:14Z</time>
      </trkpt>
      <trkpt lat="43.017147" lon="-3.198967">
        <ele>721.39</ele>
        <time>2021-03-27T12:52:16Z</time>
      </trkpt>
      <trkpt lat="43.016844" lon="-3.199265">
        <ele>720.17</ele>
        <time>2021-03-27T12:52:18Z</time>
      </trkpt>
      <trkpt lat="43.016139" lon="-3.199803">
        <ele>724.36</ele>
        <time>2021-03-27T12:52:20Z</time>
      </trkpt>
      <trkpt lat="43.015974" lon="-3.199897">
        <ele>723.82</ele>
        <time>2021-03-27T12:52:22Z</time>
      </trkpt>
      <trkpt lat="43.015815" lon="-3.19996">
        <ele>722.8</ele>
        <time>2021-03-27T12:52:24Z</time>
      </trkpt>
      <trkpt lat="43.015641" lon="-3.199994">
        <ele>720.92</ele>
        <time>2021-03-27T12:52:26Z</time>
      </trkpt>
      <trkpt lat="43.014726" lon="-3.199966">
        <ele>719.86</ele>
        <time>2021-03-27T12:52:28Z</time>
      </trkpt>
      <trkpt lat="43.014529" lon="-3.199978">
        <ele>719.33</ele>
        <time>2021-03-27T12:52:30Z</time>
      </trkpt>
      <trkpt lat="43.013212" lon="-3.200409">
        <ele>715.53</ele>
        <time>2021-03-27T12:52:32Z</time>
      </trkpt>
      <trkpt lat="43.012997" lon="-3.200468">
        <ele>714.79</ele>
        <time>2021-03-27T12:52:34Z</time>
      </trkpt>
      <trkpt lat="43.012795" lon="-3.200481">
        <ele>714.06</ele>
        <time>2021-03-27T12:52:36Z</time>
      </trkpt>
      <trkpt lat="43.012618" lon="-3.20045">
        <ele>713.42</ele>
        <time>2021-03-27T12:52:38Z</time>
      </trkpt>
      <trkpt lat="43.012439" lon="-3.200384">
        <ele>713.36</ele>
        <time>2021-03-27T12:52:40Z</time>
      </trkpt>
      <trkpt lat="43.012269" lon="-3.200261">
        <ele>714.7</ele>
        <time>2021-03-27T12:52:42Z</time>
      </trkpt>
      <trkpt lat="43.011715" lon="-3.199733">
        <ele>717.68</ele>
        <time>2021-03-27T12:52:44Z</time>
      </trkpt>
      <trkpt lat="43.011517" lon="-3.19957">
        <ele>717.99</ele>
        <time>2021-03-27T12:52:46Z</time>
      </trkpt>
      <trkpt lat="43.011276" lon="-3.199407">
        <ele>718.0</ele>
        <time>2021-03-27T12:52:48Z</time>
      </trkpt>
      <trkpt lat="43.011106" lon="-3.199312">
        <ele>717.99</ele>
        <time>2021-03-27T12:52:50Z</time>
      </trkpt>
      <trkpt lat="43.010534" lon="-3.199071">
        <ele>715.17</ele>
        <time>2021-03-27T12:52:52Z</time>
      </trkpt>
      <trkpt lat="43.010343" lon="-3.199008">
        <ele>713.61</ele>
        <time>2021-03-27T12:52:54Z</time>
      </trkpt>
      <trkpt lat="43.010201" lon="-3.198989">
        <ele>712.8</ele>
        <time>2021-03-27T12:52:56Z</time>
      </trkpt>
      <trkpt lat="43.009955" lon="-3.199004">
        <ele>712.17</ele>
        <time>2021-03-27T12:52:58Z</time>
      </trkpt>
      <trkpt lat="43.009" lon="-3.199265">
        <ele>709.66</ele>
        <time>2021-03-27T12:53:00Z</time>
      </trkpt>
      <trkpt lat="43.007961" lon="-3.19952">
        <ele>709.54</ele>
        <time>2021-03-27T12:53:02Z</time>
      </trkpt>
      <trkpt lat="43.007504" lon="-3.199711">
        <ele>707.03</ele>
        <time>2021-03-27T12:53:04Z</time>
      </trkpt>
      <trkpt lat="43.007238" lon="-3.199894">
        <ele>704.82</ele>
        <time>2021-03-27T12:53:06Z</time>
      </trkpt>
      <trkpt lat="42.998774" lon="-3.206811">
        <ele>687.68</ele>
        <time>2021-03-27T12:53:08Z</time>
      </trkpt>
      <trkpt lat="42.998498" lon="-3.207019">
        <ele>686.73</ele>
        <time>2021-03-27T12:53:10Z</time>
      </trkpt>
      <trkpt lat="42.998128" lon="-3.207248">
        <ele>685.97</ele>
        <time>2021-03-27T12:53:12Z</time>
      </trkpt>
      <trkpt lat="42.996676" lon="-3.208087">
        <ele>684.11</ele>
        <time>2021-03-27T12:53:14Z</time>
      </trkpt>
      <trkpt lat="42.996085" lon="-3.208458">
        <ele>685.9</ele>
        <time>2021-03-27T12:53:16Z</time>
      </trkpt>
      <trkpt lat="42.995858" lon="-3.208643">
        <ele>686.22</ele>
        <time>2021-03-27T12:53:18Z</time>
      </trkpt>
      <trkpt lat="42.995024" lon="-3.209463">
        <ele>683.15</ele>
        <time>2021-03-27T12:53:20Z</time>
      </trkpt>
      <trkpt lat="42.994433" lon="-3.210013">
        <ele>681.96</ele>
        <time>2021-03-27T12:53:22Z</time>
      </trkpt>
      <trkpt lat="42.994171" lon="-3.210204">
        <ele>681.02</ele>
        <time>2021-03-27T12:53:24Z</time>
      </trkpt>
      <trkpt lat="42.984906" lon="-3.216179">
        <ele>665.41</ele>
        <time>2021-03-27T12:53:26Z</time>
      </trkpt>
      <trkpt lat="42.98463" lon="-3.216333">
        <ele>664.2</ele>
        <time>2021-03-27T12:53:27Z</time>
      </trkpt>
      <trkpt lat="42.984398" lon="-3.216428">
        <ele>663.45</ele>
        <time>2021-03-27T12:53:29Z</time>
      </trkpt>
      <trkpt lat="42.983155" lon="-3.216635">
        <ele>667.06</ele>
        <time>2021-03-27T12:53:31Z</time>
      </trkpt>
      <trkpt lat="42.982907" lon="-3.216707">
        <ele>668.15</ele>
        <time>2021-03-27T12:53:33Z</time>
      </trkpt>
      <trkpt lat="42.982739" lon="-3.216779">
        <ele>668.27</ele>
        <time>2021-03-27T12:53:35Z</time>
      </trkpt>
      <trkpt lat="42.982598" lon="-3.21688">
        <ele>668.12</ele>
        <time>2021-03-27T12:53:37Z</time>
      </trkpt>
      <trkpt lat="42.982447" lon="-3.217037">
        <ele>667.74</ele>
        <time>2021-03-27T12:53:39Z</time>
      </trkpt>
      <trkpt lat="42.981957" lon="-3.217697">
        <ele>662.17</ele>
        <time>2021-03-27T12:53:41Z</time>
      </trkpt>
      <trkpt lat="42.978909" lon="-3.221919">
        <ele>655.14</ele>
        <time>2021-03-27T12:53:43Z</time>
      </trkpt>
      <trkpt lat="42.977664" lon="-3.223669">
        <ele>654.27</ele>
        <time>2021-03-27T12:53:45Z</time>
      </trkpt>
      <trkpt lat="42.977346" lon="-3.224282">
        <ele>652.89</ele>
        <time>2021-03-27T12:53:47Z</time>
      </trkpt>
      <trkpt lat="42.977314" lon="-3.224413">
        <ele>652.66</ele>
        <time>2021-03-27T12:53:49Z</time>
      </trkpt>
      <trkpt lat="42.977299" lon="-3.224583">
        <ele>652.42</ele>
        <time>2021-03-27T12:53:52Z</time>
      </trkpt>
      <trkpt lat="42.977322" lon="-3.224721">
        <ele>652.36</ele>
        <time>2021-03-27T12:53:55Z</time>
      </trkpt>
      <trkpt lat="42.977296" lon="-3.224858">
        <ele>651.65</ele>
        <time>2021-03-27T12:53:58Z</time>
      </trkpt>
      <trkpt lat="42.977254" lon="-3.224934">
        <ele>651.27</ele>
        <time>2021-03-27T12:54:02Z</time>
      </trkpt>
      <trkpt lat="42.977196" lon="-3.224987">
        <ele>651.04</ele>
        <time>2021-03-27T12:54:05Z</time>
      </trkpt>
      <trkpt lat="42.977004" lon="-3.22505">
        <ele>651.1</ele>
        <time>2021-03-27T12:54:08Z</time>
      </trkpt>
      <trkpt lat="42.976888" lon="-3.225167">
        <ele>651.88</ele>
        <time>2021-03-27T12:54:12Z</time>
      </trkpt>
      <trkpt lat="42.976722" lon="-3.225532">
        <ele>653.9</ele>
        <time>2021-03-27T12:54:15Z</time>
      </trkpt>
      <trkpt lat="42.973002" lon="-3.232989">
        <ele>643.24</ele>
        <time>2021-03-27T12:54:19Z</time>
      </trkpt>
      <trkpt lat="42.972446" lon="-3.234077">
        <ele>641.94</ele>
        <time>2021-03-27T12:54:22Z</time>
      </trkpt>
      <trkpt lat="42.969773" lon="-3.238726">
        <ele>639.92</ele>
        <time>2021-03-27T12:54:25Z</time>
      </trkpt>
      <trkpt lat="42.96913" lon="-3.240095">
        <ele>642.47</ele>
        <time>2021-03-27T12:54:29Z</time>
      </trkpt>
      <trkpt lat="42.964805" lon="-3.249624">
        <ele>642.4</ele>
        <time>2021-03-27T12:54:32Z</time>
      </trkpt>
      <trkpt lat="42.962748" lon="-3.25368">
        <ele>638.78</ele>
        <time>2021-03-27T12:54:35Z</time>
      </trkpt>
      <trkpt lat="42.962391" lon="-3.254296">
        <ele>637.75</ele>
        <time>2021-03-27T12:54:39Z</time>
      </trkpt>
      <trkpt lat="42.962155" lon="-3.254601">
        <ele>637.93</ele>
        <time>2021-03-27T12:54:42Z</time>
      </trkpt>
      <trkpt lat="42.960607" lon="-3.256335">
        <ele>638.46</ele>
        <time>2021-03-27T12:54:46Z</time>
      </trkpt>
      <trkpt lat="42.960463" lon="-3.256523">
        <ele>638.05</ele>
        <time>2021-03-27T12:54:49Z</time>
      </trkpt>
      <trkpt lat="42.960343" lon="-3.25674">
        <ele>636.03</ele>
        <time>2021-03-27T12:54:52Z</time>
      </trkpt>
      <trkpt lat="42.958542" lon="-3.261595">
        <ele>631.37</ele>
        <time>2021-03-27T12:54:56Z</time>
      </trkpt>
      <trkpt lat="42.957508" lon="-3.264584">
        <ele>637.84</ele>
        <time>2021-03-27T12:54:59Z</time>
      </trkpt>
      <trkpt lat="42.957458" lon="-3.264814">
        <ele>639.04</ele>
        <time>2021-03-27T12:55:03Z</time>
      </trkpt>
      <trkpt lat="42.957416" lon="-3.265317">
        <ele>640.02</ele>
        <time>2021-03-27T12:55:06Z</time>
      </trkpt>
      <trkpt lat="42.957414" lon="-3.265612">
        <ele>638.45</ele>
        <time>2021-03-27T12:55:09Z</time>
      </trkpt>
      <trkpt lat="42.957396" lon="-3.265844">
        <ele>636.84</ele>
        <time>2021-03-27T12:55:13Z</time>
      </trkpt>
      <trkpt lat="42.95735" lon="-3.266083">
        <ele>637.37</ele>
        <time>2021-03-27T12:55:16Z</time>
      </trkpt>
      <trkpt lat="42.957294" lon="-3.266278">
        <ele>639.08</ele>
        <time>2021-03-27T12:55:19Z</time>
      </trkpt>
      <trkpt lat="42.957212" lon="-3.266491">
        <ele>640.45</ele>
        <time>2021-03-27T12:55:23Z</time>
      </trkpt>
      <trkpt lat="42.957108" lon="-3.266696">
        <ele>639.83</ele>
        <time>2021-03-27T12:55:26Z</time>
      </trkpt>
      <trkpt lat="42.956979" lon="-3.266887">
        <ele>637.85</ele>
        <time>2021-03-27T12:55:30Z</time>
      </trkpt>
      <trkpt lat="42.956827" lon="-3.267066">
        <ele>636.99</ele>
        <time>2021-03-27T12:55:33Z</time>
      </trkpt>
      <trkpt lat="42.956646" lon="-3.267236">
        <ele>636.12</ele>
        <time>2021-03-27T12:55:36Z</time>
      </trkpt>
      <trkpt lat="42.956462" lon="-3.267362">
        <ele>636.83</ele>
        <time>2021-03-27T12:55:40Z</time>
      </trkpt>
      <trkpt lat="42.956239" lon="-3.267478">
        <ele>636.24</ele>
        <time>2021-03-27T12:55:43Z</time>
      </trkpt>
      <trkpt lat="42.954308" lon="-3.268251">
        <ele>629.24</ele>
        <time>2021-03-27T12:55:46Z</time>
      </trkpt>
      <trkpt lat="42.951797" lon="-3.269291">
        <ele>631.84</ele>
        <time>2021-03-27T12:55:50Z</time>
      </trkpt>
      <trkpt lat="42.950831" lon="-3.269708">
        <ele>635.37</ele>
        <time>2021-03-27T12:55:53Z</time>
      </trkpt>
      <trkpt lat="42.950518" lon="-3.269862">
        <ele>634.66</ele>
        <time>2021-03-27T12:55:57Z</time>
      </trkpt>
      <trkpt lat="42.950263" lon="-3.270041">
        <ele>631.31</ele>
        <time>2021-03-27T12:56:00Z</time>
      </trkpt>
      <trkpt lat="42.949907" lon="-3.2704">
        <ele>629.49</ele>
        <time>2021-03-27T12:56:03Z</time>
      </trkpt>
      <trkpt lat="42.949591" lon="-3.270798">
        <ele>632.26</ele>
        <time>2021-03-27T12:56:07Z</time>
      </trkpt>
      <trkpt lat="42.949143" lon="-3.271433">
        <ele>629.84</ele>
        <time>2021-03-27T12:56:10Z</time>
      </trkpt>
      <trkpt lat="42.948899" lon="-3.271741">
        <ele>629.04</ele>
        <time>2021-03-27T12:56:14Z</time>
      </trkpt>
      <trkpt lat="42.948699" lon="-3.271939">
        <ele>629.15</ele>
        <time>2021-03-27T12:56:17Z</time>
      </trkpt>
      <trkpt lat="42.948492" lon="-3.272102">
        <ele>628.14</ele>
        <time>2021-03-27T12:56:20Z</time>
      </trkpt>
      <trkpt lat="42.948206" lon="-3.272289">
        <ele>626.66</ele>
        <time>2021-03-27T12:56:24Z</time>
      </trkpt>
      <trkpt lat="42.946607" lon="-3.273708">
        <ele>624.49</ele>
        <time>2021-03-27T12:56:27Z</time>
      </trkpt>
      <trkpt lat="42.945773" lon="-3.274475">
        <ele>634.45</ele>
        <time>2021-03-27T12:56:30Z</time>
      </trkpt>
      <trkpt lat="42.944751" lon="-3.275636">
        <ele>630.12</ele>
        <time>2021-03-27T12:56:34Z</time>
      </trkpt>
      <trkpt lat="42.941451" lon="-3.27837">
        <ele>631.75</ele>
        <time>2021-03-27T12:56:37Z</time>
      </trkpt>
      <trkpt lat="42.941122" lon="-3.278674">
        <ele>632.95</ele>
        <time>2021-03-27T12:56:41Z</time>
      </trkpt>
      <trkpt lat="42.937442" lon="-3.282765">
        <ele>632.5</ele>
        <time>2021-03-27T12:56:44Z</time>
      </trkpt>
      <trkpt lat="42.93704" lon="-3.283151">
        <ele>632.62</ele>
        <time>2021-03-27T12:56:47Z</time>
      </trkpt>
      <trkpt lat="42.936152" lon="-3.283764">
        <ele>631.75</ele>
        <time>2021-03-27T12:56:51Z</time>
      </trkpt>
      <trkpt lat="42.936035" lon="-3.283889">
        <ele>631.27</ele>
        <time>2021-03-27T12:56:54Z</time>
      </trkpt>
      <trkpt lat="42.935798" lon="-3.284204">
        <ele>629.74</ele>
        <time>2021-03-27T12:56:58Z</time>
      </trkpt>
      <trkpt lat="42.935401" lon="-3.284798">
        <ele>627.84</ele>
        <time>2021-03-27T12:57:01Z</time>
      </trkpt>
      <trkpt lat="42.935105" lon="-3.285152">
        <ele>628.28</ele>
        <time>2021-03-27T12:57:04Z</time>
      </trkpt>
      <trkpt lat="42.933108" lon="-3.286449">
        <ele>624.55</ele>
        <time>2021-03-27T12:57:08Z</time>
      </trkpt>
      <trkpt lat="42.932697" lon="-3.286698">
        <ele>624.22</ele>
        <time>2021-03-27T12:57:11Z</time>
      </trkpt>
      <trkpt lat="42.932535" lon="-3.286737">
        <ele>624.43</ele>
        <time>2021-03-27T12:57:14Z</time>
      </trkpt>
      <trkpt lat="42.932408" lon="-3.286768">
        <ele>624.27</ele>
        <time>2021-03-27T12:57:18Z</time>
      </trkpt>
      <trkpt lat="42.931916" lon="-3.286883">
        <ele>623.13</ele>
        <time>2021-03-27T12:57:21Z</time>
      </trkpt>
      <trkpt lat="42.9318" lon="-3.286924">
        <ele>621.59</ele>
        <time>2021-03-27T12:57:25Z</time>
      </trkpt>
      <trkpt lat="42.931651" lon="-3.287009">
        <ele>619.65</ele>
        <time>2021-03-27T12:57:28Z</time>
      </trkpt>
      <trkpt lat="42.930021" lon="-3.288258">
        <ele>625.94</ele>
        <time>2021-03-27T12:57:31Z</time>
      </trkpt>
      <trkpt lat="42.929756" lon="-3.288489">
        <ele>623.61</ele>
        <time>2021-03-27T12:57:35Z</time>
      </trkpt>
      <trkpt lat="42.929578" lon="-3.288668">
        <ele>622.8</ele>
        <time>2021-03-27T12:57:38Z</time>
      </trkpt>
      <trkpt lat="42.92757" lon="-3.291178">
        <ele>615.13</ele>
        <time>2021-03-27T12:57:41Z</time>
      </trkpt>
      <trkpt lat="42.927421" lon="-3.291382">
        <ele>615.28</ele>
        <time>2021-03-27T12:57:45Z</time>
      </trkpt>
      <trkpt lat="42.927272" lon="-3.291684">
        <ele>616.6</ele>
        <time>2021-03-27T12:57:48Z</time>
      </trkpt>
      <trkpt lat="42.927235" lon="-3.2919">
        <ele>616.15</ele>
        <time>2021-03-27T12:57:52Z</time>
      </trkpt>
      <trkpt lat="42.927236" lon="-3.292277">
        <ele>617.34</ele>
        <time>2021-03-27T12:57:55Z</time>
      </trkpt>
      <trkpt lat="42.92745" lon="-3.293523">
        <ele>618.77</ele>
        <time>2021-03-27T12:57:58Z</time>
      </trkpt>
      <trkpt lat="42.927465" lon="-3.293801">
        <ele>618.43</ele>
        <time>2021-03-27T12:58:02Z</time>
      </trkpt>
      <trkpt lat="42.927364" lon="-3.294162">
        <ele>619.92</ele>
        <time>2021-03-27T12:58:05Z</time>
      </trkpt>
      <trkpt lat="42.927232" lon="-3.294415">
        <ele>622.86</ele>
        <time>2021-03-27T12:58:09Z</time>
      </trkpt>
      <trkpt lat="42.927231" lon="-3.294561">
        <ele>621.87</ele>
        <time>2021-03-27T12:58:12Z</time>
      </trkpt>
      <trkpt lat="42.927252" lon="-3.294627">
        <ele>620.74</ele>
        <time>2021-03-27T12:58:15Z</time>
      </trkpt>
      <trkpt lat="42.92735" lon="-3.294726">
        <ele>617.32</ele>
        <time>2021-03-27T12:58:19Z</time>
      </trkpt>
      <trkpt lat="42.927636" lon="-3.294947">
        <ele>615.09</ele>
        <time>2021-03-27T12:58:22Z</time>
      </trkpt>
      <trkpt lat="42.927696" lon="-3.295037">
        <ele>616.48</ele>
        <time>2021-03-27T12:58:25Z</time>
      </trkpt>
      <trkpt lat="42.927707" lon="-3.29515">
        <ele>617.72</ele>
        <time>2021-03-27T12:58:29Z</time>
      </trkpt>
      <trkpt lat="42.927693" lon="-3.295242">
        <ele>618.45</ele>
        <time>2021-03-27T12:58:32Z</time>
      </trkpt>
      <trkpt lat="42.927458" lon="-3.295779">
        <ele>617.14</ele>
        <time>2021-03-27T12:58:36Z</time>
      </trkpt>
      <trkpt lat="42.927362" lon="-3.296047">
        <ele>615.14</ele>
        <time>2021-03-27T12:58:39Z</time>
      </trkpt>
      <trkpt lat="42.927283" lon="-3.296329">
        <ele>614.1</ele>
        <time>2021-03-27T12:58:42Z</time>
      </trkpt>
      <trkpt lat="42.926886" lon="-3.298198">
        <ele>612.47</ele>
        <time>2021-03-27T12:58:46Z</time>
      </trkpt>
      <trkpt lat="42.926747" lon="-3.298761">
        <ele>616.11</ele>
        <time>2021-03-27T12:58:49Z</time>
      </trkpt>
      <trkpt lat="42.926654" lon="-3.298991">
        <ele>616.93</ele>
        <time>2021-03-27T12:58:53Z</time>
      </trkpt>
      <trkpt lat="42.926536" lon="-3.299199">
        <ele>618.07</ele>
        <time>2021-03-27T12:58:56Z</time>
      </trkpt>
      <trkpt lat="42.925997" lon="-3.299941">
        <ele>620.68</ele>
        <time>2021-03-27T12:58:59Z</time>
      </trkpt>
      <trkpt lat="42.925863" lon="-3.300056">
        <ele>621.35</ele>
        <time>2021-03-27T12:59:03Z</time>
      </trkpt>
      <trkpt lat="42.924572" lon="-3.300949">
        <ele>620.57</ele>
        <time>2021-03-27T12:59:06Z</time>
      </trkpt>
      <trkpt lat="42.924215" lon="-3.301123">
        <ele>620.79</ele>
        <time>2021-03-27T12:59:09Z</time>
      </trkpt>
      <trkpt lat="42.923621" lon="-3.301375">
        <ele>614.13</ele>
        <time>2021-03-27T12:59:13Z</time>
      </trkpt>
      <trkpt lat="42.922283" lon="-3.301894">
        <ele>614.03</ele>
        <time>2021-03-27T12:59:16Z</time>
      </trkpt>
      <trkpt lat="42.921971" lon="-3.302088">
        <ele>615.7</ele>
        <time>2021-03-27T12:59:20Z</time>
      </trkpt>
      <trkpt lat="42.921052" lon="-3.302955">
        <ele>611.73</ele>
        <time>2021-03-27T12:59:23Z</time>
      </trkpt>
      <trkpt lat="42.920962" lon="-3.303067">
        <ele>610.35</ele>
        <time>2021-03-27T12:59:26Z</time>
      </trkpt>
      <trkpt lat="42.920899" lon="-3.303234">
        <ele>609.84</ele>
        <time>2021-03-27T12:59:30Z</time>
      </trkpt>
      <trkpt lat="42.920839" lon="-3.303434">
        <ele>609.85</ele>
        <time>2021-03-27T12:59:33Z</time>
      </trkpt>
      <trkpt lat="42.920779" lon="-3.303713">
        <ele>611.18</ele>
        <time>2021-03-27T12:59:36Z</time>
      </trkpt>
      <trkpt lat="42.920721" lon="-3.3041">
        <ele>612.34</ele>
        <time>2021-03-27T12:59:40Z</time>
      </trkpt>
      <trkpt lat="42.920614" lon="-3.304645">
        <ele>610.99</ele>
        <time>2021-03-27T12:59:43Z</time>
      </trkpt>
      <trkpt lat="42.920554" lon="-3.305251">
        <ele>611.88</ele>
        <time>2021-03-27T12:59:47Z</time>
      </trkpt>
      <trkpt lat="42.920547" lon="-3.306073">
        <ele>614.67</ele>
        <time>2021-03-27T12:59:50Z</time>
      </trkpt>
      <trkpt lat="42.920544" lon="-3.306322">
        <ele>615.48</ele>
        <time>2021-03-27T12:59:53Z</time>
      </trkpt>
      <trkpt lat="42.920496" lon="-3.306668">
        <ele>615.71</ele>
        <time>2021-03-27T12:59:57Z</time>
      </trkpt>
      <trkpt lat="42.920446" lon="-3.306956">
        <ele>616.47</ele>
        <time>2021-03-27T13:00:00Z</time>
      </trkpt>
      <trkpt lat="42.920372" lon="-3.307209">
        <ele>616.3</ele>
        <time>2021-03-27T13:00:04Z</time>
      </trkpt>
      <trkpt lat="42.920282" lon="-3.307364">
        <ele>617.12</ele>
        <time>2021-03-27T13:00:07Z</time>
      </trkpt>
      <trkpt lat="42.920098" lon="-3.3076">
        <ele>616.09</ele>
        <time>2021-03-27T13:00:10Z</time>
      </trkpt>
      <trkpt lat="42.919927" lon="-3.307858">
        <ele>614.19</ele>
        <time>2021-03-27T13:00:14Z</time>
      </trkpt>
      <trkpt lat="42.919512" lon="-3.308696">
        <ele>613.66</ele>
        <time>2021-03-27T13:00:17Z</time>
      </trkpt>
      <trkpt lat="42.919246" lon="-3.30917">
        <ele>613.61</ele>
        <time>2021-03-27T13:00:20Z</time>
      </trkpt>
      <trkpt lat="42.917847" lon="-3.311324">
        <ele>615.93</ele>
        <time>2021-03-27T13:00:24Z</time>
      </trkpt>
      <trkpt lat="42.917551" lon="-3.311804">
        <ele>616.45</ele>
        <time>2021-03-27T13:00:27Z</time>
      </trkpt>
      <trkpt lat="42.91715" lon="-3.312593">
        <ele>613.7</ele>
        <time>2021-03-27T13:00:31Z</time>
      </trkpt>
      <trkpt lat="42.91702" lon="-3.312894">
        <ele>614.42</ele>
        <time>2021-03-27T13:00:34Z</time>
      </trkpt>
      <trkpt lat="42.916645" lon="-3.314264">
        <ele>614.27</ele>
        <time>2021-03-27T13:00:37Z</time>
      </trkpt>
      <trkpt lat="42.916621" lon="-3.314508">
        <ele>612.76</ele>
        <time>2021-03-27T13:00:41Z</time>
      </trkpt>
      <trkpt lat="42.916632" lon="-3.314961">
        <ele>610.64</ele>
        <time>2021-03-27T13:00:44Z</time>
      </trkpt>
      <trkpt lat="42.916798" lon="-3.315713">
        <ele>610.83</ele>
        <time>2021-03-27T13:00:47Z</time>
      </trkpt>
      <trkpt lat="42.917356" lon="-3.318023">
        <ele>612.78</ele>
        <time>2021-03-27T13:00:51Z</time>
      </trkpt>
      <trkpt lat="42.917375" lon="-3.318302">
        <ele>615.77</ele>
        <time>2021-03-27T13:00:54Z</time>
      </trkpt>
      <trkpt lat="42.917323" lon="-3.318595">
        <ele>616.83</ele>
        <time>2021-03-27T13:00:58Z</time>
      </trkpt>
      <trkpt lat="42.917261" lon="-3.318733">
        <ele>615.73</ele>
        <time>2021-03-27T13:01:01Z</time>
      </trkpt>
      <trkpt lat="42.917134" lon="-3.318942">
        <ele>613.83</ele>
        <time>2021-03-27T13:01:04Z</time>
      </trkpt>
      <trkpt lat="42.916481" lon="-3.319844">
        <ele>604.69</ele>
        <time>2021-03-27T13:01:08Z</time>
      </trkpt>
      <trkpt lat="42.916448" lon="-3.319888">
        <ele>604.97</ele>
        <time>2021-03-27T13:01:11Z</time>
      </trkpt>
      <trkpt lat="42.91619" lon="-3.320105">
        <ele>605.6</ele>
        <time>2021-03-27T13:01:15Z</time>
      </trkpt>
      <trkpt lat="42.915932" lon="-3.320252">
        <ele>605.49</ele>
        <time>2021-03-27T13:01:18Z</time>
      </trkpt>
      <trkpt lat="42.915623" lon="-3.320398">
        <ele>605.44</ele>
        <time>2021-03-27T13:01:21Z</time>
      </trkpt>
      <trkpt lat="42.915466" lon="-3.320428">
        <ele>605.98</ele>
        <time>2021-03-27T13:01:25Z</time>
      </trkpt>
      <trkpt lat="42.914674" lon="-3.320434">
        <ele>610.0</ele>
        <time>2021-03-27T13:01:28Z</time>
      </trkpt>
      <trkpt lat="42.914402" lon="-3.320393">
        <ele>611.03</ele>
        <time>2021-03-27T13:01:31Z</time>
      </trkpt>
      <trkpt lat="42.914294" lon="-3.320339">
        <ele>611.96</ele>
        <time>2021-03-27T13:01:35Z</time>
      </trkpt>
      <trkpt lat="42.914169" lon="-3.32023">
        <ele>611.1</ele>
        <time>2021-03-27T13:01:38Z</time>
      </trkpt>
      <trkpt lat="42.913564" lon="-3.319452">
        <ele>615.78</ele>
        <time>2021-03-27T13:01:42Z</time>
      </trkpt>
      <trkpt lat="42.913502" lon="-3.319341">
        <ele>614.85</ele>
        <time>2021-03-27T13:01:45Z</time>
      </trkpt>
      <trkpt lat="42.912992" lon="-3.318088">
        <ele>608.43</ele>
        <time>2021-03-27T13:01:48Z</time>
      </trkpt>
      <trkpt lat="42.912895" lon="-3.317876">
        <ele>608.97</ele>
        <time>2021-03-27T13:01:52Z</time>
      </trkpt>
      <trkpt lat="42.912734" lon="-3.317637">
        <ele>609.99</ele>
        <time>2021-03-27T13:01:55Z</time>
      </trkpt>
      <trkpt lat="42.912615" lon="-3.317548">
        <ele>608.96</ele>
        <time>2021-03-27T13:01:59Z</time>
      </trkpt>
      <trkpt lat="42.910703" lon="-3.316449">
        <ele>603.1</ele>
        <time>2021-03-27T13:02:02Z</time>
      </trkpt>
      <trkpt lat="42.909369" lon="-3.315658">
        <ele>604.28</ele>
        <time>2021-03-27T13:02:05Z</time>
      </trkpt>
      <trkpt lat="42.909249" lon="-3.315606">
        <ele>604.77</ele>
        <time>2021-03-27T13:02:09Z</time>
      </trkpt>
      <trkpt lat="42.909013" lon="-3.315565">
        <ele>605.66</ele>
        <time>2021-03-27T13:02:12Z</time>
      </trkpt>
      <trkpt lat="42.90874" lon="-3.315601">
        <ele>607.01</ele>
        <time>2021-03-27T13:02:15Z</time>
      </trkpt>
      <trkpt lat="42.908474" lon="-3.315763">
        <ele>607.26</ele>
        <time>2021-03-27T13:02:19Z</time>
      </trkpt>
      <trkpt lat="42.908357" lon="-3.315872">
        <ele>606.15</ele>
        <time>2021-03-27T13:02:22Z</time>
      </trkpt>
      <trkpt lat="42.908232" lon="-3.316026">
        <ele>603.85</ele>
        <time>2021-03-27T13:02:26Z</time>
      </trkpt>
      <trkpt lat="42.907603" lon="-3.316938">
        <ele>601.41</ele>
        <time>2021-03-27T13:02:29Z</time>
      </trkpt>
      <trkpt lat="42.907408" lon="-3.317136">
        <ele>604.11</ele>
        <time>2021-03-27T13:02:32Z</time>
      </trkpt>
      <trkpt lat="42.90628" lon="-3.317572">
        <ele>605.54</ele>
        <time>2021-03-27T13:02:36Z</time>
      </trkpt>
      <trkpt lat="42.906011" lon="-3.317632">
        <ele>608.44</ele>
        <time>2021-03-27T13:02:39Z</time>
      </trkpt>
      <trkpt lat="42.905886" lon="-3.317608">
        <ele>609.18</ele>
        <time>2021-03-27T13:02:42Z</time>
      </trkpt>
      <trkpt lat="42.905721" lon="-3.317507">
        <ele>608.4</ele>
        <time>2021-03-27T13:02:46Z</time>
      </trkpt>
      <trkpt lat="42.904544" lon="-3.316661">
        <ele>610.2</ele>
        <time>2021-03-27T13:02:49Z</time>
      </trkpt>
      <trkpt lat="42.904289" lon="-3.316433">
        <ele>609.97</ele>
        <time>2021-03-27T13:02:53Z</time>
      </trkpt>
      <trkpt lat="42.903619" lon="-3.31575">
        <ele>609.37</ele>
        <time>2021-03-27T13:02:56Z</time>
      </trkpt>
      <trkpt lat="42.903367" lon="-3.315519">
        <ele>608.77</ele>
        <time>2021-03-27T13:02:59Z</time>
      </trkpt>
      <trkpt lat="42.903234" lon="-3.315443">
        <ele>608.44</ele>
        <time>2021-03-27T13:03:03Z</time>
      </trkpt>
      <trkpt lat="42.903093" lon="-3.315411">
        <ele>609.06</ele>
        <time>2021-03-27T13:03:06Z</time>
      </trkpt>
      <trkpt lat="42.90296" lon="-3.31543">
        <ele>608.86</ele>
        <time>2021-03-27T13:03:10Z</time>
      </trkpt>
      <trkpt lat="42.902832" lon="-3.315481">
        <ele>608.47</ele>
        <time>2021-03-27T13:03:13Z</time>
      </trkpt>
      <trkpt lat="42.902564" lon="-3.315677">
        <ele>608.21</ele>
        <time>2021-03-27T13:03:16Z</time>
      </trkpt>
      <trkpt lat="42.902057" lon="-3.316148">
        <ele>606.18</ele>
        <time>2021-03-27T13:03:20Z</time>
      </trkpt>
      <trkpt lat="42.901853" lon="-3.316455">
        <ele>607.96</ele>
        <time>2021-03-27T13:03:23Z</time>
      </trkpt>
      <trkpt lat="42.901737" lon="-3.316588">
        <ele>608.01</ele>
        <time>2021-03-27T13:03:26Z</time>
      </trkpt>
      <trkpt lat="42.901609" lon="-3.316675">
        <ele>607.44</ele>
        <time>2021-03-27T13:03:30Z</time>
      </trkpt>
      <trkpt lat="42.901387" lon="-3.316764">
        <ele>607.15</ele>
        <time>2021-03-27T13:03:33Z</time>
      </trkpt>
      <trkpt lat="42.900771" lon="-3.316908">
        <ele>606.12</ele>
        <time>2021-03-27T13:03:37Z</time>
      </trkpt>
      <trkpt lat="42.900359" lon="-3.316965">
        <ele>606.84</ele>
        <time>2021-03-27T13:03:40Z</time>
      </trkpt>
      <trkpt lat="42.900138" lon="-3.316936">
        <ele>606.84</ele>
        <time>2021-03-27T13:03:43Z</time>
      </trkpt>
      <trkpt lat="42.899355" lon="-3.316696">
        <ele>603.4</ele>
        <time>2021-03-27T13:03:47Z</time>
      </trkpt>
      <trkpt lat="42.899141" lon="-3.316612">
        <ele>600.57</ele>
        <time>2021-03-27T13:03:50Z</time>
      </trkpt>
      <trkpt lat="42.898729" lon="-3.316513">
        <ele>600.05</ele>
        <time>2021-03-27T13:03:54Z</time>
      </trkpt>
      <trkpt lat="42.897685" lon="-3.316509">
        <ele>603.78</ele>
        <time>2021-03-27T13:03:57Z</time>
      </trkpt>
      <trkpt lat="42.897288" lon="-3.316568">
        <ele>602.38</ele>
        <time>2021-03-27T13:04:00Z</time>
      </trkpt>
      <trkpt lat="42.897137" lon="-3.316638">
        <ele>601.89</ele>
        <time>2021-03-27T13:04:04Z</time>
      </trkpt>
      <trkpt lat="42.896817" lon="-3.316888">
        <ele>611.07</ele>
        <time>2021-03-27T13:04:07Z</time>
      </trkpt>
      <trkpt lat="42.8966" lon="-3.317005">
        <ele>614.27</ele>
        <time>2021-03-27T13:04:10Z</time>
      </trkpt>
      <trkpt lat="42.895975" lon="-3.317178">
        <ele>605.43</ele>
        <time>2021-03-27T13:04:14Z</time>
      </trkpt>
      <trkpt lat="42.895326" lon="-3.317558">
        <ele>612.84</ele>
        <time>2021-03-27T13:04:17Z</time>
      </trkpt>
      <trkpt lat="42.895154" lon="-3.317627">
        <ele>611.62</ele>
        <time>2021-03-27T13:04:21Z</time>
      </trkpt>
      <trkpt lat="42.894381" lon="-3.317794">
        <ele>607.58</ele>
        <time>2021-03-27T13:04:24Z</time>
      </trkpt>
      <trkpt lat="42.894214" lon="-3.317855">
        <ele>611.26</ele>
        <time>2021-03-27T13:04:27Z</time>
      </trkpt>
      <trkpt lat="42.894062" lon="-3.317946">
        <ele>611.07</ele>
        <time>2021-03-27T13:04:31Z</time>
      </trkpt>
      <trkpt lat="42.8938" lon="-3.318187">
        <ele>609.44</ele>
        <time>2021-03-27T13:04:34Z</time>
      </trkpt>
      <trkpt lat="42.893564" lon="-3.318457">
        <ele>609.19</ele>
        <time>2021-03-27T13:04:37Z</time>
      </trkpt>
      <trkpt lat="42.893258" lon="-3.318761">
        <ele>611.37</ele>
        <time>2021-03-27T13:04:41Z</time>
      </trkpt>
      <trkpt lat="42.892581" lon="-3.319305">
        <ele>616.69</ele>
        <time>2021-03-27T13:04:44Z</time>
      </trkpt>
      <trkpt lat="42.892288" lon="-3.319435">
        <ele>616.08</ele>
        <time>2021-03-27T13:04:48Z</time>
      </trkpt>
      <trkpt lat="42.891978" lon="-3.319516">
        <ele>614.96</ele>
        <time>2021-03-27T13:04:51Z</time>
      </trkpt>
      <trkpt lat="42.891139" lon="-3.319649">
        <ele>605.38</ele>
        <time>2021-03-27T13:04:54Z</time>
      </trkpt>
      <trkpt lat="42.891009" lon="-3.319704">
        <ele>603.52</ele>
        <time>2021-03-27T13:04:58Z</time>
      </trkpt>
      <trkpt lat="42.890888" lon="-3.319782">
        <ele>603.17</ele>
        <time>2021-03-27T13:05:01Z</time>
      </trkpt>
      <trkpt lat="42.890771" lon="-3.319903">
        <ele>603.93</ele>
        <time>2021-03-27T13:05:05Z</time>
      </trkpt>
      <trkpt lat="42.890594" lon="-3.31998">
        <ele>602.39</ele>
        <time>2021-03-27T13:05:08Z</time>
      </trkpt>
      <trkpt lat="42.890322" lon="-3.320067">
        <ele>601.6</ele>
        <time>2021-03-27T13:05:11Z</time>
      </trkpt>
      <trkpt lat="42.89004" lon="-3.320121">
        <ele>600.85</ele>
        <time>2021-03-27T13:05:15Z</time>
      </trkpt>
      <trkpt lat="42.889657" lon="-3.320271">
        <ele>601.18</ele>
        <time>2021-03-27T13:05:18Z</time>
      </trkpt>
      <trkpt lat="42.889436" lon="-3.320318">
        <ele>600.18</ele>
        <time>2021-03-27T13:05:21Z</time>
      </trkpt>
      <trkpt lat="42.889088" lon="-3.320303">
        <ele>594.75</ele>
        <time>2021-03-27T13:05:25Z</time>
      </trkpt>
      <trkpt lat="42.888901" lon="-3.32035">
        <ele>593.46</ele>
        <time>2021-03-27T13:05:28Z</time>
      </trkpt>
      <trkpt lat="42.888617" lon="-3.320577">
        <ele>593.41</ele>
        <time>2021-03-27T13:05:32Z</time>
      </trkpt>
      <trkpt lat="42.887767" lon="-3.321375">
        <ele>593.73</ele>
        <time>2021-03-27T13:05:35Z</time>
      </trkpt>
      <trkpt lat="42.887657" lon="-3.321437">
        <ele>594.35</ele>
        <time>2021-03-27T13:05:38Z</time>
      </trkpt>
      <trkpt lat="42.887471" lon="-3.32147">
        <ele>594.8</ele>
        <time>2021-03-27T13:05:42Z</time>
      </trkpt>
      <trkpt lat="42.887347" lon="-3.321429">
        <ele>596.95</ele>
        <time>2021-03-27T13:05:45Z</time>
      </trkpt>
      <trkpt lat="42.886402" lon="-3.320662">
        <ele>591.29</ele>
        <time>2021-03-27T13:05:48Z</time>
      </trkpt>
      <trkpt lat="42.88621" lon="-3.320615">
        <ele>589.88</ele>
        <time>2021-03-27T13:05:52Z</time>
      </trkpt>
      <trkpt lat="42.886027" lon="-3.320658">
        <ele>589.88</ele>
        <time>2021-03-27T13:05:55Z</time>
      </trkpt>
      <trkpt lat="42.885842" lon="-3.320776">
        <ele>589.84</ele>
        <time>2021-03-27T13:05:59Z</time>
      </trkpt>
      <trkpt lat="42.885715" lon="-3.320924">
        <ele>589.43</ele>
        <time>2021-03-27T13:06:02Z</time>
      </trkpt>
      <trkpt lat="42.885649" lon="-3.321038">
        <ele>589.25</ele>
        <time>2021-03-27T13:06:05Z</time>
      </trkpt>
      <trkpt lat="42.885258" lon="-3.321953">
        <ele>588.89</ele>
        <time>2021-03-27T13:06:09Z</time>
      </trkpt>
      <trkpt lat="42.88451" lon="-3.323781">
        <ele>587.98</ele>
        <time>2021-03-27T13:06:12Z</time>
      </trkpt>
      <trkpt lat="42.884348" lon="-3.324086">
        <ele>591.28</ele>
        <time>2021-03-27T13:06:16Z</time>
      </trkpt>
      <trkpt lat="42.884283" lon="-3.324169">
        <ele>591.54</ele>
        <time>2021-03-27T13:06:19Z</time>
      </trkpt>
      <trkpt lat="42.884283" lon="-3.324169">
        <ele>591.54</ele>
        <time>2021-03-27T13:06:19Z</time>
      </trkpt>
      <trkpt lat="42.884146" lon="-3.324301">
        <ele>592.64</ele>
        <time>2021-03-27T13:06:22Z</time>
      </trkpt>
      <trkpt lat="42.883703" lon="-3.324533">
        <ele>594.85</ele>
        <time>2021-03-27T13:06:25Z</time>
      </trkpt>
      <trkpt lat="42.882938" lon="-3.325092">
        <ele>593.23</ele>
        <time>2021-03-27T13:06:28Z</time>
      </trkpt>
      <trkpt lat="42.882752" lon="-3.325202">
        <ele>588.2</ele>
        <time>2021-03-27T13:06:32Z</time>
      </trkpt>
      <trkpt lat="42.881672" lon="-3.325637">
        <ele>587.08</ele>
        <time>2021-03-27T13:06:35Z</time>
      </trkpt>
      <trkpt lat="42.881442" lon="-3.325693">
        <ele>590.87</ele>
        <time>2021-03-27T13:06:38Z</time>
      </trkpt>
      <trkpt lat="42.881033" lon="-3.325642">
        <ele>592.72</ele>
        <time>2021-03-27T13:06:41Z</time>
      </trkpt>
      <trkpt lat="42.880785" lon="-3.325647">
        <ele>593.91</ele>
        <time>2021-03-27T13:06:44Z</time>
      </trkpt>
      <trkpt lat="42.880123" lon="-3.325724">
        <ele>590.35</ele>
        <time>2021-03-27T13:06:47Z</time>
      </trkpt>
      <trkpt lat="42.879755" lon="-3.325825">
        <ele>590.16</ele>
        <time>2021-03-27T13:06:50Z</time>
      </trkpt>
      <trkpt lat="42.879555" lon="-3.325922">
        <ele>589.16</ele>
        <time>2021-03-27T13:06:54Z</time>
      </trkpt>
      <trkpt lat="42.879348" lon="-3.326056">
        <ele>587.93</ele>
        <time>2021-03-27T13:06:57Z</time>
      </trkpt>
      <trkpt lat="42.879106" lon="-3.326264">
        <ele>586.41</ele>
        <time>2021-03-27T13:07:00Z</time>
      </trkpt>
      <trkpt lat="42.878935" lon="-3.326459">
        <ele>585.49</ele>
        <time>2021-03-27T13:07:03Z</time>
      </trkpt>
      <trkpt lat="42.876985" lon="-3.328916">
        <ele>585.82</ele>
        <time>2021-03-27T13:07:06Z</time>
      </trkpt>
      <trkpt lat="42.876537" lon="-3.329231">
        <ele>584.01</ele>
        <time>2021-03-27T13:07:09Z</time>
      </trkpt>
      <trkpt lat="42.876228" lon="-3.329633">
        <ele>583.71</ele>
        <time>2021-03-27T13:07:13Z</time>
      </trkpt>
      <trkpt lat="42.876012" lon="-3.330065">
        <ele>582.81</ele>
        <time>2021-03-27T13:07:16Z</time>
      </trkpt>
      <trkpt lat="42.875815" lon="-3.330313">
        <ele>581.06</ele>
        <time>2021-03-27T13:07:19Z</time>
      </trkpt>
      <trkpt lat="42.875708" lon="-3.3304">
        <ele>580.52</ele>
        <time>2021-03-27T13:07:22Z</time>
      </trkpt>
      <trkpt lat="42.874822" lon="-3.330931">
        <ele>581.42</ele>
        <time>2021-03-27T13:07:25Z</time>
      </trkpt>
      <trkpt lat="42.87459" lon="-3.331115">
        <ele>581.6</ele>
        <time>2021-03-27T13:07:28Z</time>
      </trkpt>
      <trkpt lat="42.874279" lon="-3.331498">
        <ele>580.01</ele>
        <time>2021-03-27T13:07:31Z</time>
      </trkpt>
      <trkpt lat="42.873446" lon="-3.332665">
        <ele>580.24</ele>
        <time>2021-03-27T13:07:35Z</time>
      </trkpt>
      <trkpt lat="42.873122" lon="-3.333065">
        <ele>578.49</ele>
        <time>2021-03-27T13:07:38Z</time>
      </trkpt>
      <trkpt lat="42.872151" lon="-3.334025">
        <ele>578.98</ele>
        <time>2021-03-27T13:07:41Z</time>
      </trkpt>
      <trkpt lat="42.871782" lon="-3.334331">
        <ele>580.42</ele>
        <time>2021-03-27T13:07:44Z</time>
      </trkpt>
      <trkpt lat="42.870365" lon="-3.335311">
        <ele>579.34</ele>
        <time>2021-03-27T13:07:47Z</time>
      </trkpt>
      <trkpt lat="42.870159" lon="-3.335445">
        <ele>580.5</ele>
        <time>2021-03-27T13:07:50Z</time>
      </trkpt>
      <trkpt lat="42.86996" lon="-3.335528">
        <ele>580.37</ele>
        <time>2021-03-27T13:07:54Z</time>
      </trkpt>
      <trkpt lat="42.869703" lon="-3.335569">
        <ele>580.22</ele>
        <time>2021-03-27T13:07:57Z</time>
      </trkpt>
      <trkpt lat="42.869187" lon="-3.335552">
        <ele>578.97</ele>
        <time>2021-03-27T13:08:00Z</time>
      </trkpt>
      <trkpt lat="42.868917" lon="-3.335483">
        <ele>578.91</ele>
        <time>2021-03-27T13:08:03Z</time>
      </trkpt>
      <trkpt lat="42.868813" lon="-3.335431">
        <ele>579.03</ele>
        <time>2021-03-27T13:08:06Z</time>
      </trkpt>
      <trkpt lat="42.868461" lon="-3.335148">
        <ele>579.26</ele>
        <time>2021-03-27T13:08:09Z</time>
      </trkpt>
      <trkpt lat="42.868292" lon="-3.335066">
        <ele>579.23</ele>
        <time>2021-03-27T13:08:12Z</time>
      </trkpt>
      <trkpt lat="42.867479" lon="-3.334851">
        <ele>580.29</ele>
        <time>2021-03-27T13:08:16Z</time>
      </trkpt>
      <trkpt lat="42.866067" lon="-3.334326">
        <ele>580.61</ele>
        <time>2021-03-27T13:08:19Z</time>
      </trkpt>
      <trkpt lat="42.865791" lon="-3.33426">
        <ele>581.54</ele>
        <time>2021-03-27T13:08:22Z</time>
      </trkpt>
      <trkpt lat="42.864661" lon="-3.334131">
        <ele>580.07</ele>
        <time>2021-03-27T13:08:25Z</time>
      </trkpt>
      <trkpt lat="42.864369" lon="-3.334151">
        <ele>578.57</ele>
        <time>2021-03-27T13:08:28Z</time>
      </trkpt>
      <trkpt lat="42.864087" lon="-3.334242">
        <ele>579.01</ele>
        <time>2021-03-27T13:08:31Z</time>
      </trkpt>
      <trkpt lat="42.862201" lon="-3.335146">
        <ele>572.15</ele>
        <time>2021-03-27T13:08:35Z</time>
      </trkpt>
      <trkpt lat="42.861929" lon="-3.335246">
        <ele>574.05</ele>
        <time>2021-03-27T13:08:38Z</time>
      </trkpt>
      <trkpt lat="42.861682" lon="-3.3353">
        <ele>575.27</ele>
        <time>2021-03-27T13:08:41Z</time>
      </trkpt>
      <trkpt lat="42.861427" lon="-3.33529">
        <ele>574.28</ele>
        <time>2021-03-27T13:08:44Z</time>
      </trkpt>
      <trkpt lat="42.85853" lon="-3.33497">
        <ele>572.6</ele>
        <time>2021-03-27T13:08:47Z</time>
      </trkpt>
      <trkpt lat="42.858316" lon="-3.334911">
        <ele>573.97</ele>
        <time>2021-03-27T13:08:50Z</time>
      </trkpt>
      <trkpt lat="42.858023" lon="-3.334736">
        <ele>574.16</ele>
        <time>2021-03-27T13:08:53Z</time>
      </trkpt>
      <trkpt lat="42.857785" lon="-3.334488">
        <ele>574.8</ele>
        <time>2021-03-27T13:08:57Z</time>
      </trkpt>
      <trkpt lat="42.857273" lon="-3.333785">
        <ele>572.75</ele>
        <time>2021-03-27T13:09:00Z</time>
      </trkpt>
      <trkpt lat="42.857142" lon="-3.33363">
        <ele>573.88</ele>
        <time>2021-03-27T13:09:03Z</time>
      </trkpt>
      <trkpt lat="42.856891" lon="-3.333392">
        <ele>574.02</ele>
        <time>2021-03-27T13:09:06Z</time>
      </trkpt>
      <trkpt lat="42.855667" lon="-3.332341">
        <ele>571.26</ele>
        <time>2021-03-27T13:09:09Z</time>
      </trkpt>
      <trkpt lat="42.855459" lon="-3.332202">
        <ele>571.32</ele>
        <time>2021-03-27T13:09:12Z</time>
      </trkpt>
      <trkpt lat="42.855348" lon="-3.332163">
        <ele>571.59</ele>
        <time>2021-03-27T13:09:16Z</time>
      </trkpt>
      <trkpt lat="42.855227" lon="-3.332146">
        <ele>571.54</ele>
        <time>2021-03-27T13:09:19Z</time>
      </trkpt>
      <trkpt lat="42.855044" lon="-3.332174">
        <ele>570.99</ele>
        <time>2021-03-27T13:09:22Z</time>
      </trkpt>
      <trkpt lat="42.854876" lon="-3.332236">
        <ele>570.24</ele>
        <time>2021-03-27T13:09:25Z</time>
      </trkpt>
      <trkpt lat="42.851492" lon="-3.333839">
        <ele>569.0</ele>
        <time>2021-03-27T13:09:28Z</time>
      </trkpt>
      <trkpt lat="42.85139" lon="-3.333679">
        <ele>569.0</ele>
        <time>2021-03-27T13:09:33Z</time>
      </trkpt>
      <trkpt lat="42.850115" lon="-3.332347">
        <ele>565.26</ele>
        <time>2021-03-27T13:09:38Z</time>
      </trkpt>
      <trkpt lat="42.849485" lon="-3.331631">
        <ele>565.98</ele>
        <time>2021-03-27T13:09:42Z</time>
      </trkpt>
      <trkpt lat="42.848557" lon="-3.330681">
        <ele>574.18</ele>
        <time>2021-03-27T13:09:47Z</time>
      </trkpt>
      <trkpt lat="42.8484" lon="-3.330463">
        <ele>575.65</ele>
        <time>2021-03-27T13:09:52Z</time>
      </trkpt>
      <trkpt lat="42.848324" lon="-3.330284">
        <ele>575.91</ele>
        <time>2021-03-27T13:09:57Z</time>
      </trkpt>
      <trkpt lat="42.848291" lon="-3.330183">
        <ele>575.64</ele>
        <time>2021-03-27T13:10:01Z</time>
      </trkpt>
      <trkpt lat="42.848273" lon="-3.330011">
        <ele>575.35</ele>
        <time>2021-03-27T13:10:06Z</time>
      </trkpt>
      <trkpt lat="42.848282" lon="-3.329817">
        <ele>576.52</ele>
        <time>2021-03-27T13:10:11Z</time>
      </trkpt>
      <trkpt lat="42.848516" lon="-3.328279">
        <ele>580.22</ele>
        <time>2021-03-27T13:10:15Z</time>
      </trkpt>
      <trkpt lat="42.848502" lon="-3.327963">
        <ele>579.78</ele>
        <time>2021-03-27T13:10:20Z</time>
      </trkpt>
      <trkpt lat="42.848431" lon="-3.327635">
        <ele>579.09</ele>
        <time>2021-03-27T13:10:25Z</time>
      </trkpt>
      <trkpt lat="42.847735" lon="-3.325082">
        <ele>578.04</ele>
        <time>2021-03-27T13:10:30Z</time>
      </trkpt>
      <trkpt lat="42.847627" lon="-3.32454">
        <ele>580.8</ele>
        <time>2021-03-27T13:10:34Z</time>
      </trkpt>
      <trkpt lat="42.847255" lon="-3.322245">
        <ele>576.48</ele>
        <time>2021-03-27T13:10:39Z</time>
      </trkpt>
      <trkpt lat="42.8472" lon="-3.322028">
        <ele>576.64</ele>
        <time>2021-03-27T13:10:44Z</time>
      </trkpt>
      <trkpt lat="42.846725" lon="-3.320569">
        <ele>584.93</ele>
        <time>2021-03-27T13:10:49Z</time>
      </trkpt>
      <trkpt lat="42.845566" lon="-3.317757">
        <ele>584.19</ele>
        <time>2021-03-27T13:10:53Z</time>
      </trkpt>
      <trkpt lat="42.845387" lon="-3.317362">
        <ele>586.99</ele>
        <time>2021-03-27T13:10:58Z</time>
      </trkpt>
      <trkpt lat="42.844491" lon="-3.315665">
        <ele>588.04</ele>
        <time>2021-03-27T13:11:03Z</time>
      </trkpt>
      <trkpt lat="42.844413" lon="-3.315418">
        <ele>588.38</ele>
        <time>2021-03-27T13:11:08Z</time>
      </trkpt>
      <trkpt lat="42.844408" lon="-3.315296">
        <ele>588.69</ele>
        <time>2021-03-27T13:11:12Z</time>
      </trkpt>
      <trkpt lat="42.844424" lon="-3.315142">
        <ele>588.86</ele>
        <time>2021-03-27T13:11:17Z</time>
      </trkpt>
      <trkpt lat="42.844699" lon="-3.314336">
        <ele>591.0</ele>
        <time>2021-03-27T13:11:22Z</time>
      </trkpt>
      <trkpt lat="42.844925" lon="-3.313786">
        <ele>591.36</ele>
        <time>2021-03-27T13:11:27Z</time>
      </trkpt>
      <trkpt lat="42.845155" lon="-3.313295">
        <ele>592.97</ele>
        <time>2021-03-27T13:11:31Z</time>
      </trkpt>
      <trkpt lat="42.845276" lon="-3.313107">
        <ele>593.17</ele>
        <time>2021-03-27T13:11:36Z</time>
      </trkpt>
      <trkpt lat="42.84543" lon="-3.312938">
        <ele>593.44</ele>
        <time>2021-03-27T13:11:41Z</time>
      </trkpt>
      <trkpt lat="42.847184" lon="-3.311629">
        <ele>603.63</ele>
        <time>2021-03-27T13:11:45Z</time>
      </trkpt>
      <trkpt lat="42.847581" lon="-3.311356">
        <ele>604.66</ele>
        <time>2021-03-27T13:11:50Z</time>
      </trkpt>
      <trkpt lat="42.84771" lon="-3.311228">
        <ele>604.54</ele>
        <time>2021-03-27T13:11:55Z</time>
      </trkpt>
      <trkpt lat="42.847928" lon="-3.310927">
        <ele>604.51</ele>
        <time>2021-03-27T13:12:00Z</time>
      </trkpt>
      <trkpt lat="42.849548" lon="-3.307703">
        <ele>613.63</ele>
        <time>2021-03-27T13:12:04Z</time>
      </trkpt>
      <trkpt lat="42.849648" lon="-3.307467">
        <ele>613.23</ele>
        <time>2021-03-27T13:12:09Z</time>
      </trkpt>
      <trkpt lat="42.849662" lon="-3.307295">
        <ele>613.06</ele>
        <time>2021-03-27T13:12:14Z</time>
      </trkpt>
      <trkpt lat="42.849629" lon="-3.307119">
        <ele>612.63</ele>
        <time>2021-03-27T13:12:19Z</time>
      </trkpt>
      <trkpt lat="42.849563" lon="-3.306919">
        <ele>611.82</ele>
        <time>2021-03-27T13:12:23Z</time>
      </trkpt>
      <trkpt lat="42.849439" lon="-3.306706">
        <ele>610.32</ele>
        <time>2021-03-27T13:12:28Z</time>
      </trkpt>
      <trkpt lat="42.849232" lon="-3.306465">
        <ele>610.24</ele>
        <time>2021-03-27T13:12:33Z</time>
      </trkpt>
      <trkpt lat="42.848063" lon="-3.305382">
        <ele>606.61</ele>
        <time>2021-03-27T13:12:38Z</time>
      </trkpt>
      <trkpt lat="42.84734" lon="-3.304683">
        <ele>609.72</ele>
        <time>2021-03-27T13:12:42Z</time>
      </trkpt>
      <trkpt lat="42.847233" lon="-3.304548">
        <ele>610.89</ele>
        <time>2021-03-27T13:12:47Z</time>
      </trkpt>
      <trkpt lat="42.847111" lon="-3.304329">
        <ele>612.44</ele>
        <time>2021-03-27T13:12:52Z</time>
      </trkpt>
      <trkpt lat="42.846261" lon="-3.302481">
        <ele>615.41</ele>
        <time>2021-03-27T13:12:56Z</time>
      </trkpt>
      <trkpt lat="42.846098" lon="-3.302006">
        <ele>617.37</ele>
        <time>2021-03-27T13:13:01Z</time>
      </trkpt>
      <trkpt lat="42.845481" lon="-3.299312">
        <ele>618.62</ele>
        <time>2021-03-27T13:13:06Z</time>
      </trkpt>
      <trkpt lat="42.845423" lon="-3.298965">
        <ele>619.73</ele>
        <time>2021-03-27T13:13:11Z</time>
      </trkpt>
      <trkpt lat="42.845419" lon="-3.298705">
        <ele>621.32</ele>
        <time>2021-03-27T13:13:15Z</time>
      </trkpt>
      <trkpt lat="42.845439" lon="-3.298417">
        <ele>623.81</ele>
        <time>2021-03-27T13:13:20Z</time>
      </trkpt>
      <trkpt lat="42.845531" lon="-3.297794">
        <ele>626.77</ele>
        <time>2021-03-27T13:13:25Z</time>
      </trkpt>
      <trkpt lat="42.845919" lon="-3.2964">
        <ele>630.27</ele>
        <time>2021-03-27T13:13:30Z</time>
      </trkpt>
      <trkpt lat="42.845975" lon="-3.296143">
        <ele>630.15</ele>
        <time>2021-03-27T13:13:34Z</time>
      </trkpt>
      <trkpt lat="42.846319" lon="-3.293316">
        <ele>635.74</ele>
        <time>2021-03-27T13:13:39Z</time>
      </trkpt>
      <trkpt lat="42.846356" lon="-3.293137">
        <ele>636.4</ele>
        <time>2021-03-27T13:13:44Z</time>
      </trkpt>
      <trkpt lat="42.846422" lon="-3.292968">
        <ele>637.32</ele>
        <time>2021-03-27T13:13:49Z</time>
      </trkpt>
      <trkpt lat="42.846539" lon="-3.292808">
        <ele>638.14</ele>
        <time>2021-03-27T13:13:53Z</time>
      </trkpt>
      <trkpt lat="42.846962" lon="-3.292373">
        <ele>640.89</ele>
        <time>2021-03-27T13:13:58Z</time>
      </trkpt>
      <trkpt lat="42.847127" lon="-3.292113">
        <ele>643.56</ele>
        <time>2021-03-27T13:14:03Z</time>
      </trkpt>
      <trkpt lat="42.847251" lon="-3.29169">
        <ele>645.93</ele>
        <time>2021-03-27T13:14:07Z</time>
      </trkpt>
      <trkpt lat="42.847513" lon="-3.290516">
        <ele>646.58</ele>
        <time>2021-03-27T13:14:12Z</time>
      </trkpt>
      <trkpt lat="42.847543" lon="-3.290315">
        <ele>647.87</ele>
        <time>2021-03-27T13:14:17Z</time>
      </trkpt>
      <trkpt lat="42.847545" lon="-3.29009">
        <ele>647.75</ele>
        <time>2021-03-27T13:14:22Z</time>
      </trkpt>
      <trkpt lat="42.847522" lon="-3.289802">
        <ele>647.26</ele>
        <time>2021-03-27T13:14:26Z</time>
      </trkpt>
      <trkpt lat="42.847437" lon="-3.289154">
        <ele>645.98</ele>
        <time>2021-03-27T13:14:31Z</time>
      </trkpt>
      <trkpt lat="42.847442" lon="-3.289003">
        <ele>645.75</ele>
        <time>2021-03-27T13:14:36Z</time>
      </trkpt>
      <trkpt lat="42.847669" lon="-3.287453">
        <ele>651.43</ele>
        <time>2021-03-27T13:14:41Z</time>
      </trkpt>
      <trkpt lat="42.847699" lon="-3.287165">
        <ele>651.57</ele>
        <time>2021-03-27T13:14:45Z</time>
      </trkpt>
      <trkpt lat="42.847699" lon="-3.286959">
        <ele>650.51</ele>
        <time>2021-03-27T13:14:50Z</time>
      </trkpt>
      <trkpt lat="42.847657" lon="-3.286659">
        <ele>649.15</ele>
        <time>2021-03-27T13:14:55Z</time>
      </trkpt>
      <trkpt lat="42.847364" lon="-3.28528">
        <ele>654.94</ele>
        <time>2021-03-27T13:15:00Z</time>
      </trkpt>
      <trkpt lat="42.847302" lon="-3.285076">
        <ele>656.28</ele>
        <time>2021-03-27T13:15:04Z</time>
      </trkpt>
      <trkpt lat="42.847141" lon="-3.284723">
        <ele>658.88</ele>
        <time>2021-03-27T13:15:09Z</time>
      </trkpt>
      <trkpt lat="42.846457" lon="-3.283529">
        <ele>662.03</ele>
        <time>2021-03-27T13:15:14Z</time>
      </trkpt>
      <trkpt lat="42.845738" lon="-3.281585">
        <ele>663.81</ele>
        <time>2021-03-27T13:15:18Z</time>
      </trkpt>
      <trkpt lat="42.845637" lon="-3.281347">
        <ele>663.6</ele>
        <time>2021-03-27T13:15:23Z</time>
      </trkpt>
      <trkpt lat="42.845236" lon="-3.280594">
        <ele>662.14</ele>
        <time>2021-03-27T13:15:28Z</time>
      </trkpt>
      <trkpt lat="42.844689" lon="-3.279615">
        <ele>661.78</ele>
        <time>2021-03-27T13:15:33Z</time>
      </trkpt>
      <trkpt lat="42.843777" lon="-3.278256">
        <ele>660.15</ele>
        <time>2021-03-27T13:15:37Z</time>
      </trkpt>
      <trkpt lat="42.84355" lon="-3.277962">
        <ele>659.73</ele>
        <time>2021-03-27T13:15:42Z</time>
      </trkpt>
      <trkpt lat="42.838078" lon="-3.272951">
        <ele>651.84</ele>
        <time>2021-03-27T13:15:47Z</time>
      </trkpt>
      <trkpt lat="42.836703" lon="-3.27121">
        <ele>658.87</ele>
        <time>2021-03-27T13:15:52Z</time>
      </trkpt>
      <trkpt lat="42.834101" lon="-3.266995">
        <ele>668.05</ele>
        <time>2021-03-27T13:15:56Z</time>
      </trkpt>
      <trkpt lat="42.833968" lon="-3.266826">
        <ele>669.26</ele>
        <time>2021-03-27T13:16:01Z</time>
      </trkpt>
      <trkpt lat="42.830996" lon="-3.26376">
        <ele>668.91</ele>
        <time>2021-03-27T13:16:06Z</time>
      </trkpt>
      <trkpt lat="42.826348" lon="-3.259589">
        <ele>635.96</ele>
        <time>2021-03-27T13:16:11Z</time>
      </trkpt>
      <trkpt lat="42.826263" lon="-3.259482">
        <ele>635.11</ele>
        <time>2021-03-27T13:16:15Z</time>
      </trkpt>
      <trkpt lat="42.826205" lon="-3.259367">
        <ele>634.64</ele>
        <time>2021-03-27T13:16:20Z</time>
      </trkpt>
      <trkpt lat="42.825812" lon="-3.258177">
        <ele>627.87</ele>
        <time>2021-03-27T13:16:25Z</time>
      </trkpt>
      <trkpt lat="42.825737" lon="-3.258001">
        <ele>626.61</ele>
        <time>2021-03-27T13:16:29Z</time>
      </trkpt>
      <trkpt lat="42.82463" lon="-3.255718">
        <ele>618.51</ele>
        <time>2021-03-27T13:16:34Z</time>
      </trkpt>
      <trkpt lat="42.823229" lon="-3.253927">
        <ele>613.38</ele>
        <time>2021-03-27T13:16:39Z</time>
      </trkpt>
      <trkpt lat="42.822937" lon="-3.25363">
        <ele>614.03</ele>
        <time>2021-03-27T13:16:44Z</time>
      </trkpt>
      <trkpt lat="42.820865" lon="-3.252123">
        <ele>613.49</ele>
        <time>2021-03-27T13:16:48Z</time>
      </trkpt>
      <trkpt lat="42.820578" lon="-3.251978">
        <ele>614.85</ele>
        <time>2021-03-27T13:16:53Z</time>
      </trkpt>
      <trkpt lat="42.817714" lon="-3.250724">
        <ele>598.68</ele>
        <time>2021-03-27T13:16:58Z</time>
      </trkpt>
      <trkpt lat="42.817528" lon="-3.250627">
        <ele>597.54</ele>
        <time>2021-03-27T13:17:03Z</time>
      </trkpt>
      <trkpt lat="42.81735" lon="-3.25049">
        <ele>594.27</ele>
        <time>2021-03-27T13:17:07Z</time>
      </trkpt>
      <trkpt lat="42.814867" lon="-3.247844">
        <ele>592.8</ele>
        <time>2021-03-27T13:17:12Z</time>
      </trkpt>
      <trkpt lat="42.814608" lon="-3.247588">
        <ele>592.91</ele>
        <time>2021-03-27T13:17:17Z</time>
      </trkpt>
      <trkpt lat="42.813947" lon="-3.247004">
        <ele>594.96</ele>
        <time>2021-03-27T13:17:22Z</time>
      </trkpt>
      <trkpt lat="42.813227" lon="-3.24641">
        <ele>593.98</ele>
        <time>2021-03-27T13:17:26Z</time>
      </trkpt>
      <trkpt lat="42.813128" lon="-3.246304">
        <ele>593.56</ele>
        <time>2021-03-27T13:17:31Z</time>
      </trkpt>
      <trkpt lat="42.813029" lon="-3.246147">
        <ele>592.59</ele>
        <time>2021-03-27T13:17:36Z</time>
      </trkpt>
      <trkpt lat="42.812735" lon="-3.245449">
        <ele>586.08</ele>
        <time>2021-03-27T13:17:40Z</time>
      </trkpt>
      <trkpt lat="42.811249" lon="-3.241631">
        <ele>567.38</ele>
        <time>2021-03-27T13:17:45Z</time>
      </trkpt>
      <trkpt lat="42.811201" lon="-3.241459">
        <ele>566.93</ele>
        <time>2021-03-27T13:17:50Z</time>
      </trkpt>
      <trkpt lat="42.811148" lon="-3.241168">
        <ele>566.76</ele>
        <time>2021-03-27T13:17:55Z</time>
      </trkpt>
      <trkpt lat="42.810572" lon="-3.237019">
        <ele>559.84</ele>
        <time>2021-03-27T13:17:59Z</time>
      </trkpt>
      <trkpt lat="42.810502" lon="-3.236684">
        <ele>560.39</ele>
        <time>2021-03-27T13:18:04Z</time>
      </trkpt>
      <trkpt lat="42.810443" lon="-3.236524">
        <ele>560.51</ele>
        <time>2021-03-27T13:18:09Z</time>
      </trkpt>
      <trkpt lat="42.809968" lon="-3.235595">
        <ele>562.87</ele>
        <time>2021-03-27T13:18:14Z</time>
      </trkpt>
      <trkpt lat="42.809968" lon="-3.235595">
        <ele>562.87</ele>
        <time>2021-03-27T13:18:14Z</time>
      </trkpt>
      <trkpt lat="42.809464" lon="-3.234607">
        <ele>563.0</ele>
        <time>2021-03-27T13:18:25Z</time>
      </trkpt>
      <trkpt lat="42.809287" lon="-3.234401">
        <ele>562.43</ele>
        <time>2021-03-27T13:18:36Z</time>
      </trkpt>
      <trkpt lat="42.809171" lon="-3.234327">
        <ele>562.02</ele>
        <time>2021-03-27T13:18:48Z</time>
      </trkpt>
      <trkpt lat="42.808736" lon="-3.234172">
        <ele>557.36</ele>
        <time>2021-03-27T13:18:59Z</time>
      </trkpt>
      <trkpt lat="42.804986" lon="-3.232703">
        <ele>545.78</ele>
        <time>2021-03-27T13:19:10Z</time>
      </trkpt>
      <trkpt lat="42.804044" lon="-3.232352">
        <ele>548.96</ele>
        <time>2021-03-27T13:19:22Z</time>
      </trkpt>
      <trkpt lat="42.803929" lon="-3.232324">
        <ele>548.96</ele>
        <time>2021-03-27T13:19:33Z</time>
      </trkpt>
      <trkpt lat="42.795321" lon="-3.231717">
        <ele>533.97</ele>
        <time>2021-03-27T13:19:44Z</time>
      </trkpt>
      <trkpt lat="42.794765" lon="-3.231664">
        <ele>536.68</ele>
        <time>2021-03-27T13:19:56Z</time>
      </trkpt>
      <trkpt lat="42.794223" lon="-3.231661">
        <ele>539.73</ele>
        <time>2021-03-27T13:20:07Z</time>
      </trkpt>
      <trkpt lat="42.792623" lon="-3.231764">
        <ele>538.05</ele>
        <time>2021-03-27T13:20:18Z</time>
      </trkpt>
      <trkpt lat="42.791329" lon="-3.231799">
        <ele>535.21</ele>
        <time>2021-03-27T13:20:30Z</time>
      </trkpt>
      <trkpt lat="42.783183" lon="-3.23279">
        <ele>521.42</ele>
        <time>2021-03-27T13:20:41Z</time>
      </trkpt>
      <trkpt lat="42.782408" lon="-3.230737">
        <ele>518.23</ele>
        <time>2021-03-27T13:20:51Z</time>
      </trkpt>
      <trkpt lat="42.781826" lon="-3.229253">
        <ele>519.54</ele>
        <time>2021-03-27T13:21:02Z</time>
      </trkpt>
      <trkpt lat="42.781448" lon="-3.228197">
        <ele>517.51</ele>
        <time>2021-03-27T13:21:12Z</time>
      </trkpt>
      <trkpt lat="42.77958" lon="-3.223262">
        <ele>513.26</ele>
        <time>2021-03-27T13:21:22Z</time>
      </trkpt>
      <trkpt lat="42.779108" lon="-3.222023">
        <ele>512.79</ele>
        <time>2021-03-27T13:21:33Z</time>
      </trkpt>
      <trkpt lat="42.778723" lon="-3.220983">
        <ele>517.2</ele>
        <time>2021-03-27T13:21:43Z</time>
      </trkpt>
      <trkpt lat="42.778637" lon="-3.220715">
        <ele>520.18</ele>
        <time>2021-03-27T13:21:53Z</time>
      </trkpt>
      <trkpt lat="42.77859" lon="-3.22047">
        <ele>522.67</ele>
        <time>2021-03-27T13:22:04Z</time>
      </trkpt>
      <trkpt lat="42.778588" lon="-3.220206">
        <ele>524.0</ele>
        <time>2021-03-27T13:22:14Z</time>
      </trkpt>
      <trkpt lat="42.779004" lon="-3.215314">
        <ele>526.05</ele>
        <time>2021-03-27T13:22:24Z</time>
      </trkpt>
      <trkpt lat="42.779143" lon="-3.213835">
        <ele>524.93</ele>
        <time>2021-03-27T13:22:35Z</time>
      </trkpt>
      <trkpt lat="42.779236" lon="-3.213231">
        <ele>528.03</ele>
        <time>2021-03-27T13:22:45Z</time>
      </trkpt>
      <trkpt lat="42.779175" lon="-3.212943">
        <ele>527.67</ele>
        <time>2021-03-27T13:22:47Z</time>
      </trkpt>
      <trkpt lat="42.779074" lon="-3.212805">
        <ele>527.36</ele>
        <time>2021-03-27T13:22:49Z</time>
      </trkpt>
      <trkpt lat="42.778966" lon="-3.212717">
        <ele>527.66</ele>
        <time>2021-03-27T13:22:51Z</time>
      </trkpt>
      <trkpt lat="42.778803" lon="-3.212689">
        <ele>528.62</ele>
        <time>2021-03-27T13:22:53Z</time>
      </trkpt>
      <trkpt lat="42.778662" lon="-3.212703">
        <ele>529.63</ele>
        <time>2021-03-27T13:22:55Z</time>
      </trkpt>
      <trkpt lat="42.778332" lon="-3.212959">
        <ele>528.68</ele>
        <time>2021-03-27T13:22:57Z</time>
      </trkpt>
      <trkpt lat="42.778051" lon="-3.213134">
        <ele>525.71</ele>
        <time>2021-03-27T13:22:59Z</time>
      </trkpt>
      <trkpt lat="42.777824" lon="-3.213225">
        <ele>525.06</ele>
        <time>2021-03-27T13:23:01Z</time>
      </trkpt>
      <trkpt lat="42.777695" lon="-3.213243">
        <ele>524.6</ele>
        <time>2021-03-27T13:23:03Z</time>
      </trkpt>
      <trkpt lat="42.776822" lon="-3.2133">
        <ele>521.65</ele>
        <time>2021-03-27T13:23:05Z</time>
      </trkpt>
      <trkpt lat="42.776406" lon="-3.213306">
        <ele>517.97</ele>
        <time>2021-03-27T13:23:07Z</time>
      </trkpt>
      <trkpt lat="42.776169" lon="-3.213265">
        <ele>516.32</ele>
        <time>2021-03-27T13:23:09Z</time>
      </trkpt>
      <trkpt lat="42.775944" lon="-3.213187">
        <ele>515.37</ele>
        <time>2021-03-27T13:23:11Z</time>
      </trkpt>
      <trkpt lat="42.775716" lon="-3.213034">
        <ele>513.54</ele>
        <time>2021-03-27T13:23:13Z</time>
      </trkpt>
      <trkpt lat="42.775518" lon="-3.212833">
        <ele>512.07</ele>
        <time>2021-03-27T13:23:15Z</time>
      </trkpt>
      <trkpt lat="42.775323" lon="-3.212545">
        <ele>511.03</ele>
        <time>2021-03-27T13:23:17Z</time>
      </trkpt>
      <trkpt lat="42.775178" lon="-3.212251">
        <ele>511.36</ele>
        <time>2021-03-27T13:23:19Z</time>
      </trkpt>
      <trkpt lat="42.775077" lon="-3.211919">
        <ele>511.0</ele>
        <time>2021-03-27T13:23:20Z</time>
      </trkpt>
      <trkpt lat="42.774697" lon="-3.210112">
        <ele>512.0</ele>
        <time>2021-03-27T13:23:22Z</time>
      </trkpt>
      <trkpt lat="42.774145" lon="-3.210235">
        <ele>512.17</ele>
        <time>2021-03-27T13:23:24Z</time>
      </trkpt>
      <trkpt lat="42.773673" lon="-3.210501">
        <ele>511.95</ele>
        <time>2021-03-27T13:23:26Z</time>
      </trkpt>
      <trkpt lat="42.773108" lon="-3.210988">
        <ele>518.35</ele>
        <time>2021-03-27T13:23:28Z</time>
      </trkpt>
      <trkpt lat="42.772515" lon="-3.211122">
        <ele>512.07</ele>
        <time>2021-03-27T13:23:30Z</time>
      </trkpt>
      <trkpt lat="42.772393" lon="-3.211165">
        <ele>512.72</ele>
        <time>2021-03-27T13:23:32Z</time>
      </trkpt>
      <trkpt lat="42.77226" lon="-3.211258">
        <ele>514.11</ele>
        <time>2021-03-27T13:23:34Z</time>
      </trkpt>
      <trkpt lat="42.771816" lon="-3.211718">
        <ele>518.09</ele>
        <time>2021-03-27T13:23:36Z</time>
      </trkpt>
      <trkpt lat="42.771725" lon="-3.211843">
        <ele>517.52</ele>
        <time>2021-03-27T13:23:38Z</time>
      </trkpt>
      <trkpt lat="42.771555" lon="-3.212222">
        <ele>514.01</ele>
        <time>2021-03-27T13:23:40Z</time>
      </trkpt>
      <trkpt lat="42.771227" lon="-3.21266">
        <ele>513.76</ele>
        <time>2021-03-27T13:23:42Z</time>
      </trkpt>
      <trkpt lat="42.770935" lon="-3.212898">
        <ele>514.75</ele>
        <time>2021-03-27T13:23:44Z</time>
      </trkpt>
      <trkpt lat="42.770836" lon="-3.212958">
        <ele>515.63</ele>
        <time>2021-03-27T13:23:46Z</time>
      </trkpt>
      <trkpt lat="42.770761" lon="-3.212977">
        <ele>517.2</ele>
        <time>2021-03-27T13:23:48Z</time>
      </trkpt>
      <trkpt lat="42.770698" lon="-3.212965">
        <ele>518.43</ele>
        <time>2021-03-27T13:23:50Z</time>
      </trkpt>
      <trkpt lat="42.770655" lon="-3.21291">
        <ele>519.0</ele>
        <time>2021-03-27T13:23:52Z</time>
      </trkpt>
      <trkpt lat="42.770618" lon="-3.212823">
        <ele>519.16</ele>
        <time>2021-03-27T13:23:54Z</time>
      </trkpt>
      <trkpt lat="42.770513" lon="-3.212232">
        <ele>517.95</ele>
        <time>2021-03-27T13:23:56Z</time>
      </trkpt>
      <trkpt lat="42.770487" lon="-3.21214">
        <ele>518.47</ele>
        <time>2021-03-27T13:23:58Z</time>
      </trkpt>
      <trkpt lat="42.770403" lon="-3.211971">
        <ele>520.29</ele>
        <time>2021-03-27T13:24:00Z</time>
      </trkpt>
      <trkpt lat="42.770071" lon="-3.211593">
        <ele>526.23</ele>
        <time>2021-03-27T13:24:02Z</time>
      </trkpt>
      <trkpt lat="42.769822" lon="-3.211173">
        <ele>529.06</ele>
        <time>2021-03-27T13:24:04Z</time>
      </trkpt>
      <trkpt lat="42.769719" lon="-3.21106">
        <ele>529.46</ele>
        <time>2021-03-27T13:24:06Z</time>
      </trkpt>
      <trkpt lat="42.769588" lon="-3.211007">
        <ele>529.18</ele>
        <time>2021-03-27T13:24:08Z</time>
      </trkpt>
      <trkpt lat="42.769422" lon="-3.211004">
        <ele>529.77</ele>
        <time>2021-03-27T13:24:10Z</time>
      </trkpt>
      <trkpt lat="42.769303" lon="-3.210973">
        <ele>531.04</ele>
        <time>2021-03-27T13:24:12Z</time>
      </trkpt>
      <trkpt lat="42.769149" lon="-3.210894">
        <ele>532.24</ele>
        <time>2021-03-27T13:24:14Z</time>
      </trkpt>
      <trkpt lat="42.76902" lon="-3.210769">
        <ele>533.7</ele>
        <time>2021-03-27T13:24:16Z</time>
      </trkpt>
      <trkpt lat="42.768942" lon="-3.210647">
        <ele>534.51</ele>
        <time>2021-03-27T13:24:18Z</time>
      </trkpt>
      <trkpt lat="42.768882" lon="-3.210484">
        <ele>534.6</ele>
        <time>2021-03-27T13:24:20Z</time>
      </trkpt>
      <trkpt lat="42.768843" lon="-3.210293">
        <ele>533.93</ele>
        <time>2021-03-27T13:24:22Z</time>
      </trkpt>
      <trkpt lat="42.76877" lon="-3.210058">
        <ele>534.02</ele>
        <time>2021-03-27T13:24:24Z</time>
      </trkpt>
      <trkpt lat="42.76856" lon="-3.209639">
        <ele>532.05</ele>
        <time>2021-03-27T13:24:26Z</time>
      </trkpt>
      <trkpt lat="42.768473" lon="-3.209579">
        <ele>531.42</ele>
        <time>2021-03-27T13:24:28Z</time>
      </trkpt>
      <trkpt lat="42.767365" lon="-3.209385">
        <ele>534.85</ele>
        <time>2021-03-27T13:24:30Z</time>
      </trkpt>
      <trkpt lat="42.766273" lon="-3.208827">
        <ele>536.33</ele>
        <time>2021-03-27T13:24:32Z</time>
      </trkpt>
      <trkpt lat="42.765459" lon="-3.208301">
        <ele>535.38</ele>
        <time>2021-03-27T13:24:34Z</time>
      </trkpt>
      <trkpt lat="42.765411" lon="-3.208242">
        <ele>534.65</ele>
        <time>2021-03-27T13:24:36Z</time>
      </trkpt>
      <trkpt lat="42.765321" lon="-3.207944">
        <ele>531.79</ele>
        <time>2021-03-27T13:24:38Z</time>
      </trkpt>
      <trkpt lat="42.765273" lon="-3.207612">
        <ele>531.61</ele>
        <time>2021-03-27T13:24:40Z</time>
      </trkpt>
      <trkpt lat="42.765271" lon="-3.207472">
        <ele>532.12</ele>
        <time>2021-03-27T13:24:42Z</time>
      </trkpt>
      <trkpt lat="42.765298" lon="-3.207365">
        <ele>532.38</ele>
        <time>2021-03-27T13:24:44Z</time>
      </trkpt>
      <trkpt lat="42.765358" lon="-3.207249">
        <ele>532.35</ele>
        <time>2021-03-27T13:24:46Z</time>
      </trkpt>
      <trkpt lat="42.765565" lon="-3.206994">
        <ele>529.26</ele>
        <time>2021-03-27T13:24:48Z</time>
      </trkpt>
      <trkpt lat="42.765615" lon="-3.20689">
        <ele>527.77</ele>
        <time>2021-03-27T13:24:50Z</time>
      </trkpt>
      <trkpt lat="42.765633" lon="-3.206801">
        <ele>526.61</ele>
        <time>2021-03-27T13:24:52Z</time>
      </trkpt>
      <trkpt lat="42.76563" lon="-3.206655">
        <ele>525.07</ele>
        <time>2021-03-27T13:24:54Z</time>
      </trkpt>
      <trkpt lat="42.765587" lon="-3.206327">
        <ele>522.55</ele>
        <time>2021-03-27T13:24:56Z</time>
      </trkpt>
      <trkpt lat="42.765517" lon="-3.204115">
        <ele>514.54</ele>
        <time>2021-03-27T13:24:58Z</time>
      </trkpt>
      <trkpt lat="42.765459" lon="-3.203398">
        <ele>519.49</ele>
        <time>2021-03-27T13:24:59Z</time>
      </trkpt>
      <trkpt lat="42.765487" lon="-3.203247">
        <ele>519.86</ele>
        <time>2021-03-27T13:25:01Z</time>
      </trkpt>
      <trkpt lat="42.765556" lon="-3.203081">
        <ele>519.81</ele>
        <time>2021-03-27T13:25:03Z</time>
      </trkpt>
      <trkpt lat="42.765974" lon="-3.202311">
        <ele>522.81</ele>
        <time>2021-03-27T13:25:05Z</time>
      </trkpt>
      <trkpt lat="42.766009" lon="-3.202092">
        <ele>522.0</ele>
        <time>2021-03-27T13:25:07Z</time>
      </trkpt>
      <trkpt lat="42.765985" lon="-3.201998">
        <ele>522.0</ele>
        <time>2021-03-27T13:25:09Z</time>
      </trkpt>
      <trkpt lat="42.76551" lon="-3.200842">
        <ele>524.97</ele>
        <time>2021-03-27T13:25:11Z</time>
      </trkpt>
      <trkpt lat="42.765432" lon="-3.200698">
        <ele>525.27</ele>
        <time>2021-03-27T13:25:13Z</time>
      </trkpt>
      <trkpt lat="42.765356" lon="-3.200607">
        <ele>525.23</ele>
        <time>2021-03-27T13:25:15Z</time>
      </trkpt>
      <trkpt lat="42.765181" lon="-3.200473">
        <ele>525.74</ele>
        <time>2021-03-27T13:25:17Z</time>
      </trkpt>
      <trkpt lat="42.765098" lon="-3.200379">
        <ele>526.1</ele>
        <time>2021-03-27T13:25:19Z</time>
      </trkpt>
      <trkpt lat="42.764983" lon="-3.200206">
        <ele>526.5</ele>
        <time>2021-03-27T13:25:21Z</time>
      </trkpt>
      <trkpt lat="42.764648" lon="-3.199583">
        <ele>525.87</ele>
        <time>2021-03-27T13:25:23Z</time>
      </trkpt>
      <trkpt lat="42.764514" lon="-3.199226">
        <ele>524.02</ele>
        <time>2021-03-27T13:25:25Z</time>
      </trkpt>
      <trkpt lat="42.763981" lon="-3.197554">
        <ele>524.01</ele>
        <time>2021-03-27T13:25:27Z</time>
      </trkpt>
      <trkpt lat="42.763831" lon="-3.197037">
        <ele>525.87</ele>
        <time>2021-03-27T13:25:29Z</time>
      </trkpt>
      <trkpt lat="42.763454" lon="-3.195478">
        <ele>527.22</ele>
        <time>2021-03-27T13:25:31Z</time>
      </trkpt>
      <trkpt lat="42.763399" lon="-3.195168">
        <ele>528.84</ele>
        <time>2021-03-27T13:25:33Z</time>
      </trkpt>
      <trkpt lat="42.76339" lon="-3.195027">
        <ele>528.65</ele>
        <time>2021-03-27T13:25:35Z</time>
      </trkpt>
      <trkpt lat="42.763406" lon="-3.194163">
        <ele>523.73</ele>
        <time>2021-03-27T13:25:37Z</time>
      </trkpt>
      <trkpt lat="42.763358" lon="-3.193925">
        <ele>523.83</ele>
        <time>2021-03-27T13:25:39Z</time>
      </trkpt>
      <trkpt lat="42.763273" lon="-3.193812">
        <ele>523.94</ele>
        <time>2021-03-27T13:25:41Z</time>
      </trkpt>
      <trkpt lat="42.762135" lon="-3.192819">
        <ele>523.56</ele>
        <time>2021-03-27T13:25:43Z</time>
      </trkpt>
      <trkpt lat="42.762017" lon="-3.192675">
        <ele>523.37</ele>
        <time>2021-03-27T13:25:45Z</time>
      </trkpt>
      <trkpt lat="42.761969" lon="-3.192562">
        <ele>523.14</ele>
        <time>2021-03-27T13:25:47Z</time>
      </trkpt>
      <trkpt lat="42.761928" lon="-3.192346">
        <ele>522.65</ele>
        <time>2021-03-27T13:25:49Z</time>
      </trkpt>
      <trkpt lat="42.761815" lon="-3.191291">
        <ele>522.16</ele>
        <time>2021-03-27T13:25:51Z</time>
      </trkpt>
      <trkpt lat="42.761854" lon="-3.191047">
        <ele>522.79</ele>
        <time>2021-03-27T13:25:53Z</time>
      </trkpt>
      <trkpt lat="42.761921" lon="-3.190893">
        <ele>523.65</ele>
        <time>2021-03-27T13:25:55Z</time>
      </trkpt>
      <trkpt lat="42.762061" lon="-3.190743">
        <ele>523.53</ele>
        <time>2021-03-27T13:25:57Z</time>
      </trkpt>
      <trkpt lat="42.76287" lon="-3.190029">
        <ele>515.03</ele>
        <time>2021-03-27T13:25:59Z</time>
      </trkpt>
      <trkpt lat="42.763905" lon="-3.189168">
        <ele>516.12</ele>
        <time>2021-03-27T13:26:01Z</time>
      </trkpt>
      <trkpt lat="42.764468" lon="-3.18866">
        <ele>520.1</ele>
        <time>2021-03-27T13:26:03Z</time>
      </trkpt>
      <trkpt lat="42.764546" lon="-3.188548">
        <ele>520.2</ele>
        <time>2021-03-27T13:26:05Z</time>
      </trkpt>
      <trkpt lat="42.764588" lon="-3.188432">
        <ele>519.85</ele>
        <time>2021-03-27T13:26:07Z</time>
      </trkpt>
      <trkpt lat="42.76459" lon="-3.188294">
        <ele>519.48</ele>
        <time>2021-03-27T13:26:09Z</time>
      </trkpt>
      <trkpt lat="42.764517" lon="-3.18805">
        <ele>519.24</ele>
        <time>2021-03-27T13:26:11Z</time>
      </trkpt>
      <trkpt lat="42.764024" lon="-3.186678">
        <ele>515.51</ele>
        <time>2021-03-27T13:26:13Z</time>
      </trkpt>
      <trkpt lat="42.763949" lon="-3.186509">
        <ele>515.54</ele>
        <time>2021-03-27T13:26:15Z</time>
      </trkpt>
      <trkpt lat="42.763634" lon="-3.186011">
        <ele>516.01</ele>
        <time>2021-03-27T13:26:17Z</time>
      </trkpt>
      <trkpt lat="42.763471" lon="-3.185523">
        <ele>516.53</ele>
        <time>2021-03-27T13:26:19Z</time>
      </trkpt>
      <trkpt lat="42.763374" lon="-3.185313">
        <ele>517.65</ele>
        <time>2021-03-27T13:26:21Z</time>
      </trkpt>
      <trkpt lat="42.76302" lon="-3.184765">
        <ele>521.38</ele>
        <time>2021-03-27T13:26:23Z</time>
      </trkpt>
      <trkpt lat="42.76284" lon="-3.184533">
        <ele>524.64</ele>
        <time>2021-03-27T13:26:25Z</time>
      </trkpt>
      <trkpt lat="42.76219" lon="-3.184142">
        <ele>529.7</ele>
        <time>2021-03-27T13:26:27Z</time>
      </trkpt>
      <trkpt lat="42.762054" lon="-3.183985">
        <ele>532.63</ele>
        <time>2021-03-27T13:26:29Z</time>
      </trkpt>
      <trkpt lat="42.76196" lon="-3.183838">
        <ele>535.03</ele>
        <time>2021-03-27T13:26:31Z</time>
      </trkpt>
      <trkpt lat="42.761903" lon="-3.183691">
        <ele>537.93</ele>
        <time>2021-03-27T13:26:33Z</time>
      </trkpt>
      <trkpt lat="42.761866" lon="-3.1835">
        <ele>540.34</ele>
        <time>2021-03-27T13:26:35Z</time>
      </trkpt>
      <trkpt lat="42.761806" lon="-3.182889">
        <ele>543.39</ele>
        <time>2021-03-27T13:26:37Z</time>
      </trkpt>
      <trkpt lat="42.76173" lon="-3.182629">
        <ele>545.84</ele>
        <time>2021-03-27T13:26:38Z</time>
      </trkpt>
      <trkpt lat="42.761344" lon="-3.182153">
        <ele>553.19</ele>
        <time>2021-03-27T13:26:40Z</time>
      </trkpt>
      <trkpt lat="42.761061" lon="-3.181727">
        <ele>553.44</ele>
        <time>2021-03-27T13:26:42Z</time>
      </trkpt>
      <trkpt lat="42.760969" lon="-3.181646">
        <ele>552.34</ele>
        <time>2021-03-27T13:26:44Z</time>
      </trkpt>
      <trkpt lat="42.7601" lon="-3.181317">
        <ele>539.75</ele>
        <time>2021-03-27T13:26:46Z</time>
      </trkpt>
      <trkpt lat="42.759861" lon="-3.181207">
        <ele>539.2</ele>
        <time>2021-03-27T13:26:48Z</time>
      </trkpt>
      <trkpt lat="42.759576" lon="-3.181004">
        <ele>539.87</ele>
        <time>2021-03-27T13:26:50Z</time>
      </trkpt>
      <trkpt lat="42.759465" lon="-3.180891">
        <ele>540.79</ele>
        <time>2021-03-27T13:26:52Z</time>
      </trkpt>
      <trkpt lat="42.758868" lon="-3.179867">
        <ele>537.64</ele>
        <time>2021-03-27T13:26:54Z</time>
      </trkpt>
      <trkpt lat="42.758778" lon="-3.17977">
        <ele>536.92</ele>
        <time>2021-03-27T13:26:56Z</time>
      </trkpt>
      <trkpt lat="42.758054" lon="-3.179435">
        <ele>542.01</ele>
        <time>2021-03-27T13:26:58Z</time>
      </trkpt>
      <trkpt lat="42.757911" lon="-3.179407">
        <ele>542.97</ele>
        <time>2021-03-27T13:27:00Z</time>
      </trkpt>
      <trkpt lat="42.757552" lon="-3.17947">
        <ele>546.6</ele>
        <time>2021-03-27T13:27:02Z</time>
      </trkpt>
      <trkpt lat="42.757431" lon="-3.179454">
        <ele>547.81</ele>
        <time>2021-03-27T13:27:04Z</time>
      </trkpt>
      <trkpt lat="42.757316" lon="-3.17941">
        <ele>548.86</ele>
        <time>2021-03-27T13:27:06Z</time>
      </trkpt>
      <trkpt lat="42.756755" lon="-3.178969">
        <ele>551.86</ele>
        <time>2021-03-27T13:27:08Z</time>
      </trkpt>
      <trkpt lat="42.756267" lon="-3.178749">
        <ele>554.37</ele>
        <time>2021-03-27T13:27:10Z</time>
      </trkpt>
      <trkpt lat="42.756178" lon="-3.178674">
        <ele>554.75</ele>
        <time>2021-03-27T13:27:12Z</time>
      </trkpt>
      <trkpt lat="42.756095" lon="-3.178571">
        <ele>554.98</ele>
        <time>2021-03-27T13:27:14Z</time>
      </trkpt>
      <trkpt lat="42.755977" lon="-3.178342">
        <ele>555.46</ele>
        <time>2021-03-27T13:27:16Z</time>
      </trkpt>
      <trkpt lat="42.755851" lon="-3.178154">
        <ele>556.16</ele>
        <time>2021-03-27T13:27:18Z</time>
      </trkpt>
      <trkpt lat="42.755672" lon="-3.177941">
        <ele>557.16</ele>
        <time>2021-03-27T13:27:20Z</time>
      </trkpt>
      <trkpt lat="42.7556" lon="-3.177888">
        <ele>557.68</ele>
        <time>2021-03-27T13:27:22Z</time>
      </trkpt>
      <trkpt lat="42.75534" lon="-3.177929">
        <ele>559.55</ele>
        <time>2021-03-27T13:27:24Z</time>
      </trkpt>
      <trkpt lat="42.754977" lon="-3.177835">
        <ele>561.85</ele>
        <time>2021-03-27T13:27:26Z</time>
      </trkpt>
      <trkpt lat="42.754697" lon="-3.177838">
        <ele>564.59</ele>
        <time>2021-03-27T13:27:28Z</time>
      </trkpt>
      <trkpt lat="42.754579" lon="-3.177819">
        <ele>565.04</ele>
        <time>2021-03-27T13:27:30Z</time>
      </trkpt>
      <trkpt lat="42.754411" lon="-3.177775">
        <ele>565.34</ele>
        <time>2021-03-27T13:27:32Z</time>
      </trkpt>
      <trkpt lat="42.754108" lon="-3.177641">
        <ele>567.61</ele>
        <time>2021-03-27T13:27:34Z</time>
      </trkpt>
      <trkpt lat="42.75403" lon="-3.177625">
        <ele>567.72</ele>
        <time>2021-03-27T13:27:36Z</time>
      </trkpt>
      <trkpt lat="42.753572" lon="-3.177678">
        <ele>569.64</ele>
        <time>2021-03-27T13:27:38Z</time>
      </trkpt>
      <trkpt lat="42.75337" lon="-3.177738">
        <ele>570.88</ele>
        <time>2021-03-27T13:27:40Z</time>
      </trkpt>
      <trkpt lat="42.753287" lon="-3.177735">
        <ele>571.49</ele>
        <time>2021-03-27T13:27:42Z</time>
      </trkpt>
      <trkpt lat="42.753209" lon="-3.177703">
        <ele>572.16</ele>
        <time>2021-03-27T13:27:44Z</time>
      </trkpt>
      <trkpt lat="42.752252" lon="-3.176914">
        <ele>585.02</ele>
        <time>2021-03-27T13:27:46Z</time>
      </trkpt>
      <trkpt lat="42.752128" lon="-3.176842">
        <ele>585.58</ele>
        <time>2021-03-27T13:27:48Z</time>
      </trkpt>
      <trkpt lat="42.751809" lon="-3.176792">
        <ele>587.24</ele>
        <time>2021-03-27T13:27:50Z</time>
      </trkpt>
      <trkpt lat="42.751724" lon="-3.176739">
        <ele>588.18</ele>
        <time>2021-03-27T13:27:52Z</time>
      </trkpt>
      <trkpt lat="42.751712" lon="-3.17667">
        <ele>588.5</ele>
        <time>2021-03-27T13:27:54Z</time>
      </trkpt>
      <trkpt lat="42.751728" lon="-3.17657">
        <ele>589.38</ele>
        <time>2021-03-27T13:27:56Z</time>
      </trkpt>
      <trkpt lat="42.751781" lon="-3.176479">
        <ele>589.79</ele>
        <time>2021-03-27T13:27:58Z</time>
      </trkpt>
      <trkpt lat="42.751914" lon="-3.176347">
        <ele>589.92</ele>
        <time>2021-03-27T13:28:00Z</time>
      </trkpt>
      <trkpt lat="42.752119" lon="-3.176247">
        <ele>590.72</ele>
        <time>2021-03-27T13:28:02Z</time>
      </trkpt>
      <trkpt lat="42.752427" lon="-3.176169">
        <ele>592.27</ele>
        <time>2021-03-27T13:28:04Z</time>
      </trkpt>
      <trkpt lat="42.752572" lon="-3.1761">
        <ele>592.48</ele>
        <time>2021-03-27T13:28:06Z</time>
      </trkpt>
      <trkpt lat="42.752839" lon="-3.175862">
        <ele>590.36</ele>
        <time>2021-03-27T13:28:08Z</time>
      </trkpt>
      <trkpt lat="42.752977" lon="-3.175705">
        <ele>588.39</ele>
        <time>2021-03-27T13:28:10Z</time>
      </trkpt>
      <trkpt lat="42.753243" lon="-3.174973">
        <ele>586.55</ele>
        <time>2021-03-27T13:28:12Z</time>
      </trkpt>
      <trkpt lat="42.753319" lon="-3.174841">
        <ele>585.53</ele>
        <time>2021-03-27T13:28:14Z</time>
      </trkpt>
      <trkpt lat="42.75343" lon="-3.174725">
        <ele>584.66</ele>
        <time>2021-03-27T13:28:16Z</time>
      </trkpt>
      <trkpt lat="42.754281" lon="-3.173977">
        <ele>576.78</ele>
        <time>2021-03-27T13:28:17Z</time>
      </trkpt>
      <trkpt lat="42.755773" lon="-3.172439">
        <ele>563.88</ele>
        <time>2021-03-27T13:28:19Z</time>
      </trkpt>
      <trkpt lat="42.756007" lon="-3.172258">
        <ele>562.26</ele>
        <time>2021-03-27T13:28:21Z</time>
      </trkpt>
      <trkpt lat="42.756764" lon="-3.171872">
        <ele>558.17</ele>
        <time>2021-03-27T13:28:23Z</time>
      </trkpt>
      <trkpt lat="42.756913" lon="-3.171772">
        <ele>555.76</ele>
        <time>2021-03-27T13:28:25Z</time>
      </trkpt>
      <trkpt lat="42.757251" lon="-3.171381">
        <ele>551.99</ele>
        <time>2021-03-27T13:28:27Z</time>
      </trkpt>
      <trkpt lat="42.757656" lon="-3.170811">
        <ele>549.39</ele>
        <time>2021-03-27T13:28:29Z</time>
      </trkpt>
      <trkpt lat="42.757824" lon="-3.170632">
        <ele>548.11</ele>
        <time>2021-03-27T13:28:31Z</time>
      </trkpt>
      <trkpt lat="42.757976" lon="-3.170517">
        <ele>547.15</ele>
        <time>2021-03-27T13:28:33Z</time>
      </trkpt>
      <trkpt lat="42.758132" lon="-3.170429">
        <ele>546.27</ele>
        <time>2021-03-27T13:28:35Z</time>
      </trkpt>
      <trkpt lat="42.758638" lon="-3.170178">
        <ele>542.55</ele>
        <time>2021-03-27T13:28:37Z</time>
      </trkpt>
      <trkpt lat="42.75878" lon="-3.170091">
        <ele>541.72</ele>
        <time>2021-03-27T13:28:39Z</time>
      </trkpt>
      <trkpt lat="42.758881" lon="-3.169984">
        <ele>541.08</ele>
        <time>2021-03-27T13:28:41Z</time>
      </trkpt>
      <trkpt lat="42.759171" lon="-3.169514">
        <ele>540.96</ele>
        <time>2021-03-27T13:28:43Z</time>
      </trkpt>
      <trkpt lat="42.76023" lon="-3.167403">
        <ele>529.65</ele>
        <time>2021-03-27T13:28:45Z</time>
      </trkpt>
      <trkpt lat="42.760597" lon="-3.166705">
        <ele>527.55</ele>
        <time>2021-03-27T13:28:47Z</time>
      </trkpt>
      <trkpt lat="42.760677" lon="-3.166471">
        <ele>526.86</ele>
        <time>2021-03-27T13:28:49Z</time>
      </trkpt>
      <trkpt lat="42.760682" lon="-3.16638">
        <ele>526.39</ele>
        <time>2021-03-27T13:28:51Z</time>
      </trkpt>
      <trkpt lat="42.760546" lon="-3.165904">
        <ele>523.16</ele>
        <time>2021-03-27T13:28:53Z</time>
      </trkpt>
      <trkpt lat="42.760463" lon="-3.165478">
        <ele>521.67</ele>
        <time>2021-03-27T13:28:55Z</time>
      </trkpt>
      <trkpt lat="42.760399" lon="-3.164892">
        <ele>518.92</ele>
        <time>2021-03-27T13:28:57Z</time>
      </trkpt>
      <trkpt lat="42.76038" lon="-3.164488">
        <ele>517.27</ele>
        <time>2021-03-27T13:28:59Z</time>
      </trkpt>
      <trkpt lat="42.760353" lon="-3.164332">
        <ele>516.59</ele>
        <time>2021-03-27T13:29:01Z</time>
      </trkpt>
      <trkpt lat="42.760307" lon="-3.1642">
        <ele>516.13</ele>
        <time>2021-03-27T13:29:03Z</time>
      </trkpt>
      <trkpt lat="42.760107" lon="-3.163853">
        <ele>513.87</ele>
        <time>2021-03-27T13:29:05Z</time>
      </trkpt>
      <trkpt lat="42.760024" lon="-3.163677">
        <ele>513.24</ele>
        <time>2021-03-27T13:29:07Z</time>
      </trkpt>
      <trkpt lat="42.759793" lon="-3.163038">
        <ele>513.0</ele>
        <time>2021-03-27T13:29:09Z</time>
      </trkpt>
      <trkpt lat="42.759632" lon="-3.162895">
        <ele>513.0</ele>
        <time>2021-03-27T13:29:11Z</time>
      </trkpt>
      <trkpt lat="42.759485" lon="-3.162809">
        <ele>513.0</ele>
        <time>2021-03-27T13:29:13Z</time>
      </trkpt>
      <trkpt lat="42.759295" lon="-3.162638">
        <ele>513.54</ele>
        <time>2021-03-27T13:29:15Z</time>
      </trkpt>
      <trkpt lat="42.759206" lon="-3.162487">
        <ele>513.86</ele>
        <time>2021-03-27T13:29:17Z</time>
      </trkpt>
      <trkpt lat="42.759157" lon="-3.162324">
        <ele>514.02</ele>
        <time>2021-03-27T13:29:19Z</time>
      </trkpt>
      <trkpt lat="42.7591" lon="-3.161852">
        <ele>514.74</ele>
        <time>2021-03-27T13:29:21Z</time>
      </trkpt>
      <trkpt lat="42.759029" lon="-3.161495">
        <ele>514.8</ele>
        <time>2021-03-27T13:29:23Z</time>
      </trkpt>
      <trkpt lat="42.758939" lon="-3.161238">
        <ele>515.54</ele>
        <time>2021-03-27T13:29:25Z</time>
      </trkpt>
      <trkpt lat="42.758932" lon="-3.161081">
        <ele>515.44</ele>
        <time>2021-03-27T13:29:27Z</time>
      </trkpt>
      <trkpt lat="42.75899" lon="-3.160831">
        <ele>514.28</ele>
        <time>2021-03-27T13:29:29Z</time>
      </trkpt>
      <trkpt lat="42.759086" lon="-3.160646">
        <ele>514.25</ele>
        <time>2021-03-27T13:29:31Z</time>
      </trkpt>
      <trkpt lat="42.759196" lon="-3.16048">
        <ele>513.89</ele>
        <time>2021-03-27T13:29:33Z</time>
      </trkpt>
      <trkpt lat="42.759344" lon="-3.160326">
        <ele>513.36</ele>
        <time>2021-03-27T13:29:35Z</time>
      </trkpt>
      <trkpt lat="42.759553" lon="-3.160013">
        <ele>512.03</ele>
        <time>2021-03-27T13:29:37Z</time>
      </trkpt>
      <trkpt lat="42.759626" lon="-3.159854">
        <ele>511.29</ele>
        <time>2021-03-27T13:29:39Z</time>
      </trkpt>
      <trkpt lat="42.759644" lon="-3.159773">
        <ele>510.95</ele>
        <time>2021-03-27T13:29:41Z</time>
      </trkpt>
      <trkpt lat="42.759626" lon="-3.159469">
        <ele>510.65</ele>
        <time>2021-03-27T13:29:43Z</time>
      </trkpt>
      <trkpt lat="42.759532" lon="-3.158945">
        <ele>514.88</ele>
        <time>2021-03-27T13:29:45Z</time>
      </trkpt>
      <trkpt lat="42.759532" lon="-3.158344">
        <ele>520.01</ele>
        <time>2021-03-27T13:29:47Z</time>
      </trkpt>
      <trkpt lat="42.759518" lon="-3.158153">
        <ele>520.1</ele>
        <time>2021-03-27T13:29:49Z</time>
      </trkpt>
      <trkpt lat="42.759332" lon="-3.157724">
        <ele>523.83</ele>
        <time>2021-03-27T13:29:51Z</time>
      </trkpt>
      <trkpt lat="42.759272" lon="-3.15748">
        <ele>525.27</ele>
        <time>2021-03-27T13:29:53Z</time>
      </trkpt>
      <trkpt lat="42.759228" lon="-3.156979">
        <ele>521.17</ele>
        <time>2021-03-27T13:29:55Z</time>
      </trkpt>
      <trkpt lat="42.759226" lon="-3.156609">
        <ele>516.41</ele>
        <time>2021-03-27T13:29:56Z</time>
      </trkpt>
      <trkpt lat="42.759213" lon="-3.156531">
        <ele>515.55</ele>
        <time>2021-03-27T13:29:58Z</time>
      </trkpt>
      <trkpt lat="42.759125" lon="-3.156309">
        <ele>513.17</ele>
        <time>2021-03-27T13:30:00Z</time>
      </trkpt>
      <trkpt lat="42.759118" lon="-3.156193">
        <ele>511.34</ele>
        <time>2021-03-27T13:30:02Z</time>
      </trkpt>
      <trkpt lat="42.759512" lon="-3.154954">
        <ele>517.03</ele>
        <time>2021-03-27T13:30:05Z</time>
      </trkpt>
      <trkpt lat="42.759209" lon="-3.154702">
        <ele>518.74</ele>
        <time>2021-03-27T13:30:09Z</time>
      </trkpt>
      <trkpt lat="42.759126" lon="-3.154568">
        <ele>518.7</ele>
        <time>2021-03-27T13:30:13Z</time>
      </trkpt>
      <trkpt lat="42.758732" lon="-3.153347">
        <ele>526.1</ele>
        <time>2021-03-27T13:30:17Z</time>
      </trkpt>
      <trkpt lat="42.758605" lon="-3.153019">
        <ele>524.75</ele>
        <time>2021-03-27T13:30:22Z</time>
      </trkpt>
      <trkpt lat="42.758308" lon="-3.152391">
        <ele>524.73</ele>
        <time>2021-03-27T13:30:26Z</time>
      </trkpt>
      <trkpt lat="42.757571" lon="-3.150826">
        <ele>540.51</ele>
        <time>2021-03-27T13:30:30Z</time>
      </trkpt>
      <trkpt lat="42.757403" lon="-3.150071">
        <ele>551.39</ele>
        <time>2021-03-27T13:30:34Z</time>
      </trkpt>
      <trkpt lat="42.757197" lon="-3.149334">
        <ele>522.57</ele>
        <time>2021-03-27T13:30:39Z</time>
      </trkpt>
      <trkpt lat="42.757168" lon="-3.149086">
        <ele>519.53</ele>
        <time>2021-03-27T13:30:43Z</time>
      </trkpt>
      <trkpt lat="42.757105" lon="-3.148328">
        <ele>527.67</ele>
        <time>2021-03-27T13:30:47Z</time>
      </trkpt>
      <trkpt lat="42.757064" lon="-3.148105">
        <ele>531.77</ele>
        <time>2021-03-27T13:30:51Z</time>
      </trkpt>
      <trkpt lat="42.757073" lon="-3.147792">
        <ele>536.19</ele>
        <time>2021-03-27T13:30:56Z</time>
      </trkpt>
      <trkpt lat="42.757121" lon="-3.147445">
        <ele>537.77</ele>
        <time>2021-03-27T13:31:00Z</time>
      </trkpt>
      <trkpt lat="42.757132" lon="-3.147356">
        <ele>531.3</ele>
        <time>2021-03-27T13:31:04Z</time>
      </trkpt>
      <trkpt lat="42.757312" lon="-3.146267">
        <ele>515.28</ele>
        <time>2021-03-27T13:31:09Z</time>
      </trkpt>
      <trkpt lat="42.757428" lon="-3.145372">
        <ele>522.56</ele>
        <time>2021-03-27T13:31:13Z</time>
      </trkpt>
      <trkpt lat="42.757475" lon="-3.145154">
        <ele>521.17</ele>
        <time>2021-03-27T13:31:17Z</time>
      </trkpt>
      <trkpt lat="42.757599" lon="-3.144723">
        <ele>525.01</ele>
        <time>2021-03-27T13:31:21Z</time>
      </trkpt>
      <trkpt lat="42.757638" lon="-3.14449">
        <ele>527.4</ele>
        <time>2021-03-27T13:31:26Z</time>
      </trkpt>
      <trkpt lat="42.757654" lon="-3.144294">
        <ele>526.73</ele>
        <time>2021-03-27T13:31:30Z</time>
      </trkpt>
      <trkpt lat="42.757649" lon="-3.143929">
        <ele>523.73</ele>
        <time>2021-03-27T13:31:34Z</time>
      </trkpt>
      <trkpt lat="42.757596" lon="-3.142282">
        <ele>516.09</ele>
        <time>2021-03-27T13:31:38Z</time>
      </trkpt>
      <trkpt lat="42.757599" lon="-3.142019">
        <ele>522.16</ele>
        <time>2021-03-27T13:31:43Z</time>
      </trkpt>
      <trkpt lat="42.757629" lon="-3.141725">
        <ele>526.31</ele>
        <time>2021-03-27T13:31:47Z</time>
      </trkpt>
      <trkpt lat="42.757658" lon="-3.1416">
        <ele>526.34</ele>
        <time>2021-03-27T13:31:51Z</time>
      </trkpt>
      <trkpt lat="42.757748" lon="-3.1414">
        <ele>525.35</ele>
        <time>2021-03-27T13:31:56Z</time>
      </trkpt>
      <trkpt lat="42.757809" lon="-3.141195">
        <ele>524.14</ele>
        <time>2021-03-27T13:32:00Z</time>
      </trkpt>
      <trkpt lat="42.75789" lon="-3.140524">
        <ele>526.34</ele>
        <time>2021-03-27T13:32:04Z</time>
      </trkpt>
      <trkpt lat="42.757906" lon="-3.140232">
        <ele>529.25</ele>
        <time>2021-03-27T13:32:08Z</time>
      </trkpt>
      <trkpt lat="42.757952" lon="-3.13982">
        <ele>534.23</ele>
        <time>2021-03-27T13:32:13Z</time>
      </trkpt>
      <trkpt lat="42.75803" lon="-3.139477">
        <ele>533.01</ele>
        <time>2021-03-27T13:32:17Z</time>
      </trkpt>
      <trkpt lat="42.758231" lon="-3.139024">
        <ele>530.58</ele>
        <time>2021-03-27T13:32:21Z</time>
      </trkpt>
      <trkpt lat="42.758649" lon="-3.138096">
        <ele>522.86</ele>
        <time>2021-03-27T13:32:25Z</time>
      </trkpt>
      <trkpt lat="42.758714" lon="-3.137939">
        <ele>529.14</ele>
        <time>2021-03-27T13:32:30Z</time>
      </trkpt>
      <trkpt lat="42.75877" lon="-3.137733">
        <ele>531.52</ele>
        <time>2021-03-27T13:32:34Z</time>
      </trkpt>
      <trkpt lat="42.758821" lon="-3.137419">
        <ele>531.84</ele>
        <time>2021-03-27T13:32:38Z</time>
      </trkpt>
      <trkpt lat="42.758958" lon="-3.136085">
        <ele>527.34</ele>
        <time>2021-03-27T13:32:42Z</time>
      </trkpt>
      <trkpt lat="42.759197" lon="-3.13441">
        <ele>517.88</ele>
        <time>2021-03-27T13:32:47Z</time>
      </trkpt>
      <trkpt lat="42.759336" lon="-3.132036">
        <ele>520.25</ele>
        <time>2021-03-27T13:32:51Z</time>
      </trkpt>
      <trkpt lat="42.759336" lon="-3.131875">
        <ele>520.15</ele>
        <time>2021-03-27T13:32:55Z</time>
      </trkpt>
      <trkpt lat="42.759289" lon="-3.131632">
        <ele>519.71</ele>
        <time>2021-03-27T13:33:00Z</time>
      </trkpt>
      <trkpt lat="42.759228" lon="-3.131497">
        <ele>518.75</ele>
        <time>2021-03-27T13:33:04Z</time>
      </trkpt>
      <trkpt lat="42.759008" lon="-3.131164">
        <ele>517.78</ele>
        <time>2021-03-27T13:33:08Z</time>
      </trkpt>
      <trkpt lat="42.758892" lon="-3.130923">
        <ele>517.04</ele>
        <time>2021-03-27T13:33:12Z</time>
      </trkpt>
      <trkpt lat="42.758865" lon="-3.130802">
        <ele>517.83</ele>
        <time>2021-03-27T13:33:17Z</time>
      </trkpt>
      <trkpt lat="42.758857" lon="-3.130664">
        <ele>518.07</ele>
        <time>2021-03-27T13:33:21Z</time>
      </trkpt>
      <trkpt lat="42.758869" lon="-3.130505">
        <ele>518.97</ele>
        <time>2021-03-27T13:33:25Z</time>
      </trkpt>
      <trkpt lat="42.758948" lon="-3.130259">
        <ele>524.56</ele>
        <time>2021-03-27T13:33:29Z</time>
      </trkpt>
      <trkpt lat="42.759002" lon="-3.130165">
        <ele>524.02</ele>
        <time>2021-03-27T13:33:34Z</time>
      </trkpt>
      <trkpt lat="42.759075" lon="-3.130063">
        <ele>523.14</ele>
        <time>2021-03-27T13:33:38Z</time>
      </trkpt>
      <trkpt lat="42.759323" lon="-3.129835">
        <ele>523.55</ele>
        <time>2021-03-27T13:33:42Z</time>
      </trkpt>
      <trkpt lat="42.759407" lon="-3.129735">
        <ele>523.72</ele>
        <time>2021-03-27T13:33:46Z</time>
      </trkpt>
      <trkpt lat="42.759496" lon="-3.129561">
        <ele>524.13</ele>
        <time>2021-03-27T13:33:51Z</time>
      </trkpt>
      <trkpt lat="42.759533" lon="-3.129412">
        <ele>524.02</ele>
        <time>2021-03-27T13:33:55Z</time>
      </trkpt>
      <trkpt lat="42.759628" lon="-3.12881">
        <ele>521.79</ele>
        <time>2021-03-27T13:33:59Z</time>
      </trkpt>
      <trkpt lat="42.759735" lon="-3.128515">
        <ele>520.29</ele>
        <time>2021-03-27T13:34:04Z</time>
      </trkpt>
      <trkpt lat="42.759809" lon="-3.128366">
        <ele>521.9</ele>
        <time>2021-03-27T13:34:08Z</time>
      </trkpt>
      <trkpt lat="42.759912" lon="-3.128052">
        <ele>523.12</ele>
        <time>2021-03-27T13:34:12Z</time>
      </trkpt>
      <trkpt lat="42.760151" lon="-3.126918">
        <ele>524.43</ele>
        <time>2021-03-27T13:34:16Z</time>
      </trkpt>
      <trkpt lat="42.760144" lon="-3.126691">
        <ele>524.18</ele>
        <time>2021-03-27T13:34:21Z</time>
      </trkpt>
      <trkpt lat="42.760115" lon="-3.126559">
        <ele>523.58</ele>
        <time>2021-03-27T13:34:25Z</time>
      </trkpt>
      <trkpt lat="42.760068" lon="-3.12644">
        <ele>522.67</ele>
        <time>2021-03-27T13:34:29Z</time>
      </trkpt>
      <trkpt lat="42.759733" lon="-3.125791">
        <ele>525.42</ele>
        <time>2021-03-27T13:34:33Z</time>
      </trkpt>
      <trkpt lat="42.759605" lon="-3.125434">
        <ele>525.89</ele>
        <time>2021-03-27T13:34:38Z</time>
      </trkpt>
      <trkpt lat="42.759516" lon="-3.125084">
        <ele>525.47</ele>
        <time>2021-03-27T13:34:42Z</time>
      </trkpt>
      <trkpt lat="42.759504" lon="-3.124946">
        <ele>525.99</ele>
        <time>2021-03-27T13:34:46Z</time>
      </trkpt>
      <trkpt lat="42.75951" lon="-3.124818">
        <ele>526.86</ele>
        <time>2021-03-27T13:34:51Z</time>
      </trkpt>
      <trkpt lat="42.759568" lon="-3.124439">
        <ele>529.35</ele>
        <time>2021-03-27T13:34:55Z</time>
      </trkpt>
      <trkpt lat="42.759541" lon="-3.123822">
        <ele>528.88</ele>
        <time>2021-03-27T13:34:59Z</time>
      </trkpt>
      <trkpt lat="42.759551" lon="-3.123535">
        <ele>528.0</ele>
        <time>2021-03-27T13:35:03Z</time>
      </trkpt>
      <trkpt lat="42.759622" lon="-3.123308">
        <ele>526.77</ele>
        <time>2021-03-27T13:35:08Z</time>
      </trkpt>
      <trkpt lat="42.759895" lon="-3.122736">
        <ele>527.46</ele>
        <time>2021-03-27T13:35:12Z</time>
      </trkpt>
      <trkpt lat="42.759929" lon="-3.122598">
        <ele>525.18</ele>
        <time>2021-03-27T13:35:16Z</time>
      </trkpt>
      <trkpt lat="42.759981" lon="-3.122208">
        <ele>522.56</ele>
        <time>2021-03-27T13:35:20Z</time>
      </trkpt>
      <trkpt lat="42.760026" lon="-3.122068">
        <ele>523.8</ele>
        <time>2021-03-27T13:35:25Z</time>
      </trkpt>
      <trkpt lat="42.760315" lon="-3.121574">
        <ele>526.56</ele>
        <time>2021-03-27T13:35:29Z</time>
      </trkpt>
      <trkpt lat="42.760365" lon="-3.121434">
        <ele>525.1</ele>
        <time>2021-03-27T13:35:33Z</time>
      </trkpt>
      <trkpt lat="42.760447" lon="-3.121083">
        <ele>520.34</ele>
        <time>2021-03-27T13:35:37Z</time>
      </trkpt>
      <trkpt lat="42.760485" lon="-3.12099">
        <ele>519.55</ele>
        <time>2021-03-27T13:35:42Z</time>
      </trkpt>
      <trkpt lat="42.76066" lon="-3.1207">
        <ele>518.75</ele>
        <time>2021-03-27T13:35:46Z</time>
      </trkpt>
      <trkpt lat="42.760693" lon="-3.120541">
        <ele>518.0</ele>
        <time>2021-03-27T13:35:50Z</time>
      </trkpt>
      <trkpt lat="42.760693" lon="-3.120441">
        <ele>518.19</ele>
        <time>2021-03-27T13:35:55Z</time>
      </trkpt>
      <trkpt lat="42.760636" lon="-3.120253">
        <ele>518.28</ele>
        <time>2021-03-27T13:35:59Z</time>
      </trkpt>
      <trkpt lat="42.760532" lon="-3.120127">
        <ele>519.04</ele>
        <time>2021-03-27T13:36:03Z</time>
      </trkpt>
      <trkpt lat="42.760303" lon="-3.119986">
        <ele>518.4</ele>
        <time>2021-03-27T13:36:07Z</time>
      </trkpt>
      <trkpt lat="42.760206" lon="-3.119905">
        <ele>520.12</ele>
        <time>2021-03-27T13:36:12Z</time>
      </trkpt>
      <trkpt lat="42.760105" lon="-3.119774">
        <ele>519.27</ele>
        <time>2021-03-27T13:36:16Z</time>
      </trkpt>
      <trkpt lat="42.760061" lon="-3.119684">
        <ele>518.09</ele>
        <time>2021-03-27T13:36:20Z</time>
      </trkpt>
      <trkpt lat="42.76001" lon="-3.119536">
        <ele>518.56</ele>
        <time>2021-03-27T13:36:24Z</time>
      </trkpt>
      <trkpt lat="42.759969" lon="-3.119357">
        <ele>521.0</ele>
        <time>2021-03-27T13:36:29Z</time>
      </trkpt>
      <trkpt lat="42.759849" lon="-3.118535">
        <ele>533.64</ele>
        <time>2021-03-27T13:36:33Z</time>
      </trkpt>
      <trkpt lat="42.75983" lon="-3.118208">
        <ele>535.88</ele>
        <time>2021-03-27T13:36:37Z</time>
      </trkpt>
      <trkpt lat="42.759851" lon="-3.117534">
        <ele>536.67</ele>
        <time>2021-03-27T13:36:41Z</time>
      </trkpt>
      <trkpt lat="42.75991" lon="-3.117034">
        <ele>534.68</ele>
        <time>2021-03-27T13:36:46Z</time>
      </trkpt>
      <trkpt lat="42.760086" lon="-3.115985">
        <ele>526.22</ele>
        <time>2021-03-27T13:36:50Z</time>
      </trkpt>
      <trkpt lat="42.76019" lon="-3.115594">
        <ele>525.84</ele>
        <time>2021-03-27T13:36:54Z</time>
      </trkpt>
      <trkpt lat="42.760261" lon="-3.115407">
        <ele>529.63</ele>
        <time>2021-03-27T13:36:59Z</time>
      </trkpt>
      <trkpt lat="42.76035" lon="-3.115231">
        <ele>534.12</ele>
        <time>2021-03-27T13:37:03Z</time>
      </trkpt>
      <trkpt lat="42.760567" lon="-3.114935">
        <ele>536.45</ele>
        <time>2021-03-27T13:37:07Z</time>
      </trkpt>
      <trkpt lat="42.760682" lon="-3.11482">
        <ele>531.83</ele>
        <time>2021-03-27T13:37:11Z</time>
      </trkpt>
      <trkpt lat="42.760788" lon="-3.114733">
        <ele>526.19</ele>
        <time>2021-03-27T13:37:16Z</time>
      </trkpt>
      <trkpt lat="42.761275" lon="-3.114443">
        <ele>520.64</ele>
        <time>2021-03-27T13:37:20Z</time>
      </trkpt>
      <trkpt lat="42.761602" lon="-3.114341">
        <ele>521.23</ele>
        <time>2021-03-27T13:37:24Z</time>
      </trkpt>
      <trkpt lat="42.761771" lon="-3.114262">
        <ele>520.63</ele>
        <time>2021-03-27T13:37:28Z</time>
      </trkpt>
      <trkpt lat="42.762004" lon="-3.114037">
        <ele>519.13</ele>
        <time>2021-03-27T13:37:33Z</time>
      </trkpt>
      <trkpt lat="42.762288" lon="-3.113837">
        <ele>517.66</ele>
        <time>2021-03-27T13:37:37Z</time>
      </trkpt>
      <trkpt lat="42.762372" lon="-3.113722">
        <ele>518.68</ele>
        <time>2021-03-27T13:37:41Z</time>
      </trkpt>
      <trkpt lat="42.762615" lon="-3.113286">
        <ele>520.66</ele>
        <time>2021-03-27T13:37:45Z</time>
      </trkpt>
      <trkpt lat="42.762833" lon="-3.113012">
        <ele>521.76</ele>
        <time>2021-03-27T13:37:50Z</time>
      </trkpt>
      <trkpt lat="42.762955" lon="-3.112809">
        <ele>521.92</ele>
        <time>2021-03-27T13:37:54Z</time>
      </trkpt>
      <trkpt lat="42.763105" lon="-3.112376">
        <ele>520.21</ele>
        <time>2021-03-27T13:37:58Z</time>
      </trkpt>
      <trkpt lat="42.76319" lon="-3.112196">
        <ele>521.41</ele>
        <time>2021-03-27T13:38:03Z</time>
      </trkpt>
      <trkpt lat="42.763817" lon="-3.111341">
        <ele>534.33</ele>
        <time>2021-03-27T13:38:07Z</time>
      </trkpt>
      <trkpt lat="42.764273" lon="-3.110803">
        <ele>521.45</ele>
        <time>2021-03-27T13:38:11Z</time>
      </trkpt>
      <trkpt lat="42.764548" lon="-3.110571">
        <ele>524.9</ele>
        <time>2021-03-27T13:38:15Z</time>
      </trkpt>
      <trkpt lat="42.764736" lon="-3.110359">
        <ele>525.12</ele>
        <time>2021-03-27T13:38:20Z</time>
      </trkpt>
      <trkpt lat="42.764809" lon="-3.11015">
        <ele>530.34</ele>
        <time>2021-03-27T13:38:24Z</time>
      </trkpt>
      <trkpt lat="42.764845" lon="-3.109806">
        <ele>532.05</ele>
        <time>2021-03-27T13:38:28Z</time>
      </trkpt>
      <trkpt lat="42.764893" lon="-3.109571">
        <ele>526.59</ele>
        <time>2021-03-27T13:38:32Z</time>
      </trkpt>
      <trkpt lat="42.765084" lon="-3.109138">
        <ele>520.68</ele>
        <time>2021-03-27T13:38:37Z</time>
      </trkpt>
      <trkpt lat="42.765348" lon="-3.108429">
        <ele>525.91</ele>
        <time>2021-03-27T13:38:41Z</time>
      </trkpt>
      <trkpt lat="42.765399" lon="-3.108225">
        <ele>524.01</ele>
        <time>2021-03-27T13:38:45Z</time>
      </trkpt>
      <trkpt lat="42.765409" lon="-3.106641">
        <ele>515.8</ele>
        <time>2021-03-27T13:38:50Z</time>
      </trkpt>
      <trkpt lat="42.765388" lon="-3.106452">
        <ele>517.34</ele>
        <time>2021-03-27T13:38:54Z</time>
      </trkpt>
      <trkpt lat="42.765294" lon="-3.106029">
        <ele>517.4</ele>
        <time>2021-03-27T13:38:58Z</time>
      </trkpt>
      <trkpt lat="42.76532" lon="-3.105772">
        <ele>518.09</ele>
        <time>2021-03-27T13:39:02Z</time>
      </trkpt>
      <trkpt lat="42.765362" lon="-3.105626">
        <ele>518.52</ele>
        <time>2021-03-27T13:39:07Z</time>
      </trkpt>
      <trkpt lat="42.765442" lon="-3.105456">
        <ele>519.69</ele>
        <time>2021-03-27T13:39:11Z</time>
      </trkpt>
      <trkpt lat="42.765679" lon="-3.105138">
        <ele>519.22</ele>
        <time>2021-03-27T13:39:15Z</time>
      </trkpt>
      <trkpt lat="42.766202" lon="-3.104681">
        <ele>518.85</ele>
        <time>2021-03-27T13:39:19Z</time>
      </trkpt>
      <trkpt lat="42.766625" lon="-3.104345">
        <ele>517.65</ele>
        <time>2021-03-27T13:39:24Z</time>
      </trkpt>
      <trkpt lat="42.766742" lon="-3.104221">
        <ele>518.35</ele>
        <time>2021-03-27T13:39:28Z</time>
      </trkpt>
      <trkpt lat="42.766823" lon="-3.104085">
        <ele>521.35</ele>
        <time>2021-03-27T13:39:32Z</time>
      </trkpt>
      <trkpt lat="42.767038" lon="-3.103539">
        <ele>527.07</ele>
        <time>2021-03-27T13:39:36Z</time>
      </trkpt>
      <trkpt lat="42.767147" lon="-3.103316">
        <ele>527.75</ele>
        <time>2021-03-27T13:39:41Z</time>
      </trkpt>
      <trkpt lat="42.767281" lon="-3.103107">
        <ele>525.89</ele>
        <time>2021-03-27T13:39:45Z</time>
      </trkpt>
      <trkpt lat="42.767398" lon="-3.102976">
        <ele>523.03</ele>
        <time>2021-03-27T13:39:49Z</time>
      </trkpt>
      <trkpt lat="42.767812" lon="-3.102618">
        <ele>527.33</ele>
        <time>2021-03-27T13:39:54Z</time>
      </trkpt>
      <trkpt lat="42.767892" lon="-3.102451">
        <ele>528.43</ele>
        <time>2021-03-27T13:39:58Z</time>
      </trkpt>
      <trkpt lat="42.767923" lon="-3.102314">
        <ele>526.64</ele>
        <time>2021-03-27T13:40:02Z</time>
      </trkpt>
      <trkpt lat="42.768136" lon="-3.100336">
        <ele>529.04</ele>
        <time>2021-03-27T13:40:06Z</time>
      </trkpt>
      <trkpt lat="42.768133" lon="-3.100187">
        <ele>525.12</ele>
        <time>2021-03-27T13:40:11Z</time>
      </trkpt>
      <trkpt lat="42.768018" lon="-3.099507">
        <ele>520.55</ele>
        <time>2021-03-27T13:40:15Z</time>
      </trkpt>
      <trkpt lat="42.768004" lon="-3.098879">
        <ele>529.92</ele>
        <time>2021-03-27T13:40:19Z</time>
      </trkpt>
      <trkpt lat="42.767972" lon="-3.098713">
        <ele>526.99</ele>
        <time>2021-03-27T13:40:23Z</time>
      </trkpt>
      <trkpt lat="42.767623" lon="-3.097485">
        <ele>517.8</ele>
        <time>2021-03-27T13:40:28Z</time>
      </trkpt>
      <trkpt lat="42.767608" lon="-3.097143">
        <ele>517.49</ele>
        <time>2021-03-27T13:40:32Z</time>
      </trkpt>
      <trkpt lat="42.76771" lon="-3.096235">
        <ele>514.77</ele>
        <time>2021-03-27T13:40:36Z</time>
      </trkpt>
      <trkpt lat="42.767705" lon="-3.096115">
        <ele>515.41</ele>
        <time>2021-03-27T13:40:40Z</time>
      </trkpt>
      <trkpt lat="42.767649" lon="-3.095865">
        <ele>515.58</ele>
        <time>2021-03-27T13:40:45Z</time>
      </trkpt>
      <trkpt lat="42.76754" lon="-3.095654">
        <ele>515.68</ele>
        <time>2021-03-27T13:40:49Z</time>
      </trkpt>
      <trkpt lat="42.767361" lon="-3.095468">
        <ele>513.17</ele>
        <time>2021-03-27T13:40:53Z</time>
      </trkpt>
      <trkpt lat="42.766773" lon="-3.095109">
        <ele>499.77</ele>
        <time>2021-03-27T13:40:58Z</time>
      </trkpt>
      <trkpt lat="42.766693" lon="-3.095029">
        <ele>499.93</ele>
        <time>2021-03-27T13:41:02Z</time>
      </trkpt>
      <trkpt lat="42.766629" lon="-3.094933">
        <ele>500.49</ele>
        <time>2021-03-27T13:41:06Z</time>
      </trkpt>
      <trkpt lat="42.766573" lon="-3.094804">
        <ele>501.54</ele>
        <time>2021-03-27T13:41:10Z</time>
      </trkpt>
      <trkpt lat="42.766419" lon="-3.094133">
        <ele>501.92</ele>
        <time>2021-03-27T13:41:15Z</time>
      </trkpt>
      <trkpt lat="42.766005" lon="-3.092674">
        <ele>495.68</ele>
        <time>2021-03-27T13:41:19Z</time>
      </trkpt>
      <trkpt lat="42.765473" lon="-3.090949">
        <ele>488.86</ele>
        <time>2021-03-27T13:41:23Z</time>
      </trkpt>
      <trkpt lat="42.765386" lon="-3.090737">
        <ele>489.99</ele>
        <time>2021-03-27T13:41:27Z</time>
      </trkpt>
      <trkpt lat="42.765224" lon="-3.090406">
        <ele>498.67</ele>
        <time>2021-03-27T13:41:32Z</time>
      </trkpt>
      <trkpt lat="42.765132" lon="-3.090299">
        <ele>500.72</ele>
        <time>2021-03-27T13:41:36Z</time>
      </trkpt>
      <trkpt lat="42.76494" lon="-3.090164">
        <ele>503.14</ele>
        <time>2021-03-27T13:41:40Z</time>
      </trkpt>
      <trkpt lat="42.764157" lon="-3.089845">
        <ele>498.4</ele>
        <time>2021-03-27T13:41:45Z</time>
      </trkpt>
      <trkpt lat="42.763843" lon="-3.089608">
        <ele>500.55</ele>
        <time>2021-03-27T13:41:49Z</time>
      </trkpt>
      <trkpt lat="42.763699" lon="-3.089533">
        <ele>503.15</ele>
        <time>2021-03-27T13:41:53Z</time>
      </trkpt>
      <trkpt lat="42.762248" lon="-3.089146">
        <ele>489.65</ele>
        <time>2021-03-27T13:41:57Z</time>
      </trkpt>
      <trkpt lat="42.762007" lon="-3.089063">
        <ele>489.01</ele>
        <time>2021-03-27T13:42:02Z</time>
      </trkpt>
      <trkpt lat="42.7618" lon="-3.0889">
        <ele>490.25</ele>
        <time>2021-03-27T13:42:06Z</time>
      </trkpt>
      <trkpt lat="42.761681" lon="-3.088745">
        <ele>491.83</ele>
        <time>2021-03-27T13:42:10Z</time>
      </trkpt>
      <trkpt lat="42.761401" lon="-3.088283">
        <ele>488.82</ele>
        <time>2021-03-27T13:42:14Z</time>
      </trkpt>
      <trkpt lat="42.761202" lon="-3.088077">
        <ele>490.78</ele>
        <time>2021-03-27T13:42:19Z</time>
      </trkpt>
      <trkpt lat="42.761035" lon="-3.087973">
        <ele>491.85</ele>
        <time>2021-03-27T13:42:23Z</time>
      </trkpt>
      <trkpt lat="42.760154" lon="-3.08756">
        <ele>487.82</ele>
        <time>2021-03-27T13:42:27Z</time>
      </trkpt>
      <trkpt lat="42.75998" lon="-3.08743">
        <ele>489.32</ele>
        <time>2021-03-27T13:42:31Z</time>
      </trkpt>
      <trkpt lat="42.759788" lon="-3.08721">
        <ele>488.33</ele>
        <time>2021-03-27T13:42:36Z</time>
      </trkpt>
      <trkpt lat="42.75904" lon="-3.086082">
        <ele>489.83</ele>
        <time>2021-03-27T13:42:40Z</time>
      </trkpt>
      <trkpt lat="42.758901" lon="-3.08581">
        <ele>485.32</ele>
        <time>2021-03-27T13:42:44Z</time>
      </trkpt>
      <trkpt lat="42.758828" lon="-3.085585">
        <ele>483.21</ele>
        <time>2021-03-27T13:42:49Z</time>
      </trkpt>
      <trkpt lat="42.758796" lon="-3.085339">
        <ele>483.44</ele>
        <time>2021-03-27T13:42:53Z</time>
      </trkpt>
      <trkpt lat="42.758813" lon="-3.084987">
        <ele>485.63</ele>
        <time>2021-03-27T13:42:57Z</time>
      </trkpt>
      <trkpt lat="42.758883" lon="-3.084717">
        <ele>486.85</ele>
        <time>2021-03-27T13:43:01Z</time>
      </trkpt>
      <trkpt lat="42.758949" lon="-3.084566">
        <ele>486.73</ele>
        <time>2021-03-27T13:43:06Z</time>
      </trkpt>
      <trkpt lat="42.759094" lon="-3.084334">
        <ele>486.36</ele>
        <time>2021-03-27T13:43:10Z</time>
      </trkpt>
      <trkpt lat="42.759334" lon="-3.084127">
        <ele>485.09</ele>
        <time>2021-03-27T13:43:14Z</time>
      </trkpt>
      <trkpt lat="42.759649" lon="-3.084017">
        <ele>482.71</ele>
        <time>2021-03-27T13:43:18Z</time>
      </trkpt>
      <trkpt lat="42.759846" lon="-3.083978">
        <ele>481.45</ele>
        <time>2021-03-27T13:43:23Z</time>
      </trkpt>
      <trkpt lat="42.760216" lon="-3.083821">
        <ele>481.5</ele>
        <time>2021-03-27T13:43:27Z</time>
      </trkpt>
      <trkpt lat="42.760323" lon="-3.083744">
        <ele>482.4</ele>
        <time>2021-03-27T13:43:31Z</time>
      </trkpt>
      <trkpt lat="42.760468" lon="-3.083601">
        <ele>483.33</ele>
        <time>2021-03-27T13:43:35Z</time>
      </trkpt>
      <trkpt lat="42.760857" lon="-3.083032">
        <ele>484.98</ele>
        <time>2021-03-27T13:43:40Z</time>
      </trkpt>
      <trkpt lat="42.761049" lon="-3.082801">
        <ele>483.3</ele>
        <time>2021-03-27T13:43:44Z</time>
      </trkpt>
      <trkpt lat="42.761318" lon="-3.082603">
        <ele>480.41</ele>
        <time>2021-03-27T13:43:48Z</time>
      </trkpt>
      <trkpt lat="42.76156" lon="-3.082506">
        <ele>480.61</ele>
        <time>2021-03-27T13:43:53Z</time>
      </trkpt>
      <trkpt lat="42.761901" lon="-3.082449">
        <ele>482.08</ele>
        <time>2021-03-27T13:43:57Z</time>
      </trkpt>
      <trkpt lat="42.763665" lon="-3.082265">
        <ele>485.24</ele>
        <time>2021-03-27T13:44:01Z</time>
      </trkpt>
      <trkpt lat="42.764038" lon="-3.082253">
        <ele>484.42</ele>
        <time>2021-03-27T13:44:05Z</time>
      </trkpt>
      <trkpt lat="42.764632" lon="-3.082274">
        <ele>485.58</ele>
        <time>2021-03-27T13:44:10Z</time>
      </trkpt>
      <trkpt lat="42.764869" lon="-3.08226">
        <ele>488.61</ele>
        <time>2021-03-27T13:44:14Z</time>
      </trkpt>
      <trkpt lat="42.765859" lon="-3.082081">
        <ele>480.46</ele>
        <time>2021-03-27T13:44:18Z</time>
      </trkpt>
      <trkpt lat="42.766379" lon="-3.081962">
        <ele>486.51</ele>
        <time>2021-03-27T13:44:22Z</time>
      </trkpt>
      <trkpt lat="42.766635" lon="-3.081848">
        <ele>488.58</ele>
        <time>2021-03-27T13:44:27Z</time>
      </trkpt>
      <trkpt lat="42.767149" lon="-3.081459">
        <ele>490.31</ele>
        <time>2021-03-27T13:44:31Z</time>
      </trkpt>
      <trkpt lat="42.767276" lon="-3.081322">
        <ele>489.27</ele>
        <time>2021-03-27T13:44:35Z</time>
      </trkpt>
      <trkpt lat="42.767432" lon="-3.08104">
        <ele>484.92</ele>
        <time>2021-03-27T13:44:39Z</time>
      </trkpt>
      <trkpt lat="42.767591" lon="-3.080612">
        <ele>482.89</ele>
        <time>2021-03-27T13:44:44Z</time>
      </trkpt>
      <trkpt lat="42.767651" lon="-3.080301">
        <ele>485.85</ele>
        <time>2021-03-27T13:44:48Z</time>
      </trkpt>
      <trkpt lat="42.767669" lon="-3.078765">
        <ele>481.42</ele>
        <time>2021-03-27T13:44:52Z</time>
      </trkpt>
      <trkpt lat="42.767653" lon="-3.078092">
        <ele>480.57</ele>
        <time>2021-03-27T13:44:57Z</time>
      </trkpt>
      <trkpt lat="42.76767" lon="-3.077718">
        <ele>482.66</ele>
        <time>2021-03-27T13:45:01Z</time>
      </trkpt>
      <trkpt lat="42.767622" lon="-3.077452">
        <ele>482.68</ele>
        <time>2021-03-27T13:45:05Z</time>
      </trkpt>
      <trkpt lat="42.767349" lon="-3.07649">
        <ele>480.75</ele>
        <time>2021-03-27T13:45:09Z</time>
      </trkpt>
      <trkpt lat="42.767269" lon="-3.076252">
        <ele>481.4</ele>
        <time>2021-03-27T13:45:14Z</time>
      </trkpt>
      <trkpt lat="42.76713" lon="-3.075981">
        <ele>482.43</ele>
        <time>2021-03-27T13:45:18Z</time>
      </trkpt>
      <trkpt lat="42.763771" lon="-3.070992">
        <ele>486.59</ele>
        <time>2021-03-27T13:45:22Z</time>
      </trkpt>
      <trkpt lat="42.76356" lon="-3.070625">
        <ele>486.76</ele>
        <time>2021-03-27T13:45:26Z</time>
      </trkpt>
      <trkpt lat="42.763453" lon="-3.070386">
        <ele>486.94</ele>
        <time>2021-03-27T13:45:31Z</time>
      </trkpt>
      <trkpt lat="42.763366" lon="-3.070133">
        <ele>487.39</ele>
        <time>2021-03-27T13:45:35Z</time>
      </trkpt>
      <trkpt lat="42.763256" lon="-3.069654">
        <ele>488.72</ele>
        <time>2021-03-27T13:45:39Z</time>
      </trkpt>
      <trkpt lat="42.763063" lon="-3.068452">
        <ele>487.05</ele>
        <time>2021-03-27T13:45:44Z</time>
      </trkpt>
      <trkpt lat="42.763048" lon="-3.068017">
        <ele>488.06</ele>
        <time>2021-03-27T13:45:48Z</time>
      </trkpt>
      <trkpt lat="42.763201" lon="-3.064946">
        <ele>483.52</ele>
        <time>2021-03-27T13:45:52Z</time>
      </trkpt>
      <trkpt lat="42.763365" lon="-3.063609">
        <ele>484.23</ele>
        <time>2021-03-27T13:45:56Z</time>
      </trkpt>
      <trkpt lat="42.765695" lon="-3.052075">
        <ele>471.5</ele>
        <time>2021-03-27T13:46:01Z</time>
      </trkpt>
      <trkpt lat="42.765919" lon="-3.050833">
        <ele>473.61</ele>
        <time>2021-03-27T13:46:05Z</time>
      </trkpt>
      <trkpt lat="42.766454" lon="-3.047499">
        <ele>471.47</ele>
        <time>2021-03-27T13:46:09Z</time>
      </trkpt>
      <trkpt lat="42.766486" lon="-3.047245">
        <ele>472.61</ele>
        <time>2021-03-27T13:46:13Z</time>
      </trkpt>
      <trkpt lat="42.766482" lon="-3.047015">
        <ele>474.4</ele>
        <time>2021-03-27T13:46:18Z</time>
      </trkpt>
      <trkpt lat="42.766093" lon="-3.047031">
        <ele>473.69</ele>
        <time>2021-03-27T13:46:22Z</time>
      </trkpt>
      <trkpt lat="42.765861" lon="-3.047006">
        <ele>473.78</ele>
        <time>2021-03-27T13:46:25Z</time>
      </trkpt>
      <trkpt lat="42.765659" lon="-3.04696">
        <ele>475.09</ele>
        <time>2021-03-27T13:46:29Z</time>
      </trkpt>
      <trkpt lat="42.765214" lon="-3.046805">
        <ele>476.94</ele>
        <time>2021-03-27T13:46:33Z</time>
      </trkpt>
      <trkpt lat="42.764487" lon="-3.046418">
        <ele>477.73</ele>
        <time>2021-03-27T13:46:36Z</time>
      </trkpt>
      <trkpt lat="42.764179" lon="-3.046293">
        <ele>474.92</ele>
        <time>2021-03-27T13:46:40Z</time>
      </trkpt>
      <trkpt lat="42.763796" lon="-3.046162">
        <ele>475.54</ele>
        <time>2021-03-27T13:46:44Z</time>
      </trkpt>
      <trkpt lat="42.76292" lon="-3.045919">
        <ele>476.45</ele>
        <time>2021-03-27T13:46:48Z</time>
      </trkpt>
      <trkpt lat="42.762409" lon="-3.045833">
        <ele>479.34</ele>
        <time>2021-03-27T13:46:51Z</time>
      </trkpt>
      <trkpt lat="42.761827" lon="-3.045799">
        <ele>477.91</ele>
        <time>2021-03-27T13:46:55Z</time>
      </trkpt>
      <trkpt lat="42.761232" lon="-3.045826">
        <ele>475.12</ele>
        <time>2021-03-27T13:46:59Z</time>
      </trkpt>
      <trkpt lat="42.760536" lon="-3.045951">
        <ele>472.61</ele>
        <time>2021-03-27T13:47:02Z</time>
      </trkpt>
      <trkpt lat="42.759673" lon="-3.046207">
        <ele>473.65</ele>
        <time>2021-03-27T13:47:06Z</time>
      </trkpt>
      <trkpt lat="42.758922" lon="-3.046438">
        <ele>473.53</ele>
        <time>2021-03-27T13:47:10Z</time>
      </trkpt>
      <trkpt lat="42.757191" lon="-3.046978">
        <ele>473.79</ele>
        <time>2021-03-27T13:47:14Z</time>
      </trkpt>
      <trkpt lat="42.75707" lon="-3.047041">
        <ele>473.09</ele>
        <time>2021-03-27T13:47:18Z</time>
      </trkpt>
      <trkpt lat="42.756574" lon="-3.047183">
        <ele>473.66</ele>
        <time>2021-03-27T13:47:23Z</time>
      </trkpt>
      <trkpt lat="42.754462" lon="-3.047861">
        <ele>477.66</ele>
        <time>2021-03-27T13:47:28Z</time>
      </trkpt>
      <trkpt lat="42.754196" lon="-3.047906">
        <ele>476.16</ele>
        <time>2021-03-27T13:47:33Z</time>
      </trkpt>
      <trkpt lat="42.753445" lon="-3.047909">
        <ele>473.6</ele>
        <time>2021-03-27T13:47:38Z</time>
      </trkpt>
      <trkpt lat="42.752385" lon="-3.04806">
        <ele>472.96</ele>
        <time>2021-03-27T13:47:43Z</time>
      </trkpt>
      <trkpt lat="42.752063" lon="-3.048061">
        <ele>472.96</ele>
        <time>2021-03-27T13:47:48Z</time>
      </trkpt>
      <trkpt lat="42.751812" lon="-3.048015">
        <ele>473.08</ele>
        <time>2021-03-27T13:47:53Z</time>
      </trkpt>
      <trkpt lat="42.750864" lon="-3.047733">
        <ele>472.89</ele>
        <time>2021-03-27T13:47:57Z</time>
      </trkpt>
      <trkpt lat="42.750694" lon="-3.047697">
        <ele>473.0</ele>
        <time>2021-03-27T13:48:02Z</time>
      </trkpt>
      <trkpt lat="42.750496" lon="-3.047687">
        <ele>473.0</ele>
        <time>2021-03-27T13:48:07Z</time>
      </trkpt>
      <trkpt lat="42.750083" lon="-3.047755">
        <ele>473.06</ele>
        <time>2021-03-27T13:48:12Z</time>
      </trkpt>
      <trkpt lat="42.749912" lon="-3.047859">
        <ele>472.73</ele>
        <time>2021-03-27T13:48:17Z</time>
      </trkpt>
      <trkpt lat="42.749739" lon="-3.04812">
        <ele>471.02</ele>
        <time>2021-03-27T13:48:22Z</time>
      </trkpt>
      <trkpt lat="42.749624" lon="-3.048375">
        <ele>468.3</ele>
        <time>2021-03-27T13:48:27Z</time>
      </trkpt>
      <trkpt lat="42.749242" lon="-3.049391">
        <ele>472.13</ele>
        <time>2021-03-27T13:48:32Z</time>
      </trkpt>
      <trkpt lat="42.749152" lon="-3.049553">
        <ele>473.89</ele>
        <time>2021-03-27T13:48:36Z</time>
      </trkpt>
      <trkpt lat="42.749002" lon="-3.049758">
        <ele>476.45</ele>
        <time>2021-03-27T13:48:41Z</time>
      </trkpt>
      <trkpt lat="42.748731" lon="-3.049947">
        <ele>479.72</ele>
        <time>2021-03-27T13:48:46Z</time>
      </trkpt>
      <trkpt lat="42.748643" lon="-3.049985">
        <ele>480.67</ele>
        <time>2021-03-27T13:48:51Z</time>
      </trkpt>
      <trkpt lat="42.748396" lon="-3.050033">
        <ele>482.72</ele>
        <time>2021-03-27T13:48:56Z</time>
      </trkpt>
      <trkpt lat="42.74815" lon="-3.05003">
        <ele>483.04</ele>
        <time>2021-03-27T13:49:01Z</time>
      </trkpt>
      <trkpt lat="42.748022" lon="-3.050002">
        <ele>482.63</ele>
        <time>2021-03-27T13:49:06Z</time>
      </trkpt>
      <trkpt lat="42.747745" lon="-3.049865">
        <ele>479.76</ele>
        <time>2021-03-27T13:49:11Z</time>
      </trkpt>
      <trkpt lat="42.747624" lon="-3.049779">
        <ele>478.89</ele>
        <time>2021-03-27T13:49:15Z</time>
      </trkpt>
      <trkpt lat="42.747022" lon="-3.049219">
        <ele>474.65</ele>
        <time>2021-03-27T13:49:20Z</time>
      </trkpt>
      <trkpt lat="42.746817" lon="-3.048928">
        <ele>474.45</ele>
        <time>2021-03-27T13:49:25Z</time>
      </trkpt>
      <trkpt lat="42.746308" lon="-3.048119">
        <ele>472.68</ele>
        <time>2021-03-27T13:49:30Z</time>
      </trkpt>
      <trkpt lat="42.745987" lon="-3.047654">
        <ele>471.49</ele>
        <time>2021-03-27T13:49:35Z</time>
      </trkpt>
      <trkpt lat="42.74574" lon="-3.04744">
        <ele>471.12</ele>
        <time>2021-03-27T13:49:40Z</time>
      </trkpt>
      <trkpt lat="42.745484" lon="-3.047253">
        <ele>471.6</ele>
        <time>2021-03-27T13:49:45Z</time>
      </trkpt>
      <trkpt lat="42.744646" lon="-3.046829">
        <ele>472.59</ele>
        <time>2021-03-27T13:49:50Z</time>
      </trkpt>
      <trkpt lat="42.744087" lon="-3.046574">
        <ele>471.28</ele>
        <time>2021-03-27T13:49:54Z</time>
      </trkpt>
      <trkpt lat="42.743881" lon="-3.04646">
        <ele>472.03</ele>
        <time>2021-03-27T13:49:59Z</time>
      </trkpt>
      <trkpt lat="42.743309" lon="-3.046207">
        <ele>474.0</ele>
        <time>2021-03-27T13:50:04Z</time>
      </trkpt>
      <trkpt lat="42.742129" lon="-3.045624">
        <ele>471.67</ele>
        <time>2021-03-27T13:50:09Z</time>
      </trkpt>
      <trkpt lat="42.741785" lon="-3.045503">
        <ele>471.19</ele>
        <time>2021-03-27T13:50:14Z</time>
      </trkpt>
      <trkpt lat="42.741139" lon="-3.045367">
        <ele>473.07</ele>
        <time>2021-03-27T13:50:19Z</time>
      </trkpt>
      <trkpt lat="42.740019" lon="-3.045356">
        <ele>477.68</ele>
        <time>2021-03-27T13:50:24Z</time>
      </trkpt>
      <trkpt lat="42.736419" lon="-3.045549">
        <ele>486.11</ele>
        <time>2021-03-27T13:50:29Z</time>
      </trkpt>
      <trkpt lat="42.736419" lon="-3.045549">
        <ele>486.11</ele>
        <time>2021-03-27T13:50:29Z</time>
      </trkpt>
      <trkpt lat="42.734628" lon="-3.045645">
        <ele>494.55</ele>
        <time>2021-03-27T13:50:33Z</time>
      </trkpt>
      <trkpt lat="42.734434" lon="-3.045638">
        <ele>495.02</ele>
        <time>2021-03-27T13:50:37Z</time>
      </trkpt>
      <trkpt lat="42.733828" lon="-3.045528">
        <ele>497.39</ele>
        <time>2021-03-27T13:50:42Z</time>
      </trkpt>
      <trkpt lat="42.732847" lon="-3.045225">
        <ele>498.61</ele>
        <time>2021-03-27T13:50:46Z</time>
      </trkpt>
      <trkpt lat="42.730133" lon="-3.044211">
        <ele>499.24</ele>
        <time>2021-03-27T13:50:50Z</time>
      </trkpt>
      <trkpt lat="42.72972" lon="-3.044148">
        <ele>498.93</ele>
        <time>2021-03-27T13:50:55Z</time>
      </trkpt>
      <trkpt lat="42.729158" lon="-3.044191">
        <ele>499.17</ele>
        <time>2021-03-27T13:50:59Z</time>
      </trkpt>
      <trkpt lat="42.72902" lon="-3.044251">
        <ele>499.29</ele>
        <time>2021-03-27T13:51:03Z</time>
      </trkpt>
      <trkpt lat="42.728973" lon="-3.043934">
        <ele>498.16</ele>
        <time>2021-03-27T13:51:07Z</time>
      </trkpt>
      <trkpt lat="42.728982" lon="-3.043696">
        <ele>497.77</ele>
        <time>2021-03-27T13:51:11Z</time>
      </trkpt>
      <trkpt lat="42.72945" lon="-3.041509">
        <ele>492.61</ele>
        <time>2021-03-27T13:51:15Z</time>
      </trkpt>
      <trkpt lat="42.729471" lon="-3.041388">
        <ele>493.19</ele>
        <time>2021-03-27T13:51:18Z</time>
      </trkpt>
      <trkpt lat="42.729472" lon="-3.04128">
        <ele>493.67</ele>
        <time>2021-03-27T13:51:22Z</time>
      </trkpt>
      <trkpt lat="42.729449" lon="-3.041044">
        <ele>494.55</ele>
        <time>2021-03-27T13:51:26Z</time>
      </trkpt>
      <trkpt lat="42.729391" lon="-3.040851">
        <ele>495.69</ele>
        <time>2021-03-27T13:51:29Z</time>
      </trkpt>
      <trkpt lat="42.729055" lon="-3.040181">
        <ele>496.0</ele>
        <time>2021-03-27T13:51:33Z</time>
      </trkpt>
      <trkpt lat="42.728971" lon="-3.039863">
        <ele>494.83</ele>
        <time>2021-03-27T13:51:37Z</time>
      </trkpt>
      <trkpt lat="42.728779" lon="-3.038669">
        <ele>490.2</ele>
        <time>2021-03-27T13:51:41Z</time>
      </trkpt>
      <trkpt lat="42.728763" lon="-3.038451">
        <ele>489.88</ele>
        <time>2021-03-27T13:51:44Z</time>
      </trkpt>
      <trkpt lat="42.728776" lon="-3.038254">
        <ele>489.49</ele>
        <time>2021-03-27T13:51:48Z</time>
      </trkpt>
      <trkpt lat="42.728831" lon="-3.037982">
        <ele>489.06</ele>
        <time>2021-03-27T13:51:52Z</time>
      </trkpt>
      <trkpt lat="42.72934" lon="-3.03633">
        <ele>492.98</ele>
        <time>2021-03-27T13:51:56Z</time>
      </trkpt>
      <trkpt lat="42.729404" lon="-3.036077">
        <ele>493.03</ele>
        <time>2021-03-27T13:51:59Z</time>
      </trkpt>
      <trkpt lat="42.729531" lon="-3.035474">
        <ele>488.86</ele>
        <time>2021-03-27T13:52:03Z</time>
      </trkpt>
      <trkpt lat="42.729707" lon="-3.034453">
        <ele>485.97</ele>
        <time>2021-03-27T13:52:07Z</time>
      </trkpt>
      <trkpt lat="42.729734" lon="-3.034161">
        <ele>483.15</ele>
        <time>2021-03-27T13:52:11Z</time>
      </trkpt>
      <trkpt lat="42.729728" lon="-3.033879">
        <ele>482.01</ele>
        <time>2021-03-27T13:52:14Z</time>
      </trkpt>
      <trkpt lat="42.729566" lon="-3.031911">
        <ele>479.44</ele>
        <time>2021-03-27T13:52:18Z</time>
      </trkpt>
      <trkpt lat="42.729639" lon="-3.030898">
        <ele>481.4</ele>
        <time>2021-03-27T13:52:22Z</time>
      </trkpt>
      <trkpt lat="42.729664" lon="-3.030764">
        <ele>481.08</ele>
        <time>2021-03-27T13:52:25Z</time>
      </trkpt>
      <trkpt lat="42.729717" lon="-3.030611">
        <ele>480.36</ele>
        <time>2021-03-27T13:52:29Z</time>
      </trkpt>
      <trkpt lat="42.729807" lon="-3.030466">
        <ele>480.07</ele>
        <time>2021-03-27T13:52:33Z</time>
      </trkpt>
      <trkpt lat="42.730329" lon="-3.029771">
        <ele>483.06</ele>
        <time>2021-03-27T13:52:37Z</time>
      </trkpt>
      <trkpt lat="42.731017" lon="-3.029146">
        <ele>485.85</ele>
        <time>2021-03-27T13:52:40Z</time>
      </trkpt>
      <trkpt lat="42.731156" lon="-3.028978">
        <ele>485.07</ele>
        <time>2021-03-27T13:52:44Z</time>
      </trkpt>
      <trkpt lat="42.731241" lon="-3.028826">
        <ele>485.08</ele>
        <time>2021-03-27T13:52:48Z</time>
      </trkpt>
      <trkpt lat="42.731744" lon="-3.027653">
        <ele>483.35</ele>
        <time>2021-03-27T13:52:52Z</time>
      </trkpt>
      <trkpt lat="42.73192" lon="-3.027361">
        <ele>484.56</ele>
        <time>2021-03-27T13:52:55Z</time>
      </trkpt>
      <trkpt lat="42.732031" lon="-3.027123">
        <ele>484.11</ele>
        <time>2021-03-27T13:52:59Z</time>
      </trkpt>
      <trkpt lat="42.732062" lon="-3.02701">
        <ele>483.41</ele>
        <time>2021-03-27T13:53:03Z</time>
      </trkpt>
      <trkpt lat="42.732117" lon="-3.026547">
        <ele>482.7</ele>
        <time>2021-03-27T13:53:07Z</time>
      </trkpt>
      <trkpt lat="42.732128" lon="-3.026064">
        <ele>482.19</ele>
        <time>2021-03-27T13:53:10Z</time>
      </trkpt>
      <trkpt lat="42.732083" lon="-3.025526">
        <ele>479.28</ele>
        <time>2021-03-27T13:53:14Z</time>
      </trkpt>
      <trkpt lat="42.732029" lon="-3.025383">
        <ele>477.67</ele>
        <time>2021-03-27T13:53:18Z</time>
      </trkpt>
      <trkpt lat="42.73197" lon="-3.025298">
        <ele>476.43</ele>
        <time>2021-03-27T13:53:21Z</time>
      </trkpt>
      <trkpt lat="42.731855" lon="-3.025204">
        <ele>475.09</ele>
        <time>2021-03-27T13:53:25Z</time>
      </trkpt>
      <trkpt lat="42.731545" lon="-3.025034">
        <ele>473.07</ele>
        <time>2021-03-27T13:53:29Z</time>
      </trkpt>
      <trkpt lat="42.731453" lon="-3.024959">
        <ele>473.26</ele>
        <time>2021-03-27T13:53:33Z</time>
      </trkpt>
      <trkpt lat="42.731349" lon="-3.024828">
        <ele>474.61</ele>
        <time>2021-03-27T13:53:36Z</time>
      </trkpt>
      <trkpt lat="42.731232" lon="-3.024581">
        <ele>477.48</ele>
        <time>2021-03-27T13:53:40Z</time>
      </trkpt>
      <trkpt lat="42.731159" lon="-3.024318">
        <ele>479.01</ele>
        <time>2021-03-27T13:53:44Z</time>
      </trkpt>
      <trkpt lat="42.731143" lon="-3.024187">
        <ele>478.82</ele>
        <time>2021-03-27T13:53:48Z</time>
      </trkpt>
      <trkpt lat="42.731144" lon="-3.023982">
        <ele>477.51</ele>
        <time>2021-03-27T13:53:51Z</time>
      </trkpt>
      <trkpt lat="42.731242" lon="-3.02347">
        <ele>478.04</ele>
        <time>2021-03-27T13:53:55Z</time>
      </trkpt>
      <trkpt lat="42.731234" lon="-3.023314">
        <ele>478.65</ele>
        <time>2021-03-27T13:53:59Z</time>
      </trkpt>
      <trkpt lat="42.731178" lon="-3.023142">
        <ele>479.61</ele>
        <time>2021-03-27T13:54:02Z</time>
      </trkpt>
      <trkpt lat="42.731022" lon="-3.022895">
        <ele>480.0</ele>
        <time>2021-03-27T13:54:06Z</time>
      </trkpt>
      <trkpt lat="42.73077" lon="-3.022547">
        <ele>480.19</ele>
        <time>2021-03-27T13:54:10Z</time>
      </trkpt>
      <trkpt lat="42.730615" lon="-3.022378">
        <ele>481.13</ele>
        <time>2021-03-27T13:54:14Z</time>
      </trkpt>
      <trkpt lat="42.730262" lon="-3.022047">
        <ele>482.7</ele>
        <time>2021-03-27T13:54:17Z</time>
      </trkpt>
      <trkpt lat="42.730152" lon="-3.0219">
        <ele>483.29</ele>
        <time>2021-03-27T13:54:21Z</time>
      </trkpt>
      <trkpt lat="42.729787" lon="-3.021137">
        <ele>484.39</ele>
        <time>2021-03-27T13:54:25Z</time>
      </trkpt>
      <trkpt lat="42.729633" lon="-3.020881">
        <ele>485.18</ele>
        <time>2021-03-27T13:54:29Z</time>
      </trkpt>
      <trkpt lat="42.729406" lon="-3.020578">
        <ele>484.52</ele>
        <time>2021-03-27T13:54:32Z</time>
      </trkpt>
      <trkpt lat="42.729254" lon="-3.020444">
        <ele>484.7</ele>
        <time>2021-03-27T13:54:36Z</time>
      </trkpt>
      <trkpt lat="42.728611" lon="-3.020021">
        <ele>486.08</ele>
        <time>2021-03-27T13:54:40Z</time>
      </trkpt>
      <trkpt lat="42.728423" lon="-3.019853">
        <ele>486.68</ele>
        <time>2021-03-27T13:54:44Z</time>
      </trkpt>
      <trkpt lat="42.728317" lon="-3.019682">
        <ele>487.06</ele>
        <time>2021-03-27T13:54:47Z</time>
      </trkpt>
      <trkpt lat="42.728171" lon="-3.019307">
        <ele>487.09</ele>
        <time>2021-03-27T13:54:51Z</time>
      </trkpt>
      <trkpt lat="42.728076" lon="-3.019161">
        <ele>486.88</ele>
        <time>2021-03-27T13:54:55Z</time>
      </trkpt>
      <trkpt lat="42.728025" lon="-3.019117">
        <ele>486.66</ele>
        <time>2021-03-27T13:54:58Z</time>
      </trkpt>
      <trkpt lat="42.72773" lon="-3.019035">
        <ele>486.45</ele>
        <time>2021-03-27T13:55:02Z</time>
      </trkpt>
      <trkpt lat="42.727582" lon="-3.018925">
        <ele>485.52</ele>
        <time>2021-03-27T13:55:06Z</time>
      </trkpt>
      <trkpt lat="42.727259" lon="-3.018501">
        <ele>485.39</ele>
        <time>2021-03-27T13:55:10Z</time>
      </trkpt>
      <trkpt lat="42.726955" lon="-3.017832">
        <ele>485.12</ele>
        <time>2021-03-27T13:55:13Z</time>
      </trkpt>
      <trkpt lat="42.726834" lon="-3.017704">
        <ele>485.92</ele>
        <time>2021-03-27T13:55:17Z</time>
      </trkpt>
      <trkpt lat="42.726347" lon="-3.017463">
        <ele>489.13</ele>
        <time>2021-03-27T13:55:21Z</time>
      </trkpt>
      <trkpt lat="42.726219" lon="-3.017377">
        <ele>489.34</ele>
        <time>2021-03-27T13:55:25Z</time>
      </trkpt>
      <trkpt lat="42.725749" lon="-3.016951">
        <ele>489.64</ele>
        <time>2021-03-27T13:55:28Z</time>
      </trkpt>
      <trkpt lat="42.725644" lon="-3.016879">
        <ele>489.97</ele>
        <time>2021-03-27T13:55:32Z</time>
      </trkpt>
      <trkpt lat="42.725387" lon="-3.016768">
        <ele>491.17</ele>
        <time>2021-03-27T13:55:36Z</time>
      </trkpt>
      <trkpt lat="42.723928" lon="-3.016371">
        <ele>497.21</ele>
        <time>2021-03-27T13:55:39Z</time>
      </trkpt>
      <trkpt lat="42.723741" lon="-3.016254">
        <ele>496.42</ele>
        <time>2021-03-27T13:55:43Z</time>
      </trkpt>
      <trkpt lat="42.723301" lon="-3.015822">
        <ele>492.77</ele>
        <time>2021-03-27T13:55:47Z</time>
      </trkpt>
      <trkpt lat="42.723207" lon="-3.015751">
        <ele>492.09</ele>
        <time>2021-03-27T13:55:51Z</time>
      </trkpt>
      <trkpt lat="42.7231" lon="-3.015689">
        <ele>491.32</ele>
        <time>2021-03-27T13:55:54Z</time>
      </trkpt>
      <trkpt lat="42.722782" lon="-3.01556">
        <ele>490.02</ele>
        <time>2021-03-27T13:55:58Z</time>
      </trkpt>
      <trkpt lat="42.722677" lon="-3.015527">
        <ele>489.67</ele>
        <time>2021-03-27T13:56:02Z</time>
      </trkpt>
      <trkpt lat="42.722501" lon="-3.015524">
        <ele>489.12</ele>
        <time>2021-03-27T13:56:06Z</time>
      </trkpt>
      <trkpt lat="42.721854" lon="-3.015672">
        <ele>485.83</ele>
        <time>2021-03-27T13:56:09Z</time>
      </trkpt>
      <trkpt lat="42.721644" lon="-3.015628">
        <ele>485.29</ele>
        <time>2021-03-27T13:56:13Z</time>
      </trkpt>
      <trkpt lat="42.721452" lon="-3.015489">
        <ele>484.93</ele>
        <time>2021-03-27T13:56:17Z</time>
      </trkpt>
      <trkpt lat="42.720741" lon="-3.014851">
        <ele>483.65</ele>
        <time>2021-03-27T13:56:21Z</time>
      </trkpt>
      <trkpt lat="42.720627" lon="-3.014717">
        <ele>482.51</ele>
        <time>2021-03-27T13:56:24Z</time>
      </trkpt>
      <trkpt lat="42.720537" lon="-3.014463">
        <ele>481.87</ele>
        <time>2021-03-27T13:56:28Z</time>
      </trkpt>
      <trkpt lat="42.720343" lon="-3.013406">
        <ele>477.7</ele>
        <time>2021-03-27T13:56:32Z</time>
      </trkpt>
      <trkpt lat="42.720305" lon="-3.012948">
        <ele>476.91</ele>
        <time>2021-03-27T13:56:35Z</time>
      </trkpt>
      <trkpt lat="42.720678" lon="-3.007303">
        <ele>469.98</ele>
        <time>2021-03-27T13:56:39Z</time>
      </trkpt>
      <trkpt lat="42.720684" lon="-3.00706">
        <ele>469.54</ele>
        <time>2021-03-27T13:56:43Z</time>
      </trkpt>
      <trkpt lat="42.720672" lon="-3.006856">
        <ele>469.58</ele>
        <time>2021-03-27T13:56:47Z</time>
      </trkpt>
      <trkpt lat="42.720568" lon="-3.006324">
        <ele>469.73</ele>
        <time>2021-03-27T13:56:50Z</time>
      </trkpt>
      <trkpt lat="42.719809" lon="-3.004059">
        <ele>470.69</ele>
        <time>2021-03-27T13:56:54Z</time>
      </trkpt>
      <trkpt lat="42.719522" lon="-3.002984">
        <ele>468.9</ele>
        <time>2021-03-27T13:56:58Z</time>
      </trkpt>
      <trkpt lat="42.719218" lon="-3.00164">
        <ele>472.54</ele>
        <time>2021-03-27T13:57:02Z</time>
      </trkpt>
      <trkpt lat="42.718853" lon="-3.000164">
        <ele>474.74</ele>
        <time>2021-03-27T13:57:05Z</time>
      </trkpt>
      <trkpt lat="42.718229" lon="-2.998004">
        <ele>471.0</ele>
        <time>2021-03-27T13:57:09Z</time>
      </trkpt>
      <trkpt lat="42.718142" lon="-2.997725">
        <ele>470.81</ele>
        <time>2021-03-27T13:57:13Z</time>
      </trkpt>
      <trkpt lat="42.718056" lon="-2.997514">
        <ele>470.05</ele>
        <time>2021-03-27T13:57:16Z</time>
      </trkpt>
      <trkpt lat="42.717852" lon="-2.997121">
        <ele>468.17</ele>
        <time>2021-03-27T13:57:20Z</time>
      </trkpt>
      <trkpt lat="42.717614" lon="-2.996817">
        <ele>467.67</ele>
        <time>2021-03-27T13:57:24Z</time>
      </trkpt>
      <trkpt lat="42.717333" lon="-2.996553">
        <ele>467.79</ele>
        <time>2021-03-27T13:57:28Z</time>
      </trkpt>
      <trkpt lat="42.712217" lon="-2.991902">
        <ele>466.88</ele>
        <time>2021-03-27T13:57:31Z</time>
      </trkpt>
      <trkpt lat="42.711494" lon="-2.991295">
        <ele>465.66</ele>
        <time>2021-03-27T13:57:35Z</time>
      </trkpt>
      <trkpt lat="42.711243" lon="-2.99114">
        <ele>465.57</ele>
        <time>2021-03-27T13:57:39Z</time>
      </trkpt>
      <trkpt lat="42.710695" lon="-2.990891">
        <ele>469.48</ele>
        <time>2021-03-27T13:57:43Z</time>
      </trkpt>
      <trkpt lat="42.710559" lon="-2.990801">
        <ele>471.95</ele>
        <time>2021-03-27T13:57:46Z</time>
      </trkpt>
      <trkpt lat="42.71032" lon="-2.990595">
        <ele>475.4</ele>
        <time>2021-03-27T13:57:50Z</time>
      </trkpt>
      <trkpt lat="42.709801" lon="-2.990072">
        <ele>477.71</ele>
        <time>2021-03-27T13:57:54Z</time>
      </trkpt>
      <trkpt lat="42.709426" lon="-2.989813">
        <ele>479.09</ele>
        <time>2021-03-27T13:57:58Z</time>
      </trkpt>
      <trkpt lat="42.709146" lon="-2.989699">
        <ele>480.07</ele>
        <time>2021-03-27T13:58:01Z</time>
      </trkpt>
      <trkpt lat="42.708936" lon="-2.989574">
        <ele>480.39</ele>
        <time>2021-03-27T13:58:05Z</time>
      </trkpt>
      <trkpt lat="42.708695" lon="-2.989363">
        <ele>478.92</ele>
        <time>2021-03-27T13:58:09Z</time>
      </trkpt>
      <trkpt lat="42.70533" lon="-2.985972">
        <ele>474.31</ele>
        <time>2021-03-27T13:58:12Z</time>
      </trkpt>
      <trkpt lat="42.702496" lon="-2.983015">
        <ele>464.86</ele>
        <time>2021-03-27T13:58:16Z</time>
      </trkpt>
      <trkpt lat="42.70157" lon="-2.982101">
        <ele>464.57</ele>
        <time>2021-03-27T13:58:20Z</time>
      </trkpt>
      <trkpt lat="42.700225" lon="-2.98085">
        <ele>462.01</ele>
        <time>2021-03-27T13:58:24Z</time>
      </trkpt>
      <trkpt lat="42.69961" lon="-2.980183">
        <ele>462.2</ele>
        <time>2021-03-27T13:58:27Z</time>
      </trkpt>
      <trkpt lat="42.699205" lon="-2.979676">
        <ele>463.69</ele>
        <time>2021-03-27T13:58:31Z</time>
      </trkpt>
      <trkpt lat="42.699107" lon="-2.979522">
        <ele>463.06</ele>
        <time>2021-03-27T13:58:35Z</time>
      </trkpt>
      <trkpt lat="42.698852" lon="-2.979035">
        <ele>459.66</ele>
        <time>2021-03-27T13:58:39Z</time>
      </trkpt>
      <trkpt lat="42.698567" lon="-2.97858">
        <ele>461.16</ele>
        <time>2021-03-27T13:58:42Z</time>
      </trkpt>
      <trkpt lat="42.698232" lon="-2.978124">
        <ele>461.73</ele>
        <time>2021-03-27T13:58:46Z</time>
      </trkpt>
      <trkpt lat="42.697944" lon="-2.977809">
        <ele>461.0</ele>
        <time>2021-03-27T13:58:50Z</time>
      </trkpt>
      <trkpt lat="42.697689" lon="-2.977583">
        <ele>460.36</ele>
        <time>2021-03-27T13:58:53Z</time>
      </trkpt>
      <trkpt lat="42.696819" lon="-2.976905">
        <ele>464.64</ele>
        <time>2021-03-27T13:58:57Z</time>
      </trkpt>
      <trkpt lat="42.695833" lon="-2.975911">
        <ele>469.84</ele>
        <time>2021-03-27T13:59:01Z</time>
      </trkpt>
      <trkpt lat="42.695639" lon="-2.975679">
        <ele>469.91</ele>
        <time>2021-03-27T13:59:05Z</time>
      </trkpt>
      <trkpt lat="42.694024" lon="-2.973144">
        <ele>470.0</ele>
        <time>2021-03-27T13:59:08Z</time>
      </trkpt>
      <trkpt lat="42.693884" lon="-2.972956">
        <ele>470.01</ele>
        <time>2021-03-27T13:59:12Z</time>
      </trkpt>
      <trkpt lat="42.692001" lon="-2.970802">
        <ele>470.82</ele>
        <time>2021-03-27T13:59:16Z</time>
      </trkpt>
      <trkpt lat="42.691093" lon="-2.969804">
        <ele>460.96</ele>
        <time>2021-03-27T13:59:20Z</time>
      </trkpt>
      <trkpt lat="42.690898" lon="-2.969527">
        <ele>462.23</ele>
        <time>2021-03-27T13:59:23Z</time>
      </trkpt>
      <trkpt lat="42.690601" lon="-2.968897">
        <ele>464.86</ele>
        <time>2021-03-27T13:59:27Z</time>
      </trkpt>
      <trkpt lat="42.690416" lon="-2.968397">
        <ele>462.84</ele>
        <time>2021-03-27T13:59:31Z</time>
      </trkpt>
      <trkpt lat="42.688803" lon="-2.963268">
        <ele>460.23</ele>
        <time>2021-03-27T13:59:35Z</time>
      </trkpt>
      <trkpt lat="42.688731" lon="-2.963252">
        <ele>460.4</ele>
        <time>2021-03-27T13:59:38Z</time>
      </trkpt>
      <trkpt lat="42.688672" lon="-2.963293">
        <ele>460.67</ele>
        <time>2021-03-27T13:59:40Z</time>
      </trkpt>
      <trkpt lat="42.68849" lon="-2.963538">
        <ele>461.74</ele>
        <time>2021-03-27T13:59:43Z</time>
      </trkpt>
      <trkpt lat="42.688024" lon="-2.963987">
        <ele>463.19</ele>
        <time>2021-03-27T13:59:46Z</time>
      </trkpt>
      <trkpt lat="42.687837" lon="-2.964213">
        <ele>463.65</ele>
        <time>2021-03-27T13:59:49Z</time>
      </trkpt>
      <trkpt lat="42.687677" lon="-2.964516">
        <ele>463.26</ele>
        <time>2021-03-27T13:59:52Z</time>
      </trkpt>
      <trkpt lat="42.687406" lon="-2.964917">
        <ele>465.4</ele>
        <time>2021-03-27T13:59:55Z</time>
      </trkpt>
      <trkpt lat="42.687291" lon="-2.965051">
        <ele>466.32</ele>
        <time>2021-03-27T13:59:58Z</time>
      </trkpt>
      <trkpt lat="42.687179" lon="-2.965127">
        <ele>467.0</ele>
        <time>2021-03-27T14:00:01Z</time>
      </trkpt>
      <trkpt lat="42.68706" lon="-2.965153">
        <ele>467.36</ele>
        <time>2021-03-27T14:00:04Z</time>
      </trkpt>
      <trkpt lat="42.686839" lon="-2.96513">
        <ele>467.67</ele>
        <time>2021-03-27T14:00:07Z</time>
      </trkpt>
      <trkpt lat="42.686065" lon="-2.964927">
        <ele>464.1</ele>
        <time>2021-03-27T14:00:10Z</time>
      </trkpt>
      <trkpt lat="42.685646" lon="-2.964876">
        <ele>463.45</ele>
        <time>2021-03-27T14:00:13Z</time>
      </trkpt>
      <trkpt lat="42.685622" lon="-2.964967">
        <ele>463.12</ele>
        <time>2021-03-27T14:00:22Z</time>
      </trkpt>
      <trkpt lat="42.685411" lon="-2.965358">
        <ele>463.15</ele>
        <time>2021-03-27T14:00:31Z</time>
      </trkpt>
      <trkpt lat="42.684636" lon="-2.970457">
        <ele>466.33</ele>
        <time>2021-03-27T14:00:40Z</time>
      </trkpt>
      <trkpt lat="42.684522" lon="-2.971159">
        <ele>467.61</ele>
        <time>2021-03-27T14:00:49Z</time>
      </trkpt>
      <trkpt lat="42.684411" lon="-2.971665">
        <ele>466.76</ele>
        <time>2021-03-27T14:00:58Z</time>
      </trkpt>
      <trkpt lat="42.684297" lon="-2.972077">
        <ele>465.47</ele>
        <time>2021-03-27T14:01:07Z</time>
      </trkpt>
      <trkpt lat="42.684054" lon="-2.972743">
        <ele>468.16</ele>
        <time>2021-03-27T14:01:16Z</time>
      </trkpt>
      <trkpt lat="42.68371" lon="-2.973424">
        <ele>467.92</ele>
        <time>2021-03-27T14:01:25Z</time>
      </trkpt>
      <trkpt lat="42.683552" lon="-2.973683">
        <ele>467.22</ele>
        <time>2021-03-27T14:01:34Z</time>
      </trkpt>
      <trkpt lat="42.683275" lon="-2.974071">
        <ele>467.89</ele>
        <time>2021-03-27T14:01:44Z</time>
      </trkpt>
      <trkpt lat="42.672066" lon="-2.987888">
        <ele>487.44</ele>
        <time>2021-03-27T14:01:53Z</time>
      </trkpt>
      <trkpt lat="42.671728" lon="-2.988301">
        <ele>486.31</ele>
        <time>2021-03-27T14:02:02Z</time>
      </trkpt>
      <trkpt lat="42.671048" lon="-2.989299">
        <ele>489.12</ele>
        <time>2021-03-27T14:02:11Z</time>
      </trkpt>
      <trkpt lat="42.670841" lon="-2.989645">
        <ele>488.3</ele>
        <time>2021-03-27T14:02:20Z</time>
      </trkpt>
      <trkpt lat="42.670591" lon="-2.990073">
        <ele>488.27</ele>
        <time>2021-03-27T14:02:24Z</time>
      </trkpt>
      <trkpt lat="42.670537" lon="-2.99013">
        <ele>488.5</ele>
        <time>2021-03-27T14:02:28Z</time>
      </trkpt>
      <trkpt lat="42.670449" lon="-2.99014">
        <ele>488.7</ele>
        <time>2021-03-27T14:02:32Z</time>
      </trkpt>
      <trkpt lat="42.670411" lon="-2.990107">
        <ele>488.7</ele>
        <time>2021-03-27T14:02:36Z</time>
      </trkpt>
      <trkpt lat="42.670367" lon="-2.990039">
        <ele>488.72</ele>
        <time>2021-03-27T14:02:40Z</time>
      </trkpt>
      <trkpt lat="42.670289" lon="-2.989828">
        <ele>488.96</ele>
        <time>2021-03-27T14:02:44Z</time>
      </trkpt>
      <trkpt lat="42.670284" lon="-2.989758">
        <ele>488.98</ele>
        <time>2021-03-27T14:02:47Z</time>
      </trkpt>
      <trkpt lat="42.670293" lon="-2.989526">
        <ele>489.65</ele>
        <time>2021-03-27T14:02:51Z</time>
      </trkpt>
      <trkpt lat="42.670898" lon="-2.983613">
        <ele>483.23</ele>
        <time>2021-03-27T14:02:55Z</time>
      </trkpt>
      <trkpt lat="42.668116" lon="-2.98263">
        <ele>490.0</ele>
        <time>2021-03-27T14:02:59Z</time>
      </trkpt>
      <trkpt lat="42.667823" lon="-2.982628">
        <ele>490.0</ele>
        <time>2021-03-27T14:03:03Z</time>
      </trkpt>
      <trkpt lat="42.666465" lon="-2.982885">
        <ele>490.0</ele>
        <time>2021-03-27T14:03:06Z</time>
      </trkpt>
      <trkpt lat="42.66634" lon="-2.98294">
        <ele>489.92</ele>
        <time>2021-03-27T14:03:10Z</time>
      </trkpt>
      <trkpt lat="42.665453" lon="-2.983451">
        <ele>490.69</ele>
        <time>2021-03-27T14:03:14Z</time>
      </trkpt>
      <trkpt lat="42.665216" lon="-2.983548">
        <ele>490.55</ele>
        <time>2021-03-27T14:03:18Z</time>
      </trkpt>
      <trkpt lat="42.664221" lon="-2.98386">
        <ele>489.79</ele>
        <time>2021-03-27T14:03:21Z</time>
      </trkpt>
      <trkpt lat="42.663522" lon="-2.983857">
        <ele>489.96</ele>
        <time>2021-03-27T14:03:25Z</time>
      </trkpt>
      <trkpt lat="42.662202" lon="-2.983814">
        <ele>492.18</ele>
        <time>2021-03-27T14:03:29Z</time>
      </trkpt>
      <trkpt lat="42.661941" lon="-2.983801">
        <ele>494.36</ele>
        <time>2021-03-27T14:03:32Z</time>
      </trkpt>
      <trkpt lat="42.661435" lon="-2.983728">
        <ele>493.85</ele>
        <time>2021-03-27T14:03:36Z</time>
      </trkpt>
      <trkpt lat="42.661128" lon="-2.983717">
        <ele>494.12</ele>
        <time>2021-03-27T14:03:40Z</time>
      </trkpt>
      <trkpt lat="42.659668" lon="-2.983913">
        <ele>494.55</ele>
        <time>2021-03-27T14:03:44Z</time>
      </trkpt>
      <trkpt lat="42.658771" lon="-2.984122">
        <ele>499.18</ele>
        <time>2021-03-27T14:03:47Z</time>
      </trkpt>
      <trkpt lat="42.658372" lon="-2.984225">
        <ele>498.74</ele>
        <time>2021-03-27T14:03:51Z</time>
      </trkpt>
      <trkpt lat="42.658214" lon="-2.984306">
        <ele>498.86</ele>
        <time>2021-03-27T14:03:55Z</time>
      </trkpt>
      <trkpt lat="42.657945" lon="-2.984517">
        <ele>500.25</ele>
        <time>2021-03-27T14:03:58Z</time>
      </trkpt>
      <trkpt lat="42.657371" lon="-2.985019">
        <ele>501.85</ele>
        <time>2021-03-27T14:04:02Z</time>
      </trkpt>
      <trkpt lat="42.657254" lon="-2.985088">
        <ele>501.33</ele>
        <time>2021-03-27T14:04:06Z</time>
      </trkpt>
      <trkpt lat="42.656974" lon="-2.985195">
        <ele>497.63</ele>
        <time>2021-03-27T14:04:09Z</time>
      </trkpt>
      <trkpt lat="42.656339" lon="-2.985373">
        <ele>502.21</ele>
        <time>2021-03-27T14:04:13Z</time>
      </trkpt>
      <trkpt lat="42.656215" lon="-2.985385">
        <ele>502.79</ele>
        <time>2021-03-27T14:04:17Z</time>
      </trkpt>
      <trkpt lat="42.656037" lon="-2.985357">
        <ele>503.39</ele>
        <time>2021-03-27T14:04:21Z</time>
      </trkpt>
      <trkpt lat="42.654987" lon="-2.984917">
        <ele>501.56</ele>
        <time>2021-03-27T14:04:24Z</time>
      </trkpt>
      <trkpt lat="42.654827" lon="-2.984835">
        <ele>500.65</ele>
        <time>2021-03-27T14:04:28Z</time>
      </trkpt>
      <trkpt lat="42.654734" lon="-2.98477">
        <ele>499.81</ele>
        <time>2021-03-27T14:04:32Z</time>
      </trkpt>
      <trkpt lat="42.654512" lon="-2.984544">
        <ele>499.46</ele>
        <time>2021-03-27T14:04:35Z</time>
      </trkpt>
      <trkpt lat="42.653967" lon="-2.983943">
        <ele>503.49</ele>
        <time>2021-03-27T14:04:39Z</time>
      </trkpt>
      <trkpt lat="42.653839" lon="-2.983829">
        <ele>503.35</ele>
        <time>2021-03-27T14:04:43Z</time>
      </trkpt>
      <trkpt lat="42.653766" lon="-2.9838">
        <ele>502.77</ele>
        <time>2021-03-27T14:04:47Z</time>
      </trkpt>
      <trkpt lat="42.653618" lon="-2.983812">
        <ele>502.2</ele>
        <time>2021-03-27T14:04:50Z</time>
      </trkpt>
      <trkpt lat="42.653548" lon="-2.983862">
        <ele>502.27</ele>
        <time>2021-03-27T14:04:54Z</time>
      </trkpt>
      <trkpt lat="42.652955" lon="-2.984504">
        <ele>499.9</ele>
        <time>2021-03-27T14:04:58Z</time>
      </trkpt>
      <trkpt lat="42.652865" lon="-2.984683">
        <ele>499.38</ele>
        <time>2021-03-27T14:05:01Z</time>
      </trkpt>
      <trkpt lat="42.652666" lon="-2.985266">
        <ele>501.45</ele>
        <time>2021-03-27T14:05:05Z</time>
      </trkpt>
      <trkpt lat="42.652538" lon="-2.985592">
        <ele>503.22</ele>
        <time>2021-03-27T14:05:09Z</time>
      </trkpt>
      <trkpt lat="42.652477" lon="-2.985685">
        <ele>503.03</ele>
        <time>2021-03-27T14:05:12Z</time>
      </trkpt>
      <trkpt lat="42.65159" lon="-2.986771">
        <ele>498.48</ele>
        <time>2021-03-27T14:05:16Z</time>
      </trkpt>
      <trkpt lat="42.651393" lon="-2.986953">
        <ele>499.04</ele>
        <time>2021-03-27T14:05:20Z</time>
      </trkpt>
      <trkpt lat="42.649768" lon="-2.988066">
        <ele>496.19</ele>
        <time>2021-03-27T14:05:24Z</time>
      </trkpt>
      <trkpt lat="42.64963" lon="-2.988181">
        <ele>496.63</ele>
        <time>2021-03-27T14:05:27Z</time>
      </trkpt>
      <trkpt lat="42.649089" lon="-2.988728">
        <ele>499.56</ele>
        <time>2021-03-27T14:05:31Z</time>
      </trkpt>
      <trkpt lat="42.648866" lon="-2.988954">
        <ele>500.45</ele>
        <time>2021-03-27T14:05:35Z</time>
      </trkpt>
      <trkpt lat="42.648781" lon="-2.989068">
        <ele>501.04</ele>
        <time>2021-03-27T14:05:38Z</time>
      </trkpt>
      <trkpt lat="42.647883" lon="-2.99081">
        <ele>505.12</ele>
        <time>2021-03-27T14:05:42Z</time>
      </trkpt>
      <trkpt lat="42.647757" lon="-2.991096">
        <ele>504.67</ele>
        <time>2021-03-27T14:05:46Z</time>
      </trkpt>
      <trkpt lat="42.647538" lon="-2.992069">
        <ele>508.26</ele>
        <time>2021-03-27T14:05:49Z</time>
      </trkpt>
      <trkpt lat="42.647543" lon="-2.992249">
        <ele>508.1</ele>
        <time>2021-03-27T14:05:53Z</time>
      </trkpt>
      <trkpt lat="42.64758" lon="-2.992402">
        <ele>508.27</ele>
        <time>2021-03-27T14:05:57Z</time>
      </trkpt>
      <trkpt lat="42.647969" lon="-2.993265">
        <ele>511.17</ele>
        <time>2021-03-27T14:06:01Z</time>
      </trkpt>
      <trkpt lat="42.648469" lon="-2.994265">
        <ele>508.05</ele>
        <time>2021-03-27T14:06:04Z</time>
      </trkpt>
      <trkpt lat="42.649017" lon="-2.995282">
        <ele>504.83</ele>
        <time>2021-03-27T14:06:08Z</time>
      </trkpt>
      <trkpt lat="42.649867" lon="-2.996449">
        <ele>510.06</ele>
        <time>2021-03-27T14:06:12Z</time>
      </trkpt>
      <trkpt lat="42.650548" lon="-2.997343">
        <ele>510.58</ele>
        <time>2021-03-27T14:06:15Z</time>
      </trkpt>
      <trkpt lat="42.650733" lon="-2.997646">
        <ele>509.57</ele>
        <time>2021-03-27T14:06:19Z</time>
      </trkpt>
      <trkpt lat="42.651325" lon="-2.998937">
        <ele>512.21</ele>
        <time>2021-03-27T14:06:23Z</time>
      </trkpt>
      <trkpt lat="42.651378" lon="-2.999159">
        <ele>511.98</ele>
        <time>2021-03-27T14:06:27Z</time>
      </trkpt>
      <trkpt lat="42.651371" lon="-2.999291">
        <ele>511.54</ele>
        <time>2021-03-27T14:06:30Z</time>
      </trkpt>
      <trkpt lat="42.651131" lon="-3.00016">
        <ele>513.27</ele>
        <time>2021-03-27T14:06:34Z</time>
      </trkpt>
      <trkpt lat="42.65112" lon="-3.000388">
        <ele>514.22</ele>
        <time>2021-03-27T14:06:38Z</time>
      </trkpt>
      <trkpt lat="42.651321" lon="-3.001503">
        <ele>514.78</ele>
        <time>2021-03-27T14:06:41Z</time>
      </trkpt>
      <trkpt lat="42.65135" lon="-3.00159">
        <ele>514.56</ele>
        <time>2021-03-27T14:06:45Z</time>
      </trkpt>
      <trkpt lat="42.651625" lon="-3.002154">
        <ele>513.41</ele>
        <time>2021-03-27T14:06:49Z</time>
      </trkpt>
      <trkpt lat="42.651713" lon="-3.002471">
        <ele>512.92</ele>
        <time>2021-03-27T14:06:52Z</time>
      </trkpt>
      <trkpt lat="42.651859" lon="-3.003568">
        <ele>511.56</ele>
        <time>2021-03-27T14:06:56Z</time>
      </trkpt>
      <trkpt lat="42.651877" lon="-3.0039">
        <ele>510.22</ele>
        <time>2021-03-27T14:07:00Z</time>
      </trkpt>
      <trkpt lat="42.651747" lon="-3.005017">
        <ele>516.21</ele>
        <time>2021-03-27T14:07:04Z</time>
      </trkpt>
      <trkpt lat="42.651592" lon="-3.006173">
        <ele>513.18</ele>
        <time>2021-03-27T14:07:07Z</time>
      </trkpt>
      <trkpt lat="42.651145" lon="-3.008843">
        <ele>515.88</ele>
        <time>2021-03-27T14:07:11Z</time>
      </trkpt>
      <trkpt lat="42.650322" lon="-3.013499">
        <ele>526.84</ele>
        <time>2021-03-27T14:07:15Z</time>
      </trkpt>
      <trkpt lat="42.649405" lon="-3.016745">
        <ele>535.52</ele>
        <time>2021-03-27T14:07:18Z</time>
      </trkpt>
      <trkpt lat="42.649324" lon="-3.017017">
        <ele>536.58</ele>
        <time>2021-03-27T14:07:22Z</time>
      </trkpt>
      <trkpt lat="42.649137" lon="-3.017267">
        <ele>537.19</ele>
        <time>2021-03-27T14:07:26Z</time>
      </trkpt>
      <trkpt lat="42.648741" lon="-3.017716">
        <ele>538.29</ele>
        <time>2021-03-27T14:07:30Z</time>
      </trkpt>
      <trkpt lat="42.64862" lon="-3.017933">
        <ele>538.38</ele>
        <time>2021-03-27T14:07:33Z</time>
      </trkpt>
      <trkpt lat="42.648011" lon="-3.019352">
        <ele>538.48</ele>
        <time>2021-03-27T14:07:37Z</time>
      </trkpt>
      <trkpt lat="42.647484" lon="-3.020426">
        <ele>536.28</ele>
        <time>2021-03-27T14:07:41Z</time>
      </trkpt>
      <trkpt lat="42.647414" lon="-3.020525">
        <ele>537.07</ele>
        <time>2021-03-27T14:07:44Z</time>
      </trkpt>
      <trkpt lat="42.647336" lon="-3.020587">
        <ele>538.33</ele>
        <time>2021-03-27T14:07:48Z</time>
      </trkpt>
      <trkpt lat="42.647229" lon="-3.020628">
        <ele>540.58</ele>
        <time>2021-03-27T14:07:52Z</time>
      </trkpt>
      <trkpt lat="42.647001" lon="-3.020637">
        <ele>543.66</ele>
        <time>2021-03-27T14:07:55Z</time>
      </trkpt>
      <trkpt lat="42.646889" lon="-3.020637">
        <ele>544.22</ele>
        <time>2021-03-27T14:07:59Z</time>
      </trkpt>
      <trkpt lat="42.646694" lon="-3.020652">
        <ele>543.4</ele>
        <time>2021-03-27T14:08:03Z</time>
      </trkpt>
      <trkpt lat="42.646562" lon="-3.020728">
        <ele>542.38</ele>
        <time>2021-03-27T14:08:07Z</time>
      </trkpt>
      <trkpt lat="42.646485" lon="-3.020808">
        <ele>541.53</ele>
        <time>2021-03-27T14:08:10Z</time>
      </trkpt>
      <trkpt lat="42.646451" lon="-3.020893">
        <ele>540.84</ele>
        <time>2021-03-27T14:08:14Z</time>
      </trkpt>
      <trkpt lat="42.646321" lon="-3.021563">
        <ele>538.66</ele>
        <time>2021-03-27T14:08:18Z</time>
      </trkpt>
      <trkpt lat="42.646238" lon="-3.021897">
        <ele>538.25</ele>
        <time>2021-03-27T14:08:21Z</time>
      </trkpt>
      <trkpt lat="42.646186" lon="-3.022016">
        <ele>538.39</ele>
        <time>2021-03-27T14:08:25Z</time>
      </trkpt>
      <trkpt lat="42.646097" lon="-3.022159">
        <ele>539.19</ele>
        <time>2021-03-27T14:08:29Z</time>
      </trkpt>
      <trkpt lat="42.645616" lon="-3.022793">
        <ele>542.19</ele>
        <time>2021-03-27T14:08:33Z</time>
      </trkpt>
      <trkpt lat="42.64544" lon="-3.023004">
        <ele>543.36</ele>
        <time>2021-03-27T14:08:36Z</time>
      </trkpt>
      <trkpt lat="42.645202" lon="-3.023181">
        <ele>542.55</ele>
        <time>2021-03-27T14:08:40Z</time>
      </trkpt>
      <trkpt lat="42.645081" lon="-3.023229">
        <ele>541.07</ele>
        <time>2021-03-27T14:08:44Z</time>
      </trkpt>
      <trkpt lat="42.644738" lon="-3.023302">
        <ele>540.0</ele>
        <time>2021-03-27T14:08:47Z</time>
      </trkpt>
      <trkpt lat="42.644521" lon="-3.023397">
        <ele>540.65</ele>
        <time>2021-03-27T14:08:51Z</time>
      </trkpt>
      <trkpt lat="42.644365" lon="-3.02351">
        <ele>543.08</ele>
        <time>2021-03-27T14:08:55Z</time>
      </trkpt>
      <trkpt lat="42.644236" lon="-3.023631">
        <ele>547.98</ele>
        <time>2021-03-27T14:08:58Z</time>
      </trkpt>
      <trkpt lat="42.644119" lon="-3.023782">
        <ele>551.95</ele>
        <time>2021-03-27T14:09:02Z</time>
      </trkpt>
      <trkpt lat="42.643924" lon="-3.024169">
        <ele>553.42</ele>
        <time>2021-03-27T14:09:06Z</time>
      </trkpt>
      <trkpt lat="42.643755" lon="-3.02462">
        <ele>546.46</ele>
        <time>2021-03-27T14:09:10Z</time>
      </trkpt>
      <trkpt lat="42.643701" lon="-3.024725">
        <ele>544.67</ele>
        <time>2021-03-27T14:09:13Z</time>
      </trkpt>
      <trkpt lat="42.64353" lon="-3.024914">
        <ele>542.73</ele>
        <time>2021-03-27T14:09:17Z</time>
      </trkpt>
      <trkpt lat="42.643449" lon="-3.024969">
        <ele>542.42</ele>
        <time>2021-03-27T14:09:21Z</time>
      </trkpt>
      <trkpt lat="42.643252" lon="-3.025014">
        <ele>542.33</ele>
        <time>2021-03-27T14:09:24Z</time>
      </trkpt>
      <trkpt lat="42.643132" lon="-3.025004">
        <ele>541.55</ele>
        <time>2021-03-27T14:09:28Z</time>
      </trkpt>
      <trkpt lat="42.643008" lon="-3.024967">
        <ele>541.39</ele>
        <time>2021-03-27T14:09:32Z</time>
      </trkpt>
      <trkpt lat="42.641735" lon="-3.02422">
        <ele>549.11</ele>
        <time>2021-03-27T14:09:35Z</time>
      </trkpt>
      <trkpt lat="42.640169" lon="-3.023505">
        <ele>551.24</ele>
        <time>2021-03-27T14:09:39Z</time>
      </trkpt>
      <trkpt lat="42.639607" lon="-3.023047">
        <ele>552.43</ele>
        <time>2021-03-27T14:09:43Z</time>
      </trkpt>
      <trkpt lat="42.639506" lon="-3.022982">
        <ele>552.84</ele>
        <time>2021-03-27T14:09:47Z</time>
      </trkpt>
      <trkpt lat="42.63932" lon="-3.022896">
        <ele>554.08</ele>
        <time>2021-03-27T14:09:50Z</time>
      </trkpt>
      <trkpt lat="42.639103" lon="-3.022888">
        <ele>555.53</ele>
        <time>2021-03-27T14:09:54Z</time>
      </trkpt>
      <trkpt lat="42.637209" lon="-3.02321">
        <ele>562.22</ele>
        <time>2021-03-27T14:09:58Z</time>
      </trkpt>
      <trkpt lat="42.634758" lon="-3.023457">
        <ele>566.59</ele>
        <time>2021-03-27T14:10:01Z</time>
      </trkpt>
      <trkpt lat="42.63393" lon="-3.023521">
        <ele>566.61</ele>
        <time>2021-03-27T14:10:05Z</time>
      </trkpt>
      <trkpt lat="42.633233" lon="-3.023616">
        <ele>568.14</ele>
        <time>2021-03-27T14:10:09Z</time>
      </trkpt>
      <trkpt lat="42.630585" lon="-3.024467">
        <ele>578.47</ele>
        <time>2021-03-27T14:10:13Z</time>
      </trkpt>
      <trkpt lat="42.630338" lon="-3.024622">
        <ele>581.47</ele>
        <time>2021-03-27T14:10:16Z</time>
      </trkpt>
      <trkpt lat="42.629628" lon="-3.02497">
        <ele>585.16</ele>
        <time>2021-03-27T14:10:20Z</time>
      </trkpt>
      <trkpt lat="42.629338" lon="-3.025141">
        <ele>586.44</ele>
        <time>2021-03-27T14:10:24Z</time>
      </trkpt>
      <trkpt lat="42.628352" lon="-3.025851">
        <ele>592.47</ele>
        <time>2021-03-27T14:10:27Z</time>
      </trkpt>
      <trkpt lat="42.62787" lon="-3.026242">
        <ele>598.19</ele>
        <time>2021-03-27T14:10:31Z</time>
      </trkpt>
      <trkpt lat="42.62762" lon="-3.026371">
        <ele>600.71</ele>
        <time>2021-03-27T14:10:35Z</time>
      </trkpt>
      <trkpt lat="42.627307" lon="-3.026447">
        <ele>602.33</ele>
        <time>2021-03-27T14:10:38Z</time>
      </trkpt>
      <trkpt lat="42.626882" lon="-3.026402">
        <ele>602.2</ele>
        <time>2021-03-27T14:10:42Z</time>
      </trkpt>
      <trkpt lat="42.626775" lon="-3.02641">
        <ele>603.83</ele>
        <time>2021-03-27T14:10:46Z</time>
      </trkpt>
      <trkpt lat="42.626685" lon="-3.026447">
        <ele>605.61</ele>
        <time>2021-03-27T14:10:50Z</time>
      </trkpt>
      <trkpt lat="42.626525" lon="-3.026557">
        <ele>607.83</ele>
        <time>2021-03-27T14:10:53Z</time>
      </trkpt>
      <trkpt lat="42.626001" lon="-3.026945">
        <ele>612.82</ele>
        <time>2021-03-27T14:10:57Z</time>
      </trkpt>
      <trkpt lat="42.625882" lon="-3.026998">
        <ele>613.23</ele>
        <time>2021-03-27T14:11:01Z</time>
      </trkpt>
      <trkpt lat="42.624824" lon="-3.02708">
        <ele>621.55</ele>
        <time>2021-03-27T14:11:04Z</time>
      </trkpt>
      <trkpt lat="42.62418" lon="-3.027191">
        <ele>622.3</ele>
        <time>2021-03-27T14:11:08Z</time>
      </trkpt>
      <trkpt lat="42.623326" lon="-3.027118">
        <ele>617.36</ele>
        <time>2021-03-27T14:11:12Z</time>
      </trkpt>
      <trkpt lat="42.622762" lon="-3.027118">
        <ele>626.14</ele>
        <time>2021-03-27T14:11:16Z</time>
      </trkpt>
      <trkpt lat="42.622636" lon="-3.027053">
        <ele>627.5</ele>
        <time>2021-03-27T14:11:19Z</time>
      </trkpt>
      <trkpt lat="42.622167" lon="-3.026577">
        <ele>627.76</ele>
        <time>2021-03-27T14:11:23Z</time>
      </trkpt>
      <trkpt lat="42.621992" lon="-3.026439">
        <ele>630.7</ele>
        <time>2021-03-27T14:11:27Z</time>
      </trkpt>
      <trkpt lat="42.621109" lon="-3.025938">
        <ele>627.51</ele>
        <time>2021-03-27T14:11:30Z</time>
      </trkpt>
      <trkpt lat="42.619808" lon="-3.025605">
        <ele>633.47</ele>
        <time>2021-03-27T14:11:34Z</time>
      </trkpt>
      <trkpt lat="42.619612" lon="-3.025607">
        <ele>634.54</ele>
        <time>2021-03-27T14:11:38Z</time>
      </trkpt>
      <trkpt lat="42.619439" lon="-3.02569">
        <ele>635.37</ele>
        <time>2021-03-27T14:11:41Z</time>
      </trkpt>
      <trkpt lat="42.619227" lon="-3.025914">
        <ele>636.3</ele>
        <time>2021-03-27T14:11:45Z</time>
      </trkpt>
      <trkpt lat="42.619007" lon="-3.026304">
        <ele>637.42</ele>
        <time>2021-03-27T14:11:49Z</time>
      </trkpt>
      <trkpt lat="42.617984" lon="-3.028471">
        <ele>645.61</ele>
        <time>2021-03-27T14:11:53Z</time>
      </trkpt>
      <trkpt lat="42.617826" lon="-3.028656">
        <ele>645.51</ele>
        <time>2021-03-27T14:11:56Z</time>
      </trkpt>
      <trkpt lat="42.617599" lon="-3.028784">
        <ele>644.98</ele>
        <time>2021-03-27T14:12:00Z</time>
      </trkpt>
      <trkpt lat="42.615366" lon="-3.029844">
        <ele>654.24</ele>
        <time>2021-03-27T14:12:04Z</time>
      </trkpt>
      <trkpt lat="42.615233" lon="-3.029869">
        <ele>655.23</ele>
        <time>2021-03-27T14:12:07Z</time>
      </trkpt>
      <trkpt lat="42.614938" lon="-3.029836">
        <ele>655.73</ele>
        <time>2021-03-27T14:12:11Z</time>
      </trkpt>
      <trkpt lat="42.614561" lon="-3.029738">
        <ele>654.26</ele>
        <time>2021-03-27T14:12:15Z</time>
      </trkpt>
      <trkpt lat="42.61439" lon="-3.029752">
        <ele>654.78</ele>
        <time>2021-03-27T14:12:19Z</time>
      </trkpt>
      <trkpt lat="42.614321" lon="-3.029813">
        <ele>655.91</ele>
        <time>2021-03-27T14:12:22Z</time>
      </trkpt>
      <trkpt lat="42.614272" lon="-3.029894">
        <ele>656.95</ele>
        <time>2021-03-27T14:12:26Z</time>
      </trkpt>
      <trkpt lat="42.614205" lon="-3.030079">
        <ele>658.61</ele>
        <time>2021-03-27T14:12:30Z</time>
      </trkpt>
      <trkpt lat="42.614205" lon="-3.030193">
        <ele>659.48</ele>
        <time>2021-03-27T14:12:33Z</time>
      </trkpt>
      <trkpt lat="42.61444" lon="-3.032787">
        <ele>670.96</ele>
        <time>2021-03-27T14:12:37Z</time>
      </trkpt>
      <trkpt lat="42.614492" lon="-3.033102">
        <ele>672.2</ele>
        <time>2021-03-27T14:12:41Z</time>
      </trkpt>
      <trkpt lat="42.615058" lon="-3.03584">
        <ele>683.62</ele>
        <time>2021-03-27T14:12:44Z</time>
      </trkpt>
      <trkpt lat="42.615081" lon="-3.036047">
        <ele>683.87</ele>
        <time>2021-03-27T14:12:48Z</time>
      </trkpt>
      <trkpt lat="42.615024" lon="-3.03642">
        <ele>683.57</ele>
        <time>2021-03-27T14:12:52Z</time>
      </trkpt>
      <trkpt lat="42.614966" lon="-3.03669">
        <ele>685.13</ele>
        <time>2021-03-27T14:12:56Z</time>
      </trkpt>
      <trkpt lat="42.614919" lon="-3.036822">
        <ele>686.38</ele>
        <time>2021-03-27T14:12:59Z</time>
      </trkpt>
      <trkpt lat="42.614857" lon="-3.036936">
        <ele>687.4</ele>
        <time>2021-03-27T14:13:03Z</time>
      </trkpt>
      <trkpt lat="42.614503" lon="-3.037356">
        <ele>688.39</ele>
        <time>2021-03-27T14:13:07Z</time>
      </trkpt>
      <trkpt lat="42.614274" lon="-3.037771">
        <ele>686.91</ele>
        <time>2021-03-27T14:13:10Z</time>
      </trkpt>
      <trkpt lat="42.61354" lon="-3.039219">
        <ele>686.96</ele>
        <time>2021-03-27T14:13:14Z</time>
      </trkpt>
      <trkpt lat="42.613428" lon="-3.039396">
        <ele>687.07</ele>
        <time>2021-03-27T14:13:18Z</time>
      </trkpt>
      <trkpt lat="42.609287" lon="-3.04183">
        <ele>684.61</ele>
        <time>2021-03-27T14:13:22Z</time>
      </trkpt>
      <trkpt lat="42.608569" lon="-3.042285">
        <ele>684.47</ele>
        <time>2021-03-27T14:13:25Z</time>
      </trkpt>
      <trkpt lat="42.596864" lon="-3.050043">
        <ele>654.4</ele>
        <time>2021-03-27T14:13:29Z</time>
      </trkpt>
      <trkpt lat="42.596655" lon="-3.050256">
        <ele>655.04</ele>
        <time>2021-03-27T14:13:33Z</time>
      </trkpt>
      <trkpt lat="42.595692" lon="-3.051488">
        <ele>662.35</ele>
        <time>2021-03-27T14:13:36Z</time>
      </trkpt>
      <trkpt lat="42.594797" lon="-3.052683">
        <ele>665.96</ele>
        <time>2021-03-27T14:13:40Z</time>
      </trkpt>
      <trkpt lat="42.593337" lon="-3.054581">
        <ele>671.98</ele>
        <time>2021-03-27T14:13:44Z</time>
      </trkpt>
      <trkpt lat="42.593077" lon="-3.054892">
        <ele>672.88</ele>
        <time>2021-03-27T14:13:47Z</time>
      </trkpt>
      <trkpt lat="42.592902" lon="-3.05499">
        <ele>673.0</ele>
        <time>2021-03-27T14:13:51Z</time>
      </trkpt>
      <trkpt lat="42.59261" lon="-3.055102">
        <ele>672.4</ele>
        <time>2021-03-27T14:13:55Z</time>
      </trkpt>
      <trkpt lat="42.588455" lon="-3.056502">
        <ele>679.0</ele>
        <time>2021-03-27T14:13:59Z</time>
      </trkpt>
      <trkpt lat="42.588086" lon="-3.056605">
        <ele>679.89</ele>
        <time>2021-03-27T14:14:02Z</time>
      </trkpt>
      <trkpt lat="42.587375" lon="-3.056855">
        <ele>679.55</ele>
        <time>2021-03-27T14:14:06Z</time>
      </trkpt>
      <trkpt lat="42.585772" lon="-3.057367">
        <ele>680.24</ele>
        <time>2021-03-27T14:14:10Z</time>
      </trkpt>
      <trkpt lat="42.585515" lon="-3.057422">
        <ele>679.29</ele>
        <time>2021-03-27T14:14:13Z</time>
      </trkpt>
      <trkpt lat="42.585262" lon="-3.057396">
        <ele>678.2</ele>
        <time>2021-03-27T14:14:17Z</time>
      </trkpt>
      <trkpt lat="42.584894" lon="-3.057286">
        <ele>677.22</ele>
        <time>2021-03-27T14:14:21Z</time>
      </trkpt>
      <trkpt lat="42.584754" lon="-3.057203">
        <ele>677.69</ele>
        <time>2021-03-27T14:14:24Z</time>
      </trkpt>
      <trkpt lat="42.584026" lon="-3.056668">
        <ele>678.02</ele>
        <time>2021-03-27T14:14:28Z</time>
      </trkpt>
      <trkpt lat="42.583816" lon="-3.056576">
        <ele>678.85</ele>
        <time>2021-03-27T14:14:32Z</time>
      </trkpt>
      <trkpt lat="42.583649" lon="-3.056543">
        <ele>679.04</ele>
        <time>2021-03-27T14:14:36Z</time>
      </trkpt>
      <trkpt lat="42.580869" lon="-3.05627">
        <ele>666.42</ele>
        <time>2021-03-27T14:14:39Z</time>
      </trkpt>
      <trkpt lat="42.580686" lon="-3.056225">
        <ele>665.42</ele>
        <time>2021-03-27T14:14:43Z</time>
      </trkpt>
      <trkpt lat="42.580364" lon="-3.056054">
        <ele>664.08</ele>
        <time>2021-03-27T14:14:47Z</time>
      </trkpt>
      <trkpt lat="42.58006" lon="-3.055806">
        <ele>664.14</ele>
        <time>2021-03-27T14:14:50Z</time>
      </trkpt>
      <trkpt lat="42.579606" lon="-3.055484">
        <ele>666.21</ele>
        <time>2021-03-27T14:14:54Z</time>
      </trkpt>
      <trkpt lat="42.5794" lon="-3.055408">
        <ele>666.73</ele>
        <time>2021-03-27T14:14:58Z</time>
      </trkpt>
      <trkpt lat="42.57896" lon="-3.055321">
        <ele>668.33</ele>
        <time>2021-03-27T14:15:02Z</time>
      </trkpt>
      <trkpt lat="42.578689" lon="-3.055182">
        <ele>668.55</ele>
        <time>2021-03-27T14:15:05Z</time>
      </trkpt>
      <trkpt lat="42.578217" lon="-3.054765">
        <ele>669.28</ele>
        <time>2021-03-27T14:15:09Z</time>
      </trkpt>
      <trkpt lat="42.578053" lon="-3.054642">
        <ele>668.12</ele>
        <time>2021-03-27T14:15:13Z</time>
      </trkpt>
      <trkpt lat="42.576606" lon="-3.053737">
        <ele>661.45</ele>
        <time>2021-03-27T14:15:16Z</time>
      </trkpt>
      <trkpt lat="42.576381" lon="-3.053641">
        <ele>661.05</ele>
        <time>2021-03-27T14:15:20Z</time>
      </trkpt>
      <trkpt lat="42.576241" lon="-3.053628">
        <ele>660.03</ele>
        <time>2021-03-27T14:15:24Z</time>
      </trkpt>
      <trkpt lat="42.575" lon="-3.053651">
        <ele>650.86</ele>
        <time>2021-03-27T14:15:27Z</time>
      </trkpt>
      <trkpt lat="42.567909" lon="-3.053834">
        <ele>641.22</ele>
        <time>2021-03-27T14:15:31Z</time>
      </trkpt>
      <trkpt lat="42.567683" lon="-3.053875">
        <ele>641.2</ele>
        <time>2021-03-27T14:15:35Z</time>
      </trkpt>
      <trkpt lat="42.56757" lon="-3.053926">
        <ele>640.6</ele>
        <time>2021-03-27T14:15:39Z</time>
      </trkpt>
      <trkpt lat="42.567173" lon="-3.054207">
        <ele>636.65</ele>
        <time>2021-03-27T14:15:42Z</time>
      </trkpt>
      <trkpt lat="42.566776" lon="-3.054452">
        <ele>635.47</ele>
        <time>2021-03-27T14:15:46Z</time>
      </trkpt>
      <trkpt lat="42.566296" lon="-3.054583">
        <ele>634.99</ele>
        <time>2021-03-27T14:15:50Z</time>
      </trkpt>
      <trkpt lat="42.565849" lon="-3.054649">
        <ele>633.06</ele>
        <time>2021-03-27T14:15:53Z</time>
      </trkpt>
      <trkpt lat="42.565724" lon="-3.054621">
        <ele>632.69</ele>
        <time>2021-03-27T14:15:57Z</time>
      </trkpt>
      <trkpt lat="42.56519" lon="-3.054175">
        <ele>626.5</ele>
        <time>2021-03-27T14:16:01Z</time>
      </trkpt>
      <trkpt lat="42.565106" lon="-3.054122">
        <ele>625.06</ele>
        <time>2021-03-27T14:16:05Z</time>
      </trkpt>
      <trkpt lat="42.564906" lon="-3.054055">
        <ele>623.73</ele>
        <time>2021-03-27T14:16:08Z</time>
      </trkpt>
      <trkpt lat="42.564448" lon="-3.053994">
        <ele>628.07</ele>
        <time>2021-03-27T14:16:12Z</time>
      </trkpt>
      <trkpt lat="42.564356" lon="-3.053941">
        <ele>628.71</ele>
        <time>2021-03-27T14:16:16Z</time>
      </trkpt>
      <trkpt lat="42.564259" lon="-3.053827">
        <ele>629.0</ele>
        <time>2021-03-27T14:16:19Z</time>
      </trkpt>
      <trkpt lat="42.564243" lon="-3.053746">
        <ele>628.35</ele>
        <time>2021-03-27T14:16:23Z</time>
      </trkpt>
      <trkpt lat="42.56424" lon="-3.053419">
        <ele>625.55</ele>
        <time>2021-03-27T14:16:27Z</time>
      </trkpt>
      <trkpt lat="42.564226" lon="-3.053357">
        <ele>625.32</ele>
        <time>2021-03-27T14:16:30Z</time>
      </trkpt>
      <trkpt lat="42.564172" lon="-3.053263">
        <ele>625.67</ele>
        <time>2021-03-27T14:16:34Z</time>
      </trkpt>
      <trkpt lat="42.564122" lon="-3.053219">
        <ele>625.36</ele>
        <time>2021-03-27T14:16:38Z</time>
      </trkpt>
      <trkpt lat="42.564058" lon="-3.053203">
        <ele>624.96</ele>
        <time>2021-03-27T14:16:42Z</time>
      </trkpt>
      <trkpt lat="42.563995" lon="-3.053219">
        <ele>624.72</ele>
        <time>2021-03-27T14:16:45Z</time>
      </trkpt>
      <trkpt lat="42.563886" lon="-3.05331">
        <ele>624.79</ele>
        <time>2021-03-27T14:16:49Z</time>
      </trkpt>
      <trkpt lat="42.562905" lon="-3.054402">
        <ele>627.39</ele>
        <time>2021-03-27T14:16:53Z</time>
      </trkpt>
      <trkpt lat="42.562836" lon="-3.054449">
        <ele>628.64</ele>
        <time>2021-03-27T14:16:56Z</time>
      </trkpt>
      <trkpt lat="42.562728" lon="-3.054442">
        <ele>629.14</ele>
        <time>2021-03-27T14:17:00Z</time>
      </trkpt>
      <trkpt lat="42.562672" lon="-3.054382">
        <ele>628.43</ele>
        <time>2021-03-27T14:17:04Z</time>
      </trkpt>
      <trkpt lat="42.562617" lon="-3.054266">
        <ele>627.11</ele>
        <time>2021-03-27T14:17:08Z</time>
      </trkpt>
      <trkpt lat="42.561729" lon="-3.05165">
        <ele>609.27</ele>
        <time>2021-03-27T14:17:11Z</time>
      </trkpt>
      <trkpt lat="42.561682" lon="-3.051407">
        <ele>608.9</ele>
        <time>2021-03-27T14:17:15Z</time>
      </trkpt>
      <trkpt lat="42.561707" lon="-3.051197">
        <ele>607.77</ele>
        <time>2021-03-27T14:17:19Z</time>
      </trkpt>
      <trkpt lat="42.562798" lon="-3.048707">
        <ele>597.49</ele>
        <time>2021-03-27T14:17:22Z</time>
      </trkpt>
      <trkpt lat="42.562863" lon="-3.0485">
        <ele>596.63</ele>
        <time>2021-03-27T14:17:26Z</time>
      </trkpt>
      <trkpt lat="42.562869" lon="-3.048419">
        <ele>596.8</ele>
        <time>2021-03-27T14:17:30Z</time>
      </trkpt>
      <trkpt lat="42.562849" lon="-3.04833">
        <ele>596.98</ele>
        <time>2021-03-27T14:17:33Z</time>
      </trkpt>
      <trkpt lat="42.562801" lon="-3.048254">
        <ele>596.43</ele>
        <time>2021-03-27T14:17:37Z</time>
      </trkpt>
      <trkpt lat="42.562701" lon="-3.048192">
        <ele>595.16</ele>
        <time>2021-03-27T14:17:41Z</time>
      </trkpt>
      <trkpt lat="42.562634" lon="-3.048183">
        <ele>594.37</ele>
        <time>2021-03-27T14:17:45Z</time>
      </trkpt>
      <trkpt lat="42.562556" lon="-3.048207">
        <ele>593.69</ele>
        <time>2021-03-27T14:17:48Z</time>
      </trkpt>
      <trkpt lat="42.561861" lon="-3.048605">
        <ele>593.9</ele>
        <time>2021-03-27T14:17:52Z</time>
      </trkpt>
      <trkpt lat="42.561795" lon="-3.048618">
        <ele>594.1</ele>
        <time>2021-03-27T14:17:56Z</time>
      </trkpt>
      <trkpt lat="42.561687" lon="-3.048589">
        <ele>593.67</ele>
        <time>2021-03-27T14:17:59Z</time>
      </trkpt>
      <trkpt lat="42.561638" lon="-3.04854">
        <ele>593.11</ele>
        <time>2021-03-27T14:18:03Z</time>
      </trkpt>
      <trkpt lat="42.561447" lon="-3.048198">
        <ele>589.14</ele>
        <time>2021-03-27T14:18:07Z</time>
      </trkpt>
      <trkpt lat="42.561336" lon="-3.048082">
        <ele>587.08</ele>
        <time>2021-03-27T14:18:10Z</time>
      </trkpt>
      <trkpt lat="42.561286" lon="-3.048058">
        <ele>586.3</ele>
        <time>2021-03-27T14:18:14Z</time>
      </trkpt>
      <trkpt lat="42.561202" lon="-3.048058">
        <ele>585.7</ele>
        <time>2021-03-27T14:18:18Z</time>
      </trkpt>
      <trkpt lat="42.56102" lon="-3.048102">
        <ele>583.11</ele>
        <time>2021-03-27T14:18:22Z</time>
      </trkpt>
      <trkpt lat="42.560956" lon="-3.048138">
        <ele>581.9</ele>
        <time>2021-03-27T14:18:25Z</time>
      </trkpt>
      <trkpt lat="42.560918" lon="-3.048194">
        <ele>581.78</ele>
        <time>2021-03-27T14:18:29Z</time>
      </trkpt>
      <trkpt lat="42.56074" lon="-3.048987">
        <ele>585.15</ele>
        <time>2021-03-27T14:18:33Z</time>
      </trkpt>
      <trkpt lat="42.560691" lon="-3.049127">
        <ele>585.05</ele>
        <time>2021-03-27T14:18:36Z</time>
      </trkpt>
      <trkpt lat="42.560472" lon="-3.049509">
        <ele>585.57</ele>
        <time>2021-03-27T14:18:40Z</time>
      </trkpt>
      <trkpt lat="42.560407" lon="-3.049578">
        <ele>585.55</ele>
        <time>2021-03-27T14:18:44Z</time>
      </trkpt>
      <trkpt lat="42.560338" lon="-3.049605">
        <ele>585.05</ele>
        <time>2021-03-27T14:18:48Z</time>
      </trkpt>
      <trkpt lat="42.560141" lon="-3.04959">
        <ele>583.12</ele>
        <time>2021-03-27T14:18:51Z</time>
      </trkpt>
      <trkpt lat="42.559899" lon="-3.049501">
        <ele>580.53</ele>
        <time>2021-03-27T14:18:55Z</time>
      </trkpt>
      <trkpt lat="42.559595" lon="-3.049436">
        <ele>576.6</ele>
        <time>2021-03-27T14:18:59Z</time>
      </trkpt>
      <trkpt lat="42.559448" lon="-3.049445">
        <ele>574.09</ele>
        <time>2021-03-27T14:19:02Z</time>
      </trkpt>
      <trkpt lat="42.55935" lon="-3.049507">
        <ele>574.11</ele>
        <time>2021-03-27T14:19:06Z</time>
      </trkpt>
      <trkpt lat="42.559142" lon="-3.049753">
        <ele>574.5</ele>
        <time>2021-03-27T14:19:10Z</time>
      </trkpt>
      <trkpt lat="42.55908" lon="-3.049779">
        <ele>574.37</ele>
        <time>2021-03-27T14:19:13Z</time>
      </trkpt>
      <trkpt lat="42.558776" lon="-3.050066">
        <ele>575.8</ele>
        <time>2021-03-27T14:19:17Z</time>
      </trkpt>
      <trkpt lat="42.558506" lon="-3.050216">
        <ele>574.65</ele>
        <time>2021-03-27T14:19:21Z</time>
      </trkpt>
      <trkpt lat="42.558312" lon="-3.050385">
        <ele>573.21</ele>
        <time>2021-03-27T14:19:25Z</time>
      </trkpt>
      <trkpt lat="42.558089" lon="-3.050624">
        <ele>572.81</ele>
        <time>2021-03-27T14:19:28Z</time>
      </trkpt>
      <trkpt lat="42.558042" lon="-3.050699">
        <ele>573.38</ele>
        <time>2021-03-27T14:19:32Z</time>
      </trkpt>
      <trkpt lat="42.558025" lon="-3.050776">
        <ele>574.53</ele>
        <time>2021-03-27T14:19:36Z</time>
      </trkpt>
      <trkpt lat="42.557965" lon="-3.050872">
        <ele>575.68</ele>
        <time>2021-03-27T14:19:39Z</time>
      </trkpt>
      <trkpt lat="42.557885" lon="-3.050941">
        <ele>576.26</ele>
        <time>2021-03-27T14:19:43Z</time>
      </trkpt>
      <trkpt lat="42.557586" lon="-3.051021">
        <ele>572.34</ele>
        <time>2021-03-27T14:19:47Z</time>
      </trkpt>
      <trkpt lat="42.557487" lon="-3.05107">
        <ele>571.03</ele>
        <time>2021-03-27T14:19:51Z</time>
      </trkpt>
      <trkpt lat="42.557146" lon="-3.051386">
        <ele>568.87</ele>
        <time>2021-03-27T14:19:54Z</time>
      </trkpt>
      <trkpt lat="42.557006" lon="-3.051458">
        <ele>567.89</ele>
        <time>2021-03-27T14:19:58Z</time>
      </trkpt>
      <trkpt lat="42.556702" lon="-3.051889">
        <ele>569.99</ele>
        <time>2021-03-27T14:20:02Z</time>
      </trkpt>
      <trkpt lat="42.556621" lon="-3.051931">
        <ele>569.2</ele>
        <time>2021-03-27T14:20:05Z</time>
      </trkpt>
      <trkpt lat="42.556381" lon="-3.05189">
        <ele>565.54</ele>
        <time>2021-03-27T14:20:09Z</time>
      </trkpt>
      <trkpt lat="42.556258" lon="-3.052041">
        <ele>564.93</ele>
        <time>2021-03-27T14:20:12Z</time>
      </trkpt>
      <trkpt lat="42.556156" lon="-3.05211">
        <ele>564.09</ele>
        <time>2021-03-27T14:20:15Z</time>
      </trkpt>
      <trkpt lat="42.555928" lon="-3.05209">
        <ele>564.19</ele>
        <time>2021-03-27T14:20:18Z</time>
      </trkpt>
      <trkpt lat="42.555724" lon="-3.052019">
        <ele>565.27</ele>
        <time>2021-03-27T14:20:20Z</time>
      </trkpt>
      <trkpt lat="42.555364" lon="-3.05205">
        <ele>568.52</ele>
        <time>2021-03-27T14:20:23Z</time>
      </trkpt>
      <trkpt lat="42.555186" lon="-3.052098">
        <ele>569.15</ele>
        <time>2021-03-27T14:20:26Z</time>
      </trkpt>
      <trkpt lat="42.554983" lon="-3.05219">
        <ele>568.78</ele>
        <time>2021-03-27T14:20:29Z</time>
      </trkpt>
      <trkpt lat="42.554749" lon="-3.052495">
        <ele>572.04</ele>
        <time>2021-03-27T14:20:32Z</time>
      </trkpt>
      <trkpt lat="42.554179" lon="-3.053427">
        <ele>574.06</ele>
        <time>2021-03-27T14:20:35Z</time>
      </trkpt>
      <trkpt lat="42.55309" lon="-3.055134">
        <ele>586.18</ele>
        <time>2021-03-27T14:20:37Z</time>
      </trkpt>
      <trkpt lat="42.552668" lon="-3.054736">
        <ele>581.91</ele>
        <time>2021-03-27T14:20:39Z</time>
      </trkpt>
      <trkpt lat="42.552566" lon="-3.054603">
        <ele>582.09</ele>
        <time>2021-03-27T14:20:41Z</time>
      </trkpt>
      <trkpt lat="42.552524" lon="-3.054516">
        <ele>582.08</ele>
        <time>2021-03-27T14:20:43Z</time>
      </trkpt>
      <trkpt lat="42.552505" lon="-3.054388">
        <ele>582.36</ele>
        <time>2021-03-27T14:20:45Z</time>
      </trkpt>
      <trkpt lat="42.552521" lon="-3.054283">
        <ele>582.93</ele>
        <time>2021-03-27T14:20:47Z</time>
      </trkpt>
      <trkpt lat="42.552649" lon="-3.054003">
        <ele>583.03</ele>
        <time>2021-03-27T14:20:49Z</time>
      </trkpt>
      <trkpt lat="42.553139" lon="-3.053015">
        <ele>584.78</ele>
        <time>2021-03-27T14:20:51Z</time>
      </trkpt>
      <trkpt lat="42.553181" lon="-3.052889">
        <ele>584.93</ele>
        <time>2021-03-27T14:20:53Z</time>
      </trkpt>
      <trkpt lat="42.5532" lon="-3.052664">
        <ele>586.02</ele>
        <time>2021-03-27T14:20:54Z</time>
      </trkpt>
      <trkpt lat="42.553181" lon="-3.052523">
        <ele>587.07</ele>
        <time>2021-03-27T14:20:56Z</time>
      </trkpt>
      <trkpt lat="42.552634" lon="-3.050774">
        <ele>591.66</ele>
        <time>2021-03-27T14:20:58Z</time>
      </trkpt>
      <trkpt lat="42.552549" lon="-3.050539">
        <ele>593.28</ele>
        <time>2021-03-27T14:21:00Z</time>
      </trkpt>
      <trkpt lat="42.552417" lon="-3.050329">
        <ele>595.14</ele>
        <time>2021-03-27T14:21:02Z</time>
      </trkpt>
      <trkpt lat="42.552302" lon="-3.050224">
        <ele>596.46</ele>
        <time>2021-03-27T14:21:04Z</time>
      </trkpt>
      <trkpt lat="42.551542" lon="-3.049655">
        <ele>600.18</ele>
        <time>2021-03-27T14:21:06Z</time>
      </trkpt>
      <trkpt lat="42.551323" lon="-3.049549">
        <ele>600.74</ele>
        <time>2021-03-27T14:21:08Z</time>
      </trkpt>
      <trkpt lat="42.551088" lon="-3.049491">
        <ele>602.58</ele>
        <time>2021-03-27T14:21:10Z</time>
      </trkpt>
      <trkpt lat="42.550976" lon="-3.049487">
        <ele>603.76</ele>
        <time>2021-03-27T14:21:11Z</time>
      </trkpt>
      <trkpt lat="42.550824" lon="-3.049523">
        <ele>605.69</ele>
        <time>2021-03-27T14:21:13Z</time>
      </trkpt>
      <trkpt lat="42.550551" lon="-3.049654">
        <ele>609.8</ele>
        <time>2021-03-27T14:21:15Z</time>
      </trkpt>
      <trkpt lat="42.550237" lon="-3.049896">
        <ele>612.16</ele>
        <time>2021-03-27T14:21:17Z</time>
      </trkpt>
      <trkpt lat="42.55016" lon="-3.049898">
        <ele>612.47</ele>
        <time>2021-03-27T14:21:19Z</time>
      </trkpt>
      <trkpt lat="42.550068" lon="-3.049817">
        <ele>613.49</ele>
        <time>2021-03-27T14:21:21Z</time>
      </trkpt>
      <trkpt lat="42.550075" lon="-3.04969">
        <ele>614.51</ele>
        <time>2021-03-27T14:21:23Z</time>
      </trkpt>
      <trkpt lat="42.550121" lon="-3.049543">
        <ele>615.34</ele>
        <time>2021-03-27T14:21:25Z</time>
      </trkpt>
      <trkpt lat="42.550203" lon="-3.04938">
        <ele>615.43</ele>
        <time>2021-03-27T14:21:27Z</time>
      </trkpt>
      <trkpt lat="42.550291" lon="-3.04925">
        <ele>614.47</ele>
        <time>2021-03-27T14:21:28Z</time>
      </trkpt>
      <trkpt lat="42.550607" lon="-3.048875">
        <ele>612.95</ele>
        <time>2021-03-27T14:21:30Z</time>
      </trkpt>
      <trkpt lat="42.550771" lon="-3.048589">
        <ele>613.03</ele>
        <time>2021-03-27T14:21:32Z</time>
      </trkpt>
      <trkpt lat="42.550826" lon="-3.048431">
        <ele>613.16</ele>
        <time>2021-03-27T14:21:34Z</time>
      </trkpt>
      <trkpt lat="42.550855" lon="-3.048259">
        <ele>614.14</ele>
        <time>2021-03-27T14:21:36Z</time>
      </trkpt>
      <trkpt lat="42.550904" lon="-3.047296">
        <ele>620.18</ele>
        <time>2021-03-27T14:21:38Z</time>
      </trkpt>
      <trkpt lat="42.550882" lon="-3.046653">
        <ele>624.8</ele>
        <time>2021-03-27T14:21:40Z</time>
      </trkpt>
      <trkpt lat="42.55086" lon="-3.046477">
        <ele>624.42</ele>
        <time>2021-03-27T14:21:42Z</time>
      </trkpt>
      <trkpt lat="42.550826" lon="-3.046371">
        <ele>624.18</ele>
        <time>2021-03-27T14:21:44Z</time>
      </trkpt>
      <trkpt lat="42.550762" lon="-3.046253">
        <ele>625.49</ele>
        <time>2021-03-27T14:21:45Z</time>
      </trkpt>
      <trkpt lat="42.550669" lon="-3.046139">
        <ele>626.98</ele>
        <time>2021-03-27T14:21:47Z</time>
      </trkpt>
      <trkpt lat="42.547821" lon="-3.04322">
        <ele>613.5</ele>
        <time>2021-03-27T14:21:49Z</time>
      </trkpt>
      <trkpt lat="42.547651" lon="-3.043077">
        <ele>612.2</ele>
        <time>2021-03-27T14:21:51Z</time>
      </trkpt>
      <trkpt lat="42.547487" lon="-3.043011">
        <ele>610.74</ele>
        <time>2021-03-27T14:21:53Z</time>
      </trkpt>
      <trkpt lat="42.546771" lon="-3.042872">
        <ele>607.02</ele>
        <time>2021-03-27T14:21:55Z</time>
      </trkpt>
      <trkpt lat="42.546426" lon="-3.042682">
        <ele>606.13</ele>
        <time>2021-03-27T14:21:57Z</time>
      </trkpt>
      <trkpt lat="42.546221" lon="-3.042604">
        <ele>604.92</ele>
        <time>2021-03-27T14:21:59Z</time>
      </trkpt>
      <trkpt lat="42.546124" lon="-3.042622">
        <ele>604.51</ele>
        <time>2021-03-27T14:22:00Z</time>
      </trkpt>
      <trkpt lat="42.546084" lon="-3.04268">
        <ele>604.36</ele>
        <time>2021-03-27T14:22:02Z</time>
      </trkpt>
      <trkpt lat="42.546075" lon="-3.042821">
        <ele>604.77</ele>
        <time>2021-03-27T14:22:04Z</time>
      </trkpt>
      <trkpt lat="42.54613" lon="-3.043042">
        <ele>606.09</ele>
        <time>2021-03-27T14:22:06Z</time>
      </trkpt>
      <trkpt lat="42.546142" lon="-3.043155">
        <ele>606.58</ele>
        <time>2021-03-27T14:22:08Z</time>
      </trkpt>
      <trkpt lat="42.546098" lon="-3.043305">
        <ele>606.8</ele>
        <time>2021-03-27T14:22:10Z</time>
      </trkpt>
      <trkpt lat="42.546047" lon="-3.043368">
        <ele>606.69</ele>
        <time>2021-03-27T14:22:12Z</time>
      </trkpt>
      <trkpt lat="42.545898" lon="-3.04343">
        <ele>606.08</ele>
        <time>2021-03-27T14:22:14Z</time>
      </trkpt>
      <trkpt lat="42.545815" lon="-3.043413">
        <ele>605.6</ele>
        <time>2021-03-27T14:22:16Z</time>
      </trkpt>
      <trkpt lat="42.545731" lon="-3.043374">
        <ele>605.34</ele>
        <time>2021-03-27T14:22:17Z</time>
      </trkpt>
      <trkpt lat="42.545429" lon="-3.043134">
        <ele>601.42</ele>
        <time>2021-03-27T14:22:19Z</time>
      </trkpt>
      <trkpt lat="42.545305" lon="-3.043113">
        <ele>601.03</ele>
        <time>2021-03-27T14:22:21Z</time>
      </trkpt>
      <trkpt lat="42.545167" lon="-3.043163">
        <ele>600.99</ele>
        <time>2021-03-27T14:22:23Z</time>
      </trkpt>
      <trkpt lat="42.544674" lon="-3.043593">
        <ele>601.29</ele>
        <time>2021-03-27T14:22:25Z</time>
      </trkpt>
      <trkpt lat="42.544556" lon="-3.043591">
        <ele>600.03</ele>
        <time>2021-03-27T14:22:27Z</time>
      </trkpt>
      <trkpt lat="42.54449" lon="-3.043544">
        <ele>598.97</ele>
        <time>2021-03-27T14:22:29Z</time>
      </trkpt>
      <trkpt lat="42.544435" lon="-3.043466">
        <ele>597.96</ele>
        <time>2021-03-27T14:22:31Z</time>
      </trkpt>
      <trkpt lat="42.544386" lon="-3.043343">
        <ele>597.27</ele>
        <time>2021-03-27T14:22:33Z</time>
      </trkpt>
      <trkpt lat="42.544358" lon="-3.043221">
        <ele>597.44</ele>
        <time>2021-03-27T14:22:34Z</time>
      </trkpt>
      <trkpt lat="42.544344" lon="-3.043067">
        <ele>597.71</ele>
        <time>2021-03-27T14:22:36Z</time>
      </trkpt>
      <trkpt lat="42.544401" lon="-3.042876">
        <ele>598.7</ele>
        <time>2021-03-27T14:22:38Z</time>
      </trkpt>
      <trkpt lat="42.544648" lon="-3.042461">
        <ele>598.4</ele>
        <time>2021-03-27T14:22:40Z</time>
      </trkpt>
      <trkpt lat="42.54471" lon="-3.042316">
        <ele>597.28</ele>
        <time>2021-03-27T14:22:42Z</time>
      </trkpt>
      <trkpt lat="42.544744" lon="-3.042099">
        <ele>596.71</ele>
        <time>2021-03-27T14:22:44Z</time>
      </trkpt>
      <trkpt lat="42.544738" lon="-3.042017">
        <ele>596.82</ele>
        <time>2021-03-27T14:22:46Z</time>
      </trkpt>
      <trkpt lat="42.544674" lon="-3.041853">
        <ele>597.97</ele>
        <time>2021-03-27T14:22:48Z</time>
      </trkpt>
      <trkpt lat="42.544634" lon="-3.041809">
        <ele>598.46</ele>
        <time>2021-03-27T14:22:50Z</time>
      </trkpt>
      <trkpt lat="42.544203" lon="-3.0416">
        <ele>603.17</ele>
        <time>2021-03-27T14:22:51Z</time>
      </trkpt>
      <trkpt lat="42.543972" lon="-3.041544">
        <ele>603.56</ele>
        <time>2021-03-27T14:22:53Z</time>
      </trkpt>
      <trkpt lat="42.543189" lon="-3.041669">
        <ele>604.52</ele>
        <time>2021-03-27T14:22:55Z</time>
      </trkpt>
      <trkpt lat="42.543082" lon="-3.041656">
        <ele>604.9</ele>
        <time>2021-03-27T14:22:57Z</time>
      </trkpt>
      <trkpt lat="42.542861" lon="-3.041538">
        <ele>605.7</ele>
        <time>2021-03-27T14:22:59Z</time>
      </trkpt>
      <trkpt lat="42.542123" lon="-3.040888">
        <ele>610.39</ele>
        <time>2021-03-27T14:23:01Z</time>
      </trkpt>
      <trkpt lat="42.541955" lon="-3.040668">
        <ele>610.64</ele>
        <time>2021-03-27T14:23:03Z</time>
      </trkpt>
      <trkpt lat="42.541131" lon="-3.039403">
        <ele>612.78</ele>
        <time>2021-03-27T14:23:05Z</time>
      </trkpt>
      <trkpt lat="42.540901" lon="-3.039205">
        <ele>612.14</ele>
        <time>2021-03-27T14:23:07Z</time>
      </trkpt>
      <trkpt lat="42.535706" lon="-3.035376">
        <ele>613.9</ele>
        <time>2021-03-27T14:23:08Z</time>
      </trkpt>
      <trkpt lat="42.535513" lon="-3.035255">
        <ele>612.77</ele>
        <time>2021-03-27T14:23:10Z</time>
      </trkpt>
      <trkpt lat="42.535434" lon="-3.035226">
        <ele>612.31</ele>
        <time>2021-03-27T14:23:12Z</time>
      </trkpt>
      <trkpt lat="42.535369" lon="-3.035226">
        <ele>611.84</ele>
        <time>2021-03-27T14:23:14Z</time>
      </trkpt>
      <trkpt lat="42.535288" lon="-3.035275">
        <ele>611.09</ele>
        <time>2021-03-27T14:23:16Z</time>
      </trkpt>
      <trkpt lat="42.535211" lon="-3.035385">
        <ele>610.97</ele>
        <time>2021-03-27T14:23:18Z</time>
      </trkpt>
      <trkpt lat="42.534664" lon="-3.036465">
        <ele>608.58</ele>
        <time>2021-03-27T14:23:20Z</time>
      </trkpt>
      <trkpt lat="42.53456" lon="-3.036644">
        <ele>607.83</ele>
        <time>2021-03-27T14:23:22Z</time>
      </trkpt>
      <trkpt lat="42.534512" lon="-3.0367">
        <ele>607.61</ele>
        <time>2021-03-27T14:23:24Z</time>
      </trkpt>
      <trkpt lat="42.534453" lon="-3.036729">
        <ele>607.29</ele>
        <time>2021-03-27T14:23:25Z</time>
      </trkpt>
      <trkpt lat="42.534363" lon="-3.036722">
        <ele>607.26</ele>
        <time>2021-03-27T14:23:27Z</time>
      </trkpt>
      <trkpt lat="42.53429" lon="-3.036691">
        <ele>607.14</ele>
        <time>2021-03-27T14:23:29Z</time>
      </trkpt>
      <trkpt lat="42.534214" lon="-3.036626">
        <ele>607.0</ele>
        <time>2021-03-27T14:23:31Z</time>
      </trkpt>
      <trkpt lat="42.534141" lon="-3.036526">
        <ele>607.14</ele>
        <time>2021-03-27T14:23:33Z</time>
      </trkpt>
      <trkpt lat="42.534066" lon="-3.036378">
        <ele>607.34</ele>
        <time>2021-03-27T14:23:35Z</time>
      </trkpt>
      <trkpt lat="42.533866" lon="-3.03562">
        <ele>601.71</ele>
        <time>2021-03-27T14:23:37Z</time>
      </trkpt>
      <trkpt lat="42.533806" lon="-3.035509">
        <ele>600.67</ele>
        <time>2021-03-27T14:23:39Z</time>
      </trkpt>
      <trkpt lat="42.533508" lon="-3.035135">
        <ele>598.81</ele>
        <time>2021-03-27T14:23:41Z</time>
      </trkpt>
      <trkpt lat="42.533404" lon="-3.035041">
        <ele>598.36</ele>
        <time>2021-03-27T14:23:42Z</time>
      </trkpt>
      <trkpt lat="42.533315" lon="-3.034987">
        <ele>597.89</ele>
        <time>2021-03-27T14:23:44Z</time>
      </trkpt>
      <trkpt lat="42.533068" lon="-3.034956">
        <ele>596.89</ele>
        <time>2021-03-27T14:23:46Z</time>
      </trkpt>
      <trkpt lat="42.532328" lon="-3.035082">
        <ele>595.35</ele>
        <time>2021-03-27T14:23:48Z</time>
      </trkpt>
      <trkpt lat="42.532209" lon="-3.035135">
        <ele>594.88</ele>
        <time>2021-03-27T14:23:50Z</time>
      </trkpt>
      <trkpt lat="42.532088" lon="-3.03522">
        <ele>594.62</ele>
        <time>2021-03-27T14:23:52Z</time>
      </trkpt>
      <trkpt lat="42.531743" lon="-3.035632">
        <ele>593.7</ele>
        <time>2021-03-27T14:23:54Z</time>
      </trkpt>
      <trkpt lat="42.531647" lon="-3.035684">
        <ele>592.97</ele>
        <time>2021-03-27T14:23:56Z</time>
      </trkpt>
      <trkpt lat="42.531556" lon="-3.035696">
        <ele>592.8</ele>
        <time>2021-03-27T14:23:58Z</time>
      </trkpt>
      <trkpt lat="42.531483" lon="-3.035676">
        <ele>592.71</ele>
        <time>2021-03-27T14:23:59Z</time>
      </trkpt>
      <trkpt lat="42.531134" lon="-3.035389">
        <ele>594.47</ele>
        <time>2021-03-27T14:24:01Z</time>
      </trkpt>
      <trkpt lat="42.531034" lon="-3.03555">
        <ele>594.57</ele>
        <time>2021-03-27T14:24:07Z</time>
      </trkpt>
      <trkpt lat="42.530968" lon="-3.035712">
        <ele>595.32</ele>
        <time>2021-03-27T14:24:12Z</time>
      </trkpt>
      <trkpt lat="42.528624" lon="-3.043681">
        <ele>605.14</ele>
        <time>2021-03-27T14:24:17Z</time>
      </trkpt>
      <trkpt lat="42.528563" lon="-3.043801">
        <ele>604.83</ele>
        <time>2021-03-27T14:24:22Z</time>
      </trkpt>
      <trkpt lat="42.528495" lon="-3.043863">
        <ele>604.58</ele>
        <time>2021-03-27T14:24:27Z</time>
      </trkpt>
      <trkpt lat="42.527454" lon="-3.044454">
        <ele>600.96</ele>
        <time>2021-03-27T14:24:32Z</time>
      </trkpt>
      <trkpt lat="42.527337" lon="-3.044572">
        <ele>600.27</ele>
        <time>2021-03-27T14:24:38Z</time>
      </trkpt>
      <trkpt lat="42.526801" lon="-3.045394">
        <ele>596.48</ele>
        <time>2021-03-27T14:24:43Z</time>
      </trkpt>
      <trkpt lat="42.526725" lon="-3.045555">
        <ele>596.21</ele>
        <time>2021-03-27T14:24:48Z</time>
      </trkpt>
      <trkpt lat="42.526646" lon="-3.045786">
        <ele>597.6</ele>
        <time>2021-03-27T14:24:53Z</time>
      </trkpt>
      <trkpt lat="42.52641" lon="-3.046619">
        <ele>599.9</ele>
        <time>2021-03-27T14:24:58Z</time>
      </trkpt>
      <trkpt lat="42.520297" lon="-3.044896">
        <ele>601.07</ele>
        <time>2021-03-27T14:25:05Z</time>
      </trkpt>
      <trkpt lat="42.518248" lon="-3.044297">
        <ele>599.47</ele>
        <time>2021-03-27T14:25:11Z</time>
      </trkpt>
      <trkpt lat="42.514676" lon="-3.043304">
        <ele>601.06</ele>
        <time>2021-03-27T14:25:17Z</time>
      </trkpt>
      <trkpt lat="42.513816" lon="-3.043036">
        <ele>604.05</ele>
        <time>2021-03-27T14:25:24Z</time>
      </trkpt>
      <trkpt lat="42.511469" lon="-3.042385">
        <ele>609.42</ele>
        <time>2021-03-27T14:25:30Z</time>
      </trkpt>
      <trkpt lat="42.50899" lon="-3.041434">
        <ele>601.22</ele>
        <time>2021-03-27T14:25:37Z</time>
      </trkpt>
      <trkpt lat="42.508649" lon="-3.041373">
        <ele>597.4</ele>
        <time>2021-03-27T14:25:43Z</time>
      </trkpt>
      <trkpt lat="42.507568" lon="-3.04158">
        <ele>594.1</ele>
        <time>2021-03-27T14:25:49Z</time>
      </trkpt>
      <trkpt lat="42.506868" lon="-3.041674">
        <ele>586.61</ele>
        <time>2021-03-27T14:25:56Z</time>
      </trkpt>
      <trkpt lat="42.506242" lon="-3.041665">
        <ele>576.88</ele>
        <time>2021-03-27T14:26:02Z</time>
      </trkpt>
      <trkpt lat="42.505788" lon="-3.041736">
        <ele>573.55</ele>
        <time>2021-03-27T14:26:09Z</time>
      </trkpt>
      <trkpt lat="42.505676" lon="-3.041789">
        <ele>572.55</ele>
        <time>2021-03-27T14:26:15Z</time>
      </trkpt>
      <trkpt lat="42.505566" lon="-3.041883">
        <ele>571.86</ele>
        <time>2021-03-27T14:26:21Z</time>
      </trkpt>
      <trkpt lat="42.505481" lon="-3.042033">
        <ele>571.05</ele>
        <time>2021-03-27T14:26:28Z</time>
      </trkpt>
      <trkpt lat="42.505111" lon="-3.043022">
        <ele>574.08</ele>
        <time>2021-03-27T14:26:34Z</time>
      </trkpt>
      <trkpt lat="42.505022" lon="-3.043176">
        <ele>575.2</ele>
        <time>2021-03-27T14:26:41Z</time>
      </trkpt>
      <trkpt lat="42.504898" lon="-3.043305">
        <ele>577.03</ele>
        <time>2021-03-27T14:26:47Z</time>
      </trkpt>
      <trkpt lat="42.504732" lon="-3.043521">
        <ele>578.87</ele>
        <time>2021-03-27T14:26:53Z</time>
      </trkpt>
      <trkpt lat="42.504243" lon="-3.044317">
        <ele>583.73</ele>
        <time>2021-03-27T14:27:00Z</time>
      </trkpt>
      <trkpt lat="42.503943" lon="-3.044645">
        <ele>585.46</ele>
        <time>2021-03-27T14:27:06Z</time>
      </trkpt>
      <trkpt lat="42.503597" lon="-3.044939">
        <ele>587.06</ele>
        <time>2021-03-27T14:27:13Z</time>
      </trkpt>
      <trkpt lat="42.503296" lon="-3.045138">
        <ele>588.07</ele>
        <time>2021-03-27T14:27:19Z</time>
      </trkpt>
      <trkpt lat="42.503058" lon="-3.045369">
        <ele>588.0</ele>
        <time>2021-03-27T14:27:25Z</time>
      </trkpt>
      <trkpt lat="42.502914" lon="-3.045462">
        <ele>588.0</ele>
        <time>2021-03-27T14:27:32Z</time>
      </trkpt>
      <trkpt lat="42.502742" lon="-3.045723">
        <ele>588.13</ele>
        <time>2021-03-27T14:27:38Z</time>
      </trkpt>
      <trkpt lat="42.502219" lon="-3.046383">
        <ele>590.01</ele>
        <time>2021-03-27T14:27:45Z</time>
      </trkpt>
      <trkpt lat="42.501931" lon="-3.0475">
        <ele>594.0</ele>
        <time>2021-03-27T14:27:54Z</time>
      </trkpt>
      <trkpt lat="42.501143" lon="-3.049778">
        <ele>593.51</ele>
        <time>2021-03-27T14:28:03Z</time>
      </trkpt>
      <trkpt lat="42.500497" lon="-3.052407">
        <ele>591.54</ele>
        <time>2021-03-27T14:28:13Z</time>
      </trkpt>
      <trkpt lat="42.50038" lon="-3.052769">
        <ele>591.02</ele>
        <time>2021-03-27T14:28:22Z</time>
      </trkpt>
      <trkpt lat="42.500261" lon="-3.053053">
        <ele>592.05</ele>
        <time>2021-03-27T14:28:32Z</time>
      </trkpt>
      <trkpt lat="42.499548" lon="-3.054418">
        <ele>592.72</ele>
        <time>2021-03-27T14:28:41Z</time>
      </trkpt>
      <trkpt lat="42.499416" lon="-3.054711">
        <ele>593.1</ele>
        <time>2021-03-27T14:28:51Z</time>
      </trkpt>
      <trkpt lat="42.499241" lon="-3.055193">
        <ele>593.65</ele>
        <time>2021-03-27T14:29:00Z</time>
      </trkpt>
      <trkpt lat="42.498893" lon="-3.056372">
        <ele>595.01</ele>
        <time>2021-03-27T14:29:10Z</time>
      </trkpt>
      <trkpt lat="42.498649" lon="-3.057095">
        <ele>594.0</ele>
        <time>2021-03-27T14:29:19Z</time>
      </trkpt>
      <trkpt lat="42.498371" lon="-3.057758">
        <ele>594.93</ele>
        <time>2021-03-27T14:29:28Z</time>
      </trkpt>
      <trkpt lat="42.497598" lon="-3.059362">
        <ele>597.35</ele>
        <time>2021-03-27T14:29:38Z</time>
      </trkpt>
      <trkpt lat="42.497234" lon="-3.060257">
        <ele>598.04</ele>
        <time>2021-03-27T14:29:47Z</time>
      </trkpt>
      <trkpt lat="42.497094" lon="-3.060722">
        <ele>599.0</ele>
        <time>2021-03-27T14:29:57Z</time>
      </trkpt>
      <trkpt lat="42.496906" lon="-3.061492">
        <ele>599.32</ele>
        <time>2021-03-27T14:30:06Z</time>
      </trkpt>
      <trkpt lat="42.496795" lon="-3.06224">
        <ele>599.43</ele>
        <time>2021-03-27T14:30:16Z</time>
      </trkpt>
      <trkpt lat="42.496451" lon="-3.066491">
        <ele>600.92</ele>
        <time>2021-03-27T14:30:25Z</time>
      </trkpt>
      <trkpt lat="42.496386" lon="-3.066962">
        <ele>601.0</ele>
        <time>2021-03-27T14:30:34Z</time>
      </trkpt>
      <trkpt lat="42.496293" lon="-3.067469">
        <ele>601.89</ele>
        <time>2021-03-27T14:30:44Z</time>
      </trkpt>
      <trkpt lat="42.496043" lon="-3.068399">
        <ele>603.16</ele>
        <time>2021-03-27T14:30:53Z</time>
      </trkpt>
      <trkpt lat="42.495917" lon="-3.068759">
        <ele>602.0</ele>
        <time>2021-03-27T14:31:03Z</time>
      </trkpt>
      <trkpt lat="42.495633" lon="-3.069418">
        <ele>601.54</ele>
        <time>2021-03-27T14:31:12Z</time>
      </trkpt>
      <trkpt lat="42.495479" lon="-3.069723">
        <ele>601.53</ele>
        <time>2021-03-27T14:31:22Z</time>
      </trkpt>
      <trkpt lat="42.494964" lon="-3.070621">
        <ele>602.95</ele>
        <time>2021-03-27T14:31:31Z</time>
      </trkpt>
      <trkpt lat="42.494798" lon="-3.070954">
        <ele>604.22</ele>
        <time>2021-03-27T14:31:41Z</time>
      </trkpt>
      <trkpt lat="42.494351" lon="-3.07208">
        <ele>607.19</ele>
        <time>2021-03-27T14:31:50Z</time>
      </trkpt>
      <trkpt lat="42.494241" lon="-3.072294">
        <ele>607.6</ele>
        <time>2021-03-27T14:31:59Z</time>
      </trkpt>
      <trkpt lat="42.494067" lon="-3.072572">
        <ele>608.1</ele>
        <time>2021-03-27T14:32:09Z</time>
      </trkpt>
      <trkpt lat="42.493539" lon="-3.073326">
        <ele>609.98</ele>
        <time>2021-03-27T14:32:18Z</time>
      </trkpt>
      <trkpt lat="42.493434" lon="-3.073545">
        <ele>610.76</ele>
        <time>2021-03-27T14:32:28Z</time>
      </trkpt>
      <trkpt lat="42.493374" lon="-3.073791">
        <ele>611.65</ele>
        <time>2021-03-27T14:32:37Z</time>
      </trkpt>
      <trkpt lat="42.493195" lon="-3.075654">
        <ele>610.32</ele>
        <time>2021-03-27T14:32:47Z</time>
      </trkpt>
      <trkpt lat="42.493125" lon="-3.076246">
        <ele>610.24</ele>
        <time>2021-03-27T14:32:56Z</time>
      </trkpt>
      <trkpt lat="42.493087" lon="-3.076508">
        <ele>610.82</ele>
        <time>2021-03-27T14:33:05Z</time>
      </trkpt>
      <trkpt lat="42.492921" lon="-3.077137">
        <ele>610.79</ele>
        <time>2021-03-27T14:33:15Z</time>
      </trkpt>
      <trkpt lat="42.491977" lon="-3.079602">
        <ele>614.0</ele>
        <time>2021-03-27T14:33:24Z</time>
      </trkpt>
      <trkpt lat="42.491453" lon="-3.081009">
        <ele>612.23</ele>
        <time>2021-03-27T14:33:34Z</time>
      </trkpt>
      <trkpt lat="42.491115" lon="-3.081987">
        <ele>614.99</ele>
        <time>2021-03-27T14:33:43Z</time>
      </trkpt>
      <trkpt lat="42.490961" lon="-3.082484">
        <ele>616.48</ele>
        <time>2021-03-27T14:33:53Z</time>
      </trkpt>
      <trkpt lat="42.490067" lon="-3.085668">
        <ele>621.9</ele>
        <time>2021-03-27T14:34:02Z</time>
      </trkpt>
      <trkpt lat="42.489941" lon="-3.085985">
        <ele>619.8</ele>
        <time>2021-03-27T14:34:12Z</time>
      </trkpt>
      <trkpt lat="42.489594" lon="-3.086568">
        <ele>618.17</ele>
        <time>2021-03-27T14:34:21Z</time>
      </trkpt>
      <trkpt lat="42.489498" lon="-3.086775">
        <ele>617.1</ele>
        <time>2021-03-27T14:34:30Z</time>
      </trkpt>
      <trkpt lat="42.489401" lon="-3.087042">
        <ele>615.96</ele>
        <time>2021-03-27T14:34:40Z</time>
      </trkpt>
      <trkpt lat="42.488814" lon="-3.089298">
        <ele>625.13</ele>
        <time>2021-03-27T14:34:49Z</time>
      </trkpt>
      <trkpt lat="42.488695" lon="-3.090133">
        <ele>623.7</ele>
        <time>2021-03-27T14:34:59Z</time>
      </trkpt>
      <trkpt lat="42.488275" lon="-3.094591">
        <ele>630.22</ele>
        <time>2021-03-27T14:35:08Z</time>
      </trkpt>
      <trkpt lat="42.488245" lon="-3.095203">
        <ele>629.77</ele>
        <time>2021-03-27T14:35:18Z</time>
      </trkpt>
      <trkpt lat="42.488255" lon="-3.095636">
        <ele>630.43</ele>
        <time>2021-03-27T14:35:27Z</time>
      </trkpt>
      <trkpt lat="42.48835" lon="-3.09784">
        <ele>638.66</ele>
        <time>2021-03-27T14:35:37Z</time>
      </trkpt>
      <trkpt lat="42.48833" lon="-3.098488">
        <ele>636.92</ele>
        <time>2021-03-27T14:35:46Z</time>
      </trkpt>
      <trkpt lat="42.488269" lon="-3.099146">
        <ele>635.21</ele>
        <time>2021-03-27T14:35:55Z</time>
      </trkpt>
      <trkpt lat="42.48823" lon="-3.09941">
        <ele>636.63</ele>
        <time>2021-03-27T14:36:05Z</time>
      </trkpt>
      <trkpt lat="42.48805" lon="-3.1002">
        <ele>636.32</ele>
        <time>2021-03-27T14:36:14Z</time>
      </trkpt>
      <trkpt lat="42.481729" lon="-3.123684">
        <ele>663.33</ele>
        <time>2021-03-27T14:36:24Z</time>
      </trkpt>
      <trkpt lat="42.481515" lon="-3.124441">
        <ele>662.11</ele>
        <time>2021-03-27T14:36:33Z</time>
      </trkpt>
      <trkpt lat="42.481326" lon="-3.125028">
        <ele>663.12</ele>
        <time>2021-03-27T14:36:43Z</time>
      </trkpt>
      <trkpt lat="42.48122" lon="-3.1253">
        <ele>664.66</ele>
        <time>2021-03-27T14:36:52Z</time>
      </trkpt>
      <trkpt lat="42.481078" lon="-3.1256">
        <ele>665.98</ele>
        <time>2021-03-27T14:37:01Z</time>
      </trkpt>
      <trkpt lat="42.480766" lon="-3.126165">
        <ele>665.43</ele>
        <time>2021-03-27T14:37:11Z</time>
      </trkpt>
      <trkpt lat="42.462442" lon="-3.153298">
        <ele>714.31</ele>
        <time>2021-03-27T14:37:20Z</time>
      </trkpt>
      <trkpt lat="42.45912" lon="-3.15838">
        <ele>724.0</ele>
        <time>2021-03-27T14:37:30Z</time>
      </trkpt>
      <trkpt lat="42.458808" lon="-3.1588">
        <ele>724.68</ele>
        <time>2021-03-27T14:37:39Z</time>
      </trkpt>
      <trkpt lat="42.446779" lon="-3.171548">
        <ele>744.61</ele>
        <time>2021-03-27T14:37:49Z</time>
      </trkpt>
      <trkpt lat="42.442757" lon="-3.175729">
        <ele>750.27</ele>
        <time>2021-03-27T14:37:58Z</time>
      </trkpt>
      <trkpt lat="42.441832" lon="-3.176659">
        <ele>745.51</ele>
        <time>2021-03-27T14:38:08Z</time>
      </trkpt>
      <trkpt lat="42.441033" lon="-3.177218">
        <ele>744.32</ele>
        <time>2021-03-27T14:38:17Z</time>
      </trkpt>
      <trkpt lat="42.42459" lon="-3.18827">
        <ele>760.11</ele>
        <time>2021-03-27T14:38:26Z</time>
      </trkpt>
      <trkpt lat="42.424493" lon="-3.188369">
        <ele>759.87</ele>
        <time>2021-03-27T14:38:36Z</time>
      </trkpt>
      <trkpt lat="42.424434" lon="-3.18846">
        <ele>759.58</ele>
        <time>2021-03-27T14:38:45Z</time>
      </trkpt>
      <trkpt lat="42.424375" lon="-3.188604">
        <ele>759.27</ele>
        <time>2021-03-27T14:38:55Z</time>
      </trkpt>
      <trkpt lat="42.424283" lon="-3.189047">
        <ele>757.77</ele>
        <time>2021-03-27T14:39:04Z</time>
      </trkpt>
      <trkpt lat="42.424205" lon="-3.189215">
        <ele>757.7</ele>
        <time>2021-03-27T14:39:14Z</time>
      </trkpt>
      <trkpt lat="42.424139" lon="-3.189289">
        <ele>758.2</ele>
        <time>2021-03-27T14:39:23Z</time>
      </trkpt>
      <trkpt lat="42.423729" lon="-3.189577">
        <ele>761.35</ele>
        <time>2021-03-27T14:39:32Z</time>
      </trkpt>
      <trkpt lat="42.421946" lon="-3.190928">
        <ele>766.65</ele>
        <time>2021-03-27T14:39:42Z</time>
      </trkpt>
      <trkpt lat="42.421776" lon="-3.191106">
        <ele>766.64</ele>
        <time>2021-03-27T14:39:51Z</time>
      </trkpt>
      <trkpt lat="42.4216" lon="-3.191332">
        <ele>766.69</ele>
        <time>2021-03-27T14:40:01Z</time>
      </trkpt>
      <trkpt lat="42.421146" lon="-3.192047">
        <ele>767.74</ele>
        <time>2021-03-27T14:40:10Z</time>
      </trkpt>
      <trkpt lat="42.42092" lon="-3.192358">
        <ele>768.38</ele>
        <time>2021-03-27T14:40:20Z</time>
      </trkpt>
      <trkpt lat="42.420833" lon="-3.192405">
        <ele>769.0</ele>
        <time>2021-03-27T14:40:29Z</time>
      </trkpt>
      <trkpt lat="42.420739" lon="-3.192428">
        <ele>769.77</ele>
        <time>2021-03-27T14:40:39Z</time>
      </trkpt>
      <trkpt lat="42.420525" lon="-3.192401">
        <ele>771.32</ele>
        <time>2021-03-27T14:40:48Z</time>
      </trkpt>
      <trkpt lat="42.420385" lon="-3.192216">
        <ele>771.38</ele>
        <time>2021-03-27T14:40:57Z</time>
      </trkpt>
      <trkpt lat="42.420182" lon="-3.191827">
        <ele>770.65</ele>
        <time>2021-03-27T14:41:07Z</time>
      </trkpt>
      <trkpt lat="42.419871" lon="-3.191138">
        <ele>770.95</ele>
        <time>2021-03-27T14:41:16Z</time>
      </trkpt>
      <trkpt lat="42.419691" lon="-3.190783">
        <ele>770.89</ele>
        <time>2021-03-27T14:41:26Z</time>
      </trkpt>
      <trkpt lat="42.419613" lon="-3.190692">
        <ele>770.61</ele>
        <time>2021-03-27T14:41:35Z</time>
      </trkpt>
      <trkpt lat="42.41947" lon="-3.190643">
        <ele>770.09</ele>
        <time>2021-03-27T14:41:45Z</time>
      </trkpt>
      <trkpt lat="42.419356" lon="-3.190663">
        <ele>770.2</ele>
        <time>2021-03-27T14:41:54Z</time>
      </trkpt>
      <trkpt lat="42.419134" lon="-3.190849">
        <ele>770.05</ele>
        <time>2021-03-27T14:42:04Z</time>
      </trkpt>
      <trkpt lat="42.419099" lon="-3.191036">
        <ele>769.34</ele>
        <time>2021-03-27T14:42:05Z</time>
      </trkpt>
      <trkpt lat="42.417257" lon="-3.192542">
        <ele>775.61</ele>
        <time>2021-03-27T14:42:08Z</time>
      </trkpt>
      <trkpt lat="42.416744" lon="-3.192995">
        <ele>776.16</ele>
        <time>2021-03-27T14:42:12Z</time>
      </trkpt>
      <trkpt lat="42.409931" lon="-3.199802">
        <ele>783.17</ele>
        <time>2021-03-27T14:42:15Z</time>
      </trkpt>
      <trkpt lat="42.409428" lon="-3.200366">
        <ele>782.95</ele>
        <time>2021-03-27T14:42:19Z</time>
      </trkpt>
      <trkpt lat="42.40866" lon="-3.201308">
        <ele>789.18</ele>
        <time>2021-03-27T14:42:22Z</time>
      </trkpt>
      <trkpt lat="42.408051" lon="-3.201972">
        <ele>789.79</ele>
        <time>2021-03-27T14:42:26Z</time>
      </trkpt>
      <trkpt lat="42.407551" lon="-3.202426">
        <ele>793.27</ele>
        <time>2021-03-27T14:42:29Z</time>
      </trkpt>
      <trkpt lat="42.40375" lon="-3.205703">
        <ele>804.97</ele>
        <time>2021-03-27T14:42:33Z</time>
      </trkpt>
      <trkpt lat="42.403437" lon="-3.206004">
        <ele>803.15</ele>
        <time>2021-03-27T14:42:36Z</time>
      </trkpt>
      <trkpt lat="42.402966" lon="-3.206508">
        <ele>800.97</ele>
        <time>2021-03-27T14:42:40Z</time>
      </trkpt>
      <trkpt lat="42.400353" lon="-3.209461">
        <ele>807.28</ele>
        <time>2021-03-27T14:42:43Z</time>
      </trkpt>
      <trkpt lat="42.400001" lon="-3.209821">
        <ele>804.93</ele>
        <time>2021-03-27T14:42:47Z</time>
      </trkpt>
      <trkpt lat="42.399709" lon="-3.210034">
        <ele>804.6</ele>
        <time>2021-03-27T14:42:50Z</time>
      </trkpt>
      <trkpt lat="42.399567" lon="-3.210114">
        <ele>805.49</ele>
        <time>2021-03-27T14:42:54Z</time>
      </trkpt>
      <trkpt lat="42.398062" lon="-3.210761">
        <ele>804.26</ele>
        <time>2021-03-27T14:42:57Z</time>
      </trkpt>
      <trkpt lat="42.397856" lon="-3.210823">
        <ele>804.62</ele>
        <time>2021-03-27T14:43:01Z</time>
      </trkpt>
      <trkpt lat="42.397478" lon="-3.210829">
        <ele>804.85</ele>
        <time>2021-03-27T14:43:04Z</time>
      </trkpt>
      <trkpt lat="42.396952" lon="-3.210718">
        <ele>800.59</ele>
        <time>2021-03-27T14:43:08Z</time>
      </trkpt>
      <trkpt lat="42.396652" lon="-3.210585">
        <ele>801.43</ele>
        <time>2021-03-27T14:43:11Z</time>
      </trkpt>
      <trkpt lat="42.396393" lon="-3.210495">
        <ele>806.68</ele>
        <time>2021-03-27T14:43:15Z</time>
      </trkpt>
      <trkpt lat="42.395176" lon="-3.210394">
        <ele>808.34</ele>
        <time>2021-03-27T14:43:18Z</time>
      </trkpt>
      <trkpt lat="42.39464" lon="-3.210377">
        <ele>810.87</ele>
        <time>2021-03-27T14:43:22Z</time>
      </trkpt>
      <trkpt lat="42.392588" lon="-3.21048">
        <ele>809.86</ele>
        <time>2021-03-27T14:43:25Z</time>
      </trkpt>
      <trkpt lat="42.392183" lon="-3.210446">
        <ele>812.7</ele>
        <time>2021-03-27T14:43:29Z</time>
      </trkpt>
      <trkpt lat="42.39131" lon="-3.210276">
        <ele>815.33</ele>
        <time>2021-03-27T14:43:32Z</time>
      </trkpt>
      <trkpt lat="42.390888" lon="-3.210231">
        <ele>815.31</ele>
        <time>2021-03-27T14:43:36Z</time>
      </trkpt>
      <trkpt lat="42.388843" lon="-3.210168">
        <ele>818.7</ele>
        <time>2021-03-27T14:43:39Z</time>
      </trkpt>
      <trkpt lat="42.387954" lon="-3.210271">
        <ele>823.23</ele>
        <time>2021-03-27T14:43:43Z</time>
      </trkpt>
      <trkpt lat="42.387732" lon="-3.210356">
        <ele>823.72</ele>
        <time>2021-03-27T14:43:46Z</time>
      </trkpt>
      <trkpt lat="42.387239" lon="-3.210674">
        <ele>818.24</ele>
        <time>2021-03-27T14:43:50Z</time>
      </trkpt>
      <trkpt lat="42.387112" lon="-3.210734">
        <ele>817.15</ele>
        <time>2021-03-27T14:43:53Z</time>
      </trkpt>
      <trkpt lat="42.386959" lon="-3.210775">
        <ele>816.44</ele>
        <time>2021-03-27T14:43:57Z</time>
      </trkpt>
      <trkpt lat="42.38658" lon="-3.210814">
        <ele>817.24</ele>
        <time>2021-03-27T14:44:00Z</time>
      </trkpt>
      <trkpt lat="42.385355" lon="-3.210879">
        <ele>814.02</ele>
        <time>2021-03-27T14:44:04Z</time>
      </trkpt>
      <trkpt lat="42.385103" lon="-3.210874">
        <ele>813.13</ele>
        <time>2021-03-27T14:44:07Z</time>
      </trkpt>
      <trkpt lat="42.384369" lon="-3.210794">
        <ele>820.27</ele>
        <time>2021-03-27T14:44:11Z</time>
      </trkpt>
      <trkpt lat="42.384076" lon="-3.21078">
        <ele>816.91</ele>
        <time>2021-03-27T14:44:14Z</time>
      </trkpt>
      <trkpt lat="42.38292" lon="-3.210814">
        <ele>821.03</ele>
        <time>2021-03-27T14:44:18Z</time>
      </trkpt>
      <trkpt lat="42.382411" lon="-3.210849">
        <ele>827.47</ele>
        <time>2021-03-27T14:44:21Z</time>
      </trkpt>
      <trkpt lat="42.380917" lon="-3.211072">
        <ele>828.89</ele>
        <time>2021-03-27T14:44:25Z</time>
      </trkpt>
      <trkpt lat="42.380518" lon="-3.211187">
        <ele>828.49</ele>
        <time>2021-03-27T14:44:28Z</time>
      </trkpt>
      <trkpt lat="42.380239" lon="-3.211322">
        <ele>826.99</ele>
        <time>2021-03-27T14:44:32Z</time>
      </trkpt>
      <trkpt lat="42.378789" lon="-3.212255">
        <ele>827.18</ele>
        <time>2021-03-27T14:44:35Z</time>
      </trkpt>
      <trkpt lat="42.378563" lon="-3.21234">
        <ele>827.02</ele>
        <time>2021-03-27T14:44:39Z</time>
      </trkpt>
      <trkpt lat="42.378286" lon="-3.212356">
        <ele>827.02</ele>
        <time>2021-03-27T14:44:42Z</time>
      </trkpt>
      <trkpt lat="42.376834" lon="-3.212128">
        <ele>831.77</ele>
        <time>2021-03-27T14:44:46Z</time>
      </trkpt>
      <trkpt lat="42.376734" lon="-3.212104">
        <ele>830.67</ele>
        <time>2021-03-27T14:44:49Z</time>
      </trkpt>
      <trkpt lat="42.376471" lon="-3.211988">
        <ele>831.38</ele>
        <time>2021-03-27T14:44:53Z</time>
      </trkpt>
      <trkpt lat="42.376275" lon="-3.211878">
        <ele>831.41</ele>
        <time>2021-03-27T14:44:56Z</time>
      </trkpt>
      <trkpt lat="42.376036" lon="-3.211694">
        <ele>831.69</ele>
        <time>2021-03-27T14:45:00Z</time>
      </trkpt>
      <trkpt lat="42.375844" lon="-3.211513">
        <ele>833.46</ele>
        <time>2021-03-27T14:45:03Z</time>
      </trkpt>
      <trkpt lat="42.375417" lon="-3.211046">
        <ele>834.17</ele>
        <time>2021-03-27T14:45:07Z</time>
      </trkpt>
      <trkpt lat="42.375227" lon="-3.210878">
        <ele>832.17</ele>
        <time>2021-03-27T14:45:10Z</time>
      </trkpt>
      <trkpt lat="42.374247" lon="-3.210208">
        <ele>834.16</ele>
        <time>2021-03-27T14:45:14Z</time>
      </trkpt>
      <trkpt lat="42.373971" lon="-3.210072">
        <ele>832.86</ele>
        <time>2021-03-27T14:45:17Z</time>
      </trkpt>
      <trkpt lat="42.37234" lon="-3.209743">
        <ele>837.28</ele>
        <time>2021-03-27T14:45:21Z</time>
      </trkpt>
      <trkpt lat="42.372045" lon="-3.209654">
        <ele>838.66</ele>
        <time>2021-03-27T14:45:24Z</time>
      </trkpt>
      <trkpt lat="42.371309" lon="-3.209339">
        <ele>842.78</ele>
        <time>2021-03-27T14:45:28Z</time>
      </trkpt>
      <trkpt lat="42.371037" lon="-3.209263">
        <ele>842.61</ele>
        <time>2021-03-27T14:45:31Z</time>
      </trkpt>
      <trkpt lat="42.370805" lon="-3.209252">
        <ele>842.86</ele>
        <time>2021-03-27T14:45:35Z</time>
      </trkpt>
      <trkpt lat="42.370089" lon="-3.209343">
        <ele>844.18</ele>
        <time>2021-03-27T14:45:38Z</time>
      </trkpt>
      <trkpt lat="42.36927" lon="-3.209386">
        <ele>839.21</ele>
        <time>2021-03-27T14:45:42Z</time>
      </trkpt>
      <trkpt lat="42.369039" lon="-3.209463">
        <ele>839.18</ele>
        <time>2021-03-27T14:45:45Z</time>
      </trkpt>
      <trkpt lat="42.368767" lon="-3.209611">
        <ele>839.31</ele>
        <time>2021-03-27T14:45:49Z</time>
      </trkpt>
      <trkpt lat="42.368226" lon="-3.210104">
        <ele>839.24</ele>
        <time>2021-03-27T14:45:52Z</time>
      </trkpt>
      <trkpt lat="42.367907" lon="-3.21036">
        <ele>839.59</ele>
        <time>2021-03-27T14:45:56Z</time>
      </trkpt>
      <trkpt lat="42.367719" lon="-3.210437">
        <ele>839.82</ele>
        <time>2021-03-27T14:45:59Z</time>
      </trkpt>
      <trkpt lat="42.367536" lon="-3.210449">
        <ele>841.42</ele>
        <time>2021-03-27T14:46:03Z</time>
      </trkpt>
      <trkpt lat="42.367377" lon="-3.210419">
        <ele>842.87</ele>
        <time>2021-03-27T14:46:06Z</time>
      </trkpt>
      <trkpt lat="42.366403" lon="-3.209895">
        <ele>845.91</ele>
        <time>2021-03-27T14:46:10Z</time>
      </trkpt>
      <trkpt lat="42.366144" lon="-3.209795">
        <ele>848.57</ele>
        <time>2021-03-27T14:46:13Z</time>
      </trkpt>
      <trkpt lat="42.365941" lon="-3.20976">
        <ele>849.86</ele>
        <time>2021-03-27T14:46:17Z</time>
      </trkpt>
      <trkpt lat="42.365754" lon="-3.209761">
        <ele>849.87</ele>
        <time>2021-03-27T14:46:20Z</time>
      </trkpt>
      <trkpt lat="42.365248" lon="-3.209835">
        <ele>847.99</ele>
        <time>2021-03-27T14:46:24Z</time>
      </trkpt>
      <trkpt lat="42.364873" lon="-3.209853">
        <ele>847.38</ele>
        <time>2021-03-27T14:46:27Z</time>
      </trkpt>
      <trkpt lat="42.364573" lon="-3.209787">
        <ele>846.26</ele>
        <time>2021-03-27T14:46:31Z</time>
      </trkpt>
      <trkpt lat="42.363685" lon="-3.209449">
        <ele>852.98</ele>
        <time>2021-03-27T14:46:34Z</time>
      </trkpt>
      <trkpt lat="42.36332" lon="-3.209294">
        <ele>853.1</ele>
        <time>2021-03-27T14:46:38Z</time>
      </trkpt>
      <trkpt lat="42.363031" lon="-3.209051">
        <ele>852.77</ele>
        <time>2021-03-27T14:46:41Z</time>
      </trkpt>
      <trkpt lat="42.361843" lon="-3.207567">
        <ele>853.24</ele>
        <time>2021-03-27T14:46:44Z</time>
      </trkpt>
      <trkpt lat="42.361636" lon="-3.207246">
        <ele>853.82</ele>
        <time>2021-03-27T14:46:48Z</time>
      </trkpt>
      <trkpt lat="42.36149" lon="-3.206944">
        <ele>851.46</ele>
        <time>2021-03-27T14:46:51Z</time>
      </trkpt>
      <trkpt lat="42.361346" lon="-3.206571">
        <ele>851.71</ele>
        <time>2021-03-27T14:46:55Z</time>
      </trkpt>
      <trkpt lat="42.361184" lon="-3.206234">
        <ele>856.55</ele>
        <time>2021-03-27T14:46:58Z</time>
      </trkpt>
      <trkpt lat="42.360993" lon="-3.205939">
        <ele>861.11</ele>
        <time>2021-03-27T14:47:02Z</time>
      </trkpt>
      <trkpt lat="42.36079" lon="-3.205717">
        <ele>861.74</ele>
        <time>2021-03-27T14:47:05Z</time>
      </trkpt>
      <trkpt lat="42.360552" lon="-3.205549">
        <ele>859.14</ele>
        <time>2021-03-27T14:47:09Z</time>
      </trkpt>
      <trkpt lat="42.360215" lon="-3.205368">
        <ele>861.5</ele>
        <time>2021-03-27T14:47:12Z</time>
      </trkpt>
      <trkpt lat="42.359326" lon="-3.205056">
        <ele>860.34</ele>
        <time>2021-03-27T14:47:16Z</time>
      </trkpt>
      <trkpt lat="42.357434" lon="-3.204243">
        <ele>864.04</ele>
        <time>2021-03-27T14:47:19Z</time>
      </trkpt>
      <trkpt lat="42.354701" lon="-3.203185">
        <ele>858.63</ele>
        <time>2021-03-27T14:47:23Z</time>
      </trkpt>
      <trkpt lat="42.354397" lon="-3.203089">
        <ele>860.08</ele>
        <time>2021-03-27T14:47:26Z</time>
      </trkpt>
      <trkpt lat="42.354113" lon="-3.203064">
        <ele>862.1</ele>
        <time>2021-03-27T14:47:30Z</time>
      </trkpt>
      <trkpt lat="42.354013" lon="-3.203072">
        <ele>861.98</ele>
        <time>2021-03-27T14:47:33Z</time>
      </trkpt>
      <trkpt lat="42.353842" lon="-3.203127">
        <ele>861.76</ele>
        <time>2021-03-27T14:47:37Z</time>
      </trkpt>
      <trkpt lat="42.353576" lon="-3.203278">
        <ele>861.38</ele>
        <time>2021-03-27T14:47:40Z</time>
      </trkpt>
      <trkpt lat="42.352867" lon="-3.203782">
        <ele>869.91</ele>
        <time>2021-03-27T14:47:44Z</time>
      </trkpt>
      <trkpt lat="42.352485" lon="-3.204017">
        <ele>871.41</ele>
        <time>2021-03-27T14:47:47Z</time>
      </trkpt>
      <trkpt lat="42.351427" lon="-3.204489">
        <ele>881.27</ele>
        <time>2021-03-27T14:47:51Z</time>
      </trkpt>
      <trkpt lat="42.350984" lon="-3.204715">
        <ele>883.94</ele>
        <time>2021-03-27T14:47:54Z</time>
      </trkpt>
      <trkpt lat="42.350169" lon="-3.205248">
        <ele>882.21</ele>
        <time>2021-03-27T14:47:58Z</time>
      </trkpt>
      <trkpt lat="42.348892" lon="-3.206261">
        <ele>883.34</ele>
        <time>2021-03-27T14:48:01Z</time>
      </trkpt>
      <trkpt lat="42.348528" lon="-3.206631">
        <ele>889.2</ele>
        <time>2021-03-27T14:48:05Z</time>
      </trkpt>
      <trkpt lat="42.348233" lon="-3.206964">
        <ele>891.53</ele>
        <time>2021-03-27T14:48:08Z</time>
      </trkpt>
      <trkpt lat="42.347977" lon="-3.20719">
        <ele>892.39</ele>
        <time>2021-03-27T14:48:12Z</time>
      </trkpt>
      <trkpt lat="42.347676" lon="-3.207387">
        <ele>893.45</ele>
        <time>2021-03-27T14:48:15Z</time>
      </trkpt>
      <trkpt lat="42.347015" lon="-3.207759">
        <ele>891.89</ele>
        <time>2021-03-27T14:48:19Z</time>
      </trkpt>
      <trkpt lat="42.346869" lon="-3.207863">
        <ele>896.23</ele>
        <time>2021-03-27T14:48:22Z</time>
      </trkpt>
      <trkpt lat="42.346623" lon="-3.208063">
        <ele>899.45</ele>
        <time>2021-03-27T14:48:26Z</time>
      </trkpt>
      <trkpt lat="42.34602" lon="-3.208632">
        <ele>897.93</ele>
        <time>2021-03-27T14:48:29Z</time>
      </trkpt>
      <trkpt lat="42.345897" lon="-3.208718">
        <ele>897.66</ele>
        <time>2021-03-27T14:48:33Z</time>
      </trkpt>
      <trkpt lat="42.345727" lon="-3.208819">
        <ele>897.28</ele>
        <time>2021-03-27T14:48:36Z</time>
      </trkpt>
      <trkpt lat="42.345529" lon="-3.208908">
        <ele>898.25</ele>
        <time>2021-03-27T14:48:40Z</time>
      </trkpt>
      <trkpt lat="42.344937" lon="-3.209025">
        <ele>899.28</ele>
        <time>2021-03-27T14:48:43Z</time>
      </trkpt>
      <trkpt lat="42.344625" lon="-3.209136">
        <ele>899.46</ele>
        <time>2021-03-27T14:48:47Z</time>
      </trkpt>
      <trkpt lat="42.344167" lon="-3.209405">
        <ele>900.28</ele>
        <time>2021-03-27T14:48:50Z</time>
      </trkpt>
      <trkpt lat="42.341957" lon="-3.210795">
        <ele>911.13</ele>
        <time>2021-03-27T14:48:54Z</time>
      </trkpt>
      <trkpt lat="42.341678" lon="-3.210886">
        <ele>913.7</ele>
        <time>2021-03-27T14:48:57Z</time>
      </trkpt>
      <trkpt lat="42.341184" lon="-3.210926">
        <ele>910.19</ele>
        <time>2021-03-27T14:49:01Z</time>
      </trkpt>
      <trkpt lat="42.340951" lon="-3.211044">
        <ele>908.97</ele>
        <time>2021-03-27T14:49:04Z</time>
      </trkpt>
      <trkpt lat="42.340815" lon="-3.211176">
        <ele>908.74</ele>
        <time>2021-03-27T14:49:08Z</time>
      </trkpt>
      <trkpt lat="42.340464" lon="-3.211851">
        <ele>911.32</ele>
        <time>2021-03-27T14:49:11Z</time>
      </trkpt>
      <trkpt lat="42.340322" lon="-3.212022">
        <ele>912.65</ele>
        <time>2021-03-27T14:49:15Z</time>
      </trkpt>
      <trkpt lat="42.339968" lon="-3.212389">
        <ele>913.42</ele>
        <time>2021-03-27T14:49:18Z</time>
      </trkpt>
      <trkpt lat="42.33979" lon="-3.212535">
        <ele>914.83</ele>
        <time>2021-03-27T14:49:22Z</time>
      </trkpt>
      <trkpt lat="42.339669" lon="-3.212595">
        <ele>915.8</ele>
        <time>2021-03-27T14:49:25Z</time>
      </trkpt>
      <trkpt lat="42.339589" lon="-3.212611">
        <ele>915.99</ele>
        <time>2021-03-27T14:49:29Z</time>
      </trkpt>
      <trkpt lat="42.338932" lon="-3.212656">
        <ele>914.66</ele>
        <time>2021-03-27T14:49:32Z</time>
      </trkpt>
      <trkpt lat="42.338725" lon="-3.212688">
        <ele>913.14</ele>
        <time>2021-03-27T14:49:36Z</time>
      </trkpt>
      <trkpt lat="42.338447" lon="-3.212764">
        <ele>911.08</ele>
        <time>2021-03-27T14:49:39Z</time>
      </trkpt>
      <trkpt lat="42.337979" lon="-3.212987">
        <ele>911.5</ele>
        <time>2021-03-27T14:49:43Z</time>
      </trkpt>
      <trkpt lat="42.337612" lon="-3.213238">
        <ele>913.28</ele>
        <time>2021-03-27T14:49:46Z</time>
      </trkpt>
      <trkpt lat="42.337278" lon="-3.213391">
        <ele>915.54</ele>
        <time>2021-03-27T14:49:50Z</time>
      </trkpt>
      <trkpt lat="42.336697" lon="-3.213472">
        <ele>918.89</ele>
        <time>2021-03-27T14:49:53Z</time>
      </trkpt>
      <trkpt lat="42.334238" lon="-3.213706">
        <ele>931.42</ele>
        <time>2021-03-27T14:49:57Z</time>
      </trkpt>
      <trkpt lat="42.333826" lon="-3.213661">
        <ele>929.64</ele>
        <time>2021-03-27T14:50:00Z</time>
      </trkpt>
      <trkpt lat="42.333574" lon="-3.213564">
        <ele>928.52</ele>
        <time>2021-03-27T14:50:04Z</time>
      </trkpt>
      <trkpt lat="42.333352" lon="-3.213412">
        <ele>926.83</ele>
        <time>2021-03-27T14:50:07Z</time>
      </trkpt>
      <trkpt lat="42.333147" lon="-3.213209">
        <ele>928.32</ele>
        <time>2021-03-27T14:50:11Z</time>
      </trkpt>
      <trkpt lat="42.332266" lon="-3.211977">
        <ele>935.15</ele>
        <time>2021-03-27T14:50:14Z</time>
      </trkpt>
      <trkpt lat="42.331938" lon="-3.211444">
        <ele>933.73</ele>
        <time>2021-03-27T14:50:18Z</time>
      </trkpt>
      <trkpt lat="42.331078" lon="-3.209721">
        <ele>931.65</ele>
        <time>2021-03-27T14:50:21Z</time>
      </trkpt>
      <trkpt lat="42.330845" lon="-3.209326">
        <ele>932.0</ele>
        <time>2021-03-27T14:50:25Z</time>
      </trkpt>
      <trkpt lat="42.330715" lon="-3.209137">
        <ele>933.7</ele>
        <time>2021-03-27T14:50:28Z</time>
      </trkpt>
      <trkpt lat="42.330285" lon="-3.208652">
        <ele>940.55</ele>
        <time>2021-03-27T14:50:32Z</time>
      </trkpt>
      <trkpt lat="42.329632" lon="-3.207998">
        <ele>940.17</ele>
        <time>2021-03-27T14:50:35Z</time>
      </trkpt>
      <trkpt lat="42.328536" lon="-3.207013">
        <ele>946.54</ele>
        <time>2021-03-27T14:50:39Z</time>
      </trkpt>
      <trkpt lat="42.328278" lon="-3.206706">
        <ele>946.89</ele>
        <time>2021-03-27T14:50:42Z</time>
      </trkpt>
      <trkpt lat="42.328034" lon="-3.20633">
        <ele>947.65</ele>
        <time>2021-03-27T14:50:46Z</time>
      </trkpt>
      <trkpt lat="42.327825" lon="-3.205919">
        <ele>949.16</ele>
        <time>2021-03-27T14:50:49Z</time>
      </trkpt>
      <trkpt lat="42.327609" lon="-3.205445">
        <ele>950.52</ele>
        <time>2021-03-27T14:50:53Z</time>
      </trkpt>
      <trkpt lat="42.326991" lon="-3.204946">
        <ele>948.89</ele>
        <time>2021-03-27T14:50:56Z</time>
      </trkpt>
      <trkpt lat="42.326906" lon="-3.20484">
        <ele>949.64</ele>
        <time>2021-03-27T14:51:00Z</time>
      </trkpt>
      <trkpt lat="42.326832" lon="-3.204702">
        <ele>950.78</ele>
        <time>2021-03-27T14:51:03Z</time>
      </trkpt>
      <trkpt lat="42.32677" lon="-3.204836">
        <ele>949.4</ele>
        <time>2021-03-27T14:51:05Z</time>
      </trkpt>
      <trkpt lat="42.326503" lon="-3.204568">
        <ele>950.19</ele>
        <time>2021-03-27T14:51:11Z</time>
      </trkpt>
      <trkpt lat="42.326383" lon="-3.204627">
        <ele>949.36</ele>
        <time>2021-03-27T14:51:17Z</time>
      </trkpt>
      <trkpt lat="42.326047" lon="-3.204997">
        <ele>949.24</ele>
        <time>2021-03-27T14:51:22Z</time>
      </trkpt>
      <trkpt lat="42.325831" lon="-3.204686">
        <ele>950.15</ele>
        <time>2021-03-27T14:51:26Z</time>
      </trkpt>
      <trkpt lat="42.325606" lon="-3.204441">
        <ele>953.48</ele>
        <time>2021-03-27T14:51:31Z</time>
      </trkpt>
      <trkpt lat="42.325459" lon="-3.204359">
        <ele>955.65</ele>
        <time>2021-03-27T14:51:36Z</time>
      </trkpt>
      <trkpt lat="42.325249" lon="-3.204396">
        <ele>957.92</ele>
        <time>2021-03-27T14:51:38Z</time>
      </trkpt>
      <trkpt lat="42.325164" lon="-3.204353">
        <ele>959.7</ele>
        <time>2021-03-27T14:51:41Z</time>
      </trkpt>
      <trkpt lat="42.325079" lon="-3.204237">
        <ele>961.18</ele>
        <time>2021-03-27T14:51:44Z</time>
      </trkpt>
      <trkpt lat="42.325024" lon="-3.204189">
        <ele>961.8</ele>
        <time>2021-03-27T14:51:46Z</time>
      </trkpt>
      <trkpt lat="42.324942" lon="-3.204197">
        <ele>963.2</ele>
        <time>2021-03-27T14:51:47Z</time>
      </trkpt>
      <trkpt lat="42.324892" lon="-3.204173">
        <ele>963.99</ele>
        <time>2021-03-27T14:51:49Z</time>
      </trkpt>
      <trkpt lat="42.324732" lon="-3.204049">
        <ele>965.58</ele>
        <time>2021-03-27T14:51:51Z</time>
      </trkpt>
      <trkpt lat="42.324754" lon="-3.204341">
        <ele>968.16</ele>
        <time>2021-03-27T14:51:53Z</time>
      </trkpt>
      <trkpt lat="42.324989" lon="-3.20506">
        <ele>968.14</ele>
        <time>2021-03-27T14:51:55Z</time>
      </trkpt>
      <trkpt lat="42.325316" lon="-3.20666">
        <ele>973.1</ele>
        <time>2021-03-27T14:51:57Z</time>
      </trkpt>
      <trkpt lat="42.325331" lon="-3.206792">
        <ele>973.65</ele>
        <time>2021-03-27T14:51:59Z</time>
      </trkpt>
      <trkpt lat="42.325328" lon="-3.206918">
        <ele>974.55</ele>
        <time>2021-03-27T14:52:01Z</time>
      </trkpt>
      <trkpt lat="42.325142" lon="-3.208116">
        <ele>982.12</ele>
        <time>2021-03-27T14:52:03Z</time>
      </trkpt>
      <trkpt lat="42.325093" lon="-3.208505">
        <ele>985.46</ele>
        <time>2021-03-27T14:52:05Z</time>
      </trkpt>
      <trkpt lat="42.325095" lon="-3.208637">
        <ele>986.08</ele>
        <time>2021-03-27T14:52:07Z</time>
      </trkpt>
      <trkpt lat="42.325112" lon="-3.208724">
        <ele>986.1</ele>
        <time>2021-03-27T14:52:09Z</time>
      </trkpt>
      <trkpt lat="42.325283" lon="-3.209179">
        <ele>984.88</ele>
        <time>2021-03-27T14:52:11Z</time>
      </trkpt>
      <trkpt lat="42.325302" lon="-3.209386">
        <ele>985.09</ele>
        <time>2021-03-27T14:52:13Z</time>
      </trkpt>
      <trkpt lat="42.325174" lon="-3.210022">
        <ele>985.31</ele>
        <time>2021-03-27T14:52:15Z</time>
      </trkpt>
      <trkpt lat="42.325088" lon="-3.210372">
        <ele>988.21</ele>
        <time>2021-03-27T14:52:17Z</time>
      </trkpt>
      <trkpt lat="42.324967" lon="-3.210689">
        <ele>990.95</ele>
        <time>2021-03-27T14:52:19Z</time>
      </trkpt>
      <trkpt lat="42.324883" lon="-3.210815">
        <ele>992.62</ele>
        <time>2021-03-27T14:52:21Z</time>
      </trkpt>
      <trkpt lat="42.324689" lon="-3.210994">
        <ele>995.12</ele>
        <time>2021-03-27T14:52:23Z</time>
      </trkpt>
      <trkpt lat="42.324492" lon="-3.211041">
        <ele>995.83</ele>
        <time>2021-03-27T14:52:25Z</time>
      </trkpt>
      <trkpt lat="42.323834" lon="-3.211051">
        <ele>985.14</ele>
        <time>2021-03-27T14:52:27Z</time>
      </trkpt>
      <trkpt lat="42.323705" lon="-3.211086">
        <ele>985.05</ele>
        <time>2021-03-27T14:52:29Z</time>
      </trkpt>
      <trkpt lat="42.323139" lon="-3.211313">
        <ele>983.63</ele>
        <time>2021-03-27T14:52:31Z</time>
      </trkpt>
      <trkpt lat="42.322995" lon="-3.211339">
        <ele>982.87</ele>
        <time>2021-03-27T14:52:33Z</time>
      </trkpt>
      <trkpt lat="42.322832" lon="-3.211333">
        <ele>982.41</ele>
        <time>2021-03-27T14:52:35Z</time>
      </trkpt>
      <trkpt lat="42.322474" lon="-3.211204">
        <ele>980.22</ele>
        <time>2021-03-27T14:52:36Z</time>
      </trkpt>
      <trkpt lat="42.322105" lon="-3.210996">
        <ele>978.56</ele>
        <time>2021-03-27T14:52:38Z</time>
      </trkpt>
      <trkpt lat="42.321832" lon="-3.210909">
        <ele>978.43</ele>
        <time>2021-03-27T14:52:40Z</time>
      </trkpt>
      <trkpt lat="42.321583" lon="-3.210963">
        <ele>975.02</ele>
        <time>2021-03-27T14:52:42Z</time>
      </trkpt>
      <trkpt lat="42.321387" lon="-3.211088">
        <ele>973.28</ele>
        <time>2021-03-27T14:52:44Z</time>
      </trkpt>
      <trkpt lat="42.320364" lon="-3.21213">
        <ele>985.32</ele>
        <time>2021-03-27T14:52:46Z</time>
      </trkpt>
      <trkpt lat="42.320284" lon="-3.212237">
        <ele>986.01</ele>
        <time>2021-03-27T14:52:48Z</time>
      </trkpt>
      <trkpt lat="42.320236" lon="-3.21235">
        <ele>987.61</ele>
        <time>2021-03-27T14:52:50Z</time>
      </trkpt>
      <trkpt lat="42.320208" lon="-3.212488">
        <ele>988.92</ele>
        <time>2021-03-27T14:52:52Z</time>
      </trkpt>
      <trkpt lat="42.320202" lon="-3.212706">
        <ele>990.36</ele>
        <time>2021-03-27T14:52:54Z</time>
      </trkpt>
      <trkpt lat="42.320245" lon="-3.212881">
        <ele>991.42</ele>
        <time>2021-03-27T14:52:56Z</time>
      </trkpt>
      <trkpt lat="42.320294" lon="-3.21299">
        <ele>992.26</ele>
        <time>2021-03-27T14:52:58Z</time>
      </trkpt>
      <trkpt lat="42.321403" lon="-3.214499">
        <ele>998.86</ele>
        <time>2021-03-27T14:53:00Z</time>
      </trkpt>
      <trkpt lat="42.32155" lon="-3.214767">
        <ele>1001.07</ele>
        <time>2021-03-27T14:53:02Z</time>
      </trkpt>
      <trkpt lat="42.321616" lon="-3.214935">
        <ele>1001.39</ele>
        <time>2021-03-27T14:53:04Z</time>
      </trkpt>
      <trkpt lat="42.321648" lon="-3.215061">
        <ele>1001.58</ele>
        <time>2021-03-27T14:53:06Z</time>
      </trkpt>
      <trkpt lat="42.321669" lon="-3.21529">
        <ele>1002.04</ele>
        <time>2021-03-27T14:53:08Z</time>
      </trkpt>
      <trkpt lat="42.321655" lon="-3.215608">
        <ele>1004.16</ele>
        <time>2021-03-27T14:53:10Z</time>
      </trkpt>
      <trkpt lat="42.321636" lon="-3.21573">
        <ele>1004.44</ele>
        <time>2021-03-27T14:53:12Z</time>
      </trkpt>
      <trkpt lat="42.321582" lon="-3.215909">
        <ele>1005.79</ele>
        <time>2021-03-27T14:53:14Z</time>
      </trkpt>
      <trkpt lat="42.3215" lon="-3.216066">
        <ele>1007.41</ele>
        <time>2021-03-27T14:53:16Z</time>
      </trkpt>
      <trkpt lat="42.321399" lon="-3.216212">
        <ele>1007.99</ele>
        <time>2021-03-27T14:53:18Z</time>
      </trkpt>
      <trkpt lat="42.321163" lon="-3.216411">
        <ele>1007.22</ele>
        <time>2021-03-27T14:53:20Z</time>
      </trkpt>
      <trkpt lat="42.321082" lon="-3.216456">
        <ele>1006.76</ele>
        <time>2021-03-27T14:53:22Z</time>
      </trkpt>
      <trkpt lat="42.320918" lon="-3.216502">
        <ele>1005.33</ele>
        <time>2021-03-27T14:53:24Z</time>
      </trkpt>
      <trkpt lat="42.320747" lon="-3.216506">
        <ele>1003.65</ele>
        <time>2021-03-27T14:53:26Z</time>
      </trkpt>
      <trkpt lat="42.32057" lon="-3.216473">
        <ele>1001.85</ele>
        <time>2021-03-27T14:53:28Z</time>
      </trkpt>
      <trkpt lat="42.320115" lon="-3.216277">
        <ele>1003.78</ele>
        <time>2021-03-27T14:53:30Z</time>
      </trkpt>
      <trkpt lat="42.319977" lon="-3.216236">
        <ele>1004.08</ele>
        <time>2021-03-27T14:53:32Z</time>
      </trkpt>
      <trkpt lat="42.319728" lon="-3.216243">
        <ele>1002.6</ele>
        <time>2021-03-27T14:53:34Z</time>
      </trkpt>
      <trkpt lat="42.319495" lon="-3.216364">
        <ele>1001.94</ele>
        <time>2021-03-27T14:53:36Z</time>
      </trkpt>
      <trkpt lat="42.319355" lon="-3.216512">
        <ele>1002.38</ele>
        <time>2021-03-27T14:53:38Z</time>
      </trkpt>
      <trkpt lat="42.319073" lon="-3.216862">
        <ele>1001.4</ele>
        <time>2021-03-27T14:53:40Z</time>
      </trkpt>
      <trkpt lat="42.318917" lon="-3.217064">
        <ele>999.06</ele>
        <time>2021-03-27T14:53:42Z</time>
      </trkpt>
      <trkpt lat="42.318826" lon="-3.217214">
        <ele>997.31</ele>
        <time>2021-03-27T14:53:44Z</time>
      </trkpt>
      <trkpt lat="42.318693" lon="-3.217523">
        <ele>993.89</ele>
        <time>2021-03-27T14:53:46Z</time>
      </trkpt>
      <trkpt lat="42.318518" lon="-3.218255">
        <ele>987.61</ele>
        <time>2021-03-27T14:53:48Z</time>
      </trkpt>
      <trkpt lat="42.31844" lon="-3.218492">
        <ele>986.23</ele>
        <time>2021-03-27T14:53:50Z</time>
      </trkpt>
      <trkpt lat="42.318355" lon="-3.218688">
        <ele>984.63</ele>
        <time>2021-03-27T14:53:52Z</time>
      </trkpt>
      <trkpt lat="42.318242" lon="-3.218861">
        <ele>983.8</ele>
        <time>2021-03-27T14:53:54Z</time>
      </trkpt>
      <trkpt lat="42.318036" lon="-3.219077">
        <ele>982.21</ele>
        <time>2021-03-27T14:53:56Z</time>
      </trkpt>
      <trkpt lat="42.317908" lon="-3.219171">
        <ele>982.05</ele>
        <time>2021-03-27T14:53:58Z</time>
      </trkpt>
      <trkpt lat="42.316262" lon="-3.220114">
        <ele>978.09</ele>
        <time>2021-03-27T14:54:00Z</time>
      </trkpt>
      <trkpt lat="42.316079" lon="-3.220231">
        <ele>976.98</ele>
        <time>2021-03-27T14:54:02Z</time>
      </trkpt>
      <trkpt lat="42.31583" lon="-3.220429">
        <ele>978.29</ele>
        <time>2021-03-27T14:54:04Z</time>
      </trkpt>
      <trkpt lat="42.31572" lon="-3.220546">
        <ele>976.6</ele>
        <time>2021-03-27T14:54:06Z</time>
      </trkpt>
      <trkpt lat="42.315597" lon="-3.220711">
        <ele>973.49</ele>
        <time>2021-03-27T14:54:08Z</time>
      </trkpt>
      <trkpt lat="42.315387" lon="-3.221049">
        <ele>969.24</ele>
        <time>2021-03-27T14:54:10Z</time>
      </trkpt>
      <trkpt lat="42.314812" lon="-3.222092">
        <ele>969.28</ele>
        <time>2021-03-27T14:54:12Z</time>
      </trkpt>
      <trkpt lat="42.314623" lon="-3.222488">
        <ele>968.16</ele>
        <time>2021-03-27T14:54:14Z</time>
      </trkpt>
      <trkpt lat="42.314576" lon="-3.222646">
        <ele>966.45</ele>
        <time>2021-03-27T14:54:16Z</time>
      </trkpt>
      <trkpt lat="42.314558" lon="-3.222769">
        <ele>964.72</ele>
        <time>2021-03-27T14:54:18Z</time>
      </trkpt>
      <trkpt lat="42.314574" lon="-3.223036">
        <ele>962.12</ele>
        <time>2021-03-27T14:54:20Z</time>
      </trkpt>
      <trkpt lat="42.314735" lon="-3.223608">
        <ele>957.13</ele>
        <time>2021-03-27T14:54:22Z</time>
      </trkpt>
      <trkpt lat="42.314778" lon="-3.223865">
        <ele>954.66</ele>
        <time>2021-03-27T14:54:24Z</time>
      </trkpt>
      <trkpt lat="42.314772" lon="-3.224006">
        <ele>953.43</ele>
        <time>2021-03-27T14:54:26Z</time>
      </trkpt>
      <trkpt lat="42.314731" lon="-3.224162">
        <ele>952.06</ele>
        <time>2021-03-27T14:54:28Z</time>
      </trkpt>
      <trkpt lat="42.314667" lon="-3.224278">
        <ele>951.08</ele>
        <time>2021-03-27T14:54:30Z</time>
      </trkpt>
      <trkpt lat="42.314603" lon="-3.22434">
        <ele>950.59</ele>
        <time>2021-03-27T14:54:32Z</time>
      </trkpt>
      <trkpt lat="42.31447" lon="-3.224409">
        <ele>950.14</ele>
        <time>2021-03-27T14:54:33Z</time>
      </trkpt>
      <trkpt lat="42.314278" lon="-3.224395">
        <ele>948.6</ele>
        <time>2021-03-27T14:54:35Z</time>
      </trkpt>
      <trkpt lat="42.313588" lon="-3.22401">
        <ele>946.93</ele>
        <time>2021-03-27T14:54:37Z</time>
      </trkpt>
      <trkpt lat="42.313373" lon="-3.223944">
        <ele>949.04</ele>
        <time>2021-03-27T14:54:39Z</time>
      </trkpt>
      <trkpt lat="42.31317" lon="-3.223919">
        <ele>949.57</ele>
        <time>2021-03-27T14:54:41Z</time>
      </trkpt>
      <trkpt lat="42.312567" lon="-3.22396">
        <ele>947.05</ele>
        <time>2021-03-27T14:54:43Z</time>
      </trkpt>
      <trkpt lat="42.312461" lon="-3.223995">
        <ele>947.14</ele>
        <time>2021-03-27T14:54:45Z</time>
      </trkpt>
      <trkpt lat="42.312343" lon="-3.224145">
        <ele>946.36</ele>
        <time>2021-03-27T14:54:47Z</time>
      </trkpt>
      <trkpt lat="42.312313" lon="-3.22431">
        <ele>945.48</ele>
        <time>2021-03-27T14:54:49Z</time>
      </trkpt>
      <trkpt lat="42.31216" lon="-3.2257">
        <ele>943.66</ele>
        <time>2021-03-27T14:54:51Z</time>
      </trkpt>
      <trkpt lat="42.311789" lon="-3.229297">
        <ele>941.03</ele>
        <time>2021-03-27T14:54:53Z</time>
      </trkpt>
      <trkpt lat="42.311649" lon="-3.230403">
        <ele>948.42</ele>
        <time>2021-03-27T14:54:55Z</time>
      </trkpt>
      <trkpt lat="42.311574" lon="-3.230777">
        <ele>948.93</ele>
        <time>2021-03-27T14:54:57Z</time>
      </trkpt>
      <trkpt lat="42.311371" lon="-3.231561">
        <ele>948.27</ele>
        <time>2021-03-27T14:54:59Z</time>
      </trkpt>
      <trkpt lat="42.309096" lon="-3.239115">
        <ele>962.54</ele>
        <time>2021-03-27T14:55:01Z</time>
      </trkpt>
      <trkpt lat="42.308172" lon="-3.24154">
        <ele>963.75</ele>
        <time>2021-03-27T14:55:03Z</time>
      </trkpt>
      <trkpt lat="42.308096" lon="-3.241913">
        <ele>966.56</ele>
        <time>2021-03-27T14:55:05Z</time>
      </trkpt>
      <trkpt lat="42.308014" lon="-3.243061">
        <ele>976.33</ele>
        <time>2021-03-27T14:55:07Z</time>
      </trkpt>
      <trkpt lat="42.30797" lon="-3.243287">
        <ele>978.68</ele>
        <time>2021-03-27T14:55:09Z</time>
      </trkpt>
      <trkpt lat="42.30797" lon="-3.243287">
        <ele>978.68</ele>
        <time>2021-03-27T14:55:09Z</time>
      </trkpt>
      <trkpt lat="42.307908" lon="-3.243603">
        <ele>981.03</ele>
        <time>2021-03-27T14:55:11Z</time>
      </trkpt>
      <trkpt lat="42.307742" lon="-3.244169">
        <ele>977.14</ele>
        <time>2021-03-27T14:55:14Z</time>
      </trkpt>
      <trkpt lat="42.307588" lon="-3.244531">
        <ele>976.89</ele>
        <time>2021-03-27T14:55:16Z</time>
      </trkpt>
      <trkpt lat="42.306628" lon="-3.246468">
        <ele>983.15</ele>
        <time>2021-03-27T14:55:18Z</time>
      </trkpt>
      <trkpt lat="42.306513" lon="-3.246737">
        <ele>983.71</ele>
        <time>2021-03-27T14:55:20Z</time>
      </trkpt>
      <trkpt lat="42.30646" lon="-3.246908">
        <ele>983.87</ele>
        <time>2021-03-27T14:55:22Z</time>
      </trkpt>
      <trkpt lat="42.30642" lon="-3.247095">
        <ele>984.64</ele>
        <time>2021-03-27T14:55:24Z</time>
      </trkpt>
      <trkpt lat="42.306346" lon="-3.247711">
        <ele>987.45</ele>
        <time>2021-03-27T14:55:27Z</time>
      </trkpt>
      <trkpt lat="42.306072" lon="-3.250405">
        <ele>988.02</ele>
        <time>2021-03-27T14:55:29Z</time>
      </trkpt>
      <trkpt lat="42.306009" lon="-3.251227">
        <ele>985.0</ele>
        <time>2021-03-27T14:55:31Z</time>
      </trkpt>
      <trkpt lat="42.306014" lon="-3.251606">
        <ele>985.43</ele>
        <time>2021-03-27T14:55:33Z</time>
      </trkpt>
      <trkpt lat="42.306056" lon="-3.2524">
        <ele>984.25</ele>
        <time>2021-03-27T14:55:35Z</time>
      </trkpt>
      <trkpt lat="42.30612" lon="-3.25294">
        <ele>988.93</ele>
        <time>2021-03-27T14:55:38Z</time>
      </trkpt>
      <trkpt lat="42.306178" lon="-3.253277">
        <ele>990.61</ele>
        <time>2021-03-27T14:55:40Z</time>
      </trkpt>
      <trkpt lat="42.306243" lon="-3.253542">
        <ele>991.84</ele>
        <time>2021-03-27T14:55:42Z</time>
      </trkpt>
      <trkpt lat="42.306686" lon="-3.255166">
        <ele>998.92</ele>
        <time>2021-03-27T14:55:44Z</time>
      </trkpt>
      <trkpt lat="42.306729" lon="-3.255374">
        <ele>999.34</ele>
        <time>2021-03-27T14:55:46Z</time>
      </trkpt>
      <trkpt lat="42.306757" lon="-3.255949">
        <ele>996.49</ele>
        <time>2021-03-27T14:55:48Z</time>
      </trkpt>
      <trkpt lat="42.306793" lon="-3.256317">
        <ele>995.86</ele>
        <time>2021-03-27T14:55:51Z</time>
      </trkpt>
      <trkpt lat="42.306886" lon="-3.256564">
        <ele>996.63</ele>
        <time>2021-03-27T14:55:53Z</time>
      </trkpt>
      <trkpt lat="42.306997" lon="-3.256735">
        <ele>998.09</ele>
        <time>2021-03-27T14:55:55Z</time>
      </trkpt>
      <trkpt lat="42.307688" lon="-3.257346">
        <ele>1003.22</ele>
        <time>2021-03-27T14:55:57Z</time>
      </trkpt>
      <trkpt lat="42.307853" lon="-3.257572">
        <ele>1004.09</ele>
        <time>2021-03-27T14:55:59Z</time>
      </trkpt>
      <trkpt lat="42.308049" lon="-3.257968">
        <ele>1004.51</ele>
        <time>2021-03-27T14:56:01Z</time>
      </trkpt>
      <trkpt lat="42.308347" lon="-3.258813">
        <ele>1005.92</ele>
        <time>2021-03-27T14:56:04Z</time>
      </trkpt>
      <trkpt lat="42.308402" lon="-3.259116">
        <ele>1006.14</ele>
        <time>2021-03-27T14:56:06Z</time>
      </trkpt>
      <trkpt lat="42.308415" lon="-3.259287">
        <ele>1006.24</ele>
        <time>2021-03-27T14:56:08Z</time>
      </trkpt>
      <trkpt lat="42.308366" lon="-3.261492">
        <ele>1019.32</ele>
        <time>2021-03-27T14:56:10Z</time>
      </trkpt>
      <trkpt lat="42.308374" lon="-3.26171">
        <ele>1018.58</ele>
        <time>2021-03-27T14:56:12Z</time>
      </trkpt>
      <trkpt lat="42.308409" lon="-3.262039">
        <ele>1017.7</ele>
        <time>2021-03-27T14:56:15Z</time>
      </trkpt>
      <trkpt lat="42.308472" lon="-3.262341">
        <ele>1017.65</ele>
        <time>2021-03-27T14:56:17Z</time>
      </trkpt>
      <trkpt lat="42.308625" lon="-3.262778">
        <ele>1019.85</ele>
        <time>2021-03-27T14:56:19Z</time>
      </trkpt>
      <trkpt lat="42.308786" lon="-3.263111">
        <ele>1022.9</ele>
        <time>2021-03-27T14:56:21Z</time>
      </trkpt>
      <trkpt lat="42.309142" lon="-3.263745">
        <ele>1028.19</ele>
        <time>2021-03-27T14:56:23Z</time>
      </trkpt>
      <trkpt lat="42.309222" lon="-3.263922">
        <ele>1028.91</ele>
        <time>2021-03-27T14:56:25Z</time>
      </trkpt>
      <trkpt lat="42.30925" lon="-3.264017">
        <ele>1029.02</ele>
        <time>2021-03-27T14:56:28Z</time>
      </trkpt>
      <trkpt lat="42.309259" lon="-3.264225">
        <ele>1030.63</ele>
        <time>2021-03-27T14:56:30Z</time>
      </trkpt>
      <trkpt lat="42.309193" lon="-3.264379">
        <ele>1034.45</ele>
        <time>2021-03-27T14:56:32Z</time>
      </trkpt>
      <trkpt lat="42.309104" lon="-3.264439">
        <ele>1037.52</ele>
        <time>2021-03-27T14:56:34Z</time>
      </trkpt>
      <trkpt lat="42.309008" lon="-3.264439">
        <ele>1039.92</ele>
        <time>2021-03-27T14:56:36Z</time>
      </trkpt>
      <trkpt lat="42.30886" lon="-3.264359">
        <ele>1042.05</ele>
        <time>2021-03-27T14:56:38Z</time>
      </trkpt>
      <trkpt lat="42.308754" lon="-3.264229">
        <ele>1040.98</ele>
        <time>2021-03-27T14:56:41Z</time>
      </trkpt>
      <trkpt lat="42.30817" lon="-3.26335">
        <ele>1036.6</ele>
        <time>2021-03-27T14:56:43Z</time>
      </trkpt>
      <trkpt lat="42.308092" lon="-3.263264">
        <ele>1036.23</ele>
        <time>2021-03-27T14:56:45Z</time>
      </trkpt>
      <trkpt lat="42.307999" lon="-3.263218">
        <ele>1037.14</ele>
        <time>2021-03-27T14:56:47Z</time>
      </trkpt>
      <trkpt lat="42.307888" lon="-3.263218">
        <ele>1039.54</ele>
        <time>2021-03-27T14:56:49Z</time>
      </trkpt>
      <trkpt lat="42.307822" lon="-3.263264">
        <ele>1041.8</ele>
        <time>2021-03-27T14:56:52Z</time>
      </trkpt>
      <trkpt lat="42.307763" lon="-3.26335">
        <ele>1044.54</ele>
        <time>2021-03-27T14:56:54Z</time>
      </trkpt>
      <trkpt lat="42.30774" lon="-3.263498">
        <ele>1047.02</ele>
        <time>2021-03-27T14:56:56Z</time>
      </trkpt>
      <trkpt lat="42.307804" lon="-3.263764">
        <ele>1049.12</ele>
        <time>2021-03-27T14:56:58Z</time>
      </trkpt>
      <trkpt lat="42.308236" lon="-3.264671">
        <ele>1053.29</ele>
        <time>2021-03-27T14:57:00Z</time>
      </trkpt>
      <trkpt lat="42.308825" lon="-3.265517">
        <ele>1052.91</ele>
        <time>2021-03-27T14:57:02Z</time>
      </trkpt>
      <trkpt lat="42.308857" lon="-3.265583">
        <ele>1053.07</ele>
        <time>2021-03-27T14:57:05Z</time>
      </trkpt>
      <trkpt lat="42.308868" lon="-3.265732">
        <ele>1054.94</ele>
        <time>2021-03-27T14:57:07Z</time>
      </trkpt>
      <trkpt lat="42.308849" lon="-3.265806">
        <ele>1056.34</ele>
        <time>2021-03-27T14:57:09Z</time>
      </trkpt>
      <trkpt lat="42.308779" lon="-3.265919">
        <ele>1059.21</ele>
        <time>2021-03-27T14:57:11Z</time>
      </trkpt>
      <trkpt lat="42.308703" lon="-3.26595">
        <ele>1061.03</ele>
        <time>2021-03-27T14:57:13Z</time>
      </trkpt>
      <trkpt lat="42.308629" lon="-3.26595">
        <ele>1062.36</ele>
        <time>2021-03-27T14:57:15Z</time>
      </trkpt>
      <trkpt lat="42.308569" lon="-3.265917">
        <ele>1062.92</ele>
        <time>2021-03-27T14:57:18Z</time>
      </trkpt>
      <trkpt lat="42.308514" lon="-3.265857">
        <ele>1063.05</ele>
        <time>2021-03-27T14:57:20Z</time>
      </trkpt>
      <trkpt lat="42.308339" lon="-3.265468">
        <ele>1061.32</ele>
        <time>2021-03-27T14:57:22Z</time>
      </trkpt>
      <trkpt lat="42.308151" lon="-3.265118">
        <ele>1061.43</ele>
        <time>2021-03-27T14:57:24Z</time>
      </trkpt>
      <trkpt lat="42.308073" lon="-3.265003">
        <ele>1061.62</ele>
        <time>2021-03-27T14:57:26Z</time>
      </trkpt>
      <trkpt lat="42.307919" lon="-3.264847">
        <ele>1062.7</ele>
        <time>2021-03-27T14:57:29Z</time>
      </trkpt>
      <trkpt lat="42.3074" lon="-3.264427">
        <ele>1067.71</ele>
        <time>2021-03-27T14:57:31Z</time>
      </trkpt>
      <trkpt lat="42.30717" lon="-3.264136">
        <ele>1070.16</ele>
        <time>2021-03-27T14:57:33Z</time>
      </trkpt>
      <trkpt lat="42.306797" lon="-3.263218">
        <ele>1074.22</ele>
        <time>2021-03-27T14:57:35Z</time>
      </trkpt>
      <trkpt lat="42.306739" lon="-3.26314">
        <ele>1075.17</ele>
        <time>2021-03-27T14:57:37Z</time>
      </trkpt>
      <trkpt lat="42.306606" lon="-3.263046">
        <ele>1076.51</ele>
        <time>2021-03-27T14:57:39Z</time>
      </trkpt>
      <trkpt lat="42.306505" lon="-3.263038">
        <ele>1077.46</ele>
        <time>2021-03-27T14:57:42Z</time>
      </trkpt>
      <trkpt lat="42.306394" lon="-3.263066">
        <ele>1079.09</ele>
        <time>2021-03-27T14:57:44Z</time>
      </trkpt>
      <trkpt lat="42.305966" lon="-3.263455">
        <ele>1080.59</ele>
        <time>2021-03-27T14:57:46Z</time>
      </trkpt>
      <trkpt lat="42.305721" lon="-3.263595">
        <ele>1083.41</ele>
        <time>2021-03-27T14:57:48Z</time>
      </trkpt>
      <trkpt lat="42.304634" lon="-3.263992">
        <ele>1096.61</ele>
        <time>2021-03-27T14:57:50Z</time>
      </trkpt>
      <trkpt lat="42.304459" lon="-3.264003">
        <ele>1097.43</ele>
        <time>2021-03-27T14:57:53Z</time>
      </trkpt>
      <trkpt lat="42.303975" lon="-3.263947">
        <ele>1100.53</ele>
        <time>2021-03-27T14:57:55Z</time>
      </trkpt>
      <trkpt lat="42.303787" lon="-3.263974">
        <ele>1100.86</ele>
        <time>2021-03-27T14:57:57Z</time>
      </trkpt>
      <trkpt lat="42.303635" lon="-3.26403">
        <ele>1101.12</ele>
        <time>2021-03-27T14:57:59Z</time>
      </trkpt>
      <trkpt lat="42.303434" lon="-3.264167">
        <ele>1101.08</ele>
        <time>2021-03-27T14:58:01Z</time>
      </trkpt>
      <trkpt lat="42.302983" lon="-3.264522">
        <ele>1107.25</ele>
        <time>2021-03-27T14:58:03Z</time>
      </trkpt>
      <trkpt lat="42.302867" lon="-3.264633">
        <ele>1108.48</ele>
        <time>2021-03-27T14:58:06Z</time>
      </trkpt>
      <trkpt lat="42.302676" lon="-3.264918">
        <ele>1110.7</ele>
        <time>2021-03-27T14:58:08Z</time>
      </trkpt>
      <trkpt lat="42.302285" lon="-3.265772">
        <ele>1119.92</ele>
        <time>2021-03-27T14:58:10Z</time>
      </trkpt>
      <trkpt lat="42.302165" lon="-3.265985">
        <ele>1119.89</ele>
        <time>2021-03-27T14:58:12Z</time>
      </trkpt>
      <trkpt lat="42.302047" lon="-3.266144">
        <ele>1119.04</ele>
        <time>2021-03-27T14:58:14Z</time>
      </trkpt>
      <trkpt lat="42.30192" lon="-3.266278">
        <ele>1118.19</ele>
        <time>2021-03-27T14:58:16Z</time>
      </trkpt>
      <trkpt lat="42.301773" lon="-3.266389">
        <ele>1117.93</ele>
        <time>2021-03-27T14:58:19Z</time>
      </trkpt>
      <trkpt lat="42.301304" lon="-3.266651">
        <ele>1118.2</ele>
        <time>2021-03-27T14:58:21Z</time>
      </trkpt>
      <trkpt lat="42.301201" lon="-3.266751">
        <ele>1117.7</ele>
        <time>2021-03-27T14:58:23Z</time>
      </trkpt>
      <trkpt lat="42.301106" lon="-3.266899">
        <ele>1118.59</ele>
        <time>2021-03-27T14:58:25Z</time>
      </trkpt>
      <trkpt lat="42.301047" lon="-3.267041">
        <ele>1118.99</ele>
        <time>2021-03-27T14:58:27Z</time>
      </trkpt>
      <trkpt lat="42.301008" lon="-3.267205">
        <ele>1120.47</ele>
        <time>2021-03-27T14:58:30Z</time>
      </trkpt>
      <trkpt lat="42.300994" lon="-3.267457">
        <ele>1122.5</ele>
        <time>2021-03-27T14:58:32Z</time>
      </trkpt>
      <trkpt lat="42.301004" lon="-3.267893">
        <ele>1126.07</ele>
        <time>2021-03-27T14:58:34Z</time>
      </trkpt>
      <trkpt lat="42.300986" lon="-3.268088">
        <ele>1127.71</ele>
        <time>2021-03-27T14:58:36Z</time>
      </trkpt>
      <trkpt lat="42.300734" lon="-3.268797">
        <ele>1129.29</ele>
        <time>2021-03-27T14:58:38Z</time>
      </trkpt>
      <trkpt lat="42.300712" lon="-3.268953">
        <ele>1130.8</ele>
        <time>2021-03-27T14:58:40Z</time>
      </trkpt>
      <trkpt lat="42.300663" lon="-3.270382">
        <ele>1140.37</ele>
        <time>2021-03-27T14:58:43Z</time>
      </trkpt>
      <trkpt lat="42.300622" lon="-3.27067">
        <ele>1142.96</ele>
        <time>2021-03-27T14:58:45Z</time>
      </trkpt>
      <trkpt lat="42.300286" lon="-3.27177">
        <ele>1148.35</ele>
        <time>2021-03-27T14:58:47Z</time>
      </trkpt>
      <trkpt lat="42.300069" lon="-3.27238">
        <ele>1155.56</ele>
        <time>2021-03-27T14:58:49Z</time>
      </trkpt>
      <trkpt lat="42.299827" lon="-3.272807">
        <ele>1160.63</ele>
        <time>2021-03-27T14:58:51Z</time>
      </trkpt>
      <trkpt lat="42.2992" lon="-3.273626">
        <ele>1161.12</ele>
        <time>2021-03-27T14:58:53Z</time>
      </trkpt>
      <trkpt lat="42.298903" lon="-3.274042">
        <ele>1164.68</ele>
        <time>2021-03-27T14:58:56Z</time>
      </trkpt>
      <trkpt lat="42.298812" lon="-3.27421">
        <ele>1165.08</ele>
        <time>2021-03-27T14:58:58Z</time>
      </trkpt>
      <trkpt lat="42.298753" lon="-3.274375">
        <ele>1165.8</ele>
        <time>2021-03-27T14:59:00Z</time>
      </trkpt>
      <trkpt lat="42.298692" lon="-3.274649">
        <ele>1166.41</ele>
        <time>2021-03-27T14:59:02Z</time>
      </trkpt>
      <trkpt lat="42.29858" lon="-3.275601">
        <ele>1173.52</ele>
        <time>2021-03-27T14:59:04Z</time>
      </trkpt>
      <trkpt lat="42.298485" lon="-3.276067">
        <ele>1173.96</ele>
        <time>2021-03-27T14:59:07Z</time>
      </trkpt>
      <trkpt lat="42.298351" lon="-3.276374">
        <ele>1175.09</ele>
        <time>2021-03-27T14:59:09Z</time>
      </trkpt>
      <trkpt lat="42.297921" lon="-3.277011">
        <ele>1180.12</ele>
        <time>2021-03-27T14:59:11Z</time>
      </trkpt>
      <trkpt lat="42.297813" lon="-3.27722">
        <ele>1180.13</ele>
        <time>2021-03-27T14:59:13Z</time>
      </trkpt>
      <trkpt lat="42.297752" lon="-3.277381">
        <ele>1179.47</ele>
        <time>2021-03-27T14:59:15Z</time>
      </trkpt>
      <trkpt lat="42.297695" lon="-3.277614">
        <ele>1178.47</ele>
        <time>2021-03-27T14:59:17Z</time>
      </trkpt>
      <trkpt lat="42.297663" lon="-3.277904">
        <ele>1177.85</ele>
        <time>2021-03-27T14:59:20Z</time>
      </trkpt>
      <trkpt lat="42.297663" lon="-3.278061">
        <ele>1178.19</ele>
        <time>2021-03-27T14:59:22Z</time>
      </trkpt>
      <trkpt lat="42.29771" lon="-3.278367">
        <ele>1179.63</ele>
        <time>2021-03-27T14:59:24Z</time>
      </trkpt>
      <trkpt lat="42.298039" lon="-3.279693">
        <ele>1186.56</ele>
        <time>2021-03-27T14:59:26Z</time>
      </trkpt>
      <trkpt lat="42.298124" lon="-3.280336">
        <ele>1189.88</ele>
        <time>2021-03-27T14:59:28Z</time>
      </trkpt>
      <trkpt lat="42.29815" lon="-3.280775">
        <ele>1188.89</ele>
        <time>2021-03-27T14:59:30Z</time>
      </trkpt>
      <trkpt lat="42.298209" lon="-3.281124">
        <ele>1187.57</ele>
        <time>2021-03-27T14:59:33Z</time>
      </trkpt>
      <trkpt lat="42.298321" lon="-3.281408">
        <ele>1188.06</ele>
        <time>2021-03-27T14:59:35Z</time>
      </trkpt>
      <trkpt lat="42.298408" lon="-3.281556">
        <ele>1188.98</ele>
        <time>2021-03-27T14:59:37Z</time>
      </trkpt>
      <trkpt lat="42.301761" lon="-3.285664">
        <ele>1185.44</ele>
        <time>2021-03-27T14:59:39Z</time>
      </trkpt>
      <trkpt lat="42.302058" lon="-3.286036">
        <ele>1185.44</ele>
        <time>2021-03-27T14:59:41Z</time>
      </trkpt>
      <trkpt lat="42.302307" lon="-3.286381">
        <ele>1183.42</ele>
        <time>2021-03-27T14:59:44Z</time>
      </trkpt>
      <trkpt lat="42.302425" lon="-3.286568">
        <ele>1181.33</ele>
        <time>2021-03-27T14:59:46Z</time>
      </trkpt>
      <trkpt lat="42.303375" lon="-3.288413">
        <ele>1176.31</ele>
        <time>2021-03-27T14:59:48Z</time>
      </trkpt>
      <trkpt lat="42.303657" lon="-3.289141">
        <ele>1176.47</ele>
        <time>2021-03-27T14:59:50Z</time>
      </trkpt>
      <trkpt lat="42.303899" lon="-3.289618">
        <ele>1180.89</ele>
        <time>2021-03-27T14:59:52Z</time>
      </trkpt>
      <trkpt lat="42.303986" lon="-3.289734">
        <ele>1181.3</ele>
        <time>2021-03-27T14:59:54Z</time>
      </trkpt>
      <trkpt lat="42.3044" lon="-3.290185">
        <ele>1180.23</ele>
        <time>2021-03-27T14:59:57Z</time>
      </trkpt>
      <trkpt lat="42.304491" lon="-3.290321">
        <ele>1179.56</ele>
        <time>2021-03-27T14:59:59Z</time>
      </trkpt>
      <trkpt lat="42.304563" lon="-3.290519">
        <ele>1177.77</ele>
        <time>2021-03-27T15:00:01Z</time>
      </trkpt>
      <trkpt lat="42.304589" lon="-3.290743">
        <ele>1176.52</ele>
        <time>2021-03-27T15:00:03Z</time>
      </trkpt>
      <trkpt lat="42.304583" lon="-3.290893">
        <ele>1175.67</ele>
        <time>2021-03-27T15:00:05Z</time>
      </trkpt>
      <trkpt lat="42.304298" lon="-3.292651">
        <ele>1170.9</ele>
        <time>2021-03-27T15:00:07Z</time>
      </trkpt>
      <trkpt lat="42.304266" lon="-3.29298">
        <ele>1170.69</ele>
        <time>2021-03-27T15:00:10Z</time>
      </trkpt>
      <trkpt lat="42.304336" lon="-3.293555">
        <ele>1172.24</ele>
        <time>2021-03-27T15:00:12Z</time>
      </trkpt>
      <trkpt lat="42.304723" lon="-3.29566">
        <ele>1164.02</ele>
        <time>2021-03-27T15:00:14Z</time>
      </trkpt>
      <trkpt lat="42.304727" lon="-3.29598">
        <ele>1163.55</ele>
        <time>2021-03-27T15:00:16Z</time>
      </trkpt>
      <trkpt lat="42.304688" lon="-3.296226">
        <ele>1162.22</ele>
        <time>2021-03-27T15:00:18Z</time>
      </trkpt>
      <trkpt lat="42.30431" lon="-3.297966">
        <ele>1159.09</ele>
        <time>2021-03-27T15:00:21Z</time>
      </trkpt>
      <trkpt lat="42.30421" lon="-3.298536">
        <ele>1159.66</ele>
        <time>2021-03-27T15:00:23Z</time>
      </trkpt>
      <trkpt lat="42.30408" lon="-3.299951">
        <ele>1158.75</ele>
        <time>2021-03-27T15:00:25Z</time>
      </trkpt>
      <trkpt lat="42.304141" lon="-3.301595">
        <ele>1151.65</ele>
        <time>2021-03-27T15:00:27Z</time>
      </trkpt>
      <trkpt lat="42.304181" lon="-3.301938">
        <ele>1151.34</ele>
        <time>2021-03-27T15:00:29Z</time>
      </trkpt>
      <trkpt lat="42.304405" lon="-3.303312">
        <ele>1153.01</ele>
        <time>2021-03-27T15:00:31Z</time>
      </trkpt>
      <trkpt lat="42.304399" lon="-3.303653">
        <ele>1150.86</ele>
        <time>2021-03-27T15:00:34Z</time>
      </trkpt>
      <trkpt lat="42.304281" lon="-3.304633">
        <ele>1139.96</ele>
        <time>2021-03-27T15:00:36Z</time>
      </trkpt>
      <trkpt lat="42.304273" lon="-3.304781">
        <ele>1139.53</ele>
        <time>2021-03-27T15:00:38Z</time>
      </trkpt>
      <trkpt lat="42.304291" lon="-3.304999">
        <ele>1139.79</ele>
        <time>2021-03-27T15:00:40Z</time>
      </trkpt>
      <trkpt lat="42.30436" lon="-3.305224">
        <ele>1140.78</ele>
        <time>2021-03-27T15:00:42Z</time>
      </trkpt>
      <trkpt lat="42.304612" lon="-3.30576">
        <ele>1140.05</ele>
        <time>2021-03-27T15:00:44Z</time>
      </trkpt>
      <trkpt lat="42.304999" lon="-3.306675">
        <ele>1142.9</ele>
        <time>2021-03-27T15:00:47Z</time>
      </trkpt>
      <trkpt lat="42.305351" lon="-3.307642">
        <ele>1137.92</ele>
        <time>2021-03-27T15:00:49Z</time>
      </trkpt>
      <trkpt lat="42.305474" lon="-3.308025">
        <ele>1137.73</ele>
        <time>2021-03-27T15:00:51Z</time>
      </trkpt>
      <trkpt lat="42.305551" lon="-3.308378">
        <ele>1138.77</ele>
        <time>2021-03-27T15:00:53Z</time>
      </trkpt>
      <trkpt lat="42.305748" lon="-3.314807">
        <ele>1125.96</ele>
        <time>2021-03-27T15:00:55Z</time>
      </trkpt>
      <trkpt lat="42.305765" lon="-3.31501">
        <ele>1124.92</ele>
        <time>2021-03-27T15:00:58Z</time>
      </trkpt>
      <trkpt lat="42.305958" lon="-3.316057">
        <ele>1119.32</ele>
        <time>2021-03-27T15:01:00Z</time>
      </trkpt>
      <trkpt lat="42.306028" lon="-3.316571">
        <ele>1122.33</ele>
        <time>2021-03-27T15:01:02Z</time>
      </trkpt>
      <trkpt lat="42.306142" lon="-3.317665">
        <ele>1119.63</ele>
        <time>2021-03-27T15:01:04Z</time>
      </trkpt>
      <trkpt lat="42.306106" lon="-3.318004">
        <ele>1120.5</ele>
        <time>2021-03-27T15:01:06Z</time>
      </trkpt>
      <trkpt lat="42.306055" lon="-3.318233">
        <ele>1120.6</ele>
        <time>2021-03-27T15:01:08Z</time>
      </trkpt>
      <trkpt lat="42.305834" lon="-3.319043">
        <ele>1115.02</ele>
        <time>2021-03-27T15:01:11Z</time>
      </trkpt>
      <trkpt lat="42.305691" lon="-3.319666">
        <ele>1113.14</ele>
        <time>2021-03-27T15:01:13Z</time>
      </trkpt>
      <trkpt lat="42.305673" lon="-3.319855">
        <ele>1113.87</ele>
        <time>2021-03-27T15:01:15Z</time>
      </trkpt>
      <trkpt lat="42.305667" lon="-3.320667">
        <ele>1113.32</ele>
        <time>2021-03-27T15:01:17Z</time>
      </trkpt>
      <trkpt lat="42.305421" lon="-3.320697">
        <ele>1109.04</ele>
        <time>2021-03-27T15:01:19Z</time>
      </trkpt>
      <trkpt lat="42.305345" lon="-3.320727">
        <ele>1107.67</ele>
        <time>2021-03-27T15:01:21Z</time>
      </trkpt>
      <trkpt lat="42.305262" lon="-3.320775">
        <ele>1106.43</ele>
        <time>2021-03-27T15:01:22Z</time>
      </trkpt>
      <trkpt lat="42.305188" lon="-3.320847">
        <ele>1105.93</ele>
        <time>2021-03-27T15:01:24Z</time>
      </trkpt>
      <trkpt lat="42.305122" lon="-3.320974">
        <ele>1105.55</ele>
        <time>2021-03-27T15:01:26Z</time>
      </trkpt>
      <trkpt lat="42.305076" lon="-3.321138">
        <ele>1105.26</ele>
        <time>2021-03-27T15:01:27Z</time>
      </trkpt>
      <trkpt lat="42.304714" lon="-3.323067">
        <ele>1104.16</ele>
        <time>2021-03-27T15:01:29Z</time>
      </trkpt>
      <trkpt lat="42.304648" lon="-3.323327">
        <ele>1106.04</ele>
        <time>2021-03-27T15:01:31Z</time>
      </trkpt>
      <trkpt lat="42.304554" lon="-3.323606">
        <ele>1106.64</ele>
        <time>2021-03-27T15:01:32Z</time>
      </trkpt>
      <trkpt lat="42.303368" lon="-3.326093">
        <ele>1098.65</ele>
        <time>2021-03-27T15:01:34Z</time>
      </trkpt>
      <trkpt lat="42.30302" lon="-3.326786">
        <ele>1101.79</ele>
        <time>2021-03-27T15:01:36Z</time>
      </trkpt>
      <trkpt lat="42.302879" lon="-3.327">
        <ele>1100.51</ele>
        <time>2021-03-27T15:01:38Z</time>
      </trkpt>
      <trkpt lat="42.302385" lon="-3.327587">
        <ele>1101.38</ele>
        <time>2021-03-27T15:01:39Z</time>
      </trkpt>
      <trkpt lat="42.302337" lon="-3.327674">
        <ele>1101.18</ele>
        <time>2021-03-27T15:01:41Z</time>
      </trkpt>
      <trkpt lat="42.302235" lon="-3.327897">
        <ele>1100.11</ele>
        <time>2021-03-27T15:01:43Z</time>
      </trkpt>
      <trkpt lat="42.30218" lon="-3.328065">
        <ele>1099.98</ele>
        <time>2021-03-27T15:01:44Z</time>
      </trkpt>
      <trkpt lat="42.301879" lon="-3.329093">
        <ele>1097.21</ele>
        <time>2021-03-27T15:01:46Z</time>
      </trkpt>
      <trkpt lat="42.30179" lon="-3.329339">
        <ele>1098.76</ele>
        <time>2021-03-27T15:01:48Z</time>
      </trkpt>
      <trkpt lat="42.301694" lon="-3.329531">
        <ele>1099.57</ele>
        <time>2021-03-27T15:01:49Z</time>
      </trkpt>
      <trkpt lat="42.300657" lon="-3.331094">
        <ele>1099.03</ele>
        <time>2021-03-27T15:01:51Z</time>
      </trkpt>
      <trkpt lat="42.300507" lon="-3.331222">
        <ele>1098.64</ele>
        <time>2021-03-27T15:01:53Z</time>
      </trkpt>
      <trkpt lat="42.30038" lon="-3.331284">
        <ele>1098.54</ele>
        <time>2021-03-27T15:01:54Z</time>
      </trkpt>
      <trkpt lat="42.300159" lon="-3.331327">
        <ele>1098.76</ele>
        <time>2021-03-27T15:01:56Z</time>
      </trkpt>
      <trkpt lat="42.300029" lon="-3.331314">
        <ele>1099.05</ele>
        <time>2021-03-27T15:01:58Z</time>
      </trkpt>
      <trkpt lat="42.299799" lon="-3.331207">
        <ele>1099.42</ele>
        <time>2021-03-27T15:01:59Z</time>
      </trkpt>
      <trkpt lat="42.299686" lon="-3.331109">
        <ele>1099.76</ele>
        <time>2021-03-27T15:02:01Z</time>
      </trkpt>
      <trkpt lat="42.299573" lon="-3.330965">
        <ele>1100.5</ele>
        <time>2021-03-27T15:02:03Z</time>
      </trkpt>
      <trkpt lat="42.298804" lon="-3.329492">
        <ele>1100.06</ele>
        <time>2021-03-27T15:02:05Z</time>
      </trkpt>
      <trkpt lat="42.298728" lon="-3.329335">
        <ele>1099.25</ele>
        <time>2021-03-27T15:02:06Z</time>
      </trkpt>
      <trkpt lat="42.298676" lon="-3.329184">
        <ele>1098.76</ele>
        <time>2021-03-27T15:02:08Z</time>
      </trkpt>
      <trkpt lat="42.298621" lon="-3.328951">
        <ele>1098.09</ele>
        <time>2021-03-27T15:02:10Z</time>
      </trkpt>
      <trkpt lat="42.298593" lon="-3.328717">
        <ele>1097.69</ele>
        <time>2021-03-27T15:02:11Z</time>
      </trkpt>
      <trkpt lat="42.298614" lon="-3.327958">
        <ele>1099.81</ele>
        <time>2021-03-27T15:02:13Z</time>
      </trkpt>
      <trkpt lat="42.298601" lon="-3.32782">
        <ele>1100.42</ele>
        <time>2021-03-27T15:02:15Z</time>
      </trkpt>
      <trkpt lat="42.298573" lon="-3.327707">
        <ele>1100.67</ele>
        <time>2021-03-27T15:02:16Z</time>
      </trkpt>
      <trkpt lat="42.298492" lon="-3.327519">
        <ele>1100.37</ele>
        <time>2021-03-27T15:02:18Z</time>
      </trkpt>
      <trkpt lat="42.297944" lon="-3.326563">
        <ele>1095.09</ele>
        <time>2021-03-27T15:02:20Z</time>
      </trkpt>
      <trkpt lat="42.297765" lon="-3.326374">
        <ele>1093.1</ele>
        <time>2021-03-27T15:02:21Z</time>
      </trkpt>
      <trkpt lat="42.297671" lon="-3.326335">
        <ele>1093.65</ele>
        <time>2021-03-27T15:02:23Z</time>
      </trkpt>
      <trkpt lat="42.297434" lon="-3.326313">
        <ele>1094.8</ele>
        <time>2021-03-27T15:02:25Z</time>
      </trkpt>
      <trkpt lat="42.297209" lon="-3.326392">
        <ele>1095.87</ele>
        <time>2021-03-27T15:02:27Z</time>
      </trkpt>
      <trkpt lat="42.297125" lon="-3.326455">
        <ele>1096.34</ele>
        <time>2021-03-27T15:02:28Z</time>
      </trkpt>
      <trkpt lat="42.296989" lon="-3.326638">
        <ele>1097.41</ele>
        <time>2021-03-27T15:02:30Z</time>
      </trkpt>
      <trkpt lat="42.296895" lon="-3.32686">
        <ele>1098.67</ele>
        <time>2021-03-27T15:02:32Z</time>
      </trkpt>
      <trkpt lat="42.296869" lon="-3.326978">
        <ele>1099.82</ele>
        <time>2021-03-27T15:02:33Z</time>
      </trkpt>
      <trkpt lat="42.29686" lon="-3.327122">
        <ele>1100.62</ele>
        <time>2021-03-27T15:02:35Z</time>
      </trkpt>
      <trkpt lat="42.296908" lon="-3.327827">
        <ele>1099.85</ele>
        <time>2021-03-27T15:02:37Z</time>
      </trkpt>
      <trkpt lat="42.296888" lon="-3.328159">
        <ele>1102.41</ele>
        <time>2021-03-27T15:02:38Z</time>
      </trkpt>
      <trkpt lat="42.296853" lon="-3.328418">
        <ele>1104.7</ele>
        <time>2021-03-27T15:02:40Z</time>
      </trkpt>
      <trkpt lat="42.296624" lon="-3.329889">
        <ele>1102.9</ele>
        <time>2021-03-27T15:02:42Z</time>
      </trkpt>
      <trkpt lat="42.296586" lon="-3.330062">
        <ele>1103.21</ele>
        <time>2021-03-27T15:02:43Z</time>
      </trkpt>
      <trkpt lat="42.296483" lon="-3.330336">
        <ele>1103.16</ele>
        <time>2021-03-27T15:02:45Z</time>
      </trkpt>
      <trkpt lat="42.296338" lon="-3.330572">
        <ele>1098.8</ele>
        <time>2021-03-27T15:02:47Z</time>
      </trkpt>
      <trkpt lat="42.296241" lon="-3.330672">
        <ele>1094.26</ele>
        <time>2021-03-27T15:02:49Z</time>
      </trkpt>
      <trkpt lat="42.296036" lon="-3.330766">
        <ele>1092.76</ele>
        <time>2021-03-27T15:02:50Z</time>
      </trkpt>
      <trkpt lat="42.295856" lon="-3.33081">
        <ele>1096.02</ele>
        <time>2021-03-27T15:02:52Z</time>
      </trkpt>
      <trkpt lat="42.295245" lon="-3.330871">
        <ele>1097.82</ele>
        <time>2021-03-27T15:02:54Z</time>
      </trkpt>
      <trkpt lat="42.295081" lon="-3.330871">
        <ele>1100.02</ele>
        <time>2021-03-27T15:02:55Z</time>
      </trkpt>
      <trkpt lat="42.294617" lon="-3.330818">
        <ele>1103.13</ele>
        <time>2021-03-27T15:02:57Z</time>
      </trkpt>
      <trkpt lat="42.294542" lon="-3.330839">
        <ele>1103.34</ele>
        <time>2021-03-27T15:02:59Z</time>
      </trkpt>
      <trkpt lat="42.294404" lon="-3.330909">
        <ele>1103.89</ele>
        <time>2021-03-27T15:03:00Z</time>
      </trkpt>
      <trkpt lat="42.294172" lon="-3.331171">
        <ele>1103.97</ele>
        <time>2021-03-27T15:03:02Z</time>
      </trkpt>
      <trkpt lat="42.294069" lon="-3.331263">
        <ele>1102.72</ele>
        <time>2021-03-27T15:03:04Z</time>
      </trkpt>
      <trkpt lat="42.293959" lon="-3.331331">
        <ele>1103.11</ele>
        <time>2021-03-27T15:03:05Z</time>
      </trkpt>
      <trkpt lat="42.293145" lon="-3.331723">
        <ele>1103.19</ele>
        <time>2021-03-27T15:03:07Z</time>
      </trkpt>
      <trkpt lat="42.293" lon="-3.331745">
        <ele>1102.79</ele>
        <time>2021-03-27T15:03:09Z</time>
      </trkpt>
      <trkpt lat="42.292843" lon="-3.3317">
        <ele>1104.13</ele>
        <time>2021-03-27T15:03:11Z</time>
      </trkpt>
      <trkpt lat="42.292731" lon="-3.331634">
        <ele>1105.55</ele>
        <time>2021-03-27T15:03:12Z</time>
      </trkpt>
      <trkpt lat="42.292562" lon="-3.331494">
        <ele>1107.95</ele>
        <time>2021-03-27T15:03:14Z</time>
      </trkpt>
      <trkpt lat="42.292443" lon="-3.331431">
        <ele>1109.21</ele>
        <time>2021-03-27T15:03:16Z</time>
      </trkpt>
      <trkpt lat="42.292319" lon="-3.331436">
        <ele>1109.42</ele>
        <time>2021-03-27T15:03:17Z</time>
      </trkpt>
      <trkpt lat="42.292201" lon="-3.331527">
        <ele>1109.54</ele>
        <time>2021-03-27T15:03:19Z</time>
      </trkpt>
      <trkpt lat="42.29212" lon="-3.331669">
        <ele>1110.91</ele>
        <time>2021-03-27T15:03:21Z</time>
      </trkpt>
      <trkpt lat="42.292101" lon="-3.331867">
        <ele>1109.63</ele>
        <time>2021-03-27T15:03:22Z</time>
      </trkpt>
      <trkpt lat="42.292141" lon="-3.332266">
        <ele>1105.21</ele>
        <time>2021-03-27T15:03:24Z</time>
      </trkpt>
      <trkpt lat="42.292131" lon="-3.33244">
        <ele>1103.87</ele>
        <time>2021-03-27T15:03:26Z</time>
      </trkpt>
      <trkpt lat="42.292045" lon="-3.332674">
        <ele>1103.17</ele>
        <time>2021-03-27T15:03:27Z</time>
      </trkpt>
      <trkpt lat="42.291893" lon="-3.33287">
        <ele>1104.02</ele>
        <time>2021-03-27T15:03:29Z</time>
      </trkpt>
      <trkpt lat="42.29094" lon="-3.333865">
        <ele>1107.84</ele>
        <time>2021-03-27T15:03:31Z</time>
      </trkpt>
      <trkpt lat="42.290769" lon="-3.333948">
        <ele>1108.78</ele>
        <time>2021-03-27T15:03:32Z</time>
      </trkpt>
      <trkpt lat="42.290579" lon="-3.333959">
        <ele>1109.38</ele>
        <time>2021-03-27T15:03:34Z</time>
      </trkpt>
      <trkpt lat="42.290359" lon="-3.33394">
        <ele>1108.61</ele>
        <time>2021-03-27T15:03:36Z</time>
      </trkpt>
      <trkpt lat="42.290221" lon="-3.333962">
        <ele>1107.58</ele>
        <time>2021-03-27T15:03:38Z</time>
      </trkpt>
      <trkpt lat="42.29006" lon="-3.33409">
        <ele>1105.73</ele>
        <time>2021-03-27T15:03:39Z</time>
      </trkpt>
      <trkpt lat="42.289998" lon="-3.334181">
        <ele>1104.92</ele>
        <time>2021-03-27T15:03:41Z</time>
      </trkpt>
      <trkpt lat="42.28953" lon="-3.335483">
        <ele>1107.55</ele>
        <time>2021-03-27T15:03:43Z</time>
      </trkpt>
      <trkpt lat="42.289408" lon="-3.335698">
        <ele>1106.88</ele>
        <time>2021-03-27T15:03:44Z</time>
      </trkpt>
      <trkpt lat="42.289338" lon="-3.335778">
        <ele>1105.26</ele>
        <time>2021-03-27T15:03:46Z</time>
      </trkpt>
      <trkpt lat="42.289233" lon="-3.33586">
        <ele>1102.9</ele>
        <time>2021-03-27T15:03:48Z</time>
      </trkpt>
      <trkpt lat="42.28913" lon="-3.335909">
        <ele>1101.23</ele>
        <time>2021-03-27T15:03:49Z</time>
      </trkpt>
      <trkpt lat="42.288947" lon="-3.335937">
        <ele>1099.97</ele>
        <time>2021-03-27T15:03:51Z</time>
      </trkpt>
      <trkpt lat="42.28884" lon="-3.335923">
        <ele>1099.89</ele>
        <time>2021-03-27T15:03:53Z</time>
      </trkpt>
      <trkpt lat="42.287569" lon="-3.335548">
        <ele>1101.36</ele>
        <time>2021-03-27T15:03:54Z</time>
      </trkpt>
      <trkpt lat="42.285872" lon="-3.33487">
        <ele>1102.4</ele>
        <time>2021-03-27T15:03:56Z</time>
      </trkpt>
      <trkpt lat="42.285136" lon="-3.334531">
        <ele>1107.57</ele>
        <time>2021-03-27T15:03:58Z</time>
      </trkpt>
      <trkpt lat="42.284959" lon="-3.334479">
        <ele>1107.09</ele>
        <time>2021-03-27T15:04:00Z</time>
      </trkpt>
      <trkpt lat="42.284671" lon="-3.33447">
        <ele>1099.6</ele>
        <time>2021-03-27T15:04:01Z</time>
      </trkpt>
      <trkpt lat="42.284556" lon="-3.334441">
        <ele>1099.98</ele>
        <time>2021-03-27T15:04:03Z</time>
      </trkpt>
      <trkpt lat="42.284326" lon="-3.33431">
        <ele>1106.17</ele>
        <time>2021-03-27T15:04:05Z</time>
      </trkpt>
      <trkpt lat="42.284184" lon="-3.334285">
        <ele>1108.18</ele>
        <time>2021-03-27T15:04:06Z</time>
      </trkpt>
      <trkpt lat="42.284114" lon="-3.334296">
        <ele>1108.62</ele>
        <time>2021-03-27T15:04:08Z</time>
      </trkpt>
      <trkpt lat="42.283451" lon="-3.33454">
        <ele>1102.52</ele>
        <time>2021-03-27T15:04:10Z</time>
      </trkpt>
      <trkpt lat="42.283002" lon="-3.334725">
        <ele>1103.33</ele>
        <time>2021-03-27T15:04:11Z</time>
      </trkpt>
      <trkpt lat="42.282136" lon="-3.334947">
        <ele>1108.07</ele>
        <time>2021-03-27T15:04:13Z</time>
      </trkpt>
      <trkpt lat="42.282009" lon="-3.334999">
        <ele>1108.31</ele>
        <time>2021-03-27T15:04:15Z</time>
      </trkpt>
      <trkpt lat="42.281817" lon="-3.335108">
        <ele>1108.97</ele>
        <time>2021-03-27T15:04:16Z</time>
      </trkpt>
      <trkpt lat="42.28164" lon="-3.335233">
        <ele>1109.18</ele>
        <time>2021-03-27T15:04:18Z</time>
      </trkpt>
      <trkpt lat="42.281098" lon="-3.335729">
        <ele>1099.18</ele>
        <time>2021-03-27T15:04:20Z</time>
      </trkpt>
      <trkpt lat="42.280974" lon="-3.335797">
        <ele>1098.58</ele>
        <time>2021-03-27T15:04:22Z</time>
      </trkpt>
      <trkpt lat="42.280741" lon="-3.335848">
        <ele>1098.08</ele>
        <time>2021-03-27T15:04:23Z</time>
      </trkpt>
      <trkpt lat="42.280526" lon="-3.335845">
        <ele>1098.51</ele>
        <time>2021-03-27T15:04:25Z</time>
      </trkpt>
      <trkpt lat="42.280307" lon="-3.335777">
        <ele>1097.36</ele>
        <time>2021-03-27T15:04:27Z</time>
      </trkpt>
      <trkpt lat="42.279795" lon="-3.335417">
        <ele>1105.1</ele>
        <time>2021-03-27T15:04:28Z</time>
      </trkpt>
      <trkpt lat="42.27972" lon="-3.335387">
        <ele>1106.45</ele>
        <time>2021-03-27T15:04:30Z</time>
      </trkpt>
      <trkpt lat="42.279551" lon="-3.335394">
        <ele>1105.16</ele>
        <time>2021-03-27T15:04:32Z</time>
      </trkpt>
      <trkpt lat="42.279253" lon="-3.335552">
        <ele>1102.44</ele>
        <time>2021-03-27T15:04:33Z</time>
      </trkpt>
      <trkpt lat="42.278982" lon="-3.335666">
        <ele>1104.46</ele>
        <time>2021-03-27T15:04:35Z</time>
      </trkpt>
      <trkpt lat="42.278628" lon="-3.335782">
        <ele>1107.51</ele>
        <time>2021-03-27T15:04:37Z</time>
      </trkpt>
      <trkpt lat="42.278302" lon="-3.335868">
        <ele>1106.61</ele>
        <time>2021-03-27T15:04:38Z</time>
      </trkpt>
      <trkpt lat="42.278072" lon="-3.335894">
        <ele>1106.13</ele>
        <time>2021-03-27T15:04:40Z</time>
      </trkpt>
      <trkpt lat="42.277675" lon="-3.335875">
        <ele>1106.4</ele>
        <time>2021-03-27T15:04:42Z</time>
      </trkpt>
      <trkpt lat="42.277247" lon="-3.335825">
        <ele>1112.0</ele>
        <time>2021-03-27T15:04:44Z</time>
      </trkpt>
      <trkpt lat="42.276937" lon="-3.335746">
        <ele>1115.05</ele>
        <time>2021-03-27T15:04:45Z</time>
      </trkpt>
      <trkpt lat="42.276427" lon="-3.335545">
        <ele>1117.78</ele>
        <time>2021-03-27T15:04:47Z</time>
      </trkpt>
      <trkpt lat="42.27624" lon="-3.335497">
        <ele>1120.39</ele>
        <time>2021-03-27T15:04:49Z</time>
      </trkpt>
      <trkpt lat="42.275631" lon="-3.335497">
        <ele>1115.66</ele>
        <time>2021-03-27T15:04:50Z</time>
      </trkpt>
      <trkpt lat="42.274861" lon="-3.335396">
        <ele>1128.14</ele>
        <time>2021-03-27T15:04:52Z</time>
      </trkpt>
      <trkpt lat="42.274774" lon="-3.33541">
        <ele>1126.75</ele>
        <time>2021-03-27T15:04:54Z</time>
      </trkpt>
      <trkpt lat="42.274681" lon="-3.33544">
        <ele>1125.07</ele>
        <time>2021-03-27T15:04:55Z</time>
      </trkpt>
      <trkpt lat="42.27461" lon="-3.335488">
        <ele>1123.4</ele>
        <time>2021-03-27T15:04:57Z</time>
      </trkpt>
      <trkpt lat="42.273901" lon="-3.336254">
        <ele>1112.31</ele>
        <time>2021-03-27T15:04:59Z</time>
      </trkpt>
      <trkpt lat="42.273824" lon="-3.336351">
        <ele>1113.11</ele>
        <time>2021-03-27T15:05:00Z</time>
      </trkpt>
      <trkpt lat="42.273773" lon="-3.336468">
        <ele>1114.31</ele>
        <time>2021-03-27T15:05:02Z</time>
      </trkpt>
      <trkpt lat="42.273759" lon="-3.336612">
        <ele>1114.35</ele>
        <time>2021-03-27T15:05:04Z</time>
      </trkpt>
      <trkpt lat="42.273769" lon="-3.336812">
        <ele>1114.48</ele>
        <time>2021-03-27T15:05:06Z</time>
      </trkpt>
      <trkpt lat="42.273832" lon="-3.337156">
        <ele>1113.39</ele>
        <time>2021-03-27T15:05:07Z</time>
      </trkpt>
      <trkpt lat="42.273853" lon="-3.337393">
        <ele>1113.83</ele>
        <time>2021-03-27T15:05:09Z</time>
      </trkpt>
      <trkpt lat="42.273841" lon="-3.338677">
        <ele>1115.18</ele>
        <time>2021-03-27T15:05:11Z</time>
      </trkpt>
      <trkpt lat="42.273785" lon="-3.339">
        <ele>1116.34</ele>
        <time>2021-03-27T15:05:12Z</time>
      </trkpt>
      <trkpt lat="42.273703" lon="-3.339256">
        <ele>1116.92</ele>
        <time>2021-03-27T15:05:14Z</time>
      </trkpt>
      <trkpt lat="42.273573" lon="-3.339565">
        <ele>1114.87</ele>
        <time>2021-03-27T15:05:16Z</time>
      </trkpt>
      <trkpt lat="42.273388" lon="-3.339828">
        <ele>1114.03</ele>
        <time>2021-03-27T15:05:17Z</time>
      </trkpt>
      <trkpt lat="42.273299" lon="-3.339914">
        <ele>1113.92</ele>
        <time>2021-03-27T15:05:19Z</time>
      </trkpt>
      <trkpt lat="42.27311" lon="-3.34001">
        <ele>1114.16</ele>
        <time>2021-03-27T15:05:21Z</time>
      </trkpt>
      <trkpt lat="42.272962" lon="-3.34004">
        <ele>1111.92</ele>
        <time>2021-03-27T15:05:22Z</time>
      </trkpt>
      <trkpt lat="42.272763" lon="-3.340049">
        <ele>1107.4</ele>
        <time>2021-03-27T15:05:24Z</time>
      </trkpt>
      <trkpt lat="42.272378" lon="-3.33996">
        <ele>1106.23</ele>
        <time>2021-03-27T15:05:26Z</time>
      </trkpt>
      <trkpt lat="42.271843" lon="-3.339705">
        <ele>1112.44</ele>
        <time>2021-03-27T15:05:27Z</time>
      </trkpt>
      <trkpt lat="42.270844" lon="-3.339643">
        <ele>1109.34</ele>
        <time>2021-03-27T15:05:29Z</time>
      </trkpt>
      <trkpt lat="42.270571" lon="-3.339538">
        <ele>1111.36</ele>
        <time>2021-03-27T15:05:31Z</time>
      </trkpt>
      <trkpt lat="42.269415" lon="-3.338779">
        <ele>1122.51</ele>
        <time>2021-03-27T15:05:33Z</time>
      </trkpt>
      <trkpt lat="42.269098" lon="-3.338531">
        <ele>1121.27</ele>
        <time>2021-03-27T15:05:34Z</time>
      </trkpt>
      <trkpt lat="42.268888" lon="-3.338323">
        <ele>1124.17</ele>
        <time>2021-03-27T15:05:36Z</time>
      </trkpt>
      <trkpt lat="42.268679" lon="-3.33817">
        <ele>1124.82</ele>
        <time>2021-03-27T15:05:38Z</time>
      </trkpt>
      <trkpt lat="42.268519" lon="-3.338111">
        <ele>1125.54</ele>
        <time>2021-03-27T15:05:39Z</time>
      </trkpt>
      <trkpt lat="42.268184" lon="-3.338118">
        <ele>1124.79</ele>
        <time>2021-03-27T15:05:41Z</time>
      </trkpt>
      <trkpt lat="42.267942" lon="-3.338087">
        <ele>1125.19</ele>
        <time>2021-03-27T15:05:43Z</time>
      </trkpt>
      <trkpt lat="42.267838" lon="-3.338047">
        <ele>1126.22</ele>
        <time>2021-03-27T15:05:44Z</time>
      </trkpt>
      <trkpt lat="42.267657" lon="-3.337936">
        <ele>1129.82</ele>
        <time>2021-03-27T15:05:46Z</time>
      </trkpt>
      <trkpt lat="42.267518" lon="-3.337899">
        <ele>1131.94</ele>
        <time>2021-03-27T15:05:48Z</time>
      </trkpt>
      <trkpt lat="42.2674" lon="-3.337908">
        <ele>1132.51</ele>
        <time>2021-03-27T15:05:49Z</time>
      </trkpt>
      <trkpt lat="42.26683" lon="-3.338107">
        <ele>1133.35</ele>
        <time>2021-03-27T15:05:51Z</time>
      </trkpt>
      <trkpt lat="42.265556" lon="-3.338137">
        <ele>1145.05</ele>
        <time>2021-03-27T15:05:53Z</time>
      </trkpt>
      <trkpt lat="42.263586" lon="-3.337875">
        <ele>1148.38</ele>
        <time>2021-03-27T15:05:55Z</time>
      </trkpt>
      <trkpt lat="42.263418" lon="-3.337797">
        <ele>1149.05</ele>
        <time>2021-03-27T15:05:56Z</time>
      </trkpt>
      <trkpt lat="42.263186" lon="-3.337621">
        <ele>1151.76</ele>
        <time>2021-03-27T15:05:58Z</time>
      </trkpt>
      <trkpt lat="42.262953" lon="-3.337558">
        <ele>1153.58</ele>
        <time>2021-03-27T15:06:00Z</time>
      </trkpt>
      <trkpt lat="42.262584" lon="-3.337501">
        <ele>1152.61</ele>
        <time>2021-03-27T15:06:01Z</time>
      </trkpt>
      <trkpt lat="42.261693" lon="-3.337496">
        <ele>1146.33</ele>
        <time>2021-03-27T15:06:03Z</time>
      </trkpt>
      <trkpt lat="42.261528" lon="-3.337435">
        <ele>1149.38</ele>
        <time>2021-03-27T15:06:05Z</time>
      </trkpt>
      <trkpt lat="42.26143" lon="-3.337357">
        <ele>1150.44</ele>
        <time>2021-03-27T15:06:06Z</time>
      </trkpt>
      <trkpt lat="42.261307" lon="-3.337177">
        <ele>1151.06</ele>
        <time>2021-03-27T15:06:08Z</time>
      </trkpt>
      <trkpt lat="42.260879" lon="-3.33634">
        <ele>1151.17</ele>
        <time>2021-03-27T15:06:10Z</time>
      </trkpt>
      <trkpt lat="42.260799" lon="-3.336098">
        <ele>1150.63</ele>
        <time>2021-03-27T15:06:11Z</time>
      </trkpt>
      <trkpt lat="42.260797" lon="-3.33578">
        <ele>1150.8</ele>
        <time>2021-03-27T15:06:13Z</time>
      </trkpt>
      <trkpt lat="42.260842" lon="-3.335253">
        <ele>1152.3</ele>
        <time>2021-03-27T15:06:15Z</time>
      </trkpt>
      <trkpt lat="42.26084" lon="-3.334691">
        <ele>1154.47</ele>
        <time>2021-03-27T15:06:17Z</time>
      </trkpt>
      <trkpt lat="42.260799" lon="-3.33459">
        <ele>1154.77</ele>
        <time>2021-03-27T15:06:18Z</time>
      </trkpt>
      <trkpt lat="42.260741" lon="-3.33454">
        <ele>1154.86</ele>
        <time>2021-03-27T15:06:20Z</time>
      </trkpt>
      <trkpt lat="42.260673" lon="-3.334538">
        <ele>1154.55</ele>
        <time>2021-03-27T15:06:22Z</time>
      </trkpt>
      <trkpt lat="42.260607" lon="-3.334597">
        <ele>1153.64</ele>
        <time>2021-03-27T15:06:23Z</time>
      </trkpt>
      <trkpt lat="42.260557" lon="-3.334707">
        <ele>1152.17</ele>
        <time>2021-03-27T15:06:25Z</time>
      </trkpt>
      <trkpt lat="42.2605" lon="-3.334919">
        <ele>1152.57</ele>
        <time>2021-03-27T15:06:27Z</time>
      </trkpt>
      <trkpt lat="42.260406" lon="-3.335181">
        <ele>1154.03</ele>
        <time>2021-03-27T15:06:28Z</time>
      </trkpt>
      <trkpt lat="42.260087" lon="-3.335915">
        <ele>1159.99</ele>
        <time>2021-03-27T15:06:30Z</time>
      </trkpt>
      <trkpt lat="42.260019" lon="-3.336165">
        <ele>1158.6</ele>
        <time>2021-03-27T15:06:32Z</time>
      </trkpt>
      <trkpt lat="42.260003" lon="-3.336325">
        <ele>1156.85</ele>
        <time>2021-03-27T15:06:33Z</time>
      </trkpt>
      <trkpt lat="42.26001" lon="-3.336646">
        <ele>1154.03</ele>
        <time>2021-03-27T15:06:35Z</time>
      </trkpt>
      <trkpt lat="42.26" lon="-3.336738">
        <ele>1153.48</ele>
        <time>2021-03-27T15:06:37Z</time>
      </trkpt>
      <trkpt lat="42.259983" lon="-3.336803">
        <ele>1153.14</ele>
        <time>2021-03-27T15:06:39Z</time>
      </trkpt>
      <trkpt lat="42.259937" lon="-3.336876">
        <ele>1152.83</ele>
        <time>2021-03-27T15:06:40Z</time>
      </trkpt>
      <trkpt lat="42.259835" lon="-3.336954">
        <ele>1152.48</ele>
        <time>2021-03-27T15:06:42Z</time>
      </trkpt>
      <trkpt lat="42.259759" lon="-3.336979">
        <ele>1152.4</ele>
        <time>2021-03-27T15:06:44Z</time>
      </trkpt>
      <trkpt lat="42.259654" lon="-3.336977">
        <ele>1152.53</ele>
        <time>2021-03-27T15:06:45Z</time>
      </trkpt>
      <trkpt lat="42.259232" lon="-3.336904">
        <ele>1152.45</ele>
        <time>2021-03-27T15:06:47Z</time>
      </trkpt>
      <trkpt lat="42.258734" lon="-3.336587">
        <ele>1153.47</ele>
        <time>2021-03-27T15:06:49Z</time>
      </trkpt>
      <trkpt lat="42.25835" lon="-3.336268">
        <ele>1154.91</ele>
        <time>2021-03-27T15:06:50Z</time>
      </trkpt>
      <trkpt lat="42.258134" lon="-3.336183">
        <ele>1151.67</ele>
        <time>2021-03-27T15:06:52Z</time>
      </trkpt>
      <trkpt lat="42.257756" lon="-3.336136">
        <ele>1146.84</ele>
        <time>2021-03-27T15:06:54Z</time>
      </trkpt>
      <trkpt lat="42.25758" lon="-3.336065">
        <ele>1146.88</ele>
        <time>2021-03-27T15:06:55Z</time>
      </trkpt>
      <trkpt lat="42.257448" lon="-3.335949">
        <ele>1147.42</ele>
        <time>2021-03-27T15:06:57Z</time>
      </trkpt>
      <trkpt lat="42.25732" lon="-3.335751">
        <ele>1148.04</ele>
        <time>2021-03-27T15:06:59Z</time>
      </trkpt>
      <trkpt lat="42.257265" lon="-3.335602">
        <ele>1149.09</ele>
        <time>2021-03-27T15:07:00Z</time>
      </trkpt>
      <trkpt lat="42.257218" lon="-3.335344">
        <ele>1151.28</ele>
        <time>2021-03-27T15:07:02Z</time>
      </trkpt>
      <trkpt lat="42.257183" lon="-3.334759">
        <ele>1152.12</ele>
        <time>2021-03-27T15:07:04Z</time>
      </trkpt>
      <trkpt lat="42.257181" lon="-3.3342">
        <ele>1152.22</ele>
        <time>2021-03-27T15:07:06Z</time>
      </trkpt>
      <trkpt lat="42.257346" lon="-3.333489">
        <ele>1153.7</ele>
        <time>2021-03-27T15:07:07Z</time>
      </trkpt>
      <trkpt lat="42.257423" lon="-3.333088">
        <ele>1153.79</ele>
        <time>2021-03-27T15:07:09Z</time>
      </trkpt>
      <trkpt lat="42.257429" lon="-3.33239">
        <ele>1154.92</ele>
        <time>2021-03-27T15:07:11Z</time>
      </trkpt>
      <trkpt lat="42.25748" lon="-3.331933">
        <ele>1158.71</ele>
        <time>2021-03-27T15:07:12Z</time>
      </trkpt>
      <trkpt lat="42.257464" lon="-3.331714">
        <ele>1159.69</ele>
        <time>2021-03-27T15:07:14Z</time>
      </trkpt>
      <trkpt lat="42.257391" lon="-3.331379">
        <ele>1157.51</ele>
        <time>2021-03-27T15:07:16Z</time>
      </trkpt>
      <trkpt lat="42.257302" lon="-3.33111">
        <ele>1154.46</ele>
        <time>2021-03-27T15:07:17Z</time>
      </trkpt>
      <trkpt lat="42.256942" lon="-3.330193">
        <ele>1154.62</ele>
        <time>2021-03-27T15:07:19Z</time>
      </trkpt>
      <trkpt lat="42.256792" lon="-3.32929">
        <ele>1158.64</ele>
        <time>2021-03-27T15:07:21Z</time>
      </trkpt>
      <trkpt lat="42.256737" lon="-3.329053">
        <ele>1158.58</ele>
        <time>2021-03-27T15:07:22Z</time>
      </trkpt>
      <trkpt lat="42.256714" lon="-3.328995">
        <ele>1158.42</ele>
        <time>2021-03-27T15:07:24Z</time>
      </trkpt>
      <trkpt lat="42.256648" lon="-3.328936">
        <ele>1157.43</ele>
        <time>2021-03-27T15:07:26Z</time>
      </trkpt>
      <trkpt lat="42.256573" lon="-3.328918">
        <ele>1158.06</ele>
        <time>2021-03-27T15:07:28Z</time>
      </trkpt>
      <trkpt lat="42.256528" lon="-3.328934">
        <ele>1158.17</ele>
        <time>2021-03-27T15:07:29Z</time>
      </trkpt>
      <trkpt lat="42.256462" lon="-3.329021">
        <ele>1158.24</ele>
        <time>2021-03-27T15:07:31Z</time>
      </trkpt>
      <trkpt lat="42.256456" lon="-3.329152">
        <ele>1157.84</ele>
        <time>2021-03-27T15:07:33Z</time>
      </trkpt>
      <trkpt lat="42.256593" lon="-3.329973">
        <ele>1157.81</ele>
        <time>2021-03-27T15:07:34Z</time>
      </trkpt>
      <trkpt lat="42.256671" lon="-3.330341">
        <ele>1157.09</ele>
        <time>2021-03-27T15:07:36Z</time>
      </trkpt>
      <trkpt lat="42.256832" lon="-3.330967">
        <ele>1157.65</ele>
        <time>2021-03-27T15:07:38Z</time>
      </trkpt>
      <trkpt lat="42.256868" lon="-3.331219">
        <ele>1156.15</ele>
        <time>2021-03-27T15:07:39Z</time>
      </trkpt>
      <trkpt lat="42.256882" lon="-3.33152">
        <ele>1157.02</ele>
        <time>2021-03-27T15:07:41Z</time>
      </trkpt>
      <trkpt lat="42.256836" lon="-3.332916">
        <ele>1153.77</ele>
        <time>2021-03-27T15:07:43Z</time>
      </trkpt>
      <trkpt lat="42.256796" lon="-3.333055">
        <ele>1153.14</ele>
        <time>2021-03-27T15:07:44Z</time>
      </trkpt>
      <trkpt lat="42.256664" lon="-3.333289">
        <ele>1153.35</ele>
        <time>2021-03-27T15:07:46Z</time>
      </trkpt>
      <trkpt lat="42.256145" lon="-3.333863">
        <ele>1153.83</ele>
        <time>2021-03-27T15:07:48Z</time>
      </trkpt>
      <trkpt lat="42.255973" lon="-3.33403">
        <ele>1154.45</ele>
        <time>2021-03-27T15:07:50Z</time>
      </trkpt>
      <trkpt lat="42.255673" lon="-3.334265">
        <ele>1153.38</ele>
        <time>2021-03-27T15:07:51Z</time>
      </trkpt>
      <trkpt lat="42.255471" lon="-3.334364">
        <ele>1151.35</ele>
        <time>2021-03-27T15:07:53Z</time>
      </trkpt>
      <trkpt lat="42.255341" lon="-3.334377">
        <ele>1151.03</ele>
        <time>2021-03-27T15:07:55Z</time>
      </trkpt>
      <trkpt lat="42.255179" lon="-3.334347">
        <ele>1151.4</ele>
        <time>2021-03-27T15:07:56Z</time>
      </trkpt>
      <trkpt lat="42.255024" lon="-3.334252">
        <ele>1152.76</ele>
        <time>2021-03-27T15:07:58Z</time>
      </trkpt>
      <trkpt lat="42.254906" lon="-3.334118">
        <ele>1153.79</ele>
        <time>2021-03-27T15:08:00Z</time>
      </trkpt>
      <trkpt lat="42.254847" lon="-3.33402">
        <ele>1154.19</ele>
        <time>2021-03-27T15:08:01Z</time>
      </trkpt>
      <trkpt lat="42.254747" lon="-3.333733">
        <ele>1154.36</ele>
        <time>2021-03-27T15:08:03Z</time>
      </trkpt>
      <trkpt lat="42.254678" lon="-3.33342">
        <ele>1153.84</ele>
        <time>2021-03-27T15:08:05Z</time>
      </trkpt>
      <trkpt lat="42.254646" lon="-3.333172">
        <ele>1153.36</ele>
        <time>2021-03-27T15:08:06Z</time>
      </trkpt>
      <trkpt lat="42.254588" lon="-3.332355">
        <ele>1154.69</ele>
        <time>2021-03-27T15:08:08Z</time>
      </trkpt>
      <trkpt lat="42.254549" lon="-3.332154">
        <ele>1154.74</ele>
        <time>2021-03-27T15:08:10Z</time>
      </trkpt>
      <trkpt lat="42.254389" lon="-3.331595">
        <ele>1153.87</ele>
        <time>2021-03-27T15:08:12Z</time>
      </trkpt>
      <trkpt lat="42.254341" lon="-3.331509">
        <ele>1154.65</ele>
        <time>2021-03-27T15:08:13Z</time>
      </trkpt>
      <trkpt lat="42.254275" lon="-3.331466">
        <ele>1154.9</ele>
        <time>2021-03-27T15:08:15Z</time>
      </trkpt>
      <trkpt lat="42.254237" lon="-3.331471">
        <ele>1154.81</ele>
        <time>2021-03-27T15:08:17Z</time>
      </trkpt>
      <trkpt lat="42.254166" lon="-3.331541">
        <ele>1154.46</ele>
        <time>2021-03-27T15:08:18Z</time>
      </trkpt>
      <trkpt lat="42.254099" lon="-3.331675">
        <ele>1156.6</ele>
        <time>2021-03-27T15:08:20Z</time>
      </trkpt>
      <trkpt lat="42.25406" lon="-3.331897">
        <ele>1156.23</ele>
        <time>2021-03-27T15:08:22Z</time>
      </trkpt>
      <trkpt lat="42.254014" lon="-3.332388">
        <ele>1153.64</ele>
        <time>2021-03-27T15:08:23Z</time>
      </trkpt>
      <trkpt lat="42.253935" lon="-3.332623">
        <ele>1153.35</ele>
        <time>2021-03-27T15:08:25Z</time>
      </trkpt>
      <trkpt lat="42.253659" lon="-3.33311">
        <ele>1151.8</ele>
        <time>2021-03-27T15:08:27Z</time>
      </trkpt>
      <trkpt lat="42.253563" lon="-3.333246">
        <ele>1150.27</ele>
        <time>2021-03-27T15:08:28Z</time>
      </trkpt>
      <trkpt lat="42.2534" lon="-3.33342">
        <ele>1152.04</ele>
        <time>2021-03-27T15:08:30Z</time>
      </trkpt>
      <trkpt lat="42.253326" lon="-3.33346">
        <ele>1152.94</ele>
        <time>2021-03-27T15:08:32Z</time>
      </trkpt>
      <trkpt lat="42.253172" lon="-3.333482">
        <ele>1153.61</ele>
        <time>2021-03-27T15:08:33Z</time>
      </trkpt>
      <trkpt lat="42.253058" lon="-3.33345">
        <ele>1153.99</ele>
        <time>2021-03-27T15:08:35Z</time>
      </trkpt>
      <trkpt lat="42.252031" lon="-3.333035">
        <ele>1154.03</ele>
        <time>2021-03-27T15:08:37Z</time>
      </trkpt>
      <trkpt lat="42.251793" lon="-3.332973">
        <ele>1155.85</ele>
        <time>2021-03-27T15:08:39Z</time>
      </trkpt>
      <trkpt lat="42.251094" lon="-3.332849">
        <ele>1155.98</ele>
        <time>2021-03-27T15:08:40Z</time>
      </trkpt>
      <trkpt lat="42.250827" lon="-3.332755">
        <ele>1156.31</ele>
        <time>2021-03-27T15:08:42Z</time>
      </trkpt>
      <trkpt lat="42.250613" lon="-3.332635">
        <ele>1156.43</ele>
        <time>2021-03-27T15:08:44Z</time>
      </trkpt>
      <trkpt lat="42.250038" lon="-3.332103">
        <ele>1159.31</ele>
        <time>2021-03-27T15:08:45Z</time>
      </trkpt>
      <trkpt lat="42.249644" lon="-3.331647">
        <ele>1161.24</ele>
        <time>2021-03-27T15:08:47Z</time>
      </trkpt>
      <trkpt lat="42.249197" lon="-3.331003">
        <ele>1162.26</ele>
        <time>2021-03-27T15:08:49Z</time>
      </trkpt>
      <trkpt lat="42.248831" lon="-3.330518">
        <ele>1162.71</ele>
        <time>2021-03-27T15:08:50Z</time>
      </trkpt>
      <trkpt lat="42.248417" lon="-3.330082">
        <ele>1163.73</ele>
        <time>2021-03-27T15:08:52Z</time>
      </trkpt>
      <trkpt lat="42.247536" lon="-3.329233">
        <ele>1173.05</ele>
        <time>2021-03-27T15:08:54Z</time>
      </trkpt>
      <trkpt lat="42.247437" lon="-3.329105">
        <ele>1173.98</ele>
        <time>2021-03-27T15:08:55Z</time>
      </trkpt>
      <trkpt lat="42.247352" lon="-3.328942">
        <ele>1174.82</ele>
        <time>2021-03-27T15:08:57Z</time>
      </trkpt>
      <trkpt lat="42.247297" lon="-3.32876">
        <ele>1175.74</ele>
        <time>2021-03-27T15:08:59Z</time>
      </trkpt>
      <trkpt lat="42.247266" lon="-3.328566">
        <ele>1176.66</ele>
        <time>2021-03-27T15:09:01Z</time>
      </trkpt>
      <trkpt lat="42.247205" lon="-3.327907">
        <ele>1177.63</ele>
        <time>2021-03-27T15:09:02Z</time>
      </trkpt>
      <trkpt lat="42.247203" lon="-3.327478">
        <ele>1175.5</ele>
        <time>2021-03-27T15:09:04Z</time>
      </trkpt>
      <trkpt lat="42.247287" lon="-3.327137">
        <ele>1175.34</ele>
        <time>2021-03-27T15:09:06Z</time>
      </trkpt>
      <trkpt lat="42.247382" lon="-3.326944">
        <ele>1177.18</ele>
        <time>2021-03-27T15:09:07Z</time>
      </trkpt>
      <trkpt lat="42.247711" lon="-3.326375">
        <ele>1185.23</ele>
        <time>2021-03-27T15:09:09Z</time>
      </trkpt>
      <trkpt lat="42.247752" lon="-3.326271">
        <ele>1185.58</ele>
        <time>2021-03-27T15:09:11Z</time>
      </trkpt>
      <trkpt lat="42.247776" lon="-3.32608">
        <ele>1184.97</ele>
        <time>2021-03-27T15:09:12Z</time>
      </trkpt>
      <trkpt lat="42.247753" lon="-3.325895">
        <ele>1184.63</ele>
        <time>2021-03-27T15:09:14Z</time>
      </trkpt>
      <trkpt lat="42.247655" lon="-3.325735">
        <ele>1184.29</ele>
        <time>2021-03-27T15:09:16Z</time>
      </trkpt>
      <trkpt lat="42.247393" lon="-3.325544">
        <ele>1184.21</ele>
        <time>2021-03-27T15:09:17Z</time>
      </trkpt>
      <trkpt lat="42.246818" lon="-3.325201">
        <ele>1189.58</ele>
        <time>2021-03-27T15:09:19Z</time>
      </trkpt>
      <trkpt lat="42.246646" lon="-3.325138">
        <ele>1190.66</ele>
        <time>2021-03-27T15:09:21Z</time>
      </trkpt>
      <trkpt lat="42.246564" lon="-3.325131">
        <ele>1191.34</ele>
        <time>2021-03-27T15:09:23Z</time>
      </trkpt>
      <trkpt lat="42.246455" lon="-3.325141">
        <ele>1191.99</ele>
        <time>2021-03-27T15:09:24Z</time>
      </trkpt>
      <trkpt lat="42.246365" lon="-3.325177">
        <ele>1192.13</ele>
        <time>2021-03-27T15:09:26Z</time>
      </trkpt>
      <trkpt lat="42.246093" lon="-3.325365">
        <ele>1192.13</ele>
        <time>2021-03-27T15:09:28Z</time>
      </trkpt>
      <trkpt lat="42.245835" lon="-3.325574">
        <ele>1191.49</ele>
        <time>2021-03-27T15:09:29Z</time>
      </trkpt>
      <trkpt lat="42.245632" lon="-3.325681">
        <ele>1190.6</ele>
        <time>2021-03-27T15:09:31Z</time>
      </trkpt>
      <trkpt lat="42.24548" lon="-3.3257">
        <ele>1190.75</ele>
        <time>2021-03-27T15:09:33Z</time>
      </trkpt>
      <trkpt lat="42.245379" lon="-3.325683">
        <ele>1190.91</ele>
        <time>2021-03-27T15:09:34Z</time>
      </trkpt>
      <trkpt lat="42.245302" lon="-3.325653">
        <ele>1191.31</ele>
        <time>2021-03-27T15:09:36Z</time>
      </trkpt>
      <trkpt lat="42.245243" lon="-3.325604">
        <ele>1191.96</ele>
        <time>2021-03-27T15:09:38Z</time>
      </trkpt>
      <trkpt lat="42.245198" lon="-3.325533">
        <ele>1192.6</ele>
        <time>2021-03-27T15:09:39Z</time>
      </trkpt>
      <trkpt lat="42.245175" lon="-3.325415">
        <ele>1193.22</ele>
        <time>2021-03-27T15:09:41Z</time>
      </trkpt>
      <trkpt lat="42.245172" lon="-3.324718">
        <ele>1194.35</ele>
        <time>2021-03-27T15:09:43Z</time>
      </trkpt>
      <trkpt lat="42.245155" lon="-3.324425">
        <ele>1194.57</ele>
        <time>2021-03-27T15:09:45Z</time>
      </trkpt>
      <trkpt lat="42.245111" lon="-3.324203">
        <ele>1194.59</ele>
        <time>2021-03-27T15:09:46Z</time>
      </trkpt>
      <trkpt lat="42.245037" lon="-3.323994">
        <ele>1194.18</ele>
        <time>2021-03-27T15:09:48Z</time>
      </trkpt>
      <trkpt lat="42.245004" lon="-3.323917">
        <ele>1193.9</ele>
        <time>2021-03-27T15:09:50Z</time>
      </trkpt>
      <trkpt lat="42.244936" lon="-3.32382">
        <ele>1193.12</ele>
        <time>2021-03-27T15:09:51Z</time>
      </trkpt>
      <trkpt lat="42.244155" lon="-3.32276">
        <ele>1185.82</ele>
        <time>2021-03-27T15:09:53Z</time>
      </trkpt>
      <trkpt lat="42.244044" lon="-3.322587">
        <ele>1183.19</ele>
        <time>2021-03-27T15:09:55Z</time>
      </trkpt>
      <trkpt lat="42.243993" lon="-3.322467">
        <ele>1181.7</ele>
        <time>2021-03-27T15:09:56Z</time>
      </trkpt>
      <trkpt lat="42.243952" lon="-3.322243">
        <ele>1181.05</ele>
        <time>2021-03-27T15:09:58Z</time>
      </trkpt>
      <trkpt lat="42.243946" lon="-3.322105">
        <ele>1182.14</ele>
        <time>2021-03-27T15:10:00Z</time>
      </trkpt>
      <trkpt lat="42.243949" lon="-3.321904">
        <ele>1184.19</ele>
        <time>2021-03-27T15:10:01Z</time>
      </trkpt>
      <trkpt lat="42.243977" lon="-3.321583">
        <ele>1186.2</ele>
        <time>2021-03-27T15:10:03Z</time>
      </trkpt>
      <trkpt lat="42.243973" lon="-3.321331">
        <ele>1185.93</ele>
        <time>2021-03-27T15:10:05Z</time>
      </trkpt>
      <trkpt lat="42.24396" lon="-3.32118">
        <ele>1185.21</ele>
        <time>2021-03-27T15:10:07Z</time>
      </trkpt>
      <trkpt lat="42.243936" lon="-3.321077">
        <ele>1184.84</ele>
        <time>2021-03-27T15:10:08Z</time>
      </trkpt>
      <trkpt lat="42.243904" lon="-3.321016">
        <ele>1184.83</ele>
        <time>2021-03-27T15:10:10Z</time>
      </trkpt>
      <trkpt lat="42.243855" lon="-3.320969">
        <ele>1184.91</ele>
        <time>2021-03-27T15:10:12Z</time>
      </trkpt>
      <trkpt lat="42.24379" lon="-3.320952">
        <ele>1184.95</ele>
        <time>2021-03-27T15:10:13Z</time>
      </trkpt>
      <trkpt lat="42.243678" lon="-3.320999">
        <ele>1183.61</ele>
        <time>2021-03-27T15:10:15Z</time>
      </trkpt>
      <trkpt lat="42.243119" lon="-3.321643">
        <ele>1181.28</ele>
        <time>2021-03-27T15:10:17Z</time>
      </trkpt>
      <trkpt lat="42.243022" lon="-3.321723">
        <ele>1181.06</ele>
        <time>2021-03-27T15:10:18Z</time>
      </trkpt>
      <trkpt lat="42.242894" lon="-3.321776">
        <ele>1180.16</ele>
        <time>2021-03-27T15:10:20Z</time>
      </trkpt>
      <trkpt lat="42.242821" lon="-3.321783">
        <ele>1180.05</ele>
        <time>2021-03-27T15:10:22Z</time>
      </trkpt>
      <trkpt lat="42.242742" lon="-3.321751">
        <ele>1180.08</ele>
        <time>2021-03-27T15:10:23Z</time>
      </trkpt>
      <trkpt lat="42.242603" lon="-3.3216">
        <ele>1180.81</ele>
        <time>2021-03-27T15:10:25Z</time>
      </trkpt>
      <trkpt lat="42.242137" lon="-3.320869">
        <ele>1182.74</ele>
        <time>2021-03-27T15:10:27Z</time>
      </trkpt>
      <trkpt lat="42.241918" lon="-3.320563">
        <ele>1182.78</ele>
        <time>2021-03-27T15:10:28Z</time>
      </trkpt>
      <trkpt lat="42.241672" lon="-3.320293">
        <ele>1180.74</ele>
        <time>2021-03-27T15:10:30Z</time>
      </trkpt>
      <trkpt lat="42.241188" lon="-3.31982">
        <ele>1178.27</ele>
        <time>2021-03-27T15:10:32Z</time>
      </trkpt>
      <trkpt lat="42.241077" lon="-3.319683">
        <ele>1177.71</ele>
        <time>2021-03-27T15:10:34Z</time>
      </trkpt>
      <trkpt lat="42.240948" lon="-3.319461">
        <ele>1177.82</ele>
        <time>2021-03-27T15:10:35Z</time>
      </trkpt>
      <trkpt lat="42.240795" lon="-3.318981">
        <ele>1180.05</ele>
        <time>2021-03-27T15:10:37Z</time>
      </trkpt>
      <trkpt lat="42.240722" lon="-3.318862">
        <ele>1181.8</ele>
        <time>2021-03-27T15:10:39Z</time>
      </trkpt>
      <trkpt lat="42.240621" lon="-3.31883">
        <ele>1182.89</ele>
        <time>2021-03-27T15:10:40Z</time>
      </trkpt>
      <trkpt lat="42.240537" lon="-3.318877">
        <ele>1182.67</ele>
        <time>2021-03-27T15:10:42Z</time>
      </trkpt>
      <trkpt lat="42.240308" lon="-3.319226">
        <ele>1179.95</ele>
        <time>2021-03-27T15:10:44Z</time>
      </trkpt>
      <trkpt lat="42.240249" lon="-3.319296">
        <ele>1178.75</ele>
        <time>2021-03-27T15:10:45Z</time>
      </trkpt>
      <trkpt lat="42.240113" lon="-3.31939">
        <ele>1176.38</ele>
        <time>2021-03-27T15:10:47Z</time>
      </trkpt>
      <trkpt lat="42.240025" lon="-3.31941">
        <ele>1175.87</ele>
        <time>2021-03-27T15:10:49Z</time>
      </trkpt>
      <trkpt lat="42.239932" lon="-3.319401">
        <ele>1175.32</ele>
        <time>2021-03-27T15:10:50Z</time>
      </trkpt>
      <trkpt lat="42.239831" lon="-3.319375">
        <ele>1174.76</ele>
        <time>2021-03-27T15:10:52Z</time>
      </trkpt>
      <trkpt lat="42.23962" lon="-3.31927">
        <ele>1175.08</ele>
        <time>2021-03-27T15:10:54Z</time>
      </trkpt>
      <trkpt lat="42.239537" lon="-3.319196">
        <ele>1175.58</ele>
        <time>2021-03-27T15:10:56Z</time>
      </trkpt>
      <trkpt lat="42.239436" lon="-3.319063">
        <ele>1175.95</ele>
        <time>2021-03-27T15:10:57Z</time>
      </trkpt>
      <trkpt lat="42.239385" lon="-3.318952">
        <ele>1175.91</ele>
        <time>2021-03-27T15:10:59Z</time>
      </trkpt>
      <trkpt lat="42.239315" lon="-3.318731">
        <ele>1176.75</ele>
        <time>2021-03-27T15:11:01Z</time>
      </trkpt>
      <trkpt lat="42.239231" lon="-3.318332">
        <ele>1178.32</ele>
        <time>2021-03-27T15:11:02Z</time>
      </trkpt>
      <trkpt lat="42.23919" lon="-3.317689">
        <ele>1177.09</ele>
        <time>2021-03-27T15:11:04Z</time>
      </trkpt>
      <trkpt lat="42.23916" lon="-3.317464">
        <ele>1176.76</ele>
        <time>2021-03-27T15:11:06Z</time>
      </trkpt>
      <trkpt lat="42.239064" lon="-3.31722">
        <ele>1174.07</ele>
        <time>2021-03-27T15:11:07Z</time>
      </trkpt>
      <trkpt lat="42.238605" lon="-3.316522">
        <ele>1170.47</ele>
        <time>2021-03-27T15:11:09Z</time>
      </trkpt>
      <trkpt lat="42.238433" lon="-3.316321">
        <ele>1170.66</ele>
        <time>2021-03-27T15:11:11Z</time>
      </trkpt>
      <trkpt lat="42.238108" lon="-3.316083">
        <ele>1166.37</ele>
        <time>2021-03-27T15:11:12Z</time>
      </trkpt>
      <trkpt lat="42.237662" lon="-3.315889">
        <ele>1157.95</ele>
        <time>2021-03-27T15:11:14Z</time>
      </trkpt>
      <trkpt lat="42.237482" lon="-3.315754">
        <ele>1157.79</ele>
        <time>2021-03-27T15:11:16Z</time>
      </trkpt>
      <trkpt lat="42.23413" lon="-3.311623">
        <ele>1168.08</ele>
        <time>2021-03-27T15:11:18Z</time>
      </trkpt>
      <trkpt lat="42.233702" lon="-3.311127">
        <ele>1166.24</ele>
        <time>2021-03-27T15:11:19Z</time>
      </trkpt>
      <trkpt lat="42.233462" lon="-3.310927">
        <ele>1165.78</ele>
        <time>2021-03-27T15:11:21Z</time>
      </trkpt>
      <trkpt lat="42.233229" lon="-3.310797">
        <ele>1166.53</ele>
        <time>2021-03-27T15:11:23Z</time>
      </trkpt>
      <trkpt lat="42.232051" lon="-3.31033">
        <ele>1169.62</ele>
        <time>2021-03-27T15:11:24Z</time>
      </trkpt>
      <trkpt lat="42.231244" lon="-3.309973">
        <ele>1169.34</ele>
        <time>2021-03-27T15:11:26Z</time>
      </trkpt>
      <trkpt lat="42.230948" lon="-3.309819">
        <ele>1169.37</ele>
        <time>2021-03-27T15:11:28Z</time>
      </trkpt>
      <trkpt lat="42.230731" lon="-3.309626">
        <ele>1170.52</ele>
        <time>2021-03-27T15:11:29Z</time>
      </trkpt>
      <trkpt lat="42.230503" lon="-3.309356">
        <ele>1171.58</ele>
        <time>2021-03-27T15:11:31Z</time>
      </trkpt>
      <trkpt lat="42.230334" lon="-3.309094">
        <ele>1173.76</ele>
        <time>2021-03-27T15:11:33Z</time>
      </trkpt>
      <trkpt lat="42.230095" lon="-3.30867">
        <ele>1174.17</ele>
        <time>2021-03-27T15:11:34Z</time>
      </trkpt>
      <trkpt lat="42.229821" lon="-3.308142">
        <ele>1175.46</ele>
        <time>2021-03-27T15:11:36Z</time>
      </trkpt>
      <trkpt lat="42.228908" lon="-3.306133">
        <ele>1178.47</ele>
        <time>2021-03-27T15:11:38Z</time>
      </trkpt>
      <trkpt lat="42.228859" lon="-3.305994">
        <ele>1178.2</ele>
        <time>2021-03-27T15:11:40Z</time>
      </trkpt>
      <trkpt lat="42.228812" lon="-3.305723">
        <ele>1178.48</ele>
        <time>2021-03-27T15:11:41Z</time>
      </trkpt>
      <trkpt lat="42.228791" lon="-3.305201">
        <ele>1179.46</ele>
        <time>2021-03-27T15:11:43Z</time>
      </trkpt>
      <trkpt lat="42.228771" lon="-3.305092">
        <ele>1179.29</ele>
        <time>2021-03-27T15:11:45Z</time>
      </trkpt>
      <trkpt lat="42.228745" lon="-3.30498">
        <ele>1178.89</ele>
        <time>2021-03-27T15:11:46Z</time>
      </trkpt>
      <trkpt lat="42.228616" lon="-3.304732">
        <ele>1177.03</ele>
        <time>2021-03-27T15:11:48Z</time>
      </trkpt>
      <trkpt lat="42.228461" lon="-3.30459">
        <ele>1175.58</ele>
        <time>2021-03-27T15:11:50Z</time>
      </trkpt>
      <trkpt lat="42.228372" lon="-3.304533">
        <ele>1174.83</ele>
        <time>2021-03-27T15:11:51Z</time>
      </trkpt>
      <trkpt lat="42.22815" lon="-3.304438">
        <ele>1172.38</ele>
        <time>2021-03-27T15:11:53Z</time>
      </trkpt>
      <trkpt lat="42.227932" lon="-3.304273">
        <ele>1170.29</ele>
        <time>2021-03-27T15:11:55Z</time>
      </trkpt>
      <trkpt lat="42.227763" lon="-3.304176">
        <ele>1168.91</ele>
        <time>2021-03-27T15:11:56Z</time>
      </trkpt>
      <trkpt lat="42.227633" lon="-3.304176">
        <ele>1168.46</ele>
        <time>2021-03-27T15:11:58Z</time>
      </trkpt>
      <trkpt lat="42.227261" lon="-3.304258">
        <ele>1169.44</ele>
        <time>2021-03-27T15:12:00Z</time>
      </trkpt>
      <trkpt lat="42.225843" lon="-3.304205">
        <ele>1168.83</ele>
        <time>2021-03-27T15:12:01Z</time>
      </trkpt>
      <trkpt lat="42.225691" lon="-3.304162">
        <ele>1169.53</ele>
        <time>2021-03-27T15:12:03Z</time>
      </trkpt>
      <trkpt lat="42.225497" lon="-3.304032">
        <ele>1169.79</ele>
        <time>2021-03-27T15:12:05Z</time>
      </trkpt>
      <trkpt lat="42.222659" lon="-3.301422">
        <ele>1177.69</ele>
        <time>2021-03-27T15:12:07Z</time>
      </trkpt>
      <trkpt lat="42.222475" lon="-3.301278">
        <ele>1179.2</ele>
        <time>2021-03-27T15:12:08Z</time>
      </trkpt>
      <trkpt lat="42.219892" lon="-3.299493">
        <ele>1192.05</ele>
        <time>2021-03-27T15:12:10Z</time>
      </trkpt>
      <trkpt lat="42.219673" lon="-3.299395">
        <ele>1193.18</ele>
        <time>2021-03-27T15:12:12Z</time>
      </trkpt>
      <trkpt lat="42.21816" lon="-3.29893">
        <ele>1197.24</ele>
        <time>2021-03-27T15:12:13Z</time>
      </trkpt>
      <trkpt lat="42.217033" lon="-3.298743">
        <ele>1202.63</ele>
        <time>2021-03-27T15:12:15Z</time>
      </trkpt>
      <trkpt lat="42.216925" lon="-3.298694">
        <ele>1203.5</ele>
        <time>2021-03-27T15:12:17Z</time>
      </trkpt>
      <trkpt lat="42.216548" lon="-3.298464">
        <ele>1204.58</ele>
        <time>2021-03-27T15:12:18Z</time>
      </trkpt>
      <trkpt lat="42.216207" lon="-3.298294">
        <ele>1201.9</ele>
        <time>2021-03-27T15:12:20Z</time>
      </trkpt>
      <trkpt lat="42.215923" lon="-3.298118">
        <ele>1202.2</ele>
        <time>2021-03-27T15:12:22Z</time>
      </trkpt>
      <trkpt lat="42.215753" lon="-3.297921">
        <ele>1202.19</ele>
        <time>2021-03-27T15:12:23Z</time>
      </trkpt>
      <trkpt lat="42.215599" lon="-3.297704">
        <ele>1202.38</ele>
        <time>2021-03-27T15:12:25Z</time>
      </trkpt>
      <trkpt lat="42.215451" lon="-3.29741">
        <ele>1202.95</ele>
        <time>2021-03-27T15:12:27Z</time>
      </trkpt>
      <trkpt lat="42.215365" lon="-3.297123">
        <ele>1204.14</ele>
        <time>2021-03-27T15:12:29Z</time>
      </trkpt>
      <trkpt lat="42.215346" lon="-3.296902">
        <ele>1205.8</ele>
        <time>2021-03-27T15:12:30Z</time>
      </trkpt>
      <trkpt lat="42.215347" lon="-3.296569">
        <ele>1207.24</ele>
        <time>2021-03-27T15:12:32Z</time>
      </trkpt>
      <trkpt lat="42.215476" lon="-3.295328">
        <ele>1203.98</ele>
        <time>2021-03-27T15:12:34Z</time>
      </trkpt>
      <trkpt lat="42.215476" lon="-3.295164">
        <ele>1203.62</ele>
        <time>2021-03-27T15:12:35Z</time>
      </trkpt>
      <trkpt lat="42.215448" lon="-3.294899">
        <ele>1202.31</ele>
        <time>2021-03-27T15:12:37Z</time>
      </trkpt>
      <trkpt lat="42.215283" lon="-3.294278">
        <ele>1197.72</ele>
        <time>2021-03-27T15:12:39Z</time>
      </trkpt>
      <trkpt lat="42.215196" lon="-3.293983">
        <ele>1199.42</ele>
        <time>2021-03-27T15:12:40Z</time>
      </trkpt>
      <trkpt lat="42.215094" lon="-3.293821">
        <ele>1200.24</ele>
        <time>2021-03-27T15:12:42Z</time>
      </trkpt>
      <trkpt lat="42.214987" lon="-3.293765">
        <ele>1200.56</ele>
        <time>2021-03-27T15:12:44Z</time>
      </trkpt>
      <trkpt lat="42.21434" lon="-3.293612">
        <ele>1205.75</ele>
        <time>2021-03-27T15:12:45Z</time>
      </trkpt>
      <trkpt lat="42.214168" lon="-3.293612">
        <ele>1206.99</ele>
        <time>2021-03-27T15:12:47Z</time>
      </trkpt>
      <trkpt lat="42.213489" lon="-3.293769">
        <ele>1211.11</ele>
        <time>2021-03-27T15:12:49Z</time>
      </trkpt>
      <trkpt lat="42.213089" lon="-3.293807">
        <ele>1210.33</ele>
        <time>2021-03-27T15:12:51Z</time>
      </trkpt>
      <trkpt lat="42.212982" lon="-3.293791">
        <ele>1210.19</ele>
        <time>2021-03-27T15:12:52Z</time>
      </trkpt>
      <trkpt lat="42.212744" lon="-3.293704">
        <ele>1211.05</ele>
        <time>2021-03-27T15:12:54Z</time>
      </trkpt>
      <trkpt lat="42.212535" lon="-3.293555">
        <ele>1210.82</ele>
        <time>2021-03-27T15:12:56Z</time>
      </trkpt>
      <trkpt lat="42.2115" lon="-3.292742">
        <ele>1208.89</ele>
        <time>2021-03-27T15:12:57Z</time>
      </trkpt>
      <trkpt lat="42.211267" lon="-3.292538">
        <ele>1211.87</ele>
        <time>2021-03-27T15:12:59Z</time>
      </trkpt>
      <trkpt lat="42.209879" lon="-3.290685">
        <ele>1209.6</ele>
        <time>2021-03-27T15:13:01Z</time>
      </trkpt>
      <trkpt lat="42.209773" lon="-3.29046">
        <ele>1210.12</ele>
        <time>2021-03-27T15:13:02Z</time>
      </trkpt>
      <trkpt lat="42.209713" lon="-3.290225">
        <ele>1211.42</ele>
        <time>2021-03-27T15:13:04Z</time>
      </trkpt>
      <trkpt lat="42.209636" lon="-3.289352">
        <ele>1217.26</ele>
        <time>2021-03-27T15:13:06Z</time>
      </trkpt>
      <trkpt lat="42.209567" lon="-3.289">
        <ele>1216.98</ele>
        <time>2021-03-27T15:13:07Z</time>
      </trkpt>
      <trkpt lat="42.209534" lon="-3.288882">
        <ele>1216.64</ele>
        <time>2021-03-27T15:13:09Z</time>
      </trkpt>
      <trkpt lat="42.209256" lon="-3.288212">
        <ele>1212.05</ele>
        <time>2021-03-27T15:13:11Z</time>
      </trkpt>
      <trkpt lat="42.207879" lon="-3.283713">
        <ele>1221.95</ele>
        <time>2021-03-27T15:13:13Z</time>
      </trkpt>
      <trkpt lat="42.207715" lon="-3.283293">
        <ele>1222.71</ele>
        <time>2021-03-27T15:13:14Z</time>
      </trkpt>
      <trkpt lat="42.20668" lon="-3.281177">
        <ele>1229.89</ele>
        <time>2021-03-27T15:13:16Z</time>
      </trkpt>
      <trkpt lat="42.206483" lon="-3.280758">
        <ele>1227.07</ele>
        <time>2021-03-27T15:13:18Z</time>
      </trkpt>
      <trkpt lat="42.206384" lon="-3.280503">
        <ele>1225.6</ele>
        <time>2021-03-27T15:13:19Z</time>
      </trkpt>
      <trkpt lat="42.206324" lon="-3.280211">
        <ele>1229.2</ele>
        <time>2021-03-27T15:13:21Z</time>
      </trkpt>
      <trkpt lat="42.20631" lon="-3.279316">
        <ele>1231.3</ele>
        <time>2021-03-27T15:13:23Z</time>
      </trkpt>
      <trkpt lat="42.20628" lon="-3.27914">
        <ele>1229.62</ele>
        <time>2021-03-27T15:13:24Z</time>
      </trkpt>
      <trkpt lat="42.206217" lon="-3.27895">
        <ele>1228.69</ele>
        <time>2021-03-27T15:13:26Z</time>
      </trkpt>
      <trkpt lat="42.205865" lon="-3.27831">
        <ele>1232.06</ele>
        <time>2021-03-27T15:13:28Z</time>
      </trkpt>
      <trkpt lat="42.205784" lon="-3.278105">
        <ele>1230.96</ele>
        <time>2021-03-27T15:13:29Z</time>
      </trkpt>
      <trkpt lat="42.205763" lon="-3.27801">
        <ele>1230.69</ele>
        <time>2021-03-27T15:13:31Z</time>
      </trkpt>
      <trkpt lat="42.205759" lon="-3.277701">
        <ele>1230.54</ele>
        <time>2021-03-27T15:13:33Z</time>
      </trkpt>
      <trkpt lat="42.2058" lon="-3.277472">
        <ele>1231.17</ele>
        <time>2021-03-27T15:13:34Z</time>
      </trkpt>
      <trkpt lat="42.20593" lon="-3.276974">
        <ele>1241.76</ele>
        <time>2021-03-27T15:13:36Z</time>
      </trkpt>
      <trkpt lat="42.205916" lon="-3.276817">
        <ele>1242.77</ele>
        <time>2021-03-27T15:13:38Z</time>
      </trkpt>
      <trkpt lat="42.205872" lon="-3.276717">
        <ele>1241.54</ele>
        <time>2021-03-27T15:13:40Z</time>
      </trkpt>
      <trkpt lat="42.205821" lon="-3.27665">
        <ele>1239.92</ele>
        <time>2021-03-27T15:13:41Z</time>
      </trkpt>
      <trkpt lat="42.205671" lon="-3.276535">
        <ele>1238.17</ele>
        <time>2021-03-27T15:13:43Z</time>
      </trkpt>
      <trkpt lat="42.204999" lon="-3.276141">
        <ele>1232.99</ele>
        <time>2021-03-27T15:13:45Z</time>
      </trkpt>
      <trkpt lat="42.204369" lon="-3.275654">
        <ele>1232.76</ele>
        <time>2021-03-27T15:13:46Z</time>
      </trkpt>
      <trkpt lat="42.204279" lon="-3.275574">
        <ele>1233.24</ele>
        <time>2021-03-27T15:13:48Z</time>
      </trkpt>
      <trkpt lat="42.204207" lon="-3.275481">
        <ele>1234.14</ele>
        <time>2021-03-27T15:13:50Z</time>
      </trkpt>
      <trkpt lat="42.204122" lon="-3.275323">
        <ele>1235.01</ele>
        <time>2021-03-27T15:13:51Z</time>
      </trkpt>
      <trkpt lat="42.204094" lon="-3.275224">
        <ele>1235.39</ele>
        <time>2021-03-27T15:13:53Z</time>
      </trkpt>
      <trkpt lat="42.204015" lon="-3.274286">
        <ele>1239.97</ele>
        <time>2021-03-27T15:13:55Z</time>
      </trkpt>
      <trkpt lat="42.20407" lon="-3.272997">
        <ele>1234.13</ele>
        <time>2021-03-27T15:13:56Z</time>
      </trkpt>
      <trkpt lat="42.20407" lon="-3.272617">
        <ele>1238.81</ele>
        <time>2021-03-27T15:13:58Z</time>
      </trkpt>
      <trkpt lat="42.204019" lon="-3.27175">
        <ele>1245.53</ele>
        <time>2021-03-27T15:14:00Z</time>
      </trkpt>
      <trkpt lat="42.204008" lon="-3.271677">
        <ele>1245.91</ele>
        <time>2021-03-27T15:14:02Z</time>
      </trkpt>
      <trkpt lat="42.203936" lon="-3.271489">
        <ele>1247.6</ele>
        <time>2021-03-27T15:14:03Z</time>
      </trkpt>
      <trkpt lat="42.203797" lon="-3.271287">
        <ele>1248.33</ele>
        <time>2021-03-27T15:14:05Z</time>
      </trkpt>
      <trkpt lat="42.203726" lon="-3.27122">
        <ele>1248.21</ele>
        <time>2021-03-27T15:14:07Z</time>
      </trkpt>
      <trkpt lat="42.2036" lon="-3.271139">
        <ele>1246.95</ele>
        <time>2021-03-27T15:14:08Z</time>
      </trkpt>
      <trkpt lat="42.201965" lon="-3.270503">
        <ele>1241.19</ele>
        <time>2021-03-27T15:14:10Z</time>
      </trkpt>
      <trkpt lat="42.199928" lon="-3.270017">
        <ele>1253.95</ele>
        <time>2021-03-27T15:14:12Z</time>
      </trkpt>
      <trkpt lat="42.199668" lon="-3.269876">
        <ele>1250.92</ele>
        <time>2021-03-27T15:14:13Z</time>
      </trkpt>
      <trkpt lat="42.199476" lon="-3.26973">
        <ele>1251.31</ele>
        <time>2021-03-27T15:14:15Z</time>
      </trkpt>
      <trkpt lat="42.199038" lon="-3.269375">
        <ele>1256.65</ele>
        <time>2021-03-27T15:14:17Z</time>
      </trkpt>
      <trkpt lat="42.198805" lon="-3.26916">
        <ele>1257.36</ele>
        <time>2021-03-27T15:14:18Z</time>
      </trkpt>
      <trkpt lat="42.198478" lon="-3.268757">
        <ele>1259.99</ele>
        <time>2021-03-27T15:14:20Z</time>
      </trkpt>
      <trkpt lat="42.198302" lon="-3.2685">
        <ele>1259.3</ele>
        <time>2021-03-27T15:14:22Z</time>
      </trkpt>
      <trkpt lat="42.197795" lon="-3.267569">
        <ele>1263.6</ele>
        <time>2021-03-27T15:14:24Z</time>
      </trkpt>
      <trkpt lat="42.197661" lon="-3.26725">
        <ele>1266.52</ele>
        <time>2021-03-27T15:14:25Z</time>
      </trkpt>
      <trkpt lat="42.197394" lon="-3.266404">
        <ele>1262.86</ele>
        <time>2021-03-27T15:14:27Z</time>
      </trkpt>
      <trkpt lat="42.197161" lon="-3.265554">
        <ele>1265.7</ele>
        <time>2021-03-27T15:14:29Z</time>
      </trkpt>
      <trkpt lat="42.196808" lon="-3.264605">
        <ele>1263.4</ele>
        <time>2021-03-27T15:14:30Z</time>
      </trkpt>
      <trkpt lat="42.19673" lon="-3.264267">
        <ele>1262.45</ele>
        <time>2021-03-27T15:14:32Z</time>
      </trkpt>
      <trkpt lat="42.196665" lon="-3.263814">
        <ele>1261.96</ele>
        <time>2021-03-27T15:14:34Z</time>
      </trkpt>
      <trkpt lat="42.196598" lon="-3.26361">
        <ele>1261.26</ele>
        <time>2021-03-27T15:14:35Z</time>
      </trkpt>
      <trkpt lat="42.195822" lon="-3.262345">
        <ele>1263.11</ele>
        <time>2021-03-27T15:14:37Z</time>
      </trkpt>
      <trkpt lat="42.195533" lon="-3.261822">
        <ele>1266.17</ele>
        <time>2021-03-27T15:14:39Z</time>
      </trkpt>
      <trkpt lat="42.194974" lon="-3.260734">
        <ele>1275.27</ele>
        <time>2021-03-27T15:14:40Z</time>
      </trkpt>
      <trkpt lat="42.194803" lon="-3.260525">
        <ele>1276.15</ele>
        <time>2021-03-27T15:14:42Z</time>
      </trkpt>
      <trkpt lat="42.194031" lon="-3.259878">
        <ele>1271.94</ele>
        <time>2021-03-27T15:14:44Z</time>
      </trkpt>
      <trkpt lat="42.193534" lon="-3.259641">
        <ele>1272.32</ele>
        <time>2021-03-27T15:14:46Z</time>
      </trkpt>
      <trkpt lat="42.19269" lon="-3.259127">
        <ele>1276.23</ele>
        <time>2021-03-27T15:14:47Z</time>
      </trkpt>
      <trkpt lat="42.191396" lon="-3.258015">
        <ele>1282.0</ele>
        <time>2021-03-27T15:14:49Z</time>
      </trkpt>
      <trkpt lat="42.191306" lon="-3.257929">
        <ele>1281.98</ele>
        <time>2021-03-27T15:14:51Z</time>
      </trkpt>
      <trkpt lat="42.191092" lon="-3.257647">
        <ele>1282.42</ele>
        <time>2021-03-27T15:14:52Z</time>
      </trkpt>
      <trkpt lat="42.190873" lon="-3.257406">
        <ele>1282.98</ele>
        <time>2021-03-27T15:14:54Z</time>
      </trkpt>
      <trkpt lat="42.190568" lon="-3.257237">
        <ele>1285.55</ele>
        <time>2021-03-27T15:14:56Z</time>
      </trkpt>
      <trkpt lat="42.190304" lon="-3.257058">
        <ele>1289.29</ele>
        <time>2021-03-27T15:14:57Z</time>
      </trkpt>
      <trkpt lat="42.189704" lon="-3.256604">
        <ele>1279.51</ele>
        <time>2021-03-27T15:14:59Z</time>
      </trkpt>
      <trkpt lat="42.189629" lon="-3.256483">
        <ele>1279.64</ele>
        <time>2021-03-27T15:15:01Z</time>
      </trkpt>
      <trkpt lat="42.189571" lon="-3.256312">
        <ele>1281.13</ele>
        <time>2021-03-27T15:15:02Z</time>
      </trkpt>
      <trkpt lat="42.189528" lon="-3.256036">
        <ele>1285.31</ele>
        <time>2021-03-27T15:15:04Z</time>
      </trkpt>
      <trkpt lat="42.189465" lon="-3.255452">
        <ele>1291.5</ele>
        <time>2021-03-27T15:15:06Z</time>
      </trkpt>
      <trkpt lat="42.189363" lon="-3.255084">
        <ele>1291.55</ele>
        <time>2021-03-27T15:15:08Z</time>
      </trkpt>
      <trkpt lat="42.189274" lon="-3.254874">
        <ele>1291.12</ele>
        <time>2021-03-27T15:15:09Z</time>
      </trkpt>
      <trkpt lat="42.189145" lon="-3.25463">
        <ele>1291.1</ele>
        <time>2021-03-27T15:15:11Z</time>
      </trkpt>
      <trkpt lat="42.188779" lon="-3.254191">
        <ele>1290.44</ele>
        <time>2021-03-27T15:15:13Z</time>
      </trkpt>
      <trkpt lat="42.188456" lon="-3.253755">
        <ele>1293.27</ele>
        <time>2021-03-27T15:15:14Z</time>
      </trkpt>
      <trkpt lat="42.188289" lon="-3.253359">
        <ele>1294.49</ele>
        <time>2021-03-27T15:15:16Z</time>
      </trkpt>
      <trkpt lat="42.188207" lon="-3.253081">
        <ele>1295.26</ele>
        <time>2021-03-27T15:15:18Z</time>
      </trkpt>
      <trkpt lat="42.188144" lon="-3.252764">
        <ele>1297.26</ele>
        <time>2021-03-27T15:15:19Z</time>
      </trkpt>
      <trkpt lat="42.188123" lon="-3.252189">
        <ele>1299.66</ele>
        <time>2021-03-27T15:15:21Z</time>
      </trkpt>
      <trkpt lat="42.188063" lon="-3.251962">
        <ele>1299.3</ele>
        <time>2021-03-27T15:15:23Z</time>
      </trkpt>
      <trkpt lat="42.187828" lon="-3.251558">
        <ele>1297.89</ele>
        <time>2021-03-27T15:15:24Z</time>
      </trkpt>
      <trkpt lat="42.187345" lon="-3.250914">
        <ele>1300.27</ele>
        <time>2021-03-27T15:15:26Z</time>
      </trkpt>
      <trkpt lat="42.187286" lon="-3.250816">
        <ele>1300.14</ele>
        <time>2021-03-27T15:15:28Z</time>
      </trkpt>
      <trkpt lat="42.187206" lon="-3.25063">
        <ele>1300.83</ele>
        <time>2021-03-27T15:15:29Z</time>
      </trkpt>
      <trkpt lat="42.187141" lon="-3.250367">
        <ele>1301.34</ele>
        <time>2021-03-27T15:15:31Z</time>
      </trkpt>
      <trkpt lat="42.187105" lon="-3.250145">
        <ele>1303.44</ele>
        <time>2021-03-27T15:15:33Z</time>
      </trkpt>
      <trkpt lat="42.186719" lon="-3.247235">
        <ele>1307.56</ele>
        <time>2021-03-27T15:15:35Z</time>
      </trkpt>
      <trkpt lat="42.1867" lon="-3.247138">
        <ele>1306.4</ele>
        <time>2021-03-27T15:15:36Z</time>
      </trkpt>
      <trkpt lat="42.186622" lon="-3.246926">
        <ele>1303.62</ele>
        <time>2021-03-27T15:15:38Z</time>
      </trkpt>
      <trkpt lat="42.186522" lon="-3.24673">
        <ele>1305.0</ele>
        <time>2021-03-27T15:15:40Z</time>
      </trkpt>
      <trkpt lat="42.186375" lon="-3.246512">
        <ele>1306.13</ele>
        <time>2021-03-27T15:15:41Z</time>
      </trkpt>
      <trkpt lat="42.186253" lon="-3.246368">
        <ele>1306.68</ele>
        <time>2021-03-27T15:15:43Z</time>
      </trkpt>
      <trkpt lat="42.186085" lon="-3.246254">
        <ele>1305.39</ele>
        <time>2021-03-27T15:15:45Z</time>
      </trkpt>
      <trkpt lat="42.184802" lon="-3.245532">
        <ele>1308.88</ele>
        <time>2021-03-27T15:15:46Z</time>
      </trkpt>
      <trkpt lat="42.184643" lon="-3.245409">
        <ele>1311.21</ele>
        <time>2021-03-27T15:15:48Z</time>
      </trkpt>
      <trkpt lat="42.184577" lon="-3.245326">
        <ele>1312.7</ele>
        <time>2021-03-27T15:15:50Z</time>
      </trkpt>
      <trkpt lat="42.184461" lon="-3.245126">
        <ele>1316.06</ele>
        <time>2021-03-27T15:15:51Z</time>
      </trkpt>
      <trkpt lat="42.183877" lon="-3.244055">
        <ele>1319.89</ele>
        <time>2021-03-27T15:15:53Z</time>
      </trkpt>
      <trkpt lat="42.183793" lon="-3.243866">
        <ele>1319.05</ele>
        <time>2021-03-27T15:15:55Z</time>
      </trkpt>
      <trkpt lat="42.183722" lon="-3.243633">
        <ele>1317.76</ele>
        <time>2021-03-27T15:15:57Z</time>
      </trkpt>
      <trkpt lat="42.18367" lon="-3.243386">
        <ele>1317.28</ele>
        <time>2021-03-27T15:15:58Z</time>
      </trkpt>
      <trkpt lat="42.183607" lon="-3.242925">
        <ele>1319.26</ele>
        <time>2021-03-27T15:16:00Z</time>
      </trkpt>
      <trkpt lat="42.183598" lon="-3.241538">
        <ele>1334.26</ele>
        <time>2021-03-27T15:16:02Z</time>
      </trkpt>
      <trkpt lat="42.183584" lon="-3.241304">
        <ele>1334.14</ele>
        <time>2021-03-27T15:16:03Z</time>
      </trkpt>
      <trkpt lat="42.183191" lon="-3.237706">
        <ele>1344.49</ele>
        <time>2021-03-27T15:16:05Z</time>
      </trkpt>
      <trkpt lat="42.18316" lon="-3.237457">
        <ele>1342.17</ele>
        <time>2021-03-27T15:16:07Z</time>
      </trkpt>
      <trkpt lat="42.183109" lon="-3.23722">
        <ele>1339.54</ele>
        <time>2021-03-27T15:16:08Z</time>
      </trkpt>
      <trkpt lat="42.182997" lon="-3.23702">
        <ele>1337.46</ele>
        <time>2021-03-27T15:16:10Z</time>
      </trkpt>
      <trkpt lat="42.18292" lon="-3.236952">
        <ele>1337.0</ele>
        <time>2021-03-27T15:16:12Z</time>
      </trkpt>
      <trkpt lat="42.182813" lon="-3.236909">
        <ele>1336.86</ele>
        <time>2021-03-27T15:16:13Z</time>
      </trkpt>
      <trkpt lat="42.182614" lon="-3.236918">
        <ele>1337.24</ele>
        <time>2021-03-27T15:16:15Z</time>
      </trkpt>
      <trkpt lat="42.181987" lon="-3.237063">
        <ele>1333.83</ele>
        <time>2021-03-27T15:16:17Z</time>
      </trkpt>
      <trkpt lat="42.181849" lon="-3.237033">
        <ele>1333.41</ele>
        <time>2021-03-27T15:16:19Z</time>
      </trkpt>
      <trkpt lat="42.181643" lon="-3.236835">
        <ele>1337.73</ele>
        <time>2021-03-27T15:16:20Z</time>
      </trkpt>
      <trkpt lat="42.181328" lon="-3.236457">
        <ele>1336.4</ele>
        <time>2021-03-27T15:16:22Z</time>
      </trkpt>
      <trkpt lat="42.181256" lon="-3.236335">
        <ele>1336.54</ele>
        <time>2021-03-27T15:16:24Z</time>
      </trkpt>
      <trkpt lat="42.181229" lon="-3.236257">
        <ele>1337.07</ele>
        <time>2021-03-27T15:16:25Z</time>
      </trkpt>
      <trkpt lat="42.181219" lon="-3.235998">
        <ele>1340.0</ele>
        <time>2021-03-27T15:16:27Z</time>
      </trkpt>
      <trkpt lat="42.181331" lon="-3.235438">
        <ele>1350.22</ele>
        <time>2021-03-27T15:16:29Z</time>
      </trkpt>
      <trkpt lat="42.181348" lon="-3.235208">
        <ele>1352.47</ele>
        <time>2021-03-27T15:16:30Z</time>
      </trkpt>
      <trkpt lat="42.181342" lon="-3.234178">
        <ele>1354.89</ele>
        <time>2021-03-27T15:16:32Z</time>
      </trkpt>
      <trkpt lat="42.181318" lon="-3.233937">
        <ele>1357.66</ele>
        <time>2021-03-27T15:16:34Z</time>
      </trkpt>
      <trkpt lat="42.180953" lon="-3.231881">
        <ele>1358.53</ele>
        <time>2021-03-27T15:16:35Z</time>
      </trkpt>
      <trkpt lat="42.180827" lon="-3.231035">
        <ele>1366.03</ele>
        <time>2021-03-27T15:16:37Z</time>
      </trkpt>
      <trkpt lat="42.180787" lon="-3.230616">
        <ele>1364.13</ele>
        <time>2021-03-27T15:16:39Z</time>
      </trkpt>
      <trkpt lat="42.180803" lon="-3.230343">
        <ele>1364.23</ele>
        <time>2021-03-27T15:16:41Z</time>
      </trkpt>
      <trkpt lat="42.180928" lon="-3.229945">
        <ele>1366.81</ele>
        <time>2021-03-27T15:16:42Z</time>
      </trkpt>
      <trkpt lat="42.180944" lon="-3.229846">
        <ele>1366.9</ele>
        <time>2021-03-27T15:16:44Z</time>
      </trkpt>
      <trkpt lat="42.180949" lon="-3.229718">
        <ele>1366.6</ele>
        <time>2021-03-27T15:16:46Z</time>
      </trkpt>
      <trkpt lat="42.180925" lon="-3.229466">
        <ele>1365.94</ele>
        <time>2021-03-27T15:16:47Z</time>
      </trkpt>
      <trkpt lat="42.180897" lon="-3.229252">
        <ele>1367.06</ele>
        <time>2021-03-27T15:16:49Z</time>
      </trkpt>
      <trkpt lat="42.180865" lon="-3.229131">
        <ele>1367.08</ele>
        <time>2021-03-27T15:16:51Z</time>
      </trkpt>
      <trkpt lat="42.180735" lon="-3.228805">
        <ele>1366.26</ele>
        <time>2021-03-27T15:16:52Z</time>
      </trkpt>
      <trkpt lat="42.180649" lon="-3.228513">
        <ele>1365.78</ele>
        <time>2021-03-27T15:16:54Z</time>
      </trkpt>
      <trkpt lat="42.180617" lon="-3.228228">
        <ele>1367.94</ele>
        <time>2021-03-27T15:16:56Z</time>
      </trkpt>
      <trkpt lat="42.180605" lon="-3.227952">
        <ele>1371.16</ele>
        <time>2021-03-27T15:16:57Z</time>
      </trkpt>
      <trkpt lat="42.180644" lon="-3.227259">
        <ele>1376.31</ele>
        <time>2021-03-27T15:16:59Z</time>
      </trkpt>
      <trkpt lat="42.180689" lon="-3.227031">
        <ele>1375.98</ele>
        <time>2021-03-27T15:17:01Z</time>
      </trkpt>
      <trkpt lat="42.180749" lon="-3.226889">
        <ele>1376.47</ele>
        <time>2021-03-27T15:17:02Z</time>
      </trkpt>
      <trkpt lat="42.181032" lon="-3.226479">
        <ele>1380.81</ele>
        <time>2021-03-27T15:17:04Z</time>
      </trkpt>
      <trkpt lat="42.181229" lon="-3.226087">
        <ele>1381.32</ele>
        <time>2021-03-27T15:17:06Z</time>
      </trkpt>
      <trkpt lat="42.181349" lon="-3.225913">
        <ele>1380.99</ele>
        <time>2021-03-27T15:17:08Z</time>
      </trkpt>
      <trkpt lat="42.181935" lon="-3.225197">
        <ele>1380.67</ele>
        <time>2021-03-27T15:17:09Z</time>
      </trkpt>
      <trkpt lat="42.18209" lon="-3.225046">
        <ele>1383.22</ele>
        <time>2021-03-27T15:17:11Z</time>
      </trkpt>
      <trkpt lat="42.182287" lon="-3.224921">
        <ele>1386.58</ele>
        <time>2021-03-27T15:17:13Z</time>
      </trkpt>
      <trkpt lat="42.182723" lon="-3.224732">
        <ele>1392.11</ele>
        <time>2021-03-27T15:17:14Z</time>
      </trkpt>
      <trkpt lat="42.182842" lon="-3.224646">
        <ele>1394.44</ele>
        <time>2021-03-27T15:17:16Z</time>
      </trkpt>
      <trkpt lat="42.182904" lon="-3.224556">
        <ele>1395.49</ele>
        <time>2021-03-27T15:17:18Z</time>
      </trkpt>
      <trkpt lat="42.182923" lon="-3.224408">
        <ele>1395.66</ele>
        <time>2021-03-27T15:17:19Z</time>
      </trkpt>
      <trkpt lat="42.182898" lon="-3.224271">
        <ele>1397.17</ele>
        <time>2021-03-27T15:17:21Z</time>
      </trkpt>
      <trkpt lat="42.182807" lon="-3.224163">
        <ele>1397.59</ele>
        <time>2021-03-27T15:17:23Z</time>
      </trkpt>
      <trkpt lat="42.18272" lon="-3.224132">
        <ele>1399.2</ele>
        <time>2021-03-27T15:17:24Z</time>
      </trkpt>
      <trkpt lat="42.181804" lon="-3.224446">
        <ele>1391.5</ele>
        <time>2021-03-27T15:17:26Z</time>
      </trkpt>
      <trkpt lat="42.181569" lon="-3.224552">
        <ele>1396.25</ele>
        <time>2021-03-27T15:17:28Z</time>
      </trkpt>
      <trkpt lat="42.180983" lon="-3.224943">
        <ele>1399.58</ele>
        <time>2021-03-27T15:17:30Z</time>
      </trkpt>
      <trkpt lat="42.180269" lon="-3.22548">
        <ele>1403.88</ele>
        <time>2021-03-27T15:17:31Z</time>
      </trkpt>
      <trkpt lat="42.180034" lon="-3.225719">
        <ele>1406.66</ele>
        <time>2021-03-27T15:17:33Z</time>
      </trkpt>
      <trkpt lat="42.179471" lon="-3.226368">
        <ele>1411.37</ele>
        <time>2021-03-27T15:17:35Z</time>
      </trkpt>
      <trkpt lat="42.179338" lon="-3.226464">
        <ele>1413.3</ele>
        <time>2021-03-27T15:17:36Z</time>
      </trkpt>
      <trkpt lat="42.179202" lon="-3.226468">
        <ele>1416.01</ele>
        <time>2021-03-27T15:17:38Z</time>
      </trkpt>
      <trkpt lat="42.179091" lon="-3.226419">
        <ele>1417.25</ele>
        <time>2021-03-27T15:17:40Z</time>
      </trkpt>
      <trkpt lat="42.179037" lon="-3.226368">
        <ele>1417.44</ele>
        <time>2021-03-27T15:17:41Z</time>
      </trkpt>
      <trkpt lat="42.178948" lon="-3.226233">
        <ele>1417.02</ele>
        <time>2021-03-27T15:17:43Z</time>
      </trkpt>
      <trkpt lat="42.178854" lon="-3.225889">
        <ele>1414.03</ele>
        <time>2021-03-27T15:17:45Z</time>
      </trkpt>
      <trkpt lat="42.17873" lon="-3.224742">
        <ele>1412.99</ele>
        <time>2021-03-27T15:17:46Z</time>
      </trkpt>
      <trkpt lat="42.178548" lon="-3.223735">
        <ele>1404.31</ele>
        <time>2021-03-27T15:17:48Z</time>
      </trkpt>
      <trkpt lat="42.178474" lon="-3.223432">
        <ele>1405.3</ele>
        <time>2021-03-27T15:17:50Z</time>
      </trkpt>
      <trkpt lat="42.178437" lon="-3.223338">
        <ele>1405.56</ele>
        <time>2021-03-27T15:17:52Z</time>
      </trkpt>
      <trkpt lat="42.178383" lon="-3.223216">
        <ele>1404.82</ele>
        <time>2021-03-27T15:17:53Z</time>
      </trkpt>
      <trkpt lat="42.178258" lon="-3.223016">
        <ele>1402.13</ele>
        <time>2021-03-27T15:17:55Z</time>
      </trkpt>
      <trkpt lat="42.176859" lon="-3.220958">
        <ele>1382.77</ele>
        <time>2021-03-27T15:17:57Z</time>
      </trkpt>
      <trkpt lat="42.176762" lon="-3.220767">
        <ele>1381.53</ele>
        <time>2021-03-27T15:17:58Z</time>
      </trkpt>
      <trkpt lat="42.176718" lon="-3.220651">
        <ele>1381.28</ele>
        <time>2021-03-27T15:18:00Z</time>
      </trkpt>
      <trkpt lat="42.176699" lon="-3.220547">
        <ele>1381.3</ele>
        <time>2021-03-27T15:18:02Z</time>
      </trkpt>
      <trkpt lat="42.1767" lon="-3.220392">
        <ele>1380.33</ele>
        <time>2021-03-27T15:18:03Z</time>
      </trkpt>
      <trkpt lat="42.176737" lon="-3.220217">
        <ele>1379.68</ele>
        <time>2021-03-27T15:18:05Z</time>
      </trkpt>
      <trkpt lat="42.176795" lon="-3.220095">
        <ele>1379.64</ele>
        <time>2021-03-27T15:18:07Z</time>
      </trkpt>
      <trkpt lat="42.176889" lon="-3.219957">
        <ele>1379.95</ele>
        <time>2021-03-27T15:18:08Z</time>
      </trkpt>
      <trkpt lat="42.177125" lon="-3.219691">
        <ele>1380.46</ele>
        <time>2021-03-27T15:18:10Z</time>
      </trkpt>
      <trkpt lat="42.177345" lon="-3.219482">
        <ele>1379.09</ele>
        <time>2021-03-27T15:18:12Z</time>
      </trkpt>
      <trkpt lat="42.177553" lon="-3.219358">
        <ele>1377.81</ele>
        <time>2021-03-27T15:18:14Z</time>
      </trkpt>
      <trkpt lat="42.177771" lon="-3.219255">
        <ele>1374.63</ele>
        <time>2021-03-27T15:18:15Z</time>
      </trkpt>
      <trkpt lat="42.17791" lon="-3.219158">
        <ele>1373.81</ele>
        <time>2021-03-27T15:18:17Z</time>
      </trkpt>
      <trkpt lat="42.178042" lon="-3.218988">
        <ele>1371.69</ele>
        <time>2021-03-27T15:18:19Z</time>
      </trkpt>
      <trkpt lat="42.178128" lon="-3.218842">
        <ele>1371.05</ele>
        <time>2021-03-27T15:18:20Z</time>
      </trkpt>
      <trkpt lat="42.178164" lon="-3.218713">
        <ele>1370.46</ele>
        <time>2021-03-27T15:18:22Z</time>
      </trkpt>
      <trkpt lat="42.178167" lon="-3.218612">
        <ele>1369.42</ele>
        <time>2021-03-27T15:18:24Z</time>
      </trkpt>
      <trkpt lat="42.178133" lon="-3.218378">
        <ele>1369.28</ele>
        <time>2021-03-27T15:18:25Z</time>
      </trkpt>
      <trkpt lat="42.178058" lon="-3.218243">
        <ele>1369.35</ele>
        <time>2021-03-27T15:18:27Z</time>
      </trkpt>
      <trkpt lat="42.177991" lon="-3.218159">
        <ele>1369.49</ele>
        <time>2021-03-27T15:18:29Z</time>
      </trkpt>
      <trkpt lat="42.177836" lon="-3.218041">
        <ele>1369.38</ele>
        <time>2021-03-27T15:18:30Z</time>
      </trkpt>
      <trkpt lat="42.177153" lon="-3.217759">
        <ele>1361.38</ele>
        <time>2021-03-27T15:18:32Z</time>
      </trkpt>
      <trkpt lat="42.176835" lon="-3.217574">
        <ele>1365.09</ele>
        <time>2021-03-27T15:18:34Z</time>
      </trkpt>
      <trkpt lat="42.176338" lon="-3.217238">
        <ele>1363.8</ele>
        <time>2021-03-27T15:18:35Z</time>
      </trkpt>
      <trkpt lat="42.176153" lon="-3.217167">
        <ele>1361.39</ele>
        <time>2021-03-27T15:18:37Z</time>
      </trkpt>
      <trkpt lat="42.176016" lon="-3.217149">
        <ele>1361.29</ele>
        <time>2021-03-27T15:18:39Z</time>
      </trkpt>
      <trkpt lat="42.175877" lon="-3.217184">
        <ele>1359.71</ele>
        <time>2021-03-27T15:18:41Z</time>
      </trkpt>
      <trkpt lat="42.175284" lon="-3.217571">
        <ele>1348.57</ele>
        <time>2021-03-27T15:18:42Z</time>
      </trkpt>
      <trkpt lat="42.175067" lon="-3.217672">
        <ele>1348.01</ele>
        <time>2021-03-27T15:18:44Z</time>
      </trkpt>
      <trkpt lat="42.174724" lon="-3.21775">
        <ele>1343.13</ele>
        <time>2021-03-27T15:18:46Z</time>
      </trkpt>
      <trkpt lat="42.174618" lon="-3.217754">
        <ele>1339.99</ele>
        <time>2021-03-27T15:18:47Z</time>
      </trkpt>
      <trkpt lat="42.174104" lon="-3.217574">
        <ele>1335.03</ele>
        <time>2021-03-27T15:18:49Z</time>
      </trkpt>
      <trkpt lat="42.173875" lon="-3.217396">
        <ele>1336.43</ele>
        <time>2021-03-27T15:18:51Z</time>
      </trkpt>
      <trkpt lat="42.17375" lon="-3.217274">
        <ele>1341.28</ele>
        <time>2021-03-27T15:18:52Z</time>
      </trkpt>
      <trkpt lat="42.173531" lon="-3.217119">
        <ele>1345.29</ele>
        <time>2021-03-27T15:18:54Z</time>
      </trkpt>
      <trkpt lat="42.173003" lon="-3.216861">
        <ele>1339.0</ele>
        <time>2021-03-27T15:18:56Z</time>
      </trkpt>
      <trkpt lat="42.172561" lon="-3.216689">
        <ele>1338.71</ele>
        <time>2021-03-27T15:18:57Z</time>
      </trkpt>
      <trkpt lat="42.172486" lon="-3.216674">
        <ele>1338.96</ele>
        <time>2021-03-27T15:18:59Z</time>
      </trkpt>
      <trkpt lat="42.172337" lon="-3.216691">
        <ele>1340.46</ele>
        <time>2021-03-27T15:19:01Z</time>
      </trkpt>
      <trkpt lat="42.172207" lon="-3.216763">
        <ele>1339.12</ele>
        <time>2021-03-27T15:19:03Z</time>
      </trkpt>
      <trkpt lat="42.172098" lon="-3.216858">
        <ele>1334.96</ele>
        <time>2021-03-27T15:19:04Z</time>
      </trkpt>
      <trkpt lat="42.17201" lon="-3.216909">
        <ele>1332.65</ele>
        <time>2021-03-27T15:19:06Z</time>
      </trkpt>
      <trkpt lat="42.171899" lon="-3.216944">
        <ele>1330.36</ele>
        <time>2021-03-27T15:19:08Z</time>
      </trkpt>
      <trkpt lat="42.171613" lon="-3.216962">
        <ele>1326.11</ele>
        <time>2021-03-27T15:19:09Z</time>
      </trkpt>
      <trkpt lat="42.171522" lon="-3.21695">
        <ele>1325.81</ele>
        <time>2021-03-27T15:19:11Z</time>
      </trkpt>
      <trkpt lat="42.171299" lon="-3.216886">
        <ele>1326.01</ele>
        <time>2021-03-27T15:19:13Z</time>
      </trkpt>
      <trkpt lat="42.170885" lon="-3.216709">
        <ele>1324.74</ele>
        <time>2021-03-27T15:19:14Z</time>
      </trkpt>
      <trkpt lat="42.170257" lon="-3.216341">
        <ele>1319.78</ele>
        <time>2021-03-27T15:19:16Z</time>
      </trkpt>
      <trkpt lat="42.170138" lon="-3.216243">
        <ele>1316.54</ele>
        <time>2021-03-27T15:19:18Z</time>
      </trkpt>
      <trkpt lat="42.170043" lon="-3.216139">
        <ele>1314.27</ele>
        <time>2021-03-27T15:19:19Z</time>
      </trkpt>
      <trkpt lat="42.169339" lon="-3.215308">
        <ele>1313.19</ele>
        <time>2021-03-27T15:19:21Z</time>
      </trkpt>
      <trkpt lat="42.168966" lon="-3.214718">
        <ele>1310.68</ele>
        <time>2021-03-27T15:19:23Z</time>
      </trkpt>
      <trkpt lat="42.16814" lon="-3.213611">
        <ele>1296.21</ele>
        <time>2021-03-27T15:19:25Z</time>
      </trkpt>
      <trkpt lat="42.168065" lon="-3.213436">
        <ele>1295.83</ele>
        <time>2021-03-27T15:19:26Z</time>
      </trkpt>
      <trkpt lat="42.167924" lon="-3.212907">
        <ele>1295.33</ele>
        <time>2021-03-27T15:19:28Z</time>
      </trkpt>
      <trkpt lat="42.16779" lon="-3.212608">
        <ele>1296.71</ele>
        <time>2021-03-27T15:19:30Z</time>
      </trkpt>
      <trkpt lat="42.167662" lon="-3.212451">
        <ele>1295.25</ele>
        <time>2021-03-27T15:19:31Z</time>
      </trkpt>
      <trkpt lat="42.167549" lon="-3.212378">
        <ele>1293.4</ele>
        <time>2021-03-27T15:19:33Z</time>
      </trkpt>
      <trkpt lat="42.16741" lon="-3.212328">
        <ele>1291.15</ele>
        <time>2021-03-27T15:19:35Z</time>
      </trkpt>
      <trkpt lat="42.167211" lon="-3.212324">
        <ele>1287.14</ele>
        <time>2021-03-27T15:19:36Z</time>
      </trkpt>
      <trkpt lat="42.166782" lon="-3.212403">
        <ele>1285.37</ele>
        <time>2021-03-27T15:19:38Z</time>
      </trkpt>
      <trkpt lat="42.166533" lon="-3.212405">
        <ele>1282.46</ele>
        <time>2021-03-27T15:19:40Z</time>
      </trkpt>
      <trkpt lat="42.16633" lon="-3.212374">
        <ele>1278.76</ele>
        <time>2021-03-27T15:19:41Z</time>
      </trkpt>
      <trkpt lat="42.165864" lon="-3.212236">
        <ele>1272.34</ele>
        <time>2021-03-27T15:19:43Z</time>
      </trkpt>
      <trkpt lat="42.165675" lon="-3.212149">
        <ele>1270.28</ele>
        <time>2021-03-27T15:19:45Z</time>
      </trkpt>
      <trkpt lat="42.164906" lon="-3.211646">
        <ele>1272.59</ele>
        <time>2021-03-27T15:19:47Z</time>
      </trkpt>
      <trkpt lat="42.164837" lon="-3.211596">
        <ele>1271.52</ele>
        <time>2021-03-27T15:19:48Z</time>
      </trkpt>
      <trkpt lat="42.164752" lon="-3.211485">
        <ele>1271.57</ele>
        <time>2021-03-27T15:19:50Z</time>
      </trkpt>
      <trkpt lat="42.164686" lon="-3.211333">
        <ele>1270.42</ele>
        <time>2021-03-27T15:19:52Z</time>
      </trkpt>
      <trkpt lat="42.164621" lon="-3.211006">
        <ele>1261.48</ele>
        <time>2021-03-27T15:19:53Z</time>
      </trkpt>
      <trkpt lat="42.164604" lon="-3.210531">
        <ele>1253.57</ele>
        <time>2021-03-27T15:19:55Z</time>
      </trkpt>
      <trkpt lat="42.164632" lon="-3.210337">
        <ele>1251.95</ele>
        <time>2021-03-27T15:19:57Z</time>
      </trkpt>
      <trkpt lat="42.164657" lon="-3.21027">
        <ele>1251.75</ele>
        <time>2021-03-27T15:19:58Z</time>
      </trkpt>
      <trkpt lat="42.164778" lon="-3.210115">
        <ele>1252.25</ele>
        <time>2021-03-27T15:20:00Z</time>
      </trkpt>
      <trkpt lat="42.164837" lon="-3.210085">
        <ele>1253.4</ele>
        <time>2021-03-27T15:20:02Z</time>
      </trkpt>
      <trkpt lat="42.164965" lon="-3.21006">
        <ele>1256.65</ele>
        <time>2021-03-27T15:20:03Z</time>
      </trkpt>
      <trkpt lat="42.165358" lon="-3.210034">
        <ele>1259.42</ele>
        <time>2021-03-27T15:20:05Z</time>
      </trkpt>
      <trkpt lat="42.166169" lon="-3.209917">
        <ele>1258.78</ele>
        <time>2021-03-27T15:20:07Z</time>
      </trkpt>
      <trkpt lat="42.166359" lon="-3.209917">
        <ele>1262.34</ele>
        <time>2021-03-27T15:20:08Z</time>
      </trkpt>
      <trkpt lat="42.166662" lon="-3.209953">
        <ele>1264.31</ele>
        <time>2021-03-27T15:20:10Z</time>
      </trkpt>
      <trkpt lat="42.166812" lon="-3.209943">
        <ele>1265.22</ele>
        <time>2021-03-27T15:20:12Z</time>
      </trkpt>
      <trkpt lat="42.166929" lon="-3.209894">
        <ele>1265.37</ele>
        <time>2021-03-27T15:20:14Z</time>
      </trkpt>
      <trkpt lat="42.166964" lon="-3.209857">
        <ele>1265.37</ele>
        <time>2021-03-27T15:20:15Z</time>
      </trkpt>
      <trkpt lat="42.166997" lon="-3.209803">
        <ele>1265.45</ele>
        <time>2021-03-27T15:20:17Z</time>
      </trkpt>
      <trkpt lat="42.167016" lon="-3.209667">
        <ele>1265.21</ele>
        <time>2021-03-27T15:20:19Z</time>
      </trkpt>
      <trkpt lat="42.167008" lon="-3.209599">
        <ele>1265.13</ele>
        <time>2021-03-27T15:20:20Z</time>
      </trkpt>
      <trkpt lat="42.16694" lon="-3.209464">
        <ele>1262.96</ele>
        <time>2021-03-27T15:20:22Z</time>
      </trkpt>
      <trkpt lat="42.16683" lon="-3.209364">
        <ele>1262.06</ele>
        <time>2021-03-27T15:20:24Z</time>
      </trkpt>
      <trkpt lat="42.16474" lon="-3.208159">
        <ele>1231.4</ele>
        <time>2021-03-27T15:20:25Z</time>
      </trkpt>
      <trkpt lat="42.164638" lon="-3.208075">
        <ele>1229.64</ele>
        <time>2021-03-27T15:20:27Z</time>
      </trkpt>
      <trkpt lat="42.164578" lon="-3.207986">
        <ele>1229.63</ele>
        <time>2021-03-27T15:20:29Z</time>
      </trkpt>
      <trkpt lat="42.164464" lon="-3.207717">
        <ele>1231.78</ele>
        <time>2021-03-27T15:20:30Z</time>
      </trkpt>
      <trkpt lat="42.164427" lon="-3.207653">
        <ele>1232.83</ele>
        <time>2021-03-27T15:20:32Z</time>
      </trkpt>
      <trkpt lat="42.164368" lon="-3.207603">
        <ele>1234.5</ele>
        <time>2021-03-27T15:20:34Z</time>
      </trkpt>
      <trkpt lat="42.164257" lon="-3.207593">
        <ele>1235.79</ele>
        <time>2021-03-27T15:20:36Z</time>
      </trkpt>
      <trkpt lat="42.164086" lon="-3.20767">
        <ele>1237.36</ele>
        <time>2021-03-27T15:20:37Z</time>
      </trkpt>
      <trkpt lat="42.164007" lon="-3.207739">
        <ele>1237.8</ele>
        <time>2021-03-27T15:20:39Z</time>
      </trkpt>
      <trkpt lat="42.163859" lon="-3.207926">
        <ele>1234.1</ele>
        <time>2021-03-27T15:20:41Z</time>
      </trkpt>
      <trkpt lat="42.163724" lon="-3.20817">
        <ele>1231.78</ele>
        <time>2021-03-27T15:20:42Z</time>
      </trkpt>
      <trkpt lat="42.16363" lon="-3.208394">
        <ele>1231.08</ele>
        <time>2021-03-27T15:20:44Z</time>
      </trkpt>
      <trkpt lat="42.163517" lon="-3.208924">
        <ele>1228.25</ele>
        <time>2021-03-27T15:20:46Z</time>
      </trkpt>
      <trkpt lat="42.163346" lon="-3.209313">
        <ele>1225.53</ele>
        <time>2021-03-27T15:20:47Z</time>
      </trkpt>
      <trkpt lat="42.163246" lon="-3.209494">
        <ele>1225.06</ele>
        <time>2021-03-27T15:20:49Z</time>
      </trkpt>
      <trkpt lat="42.163086" lon="-3.209712">
        <ele>1223.78</ele>
        <time>2021-03-27T15:20:51Z</time>
      </trkpt>
      <trkpt lat="42.162839" lon="-3.209911">
        <ele>1214.33</ele>
        <time>2021-03-27T15:20:52Z</time>
      </trkpt>
      <trkpt lat="42.162655" lon="-3.209997">
        <ele>1211.02</ele>
        <time>2021-03-27T15:20:54Z</time>
      </trkpt>
      <trkpt lat="42.162228" lon="-3.210048">
        <ele>1217.61</ele>
        <time>2021-03-27T15:20:56Z</time>
      </trkpt>
      <trkpt lat="42.161639" lon="-3.210197">
        <ele>1215.21</ele>
        <time>2021-03-27T15:20:58Z</time>
      </trkpt>
      <trkpt lat="42.161173" lon="-3.210269">
        <ele>1208.76</ele>
        <time>2021-03-27T15:20:59Z</time>
      </trkpt>
      <trkpt lat="42.160892" lon="-3.210246">
        <ele>1206.14</ele>
        <time>2021-03-27T15:21:01Z</time>
      </trkpt>
      <trkpt lat="42.160713" lon="-3.210136">
        <ele>1206.46</ele>
        <time>2021-03-27T15:21:03Z</time>
      </trkpt>
      <trkpt lat="42.160407" lon="-3.209872">
        <ele>1206.28</ele>
        <time>2021-03-27T15:21:04Z</time>
      </trkpt>
      <trkpt lat="42.159971" lon="-3.209356">
        <ele>1201.34</ele>
        <time>2021-03-27T15:21:06Z</time>
      </trkpt>
      <trkpt lat="42.159816" lon="-3.209146">
        <ele>1197.86</ele>
        <time>2021-03-27T15:21:08Z</time>
      </trkpt>
      <trkpt lat="42.159728" lon="-3.208951">
        <ele>1196.7</ele>
        <time>2021-03-27T15:21:09Z</time>
      </trkpt>
      <trkpt lat="42.159687" lon="-3.208783">
        <ele>1196.89</ele>
        <time>2021-03-27T15:21:11Z</time>
      </trkpt>
      <trkpt lat="42.159654" lon="-3.208546">
        <ele>1199.31</ele>
        <time>2021-03-27T15:21:13Z</time>
      </trkpt>
      <trkpt lat="42.159602" lon="-3.208353">
        <ele>1202.55</ele>
        <time>2021-03-27T15:21:14Z</time>
      </trkpt>
      <trkpt lat="42.159565" lon="-3.208278">
        <ele>1202.73</ele>
        <time>2021-03-27T15:21:16Z</time>
      </trkpt>
      <trkpt lat="42.159426" lon="-3.2081">
        <ele>1200.72</ele>
        <time>2021-03-27T15:21:18Z</time>
      </trkpt>
      <trkpt lat="42.159338" lon="-3.208016">
        <ele>1197.73</ele>
        <time>2021-03-27T15:21:20Z</time>
      </trkpt>
      <trkpt lat="42.158956" lon="-3.207737">
        <ele>1190.05</ele>
        <time>2021-03-27T15:21:21Z</time>
      </trkpt>
      <trkpt lat="42.158797" lon="-3.207583">
        <ele>1189.3</ele>
        <time>2021-03-27T15:21:23Z</time>
      </trkpt>
      <trkpt lat="42.158541" lon="-3.207246">
        <ele>1187.23</ele>
        <time>2021-03-27T15:21:25Z</time>
      </trkpt>
      <trkpt lat="42.158396" lon="-3.206989">
        <ele>1182.64</ele>
        <time>2021-03-27T15:21:26Z</time>
      </trkpt>
      <trkpt lat="42.158284" lon="-3.206658">
        <ele>1180.58</ele>
        <time>2021-03-27T15:21:28Z</time>
      </trkpt>
      <trkpt lat="42.158248" lon="-3.206411">
        <ele>1179.48</ele>
        <time>2021-03-27T15:21:30Z</time>
      </trkpt>
      <trkpt lat="42.158254" lon="-3.206311">
        <ele>1178.97</ele>
        <time>2021-03-27T15:21:31Z</time>
      </trkpt>
      <trkpt lat="42.158352" lon="-3.206105">
        <ele>1178.38</ele>
        <time>2021-03-27T15:21:33Z</time>
      </trkpt>
      <trkpt lat="42.15859" lon="-3.205846">
        <ele>1180.82</ele>
        <time>2021-03-27T15:21:35Z</time>
      </trkpt>
      <trkpt lat="42.158666" lon="-3.205689">
        <ele>1182.67</ele>
        <time>2021-03-27T15:21:36Z</time>
      </trkpt>
      <trkpt lat="42.158694" lon="-3.205558">
        <ele>1183.11</ele>
        <time>2021-03-27T15:21:38Z</time>
      </trkpt>
      <trkpt lat="42.158693" lon="-3.205489">
        <ele>1183.43</ele>
        <time>2021-03-27T15:21:40Z</time>
      </trkpt>
      <trkpt lat="42.158659" lon="-3.205365">
        <ele>1183.67</ele>
        <time>2021-03-27T15:21:42Z</time>
      </trkpt>
      <trkpt lat="42.158607" lon="-3.205267">
        <ele>1184.2</ele>
        <time>2021-03-27T15:21:43Z</time>
      </trkpt>
      <trkpt lat="42.158418" lon="-3.205073">
        <ele>1186.02</ele>
        <time>2021-03-27T15:21:45Z</time>
      </trkpt>
      <trkpt lat="42.158202" lon="-3.204956">
        <ele>1185.14</ele>
        <time>2021-03-27T15:21:47Z</time>
      </trkpt>
      <trkpt lat="42.157834" lon="-3.204851">
        <ele>1184.83</ele>
        <time>2021-03-27T15:21:48Z</time>
      </trkpt>
      <trkpt lat="42.157141" lon="-3.20474">
        <ele>1170.9</ele>
        <time>2021-03-27T15:21:50Z</time>
      </trkpt>
      <trkpt lat="42.156971" lon="-3.204654">
        <ele>1167.4</ele>
        <time>2021-03-27T15:21:52Z</time>
      </trkpt>
      <trkpt lat="42.156841" lon="-3.204542">
        <ele>1166.22</ele>
        <time>2021-03-27T15:21:53Z</time>
      </trkpt>
      <trkpt lat="42.156553" lon="-3.20416">
        <ele>1162.98</ele>
        <time>2021-03-27T15:21:55Z</time>
      </trkpt>
      <trkpt lat="42.155946" lon="-3.203231">
        <ele>1157.61</ele>
        <time>2021-03-27T15:21:57Z</time>
      </trkpt>
      <trkpt lat="42.155256" lon="-3.201689">
        <ele>1147.29</ele>
        <time>2021-03-27T15:21:58Z</time>
      </trkpt>
      <trkpt lat="42.15466" lon="-3.200555">
        <ele>1141.55</ele>
        <time>2021-03-27T15:22:00Z</time>
      </trkpt>
      <trkpt lat="42.154538" lon="-3.20036">
        <ele>1140.67</ele>
        <time>2021-03-27T15:22:02Z</time>
      </trkpt>
      <trkpt lat="42.153865" lon="-3.199433">
        <ele>1135.96</ele>
        <time>2021-03-27T15:22:03Z</time>
      </trkpt>
      <trkpt lat="42.153717" lon="-3.199292">
        <ele>1136.27</ele>
        <time>2021-03-27T15:22:05Z</time>
      </trkpt>
      <trkpt lat="42.153585" lon="-3.199218">
        <ele>1136.7</ele>
        <time>2021-03-27T15:22:07Z</time>
      </trkpt>
      <trkpt lat="42.151262" lon="-3.19835">
        <ele>1130.14</ele>
        <time>2021-03-27T15:22:09Z</time>
      </trkpt>
      <trkpt lat="42.151084" lon="-3.198339">
        <ele>1128.83</ele>
        <time>2021-03-27T15:22:10Z</time>
      </trkpt>
      <trkpt lat="42.150965" lon="-3.198358">
        <ele>1128.04</ele>
        <time>2021-03-27T15:22:12Z</time>
      </trkpt>
      <trkpt lat="42.150844" lon="-3.198429">
        <ele>1127.42</ele>
        <time>2021-03-27T15:22:14Z</time>
      </trkpt>
      <trkpt lat="42.150726" lon="-3.198584">
        <ele>1126.33</ele>
        <time>2021-03-27T15:22:15Z</time>
      </trkpt>
      <trkpt lat="42.149586" lon="-3.200835">
        <ele>1120.03</ele>
        <time>2021-03-27T15:22:17Z</time>
      </trkpt>
      <trkpt lat="42.149463" lon="-3.201006">
        <ele>1121.95</ele>
        <time>2021-03-27T15:22:19Z</time>
      </trkpt>
      <trkpt lat="42.149148" lon="-3.201374">
        <ele>1124.65</ele>
        <time>2021-03-27T15:22:20Z</time>
      </trkpt>
      <trkpt lat="42.148886" lon="-3.201579">
        <ele>1125.38</ele>
        <time>2021-03-27T15:22:22Z</time>
      </trkpt>
      <trkpt lat="42.148172" lon="-3.201987">
        <ele>1120.28</ele>
        <time>2021-03-27T15:22:24Z</time>
      </trkpt>
      <trkpt lat="42.147847" lon="-3.202115">
        <ele>1122.81</ele>
        <time>2021-03-27T15:22:25Z</time>
      </trkpt>
      <trkpt lat="42.14767" lon="-3.202152">
        <ele>1122.65</ele>
        <time>2021-03-27T15:22:27Z</time>
      </trkpt>
      <trkpt lat="42.147389" lon="-3.202132">
        <ele>1120.98</ele>
        <time>2021-03-27T15:22:29Z</time>
      </trkpt>
      <trkpt lat="42.147244" lon="-3.202081">
        <ele>1119.55</ele>
        <time>2021-03-27T15:22:31Z</time>
      </trkpt>
      <trkpt lat="42.147119" lon="-3.202003">
        <ele>1120.14</ele>
        <time>2021-03-27T15:22:32Z</time>
      </trkpt>
      <trkpt lat="42.14675" lon="-3.201643">
        <ele>1124.55</ele>
        <time>2021-03-27T15:22:34Z</time>
      </trkpt>
      <trkpt lat="42.146521" lon="-3.201342">
        <ele>1119.57</ele>
        <time>2021-03-27T15:22:36Z</time>
      </trkpt>
      <trkpt lat="42.145822" lon="-3.200293">
        <ele>1121.85</ele>
        <time>2021-03-27T15:22:37Z</time>
      </trkpt>
      <trkpt lat="42.145649" lon="-3.200103">
        <ele>1118.9</ele>
        <time>2021-03-27T15:22:39Z</time>
      </trkpt>
      <trkpt lat="42.145477" lon="-3.19995">
        <ele>1119.43</ele>
        <time>2021-03-27T15:22:41Z</time>
      </trkpt>
      <trkpt lat="42.14461" lon="-3.199347">
        <ele>1116.18</ele>
        <time>2021-03-27T15:22:42Z</time>
      </trkpt>
      <trkpt lat="42.144262" lon="-3.199206">
        <ele>1117.73</ele>
        <time>2021-03-27T15:22:44Z</time>
      </trkpt>
      <trkpt lat="42.144" lon="-3.199151">
        <ele>1116.0</ele>
        <time>2021-03-27T15:22:46Z</time>
      </trkpt>
      <trkpt lat="42.143914" lon="-3.199169">
        <ele>1115.2</ele>
        <time>2021-03-27T15:22:47Z</time>
      </trkpt>
      <trkpt lat="42.143831" lon="-3.199215">
        <ele>1115.03</ele>
        <time>2021-03-27T15:22:49Z</time>
      </trkpt>
      <trkpt lat="42.143686" lon="-3.199362">
        <ele>1114.13</ele>
        <time>2021-03-27T15:22:51Z</time>
      </trkpt>
      <trkpt lat="42.143642" lon="-3.199434">
        <ele>1113.47</ele>
        <time>2021-03-27T15:22:53Z</time>
      </trkpt>
      <trkpt lat="42.14353" lon="-3.199714">
        <ele>1115.06</ele>
        <time>2021-03-27T15:22:54Z</time>
      </trkpt>
      <trkpt lat="42.143447" lon="-3.200376">
        <ele>1115.04</ele>
        <time>2021-03-27T15:22:56Z</time>
      </trkpt>
      <trkpt lat="42.143392" lon="-3.200556">
        <ele>1115.49</ele>
        <time>2021-03-27T15:22:58Z</time>
      </trkpt>
      <trkpt lat="42.143355" lon="-3.200639">
        <ele>1116.36</ele>
        <time>2021-03-27T15:22:59Z</time>
      </trkpt>
      <trkpt lat="42.143245" lon="-3.200785">
        <ele>1117.94</ele>
        <time>2021-03-27T15:23:01Z</time>
      </trkpt>
      <trkpt lat="42.143185" lon="-3.200834">
        <ele>1118.41</ele>
        <time>2021-03-27T15:23:03Z</time>
      </trkpt>
      <trkpt lat="42.143043" lon="-3.200889">
        <ele>1118.2</ele>
        <time>2021-03-27T15:23:04Z</time>
      </trkpt>
      <trkpt lat="42.142899" lon="-3.200886">
        <ele>1120.42</ele>
        <time>2021-03-27T15:23:06Z</time>
      </trkpt>
      <trkpt lat="42.142744" lon="-3.200827">
        <ele>1121.6</ele>
        <time>2021-03-27T15:23:08Z</time>
      </trkpt>
      <trkpt lat="42.142443" lon="-3.200609">
        <ele>1122.34</ele>
        <time>2021-03-27T15:23:09Z</time>
      </trkpt>
      <trkpt lat="42.141854" lon="-3.200141">
        <ele>1118.82</ele>
        <time>2021-03-27T15:23:11Z</time>
      </trkpt>
      <trkpt lat="42.141595" lon="-3.199996">
        <ele>1117.92</ele>
        <time>2021-03-27T15:23:13Z</time>
      </trkpt>
      <trkpt lat="42.141009" lon="-3.199776">
        <ele>1115.36</ele>
        <time>2021-03-27T15:23:15Z</time>
      </trkpt>
      <trkpt lat="42.140746" lon="-3.199748">
        <ele>1113.43</ele>
        <time>2021-03-27T15:23:16Z</time>
      </trkpt>
      <trkpt lat="42.14036" lon="-3.199761">
        <ele>1111.21</ele>
        <time>2021-03-27T15:23:18Z</time>
      </trkpt>
      <trkpt lat="42.140214" lon="-3.199727">
        <ele>1111.53</ele>
        <time>2021-03-27T15:23:20Z</time>
      </trkpt>
      <trkpt lat="42.139925" lon="-3.199611">
        <ele>1113.46</ele>
        <time>2021-03-27T15:23:21Z</time>
      </trkpt>
      <trkpt lat="42.139681" lon="-3.199567">
        <ele>1108.98</ele>
        <time>2021-03-27T15:23:23Z</time>
      </trkpt>
      <trkpt lat="42.139557" lon="-3.199609">
        <ele>1108.13</ele>
        <time>2021-03-27T15:23:25Z</time>
      </trkpt>
      <trkpt lat="42.139194" lon="-3.199907">
        <ele>1109.06</ele>
        <time>2021-03-27T15:23:26Z</time>
      </trkpt>
      <trkpt lat="42.1389" lon="-3.200099">
        <ele>1111.93</ele>
        <time>2021-03-27T15:23:28Z</time>
      </trkpt>
      <trkpt lat="42.138672" lon="-3.200217">
        <ele>1112.47</ele>
        <time>2021-03-27T15:23:30Z</time>
      </trkpt>
      <trkpt lat="42.138259" lon="-3.200361">
        <ele>1111.1</ele>
        <time>2021-03-27T15:23:31Z</time>
      </trkpt>
      <trkpt lat="42.137851" lon="-3.200424">
        <ele>1106.45</ele>
        <time>2021-03-27T15:23:33Z</time>
      </trkpt>
      <trkpt lat="42.137652" lon="-3.200516">
        <ele>1104.56</ele>
        <time>2021-03-27T15:23:35Z</time>
      </trkpt>
      <trkpt lat="42.137396" lon="-3.200687">
        <ele>1103.48</ele>
        <time>2021-03-27T15:23:36Z</time>
      </trkpt>
      <trkpt lat="42.136968" lon="-3.201145">
        <ele>1102.97</ele>
        <time>2021-03-27T15:23:38Z</time>
      </trkpt>
      <trkpt lat="42.13652" lon="-3.201467">
        <ele>1103.63</ele>
        <time>2021-03-27T15:23:40Z</time>
      </trkpt>
      <trkpt lat="42.136419" lon="-3.201504">
        <ele>1103.38</ele>
        <time>2021-03-27T15:23:42Z</time>
      </trkpt>
      <trkpt lat="42.135933" lon="-3.201525">
        <ele>1107.19</ele>
        <time>2021-03-27T15:23:43Z</time>
      </trkpt>
      <trkpt lat="42.135686" lon="-3.201517">
        <ele>1108.95</ele>
        <time>2021-03-27T15:23:45Z</time>
      </trkpt>
      <trkpt lat="42.135267" lon="-3.201467">
        <ele>1109.34</ele>
        <time>2021-03-27T15:23:47Z</time>
      </trkpt>
      <trkpt lat="42.135059" lon="-3.201404">
        <ele>1109.01</ele>
        <time>2021-03-27T15:23:48Z</time>
      </trkpt>
      <trkpt lat="42.134699" lon="-3.201179">
        <ele>1104.55</ele>
        <time>2021-03-27T15:23:50Z</time>
      </trkpt>
      <trkpt lat="42.134474" lon="-3.201145">
        <ele>1102.08</ele>
        <time>2021-03-27T15:23:52Z</time>
      </trkpt>
      <trkpt lat="42.134093" lon="-3.201152">
        <ele>1097.66</ele>
        <time>2021-03-27T15:23:53Z</time>
      </trkpt>
      <trkpt lat="42.133974" lon="-3.201182">
        <ele>1096.04</ele>
        <time>2021-03-27T15:23:55Z</time>
      </trkpt>
      <trkpt lat="42.133821" lon="-3.201301">
        <ele>1094.47</ele>
        <time>2021-03-27T15:23:57Z</time>
      </trkpt>
      <trkpt lat="42.133626" lon="-3.201568">
        <ele>1094.23</ele>
        <time>2021-03-27T15:23:58Z</time>
      </trkpt>
      <trkpt lat="42.133508" lon="-3.201645">
        <ele>1095.48</ele>
        <time>2021-03-27T15:24:00Z</time>
      </trkpt>
      <trkpt lat="42.133334" lon="-3.201627">
        <ele>1096.42</ele>
        <time>2021-03-27T15:24:02Z</time>
      </trkpt>
      <trkpt lat="42.133151" lon="-3.201539">
        <ele>1095.16</ele>
        <time>2021-03-27T15:24:04Z</time>
      </trkpt>
      <trkpt lat="42.133089" lon="-3.201537">
        <ele>1095.14</ele>
        <time>2021-03-27T15:24:05Z</time>
      </trkpt>
      <trkpt lat="42.133034" lon="-3.201653">
        <ele>1096.59</ele>
        <time>2021-03-27T15:24:07Z</time>
      </trkpt>
      <trkpt lat="42.132875" lon="-3.201832">
        <ele>1097.05</ele>
        <time>2021-03-27T15:24:08Z</time>
      </trkpt>
      <trkpt lat="42.132612" lon="-3.202056">
        <ele>1098.06</ele>
        <time>2021-03-27T15:24:09Z</time>
      </trkpt>
      <trkpt lat="42.132462" lon="-3.202162">
        <ele>1098.36</ele>
        <time>2021-03-27T15:24:11Z</time>
      </trkpt>
      <trkpt lat="42.132307" lon="-3.202242">
        <ele>1100.31</ele>
        <time>2021-03-27T15:24:12Z</time>
      </trkpt>
      <trkpt lat="42.132138" lon="-3.202286">
        <ele>1101.68</ele>
        <time>2021-03-27T15:24:13Z</time>
      </trkpt>
      <trkpt lat="42.131737" lon="-3.202204">
        <ele>1099.82</ele>
        <time>2021-03-27T15:24:15Z</time>
      </trkpt>
      <trkpt lat="42.131524" lon="-3.202187">
        <ele>1098.34</ele>
        <time>2021-03-27T15:24:16Z</time>
      </trkpt>
      <trkpt lat="42.130914" lon="-3.202333">
        <ele>1102.86</ele>
        <time>2021-03-27T15:24:17Z</time>
      </trkpt>
      <trkpt lat="42.130663" lon="-3.202428">
        <ele>1109.58</ele>
        <time>2021-03-27T15:24:19Z</time>
      </trkpt>
      <trkpt lat="42.130446" lon="-3.202577">
        <ele>1106.27</ele>
        <time>2021-03-27T15:24:20Z</time>
      </trkpt>
      <trkpt lat="42.130211" lon="-3.202833">
        <ele>1092.76</ele>
        <time>2021-03-27T15:24:21Z</time>
      </trkpt>
      <trkpt lat="42.130131" lon="-3.202974">
        <ele>1092.07</ele>
        <time>2021-03-27T15:24:23Z</time>
      </trkpt>
      <trkpt lat="42.130035" lon="-3.203259">
        <ele>1093.58</ele>
        <time>2021-03-27T15:24:24Z</time>
      </trkpt>
      <trkpt lat="42.130005" lon="-3.203447">
        <ele>1094.92</ele>
        <time>2021-03-27T15:24:25Z</time>
      </trkpt>
      <trkpt lat="42.129987" lon="-3.203981">
        <ele>1092.99</ele>
        <time>2021-03-27T15:24:26Z</time>
      </trkpt>
      <trkpt lat="42.13" lon="-3.204171">
        <ele>1088.9</ele>
        <time>2021-03-27T15:24:28Z</time>
      </trkpt>
      <trkpt lat="42.130108" lon="-3.204737">
        <ele>1085.61</ele>
        <time>2021-03-27T15:24:29Z</time>
      </trkpt>
      <trkpt lat="42.130377" lon="-3.205601">
        <ele>1092.45</ele>
        <time>2021-03-27T15:24:30Z</time>
      </trkpt>
      <trkpt lat="42.1305" lon="-3.206515">
        <ele>1101.28</ele>
        <time>2021-03-27T15:24:32Z</time>
      </trkpt>
      <trkpt lat="42.130472" lon="-3.206781">
        <ele>1102.26</ele>
        <time>2021-03-27T15:24:33Z</time>
      </trkpt>
      <trkpt lat="42.130209" lon="-3.207699">
        <ele>1092.37</ele>
        <time>2021-03-27T15:24:34Z</time>
      </trkpt>
      <trkpt lat="42.130137" lon="-3.208476">
        <ele>1086.19</ele>
        <time>2021-03-27T15:24:36Z</time>
      </trkpt>
      <trkpt lat="42.13005" lon="-3.209013">
        <ele>1086.47</ele>
        <time>2021-03-27T15:24:37Z</time>
      </trkpt>
      <trkpt lat="42.129797" lon="-3.209779">
        <ele>1094.88</ele>
        <time>2021-03-27T15:24:38Z</time>
      </trkpt>
      <trkpt lat="42.129588" lon="-3.210226">
        <ele>1096.81</ele>
        <time>2021-03-27T15:24:40Z</time>
      </trkpt>
      <trkpt lat="42.129318" lon="-3.210747">
        <ele>1097.91</ele>
        <time>2021-03-27T15:24:41Z</time>
      </trkpt>
      <trkpt lat="42.128678" lon="-3.211731">
        <ele>1088.37</ele>
        <time>2021-03-27T15:24:42Z</time>
      </trkpt>
      <trkpt lat="42.128494" lon="-3.212116">
        <ele>1087.0</ele>
        <time>2021-03-27T15:24:44Z</time>
      </trkpt>
      <trkpt lat="42.128423" lon="-3.212337">
        <ele>1088.11</ele>
        <time>2021-03-27T15:24:45Z</time>
      </trkpt>
      <trkpt lat="42.128355" lon="-3.212619">
        <ele>1087.25</ele>
        <time>2021-03-27T15:24:46Z</time>
      </trkpt>
      <trkpt lat="42.128289" lon="-3.213154">
        <ele>1083.28</ele>
        <time>2021-03-27T15:24:48Z</time>
      </trkpt>
      <trkpt lat="42.128282" lon="-3.213375">
        <ele>1080.63</ele>
        <time>2021-03-27T15:24:49Z</time>
      </trkpt>
      <trkpt lat="42.128297" lon="-3.213548">
        <ele>1079.1</ele>
        <time>2021-03-27T15:24:50Z</time>
      </trkpt>
      <trkpt lat="42.128345" lon="-3.213773">
        <ele>1077.41</ele>
        <time>2021-03-27T15:24:52Z</time>
      </trkpt>
      <trkpt lat="42.1284" lon="-3.213947">
        <ele>1079.31</ele>
        <time>2021-03-27T15:24:53Z</time>
      </trkpt>
      <trkpt lat="42.128557" lon="-3.214317">
        <ele>1083.01</ele>
        <time>2021-03-27T15:24:54Z</time>
      </trkpt>
      <trkpt lat="42.128776" lon="-3.214899">
        <ele>1079.88</ele>
        <time>2021-03-27T15:24:56Z</time>
      </trkpt>
      <trkpt lat="42.128918" lon="-3.215192">
        <ele>1079.31</ele>
        <time>2021-03-27T15:24:57Z</time>
      </trkpt>
      <trkpt lat="42.129072" lon="-3.215454">
        <ele>1082.45</ele>
        <time>2021-03-27T15:24:58Z</time>
      </trkpt>
      <trkpt lat="42.129183" lon="-3.215706">
        <ele>1082.84</ele>
        <time>2021-03-27T15:25:00Z</time>
      </trkpt>
      <trkpt lat="42.129253" lon="-3.215907">
        <ele>1082.66</ele>
        <time>2021-03-27T15:25:01Z</time>
      </trkpt>
      <trkpt lat="42.129312" lon="-3.216152">
        <ele>1082.81</ele>
        <time>2021-03-27T15:25:02Z</time>
      </trkpt>
      <trkpt lat="42.129329" lon="-3.216278">
        <ele>1083.9</ele>
        <time>2021-03-27T15:25:03Z</time>
      </trkpt>
      <trkpt lat="42.129312" lon="-3.216587">
        <ele>1086.63</ele>
        <time>2021-03-27T15:25:05Z</time>
      </trkpt>
      <trkpt lat="42.129246" lon="-3.216839">
        <ele>1088.0</ele>
        <time>2021-03-27T15:25:06Z</time>
      </trkpt>
      <trkpt lat="42.129183" lon="-3.216972">
        <ele>1087.73</ele>
        <time>2021-03-27T15:25:07Z</time>
      </trkpt>
      <trkpt lat="42.129094" lon="-3.217094">
        <ele>1088.48</ele>
        <time>2021-03-27T15:25:09Z</time>
      </trkpt>
      <trkpt lat="42.128948" lon="-3.21722">
        <ele>1086.31</ele>
        <time>2021-03-27T15:25:10Z</time>
      </trkpt>
      <trkpt lat="42.128837" lon="-3.217288">
        <ele>1085.26</ele>
        <time>2021-03-27T15:25:11Z</time>
      </trkpt>
      <trkpt lat="42.128731" lon="-3.217322">
        <ele>1084.77</ele>
        <time>2021-03-27T15:25:13Z</time>
      </trkpt>
      <trkpt lat="42.128592" lon="-3.217329">
        <ele>1083.6</ele>
        <time>2021-03-27T15:25:14Z</time>
      </trkpt>
      <trkpt lat="42.128489" lon="-3.217309">
        <ele>1084.58</ele>
        <time>2021-03-27T15:25:15Z</time>
      </trkpt>
      <trkpt lat="42.128246" lon="-3.217183">
        <ele>1084.76</ele>
        <time>2021-03-27T15:25:17Z</time>
      </trkpt>
      <trkpt lat="42.128095" lon="-3.217013">
        <ele>1084.26</ele>
        <time>2021-03-27T15:25:18Z</time>
      </trkpt>
      <trkpt lat="42.127966" lon="-3.216809">
        <ele>1082.33</ele>
        <time>2021-03-27T15:25:19Z</time>
      </trkpt>
      <trkpt lat="42.127848" lon="-3.216682">
        <ele>1081.56</ele>
        <time>2021-03-27T15:25:21Z</time>
      </trkpt>
      <trkpt lat="42.127773" lon="-3.216619">
        <ele>1081.69</ele>
        <time>2021-03-27T15:25:22Z</time>
      </trkpt>
      <trkpt lat="42.127626" lon="-3.216552">
        <ele>1081.22</ele>
        <time>2021-03-27T15:25:23Z</time>
      </trkpt>
      <trkpt lat="42.12745" lon="-3.216538">
        <ele>1081.05</ele>
        <time>2021-03-27T15:25:25Z</time>
      </trkpt>
      <trkpt lat="42.127271" lon="-3.216584">
        <ele>1082.06</ele>
        <time>2021-03-27T15:25:26Z</time>
      </trkpt>
      <trkpt lat="42.127074" lon="-3.2167">
        <ele>1080.2</ele>
        <time>2021-03-27T15:25:27Z</time>
      </trkpt>
      <trkpt lat="42.126917" lon="-3.21685">
        <ele>1078.33</ele>
        <time>2021-03-27T15:25:29Z</time>
      </trkpt>
      <trkpt lat="42.12679" lon="-3.217107">
        <ele>1079.5</ele>
        <time>2021-03-27T15:25:30Z</time>
      </trkpt>
      <trkpt lat="42.126772" lon="-3.217198">
        <ele>1079.49</ele>
        <time>2021-03-27T15:25:31Z</time>
      </trkpt>
      <trkpt lat="42.126715" lon="-3.218244">
        <ele>1081.22</ele>
        <time>2021-03-27T15:25:33Z</time>
      </trkpt>
      <trkpt lat="42.126659" lon="-3.218616">
        <ele>1080.84</ele>
        <time>2021-03-27T15:25:34Z</time>
      </trkpt>
      <trkpt lat="42.126087" lon="-3.220348">
        <ele>1081.58</ele>
        <time>2021-03-27T15:25:35Z</time>
      </trkpt>
      <trkpt lat="42.126016" lon="-3.220648">
        <ele>1079.86</ele>
        <time>2021-03-27T15:25:37Z</time>
      </trkpt>
      <trkpt lat="42.125984" lon="-3.220938">
        <ele>1077.53</ele>
        <time>2021-03-27T15:25:38Z</time>
      </trkpt>
      <trkpt lat="42.125996" lon="-3.221611">
        <ele>1075.92</ele>
        <time>2021-03-27T15:25:39Z</time>
      </trkpt>
      <trkpt lat="42.125916" lon="-3.222044">
        <ele>1075.57</ele>
        <time>2021-03-27T15:25:41Z</time>
      </trkpt>
      <trkpt lat="42.125833" lon="-3.222328">
        <ele>1071.99</ele>
        <time>2021-03-27T15:25:42Z</time>
      </trkpt>
      <trkpt lat="42.125722" lon="-3.222493">
        <ele>1070.74</ele>
        <time>2021-03-27T15:25:43Z</time>
      </trkpt>
      <trkpt lat="42.125652" lon="-3.222554">
        <ele>1072.13</ele>
        <time>2021-03-27T15:25:44Z</time>
      </trkpt>
      <trkpt lat="42.125557" lon="-3.222606">
        <ele>1072.85</ele>
        <time>2021-03-27T15:25:46Z</time>
      </trkpt>
      <trkpt lat="42.125458" lon="-3.222626">
        <ele>1074.9</ele>
        <time>2021-03-27T15:25:47Z</time>
      </trkpt>
      <trkpt lat="42.125387" lon="-3.222622">
        <ele>1075.72</ele>
        <time>2021-03-27T15:25:48Z</time>
      </trkpt>
      <trkpt lat="42.125312" lon="-3.222587">
        <ele>1075.31</ele>
        <time>2021-03-27T15:25:50Z</time>
      </trkpt>
      <trkpt lat="42.125258" lon="-3.222552">
        <ele>1074.51</ele>
        <time>2021-03-27T15:25:51Z</time>
      </trkpt>
      <trkpt lat="42.125084" lon="-3.222367">
        <ele>1070.62</ele>
        <time>2021-03-27T15:25:52Z</time>
      </trkpt>
      <trkpt lat="42.124962" lon="-3.222288">
        <ele>1069.04</ele>
        <time>2021-03-27T15:25:54Z</time>
      </trkpt>
      <trkpt lat="42.124822" lon="-3.22223">
        <ele>1066.61</ele>
        <time>2021-03-27T15:25:55Z</time>
      </trkpt>
      <trkpt lat="42.124676" lon="-3.222214">
        <ele>1065.31</ele>
        <time>2021-03-27T15:25:56Z</time>
      </trkpt>
      <trkpt lat="42.124595" lon="-3.222242">
        <ele>1064.78</ele>
        <time>2021-03-27T15:25:58Z</time>
      </trkpt>
      <trkpt lat="42.124539" lon="-3.222287">
        <ele>1065.23</ele>
        <time>2021-03-27T15:25:59Z</time>
      </trkpt>
      <trkpt lat="42.124484" lon="-3.222353">
        <ele>1066.07</ele>
        <time>2021-03-27T15:26:00Z</time>
      </trkpt>
      <trkpt lat="42.123949" lon="-3.223364">
        <ele>1075.35</ele>
        <time>2021-03-27T15:26:02Z</time>
      </trkpt>
      <trkpt lat="42.123846" lon="-3.223533">
        <ele>1075.71</ele>
        <time>2021-03-27T15:26:03Z</time>
      </trkpt>
      <trkpt lat="42.123739" lon="-3.223669">
        <ele>1078.2</ele>
        <time>2021-03-27T15:26:04Z</time>
      </trkpt>
      <trkpt lat="42.123162" lon="-3.224316">
        <ele>1076.26</ele>
        <time>2021-03-27T15:26:06Z</time>
      </trkpt>
      <trkpt lat="42.122974" lon="-3.22445">
        <ele>1073.51</ele>
        <time>2021-03-27T15:26:07Z</time>
      </trkpt>
      <trkpt lat="42.122792" lon="-3.224504">
        <ele>1068.77</ele>
        <time>2021-03-27T15:26:08Z</time>
      </trkpt>
      <trkpt lat="42.122724" lon="-3.224546">
        <ele>1067.79</ele>
        <time>2021-03-27T15:26:10Z</time>
      </trkpt>
      <trkpt lat="42.122219" lon="-3.224944">
        <ele>1059.78</ele>
        <time>2021-03-27T15:26:11Z</time>
      </trkpt>
      <trkpt lat="42.122167" lon="-3.225019">
        <ele>1059.45</ele>
        <time>2021-03-27T15:26:12Z</time>
      </trkpt>
      <trkpt lat="42.121892" lon="-3.225575">
        <ele>1058.33</ele>
        <time>2021-03-27T15:26:14Z</time>
      </trkpt>
      <trkpt lat="42.121759" lon="-3.22576">
        <ele>1058.13</ele>
        <time>2021-03-27T15:26:15Z</time>
      </trkpt>
      <trkpt lat="42.121606" lon="-3.225924">
        <ele>1057.04</ele>
        <time>2021-03-27T15:26:16Z</time>
      </trkpt>
      <trkpt lat="42.120454" lon="-3.226936">
        <ele>1048.62</ele>
        <time>2021-03-27T15:26:18Z</time>
      </trkpt>
      <trkpt lat="42.120172" lon="-3.227228">
        <ele>1049.04</ele>
        <time>2021-03-27T15:26:19Z</time>
      </trkpt>
      <trkpt lat="42.120097" lon="-3.22733">
        <ele>1049.53</ele>
        <time>2021-03-27T15:26:20Z</time>
      </trkpt>
      <trkpt lat="42.119879" lon="-3.227765">
        <ele>1051.47</ele>
        <time>2021-03-27T15:26:22Z</time>
      </trkpt>
      <trkpt lat="42.11965" lon="-3.227597">
        <ele>1049.61</ele>
        <time>2021-03-27T15:26:26Z</time>
      </trkpt>
      <trkpt lat="42.11942" lon="-3.227315">
        <ele>1049.87</ele>
        <time>2021-03-27T15:26:30Z</time>
      </trkpt>
      <trkpt lat="42.119344" lon="-3.227268">
        <ele>1050.62</ele>
        <time>2021-03-27T15:26:35Z</time>
      </trkpt>
      <trkpt lat="42.119266" lon="-3.227274">
        <ele>1051.21</ele>
        <time>2021-03-27T15:26:39Z</time>
      </trkpt>
      <trkpt lat="42.118904" lon="-3.227522">
        <ele>1053.81</ele>
        <time>2021-03-27T15:26:43Z</time>
      </trkpt>
      <trkpt lat="42.118772" lon="-3.227532">
        <ele>1053.88</ele>
        <time>2021-03-27T15:26:48Z</time>
      </trkpt>
      <trkpt lat="42.118416" lon="-3.227405">
        <ele>1054.58</ele>
        <time>2021-03-27T15:26:52Z</time>
      </trkpt>
      <trkpt lat="42.118245" lon="-3.227389">
        <ele>1055.43</ele>
        <time>2021-03-27T15:26:57Z</time>
      </trkpt>
      <trkpt lat="42.118093" lon="-3.227412">
        <ele>1056.37</ele>
        <time>2021-03-27T15:27:01Z</time>
      </trkpt>
      <trkpt lat="42.117989" lon="-3.227399">
        <ele>1056.64</ele>
        <time>2021-03-27T15:27:05Z</time>
      </trkpt>
      <trkpt lat="42.117802" lon="-3.227285">
        <ele>1056.84</ele>
        <time>2021-03-27T15:27:10Z</time>
      </trkpt>
      <trkpt lat="42.117557" lon="-3.227082">
        <ele>1054.62</ele>
        <time>2021-03-27T15:27:14Z</time>
      </trkpt>
      <trkpt lat="42.117447" lon="-3.226934">
        <ele>1054.11</ele>
        <time>2021-03-27T15:27:18Z</time>
      </trkpt>
      <trkpt lat="42.117372" lon="-3.226731">
        <ele>1056.66</ele>
        <time>2021-03-27T15:27:23Z</time>
      </trkpt>
      <trkpt lat="42.117357" lon="-3.226093">
        <ele>1064.7</ele>
        <time>2021-03-27T15:27:27Z</time>
      </trkpt>
      <trkpt lat="42.117371" lon="-3.225974">
        <ele>1065.3</ele>
        <time>2021-03-27T15:27:32Z</time>
      </trkpt>
      <trkpt lat="42.11741" lon="-3.225875">
        <ele>1065.32</ele>
        <time>2021-03-27T15:27:36Z</time>
      </trkpt>
      <trkpt lat="42.117468" lon="-3.225785">
        <ele>1065.1</ele>
        <time>2021-03-27T15:27:40Z</time>
      </trkpt>
      <trkpt lat="42.117532" lon="-3.225725">
        <ele>1064.7</ele>
        <time>2021-03-27T15:27:45Z</time>
      </trkpt>
      <trkpt lat="42.117645" lon="-3.225661">
        <ele>1063.78</ele>
        <time>2021-03-27T15:27:49Z</time>
      </trkpt>
      <trkpt lat="42.118279" lon="-3.225385">
        <ele>1068.38</ele>
        <time>2021-03-27T15:27:54Z</time>
      </trkpt>
      <trkpt lat="42.118637" lon="-3.225159">
        <ele>1070.72</ele>
        <time>2021-03-27T15:27:58Z</time>
      </trkpt>
      <trkpt lat="42.119343" lon="-3.224514">
        <ele>1075.41</ele>
        <time>2021-03-27T15:28:02Z</time>
      </trkpt>
      <trkpt lat="42.119434" lon="-3.224342">
        <ele>1075.55</ele>
        <time>2021-03-27T15:28:07Z</time>
      </trkpt>
      <trkpt lat="42.119502" lon="-3.224093">
        <ele>1077.54</ele>
        <time>2021-03-27T15:28:11Z</time>
      </trkpt>
      <trkpt lat="42.119516" lon="-3.223983">
        <ele>1079.59</ele>
        <time>2021-03-27T15:28:15Z</time>
      </trkpt>
      <trkpt lat="42.119504" lon="-3.223011">
        <ele>1085.41</ele>
        <time>2021-03-27T15:28:20Z</time>
      </trkpt>
      <trkpt lat="42.119525" lon="-3.222913">
        <ele>1086.24</ele>
        <time>2021-03-27T15:28:24Z</time>
      </trkpt>
      <trkpt lat="42.119555" lon="-3.222824">
        <ele>1086.83</ele>
        <time>2021-03-27T15:28:29Z</time>
      </trkpt>
      <trkpt lat="42.119605" lon="-3.222752">
        <ele>1087.2</ele>
        <time>2021-03-27T15:28:33Z</time>
      </trkpt>
      <trkpt lat="42.119888" lon="-3.222526">
        <ele>1091.76</ele>
        <time>2021-03-27T15:28:37Z</time>
      </trkpt>
      <trkpt lat="42.119952" lon="-3.222382">
        <ele>1094.14</ele>
        <time>2021-03-27T15:28:42Z</time>
      </trkpt>
      <trkpt lat="42.119955" lon="-3.222301">
        <ele>1094.85</ele>
        <time>2021-03-27T15:28:46Z</time>
      </trkpt>
      <trkpt lat="42.119914" lon="-3.222126">
        <ele>1096.01</ele>
        <time>2021-03-27T15:28:50Z</time>
      </trkpt>
      <trkpt lat="42.118722" lon="-3.219186">
        <ele>1108.05</ele>
        <time>2021-03-27T15:28:55Z</time>
      </trkpt>
      <trkpt lat="42.118642" lon="-3.218947">
        <ele>1106.65</ele>
        <time>2021-03-27T15:28:59Z</time>
      </trkpt>
      <trkpt lat="42.118543" lon="-3.218458">
        <ele>1105.92</ele>
        <time>2021-03-27T15:29:04Z</time>
      </trkpt>
      <trkpt lat="42.118059" lon="-3.215445">
        <ele>1104.44</ele>
        <time>2021-03-27T15:29:08Z</time>
      </trkpt>
      <trkpt lat="42.11797" lon="-3.214585">
        <ele>1108.7</ele>
        <time>2021-03-27T15:29:12Z</time>
      </trkpt>
      <trkpt lat="42.117858" lon="-3.214109">
        <ele>1105.78</ele>
        <time>2021-03-27T15:29:17Z</time>
      </trkpt>
      <trkpt lat="42.117351" lon="-3.212717">
        <ele>1104.05</ele>
        <time>2021-03-27T15:29:21Z</time>
      </trkpt>
      <trkpt lat="42.117242" lon="-3.212369">
        <ele>1106.19</ele>
        <time>2021-03-27T15:29:25Z</time>
      </trkpt>
      <trkpt lat="42.116528" lon="-3.209803">
        <ele>1093.92</ele>
        <time>2021-03-27T15:29:30Z</time>
      </trkpt>
      <trkpt lat="42.11641" lon="-3.209482">
        <ele>1094.89</ele>
        <time>2021-03-27T15:29:34Z</time>
      </trkpt>
      <trkpt lat="42.11545" lon="-3.207671">
        <ele>1089.09</ele>
        <time>2021-03-27T15:29:39Z</time>
      </trkpt>
      <trkpt lat="42.115354" lon="-3.207454">
        <ele>1089.11</ele>
        <time>2021-03-27T15:29:43Z</time>
      </trkpt>
      <trkpt lat="42.115292" lon="-3.207223">
        <ele>1090.09</ele>
        <time>2021-03-27T15:29:47Z</time>
      </trkpt>
      <trkpt lat="42.115271" lon="-3.206786">
        <ele>1087.71</ele>
        <time>2021-03-27T15:29:52Z</time>
      </trkpt>
      <trkpt lat="42.115411" lon="-3.202769">
        <ele>1078.89</ele>
        <time>2021-03-27T15:29:56Z</time>
      </trkpt>
      <trkpt lat="42.115902" lon="-3.200163">
        <ele>1077.07</ele>
        <time>2021-03-27T15:30:00Z</time>
      </trkpt>
      <trkpt lat="42.115916" lon="-3.199971">
        <ele>1078.37</ele>
        <time>2021-03-27T15:30:05Z</time>
      </trkpt>
      <trkpt lat="42.1158" lon="-3.199269">
        <ele>1077.29</ele>
        <time>2021-03-27T15:30:09Z</time>
      </trkpt>
      <trkpt lat="42.115768" lon="-3.198977">
        <ele>1076.77</ele>
        <time>2021-03-27T15:30:14Z</time>
      </trkpt>
      <trkpt lat="42.115523" lon="-3.188597">
        <ele>1072.8</ele>
        <time>2021-03-27T15:30:18Z</time>
      </trkpt>
      <trkpt lat="42.115527" lon="-3.188292">
        <ele>1071.47</ele>
        <time>2021-03-27T15:30:22Z</time>
      </trkpt>
      <trkpt lat="42.115548" lon="-3.188025">
        <ele>1073.11</ele>
        <time>2021-03-27T15:30:27Z</time>
      </trkpt>
      <trkpt lat="42.115671" lon="-3.187288">
        <ele>1076.14</ele>
        <time>2021-03-27T15:30:31Z</time>
      </trkpt>
      <trkpt lat="42.115964" lon="-3.18633">
        <ele>1078.84</ele>
        <time>2021-03-27T15:30:35Z</time>
      </trkpt>
      <trkpt lat="42.116047" lon="-3.186165">
        <ele>1078.92</ele>
        <time>2021-03-27T15:30:40Z</time>
      </trkpt>
      <trkpt lat="42.116719" lon="-3.185092">
        <ele>1080.04</ele>
        <time>2021-03-27T15:30:44Z</time>
      </trkpt>
      <trkpt lat="42.116915" lon="-3.184848">
        <ele>1079.75</ele>
        <time>2021-03-27T15:30:49Z</time>
      </trkpt>
      <trkpt lat="42.117326" lon="-3.184463">
        <ele>1079.88</ele>
        <time>2021-03-27T15:30:53Z</time>
      </trkpt>
      <trkpt lat="42.117448" lon="-3.184315">
        <ele>1080.16</ele>
        <time>2021-03-27T15:30:57Z</time>
      </trkpt>
      <trkpt lat="42.11817" lon="-3.182033">
        <ele>1087.78</ele>
        <time>2021-03-27T15:31:02Z</time>
      </trkpt>
      <trkpt lat="42.118257" lon="-3.181854">
        <ele>1088.33</ele>
        <time>2021-03-27T15:31:06Z</time>
      </trkpt>
      <trkpt lat="42.118696" lon="-3.181294">
        <ele>1087.69</ele>
        <time>2021-03-27T15:31:11Z</time>
      </trkpt>
      <trkpt lat="42.118781" lon="-3.181087">
        <ele>1086.68</ele>
        <time>2021-03-27T15:31:15Z</time>
      </trkpt>
      <trkpt lat="42.119804" lon="-3.177122">
        <ele>1093.17</ele>
        <time>2021-03-27T15:31:19Z</time>
      </trkpt>
      <trkpt lat="42.119888" lon="-3.176674">
        <ele>1090.06</ele>
        <time>2021-03-27T15:31:24Z</time>
      </trkpt>
      <trkpt lat="42.120085" lon="-3.175314">
        <ele>1094.33</ele>
        <time>2021-03-27T15:31:28Z</time>
      </trkpt>
      <trkpt lat="42.120107" lon="-3.174985">
        <ele>1095.7</ele>
        <time>2021-03-27T15:31:32Z</time>
      </trkpt>
      <trkpt lat="42.120082" lon="-3.174556">
        <ele>1094.05</ele>
        <time>2021-03-27T15:31:37Z</time>
      </trkpt>
      <trkpt lat="42.119602" lon="-3.171692">
        <ele>1095.87</ele>
        <time>2021-03-27T15:31:41Z</time>
      </trkpt>
      <trkpt lat="42.119524" lon="-3.171294">
        <ele>1095.49</ele>
        <time>2021-03-27T15:31:46Z</time>
      </trkpt>
      <trkpt lat="42.119487" lon="-3.171179">
        <ele>1095.35</ele>
        <time>2021-03-27T15:31:50Z</time>
      </trkpt>
      <trkpt lat="42.119377" lon="-3.17102">
        <ele>1094.45</ele>
        <time>2021-03-27T15:31:54Z</time>
      </trkpt>
      <trkpt lat="42.118616" lon="-3.170423">
        <ele>1094.91</ele>
        <time>2021-03-27T15:31:59Z</time>
      </trkpt>
      <trkpt lat="42.11854" lon="-3.170325">
        <ele>1096.26</ele>
        <time>2021-03-27T15:32:03Z</time>
      </trkpt>
      <trkpt lat="42.118488" lon="-3.17021">
        <ele>1097.05</ele>
        <time>2021-03-27T15:32:07Z</time>
      </trkpt>
      <trkpt lat="42.118429" lon="-3.169946">
        <ele>1097.21</ele>
        <time>2021-03-27T15:32:12Z</time>
      </trkpt>
      <trkpt lat="42.117962" lon="-3.166348">
        <ele>1100.05</ele>
        <time>2021-03-27T15:32:16Z</time>
      </trkpt>
      <trkpt lat="42.117076" lon="-3.160322">
        <ele>1110.69</ele>
        <time>2021-03-27T15:32:21Z</time>
      </trkpt>
      <trkpt lat="42.117002" lon="-3.159877">
        <ele>1112.27</ele>
        <time>2021-03-27T15:32:25Z</time>
      </trkpt>
      <trkpt lat="42.116251" lon="-3.156164">
        <ele>1114.39</ele>
        <time>2021-03-27T15:32:29Z</time>
      </trkpt>
      <trkpt lat="42.116226" lon="-3.155753">
        <ele>1114.76</ele>
        <time>2021-03-27T15:32:34Z</time>
      </trkpt>
      <trkpt lat="42.116248" lon="-3.155461">
        <ele>1114.71</ele>
        <time>2021-03-27T15:32:38Z</time>
      </trkpt>
      <trkpt lat="42.116545" lon="-3.152477">
        <ele>1123.95</ele>
        <time>2021-03-27T15:32:42Z</time>
      </trkpt>
      <trkpt lat="42.116612" lon="-3.151896">
        <ele>1124.65</ele>
        <time>2021-03-27T15:32:47Z</time>
      </trkpt>
      <trkpt lat="42.116758" lon="-3.15086">
        <ele>1126.31</ele>
        <time>2021-03-27T15:32:51Z</time>
      </trkpt>
      <trkpt lat="42.116768" lon="-3.149794">
        <ele>1135.03</ele>
        <time>2021-03-27T15:32:56Z</time>
      </trkpt>
      <trkpt lat="42.116933" lon="-3.148837">
        <ele>1139.71</ele>
        <time>2021-03-27T15:33:00Z</time>
      </trkpt>
      <trkpt lat="42.116945" lon="-3.148402">
        <ele>1139.49</ele>
        <time>2021-03-27T15:33:04Z</time>
      </trkpt>
      <trkpt lat="42.11691" lon="-3.146358">
        <ele>1140.06</ele>
        <time>2021-03-27T15:33:09Z</time>
      </trkpt>
      <trkpt lat="42.116877" lon="-3.146081">
        <ele>1141.1</ele>
        <time>2021-03-27T15:33:13Z</time>
      </trkpt>
      <trkpt lat="42.116801" lon="-3.145861">
        <ele>1141.69</ele>
        <time>2021-03-27T15:33:17Z</time>
      </trkpt>
      <trkpt lat="42.116273" lon="-3.145092">
        <ele>1146.85</ele>
        <time>2021-03-27T15:33:22Z</time>
      </trkpt>
      <trkpt lat="42.115868" lon="-3.14533">
        <ele>1152.37</ele>
        <time>2021-03-27T15:33:24Z</time>
      </trkpt>
      <trkpt lat="42.115297" lon="-3.145881">
        <ele>1159.93</ele>
        <time>2021-03-27T15:33:27Z</time>
      </trkpt>
      <trkpt lat="42.115181" lon="-3.146013">
        <ele>1159.41</ele>
        <time>2021-03-27T15:33:29Z</time>
      </trkpt>
      <trkpt lat="42.114771" lon="-3.146641">
        <ele>1165.38</ele>
        <time>2021-03-27T15:33:32Z</time>
      </trkpt>
      <trkpt lat="42.114693" lon="-3.146709">
        <ele>1166.05</ele>
        <time>2021-03-27T15:33:34Z</time>
      </trkpt>
      <trkpt lat="42.114546" lon="-3.14675">
        <ele>1165.67</ele>
        <time>2021-03-27T15:33:37Z</time>
      </trkpt>
      <trkpt lat="42.114373" lon="-3.146853">
        <ele>1165.58</ele>
        <time>2021-03-27T15:33:39Z</time>
      </trkpt>
      <trkpt lat="42.113905" lon="-3.14719">
        <ele>1169.7</ele>
        <time>2021-03-27T15:33:42Z</time>
      </trkpt>
      <trkpt lat="42.113795" lon="-3.147307">
        <ele>1169.96</ele>
        <time>2021-03-27T15:33:44Z</time>
      </trkpt>
      <trkpt lat="42.113695" lon="-3.147571">
        <ele>1170.48</ele>
        <time>2021-03-27T15:33:47Z</time>
      </trkpt>
      <trkpt lat="42.113628" lon="-3.147861">
        <ele>1170.73</ele>
        <time>2021-03-27T15:33:49Z</time>
      </trkpt>
      <trkpt lat="42.113113" lon="-3.14855">
        <ele>1172.35</ele>
        <time>2021-03-27T15:33:52Z</time>
      </trkpt>
      <trkpt lat="42.112977" lon="-3.148631">
        <ele>1173.05</ele>
        <time>2021-03-27T15:33:54Z</time>
      </trkpt>
      <trkpt lat="42.112123" lon="-3.148599">
        <ele>1171.6</ele>
        <time>2021-03-27T15:33:57Z</time>
      </trkpt>
      <trkpt lat="42.111879" lon="-3.148608">
        <ele>1170.75</ele>
        <time>2021-03-27T15:33:59Z</time>
      </trkpt>
      <trkpt lat="42.11133" lon="-3.148761">
        <ele>1170.96</ele>
        <time>2021-03-27T15:34:02Z</time>
      </trkpt>
      <trkpt lat="42.110262" lon="-3.149002">
        <ele>1173.76</ele>
        <time>2021-03-27T15:34:04Z</time>
      </trkpt>
      <trkpt lat="42.109844" lon="-3.149063">
        <ele>1174.58</ele>
        <time>2021-03-27T15:34:07Z</time>
      </trkpt>
      <trkpt lat="42.109631" lon="-3.149001">
        <ele>1176.06</ele>
        <time>2021-03-27T15:34:09Z</time>
      </trkpt>
      <trkpt lat="42.109129" lon="-3.14879">
        <ele>1174.06</ele>
        <time>2021-03-27T15:34:12Z</time>
      </trkpt>
      <trkpt lat="42.107146" lon="-3.148457">
        <ele>1183.34</ele>
        <time>2021-03-27T15:34:14Z</time>
      </trkpt>
      <trkpt lat="42.106943" lon="-3.148347">
        <ele>1182.16</ele>
        <time>2021-03-27T15:34:17Z</time>
      </trkpt>
      <trkpt lat="42.10484" lon="-3.146782">
        <ele>1186.41</ele>
        <time>2021-03-27T15:34:19Z</time>
      </trkpt>
      <trkpt lat="42.103309" lon="-3.145462">
        <ele>1189.32</ele>
        <time>2021-03-27T15:34:22Z</time>
      </trkpt>
      <trkpt lat="42.103168" lon="-3.145401">
        <ele>1188.89</ele>
        <time>2021-03-27T15:34:24Z</time>
      </trkpt>
      <trkpt lat="42.10152" lon="-3.144959">
        <ele>1196.58</ele>
        <time>2021-03-27T15:34:27Z</time>
      </trkpt>
      <trkpt lat="42.101437" lon="-3.144922">
        <ele>1197.47</ele>
        <time>2021-03-27T15:34:29Z</time>
      </trkpt>
      <trkpt lat="42.101331" lon="-3.144807">
        <ele>1198.06</ele>
        <time>2021-03-27T15:34:32Z</time>
      </trkpt>
      <trkpt lat="42.101295" lon="-3.144722">
        <ele>1198.0</ele>
        <time>2021-03-27T15:34:34Z</time>
      </trkpt>
      <trkpt lat="42.101282" lon="-3.144641">
        <ele>1198.58</ele>
        <time>2021-03-27T15:34:37Z</time>
      </trkpt>
      <trkpt lat="42.101297" lon="-3.144531">
        <ele>1199.38</ele>
        <time>2021-03-27T15:34:39Z</time>
      </trkpt>
      <trkpt lat="42.10133" lon="-3.144452">
        <ele>1199.94</ele>
        <time>2021-03-27T15:34:42Z</time>
      </trkpt>
      <trkpt lat="42.101415" lon="-3.144336">
        <ele>1202.56</ele>
        <time>2021-03-27T15:34:44Z</time>
      </trkpt>
      <trkpt lat="42.101523" lon="-3.144277">
        <ele>1203.14</ele>
        <time>2021-03-27T15:34:47Z</time>
      </trkpt>
      <trkpt lat="42.101853" lon="-3.144156">
        <ele>1203.58</ele>
        <time>2021-03-27T15:34:49Z</time>
      </trkpt>
      <trkpt lat="42.102071" lon="-3.144173">
        <ele>1205.16</ele>
        <time>2021-03-27T15:34:52Z</time>
      </trkpt>
      <trkpt lat="42.102455" lon="-3.144295">
        <ele>1205.67</ele>
        <time>2021-03-27T15:34:54Z</time>
      </trkpt>
      <trkpt lat="42.102578" lon="-3.144315">
        <ele>1205.09</ele>
        <time>2021-03-27T15:34:57Z</time>
      </trkpt>
      <trkpt lat="42.102673" lon="-3.144303">
        <ele>1205.27</ele>
        <time>2021-03-27T15:34:59Z</time>
      </trkpt>
      <trkpt lat="42.102895" lon="-3.1442">
        <ele>1207.05</ele>
        <time>2021-03-27T15:35:02Z</time>
      </trkpt>
      <trkpt lat="42.103626" lon="-3.143441">
        <ele>1217.23</ele>
        <time>2021-03-27T15:35:04Z</time>
      </trkpt>
      <trkpt lat="42.103808" lon="-3.143206">
        <ele>1219.76</ele>
        <time>2021-03-27T15:35:07Z</time>
      </trkpt>
      <trkpt lat="42.103867" lon="-3.143095">
        <ele>1220.67</ele>
        <time>2021-03-27T15:35:09Z</time>
      </trkpt>
      <trkpt lat="42.103904" lon="-3.142981">
        <ele>1221.21</ele>
        <time>2021-03-27T15:35:12Z</time>
      </trkpt>
      <trkpt lat="42.103915" lon="-3.142892">
        <ele>1221.61</ele>
        <time>2021-03-27T15:35:14Z</time>
      </trkpt>
      <trkpt lat="42.103906" lon="-3.142451">
        <ele>1222.87</ele>
        <time>2021-03-27T15:35:17Z</time>
      </trkpt>
      <trkpt lat="42.103897" lon="-3.142358">
        <ele>1223.38</ele>
        <time>2021-03-27T15:35:19Z</time>
      </trkpt>
      <trkpt lat="42.103861" lon="-3.142232">
        <ele>1224.07</ele>
        <time>2021-03-27T15:35:22Z</time>
      </trkpt>
      <trkpt lat="42.103793" lon="-3.142134">
        <ele>1225.09</ele>
        <time>2021-03-27T15:35:24Z</time>
      </trkpt>
      <trkpt lat="42.10373" lon="-3.142077">
        <ele>1225.91</ele>
        <time>2021-03-27T15:35:27Z</time>
      </trkpt>
      <trkpt lat="42.103189" lon="-3.141702">
        <ele>1228.42</ele>
        <time>2021-03-27T15:35:29Z</time>
      </trkpt>
      <trkpt lat="42.100916" lon="-3.140285">
        <ele>1222.35</ele>
        <time>2021-03-27T15:35:32Z</time>
      </trkpt>
      <trkpt lat="42.100815" lon="-3.140152">
        <ele>1220.54</ele>
        <time>2021-03-27T15:35:34Z</time>
      </trkpt>
      <trkpt lat="42.100712" lon="-3.139868">
        <ele>1217.34</ele>
        <time>2021-03-27T15:35:37Z</time>
      </trkpt>
      <trkpt lat="42.100605" lon="-3.139428">
        <ele>1214.17</ele>
        <time>2021-03-27T15:35:39Z</time>
      </trkpt>
      <trkpt lat="42.100568" lon="-3.139338">
        <ele>1214.03</ele>
        <time>2021-03-27T15:35:42Z</time>
      </trkpt>
      <trkpt lat="42.100494" lon="-3.139232">
        <ele>1214.27</ele>
        <time>2021-03-27T15:35:44Z</time>
      </trkpt>
      <trkpt lat="42.100445" lon="-3.139195">
        <ele>1214.44</ele>
        <time>2021-03-27T15:35:47Z</time>
      </trkpt>
      <trkpt lat="42.100322" lon="-3.13916">
        <ele>1214.82</ele>
        <time>2021-03-27T15:35:49Z</time>
      </trkpt>
      <trkpt lat="42.10015" lon="-3.139185">
        <ele>1215.01</ele>
        <time>2021-03-27T15:35:52Z</time>
      </trkpt>
      <trkpt lat="42.100025" lon="-3.13924">
        <ele>1214.78</ele>
        <time>2021-03-27T15:35:54Z</time>
      </trkpt>
      <trkpt lat="42.099779" lon="-3.139387">
        <ele>1212.12</ele>
        <time>2021-03-27T15:35:57Z</time>
      </trkpt>
      <trkpt lat="42.099561" lon="-3.139543">
        <ele>1210.24</ele>
        <time>2021-03-27T15:35:59Z</time>
      </trkpt>
      <trkpt lat="42.099467" lon="-3.139589">
        <ele>1209.32</ele>
        <time>2021-03-27T15:36:02Z</time>
      </trkpt>
      <trkpt lat="42.099352" lon="-3.139586">
        <ele>1208.18</ele>
        <time>2021-03-27T15:36:04Z</time>
      </trkpt>
      <trkpt lat="42.099281" lon="-3.139547">
        <ele>1207.34</ele>
        <time>2021-03-27T15:36:07Z</time>
      </trkpt>
      <trkpt lat="42.09909" lon="-3.139251">
        <ele>1206.08</ele>
        <time>2021-03-27T15:36:09Z</time>
      </trkpt>
      <trkpt lat="42.098864" lon="-3.138983">
        <ele>1204.68</ele>
        <time>2021-03-27T15:36:12Z</time>
      </trkpt>
      <trkpt lat="42.097851" lon="-3.13786">
        <ele>1201.17</ele>
        <time>2021-03-27T15:36:14Z</time>
      </trkpt>
      <trkpt lat="42.097827" lon="-3.137798">
        <ele>1200.94</ele>
        <time>2021-03-27T15:36:17Z</time>
      </trkpt>
      <trkpt lat="42.097826" lon="-3.137735">
        <ele>1201.06</ele>
        <time>2021-03-27T15:36:19Z</time>
      </trkpt>
      <trkpt lat="42.097838" lon="-3.137677">
        <ele>1201.38</ele>
        <time>2021-03-27T15:36:22Z</time>
      </trkpt>
      <trkpt lat="42.097903" lon="-3.137597">
        <ele>1202.08</ele>
        <time>2021-03-27T15:36:24Z</time>
      </trkpt>
      <trkpt lat="42.09813" lon="-3.137549">
        <ele>1202.76</ele>
        <time>2021-03-27T15:36:27Z</time>
      </trkpt>
      <trkpt lat="42.098307" lon="-3.137458">
        <ele>1202.77</ele>
        <time>2021-03-27T15:36:29Z</time>
      </trkpt>
      <trkpt lat="42.098743" lon="-3.137069">
        <ele>1204.87</ele>
        <time>2021-03-27T15:36:32Z</time>
      </trkpt>
      <trkpt lat="42.099526" lon="-3.136154">
        <ele>1214.47</ele>
        <time>2021-03-27T15:36:34Z</time>
      </trkpt>
      <trkpt lat="42.099615" lon="-3.135984">
        <ele>1215.86</ele>
        <time>2021-03-27T15:36:37Z</time>
      </trkpt>
      <trkpt lat="42.099638" lon="-3.135762">
        <ele>1217.32</ele>
        <time>2021-03-27T15:36:39Z</time>
      </trkpt>
      <trkpt lat="42.099629" lon="-3.13535">
        <ele>1217.93</ele>
        <time>2021-03-27T15:36:42Z</time>
      </trkpt>
      <trkpt lat="42.099587" lon="-3.13518">
        <ele>1219.06</ele>
        <time>2021-03-27T15:36:44Z</time>
      </trkpt>
      <trkpt lat="42.09949" lon="-3.134921">
        <ele>1222.77</ele>
        <time>2021-03-27T15:36:47Z</time>
      </trkpt>
      <trkpt lat="42.099033" lon="-3.1339">
        <ele>1231.43</ele>
        <time>2021-03-27T15:36:49Z</time>
      </trkpt>
      <trkpt lat="42.098968" lon="-3.13372">
        <ele>1232.74</ele>
        <time>2021-03-27T15:36:52Z</time>
      </trkpt>
      <trkpt lat="42.098592" lon="-3.132204">
        <ele>1239.33</ele>
        <time>2021-03-27T15:36:54Z</time>
      </trkpt>
      <trkpt lat="42.098448" lon="-3.131707">
        <ele>1240.52</ele>
        <time>2021-03-27T15:36:56Z</time>
      </trkpt>
      <trkpt lat="42.098373" lon="-3.131594">
        <ele>1239.03</ele>
        <time>2021-03-27T15:36:59Z</time>
      </trkpt>
      <trkpt lat="42.098238" lon="-3.131516">
        <ele>1238.52</ele>
        <time>2021-03-27T15:37:01Z</time>
      </trkpt>
      <trkpt lat="42.098118" lon="-3.131474">
        <ele>1238.77</ele>
        <time>2021-03-27T15:37:04Z</time>
      </trkpt>
      <trkpt lat="42.097612" lon="-3.131483">
        <ele>1235.11</ele>
        <time>2021-03-27T15:37:06Z</time>
      </trkpt>
      <trkpt lat="42.097304" lon="-3.131354">
        <ele>1230.58</ele>
        <time>2021-03-27T15:37:09Z</time>
      </trkpt>
      <trkpt lat="42.096764" lon="-3.131284">
        <ele>1228.49</ele>
        <time>2021-03-27T15:37:11Z</time>
      </trkpt>
      <trkpt lat="42.096375" lon="-3.131184">
        <ele>1227.24</ele>
        <time>2021-03-27T15:37:14Z</time>
      </trkpt>
      <trkpt lat="42.095922" lon="-3.131208">
        <ele>1225.76</ele>
        <time>2021-03-27T15:37:16Z</time>
      </trkpt>
      <trkpt lat="42.095532" lon="-3.131206">
        <ele>1222.01</ele>
        <time>2021-03-27T15:37:19Z</time>
      </trkpt>
      <trkpt lat="42.095169" lon="-3.131035">
        <ele>1217.53</ele>
        <time>2021-03-27T15:37:21Z</time>
      </trkpt>
      <trkpt lat="42.094961" lon="-3.130967">
        <ele>1216.29</ele>
        <time>2021-03-27T15:37:24Z</time>
      </trkpt>
      <trkpt lat="42.094884" lon="-3.130892">
        <ele>1215.27</ele>
        <time>2021-03-27T15:37:26Z</time>
      </trkpt>
      <trkpt lat="42.094864" lon="-3.13084">
        <ele>1214.14</ele>
        <time>2021-03-27T15:37:29Z</time>
      </trkpt>
      <trkpt lat="42.094853" lon="-3.130672">
        <ele>1213.48</ele>
        <time>2021-03-27T15:37:31Z</time>
      </trkpt>
      <trkpt lat="42.094881" lon="-3.13053">
        <ele>1213.0</ele>
        <time>2021-03-27T15:37:34Z</time>
      </trkpt>
      <trkpt lat="42.094969" lon="-3.130391">
        <ele>1213.34</ele>
        <time>2021-03-27T15:37:36Z</time>
      </trkpt>
      <trkpt lat="42.095788" lon="-3.129433">
        <ele>1214.83</ele>
        <time>2021-03-27T15:37:39Z</time>
      </trkpt>
      <trkpt lat="42.096102" lon="-3.129116">
        <ele>1215.84</ele>
        <time>2021-03-27T15:37:41Z</time>
      </trkpt>
      <trkpt lat="42.096184" lon="-3.128955">
        <ele>1218.04</ele>
        <time>2021-03-27T15:37:44Z</time>
      </trkpt>
      <trkpt lat="42.096305" lon="-3.128569">
        <ele>1224.66</ele>
        <time>2021-03-27T15:37:46Z</time>
      </trkpt>
      <trkpt lat="42.096387" lon="-3.128399">
        <ele>1226.83</ele>
        <time>2021-03-27T15:37:49Z</time>
      </trkpt>
      <trkpt lat="42.096853" lon="-3.12796">
        <ele>1225.8</ele>
        <time>2021-03-27T15:37:51Z</time>
      </trkpt>
      <trkpt lat="42.097056" lon="-3.127693">
        <ele>1226.1</ele>
        <time>2021-03-27T15:37:54Z</time>
      </trkpt>
      <trkpt lat="42.097131" lon="-3.127483">
        <ele>1228.94</ele>
        <time>2021-03-27T15:37:56Z</time>
      </trkpt>
      <trkpt lat="42.097313" lon="-3.126609">
        <ele>1232.02</ele>
        <time>2021-03-27T15:37:59Z</time>
      </trkpt>
      <trkpt lat="42.097321" lon="-3.126509">
        <ele>1231.28</ele>
        <time>2021-03-27T15:38:01Z</time>
      </trkpt>
      <trkpt lat="42.09729" lon="-3.126089">
        <ele>1229.48</ele>
        <time>2021-03-27T15:38:04Z</time>
      </trkpt>
      <trkpt lat="42.097075" lon="-3.124052">
        <ele>1247.33</ele>
        <time>2021-03-27T15:38:06Z</time>
      </trkpt>
      <trkpt lat="42.097057" lon="-3.123665">
        <ele>1245.57</ele>
        <time>2021-03-27T15:38:09Z</time>
      </trkpt>
      <trkpt lat="42.097343" lon="-3.122052">
        <ele>1242.78</ele>
        <time>2021-03-27T15:38:11Z</time>
      </trkpt>
      <trkpt lat="42.097353" lon="-3.12187">
        <ele>1242.53</ele>
        <time>2021-03-27T15:38:14Z</time>
      </trkpt>
      <trkpt lat="42.097333" lon="-3.121713">
        <ele>1242.6</ele>
        <time>2021-03-27T15:38:16Z</time>
      </trkpt>
      <trkpt lat="42.096577" lon="-3.119024">
        <ele>1230.71</ele>
        <time>2021-03-27T15:38:19Z</time>
      </trkpt>
      <trkpt lat="42.096505" lon="-3.118806">
        <ele>1233.3</ele>
        <time>2021-03-27T15:38:21Z</time>
      </trkpt>
      <trkpt lat="42.096466" lon="-3.118744">
        <ele>1233.91</ele>
        <time>2021-03-27T15:38:24Z</time>
      </trkpt>
      <trkpt lat="42.096362" lon="-3.118661">
        <ele>1234.54</ele>
        <time>2021-03-27T15:38:26Z</time>
      </trkpt>
      <trkpt lat="42.095623" lon="-3.118299">
        <ele>1236.88</ele>
        <time>2021-03-27T15:38:29Z</time>
      </trkpt>
      <trkpt lat="42.095328" lon="-3.118106">
        <ele>1239.6</ele>
        <time>2021-03-27T15:38:31Z</time>
      </trkpt>
      <trkpt lat="42.095261" lon="-3.117987">
        <ele>1240.25</ele>
        <time>2021-03-27T15:38:34Z</time>
      </trkpt>
      <trkpt lat="42.095239" lon="-3.117818">
        <ele>1240.85</ele>
        <time>2021-03-27T15:38:36Z</time>
      </trkpt>
      <trkpt lat="42.09528" lon="-3.117471">
        <ele>1240.35</ele>
        <time>2021-03-27T15:38:39Z</time>
      </trkpt>
      <trkpt lat="42.09528" lon="-3.117471">
        <ele>1240.35</ele>
        <time>2021-03-27T15:38:39Z</time>
      </trkpt>
      <trkpt lat="42.095448" lon="-3.116156">
        <ele>1239.06</ele>
        <time>2021-03-27T15:38:41Z</time>
      </trkpt>
      <trkpt lat="42.095445" lon="-3.115937">
        <ele>1239.2</ele>
        <time>2021-03-27T15:38:44Z</time>
      </trkpt>
      <trkpt lat="42.095427" lon="-3.115831">
        <ele>1239.38</ele>
        <time>2021-03-27T15:38:46Z</time>
      </trkpt>
      <trkpt lat="42.095362" lon="-3.115654">
        <ele>1239.64</ele>
        <time>2021-03-27T15:38:48Z</time>
      </trkpt>
      <trkpt lat="42.0951" lon="-3.115167">
        <ele>1238.02</ele>
        <time>2021-03-27T15:38:51Z</time>
      </trkpt>
      <trkpt lat="42.094832" lon="-3.114587">
        <ele>1231.81</ele>
        <time>2021-03-27T15:38:53Z</time>
      </trkpt>
      <trkpt lat="42.094782" lon="-3.114402">
        <ele>1232.42</ele>
        <time>2021-03-27T15:38:55Z</time>
      </trkpt>
      <trkpt lat="42.09479" lon="-3.114149">
        <ele>1236.35</ele>
        <time>2021-03-27T15:38:58Z</time>
      </trkpt>
      <trkpt lat="42.094824" lon="-3.114069">
        <ele>1238.02</ele>
        <time>2021-03-27T15:39:00Z</time>
      </trkpt>
      <trkpt lat="42.094882" lon="-3.114015">
        <ele>1239.36</ele>
        <time>2021-03-27T15:39:02Z</time>
      </trkpt>
      <trkpt lat="42.094995" lon="-3.113985">
        <ele>1240.56</ele>
        <time>2021-03-27T15:39:05Z</time>
      </trkpt>
      <trkpt lat="42.095598" lon="-3.114087">
        <ele>1240.25</ele>
        <time>2021-03-27T15:39:07Z</time>
      </trkpt>
      <trkpt lat="42.095947" lon="-3.114096">
        <ele>1236.81</ele>
        <time>2021-03-27T15:39:09Z</time>
      </trkpt>
      <trkpt lat="42.09615" lon="-3.114086">
        <ele>1236.34</ele>
        <time>2021-03-27T15:39:12Z</time>
      </trkpt>
      <trkpt lat="42.096229" lon="-3.11406">
        <ele>1237.47</ele>
        <time>2021-03-27T15:39:14Z</time>
      </trkpt>
      <trkpt lat="42.096407" lon="-3.11395">
        <ele>1240.08</ele>
        <time>2021-03-27T15:39:16Z</time>
      </trkpt>
      <trkpt lat="42.096971" lon="-3.113452">
        <ele>1239.64</ele>
        <time>2021-03-27T15:39:19Z</time>
      </trkpt>
      <trkpt lat="42.097037" lon="-3.11331">
        <ele>1238.92</ele>
        <time>2021-03-27T15:39:21Z</time>
      </trkpt>
      <trkpt lat="42.097051" lon="-3.113141">
        <ele>1240.4</ele>
        <time>2021-03-27T15:39:23Z</time>
      </trkpt>
      <trkpt lat="42.097038" lon="-3.113077">
        <ele>1241.39</ele>
        <time>2021-03-27T15:39:26Z</time>
      </trkpt>
      <trkpt lat="42.096782" lon="-3.112448">
        <ele>1248.0</ele>
        <time>2021-03-27T15:39:28Z</time>
      </trkpt>
      <trkpt lat="42.096681" lon="-3.112032">
        <ele>1250.47</ele>
        <time>2021-03-27T15:39:30Z</time>
      </trkpt>
      <trkpt lat="42.09666" lon="-3.111706">
        <ele>1250.35</ele>
        <time>2021-03-27T15:39:33Z</time>
      </trkpt>
      <trkpt lat="42.096665" lon="-3.111514">
        <ele>1249.49</ele>
        <time>2021-03-27T15:39:35Z</time>
      </trkpt>
      <trkpt lat="42.096738" lon="-3.110154">
        <ele>1250.8</ele>
        <time>2021-03-27T15:39:38Z</time>
      </trkpt>
      <trkpt lat="42.096715" lon="-3.109942">
        <ele>1251.38</ele>
        <time>2021-03-27T15:39:40Z</time>
      </trkpt>
      <trkpt lat="42.096679" lon="-3.109845">
        <ele>1252.14</ele>
        <time>2021-03-27T15:39:42Z</time>
      </trkpt>
      <trkpt lat="42.096422" lon="-3.1094">
        <ele>1255.78</ele>
        <time>2021-03-27T15:39:45Z</time>
      </trkpt>
      <trkpt lat="42.096383" lon="-3.109282">
        <ele>1256.05</ele>
        <time>2021-03-27T15:39:47Z</time>
      </trkpt>
      <trkpt lat="42.09637" lon="-3.109188">
        <ele>1256.14</ele>
        <time>2021-03-27T15:39:49Z</time>
      </trkpt>
      <trkpt lat="42.096383" lon="-3.108962">
        <ele>1255.32</ele>
        <time>2021-03-27T15:39:52Z</time>
      </trkpt>
      <trkpt lat="42.096493" lon="-3.108143">
        <ele>1244.75</ele>
        <time>2021-03-27T15:39:54Z</time>
      </trkpt>
      <trkpt lat="42.096493" lon="-3.107877">
        <ele>1243.56</ele>
        <time>2021-03-27T15:39:56Z</time>
      </trkpt>
      <trkpt lat="42.096464" lon="-3.107616">
        <ele>1244.2</ele>
        <time>2021-03-27T15:39:59Z</time>
      </trkpt>
      <trkpt lat="42.096367" lon="-3.107174">
        <ele>1247.4</ele>
        <time>2021-03-27T15:40:01Z</time>
      </trkpt>
      <trkpt lat="42.095921" lon="-3.105784">
        <ele>1249.39</ele>
        <time>2021-03-27T15:40:03Z</time>
      </trkpt>
      <trkpt lat="42.095409" lon="-3.104914">
        <ele>1249.58</ele>
        <time>2021-03-27T15:40:06Z</time>
      </trkpt>
      <trkpt lat="42.095186" lon="-3.104391">
        <ele>1252.65</ele>
        <time>2021-03-27T15:40:08Z</time>
      </trkpt>
      <trkpt lat="42.094826" lon="-3.103446">
        <ele>1255.7</ele>
        <time>2021-03-27T15:40:10Z</time>
      </trkpt>
      <trkpt lat="42.094741" lon="-3.103128">
        <ele>1256.05</ele>
        <time>2021-03-27T15:40:13Z</time>
      </trkpt>
      <trkpt lat="42.094698" lon="-3.102793">
        <ele>1257.11</ele>
        <time>2021-03-27T15:40:15Z</time>
      </trkpt>
      <trkpt lat="42.094618" lon="-3.102406">
        <ele>1258.87</ele>
        <time>2021-03-27T15:40:17Z</time>
      </trkpt>
      <trkpt lat="42.094483" lon="-3.101606">
        <ele>1263.7</ele>
        <time>2021-03-27T15:40:20Z</time>
      </trkpt>
      <trkpt lat="42.094423" lon="-3.101155">
        <ele>1260.62</ele>
        <time>2021-03-27T15:40:22Z</time>
      </trkpt>
      <trkpt lat="42.094434" lon="-3.100532">
        <ele>1263.05</ele>
        <time>2021-03-27T15:40:24Z</time>
      </trkpt>
      <trkpt lat="42.094532" lon="-3.099234">
        <ele>1272.32</ele>
        <time>2021-03-27T15:40:27Z</time>
      </trkpt>
      <trkpt lat="42.095007" lon="-3.09716">
        <ele>1279.32</ele>
        <time>2021-03-27T15:40:29Z</time>
      </trkpt>
      <trkpt lat="42.095085" lon="-3.096942">
        <ele>1280.92</ele>
        <time>2021-03-27T15:40:31Z</time>
      </trkpt>
      <trkpt lat="42.095145" lon="-3.096842">
        <ele>1281.76</ele>
        <time>2021-03-27T15:40:34Z</time>
      </trkpt>
      <trkpt lat="42.095223" lon="-3.096735">
        <ele>1283.01</ele>
        <time>2021-03-27T15:40:36Z</time>
      </trkpt>
      <trkpt lat="42.095716" lon="-3.096193">
        <ele>1289.19</ele>
        <time>2021-03-27T15:40:38Z</time>
      </trkpt>
      <trkpt lat="42.095779" lon="-3.096101">
        <ele>1289.39</ele>
        <time>2021-03-27T15:40:41Z</time>
      </trkpt>
      <trkpt lat="42.095856" lon="-3.095928">
        <ele>1290.65</ele>
        <time>2021-03-27T15:40:43Z</time>
      </trkpt>
      <trkpt lat="42.095881" lon="-3.095822">
        <ele>1291.39</ele>
        <time>2021-03-27T15:40:46Z</time>
      </trkpt>
      <trkpt lat="42.095912" lon="-3.095434">
        <ele>1293.29</ele>
        <time>2021-03-27T15:40:48Z</time>
      </trkpt>
      <trkpt lat="42.095971" lon="-3.093222">
        <ele>1307.97</ele>
        <time>2021-03-27T15:40:50Z</time>
      </trkpt>
      <trkpt lat="42.095983" lon="-3.093116">
        <ele>1309.14</ele>
        <time>2021-03-27T15:40:53Z</time>
      </trkpt>
      <trkpt lat="42.096057" lon="-3.092977">
        <ele>1311.83</ele>
        <time>2021-03-27T15:40:55Z</time>
      </trkpt>
      <trkpt lat="42.096094" lon="-3.092944">
        <ele>1312.88</ele>
        <time>2021-03-27T15:40:57Z</time>
      </trkpt>
      <trkpt lat="42.096216" lon="-3.09291">
        <ele>1315.26</ele>
        <time>2021-03-27T15:41:00Z</time>
      </trkpt>
      <trkpt lat="42.096346" lon="-3.092935">
        <ele>1317.17</ele>
        <time>2021-03-27T15:41:02Z</time>
      </trkpt>
      <trkpt lat="42.096408" lon="-3.092993">
        <ele>1317.8</ele>
        <time>2021-03-27T15:41:04Z</time>
      </trkpt>
      <trkpt lat="42.09931" lon="-3.096589">
        <ele>1357.3</ele>
        <time>2021-03-27T15:41:07Z</time>
      </trkpt>
      <trkpt lat="42.099423" lon="-3.096673">
        <ele>1359.59</ele>
        <time>2021-03-27T15:41:09Z</time>
      </trkpt>
      <trkpt lat="42.099522" lon="-3.096682">
        <ele>1360.56</ele>
        <time>2021-03-27T15:41:11Z</time>
      </trkpt>
      <trkpt lat="42.099575" lon="-3.096658">
        <ele>1360.88</ele>
        <time>2021-03-27T15:41:14Z</time>
      </trkpt>
      <trkpt lat="42.099674" lon="-3.096521">
        <ele>1360.6</ele>
        <time>2021-03-27T15:41:16Z</time>
      </trkpt>
      <trkpt lat="42.100263" lon="-3.09485">
        <ele>1368.41</ele>
        <time>2021-03-27T15:41:18Z</time>
      </trkpt>
      <trkpt lat="42.100463" lon="-3.094373">
        <ele>1368.84</ele>
        <time>2021-03-27T15:41:21Z</time>
      </trkpt>
      <trkpt lat="42.101085" lon="-3.093409">
        <ele>1367.46</ele>
        <time>2021-03-27T15:41:23Z</time>
      </trkpt>
      <trkpt lat="42.101213" lon="-3.09328">
        <ele>1367.5</ele>
        <time>2021-03-27T15:41:25Z</time>
      </trkpt>
      <trkpt lat="42.101315" lon="-3.093228">
        <ele>1366.96</ele>
        <time>2021-03-27T15:41:28Z</time>
      </trkpt>
      <trkpt lat="42.102227" lon="-3.09309">
        <ele>1356.5</ele>
        <time>2021-03-27T15:41:30Z</time>
      </trkpt>
      <trkpt lat="42.102808" lon="-3.092981">
        <ele>1343.77</ele>
        <time>2021-03-27T15:41:32Z</time>
      </trkpt>
      <trkpt lat="42.102988" lon="-3.09292">
        <ele>1344.65</ele>
        <time>2021-03-27T15:41:35Z</time>
      </trkpt>
      <trkpt lat="42.103159" lon="-3.092831">
        <ele>1344.09</ele>
        <time>2021-03-27T15:41:37Z</time>
      </trkpt>
      <trkpt lat="42.104225" lon="-3.09166">
        <ele>1327.48</ele>
        <time>2021-03-27T15:41:39Z</time>
      </trkpt>
      <trkpt lat="42.104401" lon="-3.091494">
        <ele>1327.53</ele>
        <time>2021-03-27T15:41:42Z</time>
      </trkpt>
      <trkpt lat="42.104818" lon="-3.091201">
        <ele>1325.87</ele>
        <time>2021-03-27T15:41:44Z</time>
      </trkpt>
      <trkpt lat="42.105168" lon="-3.09092">
        <ele>1323.13</ele>
        <time>2021-03-27T15:41:46Z</time>
      </trkpt>
      <trkpt lat="42.107317" lon="-3.089013">
        <ele>1308.78</ele>
        <time>2021-03-27T15:41:49Z</time>
      </trkpt>
      <trkpt lat="42.107495" lon="-3.088882">
        <ele>1309.04</ele>
        <time>2021-03-27T15:41:51Z</time>
      </trkpt>
      <trkpt lat="42.108409" lon="-3.088311">
        <ele>1298.43</ele>
        <time>2021-03-27T15:41:54Z</time>
      </trkpt>
      <trkpt lat="42.108599" lon="-3.088148">
        <ele>1296.45</ele>
        <time>2021-03-27T15:41:56Z</time>
      </trkpt>
      <trkpt lat="42.109342" lon="-3.087381">
        <ele>1294.45</ele>
        <time>2021-03-27T15:41:58Z</time>
      </trkpt>
      <trkpt lat="42.109515" lon="-3.087163">
        <ele>1291.46</ele>
        <time>2021-03-27T15:42:01Z</time>
      </trkpt>
      <trkpt lat="42.110134" lon="-3.086053">
        <ele>1283.97</ele>
        <time>2021-03-27T15:42:03Z</time>
      </trkpt>
      <trkpt lat="42.110323" lon="-3.08554">
        <ele>1280.77</ele>
        <time>2021-03-27T15:42:05Z</time>
      </trkpt>
      <trkpt lat="42.110402" lon="-3.085406">
        <ele>1280.94</ele>
        <time>2021-03-27T15:42:08Z</time>
      </trkpt>
      <trkpt lat="42.110444" lon="-3.085361">
        <ele>1280.78</ele>
        <time>2021-03-27T15:42:10Z</time>
      </trkpt>
      <trkpt lat="42.110492" lon="-3.085348">
        <ele>1280.38</ele>
        <time>2021-03-27T15:42:12Z</time>
      </trkpt>
      <trkpt lat="42.110915" lon="-3.085292">
        <ele>1277.8</ele>
        <time>2021-03-27T15:42:15Z</time>
      </trkpt>
      <trkpt lat="42.111165" lon="-3.085206">
        <ele>1277.45</ele>
        <time>2021-03-27T15:42:17Z</time>
      </trkpt>
      <trkpt lat="42.111282" lon="-3.085109">
        <ele>1277.35</ele>
        <time>2021-03-27T15:42:19Z</time>
      </trkpt>
      <trkpt lat="42.111626" lon="-3.084497">
        <ele>1271.21</ele>
        <time>2021-03-27T15:42:22Z</time>
      </trkpt>
      <trkpt lat="42.111773" lon="-3.084399">
        <ele>1269.91</ele>
        <time>2021-03-27T15:42:24Z</time>
      </trkpt>
      <trkpt lat="42.111935" lon="-3.084374">
        <ele>1269.28</ele>
        <time>2021-03-27T15:42:26Z</time>
      </trkpt>
      <trkpt lat="42.112147" lon="-3.084426">
        <ele>1267.61</ele>
        <time>2021-03-27T15:42:29Z</time>
      </trkpt>
      <trkpt lat="42.112416" lon="-3.08455">
        <ele>1263.74</ele>
        <time>2021-03-27T15:42:31Z</time>
      </trkpt>
      <trkpt lat="42.112627" lon="-3.084678">
        <ele>1260.99</ele>
        <time>2021-03-27T15:42:33Z</time>
      </trkpt>
      <trkpt lat="42.112754" lon="-3.084784">
        <ele>1259.91</ele>
        <time>2021-03-27T15:42:36Z</time>
      </trkpt>
      <trkpt lat="42.11279" lon="-3.084845">
        <ele>1259.7</ele>
        <time>2021-03-27T15:42:38Z</time>
      </trkpt>
      <trkpt lat="42.112939" lon="-3.085367">
        <ele>1257.57</ele>
        <time>2021-03-27T15:42:40Z</time>
      </trkpt>
      <trkpt lat="42.113021" lon="-3.085569">
        <ele>1254.08</ele>
        <time>2021-03-27T15:42:43Z</time>
      </trkpt>
      <trkpt lat="42.113586" lon="-3.086633">
        <ele>1247.26</ele>
        <time>2021-03-27T15:42:45Z</time>
      </trkpt>
      <trkpt lat="42.11369" lon="-3.086752">
        <ele>1246.17</ele>
        <time>2021-03-27T15:42:47Z</time>
      </trkpt>
      <trkpt lat="42.113804" lon="-3.08679">
        <ele>1244.64</ele>
        <time>2021-03-27T15:42:50Z</time>
      </trkpt>
      <trkpt lat="42.114127" lon="-3.086755">
        <ele>1241.73</ele>
        <time>2021-03-27T15:42:52Z</time>
      </trkpt>
      <trkpt lat="42.114876" lon="-3.087028">
        <ele>1234.51</ele>
        <time>2021-03-27T15:42:54Z</time>
      </trkpt>
      <trkpt lat="42.114942" lon="-3.087067">
        <ele>1234.14</ele>
        <time>2021-03-27T15:42:57Z</time>
      </trkpt>
      <trkpt lat="42.115029" lon="-3.087152">
        <ele>1233.75</ele>
        <time>2021-03-27T15:42:59Z</time>
      </trkpt>
      <trkpt lat="42.115311" lon="-3.087523">
        <ele>1230.99</ele>
        <time>2021-03-27T15:43:02Z</time>
      </trkpt>
      <trkpt lat="42.115409" lon="-3.087562">
        <ele>1230.52</ele>
        <time>2021-03-27T15:43:04Z</time>
      </trkpt>
      <trkpt lat="42.115499" lon="-3.087543">
        <ele>1229.63</ele>
        <time>2021-03-27T15:43:06Z</time>
      </trkpt>
      <trkpt lat="42.115659" lon="-3.087411">
        <ele>1228.73</ele>
        <time>2021-03-27T15:43:09Z</time>
      </trkpt>
      <trkpt lat="42.115694" lon="-3.087346">
        <ele>1228.39</ele>
        <time>2021-03-27T15:43:11Z</time>
      </trkpt>
      <trkpt lat="42.115728" lon="-3.087216">
        <ele>1227.56</ele>
        <time>2021-03-27T15:43:13Z</time>
      </trkpt>
      <trkpt lat="42.115706" lon="-3.087097">
        <ele>1226.19</ele>
        <time>2021-03-27T15:43:16Z</time>
      </trkpt>
      <trkpt lat="42.115444" lon="-3.086498">
        <ele>1220.53</ele>
        <time>2021-03-27T15:43:18Z</time>
      </trkpt>
      <trkpt lat="42.115299" lon="-3.085909">
        <ele>1213.59</ele>
        <time>2021-03-27T15:43:20Z</time>
      </trkpt>
      <trkpt lat="42.115288" lon="-3.085714">
        <ele>1212.46</ele>
        <time>2021-03-27T15:43:23Z</time>
      </trkpt>
      <trkpt lat="42.115328" lon="-3.08538">
        <ele>1211.45</ele>
        <time>2021-03-27T15:43:25Z</time>
      </trkpt>
      <trkpt lat="42.115429" lon="-3.084896">
        <ele>1209.08</ele>
        <time>2021-03-27T15:43:27Z</time>
      </trkpt>
      <trkpt lat="42.115663" lon="-3.084045">
        <ele>1200.95</ele>
        <time>2021-03-27T15:43:30Z</time>
      </trkpt>
      <trkpt lat="42.115703" lon="-3.082686">
        <ele>1199.33</ele>
        <time>2021-03-27T15:43:32Z</time>
      </trkpt>
      <trkpt lat="42.115742" lon="-3.082527">
        <ele>1199.34</ele>
        <time>2021-03-27T15:43:34Z</time>
      </trkpt>
      <trkpt lat="42.115812" lon="-3.082393">
        <ele>1200.98</ele>
        <time>2021-03-27T15:43:37Z</time>
      </trkpt>
      <trkpt lat="42.115862" lon="-3.082338">
        <ele>1202.0</ele>
        <time>2021-03-27T15:43:39Z</time>
      </trkpt>
      <trkpt lat="42.115472" lon="-3.081566">
        <ele>1206.72</ele>
        <time>2021-03-27T15:43:42Z</time>
      </trkpt>
      <trkpt lat="42.115255" lon="-3.081055">
        <ele>1210.05</ele>
        <time>2021-03-27T15:43:44Z</time>
      </trkpt>
      <trkpt lat="42.114771" lon="-3.079731">
        <ele>1212.31</ele>
        <time>2021-03-27T15:43:46Z</time>
      </trkpt>
      <trkpt lat="42.114718" lon="-3.079618">
        <ele>1212.35</ele>
        <time>2021-03-27T15:43:49Z</time>
      </trkpt>
      <trkpt lat="42.114563" lon="-3.07944">
        <ele>1212.49</ele>
        <time>2021-03-27T15:43:51Z</time>
      </trkpt>
      <trkpt lat="42.114382" lon="-3.079307">
        <ele>1214.58</ele>
        <time>2021-03-27T15:43:54Z</time>
      </trkpt>
      <trkpt lat="42.113275" lon="-3.078632">
        <ele>1215.0</ele>
        <time>2021-03-27T15:43:56Z</time>
      </trkpt>
      <trkpt lat="42.112675" lon="-3.078062">
        <ele>1214.1</ele>
        <time>2021-03-27T15:43:59Z</time>
      </trkpt>
      <trkpt lat="42.11242" lon="-3.077882">
        <ele>1214.31</ele>
        <time>2021-03-27T15:44:01Z</time>
      </trkpt>
      <trkpt lat="42.109802" lon="-3.077297">
        <ele>1221.32</ele>
        <time>2021-03-27T15:44:03Z</time>
      </trkpt>
      <trkpt lat="42.108728" lon="-3.077166">
        <ele>1223.94</ele>
        <time>2021-03-27T15:44:06Z</time>
      </trkpt>
      <trkpt lat="42.108503" lon="-3.077111">
        <ele>1223.95</ele>
        <time>2021-03-27T15:44:08Z</time>
      </trkpt>
      <trkpt lat="42.108359" lon="-3.077038">
        <ele>1222.37</ele>
        <time>2021-03-27T15:44:11Z</time>
      </trkpt>
      <trkpt lat="42.103221" lon="-3.072802">
        <ele>1244.66</ele>
        <time>2021-03-27T15:44:13Z</time>
      </trkpt>
      <trkpt lat="42.103048" lon="-3.072647">
        <ele>1243.26</ele>
        <time>2021-03-27T15:44:15Z</time>
      </trkpt>
      <trkpt lat="42.102587" lon="-3.072174">
        <ele>1243.64</ele>
        <time>2021-03-27T15:44:18Z</time>
      </trkpt>
      <trkpt lat="42.101645" lon="-3.071179">
        <ele>1240.18</ele>
        <time>2021-03-27T15:44:20Z</time>
      </trkpt>
      <trkpt lat="42.101556" lon="-3.071057">
        <ele>1243.19</ele>
        <time>2021-03-27T15:44:23Z</time>
      </trkpt>
      <trkpt lat="42.100574" lon="-3.069484">
        <ele>1255.13</ele>
        <time>2021-03-27T15:44:25Z</time>
      </trkpt>
      <trkpt lat="42.10046" lon="-3.069228">
        <ele>1255.1</ele>
        <time>2021-03-27T15:44:28Z</time>
      </trkpt>
      <trkpt lat="42.100426" lon="-3.069128">
        <ele>1255.43</ele>
        <time>2021-03-27T15:44:30Z</time>
      </trkpt>
      <trkpt lat="42.099973" lon="-3.0672">
        <ele>1256.8</ele>
        <time>2021-03-27T15:44:32Z</time>
      </trkpt>
      <trkpt lat="42.099737" lon="-3.065738">
        <ele>1256.02</ele>
        <time>2021-03-27T15:44:35Z</time>
      </trkpt>
      <trkpt lat="42.099671" lon="-3.065479">
        <ele>1259.19</ele>
        <time>2021-03-27T15:44:37Z</time>
      </trkpt>
      <trkpt lat="42.099626" lon="-3.065374">
        <ele>1259.25</ele>
        <time>2021-03-27T15:44:40Z</time>
      </trkpt>
      <trkpt lat="42.099448" lon="-3.065154">
        <ele>1254.44</ele>
        <time>2021-03-27T15:44:42Z</time>
      </trkpt>
      <trkpt lat="42.097664" lon="-3.063787">
        <ele>1264.97</ele>
        <time>2021-03-27T15:44:45Z</time>
      </trkpt>
      <trkpt lat="42.097524" lon="-3.063711">
        <ele>1265.71</ele>
        <time>2021-03-27T15:44:47Z</time>
      </trkpt>
      <trkpt lat="42.09744" lon="-3.063687">
        <ele>1265.77</ele>
        <time>2021-03-27T15:44:49Z</time>
      </trkpt>
      <trkpt lat="42.096787" lon="-3.063578">
        <ele>1267.23</ele>
        <time>2021-03-27T15:44:52Z</time>
      </trkpt>
      <trkpt lat="42.096599" lon="-3.063462">
        <ele>1268.21</ele>
        <time>2021-03-27T15:44:54Z</time>
      </trkpt>
      <trkpt lat="42.096426" lon="-3.063222">
        <ele>1268.01</ele>
        <time>2021-03-27T15:44:57Z</time>
      </trkpt>
      <trkpt lat="42.096365" lon="-3.063048">
        <ele>1267.96</ele>
        <time>2021-03-27T15:44:59Z</time>
      </trkpt>
      <trkpt lat="42.09634" lon="-3.06284">
        <ele>1269.24</ele>
        <time>2021-03-27T15:45:02Z</time>
      </trkpt>
      <trkpt lat="42.096393" lon="-3.061973">
        <ele>1277.83</ele>
        <time>2021-03-27T15:45:04Z</time>
      </trkpt>
      <trkpt lat="42.096376" lon="-3.061527">
        <ele>1282.23</ele>
        <time>2021-03-27T15:45:06Z</time>
      </trkpt>
      <trkpt lat="42.096288" lon="-3.060818">
        <ele>1282.05</ele>
        <time>2021-03-27T15:45:09Z</time>
      </trkpt>
      <trkpt lat="42.096127" lon="-3.060106">
        <ele>1279.46</ele>
        <time>2021-03-27T15:45:11Z</time>
      </trkpt>
      <trkpt lat="42.095978" lon="-3.059623">
        <ele>1276.98</ele>
        <time>2021-03-27T15:45:14Z</time>
      </trkpt>
      <trkpt lat="42.095114" lon="-3.057679">
        <ele>1281.16</ele>
        <time>2021-03-27T15:45:16Z</time>
      </trkpt>
      <trkpt lat="42.094984" lon="-3.057452">
        <ele>1281.06</ele>
        <time>2021-03-27T15:45:19Z</time>
      </trkpt>
      <trkpt lat="42.094857" lon="-3.057308">
        <ele>1283.58</ele>
        <time>2021-03-27T15:45:21Z</time>
      </trkpt>
      <trkpt lat="42.094717" lon="-3.057243">
        <ele>1283.81</ele>
        <time>2021-03-27T15:45:23Z</time>
      </trkpt>
      <trkpt lat="42.094513" lon="-3.057219">
        <ele>1285.61</ele>
        <time>2021-03-27T15:45:26Z</time>
      </trkpt>
      <trkpt lat="42.093785" lon="-3.057353">
        <ele>1285.03</ele>
        <time>2021-03-27T15:45:28Z</time>
      </trkpt>
      <trkpt lat="42.093677" lon="-3.057364">
        <ele>1284.53</ele>
        <time>2021-03-27T15:45:31Z</time>
      </trkpt>
      <trkpt lat="42.093489" lon="-3.057342">
        <ele>1284.04</ele>
        <time>2021-03-27T15:45:33Z</time>
      </trkpt>
      <trkpt lat="42.093326" lon="-3.057269">
        <ele>1284.16</ele>
        <time>2021-03-27T15:45:35Z</time>
      </trkpt>
      <trkpt lat="42.093151" lon="-3.057152">
        <ele>1286.95</ele>
        <time>2021-03-27T15:45:38Z</time>
      </trkpt>
      <trkpt lat="42.093059" lon="-3.05705">
        <ele>1288.76</ele>
        <time>2021-03-27T15:45:40Z</time>
      </trkpt>
      <trkpt lat="42.092798" lon="-3.056666">
        <ele>1288.73</ele>
        <time>2021-03-27T15:45:43Z</time>
      </trkpt>
      <trkpt lat="42.092724" lon="-3.056581">
        <ele>1288.91</ele>
        <time>2021-03-27T15:45:45Z</time>
      </trkpt>
      <trkpt lat="42.092581" lon="-3.056466">
        <ele>1290.99</ele>
        <time>2021-03-27T15:45:48Z</time>
      </trkpt>
      <trkpt lat="42.092403" lon="-3.0564">
        <ele>1291.78</ele>
        <time>2021-03-27T15:45:50Z</time>
      </trkpt>
      <trkpt lat="42.092274" lon="-3.056388">
        <ele>1290.59</ele>
        <time>2021-03-27T15:45:52Z</time>
      </trkpt>
      <trkpt lat="42.09206" lon="-3.056443">
        <ele>1290.97</ele>
        <time>2021-03-27T15:45:55Z</time>
      </trkpt>
      <trkpt lat="42.09155" lon="-3.056874">
        <ele>1290.72</ele>
        <time>2021-03-27T15:45:57Z</time>
      </trkpt>
      <trkpt lat="42.09143" lon="-3.056947">
        <ele>1289.51</ele>
        <time>2021-03-27T15:46:00Z</time>
      </trkpt>
      <trkpt lat="42.091361" lon="-3.056969">
        <ele>1289.86</ele>
        <time>2021-03-27T15:46:02Z</time>
      </trkpt>
      <trkpt lat="42.091214" lon="-3.056972">
        <ele>1291.62</ele>
        <time>2021-03-27T15:46:05Z</time>
      </trkpt>
      <trkpt lat="42.09087" lon="-3.056922">
        <ele>1294.32</ele>
        <time>2021-03-27T15:46:07Z</time>
      </trkpt>
      <trkpt lat="42.09075" lon="-3.056863">
        <ele>1295.2</ele>
        <time>2021-03-27T15:46:09Z</time>
      </trkpt>
      <trkpt lat="42.09055" lon="-3.056714">
        <ele>1295.46</ele>
        <time>2021-03-27T15:46:12Z</time>
      </trkpt>
      <trkpt lat="42.090307" lon="-3.056482">
        <ele>1296.34</ele>
        <time>2021-03-27T15:46:14Z</time>
      </trkpt>
      <trkpt lat="42.090054" lon="-3.056206">
        <ele>1301.12</ele>
        <time>2021-03-27T15:46:17Z</time>
      </trkpt>
      <trkpt lat="42.089196" lon="-3.055176">
        <ele>1308.83</ele>
        <time>2021-03-27T15:46:19Z</time>
      </trkpt>
      <trkpt lat="42.089042" lon="-3.055059">
        <ele>1309.85</ele>
        <time>2021-03-27T15:46:22Z</time>
      </trkpt>
      <trkpt lat="42.088854" lon="-3.055007">
        <ele>1307.98</ele>
        <time>2021-03-27T15:46:24Z</time>
      </trkpt>
      <trkpt lat="42.088659" lon="-3.055026">
        <ele>1308.06</ele>
        <time>2021-03-27T15:46:26Z</time>
      </trkpt>
      <trkpt lat="42.088446" lon="-3.055118">
        <ele>1311.05</ele>
        <time>2021-03-27T15:46:29Z</time>
      </trkpt>
      <trkpt lat="42.087935" lon="-3.055372">
        <ele>1315.94</ele>
        <time>2021-03-27T15:46:31Z</time>
      </trkpt>
      <trkpt lat="42.085373" lon="-3.056528">
        <ele>1319.0</ele>
        <time>2021-03-27T15:46:34Z</time>
      </trkpt>
      <trkpt lat="42.085196" lon="-3.056559">
        <ele>1318.84</ele>
        <time>2021-03-27T15:46:36Z</time>
      </trkpt>
      <trkpt lat="42.08494" lon="-3.056557">
        <ele>1319.77</ele>
        <time>2021-03-27T15:46:39Z</time>
      </trkpt>
      <trkpt lat="42.083248" lon="-3.056415">
        <ele>1331.9</ele>
        <time>2021-03-27T15:46:41Z</time>
      </trkpt>
      <trkpt lat="42.08315" lon="-3.056389">
        <ele>1331.68</ele>
        <time>2021-03-27T15:46:43Z</time>
      </trkpt>
      <trkpt lat="42.083007" lon="-3.056303">
        <ele>1332.15</ele>
        <time>2021-03-27T15:46:46Z</time>
      </trkpt>
      <trkpt lat="42.08131" lon="-3.054777">
        <ele>1339.36</ele>
        <time>2021-03-27T15:46:48Z</time>
      </trkpt>
      <trkpt lat="42.081189" lon="-3.054636">
        <ele>1340.16</ele>
        <time>2021-03-27T15:46:51Z</time>
      </trkpt>
      <trkpt lat="42.081087" lon="-3.05448">
        <ele>1341.22</ele>
        <time>2021-03-27T15:46:53Z</time>
      </trkpt>
      <trkpt lat="42.080201" lon="-3.05281">
        <ele>1359.44</ele>
        <time>2021-03-27T15:46:55Z</time>
      </trkpt>
      <trkpt lat="42.080029" lon="-3.052527">
        <ele>1360.87</ele>
        <time>2021-03-27T15:46:58Z</time>
      </trkpt>
      <trkpt lat="42.079532" lon="-3.051951">
        <ele>1366.89</ele>
        <time>2021-03-27T15:47:00Z</time>
      </trkpt>
      <trkpt lat="42.079404" lon="-3.051836">
        <ele>1368.41</ele>
        <time>2021-03-27T15:47:03Z</time>
      </trkpt>
      <trkpt lat="42.079281" lon="-3.051749">
        <ele>1369.88</ele>
        <time>2021-03-27T15:47:05Z</time>
      </trkpt>
      <trkpt lat="42.07899" lon="-3.05159">
        <ele>1372.73</ele>
        <time>2021-03-27T15:47:08Z</time>
      </trkpt>
      <trkpt lat="42.078761" lon="-3.051514">
        <ele>1371.77</ele>
        <time>2021-03-27T15:47:10Z</time>
      </trkpt>
      <trkpt lat="42.078613" lon="-3.051496">
        <ele>1370.34</ele>
        <time>2021-03-27T15:47:12Z</time>
      </trkpt>
      <trkpt lat="42.078442" lon="-3.051506">
        <ele>1370.98</ele>
        <time>2021-03-27T15:47:15Z</time>
      </trkpt>
      <trkpt lat="42.078108" lon="-3.051593">
        <ele>1373.49</ele>
        <time>2021-03-27T15:47:17Z</time>
      </trkpt>
      <trkpt lat="42.077943" lon="-3.05161">
        <ele>1374.17</ele>
        <time>2021-03-27T15:47:20Z</time>
      </trkpt>
      <trkpt lat="42.077736" lon="-3.051553">
        <ele>1375.63</ele>
        <time>2021-03-27T15:47:22Z</time>
      </trkpt>
      <trkpt lat="42.077556" lon="-3.051431">
        <ele>1377.64</ele>
        <time>2021-03-27T15:47:25Z</time>
      </trkpt>
      <trkpt lat="42.077317" lon="-3.051171">
        <ele>1379.2</ele>
        <time>2021-03-27T15:47:27Z</time>
      </trkpt>
      <trkpt lat="42.076799" lon="-3.050919">
        <ele>1383.43</ele>
        <time>2021-03-27T15:47:29Z</time>
      </trkpt>
      <trkpt lat="42.075926" lon="-3.050643">
        <ele>1392.22</ele>
        <time>2021-03-27T15:47:32Z</time>
      </trkpt>
      <trkpt lat="42.075678" lon="-3.050536">
        <ele>1387.59</ele>
        <time>2021-03-27T15:47:34Z</time>
      </trkpt>
      <trkpt lat="42.075539" lon="-3.05041">
        <ele>1387.79</ele>
        <time>2021-03-27T15:47:37Z</time>
      </trkpt>
      <trkpt lat="42.075259" lon="-3.050094">
        <ele>1391.17</ele>
        <time>2021-03-27T15:47:39Z</time>
      </trkpt>
      <trkpt lat="42.074954" lon="-3.049686">
        <ele>1391.27</ele>
        <time>2021-03-27T15:47:42Z</time>
      </trkpt>
      <trkpt lat="42.074879" lon="-3.049519">
        <ele>1393.16</ele>
        <time>2021-03-27T15:47:44Z</time>
      </trkpt>
      <trkpt lat="42.074834" lon="-3.0493">
        <ele>1395.89</ele>
        <time>2021-03-27T15:47:46Z</time>
      </trkpt>
      <trkpt lat="42.074827" lon="-3.048464">
        <ele>1401.03</ele>
        <time>2021-03-27T15:47:49Z</time>
      </trkpt>
      <trkpt lat="42.074849" lon="-3.04822">
        <ele>1401.47</ele>
        <time>2021-03-27T15:47:51Z</time>
      </trkpt>
      <trkpt lat="42.075034" lon="-3.047546">
        <ele>1412.56</ele>
        <time>2021-03-27T15:47:54Z</time>
      </trkpt>
      <trkpt lat="42.075055" lon="-3.047427">
        <ele>1414.44</ele>
        <time>2021-03-27T15:47:56Z</time>
      </trkpt>
      <trkpt lat="42.075048" lon="-3.047336">
        <ele>1415.35</ele>
        <time>2021-03-27T15:47:58Z</time>
      </trkpt>
      <trkpt lat="42.075023" lon="-3.047264">
        <ele>1415.78</ele>
        <time>2021-03-27T15:48:01Z</time>
      </trkpt>
      <trkpt lat="42.074989" lon="-3.047217">
        <ele>1416.06</ele>
        <time>2021-03-27T15:48:03Z</time>
      </trkpt>
      <trkpt lat="42.074907" lon="-3.047162">
        <ele>1417.32</ele>
        <time>2021-03-27T15:48:06Z</time>
      </trkpt>
      <trkpt lat="42.074791" lon="-3.047168">
        <ele>1417.4</ele>
        <time>2021-03-27T15:48:08Z</time>
      </trkpt>
      <trkpt lat="42.074469" lon="-3.047466">
        <ele>1405.17</ele>
        <time>2021-03-27T15:48:11Z</time>
      </trkpt>
      <trkpt lat="42.074336" lon="-3.047511">
        <ele>1404.21</ele>
        <time>2021-03-27T15:48:13Z</time>
      </trkpt>
      <trkpt lat="42.073989" lon="-3.047533">
        <ele>1407.88</ele>
        <time>2021-03-27T15:48:15Z</time>
      </trkpt>
      <trkpt lat="42.07389" lon="-3.047525">
        <ele>1409.79</ele>
        <time>2021-03-27T15:48:18Z</time>
      </trkpt>
      <trkpt lat="42.073751" lon="-3.047477">
        <ele>1410.79</ele>
        <time>2021-03-27T15:48:20Z</time>
      </trkpt>
      <trkpt lat="42.07332" lon="-3.047232">
        <ele>1416.84</ele>
        <time>2021-03-27T15:48:23Z</time>
      </trkpt>
      <trkpt lat="42.073181" lon="-3.047119">
        <ele>1419.81</ele>
        <time>2021-03-27T15:48:25Z</time>
      </trkpt>
      <trkpt lat="42.072659" lon="-3.046624">
        <ele>1426.91</ele>
        <time>2021-03-27T15:48:28Z</time>
      </trkpt>
      <trkpt lat="42.072444" lon="-3.046442">
        <ele>1427.17</ele>
        <time>2021-03-27T15:48:30Z</time>
      </trkpt>
      <trkpt lat="42.07188" lon="-3.046034">
        <ele>1428.68</ele>
        <time>2021-03-27T15:48:32Z</time>
      </trkpt>
      <trkpt lat="42.07172" lon="-3.045878">
        <ele>1431.03</ele>
        <time>2021-03-27T15:48:35Z</time>
      </trkpt>
      <trkpt lat="42.069874" lon="-3.043696">
        <ele>1443.56</ele>
        <time>2021-03-27T15:48:37Z</time>
      </trkpt>
      <trkpt lat="42.06983" lon="-3.043617">
        <ele>1443.96</ele>
        <time>2021-03-27T15:48:40Z</time>
      </trkpt>
      <trkpt lat="42.069794" lon="-3.043429">
        <ele>1445.95</ele>
        <time>2021-03-27T15:48:42Z</time>
      </trkpt>
      <trkpt lat="42.069823" lon="-3.043212">
        <ele>1446.43</ele>
        <time>2021-03-27T15:48:45Z</time>
      </trkpt>
      <trkpt lat="42.069921" lon="-3.043007">
        <ele>1445.22</ele>
        <time>2021-03-27T15:48:47Z</time>
      </trkpt>
      <trkpt lat="42.070349" lon="-3.042357">
        <ele>1442.97</ele>
        <time>2021-03-27T15:48:49Z</time>
      </trkpt>
      <trkpt lat="42.070395" lon="-3.042265">
        <ele>1442.3</ele>
        <time>2021-03-27T15:48:52Z</time>
      </trkpt>
      <trkpt lat="42.070435" lon="-3.042158">
        <ele>1441.36</ele>
        <time>2021-03-27T15:48:54Z</time>
      </trkpt>
      <trkpt lat="42.070521" lon="-3.041671">
        <ele>1437.18</ele>
        <time>2021-03-27T15:48:57Z</time>
      </trkpt>
      <trkpt lat="42.070525" lon="-3.041339">
        <ele>1432.9</ele>
        <time>2021-03-27T15:48:59Z</time>
      </trkpt>
      <trkpt lat="42.070492" lon="-3.041177">
        <ele>1431.05</ele>
        <time>2021-03-27T15:49:02Z</time>
      </trkpt>
      <trkpt lat="42.070223" lon="-3.040104">
        <ele>1421.81</ele>
        <time>2021-03-27T15:49:04Z</time>
      </trkpt>
      <trkpt lat="42.070145" lon="-3.039859">
        <ele>1420.91</ele>
        <time>2021-03-27T15:49:06Z</time>
      </trkpt>
      <trkpt lat="42.069706" lon="-3.039134">
        <ele>1416.0</ele>
        <time>2021-03-27T15:49:09Z</time>
      </trkpt>
      <trkpt lat="42.069203" lon="-3.038111">
        <ele>1415.44</ele>
        <time>2021-03-27T15:49:11Z</time>
      </trkpt>
      <trkpt lat="42.06911" lon="-3.03797">
        <ele>1414.36</ele>
        <time>2021-03-27T15:49:14Z</time>
      </trkpt>
      <trkpt lat="42.069032" lon="-3.03789">
        <ele>1413.07</ele>
        <time>2021-03-27T15:49:16Z</time>
      </trkpt>
      <trkpt lat="42.068895" lon="-3.037788">
        <ele>1410.17</ele>
        <time>2021-03-27T15:49:18Z</time>
      </trkpt>
      <trkpt lat="42.06711" lon="-3.036711">
        <ele>1399.55</ele>
        <time>2021-03-27T15:49:21Z</time>
      </trkpt>
      <trkpt lat="42.066925" lon="-3.036625">
        <ele>1396.45</ele>
        <time>2021-03-27T15:49:23Z</time>
      </trkpt>
      <trkpt lat="42.066629" lon="-3.036597">
        <ele>1397.26</ele>
        <time>2021-03-27T15:49:26Z</time>
      </trkpt>
      <trkpt lat="42.066481" lon="-3.036504">
        <ele>1397.35</ele>
        <time>2021-03-27T15:49:28Z</time>
      </trkpt>
      <trkpt lat="42.066418" lon="-3.036405">
        <ele>1396.03</ele>
        <time>2021-03-27T15:49:31Z</time>
      </trkpt>
      <trkpt lat="42.066363" lon="-3.036246">
        <ele>1394.39</ele>
        <time>2021-03-27T15:49:33Z</time>
      </trkpt>
      <trkpt lat="42.066357" lon="-3.03609">
        <ele>1392.16</ele>
        <time>2021-03-27T15:49:35Z</time>
      </trkpt>
      <trkpt lat="42.06638" lon="-3.035911">
        <ele>1387.94</ele>
        <time>2021-03-27T15:49:38Z</time>
      </trkpt>
      <trkpt lat="42.066435" lon="-3.035717">
        <ele>1383.41</ele>
        <time>2021-03-27T15:49:40Z</time>
      </trkpt>
      <trkpt lat="42.066516" lon="-3.035311">
        <ele>1379.62</ele>
        <time>2021-03-27T15:49:43Z</time>
      </trkpt>
      <trkpt lat="42.066506" lon="-3.034903">
        <ele>1381.9</ele>
        <time>2021-03-27T15:49:45Z</time>
      </trkpt>
      <trkpt lat="42.066438" lon="-3.033838">
        <ele>1373.34</ele>
        <time>2021-03-27T15:49:48Z</time>
      </trkpt>
      <trkpt lat="42.066362" lon="-3.033489">
        <ele>1370.31</ele>
        <time>2021-03-27T15:49:50Z</time>
      </trkpt>
      <trkpt lat="42.06622" lon="-3.03302">
        <ele>1367.84</ele>
        <time>2021-03-27T15:49:52Z</time>
      </trkpt>
      <trkpt lat="42.066167" lon="-3.032902">
        <ele>1366.93</ele>
        <time>2021-03-27T15:49:55Z</time>
      </trkpt>
      <trkpt lat="42.065929" lon="-3.032524">
        <ele>1359.2</ele>
        <time>2021-03-27T15:49:57Z</time>
      </trkpt>
      <trkpt lat="42.065837" lon="-3.032403">
        <ele>1356.29</ele>
        <time>2021-03-27T15:50:00Z</time>
      </trkpt>
      <trkpt lat="42.065759" lon="-3.032349">
        <ele>1355.44</ele>
        <time>2021-03-27T15:50:02Z</time>
      </trkpt>
      <trkpt lat="42.065674" lon="-3.032329">
        <ele>1355.28</ele>
        <time>2021-03-27T15:50:05Z</time>
      </trkpt>
      <trkpt lat="42.065519" lon="-3.032328">
        <ele>1355.79</ele>
        <time>2021-03-27T15:50:07Z</time>
      </trkpt>
      <trkpt lat="42.064879" lon="-3.032385">
        <ele>1358.27</ele>
        <time>2021-03-27T15:50:09Z</time>
      </trkpt>
      <trkpt lat="42.064761" lon="-3.032363">
        <ele>1358.02</ele>
        <time>2021-03-27T15:50:12Z</time>
      </trkpt>
      <trkpt lat="42.064656" lon="-3.032278">
        <ele>1357.02</ele>
        <time>2021-03-27T15:50:14Z</time>
      </trkpt>
      <trkpt lat="42.06461" lon="-3.032212">
        <ele>1356.06</ele>
        <time>2021-03-27T15:50:17Z</time>
      </trkpt>
      <trkpt lat="42.064552" lon="-3.032078">
        <ele>1353.91</ele>
        <time>2021-03-27T15:50:19Z</time>
      </trkpt>
      <trkpt lat="42.064467" lon="-3.031797">
        <ele>1350.54</ele>
        <time>2021-03-27T15:50:22Z</time>
      </trkpt>
      <trkpt lat="42.064447" lon="-3.031704">
        <ele>1350.13</ele>
        <time>2021-03-27T15:50:24Z</time>
      </trkpt>
      <trkpt lat="42.064441" lon="-3.031544">
        <ele>1350.56</ele>
        <time>2021-03-27T15:50:26Z</time>
      </trkpt>
      <trkpt lat="42.064471" lon="-3.031372">
        <ele>1350.8</ele>
        <time>2021-03-27T15:50:29Z</time>
      </trkpt>
      <trkpt lat="42.064797" lon="-3.030262">
        <ele>1345.17</ele>
        <time>2021-03-27T15:50:31Z</time>
      </trkpt>
      <trkpt lat="42.064817" lon="-3.03014">
        <ele>1345.29</ele>
        <time>2021-03-27T15:50:34Z</time>
      </trkpt>
      <trkpt lat="42.064822" lon="-3.03002">
        <ele>1345.82</ele>
        <time>2021-03-27T15:50:36Z</time>
      </trkpt>
      <trkpt lat="42.064805" lon="-3.029916">
        <ele>1346.38</ele>
        <time>2021-03-27T15:50:38Z</time>
      </trkpt>
      <trkpt lat="42.064778" lon="-3.029809">
        <ele>1346.81</ele>
        <time>2021-03-27T15:50:41Z</time>
      </trkpt>
      <trkpt lat="42.064732" lon="-3.029716">
        <ele>1346.91</ele>
        <time>2021-03-27T15:50:43Z</time>
      </trkpt>
      <trkpt lat="42.064678" lon="-3.029643">
        <ele>1345.79</ele>
        <time>2021-03-27T15:50:46Z</time>
      </trkpt>
      <trkpt lat="42.064539" lon="-3.029522">
        <ele>1342.4</ele>
        <time>2021-03-27T15:50:48Z</time>
      </trkpt>
      <trkpt lat="42.064145" lon="-3.029279">
        <ele>1338.03</ele>
        <time>2021-03-27T15:50:51Z</time>
      </trkpt>
      <trkpt lat="42.063172" lon="-3.02896">
        <ele>1338.62</ele>
        <time>2021-03-27T15:50:53Z</time>
      </trkpt>
      <trkpt lat="42.062909" lon="-3.028893">
        <ele>1338.72</ele>
        <time>2021-03-27T15:50:55Z</time>
      </trkpt>
      <trkpt lat="42.06275" lon="-3.028896">
        <ele>1340.36</ele>
        <time>2021-03-27T15:50:58Z</time>
      </trkpt>
      <trkpt lat="42.062676" lon="-3.028922">
        <ele>1341.4</ele>
        <time>2021-03-27T15:51:00Z</time>
      </trkpt>
      <trkpt lat="42.062357" lon="-3.02918">
        <ele>1344.09</ele>
        <time>2021-03-27T15:51:03Z</time>
      </trkpt>
      <trkpt lat="42.062243" lon="-3.029238">
        <ele>1343.68</ele>
        <time>2021-03-27T15:51:05Z</time>
      </trkpt>
      <trkpt lat="42.061282" lon="-3.029273">
        <ele>1343.92</ele>
        <time>2021-03-27T15:51:08Z</time>
      </trkpt>
      <trkpt lat="42.061209" lon="-3.029269">
        <ele>1344.68</ele>
        <time>2021-03-27T15:51:10Z</time>
      </trkpt>
      <trkpt lat="42.061105" lon="-3.029213">
        <ele>1345.46</ele>
        <time>2021-03-27T15:51:12Z</time>
      </trkpt>
      <trkpt lat="42.060964" lon="-3.029031">
        <ele>1348.22</ele>
        <time>2021-03-27T15:51:15Z</time>
      </trkpt>
      <trkpt lat="42.06084" lon="-3.028601">
        <ele>1347.78</ele>
        <time>2021-03-27T15:51:17Z</time>
      </trkpt>
      <trkpt lat="42.060746" lon="-3.028374">
        <ele>1348.54</ele>
        <time>2021-03-27T15:51:20Z</time>
      </trkpt>
      <trkpt lat="42.060536" lon="-3.028118">
        <ele>1349.51</ele>
        <time>2021-03-27T15:51:22Z</time>
      </trkpt>
      <trkpt lat="42.060496" lon="-3.028044">
        <ele>1348.99</ele>
        <time>2021-03-27T15:51:25Z</time>
      </trkpt>
      <trkpt lat="42.060471" lon="-3.02794">
        <ele>1348.7</ele>
        <time>2021-03-27T15:51:27Z</time>
      </trkpt>
      <trkpt lat="42.060468" lon="-3.027827">
        <ele>1347.94</ele>
        <time>2021-03-27T15:51:29Z</time>
      </trkpt>
      <trkpt lat="42.060477" lon="-3.027663">
        <ele>1348.35</ele>
        <time>2021-03-27T15:51:32Z</time>
      </trkpt>
      <trkpt lat="42.06052" lon="-3.027383">
        <ele>1349.7</ele>
        <time>2021-03-27T15:51:34Z</time>
      </trkpt>
      <trkpt lat="42.060521" lon="-3.027123">
        <ele>1351.38</ele>
        <time>2021-03-27T15:51:37Z</time>
      </trkpt>
      <trkpt lat="42.060306" lon="-3.025852">
        <ele>1360.38</ele>
        <time>2021-03-27T15:51:39Z</time>
      </trkpt>
      <trkpt lat="42.060266" lon="-3.025738">
        <ele>1361.2</ele>
        <time>2021-03-27T15:51:42Z</time>
      </trkpt>
      <trkpt lat="42.060206" lon="-3.025631">
        <ele>1361.98</ele>
        <time>2021-03-27T15:51:44Z</time>
      </trkpt>
      <trkpt lat="42.060117" lon="-3.025526">
        <ele>1362.68</ele>
        <time>2021-03-27T15:51:46Z</time>
      </trkpt>
      <trkpt lat="42.05999" lon="-3.025557">
        <ele>1363.94</ele>
        <time>2021-03-27T15:51:49Z</time>
      </trkpt>
      <trkpt lat="42.059867" lon="-3.025646">
        <ele>1364.02</ele>
        <time>2021-03-27T15:51:52Z</time>
      </trkpt>
      <trkpt lat="42.059324" lon="-3.026582">
        <ele>1371.86</ele>
        <time>2021-03-27T15:51:55Z</time>
      </trkpt>
      <trkpt lat="42.05915" lon="-3.026917">
        <ele>1373.51</ele>
        <time>2021-03-27T15:51:57Z</time>
      </trkpt>
      <trkpt lat="42.059114" lon="-3.027042">
        <ele>1374.32</ele>
        <time>2021-03-27T15:52:00Z</time>
      </trkpt>
      <trkpt lat="42.059115" lon="-3.027514">
        <ele>1376.26</ele>
        <time>2021-03-27T15:52:03Z</time>
      </trkpt>
      <trkpt lat="42.059246" lon="-3.029419">
        <ele>1392.85</ele>
        <time>2021-03-27T15:52:06Z</time>
      </trkpt>
      <trkpt lat="42.059249" lon="-3.029551">
        <ele>1393.49</ele>
        <time>2021-03-27T15:52:08Z</time>
      </trkpt>
      <trkpt lat="42.059217" lon="-3.029655">
        <ele>1394.52</ele>
        <time>2021-03-27T15:52:11Z</time>
      </trkpt>
      <trkpt lat="42.059153" lon="-3.029715">
        <ele>1396.21</ele>
        <time>2021-03-27T15:52:14Z</time>
      </trkpt>
      <trkpt lat="42.059067" lon="-3.029735">
        <ele>1397.74</ele>
        <time>2021-03-27T15:52:17Z</time>
      </trkpt>
      <trkpt lat="42.058983" lon="-3.029717">
        <ele>1399.27</ele>
        <time>2021-03-27T15:52:19Z</time>
      </trkpt>
      <trkpt lat="42.058902" lon="-3.029625">
        <ele>1400.09</ele>
        <time>2021-03-27T15:52:22Z</time>
      </trkpt>
      <trkpt lat="42.058167" lon="-3.028616">
        <ele>1415.27</ele>
        <time>2021-03-27T15:52:25Z</time>
      </trkpt>
      <trkpt lat="42.057903" lon="-3.028339">
        <ele>1416.82</ele>
        <time>2021-03-27T15:52:28Z</time>
      </trkpt>
      <trkpt lat="42.05781" lon="-3.028276">
        <ele>1417.96</ele>
        <time>2021-03-27T15:52:30Z</time>
      </trkpt>
      <trkpt lat="42.057701" lon="-3.028253">
        <ele>1419.25</ele>
        <time>2021-03-27T15:52:33Z</time>
      </trkpt>
      <trkpt lat="42.057607" lon="-3.028262">
        <ele>1420.33</ele>
        <time>2021-03-27T15:52:36Z</time>
      </trkpt>
      <trkpt lat="42.05755" lon="-3.028289">
        <ele>1421.14</ele>
        <time>2021-03-27T15:52:39Z</time>
      </trkpt>
      <trkpt lat="42.057493" lon="-3.028378">
        <ele>1422.82</ele>
        <time>2021-03-27T15:52:41Z</time>
      </trkpt>
      <trkpt lat="42.057473" lon="-3.028497">
        <ele>1425.09</ele>
        <time>2021-03-27T15:52:44Z</time>
      </trkpt>
      <trkpt lat="42.057849" lon="-3.02931">
        <ele>1434.32</ele>
        <time>2021-03-27T15:52:47Z</time>
      </trkpt>
      <trkpt lat="42.057895" lon="-3.029525">
        <ele>1433.63</ele>
        <time>2021-03-27T15:52:50Z</time>
      </trkpt>
      <trkpt lat="42.057896" lon="-3.029738">
        <ele>1435.51</ele>
        <time>2021-03-27T15:52:52Z</time>
      </trkpt>
      <trkpt lat="42.057875" lon="-3.030014">
        <ele>1442.42</ele>
        <time>2021-03-27T15:52:55Z</time>
      </trkpt>
      <trkpt lat="42.057825" lon="-3.030307">
        <ele>1447.3</ele>
        <time>2021-03-27T15:52:58Z</time>
      </trkpt>
      <trkpt lat="42.05754" lon="-3.031388">
        <ele>1451.99</ele>
        <time>2021-03-27T15:53:01Z</time>
      </trkpt>
      <trkpt lat="42.05742" lon="-3.031908">
        <ele>1454.96</ele>
        <time>2021-03-27T15:53:03Z</time>
      </trkpt>
      <trkpt lat="42.057379" lon="-3.032189">
        <ele>1459.82</ele>
        <time>2021-03-27T15:53:06Z</time>
      </trkpt>
      <trkpt lat="42.057345" lon="-3.032797">
        <ele>1466.7</ele>
        <time>2021-03-27T15:53:09Z</time>
      </trkpt>
      <trkpt lat="42.057336" lon="-3.033452">
        <ele>1470.66</ele>
        <time>2021-03-27T15:53:12Z</time>
      </trkpt>
      <trkpt lat="42.057398" lon="-3.033866">
        <ele>1473.67</ele>
        <time>2021-03-27T15:53:14Z</time>
      </trkpt>
      <trkpt lat="42.057483" lon="-3.034726">
        <ele>1486.72</ele>
        <time>2021-03-27T15:53:17Z</time>
      </trkpt>
      <trkpt lat="42.057486" lon="-3.035552">
        <ele>1491.77</ele>
        <time>2021-03-27T15:53:20Z</time>
      </trkpt>
      <trkpt lat="42.057503" lon="-3.035649">
        <ele>1491.56</ele>
        <time>2021-03-27T15:53:23Z</time>
      </trkpt>
      <trkpt lat="42.057555" lon="-3.035781">
        <ele>1490.57</ele>
        <time>2021-03-27T15:53:25Z</time>
      </trkpt>
      <trkpt lat="42.057635" lon="-3.035921">
        <ele>1490.03</ele>
        <time>2021-03-27T15:53:28Z</time>
      </trkpt>
      <trkpt lat="42.057758" lon="-3.036073">
        <ele>1489.62</ele>
        <time>2021-03-27T15:53:31Z</time>
      </trkpt>
      <trkpt lat="42.057908" lon="-3.03622">
        <ele>1493.6</ele>
        <time>2021-03-27T15:53:34Z</time>
      </trkpt>
      <trkpt lat="42.058292" lon="-3.036455">
        <ele>1500.91</ele>
        <time>2021-03-27T15:53:36Z</time>
      </trkpt>
      <trkpt lat="42.058381" lon="-3.036482">
        <ele>1501.89</ele>
        <time>2021-03-27T15:53:39Z</time>
      </trkpt>
      <trkpt lat="42.058954" lon="-3.036472">
        <ele>1494.73</ele>
        <time>2021-03-27T15:53:42Z</time>
      </trkpt>
      <trkpt lat="42.059013" lon="-3.036517">
        <ele>1495.78</ele>
        <time>2021-03-27T15:53:45Z</time>
      </trkpt>
      <trkpt lat="42.059061" lon="-3.036591">
        <ele>1497.49</ele>
        <time>2021-03-27T15:53:47Z</time>
      </trkpt>
      <trkpt lat="42.059095" lon="-3.03669">
        <ele>1499.51</ele>
        <time>2021-03-27T15:53:50Z</time>
      </trkpt>
      <trkpt lat="42.059081" lon="-3.036916">
        <ele>1504.27</ele>
        <time>2021-03-27T15:53:53Z</time>
      </trkpt>
      <trkpt lat="42.059048" lon="-3.037029">
        <ele>1507.08</ele>
        <time>2021-03-27T15:53:56Z</time>
      </trkpt>
      <trkpt lat="42.059053" lon="-3.037143">
        <ele>1509.04</ele>
        <time>2021-03-27T15:53:58Z</time>
      </trkpt>
      <trkpt lat="42.059111" lon="-3.037291">
        <ele>1510.43</ele>
        <time>2021-03-27T15:54:01Z</time>
      </trkpt>
      <trkpt lat="42.059177" lon="-3.037393">
        <ele>1510.89</ele>
        <time>2021-03-27T15:54:04Z</time>
      </trkpt>
      <trkpt lat="42.059746" lon="-3.038077">
        <ele>1515.39</ele>
        <time>2021-03-27T15:54:07Z</time>
      </trkpt>
      <trkpt lat="42.05985" lon="-3.038181">
        <ele>1517.66</ele>
        <time>2021-03-27T15:54:09Z</time>
      </trkpt>
      <trkpt lat="42.060217" lon="-3.038421">
        <ele>1521.08</ele>
        <time>2021-03-27T15:54:12Z</time>
      </trkpt>
      <trkpt lat="42.060541" lon="-3.038858">
        <ele>1526.63</ele>
        <time>2021-03-27T15:54:15Z</time>
      </trkpt>
      <trkpt lat="42.060696" lon="-3.038989">
        <ele>1528.19</ele>
        <time>2021-03-27T15:54:18Z</time>
      </trkpt>
      <trkpt lat="42.060922" lon="-3.039119">
        <ele>1530.67</ele>
        <time>2021-03-27T15:54:20Z</time>
      </trkpt>
      <trkpt lat="42.060998" lon="-3.039217">
        <ele>1532.69</ele>
        <time>2021-03-27T15:54:23Z</time>
      </trkpt>
      <trkpt lat="42.061044" lon="-3.039355">
        <ele>1534.21</ele>
        <time>2021-03-27T15:54:26Z</time>
      </trkpt>
      <trkpt lat="42.061044" lon="-3.039438">
        <ele>1534.94</ele>
        <time>2021-03-27T15:54:29Z</time>
      </trkpt>
      <trkpt lat="42.060973" lon="-3.039898">
        <ele>1536.32</ele>
        <time>2021-03-27T15:54:31Z</time>
      </trkpt>
      <trkpt lat="42.060936" lon="-3.040048">
        <ele>1536.3</ele>
        <time>2021-03-27T15:54:34Z</time>
      </trkpt>
      <trkpt lat="42.060843" lon="-3.040218">
        <ele>1536.01</ele>
        <time>2021-03-27T15:54:37Z</time>
      </trkpt>
      <trkpt lat="42.060717" lon="-3.040247">
        <ele>1535.26</ele>
        <time>2021-03-27T15:54:40Z</time>
      </trkpt>
      <trkpt lat="42.060591" lon="-3.04021">
        <ele>1534.68</ele>
        <time>2021-03-27T15:54:42Z</time>
      </trkpt>
      <trkpt lat="42.060516" lon="-3.040102">
        <ele>1535.49</ele>
        <time>2021-03-27T15:54:45Z</time>
      </trkpt>
      <trkpt lat="42.060453" lon="-3.039927">
        <ele>1537.1</ele>
        <time>2021-03-27T15:54:48Z</time>
      </trkpt>
      <trkpt lat="42.060393" lon="-3.039691">
        <ele>1538.93</ele>
        <time>2021-03-27T15:54:51Z</time>
      </trkpt>
      <trkpt lat="42.060355" lon="-3.039625">
        <ele>1539.76</ele>
        <time>2021-03-27T15:54:53Z</time>
      </trkpt>
      <trkpt lat="42.060301" lon="-3.039595">
        <ele>1540.62</ele>
        <time>2021-03-27T15:54:56Z</time>
      </trkpt>
      <trkpt lat="42.060123" lon="-3.039575">
        <ele>1542.95</ele>
        <time>2021-03-27T15:54:59Z</time>
      </trkpt>
      <trkpt lat="42.060061" lon="-3.039586">
        <ele>1543.73</ele>
        <time>2021-03-27T15:55:02Z</time>
      </trkpt>
      <trkpt lat="42.059982" lon="-3.039632">
        <ele>1544.99</ele>
        <time>2021-03-27T15:55:04Z</time>
      </trkpt>
      <trkpt lat="42.059923" lon="-3.039697">
        <ele>1546.29</ele>
        <time>2021-03-27T15:55:07Z</time>
      </trkpt>
      <trkpt lat="42.059867" lon="-3.03978">
        <ele>1546.96</ele>
        <time>2021-03-27T15:55:10Z</time>
      </trkpt>
      <trkpt lat="42.059759" lon="-3.040036">
        <ele>1547.67</ele>
        <time>2021-03-27T15:55:13Z</time>
      </trkpt>
      <trkpt lat="42.059707" lon="-3.040125">
        <ele>1548.18</ele>
        <time>2021-03-27T15:55:15Z</time>
      </trkpt>
      <trkpt lat="42.059551" lon="-3.040272">
        <ele>1551.02</ele>
        <time>2021-03-27T15:55:18Z</time>
      </trkpt>
      <trkpt lat="42.059078" lon="-3.040623">
        <ele>1564.72</ele>
        <time>2021-03-27T15:55:21Z</time>
      </trkpt>
      <trkpt lat="42.058673" lon="-3.040809">
        <ele>1569.86</ele>
        <time>2021-03-27T15:55:24Z</time>
      </trkpt>
      <trkpt lat="42.058398" lon="-3.040901">
        <ele>1572.98</ele>
        <time>2021-03-27T15:55:26Z</time>
      </trkpt>
      <trkpt lat="42.057986" lon="-3.040971">
        <ele>1582.51</ele>
        <time>2021-03-27T15:55:29Z</time>
      </trkpt>
      <trkpt lat="42.057856" lon="-3.040905">
        <ele>1585.1</ele>
        <time>2021-03-27T15:55:32Z</time>
      </trkpt>
      <trkpt lat="42.057788" lon="-3.04079">
        <ele>1587.01</ele>
        <time>2021-03-27T15:55:35Z</time>
      </trkpt>
      <trkpt lat="42.057689" lon="-3.040396">
        <ele>1587.96</ele>
        <time>2021-03-27T15:55:37Z</time>
      </trkpt>
      <trkpt lat="42.057629" lon="-3.040293">
        <ele>1587.18</ele>
        <time>2021-03-27T15:55:40Z</time>
      </trkpt>
      <trkpt lat="42.057568" lon="-3.040225">
        <ele>1586.23</ele>
        <time>2021-03-27T15:55:43Z</time>
      </trkpt>
      <trkpt lat="42.057512" lon="-3.040187">
        <ele>1585.69</ele>
        <time>2021-03-27T15:55:46Z</time>
      </trkpt>
      <trkpt lat="42.057448" lon="-3.040184">
        <ele>1585.45</ele>
        <time>2021-03-27T15:55:48Z</time>
      </trkpt>
      <trkpt lat="42.057295" lon="-3.040226">
        <ele>1585.83</ele>
        <time>2021-03-27T15:55:51Z</time>
      </trkpt>
      <trkpt lat="42.0564" lon="-3.040798">
        <ele>1602.26</ele>
        <time>2021-03-27T15:55:54Z</time>
      </trkpt>
      <trkpt lat="42.056183" lon="-3.040871">
        <ele>1607.16</ele>
        <time>2021-03-27T15:55:57Z</time>
      </trkpt>
      <trkpt lat="42.056112" lon="-3.040884">
        <ele>1608.53</ele>
        <time>2021-03-27T15:55:59Z</time>
      </trkpt>
      <trkpt lat="42.056058" lon="-3.040866">
        <ele>1609.09</ele>
        <time>2021-03-27T15:56:02Z</time>
      </trkpt>
      <trkpt lat="42.055985" lon="-3.040789">
        <ele>1609.63</ele>
        <time>2021-03-27T15:56:05Z</time>
      </trkpt>
      <trkpt lat="42.055961" lon="-3.040723">
        <ele>1609.8</ele>
        <time>2021-03-27T15:56:08Z</time>
      </trkpt>
      <trkpt lat="42.05594" lon="-3.040618">
        <ele>1609.87</ele>
        <time>2021-03-27T15:56:10Z</time>
      </trkpt>
      <trkpt lat="42.055938" lon="-3.040505">
        <ele>1609.93</ele>
        <time>2021-03-27T15:56:13Z</time>
      </trkpt>
      <trkpt lat="42.05594" lon="-3.040334">
        <ele>1610.48</ele>
        <time>2021-03-27T15:56:16Z</time>
      </trkpt>
      <trkpt lat="42.055975" lon="-3.040081">
        <ele>1612.06</ele>
        <time>2021-03-27T15:56:19Z</time>
      </trkpt>
      <trkpt lat="42.056108" lon="-3.039351">
        <ele>1616.75</ele>
        <time>2021-03-27T15:56:21Z</time>
      </trkpt>
      <trkpt lat="42.056118" lon="-3.039203">
        <ele>1617.56</ele>
        <time>2021-03-27T15:56:24Z</time>
      </trkpt>
      <trkpt lat="42.056103" lon="-3.0391">
        <ele>1617.91</ele>
        <time>2021-03-27T15:56:27Z</time>
      </trkpt>
      <trkpt lat="42.056073" lon="-3.039026">
        <ele>1618.18</ele>
        <time>2021-03-27T15:56:30Z</time>
      </trkpt>
      <trkpt lat="42.055959" lon="-3.038861">
        <ele>1619.66</ele>
        <time>2021-03-27T15:56:32Z</time>
      </trkpt>
      <trkpt lat="42.055784" lon="-3.038693">
        <ele>1622.81</ele>
        <time>2021-03-27T15:56:35Z</time>
      </trkpt>
      <trkpt lat="42.055379" lon="-3.038178">
        <ele>1627.78</ele>
        <time>2021-03-27T15:56:38Z</time>
      </trkpt>
      <trkpt lat="42.055331" lon="-3.038153">
        <ele>1628.78</ele>
        <time>2021-03-27T15:56:41Z</time>
      </trkpt>
      <trkpt lat="42.055238" lon="-3.038178">
        <ele>1631.49</ele>
        <time>2021-03-27T15:56:43Z</time>
      </trkpt>
      <trkpt lat="42.055184" lon="-3.038268">
        <ele>1633.63</ele>
        <time>2021-03-27T15:56:46Z</time>
      </trkpt>
      <trkpt lat="42.055185" lon="-3.038324">
        <ele>1633.67</ele>
        <time>2021-03-27T15:56:49Z</time>
      </trkpt>
      <trkpt lat="42.055375" lon="-3.039083">
        <ele>1636.22</ele>
        <time>2021-03-27T15:56:52Z</time>
      </trkpt>
      <trkpt lat="42.055385" lon="-3.039182">
        <ele>1637.13</ele>
        <time>2021-03-27T15:56:54Z</time>
      </trkpt>
      <trkpt lat="42.055372" lon="-3.039427">
        <ele>1637.31</ele>
        <time>2021-03-27T15:56:57Z</time>
      </trkpt>
      <trkpt lat="42.055325" lon="-3.039689">
        <ele>1637.02</ele>
        <time>2021-03-27T15:57:00Z</time>
      </trkpt>
      <trkpt lat="42.055261" lon="-3.039875">
        <ele>1636.81</ele>
        <time>2021-03-27T15:57:03Z</time>
      </trkpt>
      <trkpt lat="42.055199" lon="-3.039937">
        <ele>1638.02</ele>
        <time>2021-03-27T15:57:05Z</time>
      </trkpt>
      <trkpt lat="42.055143" lon="-3.039945">
        <ele>1639.66</ele>
        <time>2021-03-27T15:57:08Z</time>
      </trkpt>
      <trkpt lat="42.055107" lon="-3.039938">
        <ele>1640.79</ele>
        <time>2021-03-27T15:57:11Z</time>
      </trkpt>
      <trkpt lat="42.055069" lon="-3.039896">
        <ele>1642.04</ele>
        <time>2021-03-27T15:57:14Z</time>
      </trkpt>
      <trkpt lat="42.055043" lon="-3.039838">
        <ele>1642.88</ele>
        <time>2021-03-27T15:57:16Z</time>
      </trkpt>
      <trkpt lat="42.055029" lon="-3.03912">
        <ele>1645.08</ele>
        <time>2021-03-27T15:57:19Z</time>
      </trkpt>
      <trkpt lat="42.05501" lon="-3.038968">
        <ele>1644.32</ele>
        <time>2021-03-27T15:57:22Z</time>
      </trkpt>
      <trkpt lat="42.054973" lon="-3.038832">
        <ele>1644.21</ele>
        <time>2021-03-27T15:57:25Z</time>
      </trkpt>
      <trkpt lat="42.054474" lon="-3.037617">
        <ele>1654.86</ele>
        <time>2021-03-27T15:57:27Z</time>
      </trkpt>
      <trkpt lat="42.054376" lon="-3.037336">
        <ele>1656.52</ele>
        <time>2021-03-27T15:57:30Z</time>
      </trkpt>
      <trkpt lat="42.053898" lon="-3.036197">
        <ele>1665.19</ele>
        <time>2021-03-27T15:57:33Z</time>
      </trkpt>
      <trkpt lat="42.053635" lon="-3.03573">
        <ele>1661.44</ele>
        <time>2021-03-27T15:57:36Z</time>
      </trkpt>
      <trkpt lat="42.053565" lon="-3.035642">
        <ele>1660.98</ele>
        <time>2021-03-27T15:57:38Z</time>
      </trkpt>
      <trkpt lat="42.05335" lon="-3.03549">
        <ele>1662.98</ele>
        <time>2021-03-27T15:57:41Z</time>
      </trkpt>
      <trkpt lat="42.053106" lon="-3.035382">
        <ele>1662.25</ele>
        <time>2021-03-27T15:57:44Z</time>
      </trkpt>
      <trkpt lat="42.052541" lon="-3.035299">
        <ele>1659.47</ele>
        <time>2021-03-27T15:57:47Z</time>
      </trkpt>
      <trkpt lat="42.052146" lon="-3.035322">
        <ele>1662.03</ele>
        <time>2021-03-27T15:57:50Z</time>
      </trkpt>
      <trkpt lat="42.051943" lon="-3.035382">
        <ele>1663.51</ele>
        <time>2021-03-27T15:57:53Z</time>
      </trkpt>
      <trkpt lat="42.051848" lon="-3.03545">
        <ele>1664.96</ele>
        <time>2021-03-27T15:57:56Z</time>
      </trkpt>
      <trkpt lat="42.051733" lon="-3.035581">
        <ele>1667.32</ele>
        <time>2021-03-27T15:57:59Z</time>
      </trkpt>
      <trkpt lat="42.051679" lon="-3.035729">
        <ele>1670.7</ele>
        <time>2021-03-27T15:58:02Z</time>
      </trkpt>
      <trkpt lat="42.051689" lon="-3.035809">
        <ele>1672.4</ele>
        <time>2021-03-27T15:58:05Z</time>
      </trkpt>
      <trkpt lat="42.051711" lon="-3.035876">
        <ele>1673.72</ele>
        <time>2021-03-27T15:58:08Z</time>
      </trkpt>
      <trkpt lat="42.051751" lon="-3.03593">
        <ele>1674.57</ele>
        <time>2021-03-27T15:58:11Z</time>
      </trkpt>
      <trkpt lat="42.051809" lon="-3.035965">
        <ele>1674.85</ele>
        <time>2021-03-27T15:58:14Z</time>
      </trkpt>
      <trkpt lat="42.05279" lon="-3.036046">
        <ele>1675.87</ele>
        <time>2021-03-27T15:58:17Z</time>
      </trkpt>
      <trkpt lat="42.052864" lon="-3.036065">
        <ele>1676.48</ele>
        <time>2021-03-27T15:58:20Z</time>
      </trkpt>
      <trkpt lat="42.05293" lon="-3.036112">
        <ele>1677.57</ele>
        <time>2021-03-27T15:58:23Z</time>
      </trkpt>
      <trkpt lat="42.052975" lon="-3.03617">
        <ele>1678.92</ele>
        <time>2021-03-27T15:58:26Z</time>
      </trkpt>
      <trkpt lat="42.052989" lon="-3.036226">
        <ele>1680.14</ele>
        <time>2021-03-27T15:58:29Z</time>
      </trkpt>
      <trkpt lat="42.052968" lon="-3.036281">
        <ele>1681.17</ele>
        <time>2021-03-27T15:58:32Z</time>
      </trkpt>
      <trkpt lat="42.052845" lon="-3.036433">
        <ele>1683.81</ele>
        <time>2021-03-27T15:58:35Z</time>
      </trkpt>
      <trkpt lat="42.05235" lon="-3.036854">
        <ele>1696.93</ele>
        <time>2021-03-27T15:58:38Z</time>
      </trkpt>
      <trkpt lat="42.052157" lon="-3.036927">
        <ele>1699.94</ele>
        <time>2021-03-27T15:58:41Z</time>
      </trkpt>
      <trkpt lat="42.051573" lon="-3.036993">
        <ele>1705.59</ele>
        <time>2021-03-27T15:58:43Z</time>
      </trkpt>
      <trkpt lat="42.051425" lon="-3.037">
        <ele>1705.3</ele>
        <time>2021-03-27T15:58:46Z</time>
      </trkpt>
      <trkpt lat="42.051007" lon="-3.036962">
        <ele>1703.69</ele>
        <time>2021-03-27T15:58:49Z</time>
      </trkpt>
      <trkpt lat="42.050709" lon="-3.036903">
        <ele>1706.89</ele>
        <time>2021-03-27T15:58:52Z</time>
      </trkpt>
      <trkpt lat="42.050623" lon="-3.036844">
        <ele>1707.27</ele>
        <time>2021-03-27T15:58:55Z</time>
      </trkpt>
      <trkpt lat="42.050195" lon="-3.036439">
        <ele>1706.74</ele>
        <time>2021-03-27T15:58:58Z</time>
      </trkpt>
      <trkpt lat="42.049568" lon="-3.035995">
        <ele>1711.81</ele>
        <time>2021-03-27T15:59:01Z</time>
      </trkpt>
      <trkpt lat="42.049304" lon="-3.035836">
        <ele>1713.14</ele>
        <time>2021-03-27T15:59:04Z</time>
      </trkpt>
      <trkpt lat="42.049049" lon="-3.03579">
        <ele>1716.32</ele>
        <time>2021-03-27T15:59:07Z</time>
      </trkpt>
      <trkpt lat="42.048738" lon="-3.03578">
        <ele>1716.64</ele>
        <time>2021-03-27T15:59:10Z</time>
      </trkpt>
      <trkpt lat="42.048338" lon="-3.035861">
        <ele>1719.78</ele>
        <time>2021-03-27T15:59:13Z</time>
      </trkpt>
      <trkpt lat="42.047925" lon="-3.035972">
        <ele>1724.94</ele>
        <time>2021-03-27T15:59:16Z</time>
      </trkpt>
      <trkpt lat="42.047783" lon="-3.035984">
        <ele>1726.05</ele>
        <time>2021-03-27T15:59:19Z</time>
      </trkpt>
      <trkpt lat="42.04773" lon="-3.035972">
        <ele>1726.43</ele>
        <time>2021-03-27T15:59:22Z</time>
      </trkpt>
      <trkpt lat="42.047431" lon="-3.035779">
        <ele>1727.4</ele>
        <time>2021-03-27T15:59:25Z</time>
      </trkpt>
      <trkpt lat="42.047354" lon="-3.035709">
        <ele>1727.75</ele>
        <time>2021-03-27T15:59:28Z</time>
      </trkpt>
      <trkpt lat="42.047223" lon="-3.03552">
        <ele>1727.23</ele>
        <time>2021-03-27T15:59:31Z</time>
      </trkpt>
      <trkpt lat="42.047005" lon="-3.03509">
        <ele>1726.38</ele>
        <time>2021-03-27T15:59:34Z</time>
      </trkpt>
      <trkpt lat="42.046908" lon="-3.034989">
        <ele>1727.99</ele>
        <time>2021-03-27T15:59:37Z</time>
      </trkpt>
      <trkpt lat="42.046529" lon="-3.034755">
        <ele>1732.41</ele>
        <time>2021-03-27T15:59:40Z</time>
      </trkpt>
      <trkpt lat="42.046256" lon="-3.034612">
        <ele>1730.65</ele>
        <time>2021-03-27T15:59:43Z</time>
      </trkpt>
      <trkpt lat="42.046131" lon="-3.034603">
        <ele>1729.82</ele>
        <time>2021-03-27T15:59:46Z</time>
      </trkpt>
      <trkpt lat="42.046002" lon="-3.034644">
        <ele>1728.87</ele>
        <time>2021-03-27T15:59:49Z</time>
      </trkpt>
      <trkpt lat="42.046013" lon="-3.034679">
        <ele>1729.43</ele>
        <time>2021-03-27T15:59:50Z</time>
      </trkpt>
      <trkpt lat="42.046011" lon="-3.034869">
        <ele>1731.51</ele>
        <time>2021-03-27T15:59:50Z</time>
      </trkpt>
      <trkpt lat="42.046022" lon="-3.03493">
        <ele>1732.28</ele>
        <time>2021-03-27T15:59:51Z</time>
      </trkpt>
      <trkpt lat="42.046056" lon="-3.034987">
        <ele>1733.26</ele>
        <time>2021-03-27T15:59:52Z</time>
      </trkpt>
      <trkpt lat="42.046315" lon="-3.035081">
        <ele>1736.76</ele>
        <time>2021-03-27T15:59:55Z</time>
      </trkpt>
      <trkpt lat="42.046601" lon="-3.035255">
        <ele>1737.72</ele>
        <time>2021-03-27T15:59:58Z</time>
      </trkpt>
      <trkpt lat="42.046737" lon="-3.035394">
        <ele>1736.58</ele>
        <time>2021-03-27T16:00:01Z</time>
      </trkpt>
      <trkpt lat="42.046802" lon="-3.035581">
        <ele>1736.67</ele>
        <time>2021-03-27T16:00:04Z</time>
      </trkpt>
      <trkpt lat="42.046803" lon="-3.035671">
        <ele>1738.57</ele>
        <time>2021-03-27T16:00:06Z</time>
      </trkpt>
      <trkpt lat="42.046645" lon="-3.036682">
        <ele>1753.53</ele>
        <time>2021-03-27T16:00:09Z</time>
      </trkpt>
      <trkpt lat="42.046563" lon="-3.037069">
        <ele>1758.25</ele>
        <time>2021-03-27T16:00:12Z</time>
      </trkpt>
      <trkpt lat="42.046315" lon="-3.037642">
        <ele>1768.15</ele>
        <time>2021-03-27T16:00:15Z</time>
      </trkpt>
      <trkpt lat="42.046076" lon="-3.03813">
        <ele>1769.7</ele>
        <time>2021-03-27T16:00:18Z</time>
      </trkpt>
      <trkpt lat="42.045628" lon="-3.038963">
        <ele>1774.13</ele>
        <time>2021-03-27T16:00:21Z</time>
      </trkpt>
      <trkpt lat="42.045444" lon="-3.039224">
        <ele>1779.82</ele>
        <time>2021-03-27T16:00:24Z</time>
      </trkpt>
      <trkpt lat="42.045333" lon="-3.039318">
        <ele>1782.95</ele>
        <time>2021-03-27T16:00:27Z</time>
      </trkpt>
      <trkpt lat="42.045154" lon="-3.039394">
        <ele>1787.24</ele>
        <time>2021-03-27T16:00:30Z</time>
      </trkpt>
      <trkpt lat="42.045024" lon="-3.03941">
        <ele>1789.56</ele>
        <time>2021-03-27T16:00:33Z</time>
      </trkpt>
      <trkpt lat="42.044385" lon="-3.039369">
        <ele>1791.79</ele>
        <time>2021-03-27T16:00:35Z</time>
      </trkpt>
      <trkpt lat="42.044277" lon="-3.039379">
        <ele>1791.42</ele>
        <time>2021-03-27T16:00:38Z</time>
      </trkpt>
      <trkpt lat="42.044231" lon="-3.039406">
        <ele>1791.71</ele>
        <time>2021-03-27T16:00:41Z</time>
      </trkpt>
      <trkpt lat="42.044204" lon="-3.039452">
        <ele>1792.42</ele>
        <time>2021-03-27T16:00:44Z</time>
      </trkpt>
      <trkpt lat="42.04419" lon="-3.039492">
        <ele>1793.2</ele>
        <time>2021-03-27T16:00:47Z</time>
      </trkpt>
      <trkpt lat="42.0442" lon="-3.039579">
        <ele>1795.15</ele>
        <time>2021-03-27T16:00:50Z</time>
      </trkpt>
      <trkpt lat="42.044626" lon="-3.040042">
        <ele>1806.66</ele>
        <time>2021-03-27T16:00:53Z</time>
      </trkpt>
      <trkpt lat="42.044686" lon="-3.040159">
        <ele>1809.4</ele>
        <time>2021-03-27T16:00:56Z</time>
      </trkpt>
      <trkpt lat="42.044711" lon="-3.040308">
        <ele>1812.49</ele>
        <time>2021-03-27T16:00:59Z</time>
      </trkpt>
      <trkpt lat="42.044705" lon="-3.040375">
        <ele>1813.83</ele>
        <time>2021-03-27T16:01:02Z</time>
      </trkpt>
      <trkpt lat="42.044645" lon="-3.040514">
        <ele>1815.76</ele>
        <time>2021-03-27T16:01:04Z</time>
      </trkpt>
      <trkpt lat="42.044215" lon="-3.041055">
        <ele>1823.45</ele>
        <time>2021-03-27T16:01:07Z</time>
      </trkpt>
      <trkpt lat="42.044082" lon="-3.041292">
        <ele>1825.43</ele>
        <time>2021-03-27T16:01:10Z</time>
      </trkpt>
      <trkpt lat="42.043995" lon="-3.041533">
        <ele>1827.36</ele>
        <time>2021-03-27T16:01:13Z</time>
      </trkpt>
      <trkpt lat="42.043977" lon="-3.041652">
        <ele>1828.71</ele>
        <time>2021-03-27T16:01:16Z</time>
      </trkpt>
      <trkpt lat="42.043979" lon="-3.041762">
        <ele>1830.33</ele>
        <time>2021-03-27T16:01:19Z</time>
      </trkpt>
      <trkpt lat="42.044017" lon="-3.041882">
        <ele>1832.57</ele>
        <time>2021-03-27T16:01:22Z</time>
      </trkpt>
      <trkpt lat="42.044143" lon="-3.042051">
        <ele>1835.58</ele>
        <time>2021-03-27T16:01:25Z</time>
      </trkpt>
      <trkpt lat="42.044537" lon="-3.042405">
        <ele>1840.87</ele>
        <time>2021-03-27T16:01:28Z</time>
      </trkpt>
      <trkpt lat="42.04525" lon="-3.043003">
        <ele>1852.4</ele>
        <time>2021-03-27T16:01:31Z</time>
      </trkpt>
      <trkpt lat="42.045312" lon="-3.043034">
        <ele>1853.23</ele>
        <time>2021-03-27T16:01:33Z</time>
      </trkpt>
      <trkpt lat="42.045409" lon="-3.043035">
        <ele>1854.3</ele>
        <time>2021-03-27T16:01:36Z</time>
      </trkpt>
      <trkpt lat="42.045509" lon="-3.042979">
        <ele>1855.18</ele>
        <time>2021-03-27T16:01:39Z</time>
      </trkpt>
      <trkpt lat="42.045554" lon="-3.04293">
        <ele>1855.52</ele>
        <time>2021-03-27T16:01:42Z</time>
      </trkpt>
      <trkpt lat="42.045616" lon="-3.042798">
        <ele>1856.37</ele>
        <time>2021-03-27T16:01:45Z</time>
      </trkpt>
      <trkpt lat="42.045641" lon="-3.042687">
        <ele>1856.84</ele>
        <time>2021-03-27T16:01:48Z</time>
      </trkpt>
      <trkpt lat="42.045656" lon="-3.042325">
        <ele>1858.6</ele>
        <time>2021-03-27T16:01:51Z</time>
      </trkpt>
      <trkpt lat="42.045624" lon="-3.041811">
        <ele>1861.59</ele>
        <time>2021-03-27T16:01:54Z</time>
      </trkpt>
      <trkpt lat="42.045635" lon="-3.041654">
        <ele>1862.31</ele>
        <time>2021-03-27T16:01:57Z</time>
      </trkpt>
      <trkpt lat="42.045658" lon="-3.041595">
        <ele>1861.58</ele>
        <time>2021-03-27T16:02:00Z</time>
      </trkpt>
      <trkpt lat="42.045747" lon="-3.041511">
        <ele>1860.32</ele>
        <time>2021-03-27T16:02:02Z</time>
      </trkpt>
      <trkpt lat="42.045842" lon="-3.041517">
        <ele>1860.03</ele>
        <time>2021-03-27T16:02:05Z</time>
      </trkpt>
      <trkpt lat="42.045939" lon="-3.041607">
        <ele>1862.44</ele>
        <time>2021-03-27T16:02:08Z</time>
      </trkpt>
      <trkpt lat="42.046039" lon="-3.041817">
        <ele>1866.93</ele>
        <time>2021-03-27T16:02:11Z</time>
      </trkpt>
      <trkpt lat="42.04613" lon="-3.042261">
        <ele>1869.47</ele>
        <time>2021-03-27T16:02:14Z</time>
      </trkpt>
      <trkpt lat="42.04614" lon="-3.042618">
        <ele>1868.63</ele>
        <time>2021-03-27T16:02:17Z</time>
      </trkpt>
      <trkpt lat="42.046083" lon="-3.044209">
        <ele>1867.85</ele>
        <time>2021-03-27T16:02:20Z</time>
      </trkpt>
      <trkpt lat="42.046083" lon="-3.044209">
        <ele>1867.85</ele>
        <time>2021-03-27T16:02:20Z</time>
      </trkpt>
      <trkpt lat="42.04614" lon="-3.042618">
        <ele>1868.63</ele>
        <time>2021-03-27T16:02:17Z</time>
      </trkpt>
      <trkpt lat="42.04613" lon="-3.042261">
        <ele>1869.47</ele>
        <time>2021-03-27T16:02:14Z</time>
      </trkpt>
      <trkpt lat="42.046039" lon="-3.041817">
        <ele>1866.93</ele>
        <time>2021-03-27T16:02:11Z</time>
      </trkpt>
      <trkpt lat="42.045939" lon="-3.041607">
        <ele>1862.44</ele>
        <time>2021-03-27T16:02:08Z</time>
      </trkpt>
      <trkpt lat="42.045842" lon="-3.041517">
        <ele>1860.03</ele>
        <time>2021-03-27T16:02:05Z</time>
      </trkpt>
      <trkpt lat="42.045747" lon="-3.041511">
        <ele>1860.32</ele>
        <time>2021-03-27T16:02:02Z</time>
      </trkpt>
      <trkpt lat="42.045658" lon="-3.041595">
        <ele>1861.58</ele>
        <time>2021-03-27T16:02:00Z</time>
      </trkpt>
      <trkpt lat="42.045635" lon="-3.041654">
        <ele>1862.31</ele>
        <time>2021-03-27T16:01:57Z</time>
      </trkpt>
      <trkpt lat="42.045624" lon="-3.041811">
        <ele>1861.59</ele>
        <time>2021-03-27T16:01:54Z</time>
      </trkpt>
      <trkpt lat="42.045656" lon="-3.042325">
        <ele>1858.6</ele>
        <time>2021-03-27T16:01:51Z</time>
      </trkpt>
      <trkpt lat="42.045641" lon="-3.042687">
        <ele>1856.84</ele>
        <time>2021-03-27T16:01:48Z</time>
      </trkpt>
      <trkpt lat="42.045616" lon="-3.042798">
        <ele>1856.37</ele>
        <time>2021-03-27T16:01:45Z</time>
      </trkpt>
      <trkpt lat="42.045554" lon="-3.04293">
        <ele>1855.52</ele>
        <time>2021-03-27T16:01:42Z</time>
      </trkpt>
      <trkpt lat="42.045509" lon="-3.042979">
        <ele>1855.18</ele>
        <time>2021-03-27T16:01:39Z</time>
      </trkpt>
      <trkpt lat="42.045409" lon="-3.043035">
        <ele>1854.3</ele>
        <time>2021-03-27T16:01:36Z</time>
      </trkpt>
      <trkpt lat="42.045312" lon="-3.043034">
        <ele>1853.23</ele>
        <time>2021-03-27T16:01:33Z</time>
      </trkpt>
      <trkpt lat="42.04525" lon="-3.043003">
        <ele>1852.4</ele>
        <time>2021-03-27T16:01:31Z</time>
      </trkpt>
      <trkpt lat="42.044537" lon="-3.042405">
        <ele>1840.87</ele>
        <time>2021-03-27T16:01:28Z</time>
      </trkpt>
      <trkpt lat="42.044143" lon="-3.042051">
        <ele>1835.58</ele>
        <time>2021-03-27T16:01:25Z</time>
      </trkpt>
      <trkpt lat="42.044017" lon="-3.041882">
        <ele>1832.57</ele>
        <time>2021-03-27T16:01:22Z</time>
      </trkpt>
      <trkpt lat="42.043979" lon="-3.041762">
        <ele>1830.33</ele>
        <time>2021-03-27T16:01:19Z</time>
      </trkpt>
      <trkpt lat="42.043977" lon="-3.041652">
        <ele>1828.71</ele>
        <time>2021-03-27T16:01:16Z</time>
      </trkpt>
      <trkpt lat="42.043995" lon="-3.041533">
        <ele>1827.36</ele>
        <time>2021-03-27T16:01:13Z</time>
      </trkpt>
      <trkpt lat="42.044082" lon="-3.041292">
        <ele>1825.43</ele>
        <time>2021-03-27T16:01:10Z</time>
      </trkpt>
      <trkpt lat="42.044215" lon="-3.041055">
        <ele>1823.45</ele>
        <time>2021-03-27T16:01:07Z</time>
      </trkpt>
      <trkpt lat="42.044645" lon="-3.040514">
        <ele>1815.76</ele>
        <time>2021-03-27T16:01:04Z</time>
      </trkpt>
      <trkpt lat="42.044705" lon="-3.040375">
        <ele>1813.83</ele>
        <time>2021-03-27T16:01:02Z</time>
      </trkpt>
      <trkpt lat="42.044711" lon="-3.040308">
        <ele>1812.49</ele>
        <time>2021-03-27T16:00:59Z</time>
      </trkpt>
      <trkpt lat="42.044686" lon="-3.040159">
        <ele>1809.4</ele>
        <time>2021-03-27T16:00:56Z</time>
      </trkpt>
      <trkpt lat="42.044626" lon="-3.040042">
        <ele>1806.66</ele>
        <time>2021-03-27T16:00:53Z</time>
      </trkpt>
      <trkpt lat="42.0442" lon="-3.039579">
        <ele>1795.15</ele>
        <time>2021-03-27T16:00:50Z</time>
      </trkpt>
      <trkpt lat="42.04419" lon="-3.039492">
        <ele>1793.2</ele>
        <time>2021-03-27T16:00:47Z</time>
      </trkpt>
      <trkpt lat="42.044204" lon="-3.039452">
        <ele>1792.42</ele>
        <time>2021-03-27T16:00:44Z</time>
      </trkpt>
      <trkpt lat="42.044231" lon="-3.039406">
        <ele>1791.71</ele>
        <time>2021-03-27T16:00:41Z</time>
      </trkpt>
      <trkpt lat="42.044277" lon="-3.039379">
        <ele>1791.42</ele>
        <time>2021-03-27T16:00:38Z</time>
      </trkpt>
      <trkpt lat="42.044385" lon="-3.039369">
        <ele>1791.79</ele>
        <time>2021-03-27T16:00:35Z</time>
      </trkpt>
      <trkpt lat="42.045024" lon="-3.03941">
        <ele>1789.56</ele>
        <time>2021-03-27T16:00:33Z</time>
      </trkpt>
      <trkpt lat="42.045154" lon="-3.039394">
        <ele>1787.24</ele>
        <time>2021-03-27T16:00:30Z</time>
      </trkpt>
      <trkpt lat="42.045333" lon="-3.039318">
        <ele>1782.95</ele>
        <time>2021-03-27T16:00:27Z</time>
      </trkpt>
      <trkpt lat="42.045444" lon="-3.039224">
        <ele>1779.82</ele>
        <time>2021-03-27T16:00:24Z</time>
      </trkpt>
      <trkpt lat="42.045628" lon="-3.038963">
        <ele>1774.13</ele>
        <time>2021-03-27T16:00:21Z</time>
      </trkpt>
      <trkpt lat="42.046076" lon="-3.03813">
        <ele>1769.7</ele>
        <time>2021-03-27T16:00:18Z</time>
      </trkpt>
      <trkpt lat="42.046315" lon="-3.037642">
        <ele>1768.15</ele>
        <time>2021-03-27T16:00:15Z</time>
      </trkpt>
      <trkpt lat="42.046563" lon="-3.037069">
        <ele>1758.25</ele>
        <time>2021-03-27T16:00:12Z</time>
      </trkpt>
      <trkpt lat="42.046645" lon="-3.036682">
        <ele>1753.53</ele>
        <time>2021-03-27T16:00:09Z</time>
      </trkpt>
      <trkpt lat="42.046803" lon="-3.035671">
        <ele>1738.57</ele>
        <time>2021-03-27T16:00:06Z</time>
      </trkpt>
      <trkpt lat="42.046802" lon="-3.035581">
        <ele>1736.67</ele>
        <time>2021-03-27T16:00:04Z</time>
      </trkpt>
      <trkpt lat="42.046737" lon="-3.035394">
        <ele>1736.58</ele>
        <time>2021-03-27T16:00:01Z</time>
      </trkpt>
      <trkpt lat="42.046601" lon="-3.035255">
        <ele>1737.72</ele>
        <time>2021-03-27T15:59:58Z</time>
      </trkpt>
      <trkpt lat="42.046315" lon="-3.035081">
        <ele>1736.76</ele>
        <time>2021-03-27T15:59:55Z</time>
      </trkpt>
      <trkpt lat="42.046056" lon="-3.034987">
        <ele>1733.26</ele>
        <time>2021-03-27T15:59:52Z</time>
      </trkpt>
      <trkpt lat="42.045913" lon="-3.034921">
        <ele>1731.01</ele>
        <time>2021-03-27T16:04:51Z</time>
      </trkpt>
      <trkpt lat="42.045815" lon="-3.034818">
        <ele>1729.06</ele>
        <time>2021-03-27T16:04:54Z</time>
      </trkpt>
      <trkpt lat="42.045754" lon="-3.034691">
        <ele>1727.87</ele>
        <time>2021-03-27T16:04:58Z</time>
      </trkpt>
      <trkpt lat="42.045725" lon="-3.034466">
        <ele>1725.06</ele>
        <time>2021-03-27T16:05:01Z</time>
      </trkpt>
      <trkpt lat="42.045714" lon="-3.034237">
        <ele>1723.69</ele>
        <time>2021-03-27T16:05:04Z</time>
      </trkpt>
      <trkpt lat="42.045787" lon="-3.033265">
        <ele>1721.89</ele>
        <time>2021-03-27T16:05:07Z</time>
      </trkpt>
      <trkpt lat="42.045781" lon="-3.033161">
        <ele>1721.84</ele>
        <time>2021-03-27T16:05:11Z</time>
      </trkpt>
      <trkpt lat="42.045737" lon="-3.032906">
        <ele>1723.34</ele>
        <time>2021-03-27T16:05:14Z</time>
      </trkpt>
      <trkpt lat="42.045729" lon="-3.032618">
        <ele>1724.03</ele>
        <time>2021-03-27T16:05:17Z</time>
      </trkpt>
      <trkpt lat="42.045783" lon="-3.032264">
        <ele>1720.07</ele>
        <time>2021-03-27T16:05:20Z</time>
      </trkpt>
      <trkpt lat="42.045931" lon="-3.031639">
        <ele>1712.83</ele>
        <time>2021-03-27T16:05:24Z</time>
      </trkpt>
      <trkpt lat="42.046006" lon="-3.031182">
        <ele>1715.39</ele>
        <time>2021-03-27T16:05:27Z</time>
      </trkpt>
      <trkpt lat="42.046193" lon="-3.030561">
        <ele>1709.93</ele>
        <time>2021-03-27T16:05:30Z</time>
      </trkpt>
      <trkpt lat="42.046455" lon="-3.029966">
        <ele>1705.97</ele>
        <time>2021-03-27T16:05:33Z</time>
      </trkpt>
      <trkpt lat="42.046507" lon="-3.029815">
        <ele>1705.35</ele>
        <time>2021-03-27T16:05:37Z</time>
      </trkpt>
      <trkpt lat="42.046843" lon="-3.028717">
        <ele>1693.85</ele>
        <time>2021-03-27T16:05:40Z</time>
      </trkpt>
      <trkpt lat="42.047076" lon="-3.028026">
        <ele>1688.94</ele>
        <time>2021-03-27T16:05:43Z</time>
      </trkpt>
      <trkpt lat="42.047309" lon="-3.027272">
        <ele>1684.88</ele>
        <time>2021-03-27T16:05:47Z</time>
      </trkpt>
      <trkpt lat="42.047357" lon="-3.027057">
        <ele>1682.57</ele>
        <time>2021-03-27T16:05:50Z</time>
      </trkpt>
      <trkpt lat="42.047363" lon="-3.026869">
        <ele>1680.24</ele>
        <time>2021-03-27T16:05:53Z</time>
      </trkpt>
      <trkpt lat="42.04735" lon="-3.026778">
        <ele>1678.94</ele>
        <time>2021-03-27T16:05:56Z</time>
      </trkpt>
      <trkpt lat="42.047231" lon="-3.026416">
        <ele>1671.64</ele>
        <time>2021-03-27T16:06:00Z</time>
      </trkpt>
      <trkpt lat="42.047135" lon="-3.026222">
        <ele>1668.14</ele>
        <time>2021-03-27T16:06:03Z</time>
      </trkpt>
      <trkpt lat="42.047082" lon="-3.026131">
        <ele>1666.48</ele>
        <time>2021-03-27T16:06:06Z</time>
      </trkpt>
      <trkpt lat="42.046906" lon="-3.02595">
        <ele>1665.0</ele>
        <time>2021-03-27T16:06:09Z</time>
      </trkpt>
      <trkpt lat="42.046642" lon="-3.025801">
        <ele>1663.41</ele>
        <time>2021-03-27T16:06:13Z</time>
      </trkpt>
      <trkpt lat="42.046579" lon="-3.025729">
        <ele>1662.0</ele>
        <time>2021-03-27T16:06:16Z</time>
      </trkpt>
      <trkpt lat="42.04654" lon="-3.025617">
        <ele>1659.76</ele>
        <time>2021-03-27T16:06:19Z</time>
      </trkpt>
      <trkpt lat="42.046548" lon="-3.025551">
        <ele>1658.45</ele>
        <time>2021-03-27T16:06:22Z</time>
      </trkpt>
      <trkpt lat="42.046647" lon="-3.025395">
        <ele>1655.38</ele>
        <time>2021-03-27T16:06:26Z</time>
      </trkpt>
      <trkpt lat="42.046852" lon="-3.025244">
        <ele>1651.65</ele>
        <time>2021-03-27T16:06:29Z</time>
      </trkpt>
      <trkpt lat="42.047426" lon="-3.025008">
        <ele>1643.95</ele>
        <time>2021-03-27T16:06:32Z</time>
      </trkpt>
      <trkpt lat="42.047481" lon="-3.024925">
        <ele>1641.6</ele>
        <time>2021-03-27T16:06:35Z</time>
      </trkpt>
      <trkpt lat="42.047481" lon="-3.024817">
        <ele>1639.3</ele>
        <time>2021-03-27T16:06:39Z</time>
      </trkpt>
      <trkpt lat="42.047346" lon="-3.024471">
        <ele>1635.69</ele>
        <time>2021-03-27T16:06:42Z</time>
      </trkpt>
      <trkpt lat="42.047268" lon="-3.024328">
        <ele>1634.78</ele>
        <time>2021-03-27T16:06:45Z</time>
      </trkpt>
      <trkpt lat="42.047035" lon="-3.024029">
        <ele>1632.88</ele>
        <time>2021-03-27T16:06:48Z</time>
      </trkpt>
      <trkpt lat="42.046766" lon="-3.02375">
        <ele>1623.9</ele>
        <time>2021-03-27T16:06:52Z</time>
      </trkpt>
      <trkpt lat="42.045809" lon="-3.022932">
        <ele>1608.63</ele>
        <time>2021-03-27T16:06:55Z</time>
      </trkpt>
      <trkpt lat="42.045702" lon="-3.022836">
        <ele>1607.26</ele>
        <time>2021-03-27T16:06:58Z</time>
      </trkpt>
      <trkpt lat="42.045635" lon="-3.022744">
        <ele>1605.95</ele>
        <time>2021-03-27T16:07:01Z</time>
      </trkpt>
      <trkpt lat="42.04562" lon="-3.022636">
        <ele>1604.82</ele>
        <time>2021-03-27T16:07:05Z</time>
      </trkpt>
      <trkpt lat="42.04571" lon="-3.021962">
        <ele>1597.37</ele>
        <time>2021-03-27T16:07:08Z</time>
      </trkpt>
      <trkpt lat="42.045586" lon="-3.02186">
        <ele>1594.98</ele>
        <time>2021-03-27T16:07:11Z</time>
      </trkpt>
      <trkpt lat="42.045383" lon="-3.021736">
        <ele>1592.85</ele>
        <time>2021-03-27T16:07:15Z</time>
      </trkpt>
      <trkpt lat="42.044787" lon="-3.021536">
        <ele>1589.81</ele>
        <time>2021-03-27T16:07:18Z</time>
      </trkpt>
      <trkpt lat="42.04464" lon="-3.021512">
        <ele>1588.85</ele>
        <time>2021-03-27T16:07:21Z</time>
      </trkpt>
      <trkpt lat="42.044371" lon="-3.021504">
        <ele>1587.01</ele>
        <time>2021-03-27T16:07:24Z</time>
      </trkpt>
      <trkpt lat="42.04374" lon="-3.021584">
        <ele>1581.42</ele>
        <time>2021-03-27T16:07:28Z</time>
      </trkpt>
      <trkpt lat="42.04232" lon="-3.021712">
        <ele>1575.88</ele>
        <time>2021-03-27T16:07:31Z</time>
      </trkpt>
      <trkpt lat="42.042119" lon="-3.021665">
        <ele>1572.86</ele>
        <time>2021-03-27T16:07:34Z</time>
      </trkpt>
      <trkpt lat="42.04168" lon="-3.021444">
        <ele>1567.0</ele>
        <time>2021-03-27T16:07:37Z</time>
      </trkpt>
      <trkpt lat="42.040857" lon="-3.020953">
        <ele>1567.94</ele>
        <time>2021-03-27T16:07:41Z</time>
      </trkpt>
      <trkpt lat="42.040196" lon="-3.020585">
        <ele>1566.33</ele>
        <time>2021-03-27T16:07:44Z</time>
      </trkpt>
      <trkpt lat="42.040005" lon="-3.020432">
        <ele>1563.87</ele>
        <time>2021-03-27T16:07:47Z</time>
      </trkpt>
      <trkpt lat="42.039306" lon="-3.019784">
        <ele>1555.23</ele>
        <time>2021-03-27T16:07:51Z</time>
      </trkpt>
      <trkpt lat="42.038464" lon="-3.018802">
        <ele>1548.75</ele>
        <time>2021-03-27T16:07:54Z</time>
      </trkpt>
      <trkpt lat="42.038196" lon="-3.018525">
        <ele>1544.11</ele>
        <time>2021-03-27T16:07:57Z</time>
      </trkpt>
      <trkpt lat="42.038058" lon="-3.018423">
        <ele>1541.62</ele>
        <time>2021-03-27T16:08:00Z</time>
      </trkpt>
      <trkpt lat="42.037936" lon="-3.018371">
        <ele>1540.67</ele>
        <time>2021-03-27T16:08:04Z</time>
      </trkpt>
      <trkpt lat="42.037743" lon="-3.01837">
        <ele>1540.66</ele>
        <time>2021-03-27T16:08:07Z</time>
      </trkpt>
      <trkpt lat="42.037552" lon="-3.018419">
        <ele>1541.55</ele>
        <time>2021-03-27T16:08:10Z</time>
      </trkpt>
      <trkpt lat="42.036967" lon="-3.018862">
        <ele>1540.08</ele>
        <time>2021-03-27T16:08:13Z</time>
      </trkpt>
      <trkpt lat="42.036443" lon="-3.019296">
        <ele>1531.72</ele>
        <time>2021-03-27T16:08:17Z</time>
      </trkpt>
      <trkpt lat="42.036266" lon="-3.019358">
        <ele>1529.22</ele>
        <time>2021-03-27T16:08:20Z</time>
      </trkpt>
      <trkpt lat="42.036021" lon="-3.019383">
        <ele>1525.69</ele>
        <time>2021-03-27T16:08:23Z</time>
      </trkpt>
      <trkpt lat="42.035872" lon="-3.019341">
        <ele>1522.41</ele>
        <time>2021-03-27T16:08:27Z</time>
      </trkpt>
      <trkpt lat="42.03568" lon="-3.019226">
        <ele>1518.23</ele>
        <time>2021-03-27T16:08:30Z</time>
      </trkpt>
      <trkpt lat="42.034989" lon="-3.018714">
        <ele>1519.33</ele>
        <time>2021-03-27T16:08:33Z</time>
      </trkpt>
      <trkpt lat="42.03486" lon="-3.018648">
        <ele>1518.63</ele>
        <time>2021-03-27T16:08:36Z</time>
      </trkpt>
      <trkpt lat="42.03453" lon="-3.018602">
        <ele>1515.95</ele>
        <time>2021-03-27T16:08:40Z</time>
      </trkpt>
      <trkpt lat="42.034144" lon="-3.018601">
        <ele>1513.08</ele>
        <time>2021-03-27T16:08:43Z</time>
      </trkpt>
      <trkpt lat="42.033958" lon="-3.018622">
        <ele>1513.64</ele>
        <time>2021-03-27T16:08:46Z</time>
      </trkpt>
      <trkpt lat="42.03378" lon="-3.018682">
        <ele>1515.0</ele>
        <time>2021-03-27T16:08:49Z</time>
      </trkpt>
      <trkpt lat="42.033658" lon="-3.01879">
        <ele>1516.45</ele>
        <time>2021-03-27T16:08:53Z</time>
      </trkpt>
      <trkpt lat="42.033567" lon="-3.018926">
        <ele>1517.41</ele>
        <time>2021-03-27T16:08:56Z</time>
      </trkpt>
      <trkpt lat="42.033298" lon="-3.01948">
        <ele>1521.51</ele>
        <time>2021-03-27T16:08:59Z</time>
      </trkpt>
      <trkpt lat="42.033228" lon="-3.019596">
        <ele>1522.56</ele>
        <time>2021-03-27T16:09:03Z</time>
      </trkpt>
      <trkpt lat="42.033078" lon="-3.019768">
        <ele>1525.21</ele>
        <time>2021-03-27T16:09:06Z</time>
      </trkpt>
      <trkpt lat="42.032939" lon="-3.019899">
        <ele>1524.31</ele>
        <time>2021-03-27T16:09:09Z</time>
      </trkpt>
      <trkpt lat="42.032746" lon="-3.020047">
        <ele>1522.06</ele>
        <time>2021-03-27T16:09:12Z</time>
      </trkpt>
      <trkpt lat="42.032617" lon="-3.020073">
        <ele>1520.05</ele>
        <time>2021-03-27T16:09:16Z</time>
      </trkpt>
      <trkpt lat="42.032527" lon="-3.02007">
        <ele>1518.86</ele>
        <time>2021-03-27T16:09:19Z</time>
      </trkpt>
      <trkpt lat="42.031981" lon="-3.019886">
        <ele>1517.93</ele>
        <time>2021-03-27T16:09:22Z</time>
      </trkpt>
      <trkpt lat="42.031756" lon="-3.019752">
        <ele>1513.45</ele>
        <time>2021-03-27T16:09:25Z</time>
      </trkpt>
      <trkpt lat="42.031651" lon="-3.019635">
        <ele>1510.54</ele>
        <time>2021-03-27T16:09:29Z</time>
      </trkpt>
      <trkpt lat="42.031585" lon="-3.019521">
        <ele>1508.78</ele>
        <time>2021-03-27T16:09:32Z</time>
      </trkpt>
      <trkpt lat="42.031368" lon="-3.01895">
        <ele>1504.6</ele>
        <time>2021-03-27T16:09:35Z</time>
      </trkpt>
      <trkpt lat="42.031308" lon="-3.01884">
        <ele>1503.25</ele>
        <time>2021-03-27T16:09:39Z</time>
      </trkpt>
      <trkpt lat="42.031166" lon="-3.018669">
        <ele>1500.04</ele>
        <time>2021-03-27T16:09:42Z</time>
      </trkpt>
      <trkpt lat="42.030853" lon="-3.018424">
        <ele>1500.65</ele>
        <time>2021-03-27T16:09:45Z</time>
      </trkpt>
      <trkpt lat="42.030415" lon="-3.018132">
        <ele>1493.38</ele>
        <time>2021-03-27T16:09:48Z</time>
      </trkpt>
      <trkpt lat="42.030275" lon="-3.018096">
        <ele>1491.11</ele>
        <time>2021-03-27T16:09:52Z</time>
      </trkpt>
      <trkpt lat="42.030174" lon="-3.018116">
        <ele>1489.72</ele>
        <time>2021-03-27T16:09:55Z</time>
      </trkpt>
      <trkpt lat="42.030122" lon="-3.018148">
        <ele>1489.09</ele>
        <time>2021-03-27T16:09:58Z</time>
      </trkpt>
      <trkpt lat="42.030036" lon="-3.018249">
        <ele>1488.22</ele>
        <time>2021-03-27T16:10:01Z</time>
      </trkpt>
      <trkpt lat="42.030015" lon="-3.0183">
        <ele>1488.09</ele>
        <time>2021-03-27T16:10:05Z</time>
      </trkpt>
      <trkpt lat="42.030013" lon="-3.018442">
        <ele>1487.37</ele>
        <time>2021-03-27T16:10:08Z</time>
      </trkpt>
      <trkpt lat="42.030032" lon="-3.018558">
        <ele>1486.66</ele>
        <time>2021-03-27T16:10:11Z</time>
      </trkpt>
      <trkpt lat="42.030098" lon="-3.018742">
        <ele>1484.99</ele>
        <time>2021-03-27T16:10:15Z</time>
      </trkpt>
      <trkpt lat="42.030342" lon="-3.019216">
        <ele>1483.2</ele>
        <time>2021-03-27T16:10:18Z</time>
      </trkpt>
      <trkpt lat="42.030432" lon="-3.019445">
        <ele>1484.34</ele>
        <time>2021-03-27T16:10:21Z</time>
      </trkpt>
      <trkpt lat="42.030466" lon="-3.01971">
        <ele>1484.77</ele>
        <time>2021-03-27T16:10:24Z</time>
      </trkpt>
      <trkpt lat="42.030438" lon="-3.019889">
        <ele>1483.78</ele>
        <time>2021-03-27T16:10:28Z</time>
      </trkpt>
      <trkpt lat="42.030302" lon="-3.020137">
        <ele>1479.2</ele>
        <time>2021-03-27T16:10:31Z</time>
      </trkpt>
      <trkpt lat="42.029983" lon="-3.020581">
        <ele>1477.3</ele>
        <time>2021-03-27T16:10:34Z</time>
      </trkpt>
      <trkpt lat="42.029117" lon="-3.021868">
        <ele>1479.4</ele>
        <time>2021-03-27T16:10:37Z</time>
      </trkpt>
      <trkpt lat="42.029058" lon="-3.021979">
        <ele>1479.27</ele>
        <time>2021-03-27T16:10:41Z</time>
      </trkpt>
      <trkpt lat="42.029024" lon="-3.022119">
        <ele>1478.88</ele>
        <time>2021-03-27T16:10:44Z</time>
      </trkpt>
      <trkpt lat="42.029023" lon="-3.022236">
        <ele>1478.46</ele>
        <time>2021-03-27T16:10:47Z</time>
      </trkpt>
      <trkpt lat="42.029044" lon="-3.022445">
        <ele>1477.73</ele>
        <time>2021-03-27T16:10:51Z</time>
      </trkpt>
      <trkpt lat="42.029132" lon="-3.022924">
        <ele>1476.75</ele>
        <time>2021-03-27T16:10:54Z</time>
      </trkpt>
      <trkpt lat="42.029138" lon="-3.023081">
        <ele>1476.62</ele>
        <time>2021-03-27T16:10:57Z</time>
      </trkpt>
      <trkpt lat="42.029111" lon="-3.023296">
        <ele>1475.04</ele>
        <time>2021-03-27T16:11:00Z</time>
      </trkpt>
      <trkpt lat="42.029073" lon="-3.023443">
        <ele>1474.27</ele>
        <time>2021-03-27T16:11:04Z</time>
      </trkpt>
      <trkpt lat="42.02902" lon="-3.023559">
        <ele>1473.66</ele>
        <time>2021-03-27T16:11:07Z</time>
      </trkpt>
      <trkpt lat="42.028871" lon="-3.023756">
        <ele>1473.19</ele>
        <time>2021-03-27T16:11:10Z</time>
      </trkpt>
      <trkpt lat="42.028538" lon="-3.024081">
        <ele>1476.01</ele>
        <time>2021-03-27T16:11:13Z</time>
      </trkpt>
      <trkpt lat="42.028031" lon="-3.024499">
        <ele>1479.37</ele>
        <time>2021-03-27T16:11:17Z</time>
      </trkpt>
      <trkpt lat="42.027255" lon="-3.025083">
        <ele>1486.19</ele>
        <time>2021-03-27T16:11:20Z</time>
      </trkpt>
      <trkpt lat="42.027173" lon="-3.025177">
        <ele>1485.18</ele>
        <time>2021-03-27T16:11:23Z</time>
      </trkpt>
      <trkpt lat="42.027127" lon="-3.025303">
        <ele>1484.16</ele>
        <time>2021-03-27T16:11:27Z</time>
      </trkpt>
      <trkpt lat="42.027114" lon="-3.025525">
        <ele>1482.82</ele>
        <time>2021-03-27T16:11:30Z</time>
      </trkpt>
      <trkpt lat="42.027129" lon="-3.025632">
        <ele>1482.62</ele>
        <time>2021-03-27T16:11:33Z</time>
      </trkpt>
      <trkpt lat="42.027238" lon="-3.026045">
        <ele>1482.21</ele>
        <time>2021-03-27T16:11:36Z</time>
      </trkpt>
      <trkpt lat="42.027267" lon="-3.026275">
        <ele>1481.66</ele>
        <time>2021-03-27T16:11:40Z</time>
      </trkpt>
      <trkpt lat="42.027261" lon="-3.026481">
        <ele>1480.97</ele>
        <time>2021-03-27T16:11:43Z</time>
      </trkpt>
      <trkpt lat="42.027212" lon="-3.026891">
        <ele>1479.85</ele>
        <time>2021-03-27T16:11:46Z</time>
      </trkpt>
      <trkpt lat="42.027072" lon="-3.027597">
        <ele>1475.63</ele>
        <time>2021-03-27T16:11:49Z</time>
      </trkpt>
      <trkpt lat="42.027049" lon="-3.027685">
        <ele>1475.38</ele>
        <time>2021-03-27T16:11:53Z</time>
      </trkpt>
      <trkpt lat="42.027009" lon="-3.027752">
        <ele>1474.6</ele>
        <time>2021-03-27T16:11:56Z</time>
      </trkpt>
      <trkpt lat="42.026905" lon="-3.027873">
        <ele>1474.29</ele>
        <time>2021-03-27T16:11:59Z</time>
      </trkpt>
      <trkpt lat="42.026791" lon="-3.027916">
        <ele>1473.84</ele>
        <time>2021-03-27T16:12:03Z</time>
      </trkpt>
      <trkpt lat="42.025899" lon="-3.027991">
        <ele>1465.5</ele>
        <time>2021-03-27T16:12:06Z</time>
      </trkpt>
      <trkpt lat="42.025514" lon="-3.027898">
        <ele>1462.49</ele>
        <time>2021-03-27T16:12:09Z</time>
      </trkpt>
      <trkpt lat="42.024949" lon="-3.027711">
        <ele>1460.62</ele>
        <time>2021-03-27T16:12:12Z</time>
      </trkpt>
      <trkpt lat="42.024349" lon="-3.027541">
        <ele>1460.82</ele>
        <time>2021-03-27T16:12:16Z</time>
      </trkpt>
      <trkpt lat="42.02281" lon="-3.026914">
        <ele>1458.05</ele>
        <time>2021-03-27T16:12:19Z</time>
      </trkpt>
      <trkpt lat="42.022461" lon="-3.026748">
        <ele>1457.18</ele>
        <time>2021-03-27T16:12:22Z</time>
      </trkpt>
      <trkpt lat="42.021845" lon="-3.026294">
        <ele>1455.52</ele>
        <time>2021-03-27T16:12:25Z</time>
      </trkpt>
      <trkpt lat="42.021419" lon="-3.026016">
        <ele>1449.91</ele>
        <time>2021-03-27T16:12:29Z</time>
      </trkpt>
      <trkpt lat="42.021216" lon="-3.025998">
        <ele>1449.08</ele>
        <time>2021-03-27T16:12:32Z</time>
      </trkpt>
      <trkpt lat="42.020892" lon="-3.026095">
        <ele>1445.93</ele>
        <time>2021-03-27T16:12:35Z</time>
      </trkpt>
      <trkpt lat="42.02078" lon="-3.026148">
        <ele>1444.94</ele>
        <time>2021-03-27T16:12:39Z</time>
      </trkpt>
      <trkpt lat="42.020609" lon="-3.026284">
        <ele>1444.56</ele>
        <time>2021-03-27T16:12:42Z</time>
      </trkpt>
      <trkpt lat="42.020312" lon="-3.026651">
        <ele>1447.83</ele>
        <time>2021-03-27T16:12:45Z</time>
      </trkpt>
      <trkpt lat="42.020166" lon="-3.026879">
        <ele>1445.98</ele>
        <time>2021-03-27T16:12:48Z</time>
      </trkpt>
      <trkpt lat="42.020024" lon="-3.027178">
        <ele>1441.9</ele>
        <time>2021-03-27T16:12:52Z</time>
      </trkpt>
      <trkpt lat="42.01966" lon="-3.028334">
        <ele>1446.34</ele>
        <time>2021-03-27T16:12:55Z</time>
      </trkpt>
      <trkpt lat="42.019524" lon="-3.028557">
        <ele>1447.27</ele>
        <time>2021-03-27T16:12:58Z</time>
      </trkpt>
      <trkpt lat="42.018998" lon="-3.02916">
        <ele>1447.49</ele>
        <time>2021-03-27T16:13:01Z</time>
      </trkpt>
      <trkpt lat="42.018499" lon="-3.029608">
        <ele>1445.16</ele>
        <time>2021-03-27T16:13:05Z</time>
      </trkpt>
      <trkpt lat="42.01779" lon="-3.030091">
        <ele>1433.53</ele>
        <time>2021-03-27T16:13:08Z</time>
      </trkpt>
      <trkpt lat="42.017168" lon="-3.030611">
        <ele>1429.22</ele>
        <time>2021-03-27T16:13:11Z</time>
      </trkpt>
      <trkpt lat="42.017054" lon="-3.030677">
        <ele>1428.94</ele>
        <time>2021-03-27T16:13:15Z</time>
      </trkpt>
      <trkpt lat="42.0169" lon="-3.030706">
        <ele>1427.54</ele>
        <time>2021-03-27T16:13:18Z</time>
      </trkpt>
      <trkpt lat="42.016771" lon="-3.030655">
        <ele>1424.93</ele>
        <time>2021-03-27T16:13:21Z</time>
      </trkpt>
      <trkpt lat="42.016723" lon="-3.030605">
        <ele>1423.52</ele>
        <time>2021-03-27T16:13:24Z</time>
      </trkpt>
      <trkpt lat="42.016665" lon="-3.030493">
        <ele>1421.53</ele>
        <time>2021-03-27T16:13:28Z</time>
      </trkpt>
      <trkpt lat="42.016493" lon="-3.029923">
        <ele>1416.96</ele>
        <time>2021-03-27T16:13:31Z</time>
      </trkpt>
      <trkpt lat="42.016419" lon="-3.029747">
        <ele>1415.51</ele>
        <time>2021-03-27T16:13:34Z</time>
      </trkpt>
      <trkpt lat="42.016343" lon="-3.029632">
        <ele>1414.23</ele>
        <time>2021-03-27T16:13:37Z</time>
      </trkpt>
      <trkpt lat="42.016257" lon="-3.029542">
        <ele>1413.23</ele>
        <time>2021-03-27T16:13:41Z</time>
      </trkpt>
      <trkpt lat="42.016173" lon="-3.02949">
        <ele>1412.48</ele>
        <time>2021-03-27T16:13:44Z</time>
      </trkpt>
      <trkpt lat="42.01609" lon="-3.029484">
        <ele>1411.64</ele>
        <time>2021-03-27T16:13:47Z</time>
      </trkpt>
      <trkpt lat="42.01601" lon="-3.029505">
        <ele>1410.26</ele>
        <time>2021-03-27T16:13:51Z</time>
      </trkpt>
      <trkpt lat="42.015913" lon="-3.029562">
        <ele>1408.73</ele>
        <time>2021-03-27T16:13:54Z</time>
      </trkpt>
      <trkpt lat="42.015496" lon="-3.029893">
        <ele>1400.25</ele>
        <time>2021-03-27T16:13:57Z</time>
      </trkpt>
      <trkpt lat="42.015395" lon="-3.029925">
        <ele>1398.11</ele>
        <time>2021-03-27T16:14:00Z</time>
      </trkpt>
      <trkpt lat="42.01529" lon="-3.029869">
        <ele>1395.35</ele>
        <time>2021-03-27T16:14:04Z</time>
      </trkpt>
      <trkpt lat="42.015257" lon="-3.029819">
        <ele>1394.19</ele>
        <time>2021-03-27T16:14:07Z</time>
      </trkpt>
      <trkpt lat="42.015225" lon="-3.029725">
        <ele>1392.88</ele>
        <time>2021-03-27T16:14:10Z</time>
      </trkpt>
      <trkpt lat="42.015211" lon="-3.029634">
        <ele>1391.94</ele>
        <time>2021-03-27T16:14:13Z</time>
      </trkpt>
      <trkpt lat="42.015211" lon="-3.029493">
        <ele>1390.91</ele>
        <time>2021-03-27T16:14:17Z</time>
      </trkpt>
      <trkpt lat="42.015285" lon="-3.028788">
        <ele>1388.12</ele>
        <time>2021-03-27T16:14:20Z</time>
      </trkpt>
      <trkpt lat="42.015285" lon="-3.028649">
        <ele>1386.63</ele>
        <time>2021-03-27T16:14:23Z</time>
      </trkpt>
      <trkpt lat="42.01527" lon="-3.028556">
        <ele>1385.2</ele>
        <time>2021-03-27T16:14:27Z</time>
      </trkpt>
      <trkpt lat="42.015238" lon="-3.028472">
        <ele>1383.49</ele>
        <time>2021-03-27T16:14:30Z</time>
      </trkpt>
      <trkpt lat="42.015195" lon="-3.028415">
        <ele>1381.91</ele>
        <time>2021-03-27T16:14:33Z</time>
      </trkpt>
      <trkpt lat="42.015105" lon="-3.028379">
        <ele>1379.55</ele>
        <time>2021-03-27T16:14:36Z</time>
      </trkpt>
      <trkpt lat="42.015037" lon="-3.028391">
        <ele>1378.05</ele>
        <time>2021-03-27T16:14:40Z</time>
      </trkpt>
      <trkpt lat="42.014923" lon="-3.028506">
        <ele>1375.68</ele>
        <time>2021-03-27T16:14:43Z</time>
      </trkpt>
      <trkpt lat="42.014841" lon="-3.028676">
        <ele>1374.14</ele>
        <time>2021-03-27T16:14:46Z</time>
      </trkpt>
      <trkpt lat="42.014677" lon="-3.029343">
        <ele>1375.57</ele>
        <time>2021-03-27T16:14:49Z</time>
      </trkpt>
      <trkpt lat="42.014639" lon="-3.029534">
        <ele>1377.22</ele>
        <time>2021-03-27T16:14:53Z</time>
      </trkpt>
      <trkpt lat="42.014597" lon="-3.029944">
        <ele>1377.86</ele>
        <time>2021-03-27T16:14:56Z</time>
      </trkpt>
      <trkpt lat="42.014562" lon="-3.030133">
        <ele>1377.04</ele>
        <time>2021-03-27T16:14:59Z</time>
      </trkpt>
      <trkpt lat="42.014524" lon="-3.030242">
        <ele>1376.38</ele>
        <time>2021-03-27T16:15:03Z</time>
      </trkpt>
      <trkpt lat="42.014385" lon="-3.030455">
        <ele>1374.64</ele>
        <time>2021-03-27T16:15:06Z</time>
      </trkpt>
      <trkpt lat="42.014027" lon="-3.030919">
        <ele>1368.73</ele>
        <time>2021-03-27T16:15:09Z</time>
      </trkpt>
      <trkpt lat="42.013734" lon="-3.031438">
        <ele>1366.98</ele>
        <time>2021-03-27T16:15:12Z</time>
      </trkpt>
      <trkpt lat="42.013165" lon="-3.032521">
        <ele>1365.53</ele>
        <time>2021-03-27T16:15:16Z</time>
      </trkpt>
      <trkpt lat="42.013037" lon="-3.032691">
        <ele>1364.69</ele>
        <time>2021-03-27T16:15:19Z</time>
      </trkpt>
      <trkpt lat="42.012977" lon="-3.032729">
        <ele>1363.96</ele>
        <time>2021-03-27T16:15:22Z</time>
      </trkpt>
      <trkpt lat="42.012853" lon="-3.032723">
        <ele>1361.49</ele>
        <time>2021-03-27T16:15:25Z</time>
      </trkpt>
      <trkpt lat="42.012796" lon="-3.032686">
        <ele>1359.72</ele>
        <time>2021-03-27T16:15:29Z</time>
      </trkpt>
      <trkpt lat="42.012769" lon="-3.032626">
        <ele>1358.15</ele>
        <time>2021-03-27T16:15:32Z</time>
      </trkpt>
      <trkpt lat="42.012761" lon="-3.032555">
        <ele>1356.75</ele>
        <time>2021-03-27T16:15:35Z</time>
      </trkpt>
      <trkpt lat="42.012781" lon="-3.032414">
        <ele>1354.54</ele>
        <time>2021-03-27T16:15:39Z</time>
      </trkpt>
      <trkpt lat="42.013042" lon="-3.031991">
        <ele>1353.63</ele>
        <time>2021-03-27T16:15:42Z</time>
      </trkpt>
      <trkpt lat="42.01312" lon="-3.03181">
        <ele>1352.92</ele>
        <time>2021-03-27T16:15:45Z</time>
      </trkpt>
      <trkpt lat="42.013139" lon="-3.031678">
        <ele>1351.85</ele>
        <time>2021-03-27T16:15:48Z</time>
      </trkpt>
      <trkpt lat="42.013122" lon="-3.03151">
        <ele>1350.89</ele>
        <time>2021-03-27T16:15:52Z</time>
      </trkpt>
      <trkpt lat="42.013086" lon="-3.03144">
        <ele>1349.81</ele>
        <time>2021-03-27T16:15:55Z</time>
      </trkpt>
      <trkpt lat="42.012991" lon="-3.03138">
        <ele>1347.08</ele>
        <time>2021-03-27T16:15:58Z</time>
      </trkpt>
      <trkpt lat="42.012949" lon="-3.03138">
        <ele>1345.88</ele>
        <time>2021-03-27T16:16:01Z</time>
      </trkpt>
      <trkpt lat="42.012845" lon="-3.031445">
        <ele>1343.08</ele>
        <time>2021-03-27T16:16:05Z</time>
      </trkpt>
      <trkpt lat="42.012654" lon="-3.03175">
        <ele>1340.22</ele>
        <time>2021-03-27T16:16:08Z</time>
      </trkpt>
      <trkpt lat="42.012528" lon="-3.03191">
        <ele>1339.23</ele>
        <time>2021-03-27T16:16:11Z</time>
      </trkpt>
      <trkpt lat="42.012287" lon="-3.032063">
        <ele>1338.39</ele>
        <time>2021-03-27T16:16:15Z</time>
      </trkpt>
      <trkpt lat="42.012192" lon="-3.032105">
        <ele>1338.26</ele>
        <time>2021-03-27T16:16:18Z</time>
      </trkpt>
      <trkpt lat="42.012043" lon="-3.032133">
        <ele>1337.78</ele>
        <time>2021-03-27T16:16:21Z</time>
      </trkpt>
      <trkpt lat="42.011867" lon="-3.032111">
        <ele>1336.21</ele>
        <time>2021-03-27T16:16:24Z</time>
      </trkpt>
      <trkpt lat="42.011197" lon="-3.031931">
        <ele>1330.67</ele>
        <time>2021-03-27T16:16:28Z</time>
      </trkpt>
      <trkpt lat="42.010555" lon="-3.031792">
        <ele>1324.17</ele>
        <time>2021-03-27T16:16:31Z</time>
      </trkpt>
      <trkpt lat="42.009547" lon="-3.031491">
        <ele>1311.83</ele>
        <time>2021-03-27T16:16:34Z</time>
      </trkpt>
      <trkpt lat="42.009353" lon="-3.031481">
        <ele>1308.79</ele>
        <time>2021-03-27T16:16:37Z</time>
      </trkpt>
      <trkpt lat="42.00928" lon="-3.031503">
        <ele>1308.62</ele>
        <time>2021-03-27T16:16:41Z</time>
      </trkpt>
      <trkpt lat="42.009055" lon="-3.031716">
        <ele>1311.3</ele>
        <time>2021-03-27T16:16:44Z</time>
      </trkpt>
      <trkpt lat="42.00893" lon="-3.031786">
        <ele>1311.57</ele>
        <time>2021-03-27T16:16:47Z</time>
      </trkpt>
      <trkpt lat="42.008857" lon="-3.031797">
        <ele>1311.35</ele>
        <time>2021-03-27T16:16:51Z</time>
      </trkpt>
      <trkpt lat="42.008563" lon="-3.031771">
        <ele>1310.57</ele>
        <time>2021-03-27T16:16:54Z</time>
      </trkpt>
      <trkpt lat="42.008409" lon="-3.031785">
        <ele>1309.78</ele>
        <time>2021-03-27T16:16:57Z</time>
      </trkpt>
      <trkpt lat="42.008303" lon="-3.031814">
        <ele>1309.0</ele>
        <time>2021-03-27T16:17:00Z</time>
      </trkpt>
      <trkpt lat="42.007977" lon="-3.031993">
        <ele>1305.77</ele>
        <time>2021-03-27T16:17:04Z</time>
      </trkpt>
      <trkpt lat="42.007889" lon="-3.032117">
        <ele>1304.89</ele>
        <time>2021-03-27T16:17:07Z</time>
      </trkpt>
      <trkpt lat="42.007262" lon="-3.033207">
        <ele>1293.55</ele>
        <time>2021-03-27T16:17:10Z</time>
      </trkpt>
      <trkpt lat="42.007053" lon="-3.033741">
        <ele>1292.77</ele>
        <time>2021-03-27T16:17:13Z</time>
      </trkpt>
      <trkpt lat="42.006951" lon="-3.033862">
        <ele>1291.1</ele>
        <time>2021-03-27T16:17:17Z</time>
      </trkpt>
      <trkpt lat="42.006878" lon="-3.033882">
        <ele>1290.78</ele>
        <time>2021-03-27T16:17:20Z</time>
      </trkpt>
      <trkpt lat="42.006798" lon="-3.033865">
        <ele>1290.61</ele>
        <time>2021-03-27T16:17:23Z</time>
      </trkpt>
      <trkpt lat="42.006699" lon="-3.033815">
        <ele>1290.82</ele>
        <time>2021-03-27T16:17:27Z</time>
      </trkpt>
      <trkpt lat="42.006527" lon="-3.033665">
        <ele>1290.41</ele>
        <time>2021-03-27T16:17:30Z</time>
      </trkpt>
      <trkpt lat="42.006473" lon="-3.033559">
        <ele>1289.84</ele>
        <time>2021-03-27T16:17:33Z</time>
      </trkpt>
      <trkpt lat="42.006466" lon="-3.033383">
        <ele>1288.47</ele>
        <time>2021-03-27T16:17:36Z</time>
      </trkpt>
      <trkpt lat="42.006495" lon="-3.033225">
        <ele>1287.36</ele>
        <time>2021-03-27T16:17:40Z</time>
      </trkpt>
      <trkpt lat="42.006758" lon="-3.032195">
        <ele>1279.15</ele>
        <time>2021-03-27T16:17:43Z</time>
      </trkpt>
      <trkpt lat="42.006786" lon="-3.032014">
        <ele>1278.54</ele>
        <time>2021-03-27T16:17:46Z</time>
      </trkpt>
      <trkpt lat="42.0068" lon="-3.031554">
        <ele>1275.98</ele>
        <time>2021-03-27T16:17:49Z</time>
      </trkpt>
      <trkpt lat="42.006817" lon="-3.031438">
        <ele>1274.8</ele>
        <time>2021-03-27T16:17:53Z</time>
      </trkpt>
      <trkpt lat="42.006921" lon="-3.031269">
        <ele>1274.37</ele>
        <time>2021-03-27T16:17:56Z</time>
      </trkpt>
      <trkpt lat="42.007228" lon="-3.031045">
        <ele>1275.41</ele>
        <time>2021-03-27T16:17:59Z</time>
      </trkpt>
      <trkpt lat="42.007303" lon="-3.030973">
        <ele>1275.96</ele>
        <time>2021-03-27T16:18:03Z</time>
      </trkpt>
      <trkpt lat="42.007386" lon="-3.030791">
        <ele>1274.97</ele>
        <time>2021-03-27T16:18:06Z</time>
      </trkpt>
      <trkpt lat="42.007392" lon="-3.030686">
        <ele>1274.07</ele>
        <time>2021-03-27T16:18:09Z</time>
      </trkpt>
      <trkpt lat="42.007374" lon="-3.030575">
        <ele>1272.81</ele>
        <time>2021-03-27T16:18:12Z</time>
      </trkpt>
      <trkpt lat="42.007327" lon="-3.030482">
        <ele>1271.6</ele>
        <time>2021-03-27T16:18:16Z</time>
      </trkpt>
      <trkpt lat="42.007227" lon="-3.030422">
        <ele>1270.09</ele>
        <time>2021-03-27T16:18:19Z</time>
      </trkpt>
      <trkpt lat="42.007137" lon="-3.030433">
        <ele>1269.2</ele>
        <time>2021-03-27T16:18:22Z</time>
      </trkpt>
      <trkpt lat="42.007002" lon="-3.030493">
        <ele>1268.17</ele>
        <time>2021-03-27T16:18:25Z</time>
      </trkpt>
      <trkpt lat="42.006549" lon="-3.030741">
        <ele>1263.59</ele>
        <time>2021-03-27T16:18:29Z</time>
      </trkpt>
      <trkpt lat="42.006265" lon="-3.030862">
        <ele>1262.43</ele>
        <time>2021-03-27T16:18:32Z</time>
      </trkpt>
      <trkpt lat="42.005995" lon="-3.031006">
        <ele>1258.74</ele>
        <time>2021-03-27T16:18:35Z</time>
      </trkpt>
      <trkpt lat="42.004931" lon="-3.031786">
        <ele>1242.29</ele>
        <time>2021-03-27T16:18:39Z</time>
      </trkpt>
      <trkpt lat="42.004694" lon="-3.031978">
        <ele>1240.94</ele>
        <time>2021-03-27T16:18:42Z</time>
      </trkpt>
      <trkpt lat="42.004621" lon="-3.032015">
        <ele>1240.12</ele>
        <time>2021-03-27T16:18:45Z</time>
      </trkpt>
      <trkpt lat="42.004547" lon="-3.032012">
        <ele>1238.21</ele>
        <time>2021-03-27T16:18:49Z</time>
      </trkpt>
      <trkpt lat="42.004547" lon="-3.032012">
        <ele>1238.21</ele>
        <time>2021-03-27T16:18:49Z</time>
      </trkpt>
      <trkpt lat="42.004621" lon="-3.032015">
        <ele>1240.12</ele>
        <time>2021-03-27T16:18:45Z</time>
      </trkpt>
      <trkpt lat="42.004694" lon="-3.031978">
        <ele>1240.94</ele>
        <time>2021-03-27T16:18:42Z</time>
      </trkpt>
      <trkpt lat="42.004931" lon="-3.031786">
        <ele>1242.29</ele>
        <time>2021-03-27T16:18:39Z</time>
      </trkpt>
      <trkpt lat="42.005995" lon="-3.031006">
        <ele>1258.74</ele>
        <time>2021-03-27T16:18:35Z</time>
      </trkpt>
      <trkpt lat="42.006265" lon="-3.030862">
        <ele>1262.43</ele>
        <time>2021-03-27T16:18:32Z</time>
      </trkpt>
      <trkpt lat="42.006549" lon="-3.030741">
        <ele>1263.59</ele>
        <time>2021-03-27T16:18:29Z</time>
      </trkpt>
      <trkpt lat="42.007002" lon="-3.030493">
        <ele>1268.17</ele>
        <time>2021-03-27T16:18:25Z</time>
      </trkpt>
      <trkpt lat="42.007137" lon="-3.030433">
        <ele>1269.2</ele>
        <time>2021-03-27T16:18:22Z</time>
      </trkpt>
      <trkpt lat="42.007227" lon="-3.030422">
        <ele>1270.09</ele>
        <time>2021-03-27T16:18:19Z</time>
      </trkpt>
      <trkpt lat="42.007327" lon="-3.030482">
        <ele>1271.6</ele>
        <time>2021-03-27T16:18:16Z</time>
      </trkpt>
      <trkpt lat="42.007374" lon="-3.030575">
        <ele>1272.81</ele>
        <time>2021-03-27T16:18:12Z</time>
      </trkpt>
      <trkpt lat="42.007392" lon="-3.030686">
        <ele>1274.07</ele>
        <time>2021-03-27T16:18:09Z</time>
      </trkpt>
      <trkpt lat="42.007386" lon="-3.030791">
        <ele>1274.97</ele>
        <time>2021-03-27T16:18:06Z</time>
      </trkpt>
      <trkpt lat="42.007303" lon="-3.030973">
        <ele>1275.96</ele>
        <time>2021-03-27T16:18:03Z</time>
      </trkpt>
      <trkpt lat="42.007228" lon="-3.031045">
        <ele>1275.41</ele>
        <time>2021-03-27T16:17:59Z</time>
      </trkpt>
      <trkpt lat="42.006921" lon="-3.031269">
        <ele>1274.37</ele>
        <time>2021-03-27T16:17:56Z</time>
      </trkpt>
      <trkpt lat="42.006817" lon="-3.031438">
        <ele>1274.8</ele>
        <time>2021-03-27T16:17:53Z</time>
      </trkpt>
      <trkpt lat="42.0068" lon="-3.031554">
        <ele>1275.98</ele>
        <time>2021-03-27T16:17:49Z</time>
      </trkpt>
      <trkpt lat="42.006786" lon="-3.032014">
        <ele>1278.54</ele>
        <time>2021-03-27T16:17:46Z</time>
      </trkpt>
      <trkpt lat="42.006758" lon="-3.032195">
        <ele>1279.15</ele>
        <time>2021-03-27T16:17:43Z</time>
      </trkpt>
      <trkpt lat="42.006495" lon="-3.033225">
        <ele>1287.36</ele>
        <time>2021-03-27T16:17:40Z</time>
      </trkpt>
      <trkpt lat="42.006466" lon="-3.033383">
        <ele>1288.47</ele>
        <time>2021-03-27T16:17:36Z</time>
      </trkpt>
      <trkpt lat="42.006473" lon="-3.033559">
        <ele>1289.84</ele>
        <time>2021-03-27T16:17:33Z</time>
      </trkpt>
      <trkpt lat="42.006527" lon="-3.033665">
        <ele>1290.41</ele>
        <time>2021-03-27T16:17:30Z</time>
      </trkpt>
      <trkpt lat="42.006699" lon="-3.033815">
        <ele>1290.82</ele>
        <time>2021-03-27T16:17:27Z</time>
      </trkpt>
      <trkpt lat="42.006798" lon="-3.033865">
        <ele>1290.61</ele>
        <time>2021-03-27T16:17:23Z</time>
      </trkpt>
      <trkpt lat="42.006878" lon="-3.033882">
        <ele>1290.78</ele>
        <time>2021-03-27T16:17:20Z</time>
      </trkpt>
      <trkpt lat="42.006951" lon="-3.033862">
        <ele>1291.1</ele>
        <time>2021-03-27T16:17:17Z</time>
      </trkpt>
      <trkpt lat="42.007053" lon="-3.033741">
        <ele>1292.77</ele>
        <time>2021-03-27T16:17:13Z</time>
      </trkpt>
      <trkpt lat="42.007262" lon="-3.033207">
        <ele>1293.55</ele>
        <time>2021-03-27T16:17:10Z</time>
      </trkpt>
      <trkpt lat="42.007889" lon="-3.032117">
        <ele>1304.89</ele>
        <time>2021-03-27T16:17:07Z</time>
      </trkpt>
      <trkpt lat="42.007977" lon="-3.031993">
        <ele>1305.77</ele>
        <time>2021-03-27T16:17:04Z</time>
      </trkpt>
      <trkpt lat="42.008303" lon="-3.031814">
        <ele>1309.0</ele>
        <time>2021-03-27T16:17:00Z</time>
      </trkpt>
      <trkpt lat="42.008409" lon="-3.031785">
        <ele>1309.78</ele>
        <time>2021-03-27T16:16:57Z</time>
      </trkpt>
      <trkpt lat="42.008563" lon="-3.031771">
        <ele>1310.57</ele>
        <time>2021-03-27T16:16:54Z</time>
      </trkpt>
      <trkpt lat="42.008857" lon="-3.031797">
        <ele>1311.35</ele>
        <time>2021-03-27T16:16:51Z</time>
      </trkpt>
      <trkpt lat="42.00893" lon="-3.031786">
        <ele>1311.57</ele>
        <time>2021-03-27T16:16:47Z</time>
      </trkpt>
      <trkpt lat="42.009055" lon="-3.031716">
        <ele>1311.3</ele>
        <time>2021-03-27T16:16:44Z</time>
      </trkpt>
      <trkpt lat="42.00928" lon="-3.031503">
        <ele>1308.62</ele>
        <time>2021-03-27T16:16:41Z</time>
      </trkpt>
      <trkpt lat="42.009353" lon="-3.031481">
        <ele>1308.79</ele>
        <time>2021-03-27T16:16:37Z</time>
      </trkpt>
      <trkpt lat="42.009547" lon="-3.031491">
        <ele>1311.83</ele>
        <time>2021-03-27T16:16:34Z</time>
      </trkpt>
      <trkpt lat="42.010555" lon="-3.031792">
        <ele>1324.17</ele>
        <time>2021-03-27T16:16:31Z</time>
      </trkpt>
      <trkpt lat="42.011197" lon="-3.031931">
        <ele>1330.67</ele>
        <time>2021-03-27T16:16:28Z</time>
      </trkpt>
      <trkpt lat="42.011867" lon="-3.032111">
        <ele>1336.21</ele>
        <time>2021-03-27T16:16:24Z</time>
      </trkpt>
      <trkpt lat="42.012043" lon="-3.032133">
        <ele>1337.78</ele>
        <time>2021-03-27T16:16:21Z</time>
      </trkpt>
      <trkpt lat="42.012192" lon="-3.032105">
        <ele>1338.26</ele>
        <time>2021-03-27T16:16:18Z</time>
      </trkpt>
      <trkpt lat="42.012287" lon="-3.032063">
        <ele>1338.39</ele>
        <time>2021-03-27T16:16:15Z</time>
      </trkpt>
      <trkpt lat="42.012528" lon="-3.03191">
        <ele>1339.23</ele>
        <time>2021-03-27T16:16:11Z</time>
      </trkpt>
      <trkpt lat="42.012654" lon="-3.03175">
        <ele>1340.22</ele>
        <time>2021-03-27T16:16:08Z</time>
      </trkpt>
      <trkpt lat="42.012845" lon="-3.031445">
        <ele>1343.08</ele>
        <time>2021-03-27T16:16:05Z</time>
      </trkpt>
      <trkpt lat="42.012949" lon="-3.03138">
        <ele>1345.88</ele>
        <time>2021-03-27T16:16:01Z</time>
      </trkpt>
      <trkpt lat="42.012991" lon="-3.03138">
        <ele>1347.08</ele>
        <time>2021-03-27T16:15:58Z</time>
      </trkpt>
      <trkpt lat="42.013086" lon="-3.03144">
        <ele>1349.81</ele>
        <time>2021-03-27T16:15:55Z</time>
      </trkpt>
      <trkpt lat="42.013122" lon="-3.03151">
        <ele>1350.89</ele>
        <time>2021-03-27T16:15:52Z</time>
      </trkpt>
      <trkpt lat="42.013139" lon="-3.031678">
        <ele>1351.85</ele>
        <time>2021-03-27T16:15:48Z</time>
      </trkpt>
      <trkpt lat="42.01312" lon="-3.03181">
        <ele>1352.92</ele>
        <time>2021-03-27T16:15:45Z</time>
      </trkpt>
      <trkpt lat="42.013042" lon="-3.031991">
        <ele>1353.63</ele>
        <time>2021-03-27T16:15:42Z</time>
      </trkpt>
      <trkpt lat="42.012781" lon="-3.032414">
        <ele>1354.54</ele>
        <time>2021-03-27T16:15:39Z</time>
      </trkpt>
      <trkpt lat="42.012761" lon="-3.032555">
        <ele>1356.75</ele>
        <time>2021-03-27T16:15:35Z</time>
      </trkpt>
      <trkpt lat="42.012769" lon="-3.032626">
        <ele>1358.15</ele>
        <time>2021-03-27T16:15:32Z</time>
      </trkpt>
      <trkpt lat="42.012796" lon="-3.032686">
        <ele>1359.72</ele>
        <time>2021-03-27T16:15:29Z</time>
      </trkpt>
      <trkpt lat="42.012853" lon="-3.032723">
        <ele>1361.49</ele>
        <time>2021-03-27T16:15:25Z</time>
      </trkpt>
      <trkpt lat="42.012977" lon="-3.032729">
        <ele>1363.96</ele>
        <time>2021-03-27T16:15:22Z</time>
      </trkpt>
      <trkpt lat="42.013037" lon="-3.032691">
        <ele>1364.69</ele>
        <time>2021-03-27T16:15:19Z</time>
      </trkpt>
      <trkpt lat="42.013165" lon="-3.032521">
        <ele>1365.53</ele>
        <time>2021-03-27T16:15:16Z</time>
      </trkpt>
      <trkpt lat="42.013734" lon="-3.031438">
        <ele>1366.98</ele>
        <time>2021-03-27T16:15:12Z</time>
      </trkpt>
      <trkpt lat="42.014027" lon="-3.030919">
        <ele>1368.73</ele>
        <time>2021-03-27T16:15:09Z</time>
      </trkpt>
      <trkpt lat="42.014385" lon="-3.030455">
        <ele>1374.64</ele>
        <time>2021-03-27T16:15:06Z</time>
      </trkpt>
      <trkpt lat="42.014524" lon="-3.030242">
        <ele>1376.38</ele>
        <time>2021-03-27T16:15:03Z</time>
      </trkpt>
      <trkpt lat="42.014562" lon="-3.030133">
        <ele>1377.04</ele>
        <time>2021-03-27T16:14:59Z</time>
      </trkpt>
      <trkpt lat="42.014597" lon="-3.029944">
        <ele>1377.86</ele>
        <time>2021-03-27T16:14:56Z</time>
      </trkpt>
      <trkpt lat="42.014639" lon="-3.029534">
        <ele>1377.22</ele>
        <time>2021-03-27T16:14:53Z</time>
      </trkpt>
      <trkpt lat="42.014677" lon="-3.029343">
        <ele>1375.57</ele>
        <time>2021-03-27T16:14:49Z</time>
      </trkpt>
      <trkpt lat="42.014841" lon="-3.028676">
        <ele>1374.14</ele>
        <time>2021-03-27T16:14:46Z</time>
      </trkpt>
      <trkpt lat="42.014923" lon="-3.028506">
        <ele>1375.68</ele>
        <time>2021-03-27T16:14:43Z</time>
      </trkpt>
      <trkpt lat="42.015037" lon="-3.028391">
        <ele>1378.05</ele>
        <time>2021-03-27T16:14:40Z</time>
      </trkpt>
      <trkpt lat="42.015105" lon="-3.028379">
        <ele>1379.55</ele>
        <time>2021-03-27T16:14:36Z</time>
      </trkpt>
      <trkpt lat="42.015195" lon="-3.028415">
        <ele>1381.91</ele>
        <time>2021-03-27T16:14:33Z</time>
      </trkpt>
      <trkpt lat="42.015238" lon="-3.028472">
        <ele>1383.49</ele>
        <time>2021-03-27T16:14:30Z</time>
      </trkpt>
      <trkpt lat="42.01527" lon="-3.028556">
        <ele>1385.2</ele>
        <time>2021-03-27T16:14:27Z</time>
      </trkpt>
      <trkpt lat="42.015285" lon="-3.028649">
        <ele>1386.63</ele>
        <time>2021-03-27T16:14:23Z</time>
      </trkpt>
      <trkpt lat="42.015285" lon="-3.028788">
        <ele>1388.12</ele>
        <time>2021-03-27T16:14:20Z</time>
      </trkpt>
      <trkpt lat="42.015211" lon="-3.029493">
        <ele>1390.91</ele>
        <time>2021-03-27T16:14:17Z</time>
      </trkpt>
      <trkpt lat="42.015211" lon="-3.029634">
        <ele>1391.94</ele>
        <time>2021-03-27T16:14:13Z</time>
      </trkpt>
      <trkpt lat="42.015225" lon="-3.029725">
        <ele>1392.88</ele>
        <time>2021-03-27T16:14:10Z</time>
      </trkpt>
      <trkpt lat="42.015257" lon="-3.029819">
        <ele>1394.19</ele>
        <time>2021-03-27T16:14:07Z</time>
      </trkpt>
      <trkpt lat="42.01529" lon="-3.029869">
        <ele>1395.35</ele>
        <time>2021-03-27T16:14:04Z</time>
      </trkpt>
      <trkpt lat="42.015395" lon="-3.029925">
        <ele>1398.11</ele>
        <time>2021-03-27T16:14:00Z</time>
      </trkpt>
      <trkpt lat="42.015496" lon="-3.029893">
        <ele>1400.25</ele>
        <time>2021-03-27T16:13:57Z</time>
      </trkpt>
      <trkpt lat="42.015913" lon="-3.029562">
        <ele>1408.73</ele>
        <time>2021-03-27T16:13:54Z</time>
      </trkpt>
      <trkpt lat="42.01601" lon="-3.029505">
        <ele>1410.26</ele>
        <time>2021-03-27T16:13:51Z</time>
      </trkpt>
      <trkpt lat="42.01609" lon="-3.029484">
        <ele>1411.64</ele>
        <time>2021-03-27T16:13:47Z</time>
      </trkpt>
      <trkpt lat="42.016173" lon="-3.02949">
        <ele>1412.48</ele>
        <time>2021-03-27T16:13:44Z</time>
      </trkpt>
      <trkpt lat="42.016257" lon="-3.029542">
        <ele>1413.23</ele>
        <time>2021-03-27T16:13:41Z</time>
      </trkpt>
      <trkpt lat="42.016343" lon="-3.029632">
        <ele>1414.23</ele>
        <time>2021-03-27T16:13:37Z</time>
      </trkpt>
      <trkpt lat="42.016419" lon="-3.029747">
        <ele>1415.51</ele>
        <time>2021-03-27T16:13:34Z</time>
      </trkpt>
      <trkpt lat="42.016493" lon="-3.029923">
        <ele>1416.96</ele>
        <time>2021-03-27T16:13:31Z</time>
      </trkpt>
      <trkpt lat="42.016665" lon="-3.030493">
        <ele>1421.53</ele>
        <time>2021-03-27T16:13:28Z</time>
      </trkpt>
      <trkpt lat="42.016723" lon="-3.030605">
        <ele>1423.52</ele>
        <time>2021-03-27T16:13:24Z</time>
      </trkpt>
      <trkpt lat="42.016771" lon="-3.030655">
        <ele>1424.93</ele>
        <time>2021-03-27T16:13:21Z</time>
      </trkpt>
      <trkpt lat="42.0169" lon="-3.030706">
        <ele>1427.54</ele>
        <time>2021-03-27T16:13:18Z</time>
      </trkpt>
      <trkpt lat="42.017054" lon="-3.030677">
        <ele>1428.94</ele>
        <time>2021-03-27T16:13:15Z</time>
      </trkpt>
      <trkpt lat="42.017168" lon="-3.030611">
        <ele>1429.22</ele>
        <time>2021-03-27T16:13:11Z</time>
      </trkpt>
      <trkpt lat="42.01779" lon="-3.030091">
        <ele>1433.53</ele>
        <time>2021-03-27T16:13:08Z</time>
      </trkpt>
      <trkpt lat="42.018499" lon="-3.029608">
        <ele>1445.16</ele>
        <time>2021-03-27T16:13:05Z</time>
      </trkpt>
      <trkpt lat="42.018998" lon="-3.02916">
        <ele>1447.49</ele>
        <time>2021-03-27T16:13:01Z</time>
      </trkpt>
      <trkpt lat="42.019524" lon="-3.028557">
        <ele>1447.27</ele>
        <time>2021-03-27T16:12:58Z</time>
      </trkpt>
      <trkpt lat="42.01966" lon="-3.028334">
        <ele>1446.34</ele>
        <time>2021-03-27T16:12:55Z</time>
      </trkpt>
      <trkpt lat="42.020024" lon="-3.027178">
        <ele>1441.9</ele>
        <time>2021-03-27T16:12:52Z</time>
      </trkpt>
      <trkpt lat="42.020166" lon="-3.026879">
        <ele>1445.98</ele>
        <time>2021-03-27T16:12:48Z</time>
      </trkpt>
      <trkpt lat="42.020312" lon="-3.026651">
        <ele>1447.83</ele>
        <time>2021-03-27T16:12:45Z</time>
      </trkpt>
      <trkpt lat="42.020609" lon="-3.026284">
        <ele>1444.56</ele>
        <time>2021-03-27T16:12:42Z</time>
      </trkpt>
      <trkpt lat="42.02078" lon="-3.026148">
        <ele>1444.94</ele>
        <time>2021-03-27T16:12:39Z</time>
      </trkpt>
      <trkpt lat="42.020892" lon="-3.026095">
        <ele>1445.93</ele>
        <time>2021-03-27T16:12:35Z</time>
      </trkpt>
      <trkpt lat="42.021216" lon="-3.025998">
        <ele>1449.08</ele>
        <time>2021-03-27T16:12:32Z</time>
      </trkpt>
      <trkpt lat="42.021419" lon="-3.026016">
        <ele>1449.91</ele>
        <time>2021-03-27T16:12:29Z</time>
      </trkpt>
      <trkpt lat="42.021845" lon="-3.026294">
        <ele>1455.52</ele>
        <time>2021-03-27T16:12:25Z</time>
      </trkpt>
      <trkpt lat="42.022461" lon="-3.026748">
        <ele>1457.18</ele>
        <time>2021-03-27T16:12:22Z</time>
      </trkpt>
      <trkpt lat="42.02281" lon="-3.026914">
        <ele>1458.05</ele>
        <time>2021-03-27T16:12:19Z</time>
      </trkpt>
      <trkpt lat="42.024349" lon="-3.027541">
        <ele>1460.82</ele>
        <time>2021-03-27T16:12:16Z</time>
      </trkpt>
      <trkpt lat="42.024949" lon="-3.027711">
        <ele>1460.62</ele>
        <time>2021-03-27T16:12:12Z</time>
      </trkpt>
      <trkpt lat="42.025514" lon="-3.027898">
        <ele>1462.49</ele>
        <time>2021-03-27T16:12:09Z</time>
      </trkpt>
      <trkpt lat="42.025899" lon="-3.027991">
        <ele>1465.5</ele>
        <time>2021-03-27T16:12:06Z</time>
      </trkpt>
      <trkpt lat="42.026791" lon="-3.027916">
        <ele>1473.84</ele>
        <time>2021-03-27T16:12:03Z</time>
      </trkpt>
      <trkpt lat="42.026905" lon="-3.027873">
        <ele>1474.29</ele>
        <time>2021-03-27T16:11:59Z</time>
      </trkpt>
      <trkpt lat="42.027009" lon="-3.027752">
        <ele>1474.6</ele>
        <time>2021-03-27T16:11:56Z</time>
      </trkpt>
      <trkpt lat="42.027049" lon="-3.027685">
        <ele>1475.38</ele>
        <time>2021-03-27T16:11:53Z</time>
      </trkpt>
      <trkpt lat="42.027072" lon="-3.027597">
        <ele>1475.63</ele>
        <time>2021-03-27T16:11:49Z</time>
      </trkpt>
      <trkpt lat="42.027212" lon="-3.026891">
        <ele>1479.85</ele>
        <time>2021-03-27T16:11:46Z</time>
      </trkpt>
      <trkpt lat="42.027261" lon="-3.026481">
        <ele>1480.97</ele>
        <time>2021-03-27T16:11:43Z</time>
      </trkpt>
      <trkpt lat="42.027267" lon="-3.026275">
        <ele>1481.66</ele>
        <time>2021-03-27T16:11:40Z</time>
      </trkpt>
      <trkpt lat="42.027238" lon="-3.026045">
        <ele>1482.21</ele>
        <time>2021-03-27T16:11:36Z</time>
      </trkpt>
      <trkpt lat="42.027129" lon="-3.025632">
        <ele>1482.62</ele>
        <time>2021-03-27T16:11:33Z</time>
      </trkpt>
      <trkpt lat="42.027114" lon="-3.025525">
        <ele>1482.82</ele>
        <time>2021-03-27T16:11:30Z</time>
      </trkpt>
      <trkpt lat="42.027127" lon="-3.025303">
        <ele>1484.16</ele>
        <time>2021-03-27T16:11:27Z</time>
      </trkpt>
      <trkpt lat="42.027173" lon="-3.025177">
        <ele>1485.18</ele>
        <time>2021-03-27T16:11:23Z</time>
      </trkpt>
      <trkpt lat="42.027255" lon="-3.025083">
        <ele>1486.19</ele>
        <time>2021-03-27T16:11:20Z</time>
      </trkpt>
      <trkpt lat="42.028031" lon="-3.024499">
        <ele>1479.37</ele>
        <time>2021-03-27T16:11:17Z</time>
      </trkpt>
      <trkpt lat="42.028538" lon="-3.024081">
        <ele>1476.01</ele>
        <time>2021-03-27T16:11:13Z</time>
      </trkpt>
      <trkpt lat="42.028871" lon="-3.023756">
        <ele>1473.19</ele>
        <time>2021-03-27T16:11:10Z</time>
      </trkpt>
      <trkpt lat="42.02902" lon="-3.023559">
        <ele>1473.66</ele>
        <time>2021-03-27T16:11:07Z</time>
      </trkpt>
      <trkpt lat="42.029073" lon="-3.023443">
        <ele>1474.27</ele>
        <time>2021-03-27T16:11:04Z</time>
      </trkpt>
      <trkpt lat="42.029111" lon="-3.023296">
        <ele>1475.04</ele>
        <time>2021-03-27T16:11:00Z</time>
      </trkpt>
      <trkpt lat="42.029138" lon="-3.023081">
        <ele>1476.62</ele>
        <time>2021-03-27T16:10:57Z</time>
      </trkpt>
      <trkpt lat="42.029132" lon="-3.022924">
        <ele>1476.75</ele>
        <time>2021-03-27T16:10:54Z</time>
      </trkpt>
      <trkpt lat="42.029044" lon="-3.022445">
        <ele>1477.73</ele>
        <time>2021-03-27T16:10:51Z</time>
      </trkpt>
      <trkpt lat="42.029023" lon="-3.022236">
        <ele>1478.46</ele>
        <time>2021-03-27T16:10:47Z</time>
      </trkpt>
      <trkpt lat="42.029024" lon="-3.022119">
        <ele>1478.88</ele>
        <time>2021-03-27T16:10:44Z</time>
      </trkpt>
      <trkpt lat="42.029058" lon="-3.021979">
        <ele>1479.27</ele>
        <time>2021-03-27T16:10:41Z</time>
      </trkpt>
      <trkpt lat="42.029117" lon="-3.021868">
        <ele>1479.4</ele>
        <time>2021-03-27T16:10:37Z</time>
      </trkpt>
      <trkpt lat="42.029983" lon="-3.020581">
        <ele>1477.3</ele>
        <time>2021-03-27T16:10:34Z</time>
      </trkpt>
      <trkpt lat="42.030302" lon="-3.020137">
        <ele>1479.2</ele>
        <time>2021-03-27T16:10:31Z</time>
      </trkpt>
      <trkpt lat="42.030438" lon="-3.019889">
        <ele>1483.78</ele>
        <time>2021-03-27T16:10:28Z</time>
      </trkpt>
      <trkpt lat="42.030466" lon="-3.01971">
        <ele>1484.77</ele>
        <time>2021-03-27T16:10:24Z</time>
      </trkpt>
      <trkpt lat="42.030432" lon="-3.019445">
        <ele>1484.34</ele>
        <time>2021-03-27T16:10:21Z</time>
      </trkpt>
      <trkpt lat="42.030342" lon="-3.019216">
        <ele>1483.2</ele>
        <time>2021-03-27T16:10:18Z</time>
      </trkpt>
      <trkpt lat="42.030098" lon="-3.018742">
        <ele>1484.99</ele>
        <time>2021-03-27T16:10:15Z</time>
      </trkpt>
      <trkpt lat="42.030032" lon="-3.018558">
        <ele>1486.66</ele>
        <time>2021-03-27T16:10:11Z</time>
      </trkpt>
      <trkpt lat="42.030013" lon="-3.018442">
        <ele>1487.37</ele>
        <time>2021-03-27T16:10:08Z</time>
      </trkpt>
      <trkpt lat="42.030015" lon="-3.0183">
        <ele>1488.09</ele>
        <time>2021-03-27T16:10:05Z</time>
      </trkpt>
      <trkpt lat="42.030036" lon="-3.018249">
        <ele>1488.22</ele>
        <time>2021-03-27T16:10:01Z</time>
      </trkpt>
      <trkpt lat="42.030122" lon="-3.018148">
        <ele>1489.09</ele>
        <time>2021-03-27T16:09:58Z</time>
      </trkpt>
      <trkpt lat="42.030174" lon="-3.018116">
        <ele>1489.72</ele>
        <time>2021-03-27T16:09:55Z</time>
      </trkpt>
      <trkpt lat="42.030275" lon="-3.018096">
        <ele>1491.11</ele>
        <time>2021-03-27T16:09:52Z</time>
      </trkpt>
      <trkpt lat="42.030415" lon="-3.018132">
        <ele>1493.38</ele>
        <time>2021-03-27T16:09:48Z</time>
      </trkpt>
      <trkpt lat="42.030853" lon="-3.018424">
        <ele>1500.65</ele>
        <time>2021-03-27T16:09:45Z</time>
      </trkpt>
      <trkpt lat="42.031166" lon="-3.018669">
        <ele>1500.04</ele>
        <time>2021-03-27T16:09:42Z</time>
      </trkpt>
      <trkpt lat="42.031308" lon="-3.01884">
        <ele>1503.25</ele>
        <time>2021-03-27T16:09:39Z</time>
      </trkpt>
      <trkpt lat="42.031368" lon="-3.01895">
        <ele>1504.6</ele>
        <time>2021-03-27T16:09:35Z</time>
      </trkpt>
      <trkpt lat="42.031585" lon="-3.019521">
        <ele>1508.78</ele>
        <time>2021-03-27T16:09:32Z</time>
      </trkpt>
      <trkpt lat="42.031651" lon="-3.019635">
        <ele>1510.54</ele>
        <time>2021-03-27T16:09:29Z</time>
      </trkpt>
      <trkpt lat="42.031756" lon="-3.019752">
        <ele>1513.45</ele>
        <time>2021-03-27T16:09:25Z</time>
      </trkpt>
      <trkpt lat="42.031981" lon="-3.019886">
        <ele>1517.93</ele>
        <time>2021-03-27T16:09:22Z</time>
      </trkpt>
      <trkpt lat="42.032527" lon="-3.02007">
        <ele>1518.86</ele>
        <time>2021-03-27T16:09:19Z</time>
      </trkpt>
      <trkpt lat="42.032617" lon="-3.020073">
        <ele>1520.05</ele>
        <time>2021-03-27T16:09:16Z</time>
      </trkpt>
      <trkpt lat="42.032746" lon="-3.020047">
        <ele>1522.06</ele>
        <time>2021-03-27T16:09:12Z</time>
      </trkpt>
      <trkpt lat="42.032939" lon="-3.019899">
        <ele>1524.31</ele>
        <time>2021-03-27T16:09:09Z</time>
      </trkpt>
      <trkpt lat="42.033078" lon="-3.019768">
        <ele>1525.21</ele>
        <time>2021-03-27T16:09:06Z</time>
      </trkpt>
      <trkpt lat="42.033228" lon="-3.019596">
        <ele>1522.56</ele>
        <time>2021-03-27T16:09:03Z</time>
      </trkpt>
      <trkpt lat="42.033298" lon="-3.01948">
        <ele>1521.51</ele>
        <time>2021-03-27T16:08:59Z</time>
      </trkpt>
      <trkpt lat="42.033567" lon="-3.018926">
        <ele>1517.41</ele>
        <time>2021-03-27T16:08:56Z</time>
      </trkpt>
      <trkpt lat="42.033658" lon="-3.01879">
        <ele>1516.45</ele>
        <time>2021-03-27T16:08:53Z</time>
      </trkpt>
      <trkpt lat="42.03378" lon="-3.018682">
        <ele>1515.0</ele>
        <time>2021-03-27T16:08:49Z</time>
      </trkpt>
      <trkpt lat="42.033958" lon="-3.018622">
        <ele>1513.64</ele>
        <time>2021-03-27T16:08:46Z</time>
      </trkpt>
      <trkpt lat="42.034144" lon="-3.018601">
        <ele>1513.08</ele>
        <time>2021-03-27T16:08:43Z</time>
      </trkpt>
      <trkpt lat="42.03453" lon="-3.018602">
        <ele>1515.95</ele>
        <time>2021-03-27T16:08:40Z</time>
      </trkpt>
      <trkpt lat="42.03486" lon="-3.018648">
        <ele>1518.63</ele>
        <time>2021-03-27T16:08:36Z</time>
      </trkpt>
      <trkpt lat="42.034989" lon="-3.018714">
        <ele>1519.33</ele>
        <time>2021-03-27T16:08:33Z</time>
      </trkpt>
      <trkpt lat="42.03568" lon="-3.019226">
        <ele>1518.23</ele>
        <time>2021-03-27T16:08:30Z</time>
      </trkpt>
      <trkpt lat="42.035872" lon="-3.019341">
        <ele>1522.41</ele>
        <time>2021-03-27T16:08:27Z</time>
      </trkpt>
      <trkpt lat="42.036021" lon="-3.019383">
        <ele>1525.69</ele>
        <time>2021-03-27T16:08:23Z</time>
      </trkpt>
      <trkpt lat="42.036266" lon="-3.019358">
        <ele>1529.22</ele>
        <time>2021-03-27T16:08:20Z</time>
      </trkpt>
      <trkpt lat="42.036443" lon="-3.019296">
        <ele>1531.72</ele>
        <time>2021-03-27T16:08:17Z</time>
      </trkpt>
      <trkpt lat="42.036967" lon="-3.018862">
        <ele>1540.08</ele>
        <time>2021-03-27T16:08:13Z</time>
      </trkpt>
      <trkpt lat="42.037552" lon="-3.018419">
        <ele>1541.55</ele>
        <time>2021-03-27T16:08:10Z</time>
      </trkpt>
      <trkpt lat="42.037743" lon="-3.01837">
        <ele>1540.66</ele>
        <time>2021-03-27T16:08:07Z</time>
      </trkpt>
      <trkpt lat="42.037936" lon="-3.018371">
        <ele>1540.67</ele>
        <time>2021-03-27T16:08:04Z</time>
      </trkpt>
      <trkpt lat="42.038058" lon="-3.018423">
        <ele>1541.62</ele>
        <time>2021-03-27T16:08:00Z</time>
      </trkpt>
      <trkpt lat="42.038196" lon="-3.018525">
        <ele>1544.11</ele>
        <time>2021-03-27T16:07:57Z</time>
      </trkpt>
      <trkpt lat="42.038464" lon="-3.018802">
        <ele>1548.75</ele>
        <time>2021-03-27T16:07:54Z</time>
      </trkpt>
      <trkpt lat="42.039306" lon="-3.019784">
        <ele>1555.23</ele>
        <time>2021-03-27T16:07:51Z</time>
      </trkpt>
      <trkpt lat="42.040005" lon="-3.020432">
        <ele>1563.87</ele>
        <time>2021-03-27T16:07:47Z</time>
      </trkpt>
      <trkpt lat="42.040196" lon="-3.020585">
        <ele>1566.33</ele>
        <time>2021-03-27T16:07:44Z</time>
      </trkpt>
      <trkpt lat="42.040857" lon="-3.020953">
        <ele>1567.94</ele>
        <time>2021-03-27T16:07:41Z</time>
      </trkpt>
      <trkpt lat="42.04168" lon="-3.021444">
        <ele>1567.0</ele>
        <time>2021-03-27T16:07:37Z</time>
      </trkpt>
      <trkpt lat="42.042119" lon="-3.021665">
        <ele>1572.86</ele>
        <time>2021-03-27T16:07:34Z</time>
      </trkpt>
      <trkpt lat="42.04232" lon="-3.021712">
        <ele>1575.88</ele>
        <time>2021-03-27T16:07:31Z</time>
      </trkpt>
      <trkpt lat="42.04374" lon="-3.021584">
        <ele>1581.42</ele>
        <time>2021-03-27T16:07:28Z</time>
      </trkpt>
      <trkpt lat="42.044371" lon="-3.021504">
        <ele>1587.01</ele>
        <time>2021-03-27T16:07:24Z</time>
      </trkpt>
      <trkpt lat="42.04464" lon="-3.021512">
        <ele>1588.85</ele>
        <time>2021-03-27T16:07:21Z</time>
      </trkpt>
      <trkpt lat="42.044787" lon="-3.021536">
        <ele>1589.81</ele>
        <time>2021-03-27T16:07:18Z</time>
      </trkpt>
      <trkpt lat="42.045383" lon="-3.021736">
        <ele>1592.85</ele>
        <time>2021-03-27T16:07:15Z</time>
      </trkpt>
      <trkpt lat="42.045586" lon="-3.02186">
        <ele>1594.98</ele>
        <time>2021-03-27T16:07:11Z</time>
      </trkpt>
      <trkpt lat="42.04571" lon="-3.021962">
        <ele>1597.37</ele>
        <time>2021-03-27T16:07:08Z</time>
      </trkpt>
      <trkpt lat="42.045771" lon="-3.021776">
        <ele>1594.65</ele>
        <time>2021-03-27T16:30:32Z</time>
      </trkpt>
      <trkpt lat="42.045868" lon="-3.021614">
        <ele>1592.87</ele>
        <time>2021-03-27T16:30:34Z</time>
      </trkpt>
      <trkpt lat="42.046125" lon="-3.021329">
        <ele>1592.96</ele>
        <time>2021-03-27T16:30:37Z</time>
      </trkpt>
      <trkpt lat="42.046254" lon="-3.021216">
        <ele>1592.81</ele>
        <time>2021-03-27T16:30:40Z</time>
      </trkpt>
      <trkpt lat="42.046371" lon="-3.021142">
        <ele>1592.89</ele>
        <time>2021-03-27T16:30:43Z</time>
      </trkpt>
      <trkpt lat="42.046929" lon="-3.021016">
        <ele>1583.96</ele>
        <time>2021-03-27T16:30:45Z</time>
      </trkpt>
      <trkpt lat="42.046974" lon="-3.02099">
        <ele>1582.88</ele>
        <time>2021-03-27T16:30:48Z</time>
      </trkpt>
      <trkpt lat="42.047058" lon="-3.020875">
        <ele>1580.34</ele>
        <time>2021-03-27T16:30:51Z</time>
      </trkpt>
      <trkpt lat="42.04712" lon="-3.020602">
        <ele>1578.27</ele>
        <time>2021-03-27T16:30:53Z</time>
      </trkpt>
      <trkpt lat="42.047137" lon="-3.020441">
        <ele>1576.74</ele>
        <time>2021-03-27T16:30:56Z</time>
      </trkpt>
      <trkpt lat="42.047138" lon="-3.020304">
        <ele>1575.37</ele>
        <time>2021-03-27T16:30:59Z</time>
      </trkpt>
      <trkpt lat="42.047088" lon="-3.019772">
        <ele>1571.97</ele>
        <time>2021-03-27T16:31:02Z</time>
      </trkpt>
      <trkpt lat="42.047058" lon="-3.019655">
        <ele>1570.66</ele>
        <time>2021-03-27T16:31:04Z</time>
      </trkpt>
      <trkpt lat="42.046951" lon="-3.019424">
        <ele>1567.44</ele>
        <time>2021-03-27T16:31:07Z</time>
      </trkpt>
      <trkpt lat="42.046683" lon="-3.01913">
        <ele>1563.18</ele>
        <time>2021-03-27T16:31:10Z</time>
      </trkpt>
      <trkpt lat="42.046458" lon="-3.018969">
        <ele>1560.97</ele>
        <time>2021-03-27T16:31:12Z</time>
      </trkpt>
      <trkpt lat="42.046252" lon="-3.018897">
        <ele>1558.64</ele>
        <time>2021-03-27T16:31:15Z</time>
      </trkpt>
      <trkpt lat="42.045891" lon="-3.018859">
        <ele>1553.32</ele>
        <time>2021-03-27T16:31:18Z</time>
      </trkpt>
      <trkpt lat="42.045819" lon="-3.018832">
        <ele>1551.82</ele>
        <time>2021-03-27T16:31:21Z</time>
      </trkpt>
      <trkpt lat="42.045601" lon="-3.018739">
        <ele>1547.33</ele>
        <time>2021-03-27T16:31:23Z</time>
      </trkpt>
      <trkpt lat="42.044839" lon="-3.018333">
        <ele>1529.69</ele>
        <time>2021-03-27T16:31:26Z</time>
      </trkpt>
      <trkpt lat="42.04435" lon="-3.018184">
        <ele>1521.72</ele>
        <time>2021-03-27T16:31:29Z</time>
      </trkpt>
      <trkpt lat="42.044268" lon="-3.01811">
        <ele>1519.97</ele>
        <time>2021-03-27T16:31:31Z</time>
      </trkpt>
      <trkpt lat="42.04425" lon="-3.017941">
        <ele>1517.55</ele>
        <time>2021-03-27T16:31:34Z</time>
      </trkpt>
      <trkpt lat="42.044282" lon="-3.017828">
        <ele>1516.39</ele>
        <time>2021-03-27T16:31:37Z</time>
      </trkpt>
      <trkpt lat="42.044505" lon="-3.017319">
        <ele>1513.77</ele>
        <time>2021-03-27T16:31:39Z</time>
      </trkpt>
      <trkpt lat="42.044587" lon="-3.017076">
        <ele>1512.23</ele>
        <time>2021-03-27T16:31:42Z</time>
      </trkpt>
      <trkpt lat="42.044595" lon="-3.016864">
        <ele>1510.13</ele>
        <time>2021-03-27T16:31:45Z</time>
      </trkpt>
      <trkpt lat="42.044544" lon="-3.016565">
        <ele>1505.63</ele>
        <time>2021-03-27T16:31:48Z</time>
      </trkpt>
      <trkpt lat="42.044445" lon="-3.016366">
        <ele>1502.75</ele>
        <time>2021-03-27T16:31:50Z</time>
      </trkpt>
      <trkpt lat="42.044308" lon="-3.016249">
        <ele>1500.76</ele>
        <time>2021-03-27T16:31:53Z</time>
      </trkpt>
      <trkpt lat="42.044103" lon="-3.016178">
        <ele>1499.02</ele>
        <time>2021-03-27T16:31:56Z</time>
      </trkpt>
      <trkpt lat="42.043603" lon="-3.016141">
        <ele>1494.22</ele>
        <time>2021-03-27T16:31:58Z</time>
      </trkpt>
      <trkpt lat="42.043494" lon="-3.016093">
        <ele>1490.81</ele>
        <time>2021-03-27T16:32:01Z</time>
      </trkpt>
      <trkpt lat="42.0434" lon="-3.015984">
        <ele>1487.19</ele>
        <time>2021-03-27T16:32:04Z</time>
      </trkpt>
      <trkpt lat="42.043344" lon="-3.015841">
        <ele>1484.32</ele>
        <time>2021-03-27T16:32:07Z</time>
      </trkpt>
      <trkpt lat="42.043333" lon="-3.015729">
        <ele>1482.13</ele>
        <time>2021-03-27T16:32:09Z</time>
      </trkpt>
      <trkpt lat="42.043354" lon="-3.015435">
        <ele>1478.78</ele>
        <time>2021-03-27T16:32:12Z</time>
      </trkpt>
      <trkpt lat="42.043416" lon="-3.015003">
        <ele>1476.82</ele>
        <time>2021-03-27T16:32:15Z</time>
      </trkpt>
      <trkpt lat="42.043498" lon="-3.014701">
        <ele>1473.18</ele>
        <time>2021-03-27T16:32:17Z</time>
      </trkpt>
      <trkpt lat="42.043776" lon="-3.014163">
        <ele>1466.33</ele>
        <time>2021-03-27T16:32:20Z</time>
      </trkpt>
      <trkpt lat="42.043994" lon="-3.013806">
        <ele>1461.55</ele>
        <time>2021-03-27T16:32:23Z</time>
      </trkpt>
      <trkpt lat="42.044155" lon="-3.013605">
        <ele>1459.79</ele>
        <time>2021-03-27T16:32:26Z</time>
      </trkpt>
      <trkpt lat="42.044298" lon="-3.013463">
        <ele>1459.29</ele>
        <time>2021-03-27T16:32:28Z</time>
      </trkpt>
      <trkpt lat="42.044608" lon="-3.013234">
        <ele>1456.49</ele>
        <time>2021-03-27T16:32:31Z</time>
      </trkpt>
      <trkpt lat="42.044654" lon="-3.013182">
        <ele>1455.19</ele>
        <time>2021-03-27T16:32:34Z</time>
      </trkpt>
      <trkpt lat="42.044671" lon="-3.013149">
        <ele>1454.36</ele>
        <time>2021-03-27T16:32:36Z</time>
      </trkpt>
      <trkpt lat="42.044687" lon="-3.013035">
        <ele>1451.56</ele>
        <time>2021-03-27T16:32:39Z</time>
      </trkpt>
      <trkpt lat="42.044632" lon="-3.012902">
        <ele>1448.5</ele>
        <time>2021-03-27T16:32:42Z</time>
      </trkpt>
      <trkpt lat="42.044554" lon="-3.012838">
        <ele>1446.82</ele>
        <time>2021-03-27T16:32:44Z</time>
      </trkpt>
      <trkpt lat="42.044189" lon="-3.012646">
        <ele>1444.87</ele>
        <time>2021-03-27T16:32:47Z</time>
      </trkpt>
      <trkpt lat="42.043734" lon="-3.012462">
        <ele>1436.61</ele>
        <time>2021-03-27T16:32:50Z</time>
      </trkpt>
      <trkpt lat="42.043248" lon="-3.012357">
        <ele>1429.37</ele>
        <time>2021-03-27T16:32:53Z</time>
      </trkpt>
      <trkpt lat="42.043154" lon="-3.012292">
        <ele>1427.33</ele>
        <time>2021-03-27T16:32:55Z</time>
      </trkpt>
      <trkpt lat="42.043122" lon="-3.012246">
        <ele>1426.28</ele>
        <time>2021-03-27T16:32:58Z</time>
      </trkpt>
      <trkpt lat="42.043103" lon="-3.012177">
        <ele>1425.2</ele>
        <time>2021-03-27T16:33:01Z</time>
      </trkpt>
      <trkpt lat="42.043171" lon="-3.011397">
        <ele>1416.52</ele>
        <time>2021-03-27T16:33:03Z</time>
      </trkpt>
      <trkpt lat="42.043164" lon="-3.011279">
        <ele>1415.3</ele>
        <time>2021-03-27T16:33:06Z</time>
      </trkpt>
      <trkpt lat="42.043024" lon="-3.010954">
        <ele>1412.14</ele>
        <time>2021-03-27T16:33:09Z</time>
      </trkpt>
      <trkpt lat="42.04276" lon="-3.010521">
        <ele>1407.82</ele>
        <time>2021-03-27T16:33:12Z</time>
      </trkpt>
      <trkpt lat="42.042717" lon="-3.010376">
        <ele>1407.49</ele>
        <time>2021-03-27T16:33:14Z</time>
      </trkpt>
      <trkpt lat="42.04309" lon="-3.010316">
        <ele>1406.55</ele>
        <time>2021-03-27T16:33:16Z</time>
      </trkpt>
      <trkpt lat="42.043301" lon="-3.010338">
        <ele>1403.18</ele>
        <time>2021-03-27T16:33:17Z</time>
      </trkpt>
      <trkpt lat="42.043504" lon="-3.010467">
        <ele>1400.38</ele>
        <time>2021-03-27T16:33:19Z</time>
      </trkpt>
      <trkpt lat="42.043863" lon="-3.010776">
        <ele>1402.98</ele>
        <time>2021-03-27T16:33:20Z</time>
      </trkpt>
      <trkpt lat="42.04441" lon="-3.011059">
        <ele>1395.23</ele>
        <time>2021-03-27T16:33:22Z</time>
      </trkpt>
      <trkpt lat="42.044564" lon="-3.011077">
        <ele>1395.89</ele>
        <time>2021-03-27T16:33:23Z</time>
      </trkpt>
      <trkpt lat="42.044745" lon="-3.01102">
        <ele>1395.63</ele>
        <time>2021-03-27T16:33:25Z</time>
      </trkpt>
      <trkpt lat="42.045239" lon="-3.010795">
        <ele>1386.9</ele>
        <time>2021-03-27T16:33:26Z</time>
      </trkpt>
      <trkpt lat="42.045691" lon="-3.010515">
        <ele>1380.24</ele>
        <time>2021-03-27T16:33:28Z</time>
      </trkpt>
      <trkpt lat="42.045984" lon="-3.010277">
        <ele>1375.08</ele>
        <time>2021-03-27T16:33:29Z</time>
      </trkpt>
      <trkpt lat="42.046059" lon="-3.010243">
        <ele>1374.85</ele>
        <time>2021-03-27T16:33:31Z</time>
      </trkpt>
      <trkpt lat="42.046208" lon="-3.010224">
        <ele>1376.23</ele>
        <time>2021-03-27T16:33:32Z</time>
      </trkpt>
      <trkpt lat="42.046945" lon="-3.010271">
        <ele>1369.89</ele>
        <time>2021-03-27T16:33:34Z</time>
      </trkpt>
      <trkpt lat="42.047154" lon="-3.010321">
        <ele>1367.29</ele>
        <time>2021-03-27T16:33:35Z</time>
      </trkpt>
      <trkpt lat="42.047267" lon="-3.010423">
        <ele>1365.74</ele>
        <time>2021-03-27T16:33:37Z</time>
      </trkpt>
      <trkpt lat="42.047476" lon="-3.010875">
        <ele>1361.05</ele>
        <time>2021-03-27T16:33:38Z</time>
      </trkpt>
      <trkpt lat="42.047605" lon="-3.011351">
        <ele>1356.77</ele>
        <time>2021-03-27T16:33:40Z</time>
      </trkpt>
      <trkpt lat="42.047656" lon="-3.011643">
        <ele>1357.36</ele>
        <time>2021-03-27T16:33:41Z</time>
      </trkpt>
      <trkpt lat="42.047673" lon="-3.011881">
        <ele>1359.74</ele>
        <time>2021-03-27T16:33:43Z</time>
      </trkpt>
      <trkpt lat="42.047733" lon="-3.012034">
        <ele>1359.19</ele>
        <time>2021-03-27T16:33:44Z</time>
      </trkpt>
      <trkpt lat="42.047781" lon="-3.01207">
        <ele>1357.65</ele>
        <time>2021-03-27T16:33:46Z</time>
      </trkpt>
      <trkpt lat="42.047845" lon="-3.012088">
        <ele>1356.63</ele>
        <time>2021-03-27T16:33:47Z</time>
      </trkpt>
      <trkpt lat="42.04809" lon="-3.012049">
        <ele>1351.34</ele>
        <time>2021-03-27T16:33:49Z</time>
      </trkpt>
      <trkpt lat="42.048196" lon="-3.012012">
        <ele>1350.84</ele>
        <time>2021-03-27T16:33:50Z</time>
      </trkpt>
      <trkpt lat="42.048782" lon="-3.011644">
        <ele>1349.81</ele>
        <time>2021-03-27T16:33:52Z</time>
      </trkpt>
      <trkpt lat="42.048908" lon="-3.011571">
        <ele>1349.0</ele>
        <time>2021-03-27T16:33:53Z</time>
      </trkpt>
      <trkpt lat="42.049184" lon="-3.011453">
        <ele>1347.43</ele>
        <time>2021-03-27T16:33:54Z</time>
      </trkpt>
      <trkpt lat="42.049383" lon="-3.01132">
        <ele>1345.54</ele>
        <time>2021-03-27T16:33:56Z</time>
      </trkpt>
      <trkpt lat="42.049907" lon="-3.011157">
        <ele>1341.33</ele>
        <time>2021-03-27T16:33:57Z</time>
      </trkpt>
      <trkpt lat="42.050138" lon="-3.011039">
        <ele>1337.86</ele>
        <time>2021-03-27T16:33:59Z</time>
      </trkpt>
      <trkpt lat="42.050349" lon="-3.01099">
        <ele>1334.81</ele>
        <time>2021-03-27T16:34:00Z</time>
      </trkpt>
      <trkpt lat="42.050603" lon="-3.010993">
        <ele>1331.78</ele>
        <time>2021-03-27T16:34:02Z</time>
      </trkpt>
      <trkpt lat="42.051231" lon="-3.011126">
        <ele>1329.37</ele>
        <time>2021-03-27T16:34:03Z</time>
      </trkpt>
      <trkpt lat="42.051724" lon="-3.011174">
        <ele>1327.73</ele>
        <time>2021-03-27T16:34:05Z</time>
      </trkpt>
      <trkpt lat="42.05195" lon="-3.011271">
        <ele>1325.83</ele>
        <time>2021-03-27T16:34:06Z</time>
      </trkpt>
      <trkpt lat="42.052179" lon="-3.011427">
        <ele>1326.15</ele>
        <time>2021-03-27T16:34:08Z</time>
      </trkpt>
      <trkpt lat="42.052258" lon="-3.011451">
        <ele>1325.81</ele>
        <time>2021-03-27T16:34:09Z</time>
      </trkpt>
      <trkpt lat="42.052642" lon="-3.011495">
        <ele>1320.45</ele>
        <time>2021-03-27T16:34:11Z</time>
      </trkpt>
      <trkpt lat="42.052946" lon="-3.011663">
        <ele>1316.86</ele>
        <time>2021-03-27T16:34:12Z</time>
      </trkpt>
      <trkpt lat="42.053024" lon="-3.011684">
        <ele>1316.05</ele>
        <time>2021-03-27T16:34:14Z</time>
      </trkpt>
      <trkpt lat="42.053122" lon="-3.011687">
        <ele>1315.16</ele>
        <time>2021-03-27T16:34:15Z</time>
      </trkpt>
      <trkpt lat="42.053206" lon="-3.011666">
        <ele>1313.89</ele>
        <time>2021-03-27T16:34:17Z</time>
      </trkpt>
      <trkpt lat="42.053377" lon="-3.011564">
        <ele>1310.62</ele>
        <time>2021-03-27T16:34:18Z</time>
      </trkpt>
      <trkpt lat="42.053486" lon="-3.01143">
        <ele>1307.91</ele>
        <time>2021-03-27T16:34:20Z</time>
      </trkpt>
      <trkpt lat="42.053593" lon="-3.011024">
        <ele>1302.06</ele>
        <time>2021-03-27T16:34:21Z</time>
      </trkpt>
      <trkpt lat="42.053793" lon="-3.010598">
        <ele>1296.74</ele>
        <time>2021-03-27T16:34:23Z</time>
      </trkpt>
      <trkpt lat="42.053925" lon="-3.010171">
        <ele>1288.38</ele>
        <time>2021-03-27T16:34:24Z</time>
      </trkpt>
      <trkpt lat="42.053963" lon="-3.010098">
        <ele>1287.47</ele>
        <time>2021-03-27T16:34:26Z</time>
      </trkpt>
      <trkpt lat="42.054119" lon="-3.00995">
        <ele>1286.58</ele>
        <time>2021-03-27T16:34:27Z</time>
      </trkpt>
      <trkpt lat="42.054223" lon="-3.009879">
        <ele>1285.91</ele>
        <time>2021-03-27T16:34:29Z</time>
      </trkpt>
      <trkpt lat="42.054397" lon="-3.009819">
        <ele>1285.28</ele>
        <time>2021-03-27T16:34:30Z</time>
      </trkpt>
      <trkpt lat="42.054484" lon="-3.009827">
        <ele>1285.59</ele>
        <time>2021-03-27T16:34:32Z</time>
      </trkpt>
      <trkpt lat="42.054614" lon="-3.00991">
        <ele>1286.9</ele>
        <time>2021-03-27T16:34:33Z</time>
      </trkpt>
      <trkpt lat="42.054781" lon="-3.010141">
        <ele>1287.97</ele>
        <time>2021-03-27T16:34:35Z</time>
      </trkpt>
      <trkpt lat="42.05483" lon="-3.010254">
        <ele>1288.21</ele>
        <time>2021-03-27T16:34:36Z</time>
      </trkpt>
      <trkpt lat="42.054932" lon="-3.010685">
        <ele>1289.29</ele>
        <time>2021-03-27T16:34:38Z</time>
      </trkpt>
      <trkpt lat="42.054975" lon="-3.010789">
        <ele>1288.53</ele>
        <time>2021-03-27T16:34:39Z</time>
      </trkpt>
      <trkpt lat="42.055123" lon="-3.010973">
        <ele>1285.79</ele>
        <time>2021-03-27T16:34:41Z</time>
      </trkpt>
      <trkpt lat="42.055406" lon="-3.011175">
        <ele>1281.19</ele>
        <time>2021-03-27T16:34:42Z</time>
      </trkpt>
      <trkpt lat="42.055499" lon="-3.011223">
        <ele>1280.52</ele>
        <time>2021-03-27T16:34:44Z</time>
      </trkpt>
      <trkpt lat="42.055717" lon="-3.011289">
        <ele>1277.24</ele>
        <time>2021-03-27T16:34:45Z</time>
      </trkpt>
      <trkpt lat="42.055866" lon="-3.011363">
        <ele>1274.33</ele>
        <time>2021-03-27T16:34:47Z</time>
      </trkpt>
      <trkpt lat="42.05615" lon="-3.011566">
        <ele>1270.35</ele>
        <time>2021-03-27T16:34:48Z</time>
      </trkpt>
      <trkpt lat="42.056435" lon="-3.011871">
        <ele>1270.43</ele>
        <time>2021-03-27T16:34:50Z</time>
      </trkpt>
      <trkpt lat="42.056516" lon="-3.01193">
        <ele>1270.87</ele>
        <time>2021-03-27T16:34:51Z</time>
      </trkpt>
      <trkpt lat="42.056767" lon="-3.011988">
        <ele>1270.4</ele>
        <time>2021-03-27T16:34:53Z</time>
      </trkpt>
      <trkpt lat="42.056862" lon="-3.011984">
        <ele>1269.47</ele>
        <time>2021-03-27T16:34:54Z</time>
      </trkpt>
      <trkpt lat="42.056925" lon="-3.011942">
        <ele>1268.18</ele>
        <time>2021-03-27T16:34:56Z</time>
      </trkpt>
      <trkpt lat="42.056981" lon="-3.011876">
        <ele>1266.35</ele>
        <time>2021-03-27T16:34:57Z</time>
      </trkpt>
      <trkpt lat="42.057017" lon="-3.011803">
        <ele>1264.78</ele>
        <time>2021-03-27T16:34:59Z</time>
      </trkpt>
      <trkpt lat="42.057039" lon="-3.011701">
        <ele>1263.29</ele>
        <time>2021-03-27T16:35:00Z</time>
      </trkpt>
      <trkpt lat="42.056939" lon="-3.010154">
        <ele>1254.49</ele>
        <time>2021-03-27T16:35:01Z</time>
      </trkpt>
      <trkpt lat="42.056911" lon="-3.009879">
        <ele>1253.13</ele>
        <time>2021-03-27T16:35:03Z</time>
      </trkpt>
      <trkpt lat="42.056844" lon="-3.009515">
        <ele>1253.14</ele>
        <time>2021-03-27T16:35:04Z</time>
      </trkpt>
      <trkpt lat="42.056788" lon="-3.00932">
        <ele>1253.19</ele>
        <time>2021-03-27T16:35:06Z</time>
      </trkpt>
      <trkpt lat="42.056548" lon="-3.00874">
        <ele>1249.73</ele>
        <time>2021-03-27T16:35:07Z</time>
      </trkpt>
      <trkpt lat="42.0565" lon="-3.008547">
        <ele>1247.41</ele>
        <time>2021-03-27T16:35:09Z</time>
      </trkpt>
      <trkpt lat="42.056458" lon="-3.008185">
        <ele>1243.96</ele>
        <time>2021-03-27T16:35:10Z</time>
      </trkpt>
      <trkpt lat="42.05648" lon="-3.007921">
        <ele>1242.99</ele>
        <time>2021-03-27T16:35:12Z</time>
      </trkpt>
      <trkpt lat="42.056585" lon="-3.007557">
        <ele>1242.32</ele>
        <time>2021-03-27T16:35:13Z</time>
      </trkpt>
      <trkpt lat="42.056988" lon="-3.006545">
        <ele>1238.78</ele>
        <time>2021-03-27T16:35:15Z</time>
      </trkpt>
      <trkpt lat="42.057141" lon="-3.006244">
        <ele>1236.51</ele>
        <time>2021-03-27T16:35:16Z</time>
      </trkpt>
      <trkpt lat="42.057434" lon="-3.005818">
        <ele>1232.76</ele>
        <time>2021-03-27T16:35:18Z</time>
      </trkpt>
      <trkpt lat="42.057657" lon="-3.005397">
        <ele>1228.16</ele>
        <time>2021-03-27T16:35:19Z</time>
      </trkpt>
      <trkpt lat="42.058135" lon="-3.004403">
        <ele>1222.8</ele>
        <time>2021-03-27T16:35:21Z</time>
      </trkpt>
      <trkpt lat="42.058245" lon="-3.004062">
        <ele>1221.91</ele>
        <time>2021-03-27T16:35:22Z</time>
      </trkpt>
      <trkpt lat="42.05829" lon="-3.003815">
        <ele>1221.44</ele>
        <time>2021-03-27T16:35:24Z</time>
      </trkpt>
      <trkpt lat="42.058338" lon="-3.00329">
        <ele>1219.94</ele>
        <time>2021-03-27T16:35:25Z</time>
      </trkpt>
      <trkpt lat="42.058355" lon="-3.0024">
        <ele>1218.5</ele>
        <time>2021-03-27T16:35:27Z</time>
      </trkpt>
      <trkpt lat="42.058323" lon="-3.002042">
        <ele>1216.41</ele>
        <time>2021-03-27T16:35:28Z</time>
      </trkpt>
      <trkpt lat="42.05815" lon="-3.001015">
        <ele>1206.39</ele>
        <time>2021-03-27T16:35:30Z</time>
      </trkpt>
      <trkpt lat="42.05814" lon="-3.000746">
        <ele>1207.13</ele>
        <time>2021-03-27T16:35:31Z</time>
      </trkpt>
      <trkpt lat="42.05815" lon="-3.000576">
        <ele>1207.97</ele>
        <time>2021-03-27T16:35:33Z</time>
      </trkpt>
      <trkpt lat="42.058202" lon="-3.000107">
        <ele>1205.84</ele>
        <time>2021-03-27T16:35:34Z</time>
      </trkpt>
      <trkpt lat="42.058379" lon="-2.999221">
        <ele>1202.02</ele>
        <time>2021-03-27T16:35:36Z</time>
      </trkpt>
      <trkpt lat="42.058638" lon="-2.99755">
        <ele>1192.66</ele>
        <time>2021-03-27T16:35:37Z</time>
      </trkpt>
      <trkpt lat="42.058694" lon="-2.996763">
        <ele>1191.44</ele>
        <time>2021-03-27T16:35:39Z</time>
      </trkpt>
      <trkpt lat="42.058779" lon="-2.996483">
        <ele>1191.76</ele>
        <time>2021-03-27T16:35:40Z</time>
      </trkpt>
      <trkpt lat="42.058957" lon="-2.995588">
        <ele>1185.08</ele>
        <time>2021-03-27T16:35:42Z</time>
      </trkpt>
      <trkpt lat="42.059471" lon="-2.994256">
        <ele>1181.16</ele>
        <time>2021-03-27T16:35:43Z</time>
      </trkpt>
      <trkpt lat="42.059596" lon="-2.993981">
        <ele>1180.97</ele>
        <time>2021-03-27T16:35:45Z</time>
      </trkpt>
      <trkpt lat="42.0597" lon="-2.993593">
        <ele>1180.85</ele>
        <time>2021-03-27T16:35:46Z</time>
      </trkpt>
      <trkpt lat="42.05976" lon="-2.993477">
        <ele>1180.59</ele>
        <time>2021-03-27T16:35:48Z</time>
      </trkpt>
      <trkpt lat="42.059826" lon="-2.99339">
        <ele>1180.28</ele>
        <time>2021-03-27T16:35:49Z</time>
      </trkpt>
      <trkpt lat="42.059995" lon="-2.993287">
        <ele>1179.33</ele>
        <time>2021-03-27T16:35:51Z</time>
      </trkpt>
      <trkpt lat="42.060189" lon="-2.993249">
        <ele>1175.79</ele>
        <time>2021-03-27T16:35:52Z</time>
      </trkpt>
      <trkpt lat="42.060332" lon="-2.993286">
        <ele>1174.69</ele>
        <time>2021-03-27T16:35:54Z</time>
      </trkpt>
      <trkpt lat="42.060621" lon="-2.993428">
        <ele>1174.94</ele>
        <time>2021-03-27T16:35:55Z</time>
      </trkpt>
      <trkpt lat="42.060764" lon="-2.993457">
        <ele>1174.03</ele>
        <time>2021-03-27T16:35:57Z</time>
      </trkpt>
      <trkpt lat="42.061002" lon="-2.993451">
        <ele>1172.11</ele>
        <time>2021-03-27T16:35:58Z</time>
      </trkpt>
      <trkpt lat="42.061093" lon="-2.99343">
        <ele>1171.45</ele>
        <time>2021-03-27T16:36:00Z</time>
      </trkpt>
      <trkpt lat="42.061741" lon="-2.99318">
        <ele>1169.16</ele>
        <time>2021-03-27T16:36:01Z</time>
      </trkpt>
      <trkpt lat="42.06192" lon="-2.993077">
        <ele>1168.24</ele>
        <time>2021-03-27T16:36:03Z</time>
      </trkpt>
      <trkpt lat="42.061971" lon="-2.993015">
        <ele>1167.37</ele>
        <time>2021-03-27T16:36:04Z</time>
      </trkpt>
      <trkpt lat="42.061996" lon="-2.992876">
        <ele>1167.04</ele>
        <time>2021-03-27T16:36:06Z</time>
      </trkpt>
      <trkpt lat="42.061901" lon="-2.99181">
        <ele>1160.89</ele>
        <time>2021-03-27T16:36:07Z</time>
      </trkpt>
      <trkpt lat="42.061877" lon="-2.991742">
        <ele>1160.72</ele>
        <time>2021-03-27T16:36:08Z</time>
      </trkpt>
      <trkpt lat="42.061832" lon="-2.991685">
        <ele>1161.11</ele>
        <time>2021-03-27T16:36:10Z</time>
      </trkpt>
      <trkpt lat="42.061494" lon="-2.991407">
        <ele>1164.06</ele>
        <time>2021-03-27T16:36:11Z</time>
      </trkpt>
      <trkpt lat="42.061454" lon="-2.991356">
        <ele>1164.41</ele>
        <time>2021-03-27T16:36:13Z</time>
      </trkpt>
      <trkpt lat="42.061429" lon="-2.991233">
        <ele>1164.17</ele>
        <time>2021-03-27T16:36:14Z</time>
      </trkpt>
      <trkpt lat="42.061443" lon="-2.991158">
        <ele>1163.5</ele>
        <time>2021-03-27T16:36:16Z</time>
      </trkpt>
      <trkpt lat="42.061477" lon="-2.991117">
        <ele>1162.76</ele>
        <time>2021-03-27T16:36:17Z</time>
      </trkpt>
      <trkpt lat="42.061524" lon="-2.991099">
        <ele>1162.14</ele>
        <time>2021-03-27T16:36:19Z</time>
      </trkpt>
      <trkpt lat="42.061693" lon="-2.991093">
        <ele>1159.56</ele>
        <time>2021-03-27T16:36:20Z</time>
      </trkpt>
      <trkpt lat="42.061755" lon="-2.991077">
        <ele>1158.36</ele>
        <time>2021-03-27T16:36:22Z</time>
      </trkpt>
      <trkpt lat="42.061802" lon="-2.991042">
        <ele>1157.69</ele>
        <time>2021-03-27T16:36:23Z</time>
      </trkpt>
      <trkpt lat="42.061832" lon="-2.990978">
        <ele>1157.66</ele>
        <time>2021-03-27T16:36:25Z</time>
      </trkpt>
      <trkpt lat="42.061844" lon="-2.990897">
        <ele>1158.21</ele>
        <time>2021-03-27T16:36:26Z</time>
      </trkpt>
      <trkpt lat="42.061841" lon="-2.990667">
        <ele>1160.21</ele>
        <time>2021-03-27T16:36:28Z</time>
      </trkpt>
      <trkpt lat="42.061855" lon="-2.990608">
        <ele>1160.52</ele>
        <time>2021-03-27T16:36:29Z</time>
      </trkpt>
      <trkpt lat="42.061909" lon="-2.990538">
        <ele>1160.42</ele>
        <time>2021-03-27T16:36:31Z</time>
      </trkpt>
      <trkpt lat="42.06196" lon="-2.990506">
        <ele>1160.23</ele>
        <time>2021-03-27T16:36:32Z</time>
      </trkpt>
      <trkpt lat="42.06206" lon="-2.990505">
        <ele>1160.56</ele>
        <time>2021-03-27T16:36:34Z</time>
      </trkpt>
      <trkpt lat="42.062724" lon="-2.990725">
        <ele>1156.34</ele>
        <time>2021-03-27T16:36:35Z</time>
      </trkpt>
      <trkpt lat="42.062848" lon="-2.990715">
        <ele>1157.83</ele>
        <time>2021-03-27T16:36:37Z</time>
      </trkpt>
      <trkpt lat="42.062967" lon="-2.990605">
        <ele>1158.81</ele>
        <time>2021-03-27T16:36:38Z</time>
      </trkpt>
      <trkpt lat="42.063058" lon="-2.990372">
        <ele>1158.15</ele>
        <time>2021-03-27T16:36:40Z</time>
      </trkpt>
      <trkpt lat="42.063211" lon="-2.989516">
        <ele>1160.31</ele>
        <time>2021-03-27T16:36:41Z</time>
      </trkpt>
      <trkpt lat="42.063253" lon="-2.989372">
        <ele>1160.78</ele>
        <time>2021-03-27T16:36:43Z</time>
      </trkpt>
      <trkpt lat="42.063352" lon="-2.989157">
        <ele>1161.27</ele>
        <time>2021-03-27T16:36:44Z</time>
      </trkpt>
      <trkpt lat="42.063416" lon="-2.989064">
        <ele>1160.97</ele>
        <time>2021-03-27T16:36:46Z</time>
      </trkpt>
      <trkpt lat="42.063663" lon="-2.988839">
        <ele>1160.7</ele>
        <time>2021-03-27T16:36:47Z</time>
      </trkpt>
      <trkpt lat="42.063815" lon="-2.988654">
        <ele>1161.38</ele>
        <time>2021-03-27T16:36:49Z</time>
      </trkpt>
      <trkpt lat="42.064227" lon="-2.987892">
        <ele>1158.28</ele>
        <time>2021-03-27T16:36:50Z</time>
      </trkpt>
      <trkpt lat="42.064504" lon="-2.987477">
        <ele>1156.2</ele>
        <time>2021-03-27T16:36:52Z</time>
      </trkpt>
      <trkpt lat="42.064719" lon="-2.987079">
        <ele>1149.94</ele>
        <time>2021-03-27T16:36:53Z</time>
      </trkpt>
      <trkpt lat="42.064776" lon="-2.987017">
        <ele>1148.9</ele>
        <time>2021-03-27T16:36:55Z</time>
      </trkpt>
      <trkpt lat="42.064838" lon="-2.986985">
        <ele>1148.23</ele>
        <time>2021-03-27T16:36:56Z</time>
      </trkpt>
      <trkpt lat="42.064906" lon="-2.986981">
        <ele>1147.95</ele>
        <time>2021-03-27T16:36:58Z</time>
      </trkpt>
      <trkpt lat="42.064997" lon="-2.987011">
        <ele>1148.21</ele>
        <time>2021-03-27T16:36:59Z</time>
      </trkpt>
      <trkpt lat="42.065759" lon="-2.987615">
        <ele>1153.36</ele>
        <time>2021-03-27T16:37:01Z</time>
      </trkpt>
      <trkpt lat="42.065942" lon="-2.987698">
        <ele>1152.93</ele>
        <time>2021-03-27T16:37:02Z</time>
      </trkpt>
      <trkpt lat="42.066016" lon="-2.987691">
        <ele>1151.31</ele>
        <time>2021-03-27T16:37:04Z</time>
      </trkpt>
      <trkpt lat="42.066093" lon="-2.98765">
        <ele>1147.94</ele>
        <time>2021-03-27T16:37:05Z</time>
      </trkpt>
      <trkpt lat="42.066246" lon="-2.987492">
        <ele>1141.8</ele>
        <time>2021-03-27T16:37:07Z</time>
      </trkpt>
      <trkpt lat="42.066544" lon="-2.987139">
        <ele>1140.31</ele>
        <time>2021-03-27T16:37:08Z</time>
      </trkpt>
      <trkpt lat="42.066671" lon="-2.986953">
        <ele>1142.22</ele>
        <time>2021-03-27T16:37:10Z</time>
      </trkpt>
      <trkpt lat="42.066842" lon="-2.986633">
        <ele>1146.49</ele>
        <time>2021-03-27T16:37:11Z</time>
      </trkpt>
      <trkpt lat="42.066888" lon="-2.986516">
        <ele>1147.2</ele>
        <time>2021-03-27T16:37:13Z</time>
      </trkpt>
      <trkpt lat="42.066963" lon="-2.986177">
        <ele>1144.97</ele>
        <time>2021-03-27T16:37:14Z</time>
      </trkpt>
      <trkpt lat="42.067027" lon="-2.985773">
        <ele>1140.31</ele>
        <time>2021-03-27T16:37:15Z</time>
      </trkpt>
      <trkpt lat="42.067096" lon="-2.985484">
        <ele>1139.45</ele>
        <time>2021-03-27T16:37:17Z</time>
      </trkpt>
      <trkpt lat="42.067294" lon="-2.984838">
        <ele>1141.39</ele>
        <time>2021-03-27T16:37:18Z</time>
      </trkpt>
      <trkpt lat="42.067461" lon="-2.984442">
        <ele>1139.57</ele>
        <time>2021-03-27T16:37:20Z</time>
      </trkpt>
      <trkpt lat="42.06755" lon="-2.984281">
        <ele>1138.89</ele>
        <time>2021-03-27T16:37:21Z</time>
      </trkpt>
      <trkpt lat="42.067619" lon="-2.984169">
        <ele>1137.89</ele>
        <time>2021-03-27T16:37:23Z</time>
      </trkpt>
      <trkpt lat="42.067707" lon="-2.984087">
        <ele>1137.14</ele>
        <time>2021-03-27T16:37:24Z</time>
      </trkpt>
      <trkpt lat="42.067857" lon="-2.984082">
        <ele>1137.57</ele>
        <time>2021-03-27T16:37:26Z</time>
      </trkpt>
      <trkpt lat="42.068515" lon="-2.984412">
        <ele>1148.67</ele>
        <time>2021-03-27T16:37:27Z</time>
      </trkpt>
      <trkpt lat="42.068641" lon="-2.984459">
        <ele>1149.94</ele>
        <time>2021-03-27T16:37:29Z</time>
      </trkpt>
      <trkpt lat="42.068731" lon="-2.984469">
        <ele>1150.76</ele>
        <time>2021-03-27T16:37:30Z</time>
      </trkpt>
      <trkpt lat="42.068934" lon="-2.984432">
        <ele>1150.72</ele>
        <time>2021-03-27T16:37:32Z</time>
      </trkpt>
      <trkpt lat="42.069064" lon="-2.984351">
        <ele>1150.95</ele>
        <time>2021-03-27T16:37:33Z</time>
      </trkpt>
      <trkpt lat="42.069523" lon="-2.984001">
        <ele>1145.26</ele>
        <time>2021-03-27T16:37:35Z</time>
      </trkpt>
      <trkpt lat="42.070047" lon="-2.983504">
        <ele>1135.09</ele>
        <time>2021-03-27T16:37:36Z</time>
      </trkpt>
      <trkpt lat="42.070138" lon="-2.983439">
        <ele>1135.58</ele>
        <time>2021-03-27T16:37:38Z</time>
      </trkpt>
      <trkpt lat="42.070208" lon="-2.983415">
        <ele>1136.29</ele>
        <time>2021-03-27T16:37:39Z</time>
      </trkpt>
      <trkpt lat="42.070354" lon="-2.98342">
        <ele>1138.72</ele>
        <time>2021-03-27T16:37:41Z</time>
      </trkpt>
      <trkpt lat="42.070418" lon="-2.983451">
        <ele>1140.59</ele>
        <time>2021-03-27T16:37:42Z</time>
      </trkpt>
      <trkpt lat="42.070592" lon="-2.98362">
        <ele>1148.2</ele>
        <time>2021-03-27T16:37:44Z</time>
      </trkpt>
      <trkpt lat="42.0707" lon="-2.983666">
        <ele>1149.44</ele>
        <time>2021-03-27T16:37:45Z</time>
      </trkpt>
      <trkpt lat="42.070817" lon="-2.983644">
        <ele>1148.24</ele>
        <time>2021-03-27T16:37:47Z</time>
      </trkpt>
      <trkpt lat="42.070983" lon="-2.983546">
        <ele>1145.06</ele>
        <time>2021-03-27T16:37:48Z</time>
      </trkpt>
      <trkpt lat="42.071193" lon="-2.983487">
        <ele>1143.11</ele>
        <time>2021-03-27T16:37:50Z</time>
      </trkpt>
      <trkpt lat="42.071318" lon="-2.98349">
        <ele>1143.3</ele>
        <time>2021-03-27T16:37:51Z</time>
      </trkpt>
      <trkpt lat="42.071704" lon="-2.983649">
        <ele>1149.1</ele>
        <time>2021-03-27T16:37:53Z</time>
      </trkpt>
      <trkpt lat="42.071802" lon="-2.98367">
        <ele>1150.69</ele>
        <time>2021-03-27T16:37:54Z</time>
      </trkpt>
      <trkpt lat="42.071919" lon="-2.983671">
        <ele>1151.56</ele>
        <time>2021-03-27T16:37:56Z</time>
      </trkpt>
      <trkpt lat="42.07203" lon="-2.983648">
        <ele>1151.93</ele>
        <time>2021-03-27T16:37:57Z</time>
      </trkpt>
      <trkpt lat="42.072269" lon="-2.983569">
        <ele>1152.3</ele>
        <time>2021-03-27T16:37:59Z</time>
      </trkpt>
      <trkpt lat="42.072434" lon="-2.983461">
        <ele>1152.61</ele>
        <time>2021-03-27T16:38:00Z</time>
      </trkpt>
      <trkpt lat="42.07266" lon="-2.983241">
        <ele>1151.62</ele>
        <time>2021-03-27T16:38:02Z</time>
      </trkpt>
      <trkpt lat="42.072847" lon="-2.983004">
        <ele>1154.85</ele>
        <time>2021-03-27T16:38:03Z</time>
      </trkpt>
      <trkpt lat="42.072918" lon="-2.982869">
        <ele>1155.91</ele>
        <time>2021-03-27T16:38:05Z</time>
      </trkpt>
      <trkpt lat="42.072961" lon="-2.982738">
        <ele>1155.49</ele>
        <time>2021-03-27T16:38:06Z</time>
      </trkpt>
      <trkpt lat="42.07299" lon="-2.982506">
        <ele>1151.19</ele>
        <time>2021-03-27T16:38:08Z</time>
      </trkpt>
      <trkpt lat="42.072981" lon="-2.982389">
        <ele>1148.74</ele>
        <time>2021-03-27T16:38:09Z</time>
      </trkpt>
      <trkpt lat="42.072865" lon="-2.981954">
        <ele>1141.47</ele>
        <time>2021-03-27T16:38:11Z</time>
      </trkpt>
      <trkpt lat="42.07285" lon="-2.98182">
        <ele>1140.74</ele>
        <time>2021-03-27T16:38:12Z</time>
      </trkpt>
      <trkpt lat="42.072879" lon="-2.981734">
        <ele>1141.08</ele>
        <time>2021-03-27T16:38:14Z</time>
      </trkpt>
      <trkpt lat="42.072943" lon="-2.981665">
        <ele>1141.94</ele>
        <time>2021-03-27T16:38:15Z</time>
      </trkpt>
      <trkpt lat="42.073076" lon="-2.981635">
        <ele>1143.17</ele>
        <time>2021-03-27T16:38:17Z</time>
      </trkpt>
      <trkpt lat="42.073254" lon="-2.981665">
        <ele>1143.96</ele>
        <time>2021-03-27T16:38:18Z</time>
      </trkpt>
      <trkpt lat="42.073477" lon="-2.981732">
        <ele>1145.29</ele>
        <time>2021-03-27T16:38:20Z</time>
      </trkpt>
      <trkpt lat="42.0748" lon="-2.982152">
        <ele>1137.04</ele>
        <time>2021-03-27T16:38:21Z</time>
      </trkpt>
      <trkpt lat="42.075481" lon="-2.982423">
        <ele>1133.5</ele>
        <time>2021-03-27T16:38:23Z</time>
      </trkpt>
      <trkpt lat="42.07555" lon="-2.982418">
        <ele>1130.68</ele>
        <time>2021-03-27T16:38:24Z</time>
      </trkpt>
      <trkpt lat="42.075684" lon="-2.982361">
        <ele>1127.56</ele>
        <time>2021-03-27T16:38:25Z</time>
      </trkpt>
      <trkpt lat="42.075992" lon="-2.982142">
        <ele>1120.53</ele>
        <time>2021-03-27T16:38:27Z</time>
      </trkpt>
      <trkpt lat="42.076146" lon="-2.982055">
        <ele>1119.51</ele>
        <time>2021-03-27T16:38:28Z</time>
      </trkpt>
      <trkpt lat="42.076297" lon="-2.982016">
        <ele>1120.57</ele>
        <time>2021-03-27T16:38:30Z</time>
      </trkpt>
      <trkpt lat="42.076385" lon="-2.982025">
        <ele>1122.28</ele>
        <time>2021-03-27T16:38:31Z</time>
      </trkpt>
      <trkpt lat="42.076642" lon="-2.982105">
        <ele>1125.54</ele>
        <time>2021-03-27T16:38:33Z</time>
      </trkpt>
      <trkpt lat="42.077065" lon="-2.982302">
        <ele>1126.35</ele>
        <time>2021-03-27T16:38:34Z</time>
      </trkpt>
      <trkpt lat="42.077426" lon="-2.982511">
        <ele>1122.62</ele>
        <time>2021-03-27T16:38:36Z</time>
      </trkpt>
      <trkpt lat="42.077558" lon="-2.98254">
        <ele>1120.87</ele>
        <time>2021-03-27T16:38:37Z</time>
      </trkpt>
      <trkpt lat="42.077672" lon="-2.982507">
        <ele>1120.15</ele>
        <time>2021-03-27T16:38:39Z</time>
      </trkpt>
      <trkpt lat="42.077903" lon="-2.982307">
        <ele>1116.91</ele>
        <time>2021-03-27T16:38:40Z</time>
      </trkpt>
      <trkpt lat="42.078012" lon="-2.982235">
        <ele>1115.97</ele>
        <time>2021-03-27T16:38:42Z</time>
      </trkpt>
      <trkpt lat="42.078263" lon="-2.982102">
        <ele>1112.52</ele>
        <time>2021-03-27T16:38:43Z</time>
      </trkpt>
      <trkpt lat="42.078336" lon="-2.982083">
        <ele>1111.96</ele>
        <time>2021-03-27T16:38:45Z</time>
      </trkpt>
      <trkpt lat="42.078438" lon="-2.982096">
        <ele>1110.65</ele>
        <time>2021-03-27T16:38:46Z</time>
      </trkpt>
      <trkpt lat="42.078506" lon="-2.982132">
        <ele>1110.8</ele>
        <time>2021-03-27T16:38:48Z</time>
      </trkpt>
      <trkpt lat="42.078745" lon="-2.982341">
        <ele>1112.47</ele>
        <time>2021-03-27T16:38:49Z</time>
      </trkpt>
      <trkpt lat="42.078832" lon="-2.982391">
        <ele>1111.9</ele>
        <time>2021-03-27T16:38:51Z</time>
      </trkpt>
      <trkpt lat="42.079006" lon="-2.982429">
        <ele>1112.45</ele>
        <time>2021-03-27T16:38:52Z</time>
      </trkpt>
      <trkpt lat="42.07918" lon="-2.982394">
        <ele>1112.49</ele>
        <time>2021-03-27T16:38:54Z</time>
      </trkpt>
      <trkpt lat="42.079311" lon="-2.982291">
        <ele>1111.58</ele>
        <time>2021-03-27T16:38:55Z</time>
      </trkpt>
      <trkpt lat="42.079391" lon="-2.98216">
        <ele>1109.17</ele>
        <time>2021-03-27T16:38:57Z</time>
      </trkpt>
      <trkpt lat="42.079658" lon="-2.981632">
        <ele>1099.24</ele>
        <time>2021-03-27T16:38:58Z</time>
      </trkpt>
      <trkpt lat="42.079729" lon="-2.981588">
        <ele>1098.53</ele>
        <time>2021-03-27T16:39:00Z</time>
      </trkpt>
      <trkpt lat="42.079783" lon="-2.981583">
        <ele>1097.96</ele>
        <time>2021-03-27T16:39:01Z</time>
      </trkpt>
      <trkpt lat="42.07993" lon="-2.981653">
        <ele>1097.58</ele>
        <time>2021-03-27T16:39:03Z</time>
      </trkpt>
      <trkpt lat="42.080183" lon="-2.981896">
        <ele>1102.08</ele>
        <time>2021-03-27T16:39:04Z</time>
      </trkpt>
      <trkpt lat="42.080267" lon="-2.982041">
        <ele>1103.89</ele>
        <time>2021-03-27T16:39:06Z</time>
      </trkpt>
      <trkpt lat="42.08037" lon="-2.982267">
        <ele>1107.85</ele>
        <time>2021-03-27T16:39:07Z</time>
      </trkpt>
      <trkpt lat="42.080467" lon="-2.982342">
        <ele>1108.55</ele>
        <time>2021-03-27T16:39:09Z</time>
      </trkpt>
      <trkpt lat="42.080519" lon="-2.982347">
        <ele>1108.2</ele>
        <time>2021-03-27T16:39:10Z</time>
      </trkpt>
      <trkpt lat="42.080593" lon="-2.982317">
        <ele>1107.99</ele>
        <time>2021-03-27T16:39:12Z</time>
      </trkpt>
      <trkpt lat="42.080658" lon="-2.982261">
        <ele>1108.07</ele>
        <time>2021-03-27T16:39:13Z</time>
      </trkpt>
      <trkpt lat="42.080807" lon="-2.982025">
        <ele>1106.62</ele>
        <time>2021-03-27T16:39:15Z</time>
      </trkpt>
      <trkpt lat="42.080903" lon="-2.981828">
        <ele>1105.33</ele>
        <time>2021-03-27T16:39:16Z</time>
      </trkpt>
      <trkpt lat="42.081339" lon="-2.980826">
        <ele>1103.1</ele>
        <time>2021-03-27T16:39:18Z</time>
      </trkpt>
      <trkpt lat="42.081667" lon="-2.979977">
        <ele>1097.46</ele>
        <time>2021-03-27T16:39:19Z</time>
      </trkpt>
      <trkpt lat="42.081894" lon="-2.979476">
        <ele>1095.3</ele>
        <time>2021-03-27T16:39:21Z</time>
      </trkpt>
      <trkpt lat="42.081986" lon="-2.979227">
        <ele>1094.21</ele>
        <time>2021-03-27T16:39:22Z</time>
      </trkpt>
      <trkpt lat="42.081986" lon="-2.979227">
        <ele>1094.21</ele>
        <time>2021-03-27T16:39:22Z</time>
      </trkpt>
      <trkpt lat="42.081894" lon="-2.979476">
        <ele>1095.3</ele>
        <time>2021-03-27T16:39:21Z</time>
      </trkpt>
      <trkpt lat="42.081667" lon="-2.979977">
        <ele>1097.46</ele>
        <time>2021-03-27T16:39:19Z</time>
      </trkpt>
      <trkpt lat="42.081339" lon="-2.980826">
        <ele>1103.1</ele>
        <time>2021-03-27T16:39:18Z</time>
      </trkpt>
      <trkpt lat="42.080903" lon="-2.981828">
        <ele>1105.33</ele>
        <time>2021-03-27T16:39:16Z</time>
      </trkpt>
      <trkpt lat="42.080807" lon="-2.982025">
        <ele>1106.62</ele>
        <time>2021-03-27T16:39:15Z</time>
      </trkpt>
      <trkpt lat="42.080658" lon="-2.982261">
        <ele>1108.07</ele>
        <time>2021-03-27T16:39:13Z</time>
      </trkpt>
      <trkpt lat="42.080593" lon="-2.982317">
        <ele>1107.99</ele>
        <time>2021-03-27T16:39:12Z</time>
      </trkpt>
      <trkpt lat="42.080519" lon="-2.982347">
        <ele>1108.2</ele>
        <time>2021-03-27T16:39:10Z</time>
      </trkpt>
      <trkpt lat="42.080467" lon="-2.982342">
        <ele>1108.55</ele>
        <time>2021-03-27T16:39:09Z</time>
      </trkpt>
      <trkpt lat="42.08037" lon="-2.982267">
        <ele>1107.85</ele>
        <time>2021-03-27T16:39:07Z</time>
      </trkpt>
      <trkpt lat="42.080267" lon="-2.982041">
        <ele>1103.89</ele>
        <time>2021-03-27T16:39:06Z</time>
      </trkpt>
      <trkpt lat="42.080183" lon="-2.981896">
        <ele>1102.08</ele>
        <time>2021-03-27T16:39:04Z</time>
      </trkpt>
      <trkpt lat="42.07993" lon="-2.981653">
        <ele>1097.58</ele>
        <time>2021-03-27T16:39:03Z</time>
      </trkpt>
      <trkpt lat="42.079783" lon="-2.981583">
        <ele>1097.96</ele>
        <time>2021-03-27T16:39:01Z</time>
      </trkpt>
      <trkpt lat="42.079729" lon="-2.981588">
        <ele>1098.53</ele>
        <time>2021-03-27T16:39:00Z</time>
      </trkpt>
      <trkpt lat="42.079658" lon="-2.981632">
        <ele>1099.24</ele>
        <time>2021-03-27T16:38:58Z</time>
      </trkpt>
      <trkpt lat="42.079391" lon="-2.98216">
        <ele>1109.17</ele>
        <time>2021-03-27T16:38:57Z</time>
      </trkpt>
      <trkpt lat="42.079311" lon="-2.982291">
        <ele>1111.58</ele>
        <time>2021-03-27T16:38:55Z</time>
      </trkpt>
      <trkpt lat="42.07918" lon="-2.982394">
        <ele>1112.49</ele>
        <time>2021-03-27T16:38:54Z</time>
      </trkpt>
      <trkpt lat="42.079006" lon="-2.982429">
        <ele>1112.45</ele>
        <time>2021-03-27T16:38:52Z</time>
      </trkpt>
      <trkpt lat="42.078832" lon="-2.982391">
        <ele>1111.9</ele>
        <time>2021-03-27T16:38:51Z</time>
      </trkpt>
      <trkpt lat="42.078745" lon="-2.982341">
        <ele>1112.47</ele>
        <time>2021-03-27T16:38:49Z</time>
      </trkpt>
      <trkpt lat="42.078506" lon="-2.982132">
        <ele>1110.8</ele>
        <time>2021-03-27T16:38:48Z</time>
      </trkpt>
      <trkpt lat="42.078438" lon="-2.982096">
        <ele>1110.65</ele>
        <time>2021-03-27T16:38:46Z</time>
      </trkpt>
      <trkpt lat="42.078336" lon="-2.982083">
        <ele>1111.96</ele>
        <time>2021-03-27T16:38:45Z</time>
      </trkpt>
      <trkpt lat="42.078263" lon="-2.982102">
        <ele>1112.52</ele>
        <time>2021-03-27T16:38:43Z</time>
      </trkpt>
      <trkpt lat="42.078012" lon="-2.982235">
        <ele>1115.97</ele>
        <time>2021-03-27T16:38:42Z</time>
      </trkpt>
      <trkpt lat="42.077903" lon="-2.982307">
        <ele>1116.91</ele>
        <time>2021-03-27T16:38:40Z</time>
      </trkpt>
      <trkpt lat="42.077672" lon="-2.982507">
        <ele>1120.15</ele>
        <time>2021-03-27T16:38:39Z</time>
      </trkpt>
      <trkpt lat="42.077558" lon="-2.98254">
        <ele>1120.87</ele>
        <time>2021-03-27T16:38:37Z</time>
      </trkpt>
      <trkpt lat="42.077426" lon="-2.982511">
        <ele>1122.62</ele>
        <time>2021-03-27T16:38:36Z</time>
      </trkpt>
      <trkpt lat="42.077065" lon="-2.982302">
        <ele>1126.35</ele>
        <time>2021-03-27T16:38:34Z</time>
      </trkpt>
      <trkpt lat="42.076642" lon="-2.982105">
        <ele>1125.54</ele>
        <time>2021-03-27T16:38:33Z</time>
      </trkpt>
      <trkpt lat="42.076385" lon="-2.982025">
        <ele>1122.28</ele>
        <time>2021-03-27T16:38:31Z</time>
      </trkpt>
      <trkpt lat="42.076297" lon="-2.982016">
        <ele>1120.57</ele>
        <time>2021-03-27T16:38:30Z</time>
      </trkpt>
      <trkpt lat="42.076146" lon="-2.982055">
        <ele>1119.51</ele>
        <time>2021-03-27T16:38:28Z</time>
      </trkpt>
      <trkpt lat="42.075992" lon="-2.982142">
        <ele>1120.53</ele>
        <time>2021-03-27T16:38:27Z</time>
      </trkpt>
      <trkpt lat="42.075684" lon="-2.982361">
        <ele>1127.56</ele>
        <time>2021-03-27T16:38:25Z</time>
      </trkpt>
      <trkpt lat="42.07555" lon="-2.982418">
        <ele>1130.68</ele>
        <time>2021-03-27T16:38:24Z</time>
      </trkpt>
      <trkpt lat="42.075481" lon="-2.982423">
        <ele>1133.5</ele>
        <time>2021-03-27T16:38:23Z</time>
      </trkpt>
      <trkpt lat="42.0748" lon="-2.982152">
        <ele>1137.04</ele>
        <time>2021-03-27T16:38:21Z</time>
      </trkpt>
      <trkpt lat="42.073477" lon="-2.981732">
        <ele>1145.29</ele>
        <time>2021-03-27T16:38:20Z</time>
      </trkpt>
      <trkpt lat="42.073254" lon="-2.981665">
        <ele>1143.96</ele>
        <time>2021-03-27T16:38:18Z</time>
      </trkpt>
      <trkpt lat="42.073076" lon="-2.981635">
        <ele>1143.17</ele>
        <time>2021-03-27T16:38:17Z</time>
      </trkpt>
      <trkpt lat="42.072943" lon="-2.981665">
        <ele>1141.94</ele>
        <time>2021-03-27T16:38:15Z</time>
      </trkpt>
      <trkpt lat="42.072879" lon="-2.981734">
        <ele>1141.08</ele>
        <time>2021-03-27T16:38:14Z</time>
      </trkpt>
      <trkpt lat="42.07285" lon="-2.98182">
        <ele>1140.74</ele>
        <time>2021-03-27T16:38:12Z</time>
      </trkpt>
      <trkpt lat="42.072865" lon="-2.981954">
        <ele>1141.47</ele>
        <time>2021-03-27T16:38:11Z</time>
      </trkpt>
      <trkpt lat="42.072981" lon="-2.982389">
        <ele>1148.74</ele>
        <time>2021-03-27T16:38:09Z</time>
      </trkpt>
      <trkpt lat="42.07299" lon="-2.982506">
        <ele>1151.19</ele>
        <time>2021-03-27T16:38:08Z</time>
      </trkpt>
      <trkpt lat="42.072961" lon="-2.982738">
        <ele>1155.49</ele>
        <time>2021-03-27T16:38:06Z</time>
      </trkpt>
      <trkpt lat="42.072918" lon="-2.982869">
        <ele>1155.91</ele>
        <time>2021-03-27T16:38:05Z</time>
      </trkpt>
      <trkpt lat="42.072847" lon="-2.983004">
        <ele>1154.85</ele>
        <time>2021-03-27T16:38:03Z</time>
      </trkpt>
      <trkpt lat="42.07266" lon="-2.983241">
        <ele>1151.62</ele>
        <time>2021-03-27T16:38:02Z</time>
      </trkpt>
      <trkpt lat="42.072434" lon="-2.983461">
        <ele>1152.61</ele>
        <time>2021-03-27T16:38:00Z</time>
      </trkpt>
      <trkpt lat="42.072269" lon="-2.983569">
        <ele>1152.3</ele>
        <time>2021-03-27T16:37:59Z</time>
      </trkpt>
      <trkpt lat="42.07203" lon="-2.983648">
        <ele>1151.93</ele>
        <time>2021-03-27T16:37:57Z</time>
      </trkpt>
      <trkpt lat="42.071919" lon="-2.983671">
        <ele>1151.56</ele>
        <time>2021-03-27T16:37:56Z</time>
      </trkpt>
      <trkpt lat="42.071802" lon="-2.98367">
        <ele>1150.69</ele>
        <time>2021-03-27T16:37:54Z</time>
      </trkpt>
      <trkpt lat="42.071704" lon="-2.983649">
        <ele>1149.1</ele>
        <time>2021-03-27T16:37:53Z</time>
      </trkpt>
      <trkpt lat="42.071318" lon="-2.98349">
        <ele>1143.3</ele>
        <time>2021-03-27T16:37:51Z</time>
      </trkpt>
      <trkpt lat="42.071193" lon="-2.983487">
        <ele>1143.11</ele>
        <time>2021-03-27T16:37:50Z</time>
      </trkpt>
      <trkpt lat="42.070983" lon="-2.983546">
        <ele>1145.06</ele>
        <time>2021-03-27T16:37:48Z</time>
      </trkpt>
      <trkpt lat="42.070817" lon="-2.983644">
        <ele>1148.24</ele>
        <time>2021-03-27T16:37:47Z</time>
      </trkpt>
      <trkpt lat="42.0707" lon="-2.983666">
        <ele>1149.44</ele>
        <time>2021-03-27T16:37:45Z</time>
      </trkpt>
      <trkpt lat="42.070592" lon="-2.98362">
        <ele>1148.2</ele>
        <time>2021-03-27T16:37:44Z</time>
      </trkpt>
      <trkpt lat="42.070418" lon="-2.983451">
        <ele>1140.59</ele>
        <time>2021-03-27T16:37:42Z</time>
      </trkpt>
      <trkpt lat="42.070354" lon="-2.98342">
        <ele>1138.72</ele>
        <time>2021-03-27T16:37:41Z</time>
      </trkpt>
      <trkpt lat="42.070208" lon="-2.983415">
        <ele>1136.29</ele>
        <time>2021-03-27T16:37:39Z</time>
      </trkpt>
      <trkpt lat="42.070138" lon="-2.983439">
        <ele>1135.58</ele>
        <time>2021-03-27T16:37:38Z</time>
      </trkpt>
      <trkpt lat="42.070047" lon="-2.983504">
        <ele>1135.09</ele>
        <time>2021-03-27T16:37:36Z</time>
      </trkpt>
      <trkpt lat="42.069523" lon="-2.984001">
        <ele>1145.26</ele>
        <time>2021-03-27T16:37:35Z</time>
      </trkpt>
      <trkpt lat="42.069064" lon="-2.984351">
        <ele>1150.95</ele>
        <time>2021-03-27T16:37:33Z</time>
      </trkpt>
      <trkpt lat="42.068934" lon="-2.984432">
        <ele>1150.72</ele>
        <time>2021-03-27T16:37:32Z</time>
      </trkpt>
      <trkpt lat="42.068731" lon="-2.984469">
        <ele>1150.76</ele>
        <time>2021-03-27T16:37:30Z</time>
      </trkpt>
      <trkpt lat="42.068641" lon="-2.984459">
        <ele>1149.94</ele>
        <time>2021-03-27T16:37:29Z</time>
      </trkpt>
      <trkpt lat="42.068515" lon="-2.984412">
        <ele>1148.67</ele>
        <time>2021-03-27T16:37:27Z</time>
      </trkpt>
      <trkpt lat="42.067857" lon="-2.984082">
        <ele>1137.57</ele>
        <time>2021-03-27T16:37:26Z</time>
      </trkpt>
      <trkpt lat="42.067707" lon="-2.984087">
        <ele>1137.14</ele>
        <time>2021-03-27T16:37:24Z</time>
      </trkpt>
      <trkpt lat="42.067619" lon="-2.984169">
        <ele>1137.89</ele>
        <time>2021-03-27T16:37:23Z</time>
      </trkpt>
      <trkpt lat="42.06755" lon="-2.984281">
        <ele>1138.89</ele>
        <time>2021-03-27T16:37:21Z</time>
      </trkpt>
      <trkpt lat="42.067461" lon="-2.984442">
        <ele>1139.57</ele>
        <time>2021-03-27T16:37:20Z</time>
      </trkpt>
      <trkpt lat="42.067294" lon="-2.984838">
        <ele>1141.39</ele>
        <time>2021-03-27T16:37:18Z</time>
      </trkpt>
      <trkpt lat="42.067096" lon="-2.985484">
        <ele>1139.45</ele>
        <time>2021-03-27T16:37:17Z</time>
      </trkpt>
      <trkpt lat="42.067027" lon="-2.985773">
        <ele>1140.31</ele>
        <time>2021-03-27T16:37:15Z</time>
      </trkpt>
      <trkpt lat="42.066963" lon="-2.986177">
        <ele>1144.97</ele>
        <time>2021-03-27T16:37:14Z</time>
      </trkpt>
      <trkpt lat="42.066888" lon="-2.986516">
        <ele>1147.2</ele>
        <time>2021-03-27T16:37:13Z</time>
      </trkpt>
      <trkpt lat="42.066842" lon="-2.986633">
        <ele>1146.49</ele>
        <time>2021-03-27T16:37:11Z</time>
      </trkpt>
      <trkpt lat="42.066671" lon="-2.986953">
        <ele>1142.22</ele>
        <time>2021-03-27T16:37:10Z</time>
      </trkpt>
      <trkpt lat="42.066544" lon="-2.987139">
        <ele>1140.31</ele>
        <time>2021-03-27T16:37:08Z</time>
      </trkpt>
      <trkpt lat="42.066246" lon="-2.987492">
        <ele>1141.8</ele>
        <time>2021-03-27T16:37:07Z</time>
      </trkpt>
      <trkpt lat="42.066093" lon="-2.98765">
        <ele>1147.94</ele>
        <time>2021-03-27T16:37:05Z</time>
      </trkpt>
      <trkpt lat="42.066016" lon="-2.987691">
        <ele>1151.31</ele>
        <time>2021-03-27T16:37:04Z</time>
      </trkpt>
      <trkpt lat="42.065942" lon="-2.987698">
        <ele>1152.93</ele>
        <time>2021-03-27T16:37:02Z</time>
      </trkpt>
      <trkpt lat="42.065759" lon="-2.987615">
        <ele>1153.36</ele>
        <time>2021-03-27T16:37:01Z</time>
      </trkpt>
      <trkpt lat="42.064997" lon="-2.987011">
        <ele>1148.21</ele>
        <time>2021-03-27T16:36:59Z</time>
      </trkpt>
      <trkpt lat="42.064906" lon="-2.986981">
        <ele>1147.95</ele>
        <time>2021-03-27T16:36:58Z</time>
      </trkpt>
      <trkpt lat="42.064838" lon="-2.986985">
        <ele>1148.23</ele>
        <time>2021-03-27T16:36:56Z</time>
      </trkpt>
      <trkpt lat="42.064776" lon="-2.987017">
        <ele>1148.9</ele>
        <time>2021-03-27T16:36:55Z</time>
      </trkpt>
      <trkpt lat="42.064719" lon="-2.987079">
        <ele>1149.94</ele>
        <time>2021-03-27T16:36:53Z</time>
      </trkpt>
      <trkpt lat="42.064504" lon="-2.987477">
        <ele>1156.2</ele>
        <time>2021-03-27T16:36:52Z</time>
      </trkpt>
      <trkpt lat="42.064227" lon="-2.987892">
        <ele>1158.28</ele>
        <time>2021-03-27T16:36:50Z</time>
      </trkpt>
      <trkpt lat="42.063815" lon="-2.988654">
        <ele>1161.38</ele>
        <time>2021-03-27T16:36:49Z</time>
      </trkpt>
      <trkpt lat="42.063663" lon="-2.988839">
        <ele>1160.7</ele>
        <time>2021-03-27T16:36:47Z</time>
      </trkpt>
      <trkpt lat="42.063416" lon="-2.989064">
        <ele>1160.97</ele>
        <time>2021-03-27T16:36:46Z</time>
      </trkpt>
      <trkpt lat="42.063352" lon="-2.989157">
        <ele>1161.27</ele>
        <time>2021-03-27T16:36:44Z</time>
      </trkpt>
      <trkpt lat="42.063253" lon="-2.989372">
        <ele>1160.78</ele>
        <time>2021-03-27T16:36:43Z</time>
      </trkpt>
      <trkpt lat="42.063211" lon="-2.989516">
        <ele>1160.31</ele>
        <time>2021-03-27T16:36:41Z</time>
      </trkpt>
      <trkpt lat="42.063058" lon="-2.990372">
        <ele>1158.15</ele>
        <time>2021-03-27T16:36:40Z</time>
      </trkpt>
      <trkpt lat="42.062967" lon="-2.990605">
        <ele>1158.81</ele>
        <time>2021-03-27T16:36:38Z</time>
      </trkpt>
      <trkpt lat="42.062848" lon="-2.990715">
        <ele>1157.83</ele>
        <time>2021-03-27T16:36:37Z</time>
      </trkpt>
      <trkpt lat="42.062724" lon="-2.990725">
        <ele>1156.34</ele>
        <time>2021-03-27T16:36:35Z</time>
      </trkpt>
      <trkpt lat="42.06206" lon="-2.990505">
        <ele>1160.56</ele>
        <time>2021-03-27T16:36:34Z</time>
      </trkpt>
      <trkpt lat="42.06196" lon="-2.990506">
        <ele>1160.23</ele>
        <time>2021-03-27T16:36:32Z</time>
      </trkpt>
      <trkpt lat="42.061909" lon="-2.990538">
        <ele>1160.42</ele>
        <time>2021-03-27T16:36:31Z</time>
      </trkpt>
      <trkpt lat="42.061855" lon="-2.990608">
        <ele>1160.52</ele>
        <time>2021-03-27T16:36:29Z</time>
      </trkpt>
      <trkpt lat="42.061841" lon="-2.990667">
        <ele>1160.21</ele>
        <time>2021-03-27T16:36:28Z</time>
      </trkpt>
      <trkpt lat="42.061844" lon="-2.990897">
        <ele>1158.21</ele>
        <time>2021-03-27T16:36:26Z</time>
      </trkpt>
      <trkpt lat="42.061832" lon="-2.990978">
        <ele>1157.66</ele>
        <time>2021-03-27T16:36:25Z</time>
      </trkpt>
      <trkpt lat="42.061802" lon="-2.991042">
        <ele>1157.69</ele>
        <time>2021-03-27T16:36:23Z</time>
      </trkpt>
      <trkpt lat="42.061755" lon="-2.991077">
        <ele>1158.36</ele>
        <time>2021-03-27T16:36:22Z</time>
      </trkpt>
      <trkpt lat="42.061693" lon="-2.991093">
        <ele>1159.56</ele>
        <time>2021-03-27T16:36:20Z</time>
      </trkpt>
      <trkpt lat="42.061524" lon="-2.991099">
        <ele>1162.14</ele>
        <time>2021-03-27T16:36:19Z</time>
      </trkpt>
      <trkpt lat="42.061477" lon="-2.991117">
        <ele>1162.76</ele>
        <time>2021-03-27T16:36:17Z</time>
      </trkpt>
      <trkpt lat="42.061443" lon="-2.991158">
        <ele>1163.5</ele>
        <time>2021-03-27T16:36:16Z</time>
      </trkpt>
      <trkpt lat="42.061429" lon="-2.991233">
        <ele>1164.17</ele>
        <time>2021-03-27T16:36:14Z</time>
      </trkpt>
      <trkpt lat="42.061454" lon="-2.991356">
        <ele>1164.41</ele>
        <time>2021-03-27T16:36:13Z</time>
      </trkpt>
      <trkpt lat="42.061494" lon="-2.991407">
        <ele>1164.06</ele>
        <time>2021-03-27T16:36:11Z</time>
      </trkpt>
      <trkpt lat="42.061832" lon="-2.991685">
        <ele>1161.11</ele>
        <time>2021-03-27T16:36:10Z</time>
      </trkpt>
      <trkpt lat="42.061877" lon="-2.991742">
        <ele>1160.72</ele>
        <time>2021-03-27T16:36:08Z</time>
      </trkpt>
      <trkpt lat="42.061901" lon="-2.99181">
        <ele>1160.89</ele>
        <time>2021-03-27T16:36:07Z</time>
      </trkpt>
      <trkpt lat="42.061996" lon="-2.992876">
        <ele>1167.04</ele>
        <time>2021-03-27T16:36:06Z</time>
      </trkpt>
      <trkpt lat="42.061971" lon="-2.993015">
        <ele>1167.37</ele>
        <time>2021-03-27T16:36:04Z</time>
      </trkpt>
      <trkpt lat="42.06192" lon="-2.993077">
        <ele>1168.24</ele>
        <time>2021-03-27T16:36:03Z</time>
      </trkpt>
      <trkpt lat="42.061741" lon="-2.99318">
        <ele>1169.16</ele>
        <time>2021-03-27T16:36:01Z</time>
      </trkpt>
      <trkpt lat="42.061093" lon="-2.99343">
        <ele>1171.45</ele>
        <time>2021-03-27T16:36:00Z</time>
      </trkpt>
      <trkpt lat="42.061002" lon="-2.993451">
        <ele>1172.11</ele>
        <time>2021-03-27T16:35:58Z</time>
      </trkpt>
      <trkpt lat="42.060764" lon="-2.993457">
        <ele>1174.03</ele>
        <time>2021-03-27T16:35:57Z</time>
      </trkpt>
      <trkpt lat="42.060621" lon="-2.993428">
        <ele>1174.94</ele>
        <time>2021-03-27T16:35:55Z</time>
      </trkpt>
      <trkpt lat="42.060332" lon="-2.993286">
        <ele>1174.69</ele>
        <time>2021-03-27T16:35:54Z</time>
      </trkpt>
      <trkpt lat="42.060189" lon="-2.993249">
        <ele>1175.79</ele>
        <time>2021-03-27T16:35:52Z</time>
      </trkpt>
      <trkpt lat="42.059995" lon="-2.993287">
        <ele>1179.33</ele>
        <time>2021-03-27T16:35:51Z</time>
      </trkpt>
      <trkpt lat="42.059826" lon="-2.99339">
        <ele>1180.28</ele>
        <time>2021-03-27T16:35:49Z</time>
      </trkpt>
      <trkpt lat="42.05976" lon="-2.993477">
        <ele>1180.59</ele>
        <time>2021-03-27T16:35:48Z</time>
      </trkpt>
      <trkpt lat="42.0597" lon="-2.993593">
        <ele>1180.85</ele>
        <time>2021-03-27T16:35:46Z</time>
      </trkpt>
      <trkpt lat="42.059596" lon="-2.993981">
        <ele>1180.97</ele>
        <time>2021-03-27T16:35:45Z</time>
      </trkpt>
      <trkpt lat="42.059471" lon="-2.994256">
        <ele>1181.16</ele>
        <time>2021-03-27T16:35:43Z</time>
      </trkpt>
      <trkpt lat="42.058957" lon="-2.995588">
        <ele>1185.08</ele>
        <time>2021-03-27T16:35:42Z</time>
      </trkpt>
      <trkpt lat="42.058779" lon="-2.996483">
        <ele>1191.76</ele>
        <time>2021-03-27T16:35:40Z</time>
      </trkpt>
      <trkpt lat="42.058694" lon="-2.996763">
        <ele>1191.44</ele>
        <time>2021-03-27T16:35:39Z</time>
      </trkpt>
      <trkpt lat="42.058638" lon="-2.99755">
        <ele>1192.66</ele>
        <time>2021-03-27T16:35:37Z</time>
      </trkpt>
      <trkpt lat="42.058379" lon="-2.999221">
        <ele>1202.02</ele>
        <time>2021-03-27T16:35:36Z</time>
      </trkpt>
      <trkpt lat="42.058202" lon="-3.000107">
        <ele>1205.84</ele>
        <time>2021-03-27T16:35:34Z</time>
      </trkpt>
      <trkpt lat="42.05815" lon="-3.000576">
        <ele>1207.97</ele>
        <time>2021-03-27T16:35:33Z</time>
      </trkpt>
      <trkpt lat="42.05814" lon="-3.000746">
        <ele>1207.13</ele>
        <time>2021-03-27T16:35:31Z</time>
      </trkpt>
      <trkpt lat="42.05815" lon="-3.001015">
        <ele>1206.39</ele>
        <time>2021-03-27T16:35:30Z</time>
      </trkpt>
      <trkpt lat="42.058323" lon="-3.002042">
        <ele>1216.41</ele>
        <time>2021-03-27T16:35:28Z</time>
      </trkpt>
      <trkpt lat="42.058355" lon="-3.0024">
        <ele>1218.5</ele>
        <time>2021-03-27T16:35:27Z</time>
      </trkpt>
      <trkpt lat="42.058338" lon="-3.00329">
        <ele>1219.94</ele>
        <time>2021-03-27T16:35:25Z</time>
      </trkpt>
      <trkpt lat="42.05829" lon="-3.003815">
        <ele>1221.44</ele>
        <time>2021-03-27T16:35:24Z</time>
      </trkpt>
      <trkpt lat="42.058245" lon="-3.004062">
        <ele>1221.91</ele>
        <time>2021-03-27T16:35:22Z</time>
      </trkpt>
      <trkpt lat="42.058135" lon="-3.004403">
        <ele>1222.8</ele>
        <time>2021-03-27T16:35:21Z</time>
      </trkpt>
      <trkpt lat="42.057657" lon="-3.005397">
        <ele>1228.16</ele>
        <time>2021-03-27T16:35:19Z</time>
      </trkpt>
      <trkpt lat="42.057434" lon="-3.005818">
        <ele>1232.76</ele>
        <time>2021-03-27T16:35:18Z</time>
      </trkpt>
      <trkpt lat="42.057141" lon="-3.006244">
        <ele>1236.51</ele>
        <time>2021-03-27T16:35:16Z</time>
      </trkpt>
      <trkpt lat="42.056988" lon="-3.006545">
        <ele>1238.78</ele>
        <time>2021-03-27T16:35:15Z</time>
      </trkpt>
      <trkpt lat="42.056585" lon="-3.007557">
        <ele>1242.32</ele>
        <time>2021-03-27T16:35:13Z</time>
      </trkpt>
      <trkpt lat="42.05648" lon="-3.007921">
        <ele>1242.99</ele>
        <time>2021-03-27T16:35:12Z</time>
      </trkpt>
      <trkpt lat="42.056458" lon="-3.008185">
        <ele>1243.96</ele>
        <time>2021-03-27T16:35:10Z</time>
      </trkpt>
      <trkpt lat="42.0565" lon="-3.008547">
        <ele>1247.41</ele>
        <time>2021-03-27T16:35:09Z</time>
      </trkpt>
      <trkpt lat="42.056548" lon="-3.00874">
        <ele>1249.73</ele>
        <time>2021-03-27T16:35:07Z</time>
      </trkpt>
      <trkpt lat="42.056788" lon="-3.00932">
        <ele>1253.19</ele>
        <time>2021-03-27T16:35:06Z</time>
      </trkpt>
      <trkpt lat="42.056844" lon="-3.009515">
        <ele>1253.14</ele>
        <time>2021-03-27T16:35:04Z</time>
      </trkpt>
      <trkpt lat="42.056911" lon="-3.009879">
        <ele>1253.13</ele>
        <time>2021-03-27T16:35:03Z</time>
      </trkpt>
      <trkpt lat="42.056939" lon="-3.010154">
        <ele>1254.49</ele>
        <time>2021-03-27T16:35:01Z</time>
      </trkpt>
      <trkpt lat="42.057039" lon="-3.011701">
        <ele>1263.29</ele>
        <time>2021-03-27T16:35:00Z</time>
      </trkpt>
      <trkpt lat="42.057017" lon="-3.011803">
        <ele>1264.78</ele>
        <time>2021-03-27T16:34:59Z</time>
      </trkpt>
      <trkpt lat="42.056981" lon="-3.011876">
        <ele>1266.35</ele>
        <time>2021-03-27T16:34:57Z</time>
      </trkpt>
      <trkpt lat="42.056925" lon="-3.011942">
        <ele>1268.18</ele>
        <time>2021-03-27T16:34:56Z</time>
      </trkpt>
      <trkpt lat="42.056862" lon="-3.011984">
        <ele>1269.47</ele>
        <time>2021-03-27T16:34:54Z</time>
      </trkpt>
      <trkpt lat="42.056767" lon="-3.011988">
        <ele>1270.4</ele>
        <time>2021-03-27T16:34:53Z</time>
      </trkpt>
      <trkpt lat="42.056516" lon="-3.01193">
        <ele>1270.87</ele>
        <time>2021-03-27T16:34:51Z</time>
      </trkpt>
      <trkpt lat="42.056435" lon="-3.011871">
        <ele>1270.43</ele>
        <time>2021-03-27T16:34:50Z</time>
      </trkpt>
      <trkpt lat="42.05615" lon="-3.011566">
        <ele>1270.35</ele>
        <time>2021-03-27T16:34:48Z</time>
      </trkpt>
      <trkpt lat="42.055866" lon="-3.011363">
        <ele>1274.33</ele>
        <time>2021-03-27T16:34:47Z</time>
      </trkpt>
      <trkpt lat="42.055717" lon="-3.011289">
        <ele>1277.24</ele>
        <time>2021-03-27T16:34:45Z</time>
      </trkpt>
      <trkpt lat="42.055499" lon="-3.011223">
        <ele>1280.52</ele>
        <time>2021-03-27T16:34:44Z</time>
      </trkpt>
      <trkpt lat="42.055406" lon="-3.011175">
        <ele>1281.19</ele>
        <time>2021-03-27T16:34:42Z</time>
      </trkpt>
      <trkpt lat="42.055123" lon="-3.010973">
        <ele>1285.79</ele>
        <time>2021-03-27T16:34:41Z</time>
      </trkpt>
      <trkpt lat="42.054975" lon="-3.010789">
        <ele>1288.53</ele>
        <time>2021-03-27T16:34:39Z</time>
      </trkpt>
      <trkpt lat="42.054932" lon="-3.010685">
        <ele>1289.29</ele>
        <time>2021-03-27T16:34:38Z</time>
      </trkpt>
      <trkpt lat="42.05483" lon="-3.010254">
        <ele>1288.21</ele>
        <time>2021-03-27T16:34:36Z</time>
      </trkpt>
      <trkpt lat="42.054781" lon="-3.010141">
        <ele>1287.97</ele>
        <time>2021-03-27T16:34:35Z</time>
      </trkpt>
      <trkpt lat="42.054614" lon="-3.00991">
        <ele>1286.9</ele>
        <time>2021-03-27T16:34:33Z</time>
      </trkpt>
      <trkpt lat="42.054484" lon="-3.009827">
        <ele>1285.59</ele>
        <time>2021-03-27T16:34:32Z</time>
      </trkpt>
      <trkpt lat="42.054397" lon="-3.009819">
        <ele>1285.28</ele>
        <time>2021-03-27T16:34:30Z</time>
      </trkpt>
      <trkpt lat="42.054223" lon="-3.009879">
        <ele>1285.91</ele>
        <time>2021-03-27T16:34:29Z</time>
      </trkpt>
      <trkpt lat="42.054119" lon="-3.00995">
        <ele>1286.58</ele>
        <time>2021-03-27T16:34:27Z</time>
      </trkpt>
      <trkpt lat="42.053963" lon="-3.010098">
        <ele>1287.47</ele>
        <time>2021-03-27T16:34:26Z</time>
      </trkpt>
      <trkpt lat="42.053925" lon="-3.010171">
        <ele>1288.38</ele>
        <time>2021-03-27T16:34:24Z</time>
      </trkpt>
      <trkpt lat="42.053793" lon="-3.010598">
        <ele>1296.74</ele>
        <time>2021-03-27T16:34:23Z</time>
      </trkpt>
      <trkpt lat="42.053593" lon="-3.011024">
        <ele>1302.06</ele>
        <time>2021-03-27T16:34:21Z</time>
      </trkpt>
      <trkpt lat="42.053486" lon="-3.01143">
        <ele>1307.91</ele>
        <time>2021-03-27T16:34:20Z</time>
      </trkpt>
      <trkpt lat="42.053377" lon="-3.011564">
        <ele>1310.62</ele>
        <time>2021-03-27T16:34:18Z</time>
      </trkpt>
      <trkpt lat="42.053206" lon="-3.011666">
        <ele>1313.89</ele>
        <time>2021-03-27T16:34:17Z</time>
      </trkpt>
      <trkpt lat="42.053122" lon="-3.011687">
        <ele>1315.16</ele>
        <time>2021-03-27T16:34:15Z</time>
      </trkpt>
      <trkpt lat="42.052946" lon="-3.011663">
        <ele>1316.86</ele>
        <time>2021-03-27T16:34:12Z</time>
      </trkpt>
      <trkpt lat="42.052642" lon="-3.011495">
        <ele>1320.45</ele>
        <time>2021-03-27T16:34:11Z</time>
      </trkpt>
      <trkpt lat="42.052258" lon="-3.011451">
        <ele>1325.81</ele>
        <time>2021-03-27T16:34:09Z</time>
      </trkpt>
      <trkpt lat="42.052179" lon="-3.011427">
        <ele>1326.15</ele>
        <time>2021-03-27T16:34:08Z</time>
      </trkpt>
      <trkpt lat="42.05195" lon="-3.011271">
        <ele>1325.83</ele>
        <time>2021-03-27T16:34:06Z</time>
      </trkpt>
      <trkpt lat="42.051724" lon="-3.011174">
        <ele>1327.73</ele>
        <time>2021-03-27T16:34:05Z</time>
      </trkpt>
      <trkpt lat="42.051231" lon="-3.011126">
        <ele>1329.37</ele>
        <time>2021-03-27T16:34:03Z</time>
      </trkpt>
      <trkpt lat="42.050603" lon="-3.010993">
        <ele>1331.78</ele>
        <time>2021-03-27T16:34:02Z</time>
      </trkpt>
      <trkpt lat="42.050349" lon="-3.01099">
        <ele>1334.81</ele>
        <time>2021-03-27T16:34:00Z</time>
      </trkpt>
      <trkpt lat="42.050138" lon="-3.011039">
        <ele>1337.86</ele>
        <time>2021-03-27T16:33:59Z</time>
      </trkpt>
      <trkpt lat="42.049907" lon="-3.011157">
        <ele>1341.33</ele>
        <time>2021-03-27T16:33:57Z</time>
      </trkpt>
      <trkpt lat="42.049383" lon="-3.01132">
        <ele>1345.54</ele>
        <time>2021-03-27T16:33:56Z</time>
      </trkpt>
      <trkpt lat="42.049184" lon="-3.011453">
        <ele>1347.43</ele>
        <time>2021-03-27T16:33:54Z</time>
      </trkpt>
      <trkpt lat="42.048908" lon="-3.011571">
        <ele>1349.0</ele>
        <time>2021-03-27T16:33:53Z</time>
      </trkpt>
      <trkpt lat="42.048782" lon="-3.011644">
        <ele>1349.81</ele>
        <time>2021-03-27T16:33:52Z</time>
      </trkpt>
      <trkpt lat="42.048196" lon="-3.012012">
        <ele>1350.84</ele>
        <time>2021-03-27T16:33:50Z</time>
      </trkpt>
      <trkpt lat="42.04809" lon="-3.012049">
        <ele>1351.34</ele>
        <time>2021-03-27T16:33:49Z</time>
      </trkpt>
      <trkpt lat="42.047845" lon="-3.012088">
        <ele>1356.63</ele>
        <time>2021-03-27T16:33:47Z</time>
      </trkpt>
      <trkpt lat="42.047781" lon="-3.01207">
        <ele>1357.65</ele>
        <time>2021-03-27T16:33:46Z</time>
      </trkpt>
      <trkpt lat="42.047733" lon="-3.012034">
        <ele>1359.19</ele>
        <time>2021-03-27T16:33:44Z</time>
      </trkpt>
      <trkpt lat="42.047673" lon="-3.011881">
        <ele>1359.74</ele>
        <time>2021-03-27T16:33:43Z</time>
      </trkpt>
      <trkpt lat="42.047656" lon="-3.011643">
        <ele>1357.36</ele>
        <time>2021-03-27T16:33:41Z</time>
      </trkpt>
      <trkpt lat="42.047605" lon="-3.011351">
        <ele>1356.77</ele>
        <time>2021-03-27T16:33:40Z</time>
      </trkpt>
      <trkpt lat="42.047476" lon="-3.010875">
        <ele>1361.05</ele>
        <time>2021-03-27T16:33:38Z</time>
      </trkpt>
      <trkpt lat="42.047267" lon="-3.010423">
        <ele>1365.74</ele>
        <time>2021-03-27T16:33:37Z</time>
      </trkpt>
      <trkpt lat="42.047154" lon="-3.010321">
        <ele>1367.29</ele>
        <time>2021-03-27T16:33:35Z</time>
      </trkpt>
      <trkpt lat="42.046945" lon="-3.010271">
        <ele>1369.89</ele>
        <time>2021-03-27T16:33:34Z</time>
      </trkpt>
      <trkpt lat="42.046208" lon="-3.010224">
        <ele>1376.23</ele>
        <time>2021-03-27T16:33:32Z</time>
      </trkpt>
      <trkpt lat="42.046059" lon="-3.010243">
        <ele>1374.85</ele>
        <time>2021-03-27T16:33:31Z</time>
      </trkpt>
      <trkpt lat="42.045984" lon="-3.010277">
        <ele>1375.08</ele>
        <time>2021-03-27T16:33:29Z</time>
      </trkpt>
      <trkpt lat="42.045691" lon="-3.010515">
        <ele>1380.24</ele>
        <time>2021-03-27T16:33:28Z</time>
      </trkpt>
      <trkpt lat="42.045239" lon="-3.010795">
        <ele>1386.9</ele>
        <time>2021-03-27T16:33:26Z</time>
      </trkpt>
      <trkpt lat="42.044745" lon="-3.01102">
        <ele>1395.63</ele>
        <time>2021-03-27T16:33:25Z</time>
      </trkpt>
      <trkpt lat="42.044564" lon="-3.011077">
        <ele>1395.89</ele>
        <time>2021-03-27T16:33:23Z</time>
      </trkpt>
      <trkpt lat="42.04441" lon="-3.011059">
        <ele>1395.23</ele>
        <time>2021-03-27T16:33:22Z</time>
      </trkpt>
      <trkpt lat="42.043863" lon="-3.010776">
        <ele>1402.98</ele>
        <time>2021-03-27T16:33:20Z</time>
      </trkpt>
      <trkpt lat="42.043504" lon="-3.010467">
        <ele>1400.38</ele>
        <time>2021-03-27T16:33:19Z</time>
      </trkpt>
      <trkpt lat="42.043301" lon="-3.010338">
        <ele>1403.18</ele>
        <time>2021-03-27T16:33:17Z</time>
      </trkpt>
      <trkpt lat="42.04309" lon="-3.010316">
        <ele>1406.55</ele>
        <time>2021-03-27T16:33:16Z</time>
      </trkpt>
      <trkpt lat="42.042717" lon="-3.010376">
        <ele>1407.49</ele>
        <time>2021-03-27T16:33:14Z</time>
      </trkpt>
      <trkpt lat="42.04258" lon="-3.010335">
        <ele>1406.43</ele>
        <time>2021-03-27T16:45:24Z</time>
      </trkpt>
      <trkpt lat="42.042406" lon="-3.010195">
        <ele>1405.05</ele>
        <time>2021-03-27T16:45:25Z</time>
      </trkpt>
      <trkpt lat="42.042242" lon="-3.009958">
        <ele>1404.23</ele>
        <time>2021-03-27T16:45:27Z</time>
      </trkpt>
      <trkpt lat="42.042074" lon="-3.00966">
        <ele>1400.49</ele>
        <time>2021-03-27T16:45:28Z</time>
      </trkpt>
      <trkpt lat="42.042024" lon="-3.009544">
        <ele>1399.66</ele>
        <time>2021-03-27T16:45:30Z</time>
      </trkpt>
      <trkpt lat="42.041869" lon="-3.008981">
        <ele>1399.34</ele>
        <time>2021-03-27T16:45:31Z</time>
      </trkpt>
      <trkpt lat="42.041726" lon="-3.008581">
        <ele>1399.89</ele>
        <time>2021-03-27T16:45:33Z</time>
      </trkpt>
      <trkpt lat="42.041627" lon="-3.008371">
        <ele>1399.76</ele>
        <time>2021-03-27T16:45:34Z</time>
      </trkpt>
      <trkpt lat="42.041489" lon="-3.008236">
        <ele>1395.82</ele>
        <time>2021-03-27T16:45:36Z</time>
      </trkpt>
      <trkpt lat="42.04122" lon="-3.008118">
        <ele>1390.01</ele>
        <time>2021-03-27T16:45:37Z</time>
      </trkpt>
      <trkpt lat="42.041093" lon="-3.00804">
        <ele>1390.4</ele>
        <time>2021-03-27T16:45:39Z</time>
      </trkpt>
      <trkpt lat="42.040781" lon="-3.007773">
        <ele>1395.22</ele>
        <time>2021-03-27T16:45:40Z</time>
      </trkpt>
      <trkpt lat="42.040652" lon="-3.007626">
        <ele>1393.04</ele>
        <time>2021-03-27T16:45:42Z</time>
      </trkpt>
      <trkpt lat="42.040403" lon="-3.007267">
        <ele>1390.69</ele>
        <time>2021-03-27T16:45:43Z</time>
      </trkpt>
      <trkpt lat="42.040147" lon="-3.007073">
        <ele>1385.36</ele>
        <time>2021-03-27T16:45:44Z</time>
      </trkpt>
      <trkpt lat="42.040041" lon="-3.006947">
        <ele>1382.07</ele>
        <time>2021-03-27T16:45:46Z</time>
      </trkpt>
      <trkpt lat="42.040013" lon="-3.006861">
        <ele>1380.71</ele>
        <time>2021-03-27T16:45:47Z</time>
      </trkpt>
      <trkpt lat="42.040011" lon="-3.006472">
        <ele>1377.18</ele>
        <time>2021-03-27T16:45:49Z</time>
      </trkpt>
      <trkpt lat="42.039974" lon="-3.006329">
        <ele>1375.54</ele>
        <time>2021-03-27T16:45:50Z</time>
      </trkpt>
      <trkpt lat="42.039936" lon="-3.006256">
        <ele>1374.84</ele>
        <time>2021-03-27T16:45:52Z</time>
      </trkpt>
      <trkpt lat="42.039805" lon="-3.006111">
        <ele>1372.49</ele>
        <time>2021-03-27T16:45:53Z</time>
      </trkpt>
      <trkpt lat="42.039685" lon="-3.006018">
        <ele>1370.27</ele>
        <time>2021-03-27T16:45:55Z</time>
      </trkpt>
      <trkpt lat="42.039074" lon="-3.005603">
        <ele>1359.15</ele>
        <time>2021-03-27T16:45:56Z</time>
      </trkpt>
      <trkpt lat="42.038955" lon="-3.005493">
        <ele>1357.35</ele>
        <time>2021-03-27T16:45:58Z</time>
      </trkpt>
      <trkpt lat="42.038925" lon="-3.005442">
        <ele>1357.34</ele>
        <time>2021-03-27T16:45:59Z</time>
      </trkpt>
      <trkpt lat="42.038899" lon="-3.005309">
        <ele>1358.68</ele>
        <time>2021-03-27T16:46:01Z</time>
      </trkpt>
      <trkpt lat="42.038929" lon="-3.005135">
        <ele>1359.28</ele>
        <time>2021-03-27T16:46:02Z</time>
      </trkpt>
      <trkpt lat="42.039031" lon="-3.004927">
        <ele>1359.12</ele>
        <time>2021-03-27T16:46:03Z</time>
      </trkpt>
      <trkpt lat="42.039091" lon="-3.004856">
        <ele>1359.07</ele>
        <time>2021-03-27T16:46:05Z</time>
      </trkpt>
      <trkpt lat="42.039318" lon="-3.004678">
        <ele>1363.11</ele>
        <time>2021-03-27T16:46:06Z</time>
      </trkpt>
      <trkpt lat="42.039367" lon="-3.004605">
        <ele>1364.06</ele>
        <time>2021-03-27T16:46:08Z</time>
      </trkpt>
      <trkpt lat="42.039394" lon="-3.004515">
        <ele>1364.19</ele>
        <time>2021-03-27T16:46:09Z</time>
      </trkpt>
      <trkpt lat="42.039392" lon="-3.004465">
        <ele>1363.8</ele>
        <time>2021-03-27T16:46:11Z</time>
      </trkpt>
      <trkpt lat="42.039346" lon="-3.00437">
        <ele>1363.07</ele>
        <time>2021-03-27T16:46:12Z</time>
      </trkpt>
      <trkpt lat="42.039272" lon="-3.004321">
        <ele>1361.54</ele>
        <time>2021-03-27T16:46:14Z</time>
      </trkpt>
      <trkpt lat="42.039027" lon="-3.004284">
        <ele>1357.85</ele>
        <time>2021-03-27T16:46:15Z</time>
      </trkpt>
      <trkpt lat="42.03868" lon="-3.00426">
        <ele>1356.92</ele>
        <time>2021-03-27T16:46:17Z</time>
      </trkpt>
      <trkpt lat="42.038476" lon="-3.004266">
        <ele>1358.56</ele>
        <time>2021-03-27T16:46:18Z</time>
      </trkpt>
      <trkpt lat="42.038376" lon="-3.004293">
        <ele>1359.31</ele>
        <time>2021-03-27T16:46:20Z</time>
      </trkpt>
      <trkpt lat="42.038212" lon="-3.004382">
        <ele>1358.03</ele>
        <time>2021-03-27T16:46:21Z</time>
      </trkpt>
      <trkpt lat="42.03782" lon="-3.004793">
        <ele>1347.83</ele>
        <time>2021-03-27T16:46:23Z</time>
      </trkpt>
      <trkpt lat="42.037646" lon="-3.004935">
        <ele>1345.77</ele>
        <time>2021-03-27T16:46:24Z</time>
      </trkpt>
      <trkpt lat="42.037581" lon="-3.00497">
        <ele>1345.35</ele>
        <time>2021-03-27T16:46:25Z</time>
      </trkpt>
      <trkpt lat="42.03746" lon="-3.004987">
        <ele>1344.57</ele>
        <time>2021-03-27T16:46:27Z</time>
      </trkpt>
      <trkpt lat="42.037323" lon="-3.004955">
        <ele>1343.2</ele>
        <time>2021-03-27T16:46:28Z</time>
      </trkpt>
      <trkpt lat="42.036867" lon="-3.004737">
        <ele>1340.64</ele>
        <time>2021-03-27T16:46:30Z</time>
      </trkpt>
      <trkpt lat="42.036642" lon="-3.004659">
        <ele>1336.89</ele>
        <time>2021-03-27T16:46:31Z</time>
      </trkpt>
      <trkpt lat="42.036368" lon="-3.004608">
        <ele>1333.61</ele>
        <time>2021-03-27T16:46:33Z</time>
      </trkpt>
      <trkpt lat="42.036037" lon="-3.004595">
        <ele>1332.5</ele>
        <time>2021-03-27T16:46:34Z</time>
      </trkpt>
      <trkpt lat="42.035935" lon="-3.004613">
        <ele>1333.89</ele>
        <time>2021-03-27T16:46:36Z</time>
      </trkpt>
      <trkpt lat="42.035813" lon="-3.004663">
        <ele>1335.0</ele>
        <time>2021-03-27T16:46:37Z</time>
      </trkpt>
      <trkpt lat="42.03574" lon="-3.004706">
        <ele>1334.9</ele>
        <time>2021-03-27T16:46:39Z</time>
      </trkpt>
      <trkpt lat="42.035643" lon="-3.004813">
        <ele>1334.39</ele>
        <time>2021-03-27T16:46:40Z</time>
      </trkpt>
      <trkpt lat="42.035587" lon="-3.00495">
        <ele>1333.31</ele>
        <time>2021-03-27T16:46:42Z</time>
      </trkpt>
      <trkpt lat="42.035518" lon="-3.005323">
        <ele>1327.88</ele>
        <time>2021-03-27T16:46:43Z</time>
      </trkpt>
      <trkpt lat="42.0354" lon="-3.005483">
        <ele>1327.27</ele>
        <time>2021-03-27T16:46:45Z</time>
      </trkpt>
      <trkpt lat="42.035329" lon="-3.005534">
        <ele>1327.58</ele>
        <time>2021-03-27T16:46:46Z</time>
      </trkpt>
      <trkpt lat="42.035076" lon="-3.005651">
        <ele>1325.52</ele>
        <time>2021-03-27T16:46:47Z</time>
      </trkpt>
      <trkpt lat="42.03495" lon="-3.005775">
        <ele>1323.6</ele>
        <time>2021-03-27T16:46:49Z</time>
      </trkpt>
      <trkpt lat="42.034829" lon="-3.005941">
        <ele>1320.75</ele>
        <time>2021-03-27T16:46:50Z</time>
      </trkpt>
      <trkpt lat="42.034684" lon="-3.006043">
        <ele>1318.47</ele>
        <time>2021-03-27T16:46:52Z</time>
      </trkpt>
      <trkpt lat="42.034603" lon="-3.006065">
        <ele>1318.47</ele>
        <time>2021-03-27T16:46:53Z</time>
      </trkpt>
      <trkpt lat="42.03436" lon="-3.006081">
        <ele>1320.07</ele>
        <time>2021-03-27T16:46:55Z</time>
      </trkpt>
      <trkpt lat="42.034274" lon="-3.006109">
        <ele>1320.49</ele>
        <time>2021-03-27T16:46:56Z</time>
      </trkpt>
      <trkpt lat="42.034088" lon="-3.006248">
        <ele>1319.68</ele>
        <time>2021-03-27T16:46:58Z</time>
      </trkpt>
      <trkpt lat="42.033918" lon="-3.006317">
        <ele>1319.96</ele>
        <time>2021-03-27T16:46:59Z</time>
      </trkpt>
      <trkpt lat="42.033591" lon="-3.006357">
        <ele>1319.86</ele>
        <time>2021-03-27T16:47:01Z</time>
      </trkpt>
      <trkpt lat="42.033373" lon="-3.006361">
        <ele>1319.03</ele>
        <time>2021-03-27T16:47:02Z</time>
      </trkpt>
      <trkpt lat="42.032367" lon="-3.006204">
        <ele>1308.39</ele>
        <time>2021-03-27T16:47:04Z</time>
      </trkpt>
      <trkpt lat="42.032108" lon="-3.006083">
        <ele>1306.4</ele>
        <time>2021-03-27T16:47:05Z</time>
      </trkpt>
      <trkpt lat="42.031927" lon="-3.005967">
        <ele>1305.33</ele>
        <time>2021-03-27T16:47:06Z</time>
      </trkpt>
      <trkpt lat="42.031638" lon="-3.005688">
        <ele>1307.05</ele>
        <time>2021-03-27T16:47:08Z</time>
      </trkpt>
      <trkpt lat="42.03151" lon="-3.005671">
        <ele>1307.12</ele>
        <time>2021-03-27T16:47:09Z</time>
      </trkpt>
      <trkpt lat="42.03146" lon="-3.005692">
        <ele>1306.34</ele>
        <time>2021-03-27T16:47:11Z</time>
      </trkpt>
      <trkpt lat="42.031364" lon="-3.005784">
        <ele>1303.65</ele>
        <time>2021-03-27T16:47:12Z</time>
      </trkpt>
      <trkpt lat="42.031325" lon="-3.005877">
        <ele>1302.7</ele>
        <time>2021-03-27T16:47:14Z</time>
      </trkpt>
      <trkpt lat="42.031261" lon="-3.006127">
        <ele>1301.04</ele>
        <time>2021-03-27T16:47:15Z</time>
      </trkpt>
      <trkpt lat="42.031182" lon="-3.006237">
        <ele>1301.29</ele>
        <time>2021-03-27T16:47:17Z</time>
      </trkpt>
      <trkpt lat="42.030924" lon="-3.006422">
        <ele>1302.3</ele>
        <time>2021-03-27T16:47:18Z</time>
      </trkpt>
      <trkpt lat="42.030692" lon="-3.006636">
        <ele>1300.49</ele>
        <time>2021-03-27T16:47:20Z</time>
      </trkpt>
      <trkpt lat="42.030396" lon="-3.006919">
        <ele>1298.81</ele>
        <time>2021-03-27T16:47:21Z</time>
      </trkpt>
      <trkpt lat="42.030204" lon="-3.007153">
        <ele>1298.56</ele>
        <time>2021-03-27T16:47:23Z</time>
      </trkpt>
      <trkpt lat="42.030122" lon="-3.007297">
        <ele>1298.55</ele>
        <time>2021-03-27T16:47:24Z</time>
      </trkpt>
      <trkpt lat="42.029631" lon="-3.008448">
        <ele>1289.42</ele>
        <time>2021-03-27T16:47:26Z</time>
      </trkpt>
      <trkpt lat="42.029462" lon="-3.008785">
        <ele>1288.29</ele>
        <time>2021-03-27T16:47:27Z</time>
      </trkpt>
      <trkpt lat="42.029266" lon="-3.00904">
        <ele>1286.81</ele>
        <time>2021-03-27T16:47:28Z</time>
      </trkpt>
      <trkpt lat="42.029147" lon="-3.009164">
        <ele>1285.87</ele>
        <time>2021-03-27T16:47:30Z</time>
      </trkpt>
      <trkpt lat="42.028663" lon="-3.009578">
        <ele>1282.76</ele>
        <time>2021-03-27T16:47:31Z</time>
      </trkpt>
      <trkpt lat="42.028496" lon="-3.009886">
        <ele>1283.45</ele>
        <time>2021-03-27T16:47:33Z</time>
      </trkpt>
      <trkpt lat="42.028443" lon="-3.009957">
        <ele>1283.15</ele>
        <time>2021-03-27T16:47:34Z</time>
      </trkpt>
      <trkpt lat="42.028362" lon="-3.01003">
        <ele>1282.65</ele>
        <time>2021-03-27T16:47:36Z</time>
      </trkpt>
      <trkpt lat="42.02816" lon="-3.010142">
        <ele>1281.95</ele>
        <time>2021-03-27T16:47:37Z</time>
      </trkpt>
      <trkpt lat="42.028054" lon="-3.010222">
        <ele>1281.0</ele>
        <time>2021-03-27T16:47:39Z</time>
      </trkpt>
      <trkpt lat="42.027703" lon="-3.010594">
        <ele>1280.86</ele>
        <time>2021-03-27T16:47:40Z</time>
      </trkpt>
      <trkpt lat="42.027568" lon="-3.010705">
        <ele>1280.02</ele>
        <time>2021-03-27T16:47:42Z</time>
      </trkpt>
      <trkpt lat="42.027302" lon="-3.010865">
        <ele>1276.01</ele>
        <time>2021-03-27T16:47:43Z</time>
      </trkpt>
      <trkpt lat="42.026704" lon="-3.011143">
        <ele>1274.74</ele>
        <time>2021-03-27T16:47:45Z</time>
      </trkpt>
      <trkpt lat="42.026104" lon="-3.011572">
        <ele>1274.19</ele>
        <time>2021-03-27T16:47:46Z</time>
      </trkpt>
      <trkpt lat="42.025728" lon="-3.011794">
        <ele>1271.26</ele>
        <time>2021-03-27T16:47:48Z</time>
      </trkpt>
      <trkpt lat="42.025634" lon="-3.011872">
        <ele>1270.23</ele>
        <time>2021-03-27T16:47:49Z</time>
      </trkpt>
      <trkpt lat="42.025499" lon="-3.012022">
        <ele>1269.25</ele>
        <time>2021-03-27T16:47:50Z</time>
      </trkpt>
      <trkpt lat="42.025237" lon="-3.012461">
        <ele>1270.45</ele>
        <time>2021-03-27T16:47:52Z</time>
      </trkpt>
      <trkpt lat="42.025087" lon="-3.012682">
        <ele>1271.63</ele>
        <time>2021-03-27T16:47:53Z</time>
      </trkpt>
      <trkpt lat="42.024399" lon="-3.01359">
        <ele>1272.67</ele>
        <time>2021-03-27T16:47:55Z</time>
      </trkpt>
      <trkpt lat="42.024334" lon="-3.013646">
        <ele>1272.45</ele>
        <time>2021-03-27T16:47:56Z</time>
      </trkpt>
      <trkpt lat="42.024263" lon="-3.01367">
        <ele>1272.11</ele>
        <time>2021-03-27T16:47:58Z</time>
      </trkpt>
      <trkpt lat="42.024109" lon="-3.013683">
        <ele>1271.47</ele>
        <time>2021-03-27T16:47:59Z</time>
      </trkpt>
      <trkpt lat="42.023886" lon="-3.013616">
        <ele>1270.12</ele>
        <time>2021-03-27T16:48:01Z</time>
      </trkpt>
      <trkpt lat="42.023541" lon="-3.013573">
        <ele>1273.48</ele>
        <time>2021-03-27T16:48:02Z</time>
      </trkpt>
      <trkpt lat="42.023392" lon="-3.013592">
        <ele>1275.22</ele>
        <time>2021-03-27T16:48:04Z</time>
      </trkpt>
      <trkpt lat="42.023042" lon="-3.013871">
        <ele>1277.66</ele>
        <time>2021-03-27T16:48:05Z</time>
      </trkpt>
      <trkpt lat="42.022827" lon="-3.014004">
        <ele>1277.96</ele>
        <time>2021-03-27T16:48:07Z</time>
      </trkpt>
      <trkpt lat="42.022192" lon="-3.014288">
        <ele>1268.36</ele>
        <time>2021-03-27T16:48:08Z</time>
      </trkpt>
      <trkpt lat="42.021798" lon="-3.014502">
        <ele>1267.56</ele>
        <time>2021-03-27T16:48:09Z</time>
      </trkpt>
      <trkpt lat="42.021286" lon="-3.014982">
        <ele>1266.06</ele>
        <time>2021-03-27T16:48:11Z</time>
      </trkpt>
      <trkpt lat="42.021216" lon="-3.015019">
        <ele>1266.01</ele>
        <time>2021-03-27T16:48:12Z</time>
      </trkpt>
      <trkpt lat="42.020937" lon="-3.015057">
        <ele>1262.49</ele>
        <time>2021-03-27T16:48:14Z</time>
      </trkpt>
      <trkpt lat="42.020864" lon="-3.015096">
        <ele>1261.6</ele>
        <time>2021-03-27T16:48:15Z</time>
      </trkpt>
      <trkpt lat="42.020356" lon="-3.01559">
        <ele>1259.72</ele>
        <time>2021-03-27T16:48:17Z</time>
      </trkpt>
      <trkpt lat="42.020257" lon="-3.015663">
        <ele>1258.27</ele>
        <time>2021-03-27T16:48:18Z</time>
      </trkpt>
      <trkpt lat="42.02007" lon="-3.015753">
        <ele>1254.71</ele>
        <time>2021-03-27T16:48:20Z</time>
      </trkpt>
      <trkpt lat="42.019841" lon="-3.015933">
        <ele>1251.86</ele>
        <time>2021-03-27T16:48:21Z</time>
      </trkpt>
      <trkpt lat="42.019385" lon="-3.016127">
        <ele>1247.46</ele>
        <time>2021-03-27T16:48:23Z</time>
      </trkpt>
      <trkpt lat="42.018971" lon="-3.016196">
        <ele>1242.59</ele>
        <time>2021-03-27T16:48:24Z</time>
      </trkpt>
      <trkpt lat="42.018838" lon="-3.016253">
        <ele>1241.2</ele>
        <time>2021-03-27T16:48:26Z</time>
      </trkpt>
      <trkpt lat="42.018784" lon="-3.016316">
        <ele>1240.69</ele>
        <time>2021-03-27T16:48:27Z</time>
      </trkpt>
      <trkpt lat="42.018729" lon="-3.016436">
        <ele>1240.37</ele>
        <time>2021-03-27T16:48:29Z</time>
      </trkpt>
      <trkpt lat="42.018669" lon="-3.016956">
        <ele>1242.6</ele>
        <time>2021-03-27T16:48:30Z</time>
      </trkpt>
      <trkpt lat="42.018713" lon="-3.017209">
        <ele>1246.68</ele>
        <time>2021-03-27T16:48:31Z</time>
      </trkpt>
      <trkpt lat="42.018712" lon="-3.017285">
        <ele>1247.47</ele>
        <time>2021-03-27T16:48:33Z</time>
      </trkpt>
      <trkpt lat="42.018662" lon="-3.017411">
        <ele>1248.26</ele>
        <time>2021-03-27T16:48:34Z</time>
      </trkpt>
      <trkpt lat="42.018601" lon="-3.017463">
        <ele>1248.97</ele>
        <time>2021-03-27T16:48:36Z</time>
      </trkpt>
      <trkpt lat="42.018482" lon="-3.017476">
        <ele>1250.39</ele>
        <time>2021-03-27T16:48:37Z</time>
      </trkpt>
      <trkpt lat="42.018397" lon="-3.017435">
        <ele>1250.61</ele>
        <time>2021-03-27T16:48:39Z</time>
      </trkpt>
      <trkpt lat="42.018266" lon="-3.017303">
        <ele>1248.68</ele>
        <time>2021-03-27T16:48:40Z</time>
      </trkpt>
      <trkpt lat="42.017937" lon="-3.016935">
        <ele>1247.08</ele>
        <time>2021-03-27T16:48:42Z</time>
      </trkpt>
      <trkpt lat="42.01787" lon="-3.016843">
        <ele>1247.35</ele>
        <time>2021-03-27T16:48:43Z</time>
      </trkpt>
      <trkpt lat="42.017768" lon="-3.016624">
        <ele>1243.74</ele>
        <time>2021-03-27T16:48:45Z</time>
      </trkpt>
      <trkpt lat="42.017715" lon="-3.016563">
        <ele>1242.42</ele>
        <time>2021-03-27T16:48:46Z</time>
      </trkpt>
      <trkpt lat="42.01762" lon="-3.016513">
        <ele>1242.05</ele>
        <time>2021-03-27T16:48:48Z</time>
      </trkpt>
      <trkpt lat="42.017526" lon="-3.016493">
        <ele>1242.66</ele>
        <time>2021-03-27T16:48:49Z</time>
      </trkpt>
      <trkpt lat="42.017441" lon="-3.016499">
        <ele>1242.52</ele>
        <time>2021-03-27T16:48:51Z</time>
      </trkpt>
      <trkpt lat="42.017205" lon="-3.016643">
        <ele>1243.84</ele>
        <time>2021-03-27T16:48:52Z</time>
      </trkpt>
      <trkpt lat="42.016641" lon="-3.017094">
        <ele>1236.23</ele>
        <time>2021-03-27T16:48:53Z</time>
      </trkpt>
      <trkpt lat="42.016057" lon="-3.017712">
        <ele>1233.88</ele>
        <time>2021-03-27T16:48:55Z</time>
      </trkpt>
      <trkpt lat="42.015562" lon="-3.018116">
        <ele>1231.06</ele>
        <time>2021-03-27T16:48:56Z</time>
      </trkpt>
      <trkpt lat="42.015074" lon="-3.018332">
        <ele>1229.77</ele>
        <time>2021-03-27T16:48:58Z</time>
      </trkpt>
      <trkpt lat="42.014678" lon="-3.018382">
        <ele>1229.43</ele>
        <time>2021-03-27T16:48:59Z</time>
      </trkpt>
      <trkpt lat="42.014491" lon="-3.018436">
        <ele>1226.66</ele>
        <time>2021-03-27T16:49:01Z</time>
      </trkpt>
      <trkpt lat="42.014221" lon="-3.018606">
        <ele>1225.89</ele>
        <time>2021-03-27T16:49:02Z</time>
      </trkpt>
      <trkpt lat="42.013594" lon="-3.01886">
        <ele>1224.06</ele>
        <time>2021-03-27T16:49:04Z</time>
      </trkpt>
      <trkpt lat="42.013385" lon="-3.019032">
        <ele>1224.52</ele>
        <time>2021-03-27T16:49:05Z</time>
      </trkpt>
      <trkpt lat="42.013306" lon="-3.019119">
        <ele>1224.57</ele>
        <time>2021-03-27T16:49:07Z</time>
      </trkpt>
      <trkpt lat="42.013231" lon="-3.019265">
        <ele>1225.8</ele>
        <time>2021-03-27T16:49:08Z</time>
      </trkpt>
      <trkpt lat="42.013138" lon="-3.019574">
        <ele>1229.93</ele>
        <time>2021-03-27T16:49:10Z</time>
      </trkpt>
      <trkpt lat="42.013101" lon="-3.019624">
        <ele>1230.35</ele>
        <time>2021-03-27T16:49:11Z</time>
      </trkpt>
      <trkpt lat="42.013049" lon="-3.019656">
        <ele>1230.24</ele>
        <time>2021-03-27T16:49:12Z</time>
      </trkpt>
      <trkpt lat="42.012906" lon="-3.019663">
        <ele>1228.77</ele>
        <time>2021-03-27T16:49:14Z</time>
      </trkpt>
      <trkpt lat="42.012459" lon="-3.019561">
        <ele>1221.92</ele>
        <time>2021-03-27T16:49:15Z</time>
      </trkpt>
      <trkpt lat="42.012011" lon="-3.019587">
        <ele>1220.48</ele>
        <time>2021-03-27T16:49:17Z</time>
      </trkpt>
      <trkpt lat="42.011581" lon="-3.019567">
        <ele>1217.47</ele>
        <time>2021-03-27T16:49:18Z</time>
      </trkpt>
      <trkpt lat="42.011429" lon="-3.019635">
        <ele>1218.09</ele>
        <time>2021-03-27T16:49:20Z</time>
      </trkpt>
      <trkpt lat="42.011309" lon="-3.019718">
        <ele>1219.32</ele>
        <time>2021-03-27T16:49:21Z</time>
      </trkpt>
      <trkpt lat="42.011231" lon="-3.019744">
        <ele>1219.56</ele>
        <time>2021-03-27T16:49:23Z</time>
      </trkpt>
      <trkpt lat="42.011018" lon="-3.019743">
        <ele>1218.01</ele>
        <time>2021-03-27T16:49:24Z</time>
      </trkpt>
      <trkpt lat="42.010831" lon="-3.019772">
        <ele>1217.39</ele>
        <time>2021-03-27T16:49:26Z</time>
      </trkpt>
      <trkpt lat="42.010425" lon="-3.019961">
        <ele>1212.66</ele>
        <time>2021-03-27T16:49:27Z</time>
      </trkpt>
      <trkpt lat="42.01031" lon="-3.020031">
        <ele>1210.25</ele>
        <time>2021-03-27T16:49:29Z</time>
      </trkpt>
      <trkpt lat="42.01005" lon="-3.02024">
        <ele>1211.46</ele>
        <time>2021-03-27T16:49:30Z</time>
      </trkpt>
      <trkpt lat="42.009945" lon="-3.02029">
        <ele>1212.24</ele>
        <time>2021-03-27T16:49:32Z</time>
      </trkpt>
      <trkpt lat="42.009841" lon="-3.020307">
        <ele>1214.21</ele>
        <time>2021-03-27T16:49:33Z</time>
      </trkpt>
      <trkpt lat="42.009669" lon="-3.02027">
        <ele>1215.81</ele>
        <time>2021-03-27T16:49:34Z</time>
      </trkpt>
      <trkpt lat="42.009427" lon="-3.020094">
        <ele>1216.26</ele>
        <time>2021-03-27T16:49:36Z</time>
      </trkpt>
      <trkpt lat="42.008999" lon="-3.019918">
        <ele>1215.19</ele>
        <time>2021-03-27T16:49:37Z</time>
      </trkpt>
      <trkpt lat="42.008578" lon="-3.019867">
        <ele>1212.97</ele>
        <time>2021-03-27T16:49:39Z</time>
      </trkpt>
      <trkpt lat="42.008229" lon="-3.019774">
        <ele>1212.35</ele>
        <time>2021-03-27T16:49:40Z</time>
      </trkpt>
      <trkpt lat="42.007979" lon="-3.019768">
        <ele>1212.52</ele>
        <time>2021-03-27T16:49:42Z</time>
      </trkpt>
      <trkpt lat="42.007979" lon="-3.019768">
        <ele>1212.52</ele>
        <time>2021-03-27T16:49:42Z</time>
      </trkpt>
      <trkpt lat="42.007762" lon="-3.019811">
        <ele>1210.48</ele>
        <time>2021-03-27T16:49:46Z</time>
      </trkpt>
      <trkpt lat="42.007626" lon="-3.01987">
        <ele>1211.43</ele>
        <time>2021-03-27T16:49:49Z</time>
      </trkpt>
      <trkpt lat="42.007361" lon="-3.020057">
        <ele>1215.03</ele>
        <time>2021-03-27T16:49:53Z</time>
      </trkpt>
      <trkpt lat="42.007202" lon="-3.020122">
        <ele>1216.4</ele>
        <time>2021-03-27T16:49:57Z</time>
      </trkpt>
      <trkpt lat="42.007124" lon="-3.020132">
        <ele>1216.27</ele>
        <time>2021-03-27T16:50:00Z</time>
      </trkpt>
      <trkpt lat="42.006621" lon="-3.020075">
        <ele>1209.57</ele>
        <time>2021-03-27T16:50:04Z</time>
      </trkpt>
      <trkpt lat="42.006318" lon="-3.020067">
        <ele>1206.92</ele>
        <time>2021-03-27T16:50:08Z</time>
      </trkpt>
      <trkpt lat="42.006055" lon="-3.020132">
        <ele>1208.58</ele>
        <time>2021-03-27T16:50:11Z</time>
      </trkpt>
      <trkpt lat="42.005886" lon="-3.020147">
        <ele>1210.0</ele>
        <time>2021-03-27T16:50:15Z</time>
      </trkpt>
      <trkpt lat="42.005155" lon="-3.019878">
        <ele>1211.37</ele>
        <time>2021-03-27T16:50:19Z</time>
      </trkpt>
      <trkpt lat="42.004891" lon="-3.019756">
        <ele>1210.77</ele>
        <time>2021-03-27T16:50:22Z</time>
      </trkpt>
      <trkpt lat="42.004798" lon="-3.019695">
        <ele>1210.15</ele>
        <time>2021-03-27T16:50:26Z</time>
      </trkpt>
      <trkpt lat="42.004442" lon="-3.019371">
        <ele>1208.48</ele>
        <time>2021-03-27T16:50:30Z</time>
      </trkpt>
      <trkpt lat="42.004127" lon="-3.018963">
        <ele>1204.55</ele>
        <time>2021-03-27T16:50:33Z</time>
      </trkpt>
      <trkpt lat="42.00395" lon="-3.018767">
        <ele>1205.61</ele>
        <time>2021-03-27T16:50:37Z</time>
      </trkpt>
      <trkpt lat="42.003358" lon="-3.018245">
        <ele>1195.99</ele>
        <time>2021-03-27T16:50:41Z</time>
      </trkpt>
      <trkpt lat="42.003258" lon="-3.018173">
        <ele>1194.88</ele>
        <time>2021-03-27T16:50:44Z</time>
      </trkpt>
      <trkpt lat="42.003095" lon="-3.018091">
        <ele>1195.41</ele>
        <time>2021-03-27T16:50:48Z</time>
      </trkpt>
      <trkpt lat="42.00239" lon="-3.017872">
        <ele>1200.22</ele>
        <time>2021-03-27T16:50:52Z</time>
      </trkpt>
      <trkpt lat="42.002172" lon="-3.017787">
        <ele>1200.68</ele>
        <time>2021-03-27T16:50:55Z</time>
      </trkpt>
      <trkpt lat="42.001418" lon="-3.017438">
        <ele>1198.45</ele>
        <time>2021-03-27T16:50:59Z</time>
      </trkpt>
      <trkpt lat="42.000874" lon="-3.017264">
        <ele>1205.38</ele>
        <time>2021-03-27T16:51:03Z</time>
      </trkpt>
      <trkpt lat="42.000278" lon="-3.016942">
        <ele>1207.97</ele>
        <time>2021-03-27T16:51:06Z</time>
      </trkpt>
      <trkpt lat="42.000186" lon="-3.016872">
        <ele>1210.45</ele>
        <time>2021-03-27T16:51:10Z</time>
      </trkpt>
      <trkpt lat="42.000064" lon="-3.016705">
        <ele>1212.43</ele>
        <time>2021-03-27T16:51:14Z</time>
      </trkpt>
      <trkpt lat="41.999913" lon="-3.016294">
        <ele>1204.61</ele>
        <time>2021-03-27T16:51:17Z</time>
      </trkpt>
      <trkpt lat="41.999877" lon="-3.01623">
        <ele>1202.36</ele>
        <time>2021-03-27T16:51:21Z</time>
      </trkpt>
      <trkpt lat="41.99977" lon="-3.016122">
        <ele>1200.19</ele>
        <time>2021-03-27T16:51:25Z</time>
      </trkpt>
      <trkpt lat="41.99972" lon="-3.0161">
        <ele>1200.46</ele>
        <time>2021-03-27T16:51:28Z</time>
      </trkpt>
      <trkpt lat="41.999549" lon="-3.0161">
        <ele>1200.46</ele>
        <time>2021-03-27T16:51:32Z</time>
      </trkpt>
      <trkpt lat="41.99832" lon="-3.016612">
        <ele>1196.99</ele>
        <time>2021-03-27T16:51:36Z</time>
      </trkpt>
      <trkpt lat="41.998082" lon="-3.016729">
        <ele>1195.06</ele>
        <time>2021-03-27T16:51:39Z</time>
      </trkpt>
      <trkpt lat="41.997821" lon="-3.016823">
        <ele>1191.83</ele>
        <time>2021-03-27T16:51:43Z</time>
      </trkpt>
      <trkpt lat="41.997745" lon="-3.016868">
        <ele>1190.88</ele>
        <time>2021-03-27T16:51:47Z</time>
      </trkpt>
      <trkpt lat="41.997679" lon="-3.016938">
        <ele>1190.51</ele>
        <time>2021-03-27T16:51:50Z</time>
      </trkpt>
      <trkpt lat="41.997581" lon="-3.017099">
        <ele>1189.32</ele>
        <time>2021-03-27T16:51:54Z</time>
      </trkpt>
      <trkpt lat="41.997521" lon="-3.017352">
        <ele>1188.41</ele>
        <time>2021-03-27T16:51:58Z</time>
      </trkpt>
      <trkpt lat="41.997514" lon="-3.017463">
        <ele>1188.29</ele>
        <time>2021-03-27T16:52:01Z</time>
      </trkpt>
      <trkpt lat="41.997581" lon="-3.018462">
        <ele>1190.26</ele>
        <time>2021-03-27T16:52:05Z</time>
      </trkpt>
      <trkpt lat="41.997574" lon="-3.018552">
        <ele>1189.98</ele>
        <time>2021-03-27T16:52:09Z</time>
      </trkpt>
      <trkpt lat="41.997532" lon="-3.018691">
        <ele>1188.81</ele>
        <time>2021-03-27T16:52:12Z</time>
      </trkpt>
      <trkpt lat="41.997439" lon="-3.018817">
        <ele>1186.68</ele>
        <time>2021-03-27T16:52:16Z</time>
      </trkpt>
      <trkpt lat="41.997161" lon="-3.019072">
        <ele>1182.88</ele>
        <time>2021-03-27T16:52:19Z</time>
      </trkpt>
      <trkpt lat="41.997036" lon="-3.019208">
        <ele>1183.25</ele>
        <time>2021-03-27T16:52:23Z</time>
      </trkpt>
      <trkpt lat="41.996967" lon="-3.019331">
        <ele>1184.53</ele>
        <time>2021-03-27T16:52:27Z</time>
      </trkpt>
      <trkpt lat="41.996846" lon="-3.019727">
        <ele>1185.17</ele>
        <time>2021-03-27T16:52:30Z</time>
      </trkpt>
      <trkpt lat="41.996751" lon="-3.019843">
        <ele>1183.03</ele>
        <time>2021-03-27T16:52:34Z</time>
      </trkpt>
      <trkpt lat="41.996519" lon="-3.020023">
        <ele>1177.31</ele>
        <time>2021-03-27T16:52:38Z</time>
      </trkpt>
      <trkpt lat="41.995859" lon="-3.020593">
        <ele>1168.07</ele>
        <time>2021-03-27T16:52:41Z</time>
      </trkpt>
      <trkpt lat="41.995384" lon="-3.020806">
        <ele>1164.7</ele>
        <time>2021-03-27T16:52:45Z</time>
      </trkpt>
      <trkpt lat="41.995049" lon="-3.020877">
        <ele>1162.19</ele>
        <time>2021-03-27T16:52:49Z</time>
      </trkpt>
      <trkpt lat="41.994882" lon="-3.020964">
        <ele>1160.56</ele>
        <time>2021-03-27T16:52:52Z</time>
      </trkpt>
      <trkpt lat="41.994767" lon="-3.021079">
        <ele>1159.6</ele>
        <time>2021-03-27T16:52:56Z</time>
      </trkpt>
      <trkpt lat="41.994689" lon="-3.021189">
        <ele>1158.69</ele>
        <time>2021-03-27T16:53:00Z</time>
      </trkpt>
      <trkpt lat="41.994588" lon="-3.021397">
        <ele>1157.6</ele>
        <time>2021-03-27T16:53:03Z</time>
      </trkpt>
      <trkpt lat="41.994564" lon="-3.021462">
        <ele>1157.27</ele>
        <time>2021-03-27T16:53:07Z</time>
      </trkpt>
      <trkpt lat="41.994537" lon="-3.02168">
        <ele>1157.06</ele>
        <time>2021-03-27T16:53:11Z</time>
      </trkpt>
      <trkpt lat="41.994538" lon="-3.021867">
        <ele>1157.97</ele>
        <time>2021-03-27T16:53:14Z</time>
      </trkpt>
      <trkpt lat="41.994631" lon="-3.02212">
        <ele>1159.9</ele>
        <time>2021-03-27T16:53:18Z</time>
      </trkpt>
      <trkpt lat="41.994735" lon="-3.022255">
        <ele>1160.78</ele>
        <time>2021-03-27T16:53:22Z</time>
      </trkpt>
      <trkpt lat="41.995076" lon="-3.022588">
        <ele>1158.68</ele>
        <time>2021-03-27T16:53:25Z</time>
      </trkpt>
      <trkpt lat="41.995222" lon="-3.022798">
        <ele>1155.03</ele>
        <time>2021-03-27T16:53:29Z</time>
      </trkpt>
      <trkpt lat="41.995261" lon="-3.022903">
        <ele>1152.85</ele>
        <time>2021-03-27T16:53:33Z</time>
      </trkpt>
      <trkpt lat="41.995296" lon="-3.023078">
        <ele>1149.7</ele>
        <time>2021-03-27T16:53:36Z</time>
      </trkpt>
      <trkpt lat="41.995296" lon="-3.023262">
        <ele>1147.8</ele>
        <time>2021-03-27T16:53:40Z</time>
      </trkpt>
      <trkpt lat="41.995268" lon="-3.023402">
        <ele>1146.47</ele>
        <time>2021-03-27T16:53:44Z</time>
      </trkpt>
      <trkpt lat="41.995179" lon="-3.023574">
        <ele>1145.22</ele>
        <time>2021-03-27T16:53:47Z</time>
      </trkpt>
      <trkpt lat="41.995113" lon="-3.02365">
        <ele>1145.42</ele>
        <time>2021-03-27T16:53:51Z</time>
      </trkpt>
      <trkpt lat="41.99491" lon="-3.023783">
        <ele>1145.42</ele>
        <time>2021-03-27T16:53:55Z</time>
      </trkpt>
      <trkpt lat="41.993326" lon="-3.024455">
        <ele>1143.03</ele>
        <time>2021-03-27T16:53:58Z</time>
      </trkpt>
      <trkpt lat="41.993084" lon="-3.024591">
        <ele>1140.16</ele>
        <time>2021-03-27T16:54:02Z</time>
      </trkpt>
      <trkpt lat="41.992461" lon="-3.025064">
        <ele>1137.96</ele>
        <time>2021-03-27T16:54:06Z</time>
      </trkpt>
      <trkpt lat="41.991991" lon="-3.025469">
        <ele>1138.33</ele>
        <time>2021-03-27T16:54:09Z</time>
      </trkpt>
      <trkpt lat="41.99187" lon="-3.025625">
        <ele>1138.43</ele>
        <time>2021-03-27T16:54:13Z</time>
      </trkpt>
      <trkpt lat="41.991665" lon="-3.026066">
        <ele>1136.98</ele>
        <time>2021-03-27T16:54:17Z</time>
      </trkpt>
      <trkpt lat="41.991614" lon="-3.026124">
        <ele>1136.41</ele>
        <time>2021-03-27T16:54:20Z</time>
      </trkpt>
      <trkpt lat="41.990883" lon="-3.026602">
        <ele>1136.62</ele>
        <time>2021-03-27T16:54:24Z</time>
      </trkpt>
      <trkpt lat="41.99053" lon="-3.02674">
        <ele>1134.3</ele>
        <time>2021-03-27T16:54:28Z</time>
      </trkpt>
      <trkpt lat="41.990372" lon="-3.026838">
        <ele>1133.1</ele>
        <time>2021-03-27T16:54:31Z</time>
      </trkpt>
      <trkpt lat="41.99021" lon="-3.026996">
        <ele>1132.57</ele>
        <time>2021-03-27T16:54:35Z</time>
      </trkpt>
      <trkpt lat="41.989482" lon="-3.027859">
        <ele>1135.6</ele>
        <time>2021-03-27T16:54:39Z</time>
      </trkpt>
      <trkpt lat="41.989292" lon="-3.027995">
        <ele>1137.46</ele>
        <time>2021-03-27T16:54:42Z</time>
      </trkpt>
      <trkpt lat="41.989145" lon="-3.028071">
        <ele>1137.98</ele>
        <time>2021-03-27T16:54:46Z</time>
      </trkpt>
      <trkpt lat="41.988309" lon="-3.028398">
        <ele>1124.35</ele>
        <time>2021-03-27T16:54:50Z</time>
      </trkpt>
      <trkpt lat="41.987838" lon="-3.028605">
        <ele>1121.36</ele>
        <time>2021-03-27T16:54:53Z</time>
      </trkpt>
      <trkpt lat="41.987426" lon="-3.028893">
        <ele>1122.77</ele>
        <time>2021-03-27T16:54:57Z</time>
      </trkpt>
      <trkpt lat="41.987025" lon="-3.028979">
        <ele>1121.23</ele>
        <time>2021-03-27T16:55:01Z</time>
      </trkpt>
      <trkpt lat="41.986886" lon="-3.029037">
        <ele>1120.74</ele>
        <time>2021-03-27T16:55:04Z</time>
      </trkpt>
      <trkpt lat="41.986335" lon="-3.029413">
        <ele>1117.78</ele>
        <time>2021-03-27T16:55:08Z</time>
      </trkpt>
      <trkpt lat="41.986142" lon="-3.029615">
        <ele>1117.18</ele>
        <time>2021-03-27T16:55:12Z</time>
      </trkpt>
      <trkpt lat="41.985425" lon="-3.030709">
        <ele>1116.9</ele>
        <time>2021-03-27T16:55:15Z</time>
      </trkpt>
      <trkpt lat="41.985391" lon="-3.030794">
        <ele>1117.63</ele>
        <time>2021-03-27T16:55:19Z</time>
      </trkpt>
      <trkpt lat="41.985326" lon="-3.031026">
        <ele>1120.2</ele>
        <time>2021-03-27T16:55:22Z</time>
      </trkpt>
      <trkpt lat="41.985242" lon="-3.031501">
        <ele>1122.97</ele>
        <time>2021-03-27T16:55:26Z</time>
      </trkpt>
      <trkpt lat="41.985136" lon="-3.032919">
        <ele>1125.0</ele>
        <time>2021-03-27T16:55:30Z</time>
      </trkpt>
      <trkpt lat="41.985082" lon="-3.033045">
        <ele>1125.0</ele>
        <time>2021-03-27T16:55:33Z</time>
      </trkpt>
      <trkpt lat="41.983427" lon="-3.035391">
        <ele>1117.21</ele>
        <time>2021-03-27T16:55:37Z</time>
      </trkpt>
      <trkpt lat="41.983267" lon="-3.03564">
        <ele>1118.6</ele>
        <time>2021-03-27T16:55:41Z</time>
      </trkpt>
      <trkpt lat="41.983124" lon="-3.035912">
        <ele>1120.42</ele>
        <time>2021-03-27T16:55:44Z</time>
      </trkpt>
      <trkpt lat="41.982807" lon="-3.036712">
        <ele>1126.64</ele>
        <time>2021-03-27T16:55:48Z</time>
      </trkpt>
      <trkpt lat="41.982738" lon="-3.036846">
        <ele>1127.2</ele>
        <time>2021-03-27T16:55:52Z</time>
      </trkpt>
      <trkpt lat="41.982331" lon="-3.037467">
        <ele>1123.48</ele>
        <time>2021-03-27T16:55:55Z</time>
      </trkpt>
      <trkpt lat="41.982158" lon="-3.037796">
        <ele>1122.73</ele>
        <time>2021-03-27T16:55:59Z</time>
      </trkpt>
      <trkpt lat="41.981942" lon="-3.038292">
        <ele>1125.66</ele>
        <time>2021-03-27T16:56:03Z</time>
      </trkpt>
      <trkpt lat="41.981856" lon="-3.038929">
        <ele>1126.65</ele>
        <time>2021-03-27T16:56:06Z</time>
      </trkpt>
      <trkpt lat="41.98163" lon="-3.039513">
        <ele>1126.81</ele>
        <time>2021-03-27T16:56:10Z</time>
      </trkpt>
      <trkpt lat="41.98157" lon="-3.039914">
        <ele>1127.54</ele>
        <time>2021-03-27T16:56:14Z</time>
      </trkpt>
      <trkpt lat="41.981572" lon="-3.040027">
        <ele>1128.18</ele>
        <time>2021-03-27T16:56:17Z</time>
      </trkpt>
      <trkpt lat="41.981552" lon="-3.040098">
        <ele>1128.47</ele>
        <time>2021-03-27T16:56:21Z</time>
      </trkpt>
      <trkpt lat="41.981377" lon="-3.040533">
        <ele>1126.99</ele>
        <time>2021-03-27T16:56:25Z</time>
      </trkpt>
      <trkpt lat="41.981167" lon="-3.041118">
        <ele>1124.22</ele>
        <time>2021-03-27T16:56:28Z</time>
      </trkpt>
      <trkpt lat="41.981077" lon="-3.041261">
        <ele>1124.3</ele>
        <time>2021-03-27T16:56:32Z</time>
      </trkpt>
      <trkpt lat="41.98099" lon="-3.041298">
        <ele>1123.8</ele>
        <time>2021-03-27T16:56:36Z</time>
      </trkpt>
      <trkpt lat="41.980264" lon="-3.041298">
        <ele>1117.25</ele>
        <time>2021-03-27T16:56:39Z</time>
      </trkpt>
      <trkpt lat="41.980173" lon="-3.041323">
        <ele>1116.77</ele>
        <time>2021-03-27T16:56:43Z</time>
      </trkpt>
      <trkpt lat="41.980133" lon="-3.041356">
        <ele>1116.72</ele>
        <time>2021-03-27T16:56:47Z</time>
      </trkpt>
      <trkpt lat="41.980037" lon="-3.04154">
        <ele>1118.36</ele>
        <time>2021-03-27T16:56:50Z</time>
      </trkpt>
      <trkpt lat="41.979995" lon="-3.041581">
        <ele>1118.69</ele>
        <time>2021-03-27T16:56:54Z</time>
      </trkpt>
      <trkpt lat="41.979709" lon="-3.04163">
        <ele>1115.2</ele>
        <time>2021-03-27T16:56:58Z</time>
      </trkpt>
      <trkpt lat="41.979613" lon="-3.041666">
        <ele>1113.64</ele>
        <time>2021-03-27T16:57:01Z</time>
      </trkpt>
      <trkpt lat="41.978065" lon="-3.042911">
        <ele>1112.49</ele>
        <time>2021-03-27T16:57:05Z</time>
      </trkpt>
      <trkpt lat="41.977087" lon="-3.043899">
        <ele>1103.73</ele>
        <time>2021-03-27T16:57:09Z</time>
      </trkpt>
      <trkpt lat="41.976245" lon="-3.044419">
        <ele>1099.32</ele>
        <time>2021-03-27T16:57:12Z</time>
      </trkpt>
      <trkpt lat="41.975885" lon="-3.044743">
        <ele>1095.36</ele>
        <time>2021-03-27T16:57:16Z</time>
      </trkpt>
      <trkpt lat="41.975501" lon="-3.04528">
        <ele>1090.83</ele>
        <time>2021-03-27T16:57:20Z</time>
      </trkpt>
      <trkpt lat="41.975442" lon="-3.045426">
        <ele>1089.34</ele>
        <time>2021-03-27T16:57:23Z</time>
      </trkpt>
      <trkpt lat="41.975362" lon="-3.045551">
        <ele>1087.15</ele>
        <time>2021-03-27T16:57:24Z</time>
      </trkpt>
      <trkpt lat="41.975228" lon="-3.045664">
        <ele>1084.82</ele>
        <time>2021-03-27T16:57:25Z</time>
      </trkpt>
      <trkpt lat="41.974935" lon="-3.045231">
        <ele>1084.0</ele>
        <time>2021-03-27T16:57:31Z</time>
      </trkpt>
      <trkpt lat="41.972107" lon="-3.040902">
        <ele>1096.62</ele>
        <time>2021-03-27T16:57:37Z</time>
      </trkpt>
      <trkpt lat="41.971794" lon="-3.040587">
        <ele>1097.8</ele>
        <time>2021-03-27T16:57:44Z</time>
      </trkpt>
      <trkpt lat="41.971317" lon="-3.040247">
        <ele>1101.86</ele>
        <time>2021-03-27T16:57:50Z</time>
      </trkpt>
      <trkpt lat="41.971139" lon="-3.040081">
        <ele>1103.77</ele>
        <time>2021-03-27T16:57:56Z</time>
      </trkpt>
      <trkpt lat="41.970941" lon="-3.039792">
        <ele>1104.29</ele>
        <time>2021-03-27T16:58:03Z</time>
      </trkpt>
      <trkpt lat="41.97" lon="-3.038245">
        <ele>1114.31</ele>
        <time>2021-03-27T16:58:09Z</time>
      </trkpt>
      <trkpt lat="41.969808" lon="-3.037811">
        <ele>1115.61</ele>
        <time>2021-03-27T16:58:15Z</time>
      </trkpt>
      <trkpt lat="41.969727" lon="-3.037556">
        <ele>1115.21</ele>
        <time>2021-03-27T16:58:21Z</time>
      </trkpt>
      <trkpt lat="41.968324" lon="-3.032742">
        <ele>1113.59</ele>
        <time>2021-03-27T16:58:28Z</time>
      </trkpt>
      <trkpt lat="41.968109" lon="-3.032067">
        <ele>1109.84</ele>
        <time>2021-03-27T16:58:34Z</time>
      </trkpt>
      <trkpt lat="41.967751" lon="-3.031112">
        <ele>1105.91</ele>
        <time>2021-03-27T16:58:40Z</time>
      </trkpt>
      <trkpt lat="41.965678" lon="-3.025828">
        <ele>1107.86</ele>
        <time>2021-03-27T16:58:46Z</time>
      </trkpt>
      <trkpt lat="41.965498" lon="-3.025403">
        <ele>1105.35</ele>
        <time>2021-03-27T16:58:53Z</time>
      </trkpt>
      <trkpt lat="41.965227" lon="-3.024895">
        <ele>1105.13</ele>
        <time>2021-03-27T16:58:59Z</time>
      </trkpt>
      <trkpt lat="41.964143" lon="-3.023215">
        <ele>1101.0</ele>
        <time>2021-03-27T16:59:05Z</time>
      </trkpt>
      <trkpt lat="41.963606" lon="-3.022427">
        <ele>1105.78</ele>
        <time>2021-03-27T16:59:12Z</time>
      </trkpt>
      <trkpt lat="41.963393" lon="-3.022155">
        <ele>1106.73</ele>
        <time>2021-03-27T16:59:18Z</time>
      </trkpt>
      <trkpt lat="41.96269" lon="-3.021371">
        <ele>1104.69</ele>
        <time>2021-03-27T16:59:24Z</time>
      </trkpt>
      <trkpt lat="41.962489" lon="-3.021109">
        <ele>1103.97</ele>
        <time>2021-03-27T16:59:30Z</time>
      </trkpt>
      <trkpt lat="41.959028" lon="-3.016188">
        <ele>1104.86</ele>
        <time>2021-03-27T16:59:37Z</time>
      </trkpt>
      <trkpt lat="41.958648" lon="-3.015744">
        <ele>1105.54</ele>
        <time>2021-03-27T16:59:43Z</time>
      </trkpt>
      <trkpt lat="41.958394" lon="-3.015494">
        <ele>1106.62</ele>
        <time>2021-03-27T16:59:49Z</time>
      </trkpt>
      <trkpt lat="41.957903" lon="-3.015085">
        <ele>1107.43</ele>
        <time>2021-03-27T16:59:55Z</time>
      </trkpt>
      <trkpt lat="41.957413" lon="-3.014706">
        <ele>1104.26</ele>
        <time>2021-03-27T17:00:02Z</time>
      </trkpt>
      <trkpt lat="41.9569" lon="-3.014339">
        <ele>1104.08</ele>
        <time>2021-03-27T17:00:08Z</time>
      </trkpt>
      <trkpt lat="41.956664" lon="-3.014242">
        <ele>1102.54</ele>
        <time>2021-03-27T17:00:09Z</time>
      </trkpt>
      <trkpt lat="41.956588" lon="-3.014231">
        <ele>1102.4</ele>
        <time>2021-03-27T17:00:10Z</time>
      </trkpt>
      <trkpt lat="41.956432" lon="-3.014249">
        <ele>1102.34</ele>
        <time>2021-03-27T17:00:11Z</time>
      </trkpt>
      <trkpt lat="41.956238" lon="-3.014267">
        <ele>1102.51</ele>
        <time>2021-03-27T17:00:11Z</time>
      </trkpt>
      <trkpt lat="41.95617" lon="-3.014223">
        <ele>1102.67</ele>
        <time>2021-03-27T17:00:12Z</time>
      </trkpt>
      <trkpt lat="41.956122" lon="-3.014073">
        <ele>1103.6</ele>
        <time>2021-03-27T17:00:13Z</time>
      </trkpt>
      <trkpt lat="41.956089" lon="-3.014007">
        <ele>1104.15</ele>
        <time>2021-03-27T17:00:14Z</time>
      </trkpt>
      <trkpt lat="41.955918" lon="-3.013883">
        <ele>1105.06</ele>
        <time>2021-03-27T17:00:14Z</time>
      </trkpt>
      <trkpt lat="41.955563" lon="-3.013839">
        <ele>1103.59</ele>
        <time>2021-03-27T17:00:18Z</time>
      </trkpt>
      <trkpt lat="41.955387" lon="-3.013842">
        <ele>1103.2</ele>
        <time>2021-03-27T17:00:21Z</time>
      </trkpt>
      <trkpt lat="41.955021" lon="-3.013889">
        <ele>1103.85</ele>
        <time>2021-03-27T17:00:25Z</time>
      </trkpt>
      <trkpt lat="41.954212" lon="-3.014061">
        <ele>1110.81</ele>
        <time>2021-03-27T17:00:28Z</time>
      </trkpt>
      <trkpt lat="41.954017" lon="-3.01409">
        <ele>1111.13</ele>
        <time>2021-03-27T17:00:31Z</time>
      </trkpt>
      <trkpt lat="41.953853" lon="-3.014091">
        <ele>1111.77</ele>
        <time>2021-03-27T17:00:35Z</time>
      </trkpt>
      <trkpt lat="41.953549" lon="-3.014005">
        <ele>1114.46</ele>
        <time>2021-03-27T17:00:38Z</time>
      </trkpt>
      <trkpt lat="41.953397" lon="-3.013921">
        <ele>1112.87</ele>
        <time>2021-03-27T17:00:41Z</time>
      </trkpt>
      <trkpt lat="41.953272" lon="-3.013818">
        <ele>1111.15</ele>
        <time>2021-03-27T17:00:45Z</time>
      </trkpt>
      <trkpt lat="41.953063" lon="-3.013582">
        <ele>1108.54</ele>
        <time>2021-03-27T17:00:48Z</time>
      </trkpt>
      <trkpt lat="41.952971" lon="-3.01344">
        <ele>1109.37</ele>
        <time>2021-03-27T17:00:52Z</time>
      </trkpt>
      <trkpt lat="41.95288" lon="-3.013248">
        <ele>1110.59</ele>
        <time>2021-03-27T17:00:55Z</time>
      </trkpt>
      <trkpt lat="41.952788" lon="-3.012981">
        <ele>1112.66</ele>
        <time>2021-03-27T17:00:58Z</time>
      </trkpt>
      <trkpt lat="41.952618" lon="-3.012382">
        <ele>1109.58</ele>
        <time>2021-03-27T17:01:02Z</time>
      </trkpt>
      <trkpt lat="41.952229" lon="-3.01095">
        <ele>1110.8</ele>
        <time>2021-03-27T17:01:05Z</time>
      </trkpt>
      <trkpt lat="41.952156" lon="-3.010787">
        <ele>1110.14</ele>
        <time>2021-03-27T17:01:08Z</time>
      </trkpt>
      <trkpt lat="41.951992" lon="-3.01052">
        <ele>1109.11</ele>
        <time>2021-03-27T17:01:12Z</time>
      </trkpt>
      <trkpt lat="41.951907" lon="-3.010345">
        <ele>1109.04</ele>
        <time>2021-03-27T17:01:15Z</time>
      </trkpt>
      <trkpt lat="41.951808" lon="-3.009989">
        <ele>1109.55</ele>
        <time>2021-03-27T17:01:18Z</time>
      </trkpt>
      <trkpt lat="41.951781" lon="-3.009619">
        <ele>1108.84</ele>
        <time>2021-03-27T17:01:22Z</time>
      </trkpt>
      <trkpt lat="41.951796" lon="-3.009434">
        <ele>1109.63</ele>
        <time>2021-03-27T17:01:25Z</time>
      </trkpt>
      <trkpt lat="41.951837" lon="-3.009251">
        <ele>1110.7</ele>
        <time>2021-03-27T17:01:29Z</time>
      </trkpt>
      <trkpt lat="41.952011" lon="-3.008742">
        <ele>1112.84</ele>
        <time>2021-03-27T17:01:32Z</time>
      </trkpt>
      <trkpt lat="41.952053" lon="-3.008562">
        <ele>1111.57</ele>
        <time>2021-03-27T17:01:35Z</time>
      </trkpt>
      <trkpt lat="41.952105" lon="-3.007808">
        <ele>1112.14</ele>
        <time>2021-03-27T17:01:39Z</time>
      </trkpt>
      <trkpt lat="41.952106" lon="-3.007304">
        <ele>1111.76</ele>
        <time>2021-03-27T17:01:42Z</time>
      </trkpt>
      <trkpt lat="41.952084" lon="-3.007007">
        <ele>1109.39</ele>
        <time>2021-03-27T17:01:45Z</time>
      </trkpt>
      <trkpt lat="41.952054" lon="-3.006811">
        <ele>1107.95</ele>
        <time>2021-03-27T17:01:49Z</time>
      </trkpt>
      <trkpt lat="41.951937" lon="-3.006459">
        <ele>1106.4</ele>
        <time>2021-03-27T17:01:52Z</time>
      </trkpt>
      <trkpt lat="41.951751" lon="-3.00617">
        <ele>1106.79</ele>
        <time>2021-03-27T17:01:56Z</time>
      </trkpt>
      <trkpt lat="41.95137" lon="-3.005846">
        <ele>1107.59</ele>
        <time>2021-03-27T17:01:59Z</time>
      </trkpt>
      <trkpt lat="41.951174" lon="-3.005601">
        <ele>1106.95</ele>
        <time>2021-03-27T17:02:02Z</time>
      </trkpt>
      <trkpt lat="41.951044" lon="-3.005364">
        <ele>1105.77</ele>
        <time>2021-03-27T17:02:06Z</time>
      </trkpt>
      <trkpt lat="41.950954" lon="-3.005082">
        <ele>1106.15</ele>
        <time>2021-03-27T17:02:09Z</time>
      </trkpt>
      <trkpt lat="41.950917" lon="-3.004894">
        <ele>1107.54</ele>
        <time>2021-03-27T17:02:12Z</time>
      </trkpt>
      <trkpt lat="41.950909" lon="-3.004035">
        <ele>1115.36</ele>
        <time>2021-03-27T17:02:16Z</time>
      </trkpt>
      <trkpt lat="41.950956" lon="-3.002643">
        <ele>1118.22</ele>
        <time>2021-03-27T17:02:19Z</time>
      </trkpt>
      <trkpt lat="41.951016" lon="-3.002286">
        <ele>1121.05</ele>
        <time>2021-03-27T17:02:23Z</time>
      </trkpt>
      <trkpt lat="41.951103" lon="-3.001992">
        <ele>1123.01</ele>
        <time>2021-03-27T17:02:26Z</time>
      </trkpt>
      <trkpt lat="41.951215" lon="-3.001712">
        <ele>1122.86</ele>
        <time>2021-03-27T17:02:29Z</time>
      </trkpt>
      <trkpt lat="41.951244" lon="-3.001593">
        <ele>1122.08</ele>
        <time>2021-03-27T17:02:33Z</time>
      </trkpt>
      <trkpt lat="41.951278" lon="-3.001402">
        <ele>1120.76</ele>
        <time>2021-03-27T17:02:36Z</time>
      </trkpt>
      <trkpt lat="41.951288" lon="-3.001146">
        <ele>1122.01</ele>
        <time>2021-03-27T17:02:39Z</time>
      </trkpt>
      <trkpt lat="41.951255" lon="-3.000873">
        <ele>1124.19</ele>
        <time>2021-03-27T17:02:43Z</time>
      </trkpt>
      <trkpt lat="41.950692" lon="-2.997537">
        <ele>1128.69</ele>
        <time>2021-03-27T17:02:46Z</time>
      </trkpt>
      <trkpt lat="41.95063" lon="-2.997061">
        <ele>1126.54</ele>
        <time>2021-03-27T17:02:49Z</time>
      </trkpt>
      <trkpt lat="41.95063" lon="-2.996847">
        <ele>1125.63</ele>
        <time>2021-03-27T17:02:53Z</time>
      </trkpt>
      <trkpt lat="41.950652" lon="-2.996628">
        <ele>1125.3</ele>
        <time>2021-03-27T17:02:56Z</time>
      </trkpt>
      <trkpt lat="41.950763" lon="-2.996226">
        <ele>1126.03</ele>
        <time>2021-03-27T17:03:00Z</time>
      </trkpt>
      <trkpt lat="41.950853" lon="-2.996045">
        <ele>1126.29</ele>
        <time>2021-03-27T17:03:03Z</time>
      </trkpt>
      <trkpt lat="41.951402" lon="-2.995218">
        <ele>1128.78</ele>
        <time>2021-03-27T17:03:06Z</time>
      </trkpt>
      <trkpt lat="41.95156" lon="-2.994895">
        <ele>1127.01</ele>
        <time>2021-03-27T17:03:10Z</time>
      </trkpt>
      <trkpt lat="41.951642" lon="-2.994583">
        <ele>1123.5</ele>
        <time>2021-03-27T17:03:13Z</time>
      </trkpt>
      <trkpt lat="41.951683" lon="-2.994346">
        <ele>1122.14</ele>
        <time>2021-03-27T17:03:16Z</time>
      </trkpt>
      <trkpt lat="41.951695" lon="-2.993903">
        <ele>1122.95</ele>
        <time>2021-03-27T17:03:20Z</time>
      </trkpt>
      <trkpt lat="41.951686" lon="-2.992772">
        <ele>1124.16</ele>
        <time>2021-03-27T17:03:23Z</time>
      </trkpt>
      <trkpt lat="41.951675" lon="-2.992225">
        <ele>1125.09</ele>
        <time>2021-03-27T17:03:27Z</time>
      </trkpt>
      <trkpt lat="41.951607" lon="-2.991881">
        <ele>1123.24</ele>
        <time>2021-03-27T17:03:30Z</time>
      </trkpt>
      <trkpt lat="41.951034" lon="-2.99071">
        <ele>1124.57</ele>
        <time>2021-03-27T17:03:33Z</time>
      </trkpt>
      <trkpt lat="41.950898" lon="-2.990346">
        <ele>1125.56</ele>
        <time>2021-03-27T17:03:37Z</time>
      </trkpt>
      <trkpt lat="41.950173" lon="-2.987808">
        <ele>1117.3</ele>
        <time>2021-03-27T17:03:40Z</time>
      </trkpt>
      <trkpt lat="41.950062" lon="-2.987523">
        <ele>1117.21</ele>
        <time>2021-03-27T17:03:43Z</time>
      </trkpt>
      <trkpt lat="41.94997" lon="-2.987344">
        <ele>1118.31</ele>
        <time>2021-03-27T17:03:47Z</time>
      </trkpt>
      <trkpt lat="41.949764" lon="-2.987098">
        <ele>1118.74</ele>
        <time>2021-03-27T17:03:50Z</time>
      </trkpt>
      <trkpt lat="41.949642" lon="-2.987007">
        <ele>1118.74</ele>
        <time>2021-03-27T17:03:54Z</time>
      </trkpt>
      <trkpt lat="41.949456" lon="-2.986903">
        <ele>1118.22</ele>
        <time>2021-03-27T17:03:57Z</time>
      </trkpt>
      <trkpt lat="41.949293" lon="-2.986845">
        <ele>1115.78</ele>
        <time>2021-03-27T17:04:00Z</time>
      </trkpt>
      <trkpt lat="41.948777" lon="-2.986851">
        <ele>1108.19</ele>
        <time>2021-03-27T17:04:04Z</time>
      </trkpt>
      <trkpt lat="41.948628" lon="-2.986828">
        <ele>1105.96</ele>
        <time>2021-03-27T17:04:07Z</time>
      </trkpt>
      <trkpt lat="41.948464" lon="-2.986756">
        <ele>1104.1</ele>
        <time>2021-03-27T17:04:10Z</time>
      </trkpt>
      <trkpt lat="41.948324" lon="-2.986665">
        <ele>1103.03</ele>
        <time>2021-03-27T17:04:14Z</time>
      </trkpt>
      <trkpt lat="41.948171" lon="-2.986515">
        <ele>1103.67</ele>
        <time>2021-03-27T17:04:17Z</time>
      </trkpt>
      <trkpt lat="41.948063" lon="-2.986367">
        <ele>1105.16</ele>
        <time>2021-03-27T17:04:20Z</time>
      </trkpt>
      <trkpt lat="41.94795" lon="-2.986158">
        <ele>1107.37</ele>
        <time>2021-03-27T17:04:24Z</time>
      </trkpt>
      <trkpt lat="41.947881" lon="-2.985961">
        <ele>1108.85</ele>
        <time>2021-03-27T17:04:27Z</time>
      </trkpt>
      <trkpt lat="41.947505" lon="-2.984534">
        <ele>1113.73</ele>
        <time>2021-03-27T17:04:31Z</time>
      </trkpt>
      <trkpt lat="41.94745" lon="-2.984383">
        <ele>1114.44</ele>
        <time>2021-03-27T17:04:34Z</time>
      </trkpt>
      <trkpt lat="41.94738" lon="-2.984257">
        <ele>1115.3</ele>
        <time>2021-03-27T17:04:37Z</time>
      </trkpt>
      <trkpt lat="41.947124" lon="-2.983927">
        <ele>1117.24</ele>
        <time>2021-03-27T17:04:41Z</time>
      </trkpt>
      <trkpt lat="41.946974" lon="-2.983795">
        <ele>1117.48</ele>
        <time>2021-03-27T17:04:44Z</time>
      </trkpt>
      <trkpt lat="41.946475" lon="-2.983423">
        <ele>1110.9</ele>
        <time>2021-03-27T17:04:47Z</time>
      </trkpt>
      <trkpt lat="41.946288" lon="-2.983242">
        <ele>1109.77</ele>
        <time>2021-03-27T17:04:51Z</time>
      </trkpt>
      <trkpt lat="41.946092" lon="-2.982917">
        <ele>1110.26</ele>
        <time>2021-03-27T17:04:54Z</time>
      </trkpt>
      <trkpt lat="41.945945" lon="-2.982422">
        <ele>1112.01</ele>
        <time>2021-03-27T17:04:58Z</time>
      </trkpt>
      <trkpt lat="41.945799" lon="-2.982126">
        <ele>1110.63</ele>
        <time>2021-03-27T17:05:01Z</time>
      </trkpt>
      <trkpt lat="41.945125" lon="-2.981321">
        <ele>1109.3</ele>
        <time>2021-03-27T17:05:04Z</time>
      </trkpt>
      <trkpt lat="41.944958" lon="-2.981068">
        <ele>1108.3</ele>
        <time>2021-03-27T17:05:08Z</time>
      </trkpt>
      <trkpt lat="41.944838" lon="-2.980752">
        <ele>1112.03</ele>
        <time>2021-03-27T17:05:11Z</time>
      </trkpt>
      <trkpt lat="41.94473" lon="-2.98034">
        <ele>1116.34</ele>
        <time>2021-03-27T17:05:14Z</time>
      </trkpt>
      <trkpt lat="41.94411" lon="-2.977638">
        <ele>1117.88</ele>
        <time>2021-03-27T17:05:18Z</time>
      </trkpt>
      <trkpt lat="41.943979" lon="-2.977311">
        <ele>1117.98</ele>
        <time>2021-03-27T17:05:21Z</time>
      </trkpt>
      <trkpt lat="41.943462" lon="-2.976434">
        <ele>1118.76</ele>
        <time>2021-03-27T17:05:25Z</time>
      </trkpt>
      <trkpt lat="41.943343" lon="-2.97615">
        <ele>1118.7</ele>
        <time>2021-03-27T17:05:28Z</time>
      </trkpt>
      <trkpt lat="41.943298" lon="-2.975987">
        <ele>1119.58</ele>
        <time>2021-03-27T17:05:31Z</time>
      </trkpt>
      <trkpt lat="41.943261" lon="-2.975819">
        <ele>1120.29</ele>
        <time>2021-03-27T17:05:35Z</time>
      </trkpt>
      <trkpt lat="41.943216" lon="-2.975366">
        <ele>1121.54</ele>
        <time>2021-03-27T17:05:38Z</time>
      </trkpt>
      <trkpt lat="41.943155" lon="-2.974047">
        <ele>1117.09</ele>
        <time>2021-03-27T17:05:41Z</time>
      </trkpt>
      <trkpt lat="41.943109" lon="-2.973768">
        <ele>1118.56</ele>
        <time>2021-03-27T17:05:45Z</time>
      </trkpt>
      <trkpt lat="41.942942" lon="-2.973173">
        <ele>1114.38</ele>
        <time>2021-03-27T17:05:48Z</time>
      </trkpt>
      <trkpt lat="41.942912" lon="-2.972984">
        <ele>1114.52</ele>
        <time>2021-03-27T17:05:51Z</time>
      </trkpt>
      <trkpt lat="41.942899" lon="-2.972264">
        <ele>1115.73</ele>
        <time>2021-03-27T17:05:55Z</time>
      </trkpt>
      <trkpt lat="41.942886" lon="-2.972004">
        <ele>1115.13</ele>
        <time>2021-03-27T17:05:58Z</time>
      </trkpt>
      <trkpt lat="41.942855" lon="-2.971769">
        <ele>1115.94</ele>
        <time>2021-03-27T17:06:02Z</time>
      </trkpt>
      <trkpt lat="41.942799" lon="-2.971572">
        <ele>1117.26</ele>
        <time>2021-03-27T17:06:05Z</time>
      </trkpt>
      <trkpt lat="41.942582" lon="-2.971053">
        <ele>1120.37</ele>
        <time>2021-03-27T17:06:08Z</time>
      </trkpt>
      <trkpt lat="41.942495" lon="-2.970707">
        <ele>1122.71</ele>
        <time>2021-03-27T17:06:12Z</time>
      </trkpt>
      <trkpt lat="41.942472" lon="-2.970559">
        <ele>1125.63</ele>
        <time>2021-03-27T17:06:15Z</time>
      </trkpt>
      <trkpt lat="41.942436" lon="-2.968956">
        <ele>1125.56</ele>
        <time>2021-03-27T17:06:18Z</time>
      </trkpt>
      <trkpt lat="41.942076" lon="-2.963803">
        <ele>1124.07</ele>
        <time>2021-03-27T17:06:22Z</time>
      </trkpt>
      <trkpt lat="41.942" lon="-2.963057">
        <ele>1122.79</ele>
        <time>2021-03-27T17:06:25Z</time>
      </trkpt>
      <trkpt lat="41.941857" lon="-2.962403">
        <ele>1127.92</ele>
        <time>2021-03-27T17:06:29Z</time>
      </trkpt>
      <trkpt lat="41.940848" lon="-2.959548">
        <ele>1144.53</ele>
        <time>2021-03-27T17:06:32Z</time>
      </trkpt>
      <trkpt lat="41.940734" lon="-2.959167">
        <ele>1145.93</ele>
        <time>2021-03-27T17:06:35Z</time>
      </trkpt>
      <trkpt lat="41.940671" lon="-2.958883">
        <ele>1147.99</ele>
        <time>2021-03-27T17:06:39Z</time>
      </trkpt>
      <trkpt lat="41.9406" lon="-2.958271">
        <ele>1151.98</ele>
        <time>2021-03-27T17:06:42Z</time>
      </trkpt>
      <trkpt lat="41.940492" lon="-2.95636">
        <ele>1148.05</ele>
        <time>2021-03-27T17:06:45Z</time>
      </trkpt>
      <trkpt lat="41.940444" lon="-2.955972">
        <ele>1151.7</ele>
        <time>2021-03-27T17:06:49Z</time>
      </trkpt>
      <trkpt lat="41.940382" lon="-2.95569">
        <ele>1158.58</ele>
        <time>2021-03-27T17:06:52Z</time>
      </trkpt>
      <trkpt lat="41.940203" lon="-2.955142">
        <ele>1168.11</ele>
        <time>2021-03-27T17:06:55Z</time>
      </trkpt>
      <trkpt lat="41.939369" lon="-2.953116">
        <ele>1167.96</ele>
        <time>2021-03-27T17:06:59Z</time>
      </trkpt>
      <trkpt lat="41.939248" lon="-2.952779">
        <ele>1167.18</ele>
        <time>2021-03-27T17:07:02Z</time>
      </trkpt>
      <trkpt lat="41.939137" lon="-2.952393">
        <ele>1169.9</ele>
        <time>2021-03-27T17:07:06Z</time>
      </trkpt>
      <trkpt lat="41.939067" lon="-2.95205">
        <ele>1175.96</ele>
        <time>2021-03-27T17:07:09Z</time>
      </trkpt>
      <trkpt lat="41.93901" lon="-2.95164">
        <ele>1182.61</ele>
        <time>2021-03-27T17:07:12Z</time>
      </trkpt>
      <trkpt lat="41.938979" lon="-2.95123">
        <ele>1186.7</ele>
        <time>2021-03-27T17:07:16Z</time>
      </trkpt>
      <trkpt lat="41.939004" lon="-2.950515">
        <ele>1188.0</ele>
        <time>2021-03-27T17:07:19Z</time>
      </trkpt>
      <trkpt lat="41.939071" lon="-2.950031">
        <ele>1190.08</ele>
        <time>2021-03-27T17:07:22Z</time>
      </trkpt>
      <trkpt lat="41.939149" lon="-2.949638">
        <ele>1195.34</ele>
        <time>2021-03-27T17:07:26Z</time>
      </trkpt>
      <trkpt lat="41.939357" lon="-2.948994">
        <ele>1196.39</ele>
        <time>2021-03-27T17:07:29Z</time>
      </trkpt>
      <trkpt lat="41.93953" lon="-2.948604">
        <ele>1198.35</ele>
        <time>2021-03-27T17:07:33Z</time>
      </trkpt>
      <trkpt lat="41.939813" lon="-2.948133">
        <ele>1202.52</ele>
        <time>2021-03-27T17:07:36Z</time>
      </trkpt>
      <trkpt lat="41.93999" lon="-2.947881">
        <ele>1205.55</ele>
        <time>2021-03-27T17:07:39Z</time>
      </trkpt>
      <trkpt lat="41.940169" lon="-2.947664">
        <ele>1206.86</ele>
        <time>2021-03-27T17:07:43Z</time>
      </trkpt>
      <trkpt lat="41.940398" lon="-2.947438">
        <ele>1208.08</ele>
        <time>2021-03-27T17:07:46Z</time>
      </trkpt>
      <trkpt lat="41.940618" lon="-2.94726">
        <ele>1208.36</ele>
        <time>2021-03-27T17:07:49Z</time>
      </trkpt>
      <trkpt lat="41.94091" lon="-2.947033">
        <ele>1208.32</ele>
        <time>2021-03-27T17:07:53Z</time>
      </trkpt>
      <trkpt lat="41.941228" lon="-2.946827">
        <ele>1208.24</ele>
        <time>2021-03-27T17:07:56Z</time>
      </trkpt>
      <trkpt lat="41.950402" lon="-2.940359">
        <ele>1187.11</ele>
        <time>2021-03-27T17:08:00Z</time>
      </trkpt>
      <trkpt lat="41.951124" lon="-2.939779">
        <ele>1186.55</ele>
        <time>2021-03-27T17:08:03Z</time>
      </trkpt>
      <trkpt lat="41.951439" lon="-2.939477">
        <ele>1186.74</ele>
        <time>2021-03-27T17:08:06Z</time>
      </trkpt>
      <trkpt lat="41.951761" lon="-2.939098">
        <ele>1185.41</ele>
        <time>2021-03-27T17:08:10Z</time>
      </trkpt>
      <trkpt lat="41.951938" lon="-2.93884">
        <ele>1185.19</ele>
        <time>2021-03-27T17:08:13Z</time>
      </trkpt>
      <trkpt lat="41.952255" lon="-2.938378">
        <ele>1186.96</ele>
        <time>2021-03-27T17:08:16Z</time>
      </trkpt>
      <trkpt lat="41.952878" lon="-2.937443">
        <ele>1188.07</ele>
        <time>2021-03-27T17:08:20Z</time>
      </trkpt>
      <trkpt lat="41.952966" lon="-2.937221">
        <ele>1188.68</ele>
        <time>2021-03-27T17:08:23Z</time>
      </trkpt>
      <trkpt lat="41.953595" lon="-2.934595">
        <ele>1189.55</ele>
        <time>2021-03-27T17:08:26Z</time>
      </trkpt>
      <trkpt lat="41.953876" lon="-2.933806">
        <ele>1188.04</ele>
        <time>2021-03-27T17:08:30Z</time>
      </trkpt>
      <trkpt lat="41.954294" lon="-2.932705">
        <ele>1191.32</ele>
        <time>2021-03-27T17:08:33Z</time>
      </trkpt>
      <trkpt lat="41.954334" lon="-2.932522">
        <ele>1192.5</ele>
        <time>2021-03-27T17:08:37Z</time>
      </trkpt>
      <trkpt lat="41.954344" lon="-2.932366">
        <ele>1192.81</ele>
        <time>2021-03-27T17:08:40Z</time>
      </trkpt>
      <trkpt lat="41.954263" lon="-2.932106">
        <ele>1192.72</ele>
        <time>2021-03-27T17:08:43Z</time>
      </trkpt>
      <trkpt lat="41.954064" lon="-2.931653">
        <ele>1191.37</ele>
        <time>2021-03-27T17:08:47Z</time>
      </trkpt>
      <trkpt lat="41.952702" lon="-2.928792">
        <ele>1193.37</ele>
        <time>2021-03-27T17:08:50Z</time>
      </trkpt>
      <trkpt lat="41.952548" lon="-2.928383">
        <ele>1194.65</ele>
        <time>2021-03-27T17:08:53Z</time>
      </trkpt>
      <trkpt lat="41.952449" lon="-2.927847">
        <ele>1193.95</ele>
        <time>2021-03-27T17:08:57Z</time>
      </trkpt>
      <trkpt lat="41.952225" lon="-2.926238">
        <ele>1200.54</ele>
        <time>2021-03-27T17:09:00Z</time>
      </trkpt>
      <trkpt lat="41.952353" lon="-2.926076">
        <ele>1201.0</ele>
        <time>2021-03-27T17:09:05Z</time>
      </trkpt>
      <trkpt lat="41.952427" lon="-2.925952">
        <ele>1201.0</ele>
        <time>2021-03-27T17:09:10Z</time>
      </trkpt>
      <trkpt lat="41.955007" lon="-2.921377">
        <ele>1212.02</ele>
        <time>2021-03-27T17:09:15Z</time>
      </trkpt>
      <trkpt lat="41.955229" lon="-2.921048">
        <ele>1213.24</ele>
        <time>2021-03-27T17:09:20Z</time>
      </trkpt>
      <trkpt lat="41.955386" lon="-2.920878">
        <ele>1214.35</ele>
        <time>2021-03-27T17:09:25Z</time>
      </trkpt>
      <trkpt lat="41.957273" lon="-2.91973">
        <ele>1218.94</ele>
        <time>2021-03-27T17:09:29Z</time>
      </trkpt>
      <trkpt lat="41.957538" lon="-2.919689">
        <ele>1219.49</ele>
        <time>2021-03-27T17:09:34Z</time>
      </trkpt>
      <trkpt lat="41.958641" lon="-2.919786">
        <ele>1221.67</ele>
        <time>2021-03-27T17:09:39Z</time>
      </trkpt>
      <trkpt lat="41.968629" lon="-2.920916">
        <ele>1266.8</ele>
        <time>2021-03-27T17:09:44Z</time>
      </trkpt>
      <trkpt lat="41.968766" lon="-2.920897">
        <ele>1266.91</ele>
        <time>2021-03-27T17:09:49Z</time>
      </trkpt>
      <trkpt lat="41.968873" lon="-2.920846">
        <ele>1267.0</ele>
        <time>2021-03-27T17:09:54Z</time>
      </trkpt>
      <trkpt lat="41.968953" lon="-2.92077">
        <ele>1267.57</ele>
        <time>2021-03-27T17:09:59Z</time>
      </trkpt>
      <trkpt lat="41.969025" lon="-2.920662">
        <ele>1268.36</ele>
        <time>2021-03-27T17:10:04Z</time>
      </trkpt>
      <trkpt lat="41.969155" lon="-2.920348">
        <ele>1270.4</ele>
        <time>2021-03-27T17:10:08Z</time>
      </trkpt>
      <trkpt lat="41.969243" lon="-2.920065">
        <ele>1273.37</ele>
        <time>2021-03-27T17:10:13Z</time>
      </trkpt>
      <trkpt lat="41.969386" lon="-2.919739">
        <ele>1276.18</ele>
        <time>2021-03-27T17:10:18Z</time>
      </trkpt>
      <trkpt lat="41.969529" lon="-2.919549">
        <ele>1277.26</ele>
        <time>2021-03-27T17:10:23Z</time>
      </trkpt>
      <trkpt lat="41.970538" lon="-2.91881">
        <ele>1275.43</ele>
        <time>2021-03-27T17:10:28Z</time>
      </trkpt>
      <trkpt lat="41.970771" lon="-2.918669">
        <ele>1278.57</ele>
        <time>2021-03-27T17:10:33Z</time>
      </trkpt>
      <trkpt lat="41.970918" lon="-2.918635">
        <ele>1280.94</ele>
        <time>2021-03-27T17:10:38Z</time>
      </trkpt>
      <trkpt lat="41.97106" lon="-2.918644">
        <ele>1282.81</ele>
        <time>2021-03-27T17:10:43Z</time>
      </trkpt>
      <trkpt lat="41.971567" lon="-2.918762">
        <ele>1289.49</ele>
        <time>2021-03-27T17:10:48Z</time>
      </trkpt>
      <trkpt lat="41.971833" lon="-2.918783">
        <ele>1293.07</ele>
        <time>2021-03-27T17:10:52Z</time>
      </trkpt>
      <trkpt lat="41.972319" lon="-2.918785">
        <ele>1298.32</ele>
        <time>2021-03-27T17:10:57Z</time>
      </trkpt>
      <trkpt lat="41.972651" lon="-2.918682">
        <ele>1302.41</ele>
        <time>2021-03-27T17:11:02Z</time>
      </trkpt>
      <trkpt lat="41.97355" lon="-2.918251">
        <ele>1308.92</ele>
        <time>2021-03-27T17:11:07Z</time>
      </trkpt>
      <trkpt lat="41.974128" lon="-2.917799">
        <ele>1315.07</ele>
        <time>2021-03-27T17:11:12Z</time>
      </trkpt>
      <trkpt lat="41.974778" lon="-2.917391">
        <ele>1319.67</ele>
        <time>2021-03-27T17:11:17Z</time>
      </trkpt>
      <trkpt lat="41.974884" lon="-2.917256">
        <ele>1322.63</ele>
        <time>2021-03-27T17:11:22Z</time>
      </trkpt>
      <trkpt lat="41.975107" lon="-2.916858">
        <ele>1328.43</ele>
        <time>2021-03-27T17:11:27Z</time>
      </trkpt>
      <trkpt lat="41.975178" lon="-2.916767">
        <ele>1328.86</ele>
        <time>2021-03-27T17:11:31Z</time>
      </trkpt>
      <trkpt lat="41.975348" lon="-2.91673">
        <ele>1328.48</ele>
        <time>2021-03-27T17:11:36Z</time>
      </trkpt>
      <trkpt lat="41.975908" lon="-2.91675">
        <ele>1332.04</ele>
        <time>2021-03-27T17:11:41Z</time>
      </trkpt>
      <trkpt lat="41.976675" lon="-2.916612">
        <ele>1333.93</ele>
        <time>2021-03-27T17:11:46Z</time>
      </trkpt>
      <trkpt lat="41.977344" lon="-2.916274">
        <ele>1334.2</ele>
        <time>2021-03-27T17:11:51Z</time>
      </trkpt>
      <trkpt lat="41.978272" lon="-2.915715">
        <ele>1347.01</ele>
        <time>2021-03-27T17:11:56Z</time>
      </trkpt>
      <trkpt lat="41.978591" lon="-2.9156">
        <ele>1344.47</ele>
        <time>2021-03-27T17:12:01Z</time>
      </trkpt>
      <trkpt lat="41.978659" lon="-2.915529">
        <ele>1344.89</ele>
        <time>2021-03-27T17:12:06Z</time>
      </trkpt>
      <trkpt lat="41.978841" lon="-2.915178">
        <ele>1350.01</ele>
        <time>2021-03-27T17:12:10Z</time>
      </trkpt>
      <trkpt lat="41.978982" lon="-2.914954">
        <ele>1353.27</ele>
        <time>2021-03-27T17:12:15Z</time>
      </trkpt>
      <trkpt lat="41.979164" lon="-2.914858">
        <ele>1353.6</ele>
        <time>2021-03-27T17:12:20Z</time>
      </trkpt>
      <trkpt lat="41.979368" lon="-2.91482">
        <ele>1353.15</ele>
        <time>2021-03-27T17:12:25Z</time>
      </trkpt>
      <trkpt lat="41.979476" lon="-2.914775">
        <ele>1353.34</ele>
        <time>2021-03-27T17:12:30Z</time>
      </trkpt>
      <trkpt lat="41.980042" lon="-2.914203">
        <ele>1358.94</ele>
        <time>2021-03-27T17:12:35Z</time>
      </trkpt>
      <trkpt lat="41.980512" lon="-2.91383">
        <ele>1361.46</ele>
        <time>2021-03-27T17:12:40Z</time>
      </trkpt>
      <trkpt lat="41.980623" lon="-2.913768">
        <ele>1360.68</ele>
        <time>2021-03-27T17:12:45Z</time>
      </trkpt>
      <trkpt lat="41.980716" lon="-2.913745">
        <ele>1358.8</ele>
        <time>2021-03-27T17:12:49Z</time>
      </trkpt>
      <trkpt lat="41.981285" lon="-2.913733">
        <ele>1362.66</ele>
        <time>2021-03-27T17:12:54Z</time>
      </trkpt>
      <trkpt lat="41.981703" lon="-2.91368">
        <ele>1367.92</ele>
        <time>2021-03-27T17:12:59Z</time>
      </trkpt>
      <trkpt lat="41.982409" lon="-2.913525">
        <ele>1370.7</ele>
        <time>2021-03-27T17:13:04Z</time>
      </trkpt>
      <trkpt lat="41.983677" lon="-2.913208">
        <ele>1374.62</ele>
        <time>2021-03-27T17:13:09Z</time>
      </trkpt>
      <trkpt lat="41.984068" lon="-2.912974">
        <ele>1392.36</ele>
        <time>2021-03-27T17:13:14Z</time>
      </trkpt>
      <trkpt lat="41.984155" lon="-2.912941">
        <ele>1394.46</ele>
        <time>2021-03-27T17:13:19Z</time>
      </trkpt>
      <trkpt lat="41.984228" lon="-2.912943">
        <ele>1395.59</ele>
        <time>2021-03-27T17:13:24Z</time>
      </trkpt>
      <trkpt lat="41.98434" lon="-2.913017">
        <ele>1396.13</ele>
        <time>2021-03-27T17:13:28Z</time>
      </trkpt>
      <trkpt lat="41.984496" lon="-2.913206">
        <ele>1395.59</ele>
        <time>2021-03-27T17:13:33Z</time>
      </trkpt>
      <trkpt lat="41.985185" lon="-2.913804">
        <ele>1398.49</ele>
        <time>2021-03-27T17:13:38Z</time>
      </trkpt>
      <trkpt lat="41.985409" lon="-2.913902">
        <ele>1399.13</ele>
        <time>2021-03-27T17:13:43Z</time>
      </trkpt>
      <trkpt lat="41.985719" lon="-2.913914">
        <ele>1401.04</ele>
        <time>2021-03-27T17:13:48Z</time>
      </trkpt>
      <trkpt lat="41.985893" lon="-2.913842">
        <ele>1403.63</ele>
        <time>2021-03-27T17:13:53Z</time>
      </trkpt>
      <trkpt lat="41.986084" lon="-2.913492">
        <ele>1408.13</ele>
        <time>2021-03-27T17:13:58Z</time>
      </trkpt>
      <trkpt lat="41.986153" lon="-2.913411">
        <ele>1408.44</ele>
        <time>2021-03-27T17:14:03Z</time>
      </trkpt>
      <trkpt lat="41.986293" lon="-2.913377">
        <ele>1408.68</ele>
        <time>2021-03-27T17:14:07Z</time>
      </trkpt>
      <trkpt lat="41.986556" lon="-2.913375">
        <ele>1410.32</ele>
        <time>2021-03-27T17:14:12Z</time>
      </trkpt>
      <trkpt lat="41.986721" lon="-2.913425">
        <ele>1411.26</ele>
        <time>2021-03-27T17:14:17Z</time>
      </trkpt>
      <trkpt lat="41.986804" lon="-2.913492">
        <ele>1411.2</ele>
        <time>2021-03-27T17:14:22Z</time>
      </trkpt>
      <trkpt lat="41.986871" lon="-2.913511">
        <ele>1411.65</ele>
        <time>2021-03-27T17:14:27Z</time>
      </trkpt>
      <trkpt lat="41.987103" lon="-2.913501">
        <ele>1414.3</ele>
        <time>2021-03-27T17:14:32Z</time>
      </trkpt>
      <trkpt lat="41.98733" lon="-2.913439">
        <ele>1417.94</ele>
        <time>2021-03-27T17:14:37Z</time>
      </trkpt>
      <trkpt lat="41.987556" lon="-2.913423">
        <ele>1421.5</ele>
        <time>2021-03-27T17:14:42Z</time>
      </trkpt>
      <trkpt lat="41.987689" lon="-2.91347">
        <ele>1423.76</ele>
        <time>2021-03-27T17:14:46Z</time>
      </trkpt>
      <trkpt lat="41.987855" lon="-2.913628">
        <ele>1425.4</ele>
        <time>2021-03-27T17:14:51Z</time>
      </trkpt>
      <trkpt lat="41.989058" lon="-2.913799">
        <ele>1440.11</ele>
        <time>2021-03-27T17:14:56Z</time>
      </trkpt>
      <trkpt lat="41.989584" lon="-2.914083">
        <ele>1439.81</ele>
        <time>2021-03-27T17:15:01Z</time>
      </trkpt>
      <trkpt lat="41.989852" lon="-2.91414">
        <ele>1440.85</ele>
        <time>2021-03-27T17:15:06Z</time>
      </trkpt>
      <trkpt lat="41.990325" lon="-2.914072">
        <ele>1445.85</ele>
        <time>2021-03-27T17:15:11Z</time>
      </trkpt>
      <trkpt lat="41.990581" lon="-2.913983">
        <ele>1447.93</ele>
        <time>2021-03-27T17:15:16Z</time>
      </trkpt>
      <trkpt lat="41.990904" lon="-2.913413">
        <ele>1448.8</ele>
        <time>2021-03-27T17:15:21Z</time>
      </trkpt>
      <trkpt lat="41.991099" lon="-2.913305">
        <ele>1446.92</ele>
        <time>2021-03-27T17:15:25Z</time>
      </trkpt>
      <trkpt lat="41.991534" lon="-2.913225">
        <ele>1449.56</ele>
        <time>2021-03-27T17:15:30Z</time>
      </trkpt>
      <trkpt lat="41.992024" lon="-2.913027">
        <ele>1456.59</ele>
        <time>2021-03-27T17:15:35Z</time>
      </trkpt>
      <trkpt lat="41.992666" lon="-2.91257">
        <ele>1461.22</ele>
        <time>2021-03-27T17:15:40Z</time>
      </trkpt>
      <trkpt lat="41.993447" lon="-2.911837">
        <ele>1470.93</ele>
        <time>2021-03-27T17:15:45Z</time>
      </trkpt>
      <trkpt lat="41.994098" lon="-2.911169">
        <ele>1475.07</ele>
        <time>2021-03-27T17:15:50Z</time>
      </trkpt>
      <trkpt lat="41.994167" lon="-2.911125">
        <ele>1474.7</ele>
        <time>2021-03-27T17:15:55Z</time>
      </trkpt>
      <trkpt lat="41.994234" lon="-2.911123">
        <ele>1474.77</ele>
        <time>2021-03-27T17:16:00Z</time>
      </trkpt>
      <trkpt lat="41.994345" lon="-2.91124">
        <ele>1473.11</ele>
        <time>2021-03-27T17:16:05Z</time>
      </trkpt>
      <trkpt lat="41.994361" lon="-2.911315">
        <ele>1472.13</ele>
        <time>2021-03-27T17:16:09Z</time>
      </trkpt>
      <trkpt lat="41.994352" lon="-2.911747">
        <ele>1469.57</ele>
        <time>2021-03-27T17:16:14Z</time>
      </trkpt>
      <trkpt lat="41.994387" lon="-2.911992">
        <ele>1470.28</ele>
        <time>2021-03-27T17:16:19Z</time>
      </trkpt>
      <trkpt lat="41.994673" lon="-2.912765">
        <ele>1476.07</ele>
        <time>2021-03-27T17:16:24Z</time>
      </trkpt>
      <trkpt lat="41.994784" lon="-2.912941">
        <ele>1475.98</ele>
        <time>2021-03-27T17:16:29Z</time>
      </trkpt>
      <trkpt lat="41.9949" lon="-2.913017">
        <ele>1477.38</ele>
        <time>2021-03-27T17:16:34Z</time>
      </trkpt>
      <trkpt lat="41.995015" lon="-2.913">
        <ele>1480.0</ele>
        <time>2021-03-27T17:16:39Z</time>
      </trkpt>
      <trkpt lat="41.995057" lon="-2.91296">
        <ele>1481.06</ele>
        <time>2021-03-27T17:16:44Z</time>
      </trkpt>
      <trkpt lat="41.995174" lon="-2.912758">
        <ele>1484.48</ele>
        <time>2021-03-27T17:16:48Z</time>
      </trkpt>
      <trkpt lat="41.995311" lon="-2.912575">
        <ele>1487.31</ele>
        <time>2021-03-27T17:16:53Z</time>
      </trkpt>
      <trkpt lat="41.995443" lon="-2.91254">
        <ele>1488.17</ele>
        <time>2021-03-27T17:16:58Z</time>
      </trkpt>
      <trkpt lat="41.995546" lon="-2.912557">
        <ele>1488.35</ele>
        <time>2021-03-27T17:17:03Z</time>
      </trkpt>
      <trkpt lat="41.995805" lon="-2.912644">
        <ele>1491.46</ele>
        <time>2021-03-27T17:17:08Z</time>
      </trkpt>
      <trkpt lat="41.995903" lon="-2.912749">
        <ele>1491.67</ele>
        <time>2021-03-27T17:17:13Z</time>
      </trkpt>
      <trkpt lat="41.995927" lon="-2.912847">
        <ele>1491.94</ele>
        <time>2021-03-27T17:17:18Z</time>
      </trkpt>
      <trkpt lat="41.995896" lon="-2.912993">
        <ele>1491.91</ele>
        <time>2021-03-27T17:17:23Z</time>
      </trkpt>
      <trkpt lat="41.995699" lon="-2.913339">
        <ele>1490.69</ele>
        <time>2021-03-27T17:17:27Z</time>
      </trkpt>
      <trkpt lat="41.995626" lon="-2.91356">
        <ele>1491.43</ele>
        <time>2021-03-27T17:17:32Z</time>
      </trkpt>
      <trkpt lat="41.995597" lon="-2.913772">
        <ele>1493.59</ele>
        <time>2021-03-27T17:17:37Z</time>
      </trkpt>
      <trkpt lat="41.995634" lon="-2.914036">
        <ele>1498.75</ele>
        <time>2021-03-27T17:17:42Z</time>
      </trkpt>
      <trkpt lat="41.995617" lon="-2.914193">
        <ele>1500.5</ele>
        <time>2021-03-27T17:17:47Z</time>
      </trkpt>
      <trkpt lat="41.99557" lon="-2.914282">
        <ele>1500.12</ele>
        <time>2021-03-27T17:17:52Z</time>
      </trkpt>
      <trkpt lat="41.995526" lon="-2.914323">
        <ele>1499.57</ele>
        <time>2021-03-27T17:17:57Z</time>
      </trkpt>
      <trkpt lat="41.995345" lon="-2.914449">
        <ele>1497.97</ele>
        <time>2021-03-27T17:18:02Z</time>
      </trkpt>
      <trkpt lat="41.995286" lon="-2.914571">
        <ele>1497.54</ele>
        <time>2021-03-27T17:18:06Z</time>
      </trkpt>
      <trkpt lat="41.99528" lon="-2.914659">
        <ele>1497.79</ele>
        <time>2021-03-27T17:18:11Z</time>
      </trkpt>
      <trkpt lat="41.995339" lon="-2.914755">
        <ele>1497.82</ele>
        <time>2021-03-27T17:18:16Z</time>
      </trkpt>
      <trkpt lat="41.995405" lon="-2.914786">
        <ele>1497.85</ele>
        <time>2021-03-27T17:18:21Z</time>
      </trkpt>
      <trkpt lat="41.995666" lon="-2.914775">
        <ele>1501.2</ele>
        <time>2021-03-27T17:18:26Z</time>
      </trkpt>
      <trkpt lat="41.995765" lon="-2.914811">
        <ele>1503.21</ele>
        <time>2021-03-27T17:18:31Z</time>
      </trkpt>
      <trkpt lat="41.995842" lon="-2.914964">
        <ele>1504.42</ele>
        <time>2021-03-27T17:18:36Z</time>
      </trkpt>
      <trkpt lat="41.995852" lon="-2.915048">
        <ele>1504.76</ele>
        <time>2021-03-27T17:18:41Z</time>
      </trkpt>
      <trkpt lat="41.995841" lon="-2.915243">
        <ele>1505.08</ele>
        <time>2021-03-27T17:18:45Z</time>
      </trkpt>
      <trkpt lat="41.995811" lon="-2.915348">
        <ele>1504.95</ele>
        <time>2021-03-27T17:18:50Z</time>
      </trkpt>
      <trkpt lat="41.995703" lon="-2.915529">
        <ele>1503.94</ele>
        <time>2021-03-27T17:18:55Z</time>
      </trkpt>
      <trkpt lat="41.994887" lon="-2.916529">
        <ele>1509.62</ele>
        <time>2021-03-27T17:19:00Z</time>
      </trkpt>
      <trkpt lat="41.994626" lon="-2.916858">
        <ele>1512.17</ele>
        <time>2021-03-27T17:19:05Z</time>
      </trkpt>
      <trkpt lat="41.994551" lon="-2.916973">
        <ele>1513.23</ele>
        <time>2021-03-27T17:19:10Z</time>
      </trkpt>
      <trkpt lat="41.994474" lon="-2.917212">
        <ele>1516.17</ele>
        <time>2021-03-27T17:19:15Z</time>
      </trkpt>
      <trkpt lat="41.994414" lon="-2.917704">
        <ele>1520.13</ele>
        <time>2021-03-27T17:19:20Z</time>
      </trkpt>
      <trkpt lat="41.994385" lon="-2.918101">
        <ele>1526.44</ele>
        <time>2021-03-27T17:19:24Z</time>
      </trkpt>
      <trkpt lat="41.994391" lon="-2.918274">
        <ele>1530.04</ele>
        <time>2021-03-27T17:19:29Z</time>
      </trkpt>
      <trkpt lat="41.994418" lon="-2.918416">
        <ele>1532.14</ele>
        <time>2021-03-27T17:19:34Z</time>
      </trkpt>
      <trkpt lat="41.994607" lon="-2.918965">
        <ele>1530.8</ele>
        <time>2021-03-27T17:19:39Z</time>
      </trkpt>
      <trkpt lat="41.995138" lon="-2.920655">
        <ele>1541.48</ele>
        <time>2021-03-27T17:19:44Z</time>
      </trkpt>
      <trkpt lat="41.995182" lon="-2.920992">
        <ele>1542.08</ele>
        <time>2021-03-27T17:19:49Z</time>
      </trkpt>
      <trkpt lat="41.995217" lon="-2.921089">
        <ele>1542.71</ele>
        <time>2021-03-27T17:19:54Z</time>
      </trkpt>
      <trkpt lat="41.99536" lon="-2.921325">
        <ele>1546.97</ele>
        <time>2021-03-27T17:19:59Z</time>
      </trkpt>
      <trkpt lat="41.995384" lon="-2.921392">
        <ele>1547.68</ele>
        <time>2021-03-27T17:20:03Z</time>
      </trkpt>
      <trkpt lat="41.995396" lon="-2.921482">
        <ele>1547.98</ele>
        <time>2021-03-27T17:20:08Z</time>
      </trkpt>
      <trkpt lat="41.995333" lon="-2.921855">
        <ele>1546.93</ele>
        <time>2021-03-27T17:20:13Z</time>
      </trkpt>
      <trkpt lat="41.995341" lon="-2.921949">
        <ele>1547.36</ele>
        <time>2021-03-27T17:20:18Z</time>
      </trkpt>
      <trkpt lat="41.99537" lon="-2.922033">
        <ele>1547.79</ele>
        <time>2021-03-27T17:20:23Z</time>
      </trkpt>
      <trkpt lat="41.995458" lon="-2.922141">
        <ele>1548.98</ele>
        <time>2021-03-27T17:20:28Z</time>
      </trkpt>
      <trkpt lat="41.995725" lon="-2.922335">
        <ele>1553.54</ele>
        <time>2021-03-27T17:20:33Z</time>
      </trkpt>
      <trkpt lat="41.995844" lon="-2.922514">
        <ele>1556.03</ele>
        <time>2021-03-27T17:20:38Z</time>
      </trkpt>
      <trkpt lat="41.996011" lon="-2.922986">
        <ele>1558.83</ele>
        <time>2021-03-27T17:20:43Z</time>
      </trkpt>
      <trkpt lat="41.996005" lon="-2.92307">
        <ele>1558.64</ele>
        <time>2021-03-27T17:20:47Z</time>
      </trkpt>
      <trkpt lat="41.995954" lon="-2.923191">
        <ele>1558.01</ele>
        <time>2021-03-27T17:20:52Z</time>
      </trkpt>
      <trkpt lat="41.995855" lon="-2.923267">
        <ele>1556.52</ele>
        <time>2021-03-27T17:20:57Z</time>
      </trkpt>
      <trkpt lat="41.995764" lon="-2.923283">
        <ele>1555.9</ele>
        <time>2021-03-27T17:21:02Z</time>
      </trkpt>
      <trkpt lat="41.995385" lon="-2.923278">
        <ele>1554.85</ele>
        <time>2021-03-27T17:21:07Z</time>
      </trkpt>
      <trkpt lat="41.993281" lon="-2.923372">
        <ele>1552.99</ele>
        <time>2021-03-27T17:21:12Z</time>
      </trkpt>
      <trkpt lat="41.992976" lon="-2.923333">
        <ele>1552.85</ele>
        <time>2021-03-27T17:21:17Z</time>
      </trkpt>
      <trkpt lat="41.991466" lon="-2.922745">
        <ele>1555.22</ele>
        <time>2021-03-27T17:21:22Z</time>
      </trkpt>
      <trkpt lat="41.990993" lon="-2.922526">
        <ele>1555.07</ele>
        <time>2021-03-27T17:21:26Z</time>
      </trkpt>
      <trkpt lat="41.990149" lon="-2.922084">
        <ele>1550.27</ele>
        <time>2021-03-27T17:21:31Z</time>
      </trkpt>
      <trkpt lat="41.989616" lon="-2.921701">
        <ele>1554.85</ele>
        <time>2021-03-27T17:21:36Z</time>
      </trkpt>
      <trkpt lat="41.988965" lon="-2.921397">
        <ele>1552.74</ele>
        <time>2021-03-27T17:21:41Z</time>
      </trkpt>
      <trkpt lat="41.988762" lon="-2.921352">
        <ele>1550.1</ele>
        <time>2021-03-27T17:21:46Z</time>
      </trkpt>
      <trkpt lat="41.988607" lon="-2.921407">
        <ele>1546.98</ele>
        <time>2021-03-27T17:21:51Z</time>
      </trkpt>
      <trkpt lat="41.988528" lon="-2.921473">
        <ele>1545.81</ele>
        <time>2021-03-27T17:21:56Z</time>
      </trkpt>
      <trkpt lat="41.988399" lon="-2.921655">
        <ele>1543.98</ele>
        <time>2021-03-27T12:46:52Z</time>
      </trkpt>
      <trkpt lat="41.988528" lon="-2.921473">
        <ele>1545.81</ele>
        <time>2021-03-27T12:46:56Z</time>
      </trkpt>
      <trkpt lat="41.988607" lon="-2.921407">
        <ele>1546.98</ele>
        <time>2021-03-27T12:47:01Z</time>
      </trkpt>
      <trkpt lat="41.988762" lon="-2.921352">
        <ele>1550.1</ele>
        <time>2021-03-27T12:47:05Z</time>
      </trkpt>
      <trkpt lat="41.988965" lon="-2.921397">
        <ele>1552.74</ele>
        <time>2021-03-27T12:47:10Z</time>
      </trkpt>
      <trkpt lat="41.989616" lon="-2.921701">
        <ele>1554.85</ele>
        <time>2021-03-27T12:47:15Z</time>
      </trkpt>
      <trkpt lat="41.990149" lon="-2.922084">
        <ele>1550.27</ele>
        <time>2021-03-27T12:47:19Z</time>
      </trkpt>
      <trkpt lat="41.990993" lon="-2.922526">
        <ele>1555.07</ele>
        <time>2021-03-27T12:47:24Z</time>
      </trkpt>
      <trkpt lat="41.991466" lon="-2.922745">
        <ele>1555.22</ele>
        <time>2021-03-27T12:47:29Z</time>
      </trkpt>
      <trkpt lat="41.992976" lon="-2.923333">
        <ele>1552.85</ele>
        <time>2021-03-27T12:47:33Z</time>
      </trkpt>
      <trkpt lat="41.993281" lon="-2.923372">
        <ele>1552.99</ele>
        <time>2021-03-27T12:47:38Z</time>
      </trkpt>
      <trkpt lat="41.995385" lon="-2.923278">
        <ele>1554.85</ele>
        <time>2021-03-27T12:47:42Z</time>
      </trkpt>
      <trkpt lat="41.995764" lon="-2.923283">
        <ele>1555.9</ele>
        <time>2021-03-27T12:47:47Z</time>
      </trkpt>
      <trkpt lat="41.995855" lon="-2.923267">
        <ele>1556.52</ele>
        <time>2021-03-27T12:47:52Z</time>
      </trkpt>
      <trkpt lat="41.995954" lon="-2.923191">
        <ele>1558.01</ele>
        <time>2021-03-27T12:47:56Z</time>
      </trkpt>
      <trkpt lat="41.996005" lon="-2.92307">
        <ele>1558.64</ele>
        <time>2021-03-27T12:48:01Z</time>
      </trkpt>
      <trkpt lat="41.996011" lon="-2.922986">
        <ele>1558.83</ele>
        <time>2021-03-27T12:48:06Z</time>
      </trkpt>
      <trkpt lat="41.995844" lon="-2.922514">
        <ele>1556.03</ele>
        <time>2021-03-27T12:48:10Z</time>
      </trkpt>
      <trkpt lat="41.995725" lon="-2.922335">
        <ele>1553.54</ele>
        <time>2021-03-27T12:48:15Z</time>
      </trkpt>
      <trkpt lat="41.995458" lon="-2.922141">
        <ele>1548.98</ele>
        <time>2021-03-27T12:48:20Z</time>
      </trkpt>
      <trkpt lat="41.99537" lon="-2.922033">
        <ele>1547.79</ele>
        <time>2021-03-27T12:48:24Z</time>
      </trkpt>
      <trkpt lat="41.995341" lon="-2.921949">
        <ele>1547.36</ele>
        <time>2021-03-27T12:48:29Z</time>
      </trkpt>
      <trkpt lat="41.995333" lon="-2.921855">
        <ele>1546.93</ele>
        <time>2021-03-27T12:48:33Z</time>
      </trkpt>
      <trkpt lat="41.995396" lon="-2.921482">
        <ele>1547.98</ele>
        <time>2021-03-27T12:48:38Z</time>
      </trkpt>
      <trkpt lat="41.995384" lon="-2.921392">
        <ele>1547.68</ele>
        <time>2021-03-27T12:48:43Z</time>
      </trkpt>
      <trkpt lat="41.99536" lon="-2.921325">
        <ele>1546.97</ele>
        <time>2021-03-27T12:48:47Z</time>
      </trkpt>
      <trkpt lat="41.995217" lon="-2.921089">
        <ele>1542.71</ele>
        <time>2021-03-27T12:48:52Z</time>
      </trkpt>
      <trkpt lat="41.995182" lon="-2.920992">
        <ele>1542.08</ele>
        <time>2021-03-27T12:48:57Z</time>
      </trkpt>
      <trkpt lat="41.995138" lon="-2.920655">
        <ele>1541.48</ele>
        <time>2021-03-27T12:49:01Z</time>
      </trkpt>
      <trkpt lat="41.994607" lon="-2.918965">
        <ele>1530.8</ele>
        <time>2021-03-27T12:49:06Z</time>
      </trkpt>
      <trkpt lat="41.994418" lon="-2.918416">
        <ele>1532.14</ele>
        <time>2021-03-27T12:49:10Z</time>
      </trkpt>
      <trkpt lat="41.994391" lon="-2.918274">
        <ele>1530.04</ele>
        <time>2021-03-27T12:49:15Z</time>
      </trkpt>
      <trkpt lat="41.994385" lon="-2.918101">
        <ele>1526.44</ele>
        <time>2021-03-27T12:49:20Z</time>
      </trkpt>
      <trkpt lat="41.994414" lon="-2.917704">
        <ele>1520.13</ele>
        <time>2021-03-27T12:49:24Z</time>
      </trkpt>
      <trkpt lat="41.994474" lon="-2.917212">
        <ele>1516.17</ele>
        <time>2021-03-27T12:49:29Z</time>
      </trkpt>
      <trkpt lat="41.994551" lon="-2.916973">
        <ele>1513.23</ele>
        <time>2021-03-27T12:49:34Z</time>
      </trkpt>
      <trkpt lat="41.994626" lon="-2.916858">
        <ele>1512.17</ele>
        <time>2021-03-27T12:49:38Z</time>
      </trkpt>
      <trkpt lat="41.994887" lon="-2.916529">
        <ele>1509.62</ele>
        <time>2021-03-27T12:49:43Z</time>
      </trkpt>
      <trkpt lat="41.995703" lon="-2.915529">
        <ele>1503.94</ele>
        <time>2021-03-27T12:49:48Z</time>
      </trkpt>
      <trkpt lat="41.995811" lon="-2.915348">
        <ele>1504.95</ele>
        <time>2021-03-27T12:49:52Z</time>
      </trkpt>
      <trkpt lat="41.995841" lon="-2.915243">
        <ele>1505.08</ele>
        <time>2021-03-27T12:49:57Z</time>
      </trkpt>
      <trkpt lat="41.995852" lon="-2.915048">
        <ele>1504.76</ele>
        <time>2021-03-27T12:50:01Z</time>
      </trkpt>
      <trkpt lat="41.995842" lon="-2.914964">
        <ele>1504.42</ele>
        <time>2021-03-27T12:50:06Z</time>
      </trkpt>
      <trkpt lat="41.995765" lon="-2.914811">
        <ele>1503.21</ele>
        <time>2021-03-27T12:50:11Z</time>
      </trkpt>
      <trkpt lat="41.995666" lon="-2.914775">
        <ele>1501.2</ele>
        <time>2021-03-27T12:50:15Z</time>
      </trkpt>
      <trkpt lat="41.995405" lon="-2.914786">
        <ele>1497.85</ele>
        <time>2021-03-27T12:50:20Z</time>
      </trkpt>
      <trkpt lat="41.995339" lon="-2.914755">
        <ele>1497.82</ele>
        <time>2021-03-27T12:50:25Z</time>
      </trkpt>
      <trkpt lat="41.99528" lon="-2.914659">
        <ele>1497.79</ele>
        <time>2021-03-27T12:50:29Z</time>
      </trkpt>
      <trkpt lat="41.995286" lon="-2.914571">
        <ele>1497.54</ele>
        <time>2021-03-27T12:50:34Z</time>
      </trkpt>
      <trkpt lat="41.995345" lon="-2.914449">
        <ele>1497.97</ele>
        <time>2021-03-27T12:50:38Z</time>
      </trkpt>
      <trkpt lat="41.995526" lon="-2.914323">
        <ele>1499.57</ele>
        <time>2021-03-27T12:50:43Z</time>
      </trkpt>
      <trkpt lat="41.99557" lon="-2.914282">
        <ele>1500.12</ele>
        <time>2021-03-27T12:50:48Z</time>
      </trkpt>
      <trkpt lat="41.995617" lon="-2.914193">
        <ele>1500.5</ele>
        <time>2021-03-27T12:50:52Z</time>
      </trkpt>
      <trkpt lat="41.995634" lon="-2.914036">
        <ele>1498.75</ele>
        <time>2021-03-27T12:50:57Z</time>
      </trkpt>
      <trkpt lat="41.995597" lon="-2.913772">
        <ele>1493.59</ele>
        <time>2021-03-27T12:51:02Z</time>
      </trkpt>
      <trkpt lat="41.995626" lon="-2.91356">
        <ele>1491.43</ele>
        <time>2021-03-27T12:51:06Z</time>
      </trkpt>
      <trkpt lat="41.995699" lon="-2.913339">
        <ele>1490.69</ele>
        <time>2021-03-27T12:51:11Z</time>
      </trkpt>
      <trkpt lat="41.995896" lon="-2.912993">
        <ele>1491.91</ele>
        <time>2021-03-27T12:51:15Z</time>
      </trkpt>
      <trkpt lat="41.995927" lon="-2.912847">
        <ele>1491.94</ele>
        <time>2021-03-27T12:51:20Z</time>
      </trkpt>
      <trkpt lat="41.995903" lon="-2.912749">
        <ele>1491.67</ele>
        <time>2021-03-27T12:51:25Z</time>
      </trkpt>
      <trkpt lat="41.995805" lon="-2.912644">
        <ele>1491.46</ele>
        <time>2021-03-27T12:51:29Z</time>
      </trkpt>
      <trkpt lat="41.995546" lon="-2.912557">
        <ele>1488.35</ele>
        <time>2021-03-27T12:51:34Z</time>
      </trkpt>
      <trkpt lat="41.995443" lon="-2.91254">
        <ele>1488.17</ele>
        <time>2021-03-27T12:51:39Z</time>
      </trkpt>
      <trkpt lat="41.995311" lon="-2.912575">
        <ele>1487.31</ele>
        <time>2021-03-27T12:51:43Z</time>
      </trkpt>
      <trkpt lat="41.995174" lon="-2.912758">
        <ele>1484.48</ele>
        <time>2021-03-27T12:51:48Z</time>
      </trkpt>
      <trkpt lat="41.995057" lon="-2.91296">
        <ele>1481.06</ele>
        <time>2021-03-27T12:51:53Z</time>
      </trkpt>
      <trkpt lat="41.995015" lon="-2.913">
        <ele>1480.0</ele>
        <time>2021-03-27T12:51:57Z</time>
      </trkpt>
      <trkpt lat="41.9949" lon="-2.913017">
        <ele>1477.38</ele>
        <time>2021-03-27T12:52:02Z</time>
      </trkpt>
      <trkpt lat="41.994784" lon="-2.912941">
        <ele>1475.98</ele>
        <time>2021-03-27T12:52:06Z</time>
      </trkpt>
      <trkpt lat="41.994673" lon="-2.912765">
        <ele>1476.07</ele>
        <time>2021-03-27T12:52:11Z</time>
      </trkpt>
      <trkpt lat="41.994387" lon="-2.911992">
        <ele>1470.28</ele>
        <time>2021-03-27T12:52:16Z</time>
      </trkpt>
      <trkpt lat="41.994352" lon="-2.911747">
        <ele>1469.57</ele>
        <time>2021-03-27T12:52:20Z</time>
      </trkpt>
      <trkpt lat="41.994361" lon="-2.911315">
        <ele>1472.13</ele>
        <time>2021-03-27T12:52:25Z</time>
      </trkpt>
      <trkpt lat="41.994345" lon="-2.91124">
        <ele>1473.11</ele>
        <time>2021-03-27T12:52:30Z</time>
      </trkpt>
      <trkpt lat="41.994234" lon="-2.911123">
        <ele>1474.77</ele>
        <time>2021-03-27T12:52:34Z</time>
      </trkpt>
      <trkpt lat="41.994167" lon="-2.911125">
        <ele>1474.7</ele>
        <time>2021-03-27T12:52:39Z</time>
      </trkpt>
      <trkpt lat="41.994098" lon="-2.911169">
        <ele>1475.07</ele>
        <time>2021-03-27T12:52:43Z</time>
      </trkpt>
      <trkpt lat="41.993447" lon="-2.911837">
        <ele>1470.93</ele>
        <time>2021-03-27T12:52:48Z</time>
      </trkpt>
      <trkpt lat="41.992666" lon="-2.91257">
        <ele>1461.22</ele>
        <time>2021-03-27T12:52:53Z</time>
      </trkpt>
      <trkpt lat="41.992024" lon="-2.913027">
        <ele>1456.59</ele>
        <time>2021-03-27T12:52:57Z</time>
      </trkpt>
      <trkpt lat="41.991534" lon="-2.913225">
        <ele>1449.56</ele>
        <time>2021-03-27T12:53:02Z</time>
      </trkpt>
      <trkpt lat="41.991099" lon="-2.913305">
        <ele>1446.92</ele>
        <time>2021-03-27T12:53:07Z</time>
      </trkpt>
      <trkpt lat="41.990904" lon="-2.913413">
        <ele>1448.8</ele>
        <time>2021-03-27T12:53:11Z</time>
      </trkpt>
      <trkpt lat="41.990581" lon="-2.913983">
        <ele>1447.93</ele>
        <time>2021-03-27T12:53:16Z</time>
      </trkpt>
      <trkpt lat="41.990325" lon="-2.914072">
        <ele>1445.85</ele>
        <time>2021-03-27T12:53:21Z</time>
      </trkpt>
      <trkpt lat="41.989852" lon="-2.91414">
        <ele>1440.85</ele>
        <time>2021-03-27T12:53:25Z</time>
      </trkpt>
      <trkpt lat="41.989584" lon="-2.914083">
        <ele>1439.81</ele>
        <time>2021-03-27T12:53:30Z</time>
      </trkpt>
      <trkpt lat="41.989058" lon="-2.913799">
        <ele>1440.11</ele>
        <time>2021-03-27T12:53:34Z</time>
      </trkpt>
      <trkpt lat="41.987855" lon="-2.913628">
        <ele>1425.4</ele>
        <time>2021-03-27T12:53:39Z</time>
      </trkpt>
      <trkpt lat="41.987689" lon="-2.91347">
        <ele>1423.76</ele>
        <time>2021-03-27T12:53:44Z</time>
      </trkpt>
      <trkpt lat="41.987556" lon="-2.913423">
        <ele>1421.5</ele>
        <time>2021-03-27T12:53:48Z</time>
      </trkpt>
      <trkpt lat="41.98733" lon="-2.913439">
        <ele>1417.94</ele>
        <time>2021-03-27T12:53:53Z</time>
      </trkpt>
      <trkpt lat="41.987103" lon="-2.913501">
        <ele>1414.3</ele>
        <time>2021-03-27T12:53:58Z</time>
      </trkpt>
      <trkpt lat="41.986871" lon="-2.913511">
        <ele>1411.65</ele>
        <time>2021-03-27T12:54:02Z</time>
      </trkpt>
      <trkpt lat="41.986804" lon="-2.913492">
        <ele>1411.2</ele>
        <time>2021-03-27T12:54:07Z</time>
      </trkpt>
      <trkpt lat="41.986721" lon="-2.913425">
        <ele>1411.26</ele>
        <time>2021-03-27T12:54:11Z</time>
      </trkpt>
      <trkpt lat="41.986556" lon="-2.913375">
        <ele>1410.32</ele>
        <time>2021-03-27T12:54:16Z</time>
      </trkpt>
      <trkpt lat="41.986293" lon="-2.913377">
        <ele>1408.68</ele>
        <time>2021-03-27T12:54:21Z</time>
      </trkpt>
      <trkpt lat="41.986153" lon="-2.913411">
        <ele>1408.44</ele>
        <time>2021-03-27T12:54:25Z</time>
      </trkpt>
      <trkpt lat="41.986084" lon="-2.913492">
        <ele>1408.13</ele>
        <time>2021-03-27T12:54:30Z</time>
      </trkpt>
      <trkpt lat="41.985893" lon="-2.913842">
        <ele>1403.63</ele>
        <time>2021-03-27T12:54:35Z</time>
      </trkpt>
      <trkpt lat="41.985719" lon="-2.913914">
        <ele>1401.04</ele>
        <time>2021-03-27T12:54:39Z</time>
      </trkpt>
      <trkpt lat="41.985409" lon="-2.913902">
        <ele>1399.13</ele>
        <time>2021-03-27T12:54:44Z</time>
      </trkpt>
      <trkpt lat="41.985185" lon="-2.913804">
        <ele>1398.49</ele>
        <time>2021-03-27T12:54:49Z</time>
      </trkpt>
      <trkpt lat="41.984496" lon="-2.913206">
        <ele>1395.59</ele>
        <time>2021-03-27T12:54:53Z</time>
      </trkpt>
      <trkpt lat="41.98434" lon="-2.913017">
        <ele>1396.13</ele>
        <time>2021-03-27T12:54:58Z</time>
      </trkpt>
      <trkpt lat="41.984228" lon="-2.912943">
        <ele>1395.59</ele>
        <time>2021-03-27T12:55:02Z</time>
      </trkpt>
      <trkpt lat="41.984155" lon="-2.912941">
        <ele>1394.46</ele>
        <time>2021-03-27T12:55:07Z</time>
      </trkpt>
      <trkpt lat="41.984068" lon="-2.912974">
        <ele>1392.36</ele>
        <time>2021-03-27T12:55:12Z</time>
      </trkpt>
      <trkpt lat="41.983677" lon="-2.913208">
        <ele>1374.62</ele>
        <time>2021-03-27T12:55:16Z</time>
      </trkpt>
      <trkpt lat="41.982409" lon="-2.913525">
        <ele>1370.7</ele>
        <time>2021-03-27T12:55:21Z</time>
      </trkpt>
      <trkpt lat="41.981703" lon="-2.91368">
        <ele>1367.92</ele>
        <time>2021-03-27T12:55:26Z</time>
      </trkpt>
      <trkpt lat="41.981285" lon="-2.913733">
        <ele>1362.66</ele>
        <time>2021-03-27T12:55:30Z</time>
      </trkpt>
      <trkpt lat="41.980716" lon="-2.913745">
        <ele>1358.8</ele>
        <time>2021-03-27T12:55:35Z</time>
      </trkpt>
      <trkpt lat="41.980623" lon="-2.913768">
        <ele>1360.68</ele>
        <time>2021-03-27T12:55:39Z</time>
      </trkpt>
      <trkpt lat="41.980512" lon="-2.91383">
        <ele>1361.46</ele>
        <time>2021-03-27T12:55:44Z</time>
      </trkpt>
      <trkpt lat="41.980042" lon="-2.914203">
        <ele>1358.94</ele>
        <time>2021-03-27T12:55:49Z</time>
      </trkpt>
      <trkpt lat="41.979476" lon="-2.914775">
        <ele>1353.34</ele>
        <time>2021-03-27T12:55:53Z</time>
      </trkpt>
      <trkpt lat="41.979368" lon="-2.91482">
        <ele>1353.15</ele>
        <time>2021-03-27T12:55:58Z</time>
      </trkpt>
      <trkpt lat="41.979164" lon="-2.914858">
        <ele>1353.6</ele>
        <time>2021-03-27T12:56:03Z</time>
      </trkpt>
      <trkpt lat="41.978982" lon="-2.914954">
        <ele>1353.27</ele>
        <time>2021-03-27T12:56:07Z</time>
      </trkpt>
      <trkpt lat="41.978841" lon="-2.915178">
        <ele>1350.01</ele>
        <time>2021-03-27T12:56:12Z</time>
      </trkpt>
      <trkpt lat="41.978659" lon="-2.915529">
        <ele>1344.89</ele>
        <time>2021-03-27T12:56:17Z</time>
      </trkpt>
      <trkpt lat="41.978591" lon="-2.9156">
        <ele>1344.47</ele>
        <time>2021-03-27T12:56:21Z</time>
      </trkpt>
      <trkpt lat="41.978272" lon="-2.915715">
        <ele>1347.01</ele>
        <time>2021-03-27T12:56:26Z</time>
      </trkpt>
      <trkpt lat="41.977344" lon="-2.916274">
        <ele>1334.2</ele>
        <time>2021-03-27T12:56:30Z</time>
      </trkpt>
      <trkpt lat="41.976675" lon="-2.916612">
        <ele>1333.93</ele>
        <time>2021-03-27T12:56:35Z</time>
      </trkpt>
      <trkpt lat="41.975908" lon="-2.91675">
        <ele>1332.04</ele>
        <time>2021-03-27T12:56:40Z</time>
      </trkpt>
      <trkpt lat="41.975348" lon="-2.91673">
        <ele>1328.48</ele>
        <time>2021-03-27T12:56:44Z</time>
      </trkpt>
      <trkpt lat="41.975178" lon="-2.916767">
        <ele>1328.86</ele>
        <time>2021-03-27T12:56:49Z</time>
      </trkpt>
      <trkpt lat="41.975107" lon="-2.916858">
        <ele>1328.43</ele>
        <time>2021-03-27T12:56:54Z</time>
      </trkpt>
      <trkpt lat="41.974884" lon="-2.917256">
        <ele>1322.63</ele>
        <time>2021-03-27T12:56:58Z</time>
      </trkpt>
      <trkpt lat="41.974778" lon="-2.917391">
        <ele>1319.67</ele>
        <time>2021-03-27T12:57:03Z</time>
      </trkpt>
      <trkpt lat="41.974128" lon="-2.917799">
        <ele>1315.07</ele>
        <time>2021-03-27T12:57:07Z</time>
      </trkpt>
      <trkpt lat="41.97355" lon="-2.918251">
        <ele>1308.92</ele>
        <time>2021-03-27T12:57:12Z</time>
      </trkpt>
      <trkpt lat="41.972651" lon="-2.918682">
        <ele>1302.41</ele>
        <time>2021-03-27T12:57:17Z</time>
      </trkpt>
      <trkpt lat="41.972319" lon="-2.918785">
        <ele>1298.32</ele>
        <time>2021-03-27T12:57:21Z</time>
      </trkpt>
      <trkpt lat="41.971833" lon="-2.918783">
        <ele>1293.07</ele>
        <time>2021-03-27T12:57:26Z</time>
      </trkpt>
      <trkpt lat="41.971567" lon="-2.918762">
        <ele>1289.49</ele>
        <time>2021-03-27T12:57:31Z</time>
      </trkpt>
      <trkpt lat="41.97106" lon="-2.918644">
        <ele>1282.81</ele>
        <time>2021-03-27T12:57:35Z</time>
      </trkpt>
      <trkpt lat="41.970918" lon="-2.918635">
        <ele>1280.94</ele>
        <time>2021-03-27T12:57:40Z</time>
      </trkpt>
      <trkpt lat="41.970771" lon="-2.918669">
        <ele>1278.57</ele>
        <time>2021-03-27T12:57:45Z</time>
      </trkpt>
      <trkpt lat="41.970538" lon="-2.91881">
        <ele>1275.43</ele>
        <time>2021-03-27T12:57:49Z</time>
      </trkpt>
      <trkpt lat="41.969529" lon="-2.919549">
        <ele>1277.26</ele>
        <time>2021-03-27T12:57:54Z</time>
      </trkpt>
      <trkpt lat="41.969386" lon="-2.919739">
        <ele>1276.18</ele>
        <time>2021-03-27T12:57:58Z</time>
      </trkpt>
      <trkpt lat="41.969243" lon="-2.920065">
        <ele>1273.37</ele>
        <time>2021-03-27T12:58:03Z</time>
      </trkpt>
      <trkpt lat="41.969155" lon="-2.920348">
        <ele>1270.4</ele>
        <time>2021-03-27T12:58:08Z</time>
      </trkpt>
      <trkpt lat="41.969025" lon="-2.920662">
        <ele>1268.36</ele>
        <time>2021-03-27T12:58:12Z</time>
      </trkpt>
      <trkpt lat="41.968953" lon="-2.92077">
        <ele>1267.57</ele>
        <time>2021-03-27T12:58:17Z</time>
      </trkpt>
      <trkpt lat="41.968873" lon="-2.920846">
        <ele>1267.0</ele>
        <time>2021-03-27T12:58:22Z</time>
      </trkpt>
      <trkpt lat="41.968766" lon="-2.920897">
        <ele>1266.91</ele>
        <time>2021-03-27T12:58:26Z</time>
      </trkpt>
      <trkpt lat="41.968629" lon="-2.920916">
        <ele>1266.8</ele>
        <time>2021-03-27T12:58:31Z</time>
      </trkpt>
      <trkpt lat="41.958641" lon="-2.919786">
        <ele>1221.67</ele>
        <time>2021-03-27T12:58:35Z</time>
      </trkpt>
      <trkpt lat="41.957538" lon="-2.919689">
        <ele>1219.49</ele>
        <time>2021-03-27T12:58:40Z</time>
      </trkpt>
      <trkpt lat="41.957273" lon="-2.91973">
        <ele>1218.94</ele>
        <time>2021-03-27T12:58:45Z</time>
      </trkpt>
      <trkpt lat="41.955386" lon="-2.920878">
        <ele>1214.35</ele>
        <time>2021-03-27T12:58:49Z</time>
      </trkpt>
      <trkpt lat="41.955291" lon="-2.92098">
        <ele>1213.92</ele>
        <time>2021-03-27T12:58:54Z</time>
      </trkpt>
      <trkpt lat="41.955229" lon="-2.921048">
        <ele>1213.24</ele>
        <time>2021-03-27T12:59:06Z</time>
      </trkpt>
      <trkpt lat="41.955007" lon="-2.921377">
        <ele>1212.02</ele>
        <time>2021-03-27T12:59:17Z</time>
      </trkpt>
      <trkpt lat="41.952427" lon="-2.925952">
        <ele>1201.0</ele>
        <time>2021-03-27T12:59:29Z</time>
      </trkpt>
      <trkpt lat="41.952353" lon="-2.926076">
        <ele>1201.0</ele>
        <time>2021-03-27T12:59:40Z</time>
      </trkpt>
      <trkpt lat="41.952225" lon="-2.926238">
        <ele>1200.54</ele>
        <time>2021-03-27T12:59:52Z</time>
      </trkpt>
      <trkpt lat="41.951911" lon="-2.924162">
        <ele>1202.78</ele>
        <time>2021-03-27T12:59:56Z</time>
      </trkpt>
      <trkpt lat="41.951722" lon="-2.923421">
        <ele>1202.2</ele>
        <time>2021-03-27T13:00:01Z</time>
      </trkpt>
      <trkpt lat="41.951555" lon="-2.922914">
        <ele>1203.01</ele>
        <time>2021-03-27T13:00:05Z</time>
      </trkpt>
      <trkpt lat="41.949997" lon="-2.91842">
        <ele>1199.97</ele>
        <time>2021-03-27T13:00:10Z</time>
      </trkpt>
      <trkpt lat="41.949729" lon="-2.917804">
        <ele>1193.35</ele>
        <time>2021-03-27T13:00:14Z</time>
      </trkpt>
      <trkpt lat="41.949018" lon="-2.916447">
        <ele>1191.56</ele>
        <time>2021-03-27T13:00:18Z</time>
      </trkpt>
      <trkpt lat="41.947805" lon="-2.91377">
        <ele>1205.47</ele>
        <time>2021-03-27T13:00:23Z</time>
      </trkpt>
      <trkpt lat="41.946341" lon="-2.910693">
        <ele>1201.32</ele>
        <time>2021-03-27T13:00:27Z</time>
      </trkpt>
      <trkpt lat="41.945878" lon="-2.909641">
        <ele>1199.11</ele>
        <time>2021-03-27T13:00:32Z</time>
      </trkpt>
      <trkpt lat="41.945733" lon="-2.90928">
        <ele>1198.41</ele>
        <time>2021-03-27T13:00:36Z</time>
      </trkpt>
      <trkpt lat="41.945577" lon="-2.908787">
        <ele>1196.63</ele>
        <time>2021-03-27T13:00:40Z</time>
      </trkpt>
      <trkpt lat="41.943062" lon="-2.899611">
        <ele>1202.57</ele>
        <time>2021-03-27T13:00:45Z</time>
      </trkpt>
      <trkpt lat="41.942746" lon="-2.898369">
        <ele>1201.0</ele>
        <time>2021-03-27T13:00:49Z</time>
      </trkpt>
      <trkpt lat="41.942298" lon="-2.895984">
        <ele>1186.24</ele>
        <time>2021-03-27T13:00:54Z</time>
      </trkpt>
      <trkpt lat="41.942164" lon="-2.895464">
        <ele>1186.12</ele>
        <time>2021-03-27T13:00:58Z</time>
      </trkpt>
      <trkpt lat="41.942005" lon="-2.894927">
        <ele>1187.21</ele>
        <time>2021-03-27T13:01:02Z</time>
      </trkpt>
      <trkpt lat="41.941866" lon="-2.894552">
        <ele>1188.89</ele>
        <time>2021-03-27T13:01:07Z</time>
      </trkpt>
      <trkpt lat="41.941607" lon="-2.893891">
        <ele>1193.76</ele>
        <time>2021-03-27T13:01:11Z</time>
      </trkpt>
      <trkpt lat="41.941319" lon="-2.893176">
        <ele>1196.39</ele>
        <time>2021-03-27T13:01:16Z</time>
      </trkpt>
      <trkpt lat="41.94054" lon="-2.891555">
        <ele>1193.32</ele>
        <time>2021-03-27T13:01:20Z</time>
      </trkpt>
      <trkpt lat="41.940425" lon="-2.891151">
        <ele>1192.66</ele>
        <time>2021-03-27T13:01:24Z</time>
      </trkpt>
      <trkpt lat="41.940379" lon="-2.89091">
        <ele>1191.83</ele>
        <time>2021-03-27T13:01:29Z</time>
      </trkpt>
      <trkpt lat="41.940326" lon="-2.889941">
        <ele>1190.02</ele>
        <time>2021-03-27T13:01:33Z</time>
      </trkpt>
      <trkpt lat="41.940302" lon="-2.889717">
        <ele>1188.59</ele>
        <time>2021-03-27T13:01:38Z</time>
      </trkpt>
      <trkpt lat="41.940247" lon="-2.889438">
        <ele>1185.98</ele>
        <time>2021-03-27T13:01:42Z</time>
      </trkpt>
      <trkpt lat="41.940114" lon="-2.889043">
        <ele>1184.11</ele>
        <time>2021-03-27T13:01:46Z</time>
      </trkpt>
      <trkpt lat="41.940004" lon="-2.888777">
        <ele>1182.58</ele>
        <time>2021-03-27T13:01:51Z</time>
      </trkpt>
      <trkpt lat="41.939315" lon="-2.887306">
        <ele>1182.56</ele>
        <time>2021-03-27T13:01:55Z</time>
      </trkpt>
      <trkpt lat="41.939171" lon="-2.887105">
        <ele>1184.26</ele>
        <time>2021-03-27T13:01:59Z</time>
      </trkpt>
      <trkpt lat="41.939035" lon="-2.886952">
        <ele>1184.52</ele>
        <time>2021-03-27T13:02:04Z</time>
      </trkpt>
      <trkpt lat="41.93888" lon="-2.886835">
        <ele>1184.52</ele>
        <time>2021-03-27T13:02:08Z</time>
      </trkpt>
      <trkpt lat="41.938314" lon="-2.886533">
        <ele>1187.03</ele>
        <time>2021-03-27T13:02:13Z</time>
      </trkpt>
      <trkpt lat="41.938165" lon="-2.886423">
        <ele>1189.19</ele>
        <time>2021-03-27T13:02:17Z</time>
      </trkpt>
      <trkpt lat="41.938045" lon="-2.886288">
        <ele>1190.63</ele>
        <time>2021-03-27T13:02:21Z</time>
      </trkpt>
      <trkpt lat="41.937557" lon="-2.885641">
        <ele>1191.1</ele>
        <time>2021-03-27T13:02:26Z</time>
      </trkpt>
      <trkpt lat="41.937288" lon="-2.885285">
        <ele>1195.75</ele>
        <time>2021-03-27T13:02:30Z</time>
      </trkpt>
      <trkpt lat="41.93712" lon="-2.88513">
        <ele>1198.96</ele>
        <time>2021-03-27T13:02:35Z</time>
      </trkpt>
      <trkpt lat="41.936968" lon="-2.885059">
        <ele>1200.27</ele>
        <time>2021-03-27T13:02:39Z</time>
      </trkpt>
      <trkpt lat="41.936003" lon="-2.885143">
        <ele>1202.34</ele>
        <time>2021-03-27T13:02:43Z</time>
      </trkpt>
      <trkpt lat="41.935898" lon="-2.885097">
        <ele>1203.14</ele>
        <time>2021-03-27T13:02:48Z</time>
      </trkpt>
      <trkpt lat="41.935804" lon="-2.88501">
        <ele>1203.71</ele>
        <time>2021-03-27T13:02:52Z</time>
      </trkpt>
      <trkpt lat="41.935394" lon="-2.884196">
        <ele>1207.69</ele>
        <time>2021-03-27T13:02:57Z</time>
      </trkpt>
      <trkpt lat="41.935255" lon="-2.883949">
        <ele>1207.54</ele>
        <time>2021-03-27T13:03:01Z</time>
      </trkpt>
      <trkpt lat="41.935215" lon="-2.883904">
        <ele>1207.27</ele>
        <time>2021-03-27T13:03:05Z</time>
      </trkpt>
      <trkpt lat="41.935027" lon="-2.883883">
        <ele>1205.29</ele>
        <time>2021-03-27T13:03:10Z</time>
      </trkpt>
      <trkpt lat="41.934915" lon="-2.883891">
        <ele>1204.68</ele>
        <time>2021-03-27T13:03:14Z</time>
      </trkpt>
      <trkpt lat="41.934817" lon="-2.883861">
        <ele>1204.41</ele>
        <time>2021-03-27T13:03:19Z</time>
      </trkpt>
      <trkpt lat="41.934631" lon="-2.883664">
        <ele>1204.48</ele>
        <time>2021-03-27T13:03:23Z</time>
      </trkpt>
      <trkpt lat="41.934383" lon="-2.883339">
        <ele>1204.33</ele>
        <time>2021-03-27T13:03:27Z</time>
      </trkpt>
      <trkpt lat="41.93391" lon="-2.882722">
        <ele>1199.89</ele>
        <time>2021-03-27T13:03:32Z</time>
      </trkpt>
      <trkpt lat="41.933439" lon="-2.88216">
        <ele>1197.16</ele>
        <time>2021-03-27T13:03:36Z</time>
      </trkpt>
      <trkpt lat="41.933395" lon="-2.882055">
        <ele>1196.62</ele>
        <time>2021-03-27T13:03:41Z</time>
      </trkpt>
      <trkpt lat="41.933381" lon="-2.88192">
        <ele>1196.08</ele>
        <time>2021-03-27T13:03:45Z</time>
      </trkpt>
      <trkpt lat="41.933398" lon="-2.881831">
        <ele>1195.82</ele>
        <time>2021-03-27T13:03:49Z</time>
      </trkpt>
      <trkpt lat="41.933502" lon="-2.8816">
        <ele>1195.37</ele>
        <time>2021-03-27T13:03:54Z</time>
      </trkpt>
      <trkpt lat="41.933975" lon="-2.880891">
        <ele>1194.42</ele>
        <time>2021-03-27T13:03:58Z</time>
      </trkpt>
      <trkpt lat="41.934057" lon="-2.880733">
        <ele>1194.01</ele>
        <time>2021-03-27T13:04:03Z</time>
      </trkpt>
      <trkpt lat="41.93411" lon="-2.880539">
        <ele>1192.69</ele>
        <time>2021-03-27T13:04:07Z</time>
      </trkpt>
      <trkpt lat="41.934103" lon="-2.880361">
        <ele>1191.53</ele>
        <time>2021-03-27T13:04:11Z</time>
      </trkpt>
      <trkpt lat="41.934052" lon="-2.880205">
        <ele>1190.1</ele>
        <time>2021-03-27T13:04:16Z</time>
      </trkpt>
      <trkpt lat="41.933968" lon="-2.880084">
        <ele>1188.41</ele>
        <time>2021-03-27T13:04:20Z</time>
      </trkpt>
      <trkpt lat="41.933826" lon="-2.879993">
        <ele>1187.17</ele>
        <time>2021-03-27T13:04:25Z</time>
      </trkpt>
      <trkpt lat="41.932978" lon="-2.879924">
        <ele>1185.84</ele>
        <time>2021-03-27T13:04:29Z</time>
      </trkpt>
      <trkpt lat="41.931926" lon="-2.879863">
        <ele>1178.7</ele>
        <time>2021-03-27T13:04:33Z</time>
      </trkpt>
      <trkpt lat="41.931633" lon="-2.879871">
        <ele>1181.59</ele>
        <time>2021-03-27T13:04:38Z</time>
      </trkpt>
      <trkpt lat="41.931027" lon="-2.880074">
        <ele>1182.73</ele>
        <time>2021-03-27T13:04:42Z</time>
      </trkpt>
      <trkpt lat="41.930756" lon="-2.880196">
        <ele>1181.35</ele>
        <time>2021-03-27T13:04:47Z</time>
      </trkpt>
      <trkpt lat="41.930516" lon="-2.880262">
        <ele>1177.47</ele>
        <time>2021-03-27T13:04:51Z</time>
      </trkpt>
      <trkpt lat="41.930296" lon="-2.880235">
        <ele>1173.94</ele>
        <time>2021-03-27T13:04:55Z</time>
      </trkpt>
      <trkpt lat="41.93012" lon="-2.880134">
        <ele>1173.63</ele>
        <time>2021-03-27T13:05:00Z</time>
      </trkpt>
      <trkpt lat="41.929815" lon="-2.879893">
        <ele>1172.79</ele>
        <time>2021-03-27T13:05:04Z</time>
      </trkpt>
      <trkpt lat="41.92954" lon="-2.879615">
        <ele>1168.99</ele>
        <time>2021-03-27T13:05:09Z</time>
      </trkpt>
      <trkpt lat="41.929317" lon="-2.879272">
        <ele>1168.99</ele>
        <time>2021-03-27T13:05:13Z</time>
      </trkpt>
      <trkpt lat="41.929191" lon="-2.879036">
        <ele>1170.91</ele>
        <time>2021-03-27T13:05:17Z</time>
      </trkpt>
      <trkpt lat="41.929127" lon="-2.878778">
        <ele>1169.66</ele>
        <time>2021-03-27T13:05:22Z</time>
      </trkpt>
      <trkpt lat="41.929117" lon="-2.878671">
        <ele>1168.47</ele>
        <time>2021-03-27T13:05:26Z</time>
      </trkpt>
      <trkpt lat="41.929121" lon="-2.877512">
        <ele>1163.8</ele>
        <time>2021-03-27T13:05:31Z</time>
      </trkpt>
      <trkpt lat="41.929119" lon="-2.877066">
        <ele>1163.17</ele>
        <time>2021-03-27T13:05:35Z</time>
      </trkpt>
      <trkpt lat="41.929079" lon="-2.876816">
        <ele>1163.95</ele>
        <time>2021-03-27T13:05:39Z</time>
      </trkpt>
      <trkpt lat="41.929025" lon="-2.876611">
        <ele>1164.88</ele>
        <time>2021-03-27T13:05:44Z</time>
      </trkpt>
      <trkpt lat="41.928913" lon="-2.876398">
        <ele>1165.22</ele>
        <time>2021-03-27T13:05:48Z</time>
      </trkpt>
      <trkpt lat="41.927924" lon="-2.874933">
        <ele>1165.66</ele>
        <time>2021-03-27T13:05:53Z</time>
      </trkpt>
      <trkpt lat="41.927689" lon="-2.874629">
        <ele>1165.57</ele>
        <time>2021-03-27T13:05:57Z</time>
      </trkpt>
      <trkpt lat="41.92629" lon="-2.873017">
        <ele>1169.96</ele>
        <time>2021-03-27T13:06:01Z</time>
      </trkpt>
      <trkpt lat="41.925956" lon="-2.872566">
        <ele>1171.83</ele>
        <time>2021-03-27T13:06:06Z</time>
      </trkpt>
      <trkpt lat="41.925766" lon="-2.872111">
        <ele>1173.08</ele>
        <time>2021-03-27T13:06:10Z</time>
      </trkpt>
      <trkpt lat="41.925698" lon="-2.871845">
        <ele>1174.28</ele>
        <time>2021-03-27T13:06:15Z</time>
      </trkpt>
      <trkpt lat="41.925649" lon="-2.871549">
        <ele>1177.28</ele>
        <time>2021-03-27T13:06:19Z</time>
      </trkpt>
      <trkpt lat="41.925626" lon="-2.871187">
        <ele>1177.87</ele>
        <time>2021-03-27T13:06:23Z</time>
      </trkpt>
      <trkpt lat="41.925539" lon="-2.870201">
        <ele>1174.06</ele>
        <time>2021-03-27T13:06:28Z</time>
      </trkpt>
      <trkpt lat="41.925475" lon="-2.869839">
        <ele>1175.29</ele>
        <time>2021-03-27T13:06:32Z</time>
      </trkpt>
      <trkpt lat="41.92539" lon="-2.869488">
        <ele>1177.24</ele>
        <time>2021-03-27T13:06:37Z</time>
      </trkpt>
      <trkpt lat="41.925287" lon="-2.869179">
        <ele>1178.97</ele>
        <time>2021-03-27T13:06:41Z</time>
      </trkpt>
      <trkpt lat="41.925106" lon="-2.868793">
        <ele>1175.35</ele>
        <time>2021-03-27T13:06:45Z</time>
      </trkpt>
      <trkpt lat="41.924854" lon="-2.868388">
        <ele>1172.16</ele>
        <time>2021-03-27T13:06:50Z</time>
      </trkpt>
      <trkpt lat="41.924025" lon="-2.867344">
        <ele>1170.24</ele>
        <time>2021-03-27T13:06:54Z</time>
      </trkpt>
      <trkpt lat="41.923706" lon="-2.866759">
        <ele>1165.81</ele>
        <time>2021-03-27T13:06:58Z</time>
      </trkpt>
      <trkpt lat="41.923613" lon="-2.866397">
        <ele>1167.92</ele>
        <time>2021-03-27T13:07:03Z</time>
      </trkpt>
      <trkpt lat="41.923573" lon="-2.865953">
        <ele>1169.38</ele>
        <time>2021-03-27T13:07:07Z</time>
      </trkpt>
      <trkpt lat="41.923452" lon="-2.86398">
        <ele>1173.38</ele>
        <time>2021-03-27T13:07:12Z</time>
      </trkpt>
      <trkpt lat="41.923258" lon="-2.861989">
        <ele>1169.72</ele>
        <time>2021-03-27T13:07:16Z</time>
      </trkpt>
      <trkpt lat="41.92318" lon="-2.86158">
        <ele>1167.44</ele>
        <time>2021-03-27T13:07:20Z</time>
      </trkpt>
      <trkpt lat="41.923127" lon="-2.861393">
        <ele>1166.78</ele>
        <time>2021-03-27T13:07:25Z</time>
      </trkpt>
      <trkpt lat="41.922738" lon="-2.860435">
        <ele>1166.45</ele>
        <time>2021-03-27T13:07:29Z</time>
      </trkpt>
      <trkpt lat="41.922576" lon="-2.860121">
        <ele>1167.87</ele>
        <time>2021-03-27T13:07:34Z</time>
      </trkpt>
      <trkpt lat="41.922414" lon="-2.859892">
        <ele>1168.89</ele>
        <time>2021-03-27T13:07:38Z</time>
      </trkpt>
      <trkpt lat="41.922129" lon="-2.859573">
        <ele>1168.38</ele>
        <time>2021-03-27T13:07:42Z</time>
      </trkpt>
      <trkpt lat="41.920926" lon="-2.85847">
        <ele>1166.67</ele>
        <time>2021-03-27T13:07:47Z</time>
      </trkpt>
      <trkpt lat="41.920754" lon="-2.858253">
        <ele>1165.96</ele>
        <time>2021-03-27T13:07:51Z</time>
      </trkpt>
      <trkpt lat="41.920555" lon="-2.857935">
        <ele>1163.01</ele>
        <time>2021-03-27T13:07:56Z</time>
      </trkpt>
      <trkpt lat="41.920009" lon="-2.856832">
        <ele>1168.15</ele>
        <time>2021-03-27T13:08:00Z</time>
      </trkpt>
      <trkpt lat="41.919868" lon="-2.856376">
        <ele>1168.5</ele>
        <time>2021-03-27T13:08:04Z</time>
      </trkpt>
      <trkpt lat="41.919817" lon="-2.856109">
        <ele>1168.36</ele>
        <time>2021-03-27T13:08:09Z</time>
      </trkpt>
      <trkpt lat="41.919719" lon="-2.854805">
        <ele>1163.06</ele>
        <time>2021-03-27T13:08:13Z</time>
      </trkpt>
      <trkpt lat="41.919572" lon="-2.854045">
        <ele>1166.64</ele>
        <time>2021-03-27T13:08:18Z</time>
      </trkpt>
      <trkpt lat="41.919555" lon="-2.853682">
        <ele>1168.44</ele>
        <time>2021-03-27T13:08:22Z</time>
      </trkpt>
      <trkpt lat="41.919585" lon="-2.852587">
        <ele>1168.5</ele>
        <time>2021-03-27T13:08:26Z</time>
      </trkpt>
      <trkpt lat="41.919546" lon="-2.852224">
        <ele>1166.2</ele>
        <time>2021-03-27T13:08:31Z</time>
      </trkpt>
      <trkpt lat="41.919467" lon="-2.85189">
        <ele>1162.72</ele>
        <time>2021-03-27T13:08:35Z</time>
      </trkpt>
      <trkpt lat="41.919335" lon="-2.85153">
        <ele>1163.7</ele>
        <time>2021-03-27T13:08:40Z</time>
      </trkpt>
      <trkpt lat="41.918853" lon="-2.850489">
        <ele>1166.75</ele>
        <time>2021-03-27T13:08:44Z</time>
      </trkpt>
      <trkpt lat="41.918199" lon="-2.84894">
        <ele>1167.56</ele>
        <time>2021-03-27T13:08:48Z</time>
      </trkpt>
      <trkpt lat="41.917978" lon="-2.848553">
        <ele>1166.02</ele>
        <time>2021-03-27T13:08:53Z</time>
      </trkpt>
      <trkpt lat="41.916974" lon="-2.847178">
        <ele>1161.93</ele>
        <time>2021-03-27T13:08:57Z</time>
      </trkpt>
      <trkpt lat="41.916797" lon="-2.846779">
        <ele>1160.38</ele>
        <time>2021-03-27T13:09:02Z</time>
      </trkpt>
      <trkpt lat="41.916648" lon="-2.846337">
        <ele>1163.26</ele>
        <time>2021-03-27T13:09:06Z</time>
      </trkpt>
      <trkpt lat="41.916411" lon="-2.844952">
        <ele>1166.25</ele>
        <time>2021-03-27T13:09:10Z</time>
      </trkpt>
      <trkpt lat="41.916193" lon="-2.844309">
        <ele>1161.9</ele>
        <time>2021-03-27T13:09:15Z</time>
      </trkpt>
      <trkpt lat="41.916005" lon="-2.843951">
        <ele>1159.14</ele>
        <time>2021-03-27T13:09:19Z</time>
      </trkpt>
      <trkpt lat="41.91451" lon="-2.841613">
        <ele>1148.46</ele>
        <time>2021-03-27T13:09:24Z</time>
      </trkpt>
      <trkpt lat="41.914252" lon="-2.841128">
        <ele>1146.56</ele>
        <time>2021-03-27T13:09:28Z</time>
      </trkpt>
      <trkpt lat="41.914021" lon="-2.840613">
        <ele>1149.15</ele>
        <time>2021-03-27T13:09:32Z</time>
      </trkpt>
      <trkpt lat="41.913659" lon="-2.839557">
        <ele>1151.37</ele>
        <time>2021-03-27T13:09:37Z</time>
      </trkpt>
      <trkpt lat="41.91319" lon="-2.838319">
        <ele>1153.81</ele>
        <time>2021-03-27T13:09:41Z</time>
      </trkpt>
      <trkpt lat="41.912908" lon="-2.837768">
        <ele>1147.44</ele>
        <time>2021-03-27T13:09:46Z</time>
      </trkpt>
      <trkpt lat="41.912596" lon="-2.837226">
        <ele>1149.29</ele>
        <time>2021-03-27T13:09:50Z</time>
      </trkpt>
      <trkpt lat="41.912111" lon="-2.836616">
        <ele>1154.22</ele>
        <time>2021-03-27T13:09:54Z</time>
      </trkpt>
      <trkpt lat="41.911503" lon="-2.836061">
        <ele>1160.32</ele>
        <time>2021-03-27T13:09:59Z</time>
      </trkpt>
      <trkpt lat="41.910805" lon="-2.835592">
        <ele>1162.88</ele>
        <time>2021-03-27T13:10:03Z</time>
      </trkpt>
      <trkpt lat="41.910512" lon="-2.835456">
        <ele>1163.22</ele>
        <time>2021-03-27T13:10:08Z</time>
      </trkpt>
      <trkpt lat="41.910251" lon="-2.835277">
        <ele>1165.72</ele>
        <time>2021-03-27T13:10:12Z</time>
      </trkpt>
      <trkpt lat="41.909799" lon="-2.834871">
        <ele>1165.29</ele>
        <time>2021-03-27T13:10:16Z</time>
      </trkpt>
      <trkpt lat="41.909387" lon="-2.834407">
        <ele>1166.6</ele>
        <time>2021-03-27T13:10:21Z</time>
      </trkpt>
      <trkpt lat="41.908917" lon="-2.833911">
        <ele>1166.23</ele>
        <time>2021-03-27T13:10:25Z</time>
      </trkpt>
      <trkpt lat="41.90875" lon="-2.83368">
        <ele>1168.01</ele>
        <time>2021-03-27T13:10:30Z</time>
      </trkpt>
      <trkpt lat="41.908592" lon="-2.833415">
        <ele>1170.9</ele>
        <time>2021-03-27T13:10:34Z</time>
      </trkpt>
      <trkpt lat="41.908384" lon="-2.83276">
        <ele>1167.06</ele>
        <time>2021-03-27T13:10:38Z</time>
      </trkpt>
      <trkpt lat="41.908297" lon="-2.832537">
        <ele>1166.89</ele>
        <time>2021-03-27T13:10:43Z</time>
      </trkpt>
      <trkpt lat="41.908182" lon="-2.832311">
        <ele>1166.3</ele>
        <time>2021-03-27T13:10:47Z</time>
      </trkpt>
      <trkpt lat="41.908" lon="-2.832138">
        <ele>1164.33</ele>
        <time>2021-03-27T13:10:52Z</time>
      </trkpt>
      <trkpt lat="41.907798" lon="-2.831995">
        <ele>1164.15</ele>
        <time>2021-03-27T13:10:56Z</time>
      </trkpt>
      <trkpt lat="41.907068" lon="-2.831883">
        <ele>1166.86</ele>
        <time>2021-03-27T13:11:00Z</time>
      </trkpt>
      <trkpt lat="41.906786" lon="-2.831786">
        <ele>1160.81</ele>
        <time>2021-03-27T13:11:05Z</time>
      </trkpt>
      <trkpt lat="41.906538" lon="-2.831516">
        <ele>1158.06</ele>
        <time>2021-03-27T13:11:09Z</time>
      </trkpt>
      <trkpt lat="41.906176" lon="-2.830956">
        <ele>1157.85</ele>
        <time>2021-03-27T13:11:14Z</time>
      </trkpt>
      <trkpt lat="41.905878" lon="-2.830456">
        <ele>1157.24</ele>
        <time>2021-03-27T13:11:18Z</time>
      </trkpt>
      <trkpt lat="41.90536" lon="-2.829333">
        <ele>1156.39</ele>
        <time>2021-03-27T13:11:22Z</time>
      </trkpt>
      <trkpt lat="41.905109" lon="-2.829071">
        <ele>1154.59</ele>
        <time>2021-03-27T13:11:27Z</time>
      </trkpt>
      <trkpt lat="41.904058" lon="-2.828603">
        <ele>1149.61</ele>
        <time>2021-03-27T13:11:31Z</time>
      </trkpt>
      <trkpt lat="41.903901" lon="-2.828453">
        <ele>1147.23</ele>
        <time>2021-03-27T13:11:35Z</time>
      </trkpt>
      <trkpt lat="41.903751" lon="-2.828275">
        <ele>1146.78</ele>
        <time>2021-03-27T13:11:40Z</time>
      </trkpt>
      <trkpt lat="41.903521" lon="-2.827845">
        <ele>1148.63</ele>
        <time>2021-03-27T13:11:44Z</time>
      </trkpt>
      <trkpt lat="41.902944" lon="-2.826664">
        <ele>1141.27</ele>
        <time>2021-03-27T13:11:49Z</time>
      </trkpt>
      <trkpt lat="41.902692" lon="-2.826285">
        <ele>1144.47</ele>
        <time>2021-03-27T13:11:53Z</time>
      </trkpt>
      <trkpt lat="41.901426" lon="-2.824984">
        <ele>1130.42</ele>
        <time>2021-03-27T13:11:57Z</time>
      </trkpt>
      <trkpt lat="41.901117" lon="-2.824578">
        <ele>1126.79</ele>
        <time>2021-03-27T13:12:02Z</time>
      </trkpt>
      <trkpt lat="41.90088" lon="-2.824016">
        <ele>1123.87</ele>
        <time>2021-03-27T13:12:06Z</time>
      </trkpt>
      <trkpt lat="41.900588" lon="-2.823485">
        <ele>1118.24</ele>
        <time>2021-03-27T13:12:11Z</time>
      </trkpt>
      <trkpt lat="41.900444" lon="-2.823306">
        <ele>1118.24</ele>
        <time>2021-03-27T13:12:15Z</time>
      </trkpt>
      <trkpt lat="41.899689" lon="-2.82278">
        <ele>1115.12</ele>
        <time>2021-03-27T13:12:19Z</time>
      </trkpt>
      <trkpt lat="41.899494" lon="-2.822605">
        <ele>1113.47</ele>
        <time>2021-03-27T13:12:24Z</time>
      </trkpt>
      <trkpt lat="41.899155" lon="-2.822192">
        <ele>1110.06</ele>
        <time>2021-03-27T13:12:28Z</time>
      </trkpt>
      <trkpt lat="41.89902" lon="-2.821938">
        <ele>1109.96</ele>
        <time>2021-03-27T13:12:33Z</time>
      </trkpt>
      <trkpt lat="41.89801" lon="-2.819794">
        <ele>1111.43</ele>
        <time>2021-03-27T13:12:37Z</time>
      </trkpt>
      <trkpt lat="41.897794" lon="-2.819261">
        <ele>1110.95</ele>
        <time>2021-03-27T13:12:41Z</time>
      </trkpt>
      <trkpt lat="41.897473" lon="-2.817707">
        <ele>1113.45</ele>
        <time>2021-03-27T13:12:46Z</time>
      </trkpt>
      <trkpt lat="41.897202" lon="-2.816762">
        <ele>1115.29</ele>
        <time>2021-03-27T13:12:50Z</time>
      </trkpt>
      <trkpt lat="41.896212" lon="-2.814178">
        <ele>1110.54</ele>
        <time>2021-03-27T13:12:55Z</time>
      </trkpt>
      <trkpt lat="41.895704" lon="-2.813364">
        <ele>1109.44</ele>
        <time>2021-03-27T13:12:59Z</time>
      </trkpt>
      <trkpt lat="41.895436" lon="-2.812859">
        <ele>1109.32</ele>
        <time>2021-03-27T13:13:03Z</time>
      </trkpt>
      <trkpt lat="41.895209" lon="-2.812325">
        <ele>1107.76</ele>
        <time>2021-03-27T13:13:08Z</time>
      </trkpt>
      <trkpt lat="41.895147" lon="-2.812042">
        <ele>1107.3</ele>
        <time>2021-03-27T13:13:12Z</time>
      </trkpt>
      <trkpt lat="41.895118" lon="-2.811735">
        <ele>1106.49</ele>
        <time>2021-03-27T13:13:17Z</time>
      </trkpt>
      <trkpt lat="41.895139" lon="-2.810509">
        <ele>1108.1</ele>
        <time>2021-03-27T13:13:21Z</time>
      </trkpt>
      <trkpt lat="41.895119" lon="-2.810241">
        <ele>1110.47</ele>
        <time>2021-03-27T13:13:25Z</time>
      </trkpt>
      <trkpt lat="41.89507" lon="-2.809975">
        <ele>1108.85</ele>
        <time>2021-03-27T13:13:30Z</time>
      </trkpt>
      <trkpt lat="41.89499" lon="-2.809683">
        <ele>1107.24</ele>
        <time>2021-03-27T13:13:34Z</time>
      </trkpt>
      <trkpt lat="41.894884" lon="-2.809418">
        <ele>1108.1</ele>
        <time>2021-03-27T13:13:39Z</time>
      </trkpt>
      <trkpt lat="41.894797" lon="-2.809251">
        <ele>1107.74</ele>
        <time>2021-03-27T13:13:43Z</time>
      </trkpt>
      <trkpt lat="41.89409" lon="-2.808175">
        <ele>1108.58</ele>
        <time>2021-03-27T13:13:47Z</time>
      </trkpt>
      <trkpt lat="41.893389" lon="-2.80673">
        <ele>1103.41</ele>
        <time>2021-03-27T13:13:52Z</time>
      </trkpt>
      <trkpt lat="41.893122" lon="-2.806153">
        <ele>1103.05</ele>
        <time>2021-03-27T13:13:56Z</time>
      </trkpt>
      <trkpt lat="41.892039" lon="-2.803606">
        <ele>1099.79</ele>
        <time>2021-03-27T13:14:01Z</time>
      </trkpt>
      <trkpt lat="41.891913" lon="-2.803388">
        <ele>1100.28</ele>
        <time>2021-03-27T13:14:05Z</time>
      </trkpt>
      <trkpt lat="41.891541" lon="-2.802903">
        <ele>1102.35</ele>
        <time>2021-03-27T13:14:09Z</time>
      </trkpt>
      <trkpt lat="41.891298" lon="-2.802553">
        <ele>1102.42</ele>
        <time>2021-03-27T13:14:14Z</time>
      </trkpt>
      <trkpt lat="41.891092" lon="-2.802195">
        <ele>1104.05</ele>
        <time>2021-03-27T13:14:18Z</time>
      </trkpt>
      <trkpt lat="41.89047" lon="-2.80075">
        <ele>1099.86</ele>
        <time>2021-03-27T13:14:23Z</time>
      </trkpt>
      <trkpt lat="41.890167" lon="-2.800222">
        <ele>1098.4</ele>
        <time>2021-03-27T13:14:27Z</time>
      </trkpt>
      <trkpt lat="41.889966" lon="-2.799705">
        <ele>1099.77</ele>
        <time>2021-03-27T13:14:31Z</time>
      </trkpt>
      <trkpt lat="41.88981" lon="-2.799113">
        <ele>1099.25</ele>
        <time>2021-03-27T13:14:36Z</time>
      </trkpt>
      <trkpt lat="41.889755" lon="-2.798201">
        <ele>1099.54</ele>
        <time>2021-03-27T13:14:40Z</time>
      </trkpt>
      <trkpt lat="41.889623" lon="-2.797196">
        <ele>1102.7</ele>
        <time>2021-03-27T13:14:45Z</time>
      </trkpt>
      <trkpt lat="41.88944" lon="-2.796446">
        <ele>1103.73</ele>
        <time>2021-03-27T13:14:49Z</time>
      </trkpt>
      <trkpt lat="41.889293" lon="-2.795721">
        <ele>1103.31</ele>
        <time>2021-03-27T13:14:53Z</time>
      </trkpt>
      <trkpt lat="41.889112" lon="-2.794612">
        <ele>1102.93</ele>
        <time>2021-03-27T13:14:58Z</time>
      </trkpt>
      <trkpt lat="41.889031" lon="-2.793931">
        <ele>1104.41</ele>
        <time>2021-03-27T13:15:02Z</time>
      </trkpt>
      <trkpt lat="41.888975" lon="-2.793614">
        <ele>1106.21</ele>
        <time>2021-03-27T13:15:07Z</time>
      </trkpt>
      <trkpt lat="41.888895" lon="-2.793328">
        <ele>1109.09</ele>
        <time>2021-03-27T13:15:11Z</time>
      </trkpt>
      <trkpt lat="41.88799" lon="-2.79126">
        <ele>1105.23</ele>
        <time>2021-03-27T13:15:15Z</time>
      </trkpt>
      <trkpt lat="41.887759" lon="-2.790561">
        <ele>1104.52</ele>
        <time>2021-03-27T13:15:20Z</time>
      </trkpt>
      <trkpt lat="41.887605" lon="-2.789881">
        <ele>1105.05</ele>
        <time>2021-03-27T13:15:24Z</time>
      </trkpt>
      <trkpt lat="41.887556" lon="-2.789369">
        <ele>1105.22</ele>
        <time>2021-03-27T13:15:29Z</time>
      </trkpt>
      <trkpt lat="41.887557" lon="-2.788888">
        <ele>1104.42</ele>
        <time>2021-03-27T13:15:33Z</time>
      </trkpt>
      <trkpt lat="41.887617" lon="-2.787962">
        <ele>1096.29</ele>
        <time>2021-03-27T13:15:38Z</time>
      </trkpt>
      <trkpt lat="41.887849" lon="-2.787728">
        <ele>1098.48</ele>
        <time>2021-03-27T13:15:42Z</time>
      </trkpt>
      <trkpt lat="41.888237" lon="-2.787266">
        <ele>1102.65</ele>
        <time>2021-03-27T13:15:46Z</time>
      </trkpt>
      <trkpt lat="41.888512" lon="-2.786828">
        <ele>1100.84</ele>
        <time>2021-03-27T13:15:51Z</time>
      </trkpt>
      <trkpt lat="41.889284" lon="-2.785237">
        <ele>1103.31</ele>
        <time>2021-03-27T13:15:55Z</time>
      </trkpt>
      <trkpt lat="41.890109" lon="-2.783228">
        <ele>1104.48</ele>
        <time>2021-03-27T13:15:59Z</time>
      </trkpt>
      <trkpt lat="41.89035" lon="-2.782703">
        <ele>1105.04</ele>
        <time>2021-03-27T13:16:04Z</time>
      </trkpt>
      <trkpt lat="41.890678" lon="-2.782228">
        <ele>1106.55</ele>
        <time>2021-03-27T13:16:08Z</time>
      </trkpt>
      <trkpt lat="41.891077" lon="-2.781731">
        <ele>1107.12</ele>
        <time>2021-03-27T13:16:12Z</time>
      </trkpt>
      <trkpt lat="41.893002" lon="-2.778889">
        <ele>1099.46</ele>
        <time>2021-03-27T13:16:17Z</time>
      </trkpt>
      <trkpt lat="41.893584" lon="-2.778087">
        <ele>1092.37</ele>
        <time>2021-03-27T13:16:21Z</time>
      </trkpt>
      <trkpt lat="41.894278" lon="-2.777228">
        <ele>1097.52</ele>
        <time>2021-03-27T13:16:26Z</time>
      </trkpt>
      <trkpt lat="41.894432" lon="-2.776953">
        <ele>1094.95</ele>
        <time>2021-03-27T13:16:30Z</time>
      </trkpt>
      <trkpt lat="41.895336" lon="-2.774701">
        <ele>1096.82</ele>
        <time>2021-03-27T13:16:34Z</time>
      </trkpt>
      <trkpt lat="41.896049" lon="-2.773329">
        <ele>1087.61</ele>
        <time>2021-03-27T13:16:39Z</time>
      </trkpt>
      <trkpt lat="41.896814" lon="-2.772086">
        <ele>1092.26</ele>
        <time>2021-03-27T13:16:43Z</time>
      </trkpt>
      <trkpt lat="41.897819" lon="-2.770835">
        <ele>1096.76</ele>
        <time>2021-03-27T13:16:47Z</time>
      </trkpt>
      <trkpt lat="41.89807" lon="-2.770605">
        <ele>1099.6</ele>
        <time>2021-03-27T13:16:52Z</time>
      </trkpt>
      <trkpt lat="41.898311" lon="-2.770422">
        <ele>1100.88</ele>
        <time>2021-03-27T13:16:56Z</time>
      </trkpt>
      <trkpt lat="41.898697" lon="-2.770228">
        <ele>1101.39</ele>
        <time>2021-03-27T13:17:01Z</time>
      </trkpt>
      <trkpt lat="41.899286" lon="-2.770018">
        <ele>1104.44</ele>
        <time>2021-03-27T13:17:05Z</time>
      </trkpt>
      <trkpt lat="41.899668" lon="-2.769844">
        <ele>1109.7</ele>
        <time>2021-03-27T13:17:09Z</time>
      </trkpt>
      <trkpt lat="41.900056" lon="-2.769549">
        <ele>1109.26</ele>
        <time>2021-03-27T13:17:14Z</time>
      </trkpt>
      <trkpt lat="41.9007" lon="-2.768773">
        <ele>1110.03</ele>
        <time>2021-03-27T13:17:18Z</time>
      </trkpt>
      <trkpt lat="41.901344" lon="-2.767888">
        <ele>1103.95</ele>
        <time>2021-03-27T13:17:22Z</time>
      </trkpt>
      <trkpt lat="41.902127" lon="-2.766944">
        <ele>1100.97</ele>
        <time>2021-03-27T13:17:27Z</time>
      </trkpt>
      <trkpt lat="41.902704" lon="-2.766557">
        <ele>1101.57</ele>
        <time>2021-03-27T13:17:31Z</time>
      </trkpt>
      <trkpt lat="41.903752" lon="-2.766039">
        <ele>1102.97</ele>
        <time>2021-03-27T13:17:35Z</time>
      </trkpt>
      <trkpt lat="41.904286" lon="-2.765892">
        <ele>1104.16</ele>
        <time>2021-03-27T13:17:40Z</time>
      </trkpt>
      <trkpt lat="41.905625" lon="-2.765823">
        <ele>1112.89</ele>
        <time>2021-03-27T13:17:44Z</time>
      </trkpt>
      <trkpt lat="41.906148" lon="-2.76575">
        <ele>1112.38</ele>
        <time>2021-03-27T13:17:49Z</time>
      </trkpt>
      <trkpt lat="41.906737" lon="-2.765626">
        <ele>1115.28</ele>
        <time>2021-03-27T13:17:53Z</time>
      </trkpt>
      <trkpt lat="41.907022" lon="-2.765503">
        <ele>1114.8</ele>
        <time>2021-03-27T13:17:57Z</time>
      </trkpt>
      <trkpt lat="41.907556" lon="-2.765013">
        <ele>1111.53</ele>
        <time>2021-03-27T13:18:02Z</time>
      </trkpt>
      <trkpt lat="41.907996" lon="-2.76456">
        <ele>1109.16</ele>
        <time>2021-03-27T13:18:06Z</time>
      </trkpt>
      <trkpt lat="41.908271" lon="-2.764245">
        <ele>1103.58</ele>
        <time>2021-03-27T13:18:10Z</time>
      </trkpt>
      <trkpt lat="41.908604" lon="-2.763899">
        <ele>1098.13</ele>
        <time>2021-03-27T13:18:15Z</time>
      </trkpt>
      <trkpt lat="41.9088" lon="-2.76373">
        <ele>1096.67</ele>
        <time>2021-03-27T13:18:19Z</time>
      </trkpt>
      <trkpt lat="41.908908" lon="-2.763599">
        <ele>1096.05</ele>
        <time>2021-03-27T13:18:24Z</time>
      </trkpt>
      <trkpt lat="41.909054" lon="-2.763373">
        <ele>1094.96</ele>
        <time>2021-03-27T13:18:28Z</time>
      </trkpt>
      <trkpt lat="41.910419" lon="-2.760636">
        <ele>1091.64</ele>
        <time>2021-03-27T13:18:32Z</time>
      </trkpt>
      <trkpt lat="41.910558" lon="-2.760303">
        <ele>1091.01</ele>
        <time>2021-03-27T13:18:37Z</time>
      </trkpt>
      <trkpt lat="41.910898" lon="-2.759332">
        <ele>1093.04</ele>
        <time>2021-03-27T13:18:41Z</time>
      </trkpt>
      <trkpt lat="41.911107" lon="-2.75878">
        <ele>1091.99</ele>
        <time>2021-03-27T13:18:45Z</time>
      </trkpt>
      <trkpt lat="41.911794" lon="-2.757035">
        <ele>1092.87</ele>
        <time>2021-03-27T13:18:50Z</time>
      </trkpt>
      <trkpt lat="41.911925" lon="-2.756571">
        <ele>1092.05</ele>
        <time>2021-03-27T13:18:54Z</time>
      </trkpt>
      <trkpt lat="41.911963" lon="-2.75629">
        <ele>1091.6</ele>
        <time>2021-03-27T13:18:58Z</time>
      </trkpt>
      <trkpt lat="41.911971" lon="-2.755969">
        <ele>1091.0</ele>
        <time>2021-03-27T13:19:03Z</time>
      </trkpt>
      <trkpt lat="41.911948" lon="-2.755703">
        <ele>1091.46</ele>
        <time>2021-03-27T13:19:07Z</time>
      </trkpt>
      <trkpt lat="41.911882" lon="-2.755361">
        <ele>1092.48</ele>
        <time>2021-03-27T13:19:12Z</time>
      </trkpt>
      <trkpt lat="41.912064" lon="-2.755262">
        <ele>1092.63</ele>
        <time>2021-03-27T13:19:15Z</time>
      </trkpt>
      <trkpt lat="41.912146" lon="-2.755239">
        <ele>1092.41</ele>
        <time>2021-03-27T13:19:18Z</time>
      </trkpt>
      <trkpt lat="41.912662" lon="-2.755265">
        <ele>1093.63</ele>
        <time>2021-03-27T13:19:21Z</time>
      </trkpt>
      <trkpt lat="41.91347" lon="-2.755356">
        <ele>1095.86</ele>
        <time>2021-03-27T13:19:24Z</time>
      </trkpt>
      <trkpt lat="41.913715" lon="-2.755334">
        <ele>1096.82</ele>
        <time>2021-03-27T13:19:27Z</time>
      </trkpt>
      <trkpt lat="41.913861" lon="-2.755287">
        <ele>1097.83</ele>
        <time>2021-03-27T13:19:30Z</time>
      </trkpt>
      <trkpt lat="41.914024" lon="-2.755174">
        <ele>1098.97</ele>
        <time>2021-03-27T13:19:33Z</time>
      </trkpt>
      <trkpt lat="41.914614" lon="-2.754643">
        <ele>1100.71</ele>
        <time>2021-03-27T13:19:36Z</time>
      </trkpt>
      <trkpt lat="41.914857" lon="-2.754459">
        <ele>1101.0</ele>
        <time>2021-03-27T13:19:39Z</time>
      </trkpt>
      <trkpt lat="41.915073" lon="-2.754395">
        <ele>1102.13</ele>
        <time>2021-03-27T13:19:42Z</time>
      </trkpt>
      <trkpt lat="41.915268" lon="-2.754393">
        <ele>1102.96</ele>
        <time>2021-03-27T13:19:45Z</time>
      </trkpt>
      <trkpt lat="41.91582" lon="-2.754504">
        <ele>1103.25</ele>
        <time>2021-03-27T13:19:48Z</time>
      </trkpt>
      <trkpt lat="41.915972" lon="-2.754563">
        <ele>1102.93</ele>
        <time>2021-03-27T13:19:51Z</time>
      </trkpt>
      <trkpt lat="41.916119" lon="-2.754652">
        <ele>1102.76</ele>
        <time>2021-03-27T13:19:54Z</time>
      </trkpt>
      <trkpt lat="41.919211" lon="-2.757388">
        <ele>1110.56</ele>
        <time>2021-03-27T13:19:57Z</time>
      </trkpt>
      <trkpt lat="41.919562" lon="-2.757759">
        <ele>1111.45</ele>
        <time>2021-03-27T13:20:00Z</time>
      </trkpt>
      <trkpt lat="41.920592" lon="-2.759346">
        <ele>1110.0</ele>
        <time>2021-03-27T13:20:04Z</time>
      </trkpt>
      <trkpt lat="41.920964" lon="-2.760024">
        <ele>1107.95</ele>
        <time>2021-03-27T13:20:07Z</time>
      </trkpt>
      <trkpt lat="41.921141" lon="-2.760244">
        <ele>1108.2</ele>
        <time>2021-03-27T13:20:10Z</time>
      </trkpt>
      <trkpt lat="41.921306" lon="-2.760395">
        <ele>1109.41</ele>
        <time>2021-03-27T13:20:13Z</time>
      </trkpt>
      <trkpt lat="41.922743" lon="-2.761481">
        <ele>1108.33</ele>
        <time>2021-03-27T13:20:16Z</time>
      </trkpt>
      <trkpt lat="41.923837" lon="-2.762492">
        <ele>1120.57</ele>
        <time>2021-03-27T13:20:19Z</time>
      </trkpt>
      <trkpt lat="41.924098" lon="-2.762676">
        <ele>1120.52</ele>
        <time>2021-03-27T13:20:22Z</time>
      </trkpt>
      <trkpt lat="41.924434" lon="-2.762842">
        <ele>1120.73</ele>
        <time>2021-03-27T13:20:25Z</time>
      </trkpt>
      <trkpt lat="41.925865" lon="-2.763443">
        <ele>1122.72</ele>
        <time>2021-03-27T13:20:28Z</time>
      </trkpt>
      <trkpt lat="41.926408" lon="-2.763581">
        <ele>1123.17</ele>
        <time>2021-03-27T13:20:31Z</time>
      </trkpt>
      <trkpt lat="41.927928" lon="-2.763799">
        <ele>1127.32</ele>
        <time>2021-03-27T13:20:34Z</time>
      </trkpt>
      <trkpt lat="41.929201" lon="-2.764009">
        <ele>1131.5</ele>
        <time>2021-03-27T13:20:37Z</time>
      </trkpt>
      <trkpt lat="41.929388" lon="-2.764068">
        <ele>1131.93</ele>
        <time>2021-03-27T13:20:40Z</time>
      </trkpt>
      <trkpt lat="41.92961" lon="-2.764197">
        <ele>1132.0</ele>
        <time>2021-03-27T13:20:43Z</time>
      </trkpt>
      <trkpt lat="41.930463" lon="-2.764782">
        <ele>1138.31</ele>
        <time>2021-03-27T13:20:46Z</time>
      </trkpt>
      <trkpt lat="41.931411" lon="-2.765345">
        <ele>1135.14</ele>
        <time>2021-03-27T13:20:49Z</time>
      </trkpt>
      <trkpt lat="41.931861" lon="-2.765541">
        <ele>1136.75</ele>
        <time>2021-03-27T13:20:52Z</time>
      </trkpt>
      <trkpt lat="41.933163" lon="-2.765962">
        <ele>1138.21</ele>
        <time>2021-03-27T13:20:55Z</time>
      </trkpt>
      <trkpt lat="41.934306" lon="-2.766461">
        <ele>1138.9</ele>
        <time>2021-03-27T13:20:59Z</time>
      </trkpt>
      <trkpt lat="41.934612" lon="-2.766555">
        <ele>1142.29</ele>
        <time>2021-03-27T13:21:02Z</time>
      </trkpt>
      <trkpt lat="41.934947" lon="-2.766632">
        <ele>1144.74</ele>
        <time>2021-03-27T13:21:05Z</time>
      </trkpt>
      <trkpt lat="41.935155" lon="-2.766653">
        <ele>1145.61</ele>
        <time>2021-03-27T13:21:08Z</time>
      </trkpt>
      <trkpt lat="41.935343" lon="-2.766639">
        <ele>1145.91</ele>
        <time>2021-03-27T13:21:11Z</time>
      </trkpt>
      <trkpt lat="41.93549" lon="-2.766653">
        <ele>1145.36</ele>
        <time>2021-03-27T13:21:14Z</time>
      </trkpt>
      <trkpt lat="41.935621" lon="-2.766693">
        <ele>1145.49</ele>
        <time>2021-03-27T13:21:17Z</time>
      </trkpt>
      <trkpt lat="41.936195" lon="-2.766959">
        <ele>1145.38</ele>
        <time>2021-03-27T13:21:20Z</time>
      </trkpt>
      <trkpt lat="41.936598" lon="-2.767105">
        <ele>1145.44</ele>
        <time>2021-03-27T13:21:23Z</time>
      </trkpt>
      <trkpt lat="41.939035" lon="-2.76778">
        <ele>1144.93</ele>
        <time>2021-03-27T13:21:26Z</time>
      </trkpt>
      <trkpt lat="41.939984" lon="-2.767889">
        <ele>1142.99</ele>
        <time>2021-03-27T13:21:29Z</time>
      </trkpt>
      <trkpt lat="41.940517" lon="-2.767981">
        <ele>1143.05</ele>
        <time>2021-03-27T13:21:32Z</time>
      </trkpt>
      <trkpt lat="41.941334" lon="-2.768358">
        <ele>1142.0</ele>
        <time>2021-03-27T13:21:35Z</time>
      </trkpt>
      <trkpt lat="41.941577" lon="-2.768518">
        <ele>1141.09</ele>
        <time>2021-03-27T13:21:38Z</time>
      </trkpt>
      <trkpt lat="41.941863" lon="-2.768814">
        <ele>1140.31</ele>
        <time>2021-03-27T13:21:41Z</time>
      </trkpt>
      <trkpt lat="41.942017" lon="-2.769054">
        <ele>1140.88</ele>
        <time>2021-03-27T13:21:44Z</time>
      </trkpt>
      <trkpt lat="41.942108" lon="-2.76925">
        <ele>1141.12</ele>
        <time>2021-03-27T13:21:47Z</time>
      </trkpt>
      <trkpt lat="41.942762" lon="-2.770882">
        <ele>1146.06</ele>
        <time>2021-03-27T13:21:50Z</time>
      </trkpt>
      <trkpt lat="41.942909" lon="-2.771169">
        <ele>1146.58</ele>
        <time>2021-03-27T13:21:54Z</time>
      </trkpt>
      <trkpt lat="41.94316" lon="-2.771508">
        <ele>1147.27</ele>
        <time>2021-03-27T13:21:57Z</time>
      </trkpt>
      <trkpt lat="41.943358" lon="-2.771695">
        <ele>1147.02</ele>
        <time>2021-03-27T13:22:00Z</time>
      </trkpt>
      <trkpt lat="41.94458" lon="-2.772709">
        <ele>1152.37</ele>
        <time>2021-03-27T13:22:03Z</time>
      </trkpt>
      <trkpt lat="41.944844" lon="-2.772879">
        <ele>1155.29</ele>
        <time>2021-03-27T13:22:06Z</time>
      </trkpt>
      <trkpt lat="41.945133" lon="-2.773012">
        <ele>1159.39</ele>
        <time>2021-03-27T13:22:09Z</time>
      </trkpt>
      <trkpt lat="41.945326" lon="-2.773086">
        <ele>1159.82</ele>
        <time>2021-03-27T13:22:12Z</time>
      </trkpt>
      <trkpt lat="41.945552" lon="-2.773137">
        <ele>1159.99</ele>
        <time>2021-03-27T13:22:15Z</time>
      </trkpt>
      <trkpt lat="41.945843" lon="-2.773173">
        <ele>1160.46</ele>
        <time>2021-03-27T13:22:18Z</time>
      </trkpt>
      <trkpt lat="41.946951" lon="-2.773162">
        <ele>1166.21</ele>
        <time>2021-03-27T13:22:21Z</time>
      </trkpt>
      <trkpt lat="41.947535" lon="-2.77329">
        <ele>1167.91</ele>
        <time>2021-03-27T13:22:24Z</time>
      </trkpt>
      <trkpt lat="41.948949" lon="-2.773695">
        <ele>1176.39</ele>
        <time>2021-03-27T13:22:27Z</time>
      </trkpt>
      <trkpt lat="41.949226" lon="-2.773762">
        <ele>1176.01</ele>
        <time>2021-03-27T13:22:30Z</time>
      </trkpt>
      <trkpt lat="41.949387" lon="-2.773777">
        <ele>1176.13</ele>
        <time>2021-03-27T13:22:33Z</time>
      </trkpt>
      <trkpt lat="41.949599" lon="-2.773756">
        <ele>1177.55</ele>
        <time>2021-03-27T13:22:36Z</time>
      </trkpt>
      <trkpt lat="41.94979" lon="-2.773695">
        <ele>1179.0</ele>
        <time>2021-03-27T13:22:39Z</time>
      </trkpt>
      <trkpt lat="41.950315" lon="-2.773433">
        <ele>1179.24</ele>
        <time>2021-03-27T13:22:42Z</time>
      </trkpt>
      <trkpt lat="41.950478" lon="-2.77337">
        <ele>1179.2</ele>
        <time>2021-03-27T13:22:45Z</time>
      </trkpt>
      <trkpt lat="41.950699" lon="-2.773358">
        <ele>1179.0</ele>
        <time>2021-03-27T13:22:49Z</time>
      </trkpt>
      <trkpt lat="41.950829" lon="-2.773384">
        <ele>1179.0</ele>
        <time>2021-03-27T13:22:52Z</time>
      </trkpt>
      <trkpt lat="41.950987" lon="-2.773461">
        <ele>1179.85</ele>
        <time>2021-03-27T13:22:55Z</time>
      </trkpt>
      <trkpt lat="41.951109" lon="-2.773549">
        <ele>1180.21</ele>
        <time>2021-03-27T13:22:58Z</time>
      </trkpt>
      <trkpt lat="41.951909" lon="-2.774167">
        <ele>1189.74</ele>
        <time>2021-03-27T13:23:01Z</time>
      </trkpt>
      <trkpt lat="41.952167" lon="-2.774315">
        <ele>1187.7</ele>
        <time>2021-03-27T13:23:04Z</time>
      </trkpt>
      <trkpt lat="41.953388" lon="-2.774917">
        <ele>1189.05</ele>
        <time>2021-03-27T13:23:07Z</time>
      </trkpt>
      <trkpt lat="41.954817" lon="-2.7759">
        <ele>1190.81</ele>
        <time>2021-03-27T13:23:10Z</time>
      </trkpt>
      <trkpt lat="41.956627" lon="-2.776782">
        <ele>1187.5</ele>
        <time>2021-03-27T13:23:13Z</time>
      </trkpt>
      <trkpt lat="41.957072" lon="-2.776881">
        <ele>1185.64</ele>
        <time>2021-03-27T13:23:16Z</time>
      </trkpt>
      <trkpt lat="41.957498" lon="-2.776874">
        <ele>1185.25</ele>
        <time>2021-03-27T13:23:19Z</time>
      </trkpt>
      <trkpt lat="41.959128" lon="-2.776602">
        <ele>1185.37</ele>
        <time>2021-03-27T13:23:22Z</time>
      </trkpt>
      <trkpt lat="41.959317" lon="-2.77661">
        <ele>1184.23</ele>
        <time>2021-03-27T13:23:25Z</time>
      </trkpt>
      <trkpt lat="41.960162" lon="-2.77682">
        <ele>1182.22</ele>
        <time>2021-03-27T13:23:28Z</time>
      </trkpt>
      <trkpt lat="41.960337" lon="-2.776886">
        <ele>1181.4</ele>
        <time>2021-03-27T13:23:31Z</time>
      </trkpt>
      <trkpt lat="41.960644" lon="-2.777112">
        <ele>1177.87</ele>
        <time>2021-03-27T13:23:34Z</time>
      </trkpt>
      <trkpt lat="41.962726" lon="-2.779379">
        <ele>1180.81</ele>
        <time>2021-03-27T13:23:37Z</time>
      </trkpt>
      <trkpt lat="41.962926" lon="-2.779551">
        <ele>1181.0</ele>
        <time>2021-03-27T13:23:41Z</time>
      </trkpt>
      <trkpt lat="41.963062" lon="-2.779642">
        <ele>1181.05</ele>
        <time>2021-03-27T13:23:44Z</time>
      </trkpt>
      <trkpt lat="41.963705" lon="-2.779874">
        <ele>1184.0</ele>
        <time>2021-03-27T13:23:47Z</time>
      </trkpt>
      <trkpt lat="41.963951" lon="-2.779986">
        <ele>1184.22</ele>
        <time>2021-03-27T13:23:50Z</time>
      </trkpt>
      <trkpt lat="41.96502" lon="-2.780615">
        <ele>1185.74</ele>
        <time>2021-03-27T13:23:53Z</time>
      </trkpt>
      <trkpt lat="41.966831" lon="-2.781644">
        <ele>1192.1</ele>
        <time>2021-03-27T13:23:56Z</time>
      </trkpt>
      <trkpt lat="41.967078" lon="-2.781894">
        <ele>1193.42</ele>
        <time>2021-03-27T13:23:59Z</time>
      </trkpt>
      <trkpt lat="41.967689" lon="-2.782698">
        <ele>1196.23</ele>
        <time>2021-03-27T13:24:02Z</time>
      </trkpt>
      <trkpt lat="41.96822" lon="-2.783334">
        <ele>1203.37</ele>
        <time>2021-03-27T13:24:05Z</time>
      </trkpt>
      <trkpt lat="41.970297" lon="-2.785206">
        <ele>1211.0</ele>
        <time>2021-03-27T13:24:08Z</time>
      </trkpt>
      <trkpt lat="41.970654" lon="-2.785473">
        <ele>1211.1</ele>
        <time>2021-03-27T13:24:11Z</time>
      </trkpt>
      <trkpt lat="41.971599" lon="-2.786072">
        <ele>1212.9</ele>
        <time>2021-03-27T13:24:14Z</time>
      </trkpt>
      <trkpt lat="41.971912" lon="-2.786254">
        <ele>1213.43</ele>
        <time>2021-03-27T13:24:17Z</time>
      </trkpt>
      <trkpt lat="41.972141" lon="-2.786361">
        <ele>1213.81</ele>
        <time>2021-03-27T13:24:20Z</time>
      </trkpt>
      <trkpt lat="41.972322" lon="-2.786416">
        <ele>1213.81</ele>
        <time>2021-03-27T13:24:23Z</time>
      </trkpt>
      <trkpt lat="41.972922" lon="-2.786509">
        <ele>1210.7</ele>
        <time>2021-03-27T13:24:26Z</time>
      </trkpt>
      <trkpt lat="41.973128" lon="-2.786465">
        <ele>1210.72</ele>
        <time>2021-03-27T13:24:29Z</time>
      </trkpt>
      <trkpt lat="41.975174" lon="-2.785351">
        <ele>1221.34</ele>
        <time>2021-03-27T13:24:32Z</time>
      </trkpt>
      <trkpt lat="41.975588" lon="-2.785239">
        <ele>1226.11</ele>
        <time>2021-03-27T13:24:36Z</time>
      </trkpt>
      <trkpt lat="41.975947" lon="-2.78526">
        <ele>1229.2</ele>
        <time>2021-03-27T13:24:39Z</time>
      </trkpt>
      <trkpt lat="41.976132" lon="-2.785308">
        <ele>1230.97</ele>
        <time>2021-03-27T13:24:42Z</time>
      </trkpt>
      <trkpt lat="41.976276" lon="-2.785373">
        <ele>1231.45</ele>
        <time>2021-03-27T13:24:45Z</time>
      </trkpt>
      <trkpt lat="41.976612" lon="-2.785612">
        <ele>1231.53</ele>
        <time>2021-03-27T13:24:48Z</time>
      </trkpt>
      <trkpt lat="41.978535" lon="-2.787565">
        <ele>1244.41</ele>
        <time>2021-03-27T13:24:51Z</time>
      </trkpt>
      <trkpt lat="41.978703" lon="-2.787756">
        <ele>1245.92</ele>
        <time>2021-03-27T13:24:54Z</time>
      </trkpt>
      <trkpt lat="41.979503" lon="-2.788866">
        <ele>1246.3</ele>
        <time>2021-03-27T13:24:57Z</time>
      </trkpt>
      <trkpt lat="41.979587" lon="-2.788956">
        <ele>1246.51</ele>
        <time>2021-03-27T13:25:00Z</time>
      </trkpt>
      <trkpt lat="41.979793" lon="-2.789128">
        <ele>1247.99</ele>
        <time>2021-03-27T13:25:03Z</time>
      </trkpt>
      <trkpt lat="41.981565" lon="-2.790416">
        <ele>1263.13</ele>
        <time>2021-03-27T13:25:06Z</time>
      </trkpt>
      <trkpt lat="41.982111" lon="-2.790778">
        <ele>1264.92</ele>
        <time>2021-03-27T13:25:09Z</time>
      </trkpt>
      <trkpt lat="41.982657" lon="-2.791061">
        <ele>1265.56</ele>
        <time>2021-03-27T13:25:12Z</time>
      </trkpt>
      <trkpt lat="41.984141" lon="-2.791724">
        <ele>1270.68</ele>
        <time>2021-03-27T13:25:15Z</time>
      </trkpt>
      <trkpt lat="41.985583" lon="-2.792404">
        <ele>1271.98</ele>
        <time>2021-03-27T13:25:18Z</time>
      </trkpt>
      <trkpt lat="41.985874" lon="-2.792457">
        <ele>1274.19</ele>
        <time>2021-03-27T13:25:21Z</time>
      </trkpt>
      <trkpt lat="41.986054" lon="-2.792439">
        <ele>1273.82</ele>
        <time>2021-03-27T13:25:24Z</time>
      </trkpt>
      <trkpt lat="41.986207" lon="-2.792395">
        <ele>1273.23</ele>
        <time>2021-03-27T13:25:27Z</time>
      </trkpt>
      <trkpt lat="41.986489" lon="-2.792251">
        <ele>1271.78</ele>
        <time>2021-03-27T13:25:31Z</time>
      </trkpt>
      <trkpt lat="41.986721" lon="-2.792037">
        <ele>1271.22</ele>
        <time>2021-03-27T13:25:34Z</time>
      </trkpt>
      <trkpt lat="41.986881" lon="-2.791828">
        <ele>1271.89</ele>
        <time>2021-03-27T13:25:37Z</time>
      </trkpt>
      <trkpt lat="41.987323" lon="-2.791172">
        <ele>1274.17</ele>
        <time>2021-03-27T13:25:40Z</time>
      </trkpt>
      <trkpt lat="41.98748" lon="-2.79097">
        <ele>1275.83</ele>
        <time>2021-03-27T13:25:43Z</time>
      </trkpt>
      <trkpt lat="41.988426" lon="-2.790148">
        <ele>1282.88</ele>
        <time>2021-03-27T13:25:46Z</time>
      </trkpt>
      <trkpt lat="41.988579" lon="-2.790056">
        <ele>1282.53</ele>
        <time>2021-03-27T13:25:49Z</time>
      </trkpt>
      <trkpt lat="41.988787" lon="-2.789967">
        <ele>1282.84</ele>
        <time>2021-03-27T13:25:52Z</time>
      </trkpt>
      <trkpt lat="41.989941" lon="-2.789642">
        <ele>1285.99</ele>
        <time>2021-03-27T13:25:55Z</time>
      </trkpt>
      <trkpt lat="41.990278" lon="-2.7895">
        <ele>1286.6</ele>
        <time>2021-03-27T13:25:58Z</time>
      </trkpt>
      <trkpt lat="41.990651" lon="-2.789237">
        <ele>1290.41</ele>
        <time>2021-03-27T13:26:01Z</time>
      </trkpt>
      <trkpt lat="41.991138" lon="-2.788828">
        <ele>1293.05</ele>
        <time>2021-03-27T13:26:04Z</time>
      </trkpt>
      <trkpt lat="41.99142" lon="-2.788668">
        <ele>1294.38</ele>
        <time>2021-03-27T13:26:07Z</time>
      </trkpt>
      <trkpt lat="41.991696" lon="-2.788607">
        <ele>1294.85</ele>
        <time>2021-03-27T13:26:10Z</time>
      </trkpt>
      <trkpt lat="41.992195" lon="-2.788626">
        <ele>1293.04</ele>
        <time>2021-03-27T13:26:13Z</time>
      </trkpt>
      <trkpt lat="41.99812" lon="-2.788992">
        <ele>1344.92</ele>
        <time>2021-03-27T13:26:16Z</time>
      </trkpt>
      <trkpt lat="41.998602" lon="-2.788983">
        <ele>1349.94</ele>
        <time>2021-03-27T13:26:19Z</time>
      </trkpt>
      <trkpt lat="42.001042" lon="-2.78852">
        <ele>1368.69</ele>
        <time>2021-03-27T13:26:22Z</time>
      </trkpt>
      <trkpt lat="42.00135" lon="-2.788419">
        <ele>1369.11</ele>
        <time>2021-03-27T13:26:26Z</time>
      </trkpt>
      <trkpt lat="42.00168" lon="-2.788281">
        <ele>1369.27</ele>
        <time>2021-03-27T13:26:29Z</time>
      </trkpt>
      <trkpt lat="42.001914" lon="-2.788169">
        <ele>1370.32</ele>
        <time>2021-03-27T13:26:32Z</time>
      </trkpt>
      <trkpt lat="42.002409" lon="-2.787885">
        <ele>1372.76</ele>
        <time>2021-03-27T13:26:35Z</time>
      </trkpt>
      <trkpt lat="42.00297" lon="-2.787611">
        <ele>1379.77</ele>
        <time>2021-03-27T13:26:38Z</time>
      </trkpt>
      <trkpt lat="42.003154" lon="-2.787468">
        <ele>1380.73</ele>
        <time>2021-03-27T13:26:41Z</time>
      </trkpt>
      <trkpt lat="42.003605" lon="-2.787059">
        <ele>1380.0</ele>
        <time>2021-03-27T13:26:44Z</time>
      </trkpt>
      <trkpt lat="42.004189" lon="-2.786686">
        <ele>1387.02</ele>
        <time>2021-03-27T13:26:47Z</time>
      </trkpt>
      <trkpt lat="42.004604" lon="-2.786305">
        <ele>1391.28</ele>
        <time>2021-03-27T13:26:50Z</time>
      </trkpt>
      <trkpt lat="42.004696" lon="-2.78624">
        <ele>1391.86</ele>
        <time>2021-03-27T13:26:53Z</time>
      </trkpt>
      <trkpt lat="42.004888" lon="-2.786147">
        <ele>1393.19</ele>
        <time>2021-03-27T13:26:56Z</time>
      </trkpt>
      <trkpt lat="42.005058" lon="-2.786124">
        <ele>1395.03</ele>
        <time>2021-03-27T13:26:59Z</time>
      </trkpt>
      <trkpt lat="42.005243" lon="-2.786173">
        <ele>1397.99</ele>
        <time>2021-03-27T13:27:02Z</time>
      </trkpt>
      <trkpt lat="42.00532" lon="-2.786212">
        <ele>1399.0</ele>
        <time>2021-03-27T13:27:05Z</time>
      </trkpt>
      <trkpt lat="42.005476" lon="-2.786352">
        <ele>1401.36</ele>
        <time>2021-03-27T13:27:08Z</time>
      </trkpt>
      <trkpt lat="42.005608" lon="-2.786533">
        <ele>1403.42</ele>
        <time>2021-03-27T13:27:11Z</time>
      </trkpt>
      <trkpt lat="42.005872" lon="-2.787021">
        <ele>1406.05</ele>
        <time>2021-03-27T13:27:14Z</time>
      </trkpt>
      <trkpt lat="42.006068" lon="-2.787345">
        <ele>1407.98</ele>
        <time>2021-03-27T13:27:17Z</time>
      </trkpt>
      <trkpt lat="42.006173" lon="-2.787488">
        <ele>1409.85</ele>
        <time>2021-03-27T13:27:21Z</time>
      </trkpt>
      <trkpt lat="42.006467" lon="-2.787783">
        <ele>1414.38</ele>
        <time>2021-03-27T13:27:24Z</time>
      </trkpt>
      <trkpt lat="42.006617" lon="-2.78789">
        <ele>1416.04</ele>
        <time>2021-03-27T13:27:27Z</time>
      </trkpt>
      <trkpt lat="42.006947" lon="-2.788068">
        <ele>1415.92</ele>
        <time>2021-03-27T13:27:30Z</time>
      </trkpt>
      <trkpt lat="42.009771" lon="-2.7893">
        <ele>1431.12</ele>
        <time>2021-03-27T13:27:33Z</time>
      </trkpt>
      <trkpt lat="42.009736" lon="-2.78917">
        <ele>1432.26</ele>
        <time>2021-03-27T13:27:49Z</time>
      </trkpt>
      <trkpt lat="42.009611" lon="-2.788902">
        <ele>1435.95</ele>
        <time>2021-03-27T13:28:04Z</time>
      </trkpt>
      <trkpt lat="42.009242" lon="-2.787942">
        <ele>1445.91</ele>
        <time>2021-03-27T13:28:20Z</time>
      </trkpt>
      <trkpt lat="42.008852" lon="-2.786713">
        <ele>1449.91</ele>
        <time>2021-03-27T13:28:36Z</time>
      </trkpt>
      <trkpt lat="42.008834" lon="-2.786608">
        <ele>1449.33</ele>
        <time>2021-03-27T13:28:52Z</time>
      </trkpt>
      <trkpt lat="42.008837" lon="-2.786503">
        <ele>1449.25</ele>
        <time>2021-03-27T13:29:08Z</time>
      </trkpt>
      <trkpt lat="42.008871" lon="-2.786385">
        <ele>1449.68</ele>
        <time>2021-03-27T13:29:23Z</time>
      </trkpt>
      <trkpt lat="42.008915" lon="-2.786299">
        <ele>1450.41</ele>
        <time>2021-03-27T13:29:39Z</time>
      </trkpt>
      <trkpt lat="42.009007" lon="-2.786172">
        <ele>1451.46</ele>
        <time>2021-03-27T13:29:55Z</time>
      </trkpt>
      <trkpt lat="42.009121" lon="-2.786081">
        <ele>1452.65</ele>
        <time>2021-03-27T13:30:11Z</time>
      </trkpt>
      <trkpt lat="42.009562" lon="-2.785817">
        <ele>1456.6</ele>
        <time>2021-03-27T13:30:27Z</time>
      </trkpt>
      <trkpt lat="42.009819" lon="-2.785586">
        <ele>1462.09</ele>
        <time>2021-03-27T13:30:42Z</time>
      </trkpt>
      <trkpt lat="42.009937" lon="-2.785427">
        <ele>1464.49</ele>
        <time>2021-03-27T13:30:58Z</time>
      </trkpt>
      <trkpt lat="42.010199" lon="-2.78497">
        <ele>1470.55</ele>
        <time>2021-03-27T13:31:14Z</time>
      </trkpt>
      <trkpt lat="42.010321" lon="-2.784671">
        <ele>1475.71</ele>
        <time>2021-03-27T13:31:30Z</time>
      </trkpt>
      <trkpt lat="42.010398" lon="-2.784308">
        <ele>1479.3</ele>
        <time>2021-03-27T13:31:45Z</time>
      </trkpt>
      <trkpt lat="42.010404" lon="-2.784103">
        <ele>1479.85</ele>
        <time>2021-03-27T13:32:01Z</time>
      </trkpt>
      <trkpt lat="42.010376" lon="-2.783901">
        <ele>1479.75</ele>
        <time>2021-03-27T13:32:17Z</time>
      </trkpt>
      <trkpt lat="42.010257" lon="-2.783348">
        <ele>1480.45</ele>
        <time>2021-03-27T13:32:33Z</time>
      </trkpt>
      <trkpt lat="42.01025" lon="-2.783249">
        <ele>1480.42</ele>
        <time>2021-03-27T13:32:49Z</time>
      </trkpt>
      <trkpt lat="42.010266" lon="-2.783186">
        <ele>1480.76</ele>
        <time>2021-03-27T13:33:04Z</time>
      </trkpt>
      <trkpt lat="42.010327" lon="-2.783091">
        <ele>1482.05</ele>
        <time>2021-03-27T13:33:20Z</time>
      </trkpt>
      <trkpt lat="42.010386" lon="-2.783063">
        <ele>1483.34</ele>
        <time>2021-03-27T13:33:36Z</time>
      </trkpt>
      <trkpt lat="42.010502" lon="-2.783073">
        <ele>1485.79</ele>
        <time>2021-03-27T13:33:52Z</time>
      </trkpt>
      <trkpt lat="42.010551" lon="-2.78312">
        <ele>1486.67</ele>
        <time>2021-03-27T13:34:08Z</time>
      </trkpt>
      <trkpt lat="42.010597" lon="-2.783203">
        <ele>1487.44</ele>
        <time>2021-03-27T13:34:23Z</time>
      </trkpt>
      <trkpt lat="42.010631" lon="-2.783288">
        <ele>1487.84</ele>
        <time>2021-03-27T13:34:39Z</time>
      </trkpt>
      <trkpt lat="42.010733" lon="-2.783868">
        <ele>1485.68</ele>
        <time>2021-03-27T13:34:55Z</time>
      </trkpt>
      <trkpt lat="42.010812" lon="-2.784004">
        <ele>1486.31</ele>
        <time>2021-03-27T13:35:11Z</time>
      </trkpt>
      <trkpt lat="42.010858" lon="-2.784034">
        <ele>1487.2</ele>
        <time>2021-03-27T13:35:27Z</time>
      </trkpt>
      <trkpt lat="42.010923" lon="-2.784042">
        <ele>1489.04</ele>
        <time>2021-03-27T13:35:42Z</time>
      </trkpt>
      <trkpt lat="42.010968" lon="-2.784024">
        <ele>1490.39</ele>
        <time>2021-03-27T13:35:58Z</time>
      </trkpt>
      <trkpt lat="42.011002" lon="-2.78398">
        <ele>1491.52</ele>
        <time>2021-03-27T13:36:14Z</time>
      </trkpt>
      <trkpt lat="42.011022" lon="-2.78392">
        <ele>1492.32</ele>
        <time>2021-03-27T13:36:30Z</time>
      </trkpt>
      <trkpt lat="42.011017" lon="-2.783762">
        <ele>1493.19</ele>
        <time>2021-03-27T13:36:45Z</time>
      </trkpt>
      <trkpt lat="42.010966" lon="-2.783433">
        <ele>1494.76</ele>
        <time>2021-03-27T13:37:01Z</time>
      </trkpt>
      <trkpt lat="42.010918" lon="-2.782894">
        <ele>1497.69</ele>
        <time>2021-03-27T13:37:17Z</time>
      </trkpt>
      <trkpt lat="42.010895" lon="-2.782792">
        <ele>1498.19</ele>
        <time>2021-03-27T13:37:33Z</time>
      </trkpt>
      <trkpt lat="42.010403" lon="-2.781518">
        <ele>1507.58</ele>
        <time>2021-03-27T13:37:49Z</time>
      </trkpt>
      <trkpt lat="42.010329" lon="-2.781273">
        <ele>1509.5</ele>
        <time>2021-03-27T13:38:04Z</time>
      </trkpt>
      <trkpt lat="42.010229" lon="-2.780674">
        <ele>1508.8</ele>
        <time>2021-03-27T13:38:20Z</time>
      </trkpt>
      <trkpt lat="42.010232" lon="-2.780576">
        <ele>1508.31</ele>
        <time>2021-03-27T13:38:36Z</time>
      </trkpt>
      <trkpt lat="42.010315" lon="-2.780271">
        <ele>1507.57</ele>
        <time>2021-03-27T13:38:52Z</time>
      </trkpt>
      <trkpt lat="42.010571" lon="-2.779702">
        <ele>1514.59</ele>
        <time>2021-03-27T13:39:08Z</time>
      </trkpt>
      <trkpt lat="42.01065" lon="-2.77958">
        <ele>1517.22</ele>
        <time>2021-03-27T13:39:23Z</time>
      </trkpt>
      <trkpt lat="42.010901" lon="-2.779293">
        <ele>1522.21</ele>
        <time>2021-03-27T13:39:39Z</time>
      </trkpt>
      <trkpt lat="42.011166" lon="-2.779038">
        <ele>1522.66</ele>
        <time>2021-03-27T13:39:55Z</time>
      </trkpt>
      <trkpt lat="42.011277" lon="-2.778959">
        <ele>1522.3</ele>
        <time>2021-03-27T13:40:11Z</time>
      </trkpt>
      <trkpt lat="42.011366" lon="-2.778923">
        <ele>1522.65</ele>
        <time>2021-03-27T13:40:26Z</time>
      </trkpt>
      <trkpt lat="42.011482" lon="-2.778906">
        <ele>1523.2</ele>
        <time>2021-03-27T13:40:42Z</time>
      </trkpt>
      <trkpt lat="42.01162" lon="-2.778942">
        <ele>1525.35</ele>
        <time>2021-03-27T13:40:58Z</time>
      </trkpt>
      <trkpt lat="42.012089" lon="-2.779245">
        <ele>1536.55</ele>
        <time>2021-03-27T13:41:14Z</time>
      </trkpt>
      <trkpt lat="42.01212" lon="-2.77932">
        <ele>1537.97</ele>
        <time>2021-03-27T13:41:30Z</time>
      </trkpt>
      <trkpt lat="42.01212" lon="-2.779369">
        <ele>1538.91</ele>
        <time>2021-03-27T13:41:45Z</time>
      </trkpt>
      <trkpt lat="42.012098" lon="-2.779431">
        <ele>1540.19</ele>
        <time>2021-03-27T13:42:01Z</time>
      </trkpt>
      <trkpt lat="42.012037" lon="-2.779518">
        <ele>1541.37</ele>
        <time>2021-03-27T13:42:17Z</time>
      </trkpt>
      <trkpt lat="42.01165" lon="-2.779766">
        <ele>1542.89</ele>
        <time>2021-03-27T13:42:33Z</time>
      </trkpt>
      <trkpt lat="42.011591" lon="-2.779833">
        <ele>1542.56</ele>
        <time>2021-03-27T13:42:49Z</time>
      </trkpt>
      <trkpt lat="42.011552" lon="-2.779918">
        <ele>1542.46</ele>
        <time>2021-03-27T13:43:04Z</time>
      </trkpt>
      <trkpt lat="42.011523" lon="-2.780115">
        <ele>1542.9</ele>
        <time>2021-03-27T13:43:20Z</time>
      </trkpt>
      <trkpt lat="42.01153" lon="-2.780237">
        <ele>1543.36</ele>
        <time>2021-03-27T13:43:36Z</time>
      </trkpt>
      <trkpt lat="42.011553" lon="-2.780317">
        <ele>1543.82</ele>
        <time>2021-03-27T13:43:52Z</time>
      </trkpt>
      <trkpt lat="42.011593" lon="-2.780371">
        <ele>1544.31</ele>
        <time>2021-03-27T13:44:07Z</time>
      </trkpt>
      <trkpt lat="42.01164" lon="-2.780401">
        <ele>1544.74</ele>
        <time>2021-03-27T13:44:23Z</time>
      </trkpt>
      <trkpt lat="42.011799" lon="-2.780433">
        <ele>1545.59</ele>
        <time>2021-03-27T13:44:39Z</time>
      </trkpt>
      <trkpt lat="42.01244" lon="-2.780452">
        <ele>1547.28</ele>
        <time>2021-03-27T13:44:55Z</time>
      </trkpt>
      <trkpt lat="42.012874" lon="-2.78051">
        <ele>1550.8</ele>
        <time>2021-03-27T13:45:11Z</time>
      </trkpt>
      <trkpt lat="42.013212" lon="-2.780486">
        <ele>1551.8</ele>
        <time>2021-03-27T13:45:26Z</time>
      </trkpt>
      <trkpt lat="42.013347" lon="-2.780432">
        <ele>1552.13</ele>
        <time>2021-03-27T13:45:42Z</time>
      </trkpt>
      <trkpt lat="42.014288" lon="-2.779781">
        <ele>1552.63</ele>
        <time>2021-03-27T13:45:58Z</time>
      </trkpt>
      <trkpt lat="42.014379" lon="-2.779743">
        <ele>1554.05</ele>
        <time>2021-03-27T13:46:14Z</time>
      </trkpt>
      <trkpt lat="42.014488" lon="-2.77976">
        <ele>1555.96</ele>
        <time>2021-03-27T13:46:30Z</time>
      </trkpt>
      <trkpt lat="42.014578" lon="-2.779878">
        <ele>1558.16</ele>
        <time>2021-03-27T13:46:45Z</time>
      </trkpt>
      <trkpt lat="42.014593" lon="-2.779952">
        <ele>1558.66</ele>
        <time>2021-03-27T13:47:01Z</time>
      </trkpt>
      <trkpt lat="42.014567" lon="-2.7801">
        <ele>1558.85</ele>
        <time>2021-03-27T13:47:17Z</time>
      </trkpt>
      <trkpt lat="42.014484" lon="-2.780211">
        <ele>1558.06</ele>
        <time>2021-03-27T13:47:33Z</time>
      </trkpt>
      <trkpt lat="42.014398" lon="-2.780366">
        <ele>1557.68</ele>
        <time>2021-03-27T13:47:49Z</time>
      </trkpt>
      <trkpt lat="42.014392" lon="-2.780432">
        <ele>1558.09</ele>
        <time>2021-03-27T13:48:04Z</time>
      </trkpt>
      <trkpt lat="42.014411" lon="-2.780525">
        <ele>1559.17</ele>
        <time>2021-03-27T13:48:20Z</time>
      </trkpt>
      <trkpt lat="42.014464" lon="-2.780612">
        <ele>1561.24</ele>
        <time>2021-03-27T13:48:36Z</time>
      </trkpt>
      <trkpt lat="42.014517" lon="-2.780652">
        <ele>1563.04</ele>
        <time>2021-03-27T13:48:52Z</time>
      </trkpt>
      <trkpt lat="42.014597" lon="-2.78066">
        <ele>1565.01</ele>
        <time>2021-03-27T13:49:07Z</time>
      </trkpt>
      <trkpt lat="42.014689" lon="-2.780622">
        <ele>1566.46</ele>
        <time>2021-03-27T13:49:23Z</time>
      </trkpt>
      <trkpt lat="42.014886" lon="-2.780453">
        <ele>1567.48</ele>
        <time>2021-03-27T13:49:39Z</time>
      </trkpt>
      <trkpt lat="42.015054" lon="-2.780254">
        <ele>1569.66</ele>
        <time>2021-03-27T13:49:55Z</time>
      </trkpt>
      <trkpt lat="42.015517" lon="-2.77916">
        <ele>1580.97</ele>
        <time>2021-03-27T13:50:11Z</time>
      </trkpt>
      <trkpt lat="42.015915" lon="-2.778516">
        <ele>1591.95</ele>
        <time>2021-03-27T13:50:26Z</time>
      </trkpt>
      <trkpt lat="42.015899" lon="-2.777722">
        <ele>1596.63</ele>
        <time>2021-03-27T13:50:42Z</time>
      </trkpt>
      <trkpt lat="42.015341" lon="-2.774439">
        <ele>1614.46</ele>
        <time>2021-03-27T13:50:58Z</time>
      </trkpt>
      <trkpt lat="42.01456" lon="-2.771757">
        <ele>1625.56</ele>
        <time>2021-03-27T13:51:14Z</time>
      </trkpt>
      <trkpt lat="42.01464" lon="-2.771499">
        <ele>1628.94</ele>
        <time>2021-03-27T13:51:30Z</time>
      </trkpt>
      <trkpt lat="42.014847" lon="-2.771542">
        <ele>1634.35</ele>
        <time>2021-03-27T13:51:45Z</time>
      </trkpt>
      <trkpt lat="42.01507" lon="-2.771971">
        <ele>1634.66</ele>
        <time>2021-03-27T13:52:01Z</time>
      </trkpt>
      <trkpt lat="42.016904" lon="-2.773838">
        <ele>1661.13</ele>
        <time>2021-03-27T13:52:17Z</time>
      </trkpt>
      <trkpt lat="42.017239" lon="-2.773817">
        <ele>1667.38</ele>
        <time>2021-03-27T13:52:33Z</time>
      </trkpt>
      <trkpt lat="42.017159" lon="-2.773387">
        <ele>1667.3</ele>
        <time>2021-03-27T13:52:48Z</time>
      </trkpt>
      <trkpt lat="42.017015" lon="-2.772787">
        <ele>1666.23</ele>
        <time>2021-03-27T13:53:04Z</time>
      </trkpt>
      <trkpt lat="42.016712" lon="-2.770319">
        <ele>1682.02</ele>
        <time>2021-03-27T13:53:20Z</time>
      </trkpt>
      <trkpt lat="42.01684" lon="-2.769847">
        <ele>1684.37</ele>
        <time>2021-03-27T13:53:36Z</time>
      </trkpt>
      <trkpt lat="42.017063" lon="-2.769375">
        <ele>1692.42</ele>
        <time>2021-03-27T13:53:52Z</time>
      </trkpt>
      <trkpt lat="42.016999" lon="-2.768216">
        <ele>1700.5</ele>
        <time>2021-03-27T13:54:07Z</time>
      </trkpt>
      <trkpt lat="42.015017" lon="-2.765542">
        <ele>1705.16</ele>
        <time>2021-03-27T13:54:23Z</time>
      </trkpt>
      <trkpt lat="42.014925" lon="-2.765333">
        <ele>1706.55</ele>
        <time>2021-03-27T13:54:39Z</time>
      </trkpt>
      <trkpt lat="42.015049" lon="-2.765125">
        <ele>1707.72</ele>
        <time>2021-03-27T13:54:50Z</time>
      </trkpt>
      <trkpt lat="42.015229" lon="-2.76508">
        <ele>1708.53</ele>
        <time>2021-03-27T13:55:01Z</time>
      </trkpt>
      <trkpt lat="42.015372" lon="-2.76508">
        <ele>1710.16</ele>
        <time>2021-03-27T13:55:12Z</time>
      </trkpt>
      <trkpt lat="42.0155" lon="-2.765026">
        <ele>1712.18</ele>
        <time>2021-03-27T13:55:23Z</time>
      </trkpt>
      <trkpt lat="42.015636" lon="-2.765031">
        <ele>1714.12</ele>
        <time>2021-03-27T13:55:34Z</time>
      </trkpt>
      <trkpt lat="42.016219" lon="-2.76546">
        <ele>1716.9</ele>
        <time>2021-03-27T13:55:45Z</time>
      </trkpt>
      <trkpt lat="42.016512" lon="-2.765624">
        <ele>1720.29</ele>
        <time>2021-03-27T13:55:56Z</time>
      </trkpt>
      <trkpt lat="42.016813" lon="-2.765851">
        <ele>1724.6</ele>
        <time>2021-03-27T13:56:07Z</time>
      </trkpt>
      <trkpt lat="42.017198" lon="-2.765964">
        <ele>1733.49</ele>
        <time>2021-03-27T13:56:18Z</time>
      </trkpt>
      <trkpt lat="42.017693" lon="-2.766285">
        <ele>1736.03</ele>
        <time>2021-03-27T13:56:29Z</time>
      </trkpt>
      <trkpt lat="42.018698" lon="-2.766803">
        <ele>1754.91</ele>
        <time>2021-03-27T13:56:40Z</time>
      </trkpt>
      <trkpt lat="42.019035" lon="-2.766927">
        <ele>1758.47</ele>
        <time>2021-03-27T13:56:51Z</time>
      </trkpt>
      <trkpt lat="42.019277" lon="-2.766956">
        <ele>1760.58</ele>
        <time>2021-03-27T13:57:02Z</time>
      </trkpt>
      <trkpt lat="42.019512" lon="-2.76705">
        <ele>1763.54</ele>
        <time>2021-03-27T13:57:13Z</time>
      </trkpt>
      <trkpt lat="42.020286" lon="-2.767558">
        <ele>1780.32</ele>
        <time>2021-03-27T13:57:24Z</time>
      </trkpt>
      <trkpt lat="42.020528" lon="-2.767766">
        <ele>1783.7</ele>
        <time>2021-03-27T13:57:35Z</time>
      </trkpt>
      <trkpt lat="42.020667" lon="-2.76785">
        <ele>1784.13</ele>
        <time>2021-03-27T13:57:46Z</time>
      </trkpt>
      <trkpt lat="42.02079" lon="-2.767858">
        <ele>1785.07</ele>
        <time>2021-03-27T13:57:57Z</time>
      </trkpt>
      <trkpt lat="42.021247" lon="-2.765307">
        <ele>1816.48</ele>
        <time>2021-03-27T13:58:25Z</time>
      </trkpt>
      <trkpt lat="42.021387" lon="-2.763896">
        <ele>1833.88</ele>
        <time>2021-03-27T13:58:54Z</time>
      </trkpt>
      <trkpt lat="42.021736" lon="-2.761554">
        <ele>1869.98</ele>
        <time>2021-03-27T13:59:22Z</time>
      </trkpt>
      <trkpt lat="42.021857" lon="-2.760542">
        <ele>1892.4</ele>
        <time>2021-03-27T13:59:50Z</time>
      </trkpt>
      <trkpt lat="42.022329" lon="-2.758843">
        <ele>1924.7</ele>
        <time>2021-03-27T14:00:18Z</time>
      </trkpt>
      <trkpt lat="42.023044" lon="-2.757242">
        <ele>1954.4</ele>
        <time>2021-03-27T14:00:47Z</time>
      </trkpt>
      <trkpt lat="42.022964" lon="-2.756532">
        <ele>1967.12</ele>
        <time>2021-03-27T14:01:15Z</time>
      </trkpt>
      <trkpt lat="42.022977" lon="-2.755804">
        <ele>1971.9</ele>
        <time>2021-03-27T14:01:43Z</time>
      </trkpt>
      <trkpt lat="42.023051" lon="-2.755651">
        <ele>1972.94</ele>
        <time>2021-03-27T14:02:11Z</time>
      </trkpt>
      <trkpt lat="42.023364" lon="-2.755669">
        <ele>1974.0</ele>
        <time>2021-03-27T14:02:40Z</time>
      </trkpt>
      <trkpt lat="42.023484" lon="-2.755515">
        <ele>1973.19</ele>
        <time>2021-03-27T14:03:08Z</time>
      </trkpt>
      <trkpt lat="42.022989" lon="-2.755236">
        <ele>1967.19</ele>
        <time>2021-03-27T14:03:20Z</time>
      </trkpt>
      <trkpt lat="42.022522" lon="-2.755031">
        <ele>1961.22</ele>
        <time>2021-03-27T14:03:32Z</time>
      </trkpt>
      <trkpt lat="42.022259" lon="-2.754892">
        <ele>1958.36</ele>
        <time>2021-03-27T14:03:45Z</time>
      </trkpt>
      <trkpt lat="42.021753" lon="-2.75456">
        <ele>1952.76</ele>
        <time>2021-03-27T14:03:57Z</time>
      </trkpt>
      <trkpt lat="42.021423" lon="-2.754302">
        <ele>1953.73</ele>
        <time>2021-03-27T14:04:09Z</time>
      </trkpt>
      <trkpt lat="42.021211" lon="-2.753964">
        <ele>1952.21</ele>
        <time>2021-03-27T14:04:22Z</time>
      </trkpt>
      <trkpt lat="42.021035" lon="-2.753813">
        <ele>1951.4</ele>
        <time>2021-03-27T14:04:34Z</time>
      </trkpt>
      <trkpt lat="42.021035" lon="-2.753813">
        <ele>1951.4</ele>
        <time>2021-03-27T14:04:34Z</time>
      </trkpt>
      <trkpt lat="42.021211" lon="-2.753964">
        <ele>1952.21</ele>
        <time>2021-03-27T14:04:46Z</time>
      </trkpt>
      <trkpt lat="42.021423" lon="-2.754302">
        <ele>1953.73</ele>
        <time>2021-03-27T14:04:58Z</time>
      </trkpt>
      <trkpt lat="42.021753" lon="-2.75456">
        <ele>1952.76</ele>
        <time>2021-03-27T14:05:11Z</time>
      </trkpt>
      <trkpt lat="42.022259" lon="-2.754892">
        <ele>1958.36</ele>
        <time>2021-03-27T14:05:23Z</time>
      </trkpt>
      <trkpt lat="42.022522" lon="-2.755031">
        <ele>1961.22</ele>
        <time>2021-03-27T14:05:35Z</time>
      </trkpt>
      <trkpt lat="42.022989" lon="-2.755236">
        <ele>1967.19</ele>
        <time>2021-03-27T14:05:48Z</time>
      </trkpt>
      <trkpt lat="42.023484" lon="-2.755515">
        <ele>1973.19</ele>
        <time>2021-03-27T14:06:00Z</time>
      </trkpt>
      <trkpt lat="42.023364" lon="-2.755669">
        <ele>1974.0</ele>
        <time>2021-03-27T14:06:28Z</time>
      </trkpt>
      <trkpt lat="42.023051" lon="-2.755651">
        <ele>1972.94</ele>
        <time>2021-03-27T14:06:56Z</time>
      </trkpt>
      <trkpt lat="42.022977" lon="-2.755804">
        <ele>1971.9</ele>
        <time>2021-03-27T14:07:25Z</time>
      </trkpt>
      <trkpt lat="42.022964" lon="-2.756532">
        <ele>1967.12</ele>
        <time>2021-03-27T14:07:53Z</time>
      </trkpt>
      <trkpt lat="42.023044" lon="-2.757242">
        <ele>1954.4</ele>
        <time>2021-03-27T14:08:21Z</time>
      </trkpt>
      <trkpt lat="42.022329" lon="-2.758843">
        <ele>1924.7</ele>
        <time>2021-03-27T14:08:49Z</time>
      </trkpt>
      <trkpt lat="42.021857" lon="-2.760542">
        <ele>1892.4</ele>
        <time>2021-03-27T14:09:18Z</time>
      </trkpt>
      <trkpt lat="42.021736" lon="-2.761554">
        <ele>1869.98</ele>
        <time>2021-03-27T14:09:46Z</time>
      </trkpt>
      <trkpt lat="42.021387" lon="-2.763896">
        <ele>1833.88</ele>
        <time>2021-03-27T14:10:14Z</time>
      </trkpt>
      <trkpt lat="42.021247" lon="-2.765307">
        <ele>1816.48</ele>
        <time>2021-03-27T14:10:42Z</time>
      </trkpt>
      <trkpt lat="42.02079" lon="-2.767858">
        <ele>1785.07</ele>
        <time>2021-03-27T14:11:11Z</time>
      </trkpt>
      <trkpt lat="42.020667" lon="-2.76785">
        <ele>1784.13</ele>
        <time>2021-03-27T14:11:22Z</time>
      </trkpt>
      <trkpt lat="42.020528" lon="-2.767766">
        <ele>1783.7</ele>
        <time>2021-03-27T14:11:33Z</time>
      </trkpt>
      <trkpt lat="42.020286" lon="-2.767558">
        <ele>1780.32</ele>
        <time>2021-03-27T14:11:44Z</time>
      </trkpt>
      <trkpt lat="42.019512" lon="-2.76705">
        <ele>1763.54</ele>
        <time>2021-03-27T14:11:55Z</time>
      </trkpt>
      <trkpt lat="42.019277" lon="-2.766956">
        <ele>1760.58</ele>
        <time>2021-03-27T14:12:06Z</time>
      </trkpt>
      <trkpt lat="42.019035" lon="-2.766927">
        <ele>1758.47</ele>
        <time>2021-03-27T14:12:17Z</time>
      </trkpt>
      <trkpt lat="42.018698" lon="-2.766803">
        <ele>1754.91</ele>
        <time>2021-03-27T14:12:28Z</time>
      </trkpt>
      <trkpt lat="42.017693" lon="-2.766285">
        <ele>1736.03</ele>
        <time>2021-03-27T14:12:39Z</time>
      </trkpt>
      <trkpt lat="42.017198" lon="-2.765964">
        <ele>1733.49</ele>
        <time>2021-03-27T14:12:50Z</time>
      </trkpt>
      <trkpt lat="42.016813" lon="-2.765851">
        <ele>1724.6</ele>
        <time>2021-03-27T14:13:01Z</time>
      </trkpt>
      <trkpt lat="42.016512" lon="-2.765624">
        <ele>1720.29</ele>
        <time>2021-03-27T14:13:12Z</time>
      </trkpt>
      <trkpt lat="42.016219" lon="-2.76546">
        <ele>1716.9</ele>
        <time>2021-03-27T14:13:23Z</time>
      </trkpt>
      <trkpt lat="42.015636" lon="-2.765031">
        <ele>1714.12</ele>
        <time>2021-03-27T14:13:34Z</time>
      </trkpt>
      <trkpt lat="42.0155" lon="-2.765026">
        <ele>1712.18</ele>
        <time>2021-03-27T14:13:45Z</time>
      </trkpt>
      <trkpt lat="42.015372" lon="-2.76508">
        <ele>1710.16</ele>
        <time>2021-03-27T14:13:56Z</time>
      </trkpt>
      <trkpt lat="42.015229" lon="-2.76508">
        <ele>1708.53</ele>
        <time>2021-03-27T14:14:07Z</time>
      </trkpt>
      <trkpt lat="42.015049" lon="-2.765125">
        <ele>1707.72</ele>
        <time>2021-03-27T14:14:18Z</time>
      </trkpt>
      <trkpt lat="42.014925" lon="-2.765333">
        <ele>1706.55</ele>
        <time>2021-03-27T14:14:29Z</time>
      </trkpt>
      <trkpt lat="42.015017" lon="-2.765542">
        <ele>1705.16</ele>
        <time>2021-03-27T14:14:44Z</time>
      </trkpt>
      <trkpt lat="42.016999" lon="-2.768216">
        <ele>1700.5</ele>
        <time>2021-03-27T14:15:00Z</time>
      </trkpt>
      <trkpt lat="42.017063" lon="-2.769375">
        <ele>1692.42</ele>
        <time>2021-03-27T14:15:16Z</time>
      </trkpt>
      <trkpt lat="42.01684" lon="-2.769847">
        <ele>1684.37</ele>
        <time>2021-03-27T14:15:32Z</time>
      </trkpt>
      <trkpt lat="42.016712" lon="-2.770319">
        <ele>1682.02</ele>
        <time>2021-03-27T14:15:48Z</time>
      </trkpt>
      <trkpt lat="42.017015" lon="-2.772787">
        <ele>1666.23</ele>
        <time>2021-03-27T14:16:03Z</time>
      </trkpt>
      <trkpt lat="42.017159" lon="-2.773387">
        <ele>1667.3</ele>
        <time>2021-03-27T14:16:19Z</time>
      </trkpt>
      <trkpt lat="42.017239" lon="-2.773817">
        <ele>1667.38</ele>
        <time>2021-03-27T14:16:35Z</time>
      </trkpt>
      <trkpt lat="42.016904" lon="-2.773838">
        <ele>1661.13</ele>
        <time>2021-03-27T14:16:51Z</time>
      </trkpt>
      <trkpt lat="42.01507" lon="-2.771971">
        <ele>1634.66</ele>
        <time>2021-03-27T14:17:07Z</time>
      </trkpt>
      <trkpt lat="42.014847" lon="-2.771542">
        <ele>1634.35</ele>
        <time>2021-03-27T14:17:22Z</time>
      </trkpt>
      <trkpt lat="42.01464" lon="-2.771499">
        <ele>1628.94</ele>
        <time>2021-03-27T14:17:38Z</time>
      </trkpt>
      <trkpt lat="42.01456" lon="-2.771757">
        <ele>1625.56</ele>
        <time>2021-03-27T14:17:54Z</time>
      </trkpt>
      <trkpt lat="42.015341" lon="-2.774439">
        <ele>1614.46</ele>
        <time>2021-03-27T14:18:10Z</time>
      </trkpt>
      <trkpt lat="42.015899" lon="-2.777722">
        <ele>1596.63</ele>
        <time>2021-03-27T14:18:25Z</time>
      </trkpt>
      <trkpt lat="42.015915" lon="-2.778516">
        <ele>1591.95</ele>
        <time>2021-03-27T14:18:41Z</time>
      </trkpt>
      <trkpt lat="42.015517" lon="-2.77916">
        <ele>1580.97</ele>
        <time>2021-03-27T14:18:57Z</time>
      </trkpt>
      <trkpt lat="42.015054" lon="-2.780254">
        <ele>1569.66</ele>
        <time>2021-03-27T14:19:13Z</time>
      </trkpt>
      <trkpt lat="42.014886" lon="-2.780453">
        <ele>1567.48</ele>
        <time>2021-03-27T14:19:29Z</time>
      </trkpt>
      <trkpt lat="42.014689" lon="-2.780622">
        <ele>1566.46</ele>
        <time>2021-03-27T14:19:44Z</time>
      </trkpt>
      <trkpt lat="42.014597" lon="-2.78066">
        <ele>1565.01</ele>
        <time>2021-03-27T14:20:00Z</time>
      </trkpt>
      <trkpt lat="42.014517" lon="-2.780652">
        <ele>1563.04</ele>
        <time>2021-03-27T14:20:16Z</time>
      </trkpt>
      <trkpt lat="42.014464" lon="-2.780612">
        <ele>1561.24</ele>
        <time>2021-03-27T14:20:32Z</time>
      </trkpt>
      <trkpt lat="42.014411" lon="-2.780525">
        <ele>1559.17</ele>
        <time>2021-03-27T14:20:48Z</time>
      </trkpt>
      <trkpt lat="42.014392" lon="-2.780432">
        <ele>1558.09</ele>
        <time>2021-03-27T14:21:03Z</time>
      </trkpt>
      <trkpt lat="42.014398" lon="-2.780366">
        <ele>1557.68</ele>
        <time>2021-03-27T14:21:19Z</time>
      </trkpt>
      <trkpt lat="42.014484" lon="-2.780211">
        <ele>1558.06</ele>
        <time>2021-03-27T14:21:35Z</time>
      </trkpt>
      <trkpt lat="42.014567" lon="-2.7801">
        <ele>1558.85</ele>
        <time>2021-03-27T14:21:51Z</time>
      </trkpt>
      <trkpt lat="42.014593" lon="-2.779952">
        <ele>1558.66</ele>
        <time>2021-03-27T14:22:06Z</time>
      </trkpt>
      <trkpt lat="42.014578" lon="-2.779878">
        <ele>1558.16</ele>
        <time>2021-03-27T14:22:22Z</time>
      </trkpt>
      <trkpt lat="42.014488" lon="-2.77976">
        <ele>1555.96</ele>
        <time>2021-03-27T14:22:38Z</time>
      </trkpt>
      <trkpt lat="42.014379" lon="-2.779743">
        <ele>1554.05</ele>
        <time>2021-03-27T14:22:54Z</time>
      </trkpt>
      <trkpt lat="42.014288" lon="-2.779781">
        <ele>1552.63</ele>
        <time>2021-03-27T14:23:10Z</time>
      </trkpt>
      <trkpt lat="42.013347" lon="-2.780432">
        <ele>1552.13</ele>
        <time>2021-03-27T14:23:25Z</time>
      </trkpt>
      <trkpt lat="42.013212" lon="-2.780486">
        <ele>1551.8</ele>
        <time>2021-03-27T14:23:41Z</time>
      </trkpt>
      <trkpt lat="42.012874" lon="-2.78051">
        <ele>1550.8</ele>
        <time>2021-03-27T14:23:57Z</time>
      </trkpt>
      <trkpt lat="42.01244" lon="-2.780452">
        <ele>1547.28</ele>
        <time>2021-03-27T14:24:13Z</time>
      </trkpt>
      <trkpt lat="42.011799" lon="-2.780433">
        <ele>1545.59</ele>
        <time>2021-03-27T14:24:29Z</time>
      </trkpt>
      <trkpt lat="42.01164" lon="-2.780401">
        <ele>1544.74</ele>
        <time>2021-03-27T14:24:44Z</time>
      </trkpt>
      <trkpt lat="42.011593" lon="-2.780371">
        <ele>1544.31</ele>
        <time>2021-03-27T14:25:00Z</time>
      </trkpt>
      <trkpt lat="42.011553" lon="-2.780317">
        <ele>1543.82</ele>
        <time>2021-03-27T14:25:16Z</time>
      </trkpt>
      <trkpt lat="42.01153" lon="-2.780237">
        <ele>1543.36</ele>
        <time>2021-03-27T14:25:32Z</time>
      </trkpt>
      <trkpt lat="42.011523" lon="-2.780115">
        <ele>1542.9</ele>
        <time>2021-03-27T14:25:48Z</time>
      </trkpt>
      <trkpt lat="42.011552" lon="-2.779918">
        <ele>1542.46</ele>
        <time>2021-03-27T14:26:03Z</time>
      </trkpt>
      <trkpt lat="42.011591" lon="-2.779833">
        <ele>1542.56</ele>
        <time>2021-03-27T14:26:19Z</time>
      </trkpt>
      <trkpt lat="42.01165" lon="-2.779766">
        <ele>1542.89</ele>
        <time>2021-03-27T14:26:35Z</time>
      </trkpt>
      <trkpt lat="42.012037" lon="-2.779518">
        <ele>1541.37</ele>
        <time>2021-03-27T14:26:51Z</time>
      </trkpt>
      <trkpt lat="42.012098" lon="-2.779431">
        <ele>1540.19</ele>
        <time>2021-03-27T14:27:06Z</time>
      </trkpt>
      <trkpt lat="42.01212" lon="-2.779369">
        <ele>1538.91</ele>
        <time>2021-03-27T14:27:22Z</time>
      </trkpt>
      <trkpt lat="42.01212" lon="-2.77932">
        <ele>1537.97</ele>
        <time>2021-03-27T14:27:38Z</time>
      </trkpt>
      <trkpt lat="42.012089" lon="-2.779245">
        <ele>1536.55</ele>
        <time>2021-03-27T14:27:54Z</time>
      </trkpt>
      <trkpt lat="42.01162" lon="-2.778942">
        <ele>1525.35</ele>
        <time>2021-03-27T14:28:10Z</time>
      </trkpt>
      <trkpt lat="42.011482" lon="-2.778906">
        <ele>1523.2</ele>
        <time>2021-03-27T14:28:25Z</time>
      </trkpt>
      <trkpt lat="42.011366" lon="-2.778923">
        <ele>1522.65</ele>
        <time>2021-03-27T14:28:41Z</time>
      </trkpt>
      <trkpt lat="42.011277" lon="-2.778959">
        <ele>1522.3</ele>
        <time>2021-03-27T14:28:57Z</time>
      </trkpt>
      <trkpt lat="42.011166" lon="-2.779038">
        <ele>1522.66</ele>
        <time>2021-03-27T14:29:13Z</time>
      </trkpt>
      <trkpt lat="42.010901" lon="-2.779293">
        <ele>1522.21</ele>
        <time>2021-03-27T14:29:29Z</time>
      </trkpt>
      <trkpt lat="42.01065" lon="-2.77958">
        <ele>1517.22</ele>
        <time>2021-03-27T14:29:44Z</time>
      </trkpt>
      <trkpt lat="42.010571" lon="-2.779702">
        <ele>1514.59</ele>
        <time>2021-03-27T14:30:00Z</time>
      </trkpt>
      <trkpt lat="42.010315" lon="-2.780271">
        <ele>1507.57</ele>
        <time>2021-03-27T14:30:16Z</time>
      </trkpt>
      <trkpt lat="42.010232" lon="-2.780576">
        <ele>1508.31</ele>
        <time>2021-03-27T14:30:32Z</time>
      </trkpt>
      <trkpt lat="42.010229" lon="-2.780674">
        <ele>1508.8</ele>
        <time>2021-03-27T14:30:47Z</time>
      </trkpt>
      <trkpt lat="42.010329" lon="-2.781273">
        <ele>1509.5</ele>
        <time>2021-03-27T14:31:03Z</time>
      </trkpt>
      <trkpt lat="42.010403" lon="-2.781518">
        <ele>1507.58</ele>
        <time>2021-03-27T14:31:19Z</time>
      </trkpt>
      <trkpt lat="42.010895" lon="-2.782792">
        <ele>1498.19</ele>
        <time>2021-03-27T14:31:35Z</time>
      </trkpt>
      <trkpt lat="42.010918" lon="-2.782894">
        <ele>1497.69</ele>
        <time>2021-03-27T14:31:51Z</time>
      </trkpt>
      <trkpt lat="42.010966" lon="-2.783433">
        <ele>1494.76</ele>
        <time>2021-03-27T14:32:06Z</time>
      </trkpt>
      <trkpt lat="42.011017" lon="-2.783762">
        <ele>1493.19</ele>
        <time>2021-03-27T14:32:22Z</time>
      </trkpt>
      <trkpt lat="42.011022" lon="-2.78392">
        <ele>1492.32</ele>
        <time>2021-03-27T14:32:38Z</time>
      </trkpt>
      <trkpt lat="42.011002" lon="-2.78398">
        <ele>1491.52</ele>
        <time>2021-03-27T14:32:54Z</time>
      </trkpt>
      <trkpt lat="42.010968" lon="-2.784024">
        <ele>1490.39</ele>
        <time>2021-03-27T14:33:10Z</time>
      </trkpt>
      <trkpt lat="42.010923" lon="-2.784042">
        <ele>1489.04</ele>
        <time>2021-03-27T14:33:25Z</time>
      </trkpt>
      <trkpt lat="42.010858" lon="-2.784034">
        <ele>1487.2</ele>
        <time>2021-03-27T14:33:41Z</time>
      </trkpt>
      <trkpt lat="42.010812" lon="-2.784004">
        <ele>1486.31</ele>
        <time>2021-03-27T14:33:57Z</time>
      </trkpt>
      <trkpt lat="42.010733" lon="-2.783868">
        <ele>1485.68</ele>
        <time>2021-03-27T14:34:13Z</time>
      </trkpt>
      <trkpt lat="42.010631" lon="-2.783288">
        <ele>1487.84</ele>
        <time>2021-03-27T14:34:28Z</time>
      </trkpt>
      <trkpt lat="42.010597" lon="-2.783203">
        <ele>1487.44</ele>
        <time>2021-03-27T14:34:44Z</time>
      </trkpt>
      <trkpt lat="42.010551" lon="-2.78312">
        <ele>1486.67</ele>
        <time>2021-03-27T14:35:00Z</time>
      </trkpt>
      <trkpt lat="42.010502" lon="-2.783073">
        <ele>1485.79</ele>
        <time>2021-03-27T14:35:16Z</time>
      </trkpt>
      <trkpt lat="42.010386" lon="-2.783063">
        <ele>1483.34</ele>
        <time>2021-03-27T14:35:32Z</time>
      </trkpt>
      <trkpt lat="42.010327" lon="-2.783091">
        <ele>1482.05</ele>
        <time>2021-03-27T14:35:47Z</time>
      </trkpt>
      <trkpt lat="42.010266" lon="-2.783186">
        <ele>1480.76</ele>
        <time>2021-03-27T14:36:03Z</time>
      </trkpt>
      <trkpt lat="42.01025" lon="-2.783249">
        <ele>1480.42</ele>
        <time>2021-03-27T14:36:19Z</time>
      </trkpt>
      <trkpt lat="42.010257" lon="-2.783348">
        <ele>1480.45</ele>
        <time>2021-03-27T14:36:35Z</time>
      </trkpt>
      <trkpt lat="42.010376" lon="-2.783901">
        <ele>1479.75</ele>
        <time>2021-03-27T14:36:51Z</time>
      </trkpt>
      <trkpt lat="42.010404" lon="-2.784103">
        <ele>1479.85</ele>
        <time>2021-03-27T14:37:06Z</time>
      </trkpt>
      <trkpt lat="42.010398" lon="-2.784308">
        <ele>1479.3</ele>
        <time>2021-03-27T14:37:22Z</time>
      </trkpt>
      <trkpt lat="42.010321" lon="-2.784671">
        <ele>1475.71</ele>
        <time>2021-03-27T14:37:38Z</time>
      </trkpt>
      <trkpt lat="42.010199" lon="-2.78497">
        <ele>1470.55</ele>
        <time>2021-03-27T14:37:54Z</time>
      </trkpt>
      <trkpt lat="42.009937" lon="-2.785427">
        <ele>1464.49</ele>
        <time>2021-03-27T14:38:09Z</time>
      </trkpt>
      <trkpt lat="42.009819" lon="-2.785586">
        <ele>1462.09</ele>
        <time>2021-03-27T14:38:25Z</time>
      </trkpt>
      <trkpt lat="42.009562" lon="-2.785817">
        <ele>1456.6</ele>
        <time>2021-03-27T14:38:41Z</time>
      </trkpt>
      <trkpt lat="42.009121" lon="-2.786081">
        <ele>1452.65</ele>
        <time>2021-03-27T14:38:57Z</time>
      </trkpt>
      <trkpt lat="42.009007" lon="-2.786172">
        <ele>1451.46</ele>
        <time>2021-03-27T14:39:13Z</time>
      </trkpt>
      <trkpt lat="42.008915" lon="-2.786299">
        <ele>1450.41</ele>
        <time>2021-03-27T14:39:28Z</time>
      </trkpt>
      <trkpt lat="42.008871" lon="-2.786385">
        <ele>1449.68</ele>
        <time>2021-03-27T14:39:44Z</time>
      </trkpt>
      <trkpt lat="42.008837" lon="-2.786503">
        <ele>1449.25</ele>
        <time>2021-03-27T14:40:00Z</time>
      </trkpt>
      <trkpt lat="42.008834" lon="-2.786608">
        <ele>1449.33</ele>
        <time>2021-03-27T14:40:16Z</time>
      </trkpt>
      <trkpt lat="42.008852" lon="-2.786713">
        <ele>1449.91</ele>
        <time>2021-03-27T14:40:32Z</time>
      </trkpt>
      <trkpt lat="42.009242" lon="-2.787942">
        <ele>1445.91</ele>
        <time>2021-03-27T14:40:47Z</time>
      </trkpt>
      <trkpt lat="42.009611" lon="-2.788902">
        <ele>1435.95</ele>
        <time>2021-03-27T14:41:03Z</time>
      </trkpt>
      <trkpt lat="42.009736" lon="-2.78917">
        <ele>1432.26</ele>
        <time>2021-03-27T14:41:19Z</time>
      </trkpt>
      <trkpt lat="42.009771" lon="-2.7893">
        <ele>1431.12</ele>
        <time>2021-03-27T14:41:35Z</time>
      </trkpt>
      <trkpt lat="42.012079" lon="-2.790306">
        <ele>1451.01</ele>
        <time>2021-03-27T14:41:36Z</time>
      </trkpt>
      <trkpt lat="42.012359" lon="-2.790385">
        <ele>1454.82</ele>
        <time>2021-03-27T14:41:38Z</time>
      </trkpt>
      <trkpt lat="42.012636" lon="-2.79043">
        <ele>1458.64</ele>
        <time>2021-03-27T14:41:39Z</time>
      </trkpt>
      <trkpt lat="42.012907" lon="-2.790447">
        <ele>1459.13</ele>
        <time>2021-03-27T14:41:41Z</time>
      </trkpt>
      <trkpt lat="42.013156" lon="-2.790423">
        <ele>1460.2</ele>
        <time>2021-03-27T14:41:43Z</time>
      </trkpt>
      <trkpt lat="42.013919" lon="-2.790237">
        <ele>1465.34</ele>
        <time>2021-03-27T14:41:44Z</time>
      </trkpt>
      <trkpt lat="42.014924" lon="-2.789955">
        <ele>1472.1</ele>
        <time>2021-03-27T14:41:46Z</time>
      </trkpt>
      <trkpt lat="42.015537" lon="-2.789717">
        <ele>1473.3</ele>
        <time>2021-03-27T14:41:47Z</time>
      </trkpt>
      <trkpt lat="42.016129" lon="-2.789516">
        <ele>1476.3</ele>
        <time>2021-03-27T14:41:49Z</time>
      </trkpt>
      <trkpt lat="42.016336" lon="-2.789432">
        <ele>1476.76</ele>
        <time>2021-03-27T14:41:50Z</time>
      </trkpt>
      <trkpt lat="42.016502" lon="-2.789337">
        <ele>1477.63</ele>
        <time>2021-03-27T14:41:52Z</time>
      </trkpt>
      <trkpt lat="42.016731" lon="-2.789159">
        <ele>1480.1</ele>
        <time>2021-03-27T14:41:54Z</time>
      </trkpt>
      <trkpt lat="42.01772" lon="-2.788304">
        <ele>1489.08</ele>
        <time>2021-03-27T14:41:55Z</time>
      </trkpt>
      <trkpt lat="42.019639" lon="-2.786399">
        <ele>1503.23</ele>
        <time>2021-03-27T14:41:57Z</time>
      </trkpt>
      <trkpt lat="42.01988" lon="-2.786065">
        <ele>1508.18</ele>
        <time>2021-03-27T14:41:58Z</time>
      </trkpt>
      <trkpt lat="42.020069" lon="-2.785651">
        <ele>1509.96</ele>
        <time>2021-03-27T14:42:00Z</time>
      </trkpt>
      <trkpt lat="42.020137" lon="-2.785411">
        <ele>1510.69</ele>
        <time>2021-03-27T14:42:01Z</time>
      </trkpt>
      <trkpt lat="42.020182" lon="-2.785188">
        <ele>1512.84</ele>
        <time>2021-03-27T14:42:03Z</time>
      </trkpt>
      <trkpt lat="42.020211" lon="-2.784953">
        <ele>1514.95</ele>
        <time>2021-03-27T14:42:04Z</time>
      </trkpt>
      <trkpt lat="42.020236" lon="-2.784178">
        <ele>1516.98</ele>
        <time>2021-03-27T14:42:06Z</time>
      </trkpt>
      <trkpt lat="42.020313" lon="-2.783788">
        <ele>1521.12</ele>
        <time>2021-03-27T14:42:08Z</time>
      </trkpt>
      <trkpt lat="42.020391" lon="-2.783534">
        <ele>1523.88</ele>
        <time>2021-03-27T14:42:09Z</time>
      </trkpt>
      <trkpt lat="42.020507" lon="-2.783278">
        <ele>1525.03</ele>
        <time>2021-03-27T14:42:11Z</time>
      </trkpt>
      <trkpt lat="42.021212" lon="-2.782011">
        <ele>1531.71</ele>
        <time>2021-03-27T14:42:12Z</time>
      </trkpt>
      <trkpt lat="42.021307" lon="-2.781877">
        <ele>1532.99</ele>
        <time>2021-03-27T14:42:14Z</time>
      </trkpt>
      <trkpt lat="42.021705" lon="-2.781468">
        <ele>1535.79</ele>
        <time>2021-03-27T14:42:15Z</time>
      </trkpt>
      <trkpt lat="42.02185" lon="-2.78129">
        <ele>1536.09</ele>
        <time>2021-03-27T14:42:17Z</time>
      </trkpt>
      <trkpt lat="42.021992" lon="-2.781069">
        <ele>1537.78</ele>
        <time>2021-03-27T14:42:19Z</time>
      </trkpt>
      <trkpt lat="42.022248" lon="-2.780559">
        <ele>1546.44</ele>
        <time>2021-03-27T14:42:20Z</time>
      </trkpt>
      <trkpt lat="42.0223" lon="-2.780387">
        <ele>1548.28</ele>
        <time>2021-03-27T14:42:22Z</time>
      </trkpt>
      <trkpt lat="42.022336" lon="-2.779925">
        <ele>1552.34</ele>
        <time>2021-03-27T14:42:23Z</time>
      </trkpt>
      <trkpt lat="42.022273" lon="-2.778916">
        <ele>1556.65</ele>
        <time>2021-03-27T14:42:25Z</time>
      </trkpt>
      <trkpt lat="42.022275" lon="-2.778389">
        <ele>1558.93</ele>
        <time>2021-03-27T14:42:26Z</time>
      </trkpt>
      <trkpt lat="42.022315" lon="-2.778065">
        <ele>1558.6</ele>
        <time>2021-03-27T14:42:28Z</time>
      </trkpt>
      <trkpt lat="42.02286" lon="-2.774709">
        <ele>1582.42</ele>
        <time>2021-03-27T14:42:29Z</time>
      </trkpt>
      <trkpt lat="42.022907" lon="-2.774566">
        <ele>1583.45</ele>
        <time>2021-03-27T14:42:31Z</time>
      </trkpt>
      <trkpt lat="42.023014" lon="-2.774372">
        <ele>1584.19</ele>
        <time>2021-03-27T14:42:33Z</time>
      </trkpt>
      <trkpt lat="42.023082" lon="-2.774289">
        <ele>1583.91</ele>
        <time>2021-03-27T14:42:34Z</time>
      </trkpt>
      <trkpt lat="42.023245" lon="-2.77417">
        <ele>1583.22</ele>
        <time>2021-03-27T14:42:36Z</time>
      </trkpt>
      <trkpt lat="42.023348" lon="-2.774135">
        <ele>1582.66</ele>
        <time>2021-03-27T14:42:37Z</time>
      </trkpt>
      <trkpt lat="42.02352" lon="-2.77413">
        <ele>1582.35</ele>
        <time>2021-03-27T14:42:39Z</time>
      </trkpt>
      <trkpt lat="42.023691" lon="-2.774182">
        <ele>1582.84</ele>
        <time>2021-03-27T14:42:40Z</time>
      </trkpt>
      <trkpt lat="42.023875" lon="-2.774346">
        <ele>1585.43</ele>
        <time>2021-03-27T14:42:42Z</time>
      </trkpt>
      <trkpt lat="42.024011" lon="-2.774576">
        <ele>1588.43</ele>
        <time>2021-03-27T14:42:44Z</time>
      </trkpt>
      <trkpt lat="42.024703" lon="-2.776415">
        <ele>1606.1</ele>
        <time>2021-03-27T14:42:45Z</time>
      </trkpt>
      <trkpt lat="42.024843" lon="-2.776711">
        <ele>1606.96</ele>
        <time>2021-03-27T14:42:47Z</time>
      </trkpt>
      <trkpt lat="42.025056" lon="-2.777087">
        <ele>1607.5</ele>
        <time>2021-03-27T14:42:48Z</time>
      </trkpt>
      <trkpt lat="42.025235" lon="-2.777275">
        <ele>1609.09</ele>
        <time>2021-03-27T14:42:50Z</time>
      </trkpt>
      <trkpt lat="42.025468" lon="-2.777375">
        <ele>1609.36</ele>
        <time>2021-03-27T14:42:51Z</time>
      </trkpt>
      <trkpt lat="42.025722" lon="-2.777435">
        <ele>1610.86</ele>
        <time>2021-03-27T14:42:53Z</time>
      </trkpt>
      <trkpt lat="42.025912" lon="-2.777455">
        <ele>1612.45</ele>
        <time>2021-03-27T14:42:54Z</time>
      </trkpt>
      <trkpt lat="42.026158" lon="-2.777448">
        <ele>1614.86</ele>
        <time>2021-03-27T14:42:56Z</time>
      </trkpt>
      <trkpt lat="42.026425" lon="-2.777411">
        <ele>1615.99</ele>
        <time>2021-03-27T14:42:58Z</time>
      </trkpt>
      <trkpt lat="42.027314" lon="-2.777135">
        <ele>1622.16</ele>
        <time>2021-03-27T14:42:59Z</time>
      </trkpt>
      <trkpt lat="42.02804" lon="-2.776924">
        <ele>1623.78</ele>
        <time>2021-03-27T14:43:01Z</time>
      </trkpt>
      <trkpt lat="42.028168" lon="-2.776903">
        <ele>1624.77</ele>
        <time>2021-03-27T14:43:02Z</time>
      </trkpt>
      <trkpt lat="42.028246" lon="-2.776899">
        <ele>1625.1</ele>
        <time>2021-03-27T14:43:04Z</time>
      </trkpt>
      <trkpt lat="42.028434" lon="-2.776945">
        <ele>1625.45</ele>
        <time>2021-03-27T14:43:05Z</time>
      </trkpt>
      <trkpt lat="42.028521" lon="-2.776987">
        <ele>1626.19</ele>
        <time>2021-03-27T14:43:07Z</time>
      </trkpt>
      <trkpt lat="42.028615" lon="-2.777066">
        <ele>1627.22</ele>
        <time>2021-03-27T14:43:09Z</time>
      </trkpt>
      <trkpt lat="42.028777" lon="-2.777294">
        <ele>1630.97</ele>
        <time>2021-03-27T14:43:10Z</time>
      </trkpt>
      <trkpt lat="42.028836" lon="-2.777436">
        <ele>1633.57</ele>
        <time>2021-03-27T14:43:12Z</time>
      </trkpt>
      <trkpt lat="42.028872" lon="-2.777572">
        <ele>1635.6</ele>
        <time>2021-03-27T14:43:13Z</time>
      </trkpt>
      <trkpt lat="42.028898" lon="-2.777887">
        <ele>1637.84</ele>
        <time>2021-03-27T14:43:15Z</time>
      </trkpt>
      <trkpt lat="42.028797" lon="-2.779245">
        <ele>1643.65</ele>
        <time>2021-03-27T14:43:16Z</time>
      </trkpt>
      <trkpt lat="42.028802" lon="-2.78056">
        <ele>1651.9</ele>
        <time>2021-03-27T14:43:18Z</time>
      </trkpt>
      <trkpt lat="42.028813" lon="-2.780708">
        <ele>1652.97</ele>
        <time>2021-03-27T14:43:19Z</time>
      </trkpt>
      <trkpt lat="42.028859" lon="-2.780964">
        <ele>1655.55</ele>
        <time>2021-03-27T14:43:21Z</time>
      </trkpt>
      <trkpt lat="42.028911" lon="-2.781099">
        <ele>1657.45</ele>
        <time>2021-03-27T14:43:23Z</time>
      </trkpt>
      <trkpt lat="42.029177" lon="-2.78151">
        <ele>1660.85</ele>
        <time>2021-03-27T14:43:24Z</time>
      </trkpt>
      <trkpt lat="42.029602" lon="-2.782036">
        <ele>1667.89</ele>
        <time>2021-03-27T14:43:26Z</time>
      </trkpt>
      <trkpt lat="42.029867" lon="-2.782277">
        <ele>1665.71</ele>
        <time>2021-03-27T14:43:27Z</time>
      </trkpt>
      <trkpt lat="42.03001" lon="-2.782384">
        <ele>1663.1</ele>
        <time>2021-03-27T14:43:29Z</time>
      </trkpt>
      <trkpt lat="42.030688" lon="-2.782754">
        <ele>1662.85</ele>
        <time>2021-03-27T14:43:30Z</time>
      </trkpt>
      <trkpt lat="42.030802" lon="-2.78279">
        <ele>1660.9</ele>
        <time>2021-03-27T14:43:32Z</time>
      </trkpt>
      <trkpt lat="42.030902" lon="-2.782806">
        <ele>1660.28</ele>
        <time>2021-03-27T14:43:34Z</time>
      </trkpt>
      <trkpt lat="42.031115" lon="-2.782773">
        <ele>1661.12</ele>
        <time>2021-03-27T14:43:35Z</time>
      </trkpt>
      <trkpt lat="42.03122" lon="-2.782722">
        <ele>1662.24</ele>
        <time>2021-03-27T14:43:37Z</time>
      </trkpt>
      <trkpt lat="42.031359" lon="-2.782623">
        <ele>1663.91</ele>
        <time>2021-03-27T14:43:38Z</time>
      </trkpt>
      <trkpt lat="42.031672" lon="-2.782361">
        <ele>1668.99</ele>
        <time>2021-03-27T14:43:40Z</time>
      </trkpt>
      <trkpt lat="42.031856" lon="-2.782285">
        <ele>1671.04</ele>
        <time>2021-03-27T14:43:41Z</time>
      </trkpt>
      <trkpt lat="42.032028" lon="-2.78227">
        <ele>1672.15</ele>
        <time>2021-03-27T14:43:43Z</time>
      </trkpt>
      <trkpt lat="42.03223" lon="-2.78233">
        <ele>1672.55</ele>
        <time>2021-03-27T14:43:45Z</time>
      </trkpt>
      <trkpt lat="42.032396" lon="-2.782414">
        <ele>1676.69</ele>
        <time>2021-03-27T14:43:46Z</time>
      </trkpt>
      <trkpt lat="42.032692" lon="-2.782599">
        <ele>1682.82</ele>
        <time>2021-03-27T14:43:48Z</time>
      </trkpt>
      <trkpt lat="42.032911" lon="-2.78274">
        <ele>1684.54</ele>
        <time>2021-03-27T14:43:49Z</time>
      </trkpt>
      <trkpt lat="42.033265" lon="-2.783055">
        <ele>1687.79</ele>
        <time>2021-03-27T14:43:51Z</time>
      </trkpt>
      <trkpt lat="42.034095" lon="-2.783987">
        <ele>1697.61</ele>
        <time>2021-03-27T14:43:52Z</time>
      </trkpt>
      <trkpt lat="42.034183" lon="-2.784055">
        <ele>1698.11</ele>
        <time>2021-03-27T14:43:54Z</time>
      </trkpt>
      <trkpt lat="42.034461" lon="-2.784194">
        <ele>1696.83</ele>
        <time>2021-03-27T14:43:55Z</time>
      </trkpt>
      <trkpt lat="42.034546" lon="-2.784254">
        <ele>1697.21</ele>
        <time>2021-03-27T14:43:57Z</time>
      </trkpt>
      <trkpt lat="42.034701" lon="-2.784406">
        <ele>1697.25</ele>
        <time>2021-03-27T14:43:59Z</time>
      </trkpt>
      <trkpt lat="42.035999" lon="-2.786021">
        <ele>1711.09</ele>
        <time>2021-03-27T14:44:00Z</time>
      </trkpt>
      <trkpt lat="42.036181" lon="-2.786201">
        <ele>1713.21</ele>
        <time>2021-03-27T14:44:02Z</time>
      </trkpt>
      <trkpt lat="42.036281" lon="-2.786253">
        <ele>1714.54</ele>
        <time>2021-03-27T14:44:03Z</time>
      </trkpt>
      <trkpt lat="42.036397" lon="-2.786278">
        <ele>1716.55</ele>
        <time>2021-03-27T14:44:05Z</time>
      </trkpt>
      <trkpt lat="42.03656" lon="-2.786252">
        <ele>1719.57</ele>
        <time>2021-03-27T14:44:06Z</time>
      </trkpt>
      <trkpt lat="42.036706" lon="-2.786169">
        <ele>1722.85</ele>
        <time>2021-03-27T14:44:08Z</time>
      </trkpt>
      <trkpt lat="42.036808" lon="-2.786059">
        <ele>1725.75</ele>
        <time>2021-03-27T14:44:10Z</time>
      </trkpt>
      <trkpt lat="42.036876" lon="-2.785927">
        <ele>1727.6</ele>
        <time>2021-03-27T14:44:11Z</time>
      </trkpt>
      <trkpt lat="42.036927" lon="-2.785778">
        <ele>1728.91</ele>
        <time>2021-03-27T14:44:13Z</time>
      </trkpt>
      <trkpt lat="42.036945" lon="-2.785416">
        <ele>1731.01</ele>
        <time>2021-03-27T14:44:14Z</time>
      </trkpt>
      <trkpt lat="42.036905" lon="-2.785129">
        <ele>1732.26</ele>
        <time>2021-03-27T14:44:16Z</time>
      </trkpt>
      <trkpt lat="42.036761" lon="-2.784408">
        <ele>1734.18</ele>
        <time>2021-03-27T14:44:17Z</time>
      </trkpt>
      <trkpt lat="42.036758" lon="-2.784316">
        <ele>1735.34</ele>
        <time>2021-03-27T14:44:19Z</time>
      </trkpt>
      <trkpt lat="42.036782" lon="-2.784156">
        <ele>1737.61</ele>
        <time>2021-03-27T14:44:20Z</time>
      </trkpt>
      <trkpt lat="42.036794" lon="-2.7841">
        <ele>1738.74</ele>
        <time>2021-03-27T14:44:22Z</time>
      </trkpt>
      <trkpt lat="42.036888" lon="-2.783969">
        <ele>1742.34</ele>
        <time>2021-03-27T14:44:24Z</time>
      </trkpt>
      <trkpt lat="42.036979" lon="-2.78391">
        <ele>1744.86</ele>
        <time>2021-03-27T14:44:25Z</time>
      </trkpt>
      <trkpt lat="42.037087" lon="-2.783887">
        <ele>1746.59</ele>
        <time>2021-03-27T14:44:27Z</time>
      </trkpt>
      <trkpt lat="42.037177" lon="-2.783905">
        <ele>1747.16</ele>
        <time>2021-03-27T14:44:28Z</time>
      </trkpt>
      <trkpt lat="42.037583" lon="-2.784124">
        <ele>1747.36</ele>
        <time>2021-03-27T14:44:30Z</time>
      </trkpt>
      <trkpt lat="42.037721" lon="-2.784274">
        <ele>1746.74</ele>
        <time>2021-03-27T14:44:31Z</time>
      </trkpt>
      <trkpt lat="42.037922" lon="-2.784608">
        <ele>1746.17</ele>
        <time>2021-03-27T14:44:33Z</time>
      </trkpt>
      <trkpt lat="42.03807" lon="-2.784767">
        <ele>1747.62</ele>
        <time>2021-03-27T14:44:35Z</time>
      </trkpt>
      <trkpt lat="42.038167" lon="-2.784818">
        <ele>1749.68</ele>
        <time>2021-03-27T14:44:36Z</time>
      </trkpt>
      <trkpt lat="42.038393" lon="-2.784867">
        <ele>1752.91</ele>
        <time>2021-03-27T14:44:38Z</time>
      </trkpt>
      <trkpt lat="42.038793" lon="-2.784892">
        <ele>1754.13</ele>
        <time>2021-03-27T14:44:39Z</time>
      </trkpt>
      <trkpt lat="42.038915" lon="-2.784919">
        <ele>1753.85</ele>
        <time>2021-03-27T14:44:41Z</time>
      </trkpt>
      <trkpt lat="42.039517" lon="-2.785258">
        <ele>1754.54</ele>
        <time>2021-03-27T14:44:42Z</time>
      </trkpt>
      <trkpt lat="42.039927" lon="-2.78545">
        <ele>1753.12</ele>
        <time>2021-03-27T14:44:44Z</time>
      </trkpt>
      <trkpt lat="42.040619" lon="-2.785716">
        <ele>1750.72</ele>
        <time>2021-03-27T14:44:45Z</time>
      </trkpt>
      <trkpt lat="42.040739" lon="-2.785789">
        <ele>1749.66</ele>
        <time>2021-03-27T14:44:47Z</time>
      </trkpt>
      <trkpt lat="42.04194" lon="-2.786693">
        <ele>1741.9</ele>
        <time>2021-03-27T14:44:49Z</time>
      </trkpt>
      <trkpt lat="42.042142" lon="-2.786742">
        <ele>1739.67</ele>
        <time>2021-03-27T14:44:50Z</time>
      </trkpt>
      <trkpt lat="42.042275" lon="-2.786736">
        <ele>1737.25</ele>
        <time>2021-03-27T14:44:52Z</time>
      </trkpt>
      <trkpt lat="42.043081" lon="-2.786605">
        <ele>1727.44</ele>
        <time>2021-03-27T14:44:53Z</time>
      </trkpt>
      <trkpt lat="42.043309" lon="-2.786587">
        <ele>1726.98</ele>
        <time>2021-03-27T14:44:55Z</time>
      </trkpt>
      <trkpt lat="42.043431" lon="-2.786594">
        <ele>1725.51</ele>
        <time>2021-03-27T14:44:56Z</time>
      </trkpt>
      <trkpt lat="42.043566" lon="-2.786645">
        <ele>1724.33</ele>
        <time>2021-03-27T14:44:58Z</time>
      </trkpt>
      <trkpt lat="42.043675" lon="-2.78673">
        <ele>1723.65</ele>
        <time>2021-03-27T14:45:00Z</time>
      </trkpt>
      <trkpt lat="42.043761" lon="-2.786832">
        <ele>1723.31</ele>
        <time>2021-03-27T14:45:01Z</time>
      </trkpt>
      <trkpt lat="42.043901" lon="-2.787054">
        <ele>1723.56</ele>
        <time>2021-03-27T14:45:03Z</time>
      </trkpt>
      <trkpt lat="42.044093" lon="-2.787263">
        <ele>1720.77</ele>
        <time>2021-03-27T14:45:04Z</time>
      </trkpt>
      <trkpt lat="42.044711" lon="-2.787837">
        <ele>1718.56</ele>
        <time>2021-03-27T14:45:06Z</time>
      </trkpt>
      <trkpt lat="42.045406" lon="-2.788533">
        <ele>1709.02</ele>
        <time>2021-03-27T14:45:07Z</time>
      </trkpt>
      <trkpt lat="42.045755" lon="-2.788795">
        <ele>1712.59</ele>
        <time>2021-03-27T14:45:09Z</time>
      </trkpt>
      <trkpt lat="42.045926" lon="-2.788866">
        <ele>1711.79</ele>
        <time>2021-03-27T14:45:10Z</time>
      </trkpt>
      <trkpt lat="42.046096" lon="-2.788853">
        <ele>1707.08</ele>
        <time>2021-03-27T14:45:12Z</time>
      </trkpt>
      <trkpt lat="42.046233" lon="-2.788783">
        <ele>1705.57</ele>
        <time>2021-03-27T14:45:14Z</time>
      </trkpt>
      <trkpt lat="42.046382" lon="-2.78863">
        <ele>1703.35</ele>
        <time>2021-03-27T14:45:15Z</time>
      </trkpt>
      <trkpt lat="42.046575" lon="-2.788362">
        <ele>1704.31</ele>
        <time>2021-03-27T14:45:17Z</time>
      </trkpt>
      <trkpt lat="42.046726" lon="-2.788067">
        <ele>1704.34</ele>
        <time>2021-03-27T14:45:18Z</time>
      </trkpt>
      <trkpt lat="42.046823" lon="-2.787772">
        <ele>1702.66</ele>
        <time>2021-03-27T14:45:20Z</time>
      </trkpt>
      <trkpt lat="42.046918" lon="-2.787413">
        <ele>1700.57</ele>
        <time>2021-03-27T14:45:21Z</time>
      </trkpt>
      <trkpt lat="42.04707" lon="-2.786645">
        <ele>1697.42</ele>
        <time>2021-03-27T14:45:23Z</time>
      </trkpt>
      <trkpt lat="42.047115" lon="-2.785884">
        <ele>1689.47</ele>
        <time>2021-03-27T14:45:25Z</time>
      </trkpt>
      <trkpt lat="42.047171" lon="-2.785499">
        <ele>1688.02</ele>
        <time>2021-03-27T14:45:26Z</time>
      </trkpt>
      <trkpt lat="42.047251" lon="-2.785152">
        <ele>1684.96</ele>
        <time>2021-03-27T14:45:28Z</time>
      </trkpt>
      <trkpt lat="42.04741" lon="-2.784801">
        <ele>1682.93</ele>
        <time>2021-03-27T14:45:29Z</time>
      </trkpt>
      <trkpt lat="42.047621" lon="-2.784477">
        <ele>1681.8</ele>
        <time>2021-03-27T14:45:31Z</time>
      </trkpt>
      <trkpt lat="42.047784" lon="-2.784335">
        <ele>1681.25</ele>
        <time>2021-03-27T14:45:32Z</time>
      </trkpt>
      <trkpt lat="42.048042" lon="-2.784193">
        <ele>1676.9</ele>
        <time>2021-03-27T14:45:34Z</time>
      </trkpt>
      <trkpt lat="42.048185" lon="-2.784163">
        <ele>1673.49</ele>
        <time>2021-03-27T14:45:35Z</time>
      </trkpt>
      <trkpt lat="42.048421" lon="-2.784156">
        <ele>1668.0</ele>
        <time>2021-03-27T14:45:37Z</time>
      </trkpt>
      <trkpt lat="42.048542" lon="-2.78418">
        <ele>1665.7</ele>
        <time>2021-03-27T14:45:39Z</time>
      </trkpt>
      <trkpt lat="42.048676" lon="-2.784234">
        <ele>1665.2</ele>
        <time>2021-03-27T14:45:40Z</time>
      </trkpt>
      <trkpt lat="42.049708" lon="-2.78486">
        <ele>1665.41</ele>
        <time>2021-03-27T14:45:42Z</time>
      </trkpt>
      <trkpt lat="42.049806" lon="-2.784903">
        <ele>1664.92</ele>
        <time>2021-03-27T14:45:43Z</time>
      </trkpt>
      <trkpt lat="42.050009" lon="-2.784939">
        <ele>1661.6</ele>
        <time>2021-03-27T14:45:45Z</time>
      </trkpt>
      <trkpt lat="42.05051" lon="-2.784919">
        <ele>1653.88</ele>
        <time>2021-03-27T14:45:46Z</time>
      </trkpt>
      <trkpt lat="42.050654" lon="-2.784928">
        <ele>1652.64</ele>
        <time>2021-03-27T14:45:48Z</time>
      </trkpt>
      <trkpt lat="42.050763" lon="-2.784958">
        <ele>1652.0</ele>
        <time>2021-03-27T14:45:50Z</time>
      </trkpt>
      <trkpt lat="42.050866" lon="-2.784994">
        <ele>1651.54</ele>
        <time>2021-03-27T14:45:51Z</time>
      </trkpt>
      <trkpt lat="42.051331" lon="-2.785289">
        <ele>1653.56</ele>
        <time>2021-03-27T14:45:53Z</time>
      </trkpt>
      <trkpt lat="42.051646" lon="-2.785408">
        <ele>1651.14</ele>
        <time>2021-03-27T14:45:54Z</time>
      </trkpt>
      <trkpt lat="42.051754" lon="-2.78542">
        <ele>1651.05</ele>
        <time>2021-03-27T14:45:56Z</time>
      </trkpt>
      <trkpt lat="42.051907" lon="-2.785399">
        <ele>1650.65</ele>
        <time>2021-03-27T14:45:57Z</time>
      </trkpt>
      <trkpt lat="42.052569" lon="-2.785085">
        <ele>1643.53</ele>
        <time>2021-03-27T14:45:59Z</time>
      </trkpt>
      <trkpt lat="42.052778" lon="-2.785065">
        <ele>1643.17</ele>
        <time>2021-03-27T14:46:00Z</time>
      </trkpt>
      <trkpt lat="42.052863" lon="-2.785094">
        <ele>1642.97</ele>
        <time>2021-03-27T14:46:02Z</time>
      </trkpt>
      <trkpt lat="42.053029" lon="-2.785226">
        <ele>1643.53</ele>
        <time>2021-03-27T14:46:04Z</time>
      </trkpt>
      <trkpt lat="42.053092" lon="-2.785319">
        <ele>1643.29</ele>
        <time>2021-03-27T14:46:05Z</time>
      </trkpt>
      <trkpt lat="42.053214" lon="-2.785629">
        <ele>1638.16</ele>
        <time>2021-03-27T14:46:07Z</time>
      </trkpt>
      <trkpt lat="42.053251" lon="-2.785819">
        <ele>1632.3</ele>
        <time>2021-03-27T14:46:08Z</time>
      </trkpt>
      <trkpt lat="42.053247" lon="-2.786163">
        <ele>1627.92</ele>
        <time>2021-03-27T14:46:10Z</time>
      </trkpt>
      <trkpt lat="42.053124" lon="-2.787483">
        <ele>1628.77</ele>
        <time>2021-03-27T14:46:11Z</time>
      </trkpt>
      <trkpt lat="42.052963" lon="-2.788323">
        <ele>1625.78</ele>
        <time>2021-03-27T14:46:13Z</time>
      </trkpt>
      <trkpt lat="42.052893" lon="-2.788601">
        <ele>1624.19</ele>
        <time>2021-03-27T14:46:15Z</time>
      </trkpt>
      <trkpt lat="42.052788" lon="-2.788892">
        <ele>1622.67</ele>
        <time>2021-03-27T14:46:16Z</time>
      </trkpt>
      <trkpt lat="42.052557" lon="-2.789425">
        <ele>1624.1</ele>
        <time>2021-03-27T14:46:18Z</time>
      </trkpt>
      <trkpt lat="42.052508" lon="-2.789596">
        <ele>1622.41</ele>
        <time>2021-03-27T14:46:19Z</time>
      </trkpt>
      <trkpt lat="42.052485" lon="-2.789746">
        <ele>1620.56</ele>
        <time>2021-03-27T14:46:21Z</time>
      </trkpt>
      <trkpt lat="42.052478" lon="-2.789967">
        <ele>1619.19</ele>
        <time>2021-03-27T14:46:22Z</time>
      </trkpt>
      <trkpt lat="42.052599" lon="-2.790862">
        <ele>1616.66</ele>
        <time>2021-03-27T14:46:24Z</time>
      </trkpt>
      <trkpt lat="42.05264" lon="-2.791054">
        <ele>1614.67</ele>
        <time>2021-03-27T14:46:25Z</time>
      </trkpt>
      <trkpt lat="42.052705" lon="-2.791179">
        <ele>1612.94</ele>
        <time>2021-03-27T14:46:27Z</time>
      </trkpt>
      <trkpt lat="42.052885" lon="-2.791361">
        <ele>1611.67</ele>
        <time>2021-03-27T14:46:29Z</time>
      </trkpt>
      <trkpt lat="42.053113" lon="-2.791382">
        <ele>1612.22</ele>
        <time>2021-03-27T14:46:30Z</time>
      </trkpt>
      <trkpt lat="42.053241" lon="-2.791336">
        <ele>1611.64</ele>
        <time>2021-03-27T14:46:32Z</time>
      </trkpt>
      <trkpt lat="42.053396" lon="-2.791232">
        <ele>1609.45</ele>
        <time>2021-03-27T14:46:33Z</time>
      </trkpt>
      <trkpt lat="42.053708" lon="-2.790934">
        <ele>1603.78</ele>
        <time>2021-03-27T14:46:35Z</time>
      </trkpt>
      <trkpt lat="42.053895" lon="-2.790808">
        <ele>1601.9</ele>
        <time>2021-03-27T14:46:36Z</time>
      </trkpt>
      <trkpt lat="42.053996" lon="-2.790791">
        <ele>1600.89</ele>
        <time>2021-03-27T14:46:38Z</time>
      </trkpt>
      <trkpt lat="42.054755" lon="-2.790797">
        <ele>1598.09</ele>
        <time>2021-03-27T14:46:40Z</time>
      </trkpt>
      <trkpt lat="42.054971" lon="-2.790731">
        <ele>1596.42</ele>
        <time>2021-03-27T14:46:41Z</time>
      </trkpt>
      <trkpt lat="42.05592" lon="-2.790215">
        <ele>1582.2</ele>
        <time>2021-03-27T14:46:43Z</time>
      </trkpt>
      <trkpt lat="42.056052" lon="-2.790093">
        <ele>1583.34</ele>
        <time>2021-03-27T14:46:44Z</time>
      </trkpt>
      <trkpt lat="42.056164" lon="-2.789939">
        <ele>1583.06</ele>
        <time>2021-03-27T14:46:46Z</time>
      </trkpt>
      <trkpt lat="42.05623" lon="-2.789811">
        <ele>1582.38</ele>
        <time>2021-03-27T14:46:47Z</time>
      </trkpt>
      <trkpt lat="42.05642" lon="-2.789296">
        <ele>1579.15</ele>
        <time>2021-03-27T14:46:49Z</time>
      </trkpt>
      <trkpt lat="42.056512" lon="-2.789121">
        <ele>1577.95</ele>
        <time>2021-03-27T14:46:50Z</time>
      </trkpt>
      <trkpt lat="42.056629" lon="-2.788951">
        <ele>1576.54</ele>
        <time>2021-03-27T14:46:52Z</time>
      </trkpt>
      <trkpt lat="42.056816" lon="-2.788842">
        <ele>1575.33</ele>
        <time>2021-03-27T14:46:54Z</time>
      </trkpt>
      <trkpt lat="42.057054" lon="-2.788821">
        <ele>1574.3</ele>
        <time>2021-03-27T14:46:55Z</time>
      </trkpt>
      <trkpt lat="42.057673" lon="-2.78888">
        <ele>1573.43</ele>
        <time>2021-03-27T14:46:57Z</time>
      </trkpt>
      <trkpt lat="42.058682" lon="-2.789074">
        <ele>1574.76</ele>
        <time>2021-03-27T14:46:58Z</time>
      </trkpt>
      <trkpt lat="42.058835" lon="-2.789048">
        <ele>1575.8</ele>
        <time>2021-03-27T14:47:00Z</time>
      </trkpt>
      <trkpt lat="42.058915" lon="-2.788965">
        <ele>1575.31</ele>
        <time>2021-03-27T14:47:01Z</time>
      </trkpt>
      <trkpt lat="42.05897" lon="-2.788876">
        <ele>1575.22</ele>
        <time>2021-03-27T14:47:03Z</time>
      </trkpt>
      <trkpt lat="42.059006" lon="-2.788739">
        <ele>1575.22</ele>
        <time>2021-03-27T14:47:05Z</time>
      </trkpt>
      <trkpt lat="42.05901" lon="-2.788576">
        <ele>1574.6</ele>
        <time>2021-03-27T14:47:06Z</time>
      </trkpt>
      <trkpt lat="42.058771" lon="-2.787515">
        <ele>1570.39</ele>
        <time>2021-03-27T14:47:08Z</time>
      </trkpt>
      <trkpt lat="42.058748" lon="-2.787363">
        <ele>1569.18</ele>
        <time>2021-03-27T14:47:09Z</time>
      </trkpt>
      <trkpt lat="42.05875" lon="-2.787231">
        <ele>1569.03</ele>
        <time>2021-03-27T14:47:11Z</time>
      </trkpt>
      <trkpt lat="42.058762" lon="-2.787107">
        <ele>1568.43</ele>
        <time>2021-03-27T14:47:12Z</time>
      </trkpt>
      <trkpt lat="42.05894" lon="-2.78642">
        <ele>1568.11</ele>
        <time>2021-03-27T14:47:14Z</time>
      </trkpt>
      <trkpt lat="42.058976" lon="-2.786231">
        <ele>1567.82</ele>
        <time>2021-03-27T14:47:16Z</time>
      </trkpt>
      <trkpt lat="42.05897" lon="-2.785995">
        <ele>1566.47</ele>
        <time>2021-03-27T14:47:17Z</time>
      </trkpt>
      <trkpt lat="42.058724" lon="-2.784454">
        <ele>1556.11</ele>
        <time>2021-03-27T14:47:19Z</time>
      </trkpt>
      <trkpt lat="42.058719" lon="-2.784306">
        <ele>1554.5</ele>
        <time>2021-03-27T14:47:20Z</time>
      </trkpt>
      <trkpt lat="42.058741" lon="-2.784061">
        <ele>1551.7</ele>
        <time>2021-03-27T14:47:22Z</time>
      </trkpt>
      <trkpt lat="42.058769" lon="-2.783976">
        <ele>1550.65</ele>
        <time>2021-03-27T14:47:23Z</time>
      </trkpt>
      <trkpt lat="42.05882" lon="-2.783902">
        <ele>1550.05</ele>
        <time>2021-03-27T14:47:25Z</time>
      </trkpt>
      <trkpt lat="42.058934" lon="-2.783823">
        <ele>1549.19</ele>
        <time>2021-03-27T14:47:26Z</time>
      </trkpt>
      <trkpt lat="42.059014" lon="-2.783807">
        <ele>1548.84</ele>
        <time>2021-03-27T14:47:28Z</time>
      </trkpt>
      <trkpt lat="42.059997" lon="-2.783997">
        <ele>1553.11</ele>
        <time>2021-03-27T14:47:30Z</time>
      </trkpt>
      <trkpt lat="42.06013" lon="-2.783957">
        <ele>1553.5</ele>
        <time>2021-03-27T14:47:31Z</time>
      </trkpt>
      <trkpt lat="42.06022" lon="-2.783836">
        <ele>1552.34</ele>
        <time>2021-03-27T14:47:33Z</time>
      </trkpt>
      <trkpt lat="42.060243" lon="-2.783652">
        <ele>1549.88</ele>
        <time>2021-03-27T14:47:34Z</time>
      </trkpt>
      <trkpt lat="42.060221" lon="-2.783407">
        <ele>1547.6</ele>
        <time>2021-03-27T14:47:36Z</time>
      </trkpt>
      <trkpt lat="42.060082" lon="-2.78276">
        <ele>1540.76</ele>
        <time>2021-03-27T14:47:37Z</time>
      </trkpt>
      <trkpt lat="42.060076" lon="-2.782528">
        <ele>1538.04</ele>
        <time>2021-03-27T14:47:39Z</time>
      </trkpt>
      <trkpt lat="42.06022" lon="-2.781297">
        <ele>1532.53</ele>
        <time>2021-03-27T14:47:41Z</time>
      </trkpt>
      <trkpt lat="42.060245" lon="-2.78119">
        <ele>1530.95</ele>
        <time>2021-03-27T14:47:42Z</time>
      </trkpt>
      <trkpt lat="42.060309" lon="-2.781065">
        <ele>1528.75</ele>
        <time>2021-03-27T14:47:44Z</time>
      </trkpt>
      <trkpt lat="42.060413" lon="-2.780987">
        <ele>1526.47</ele>
        <time>2021-03-27T14:47:45Z</time>
      </trkpt>
      <trkpt lat="42.061363" lon="-2.78083">
        <ele>1525.56</ele>
        <time>2021-03-27T14:47:47Z</time>
      </trkpt>
      <trkpt lat="42.06146" lon="-2.78083">
        <ele>1525.35</ele>
        <time>2021-03-27T14:47:48Z</time>
      </trkpt>
      <trkpt lat="42.061568" lon="-2.78086">
        <ele>1525.69</ele>
        <time>2021-03-27T14:47:50Z</time>
      </trkpt>
      <trkpt lat="42.061785" lon="-2.781012">
        <ele>1524.48</ele>
        <time>2021-03-27T14:47:51Z</time>
      </trkpt>
      <trkpt lat="42.062597" lon="-2.781746">
        <ele>1524.18</ele>
        <time>2021-03-27T14:47:53Z</time>
      </trkpt>
      <trkpt lat="42.063611" lon="-2.782539">
        <ele>1521.84</ele>
        <time>2021-03-27T14:47:55Z</time>
      </trkpt>
      <trkpt lat="42.06374" lon="-2.782592">
        <ele>1521.59</ele>
        <time>2021-03-27T14:47:56Z</time>
      </trkpt>
      <trkpt lat="42.06388" lon="-2.782615">
        <ele>1520.59</ele>
        <time>2021-03-27T14:47:58Z</time>
      </trkpt>
      <trkpt lat="42.064087" lon="-2.782594">
        <ele>1520.03</ele>
        <time>2021-03-27T14:47:59Z</time>
      </trkpt>
      <trkpt lat="42.064426" lon="-2.782491">
        <ele>1520.57</ele>
        <time>2021-03-27T14:48:01Z</time>
      </trkpt>
      <trkpt lat="42.064646" lon="-2.782371">
        <ele>1521.72</ele>
        <time>2021-03-27T14:48:02Z</time>
      </trkpt>
      <trkpt lat="42.064857" lon="-2.782211">
        <ele>1521.21</ele>
        <time>2021-03-27T14:48:04Z</time>
      </trkpt>
      <trkpt lat="42.064973" lon="-2.782019">
        <ele>1518.92</ele>
        <time>2021-03-27T14:48:06Z</time>
      </trkpt>
      <trkpt lat="42.065039" lon="-2.781781">
        <ele>1516.88</ele>
        <time>2021-03-27T14:48:07Z</time>
      </trkpt>
      <trkpt lat="42.065065" lon="-2.781488">
        <ele>1514.88</ele>
        <time>2021-03-27T14:48:09Z</time>
      </trkpt>
      <trkpt lat="42.065017" lon="-2.780985">
        <ele>1511.34</ele>
        <time>2021-03-27T14:48:10Z</time>
      </trkpt>
      <trkpt lat="42.065034" lon="-2.780825">
        <ele>1510.45</ele>
        <time>2021-03-27T14:48:12Z</time>
      </trkpt>
      <trkpt lat="42.065081" lon="-2.78069">
        <ele>1510.35</ele>
        <time>2021-03-27T14:48:13Z</time>
      </trkpt>
      <trkpt lat="42.065378" lon="-2.78008">
        <ele>1506.59</ele>
        <time>2021-03-27T14:48:15Z</time>
      </trkpt>
      <trkpt lat="42.065746" lon="-2.779338">
        <ele>1499.61</ele>
        <time>2021-03-27T14:48:16Z</time>
      </trkpt>
      <trkpt lat="42.065814" lon="-2.779231">
        <ele>1498.58</ele>
        <time>2021-03-27T14:48:18Z</time>
      </trkpt>
      <trkpt lat="42.065895" lon="-2.779155">
        <ele>1498.03</ele>
        <time>2021-03-27T14:48:20Z</time>
      </trkpt>
      <trkpt lat="42.065996" lon="-2.779093">
        <ele>1497.58</ele>
        <time>2021-03-27T14:48:21Z</time>
      </trkpt>
      <trkpt lat="42.067622" lon="-2.778505">
        <ele>1479.41</ele>
        <time>2021-03-27T14:48:23Z</time>
      </trkpt>
      <trkpt lat="42.067764" lon="-2.778464">
        <ele>1478.33</ele>
        <time>2021-03-27T14:48:24Z</time>
      </trkpt>
      <trkpt lat="42.067874" lon="-2.778457">
        <ele>1477.43</ele>
        <time>2021-03-27T14:48:26Z</time>
      </trkpt>
      <trkpt lat="42.067971" lon="-2.778481">
        <ele>1477.33</ele>
        <time>2021-03-27T14:48:27Z</time>
      </trkpt>
      <trkpt lat="42.068616" lon="-2.778753">
        <ele>1475.93</ele>
        <time>2021-03-27T14:48:29Z</time>
      </trkpt>
      <trkpt lat="42.069035" lon="-2.779003">
        <ele>1473.25</ele>
        <time>2021-03-27T14:48:31Z</time>
      </trkpt>
      <trkpt lat="42.069436" lon="-2.779169">
        <ele>1471.19</ele>
        <time>2021-03-27T14:48:32Z</time>
      </trkpt>
      <trkpt lat="42.069701" lon="-2.779315">
        <ele>1468.98</ele>
        <time>2021-03-27T14:48:34Z</time>
      </trkpt>
      <trkpt lat="42.069837" lon="-2.779408">
        <ele>1464.1</ele>
        <time>2021-03-27T14:48:35Z</time>
      </trkpt>
      <trkpt lat="42.06994" lon="-2.779517">
        <ele>1460.93</ele>
        <time>2021-03-27T14:48:37Z</time>
      </trkpt>
      <trkpt lat="42.070224" lon="-2.779968">
        <ele>1463.52</ele>
        <time>2021-03-27T14:48:38Z</time>
      </trkpt>
      <trkpt lat="42.070285" lon="-2.780024">
        <ele>1464.0</ele>
        <time>2021-03-27T14:48:40Z</time>
      </trkpt>
      <trkpt lat="42.070406" lon="-2.780085">
        <ele>1464.87</ele>
        <time>2021-03-27T14:48:41Z</time>
      </trkpt>
      <trkpt lat="42.070619" lon="-2.780149">
        <ele>1462.98</ele>
        <time>2021-03-27T14:48:43Z</time>
      </trkpt>
      <trkpt lat="42.071313" lon="-2.780259">
        <ele>1447.83</ele>
        <time>2021-03-27T14:48:45Z</time>
      </trkpt>
      <trkpt lat="42.071495" lon="-2.780306">
        <ele>1444.36</ele>
        <time>2021-03-27T14:48:46Z</time>
      </trkpt>
      <trkpt lat="42.071776" lon="-2.780487">
        <ele>1442.03</ele>
        <time>2021-03-27T14:48:48Z</time>
      </trkpt>
      <trkpt lat="42.07236" lon="-2.781042">
        <ele>1437.31</ele>
        <time>2021-03-27T14:48:49Z</time>
      </trkpt>
      <trkpt lat="42.072473" lon="-2.781073">
        <ele>1434.81</ele>
        <time>2021-03-27T14:48:51Z</time>
      </trkpt>
      <trkpt lat="42.072604" lon="-2.781036">
        <ele>1433.04</ele>
        <time>2021-03-27T14:48:52Z</time>
      </trkpt>
      <trkpt lat="42.072663" lon="-2.780983">
        <ele>1431.99</ele>
        <time>2021-03-27T14:48:54Z</time>
      </trkpt>
      <trkpt lat="42.072705" lon="-2.780916">
        <ele>1430.9</ele>
        <time>2021-03-27T14:48:56Z</time>
      </trkpt>
      <trkpt lat="42.072736" lon="-2.780806">
        <ele>1429.7</ele>
        <time>2021-03-27T14:48:57Z</time>
      </trkpt>
      <trkpt lat="42.072737" lon="-2.780718">
        <ele>1429.71</ele>
        <time>2021-03-27T14:48:59Z</time>
      </trkpt>
      <trkpt lat="42.072721" lon="-2.780634">
        <ele>1429.59</ele>
        <time>2021-03-27T14:49:00Z</time>
      </trkpt>
      <trkpt lat="42.072659" lon="-2.780487">
        <ele>1430.24</ele>
        <time>2021-03-27T14:49:02Z</time>
      </trkpt>
      <trkpt lat="42.072027" lon="-2.779283">
        <ele>1428.4</ele>
        <time>2021-03-27T14:49:03Z</time>
      </trkpt>
      <trkpt lat="42.071936" lon="-2.77914">
        <ele>1429.48</ele>
        <time>2021-03-27T14:49:05Z</time>
      </trkpt>
      <trkpt lat="42.071527" lon="-2.778594">
        <ele>1426.25</ele>
        <time>2021-03-27T14:49:06Z</time>
      </trkpt>
      <trkpt lat="42.071355" lon="-2.778286">
        <ele>1426.54</ele>
        <time>2021-03-27T14:49:08Z</time>
      </trkpt>
      <trkpt lat="42.070658" lon="-2.776922">
        <ele>1425.34</ele>
        <time>2021-03-27T14:49:10Z</time>
      </trkpt>
      <trkpt lat="42.070495" lon="-2.776683">
        <ele>1422.59</ele>
        <time>2021-03-27T14:49:11Z</time>
      </trkpt>
      <trkpt lat="42.070306" lon="-2.776501">
        <ele>1418.07</ele>
        <time>2021-03-27T14:49:13Z</time>
      </trkpt>
      <trkpt lat="42.07023" lon="-2.776364">
        <ele>1417.82</ele>
        <time>2021-03-27T14:49:14Z</time>
      </trkpt>
      <trkpt lat="42.070216" lon="-2.776266">
        <ele>1418.61</ele>
        <time>2021-03-27T14:49:16Z</time>
      </trkpt>
      <trkpt lat="42.070228" lon="-2.776027">
        <ele>1421.87</ele>
        <time>2021-03-27T14:49:17Z</time>
      </trkpt>
      <trkpt lat="42.070307" lon="-2.775583">
        <ele>1423.21</ele>
        <time>2021-03-27T14:49:19Z</time>
      </trkpt>
      <trkpt lat="42.070312" lon="-2.775432">
        <ele>1421.5</ele>
        <time>2021-03-27T14:49:21Z</time>
      </trkpt>
      <trkpt lat="42.070285" lon="-2.77505">
        <ele>1416.67</ele>
        <time>2021-03-27T14:49:22Z</time>
      </trkpt>
      <trkpt lat="42.070186" lon="-2.77449">
        <ele>1408.14</ele>
        <time>2021-03-27T14:49:24Z</time>
      </trkpt>
      <trkpt lat="42.070173" lon="-2.774181">
        <ele>1404.87</ele>
        <time>2021-03-27T14:49:25Z</time>
      </trkpt>
      <trkpt lat="42.070311" lon="-2.772682">
        <ele>1393.9</ele>
        <time>2021-03-27T14:49:27Z</time>
      </trkpt>
      <trkpt lat="42.070385" lon="-2.772451">
        <ele>1393.29</ele>
        <time>2021-03-27T14:49:28Z</time>
      </trkpt>
      <trkpt lat="42.070667" lon="-2.771904">
        <ele>1395.64</ele>
        <time>2021-03-27T14:49:30Z</time>
      </trkpt>
      <trkpt lat="42.07071" lon="-2.771734">
        <ele>1396.22</ele>
        <time>2021-03-27T14:49:31Z</time>
      </trkpt>
      <trkpt lat="42.070708" lon="-2.771633">
        <ele>1395.95</ele>
        <time>2021-03-27T14:49:33Z</time>
      </trkpt>
      <trkpt lat="42.070665" lon="-2.771469">
        <ele>1394.41</ele>
        <time>2021-03-27T14:49:35Z</time>
      </trkpt>
      <trkpt lat="42.070323" lon="-2.770779">
        <ele>1384.47</ele>
        <time>2021-03-27T14:49:36Z</time>
      </trkpt>
      <trkpt lat="42.069968" lon="-2.770199">
        <ele>1377.34</ele>
        <time>2021-03-27T14:49:38Z</time>
      </trkpt>
      <trkpt lat="42.069862" lon="-2.769969">
        <ele>1374.53</ele>
        <time>2021-03-27T14:49:39Z</time>
      </trkpt>
      <trkpt lat="42.069562" lon="-2.768392">
        <ele>1368.83</ele>
        <time>2021-03-27T14:49:41Z</time>
      </trkpt>
      <trkpt lat="42.069535" lon="-2.768133">
        <ele>1368.06</ele>
        <time>2021-03-27T14:49:42Z</time>
      </trkpt>
      <trkpt lat="42.069534" lon="-2.767927">
        <ele>1367.11</ele>
        <time>2021-03-27T14:49:44Z</time>
      </trkpt>
      <trkpt lat="42.069554" lon="-2.767731">
        <ele>1366.32</ele>
        <time>2021-03-27T14:49:46Z</time>
      </trkpt>
      <trkpt lat="42.069652" lon="-2.767287">
        <ele>1364.76</ele>
        <time>2021-03-27T14:49:47Z</time>
      </trkpt>
      <trkpt lat="42.069734" lon="-2.767056">
        <ele>1363.44</ele>
        <time>2021-03-27T14:49:49Z</time>
      </trkpt>
      <trkpt lat="42.06993" lon="-2.766738">
        <ele>1363.27</ele>
        <time>2021-03-27T14:49:50Z</time>
      </trkpt>
      <trkpt lat="42.070039" lon="-2.766527">
        <ele>1363.12</ele>
        <time>2021-03-27T14:49:52Z</time>
      </trkpt>
      <trkpt lat="42.070061" lon="-2.766388">
        <ele>1361.62</ele>
        <time>2021-03-27T14:49:53Z</time>
      </trkpt>
      <trkpt lat="42.070064" lon="-2.765975">
        <ele>1358.24</ele>
        <time>2021-03-27T14:49:55Z</time>
      </trkpt>
      <trkpt lat="42.070151" lon="-2.765441">
        <ele>1358.65</ele>
        <time>2021-03-27T14:49:56Z</time>
      </trkpt>
      <trkpt lat="42.070141" lon="-2.764796">
        <ele>1351.63</ele>
        <time>2021-03-27T14:49:58Z</time>
      </trkpt>
      <trkpt lat="42.070194" lon="-2.764569">
        <ele>1350.22</ele>
        <time>2021-03-27T14:50:00Z</time>
      </trkpt>
      <trkpt lat="42.070779" lon="-2.763179">
        <ele>1345.29</ele>
        <time>2021-03-27T14:50:01Z</time>
      </trkpt>
      <trkpt lat="42.070867" lon="-2.763053">
        <ele>1344.63</ele>
        <time>2021-03-27T14:50:03Z</time>
      </trkpt>
      <trkpt lat="42.071495" lon="-2.762326">
        <ele>1338.91</ele>
        <time>2021-03-27T14:50:04Z</time>
      </trkpt>
      <trkpt lat="42.07161" lon="-2.762136">
        <ele>1339.17</ele>
        <time>2021-03-27T14:50:06Z</time>
      </trkpt>
      <trkpt lat="42.071733" lon="-2.761842">
        <ele>1336.03</ele>
        <time>2021-03-27T14:50:07Z</time>
      </trkpt>
      <trkpt lat="42.07183" lon="-2.761685">
        <ele>1333.72</ele>
        <time>2021-03-27T14:50:09Z</time>
      </trkpt>
      <trkpt lat="42.072278" lon="-2.761192">
        <ele>1323.84</ele>
        <time>2021-03-27T14:50:11Z</time>
      </trkpt>
      <trkpt lat="42.072438" lon="-2.761066">
        <ele>1322.91</ele>
        <time>2021-03-27T14:50:12Z</time>
      </trkpt>
      <trkpt lat="42.072665" lon="-2.760993">
        <ele>1324.27</ele>
        <time>2021-03-27T14:50:14Z</time>
      </trkpt>
      <trkpt lat="42.072832" lon="-2.760974">
        <ele>1325.65</ele>
        <time>2021-03-27T14:50:15Z</time>
      </trkpt>
      <trkpt lat="42.072978" lon="-2.760974">
        <ele>1325.92</ele>
        <time>2021-03-27T14:50:17Z</time>
      </trkpt>
      <trkpt lat="42.073166" lon="-2.761045">
        <ele>1326.0</ele>
        <time>2021-03-27T14:50:18Z</time>
      </trkpt>
      <trkpt lat="42.073298" lon="-2.761204">
        <ele>1326.14</ele>
        <time>2021-03-27T14:50:20Z</time>
      </trkpt>
      <trkpt lat="42.07337" lon="-2.761357">
        <ele>1326.19</ele>
        <time>2021-03-27T14:50:22Z</time>
      </trkpt>
      <trkpt lat="42.073467" lon="-2.761669">
        <ele>1326.72</ele>
        <time>2021-03-27T14:50:23Z</time>
      </trkpt>
      <trkpt lat="42.073544" lon="-2.76182">
        <ele>1326.3</ele>
        <time>2021-03-27T14:50:25Z</time>
      </trkpt>
      <trkpt lat="42.073615" lon="-2.761894">
        <ele>1325.09</ele>
        <time>2021-03-27T14:50:26Z</time>
      </trkpt>
      <trkpt lat="42.073702" lon="-2.761912">
        <ele>1325.41</ele>
        <time>2021-03-27T14:50:28Z</time>
      </trkpt>
      <trkpt lat="42.073783" lon="-2.761884">
        <ele>1324.92</ele>
        <time>2021-03-27T14:50:29Z</time>
      </trkpt>
      <trkpt lat="42.073869" lon="-2.761802">
        <ele>1323.44</ele>
        <time>2021-03-27T14:50:31Z</time>
      </trkpt>
      <trkpt lat="42.073945" lon="-2.761678">
        <ele>1322.22</ele>
        <time>2021-03-27T14:50:32Z</time>
      </trkpt>
      <trkpt lat="42.074275" lon="-2.76066">
        <ele>1308.12</ele>
        <time>2021-03-27T14:50:34Z</time>
      </trkpt>
      <trkpt lat="42.074358" lon="-2.760549">
        <ele>1306.94</ele>
        <time>2021-03-27T14:50:36Z</time>
      </trkpt>
      <trkpt lat="42.074479" lon="-2.760474">
        <ele>1307.11</ele>
        <time>2021-03-27T14:50:37Z</time>
      </trkpt>
      <trkpt lat="42.074941" lon="-2.760319">
        <ele>1310.38</ele>
        <time>2021-03-27T14:50:39Z</time>
      </trkpt>
      <trkpt lat="42.075059" lon="-2.760207">
        <ele>1309.88</ele>
        <time>2021-03-27T14:50:40Z</time>
      </trkpt>
      <trkpt lat="42.075117" lon="-2.760103">
        <ele>1308.77</ele>
        <time>2021-03-27T14:50:42Z</time>
      </trkpt>
      <trkpt lat="42.075458" lon="-2.759359">
        <ele>1304.51</ele>
        <time>2021-03-27T14:50:43Z</time>
      </trkpt>
      <trkpt lat="42.07553" lon="-2.759165">
        <ele>1301.04</ele>
        <time>2021-03-27T14:50:45Z</time>
      </trkpt>
      <trkpt lat="42.075657" lon="-2.758241">
        <ele>1292.86</ele>
        <time>2021-03-27T14:50:47Z</time>
      </trkpt>
      <trkpt lat="42.075732" lon="-2.758109">
        <ele>1293.34</ele>
        <time>2021-03-27T14:50:48Z</time>
      </trkpt>
      <trkpt lat="42.075827" lon="-2.757996">
        <ele>1293.99</ele>
        <time>2021-03-27T14:50:50Z</time>
      </trkpt>
      <trkpt lat="42.075974" lon="-2.757903">
        <ele>1293.54</ele>
        <time>2021-03-27T14:50:51Z</time>
      </trkpt>
      <trkpt lat="42.076138" lon="-2.757841">
        <ele>1293.0</ele>
        <time>2021-03-27T14:50:53Z</time>
      </trkpt>
      <trkpt lat="42.076267" lon="-2.757835">
        <ele>1292.23</ele>
        <time>2021-03-27T14:50:54Z</time>
      </trkpt>
      <trkpt lat="42.076361" lon="-2.757856">
        <ele>1292.01</ele>
        <time>2021-03-27T14:50:56Z</time>
      </trkpt>
      <trkpt lat="42.076466" lon="-2.757948">
        <ele>1291.6</ele>
        <time>2021-03-27T14:50:57Z</time>
      </trkpt>
      <trkpt lat="42.077302" lon="-2.759005">
        <ele>1290.71</ele>
        <time>2021-03-27T14:50:59Z</time>
      </trkpt>
      <trkpt lat="42.077401" lon="-2.759063">
        <ele>1290.25</ele>
        <time>2021-03-27T14:51:01Z</time>
      </trkpt>
      <trkpt lat="42.07755" lon="-2.759026">
        <ele>1288.61</ele>
        <time>2021-03-27T14:51:02Z</time>
      </trkpt>
      <trkpt lat="42.077612" lon="-2.758962">
        <ele>1288.75</ele>
        <time>2021-03-27T14:51:04Z</time>
      </trkpt>
      <trkpt lat="42.077661" lon="-2.758835">
        <ele>1288.54</ele>
        <time>2021-03-27T14:51:05Z</time>
      </trkpt>
      <trkpt lat="42.077666" lon="-2.758691">
        <ele>1287.7</ele>
        <time>2021-03-27T14:51:07Z</time>
      </trkpt>
      <trkpt lat="42.077529" lon="-2.757926">
        <ele>1279.32</ele>
        <time>2021-03-27T14:51:08Z</time>
      </trkpt>
      <trkpt lat="42.077372" lon="-2.75749">
        <ele>1275.51</ele>
        <time>2021-03-27T14:51:10Z</time>
      </trkpt>
      <trkpt lat="42.077346" lon="-2.757363">
        <ele>1273.86</ele>
        <time>2021-03-27T14:51:12Z</time>
      </trkpt>
      <trkpt lat="42.077355" lon="-2.757164">
        <ele>1271.69</ele>
        <time>2021-03-27T14:51:13Z</time>
      </trkpt>
      <trkpt lat="42.077394" lon="-2.757024">
        <ele>1270.44</ele>
        <time>2021-03-27T14:51:15Z</time>
      </trkpt>
      <trkpt lat="42.077477" lon="-2.756825">
        <ele>1269.31</ele>
        <time>2021-03-27T14:51:16Z</time>
      </trkpt>
      <trkpt lat="42.07755" lon="-2.756712">
        <ele>1269.23</ele>
        <time>2021-03-27T14:51:18Z</time>
      </trkpt>
      <trkpt lat="42.077774" lon="-2.756512">
        <ele>1269.16</ele>
        <time>2021-03-27T14:51:19Z</time>
      </trkpt>
      <trkpt lat="42.077902" lon="-2.756447">
        <ele>1269.42</ele>
        <time>2021-03-27T14:51:21Z</time>
      </trkpt>
      <trkpt lat="42.078358" lon="-2.756295">
        <ele>1273.19</ele>
        <time>2021-03-27T14:51:22Z</time>
      </trkpt>
      <trkpt lat="42.07846" lon="-2.756245">
        <ele>1273.49</ele>
        <time>2021-03-27T14:51:24Z</time>
      </trkpt>
      <trkpt lat="42.078839" lon="-2.755838">
        <ele>1267.93</ele>
        <time>2021-03-27T14:51:26Z</time>
      </trkpt>
      <trkpt lat="42.079209" lon="-2.755328">
        <ele>1260.68</ele>
        <time>2021-03-27T14:51:27Z</time>
      </trkpt>
      <trkpt lat="42.079473" lon="-2.754895">
        <ele>1256.45</ele>
        <time>2021-03-27T14:51:29Z</time>
      </trkpt>
      <trkpt lat="42.079758" lon="-2.754198">
        <ele>1253.81</ele>
        <time>2021-03-27T14:51:30Z</time>
      </trkpt>
      <trkpt lat="42.079804" lon="-2.754054">
        <ele>1252.92</ele>
        <time>2021-03-27T14:51:32Z</time>
      </trkpt>
      <trkpt lat="42.079982" lon="-2.753236">
        <ele>1249.19</ele>
        <time>2021-03-27T14:51:33Z</time>
      </trkpt>
      <trkpt lat="42.08004" lon="-2.753081">
        <ele>1248.24</ele>
        <time>2021-03-27T14:51:35Z</time>
      </trkpt>
      <trkpt lat="42.080185" lon="-2.752783">
        <ele>1244.78</ele>
        <time>2021-03-27T14:51:37Z</time>
      </trkpt>
      <trkpt lat="42.080324" lon="-2.752581">
        <ele>1242.68</ele>
        <time>2021-03-27T14:51:38Z</time>
      </trkpt>
      <trkpt lat="42.080388" lon="-2.752534">
        <ele>1242.82</ele>
        <time>2021-03-27T14:51:40Z</time>
      </trkpt>
      <trkpt lat="42.080752" lon="-2.752475">
        <ele>1249.12</ele>
        <time>2021-03-27T14:51:41Z</time>
      </trkpt>
      <trkpt lat="42.081374" lon="-2.752073">
        <ele>1240.04</ele>
        <time>2021-03-27T14:51:43Z</time>
      </trkpt>
      <trkpt lat="42.081549" lon="-2.751993">
        <ele>1237.04</ele>
        <time>2021-03-27T14:51:44Z</time>
      </trkpt>
      <trkpt lat="42.081952" lon="-2.751918">
        <ele>1237.13</ele>
        <time>2021-03-27T14:51:46Z</time>
      </trkpt>
      <trkpt lat="42.082597" lon="-2.751903">
        <ele>1236.87</ele>
        <time>2021-03-27T14:51:47Z</time>
      </trkpt>
      <trkpt lat="42.083135" lon="-2.752017">
        <ele>1236.3</ele>
        <time>2021-03-27T14:51:49Z</time>
      </trkpt>
      <trkpt lat="42.083269" lon="-2.752026">
        <ele>1235.15</ele>
        <time>2021-03-27T14:51:51Z</time>
      </trkpt>
      <trkpt lat="42.083424" lon="-2.752009">
        <ele>1233.84</ele>
        <time>2021-03-27T14:51:52Z</time>
      </trkpt>
      <trkpt lat="42.083873" lon="-2.751875">
        <ele>1230.48</ele>
        <time>2021-03-27T14:51:54Z</time>
      </trkpt>
      <trkpt lat="42.08407" lon="-2.751838">
        <ele>1228.31</ele>
        <time>2021-03-27T14:51:55Z</time>
      </trkpt>
      <trkpt lat="42.084188" lon="-2.75184">
        <ele>1227.48</ele>
        <time>2021-03-27T14:51:57Z</time>
      </trkpt>
      <trkpt lat="42.086135" lon="-2.752187">
        <ele>1216.96</ele>
        <time>2021-03-27T14:51:58Z</time>
      </trkpt>
      <trkpt lat="42.086255" lon="-2.752182">
        <ele>1217.3</ele>
        <time>2021-03-27T14:52:00Z</time>
      </trkpt>
      <trkpt lat="42.086381" lon="-2.752146">
        <ele>1216.78</ele>
        <time>2021-03-27T14:52:02Z</time>
      </trkpt>
      <trkpt lat="42.086715" lon="-2.751944">
        <ele>1212.82</ele>
        <time>2021-03-27T14:52:03Z</time>
      </trkpt>
      <trkpt lat="42.087842" lon="-2.751043">
        <ele>1199.43</ele>
        <time>2021-03-27T14:52:05Z</time>
      </trkpt>
      <trkpt lat="42.087982" lon="-2.750992">
        <ele>1199.54</ele>
        <time>2021-03-27T14:52:06Z</time>
      </trkpt>
      <trkpt lat="42.088262" lon="-2.750998">
        <ele>1197.31</ele>
        <time>2021-03-27T14:52:08Z</time>
      </trkpt>
      <trkpt lat="42.088373" lon="-2.751046">
        <ele>1196.62</ele>
        <time>2021-03-27T14:52:09Z</time>
      </trkpt>
      <trkpt lat="42.088576" lon="-2.751278">
        <ele>1197.33</ele>
        <time>2021-03-27T14:52:11Z</time>
      </trkpt>
      <trkpt lat="42.088691" lon="-2.751335">
        <ele>1198.99</ele>
        <time>2021-03-27T14:52:12Z</time>
      </trkpt>
      <trkpt lat="42.08874" lon="-2.751326">
        <ele>1199.76</ele>
        <time>2021-03-27T14:52:14Z</time>
      </trkpt>
      <trkpt lat="42.088793" lon="-2.751289">
        <ele>1200.33</ele>
        <time>2021-03-27T14:52:16Z</time>
      </trkpt>
      <trkpt lat="42.088868" lon="-2.751188">
        <ele>1200.51</ele>
        <time>2021-03-27T14:52:17Z</time>
      </trkpt>
      <trkpt lat="42.089124" lon="-2.750465">
        <ele>1199.56</ele>
        <time>2021-03-27T14:52:19Z</time>
      </trkpt>
      <trkpt lat="42.089567" lon="-2.74959">
        <ele>1197.85</ele>
        <time>2021-03-27T14:52:20Z</time>
      </trkpt>
      <trkpt lat="42.089674" lon="-2.749411">
        <ele>1199.68</ele>
        <time>2021-03-27T14:52:22Z</time>
      </trkpt>
      <trkpt lat="42.089787" lon="-2.749276">
        <ele>1202.26</ele>
        <time>2021-03-27T14:52:23Z</time>
      </trkpt>
      <trkpt lat="42.089869" lon="-2.749119">
        <ele>1204.17</ele>
        <time>2021-03-27T14:52:25Z</time>
      </trkpt>
      <trkpt lat="42.08996" lon="-2.748781">
        <ele>1206.28</ele>
        <time>2021-03-27T14:52:27Z</time>
      </trkpt>
      <trkpt lat="42.089988" lon="-2.748523">
        <ele>1205.94</ele>
        <time>2021-03-27T14:52:28Z</time>
      </trkpt>
      <trkpt lat="42.089975" lon="-2.747919">
        <ele>1201.1</ele>
        <time>2021-03-27T14:52:30Z</time>
      </trkpt>
      <trkpt lat="42.089957" lon="-2.747721">
        <ele>1200.76</ele>
        <time>2021-03-27T14:52:31Z</time>
      </trkpt>
      <trkpt lat="42.089821" lon="-2.746967">
        <ele>1197.56</ele>
        <time>2021-03-27T14:52:33Z</time>
      </trkpt>
      <trkpt lat="42.089823" lon="-2.746824">
        <ele>1196.29</ele>
        <time>2021-03-27T14:52:34Z</time>
      </trkpt>
      <trkpt lat="42.089895" lon="-2.746615">
        <ele>1195.54</ele>
        <time>2021-03-27T14:52:36Z</time>
      </trkpt>
      <trkpt lat="42.09003" lon="-2.746363">
        <ele>1195.3</ele>
        <time>2021-03-27T14:52:37Z</time>
      </trkpt>
      <trkpt lat="42.090376" lon="-2.745873">
        <ele>1199.5</ele>
        <time>2021-03-27T14:52:39Z</time>
      </trkpt>
      <trkpt lat="42.090581" lon="-2.74551">
        <ele>1200.33</ele>
        <time>2021-03-27T14:52:41Z</time>
      </trkpt>
      <trkpt lat="42.090705" lon="-2.744839">
        <ele>1195.23</ele>
        <time>2021-03-27T14:52:42Z</time>
      </trkpt>
      <trkpt lat="42.09078" lon="-2.744589">
        <ele>1194.94</ele>
        <time>2021-03-27T14:52:44Z</time>
      </trkpt>
      <trkpt lat="42.090732" lon="-2.745272">
        <ele>1203.1</ele>
        <time>2021-03-27T14:52:46Z</time>
      </trkpt>
      <trkpt lat="42.090691" lon="-2.745537">
        <ele>1207.36</ele>
        <time>2021-03-27T14:52:48Z</time>
      </trkpt>
      <trkpt lat="42.090652" lon="-2.745669">
        <ele>1208.15</ele>
        <time>2021-03-27T14:52:50Z</time>
      </trkpt>
      <trkpt lat="42.090384" lon="-2.746348">
        <ele>1205.93</ele>
        <time>2021-03-27T14:52:52Z</time>
      </trkpt>
      <trkpt lat="42.090289" lon="-2.746883">
        <ele>1213.9</ele>
        <time>2021-03-27T14:52:54Z</time>
      </trkpt>
      <trkpt lat="42.090285" lon="-2.74714">
        <ele>1216.69</ele>
        <time>2021-03-27T14:52:56Z</time>
      </trkpt>
      <trkpt lat="42.090301" lon="-2.747297">
        <ele>1217.85</ele>
        <time>2021-03-27T14:52:58Z</time>
      </trkpt>
      <trkpt lat="42.090468" lon="-2.748576">
        <ele>1224.22</ele>
        <time>2021-03-27T14:53:00Z</time>
      </trkpt>
      <trkpt lat="42.090476" lon="-2.748795">
        <ele>1225.41</ele>
        <time>2021-03-27T14:53:03Z</time>
      </trkpt>
      <trkpt lat="42.09032" lon="-2.749442">
        <ele>1227.42</ele>
        <time>2021-03-27T14:53:05Z</time>
      </trkpt>
      <trkpt lat="42.090188" lon="-2.750578">
        <ele>1239.81</ele>
        <time>2021-03-27T14:53:07Z</time>
      </trkpt>
      <trkpt lat="42.090145" lon="-2.750728">
        <ele>1240.28</ele>
        <time>2021-03-27T14:53:09Z</time>
      </trkpt>
      <trkpt lat="42.089887" lon="-2.751332">
        <ele>1233.71</ele>
        <time>2021-03-27T14:53:11Z</time>
      </trkpt>
      <trkpt lat="42.089871" lon="-2.75152">
        <ele>1234.72</ele>
        <time>2021-03-27T14:53:13Z</time>
      </trkpt>
      <trkpt lat="42.08991" lon="-2.751659">
        <ele>1237.02</ele>
        <time>2021-03-27T14:53:15Z</time>
      </trkpt>
      <trkpt lat="42.090112" lon="-2.751984">
        <ele>1242.17</ele>
        <time>2021-03-27T14:53:17Z</time>
      </trkpt>
      <trkpt lat="42.090699" lon="-2.752662">
        <ele>1243.26</ele>
        <time>2021-03-27T14:53:19Z</time>
      </trkpt>
      <trkpt lat="42.091125" lon="-2.753012">
        <ele>1250.67</ele>
        <time>2021-03-27T14:53:21Z</time>
      </trkpt>
      <trkpt lat="42.09191" lon="-2.75359">
        <ele>1259.82</ele>
        <time>2021-03-27T14:53:23Z</time>
      </trkpt>
      <trkpt lat="42.092026" lon="-2.753715">
        <ele>1260.18</ele>
        <time>2021-03-27T14:53:25Z</time>
      </trkpt>
      <trkpt lat="42.09219" lon="-2.75402">
        <ele>1259.3</ele>
        <time>2021-03-27T14:53:27Z</time>
      </trkpt>
      <trkpt lat="42.092268" lon="-2.754127">
        <ele>1260.07</ele>
        <time>2021-03-27T14:53:29Z</time>
      </trkpt>
      <trkpt lat="42.092457" lon="-2.75432">
        <ele>1260.42</ele>
        <time>2021-03-27T14:53:31Z</time>
      </trkpt>
      <trkpt lat="42.092638" lon="-2.754457">
        <ele>1262.49</ele>
        <time>2021-03-27T14:53:33Z</time>
      </trkpt>
      <trkpt lat="42.092669" lon="-2.754577">
        <ele>1263.06</ele>
        <time>2021-03-27T14:53:35Z</time>
      </trkpt>
      <trkpt lat="42.092652" lon="-2.754671">
        <ele>1262.68</ele>
        <time>2021-03-27T14:53:37Z</time>
      </trkpt>
      <trkpt lat="42.092574" lon="-2.754875">
        <ele>1266.36</ele>
        <time>2021-03-27T14:53:40Z</time>
      </trkpt>
      <trkpt lat="42.092484" lon="-2.754976">
        <ele>1268.56</ele>
        <time>2021-03-27T14:53:42Z</time>
      </trkpt>
      <trkpt lat="42.09236" lon="-2.755012">
        <ele>1271.4</ele>
        <time>2021-03-27T14:53:44Z</time>
      </trkpt>
      <trkpt lat="42.091976" lon="-2.754911">
        <ele>1269.55</ele>
        <time>2021-03-27T14:53:46Z</time>
      </trkpt>
      <trkpt lat="42.091348" lon="-2.754796">
        <ele>1270.24</ele>
        <time>2021-03-27T14:53:48Z</time>
      </trkpt>
      <trkpt lat="42.091009" lon="-2.754822">
        <ele>1271.03</ele>
        <time>2021-03-27T14:53:50Z</time>
      </trkpt>
      <trkpt lat="42.090819" lon="-2.754868">
        <ele>1270.95</ele>
        <time>2021-03-27T14:53:52Z</time>
      </trkpt>
      <trkpt lat="42.090759" lon="-2.75497">
        <ele>1272.06</ele>
        <time>2021-03-27T14:53:54Z</time>
      </trkpt>
      <trkpt lat="42.090683" lon="-2.755223">
        <ele>1274.44</ele>
        <time>2021-03-27T14:53:56Z</time>
      </trkpt>
      <trkpt lat="42.090683" lon="-2.755223">
        <ele>1274.44</ele>
        <time>2021-03-27T14:53:56Z</time>
      </trkpt>
      <trkpt lat="42.090759" lon="-2.75497">
        <ele>1272.06</ele>
        <time>2021-03-27T14:53:58Z</time>
      </trkpt>
      <trkpt lat="42.090819" lon="-2.754868">
        <ele>1270.95</ele>
        <time>2021-03-27T14:54:00Z</time>
      </trkpt>
      <trkpt lat="42.091009" lon="-2.754822">
        <ele>1271.03</ele>
        <time>2021-03-27T14:54:02Z</time>
      </trkpt>
      <trkpt lat="42.091348" lon="-2.754796">
        <ele>1270.24</ele>
        <time>2021-03-27T14:54:04Z</time>
      </trkpt>
      <trkpt lat="42.091976" lon="-2.754911">
        <ele>1269.55</ele>
        <time>2021-03-27T14:54:06Z</time>
      </trkpt>
      <trkpt lat="42.09236" lon="-2.755012">
        <ele>1271.4</ele>
        <time>2021-03-27T14:54:08Z</time>
      </trkpt>
      <trkpt lat="42.092484" lon="-2.754976">
        <ele>1268.56</ele>
        <time>2021-03-27T14:54:10Z</time>
      </trkpt>
      <trkpt lat="42.092574" lon="-2.754875">
        <ele>1266.36</ele>
        <time>2021-03-27T14:54:13Z</time>
      </trkpt>
      <trkpt lat="42.092652" lon="-2.754671">
        <ele>1262.68</ele>
        <time>2021-03-27T14:54:15Z</time>
      </trkpt>
      <trkpt lat="42.092669" lon="-2.754577">
        <ele>1263.06</ele>
        <time>2021-03-27T14:54:17Z</time>
      </trkpt>
      <trkpt lat="42.092638" lon="-2.754457">
        <ele>1262.49</ele>
        <time>2021-03-27T14:54:19Z</time>
      </trkpt>
      <trkpt lat="42.092457" lon="-2.75432">
        <ele>1260.42</ele>
        <time>2021-03-27T14:54:21Z</time>
      </trkpt>
      <trkpt lat="42.092268" lon="-2.754127">
        <ele>1260.07</ele>
        <time>2021-03-27T14:54:23Z</time>
      </trkpt>
      <trkpt lat="42.09219" lon="-2.75402">
        <ele>1259.3</ele>
        <time>2021-03-27T14:54:25Z</time>
      </trkpt>
      <trkpt lat="42.092026" lon="-2.753715">
        <ele>1260.18</ele>
        <time>2021-03-27T14:54:27Z</time>
      </trkpt>
      <trkpt lat="42.09191" lon="-2.75359">
        <ele>1259.82</ele>
        <time>2021-03-27T14:54:29Z</time>
      </trkpt>
      <trkpt lat="42.091125" lon="-2.753012">
        <ele>1250.67</ele>
        <time>2021-03-27T14:54:31Z</time>
      </trkpt>
      <trkpt lat="42.090699" lon="-2.752662">
        <ele>1243.26</ele>
        <time>2021-03-27T14:54:33Z</time>
      </trkpt>
      <trkpt lat="42.090112" lon="-2.751984">
        <ele>1242.17</ele>
        <time>2021-03-27T14:54:35Z</time>
      </trkpt>
      <trkpt lat="42.08991" lon="-2.751659">
        <ele>1237.02</ele>
        <time>2021-03-27T14:54:37Z</time>
      </trkpt>
      <trkpt lat="42.089871" lon="-2.75152">
        <ele>1234.72</ele>
        <time>2021-03-27T14:54:39Z</time>
      </trkpt>
      <trkpt lat="42.089887" lon="-2.751332">
        <ele>1233.71</ele>
        <time>2021-03-27T14:54:41Z</time>
      </trkpt>
      <trkpt lat="42.090145" lon="-2.750728">
        <ele>1240.28</ele>
        <time>2021-03-27T14:54:43Z</time>
      </trkpt>
      <trkpt lat="42.090188" lon="-2.750578">
        <ele>1239.81</ele>
        <time>2021-03-27T14:54:45Z</time>
      </trkpt>
      <trkpt lat="42.09032" lon="-2.749442">
        <ele>1227.42</ele>
        <time>2021-03-27T14:54:47Z</time>
      </trkpt>
      <trkpt lat="42.090476" lon="-2.748795">
        <ele>1225.41</ele>
        <time>2021-03-27T14:54:50Z</time>
      </trkpt>
      <trkpt lat="42.090468" lon="-2.748576">
        <ele>1224.22</ele>
        <time>2021-03-27T14:54:52Z</time>
      </trkpt>
      <trkpt lat="42.090301" lon="-2.747297">
        <ele>1217.85</ele>
        <time>2021-03-27T14:54:54Z</time>
      </trkpt>
      <trkpt lat="42.090285" lon="-2.74714">
        <ele>1216.69</ele>
        <time>2021-03-27T14:54:56Z</time>
      </trkpt>
      <trkpt lat="42.090289" lon="-2.746883">
        <ele>1213.9</ele>
        <time>2021-03-27T14:54:58Z</time>
      </trkpt>
      <trkpt lat="42.090384" lon="-2.746348">
        <ele>1205.93</ele>
        <time>2021-03-27T14:55:00Z</time>
      </trkpt>
      <trkpt lat="42.090652" lon="-2.745669">
        <ele>1208.15</ele>
        <time>2021-03-27T14:55:02Z</time>
      </trkpt>
      <trkpt lat="42.090691" lon="-2.745537">
        <ele>1207.36</ele>
        <time>2021-03-27T14:55:04Z</time>
      </trkpt>
      <trkpt lat="42.090732" lon="-2.745272">
        <ele>1203.1</ele>
        <time>2021-03-27T14:55:06Z</time>
      </trkpt>
      <trkpt lat="42.09078" lon="-2.744589">
        <ele>1194.94</ele>
        <time>2021-03-27T14:55:08Z</time>
      </trkpt>
      <trkpt lat="42.090705" lon="-2.744839">
        <ele>1195.23</ele>
        <time>2021-03-27T14:55:10Z</time>
      </trkpt>
      <trkpt lat="42.090581" lon="-2.74551">
        <ele>1200.33</ele>
        <time>2021-03-27T14:55:12Z</time>
      </trkpt>
      <trkpt lat="42.090376" lon="-2.745873">
        <ele>1199.5</ele>
        <time>2021-03-27T14:55:13Z</time>
      </trkpt>
      <trkpt lat="42.09003" lon="-2.746363">
        <ele>1195.3</ele>
        <time>2021-03-27T14:55:15Z</time>
      </trkpt>
      <trkpt lat="42.089895" lon="-2.746615">
        <ele>1195.54</ele>
        <time>2021-03-27T14:55:17Z</time>
      </trkpt>
      <trkpt lat="42.089823" lon="-2.746824">
        <ele>1196.29</ele>
        <time>2021-03-27T14:55:19Z</time>
      </trkpt>
      <trkpt lat="42.089821" lon="-2.746967">
        <ele>1197.56</ele>
        <time>2021-03-27T14:55:20Z</time>
      </trkpt>
      <trkpt lat="42.089957" lon="-2.747721">
        <ele>1200.76</ele>
        <time>2021-03-27T14:55:22Z</time>
      </trkpt>
      <trkpt lat="42.089975" lon="-2.747919">
        <ele>1201.1</ele>
        <time>2021-03-27T14:55:24Z</time>
      </trkpt>
      <trkpt lat="42.089988" lon="-2.748523">
        <ele>1205.94</ele>
        <time>2021-03-27T14:55:25Z</time>
      </trkpt>
      <trkpt lat="42.08996" lon="-2.748781">
        <ele>1206.28</ele>
        <time>2021-03-27T14:55:27Z</time>
      </trkpt>
      <trkpt lat="42.089869" lon="-2.749119">
        <ele>1204.17</ele>
        <time>2021-03-27T14:55:29Z</time>
      </trkpt>
      <trkpt lat="42.089787" lon="-2.749276">
        <ele>1202.26</ele>
        <time>2021-03-27T14:55:31Z</time>
      </trkpt>
      <trkpt lat="42.089674" lon="-2.749411">
        <ele>1199.68</ele>
        <time>2021-03-27T14:55:32Z</time>
      </trkpt>
      <trkpt lat="42.089567" lon="-2.74959">
        <ele>1197.85</ele>
        <time>2021-03-27T14:55:34Z</time>
      </trkpt>
      <trkpt lat="42.089124" lon="-2.750465">
        <ele>1199.56</ele>
        <time>2021-03-27T14:55:36Z</time>
      </trkpt>
      <trkpt lat="42.088868" lon="-2.751188">
        <ele>1200.51</ele>
        <time>2021-03-27T14:55:38Z</time>
      </trkpt>
      <trkpt lat="42.088793" lon="-2.751289">
        <ele>1200.33</ele>
        <time>2021-03-27T14:55:39Z</time>
      </trkpt>
      <trkpt lat="42.08874" lon="-2.751326">
        <ele>1199.76</ele>
        <time>2021-03-27T14:55:41Z</time>
      </trkpt>
      <trkpt lat="42.088691" lon="-2.751335">
        <ele>1198.99</ele>
        <time>2021-03-27T14:55:43Z</time>
      </trkpt>
      <trkpt lat="42.088576" lon="-2.751278">
        <ele>1197.33</ele>
        <time>2021-03-27T14:55:45Z</time>
      </trkpt>
      <trkpt lat="42.088373" lon="-2.751046">
        <ele>1196.62</ele>
        <time>2021-03-27T14:55:46Z</time>
      </trkpt>
      <trkpt lat="42.088262" lon="-2.750998">
        <ele>1197.31</ele>
        <time>2021-03-27T14:55:48Z</time>
      </trkpt>
      <trkpt lat="42.087982" lon="-2.750992">
        <ele>1199.54</ele>
        <time>2021-03-27T14:55:50Z</time>
      </trkpt>
      <trkpt lat="42.087842" lon="-2.751043">
        <ele>1199.43</ele>
        <time>2021-03-27T14:55:52Z</time>
      </trkpt>
      <trkpt lat="42.086715" lon="-2.751944">
        <ele>1212.82</ele>
        <time>2021-03-27T14:55:53Z</time>
      </trkpt>
      <trkpt lat="42.086381" lon="-2.752146">
        <ele>1216.78</ele>
        <time>2021-03-27T14:55:55Z</time>
      </trkpt>
      <trkpt lat="42.086255" lon="-2.752182">
        <ele>1217.3</ele>
        <time>2021-03-27T14:55:57Z</time>
      </trkpt>
      <trkpt lat="42.086135" lon="-2.752187">
        <ele>1216.96</ele>
        <time>2021-03-27T14:55:58Z</time>
      </trkpt>
      <trkpt lat="42.084188" lon="-2.75184">
        <ele>1227.48</ele>
        <time>2021-03-27T14:56:00Z</time>
      </trkpt>
      <trkpt lat="42.08407" lon="-2.751838">
        <ele>1228.31</ele>
        <time>2021-03-27T14:56:02Z</time>
      </trkpt>
      <trkpt lat="42.083873" lon="-2.751875">
        <ele>1230.48</ele>
        <time>2021-03-27T14:56:04Z</time>
      </trkpt>
      <trkpt lat="42.083424" lon="-2.752009">
        <ele>1233.84</ele>
        <time>2021-03-27T14:56:05Z</time>
      </trkpt>
      <trkpt lat="42.083269" lon="-2.752026">
        <ele>1235.15</ele>
        <time>2021-03-27T14:56:07Z</time>
      </trkpt>
      <trkpt lat="42.083135" lon="-2.752017">
        <ele>1236.3</ele>
        <time>2021-03-27T14:56:09Z</time>
      </trkpt>
      <trkpt lat="42.082597" lon="-2.751903">
        <ele>1236.87</ele>
        <time>2021-03-27T14:56:11Z</time>
      </trkpt>
      <trkpt lat="42.081952" lon="-2.751918">
        <ele>1237.13</ele>
        <time>2021-03-27T14:56:12Z</time>
      </trkpt>
      <trkpt lat="42.081549" lon="-2.751993">
        <ele>1237.04</ele>
        <time>2021-03-27T14:56:14Z</time>
      </trkpt>
      <trkpt lat="42.081374" lon="-2.752073">
        <ele>1240.04</ele>
        <time>2021-03-27T14:56:16Z</time>
      </trkpt>
      <trkpt lat="42.080752" lon="-2.752475">
        <ele>1249.12</ele>
        <time>2021-03-27T14:56:18Z</time>
      </trkpt>
      <trkpt lat="42.080388" lon="-2.752534">
        <ele>1242.82</ele>
        <time>2021-03-27T14:56:19Z</time>
      </trkpt>
      <trkpt lat="42.080324" lon="-2.752581">
        <ele>1242.68</ele>
        <time>2021-03-27T14:56:21Z</time>
      </trkpt>
      <trkpt lat="42.080185" lon="-2.752783">
        <ele>1244.78</ele>
        <time>2021-03-27T14:56:23Z</time>
      </trkpt>
      <trkpt lat="42.08004" lon="-2.753081">
        <ele>1248.24</ele>
        <time>2021-03-27T14:56:25Z</time>
      </trkpt>
      <trkpt lat="42.079982" lon="-2.753236">
        <ele>1249.19</ele>
        <time>2021-03-27T14:56:26Z</time>
      </trkpt>
      <trkpt lat="42.079804" lon="-2.754054">
        <ele>1252.92</ele>
        <time>2021-03-27T14:56:28Z</time>
      </trkpt>
      <trkpt lat="42.079758" lon="-2.754198">
        <ele>1253.81</ele>
        <time>2021-03-27T14:56:30Z</time>
      </trkpt>
      <trkpt lat="42.079473" lon="-2.754895">
        <ele>1256.45</ele>
        <time>2021-03-27T14:56:32Z</time>
      </trkpt>
      <trkpt lat="42.079209" lon="-2.755328">
        <ele>1260.68</ele>
        <time>2021-03-27T14:56:33Z</time>
      </trkpt>
      <trkpt lat="42.078839" lon="-2.755838">
        <ele>1267.93</ele>
        <time>2021-03-27T14:56:35Z</time>
      </trkpt>
      <trkpt lat="42.07846" lon="-2.756245">
        <ele>1273.49</ele>
        <time>2021-03-27T14:56:37Z</time>
      </trkpt>
      <trkpt lat="42.078358" lon="-2.756295">
        <ele>1273.19</ele>
        <time>2021-03-27T14:56:38Z</time>
      </trkpt>
      <trkpt lat="42.077902" lon="-2.756447">
        <ele>1269.42</ele>
        <time>2021-03-27T14:56:40Z</time>
      </trkpt>
      <trkpt lat="42.077774" lon="-2.756512">
        <ele>1269.16</ele>
        <time>2021-03-27T14:56:42Z</time>
      </trkpt>
      <trkpt lat="42.07755" lon="-2.756712">
        <ele>1269.23</ele>
        <time>2021-03-27T14:56:44Z</time>
      </trkpt>
      <trkpt lat="42.077477" lon="-2.756825">
        <ele>1269.31</ele>
        <time>2021-03-27T14:56:45Z</time>
      </trkpt>
      <trkpt lat="42.077394" lon="-2.757024">
        <ele>1270.44</ele>
        <time>2021-03-27T14:56:47Z</time>
      </trkpt>
      <trkpt lat="42.077355" lon="-2.757164">
        <ele>1271.69</ele>
        <time>2021-03-27T14:56:49Z</time>
      </trkpt>
      <trkpt lat="42.077346" lon="-2.757363">
        <ele>1273.86</ele>
        <time>2021-03-27T14:56:51Z</time>
      </trkpt>
      <trkpt lat="42.077372" lon="-2.75749">
        <ele>1275.51</ele>
        <time>2021-03-27T14:56:52Z</time>
      </trkpt>
      <trkpt lat="42.077529" lon="-2.757926">
        <ele>1279.32</ele>
        <time>2021-03-27T14:56:54Z</time>
      </trkpt>
      <trkpt lat="42.077666" lon="-2.758691">
        <ele>1287.7</ele>
        <time>2021-03-27T14:56:56Z</time>
      </trkpt>
      <trkpt lat="42.077661" lon="-2.758835">
        <ele>1288.54</ele>
        <time>2021-03-27T14:56:58Z</time>
      </trkpt>
      <trkpt lat="42.077612" lon="-2.758962">
        <ele>1288.75</ele>
        <time>2021-03-27T14:56:59Z</time>
      </trkpt>
      <trkpt lat="42.07755" lon="-2.759026">
        <ele>1288.61</ele>
        <time>2021-03-27T14:57:01Z</time>
      </trkpt>
      <trkpt lat="42.077401" lon="-2.759063">
        <ele>1290.25</ele>
        <time>2021-03-27T14:57:03Z</time>
      </trkpt>
      <trkpt lat="42.077302" lon="-2.759005">
        <ele>1290.71</ele>
        <time>2021-03-27T14:57:05Z</time>
      </trkpt>
      <trkpt lat="42.076466" lon="-2.757948">
        <ele>1291.6</ele>
        <time>2021-03-27T14:57:06Z</time>
      </trkpt>
      <trkpt lat="42.076361" lon="-2.757856">
        <ele>1292.01</ele>
        <time>2021-03-27T14:57:08Z</time>
      </trkpt>
      <trkpt lat="42.076267" lon="-2.757835">
        <ele>1292.23</ele>
        <time>2021-03-27T14:57:10Z</time>
      </trkpt>
      <trkpt lat="42.076138" lon="-2.757841">
        <ele>1293.0</ele>
        <time>2021-03-27T14:57:11Z</time>
      </trkpt>
      <trkpt lat="42.075974" lon="-2.757903">
        <ele>1293.54</ele>
        <time>2021-03-27T14:57:13Z</time>
      </trkpt>
      <trkpt lat="42.075827" lon="-2.757996">
        <ele>1293.99</ele>
        <time>2021-03-27T14:57:15Z</time>
      </trkpt>
      <trkpt lat="42.075732" lon="-2.758109">
        <ele>1293.34</ele>
        <time>2021-03-27T14:57:17Z</time>
      </trkpt>
      <trkpt lat="42.075657" lon="-2.758241">
        <ele>1292.86</ele>
        <time>2021-03-27T14:57:18Z</time>
      </trkpt>
      <trkpt lat="42.07553" lon="-2.759165">
        <ele>1301.04</ele>
        <time>2021-03-27T14:57:20Z</time>
      </trkpt>
      <trkpt lat="42.075458" lon="-2.759359">
        <ele>1304.51</ele>
        <time>2021-03-27T14:57:22Z</time>
      </trkpt>
      <trkpt lat="42.075117" lon="-2.760103">
        <ele>1308.77</ele>
        <time>2021-03-27T14:57:24Z</time>
      </trkpt>
      <trkpt lat="42.075059" lon="-2.760207">
        <ele>1309.88</ele>
        <time>2021-03-27T14:57:25Z</time>
      </trkpt>
      <trkpt lat="42.074941" lon="-2.760319">
        <ele>1310.38</ele>
        <time>2021-03-27T14:57:27Z</time>
      </trkpt>
      <trkpt lat="42.074479" lon="-2.760474">
        <ele>1307.11</ele>
        <time>2021-03-27T14:57:29Z</time>
      </trkpt>
      <trkpt lat="42.074358" lon="-2.760549">
        <ele>1306.94</ele>
        <time>2021-03-27T14:57:31Z</time>
      </trkpt>
      <trkpt lat="42.074275" lon="-2.76066">
        <ele>1308.12</ele>
        <time>2021-03-27T14:57:32Z</time>
      </trkpt>
      <trkpt lat="42.073945" lon="-2.761678">
        <ele>1322.22</ele>
        <time>2021-03-27T14:57:34Z</time>
      </trkpt>
      <trkpt lat="42.073869" lon="-2.761802">
        <ele>1323.44</ele>
        <time>2021-03-27T14:57:36Z</time>
      </trkpt>
      <trkpt lat="42.073783" lon="-2.761884">
        <ele>1324.92</ele>
        <time>2021-03-27T14:57:38Z</time>
      </trkpt>
      <trkpt lat="42.073702" lon="-2.761912">
        <ele>1325.41</ele>
        <time>2021-03-27T14:57:39Z</time>
      </trkpt>
      <trkpt lat="42.073615" lon="-2.761894">
        <ele>1325.09</ele>
        <time>2021-03-27T14:57:41Z</time>
      </trkpt>
      <trkpt lat="42.073544" lon="-2.76182">
        <ele>1326.3</ele>
        <time>2021-03-27T14:57:43Z</time>
      </trkpt>
      <trkpt lat="42.073467" lon="-2.761669">
        <ele>1326.72</ele>
        <time>2021-03-27T14:57:45Z</time>
      </trkpt>
      <trkpt lat="42.07337" lon="-2.761357">
        <ele>1326.19</ele>
        <time>2021-03-27T14:57:46Z</time>
      </trkpt>
      <trkpt lat="42.073298" lon="-2.761204">
        <ele>1326.14</ele>
        <time>2021-03-27T14:57:48Z</time>
      </trkpt>
      <trkpt lat="42.073166" lon="-2.761045">
        <ele>1326.0</ele>
        <time>2021-03-27T14:57:50Z</time>
      </trkpt>
      <trkpt lat="42.072978" lon="-2.760974">
        <ele>1325.92</ele>
        <time>2021-03-27T14:57:51Z</time>
      </trkpt>
      <trkpt lat="42.072832" lon="-2.760974">
        <ele>1325.65</ele>
        <time>2021-03-27T14:57:53Z</time>
      </trkpt>
      <trkpt lat="42.072665" lon="-2.760993">
        <ele>1324.27</ele>
        <time>2021-03-27T14:57:55Z</time>
      </trkpt>
      <trkpt lat="42.072438" lon="-2.761066">
        <ele>1322.91</ele>
        <time>2021-03-27T14:57:57Z</time>
      </trkpt>
      <trkpt lat="42.072278" lon="-2.761192">
        <ele>1323.84</ele>
        <time>2021-03-27T14:57:58Z</time>
      </trkpt>
      <trkpt lat="42.07183" lon="-2.761685">
        <ele>1333.72</ele>
        <time>2021-03-27T14:58:00Z</time>
      </trkpt>
      <trkpt lat="42.071733" lon="-2.761842">
        <ele>1336.03</ele>
        <time>2021-03-27T14:58:02Z</time>
      </trkpt>
      <trkpt lat="42.07161" lon="-2.762136">
        <ele>1339.17</ele>
        <time>2021-03-27T14:58:04Z</time>
      </trkpt>
      <trkpt lat="42.071495" lon="-2.762326">
        <ele>1338.91</ele>
        <time>2021-03-27T14:58:05Z</time>
      </trkpt>
      <trkpt lat="42.070867" lon="-2.763053">
        <ele>1344.63</ele>
        <time>2021-03-27T14:58:07Z</time>
      </trkpt>
      <trkpt lat="42.070779" lon="-2.763179">
        <ele>1345.29</ele>
        <time>2021-03-27T14:58:09Z</time>
      </trkpt>
      <trkpt lat="42.070194" lon="-2.764569">
        <ele>1350.22</ele>
        <time>2021-03-27T14:58:11Z</time>
      </trkpt>
      <trkpt lat="42.070141" lon="-2.764796">
        <ele>1351.63</ele>
        <time>2021-03-27T14:58:12Z</time>
      </trkpt>
      <trkpt lat="42.070151" lon="-2.765441">
        <ele>1358.65</ele>
        <time>2021-03-27T14:58:14Z</time>
      </trkpt>
      <trkpt lat="42.070064" lon="-2.765975">
        <ele>1358.24</ele>
        <time>2021-03-27T14:58:16Z</time>
      </trkpt>
      <trkpt lat="42.070061" lon="-2.766388">
        <ele>1361.62</ele>
        <time>2021-03-27T14:58:18Z</time>
      </trkpt>
      <trkpt lat="42.070039" lon="-2.766527">
        <ele>1363.12</ele>
        <time>2021-03-27T14:58:19Z</time>
      </trkpt>
      <trkpt lat="42.06993" lon="-2.766738">
        <ele>1363.27</ele>
        <time>2021-03-27T14:58:21Z</time>
      </trkpt>
      <trkpt lat="42.069734" lon="-2.767056">
        <ele>1363.44</ele>
        <time>2021-03-27T14:58:23Z</time>
      </trkpt>
      <trkpt lat="42.069652" lon="-2.767287">
        <ele>1364.76</ele>
        <time>2021-03-27T14:58:24Z</time>
      </trkpt>
      <trkpt lat="42.069554" lon="-2.767731">
        <ele>1366.32</ele>
        <time>2021-03-27T14:58:26Z</time>
      </trkpt>
      <trkpt lat="42.069534" lon="-2.767927">
        <ele>1367.11</ele>
        <time>2021-03-27T14:58:28Z</time>
      </trkpt>
      <trkpt lat="42.069535" lon="-2.768133">
        <ele>1368.06</ele>
        <time>2021-03-27T14:58:30Z</time>
      </trkpt>
      <trkpt lat="42.069562" lon="-2.768392">
        <ele>1368.83</ele>
        <time>2021-03-27T14:58:31Z</time>
      </trkpt>
      <trkpt lat="42.069862" lon="-2.769969">
        <ele>1374.53</ele>
        <time>2021-03-27T14:58:33Z</time>
      </trkpt>
      <trkpt lat="42.069968" lon="-2.770199">
        <ele>1377.34</ele>
        <time>2021-03-27T14:58:35Z</time>
      </trkpt>
      <trkpt lat="42.070323" lon="-2.770779">
        <ele>1384.47</ele>
        <time>2021-03-27T14:58:37Z</time>
      </trkpt>
      <trkpt lat="42.070665" lon="-2.771469">
        <ele>1394.41</ele>
        <time>2021-03-27T14:58:38Z</time>
      </trkpt>
      <trkpt lat="42.070708" lon="-2.771633">
        <ele>1395.95</ele>
        <time>2021-03-27T14:58:40Z</time>
      </trkpt>
      <trkpt lat="42.07071" lon="-2.771734">
        <ele>1396.22</ele>
        <time>2021-03-27T14:58:42Z</time>
      </trkpt>
      <trkpt lat="42.070667" lon="-2.771904">
        <ele>1395.64</ele>
        <time>2021-03-27T14:58:44Z</time>
      </trkpt>
      <trkpt lat="42.070385" lon="-2.772451">
        <ele>1393.29</ele>
        <time>2021-03-27T14:58:45Z</time>
      </trkpt>
      <trkpt lat="42.070311" lon="-2.772682">
        <ele>1393.9</ele>
        <time>2021-03-27T14:58:47Z</time>
      </trkpt>
      <trkpt lat="42.070173" lon="-2.774181">
        <ele>1404.87</ele>
        <time>2021-03-27T14:58:49Z</time>
      </trkpt>
      <trkpt lat="42.070186" lon="-2.77449">
        <ele>1408.14</ele>
        <time>2021-03-27T14:58:51Z</time>
      </trkpt>
      <trkpt lat="42.070285" lon="-2.77505">
        <ele>1416.67</ele>
        <time>2021-03-27T14:58:52Z</time>
      </trkpt>
      <trkpt lat="42.070312" lon="-2.775432">
        <ele>1421.5</ele>
        <time>2021-03-27T14:58:54Z</time>
      </trkpt>
      <trkpt lat="42.070307" lon="-2.775583">
        <ele>1423.21</ele>
        <time>2021-03-27T14:58:56Z</time>
      </trkpt>
      <trkpt lat="42.070228" lon="-2.776027">
        <ele>1421.87</ele>
        <time>2021-03-27T14:58:58Z</time>
      </trkpt>
      <trkpt lat="42.070216" lon="-2.776266">
        <ele>1418.61</ele>
        <time>2021-03-27T14:58:59Z</time>
      </trkpt>
      <trkpt lat="42.07023" lon="-2.776364">
        <ele>1417.82</ele>
        <time>2021-03-27T14:59:01Z</time>
      </trkpt>
      <trkpt lat="42.070306" lon="-2.776501">
        <ele>1418.07</ele>
        <time>2021-03-27T14:59:03Z</time>
      </trkpt>
      <trkpt lat="42.070495" lon="-2.776683">
        <ele>1422.59</ele>
        <time>2021-03-27T14:59:04Z</time>
      </trkpt>
      <trkpt lat="42.070658" lon="-2.776922">
        <ele>1425.34</ele>
        <time>2021-03-27T14:59:06Z</time>
      </trkpt>
      <trkpt lat="42.071355" lon="-2.778286">
        <ele>1426.54</ele>
        <time>2021-03-27T14:59:08Z</time>
      </trkpt>
      <trkpt lat="42.071527" lon="-2.778594">
        <ele>1426.25</ele>
        <time>2021-03-27T14:59:10Z</time>
      </trkpt>
      <trkpt lat="42.071936" lon="-2.77914">
        <ele>1429.48</ele>
        <time>2021-03-27T14:59:11Z</time>
      </trkpt>
      <trkpt lat="42.072027" lon="-2.779283">
        <ele>1428.4</ele>
        <time>2021-03-27T14:59:13Z</time>
      </trkpt>
      <trkpt lat="42.072659" lon="-2.780487">
        <ele>1430.24</ele>
        <time>2021-03-27T14:59:15Z</time>
      </trkpt>
      <trkpt lat="42.072721" lon="-2.780634">
        <ele>1429.59</ele>
        <time>2021-03-27T14:59:17Z</time>
      </trkpt>
      <trkpt lat="42.072737" lon="-2.780718">
        <ele>1429.71</ele>
        <time>2021-03-27T14:59:18Z</time>
      </trkpt>
      <trkpt lat="42.072736" lon="-2.780806">
        <ele>1429.7</ele>
        <time>2021-03-27T14:59:20Z</time>
      </trkpt>
      <trkpt lat="42.072705" lon="-2.780916">
        <ele>1430.9</ele>
        <time>2021-03-27T14:59:22Z</time>
      </trkpt>
      <trkpt lat="42.072663" lon="-2.780983">
        <ele>1431.99</ele>
        <time>2021-03-27T14:59:24Z</time>
      </trkpt>
      <trkpt lat="42.072604" lon="-2.781036">
        <ele>1433.04</ele>
        <time>2021-03-27T14:59:25Z</time>
      </trkpt>
      <trkpt lat="42.072473" lon="-2.781073">
        <ele>1434.81</ele>
        <time>2021-03-27T14:59:27Z</time>
      </trkpt>
      <trkpt lat="42.07236" lon="-2.781042">
        <ele>1437.31</ele>
        <time>2021-03-27T14:59:29Z</time>
      </trkpt>
      <trkpt lat="42.071776" lon="-2.780487">
        <ele>1442.03</ele>
        <time>2021-03-27T14:59:31Z</time>
      </trkpt>
      <trkpt lat="42.071495" lon="-2.780306">
        <ele>1444.36</ele>
        <time>2021-03-27T14:59:32Z</time>
      </trkpt>
      <trkpt lat="42.071313" lon="-2.780259">
        <ele>1447.83</ele>
        <time>2021-03-27T14:59:34Z</time>
      </trkpt>
      <trkpt lat="42.070619" lon="-2.780149">
        <ele>1462.98</ele>
        <time>2021-03-27T14:59:36Z</time>
      </trkpt>
      <trkpt lat="42.070406" lon="-2.780085">
        <ele>1464.87</ele>
        <time>2021-03-27T14:59:37Z</time>
      </trkpt>
      <trkpt lat="42.070285" lon="-2.780024">
        <ele>1464.0</ele>
        <time>2021-03-27T14:59:39Z</time>
      </trkpt>
      <trkpt lat="42.070224" lon="-2.779968">
        <ele>1463.52</ele>
        <time>2021-03-27T14:59:41Z</time>
      </trkpt>
      <trkpt lat="42.06994" lon="-2.779517">
        <ele>1460.93</ele>
        <time>2021-03-27T14:59:43Z</time>
      </trkpt>
      <trkpt lat="42.069837" lon="-2.779408">
        <ele>1464.1</ele>
        <time>2021-03-27T14:59:44Z</time>
      </trkpt>
      <trkpt lat="42.069701" lon="-2.779315">
        <ele>1468.98</ele>
        <time>2021-03-27T14:59:46Z</time>
      </trkpt>
      <trkpt lat="42.069436" lon="-2.779169">
        <ele>1471.19</ele>
        <time>2021-03-27T14:59:48Z</time>
      </trkpt>
      <trkpt lat="42.069035" lon="-2.779003">
        <ele>1473.25</ele>
        <time>2021-03-27T14:59:50Z</time>
      </trkpt>
      <trkpt lat="42.068616" lon="-2.778753">
        <ele>1475.93</ele>
        <time>2021-03-27T14:59:51Z</time>
      </trkpt>
      <trkpt lat="42.067971" lon="-2.778481">
        <ele>1477.33</ele>
        <time>2021-03-27T14:59:53Z</time>
      </trkpt>
      <trkpt lat="42.067874" lon="-2.778457">
        <ele>1477.43</ele>
        <time>2021-03-27T14:59:55Z</time>
      </trkpt>
      <trkpt lat="42.067764" lon="-2.778464">
        <ele>1478.33</ele>
        <time>2021-03-27T14:59:57Z</time>
      </trkpt>
      <trkpt lat="42.067622" lon="-2.778505">
        <ele>1479.41</ele>
        <time>2021-03-27T14:59:58Z</time>
      </trkpt>
      <trkpt lat="42.065996" lon="-2.779093">
        <ele>1497.58</ele>
        <time>2021-03-27T15:00:00Z</time>
      </trkpt>
      <trkpt lat="42.065895" lon="-2.779155">
        <ele>1498.03</ele>
        <time>2021-03-27T15:00:02Z</time>
      </trkpt>
      <trkpt lat="42.065814" lon="-2.779231">
        <ele>1498.58</ele>
        <time>2021-03-27T15:00:04Z</time>
      </trkpt>
      <trkpt lat="42.065746" lon="-2.779338">
        <ele>1499.61</ele>
        <time>2021-03-27T15:00:05Z</time>
      </trkpt>
      <trkpt lat="42.065378" lon="-2.78008">
        <ele>1506.59</ele>
        <time>2021-03-27T15:00:07Z</time>
      </trkpt>
      <trkpt lat="42.065081" lon="-2.78069">
        <ele>1510.35</ele>
        <time>2021-03-27T15:00:09Z</time>
      </trkpt>
      <trkpt lat="42.065034" lon="-2.780825">
        <ele>1510.45</ele>
        <time>2021-03-27T15:00:11Z</time>
      </trkpt>
      <trkpt lat="42.065017" lon="-2.780985">
        <ele>1511.34</ele>
        <time>2021-03-27T15:00:12Z</time>
      </trkpt>
      <trkpt lat="42.065065" lon="-2.781488">
        <ele>1514.88</ele>
        <time>2021-03-27T15:00:14Z</time>
      </trkpt>
      <trkpt lat="42.065039" lon="-2.781781">
        <ele>1516.88</ele>
        <time>2021-03-27T15:00:16Z</time>
      </trkpt>
      <trkpt lat="42.064973" lon="-2.782019">
        <ele>1518.92</ele>
        <time>2021-03-27T15:00:17Z</time>
      </trkpt>
      <trkpt lat="42.064857" lon="-2.782211">
        <ele>1521.21</ele>
        <time>2021-03-27T15:00:19Z</time>
      </trkpt>
      <trkpt lat="42.064646" lon="-2.782371">
        <ele>1521.72</ele>
        <time>2021-03-27T15:00:21Z</time>
      </trkpt>
      <trkpt lat="42.064426" lon="-2.782491">
        <ele>1520.57</ele>
        <time>2021-03-27T15:00:23Z</time>
      </trkpt>
      <trkpt lat="42.064087" lon="-2.782594">
        <ele>1520.03</ele>
        <time>2021-03-27T15:00:24Z</time>
      </trkpt>
      <trkpt lat="42.06388" lon="-2.782615">
        <ele>1520.59</ele>
        <time>2021-03-27T15:00:26Z</time>
      </trkpt>
      <trkpt lat="42.06374" lon="-2.782592">
        <ele>1521.59</ele>
        <time>2021-03-27T15:00:28Z</time>
      </trkpt>
      <trkpt lat="42.063611" lon="-2.782539">
        <ele>1521.84</ele>
        <time>2021-03-27T15:00:30Z</time>
      </trkpt>
      <trkpt lat="42.062597" lon="-2.781746">
        <ele>1524.18</ele>
        <time>2021-03-27T15:00:31Z</time>
      </trkpt>
      <trkpt lat="42.061785" lon="-2.781012">
        <ele>1524.48</ele>
        <time>2021-03-27T15:00:33Z</time>
      </trkpt>
      <trkpt lat="42.061568" lon="-2.78086">
        <ele>1525.69</ele>
        <time>2021-03-27T15:00:35Z</time>
      </trkpt>
      <trkpt lat="42.06146" lon="-2.78083">
        <ele>1525.35</ele>
        <time>2021-03-27T15:00:37Z</time>
      </trkpt>
      <trkpt lat="42.061363" lon="-2.78083">
        <ele>1525.56</ele>
        <time>2021-03-27T15:00:38Z</time>
      </trkpt>
      <trkpt lat="42.060413" lon="-2.780987">
        <ele>1526.47</ele>
        <time>2021-03-27T15:00:40Z</time>
      </trkpt>
      <trkpt lat="42.060309" lon="-2.781065">
        <ele>1528.75</ele>
        <time>2021-03-27T15:00:42Z</time>
      </trkpt>
      <trkpt lat="42.060245" lon="-2.78119">
        <ele>1530.95</ele>
        <time>2021-03-27T15:00:44Z</time>
      </trkpt>
      <trkpt lat="42.06022" lon="-2.781297">
        <ele>1532.53</ele>
        <time>2021-03-27T15:00:45Z</time>
      </trkpt>
      <trkpt lat="42.060076" lon="-2.782528">
        <ele>1538.04</ele>
        <time>2021-03-27T15:00:47Z</time>
      </trkpt>
      <trkpt lat="42.060082" lon="-2.78276">
        <ele>1540.76</ele>
        <time>2021-03-27T15:00:49Z</time>
      </trkpt>
      <trkpt lat="42.060221" lon="-2.783407">
        <ele>1547.6</ele>
        <time>2021-03-27T15:00:50Z</time>
      </trkpt>
      <trkpt lat="42.060243" lon="-2.783652">
        <ele>1549.88</ele>
        <time>2021-03-27T15:00:52Z</time>
      </trkpt>
      <trkpt lat="42.06022" lon="-2.783836">
        <ele>1552.34</ele>
        <time>2021-03-27T15:00:54Z</time>
      </trkpt>
      <trkpt lat="42.06013" lon="-2.783957">
        <ele>1553.5</ele>
        <time>2021-03-27T15:00:56Z</time>
      </trkpt>
      <trkpt lat="42.059997" lon="-2.783997">
        <ele>1553.11</ele>
        <time>2021-03-27T15:00:57Z</time>
      </trkpt>
      <trkpt lat="42.059014" lon="-2.783807">
        <ele>1548.84</ele>
        <time>2021-03-27T15:00:59Z</time>
      </trkpt>
      <trkpt lat="42.058934" lon="-2.783823">
        <ele>1549.19</ele>
        <time>2021-03-27T15:01:01Z</time>
      </trkpt>
      <trkpt lat="42.05882" lon="-2.783902">
        <ele>1550.05</ele>
        <time>2021-03-27T15:01:03Z</time>
      </trkpt>
      <trkpt lat="42.058769" lon="-2.783976">
        <ele>1550.65</ele>
        <time>2021-03-27T15:01:04Z</time>
      </trkpt>
      <trkpt lat="42.058741" lon="-2.784061">
        <ele>1551.7</ele>
        <time>2021-03-27T15:01:06Z</time>
      </trkpt>
      <trkpt lat="42.058719" lon="-2.784306">
        <ele>1554.5</ele>
        <time>2021-03-27T15:01:08Z</time>
      </trkpt>
      <trkpt lat="42.058724" lon="-2.784454">
        <ele>1556.11</ele>
        <time>2021-03-27T15:01:10Z</time>
      </trkpt>
      <trkpt lat="42.05897" lon="-2.785995">
        <ele>1566.47</ele>
        <time>2021-03-27T15:01:11Z</time>
      </trkpt>
      <trkpt lat="42.058976" lon="-2.786231">
        <ele>1567.82</ele>
        <time>2021-03-27T15:01:13Z</time>
      </trkpt>
      <trkpt lat="42.05894" lon="-2.78642">
        <ele>1568.11</ele>
        <time>2021-03-27T15:01:15Z</time>
      </trkpt>
      <trkpt lat="42.058762" lon="-2.787107">
        <ele>1568.43</ele>
        <time>2021-03-27T15:01:17Z</time>
      </trkpt>
      <trkpt lat="42.058748" lon="-2.787363">
        <ele>1569.18</ele>
        <time>2021-03-27T15:01:18Z</time>
      </trkpt>
      <trkpt lat="42.058771" lon="-2.787515">
        <ele>1570.39</ele>
        <time>2021-03-27T15:01:20Z</time>
      </trkpt>
      <trkpt lat="42.05901" lon="-2.788576">
        <ele>1574.6</ele>
        <time>2021-03-27T15:01:22Z</time>
      </trkpt>
      <trkpt lat="42.059006" lon="-2.788739">
        <ele>1575.22</ele>
        <time>2021-03-27T15:01:23Z</time>
      </trkpt>
      <trkpt lat="42.05897" lon="-2.788876">
        <ele>1575.22</ele>
        <time>2021-03-27T15:01:25Z</time>
      </trkpt>
      <trkpt lat="42.058915" lon="-2.788965">
        <ele>1575.31</ele>
        <time>2021-03-27T15:01:27Z</time>
      </trkpt>
      <trkpt lat="42.058835" lon="-2.789048">
        <ele>1575.8</ele>
        <time>2021-03-27T15:01:29Z</time>
      </trkpt>
      <trkpt lat="42.058682" lon="-2.789074">
        <ele>1574.76</ele>
        <time>2021-03-27T15:01:30Z</time>
      </trkpt>
      <trkpt lat="42.057673" lon="-2.78888">
        <ele>1573.43</ele>
        <time>2021-03-27T15:01:32Z</time>
      </trkpt>
      <trkpt lat="42.057054" lon="-2.788821">
        <ele>1574.3</ele>
        <time>2021-03-27T15:01:34Z</time>
      </trkpt>
      <trkpt lat="42.056816" lon="-2.788842">
        <ele>1575.33</ele>
        <time>2021-03-27T15:01:36Z</time>
      </trkpt>
      <trkpt lat="42.056629" lon="-2.788951">
        <ele>1576.54</ele>
        <time>2021-03-27T15:01:37Z</time>
      </trkpt>
      <trkpt lat="42.056512" lon="-2.789121">
        <ele>1577.95</ele>
        <time>2021-03-27T15:01:39Z</time>
      </trkpt>
      <trkpt lat="42.05642" lon="-2.789296">
        <ele>1579.15</ele>
        <time>2021-03-27T15:01:41Z</time>
      </trkpt>
      <trkpt lat="42.05623" lon="-2.789811">
        <ele>1582.38</ele>
        <time>2021-03-27T15:01:43Z</time>
      </trkpt>
      <trkpt lat="42.056164" lon="-2.789939">
        <ele>1583.06</ele>
        <time>2021-03-27T15:01:44Z</time>
      </trkpt>
      <trkpt lat="42.056052" lon="-2.790093">
        <ele>1583.34</ele>
        <time>2021-03-27T15:01:46Z</time>
      </trkpt>
      <trkpt lat="42.05592" lon="-2.790215">
        <ele>1582.2</ele>
        <time>2021-03-27T15:01:48Z</time>
      </trkpt>
      <trkpt lat="42.054971" lon="-2.790731">
        <ele>1596.42</ele>
        <time>2021-03-27T15:01:50Z</time>
      </trkpt>
      <trkpt lat="42.054755" lon="-2.790797">
        <ele>1598.09</ele>
        <time>2021-03-27T15:01:51Z</time>
      </trkpt>
      <trkpt lat="42.053996" lon="-2.790791">
        <ele>1600.89</ele>
        <time>2021-03-27T15:01:53Z</time>
      </trkpt>
      <trkpt lat="42.053895" lon="-2.790808">
        <ele>1601.9</ele>
        <time>2021-03-27T15:01:55Z</time>
      </trkpt>
      <trkpt lat="42.053708" lon="-2.790934">
        <ele>1603.78</ele>
        <time>2021-03-27T15:01:57Z</time>
      </trkpt>
      <trkpt lat="42.053396" lon="-2.791232">
        <ele>1609.45</ele>
        <time>2021-03-27T15:01:58Z</time>
      </trkpt>
      <trkpt lat="42.053241" lon="-2.791336">
        <ele>1611.64</ele>
        <time>2021-03-27T15:02:00Z</time>
      </trkpt>
      <trkpt lat="42.053113" lon="-2.791382">
        <ele>1612.22</ele>
        <time>2021-03-27T15:02:02Z</time>
      </trkpt>
      <trkpt lat="42.052885" lon="-2.791361">
        <ele>1611.67</ele>
        <time>2021-03-27T15:02:03Z</time>
      </trkpt>
      <trkpt lat="42.052705" lon="-2.791179">
        <ele>1612.94</ele>
        <time>2021-03-27T15:02:05Z</time>
      </trkpt>
      <trkpt lat="42.05264" lon="-2.791054">
        <ele>1614.67</ele>
        <time>2021-03-27T15:02:07Z</time>
      </trkpt>
      <trkpt lat="42.052599" lon="-2.790862">
        <ele>1616.66</ele>
        <time>2021-03-27T15:02:09Z</time>
      </trkpt>
      <trkpt lat="42.052478" lon="-2.789967">
        <ele>1619.19</ele>
        <time>2021-03-27T15:02:10Z</time>
      </trkpt>
      <trkpt lat="42.052485" lon="-2.789746">
        <ele>1620.56</ele>
        <time>2021-03-27T15:02:12Z</time>
      </trkpt>
      <trkpt lat="42.052508" lon="-2.789596">
        <ele>1622.41</ele>
        <time>2021-03-27T15:02:14Z</time>
      </trkpt>
      <trkpt lat="42.052557" lon="-2.789425">
        <ele>1624.1</ele>
        <time>2021-03-27T15:02:16Z</time>
      </trkpt>
      <trkpt lat="42.052788" lon="-2.788892">
        <ele>1622.67</ele>
        <time>2021-03-27T15:02:17Z</time>
      </trkpt>
      <trkpt lat="42.052893" lon="-2.788601">
        <ele>1624.19</ele>
        <time>2021-03-27T15:02:19Z</time>
      </trkpt>
      <trkpt lat="42.052963" lon="-2.788323">
        <ele>1625.78</ele>
        <time>2021-03-27T15:02:21Z</time>
      </trkpt>
      <trkpt lat="42.053124" lon="-2.787483">
        <ele>1628.77</ele>
        <time>2021-03-27T15:02:23Z</time>
      </trkpt>
      <trkpt lat="42.053247" lon="-2.786163">
        <ele>1627.92</ele>
        <time>2021-03-27T15:02:24Z</time>
      </trkpt>
      <trkpt lat="42.053251" lon="-2.785819">
        <ele>1632.3</ele>
        <time>2021-03-27T15:02:26Z</time>
      </trkpt>
      <trkpt lat="42.053214" lon="-2.785629">
        <ele>1638.16</ele>
        <time>2021-03-27T15:02:28Z</time>
      </trkpt>
      <trkpt lat="42.053158" lon="-2.785463">
        <ele>1641.8</ele>
        <time>2021-03-27T15:02:30Z</time>
      </trkpt>
      <trkpt lat="42.053092" lon="-2.785319">
        <ele>1643.29</ele>
        <time>2021-03-27T15:02:31Z</time>
      </trkpt>
      <trkpt lat="42.053029" lon="-2.785226">
        <ele>1643.53</ele>
        <time>2021-03-27T15:02:33Z</time>
      </trkpt>
      <trkpt lat="42.052863" lon="-2.785094">
        <ele>1642.97</ele>
        <time>2021-03-27T15:02:35Z</time>
      </trkpt>
      <trkpt lat="42.052778" lon="-2.785065">
        <ele>1643.17</ele>
        <time>2021-03-27T15:02:36Z</time>
      </trkpt>
      <trkpt lat="42.052569" lon="-2.785085">
        <ele>1643.53</ele>
        <time>2021-03-27T15:02:38Z</time>
      </trkpt>
      <trkpt lat="42.051907" lon="-2.785399">
        <ele>1650.65</ele>
        <time>2021-03-27T15:02:40Z</time>
      </trkpt>
      <trkpt lat="42.051754" lon="-2.78542">
        <ele>1651.05</ele>
        <time>2021-03-27T15:02:42Z</time>
      </trkpt>
      <trkpt lat="42.051646" lon="-2.785408">
        <ele>1651.14</ele>
        <time>2021-03-27T15:02:43Z</time>
      </trkpt>
      <trkpt lat="42.051331" lon="-2.785289">
        <ele>1653.56</ele>
        <time>2021-03-27T15:02:45Z</time>
      </trkpt>
      <trkpt lat="42.050866" lon="-2.784994">
        <ele>1651.54</ele>
        <time>2021-03-27T15:02:47Z</time>
      </trkpt>
      <trkpt lat="42.050763" lon="-2.784958">
        <ele>1652.0</ele>
        <time>2021-03-27T15:02:49Z</time>
      </trkpt>
      <trkpt lat="42.050654" lon="-2.784928">
        <ele>1652.64</ele>
        <time>2021-03-27T15:02:50Z</time>
      </trkpt>
      <trkpt lat="42.05051" lon="-2.784919">
        <ele>1653.88</ele>
        <time>2021-03-27T15:02:52Z</time>
      </trkpt>
      <trkpt lat="42.050009" lon="-2.784939">
        <ele>1661.6</ele>
        <time>2021-03-27T15:02:54Z</time>
      </trkpt>
      <trkpt lat="42.049806" lon="-2.784903">
        <ele>1664.92</ele>
        <time>2021-03-27T15:02:56Z</time>
      </trkpt>
      <trkpt lat="42.049708" lon="-2.78486">
        <ele>1665.41</ele>
        <time>2021-03-27T15:02:57Z</time>
      </trkpt>
      <trkpt lat="42.048676" lon="-2.784234">
        <ele>1665.2</ele>
        <time>2021-03-27T15:02:59Z</time>
      </trkpt>
      <trkpt lat="42.048542" lon="-2.78418">
        <ele>1665.7</ele>
        <time>2021-03-27T15:03:01Z</time>
      </trkpt>
      <trkpt lat="42.048421" lon="-2.784156">
        <ele>1668.0</ele>
        <time>2021-03-27T15:03:03Z</time>
      </trkpt>
      <trkpt lat="42.048185" lon="-2.784163">
        <ele>1673.49</ele>
        <time>2021-03-27T15:03:04Z</time>
      </trkpt>
      <trkpt lat="42.048042" lon="-2.784193">
        <ele>1676.9</ele>
        <time>2021-03-27T15:03:06Z</time>
      </trkpt>
      <trkpt lat="42.047784" lon="-2.784335">
        <ele>1681.25</ele>
        <time>2021-03-27T15:03:08Z</time>
      </trkpt>
      <trkpt lat="42.047621" lon="-2.784477">
        <ele>1681.8</ele>
        <time>2021-03-27T15:03:10Z</time>
      </trkpt>
      <trkpt lat="42.04741" lon="-2.784801">
        <ele>1682.93</ele>
        <time>2021-03-27T15:03:11Z</time>
      </trkpt>
      <trkpt lat="42.047251" lon="-2.785152">
        <ele>1684.96</ele>
        <time>2021-03-27T15:03:13Z</time>
      </trkpt>
      <trkpt lat="42.047171" lon="-2.785499">
        <ele>1688.02</ele>
        <time>2021-03-27T15:03:15Z</time>
      </trkpt>
      <trkpt lat="42.047115" lon="-2.785884">
        <ele>1689.47</ele>
        <time>2021-03-27T15:03:16Z</time>
      </trkpt>
      <trkpt lat="42.04707" lon="-2.786645">
        <ele>1697.42</ele>
        <time>2021-03-27T15:03:18Z</time>
      </trkpt>
      <trkpt lat="42.046918" lon="-2.787413">
        <ele>1700.57</ele>
        <time>2021-03-27T15:03:20Z</time>
      </trkpt>
      <trkpt lat="42.046823" lon="-2.787772">
        <ele>1702.66</ele>
        <time>2021-03-27T15:03:22Z</time>
      </trkpt>
      <trkpt lat="42.046726" lon="-2.788067">
        <ele>1704.34</ele>
        <time>2021-03-27T15:03:23Z</time>
      </trkpt>
      <trkpt lat="42.046575" lon="-2.788362">
        <ele>1704.31</ele>
        <time>2021-03-27T15:03:25Z</time>
      </trkpt>
      <trkpt lat="42.046382" lon="-2.78863">
        <ele>1703.35</ele>
        <time>2021-03-27T15:03:27Z</time>
      </trkpt>
      <trkpt lat="42.046233" lon="-2.788783">
        <ele>1705.57</ele>
        <time>2021-03-27T15:03:29Z</time>
      </trkpt>
      <trkpt lat="42.046096" lon="-2.788853">
        <ele>1707.08</ele>
        <time>2021-03-27T15:03:30Z</time>
      </trkpt>
      <trkpt lat="42.045926" lon="-2.788866">
        <ele>1711.79</ele>
        <time>2021-03-27T15:03:32Z</time>
      </trkpt>
      <trkpt lat="42.045755" lon="-2.788795">
        <ele>1712.59</ele>
        <time>2021-03-27T15:03:34Z</time>
      </trkpt>
      <trkpt lat="42.045406" lon="-2.788533">
        <ele>1709.02</ele>
        <time>2021-03-27T15:03:36Z</time>
      </trkpt>
      <trkpt lat="42.044711" lon="-2.787837">
        <ele>1718.56</ele>
        <time>2021-03-27T15:03:37Z</time>
      </trkpt>
      <trkpt lat="42.044093" lon="-2.787263">
        <ele>1720.77</ele>
        <time>2021-03-27T15:03:39Z</time>
      </trkpt>
      <trkpt lat="42.043901" lon="-2.787054">
        <ele>1723.56</ele>
        <time>2021-03-27T15:03:41Z</time>
      </trkpt>
      <trkpt lat="42.043761" lon="-2.786832">
        <ele>1723.31</ele>
        <time>2021-03-27T15:03:43Z</time>
      </trkpt>
      <trkpt lat="42.043675" lon="-2.78673">
        <ele>1723.65</ele>
        <time>2021-03-27T15:03:44Z</time>
      </trkpt>
      <trkpt lat="42.043566" lon="-2.786645">
        <ele>1724.33</ele>
        <time>2021-03-27T15:03:46Z</time>
      </trkpt>
      <trkpt lat="42.043431" lon="-2.786594">
        <ele>1725.51</ele>
        <time>2021-03-27T15:03:48Z</time>
      </trkpt>
      <trkpt lat="42.043309" lon="-2.786587">
        <ele>1726.98</ele>
        <time>2021-03-27T15:03:49Z</time>
      </trkpt>
      <trkpt lat="42.043081" lon="-2.786605">
        <ele>1727.44</ele>
        <time>2021-03-27T15:03:51Z</time>
      </trkpt>
      <trkpt lat="42.042275" lon="-2.786736">
        <ele>1737.25</ele>
        <time>2021-03-27T15:03:53Z</time>
      </trkpt>
      <trkpt lat="42.042142" lon="-2.786742">
        <ele>1739.67</ele>
        <time>2021-03-27T15:03:55Z</time>
      </trkpt>
      <trkpt lat="42.04194" lon="-2.786693">
        <ele>1741.9</ele>
        <time>2021-03-27T15:03:56Z</time>
      </trkpt>
      <trkpt lat="42.040739" lon="-2.785789">
        <ele>1749.66</ele>
        <time>2021-03-27T15:03:58Z</time>
      </trkpt>
      <trkpt lat="42.040619" lon="-2.785716">
        <ele>1750.72</ele>
        <time>2021-03-27T15:04:00Z</time>
      </trkpt>
      <trkpt lat="42.039927" lon="-2.78545">
        <ele>1753.12</ele>
        <time>2021-03-27T15:04:02Z</time>
      </trkpt>
      <trkpt lat="42.039517" lon="-2.785258">
        <ele>1754.54</ele>
        <time>2021-03-27T15:04:03Z</time>
      </trkpt>
      <trkpt lat="42.038915" lon="-2.784919">
        <ele>1753.85</ele>
        <time>2021-03-27T15:04:05Z</time>
      </trkpt>
      <trkpt lat="42.038793" lon="-2.784892">
        <ele>1754.13</ele>
        <time>2021-03-27T15:04:07Z</time>
      </trkpt>
      <trkpt lat="42.038393" lon="-2.784867">
        <ele>1752.91</ele>
        <time>2021-03-27T15:04:09Z</time>
      </trkpt>
      <trkpt lat="42.038167" lon="-2.784818">
        <ele>1749.68</ele>
        <time>2021-03-27T15:04:10Z</time>
      </trkpt>
      <trkpt lat="42.03807" lon="-2.784767">
        <ele>1747.62</ele>
        <time>2021-03-27T15:04:12Z</time>
      </trkpt>
      <trkpt lat="42.037922" lon="-2.784608">
        <ele>1746.17</ele>
        <time>2021-03-27T15:04:14Z</time>
      </trkpt>
      <trkpt lat="42.037721" lon="-2.784274">
        <ele>1746.74</ele>
        <time>2021-03-27T15:04:16Z</time>
      </trkpt>
      <trkpt lat="42.037583" lon="-2.784124">
        <ele>1747.36</ele>
        <time>2021-03-27T15:04:17Z</time>
      </trkpt>
      <trkpt lat="42.037177" lon="-2.783905">
        <ele>1747.16</ele>
        <time>2021-03-27T15:04:19Z</time>
      </trkpt>
      <trkpt lat="42.037087" lon="-2.783887">
        <ele>1746.59</ele>
        <time>2021-03-27T15:04:21Z</time>
      </trkpt>
      <trkpt lat="42.036979" lon="-2.78391">
        <ele>1744.86</ele>
        <time>2021-03-27T15:04:23Z</time>
      </trkpt>
      <trkpt lat="42.036888" lon="-2.783969">
        <ele>1742.34</ele>
        <time>2021-03-27T15:04:24Z</time>
      </trkpt>
      <trkpt lat="42.036794" lon="-2.7841">
        <ele>1738.74</ele>
        <time>2021-03-27T15:04:26Z</time>
      </trkpt>
      <trkpt lat="42.036782" lon="-2.784156">
        <ele>1737.61</ele>
        <time>2021-03-27T15:04:28Z</time>
      </trkpt>
      <trkpt lat="42.036758" lon="-2.784316">
        <ele>1735.34</ele>
        <time>2021-03-27T15:04:29Z</time>
      </trkpt>
      <trkpt lat="42.036761" lon="-2.784408">
        <ele>1734.18</ele>
        <time>2021-03-27T15:04:31Z</time>
      </trkpt>
      <trkpt lat="42.036905" lon="-2.785129">
        <ele>1732.26</ele>
        <time>2021-03-27T15:04:33Z</time>
      </trkpt>
      <trkpt lat="42.036945" lon="-2.785416">
        <ele>1731.01</ele>
        <time>2021-03-27T15:04:35Z</time>
      </trkpt>
      <trkpt lat="42.036927" lon="-2.785778">
        <ele>1728.91</ele>
        <time>2021-03-27T15:04:36Z</time>
      </trkpt>
      <trkpt lat="42.036876" lon="-2.785927">
        <ele>1727.6</ele>
        <time>2021-03-27T15:04:38Z</time>
      </trkpt>
      <trkpt lat="42.036808" lon="-2.786059">
        <ele>1725.75</ele>
        <time>2021-03-27T15:04:40Z</time>
      </trkpt>
      <trkpt lat="42.036706" lon="-2.786169">
        <ele>1722.85</ele>
        <time>2021-03-27T15:04:42Z</time>
      </trkpt>
      <trkpt lat="42.03656" lon="-2.786252">
        <ele>1719.57</ele>
        <time>2021-03-27T15:04:43Z</time>
      </trkpt>
      <trkpt lat="42.036397" lon="-2.786278">
        <ele>1716.55</ele>
        <time>2021-03-27T15:04:45Z</time>
      </trkpt>
      <trkpt lat="42.036281" lon="-2.786253">
        <ele>1714.54</ele>
        <time>2021-03-27T15:04:47Z</time>
      </trkpt>
      <trkpt lat="42.036181" lon="-2.786201">
        <ele>1713.21</ele>
        <time>2021-03-27T15:04:49Z</time>
      </trkpt>
      <trkpt lat="42.035999" lon="-2.786021">
        <ele>1711.09</ele>
        <time>2021-03-27T15:04:50Z</time>
      </trkpt>
      <trkpt lat="42.034701" lon="-2.784406">
        <ele>1697.25</ele>
        <time>2021-03-27T15:04:52Z</time>
      </trkpt>
      <trkpt lat="42.034546" lon="-2.784254">
        <ele>1697.21</ele>
        <time>2021-03-27T15:04:54Z</time>
      </trkpt>
      <trkpt lat="42.034461" lon="-2.784194">
        <ele>1696.83</ele>
        <time>2021-03-27T15:04:56Z</time>
      </trkpt>
      <trkpt lat="42.034183" lon="-2.784055">
        <ele>1698.11</ele>
        <time>2021-03-27T15:04:57Z</time>
      </trkpt>
      <trkpt lat="42.034095" lon="-2.783987">
        <ele>1697.61</ele>
        <time>2021-03-27T15:04:59Z</time>
      </trkpt>
      <trkpt lat="42.033265" lon="-2.783055">
        <ele>1687.79</ele>
        <time>2021-03-27T15:05:01Z</time>
      </trkpt>
      <trkpt lat="42.032911" lon="-2.78274">
        <ele>1684.54</ele>
        <time>2021-03-27T15:05:02Z</time>
      </trkpt>
      <trkpt lat="42.032692" lon="-2.782599">
        <ele>1682.82</ele>
        <time>2021-03-27T15:05:04Z</time>
      </trkpt>
      <trkpt lat="42.032396" lon="-2.782414">
        <ele>1676.69</ele>
        <time>2021-03-27T15:05:06Z</time>
      </trkpt>
      <trkpt lat="42.03223" lon="-2.78233">
        <ele>1672.55</ele>
        <time>2021-03-27T15:05:08Z</time>
      </trkpt>
      <trkpt lat="42.032028" lon="-2.78227">
        <ele>1672.15</ele>
        <time>2021-03-27T15:05:09Z</time>
      </trkpt>
      <trkpt lat="42.031856" lon="-2.782285">
        <ele>1671.04</ele>
        <time>2021-03-27T15:05:11Z</time>
      </trkpt>
      <trkpt lat="42.031672" lon="-2.782361">
        <ele>1668.99</ele>
        <time>2021-03-27T15:05:13Z</time>
      </trkpt>
      <trkpt lat="42.031359" lon="-2.782623">
        <ele>1663.91</ele>
        <time>2021-03-27T15:05:15Z</time>
      </trkpt>
      <trkpt lat="42.03122" lon="-2.782722">
        <ele>1662.24</ele>
        <time>2021-03-27T15:05:16Z</time>
      </trkpt>
      <trkpt lat="42.031115" lon="-2.782773">
        <ele>1661.12</ele>
        <time>2021-03-27T15:05:18Z</time>
      </trkpt>
      <trkpt lat="42.030902" lon="-2.782806">
        <ele>1660.28</ele>
        <time>2021-03-27T15:05:20Z</time>
      </trkpt>
      <trkpt lat="42.030802" lon="-2.78279">
        <ele>1660.9</ele>
        <time>2021-03-27T15:05:22Z</time>
      </trkpt>
      <trkpt lat="42.030688" lon="-2.782754">
        <ele>1662.85</ele>
        <time>2021-03-27T15:05:23Z</time>
      </trkpt>
      <trkpt lat="42.03001" lon="-2.782384">
        <ele>1663.1</ele>
        <time>2021-03-27T15:05:25Z</time>
      </trkpt>
      <trkpt lat="42.029867" lon="-2.782277">
        <ele>1665.71</ele>
        <time>2021-03-27T15:05:27Z</time>
      </trkpt>
      <trkpt lat="42.029602" lon="-2.782036">
        <ele>1667.89</ele>
        <time>2021-03-27T15:05:29Z</time>
      </trkpt>
      <trkpt lat="42.029177" lon="-2.78151">
        <ele>1660.85</ele>
        <time>2021-03-27T15:05:30Z</time>
      </trkpt>
      <trkpt lat="42.028911" lon="-2.781099">
        <ele>1657.45</ele>
        <time>2021-03-27T15:05:32Z</time>
      </trkpt>
      <trkpt lat="42.028859" lon="-2.780964">
        <ele>1655.55</ele>
        <time>2021-03-27T15:05:34Z</time>
      </trkpt>
      <trkpt lat="42.028813" lon="-2.780708">
        <ele>1652.97</ele>
        <time>2021-03-27T15:05:36Z</time>
      </trkpt>
      <trkpt lat="42.028802" lon="-2.78056">
        <ele>1651.9</ele>
        <time>2021-03-27T15:05:37Z</time>
      </trkpt>
      <trkpt lat="42.028797" lon="-2.779245">
        <ele>1643.65</ele>
        <time>2021-03-27T15:05:39Z</time>
      </trkpt>
      <trkpt lat="42.028898" lon="-2.777887">
        <ele>1637.84</ele>
        <time>2021-03-27T15:05:41Z</time>
      </trkpt>
      <trkpt lat="42.028872" lon="-2.777572">
        <ele>1635.6</ele>
        <time>2021-03-27T15:05:42Z</time>
      </trkpt>
      <trkpt lat="42.028836" lon="-2.777436">
        <ele>1633.57</ele>
        <time>2021-03-27T15:05:44Z</time>
      </trkpt>
      <trkpt lat="42.028777" lon="-2.777294">
        <ele>1630.97</ele>
        <time>2021-03-27T15:05:46Z</time>
      </trkpt>
      <trkpt lat="42.028615" lon="-2.777066">
        <ele>1627.22</ele>
        <time>2021-03-27T15:05:48Z</time>
      </trkpt>
      <trkpt lat="42.028521" lon="-2.776987">
        <ele>1626.19</ele>
        <time>2021-03-27T15:05:49Z</time>
      </trkpt>
      <trkpt lat="42.028434" lon="-2.776945">
        <ele>1625.45</ele>
        <time>2021-03-27T15:05:51Z</time>
      </trkpt>
      <trkpt lat="42.028246" lon="-2.776899">
        <ele>1625.1</ele>
        <time>2021-03-27T15:05:53Z</time>
      </trkpt>
      <trkpt lat="42.028168" lon="-2.776903">
        <ele>1624.77</ele>
        <time>2021-03-27T15:05:55Z</time>
      </trkpt>
      <trkpt lat="42.02804" lon="-2.776924">
        <ele>1623.78</ele>
        <time>2021-03-27T15:05:56Z</time>
      </trkpt>
      <trkpt lat="42.027314" lon="-2.777135">
        <ele>1622.16</ele>
        <time>2021-03-27T15:05:58Z</time>
      </trkpt>
      <trkpt lat="42.026425" lon="-2.777411">
        <ele>1615.99</ele>
        <time>2021-03-27T15:06:00Z</time>
      </trkpt>
      <trkpt lat="42.026158" lon="-2.777448">
        <ele>1614.86</ele>
        <time>2021-03-27T15:06:02Z</time>
      </trkpt>
      <trkpt lat="42.025912" lon="-2.777455">
        <ele>1612.45</ele>
        <time>2021-03-27T15:06:03Z</time>
      </trkpt>
      <trkpt lat="42.025722" lon="-2.777435">
        <ele>1610.86</ele>
        <time>2021-03-27T15:06:05Z</time>
      </trkpt>
      <trkpt lat="42.025468" lon="-2.777375">
        <ele>1609.36</ele>
        <time>2021-03-27T15:06:07Z</time>
      </trkpt>
      <trkpt lat="42.025235" lon="-2.777275">
        <ele>1609.09</ele>
        <time>2021-03-27T15:06:09Z</time>
      </trkpt>
      <trkpt lat="42.025056" lon="-2.777087">
        <ele>1607.5</ele>
        <time>2021-03-27T15:06:10Z</time>
      </trkpt>
      <trkpt lat="42.024843" lon="-2.776711">
        <ele>1606.96</ele>
        <time>2021-03-27T15:06:12Z</time>
      </trkpt>
      <trkpt lat="42.024703" lon="-2.776415">
        <ele>1606.1</ele>
        <time>2021-03-27T15:06:14Z</time>
      </trkpt>
      <trkpt lat="42.024011" lon="-2.774576">
        <ele>1588.43</ele>
        <time>2021-03-27T15:06:15Z</time>
      </trkpt>
      <trkpt lat="42.023875" lon="-2.774346">
        <ele>1585.43</ele>
        <time>2021-03-27T15:06:17Z</time>
      </trkpt>
      <trkpt lat="42.023691" lon="-2.774182">
        <ele>1582.84</ele>
        <time>2021-03-27T15:06:19Z</time>
      </trkpt>
      <trkpt lat="42.02352" lon="-2.77413">
        <ele>1582.35</ele>
        <time>2021-03-27T15:06:21Z</time>
      </trkpt>
      <trkpt lat="42.023348" lon="-2.774135">
        <ele>1582.66</ele>
        <time>2021-03-27T15:06:22Z</time>
      </trkpt>
      <trkpt lat="42.023245" lon="-2.77417">
        <ele>1583.22</ele>
        <time>2021-03-27T15:06:24Z</time>
      </trkpt>
      <trkpt lat="42.023082" lon="-2.774289">
        <ele>1583.91</ele>
        <time>2021-03-27T15:06:26Z</time>
      </trkpt>
      <trkpt lat="42.023014" lon="-2.774372">
        <ele>1584.19</ele>
        <time>2021-03-27T15:06:28Z</time>
      </trkpt>
      <trkpt lat="42.022907" lon="-2.774566">
        <ele>1583.45</ele>
        <time>2021-03-27T15:06:29Z</time>
      </trkpt>
      <trkpt lat="42.02286" lon="-2.774709">
        <ele>1582.42</ele>
        <time>2021-03-27T15:06:31Z</time>
      </trkpt>
      <trkpt lat="42.022315" lon="-2.778065">
        <ele>1558.6</ele>
        <time>2021-03-27T15:06:33Z</time>
      </trkpt>
      <trkpt lat="42.022275" lon="-2.778389">
        <ele>1558.93</ele>
        <time>2021-03-27T15:06:35Z</time>
      </trkpt>
      <trkpt lat="42.022273" lon="-2.778916">
        <ele>1556.65</ele>
        <time>2021-03-27T15:06:36Z</time>
      </trkpt>
      <trkpt lat="42.022336" lon="-2.779925">
        <ele>1552.34</ele>
        <time>2021-03-27T15:06:38Z</time>
      </trkpt>
      <trkpt lat="42.0223" lon="-2.780387">
        <ele>1548.28</ele>
        <time>2021-03-27T15:06:40Z</time>
      </trkpt>
      <trkpt lat="42.022248" lon="-2.780559">
        <ele>1546.44</ele>
        <time>2021-03-27T15:06:42Z</time>
      </trkpt>
      <trkpt lat="42.021992" lon="-2.781069">
        <ele>1537.78</ele>
        <time>2021-03-27T15:06:43Z</time>
      </trkpt>
      <trkpt lat="42.02185" lon="-2.78129">
        <ele>1536.09</ele>
        <time>2021-03-27T15:06:45Z</time>
      </trkpt>
      <trkpt lat="42.021705" lon="-2.781468">
        <ele>1535.79</ele>
        <time>2021-03-27T15:06:47Z</time>
      </trkpt>
      <trkpt lat="42.021307" lon="-2.781877">
        <ele>1532.99</ele>
        <time>2021-03-27T15:06:49Z</time>
      </trkpt>
      <trkpt lat="42.021212" lon="-2.782011">
        <ele>1531.71</ele>
        <time>2021-03-27T15:06:50Z</time>
      </trkpt>
      <trkpt lat="42.020507" lon="-2.783278">
        <ele>1525.03</ele>
        <time>2021-03-27T15:06:52Z</time>
      </trkpt>
      <trkpt lat="42.020391" lon="-2.783534">
        <ele>1523.88</ele>
        <time>2021-03-27T15:06:54Z</time>
      </trkpt>
      <trkpt lat="42.020313" lon="-2.783788">
        <ele>1521.12</ele>
        <time>2021-03-27T15:06:55Z</time>
      </trkpt>
      <trkpt lat="42.020236" lon="-2.784178">
        <ele>1516.98</ele>
        <time>2021-03-27T15:06:57Z</time>
      </trkpt>
      <trkpt lat="42.020211" lon="-2.784953">
        <ele>1514.95</ele>
        <time>2021-03-27T15:06:59Z</time>
      </trkpt>
      <trkpt lat="42.020182" lon="-2.785188">
        <ele>1512.84</ele>
        <time>2021-03-27T15:07:01Z</time>
      </trkpt>
      <trkpt lat="42.020069" lon="-2.785651">
        <ele>1509.96</ele>
        <time>2021-03-27T15:07:02Z</time>
      </trkpt>
      <trkpt lat="42.01988" lon="-2.786065">
        <ele>1508.18</ele>
        <time>2021-03-27T15:07:04Z</time>
      </trkpt>
      <trkpt lat="42.019639" lon="-2.786399">
        <ele>1503.23</ele>
        <time>2021-03-27T15:07:06Z</time>
      </trkpt>
      <trkpt lat="42.01772" lon="-2.788304">
        <ele>1489.08</ele>
        <time>2021-03-27T15:07:08Z</time>
      </trkpt>
      <trkpt lat="42.016731" lon="-2.789159">
        <ele>1480.1</ele>
        <time>2021-03-27T15:07:09Z</time>
      </trkpt>
      <trkpt lat="42.016502" lon="-2.789337">
        <ele>1477.63</ele>
        <time>2021-03-27T15:07:11Z</time>
      </trkpt>
      <trkpt lat="42.016336" lon="-2.789432">
        <ele>1476.76</ele>
        <time>2021-03-27T15:07:13Z</time>
      </trkpt>
      <trkpt lat="42.016129" lon="-2.789516">
        <ele>1476.3</ele>
        <time>2021-03-27T15:07:15Z</time>
      </trkpt>
      <trkpt lat="42.015537" lon="-2.789717">
        <ele>1473.3</ele>
        <time>2021-03-27T15:07:16Z</time>
      </trkpt>
      <trkpt lat="42.014924" lon="-2.789955">
        <ele>1472.1</ele>
        <time>2021-03-27T15:07:18Z</time>
      </trkpt>
      <trkpt lat="42.013919" lon="-2.790237">
        <ele>1465.34</ele>
        <time>2021-03-27T15:07:20Z</time>
      </trkpt>
      <trkpt lat="42.013156" lon="-2.790423">
        <ele>1460.2</ele>
        <time>2021-03-27T15:07:22Z</time>
      </trkpt>
      <trkpt lat="42.012907" lon="-2.790447">
        <ele>1459.13</ele>
        <time>2021-03-27T15:07:23Z</time>
      </trkpt>
      <trkpt lat="42.012636" lon="-2.79043">
        <ele>1458.64</ele>
        <time>2021-03-27T15:07:25Z</time>
      </trkpt>
      <trkpt lat="42.012359" lon="-2.790385">
        <ele>1454.82</ele>
        <time>2021-03-27T15:07:27Z</time>
      </trkpt>
      <trkpt lat="42.012079" lon="-2.790306">
        <ele>1451.01</ele>
        <time>2021-03-27T15:07:28Z</time>
      </trkpt>
      <trkpt lat="42.006947" lon="-2.788068">
        <ele>1415.92</ele>
        <time>2021-03-27T15:07:30Z</time>
      </trkpt>
      <trkpt lat="42.006617" lon="-2.78789">
        <ele>1416.04</ele>
        <time>2021-03-27T15:07:32Z</time>
      </trkpt>
      <trkpt lat="42.006467" lon="-2.787783">
        <ele>1414.38</ele>
        <time>2021-03-27T15:07:34Z</time>
      </trkpt>
      <trkpt lat="42.006173" lon="-2.787488">
        <ele>1409.85</ele>
        <time>2021-03-27T15:07:35Z</time>
      </trkpt>
      <trkpt lat="42.006068" lon="-2.787345">
        <ele>1407.98</ele>
        <time>2021-03-27T15:07:37Z</time>
      </trkpt>
      <trkpt lat="42.005872" lon="-2.787021">
        <ele>1406.05</ele>
        <time>2021-03-27T15:07:39Z</time>
      </trkpt>
      <trkpt lat="42.005608" lon="-2.786533">
        <ele>1403.42</ele>
        <time>2021-03-27T15:07:41Z</time>
      </trkpt>
      <trkpt lat="42.005476" lon="-2.786352">
        <ele>1401.36</ele>
        <time>2021-03-27T15:07:42Z</time>
      </trkpt>
      <trkpt lat="42.00532" lon="-2.786212">
        <ele>1399.0</ele>
        <time>2021-03-27T15:07:44Z</time>
      </trkpt>
      <trkpt lat="42.005243" lon="-2.786173">
        <ele>1397.99</ele>
        <time>2021-03-27T15:07:46Z</time>
      </trkpt>
      <trkpt lat="42.005058" lon="-2.786124">
        <ele>1395.03</ele>
        <time>2021-03-27T15:07:48Z</time>
      </trkpt>
      <trkpt lat="42.004888" lon="-2.786147">
        <ele>1393.19</ele>
        <time>2021-03-27T15:07:49Z</time>
      </trkpt>
      <trkpt lat="42.004696" lon="-2.78624">
        <ele>1391.86</ele>
        <time>2021-03-27T15:07:51Z</time>
      </trkpt>
      <trkpt lat="42.004604" lon="-2.786305">
        <ele>1391.28</ele>
        <time>2021-03-27T15:07:53Z</time>
      </trkpt>
      <trkpt lat="42.004189" lon="-2.786686">
        <ele>1387.02</ele>
        <time>2021-03-27T15:07:55Z</time>
      </trkpt>
      <trkpt lat="42.003605" lon="-2.787059">
        <ele>1380.0</ele>
        <time>2021-03-27T15:07:56Z</time>
      </trkpt>
      <trkpt lat="42.003154" lon="-2.787468">
        <ele>1380.73</ele>
        <time>2021-03-27T15:07:58Z</time>
      </trkpt>
      <trkpt lat="42.00297" lon="-2.787611">
        <ele>1379.77</ele>
        <time>2021-03-27T15:08:00Z</time>
      </trkpt>
      <trkpt lat="42.002409" lon="-2.787885">
        <ele>1372.76</ele>
        <time>2021-03-27T15:08:02Z</time>
      </trkpt>
      <trkpt lat="42.001914" lon="-2.788169">
        <ele>1370.32</ele>
        <time>2021-03-27T15:08:03Z</time>
      </trkpt>
      <trkpt lat="42.00168" lon="-2.788281">
        <ele>1369.27</ele>
        <time>2021-03-27T15:08:05Z</time>
      </trkpt>
      <trkpt lat="42.00135" lon="-2.788419">
        <ele>1369.11</ele>
        <time>2021-03-27T15:08:07Z</time>
      </trkpt>
      <trkpt lat="42.001042" lon="-2.78852">
        <ele>1368.69</ele>
        <time>2021-03-27T15:08:08Z</time>
      </trkpt>
      <trkpt lat="41.998602" lon="-2.788983">
        <ele>1349.94</ele>
        <time>2021-03-27T15:08:10Z</time>
      </trkpt>
      <trkpt lat="41.99812" lon="-2.788992">
        <ele>1344.92</ele>
        <time>2021-03-27T15:08:12Z</time>
      </trkpt>
      <trkpt lat="41.992195" lon="-2.788626">
        <ele>1293.04</ele>
        <time>2021-03-27T15:08:14Z</time>
      </trkpt>
      <trkpt lat="41.991696" lon="-2.788607">
        <ele>1294.85</ele>
        <time>2021-03-27T15:08:15Z</time>
      </trkpt>
      <trkpt lat="41.99142" lon="-2.788668">
        <ele>1294.38</ele>
        <time>2021-03-27T15:08:17Z</time>
      </trkpt>
      <trkpt lat="41.991138" lon="-2.788828">
        <ele>1293.05</ele>
        <time>2021-03-27T15:08:19Z</time>
      </trkpt>
      <trkpt lat="41.990651" lon="-2.789237">
        <ele>1290.41</ele>
        <time>2021-03-27T15:08:21Z</time>
      </trkpt>
      <trkpt lat="41.990278" lon="-2.7895">
        <ele>1286.6</ele>
        <time>2021-03-27T15:08:22Z</time>
      </trkpt>
      <trkpt lat="41.989941" lon="-2.789642">
        <ele>1285.99</ele>
        <time>2021-03-27T15:08:24Z</time>
      </trkpt>
      <trkpt lat="41.988787" lon="-2.789967">
        <ele>1282.84</ele>
        <time>2021-03-27T15:08:26Z</time>
      </trkpt>
      <trkpt lat="41.988579" lon="-2.790056">
        <ele>1282.53</ele>
        <time>2021-03-27T15:08:28Z</time>
      </trkpt>
      <trkpt lat="41.988426" lon="-2.790148">
        <ele>1282.88</ele>
        <time>2021-03-27T15:08:29Z</time>
      </trkpt>
      <trkpt lat="41.98748" lon="-2.79097">
        <ele>1275.83</ele>
        <time>2021-03-27T15:08:31Z</time>
      </trkpt>
      <trkpt lat="41.987323" lon="-2.791172">
        <ele>1274.17</ele>
        <time>2021-03-27T15:08:33Z</time>
      </trkpt>
      <trkpt lat="41.986881" lon="-2.791828">
        <ele>1271.89</ele>
        <time>2021-03-27T15:08:35Z</time>
      </trkpt>
      <trkpt lat="41.986721" lon="-2.792037">
        <ele>1271.22</ele>
        <time>2021-03-27T15:08:36Z</time>
      </trkpt>
      <trkpt lat="41.986605" lon="-2.792157">
        <ele>1271.18</ele>
        <time>2021-03-27T15:08:38Z</time>
      </trkpt>
      <trkpt lat="41.986489" lon="-2.792251">
        <ele>1271.78</ele>
        <time>2021-03-27T15:08:40Z</time>
      </trkpt>
      <trkpt lat="41.986207" lon="-2.792395">
        <ele>1273.23</ele>
        <time>2021-03-27T15:08:41Z</time>
      </trkpt>
      <trkpt lat="41.986054" lon="-2.792439">
        <ele>1273.82</ele>
        <time>2021-03-27T15:08:43Z</time>
      </trkpt>
      <trkpt lat="41.985874" lon="-2.792457">
        <ele>1274.19</ele>
        <time>2021-03-27T15:08:45Z</time>
      </trkpt>
      <trkpt lat="41.985583" lon="-2.792404">
        <ele>1271.98</ele>
        <time>2021-03-27T15:08:47Z</time>
      </trkpt>
      <trkpt lat="41.984141" lon="-2.791724">
        <ele>1270.68</ele>
        <time>2021-03-27T15:08:48Z</time>
      </trkpt>
      <trkpt lat="41.982657" lon="-2.791061">
        <ele>1265.56</ele>
        <time>2021-03-27T15:08:50Z</time>
      </trkpt>
      <trkpt lat="41.982111" lon="-2.790778">
        <ele>1264.92</ele>
        <time>2021-03-27T15:08:52Z</time>
      </trkpt>
      <trkpt lat="41.981565" lon="-2.790416">
        <ele>1263.13</ele>
        <time>2021-03-27T15:08:54Z</time>
      </trkpt>
      <trkpt lat="41.979793" lon="-2.789128">
        <ele>1247.99</ele>
        <time>2021-03-27T15:08:55Z</time>
      </trkpt>
      <trkpt lat="41.979587" lon="-2.788956">
        <ele>1246.51</ele>
        <time>2021-03-27T15:08:57Z</time>
      </trkpt>
      <trkpt lat="41.979503" lon="-2.788866">
        <ele>1246.3</ele>
        <time>2021-03-27T15:08:59Z</time>
      </trkpt>
      <trkpt lat="41.978703" lon="-2.787756">
        <ele>1245.92</ele>
        <time>2021-03-27T15:09:01Z</time>
      </trkpt>
      <trkpt lat="41.978535" lon="-2.787565">
        <ele>1244.41</ele>
        <time>2021-03-27T15:09:02Z</time>
      </trkpt>
      <trkpt lat="41.976612" lon="-2.785612">
        <ele>1231.53</ele>
        <time>2021-03-27T15:09:04Z</time>
      </trkpt>
      <trkpt lat="41.976276" lon="-2.785373">
        <ele>1231.45</ele>
        <time>2021-03-27T15:09:06Z</time>
      </trkpt>
      <trkpt lat="41.976132" lon="-2.785308">
        <ele>1230.97</ele>
        <time>2021-03-27T15:09:08Z</time>
      </trkpt>
      <trkpt lat="41.975947" lon="-2.78526">
        <ele>1229.2</ele>
        <time>2021-03-27T15:09:09Z</time>
      </trkpt>
      <trkpt lat="41.975588" lon="-2.785239">
        <ele>1226.11</ele>
        <time>2021-03-27T15:09:11Z</time>
      </trkpt>
      <trkpt lat="41.975574" lon="-2.785401">
        <ele>1226.55</ele>
        <time>2021-03-27T15:09:13Z</time>
      </trkpt>
      <trkpt lat="41.975542" lon="-2.785518">
        <ele>1226.63</ele>
        <time>2021-03-27T15:09:15Z</time>
      </trkpt>
      <trkpt lat="41.97548" lon="-2.785646">
        <ele>1225.41</ele>
        <time>2021-03-27T15:09:17Z</time>
      </trkpt>
      <trkpt lat="41.975196" lon="-2.786039">
        <ele>1220.07</ele>
        <time>2021-03-27T15:09:19Z</time>
      </trkpt>
      <trkpt lat="41.975233" lon="-2.787012">
        <ele>1221.52</ele>
        <time>2021-03-27T15:09:27Z</time>
      </trkpt>
      <trkpt lat="41.97533" lon="-2.788701">
        <ele>1224.16</ele>
        <time>2021-03-27T15:09:36Z</time>
      </trkpt>
      <trkpt lat="41.975626" lon="-2.790299">
        <ele>1224.95</ele>
        <time>2021-03-27T15:09:44Z</time>
      </trkpt>
      <trkpt lat="41.975881" lon="-2.790832">
        <ele>1228.69</ele>
        <time>2021-03-27T15:09:53Z</time>
      </trkpt>
      <trkpt lat="41.976613" lon="-2.791916">
        <ele>1232.78</ele>
        <time>2021-03-27T15:10:01Z</time>
      </trkpt>
      <trkpt lat="41.976928" lon="-2.792232">
        <ele>1230.71</ele>
        <time>2021-03-27T15:10:10Z</time>
      </trkpt>
      <trkpt lat="41.977805" lon="-2.792581">
        <ele>1235.17</ele>
        <time>2021-03-27T15:10:18Z</time>
      </trkpt>
      <trkpt lat="41.978" lon="-2.79269">
        <ele>1232.64</ele>
        <time>2021-03-27T15:10:27Z</time>
      </trkpt>
      <trkpt lat="41.978178" lon="-2.792908">
        <ele>1229.77</ele>
        <time>2021-03-27T15:10:35Z</time>
      </trkpt>
      <trkpt lat="41.978356" lon="-2.793246">
        <ele>1227.07</ele>
        <time>2021-03-27T15:10:44Z</time>
      </trkpt>
      <trkpt lat="41.978679" lon="-2.794211">
        <ele>1224.28</ele>
        <time>2021-03-27T15:10:52Z</time>
      </trkpt>
      <trkpt lat="41.978776" lon="-2.79446">
        <ele>1225.43</ele>
        <time>2021-03-27T15:11:01Z</time>
      </trkpt>
      <trkpt lat="41.978869" lon="-2.794637">
        <ele>1225.12</ele>
        <time>2021-03-27T15:11:09Z</time>
      </trkpt>
      <trkpt lat="41.978958" lon="-2.794751">
        <ele>1225.6</ele>
        <time>2021-03-27T15:11:18Z</time>
      </trkpt>
      <trkpt lat="41.982318" lon="-2.796695">
        <ele>1241.28</ele>
        <time>2021-03-27T15:11:26Z</time>
      </trkpt>
      <trkpt lat="41.983785" lon="-2.797136">
        <ele>1247.33</ele>
        <time>2021-03-27T15:11:35Z</time>
      </trkpt>
      <trkpt lat="41.985513" lon="-2.797934">
        <ele>1252.32</ele>
        <time>2021-03-27T15:11:43Z</time>
      </trkpt>
      <trkpt lat="41.989024" lon="-2.798755">
        <ele>1255.81</ele>
        <time>2021-03-27T15:11:52Z</time>
      </trkpt>
      <trkpt lat="41.989309" lon="-2.79888">
        <ele>1256.9</ele>
        <time>2021-03-27T15:12:00Z</time>
      </trkpt>
      <trkpt lat="41.992198" lon="-2.800542">
        <ele>1266.86</ele>
        <time>2021-03-27T15:12:09Z</time>
      </trkpt>
      <trkpt lat="41.992344" lon="-2.800608">
        <ele>1267.44</ele>
        <time>2021-03-27T15:12:17Z</time>
      </trkpt>
      <trkpt lat="41.992487" lon="-2.800638">
        <ele>1267.95</ele>
        <time>2021-03-27T15:12:26Z</time>
      </trkpt>
      <trkpt lat="41.992832" lon="-2.800627">
        <ele>1270.3</ele>
        <time>2021-03-27T15:12:35Z</time>
      </trkpt>
      <trkpt lat="41.996485" lon="-2.799728">
        <ele>1283.98</ele>
        <time>2021-03-27T15:12:43Z</time>
      </trkpt>
      <trkpt lat="41.996875" lon="-2.799668">
        <ele>1281.76</ele>
        <time>2021-03-27T15:12:52Z</time>
      </trkpt>
      <trkpt lat="41.997032" lon="-2.799665">
        <ele>1282.99</ele>
        <time>2021-03-27T15:13:00Z</time>
      </trkpt>
      <trkpt lat="41.99724" lon="-2.799705">
        <ele>1285.95</ele>
        <time>2021-03-27T15:13:09Z</time>
      </trkpt>
      <trkpt lat="41.997621" lon="-2.799711">
        <ele>1287.4</ele>
        <time>2021-03-27T15:13:17Z</time>
      </trkpt>
      <trkpt lat="41.999205" lon="-2.79981">
        <ele>1295.49</ele>
        <time>2021-03-27T15:13:26Z</time>
      </trkpt>
      <trkpt lat="41.999326" lon="-2.799837">
        <ele>1293.95</ele>
        <time>2021-03-27T15:13:34Z</time>
      </trkpt>
      <trkpt lat="41.999456" lon="-2.799903">
        <ele>1292.52</ele>
        <time>2021-03-27T15:13:43Z</time>
      </trkpt>
      <trkpt lat="42.000019" lon="-2.800282">
        <ele>1291.13</ele>
        <time>2021-03-27T15:13:51Z</time>
      </trkpt>
      <trkpt lat="42.000196" lon="-2.800359">
        <ele>1292.67</ele>
        <time>2021-03-27T15:14:00Z</time>
      </trkpt>
      <trkpt lat="42.000403" lon="-2.800351">
        <ele>1293.58</ele>
        <time>2021-03-27T15:14:08Z</time>
      </trkpt>
      <trkpt lat="42.00201" lon="-2.799563">
        <ele>1304.75</ele>
        <time>2021-03-27T15:14:17Z</time>
      </trkpt>
      <trkpt lat="42.002116" lon="-2.799532">
        <ele>1304.44</ele>
        <time>2021-03-27T15:14:25Z</time>
      </trkpt>
      <trkpt lat="42.002215" lon="-2.799532">
        <ele>1304.32</ele>
        <time>2021-03-27T15:14:34Z</time>
      </trkpt>
      <trkpt lat="42.002397" lon="-2.79958">
        <ele>1304.18</ele>
        <time>2021-03-27T15:14:42Z</time>
      </trkpt>
      <trkpt lat="42.002543" lon="-2.799658">
        <ele>1304.28</ele>
        <time>2021-03-27T15:14:51Z</time>
      </trkpt>
      <trkpt lat="42.003837" lon="-2.800472">
        <ele>1308.0</ele>
        <time>2021-03-27T15:14:59Z</time>
      </trkpt>
      <trkpt lat="42.004085" lon="-2.800619">
        <ele>1309.17</ele>
        <time>2021-03-27T15:15:08Z</time>
      </trkpt>
      <trkpt lat="42.00416" lon="-2.800647">
        <ele>1309.64</ele>
        <time>2021-03-27T15:15:16Z</time>
      </trkpt>
      <trkpt lat="42.004317" lon="-2.800662">
        <ele>1309.65</ele>
        <time>2021-03-27T15:15:25Z</time>
      </trkpt>
      <trkpt lat="42.004912" lon="-2.800503">
        <ele>1307.75</ele>
        <time>2021-03-27T15:15:33Z</time>
      </trkpt>
      <trkpt lat="42.004981" lon="-2.800503">
        <ele>1307.8</ele>
        <time>2021-03-27T15:15:42Z</time>
      </trkpt>
      <trkpt lat="42.005109" lon="-2.800545">
        <ele>1308.71</ele>
        <time>2021-03-27T15:15:50Z</time>
      </trkpt>
      <trkpt lat="42.005245" lon="-2.800667">
        <ele>1310.31</ele>
        <time>2021-03-27T15:15:59Z</time>
      </trkpt>
      <trkpt lat="42.007519" lon="-2.803704">
        <ele>1324.36</ele>
        <time>2021-03-27T15:16:07Z</time>
      </trkpt>
      <trkpt lat="42.007641" lon="-2.803847">
        <ele>1325.28</ele>
        <time>2021-03-27T15:16:16Z</time>
      </trkpt>
      <trkpt lat="42.007798" lon="-2.803965">
        <ele>1326.26</ele>
        <time>2021-03-27T15:16:24Z</time>
      </trkpt>
      <trkpt lat="42.007935" lon="-2.804027">
        <ele>1326.21</ele>
        <time>2021-03-27T15:16:33Z</time>
      </trkpt>
      <trkpt lat="42.008483" lon="-2.804096">
        <ele>1325.06</ele>
        <time>2021-03-27T15:16:42Z</time>
      </trkpt>
      <trkpt lat="42.009488" lon="-2.804158">
        <ele>1328.0</ele>
        <time>2021-03-27T15:16:50Z</time>
      </trkpt>
      <trkpt lat="42.009672" lon="-2.80421">
        <ele>1328.19</ele>
        <time>2021-03-27T15:16:59Z</time>
      </trkpt>
      <trkpt lat="42.009805" lon="-2.804317">
        <ele>1328.38</ele>
        <time>2021-03-27T15:17:07Z</time>
      </trkpt>
      <trkpt lat="42.010394" lon="-2.805064">
        <ele>1334.06</ele>
        <time>2021-03-27T15:17:16Z</time>
      </trkpt>
      <trkpt lat="42.01057" lon="-2.80542">
        <ele>1336.13</ele>
        <time>2021-03-27T15:17:24Z</time>
      </trkpt>
      <trkpt lat="42.011512" lon="-2.807926">
        <ele>1352.1</ele>
        <time>2021-03-27T15:17:33Z</time>
      </trkpt>
      <trkpt lat="42.011601" lon="-2.808105">
        <ele>1352.7</ele>
        <time>2021-03-27T15:17:41Z</time>
      </trkpt>
      <trkpt lat="42.011892" lon="-2.808539">
        <ele>1357.14</ele>
        <time>2021-03-27T15:17:50Z</time>
      </trkpt>
      <trkpt lat="42.01191" lon="-2.808617">
        <ele>1356.86</ele>
        <time>2021-03-27T15:17:58Z</time>
      </trkpt>
      <trkpt lat="42.011889" lon="-2.808756">
        <ele>1356.38</ele>
        <time>2021-03-27T15:18:02Z</time>
      </trkpt>
      <trkpt lat="42.011562" lon="-2.809556">
        <ele>1355.75</ele>
        <time>2021-03-27T15:18:07Z</time>
      </trkpt>
      <trkpt lat="42.011308" lon="-2.810006">
        <ele>1360.46</ele>
        <time>2021-03-27T15:18:11Z</time>
      </trkpt>
      <trkpt lat="42.011283" lon="-2.810085">
        <ele>1361.03</ele>
        <time>2021-03-27T15:18:15Z</time>
      </trkpt>
      <trkpt lat="42.011273" lon="-2.810207">
        <ele>1361.39</ele>
        <time>2021-03-27T15:18:19Z</time>
      </trkpt>
      <trkpt lat="42.011291" lon="-2.810447">
        <ele>1360.71</ele>
        <time>2021-03-27T15:18:23Z</time>
      </trkpt>
      <trkpt lat="42.011348" lon="-2.810779">
        <ele>1361.45</ele>
        <time>2021-03-27T15:18:28Z</time>
      </trkpt>
      <trkpt lat="42.011422" lon="-2.811037">
        <ele>1363.9</ele>
        <time>2021-03-27T15:18:32Z</time>
      </trkpt>
      <trkpt lat="42.011495" lon="-2.811199">
        <ele>1364.48</ele>
        <time>2021-03-27T15:18:36Z</time>
      </trkpt>
      <trkpt lat="42.011895" lon="-2.811911">
        <ele>1371.28</ele>
        <time>2021-03-27T15:18:40Z</time>
      </trkpt>
      <trkpt lat="42.01213" lon="-2.812448">
        <ele>1375.23</ele>
        <time>2021-03-27T15:18:44Z</time>
      </trkpt>
      <trkpt lat="42.012349" lon="-2.812721">
        <ele>1376.4</ele>
        <time>2021-03-27T15:18:49Z</time>
      </trkpt>
      <trkpt lat="42.012929" lon="-2.813275">
        <ele>1378.88</ele>
        <time>2021-03-27T15:18:53Z</time>
      </trkpt>
      <trkpt lat="42.013292" lon="-2.813686">
        <ele>1381.59</ele>
        <time>2021-03-27T15:18:57Z</time>
      </trkpt>
      <trkpt lat="42.013573" lon="-2.813973">
        <ele>1383.27</ele>
        <time>2021-03-27T15:19:01Z</time>
      </trkpt>
      <trkpt lat="42.013766" lon="-2.814119">
        <ele>1384.58</ele>
        <time>2021-03-27T15:19:06Z</time>
      </trkpt>
      <trkpt lat="42.013865" lon="-2.814152">
        <ele>1384.89</ele>
        <time>2021-03-27T15:19:10Z</time>
      </trkpt>
      <trkpt lat="42.014028" lon="-2.814166">
        <ele>1387.0</ele>
        <time>2021-03-27T15:19:14Z</time>
      </trkpt>
      <trkpt lat="42.01427" lon="-2.814128">
        <ele>1390.45</ele>
        <time>2021-03-27T15:19:18Z</time>
      </trkpt>
      <trkpt lat="42.014778" lon="-2.813945">
        <ele>1397.61</ele>
        <time>2021-03-27T15:19:22Z</time>
      </trkpt>
      <trkpt lat="42.015005" lon="-2.813905">
        <ele>1401.28</ele>
        <time>2021-03-27T15:19:27Z</time>
      </trkpt>
      <trkpt lat="42.015829" lon="-2.813812">
        <ele>1410.74</ele>
        <time>2021-03-27T15:19:31Z</time>
      </trkpt>
      <trkpt lat="42.015988" lon="-2.813838">
        <ele>1413.22</ele>
        <time>2021-03-27T15:19:35Z</time>
      </trkpt>
      <trkpt lat="42.016131" lon="-2.813894">
        <ele>1416.21</ele>
        <time>2021-03-27T15:19:39Z</time>
      </trkpt>
      <trkpt lat="42.016435" lon="-2.81406">
        <ele>1421.74</ele>
        <time>2021-03-27T15:19:43Z</time>
      </trkpt>
      <trkpt lat="42.016651" lon="-2.814186">
        <ele>1425.36</ele>
        <time>2021-03-27T15:19:48Z</time>
      </trkpt>
      <trkpt lat="42.016787" lon="-2.814297">
        <ele>1425.12</ele>
        <time>2021-03-27T15:19:52Z</time>
      </trkpt>
      <trkpt lat="42.017138" lon="-2.814631">
        <ele>1425.48</ele>
        <time>2021-03-27T15:19:56Z</time>
      </trkpt>
      <trkpt lat="42.017251" lon="-2.81479">
        <ele>1425.69</ele>
        <time>2021-03-27T15:20:00Z</time>
      </trkpt>
      <trkpt lat="42.01738" lon="-2.815015">
        <ele>1427.49</ele>
        <time>2021-03-27T15:20:04Z</time>
      </trkpt>
      <trkpt lat="42.017518" lon="-2.815337">
        <ele>1431.75</ele>
        <time>2021-03-27T15:20:09Z</time>
      </trkpt>
      <trkpt lat="42.017625" lon="-2.815679">
        <ele>1434.09</ele>
        <time>2021-03-27T15:20:13Z</time>
      </trkpt>
      <trkpt lat="42.017742" lon="-2.816138">
        <ele>1436.75</ele>
        <time>2021-03-27T15:20:17Z</time>
      </trkpt>
      <trkpt lat="42.017828" lon="-2.816559">
        <ele>1442.82</ele>
        <time>2021-03-27T15:20:21Z</time>
      </trkpt>
      <trkpt lat="42.017882" lon="-2.81702">
        <ele>1448.45</ele>
        <time>2021-03-27T15:20:25Z</time>
      </trkpt>
      <trkpt lat="42.017945" lon="-2.817982">
        <ele>1457.67</ele>
        <time>2021-03-27T15:20:30Z</time>
      </trkpt>
      <trkpt lat="42.017973" lon="-2.81849">
        <ele>1463.96</ele>
        <time>2021-03-27T15:20:34Z</time>
      </trkpt>
      <trkpt lat="42.017955" lon="-2.820222">
        <ele>1479.62</ele>
        <time>2021-03-27T15:20:38Z</time>
      </trkpt>
      <trkpt lat="42.01791" lon="-2.820611">
        <ele>1482.43</ele>
        <time>2021-03-27T15:20:42Z</time>
      </trkpt>
      <trkpt lat="42.017828" lon="-2.820897">
        <ele>1486.52</ele>
        <time>2021-03-27T15:20:47Z</time>
      </trkpt>
      <trkpt lat="42.017713" lon="-2.821103">
        <ele>1491.52</ele>
        <time>2021-03-27T15:20:51Z</time>
      </trkpt>
      <trkpt lat="42.017587" lon="-2.821202">
        <ele>1496.43</ele>
        <time>2021-03-27T15:20:55Z</time>
      </trkpt>
      <trkpt lat="42.01747" lon="-2.821218">
        <ele>1500.79</ele>
        <time>2021-03-27T15:20:59Z</time>
      </trkpt>
      <trkpt lat="42.017386" lon="-2.821174">
        <ele>1504.28</ele>
        <time>2021-03-27T15:21:03Z</time>
      </trkpt>
      <trkpt lat="42.017316" lon="-2.821104">
        <ele>1507.27</ele>
        <time>2021-03-27T15:21:08Z</time>
      </trkpt>
      <trkpt lat="42.017253" lon="-2.821003">
        <ele>1510.05</ele>
        <time>2021-03-27T15:21:12Z</time>
      </trkpt>
      <trkpt lat="42.017023" lon="-2.820036">
        <ele>1515.28</ele>
        <time>2021-03-27T15:21:16Z</time>
      </trkpt>
      <trkpt lat="42.016962" lon="-2.819854">
        <ele>1515.28</ele>
        <time>2021-03-27T15:21:20Z</time>
      </trkpt>
      <trkpt lat="42.016869" lon="-2.819689">
        <ele>1515.12</ele>
        <time>2021-03-27T15:21:24Z</time>
      </trkpt>
      <trkpt lat="42.016812" lon="-2.819623">
        <ele>1515.67</ele>
        <time>2021-03-27T15:21:29Z</time>
      </trkpt>
      <trkpt lat="42.016656" lon="-2.819567">
        <ele>1517.86</ele>
        <time>2021-03-27T15:21:33Z</time>
      </trkpt>
      <trkpt lat="42.016561" lon="-2.819577">
        <ele>1517.77</ele>
        <time>2021-03-27T15:21:37Z</time>
      </trkpt>
      <trkpt lat="42.016479" lon="-2.819612">
        <ele>1517.8</ele>
        <time>2021-03-27T15:21:41Z</time>
      </trkpt>
      <trkpt lat="42.016398" lon="-2.819676">
        <ele>1517.86</ele>
        <time>2021-03-27T15:21:45Z</time>
      </trkpt>
      <trkpt lat="42.016283" lon="-2.819812">
        <ele>1518.06</ele>
        <time>2021-03-27T15:21:50Z</time>
      </trkpt>
      <trkpt lat="42.016212" lon="-2.819938">
        <ele>1518.63</ele>
        <time>2021-03-27T15:21:54Z</time>
      </trkpt>
      <trkpt lat="42.016132" lon="-2.820177">
        <ele>1522.1</ele>
        <time>2021-03-27T15:21:58Z</time>
      </trkpt>
      <trkpt lat="42.016107" lon="-2.820306">
        <ele>1524.42</ele>
        <time>2021-03-27T15:22:02Z</time>
      </trkpt>
      <trkpt lat="42.015995" lon="-2.821382">
        <ele>1536.5</ele>
        <time>2021-03-27T15:22:06Z</time>
      </trkpt>
      <trkpt lat="42.015893" lon="-2.822009">
        <ele>1543.98</ele>
        <time>2021-03-27T15:22:11Z</time>
      </trkpt>
      <trkpt lat="42.015792" lon="-2.822372">
        <ele>1547.69</ele>
        <time>2021-03-27T15:22:15Z</time>
      </trkpt>
      <trkpt lat="42.015655" lon="-2.822702">
        <ele>1551.36</ele>
        <time>2021-03-27T15:22:19Z</time>
      </trkpt>
      <trkpt lat="42.015265" lon="-2.823497">
        <ele>1560.37</ele>
        <time>2021-03-27T15:22:23Z</time>
      </trkpt>
      <trkpt lat="42.015119" lon="-2.82369">
        <ele>1563.14</ele>
        <time>2021-03-27T15:22:28Z</time>
      </trkpt>
      <trkpt lat="42.01499" lon="-2.823778">
        <ele>1564.5</ele>
        <time>2021-03-27T15:22:32Z</time>
      </trkpt>
      <trkpt lat="42.014885" lon="-2.823812">
        <ele>1566.13</ele>
        <time>2021-03-27T15:22:36Z</time>
      </trkpt>
      <trkpt lat="42.014782" lon="-2.823818">
        <ele>1567.34</ele>
        <time>2021-03-27T15:22:40Z</time>
      </trkpt>
      <trkpt lat="42.014638" lon="-2.823796">
        <ele>1569.47</ele>
        <time>2021-03-27T15:22:44Z</time>
      </trkpt>
      <trkpt lat="42.014361" lon="-2.823667">
        <ele>1573.92</ele>
        <time>2021-03-27T15:22:49Z</time>
      </trkpt>
      <trkpt lat="42.014159" lon="-2.823509">
        <ele>1575.96</ele>
        <time>2021-03-27T15:22:53Z</time>
      </trkpt>
      <trkpt lat="42.013699" lon="-2.823072">
        <ele>1570.92</ele>
        <time>2021-03-27T15:22:57Z</time>
      </trkpt>
      <trkpt lat="42.013409" lon="-2.82286">
        <ele>1572.65</ele>
        <time>2021-03-27T15:23:01Z</time>
      </trkpt>
      <trkpt lat="42.01329" lon="-2.822807">
        <ele>1574.17</ele>
        <time>2021-03-27T15:23:05Z</time>
      </trkpt>
      <trkpt lat="42.012203" lon="-2.822574">
        <ele>1572.58</ele>
        <time>2021-03-27T15:23:10Z</time>
      </trkpt>
      <trkpt lat="42.012009" lon="-2.822489">
        <ele>1572.68</ele>
        <time>2021-03-27T15:23:14Z</time>
      </trkpt>
      <trkpt lat="42.011766" lon="-2.822337">
        <ele>1571.83</ele>
        <time>2021-03-27T15:23:18Z</time>
      </trkpt>
      <trkpt lat="42.011664" lon="-2.822302">
        <ele>1571.54</ele>
        <time>2021-03-27T15:23:22Z</time>
      </trkpt>
      <trkpt lat="42.011555" lon="-2.822283">
        <ele>1570.32</ele>
        <time>2021-03-27T15:23:26Z</time>
      </trkpt>
      <trkpt lat="42.01123" lon="-2.822293">
        <ele>1568.33</ele>
        <time>2021-03-27T15:23:31Z</time>
      </trkpt>
      <trkpt lat="42.010663" lon="-2.822259">
        <ele>1573.28</ele>
        <time>2021-03-27T15:23:35Z</time>
      </trkpt>
      <trkpt lat="42.010117" lon="-2.822052">
        <ele>1578.81</ele>
        <time>2021-03-27T15:23:39Z</time>
      </trkpt>
      <trkpt lat="42.009588" lon="-2.82179">
        <ele>1580.85</ele>
        <time>2021-03-27T15:23:43Z</time>
      </trkpt>
      <trkpt lat="42.009271" lon="-2.82167">
        <ele>1579.7</ele>
        <time>2021-03-27T15:23:48Z</time>
      </trkpt>
      <trkpt lat="42.008898" lon="-2.821613">
        <ele>1580.38</ele>
        <time>2021-03-27T15:23:52Z</time>
      </trkpt>
      <trkpt lat="42.008296" lon="-2.821584">
        <ele>1578.39</ele>
        <time>2021-03-27T15:23:56Z</time>
      </trkpt>
      <trkpt lat="42.008145" lon="-2.821598">
        <ele>1577.24</ele>
        <time>2021-03-27T15:24:00Z</time>
      </trkpt>
      <trkpt lat="42.007892" lon="-2.821716">
        <ele>1575.8</ele>
        <time>2021-03-27T15:24:04Z</time>
      </trkpt>
      <trkpt lat="42.007648" lon="-2.821787">
        <ele>1574.33</ele>
        <time>2021-03-27T15:24:09Z</time>
      </trkpt>
      <trkpt lat="42.007152" lon="-2.821901">
        <ele>1570.92</ele>
        <time>2021-03-27T15:24:13Z</time>
      </trkpt>
      <trkpt lat="42.00653" lon="-2.821986">
        <ele>1577.65</ele>
        <time>2021-03-27T15:24:17Z</time>
      </trkpt>
      <trkpt lat="42.006379" lon="-2.822022">
        <ele>1579.21</ele>
        <time>2021-03-27T15:24:21Z</time>
      </trkpt>
      <trkpt lat="42.00626" lon="-2.822065">
        <ele>1581.07</ele>
        <time>2021-03-27T15:24:25Z</time>
      </trkpt>
      <trkpt lat="42.006123" lon="-2.822157">
        <ele>1584.44</ele>
        <time>2021-03-27T15:24:30Z</time>
      </trkpt>
      <trkpt lat="42.006018" lon="-2.822256">
        <ele>1584.44</ele>
        <time>2021-03-27T15:24:34Z</time>
      </trkpt>
      <trkpt lat="42.005269" lon="-2.823157">
        <ele>1592.76</ele>
        <time>2021-03-27T15:24:38Z</time>
      </trkpt>
      <trkpt lat="42.003943" lon="-2.82468">
        <ele>1612.45</ele>
        <time>2021-03-27T15:24:42Z</time>
      </trkpt>
      <trkpt lat="42.003808" lon="-2.824784">
        <ele>1613.72</ele>
        <time>2021-03-27T15:24:46Z</time>
      </trkpt>
      <trkpt lat="42.00332" lon="-2.825009">
        <ele>1608.13</ele>
        <time>2021-03-27T15:24:51Z</time>
      </trkpt>
      <trkpt lat="42.003027" lon="-2.825258">
        <ele>1610.66</ele>
        <time>2021-03-27T15:24:55Z</time>
      </trkpt>
      <trkpt lat="42.002943" lon="-2.825275">
        <ele>1610.96</ele>
        <time>2021-03-27T15:24:59Z</time>
      </trkpt>
      <trkpt lat="42.00286" lon="-2.82523">
        <ele>1610.39</ele>
        <time>2021-03-27T15:25:03Z</time>
      </trkpt>
      <trkpt lat="42.002798" lon="-2.825114">
        <ele>1609.15</ele>
        <time>2021-03-27T15:25:07Z</time>
      </trkpt>
      <trkpt lat="42.002748" lon="-2.824973">
        <ele>1607.64</ele>
        <time>2021-03-27T15:25:12Z</time>
      </trkpt>
      <trkpt lat="42.002666" lon="-2.824881">
        <ele>1606.6</ele>
        <time>2021-03-27T15:25:16Z</time>
      </trkpt>
      <trkpt lat="42.002565" lon="-2.824871">
        <ele>1607.15</ele>
        <time>2021-03-27T15:25:20Z</time>
      </trkpt>
      <trkpt lat="42.00238" lon="-2.824939">
        <ele>1608.82</ele>
        <time>2021-03-27T15:25:24Z</time>
      </trkpt>
      <trkpt lat="42.001407" lon="-2.825481">
        <ele>1618.41</ele>
        <time>2021-03-27T15:25:29Z</time>
      </trkpt>
      <trkpt lat="42.000711" lon="-2.825825">
        <ele>1618.78</ele>
        <time>2021-03-27T15:25:33Z</time>
      </trkpt>
      <trkpt lat="42.000216" lon="-2.826152">
        <ele>1614.89</ele>
        <time>2021-03-27T15:25:37Z</time>
      </trkpt>
      <trkpt lat="41.999869" lon="-2.826284">
        <ele>1614.5</ele>
        <time>2021-03-27T15:25:41Z</time>
      </trkpt>
      <trkpt lat="41.999449" lon="-2.82656">
        <ele>1614.17</ele>
        <time>2021-03-27T15:25:45Z</time>
      </trkpt>
      <trkpt lat="41.999218" lon="-2.826685">
        <ele>1613.89</ele>
        <time>2021-03-27T15:25:50Z</time>
      </trkpt>
      <trkpt lat="41.998567" lon="-2.826959">
        <ele>1603.65</ele>
        <time>2021-03-27T15:25:54Z</time>
      </trkpt>
      <trkpt lat="41.998419" lon="-2.826978">
        <ele>1601.92</ele>
        <time>2021-03-27T15:25:58Z</time>
      </trkpt>
      <trkpt lat="41.998428" lon="-2.826905">
        <ele>1601.08</ele>
        <time>2021-03-27T15:26:02Z</time>
      </trkpt>
      <trkpt lat="41.998414" lon="-2.826791">
        <ele>1600.06</ele>
        <time>2021-03-27T15:26:06Z</time>
      </trkpt>
      <trkpt lat="41.998378" lon="-2.826669">
        <ele>1598.67</ele>
        <time>2021-03-27T15:26:11Z</time>
      </trkpt>
      <trkpt lat="41.998076" lon="-2.826167">
        <ele>1593.29</ele>
        <time>2021-03-27T15:26:15Z</time>
      </trkpt>
      <trkpt lat="41.998027" lon="-2.826038">
        <ele>1591.79</ele>
        <time>2021-03-27T15:26:19Z</time>
      </trkpt>
      <trkpt lat="41.998011" lon="-2.825931">
        <ele>1590.3</ele>
        <time>2021-03-27T15:26:23Z</time>
      </trkpt>
      <trkpt lat="41.998015" lon="-2.825844">
        <ele>1589.14</ele>
        <time>2021-03-27T15:26:27Z</time>
      </trkpt>
      <trkpt lat="41.998054" lon="-2.825727">
        <ele>1587.85</ele>
        <time>2021-03-27T15:26:32Z</time>
      </trkpt>
      <trkpt lat="41.998358" lon="-2.825318">
        <ele>1581.55</ele>
        <time>2021-03-27T15:26:36Z</time>
      </trkpt>
      <trkpt lat="41.998412" lon="-2.825235">
        <ele>1580.94</ele>
        <time>2021-03-27T15:26:40Z</time>
      </trkpt>
      <trkpt lat="41.998443" lon="-2.825144">
        <ele>1580.24</ele>
        <time>2021-03-27T15:26:44Z</time>
      </trkpt>
      <trkpt lat="41.998451" lon="-2.825082">
        <ele>1579.71</ele>
        <time>2021-03-27T15:26:48Z</time>
      </trkpt>
      <trkpt lat="41.998437" lon="-2.824957">
        <ele>1578.54</ele>
        <time>2021-03-27T15:26:53Z</time>
      </trkpt>
      <trkpt lat="41.998321" lon="-2.82437">
        <ele>1577.36</ele>
        <time>2021-03-27T15:26:57Z</time>
      </trkpt>
      <trkpt lat="41.998336" lon="-2.824293">
        <ele>1578.14</ele>
        <time>2021-03-27T15:27:01Z</time>
      </trkpt>
      <trkpt lat="41.998395" lon="-2.824198">
        <ele>1578.34</ele>
        <time>2021-03-27T15:27:05Z</time>
      </trkpt>
      <trkpt lat="42.000171" lon="-2.822394">
        <ele>1564.36</ele>
        <time>2021-03-27T15:27:10Z</time>
      </trkpt>
      <trkpt lat="42.00103" lon="-2.821039">
        <ele>1572.09</ele>
        <time>2021-03-27T15:27:14Z</time>
      </trkpt>
      <trkpt lat="42.001315" lon="-2.820438">
        <ele>1573.44</ele>
        <time>2021-03-27T15:27:18Z</time>
      </trkpt>
      <trkpt lat="42.001473" lon="-2.820162">
        <ele>1572.1</ele>
        <time>2021-03-27T15:27:22Z</time>
      </trkpt>
      <trkpt lat="42.001498" lon="-2.82007">
        <ele>1571.95</ele>
        <time>2021-03-27T15:27:26Z</time>
      </trkpt>
      <trkpt lat="42.001563" lon="-2.819756">
        <ele>1570.99</ele>
        <time>2021-03-27T15:27:29Z</time>
      </trkpt>
      <trkpt lat="42.001595" lon="-2.81927">
        <ele>1567.44</ele>
        <time>2021-03-27T15:27:31Z</time>
      </trkpt>
      <trkpt lat="42.001568" lon="-2.819141">
        <ele>1566.7</ele>
        <time>2021-03-27T15:27:33Z</time>
      </trkpt>
      <trkpt lat="42.001508" lon="-2.819031">
        <ele>1566.05</ele>
        <time>2021-03-27T15:27:36Z</time>
      </trkpt>
      <trkpt lat="42.001337" lon="-2.818807">
        <ele>1563.92</ele>
        <time>2021-03-27T15:27:38Z</time>
      </trkpt>
      <trkpt lat="42.001323" lon="-2.818701">
        <ele>1561.74</ele>
        <time>2021-03-27T15:27:40Z</time>
      </trkpt>
      <trkpt lat="42.001346" lon="-2.818608">
        <ele>1559.38</ele>
        <time>2021-03-27T15:27:43Z</time>
      </trkpt>
      <trkpt lat="42.001415" lon="-2.818547">
        <ele>1556.81</ele>
        <time>2021-03-27T15:27:45Z</time>
      </trkpt>
      <trkpt lat="42.001495" lon="-2.818545">
        <ele>1556.37</ele>
        <time>2021-03-27T15:27:48Z</time>
      </trkpt>
      <trkpt lat="42.001718" lon="-2.81866">
        <ele>1557.16</ele>
        <time>2021-03-27T15:27:50Z</time>
      </trkpt>
      <trkpt lat="42.001775" lon="-2.818665">
        <ele>1556.8</ele>
        <time>2021-03-27T15:27:52Z</time>
      </trkpt>
      <trkpt lat="42.001844" lon="-2.818612">
        <ele>1555.73</ele>
        <time>2021-03-27T15:27:55Z</time>
      </trkpt>
      <trkpt lat="42.001875" lon="-2.818511">
        <ele>1553.88</ele>
        <time>2021-03-27T15:27:57Z</time>
      </trkpt>
      <trkpt lat="42.001864" lon="-2.818419">
        <ele>1552.42</ele>
        <time>2021-03-27T15:27:59Z</time>
      </trkpt>
      <trkpt lat="42.001827" lon="-2.818356">
        <ele>1551.4</ele>
        <time>2021-03-27T15:28:02Z</time>
      </trkpt>
      <trkpt lat="42.001708" lon="-2.818267">
        <ele>1548.69</ele>
        <time>2021-03-27T15:28:04Z</time>
      </trkpt>
      <trkpt lat="42.001132" lon="-2.818094">
        <ele>1545.28</ele>
        <time>2021-03-27T15:28:06Z</time>
      </trkpt>
      <trkpt lat="42.001082" lon="-2.818047">
        <ele>1543.92</ele>
        <time>2021-03-27T15:28:09Z</time>
      </trkpt>
      <trkpt lat="42.001068" lon="-2.817969">
        <ele>1542.29</ele>
        <time>2021-03-27T15:28:11Z</time>
      </trkpt>
      <trkpt lat="42.001085" lon="-2.817867">
        <ele>1540.02</ele>
        <time>2021-03-27T15:28:13Z</time>
      </trkpt>
      <trkpt lat="42.001171" lon="-2.817788">
        <ele>1538.0</ele>
        <time>2021-03-27T15:28:16Z</time>
      </trkpt>
      <trkpt lat="42.00136" lon="-2.817769">
        <ele>1536.95</ele>
        <time>2021-03-27T15:28:18Z</time>
      </trkpt>
      <trkpt lat="42.002262" lon="-2.817824">
        <ele>1533.81</ele>
        <time>2021-03-27T15:28:20Z</time>
      </trkpt>
      <trkpt lat="42.002365" lon="-2.817786">
        <ele>1532.13</ele>
        <time>2021-03-27T15:28:23Z</time>
      </trkpt>
      <trkpt lat="42.002428" lon="-2.817639">
        <ele>1529.89</ele>
        <time>2021-03-27T15:28:25Z</time>
      </trkpt>
      <trkpt lat="42.002431" lon="-2.817548">
        <ele>1528.8</ele>
        <time>2021-03-27T15:28:27Z</time>
      </trkpt>
      <trkpt lat="42.002404" lon="-2.817469">
        <ele>1527.82</ele>
        <time>2021-03-27T15:28:30Z</time>
      </trkpt>
      <trkpt lat="42.002216" lon="-2.817179">
        <ele>1522.25</ele>
        <time>2021-03-27T15:28:32Z</time>
      </trkpt>
      <trkpt lat="42.002209" lon="-2.816988">
        <ele>1518.8</ele>
        <time>2021-03-27T15:28:34Z</time>
      </trkpt>
      <trkpt lat="42.002248" lon="-2.816923">
        <ele>1517.62</ele>
        <time>2021-03-27T15:28:37Z</time>
      </trkpt>
      <trkpt lat="42.002534" lon="-2.816767">
        <ele>1515.61</ele>
        <time>2021-03-27T15:28:39Z</time>
      </trkpt>
      <trkpt lat="42.002646" lon="-2.816749">
        <ele>1515.87</ele>
        <time>2021-03-27T15:28:41Z</time>
      </trkpt>
      <trkpt lat="42.002933" lon="-2.816854">
        <ele>1514.62</ele>
        <time>2021-03-27T15:28:44Z</time>
      </trkpt>
      <trkpt lat="42.003025" lon="-2.81686">
        <ele>1512.43</ele>
        <time>2021-03-27T15:28:46Z</time>
      </trkpt>
      <trkpt lat="42.003116" lon="-2.816824">
        <ele>1509.91</ele>
        <time>2021-03-27T15:28:48Z</time>
      </trkpt>
      <trkpt lat="42.003198" lon="-2.816751">
        <ele>1507.57</ele>
        <time>2021-03-27T15:28:51Z</time>
      </trkpt>
      <trkpt lat="42.003237" lon="-2.816614">
        <ele>1505.97</ele>
        <time>2021-03-27T15:28:53Z</time>
      </trkpt>
      <trkpt lat="42.003238" lon="-2.816437">
        <ele>1504.46</ele>
        <time>2021-03-27T15:28:55Z</time>
      </trkpt>
      <trkpt lat="42.003196" lon="-2.816296">
        <ele>1503.96</ele>
        <time>2021-03-27T15:28:58Z</time>
      </trkpt>
      <trkpt lat="42.003106" lon="-2.816187">
        <ele>1504.72</ele>
        <time>2021-03-27T15:29:00Z</time>
      </trkpt>
      <trkpt lat="42.00301" lon="-2.816141">
        <ele>1505.36</ele>
        <time>2021-03-27T15:29:02Z</time>
      </trkpt>
      <trkpt lat="42.002471" lon="-2.815969">
        <ele>1497.44</ele>
        <time>2021-03-27T15:29:05Z</time>
      </trkpt>
      <trkpt lat="42.002329" lon="-2.815967">
        <ele>1495.08</ele>
        <time>2021-03-27T15:29:07Z</time>
      </trkpt>
      <trkpt lat="42.001866" lon="-2.816063">
        <ele>1493.09</ele>
        <time>2021-03-27T15:29:09Z</time>
      </trkpt>
      <trkpt lat="42.001761" lon="-2.816065">
        <ele>1493.06</ele>
        <time>2021-03-27T15:29:12Z</time>
      </trkpt>
      <trkpt lat="42.00164" lon="-2.816039">
        <ele>1492.4</ele>
        <time>2021-03-27T15:29:14Z</time>
      </trkpt>
      <trkpt lat="42.001337" lon="-2.815906">
        <ele>1488.09</ele>
        <time>2021-03-27T15:29:16Z</time>
      </trkpt>
      <trkpt lat="42.000804" lon="-2.815762">
        <ele>1481.76</ele>
        <time>2021-03-27T15:29:19Z</time>
      </trkpt>
      <trkpt lat="42.000609" lon="-2.815753">
        <ele>1480.29</ele>
        <time>2021-03-27T15:29:21Z</time>
      </trkpt>
      <trkpt lat="42.000297" lon="-2.815797">
        <ele>1480.29</ele>
        <time>2021-03-27T15:29:23Z</time>
      </trkpt>
      <trkpt lat="42.000116" lon="-2.81577">
        <ele>1483.04</ele>
        <time>2021-03-27T15:29:26Z</time>
      </trkpt>
      <trkpt lat="41.99999" lon="-2.81567">
        <ele>1481.73</ele>
        <time>2021-03-27T15:29:28Z</time>
      </trkpt>
      <trkpt lat="41.999095" lon="-2.81478">
        <ele>1470.01</ele>
        <time>2021-03-27T15:29:30Z</time>
      </trkpt>
      <trkpt lat="41.998702" lon="-2.814491">
        <ele>1465.91</ele>
        <time>2021-03-27T15:29:33Z</time>
      </trkpt>
      <trkpt lat="41.998037" lon="-2.814059">
        <ele>1457.37</ele>
        <time>2021-03-27T15:29:35Z</time>
      </trkpt>
      <trkpt lat="41.997434" lon="-2.813461">
        <ele>1453.12</ele>
        <time>2021-03-27T15:29:37Z</time>
      </trkpt>
      <trkpt lat="41.997013" lon="-2.813252">
        <ele>1453.69</ele>
        <time>2021-03-27T15:29:40Z</time>
      </trkpt>
      <trkpt lat="41.99648" lon="-2.813066">
        <ele>1455.38</ele>
        <time>2021-03-27T15:29:42Z</time>
      </trkpt>
      <trkpt lat="41.996401" lon="-2.812977">
        <ele>1453.9</ele>
        <time>2021-03-27T15:29:44Z</time>
      </trkpt>
      <trkpt lat="41.996348" lon="-2.812842">
        <ele>1451.25</ele>
        <time>2021-03-27T15:29:47Z</time>
      </trkpt>
      <trkpt lat="41.996357" lon="-2.812719">
        <ele>1448.56</ele>
        <time>2021-03-27T15:29:49Z</time>
      </trkpt>
      <trkpt lat="41.996419" lon="-2.812582">
        <ele>1446.05</ele>
        <time>2021-03-27T15:29:51Z</time>
      </trkpt>
      <trkpt lat="41.995171" lon="-2.81244">
        <ele>1448.51</ele>
        <time>2021-03-27T15:30:13Z</time>
      </trkpt>
      <trkpt lat="41.994693" lon="-2.812311">
        <ele>1446.02</ele>
        <time>2021-03-27T15:30:35Z</time>
      </trkpt>
      <trkpt lat="41.993545" lon="-2.812697">
        <ele>1454.2</ele>
        <time>2021-03-27T15:30:56Z</time>
      </trkpt>
      <trkpt lat="41.992157" lon="-2.813319">
        <ele>1446.31</ele>
        <time>2021-03-27T15:31:18Z</time>
      </trkpt>
      <trkpt lat="41.991551" lon="-2.814028">
        <ele>1447.51</ele>
        <time>2021-03-27T15:31:39Z</time>
      </trkpt>
      <trkpt lat="41.991041" lon="-2.815079">
        <ele>1450.44</ele>
        <time>2021-03-27T15:32:01Z</time>
      </trkpt>
      <trkpt lat="41.9912" lon="-2.816066">
        <ele>1457.59</ele>
        <time>2021-03-27T15:32:22Z</time>
      </trkpt>
      <trkpt lat="41.991217" lon="-2.816559">
        <ele>1460.51</ele>
        <time>2021-03-27T15:32:44Z</time>
      </trkpt>
      <trkpt lat="41.99028" lon="-2.816914">
        <ele>1463.48</ele>
        <time>2021-03-27T15:33:06Z</time>
      </trkpt>
      <trkpt lat="41.990049" lon="-2.817183">
        <ele>1466.65</ele>
        <time>2021-03-27T15:33:27Z</time>
      </trkpt>
      <trkpt lat="41.989239" lon="-2.817452">
        <ele>1461.96</ele>
        <time>2021-03-27T15:33:49Z</time>
      </trkpt>
      <trkpt lat="41.988344" lon="-2.81782">
        <ele>1461.1</ele>
        <time>2021-03-27T15:34:10Z</time>
      </trkpt>
      <trkpt lat="41.987603" lon="-2.818811">
        <ele>1463.65</ele>
        <time>2021-03-27T15:34:32Z</time>
      </trkpt>
      <trkpt lat="41.987351" lon="-2.819688">
        <ele>1464.53</ele>
        <time>2021-03-27T15:34:54Z</time>
      </trkpt>
      <trkpt lat="41.98713" lon="-2.821331">
        <ele>1461.85</ele>
        <time>2021-03-27T15:35:15Z</time>
      </trkpt>
      <trkpt lat="41.987319" lon="-2.821897">
        <ele>1470.26</ele>
        <time>2021-03-27T15:35:37Z</time>
      </trkpt>
      <trkpt lat="41.98733" lon="-2.822265">
        <ele>1473.98</ele>
        <time>2021-03-27T15:35:58Z</time>
      </trkpt>
      <trkpt lat="41.987246" lon="-2.822874">
        <ele>1481.01</ele>
        <time>2021-03-27T15:36:20Z</time>
      </trkpt>
      <trkpt lat="41.987414" lon="-2.823228">
        <ele>1490.57</ele>
        <time>2021-03-27T15:36:42Z</time>
      </trkpt>
      <trkpt lat="41.987688" lon="-2.823652">
        <ele>1507.71</ele>
        <time>2021-03-27T15:37:03Z</time>
      </trkpt>
      <trkpt lat="41.987046" lon="-2.823525">
        <ele>1497.84</ele>
        <time>2021-03-27T15:37:25Z</time>
      </trkpt>
      <trkpt lat="41.98634" lon="-2.823214">
        <ele>1494.86</ele>
        <time>2021-03-27T15:37:46Z</time>
      </trkpt>
      <trkpt lat="41.98572" lon="-2.823298">
        <ele>1497.45</ele>
        <time>2021-03-27T15:38:08Z</time>
      </trkpt>
      <trkpt lat="41.985509" lon="-2.823624">
        <ele>1499.16</ele>
        <time>2021-03-27T15:38:30Z</time>
      </trkpt>
      <trkpt lat="41.985604" lon="-2.824077">
        <ele>1504.79</ele>
        <time>2021-03-27T15:38:51Z</time>
      </trkpt>
      <trkpt lat="41.985878" lon="-2.824785">
        <ele>1515.66</ele>
        <time>2021-03-27T15:39:13Z</time>
      </trkpt>
      <trkpt lat="41.98592" lon="-2.825195">
        <ele>1524.21</ele>
        <time>2021-03-27T15:39:34Z</time>
      </trkpt>
      <trkpt lat="41.98572" lon="-2.825507">
        <ele>1527.82</ele>
        <time>2021-03-27T15:39:56Z</time>
      </trkpt>
      <trkpt lat="41.985141" lon="-2.825691">
        <ele>1525.47</ele>
        <time>2021-03-27T15:40:18Z</time>
      </trkpt>
      <trkpt lat="41.984342" lon="-2.826923">
        <ele>1538.93</ele>
        <time>2021-03-27T15:40:39Z</time>
      </trkpt>
      <trkpt lat="41.984873" lon="-2.8285">
        <ele>1563.41</ele>
        <time>2021-03-27T15:41:01Z</time>
      </trkpt>
      <trkpt lat="41.98491" lon="-2.829067">
        <ele>1564.62</ele>
        <time>2021-03-27T15:41:22Z</time>
      </trkpt>
      <trkpt lat="41.984754" lon="-2.829954">
        <ele>1566.71</ele>
        <time>2021-03-27T15:41:44Z</time>
      </trkpt>
      <trkpt lat="41.984534" lon="-2.83025">
        <ele>1570.92</ele>
        <time>2021-03-27T15:42:06Z</time>
      </trkpt>
      <trkpt lat="41.98327" lon="-2.829782">
        <ele>1572.23</ele>
        <time>2021-03-27T15:42:27Z</time>
      </trkpt>
      <trkpt lat="41.98283" lon="-2.830448">
        <ele>1577.67</ele>
        <time>2021-03-27T15:42:49Z</time>
      </trkpt>
      <trkpt lat="41.982776" lon="-2.830941">
        <ele>1583.32</ele>
        <time>2021-03-27T15:43:10Z</time>
      </trkpt>
      <trkpt lat="41.982977" lon="-2.831113">
        <ele>1589.04</ele>
        <time>2021-03-27T15:43:32Z</time>
      </trkpt>
      <trkpt lat="41.983197" lon="-2.831027">
        <ele>1592.93</ele>
        <time>2021-03-27T15:43:54Z</time>
      </trkpt>
      <trkpt lat="41.983178" lon="-2.830423">
        <ele>1586.62</ele>
        <time>2021-03-27T15:44:15Z</time>
      </trkpt>
      <trkpt lat="41.983325" lon="-2.830226">
        <ele>1585.52</ele>
        <time>2021-03-27T15:44:37Z</time>
      </trkpt>
      <trkpt lat="41.983508" lon="-2.830361">
        <ele>1588.64</ele>
        <time>2021-03-27T15:44:58Z</time>
      </trkpt>
      <trkpt lat="41.983499" lon="-2.830792">
        <ele>1593.22</ele>
        <time>2021-03-27T15:45:20Z</time>
      </trkpt>
      <trkpt lat="41.983398" lon="-2.831495">
        <ele>1603.03</ele>
        <time>2021-03-27T15:45:42Z</time>
      </trkpt>
      <trkpt lat="41.983032" lon="-2.832456">
        <ele>1608.41</ele>
        <time>2021-03-27T15:46:03Z</time>
      </trkpt>
      <trkpt lat="41.98295" lon="-2.832986">
        <ele>1611.92</ele>
        <time>2021-03-27T15:46:25Z</time>
      </trkpt>
      <trkpt lat="41.982391" lon="-2.833602">
        <ele>1612.91</ele>
        <time>2021-03-27T15:46:46Z</time>
      </trkpt>
      <trkpt lat="41.981795" lon="-2.834182">
        <ele>1612.96</ele>
        <time>2021-03-27T15:47:08Z</time>
      </trkpt>
      <trkpt lat="41.981273" lon="-2.835195">
        <ele>1614.72</ele>
        <time>2021-03-27T15:47:29Z</time>
      </trkpt>
      <trkpt lat="41.981168" lon="-2.83528">
        <ele>1614.86</ele>
        <time>2021-03-27T15:47:51Z</time>
      </trkpt>
      <trkpt lat="41.981026" lon="-2.835223">
        <ele>1614.1</ele>
        <time>2021-03-27T15:48:13Z</time>
      </trkpt>
      <trkpt lat="41.980962" lon="-2.835069">
        <ele>1612.04</ele>
        <time>2021-03-27T15:48:34Z</time>
      </trkpt>
      <trkpt lat="41.980636" lon="-2.834106">
        <ele>1607.97</ele>
        <time>2021-03-27T15:48:56Z</time>
      </trkpt>
      <trkpt lat="41.980257" lon="-2.833568">
        <ele>1611.1</ele>
        <time>2021-03-27T15:49:17Z</time>
      </trkpt>
      <trkpt lat="41.97972" lon="-2.832549">
        <ele>1621.26</ele>
        <time>2021-03-27T15:49:39Z</time>
      </trkpt>
      <trkpt lat="41.979436" lon="-2.832365">
        <ele>1628.81</ele>
        <time>2021-03-27T15:50:01Z</time>
      </trkpt>
      <trkpt lat="41.979309" lon="-2.832096">
        <ele>1628.3</ele>
        <time>2021-03-27T15:50:22Z</time>
      </trkpt>
      <trkpt lat="41.979257" lon="-2.830977">
        <ele>1628.65</ele>
        <time>2021-03-27T15:50:44Z</time>
      </trkpt>
      <trkpt lat="41.979047" lon="-2.830751">
        <ele>1634.52</ele>
        <time>2021-03-27T15:51:05Z</time>
      </trkpt>
      <trkpt lat="41.978973" lon="-2.830411">
        <ele>1639.19</ele>
        <time>2021-03-27T15:51:27Z</time>
      </trkpt>
      <trkpt lat="41.979204" lon="-2.829986">
        <ele>1637.46</ele>
        <time>2021-03-27T15:51:49Z</time>
      </trkpt>
      <trkpt lat="41.978962" lon="-2.82816">
        <ele>1654.29</ele>
        <time>2021-03-27T15:52:10Z</time>
      </trkpt>
      <trkpt lat="41.97851" lon="-2.827098">
        <ele>1662.88</ele>
        <time>2021-03-27T15:52:32Z</time>
      </trkpt>
      <trkpt lat="41.977415" lon="-2.824862">
        <ele>1676.72</ele>
        <time>2021-03-27T15:52:53Z</time>
      </trkpt>
      <trkpt lat="41.976878" lon="-2.823899">
        <ele>1689.0</ele>
        <time>2021-03-27T15:53:15Z</time>
      </trkpt>
      <trkpt lat="41.975984" lon="-2.823573">
        <ele>1694.86</ele>
        <time>2021-03-27T15:53:37Z</time>
      </trkpt>
      <trkpt lat="41.975784" lon="-2.823715">
        <ele>1694.58</ele>
        <time>2021-03-27T15:53:58Z</time>
      </trkpt>
      <trkpt lat="41.97551" lon="-2.824536">
        <ele>1697.67</ele>
        <time>2021-03-27T15:54:20Z</time>
      </trkpt>
      <trkpt lat="41.975026" lon="-2.82523">
        <ele>1695.4</ele>
        <time>2021-03-27T15:54:41Z</time>
      </trkpt>
      <trkpt lat="41.974805" lon="-2.827452">
        <ele>1712.79</ele>
        <time>2021-03-27T15:55:03Z</time>
      </trkpt>
      <trkpt lat="41.9751" lon="-2.828273">
        <ele>1721.15</ele>
        <time>2021-03-27T15:55:25Z</time>
      </trkpt>
      <trkpt lat="41.975079" lon="-2.830595">
        <ele>1727.48</ele>
        <time>2021-03-27T15:55:46Z</time>
      </trkpt>
      <trkpt lat="41.974921" lon="-2.830892">
        <ele>1729.2</ele>
        <time>2021-03-27T15:56:08Z</time>
      </trkpt>
      <trkpt lat="41.974637" lon="-2.831006">
        <ele>1731.09</ele>
        <time>2021-03-27T15:56:29Z</time>
      </trkpt>
      <trkpt lat="41.974237" lon="-2.830624">
        <ele>1733.46</ele>
        <time>2021-03-27T15:56:51Z</time>
      </trkpt>
      <trkpt lat="41.973058" lon="-2.829052">
        <ele>1735.85</ele>
        <time>2021-03-27T15:57:13Z</time>
      </trkpt>
      <trkpt lat="41.972069" lon="-2.827283">
        <ele>1749.28</ele>
        <time>2021-03-27T15:57:34Z</time>
      </trkpt>
      <trkpt lat="41.97189" lon="-2.826575">
        <ele>1748.83</ele>
        <time>2021-03-27T15:57:56Z</time>
      </trkpt>
      <trkpt lat="41.971469" lon="-2.825046">
        <ele>1756.7</ele>
        <time>2021-03-27T15:58:17Z</time>
      </trkpt>
      <trkpt lat="41.971185" lon="-2.825018">
        <ele>1763.5</ele>
        <time>2021-03-27T15:58:39Z</time>
      </trkpt>
      <trkpt lat="41.970753" lon="-2.826377">
        <ele>1772.35</ele>
        <time>2021-03-27T15:59:01Z</time>
      </trkpt>
      <trkpt lat="41.970279" lon="-2.827141">
        <ele>1779.98</ele>
        <time>2021-03-27T15:59:22Z</time>
      </trkpt>
      <trkpt lat="41.969658" lon="-2.827934">
        <ele>1788.24</ele>
        <time>2021-03-27T15:59:44Z</time>
      </trkpt>
      <trkpt lat="41.969219" lon="-2.828123">
        <ele>1793.72</ele>
        <time>2021-03-27T16:00:05Z</time>
      </trkpt>
      <trkpt lat="41.968206" lon="-2.827923">
        <ele>1798.46</ele>
        <time>2021-03-27T16:00:27Z</time>
      </trkpt>
      <trkpt lat="41.968663" lon="-2.828491">
        <ele>1802.44</ele>
        <time>2021-03-27T16:01:16Z</time>
      </trkpt>
      <trkpt lat="41.968689" lon="-2.828625">
        <ele>1804.39</ele>
        <time>2021-03-27T16:02:05Z</time>
      </trkpt>
      <trkpt lat="41.968589" lon="-2.828707">
        <ele>1806.76</ele>
        <time>2021-03-27T16:02:53Z</time>
      </trkpt>
      <trkpt lat="41.968293" lon="-2.828643">
        <ele>1805.43</ele>
        <time>2021-03-27T16:03:42Z</time>
      </trkpt>
      <trkpt lat="41.967523" lon="-2.828912">
        <ele>1811.34</ele>
        <time>2021-03-27T16:04:31Z</time>
      </trkpt>
      <trkpt lat="41.967023" lon="-2.82924">
        <ele>1814.88</ele>
        <time>2021-03-27T16:05:20Z</time>
      </trkpt>
      <trkpt lat="41.96677" lon="-2.829632">
        <ele>1814.54</ele>
        <time>2021-03-27T16:06:09Z</time>
      </trkpt>
      <trkpt lat="41.966444" lon="-2.831077">
        <ele>1811.97</ele>
        <time>2021-03-27T16:06:58Z</time>
      </trkpt>
      <trkpt lat="41.966588" lon="-2.831428">
        <ele>1815.86</ele>
        <time>2021-03-27T16:07:47Z</time>
      </trkpt>
      <trkpt lat="41.968067" lon="-2.833352">
        <ele>1829.91</ele>
        <time>2021-03-27T16:08:35Z</time>
      </trkpt>
      <trkpt lat="41.968893" lon="-2.834569">
        <ele>1829.91</ele>
        <time>2021-03-27T16:09:24Z</time>
      </trkpt>
      <trkpt lat="41.968945" lon="-2.834838">
        <ele>1831.42</ele>
        <time>2021-03-27T16:10:13Z</time>
      </trkpt>
      <trkpt lat="41.968924" lon="-2.835026">
        <ele>1832.08</ele>
        <time>2021-03-27T16:11:02Z</time>
      </trkpt>
      <trkpt lat="41.968811" lon="-2.835418">
        <ele>1833.36</ele>
        <time>2021-03-27T16:11:51Z</time>
      </trkpt>
      <trkpt lat="41.968389" lon="-2.837705">
        <ele>1849.42</ele>
        <time>2021-03-27T16:12:40Z</time>
      </trkpt>
      <trkpt lat="41.968454" lon="-2.837816">
        <ele>1850.71</ele>
        <time>2021-03-27T16:13:29Z</time>
      </trkpt>
      <trkpt lat="41.968933" lon="-2.838088">
        <ele>1855.34</ele>
        <time>2021-03-27T16:14:17Z</time>
      </trkpt>
      <trkpt lat="41.969333" lon="-2.838497">
        <ele>1862.36</ele>
        <time>2021-03-27T16:15:06Z</time>
      </trkpt>
      <trkpt lat="41.972734" lon="-2.843518">
        <ele>1902.24</ele>
        <time>2021-03-27T16:15:55Z</time>
      </trkpt>
      <trkpt lat="41.973508" lon="-2.84508">
        <ele>1907.26</ele>
        <time>2021-03-27T16:16:44Z</time>
      </trkpt>
      <trkpt lat="41.973704" lon="-2.846086">
        <ele>1915.88</ele>
        <time>2021-03-27T16:17:33Z</time>
      </trkpt>
      <trkpt lat="41.975193" lon="-2.854724">
        <ele>1923.39</ele>
        <time>2021-03-27T16:18:22Z</time>
      </trkpt>
      <trkpt lat="41.975313" lon="-2.855271">
        <ele>1923.15</ele>
        <time>2021-03-27T16:19:10Z</time>
      </trkpt>
      <trkpt lat="41.975408" lon="-2.855373">
        <ele>1923.13</ele>
        <time>2021-03-27T16:19:51Z</time>
      </trkpt>
      <trkpt lat="41.97609" lon="-2.855711">
        <ele>1925.22</ele>
        <time>2021-03-27T16:20:31Z</time>
      </trkpt>
      <trkpt lat="41.97804" lon="-2.856188">
        <ele>1923.96</ele>
        <time>2021-03-27T16:21:11Z</time>
      </trkpt>
      <trkpt lat="41.978954" lon="-2.856477">
        <ele>1928.63</ele>
        <time>2021-03-27T16:21:51Z</time>
      </trkpt>
      <trkpt lat="41.979484" lon="-2.856671">
        <ele>1932.29</ele>
        <time>2021-03-27T16:22:32Z</time>
      </trkpt>
      <trkpt lat="41.980163" lon="-2.856971">
        <ele>1938.76</ele>
        <time>2021-03-27T16:23:12Z</time>
      </trkpt>
      <trkpt lat="41.981076" lon="-2.857394">
        <ele>1948.24</ele>
        <time>2021-03-27T16:23:52Z</time>
      </trkpt>
      <trkpt lat="41.982264" lon="-2.858">
        <ele>1957.09</ele>
        <time>2021-03-27T16:24:32Z</time>
      </trkpt>
      <trkpt lat="41.98297" lon="-2.858414">
        <ele>1968.57</ele>
        <time>2021-03-27T16:25:13Z</time>
      </trkpt>
      <trkpt lat="41.984293" lon="-2.859342">
        <ele>1985.13</ele>
        <time>2021-03-27T16:25:53Z</time>
      </trkpt>
      <trkpt lat="41.984465" lon="-2.85932">
        <ele>1985.93</ele>
        <time>2021-03-27T16:26:33Z</time>
      </trkpt>
      <trkpt lat="41.985016" lon="-2.859234">
        <ele>1988.29</ele>
        <time>2021-03-27T16:27:13Z</time>
      </trkpt>
      <trkpt lat="41.985255" lon="-2.859063">
        <ele>1985.58</ele>
        <time>2021-03-27T16:27:54Z</time>
      </trkpt>
      <trkpt lat="41.986204" lon="-2.858956">
        <ele>1979.5</ele>
        <time>2021-03-27T16:28:34Z</time>
      </trkpt>
      <trkpt lat="41.986889" lon="-2.858806">
        <ele>1980.05</ele>
        <time>2021-03-27T16:29:14Z</time>
      </trkpt>
      <trkpt lat="41.987328" lon="-2.858655">
        <ele>1977.31</ele>
        <time>2021-03-27T16:29:54Z</time>
      </trkpt>
      <trkpt lat="41.987408" lon="-2.858419">
        <ele>1974.03</ele>
        <time>2021-03-27T16:30:35Z</time>
      </trkpt>
      <trkpt lat="41.987368" lon="-2.85799">
        <ele>1969.58</ele>
        <time>2021-03-27T16:31:15Z</time>
      </trkpt>
      <trkpt lat="41.987225" lon="-2.857185">
        <ele>1968.27</ele>
        <time>2021-03-27T16:31:55Z</time>
      </trkpt>
      <trkpt lat="41.98728" lon="-2.857046">
        <ele>1969.34</ele>
        <time>2021-03-27T16:32:35Z</time>
      </trkpt>
      <trkpt lat="41.987416" lon="-2.85696">
        <ele>1969.92</ele>
        <time>2021-03-27T16:33:16Z</time>
      </trkpt>
      <trkpt lat="41.98795" lon="-2.857003">
        <ele>1974.31</ele>
        <time>2021-03-27T16:33:56Z</time>
      </trkpt>
      <trkpt lat="41.988396" lon="-2.856821">
        <ele>1978.92</ele>
        <time>2021-03-27T16:34:36Z</time>
      </trkpt>
      <trkpt lat="41.988628" lon="-2.856627">
        <ele>1979.95</ele>
        <time>2021-03-27T16:35:16Z</time>
      </trkpt>
      <trkpt lat="41.988772" lon="-2.856284">
        <ele>1979.18</ele>
        <time>2021-03-27T16:35:57Z</time>
      </trkpt>
      <trkpt lat="41.988939" lon="-2.855619">
        <ele>1980.18</ele>
        <time>2021-03-27T16:36:37Z</time>
      </trkpt>
      <trkpt lat="41.988883" lon="-2.853602">
        <ele>1978.69</ele>
        <time>2021-03-27T16:37:17Z</time>
      </trkpt>
      <trkpt lat="41.988901" lon="-2.853471">
        <ele>1977.81</ele>
        <time>2021-03-27T16:37:57Z</time>
      </trkpt>
      <trkpt lat="41.988955" lon="-2.853333">
        <ele>1977.91</ele>
        <time>2021-03-27T16:38:38Z</time>
      </trkpt>
      <trkpt lat="41.989186" lon="-2.85313">
        <ele>1981.52</ele>
        <time>2021-03-27T16:39:18Z</time>
      </trkpt>
      <trkpt lat="41.989577" lon="-2.852872">
        <ele>1984.3</ele>
        <time>2021-03-27T16:39:58Z</time>
      </trkpt>
      <trkpt lat="41.990056" lon="-2.852786">
        <ele>1987.2</ele>
        <time>2021-03-27T16:40:38Z</time>
      </trkpt>
      <trkpt lat="41.991028" lon="-2.852969">
        <ele>1996.38</ele>
        <time>2021-03-27T16:41:19Z</time>
      </trkpt>
      <trkpt lat="41.991323" lon="-2.852947">
        <ele>1993.61</ele>
        <time>2021-03-27T16:41:59Z</time>
      </trkpt>
      <trkpt lat="41.992743" lon="-2.852647">
        <ele>1998.4</ele>
        <time>2021-03-27T16:42:39Z</time>
      </trkpt>
      <trkpt lat="41.992846" lon="-2.852132">
        <ele>1993.86</ele>
        <time>2021-03-27T16:42:52Z</time>
      </trkpt>
      <trkpt lat="41.993093" lon="-2.851489">
        <ele>1991.41</ele>
        <time>2021-03-27T16:43:05Z</time>
      </trkpt>
      <trkpt lat="41.993213" lon="-2.851059">
        <ele>1987.73</ele>
        <time>2021-03-27T16:43:18Z</time>
      </trkpt>
      <trkpt lat="41.993213" lon="-2.851059">
        <ele>1987.73</ele>
        <time>2021-03-27T16:43:18Z</time>
      </trkpt>
      <trkpt lat="41.993093" lon="-2.851489">
        <ele>1991.41</ele>
        <time>2021-03-27T16:43:32Z</time>
      </trkpt>
      <trkpt lat="41.992846" lon="-2.852132">
        <ele>1993.86</ele>
        <time>2021-03-27T16:43:45Z</time>
      </trkpt>
      <trkpt lat="41.992743" lon="-2.852647">
        <ele>1998.4</ele>
        <time>2021-03-27T16:43:58Z</time>
      </trkpt>
      <trkpt lat="41.991323" lon="-2.852947">
        <ele>1993.61</ele>
        <time>2021-03-27T16:44:38Z</time>
      </trkpt>
      <trkpt lat="41.991028" lon="-2.852969">
        <ele>1996.38</ele>
        <time>2021-03-27T16:45:18Z</time>
      </trkpt>
      <trkpt lat="41.990056" lon="-2.852786">
        <ele>1987.2</ele>
        <time>2021-03-27T16:45:58Z</time>
      </trkpt>
      <trkpt lat="41.989577" lon="-2.852872">
        <ele>1984.3</ele>
        <time>2021-03-27T16:46:39Z</time>
      </trkpt>
      <trkpt lat="41.989186" lon="-2.85313">
        <ele>1981.52</ele>
        <time>2021-03-27T16:47:19Z</time>
      </trkpt>
      <trkpt lat="41.988955" lon="-2.853333">
        <ele>1977.91</ele>
        <time>2021-03-27T16:47:59Z</time>
      </trkpt>
      <trkpt lat="41.988901" lon="-2.853471">
        <ele>1977.81</ele>
        <time>2021-03-27T16:48:39Z</time>
      </trkpt>
      <trkpt lat="41.988883" lon="-2.853602">
        <ele>1978.69</ele>
        <time>2021-03-27T16:49:20Z</time>
      </trkpt>
      <trkpt lat="41.988939" lon="-2.855619">
        <ele>1980.18</ele>
        <time>2021-03-27T16:50:00Z</time>
      </trkpt>
      <trkpt lat="41.988772" lon="-2.856284">
        <ele>1979.18</ele>
        <time>2021-03-27T16:50:40Z</time>
      </trkpt>
      <trkpt lat="41.988628" lon="-2.856627">
        <ele>1979.95</ele>
        <time>2021-03-27T16:51:20Z</time>
      </trkpt>
      <trkpt lat="41.988396" lon="-2.856821">
        <ele>1978.92</ele>
        <time>2021-03-27T16:52:01Z</time>
      </trkpt>
      <trkpt lat="41.98795" lon="-2.857003">
        <ele>1974.31</ele>
        <time>2021-03-27T16:52:41Z</time>
      </trkpt>
      <trkpt lat="41.987416" lon="-2.85696">
        <ele>1969.92</ele>
        <time>2021-03-27T16:53:21Z</time>
      </trkpt>
      <trkpt lat="41.98728" lon="-2.857046">
        <ele>1969.34</ele>
        <time>2021-03-27T16:54:01Z</time>
      </trkpt>
      <trkpt lat="41.987225" lon="-2.857185">
        <ele>1968.27</ele>
        <time>2021-03-27T16:54:42Z</time>
      </trkpt>
      <trkpt lat="41.987368" lon="-2.85799">
        <ele>1969.58</ele>
        <time>2021-03-27T16:55:22Z</time>
      </trkpt>
      <trkpt lat="41.987408" lon="-2.858419">
        <ele>1974.03</ele>
        <time>2021-03-27T16:56:02Z</time>
      </trkpt>
      <trkpt lat="41.987328" lon="-2.858655">
        <ele>1977.31</ele>
        <time>2021-03-27T16:56:42Z</time>
      </trkpt>
      <trkpt lat="41.986889" lon="-2.858806">
        <ele>1980.05</ele>
        <time>2021-03-27T16:57:23Z</time>
      </trkpt>
      <trkpt lat="41.986204" lon="-2.858956">
        <ele>1979.5</ele>
        <time>2021-03-27T16:58:03Z</time>
      </trkpt>
      <trkpt lat="41.985255" lon="-2.859063">
        <ele>1985.58</ele>
        <time>2021-03-27T16:58:43Z</time>
      </trkpt>
      <trkpt lat="41.985016" lon="-2.859234">
        <ele>1988.29</ele>
        <time>2021-03-27T16:59:23Z</time>
      </trkpt>
      <trkpt lat="41.984465" lon="-2.85932">
        <ele>1985.93</ele>
        <time>2021-03-27T17:00:04Z</time>
      </trkpt>
      <trkpt lat="41.984293" lon="-2.859342">
        <ele>1985.13</ele>
        <time>2021-03-27T17:00:44Z</time>
      </trkpt>
      <trkpt lat="41.98297" lon="-2.858414">
        <ele>1968.57</ele>
        <time>2021-03-27T17:01:24Z</time>
      </trkpt>
      <trkpt lat="41.982264" lon="-2.858">
        <ele>1957.09</ele>
        <time>2021-03-27T17:02:04Z</time>
      </trkpt>
      <trkpt lat="41.981076" lon="-2.857394">
        <ele>1948.24</ele>
        <time>2021-03-27T17:02:45Z</time>
      </trkpt>
      <trkpt lat="41.980163" lon="-2.856971">
        <ele>1938.76</ele>
        <time>2021-03-27T17:03:25Z</time>
      </trkpt>
      <trkpt lat="41.979484" lon="-2.856671">
        <ele>1932.29</ele>
        <time>2021-03-27T17:04:05Z</time>
      </trkpt>
      <trkpt lat="41.978954" lon="-2.856477">
        <ele>1928.63</ele>
        <time>2021-03-27T17:04:45Z</time>
      </trkpt>
      <trkpt lat="41.97804" lon="-2.856188">
        <ele>1923.96</ele>
        <time>2021-03-27T17:05:26Z</time>
      </trkpt>
      <trkpt lat="41.97609" lon="-2.855711">
        <ele>1925.22</ele>
        <time>2021-03-27T17:06:06Z</time>
      </trkpt>
      <trkpt lat="41.975408" lon="-2.855373">
        <ele>1923.13</ele>
        <time>2021-03-27T17:06:46Z</time>
      </trkpt>
      <trkpt lat="41.975313" lon="-2.855271">
        <ele>1923.15</ele>
        <time>2021-03-27T17:07:26Z</time>
      </trkpt>
      <trkpt lat="41.975193" lon="-2.854724">
        <ele>1923.39</ele>
        <time>2021-03-27T17:08:15Z</time>
      </trkpt>
      <trkpt lat="41.973704" lon="-2.846086">
        <ele>1915.88</ele>
        <time>2021-03-27T17:09:04Z</time>
      </trkpt>
      <trkpt lat="41.973508" lon="-2.84508">
        <ele>1907.26</ele>
        <time>2021-03-27T17:09:53Z</time>
      </trkpt>
      <trkpt lat="41.972734" lon="-2.843518">
        <ele>1902.24</ele>
        <time>2021-03-27T17:10:42Z</time>
      </trkpt>
      <trkpt lat="41.969333" lon="-2.838497">
        <ele>1862.36</ele>
        <time>2021-03-27T17:11:31Z</time>
      </trkpt>
      <trkpt lat="41.968933" lon="-2.838088">
        <ele>1855.34</ele>
        <time>2021-03-27T17:12:19Z</time>
      </trkpt>
      <trkpt lat="41.968454" lon="-2.837816">
        <ele>1850.71</ele>
        <time>2021-03-27T17:13:08Z</time>
      </trkpt>
      <trkpt lat="41.968389" lon="-2.837705">
        <ele>1849.42</ele>
        <time>2021-03-27T17:13:57Z</time>
      </trkpt>
      <trkpt lat="41.968811" lon="-2.835418">
        <ele>1833.36</ele>
        <time>2021-03-27T17:14:46Z</time>
      </trkpt>
      <trkpt lat="41.968924" lon="-2.835026">
        <ele>1832.08</ele>
        <time>2021-03-27T17:15:35Z</time>
      </trkpt>
      <trkpt lat="41.968945" lon="-2.834838">
        <ele>1831.42</ele>
        <time>2021-03-27T17:16:24Z</time>
      </trkpt>
      <trkpt lat="41.968893" lon="-2.834569">
        <ele>1829.91</ele>
        <time>2021-03-27T17:17:13Z</time>
      </trkpt>
      <trkpt lat="41.968067" lon="-2.833352">
        <ele>1829.91</ele>
        <time>2021-03-27T17:18:01Z</time>
      </trkpt>
      <trkpt lat="41.966588" lon="-2.831428">
        <ele>1815.86</ele>
        <time>2021-03-27T17:18:50Z</time>
      </trkpt>
      <trkpt lat="41.966444" lon="-2.831077">
        <ele>1811.97</ele>
        <time>2021-03-27T17:19:39Z</time>
      </trkpt>
      <trkpt lat="41.96677" lon="-2.829632">
        <ele>1814.54</ele>
        <time>2021-03-27T17:20:28Z</time>
      </trkpt>
      <trkpt lat="41.967023" lon="-2.82924">
        <ele>1814.88</ele>
        <time>2021-03-27T17:21:17Z</time>
      </trkpt>
      <trkpt lat="41.967523" lon="-2.828912">
        <ele>1811.34</ele>
        <time>2021-03-27T17:22:06Z</time>
      </trkpt>
      <trkpt lat="41.968293" lon="-2.828643">
        <ele>1805.43</ele>
        <time>2021-03-27T17:22:55Z</time>
      </trkpt>
      <trkpt lat="41.968589" lon="-2.828707">
        <ele>1806.76</ele>
        <time>2021-03-27T17:23:43Z</time>
      </trkpt>
      <trkpt lat="41.968689" lon="-2.828625">
        <ele>1804.39</ele>
        <time>2021-03-27T17:24:32Z</time>
      </trkpt>
      <trkpt lat="41.968663" lon="-2.828491">
        <ele>1802.44</ele>
        <time>2021-03-27T17:25:21Z</time>
      </trkpt>
      <trkpt lat="41.968206" lon="-2.827923">
        <ele>1798.46</ele>
        <time>2021-03-27T17:26:10Z</time>
      </trkpt>
      <trkpt lat="41.969219" lon="-2.828123">
        <ele>1793.72</ele>
        <time>2021-03-27T17:26:23Z</time>
      </trkpt>
      <trkpt lat="41.969658" lon="-2.827934">
        <ele>1788.24</ele>
        <time>2021-03-27T17:26:37Z</time>
      </trkpt>
      <trkpt lat="41.970279" lon="-2.827141">
        <ele>1779.98</ele>
        <time>2021-03-27T17:26:50Z</time>
      </trkpt>
      <trkpt lat="41.970753" lon="-2.826377">
        <ele>1772.35</ele>
        <time>2021-03-27T17:27:04Z</time>
      </trkpt>
      <trkpt lat="41.971185" lon="-2.825018">
        <ele>1763.5</ele>
        <time>2021-03-27T17:27:17Z</time>
      </trkpt>
      <trkpt lat="41.971469" lon="-2.825046">
        <ele>1756.7</ele>
        <time>2021-03-27T17:27:31Z</time>
      </trkpt>
      <trkpt lat="41.97189" lon="-2.826575">
        <ele>1748.83</ele>
        <time>2021-03-27T17:27:44Z</time>
      </trkpt>
      <trkpt lat="41.972069" lon="-2.827283">
        <ele>1749.28</ele>
        <time>2021-03-27T17:27:57Z</time>
      </trkpt>
      <trkpt lat="41.973058" lon="-2.829052">
        <ele>1735.85</ele>
        <time>2021-03-27T17:28:11Z</time>
      </trkpt>
      <trkpt lat="41.974237" lon="-2.830624">
        <ele>1733.46</ele>
        <time>2021-03-27T17:28:24Z</time>
      </trkpt>
      <trkpt lat="41.974637" lon="-2.831006">
        <ele>1731.09</ele>
        <time>2021-03-27T17:28:38Z</time>
      </trkpt>
      <trkpt lat="41.974921" lon="-2.830892">
        <ele>1729.2</ele>
        <time>2021-03-27T17:28:51Z</time>
      </trkpt>
      <trkpt lat="41.975079" lon="-2.830595">
        <ele>1727.48</ele>
        <time>2021-03-27T17:29:05Z</time>
      </trkpt>
      <trkpt lat="41.9751" lon="-2.828273">
        <ele>1721.15</ele>
        <time>2021-03-27T17:29:18Z</time>
      </trkpt>
      <trkpt lat="41.974805" lon="-2.827452">
        <ele>1712.79</ele>
        <time>2021-03-27T17:29:32Z</time>
      </trkpt>
      <trkpt lat="41.975026" lon="-2.82523">
        <ele>1695.4</ele>
        <time>2021-03-27T17:29:45Z</time>
      </trkpt>
      <trkpt lat="41.97551" lon="-2.824536">
        <ele>1697.67</ele>
        <time>2021-03-27T17:29:58Z</time>
      </trkpt>
      <trkpt lat="41.975784" lon="-2.823715">
        <ele>1694.58</ele>
        <time>2021-03-27T17:30:12Z</time>
      </trkpt>
      <trkpt lat="41.975984" lon="-2.823573">
        <ele>1694.86</ele>
        <time>2021-03-27T17:30:25Z</time>
      </trkpt>
      <trkpt lat="41.976878" lon="-2.823899">
        <ele>1689.0</ele>
        <time>2021-03-27T17:30:39Z</time>
      </trkpt>
      <trkpt lat="41.977415" lon="-2.824862">
        <ele>1676.72</ele>
        <time>2021-03-27T17:30:52Z</time>
      </trkpt>
      <trkpt lat="41.97851" lon="-2.827098">
        <ele>1662.88</ele>
        <time>2021-03-27T17:31:06Z</time>
      </trkpt>
      <trkpt lat="41.978962" lon="-2.82816">
        <ele>1654.29</ele>
        <time>2021-03-27T17:31:19Z</time>
      </trkpt>
      <trkpt lat="41.979204" lon="-2.829986">
        <ele>1637.46</ele>
        <time>2021-03-27T17:31:33Z</time>
      </trkpt>
      <trkpt lat="41.978973" lon="-2.830411">
        <ele>1639.19</ele>
        <time>2021-03-27T17:31:46Z</time>
      </trkpt>
      <trkpt lat="41.979047" lon="-2.830751">
        <ele>1634.52</ele>
        <time>2021-03-27T17:31:59Z</time>
      </trkpt>
      <trkpt lat="41.979257" lon="-2.830977">
        <ele>1628.65</ele>
        <time>2021-03-27T17:32:13Z</time>
      </trkpt>
      <trkpt lat="41.979309" lon="-2.832096">
        <ele>1628.3</ele>
        <time>2021-03-27T17:32:26Z</time>
      </trkpt>
      <trkpt lat="41.979436" lon="-2.832365">
        <ele>1628.81</ele>
        <time>2021-03-27T17:32:40Z</time>
      </trkpt>
      <trkpt lat="41.97972" lon="-2.832549">
        <ele>1621.26</ele>
        <time>2021-03-27T17:32:53Z</time>
      </trkpt>
      <trkpt lat="41.980257" lon="-2.833568">
        <ele>1611.1</ele>
        <time>2021-03-27T17:33:07Z</time>
      </trkpt>
      <trkpt lat="41.980636" lon="-2.834106">
        <ele>1607.97</ele>
        <time>2021-03-27T17:33:20Z</time>
      </trkpt>
      <trkpt lat="41.980962" lon="-2.835069">
        <ele>1612.04</ele>
        <time>2021-03-27T17:33:33Z</time>
      </trkpt>
      <trkpt lat="41.981026" lon="-2.835223">
        <ele>1614.1</ele>
        <time>2021-03-27T17:33:47Z</time>
      </trkpt>
      <trkpt lat="41.981168" lon="-2.83528">
        <ele>1614.86</ele>
        <time>2021-03-27T17:34:00Z</time>
      </trkpt>
      <trkpt lat="41.981273" lon="-2.835195">
        <ele>1614.72</ele>
        <time>2021-03-27T17:34:14Z</time>
      </trkpt>
      <trkpt lat="41.981795" lon="-2.834182">
        <ele>1612.96</ele>
        <time>2021-03-27T17:34:27Z</time>
      </trkpt>
      <trkpt lat="41.982391" lon="-2.833602">
        <ele>1612.91</ele>
        <time>2021-03-27T17:34:41Z</time>
      </trkpt>
      <trkpt lat="41.98295" lon="-2.832986">
        <ele>1611.92</ele>
        <time>2021-03-27T17:34:54Z</time>
      </trkpt>
      <trkpt lat="41.983032" lon="-2.832456">
        <ele>1608.41</ele>
        <time>2021-03-27T17:35:08Z</time>
      </trkpt>
      <trkpt lat="41.983398" lon="-2.831495">
        <ele>1603.03</ele>
        <time>2021-03-27T17:35:21Z</time>
      </trkpt>
      <trkpt lat="41.983499" lon="-2.830792">
        <ele>1593.22</ele>
        <time>2021-03-27T17:35:34Z</time>
      </trkpt>
      <trkpt lat="41.983508" lon="-2.830361">
        <ele>1588.64</ele>
        <time>2021-03-27T17:35:48Z</time>
      </trkpt>
      <trkpt lat="41.983325" lon="-2.830226">
        <ele>1585.52</ele>
        <time>2021-03-27T17:36:01Z</time>
      </trkpt>
      <trkpt lat="41.983178" lon="-2.830423">
        <ele>1586.62</ele>
        <time>2021-03-27T17:36:15Z</time>
      </trkpt>
      <trkpt lat="41.983197" lon="-2.831027">
        <ele>1592.93</ele>
        <time>2021-03-27T17:36:28Z</time>
      </trkpt>
      <trkpt lat="41.982977" lon="-2.831113">
        <ele>1589.04</ele>
        <time>2021-03-27T17:36:42Z</time>
      </trkpt>
      <trkpt lat="41.982776" lon="-2.830941">
        <ele>1583.32</ele>
        <time>2021-03-27T17:36:55Z</time>
      </trkpt>
      <trkpt lat="41.98283" lon="-2.830448">
        <ele>1577.67</ele>
        <time>2021-03-27T17:37:09Z</time>
      </trkpt>
      <trkpt lat="41.98327" lon="-2.829782">
        <ele>1572.23</ele>
        <time>2021-03-27T17:37:22Z</time>
      </trkpt>
      <trkpt lat="41.984534" lon="-2.83025">
        <ele>1570.92</ele>
        <time>2021-03-27T17:37:35Z</time>
      </trkpt>
      <trkpt lat="41.984754" lon="-2.829954">
        <ele>1566.71</ele>
        <time>2021-03-27T17:37:49Z</time>
      </trkpt>
      <trkpt lat="41.98491" lon="-2.829067">
        <ele>1564.62</ele>
        <time>2021-03-27T17:38:02Z</time>
      </trkpt>
      <trkpt lat="41.984873" lon="-2.8285">
        <ele>1563.41</ele>
        <time>2021-03-27T17:38:16Z</time>
      </trkpt>
      <trkpt lat="41.984342" lon="-2.826923">
        <ele>1538.93</ele>
        <time>2021-03-27T17:38:29Z</time>
      </trkpt>
      <trkpt lat="41.985141" lon="-2.825691">
        <ele>1525.47</ele>
        <time>2021-03-27T17:38:43Z</time>
      </trkpt>
      <trkpt lat="41.98572" lon="-2.825507">
        <ele>1527.82</ele>
        <time>2021-03-27T17:38:56Z</time>
      </trkpt>
      <trkpt lat="41.98592" lon="-2.825195">
        <ele>1524.21</ele>
        <time>2021-03-27T17:39:09Z</time>
      </trkpt>
      <trkpt lat="41.985878" lon="-2.824785">
        <ele>1515.66</ele>
        <time>2021-03-27T17:39:23Z</time>
      </trkpt>
      <trkpt lat="41.985604" lon="-2.824077">
        <ele>1504.79</ele>
        <time>2021-03-27T17:39:36Z</time>
      </trkpt>
      <trkpt lat="41.985509" lon="-2.823624">
        <ele>1499.16</ele>
        <time>2021-03-27T17:39:50Z</time>
      </trkpt>
      <trkpt lat="41.98572" lon="-2.823298">
        <ele>1497.45</ele>
        <time>2021-03-27T17:40:03Z</time>
      </trkpt>
      <trkpt lat="41.98634" lon="-2.823214">
        <ele>1494.86</ele>
        <time>2021-03-27T17:40:17Z</time>
      </trkpt>
      <trkpt lat="41.987046" lon="-2.823525">
        <ele>1497.84</ele>
        <time>2021-03-27T17:40:30Z</time>
      </trkpt>
      <trkpt lat="41.987688" lon="-2.823652">
        <ele>1507.71</ele>
        <time>2021-03-27T17:40:44Z</time>
      </trkpt>
      <trkpt lat="41.987414" lon="-2.823228">
        <ele>1490.57</ele>
        <time>2021-03-27T17:40:57Z</time>
      </trkpt>
      <trkpt lat="41.987246" lon="-2.822874">
        <ele>1481.01</ele>
        <time>2021-03-27T17:41:10Z</time>
      </trkpt>
      <trkpt lat="41.98733" lon="-2.822265">
        <ele>1473.98</ele>
        <time>2021-03-27T17:41:24Z</time>
      </trkpt>
      <trkpt lat="41.987319" lon="-2.821897">
        <ele>1470.26</ele>
        <time>2021-03-27T17:41:37Z</time>
      </trkpt>
      <trkpt lat="41.98713" lon="-2.821331">
        <ele>1461.85</ele>
        <time>2021-03-27T17:41:51Z</time>
      </trkpt>
      <trkpt lat="41.987351" lon="-2.819688">
        <ele>1464.53</ele>
        <time>2021-03-27T17:42:04Z</time>
      </trkpt>
      <trkpt lat="41.987603" lon="-2.818811">
        <ele>1463.65</ele>
        <time>2021-03-27T17:42:18Z</time>
      </trkpt>
      <trkpt lat="41.988344" lon="-2.81782">
        <ele>1461.1</ele>
        <time>2021-03-27T17:42:31Z</time>
      </trkpt>
      <trkpt lat="41.989239" lon="-2.817452">
        <ele>1461.96</ele>
        <time>2021-03-27T17:42:45Z</time>
      </trkpt>
      <trkpt lat="41.990049" lon="-2.817183">
        <ele>1466.65</ele>
        <time>2021-03-27T17:42:58Z</time>
      </trkpt>
      <trkpt lat="41.99028" lon="-2.816914">
        <ele>1463.48</ele>
        <time>2021-03-27T17:43:11Z</time>
      </trkpt>
      <trkpt lat="41.991217" lon="-2.816559">
        <ele>1460.51</ele>
        <time>2021-03-27T17:43:25Z</time>
      </trkpt>
      <trkpt lat="41.9912" lon="-2.816066">
        <ele>1457.59</ele>
        <time>2021-03-27T17:43:38Z</time>
      </trkpt>
      <trkpt lat="41.991041" lon="-2.815079">
        <ele>1450.44</ele>
        <time>2021-03-27T17:43:52Z</time>
      </trkpt>
      <trkpt lat="41.991551" lon="-2.814028">
        <ele>1447.51</ele>
        <time>2021-03-27T17:44:05Z</time>
      </trkpt>
      <trkpt lat="41.992157" lon="-2.813319">
        <ele>1446.31</ele>
        <time>2021-03-27T17:44:19Z</time>
      </trkpt>
      <trkpt lat="41.993545" lon="-2.812697">
        <ele>1454.2</ele>
        <time>2021-03-27T17:44:32Z</time>
      </trkpt>
      <trkpt lat="41.994693" lon="-2.812311">
        <ele>1446.02</ele>
        <time>2021-03-27T17:44:45Z</time>
      </trkpt>
      <trkpt lat="41.995171" lon="-2.81244">
        <ele>1448.51</ele>
        <time>2021-03-27T17:44:59Z</time>
      </trkpt>
      <trkpt lat="41.996419" lon="-2.812582">
        <ele>1446.05</ele>
        <time>2021-03-27T17:45:12Z</time>
      </trkpt>
      <trkpt lat="41.996492" lon="-2.812517">
        <ele>1444.85</ele>
        <time>2021-03-27T17:45:26Z</time>
      </trkpt>
      <trkpt lat="41.99656" lon="-2.812504">
        <ele>1444.43</ele>
        <time>2021-03-27T17:45:39Z</time>
      </trkpt>
      <trkpt lat="41.996788" lon="-2.812555">
        <ele>1443.28</ele>
        <time>2021-03-27T17:45:53Z</time>
      </trkpt>
      <trkpt lat="41.99893" lon="-2.813249">
        <ele>1433.89</ele>
        <time>2021-03-27T17:46:06Z</time>
      </trkpt>
      <trkpt lat="41.999128" lon="-2.813275">
        <ele>1433.03</ele>
        <time>2021-03-27T17:46:20Z</time>
      </trkpt>
      <trkpt lat="41.999241" lon="-2.81325">
        <ele>1432.56</ele>
        <time>2021-03-27T17:46:33Z</time>
      </trkpt>
      <trkpt lat="41.999492" lon="-2.813">
        <ele>1430.12</ele>
        <time>2021-03-27T17:46:46Z</time>
      </trkpt>
      <trkpt lat="42.000262" lon="-2.812298">
        <ele>1428.82</ele>
        <time>2021-03-27T17:47:00Z</time>
      </trkpt>
      <trkpt lat="42.00037" lon="-2.812224">
        <ele>1427.7</ele>
        <time>2021-03-27T17:47:13Z</time>
      </trkpt>
      <trkpt lat="42.000512" lon="-2.812237">
        <ele>1427.41</ele>
        <time>2021-03-27T17:47:27Z</time>
      </trkpt>
      <trkpt lat="42.000691" lon="-2.812333">
        <ele>1429.39</ele>
        <time>2021-03-27T17:47:40Z</time>
      </trkpt>
      <trkpt lat="42.000881" lon="-2.812356">
        <ele>1430.36</ele>
        <time>2021-03-27T17:47:54Z</time>
      </trkpt>
      <trkpt lat="42.001312" lon="-2.812303">
        <ele>1427.8</ele>
        <time>2021-03-27T17:48:07Z</time>
      </trkpt>
      <trkpt lat="42.001924" lon="-2.812023">
        <ele>1424.49</ele>
        <time>2021-03-27T17:48:21Z</time>
      </trkpt>
      <trkpt lat="42.002309" lon="-2.811817">
        <ele>1424.95</ele>
        <time>2021-03-27T17:48:34Z</time>
      </trkpt>
      <trkpt lat="42.002417" lon="-2.811736">
        <ele>1425.06</ele>
        <time>2021-03-27T17:48:47Z</time>
      </trkpt>
      <trkpt lat="42.002485" lon="-2.811615">
        <ele>1423.5</ele>
        <time>2021-03-27T17:49:01Z</time>
      </trkpt>
      <trkpt lat="42.002675" lon="-2.810957">
        <ele>1413.8</ele>
        <time>2021-03-27T17:49:14Z</time>
      </trkpt>
      <trkpt lat="42.002757" lon="-2.810802">
        <ele>1412.59</ele>
        <time>2021-03-27T17:49:28Z</time>
      </trkpt>
      <trkpt lat="42.002933" lon="-2.810648">
        <ele>1411.74</ele>
        <time>2021-03-27T17:49:41Z</time>
      </trkpt>
      <trkpt lat="42.003529" lon="-2.810292">
        <ele>1412.19</ele>
        <time>2021-03-27T17:49:55Z</time>
      </trkpt>
      <trkpt lat="42.003623" lon="-2.810176">
        <ele>1412.06</ele>
        <time>2021-03-27T17:50:08Z</time>
      </trkpt>
      <trkpt lat="42.003661" lon="-2.810074">
        <ele>1411.39</ele>
        <time>2021-03-27T17:50:21Z</time>
      </trkpt>
      <trkpt lat="42.003675" lon="-2.809954">
        <ele>1410.23</ele>
        <time>2021-03-27T17:50:35Z</time>
      </trkpt>
      <trkpt lat="42.003596" lon="-2.80945">
        <ele>1403.96</ele>
        <time>2021-03-27T17:50:48Z</time>
      </trkpt>
      <trkpt lat="42.003581" lon="-2.809197">
        <ele>1401.02</ele>
        <time>2021-03-27T17:51:02Z</time>
      </trkpt>
      <trkpt lat="42.003605" lon="-2.809005">
        <ele>1399.19</ele>
        <time>2021-03-27T17:51:15Z</time>
      </trkpt>
      <trkpt lat="42.003994" lon="-2.808183">
        <ele>1394.09</ele>
        <time>2021-03-27T17:51:29Z</time>
      </trkpt>
      <trkpt lat="42.004086" lon="-2.80794">
        <ele>1393.42</ele>
        <time>2021-03-27T17:51:42Z</time>
      </trkpt>
      <trkpt lat="42.004091" lon="-2.807816">
        <ele>1392.29</ele>
        <time>2021-03-27T17:51:56Z</time>
      </trkpt>
      <trkpt lat="42.004063" lon="-2.807684">
        <ele>1391.04</ele>
        <time>2021-03-27T17:52:09Z</time>
      </trkpt>
      <trkpt lat="42.003999" lon="-2.807598">
        <ele>1389.56</ele>
        <time>2021-03-27T17:52:22Z</time>
      </trkpt>
      <trkpt lat="42.003867" lon="-2.807564">
        <ele>1387.27</ele>
        <time>2021-03-27T17:52:36Z</time>
      </trkpt>
      <trkpt lat="42.003736" lon="-2.807608">
        <ele>1386.25</ele>
        <time>2021-03-27T17:52:49Z</time>
      </trkpt>
      <trkpt lat="42.003197" lon="-2.808206">
        <ele>1383.66</ele>
        <time>2021-03-27T17:53:03Z</time>
      </trkpt>
      <trkpt lat="42.003037" lon="-2.808295">
        <ele>1382.31</ele>
        <time>2021-03-27T17:53:16Z</time>
      </trkpt>
      <trkpt lat="42.002442" lon="-2.808406">
        <ele>1380.14</ele>
        <time>2021-03-27T17:53:30Z</time>
      </trkpt>
      <trkpt lat="42.002326" lon="-2.808384">
        <ele>1380.68</ele>
        <time>2021-03-27T17:53:43Z</time>
      </trkpt>
      <trkpt lat="42.00226" lon="-2.808318">
        <ele>1380.56</ele>
        <time>2021-03-27T17:53:57Z</time>
      </trkpt>
      <trkpt lat="42.002193" lon="-2.808202">
        <ele>1379.53</ele>
        <time>2021-03-27T17:54:10Z</time>
      </trkpt>
      <trkpt lat="42.001964" lon="-2.80767">
        <ele>1370.14</ele>
        <time>2021-03-27T17:54:23Z</time>
      </trkpt>
      <trkpt lat="42.001736" lon="-2.807455">
        <ele>1366.01</ele>
        <time>2021-03-27T17:54:37Z</time>
      </trkpt>
      <trkpt lat="42.001642" lon="-2.807304">
        <ele>1365.75</ele>
        <time>2021-03-27T17:54:50Z</time>
      </trkpt>
      <trkpt lat="42.001344" lon="-2.806293">
        <ele>1362.66</ele>
        <time>2021-03-27T17:55:04Z</time>
      </trkpt>
      <trkpt lat="42.00096" lon="-2.805498">
        <ele>1353.66</ele>
        <time>2021-03-27T17:55:17Z</time>
      </trkpt>
      <trkpt lat="42.000845" lon="-2.805339">
        <ele>1351.3</ele>
        <time>2021-03-27T17:55:31Z</time>
      </trkpt>
      <trkpt lat="42.000552" lon="-2.805103">
        <ele>1347.21</ele>
        <time>2021-03-27T17:55:44Z</time>
      </trkpt>
      <trkpt lat="42.000432" lon="-2.805044">
        <ele>1345.82</ele>
        <time>2021-03-27T17:55:57Z</time>
      </trkpt>
      <trkpt lat="42.000337" lon="-2.805031">
        <ele>1345.49</ele>
        <time>2021-03-27T17:56:11Z</time>
      </trkpt>
      <trkpt lat="42.000102" lon="-2.80508">
        <ele>1345.97</ele>
        <time>2021-03-27T17:56:24Z</time>
      </trkpt>
      <trkpt lat="41.999909" lon="-2.805145">
        <ele>1346.57</ele>
        <time>2021-03-27T17:56:38Z</time>
      </trkpt>
      <trkpt lat="41.999132" lon="-2.805055">
        <ele>1335.92</ele>
        <time>2021-03-27T17:56:51Z</time>
      </trkpt>
      <trkpt lat="41.998965" lon="-2.804996">
        <ele>1333.08</ele>
        <time>2021-03-27T17:57:05Z</time>
      </trkpt>
      <trkpt lat="41.998911" lon="-2.804943">
        <ele>1331.93</ele>
        <time>2021-03-27T17:57:18Z</time>
      </trkpt>
      <trkpt lat="41.998868" lon="-2.804869">
        <ele>1330.91</ele>
        <time>2021-03-27T17:57:32Z</time>
      </trkpt>
      <trkpt lat="41.998852" lon="-2.804773">
        <ele>1330.1</ele>
        <time>2021-03-27T17:57:45Z</time>
      </trkpt>
      <trkpt lat="41.998878" lon="-2.804603">
        <ele>1329.06</ele>
        <time>2021-03-27T17:57:58Z</time>
      </trkpt>
      <trkpt lat="41.999022" lon="-2.804294">
        <ele>1328.54</ele>
        <time>2021-03-27T17:58:12Z</time>
      </trkpt>
      <trkpt lat="41.999147" lon="-2.804131">
        <ele>1327.6</ele>
        <time>2021-03-27T17:58:25Z</time>
      </trkpt>
      <trkpt lat="41.999282" lon="-2.80405">
        <ele>1327.89</ele>
        <time>2021-03-27T17:58:39Z</time>
      </trkpt>
      <trkpt lat="42.000142" lon="-2.803695">
        <ele>1326.02</ele>
        <time>2021-03-27T17:58:52Z</time>
      </trkpt>
      <trkpt lat="42.001048" lon="-2.802917">
        <ele>1316.68</ele>
        <time>2021-03-27T17:59:06Z</time>
      </trkpt>
      <trkpt lat="42.001149" lon="-2.802805">
        <ele>1315.22</ele>
        <time>2021-03-27T17:59:19Z</time>
      </trkpt>
      <trkpt lat="42.001197" lon="-2.802679">
        <ele>1314.18</ele>
        <time>2021-03-27T17:59:33Z</time>
      </trkpt>
      <trkpt lat="42.00121" lon="-2.802559">
        <ele>1313.14</ele>
        <time>2021-03-27T17:59:46Z</time>
      </trkpt>
      <trkpt lat="42.001195" lon="-2.802442">
        <ele>1312.34</ele>
        <time>2021-03-27T17:59:59Z</time>
      </trkpt>
      <trkpt lat="42.001144" lon="-2.802338">
        <ele>1311.79</ele>
        <time>2021-03-27T18:00:13Z</time>
      </trkpt>
      <trkpt lat="41.999844" lon="-2.800887">
        <ele>1298.77</ele>
        <time>2021-03-27T18:00:26Z</time>
      </trkpt>
      <trkpt lat="41.999628" lon="-2.800692">
        <ele>1296.81</ele>
        <time>2021-03-27T18:00:40Z</time>
      </trkpt>
      <trkpt lat="41.999427" lon="-2.800557">
        <ele>1295.01</ele>
        <time>2021-03-27T18:00:53Z</time>
      </trkpt>
      <trkpt lat="41.998361" lon="-2.800128">
        <ele>1295.92</ele>
        <time>2021-03-27T18:01:07Z</time>
      </trkpt>
      <trkpt lat="41.99724" lon="-2.799705">
        <ele>1285.95</ele>
        <time>2021-03-27T18:01:20Z</time>
      </trkpt>
      <trkpt lat="41.997032" lon="-2.799665">
        <ele>1282.99</ele>
        <time>2021-03-27T18:01:33Z</time>
      </trkpt>
      <trkpt lat="41.996875" lon="-2.799668">
        <ele>1281.76</ele>
        <time>2021-03-27T18:01:47Z</time>
      </trkpt>
      <trkpt lat="41.996485" lon="-2.799728">
        <ele>1283.98</ele>
        <time>2021-03-27T18:02:00Z</time>
      </trkpt>
      <trkpt lat="41.992832" lon="-2.800627">
        <ele>1270.3</ele>
        <time>2021-03-27T18:02:14Z</time>
      </trkpt>
      <trkpt lat="41.992487" lon="-2.800638">
        <ele>1267.95</ele>
        <time>2021-03-27T18:02:27Z</time>
      </trkpt>
      <trkpt lat="41.992344" lon="-2.800608">
        <ele>1267.44</ele>
        <time>2021-03-27T18:02:41Z</time>
      </trkpt>
      <trkpt lat="41.992198" lon="-2.800542">
        <ele>1266.86</ele>
        <time>2021-03-27T18:02:54Z</time>
      </trkpt>
      <trkpt lat="41.989309" lon="-2.79888">
        <ele>1256.9</ele>
        <time>2021-03-27T18:03:08Z</time>
      </trkpt>
      <trkpt lat="41.989024" lon="-2.798755">
        <ele>1255.81</ele>
        <time>2021-03-27T18:03:21Z</time>
      </trkpt>
      <trkpt lat="41.985513" lon="-2.797934">
        <ele>1252.32</ele>
        <time>2021-03-27T18:03:34Z</time>
      </trkpt>
      <trkpt lat="41.983785" lon="-2.797136">
        <ele>1247.33</ele>
        <time>2021-03-27T18:03:48Z</time>
      </trkpt>
      <trkpt lat="41.982318" lon="-2.796695">
        <ele>1241.28</ele>
        <time>2021-03-27T18:04:01Z</time>
      </trkpt>
      <trkpt lat="41.978958" lon="-2.794751">
        <ele>1225.6</ele>
        <time>2021-03-27T18:04:15Z</time>
      </trkpt>
      <trkpt lat="41.978869" lon="-2.794637">
        <ele>1225.12</ele>
        <time>2021-03-27T18:04:20Z</time>
      </trkpt>
      <trkpt lat="41.978776" lon="-2.79446">
        <ele>1225.43</ele>
        <time>2021-03-27T18:04:25Z</time>
      </trkpt>
      <trkpt lat="41.978679" lon="-2.794211">
        <ele>1224.28</ele>
        <time>2021-03-27T18:04:30Z</time>
      </trkpt>
      <trkpt lat="41.978356" lon="-2.793246">
        <ele>1227.07</ele>
        <time>2021-03-27T18:04:34Z</time>
      </trkpt>
      <trkpt lat="41.978178" lon="-2.792908">
        <ele>1229.77</ele>
        <time>2021-03-27T18:04:39Z</time>
      </trkpt>
      <trkpt lat="41.978" lon="-2.79269">
        <ele>1232.64</ele>
        <time>2021-03-27T18:04:44Z</time>
      </trkpt>
      <trkpt lat="41.977805" lon="-2.792581">
        <ele>1235.17</ele>
        <time>2021-03-27T18:04:49Z</time>
      </trkpt>
      <trkpt lat="41.976928" lon="-2.792232">
        <ele>1230.71</ele>
        <time>2021-03-27T18:04:54Z</time>
      </trkpt>
      <trkpt lat="41.976613" lon="-2.791916">
        <ele>1232.78</ele>
        <time>2021-03-27T18:04:59Z</time>
      </trkpt>
      <trkpt lat="41.975881" lon="-2.790832">
        <ele>1228.69</ele>
        <time>2021-03-27T18:05:04Z</time>
      </trkpt>
      <trkpt lat="41.975626" lon="-2.790299">
        <ele>1224.95</ele>
        <time>2021-03-27T18:05:09Z</time>
      </trkpt>
      <trkpt lat="41.97533" lon="-2.788701">
        <ele>1224.16</ele>
        <time>2021-03-27T18:05:14Z</time>
      </trkpt>
      <trkpt lat="41.975233" lon="-2.787012">
        <ele>1221.52</ele>
        <time>2021-03-27T18:05:19Z</time>
      </trkpt>
      <trkpt lat="41.975196" lon="-2.786039">
        <ele>1220.07</ele>
        <time>2021-03-27T18:05:24Z</time>
      </trkpt>
      <trkpt lat="41.975175" lon="-2.785851">
        <ele>1220.81</ele>
        <time>2021-03-27T18:05:29Z</time>
      </trkpt>
      <trkpt lat="41.975143" lon="-2.785728">
        <ele>1220.54</ele>
        <time>2021-03-27T18:05:33Z</time>
      </trkpt>
      <trkpt lat="41.975094" lon="-2.785643">
        <ele>1220.01</ele>
        <time>2021-03-27T18:05:38Z</time>
      </trkpt>
      <trkpt lat="41.97492" lon="-2.785486">
        <ele>1218.78</ele>
        <time>2021-03-27T18:05:43Z</time>
      </trkpt>
      <trkpt lat="41.973128" lon="-2.786465">
        <ele>1210.72</ele>
        <time>2021-03-27T18:05:46Z</time>
      </trkpt>
      <trkpt lat="41.972922" lon="-2.786509">
        <ele>1210.7</ele>
        <time>2021-03-27T18:05:49Z</time>
      </trkpt>
      <trkpt lat="41.972748" lon="-2.78649">
        <ele>1211.24</ele>
        <time>2021-03-27T18:05:53Z</time>
      </trkpt>
      <trkpt lat="41.972322" lon="-2.786416">
        <ele>1213.81</ele>
        <time>2021-03-27T18:05:56Z</time>
      </trkpt>
      <trkpt lat="41.972141" lon="-2.786361">
        <ele>1213.81</ele>
        <time>2021-03-27T18:05:59Z</time>
      </trkpt>
      <trkpt lat="41.971912" lon="-2.786254">
        <ele>1213.43</ele>
        <time>2021-03-27T18:06:02Z</time>
      </trkpt>
      <trkpt lat="41.971599" lon="-2.786072">
        <ele>1212.9</ele>
        <time>2021-03-27T18:06:05Z</time>
      </trkpt>
      <trkpt lat="41.970654" lon="-2.785473">
        <ele>1211.1</ele>
        <time>2021-03-27T18:06:08Z</time>
      </trkpt>
      <trkpt lat="41.970297" lon="-2.785206">
        <ele>1211.0</ele>
        <time>2021-03-27T18:06:11Z</time>
      </trkpt>
      <trkpt lat="41.96822" lon="-2.783334">
        <ele>1203.37</ele>
        <time>2021-03-27T18:06:14Z</time>
      </trkpt>
      <trkpt lat="41.967689" lon="-2.782698">
        <ele>1196.23</ele>
        <time>2021-03-27T18:06:17Z</time>
      </trkpt>
      <trkpt lat="41.967078" lon="-2.781894">
        <ele>1193.42</ele>
        <time>2021-03-27T18:06:20Z</time>
      </trkpt>
      <trkpt lat="41.966831" lon="-2.781644">
        <ele>1192.1</ele>
        <time>2021-03-27T18:06:23Z</time>
      </trkpt>
      <trkpt lat="41.96502" lon="-2.780615">
        <ele>1185.74</ele>
        <time>2021-03-27T18:06:26Z</time>
      </trkpt>
      <trkpt lat="41.963951" lon="-2.779986">
        <ele>1184.22</ele>
        <time>2021-03-27T18:06:29Z</time>
      </trkpt>
      <trkpt lat="41.963705" lon="-2.779874">
        <ele>1184.0</ele>
        <time>2021-03-27T18:06:32Z</time>
      </trkpt>
      <trkpt lat="41.963062" lon="-2.779642">
        <ele>1181.05</ele>
        <time>2021-03-27T18:06:35Z</time>
      </trkpt>
      <trkpt lat="41.962926" lon="-2.779551">
        <ele>1181.0</ele>
        <time>2021-03-27T18:06:38Z</time>
      </trkpt>
      <trkpt lat="41.962726" lon="-2.779379">
        <ele>1180.81</ele>
        <time>2021-03-27T18:06:41Z</time>
      </trkpt>
      <trkpt lat="41.960644" lon="-2.777112">
        <ele>1177.87</ele>
        <time>2021-03-27T18:06:45Z</time>
      </trkpt>
      <trkpt lat="41.960337" lon="-2.776886">
        <ele>1181.4</ele>
        <time>2021-03-27T18:06:48Z</time>
      </trkpt>
      <trkpt lat="41.960162" lon="-2.77682">
        <ele>1182.22</ele>
        <time>2021-03-27T18:06:51Z</time>
      </trkpt>
      <trkpt lat="41.959317" lon="-2.77661">
        <ele>1184.23</ele>
        <time>2021-03-27T18:06:54Z</time>
      </trkpt>
      <trkpt lat="41.959128" lon="-2.776602">
        <ele>1185.37</ele>
        <time>2021-03-27T18:06:57Z</time>
      </trkpt>
      <trkpt lat="41.957498" lon="-2.776874">
        <ele>1185.25</ele>
        <time>2021-03-27T18:07:00Z</time>
      </trkpt>
      <trkpt lat="41.957072" lon="-2.776881">
        <ele>1185.64</ele>
        <time>2021-03-27T18:07:03Z</time>
      </trkpt>
      <trkpt lat="41.956627" lon="-2.776782">
        <ele>1187.5</ele>
        <time>2021-03-27T18:07:06Z</time>
      </trkpt>
      <trkpt lat="41.954817" lon="-2.7759">
        <ele>1190.81</ele>
        <time>2021-03-27T18:07:09Z</time>
      </trkpt>
      <trkpt lat="41.953388" lon="-2.774917">
        <ele>1189.05</ele>
        <time>2021-03-27T18:07:12Z</time>
      </trkpt>
      <trkpt lat="41.952167" lon="-2.774315">
        <ele>1187.7</ele>
        <time>2021-03-27T18:07:15Z</time>
      </trkpt>
      <trkpt lat="41.951909" lon="-2.774167">
        <ele>1189.74</ele>
        <time>2021-03-27T18:07:18Z</time>
      </trkpt>
      <trkpt lat="41.951109" lon="-2.773549">
        <ele>1180.21</ele>
        <time>2021-03-27T18:07:21Z</time>
      </trkpt>
      <trkpt lat="41.950987" lon="-2.773461">
        <ele>1179.85</ele>
        <time>2021-03-27T18:07:24Z</time>
      </trkpt>
      <trkpt lat="41.950829" lon="-2.773384">
        <ele>1179.0</ele>
        <time>2021-03-27T18:07:27Z</time>
      </trkpt>
      <trkpt lat="41.950699" lon="-2.773358">
        <ele>1179.0</ele>
        <time>2021-03-27T18:07:30Z</time>
      </trkpt>
      <trkpt lat="41.950478" lon="-2.77337">
        <ele>1179.2</ele>
        <time>2021-03-27T18:07:33Z</time>
      </trkpt>
      <trkpt lat="41.950315" lon="-2.773433">
        <ele>1179.24</ele>
        <time>2021-03-27T18:07:37Z</time>
      </trkpt>
      <trkpt lat="41.94979" lon="-2.773695">
        <ele>1179.0</ele>
        <time>2021-03-27T18:07:40Z</time>
      </trkpt>
      <trkpt lat="41.949599" lon="-2.773756">
        <ele>1177.55</ele>
        <time>2021-03-27T18:07:43Z</time>
      </trkpt>
      <trkpt lat="41.949387" lon="-2.773777">
        <ele>1176.13</ele>
        <time>2021-03-27T18:07:46Z</time>
      </trkpt>
      <trkpt lat="41.949226" lon="-2.773762">
        <ele>1176.01</ele>
        <time>2021-03-27T18:07:49Z</time>
      </trkpt>
      <trkpt lat="41.948949" lon="-2.773695">
        <ele>1176.39</ele>
        <time>2021-03-27T18:07:52Z</time>
      </trkpt>
      <trkpt lat="41.947535" lon="-2.77329">
        <ele>1167.91</ele>
        <time>2021-03-27T18:07:55Z</time>
      </trkpt>
      <trkpt lat="41.946951" lon="-2.773162">
        <ele>1166.21</ele>
        <time>2021-03-27T18:07:58Z</time>
      </trkpt>
      <trkpt lat="41.945843" lon="-2.773173">
        <ele>1160.46</ele>
        <time>2021-03-27T18:08:01Z</time>
      </trkpt>
      <trkpt lat="41.945552" lon="-2.773137">
        <ele>1159.99</ele>
        <time>2021-03-27T18:08:04Z</time>
      </trkpt>
      <trkpt lat="41.945326" lon="-2.773086">
        <ele>1159.82</ele>
        <time>2021-03-27T18:08:07Z</time>
      </trkpt>
      <trkpt lat="41.945133" lon="-2.773012">
        <ele>1159.39</ele>
        <time>2021-03-27T18:08:10Z</time>
      </trkpt>
      <trkpt lat="41.944844" lon="-2.772879">
        <ele>1155.29</ele>
        <time>2021-03-27T18:08:13Z</time>
      </trkpt>
      <trkpt lat="41.94458" lon="-2.772709">
        <ele>1152.37</ele>
        <time>2021-03-27T18:08:16Z</time>
      </trkpt>
      <trkpt lat="41.943358" lon="-2.771695">
        <ele>1147.02</ele>
        <time>2021-03-27T18:08:19Z</time>
      </trkpt>
      <trkpt lat="41.94316" lon="-2.771508">
        <ele>1147.27</ele>
        <time>2021-03-27T18:08:22Z</time>
      </trkpt>
      <trkpt lat="41.942909" lon="-2.771169">
        <ele>1146.58</ele>
        <time>2021-03-27T18:08:25Z</time>
      </trkpt>
      <trkpt lat="41.942762" lon="-2.770882">
        <ele>1146.06</ele>
        <time>2021-03-27T18:08:29Z</time>
      </trkpt>
      <trkpt lat="41.942108" lon="-2.76925">
        <ele>1141.12</ele>
        <time>2021-03-27T18:08:32Z</time>
      </trkpt>
      <trkpt lat="41.942017" lon="-2.769054">
        <ele>1140.88</ele>
        <time>2021-03-27T18:08:35Z</time>
      </trkpt>
      <trkpt lat="41.941863" lon="-2.768814">
        <ele>1140.31</ele>
        <time>2021-03-27T18:08:38Z</time>
      </trkpt>
      <trkpt lat="41.941577" lon="-2.768518">
        <ele>1141.09</ele>
        <time>2021-03-27T18:08:41Z</time>
      </trkpt>
      <trkpt lat="41.941334" lon="-2.768358">
        <ele>1142.0</ele>
        <time>2021-03-27T18:08:44Z</time>
      </trkpt>
      <trkpt lat="41.940517" lon="-2.767981">
        <ele>1143.05</ele>
        <time>2021-03-27T18:08:47Z</time>
      </trkpt>
      <trkpt lat="41.939984" lon="-2.767889">
        <ele>1142.99</ele>
        <time>2021-03-27T18:08:50Z</time>
      </trkpt>
      <trkpt lat="41.939035" lon="-2.76778">
        <ele>1144.93</ele>
        <time>2021-03-27T18:08:53Z</time>
      </trkpt>
      <trkpt lat="41.936598" lon="-2.767105">
        <ele>1145.44</ele>
        <time>2021-03-27T18:08:56Z</time>
      </trkpt>
      <trkpt lat="41.936195" lon="-2.766959">
        <ele>1145.38</ele>
        <time>2021-03-27T18:08:59Z</time>
      </trkpt>
      <trkpt lat="41.935621" lon="-2.766693">
        <ele>1145.49</ele>
        <time>2021-03-27T18:09:02Z</time>
      </trkpt>
      <trkpt lat="41.93549" lon="-2.766653">
        <ele>1145.36</ele>
        <time>2021-03-27T18:09:05Z</time>
      </trkpt>
      <trkpt lat="41.935343" lon="-2.766639">
        <ele>1145.91</ele>
        <time>2021-03-27T18:09:08Z</time>
      </trkpt>
      <trkpt lat="41.935155" lon="-2.766653">
        <ele>1145.61</ele>
        <time>2021-03-27T18:09:11Z</time>
      </trkpt>
      <trkpt lat="41.934947" lon="-2.766632">
        <ele>1144.74</ele>
        <time>2021-03-27T18:09:14Z</time>
      </trkpt>
      <trkpt lat="41.934612" lon="-2.766555">
        <ele>1142.29</ele>
        <time>2021-03-27T18:09:17Z</time>
      </trkpt>
      <trkpt lat="41.934306" lon="-2.766461">
        <ele>1138.9</ele>
        <time>2021-03-27T18:09:21Z</time>
      </trkpt>
      <trkpt lat="41.933163" lon="-2.765962">
        <ele>1138.21</ele>
        <time>2021-03-27T18:09:24Z</time>
      </trkpt>
      <trkpt lat="41.931861" lon="-2.765541">
        <ele>1136.75</ele>
        <time>2021-03-27T18:09:27Z</time>
      </trkpt>
      <trkpt lat="41.931411" lon="-2.765345">
        <ele>1135.14</ele>
        <time>2021-03-27T18:09:30Z</time>
      </trkpt>
      <trkpt lat="41.930463" lon="-2.764782">
        <ele>1138.31</ele>
        <time>2021-03-27T18:09:33Z</time>
      </trkpt>
      <trkpt lat="41.92961" lon="-2.764197">
        <ele>1132.0</ele>
        <time>2021-03-27T18:09:36Z</time>
      </trkpt>
      <trkpt lat="41.929388" lon="-2.764068">
        <ele>1131.93</ele>
        <time>2021-03-27T18:09:39Z</time>
      </trkpt>
      <trkpt lat="41.929201" lon="-2.764009">
        <ele>1131.5</ele>
        <time>2021-03-27T18:09:42Z</time>
      </trkpt>
      <trkpt lat="41.927928" lon="-2.763799">
        <ele>1127.32</ele>
        <time>2021-03-27T18:09:45Z</time>
      </trkpt>
      <trkpt lat="41.926408" lon="-2.763581">
        <ele>1123.17</ele>
        <time>2021-03-27T18:09:48Z</time>
      </trkpt>
      <trkpt lat="41.925865" lon="-2.763443">
        <ele>1122.72</ele>
        <time>2021-03-27T18:09:51Z</time>
      </trkpt>
      <trkpt lat="41.924434" lon="-2.762842">
        <ele>1120.73</ele>
        <time>2021-03-27T18:09:54Z</time>
      </trkpt>
      <trkpt lat="41.924098" lon="-2.762676">
        <ele>1120.52</ele>
        <time>2021-03-27T18:09:57Z</time>
      </trkpt>
      <trkpt lat="41.923837" lon="-2.762492">
        <ele>1120.57</ele>
        <time>2021-03-27T18:10:00Z</time>
      </trkpt>
      <trkpt lat="41.922743" lon="-2.761481">
        <ele>1108.33</ele>
        <time>2021-03-27T18:10:03Z</time>
      </trkpt>
      <trkpt lat="41.921306" lon="-2.760395">
        <ele>1109.41</ele>
        <time>2021-03-27T18:10:06Z</time>
      </trkpt>
      <trkpt lat="41.921141" lon="-2.760244">
        <ele>1108.2</ele>
        <time>2021-03-27T18:10:09Z</time>
      </trkpt>
      <trkpt lat="41.920964" lon="-2.760024">
        <ele>1107.95</ele>
        <time>2021-03-27T18:10:13Z</time>
      </trkpt>
      <trkpt lat="41.920592" lon="-2.759346">
        <ele>1110.0</ele>
        <time>2021-03-27T18:10:16Z</time>
      </trkpt>
      <trkpt lat="41.919562" lon="-2.757759">
        <ele>1111.45</ele>
        <time>2021-03-27T18:10:19Z</time>
      </trkpt>
      <trkpt lat="41.919211" lon="-2.757388">
        <ele>1110.56</ele>
        <time>2021-03-27T18:10:22Z</time>
      </trkpt>
      <trkpt lat="41.916119" lon="-2.754652">
        <ele>1102.76</ele>
        <time>2021-03-27T18:10:25Z</time>
      </trkpt>
      <trkpt lat="41.915972" lon="-2.754563">
        <ele>1102.93</ele>
        <time>2021-03-27T18:10:28Z</time>
      </trkpt>
      <trkpt lat="41.91582" lon="-2.754504">
        <ele>1103.25</ele>
        <time>2021-03-27T18:10:31Z</time>
      </trkpt>
      <trkpt lat="41.915268" lon="-2.754393">
        <ele>1102.96</ele>
        <time>2021-03-27T18:10:34Z</time>
      </trkpt>
      <trkpt lat="41.915073" lon="-2.754395">
        <ele>1102.13</ele>
        <time>2021-03-27T18:10:37Z</time>
      </trkpt>
      <trkpt lat="41.914857" lon="-2.754459">
        <ele>1101.0</ele>
        <time>2021-03-27T18:10:40Z</time>
      </trkpt>
      <trkpt lat="41.914614" lon="-2.754643">
        <ele>1100.71</ele>
        <time>2021-03-27T18:10:43Z</time>
      </trkpt>
      <trkpt lat="41.914024" lon="-2.755174">
        <ele>1098.97</ele>
        <time>2021-03-27T18:10:46Z</time>
      </trkpt>
      <trkpt lat="41.913861" lon="-2.755287">
        <ele>1097.83</ele>
        <time>2021-03-27T18:10:49Z</time>
      </trkpt>
      <trkpt lat="41.913715" lon="-2.755334">
        <ele>1096.82</ele>
        <time>2021-03-27T18:10:52Z</time>
      </trkpt>
      <trkpt lat="41.91347" lon="-2.755356">
        <ele>1095.86</ele>
        <time>2021-03-27T18:10:55Z</time>
      </trkpt>
      <trkpt lat="41.912662" lon="-2.755265">
        <ele>1093.63</ele>
        <time>2021-03-27T18:10:58Z</time>
      </trkpt>
      <trkpt lat="41.912146" lon="-2.755239">
        <ele>1092.41</ele>
        <time>2021-03-27T18:11:01Z</time>
      </trkpt>
      <trkpt lat="41.912064" lon="-2.755262">
        <ele>1092.63</ele>
        <time>2021-03-27T18:11:05Z</time>
      </trkpt>
      <trkpt lat="41.911882" lon="-2.755361">
        <ele>1092.48</ele>
        <time>2021-03-27T18:11:08Z</time>
      </trkpt>
      <trkpt lat="41.911508" lon="-2.754389">
        <ele>1093.34</ele>
        <time>2021-03-27T18:11:11Z</time>
      </trkpt>
      <trkpt lat="41.910601" lon="-2.752212">
        <ele>1094.64</ele>
        <time>2021-03-27T18:11:15Z</time>
      </trkpt>
      <trkpt lat="41.91044" lon="-2.751882">
        <ele>1093.22</ele>
        <time>2021-03-27T18:11:19Z</time>
      </trkpt>
      <trkpt lat="41.909861" lon="-2.751005">
        <ele>1089.19</ele>
        <time>2021-03-27T18:11:22Z</time>
      </trkpt>
      <trkpt lat="41.909617" lon="-2.75061">
        <ele>1088.93</ele>
        <time>2021-03-27T18:11:26Z</time>
      </trkpt>
      <trkpt lat="41.90938" lon="-2.750187">
        <ele>1088.92</ele>
        <time>2021-03-27T18:11:30Z</time>
      </trkpt>
      <trkpt lat="41.909244" lon="-2.749812">
        <ele>1090.4</ele>
        <time>2021-03-27T18:11:34Z</time>
      </trkpt>
      <trkpt lat="41.909134" lon="-2.749353">
        <ele>1091.71</ele>
        <time>2021-03-27T18:11:37Z</time>
      </trkpt>
      <trkpt lat="41.909005" lon="-2.748913">
        <ele>1090.67</ele>
        <time>2021-03-27T18:11:41Z</time>
      </trkpt>
      <trkpt lat="41.908871" lon="-2.748603">
        <ele>1090.0</ele>
        <time>2021-03-27T18:11:45Z</time>
      </trkpt>
      <trkpt lat="41.908713" lon="-2.748303">
        <ele>1089.36</ele>
        <time>2021-03-27T18:11:48Z</time>
      </trkpt>
      <trkpt lat="41.907237" lon="-2.746742">
        <ele>1087.01</ele>
        <time>2021-03-27T18:11:52Z</time>
      </trkpt>
      <trkpt lat="41.906423" lon="-2.745717">
        <ele>1088.93</ele>
        <time>2021-03-27T18:11:56Z</time>
      </trkpt>
      <trkpt lat="41.903258" lon="-2.741918">
        <ele>1086.12</ele>
        <time>2021-03-27T18:11:59Z</time>
      </trkpt>
      <trkpt lat="41.901442" lon="-2.739697">
        <ele>1093.04</ele>
        <time>2021-03-27T18:12:03Z</time>
      </trkpt>
      <trkpt lat="41.901147" lon="-2.73921">
        <ele>1094.99</ele>
        <time>2021-03-27T18:12:07Z</time>
      </trkpt>
      <trkpt lat="41.900905" lon="-2.738698">
        <ele>1099.04</ele>
        <time>2021-03-27T18:12:11Z</time>
      </trkpt>
      <trkpt lat="41.900379" lon="-2.737229">
        <ele>1096.96</ele>
        <time>2021-03-27T18:12:14Z</time>
      </trkpt>
      <trkpt lat="41.900112" lon="-2.736751">
        <ele>1094.65</ele>
        <time>2021-03-27T18:12:18Z</time>
      </trkpt>
      <trkpt lat="41.899931" lon="-2.736504">
        <ele>1092.5</ele>
        <time>2021-03-27T18:12:22Z</time>
      </trkpt>
      <trkpt lat="41.899782" lon="-2.736353">
        <ele>1091.42</ele>
        <time>2021-03-27T18:12:25Z</time>
      </trkpt>
      <trkpt lat="41.899152" lon="-2.735841">
        <ele>1096.53</ele>
        <time>2021-03-27T18:12:29Z</time>
      </trkpt>
      <trkpt lat="41.898534" lon="-2.735185">
        <ele>1096.32</ele>
        <time>2021-03-27T18:12:33Z</time>
      </trkpt>
      <trkpt lat="41.898084" lon="-2.734742">
        <ele>1087.63</ele>
        <time>2021-03-27T18:12:36Z</time>
      </trkpt>
      <trkpt lat="41.897441" lon="-2.734245">
        <ele>1089.43</ele>
        <time>2021-03-27T18:12:40Z</time>
      </trkpt>
      <trkpt lat="41.895592" lon="-2.733435">
        <ele>1091.27</ele>
        <time>2021-03-27T18:12:44Z</time>
      </trkpt>
      <trkpt lat="41.895244" lon="-2.733262">
        <ele>1091.55</ele>
        <time>2021-03-27T18:12:48Z</time>
      </trkpt>
      <trkpt lat="41.894686" lon="-2.732893">
        <ele>1090.33</ele>
        <time>2021-03-27T18:12:51Z</time>
      </trkpt>
      <trkpt lat="41.894528" lon="-2.732745">
        <ele>1088.37</ele>
        <time>2021-03-27T18:12:55Z</time>
      </trkpt>
      <trkpt lat="41.894205" lon="-2.732348">
        <ele>1089.65</ele>
        <time>2021-03-27T18:12:59Z</time>
      </trkpt>
      <trkpt lat="41.894046" lon="-2.732116">
        <ele>1089.68</ele>
        <time>2021-03-27T18:13:02Z</time>
      </trkpt>
      <trkpt lat="41.893583" lon="-2.731251">
        <ele>1090.24</ele>
        <time>2021-03-27T18:13:06Z</time>
      </trkpt>
      <trkpt lat="41.893173" lon="-2.730415">
        <ele>1087.73</ele>
        <time>2021-03-27T18:13:10Z</time>
      </trkpt>
      <trkpt lat="41.893049" lon="-2.730208">
        <ele>1089.46</ele>
        <time>2021-03-27T18:13:13Z</time>
      </trkpt>
      <trkpt lat="41.892809" lon="-2.729918">
        <ele>1090.7</ele>
        <time>2021-03-27T18:13:17Z</time>
      </trkpt>
      <trkpt lat="41.892693" lon="-2.729808">
        <ele>1090.98</ele>
        <time>2021-03-27T18:13:21Z</time>
      </trkpt>
      <trkpt lat="41.892421" lon="-2.72964">
        <ele>1091.38</ele>
        <time>2021-03-27T18:13:25Z</time>
      </trkpt>
      <trkpt lat="41.892306" lon="-2.729592">
        <ele>1091.79</ele>
        <time>2021-03-27T18:13:28Z</time>
      </trkpt>
      <trkpt lat="41.892111" lon="-2.729546">
        <ele>1091.76</ele>
        <time>2021-03-27T18:13:32Z</time>
      </trkpt>
      <trkpt lat="41.891696" lon="-2.729555">
        <ele>1090.1</ele>
        <time>2021-03-27T18:13:36Z</time>
      </trkpt>
      <trkpt lat="41.891375" lon="-2.729616">
        <ele>1089.95</ele>
        <time>2021-03-27T18:13:39Z</time>
      </trkpt>
      <trkpt lat="41.890919" lon="-2.729614">
        <ele>1088.85</ele>
        <time>2021-03-27T18:13:43Z</time>
      </trkpt>
      <trkpt lat="41.890291" lon="-2.729395">
        <ele>1091.63</ele>
        <time>2021-03-27T18:13:47Z</time>
      </trkpt>
      <trkpt lat="41.889472" lon="-2.729019">
        <ele>1088.06</ele>
        <time>2021-03-27T18:13:50Z</time>
      </trkpt>
      <trkpt lat="41.889317" lon="-2.728916">
        <ele>1088.71</ele>
        <time>2021-03-27T18:13:54Z</time>
      </trkpt>
      <trkpt lat="41.889122" lon="-2.728694">
        <ele>1090.78</ele>
        <time>2021-03-27T18:13:58Z</time>
      </trkpt>
      <trkpt lat="41.88904" lon="-2.728576">
        <ele>1091.21</ele>
        <time>2021-03-27T18:14:02Z</time>
      </trkpt>
      <trkpt lat="41.888932" lon="-2.728394">
        <ele>1091.09</ele>
        <time>2021-03-27T18:14:05Z</time>
      </trkpt>
      <trkpt lat="41.888698" lon="-2.727909">
        <ele>1089.47</ele>
        <time>2021-03-27T18:14:09Z</time>
      </trkpt>
      <trkpt lat="41.888522" lon="-2.727585">
        <ele>1088.79</ele>
        <time>2021-03-27T18:14:13Z</time>
      </trkpt>
      <trkpt lat="41.888364" lon="-2.727376">
        <ele>1088.19</ele>
        <time>2021-03-27T18:14:16Z</time>
      </trkpt>
      <trkpt lat="41.888178" lon="-2.727249">
        <ele>1088.54</ele>
        <time>2021-03-27T18:14:20Z</time>
      </trkpt>
      <trkpt lat="41.887576" lon="-2.726988">
        <ele>1092.41</ele>
        <time>2021-03-27T18:14:24Z</time>
      </trkpt>
      <trkpt lat="41.886979" lon="-2.726646">
        <ele>1095.39</ele>
        <time>2021-03-27T18:14:27Z</time>
      </trkpt>
      <trkpt lat="41.886416" lon="-2.726182">
        <ele>1091.88</ele>
        <time>2021-03-27T18:14:31Z</time>
      </trkpt>
      <trkpt lat="41.886075" lon="-2.725815">
        <ele>1091.63</ele>
        <time>2021-03-27T18:14:35Z</time>
      </trkpt>
      <trkpt lat="41.885791" lon="-2.725384">
        <ele>1091.78</ele>
        <time>2021-03-27T18:14:39Z</time>
      </trkpt>
      <trkpt lat="41.885588" lon="-2.72496">
        <ele>1092.38</ele>
        <time>2021-03-27T18:14:42Z</time>
      </trkpt>
      <trkpt lat="41.885483" lon="-2.72462">
        <ele>1091.76</ele>
        <time>2021-03-27T18:14:46Z</time>
      </trkpt>
      <trkpt lat="41.88538" lon="-2.724142">
        <ele>1091.15</ele>
        <time>2021-03-27T18:14:50Z</time>
      </trkpt>
      <trkpt lat="41.885292" lon="-2.72328">
        <ele>1089.54</ele>
        <time>2021-03-27T18:14:53Z</time>
      </trkpt>
      <trkpt lat="41.885227" lon="-2.722844">
        <ele>1089.88</ele>
        <time>2021-03-27T18:14:57Z</time>
      </trkpt>
      <trkpt lat="41.88516" lon="-2.722563">
        <ele>1089.99</ele>
        <time>2021-03-27T18:15:01Z</time>
      </trkpt>
      <trkpt lat="41.885055" lon="-2.72237">
        <ele>1091.03</ele>
        <time>2021-03-27T18:15:04Z</time>
      </trkpt>
      <trkpt lat="41.884904" lon="-2.722203">
        <ele>1091.89</ele>
        <time>2021-03-27T18:15:08Z</time>
      </trkpt>
      <trkpt lat="41.88415" lon="-2.721808">
        <ele>1090.79</ele>
        <time>2021-03-27T18:15:12Z</time>
      </trkpt>
      <trkpt lat="41.883937" lon="-2.721627">
        <ele>1090.98</ele>
        <time>2021-03-27T18:15:16Z</time>
      </trkpt>
      <trkpt lat="41.883363" lon="-2.720858">
        <ele>1088.96</ele>
        <time>2021-03-27T18:15:19Z</time>
      </trkpt>
      <trkpt lat="41.883052" lon="-2.720524">
        <ele>1091.41</ele>
        <time>2021-03-27T18:15:23Z</time>
      </trkpt>
      <trkpt lat="41.882154" lon="-2.719639">
        <ele>1093.27</ele>
        <time>2021-03-27T18:15:27Z</time>
      </trkpt>
      <trkpt lat="41.88208" lon="-2.719547">
        <ele>1093.6</ele>
        <time>2021-03-27T18:15:30Z</time>
      </trkpt>
      <trkpt lat="41.881177" lon="-2.71806">
        <ele>1099.42</ele>
        <time>2021-03-27T18:15:34Z</time>
      </trkpt>
      <trkpt lat="41.880813" lon="-2.717358">
        <ele>1098.86</ele>
        <time>2021-03-27T18:15:38Z</time>
      </trkpt>
      <trkpt lat="41.880659" lon="-2.716982">
        <ele>1100.1</ele>
        <time>2021-03-27T18:15:41Z</time>
      </trkpt>
      <trkpt lat="41.880573" lon="-2.716627">
        <ele>1102.28</ele>
        <time>2021-03-27T18:15:45Z</time>
      </trkpt>
      <trkpt lat="41.880531" lon="-2.716252">
        <ele>1103.27</ele>
        <time>2021-03-27T18:15:49Z</time>
      </trkpt>
      <trkpt lat="41.880526" lon="-2.715096">
        <ele>1105.85</ele>
        <time>2021-03-27T18:15:53Z</time>
      </trkpt>
      <trkpt lat="41.880459" lon="-2.713999">
        <ele>1107.65</ele>
        <time>2021-03-27T18:15:56Z</time>
      </trkpt>
      <trkpt lat="41.880437" lon="-2.713332">
        <ele>1107.57</ele>
        <time>2021-03-27T18:16:00Z</time>
      </trkpt>
      <trkpt lat="41.880472" lon="-2.712911">
        <ele>1105.82</ele>
        <time>2021-03-27T18:16:04Z</time>
      </trkpt>
      <trkpt lat="41.880523" lon="-2.712628">
        <ele>1104.94</ele>
        <time>2021-03-27T18:16:07Z</time>
      </trkpt>
      <trkpt lat="41.880658" lon="-2.712054">
        <ele>1105.37</ele>
        <time>2021-03-27T18:16:11Z</time>
      </trkpt>
      <trkpt lat="41.881467" lon="-2.708748">
        <ele>1098.63</ele>
        <time>2021-03-27T18:16:15Z</time>
      </trkpt>
      <trkpt lat="41.881872" lon="-2.707288">
        <ele>1095.97</ele>
        <time>2021-03-27T18:16:18Z</time>
      </trkpt>
      <trkpt lat="41.881964" lon="-2.707017">
        <ele>1095.4</ele>
        <time>2021-03-27T18:16:22Z</time>
      </trkpt>
      <trkpt lat="41.882154" lon="-2.706674">
        <ele>1095.77</ele>
        <time>2021-03-27T18:16:26Z</time>
      </trkpt>
      <trkpt lat="41.882322" lon="-2.706434">
        <ele>1095.76</ele>
        <time>2021-03-27T18:16:29Z</time>
      </trkpt>
      <trkpt lat="41.882536" lon="-2.706208">
        <ele>1094.79</ele>
        <time>2021-03-27T18:16:33Z</time>
      </trkpt>
      <trkpt lat="41.882788" lon="-2.706022">
        <ele>1092.67</ele>
        <time>2021-03-27T18:16:37Z</time>
      </trkpt>
      <trkpt lat="41.883051" lon="-2.70589">
        <ele>1091.42</ele>
        <time>2021-03-27T18:16:41Z</time>
      </trkpt>
      <trkpt lat="41.883375" lon="-2.705817">
        <ele>1090.74</ele>
        <time>2021-03-27T18:16:44Z</time>
      </trkpt>
      <trkpt lat="41.884193" lon="-2.7057">
        <ele>1085.32</ele>
        <time>2021-03-27T18:16:48Z</time>
      </trkpt>
      <trkpt lat="41.884413" lon="-2.705647">
        <ele>1082.92</ele>
        <time>2021-03-27T18:16:52Z</time>
      </trkpt>
      <trkpt lat="41.884666" lon="-2.705561">
        <ele>1081.26</ele>
        <time>2021-03-27T18:16:55Z</time>
      </trkpt>
      <trkpt lat="41.884902" lon="-2.705415">
        <ele>1081.6</ele>
        <time>2021-03-27T18:16:59Z</time>
      </trkpt>
      <trkpt lat="41.885119" lon="-2.705247">
        <ele>1081.91</ele>
        <time>2021-03-27T18:17:03Z</time>
      </trkpt>
      <trkpt lat="41.885358" lon="-2.705022">
        <ele>1080.91</ele>
        <time>2021-03-27T18:17:06Z</time>
      </trkpt>
      <trkpt lat="41.886127" lon="-2.704216">
        <ele>1074.7</ele>
        <time>2021-03-27T18:17:10Z</time>
      </trkpt>
      <trkpt lat="41.886405" lon="-2.703865">
        <ele>1071.83</ele>
        <time>2021-03-27T18:17:14Z</time>
      </trkpt>
      <trkpt lat="41.886582" lon="-2.703491">
        <ele>1069.7</ele>
        <time>2021-03-27T18:17:18Z</time>
      </trkpt>
      <trkpt lat="41.886674" lon="-2.703218">
        <ele>1068.98</ele>
        <time>2021-03-27T18:17:21Z</time>
      </trkpt>
      <trkpt lat="41.886764" lon="-2.702864">
        <ele>1067.85</ele>
        <time>2021-03-27T18:17:25Z</time>
      </trkpt>
      <trkpt lat="41.886823" lon="-2.702475">
        <ele>1067.01</ele>
        <time>2021-03-27T18:17:29Z</time>
      </trkpt>
      <trkpt lat="41.886833" lon="-2.702031">
        <ele>1067.61</ele>
        <time>2021-03-27T18:17:32Z</time>
      </trkpt>
      <trkpt lat="41.886728" lon="-2.700777">
        <ele>1073.02</ele>
        <time>2021-03-27T18:17:36Z</time>
      </trkpt>
      <trkpt lat="41.886724" lon="-2.699979">
        <ele>1070.4</ele>
        <time>2021-03-27T18:17:40Z</time>
      </trkpt>
      <trkpt lat="41.887728" lon="-2.692362">
        <ele>1074.09</ele>
        <time>2021-03-27T18:17:43Z</time>
      </trkpt>
      <trkpt lat="41.887786" lon="-2.691798">
        <ele>1071.02</ele>
        <time>2021-03-27T18:17:47Z</time>
      </trkpt>
      <trkpt lat="41.887794" lon="-2.691071">
        <ele>1071.05</ele>
        <time>2021-03-27T18:17:51Z</time>
      </trkpt>
      <trkpt lat="41.887733" lon="-2.69035">
        <ele>1072.74</ele>
        <time>2021-03-27T18:17:55Z</time>
      </trkpt>
      <trkpt lat="41.887458" lon="-2.688694">
        <ele>1070.6</ele>
        <time>2021-03-27T18:17:58Z</time>
      </trkpt>
      <trkpt lat="41.887408" lon="-2.688196">
        <ele>1068.84</ele>
        <time>2021-03-27T18:18:02Z</time>
      </trkpt>
      <trkpt lat="41.887404" lon="-2.687809">
        <ele>1066.26</ele>
        <time>2021-03-27T18:18:06Z</time>
      </trkpt>
      <trkpt lat="41.887427" lon="-2.687423">
        <ele>1063.52</ele>
        <time>2021-03-27T18:18:09Z</time>
      </trkpt>
      <trkpt lat="41.887507" lon="-2.687018">
        <ele>1062.01</ele>
        <time>2021-03-27T18:18:13Z</time>
      </trkpt>
      <trkpt lat="41.887656" lon="-2.686502">
        <ele>1060.08</ele>
        <time>2021-03-27T18:18:17Z</time>
      </trkpt>
      <trkpt lat="41.8881" lon="-2.685352">
        <ele>1055.81</ele>
        <time>2021-03-27T18:18:20Z</time>
      </trkpt>
      <trkpt lat="41.895124" lon="-2.667473">
        <ele>1042.05</ele>
        <time>2021-03-27T18:18:24Z</time>
      </trkpt>
      <trkpt lat="41.895949" lon="-2.665327">
        <ele>1041.82</ele>
        <time>2021-03-27T18:18:28Z</time>
      </trkpt>
      <trkpt lat="41.896152" lon="-2.664643">
        <ele>1041.44</ele>
        <time>2021-03-27T18:18:32Z</time>
      </trkpt>
      <trkpt lat="41.896335" lon="-2.6639">
        <ele>1042.35</ele>
        <time>2021-03-27T18:18:35Z</time>
      </trkpt>
      <trkpt lat="41.897595" lon="-2.658127">
        <ele>1039.43</ele>
        <time>2021-03-27T18:18:39Z</time>
      </trkpt>
      <trkpt lat="41.897819" lon="-2.657432">
        <ele>1040.0</ele>
        <time>2021-03-27T18:18:43Z</time>
      </trkpt>
      <trkpt lat="41.898712" lon="-2.65589">
        <ele>1045.44</ele>
        <time>2021-03-27T18:18:46Z</time>
      </trkpt>
      <trkpt lat="41.899224" lon="-2.655036">
        <ele>1043.26</ele>
        <time>2021-03-27T18:18:50Z</time>
      </trkpt>
      <trkpt lat="41.899572" lon="-2.654586">
        <ele>1042.97</ele>
        <time>2021-03-27T18:18:54Z</time>
      </trkpt>
      <trkpt lat="41.899902" lon="-2.654236">
        <ele>1042.9</ele>
        <time>2021-03-27T18:18:57Z</time>
      </trkpt>
      <trkpt lat="41.901239" lon="-2.652921">
        <ele>1041.97</ele>
        <time>2021-03-27T18:19:01Z</time>
      </trkpt>
      <trkpt lat="41.901568" lon="-2.652536">
        <ele>1043.6</ele>
        <time>2021-03-27T18:19:05Z</time>
      </trkpt>
      <trkpt lat="41.90228" lon="-2.651454">
        <ele>1043.21</ele>
        <time>2021-03-27T18:19:09Z</time>
      </trkpt>
      <trkpt lat="41.902662" lon="-2.650967">
        <ele>1044.21</ele>
        <time>2021-03-27T18:19:12Z</time>
      </trkpt>
      <trkpt lat="41.906386" lon="-2.64742">
        <ele>1051.29</ele>
        <time>2021-03-27T18:19:16Z</time>
      </trkpt>
      <trkpt lat="41.906674" lon="-2.647087">
        <ele>1052.51</ele>
        <time>2021-03-27T18:19:20Z</time>
      </trkpt>
      <trkpt lat="41.907144" lon="-2.646449">
        <ele>1056.34</ele>
        <time>2021-03-27T18:19:23Z</time>
      </trkpt>
      <trkpt lat="41.907423" lon="-2.646036">
        <ele>1060.01</ele>
        <time>2021-03-27T18:19:27Z</time>
      </trkpt>
      <trkpt lat="41.907629" lon="-2.645667">
        <ele>1061.94</ele>
        <time>2021-03-27T18:19:31Z</time>
      </trkpt>
      <trkpt lat="41.90827" lon="-2.645844">
        <ele>1061.54</ele>
        <time>2021-03-27T18:19:33Z</time>
      </trkpt>
      <trkpt lat="41.908596" lon="-2.64591">
        <ele>1062.94</ele>
        <time>2021-03-27T18:19:36Z</time>
      </trkpt>
      <trkpt lat="41.908684" lon="-2.645846">
        <ele>1063.26</ele>
        <time>2021-03-27T18:19:38Z</time>
      </trkpt>
      <trkpt lat="41.908713" lon="-2.645752">
        <ele>1063.55</ele>
        <time>2021-03-27T18:19:41Z</time>
      </trkpt>
      <trkpt lat="41.908753" lon="-2.645472">
        <ele>1064.3</ele>
        <time>2021-03-27T18:19:43Z</time>
      </trkpt>
      <trkpt lat="41.908789" lon="-2.645403">
        <ele>1064.55</ele>
        <time>2021-03-27T18:19:46Z</time>
      </trkpt>
      <trkpt lat="41.908872" lon="-2.645406">
        <ele>1064.54</ele>
        <time>2021-03-27T18:19:51Z</time>
      </trkpt>
      <trkpt lat="41.909217" lon="-2.645575">
        <ele>1065.06</ele>
        <time>2021-03-27T18:19:56Z</time>
      </trkpt>
      <trkpt lat="41.910882" lon="-2.646491">
        <ele>1068.04</ele>
        <time>2021-03-27T18:20:01Z</time>
      </trkpt>
      <trkpt lat="41.912115" lon="-2.646631">
        <ele>1074.05</ele>
        <time>2021-03-27T18:20:06Z</time>
      </trkpt>
      <trkpt lat="41.912943" lon="-2.646799">
        <ele>1080.78</ele>
        <time>2021-03-27T18:20:11Z</time>
      </trkpt>
      <trkpt lat="41.913739" lon="-2.647096">
        <ele>1088.12</ele>
        <time>2021-03-27T18:20:16Z</time>
      </trkpt>
      <trkpt lat="41.915193" lon="-2.647887">
        <ele>1096.84</ele>
        <time>2021-03-27T18:20:22Z</time>
      </trkpt>
      <trkpt lat="41.916773" lon="-2.648434">
        <ele>1107.52</ele>
        <time>2021-03-27T18:20:27Z</time>
      </trkpt>
      <trkpt lat="41.917235" lon="-2.648749">
        <ele>1106.74</ele>
        <time>2021-03-27T18:20:32Z</time>
      </trkpt>
      <trkpt lat="41.918612" lon="-2.650042">
        <ele>1120.86</ele>
        <time>2021-03-27T18:20:37Z</time>
      </trkpt>
      <trkpt lat="41.918896" lon="-2.650266">
        <ele>1124.19</ele>
        <time>2021-03-27T18:20:42Z</time>
      </trkpt>
      <trkpt lat="41.919124" lon="-2.650393">
        <ele>1124.86</ele>
        <time>2021-03-27T18:20:47Z</time>
      </trkpt>
      <trkpt lat="41.919365" lon="-2.650485">
        <ele>1126.48</ele>
        <time>2021-03-27T18:20:52Z</time>
      </trkpt>
      <trkpt lat="41.919619" lon="-2.65055">
        <ele>1127.99</ele>
        <time>2021-03-27T18:20:58Z</time>
      </trkpt>
      <trkpt lat="41.9204" lon="-2.650596">
        <ele>1134.51</ele>
        <time>2021-03-27T18:21:03Z</time>
      </trkpt>
      <trkpt lat="41.920506" lon="-2.65047">
        <ele>1136.57</ele>
        <time>2021-03-27T18:21:08Z</time>
      </trkpt>
      <trkpt lat="41.92093" lon="-2.6503">
        <ele>1142.22</ele>
        <time>2021-03-27T18:21:13Z</time>
      </trkpt>
      <trkpt lat="41.921186" lon="-2.6503">
        <ele>1145.94</ele>
        <time>2021-03-27T18:21:18Z</time>
      </trkpt>
      <trkpt lat="41.921414" lon="-2.650535">
        <ele>1148.43</ele>
        <time>2021-03-27T18:21:23Z</time>
      </trkpt>
      <trkpt lat="41.921617" lon="-2.650831">
        <ele>1149.31</ele>
        <time>2021-03-27T18:21:28Z</time>
      </trkpt>
      <trkpt lat="41.921645" lon="-2.651035">
        <ele>1147.5</ele>
        <time>2021-03-27T18:21:34Z</time>
      </trkpt>
      <trkpt lat="41.921771" lon="-2.651147">
        <ele>1148.53</ele>
        <time>2021-03-27T18:21:39Z</time>
      </trkpt>
      <trkpt lat="41.92198" lon="-2.651417">
        <ele>1150.64</ele>
        <time>2021-03-27T18:21:44Z</time>
      </trkpt>
      <trkpt lat="41.922161" lon="-2.651744">
        <ele>1152.34</ele>
        <time>2021-03-27T18:21:49Z</time>
      </trkpt>
      <trkpt lat="41.922646" lon="-2.652983">
        <ele>1156.68</ele>
        <time>2021-03-27T18:21:54Z</time>
      </trkpt>
      <trkpt lat="41.922827" lon="-2.653315">
        <ele>1160.9</ele>
        <time>2021-03-27T18:21:59Z</time>
      </trkpt>
      <trkpt lat="41.923001" lon="-2.653557">
        <ele>1163.22</ele>
        <time>2021-03-27T18:22:04Z</time>
      </trkpt>
      <trkpt lat="41.923211" lon="-2.653769">
        <ele>1165.35</ele>
        <time>2021-03-27T18:22:10Z</time>
      </trkpt>
      <trkpt lat="41.923462" lon="-2.653943">
        <ele>1166.9</ele>
        <time>2021-03-27T18:22:15Z</time>
      </trkpt>
      <trkpt lat="41.923722" lon="-2.654069">
        <ele>1169.45</ele>
        <time>2021-03-27T18:22:20Z</time>
      </trkpt>
      <trkpt lat="41.924477" lon="-2.654281">
        <ele>1174.81</ele>
        <time>2021-03-27T18:22:25Z</time>
      </trkpt>
      <trkpt lat="41.924786" lon="-2.654424">
        <ele>1177.88</ele>
        <time>2021-03-27T18:22:30Z</time>
      </trkpt>
      <trkpt lat="41.925063" lon="-2.654611">
        <ele>1182.34</ele>
        <time>2021-03-27T18:22:35Z</time>
      </trkpt>
      <trkpt lat="41.925427" lon="-2.65497">
        <ele>1181.4</ele>
        <time>2021-03-27T18:22:40Z</time>
      </trkpt>
      <trkpt lat="41.925611" lon="-2.655238">
        <ele>1183.05</ele>
        <time>2021-03-27T18:22:46Z</time>
      </trkpt>
      <trkpt lat="41.925824" lon="-2.655639">
        <ele>1186.16</ele>
        <time>2021-03-27T18:22:51Z</time>
      </trkpt>
      <trkpt lat="41.925968" lon="-2.656073">
        <ele>1189.84</ele>
        <time>2021-03-27T18:22:56Z</time>
      </trkpt>
      <trkpt lat="41.926693" lon="-2.660404">
        <ele>1211.43</ele>
        <time>2021-03-27T18:23:01Z</time>
      </trkpt>
      <trkpt lat="41.926729" lon="-2.660989">
        <ele>1216.02</ele>
        <time>2021-03-27T18:23:06Z</time>
      </trkpt>
      <trkpt lat="41.926696" lon="-2.662177">
        <ele>1222.76</ele>
        <time>2021-03-27T18:23:11Z</time>
      </trkpt>
      <trkpt lat="41.926716" lon="-2.66253">
        <ele>1224.66</ele>
        <time>2021-03-27T18:23:16Z</time>
      </trkpt>
      <trkpt lat="41.926757" lon="-2.66289">
        <ele>1227.11</ele>
        <time>2021-03-27T18:23:22Z</time>
      </trkpt>
      <trkpt lat="41.926829" lon="-2.663218">
        <ele>1230.27</ele>
        <time>2021-03-27T18:23:27Z</time>
      </trkpt>
      <trkpt lat="41.926979" lon="-2.663663">
        <ele>1233.35</ele>
        <time>2021-03-27T18:23:32Z</time>
      </trkpt>
      <trkpt lat="41.927173" lon="-2.664043">
        <ele>1234.74</ele>
        <time>2021-03-27T18:23:37Z</time>
      </trkpt>
      <trkpt lat="41.927454" lon="-2.664423">
        <ele>1234.36</ele>
        <time>2021-03-27T18:23:42Z</time>
      </trkpt>
      <trkpt lat="41.928143" lon="-2.665158">
        <ele>1229.75</ele>
        <time>2021-03-27T18:23:47Z</time>
      </trkpt>
      <trkpt lat="41.929253" lon="-2.66632">
        <ele>1229.06</ele>
        <time>2021-03-27T18:23:52Z</time>
      </trkpt>
      <trkpt lat="41.929562" lon="-2.666559">
        <ele>1227.68</ele>
        <time>2021-03-27T18:23:57Z</time>
      </trkpt>
      <trkpt lat="41.929881" lon="-2.666695">
        <ele>1225.53</ele>
        <time>2021-03-27T18:24:03Z</time>
      </trkpt>
      <trkpt lat="41.930169" lon="-2.666728">
        <ele>1224.28</ele>
        <time>2021-03-27T18:24:08Z</time>
      </trkpt>
      <trkpt lat="41.930454" lon="-2.666674">
        <ele>1222.98</ele>
        <time>2021-03-27T18:24:13Z</time>
      </trkpt>
      <trkpt lat="41.930667" lon="-2.666579">
        <ele>1220.86</ele>
        <time>2021-03-27T18:24:18Z</time>
      </trkpt>
      <trkpt lat="41.930863" lon="-2.666461">
        <ele>1217.39</ele>
        <time>2021-03-27T18:24:23Z</time>
      </trkpt>
      <trkpt lat="41.931032" lon="-2.66631">
        <ele>1216.74</ele>
        <time>2021-03-27T18:24:28Z</time>
      </trkpt>
      <trkpt lat="41.931193" lon="-2.666124">
        <ele>1215.74</ele>
        <time>2021-03-27T18:24:33Z</time>
      </trkpt>
      <trkpt lat="41.931321" lon="-2.665915">
        <ele>1213.79</ele>
        <time>2021-03-27T18:24:39Z</time>
      </trkpt>
      <trkpt lat="41.931423" lon="-2.6657">
        <ele>1211.86</ele>
        <time>2021-03-27T18:24:44Z</time>
      </trkpt>
      <trkpt lat="41.93149" lon="-2.665502">
        <ele>1211.89</ele>
        <time>2021-03-27T18:24:49Z</time>
      </trkpt>
      <trkpt lat="41.931576" lon="-2.665114">
        <ele>1215.13</ele>
        <time>2021-03-27T18:24:54Z</time>
      </trkpt>
      <trkpt lat="41.931744" lon="-2.664091">
        <ele>1215.87</ele>
        <time>2021-03-27T18:24:59Z</time>
      </trkpt>
      <trkpt lat="41.931918" lon="-2.66331">
        <ele>1209.26</ele>
        <time>2021-03-27T18:25:04Z</time>
      </trkpt>
      <trkpt lat="41.932754" lon="-2.661332">
        <ele>1204.4</ele>
        <time>2021-03-27T18:25:09Z</time>
      </trkpt>
      <trkpt lat="41.932858" lon="-2.66097">
        <ele>1200.18</ele>
        <time>2021-03-27T18:25:15Z</time>
      </trkpt>
      <trkpt lat="41.93294" lon="-2.660608">
        <ele>1196.36</ele>
        <time>2021-03-27T18:25:20Z</time>
      </trkpt>
      <trkpt lat="41.932974" lon="-2.660093">
        <ele>1194.71</ele>
        <time>2021-03-27T18:25:25Z</time>
      </trkpt>
      <trkpt lat="41.932967" lon="-2.65822">
        <ele>1194.95</ele>
        <time>2021-03-27T18:25:30Z</time>
      </trkpt>
      <trkpt lat="41.932861" lon="-2.657164">
        <ele>1191.53</ele>
        <time>2021-03-27T18:25:35Z</time>
      </trkpt>
      <trkpt lat="41.932848" lon="-2.656541">
        <ele>1187.88</ele>
        <time>2021-03-27T18:25:40Z</time>
      </trkpt>
      <trkpt lat="41.932946" lon="-2.655882">
        <ele>1183.17</ele>
        <time>2021-03-27T18:25:45Z</time>
      </trkpt>
      <trkpt lat="41.933136" lon="-2.655009">
        <ele>1184.26</ele>
        <time>2021-03-27T18:25:51Z</time>
      </trkpt>
      <trkpt lat="41.933197" lon="-2.654429">
        <ele>1180.99</ele>
        <time>2021-03-27T18:25:56Z</time>
      </trkpt>
      <trkpt lat="41.933228" lon="-2.653601">
        <ele>1183.07</ele>
        <time>2021-03-27T18:26:01Z</time>
      </trkpt>
      <trkpt lat="41.933241" lon="-2.652799">
        <ele>1175.11</ele>
        <time>2021-03-27T18:26:06Z</time>
      </trkpt>
      <trkpt lat="41.93327" lon="-2.652364">
        <ele>1177.67</ele>
        <time>2021-03-27T18:26:11Z</time>
      </trkpt>
      <trkpt lat="41.933332" lon="-2.652103">
        <ele>1177.91</ele>
        <time>2021-03-27T18:26:16Z</time>
      </trkpt>
      <trkpt lat="41.933403" lon="-2.651851">
        <ele>1177.15</ele>
        <time>2021-03-27T18:26:21Z</time>
      </trkpt>
      <trkpt lat="41.933598" lon="-2.651501">
        <ele>1173.51</ele>
        <time>2021-03-27T18:26:27Z</time>
      </trkpt>
      <trkpt lat="41.933767" lon="-2.651302">
        <ele>1171.33</ele>
        <time>2021-03-27T18:26:32Z</time>
      </trkpt>
      <trkpt lat="41.934839" lon="-2.650351">
        <ele>1164.17</ele>
        <time>2021-03-27T18:26:37Z</time>
      </trkpt>
      <trkpt lat="41.935119" lon="-2.650046">
        <ele>1165.19</ele>
        <time>2021-03-27T18:26:42Z</time>
      </trkpt>
      <trkpt lat="41.935337" lon="-2.649724">
        <ele>1164.48</ele>
        <time>2021-03-27T18:26:47Z</time>
      </trkpt>
      <trkpt lat="41.935535" lon="-2.64935">
        <ele>1161.28</ele>
        <time>2021-03-27T18:26:52Z</time>
      </trkpt>
      <trkpt lat="41.935661" lon="-2.649015">
        <ele>1161.54</ele>
        <time>2021-03-27T18:26:57Z</time>
      </trkpt>
      <trkpt lat="41.935766" lon="-2.648584">
        <ele>1160.55</ele>
        <time>2021-03-27T18:27:03Z</time>
      </trkpt>
      <trkpt lat="41.935826" lon="-2.648168">
        <ele>1160.17</ele>
        <time>2021-03-27T18:27:08Z</time>
      </trkpt>
      <trkpt lat="41.935848" lon="-2.647687">
        <ele>1159.59</ele>
        <time>2021-03-27T18:27:13Z</time>
      </trkpt>
      <trkpt lat="41.935773" lon="-2.646292">
        <ele>1157.43</ele>
        <time>2021-03-27T18:27:18Z</time>
      </trkpt>
      <trkpt lat="41.93574" lon="-2.645374">
        <ele>1158.21</ele>
        <time>2021-03-27T18:27:23Z</time>
      </trkpt>
      <trkpt lat="41.935766" lon="-2.644702">
        <ele>1157.25</ele>
        <time>2021-03-27T18:27:28Z</time>
      </trkpt>
      <trkpt lat="41.935847" lon="-2.644077">
        <ele>1153.15</ele>
        <time>2021-03-27T18:27:33Z</time>
      </trkpt>
      <trkpt lat="41.93605" lon="-2.643241">
        <ele>1152.98</ele>
        <time>2021-03-27T18:27:39Z</time>
      </trkpt>
      <trkpt lat="41.93656" lon="-2.641406">
        <ele>1153.45</ele>
        <time>2021-03-27T18:27:44Z</time>
      </trkpt>
      <trkpt lat="41.938197" lon="-2.637097">
        <ele>1150.27</ele>
        <time>2021-03-27T18:27:49Z</time>
      </trkpt>
      <trkpt lat="41.938561" lon="-2.636406">
        <ele>1150.12</ele>
        <time>2021-03-27T18:27:54Z</time>
      </trkpt>
      <trkpt lat="41.939064" lon="-2.635714">
        <ele>1143.96</ele>
        <time>2021-03-27T18:27:59Z</time>
      </trkpt>
      <trkpt lat="41.939392" lon="-2.635193">
        <ele>1145.61</ele>
        <time>2021-03-27T18:28:04Z</time>
      </trkpt>
      <trkpt lat="41.939536" lon="-2.634905">
        <ele>1144.34</ele>
        <time>2021-03-27T18:28:09Z</time>
      </trkpt>
      <trkpt lat="41.939691" lon="-2.63448">
        <ele>1140.67</ele>
        <time>2021-03-27T18:28:15Z</time>
      </trkpt>
      <trkpt lat="41.94107" lon="-2.628969">
        <ele>1132.3</ele>
        <time>2021-03-27T18:28:20Z</time>
      </trkpt>
      <trkpt lat="41.941223" lon="-2.628162">
        <ele>1134.61</ele>
        <time>2021-03-27T18:28:25Z</time>
      </trkpt>
      <trkpt lat="41.941269" lon="-2.627639">
        <ele>1133.36</ele>
        <time>2021-03-27T18:28:30Z</time>
      </trkpt>
      <trkpt lat="41.941256" lon="-2.627127">
        <ele>1131.44</ele>
        <time>2021-03-27T18:28:35Z</time>
      </trkpt>
      <trkpt lat="41.941193" lon="-2.626559">
        <ele>1132.2</ele>
        <time>2021-03-27T18:28:40Z</time>
      </trkpt>
      <trkpt lat="41.940523" lon="-2.622223">
        <ele>1125.94</ele>
        <time>2021-03-27T18:28:45Z</time>
      </trkpt>
      <trkpt lat="41.940431" lon="-2.621753">
        <ele>1125.52</ele>
        <time>2021-03-27T18:28:51Z</time>
      </trkpt>
      <trkpt lat="41.940272" lon="-2.621258">
        <ele>1125.18</ele>
        <time>2021-03-27T18:28:56Z</time>
      </trkpt>
      <trkpt lat="41.939527" lon="-2.6195">
        <ele>1123.02</ele>
        <time>2021-03-27T18:29:01Z</time>
      </trkpt>
      <trkpt lat="41.938885" lon="-2.618372">
        <ele>1123.82</ele>
        <time>2021-03-27T18:29:06Z</time>
      </trkpt>
      <trkpt lat="41.938704" lon="-2.617957">
        <ele>1125.38</ele>
        <time>2021-03-27T18:29:11Z</time>
      </trkpt>
      <trkpt lat="41.938551" lon="-2.61749">
        <ele>1124.64</ele>
        <time>2021-03-27T18:29:16Z</time>
      </trkpt>
      <trkpt lat="41.938345" lon="-2.616681">
        <ele>1122.07</ele>
        <time>2021-03-27T18:29:21Z</time>
      </trkpt>
      <trkpt lat="41.938194" lon="-2.616246">
        <ele>1121.21</ele>
        <time>2021-03-27T18:29:27Z</time>
      </trkpt>
      <trkpt lat="41.937933" lon="-2.615777">
        <ele>1118.39</ele>
        <time>2021-03-27T18:29:32Z</time>
      </trkpt>
      <trkpt lat="41.937437" lon="-2.615107">
        <ele>1119.15</ele>
        <time>2021-03-27T18:29:37Z</time>
      </trkpt>
      <trkpt lat="41.93719" lon="-2.614729">
        <ele>1118.64</ele>
        <time>2021-03-27T18:29:42Z</time>
      </trkpt>
      <trkpt lat="41.936504" lon="-2.613392">
        <ele>1118.96</ele>
        <time>2021-03-27T18:29:47Z</time>
      </trkpt>
      <trkpt lat="41.936219" lon="-2.61292">
        <ele>1117.56</ele>
        <time>2021-03-27T18:29:52Z</time>
      </trkpt>
      <trkpt lat="41.934923" lon="-2.611149">
        <ele>1114.83</ele>
        <time>2021-03-27T18:29:57Z</time>
      </trkpt>
      <trkpt lat="41.934621" lon="-2.610677">
        <ele>1114.06</ele>
        <time>2021-03-27T18:30:03Z</time>
      </trkpt>
      <trkpt lat="41.934327" lon="-2.610126">
        <ele>1116.25</ele>
        <time>2021-03-27T18:30:08Z</time>
      </trkpt>
      <trkpt lat="41.93389" lon="-2.609009">
        <ele>1115.27</ele>
        <time>2021-03-27T18:30:13Z</time>
      </trkpt>
      <trkpt lat="41.933014" lon="-2.60667">
        <ele>1112.9</ele>
        <time>2021-03-27T18:30:18Z</time>
      </trkpt>
      <trkpt lat="41.932744" lon="-2.605902">
        <ele>1111.01</ele>
        <time>2021-03-27T18:30:23Z</time>
      </trkpt>
      <trkpt lat="41.932676" lon="-2.605609">
        <ele>1110.36</ele>
        <time>2021-03-27T18:30:28Z</time>
      </trkpt>
      <trkpt lat="41.932633" lon="-2.605307">
        <ele>1111.02</ele>
        <time>2021-03-27T18:30:33Z</time>
      </trkpt>
      <trkpt lat="41.932586" lon="-2.604349">
        <ele>1108.83</ele>
        <time>2021-03-27T18:30:38Z</time>
      </trkpt>
      <trkpt lat="41.93276" lon="-2.603668">
        <ele>1108.26</ele>
        <time>2021-03-27T18:30:44Z</time>
      </trkpt>
      <trkpt lat="41.932989" lon="-2.60304">
        <ele>1104.24</ele>
        <time>2021-03-27T18:30:49Z</time>
      </trkpt>
      <trkpt lat="41.933726" lon="-2.601838">
        <ele>1100.19</ele>
        <time>2021-03-27T18:30:54Z</time>
      </trkpt>
      <trkpt lat="41.933916" lon="-2.601381">
        <ele>1101.19</ele>
        <time>2021-03-27T18:30:59Z</time>
      </trkpt>
      <trkpt lat="41.93406" lon="-2.600798">
        <ele>1102.85</ele>
        <time>2021-03-27T18:31:04Z</time>
      </trkpt>
      <trkpt lat="41.937033" lon="-2.585987">
        <ele>1100.14</ele>
        <time>2021-03-27T18:31:09Z</time>
      </trkpt>
      <trkpt lat="41.937353" lon="-2.584309">
        <ele>1106.26</ele>
        <time>2021-03-27T18:31:14Z</time>
      </trkpt>
      <trkpt lat="41.938967" lon="-2.576375">
        <ele>1118.32</ele>
        <time>2021-03-27T18:31:20Z</time>
      </trkpt>
      <trkpt lat="41.939116" lon="-2.575717">
        <ele>1120.34</ele>
        <time>2021-03-27T18:31:25Z</time>
      </trkpt>
      <trkpt lat="41.93945" lon="-2.574867">
        <ele>1126.02</ele>
        <time>2021-03-27T18:31:30Z</time>
      </trkpt>
      <trkpt lat="41.939534" lon="-2.574443">
        <ele>1125.64</ele>
        <time>2021-03-27T18:31:35Z</time>
      </trkpt>
      <trkpt lat="41.939531" lon="-2.573827">
        <ele>1125.16</ele>
        <time>2021-03-27T18:31:40Z</time>
      </trkpt>
      <trkpt lat="41.93946" lon="-2.572644">
        <ele>1124.62</ele>
        <time>2021-03-27T18:31:45Z</time>
      </trkpt>
      <trkpt lat="41.939395" lon="-2.571032">
        <ele>1122.88</ele>
        <time>2021-03-27T18:31:50Z</time>
      </trkpt>
      <trkpt lat="41.939023" lon="-2.564761">
        <ele>1115.59</ele>
        <time>2021-03-27T18:31:56Z</time>
      </trkpt>
      <trkpt lat="41.938968" lon="-2.564079">
        <ele>1113.85</ele>
        <time>2021-03-27T18:32:01Z</time>
      </trkpt>
      <trkpt lat="41.938893" lon="-2.563637">
        <ele>1112.14</ele>
        <time>2021-03-27T18:32:06Z</time>
      </trkpt>
      <trkpt lat="41.938781" lon="-2.563137">
        <ele>1111.18</ele>
        <time>2021-03-27T18:32:11Z</time>
      </trkpt>
      <trkpt lat="41.938579" lon="-2.562608">
        <ele>1111.5</ele>
        <time>2021-03-27T18:32:16Z</time>
      </trkpt>
      <trkpt lat="41.938348" lon="-2.562204">
        <ele>1113.19</ele>
        <time>2021-03-27T18:32:21Z</time>
      </trkpt>
      <trkpt lat="41.93801" lon="-2.561754">
        <ele>1113.26</ele>
        <time>2021-03-27T18:32:26Z</time>
      </trkpt>
      <trkpt lat="41.934042" lon="-2.557803">
        <ele>1128.42</ele>
        <time>2021-03-27T18:32:32Z</time>
      </trkpt>
      <trkpt lat="41.933779" lon="-2.55747">
        <ele>1130.68</ele>
        <time>2021-03-27T18:32:37Z</time>
      </trkpt>
      <trkpt lat="41.933543" lon="-2.557096">
        <ele>1132.96</ele>
        <time>2021-03-27T18:32:42Z</time>
      </trkpt>
      <trkpt lat="41.933289" lon="-2.556504">
        <ele>1134.27</ele>
        <time>2021-03-27T18:32:47Z</time>
      </trkpt>
      <trkpt lat="41.928138" lon="-2.542386">
        <ele>1146.88</ele>
        <time>2021-03-27T18:32:52Z</time>
      </trkpt>
      <trkpt lat="41.927992" lon="-2.541879">
        <ele>1146.77</ele>
        <time>2021-03-27T18:32:57Z</time>
      </trkpt>
      <trkpt lat="41.927869" lon="-2.541357">
        <ele>1146.44</ele>
        <time>2021-03-27T18:33:02Z</time>
      </trkpt>
      <trkpt lat="41.927766" lon="-2.540649">
        <ele>1148.6</ele>
        <time>2021-03-27T18:33:08Z</time>
      </trkpt>
      <trkpt lat="41.927732" lon="-2.540045">
        <ele>1147.83</ele>
        <time>2021-03-27T18:33:13Z</time>
      </trkpt>
      <trkpt lat="41.927733" lon="-2.539399">
        <ele>1148.49</ele>
        <time>2021-03-27T18:33:18Z</time>
      </trkpt>
      <trkpt lat="41.927881" lon="-2.535929">
        <ele>1145.24</ele>
        <time>2021-03-27T18:33:23Z</time>
      </trkpt>
      <trkpt lat="41.927893" lon="-2.535075">
        <ele>1145.4</ele>
        <time>2021-03-27T18:33:28Z</time>
      </trkpt>
      <trkpt lat="41.92788" lon="-2.534834">
        <ele>1145.1</ele>
        <time>2021-03-27T18:33:33Z</time>
      </trkpt>
      <trkpt lat="41.927834" lon="-2.534581">
        <ele>1145.22</ele>
        <time>2021-03-27T18:33:38Z</time>
      </trkpt>
      <trkpt lat="41.927767" lon="-2.534334">
        <ele>1145.31</ele>
        <time>2021-03-27T18:33:44Z</time>
      </trkpt>
      <trkpt lat="41.927355" lon="-2.533281">
        <ele>1143.87</ele>
        <time>2021-03-27T18:33:49Z</time>
      </trkpt>
      <trkpt lat="41.926428" lon="-2.531794">
        <ele>1139.68</ele>
        <time>2021-03-27T18:33:54Z</time>
      </trkpt>
      <trkpt lat="41.925895" lon="-2.531265">
        <ele>1140.45</ele>
        <time>2021-03-27T18:33:59Z</time>
      </trkpt>
      <trkpt lat="41.925843" lon="-2.531158">
        <ele>1140.83</ele>
        <time>2021-03-27T18:34:04Z</time>
      </trkpt>
      <trkpt lat="41.925807" lon="-2.530984">
        <ele>1141.07</ele>
        <time>2021-03-27T18:34:09Z</time>
      </trkpt>
      <trkpt lat="41.925794" lon="-2.530774">
        <ele>1141.47</ele>
        <time>2021-03-27T18:34:14Z</time>
      </trkpt>
      <trkpt lat="41.925763" lon="-2.53056">
        <ele>1141.24</ele>
        <time>2021-03-27T18:34:20Z</time>
      </trkpt>
      <trkpt lat="41.925676" lon="-2.530281">
        <ele>1141.29</ele>
        <time>2021-03-27T18:34:25Z</time>
      </trkpt>
      <trkpt lat="41.925074" lon="-2.528905">
        <ele>1137.21</ele>
        <time>2021-03-27T18:34:30Z</time>
      </trkpt>
      <trkpt lat="41.924753" lon="-2.528304">
        <ele>1138.1</ele>
        <time>2021-03-27T18:34:35Z</time>
      </trkpt>
      <trkpt lat="41.919483" lon="-2.521169">
        <ele>1152.07</ele>
        <time>2021-03-27T18:34:40Z</time>
      </trkpt>
      <trkpt lat="41.919135" lon="-2.52065">
        <ele>1152.55</ele>
        <time>2021-03-27T18:34:45Z</time>
      </trkpt>
      <trkpt lat="41.918846" lon="-2.520118">
        <ele>1152.51</ele>
        <time>2021-03-27T18:34:50Z</time>
      </trkpt>
      <trkpt lat="41.918674" lon="-2.519745">
        <ele>1154.83</ele>
        <time>2021-03-27T18:34:56Z</time>
      </trkpt>
      <trkpt lat="41.91847" lon="-2.519159">
        <ele>1158.52</ele>
        <time>2021-03-27T18:35:01Z</time>
      </trkpt>
      <trkpt lat="41.918336" lon="-2.518692">
        <ele>1158.3</ele>
        <time>2021-03-27T18:35:06Z</time>
      </trkpt>
      <trkpt lat="41.918227" lon="-2.518185">
        <ele>1156.41</ele>
        <time>2021-03-27T18:35:11Z</time>
      </trkpt>
      <trkpt lat="41.918151" lon="-2.517504">
        <ele>1156.34</ele>
        <time>2021-03-27T18:35:16Z</time>
      </trkpt>
      <trkpt lat="41.917017" lon="-2.492189">
        <ele>1134.14</ele>
        <time>2021-03-27T18:35:21Z</time>
      </trkpt>
      <trkpt lat="41.91696" lon="-2.491609">
        <ele>1133.06</ele>
        <time>2021-03-27T18:35:26Z</time>
      </trkpt>
      <trkpt lat="41.916866" lon="-2.491077">
        <ele>1132.68</ele>
        <time>2021-03-27T18:35:32Z</time>
      </trkpt>
      <trkpt lat="41.916708" lon="-2.490409">
        <ele>1129.24</ele>
        <time>2021-03-27T18:35:37Z</time>
      </trkpt>
      <trkpt lat="41.91414" lon="-2.481034">
        <ele>1096.91</ele>
        <time>2021-03-27T18:35:42Z</time>
      </trkpt>
      <trkpt lat="41.914013" lon="-2.480072">
        <ele>1094.65</ele>
        <time>2021-03-27T18:35:47Z</time>
      </trkpt>
      <trkpt lat="41.914062" lon="-2.47844">
        <ele>1093.85</ele>
        <time>2021-03-27T18:35:52Z</time>
      </trkpt>
      <trkpt lat="41.913997" lon="-2.477784">
        <ele>1094.99</ele>
        <time>2021-03-27T18:35:57Z</time>
      </trkpt>
      <trkpt lat="41.913903" lon="-2.477333">
        <ele>1094.08</ele>
        <time>2021-03-27T18:36:02Z</time>
      </trkpt>
      <trkpt lat="41.913709" lon="-2.476805">
        <ele>1094.35</ele>
        <time>2021-03-27T18:36:08Z</time>
      </trkpt>
      <trkpt lat="41.913142" lon="-2.475588">
        <ele>1097.51</ele>
        <time>2021-03-27T18:36:13Z</time>
      </trkpt>
      <trkpt lat="41.912697" lon="-2.474337">
        <ele>1100.43</ele>
        <time>2021-03-27T18:36:18Z</time>
      </trkpt>
      <trkpt lat="41.912414" lon="-2.473305">
        <ele>1103.38</ele>
        <time>2021-03-27T18:36:23Z</time>
      </trkpt>
      <trkpt lat="41.912185" lon="-2.472208">
        <ele>1100.79</ele>
        <time>2021-03-27T18:36:28Z</time>
      </trkpt>
      <trkpt lat="41.911649" lon="-2.468572">
        <ele>1105.94</ele>
        <time>2021-03-27T18:36:33Z</time>
      </trkpt>
      <trkpt lat="41.911101" lon="-2.465014">
        <ele>1106.96</ele>
        <time>2021-03-27T18:36:38Z</time>
      </trkpt>
      <trkpt lat="41.911042" lon="-2.464782">
        <ele>1106.95</ele>
        <time>2021-03-27T18:36:39Z</time>
      </trkpt>
      <trkpt lat="41.911016" lon="-2.464573">
        <ele>1107.0</ele>
        <time>2021-03-27T18:36:40Z</time>
      </trkpt>
      <trkpt lat="41.911016" lon="-2.464431">
        <ele>1107.0</ele>
        <time>2021-03-27T18:36:40Z</time>
      </trkpt>
      <trkpt lat="41.911059" lon="-2.463651">
        <ele>1106.95</ele>
        <time>2021-03-27T18:36:46Z</time>
      </trkpt>
      <trkpt lat="41.911091" lon="-2.461073">
        <ele>1106.0</ele>
        <time>2021-03-27T18:36:52Z</time>
      </trkpt>
      <trkpt lat="41.911067" lon="-2.458978">
        <ele>1105.25</ele>
        <time>2021-03-27T18:36:58Z</time>
      </trkpt>
      <trkpt lat="41.910977" lon="-2.458539">
        <ele>1104.48</ele>
        <time>2021-03-27T18:37:03Z</time>
      </trkpt>
      <trkpt lat="41.909518" lon="-2.454731">
        <ele>1093.29</ele>
        <time>2021-03-27T18:37:09Z</time>
      </trkpt>
      <trkpt lat="41.909293" lon="-2.453972">
        <ele>1092.15</ele>
        <time>2021-03-27T18:37:15Z</time>
      </trkpt>
      <trkpt lat="41.909299" lon="-2.453817">
        <ele>1092.6</ele>
        <time>2021-03-27T18:37:21Z</time>
      </trkpt>
      <trkpt lat="41.909365" lon="-2.453476">
        <ele>1093.43</ele>
        <time>2021-03-27T18:37:26Z</time>
      </trkpt>
      <trkpt lat="41.909465" lon="-2.453185">
        <ele>1094.15</ele>
        <time>2021-03-27T18:37:32Z</time>
      </trkpt>
      <trkpt lat="41.909939" lon="-2.452076">
        <ele>1094.66</ele>
        <time>2021-03-27T18:37:38Z</time>
      </trkpt>
      <trkpt lat="41.910274" lon="-2.451222">
        <ele>1095.99</ele>
        <time>2021-03-27T18:37:44Z</time>
      </trkpt>
      <trkpt lat="41.910311" lon="-2.451013">
        <ele>1096.0</ele>
        <time>2021-03-27T18:37:49Z</time>
      </trkpt>
      <trkpt lat="41.910267" lon="-2.450827">
        <ele>1096.0</ele>
        <time>2021-03-27T18:37:55Z</time>
      </trkpt>
      <trkpt lat="41.909326" lon="-2.449248">
        <ele>1098.3</ele>
        <time>2021-03-27T18:38:01Z</time>
      </trkpt>
      <trkpt lat="41.908486" lon="-2.447029">
        <ele>1096.72</ele>
        <time>2021-03-27T18:38:07Z</time>
      </trkpt>
      <trkpt lat="41.908277" lon="-2.446702">
        <ele>1098.66</ele>
        <time>2021-03-27T18:38:12Z</time>
      </trkpt>
      <trkpt lat="41.90793" lon="-2.446389">
        <ele>1101.45</ele>
        <time>2021-03-27T18:38:18Z</time>
      </trkpt>
      <trkpt lat="41.904624" lon="-2.443071">
        <ele>1102.22</ele>
        <time>2021-03-27T18:38:24Z</time>
      </trkpt>
      <trkpt lat="41.903689" lon="-2.442173">
        <ele>1105.35</ele>
        <time>2021-03-27T18:38:29Z</time>
      </trkpt>
      <trkpt lat="41.903424" lon="-2.441861">
        <ele>1106.63</ele>
        <time>2021-03-27T18:38:35Z</time>
      </trkpt>
      <trkpt lat="41.901933" lon="-2.439614">
        <ele>1114.33</ele>
        <time>2021-03-27T18:38:41Z</time>
      </trkpt>
      <trkpt lat="41.901763" lon="-2.439295">
        <ele>1114.94</ele>
        <time>2021-03-27T18:38:47Z</time>
      </trkpt>
      <trkpt lat="41.90152" lon="-2.438627">
        <ele>1118.88</ele>
        <time>2021-03-27T18:38:52Z</time>
      </trkpt>
      <trkpt lat="41.901422" lon="-2.438215">
        <ele>1119.17</ele>
        <time>2021-03-27T18:38:58Z</time>
      </trkpt>
      <trkpt lat="41.901415" lon="-2.437974">
        <ele>1119.74</ele>
        <time>2021-03-27T18:39:04Z</time>
      </trkpt>
      <trkpt lat="41.901564" lon="-2.437023">
        <ele>1122.63</ele>
        <time>2021-03-27T18:39:10Z</time>
      </trkpt>
      <trkpt lat="41.901583" lon="-2.43662">
        <ele>1122.7</ele>
        <time>2021-03-27T18:39:15Z</time>
      </trkpt>
      <trkpt lat="41.901551" lon="-2.435602">
        <ele>1123.93</ele>
        <time>2021-03-27T18:39:21Z</time>
      </trkpt>
      <trkpt lat="41.90151" lon="-2.435361">
        <ele>1125.0</ele>
        <time>2021-03-27T18:39:27Z</time>
      </trkpt>
      <trkpt lat="41.901156" lon="-2.434546">
        <ele>1125.79</ele>
        <time>2021-03-27T18:39:33Z</time>
      </trkpt>
      <trkpt lat="41.900718" lon="-2.433633">
        <ele>1125.97</ele>
        <time>2021-03-27T18:39:38Z</time>
      </trkpt>
      <trkpt lat="41.900464" lon="-2.433038">
        <ele>1126.08</ele>
        <time>2021-03-27T18:39:44Z</time>
      </trkpt>
      <trkpt lat="41.898992" lon="-2.427584">
        <ele>1135.19</ele>
        <time>2021-03-27T18:39:50Z</time>
      </trkpt>
      <trkpt lat="41.898883" lon="-2.427">
        <ele>1136.82</ele>
        <time>2021-03-27T18:39:55Z</time>
      </trkpt>
      <trkpt lat="41.898861" lon="-2.426285">
        <ele>1139.3</ele>
        <time>2021-03-27T18:40:01Z</time>
      </trkpt>
      <trkpt lat="41.898862" lon="-2.423387">
        <ele>1148.24</ele>
        <time>2021-03-27T18:40:07Z</time>
      </trkpt>
      <trkpt lat="41.898873" lon="-2.42304">
        <ele>1150.0</ele>
        <time>2021-03-27T18:40:13Z</time>
      </trkpt>
      <trkpt lat="41.898958" lon="-2.422764">
        <ele>1151.52</ele>
        <time>2021-03-27T18:40:18Z</time>
      </trkpt>
      <trkpt lat="41.899556" lon="-2.42199">
        <ele>1156.47</ele>
        <time>2021-03-27T18:40:24Z</time>
      </trkpt>
      <trkpt lat="41.899629" lon="-2.421813">
        <ele>1157.96</ele>
        <time>2021-03-27T18:40:30Z</time>
      </trkpt>
      <trkpt lat="41.899642" lon="-2.421615">
        <ele>1158.95</ele>
        <time>2021-03-27T18:40:36Z</time>
      </trkpt>
      <trkpt lat="41.899596" lon="-2.421259">
        <ele>1160.46</ele>
        <time>2021-03-27T18:40:41Z</time>
      </trkpt>
      <trkpt lat="41.899513" lon="-2.42107">
        <ele>1161.3</ele>
        <time>2021-03-27T18:40:47Z</time>
      </trkpt>
      <trkpt lat="41.8994" lon="-2.420983">
        <ele>1162.07</ele>
        <time>2021-03-27T18:40:53Z</time>
      </trkpt>
      <trkpt lat="41.898812" lon="-2.420737">
        <ele>1166.08</ele>
        <time>2021-03-27T18:40:59Z</time>
      </trkpt>
      <trkpt lat="41.898614" lon="-2.4207">
        <ele>1166.87</ele>
        <time>2021-03-27T18:41:04Z</time>
      </trkpt>
      <trkpt lat="41.897542" lon="-2.420599">
        <ele>1177.36</ele>
        <time>2021-03-27T18:41:10Z</time>
      </trkpt>
      <trkpt lat="41.896824" lon="-2.420379">
        <ele>1183.65</ele>
        <time>2021-03-27T18:41:16Z</time>
      </trkpt>
      <trkpt lat="41.89671" lon="-2.420285">
        <ele>1184.81</ele>
        <time>2021-03-27T18:41:22Z</time>
      </trkpt>
      <trkpt lat="41.896605" lon="-2.420104">
        <ele>1184.72</ele>
        <time>2021-03-27T18:41:27Z</time>
      </trkpt>
      <trkpt lat="41.896362" lon="-2.419297">
        <ele>1179.17</ele>
        <time>2021-03-27T18:41:33Z</time>
      </trkpt>
      <trkpt lat="41.896346" lon="-2.419088">
        <ele>1177.12</ele>
        <time>2021-03-27T18:41:39Z</time>
      </trkpt>
      <trkpt lat="41.896376" lon="-2.41885">
        <ele>1175.63</ele>
        <time>2021-03-27T18:41:44Z</time>
      </trkpt>
      <trkpt lat="41.897502" lon="-2.414871">
        <ele>1157.02</ele>
        <time>2021-03-27T18:41:50Z</time>
      </trkpt>
      <trkpt lat="41.897636" lon="-2.413711">
        <ele>1154.83</ele>
        <time>2021-03-27T18:41:56Z</time>
      </trkpt>
      <trkpt lat="41.897735" lon="-2.413284">
        <ele>1154.39</ele>
        <time>2021-03-27T18:42:02Z</time>
      </trkpt>
      <trkpt lat="41.898152" lon="-2.412171">
        <ele>1159.2</ele>
        <time>2021-03-27T18:42:07Z</time>
      </trkpt>
      <trkpt lat="41.89867" lon="-2.411044">
        <ele>1152.07</ele>
        <time>2021-03-27T18:42:13Z</time>
      </trkpt>
      <trkpt lat="41.898707" lon="-2.410889">
        <ele>1150.7</ele>
        <time>2021-03-27T18:42:19Z</time>
      </trkpt>
      <trkpt lat="41.898715" lon="-2.41069">
        <ele>1149.93</ele>
        <time>2021-03-27T18:42:25Z</time>
      </trkpt>
      <trkpt lat="41.898679" lon="-2.410368">
        <ele>1148.65</ele>
        <time>2021-03-27T18:42:30Z</time>
      </trkpt>
      <trkpt lat="41.898549" lon="-2.409588">
        <ele>1145.69</ele>
        <time>2021-03-27T18:42:36Z</time>
      </trkpt>
      <trkpt lat="41.898402" lon="-2.408545">
        <ele>1143.0</ele>
        <time>2021-03-27T18:42:42Z</time>
      </trkpt>
      <trkpt lat="41.898312" lon="-2.408205">
        <ele>1142.57</ele>
        <time>2021-03-27T18:42:48Z</time>
      </trkpt>
      <trkpt lat="41.897167" lon="-2.406199">
        <ele>1142.25</ele>
        <time>2021-03-27T18:42:53Z</time>
      </trkpt>
      <trkpt lat="41.896553" lon="-2.405215">
        <ele>1138.04</ele>
        <time>2021-03-27T18:42:59Z</time>
      </trkpt>
      <trkpt lat="41.889483" lon="-2.397006">
        <ele>1133.7</ele>
        <time>2021-03-27T18:43:05Z</time>
      </trkpt>
      <trkpt lat="41.88928" lon="-2.396647">
        <ele>1131.76</ele>
        <time>2021-03-27T18:43:10Z</time>
      </trkpt>
      <trkpt lat="41.888787" lon="-2.395088">
        <ele>1131.42</ele>
        <time>2021-03-27T18:43:16Z</time>
      </trkpt>
      <trkpt lat="41.888706" lon="-2.394635">
        <ele>1128.92</ele>
        <time>2021-03-27T18:43:22Z</time>
      </trkpt>
      <trkpt lat="41.888642" lon="-2.393585">
        <ele>1129.11</ele>
        <time>2021-03-27T18:43:28Z</time>
      </trkpt>
      <trkpt lat="41.888598" lon="-2.392565">
        <ele>1125.96</ele>
        <time>2021-03-27T18:43:33Z</time>
      </trkpt>
      <trkpt lat="41.888529" lon="-2.391802">
        <ele>1125.0</ele>
        <time>2021-03-27T18:43:39Z</time>
      </trkpt>
      <trkpt lat="41.888142" lon="-2.389164">
        <ele>1118.31</ele>
        <time>2021-03-27T18:43:45Z</time>
      </trkpt>
      <trkpt lat="41.888009" lon="-2.388653">
        <ele>1117.81</ele>
        <time>2021-03-27T18:43:51Z</time>
      </trkpt>
      <trkpt lat="41.887114" lon="-2.38659">
        <ele>1113.0</ele>
        <time>2021-03-27T18:43:56Z</time>
      </trkpt>
      <trkpt lat="41.886796" lon="-2.385932">
        <ele>1111.17</ele>
        <time>2021-03-27T18:44:02Z</time>
      </trkpt>
      <trkpt lat="41.886426" lon="-2.385395">
        <ele>1108.56</ele>
        <time>2021-03-27T18:44:08Z</time>
      </trkpt>
      <trkpt lat="41.883282" lon="-2.38187">
        <ele>1094.6</ele>
        <time>2021-03-27T18:44:14Z</time>
      </trkpt>
      <trkpt lat="41.883082" lon="-2.381636">
        <ele>1094.0</ele>
        <time>2021-03-27T18:44:19Z</time>
      </trkpt>
      <trkpt lat="41.882999" lon="-2.381488">
        <ele>1093.67</ele>
        <time>2021-03-27T18:44:25Z</time>
      </trkpt>
      <trkpt lat="41.884157" lon="-2.380361">
        <ele>1092.6</ele>
        <time>2021-03-27T18:44:28Z</time>
      </trkpt>
      <trkpt lat="41.887568" lon="-2.377462">
        <ele>1082.38</ele>
        <time>2021-03-27T18:44:31Z</time>
      </trkpt>
      <trkpt lat="41.888068" lon="-2.377098">
        <ele>1084.45</ele>
        <time>2021-03-27T18:44:34Z</time>
      </trkpt>
      <trkpt lat="41.88932" lon="-2.376301">
        <ele>1088.63</ele>
        <time>2021-03-27T18:44:36Z</time>
      </trkpt>
      <trkpt lat="41.889674" lon="-2.376036">
        <ele>1089.71</ele>
        <time>2021-03-27T18:44:39Z</time>
      </trkpt>
      <trkpt lat="41.891109" lon="-2.374806">
        <ele>1090.01</ele>
        <time>2021-03-27T18:44:42Z</time>
      </trkpt>
      <trkpt lat="41.891363" lon="-2.374606">
        <ele>1089.55</ele>
        <time>2021-03-27T18:44:45Z</time>
      </trkpt>
      <trkpt lat="41.891623" lon="-2.374443">
        <ele>1090.0</ele>
        <time>2021-03-27T18:44:48Z</time>
      </trkpt>
      <trkpt lat="41.89196" lon="-2.374294">
        <ele>1091.03</ele>
        <time>2021-03-27T18:44:51Z</time>
      </trkpt>
      <trkpt lat="41.893423" lon="-2.373757">
        <ele>1094.11</ele>
        <time>2021-03-27T18:44:54Z</time>
      </trkpt>
      <trkpt lat="41.89361" lon="-2.373643">
        <ele>1094.88</ele>
        <time>2021-03-27T18:44:56Z</time>
      </trkpt>
      <trkpt lat="41.893773" lon="-2.373496">
        <ele>1095.34</ele>
        <time>2021-03-27T18:44:59Z</time>
      </trkpt>
      <trkpt lat="41.894238" lon="-2.37289">
        <ele>1096.7</ele>
        <time>2021-03-27T18:45:02Z</time>
      </trkpt>
      <trkpt lat="41.89472" lon="-2.372207">
        <ele>1097.13</ele>
        <time>2021-03-27T18:45:05Z</time>
      </trkpt>
      <trkpt lat="41.89501" lon="-2.371842">
        <ele>1097.69</ele>
        <time>2021-03-27T18:45:08Z</time>
      </trkpt>
      <trkpt lat="41.896364" lon="-2.370503">
        <ele>1096.91</ele>
        <time>2021-03-27T18:45:11Z</time>
      </trkpt>
      <trkpt lat="41.896819" lon="-2.370102">
        <ele>1097.55</ele>
        <time>2021-03-27T18:45:14Z</time>
      </trkpt>
      <trkpt lat="41.89711" lon="-2.369891">
        <ele>1098.21</ele>
        <time>2021-03-27T18:45:16Z</time>
      </trkpt>
      <trkpt lat="41.902297" lon="-2.367026">
        <ele>1114.27</ele>
        <time>2021-03-27T18:45:19Z</time>
      </trkpt>
      <trkpt lat="41.903172" lon="-2.366775">
        <ele>1120.42</ele>
        <time>2021-03-27T18:45:22Z</time>
      </trkpt>
      <trkpt lat="41.907736" lon="-2.365551">
        <ele>1132.99</ele>
        <time>2021-03-27T18:45:25Z</time>
      </trkpt>
      <trkpt lat="41.908133" lon="-2.365503">
        <ele>1133.04</ele>
        <time>2021-03-27T18:45:28Z</time>
      </trkpt>
      <trkpt lat="41.909018" lon="-2.365467">
        <ele>1133.51</ele>
        <time>2021-03-27T18:45:31Z</time>
      </trkpt>
      <trkpt lat="41.909274" lon="-2.365384">
        <ele>1133.23</ele>
        <time>2021-03-27T18:45:34Z</time>
      </trkpt>
      <trkpt lat="41.910737" lon="-2.364578">
        <ele>1138.51</ele>
        <time>2021-03-27T18:45:36Z</time>
      </trkpt>
      <trkpt lat="41.911495" lon="-2.363968">
        <ele>1142.81</ele>
        <time>2021-03-27T18:45:39Z</time>
      </trkpt>
      <trkpt lat="41.912426" lon="-2.363159">
        <ele>1150.79</ele>
        <time>2021-03-27T18:45:42Z</time>
      </trkpt>
      <trkpt lat="41.914173" lon="-2.361282">
        <ele>1159.02</ele>
        <time>2021-03-27T18:45:45Z</time>
      </trkpt>
      <trkpt lat="41.914546" lon="-2.360861">
        <ele>1160.36</ele>
        <time>2021-03-27T18:45:48Z</time>
      </trkpt>
      <trkpt lat="41.914792" lon="-2.36048">
        <ele>1162.34</ele>
        <time>2021-03-27T18:45:51Z</time>
      </trkpt>
      <trkpt lat="41.914975" lon="-2.360095">
        <ele>1165.22</ele>
        <time>2021-03-27T18:45:53Z</time>
      </trkpt>
      <trkpt lat="41.915131" lon="-2.359573">
        <ele>1167.72</ele>
        <time>2021-03-27T18:45:56Z</time>
      </trkpt>
      <trkpt lat="41.915411" lon="-2.358255">
        <ele>1174.71</ele>
        <time>2021-03-27T18:45:59Z</time>
      </trkpt>
      <trkpt lat="41.915806" lon="-2.356523">
        <ele>1178.61</ele>
        <time>2021-03-27T18:46:02Z</time>
      </trkpt>
      <trkpt lat="41.915969" lon="-2.356091">
        <ele>1181.03</ele>
        <time>2021-03-27T18:46:05Z</time>
      </trkpt>
      <trkpt lat="41.916142" lon="-2.355842">
        <ele>1184.2</ele>
        <time>2021-03-27T18:46:08Z</time>
      </trkpt>
      <trkpt lat="41.916335" lon="-2.35568">
        <ele>1184.72</ele>
        <time>2021-03-27T18:46:11Z</time>
      </trkpt>
      <trkpt lat="41.916546" lon="-2.355599">
        <ele>1184.88</ele>
        <time>2021-03-27T18:46:13Z</time>
      </trkpt>
      <trkpt lat="41.917741" lon="-2.355385">
        <ele>1192.56</ele>
        <time>2021-03-27T18:46:16Z</time>
      </trkpt>
      <trkpt lat="41.921782" lon="-2.353764">
        <ele>1216.19</ele>
        <time>2021-03-27T18:46:19Z</time>
      </trkpt>
      <trkpt lat="41.922174" lon="-2.353627">
        <ele>1217.86</ele>
        <time>2021-03-27T18:46:22Z</time>
      </trkpt>
      <trkpt lat="41.923281" lon="-2.353602">
        <ele>1226.71</ele>
        <time>2021-03-27T18:46:25Z</time>
      </trkpt>
      <trkpt lat="41.924364" lon="-2.353615">
        <ele>1233.45</ele>
        <time>2021-03-27T18:46:28Z</time>
      </trkpt>
      <trkpt lat="41.924607" lon="-2.3536">
        <ele>1234.5</ele>
        <time>2021-03-27T18:46:31Z</time>
      </trkpt>
      <trkpt lat="41.924812" lon="-2.353553">
        <ele>1234.72</ele>
        <time>2021-03-27T18:46:33Z</time>
      </trkpt>
      <trkpt lat="41.925013" lon="-2.353475">
        <ele>1235.07</ele>
        <time>2021-03-27T18:46:36Z</time>
      </trkpt>
      <trkpt lat="41.925203" lon="-2.353326">
        <ele>1235.71</ele>
        <time>2021-03-27T18:46:39Z</time>
      </trkpt>
      <trkpt lat="41.925442" lon="-2.353056">
        <ele>1236.18</ele>
        <time>2021-03-27T18:46:42Z</time>
      </trkpt>
      <trkpt lat="41.926111" lon="-2.351833">
        <ele>1242.6</ele>
        <time>2021-03-27T18:46:45Z</time>
      </trkpt>
      <trkpt lat="41.926483" lon="-2.351217">
        <ele>1244.64</ele>
        <time>2021-03-27T18:46:48Z</time>
      </trkpt>
      <trkpt lat="41.927063" lon="-2.350466">
        <ele>1250.39</ele>
        <time>2021-03-27T18:46:51Z</time>
      </trkpt>
      <trkpt lat="41.927344" lon="-2.350199">
        <ele>1253.06</ele>
        <time>2021-03-27T18:46:53Z</time>
      </trkpt>
      <trkpt lat="41.927547" lon="-2.350097">
        <ele>1254.56</ele>
        <time>2021-03-27T18:46:56Z</time>
      </trkpt>
      <trkpt lat="41.927774" lon="-2.350034">
        <ele>1256.33</ele>
        <time>2021-03-27T18:46:59Z</time>
      </trkpt>
      <trkpt lat="41.928011" lon="-2.350062">
        <ele>1258.35</ele>
        <time>2021-03-27T18:47:02Z</time>
      </trkpt>
      <trkpt lat="41.928252" lon="-2.350147">
        <ele>1259.26</ele>
        <time>2021-03-27T18:47:05Z</time>
      </trkpt>
      <trkpt lat="41.928961" lon="-2.350489">
        <ele>1263.52</ele>
        <time>2021-03-27T18:47:08Z</time>
      </trkpt>
      <trkpt lat="41.929152" lon="-2.350548">
        <ele>1263.94</ele>
        <time>2021-03-27T18:47:11Z</time>
      </trkpt>
      <trkpt lat="41.929403" lon="-2.350549">
        <ele>1263.1</ele>
        <time>2021-03-27T18:47:13Z</time>
      </trkpt>
      <trkpt lat="41.929719" lon="-2.350518">
        <ele>1264.58</ele>
        <time>2021-03-27T18:47:16Z</time>
      </trkpt>
      <trkpt lat="41.930774" lon="-2.350353">
        <ele>1270.65</ele>
        <time>2021-03-27T18:47:19Z</time>
      </trkpt>
      <trkpt lat="41.931253" lon="-2.3503">
        <ele>1273.42</ele>
        <time>2021-03-27T18:47:22Z</time>
      </trkpt>
      <trkpt lat="41.931822" lon="-2.350314">
        <ele>1280.19</ele>
        <time>2021-03-27T18:47:25Z</time>
      </trkpt>
      <trkpt lat="41.931975" lon="-2.350274">
        <ele>1281.6</ele>
        <time>2021-03-27T18:47:28Z</time>
      </trkpt>
      <trkpt lat="41.932126" lon="-2.35019">
        <ele>1283.64</ele>
        <time>2021-03-27T18:47:30Z</time>
      </trkpt>
      <trkpt lat="41.932229" lon="-2.350082">
        <ele>1284.35</ele>
        <time>2021-03-27T18:47:33Z</time>
      </trkpt>
      <trkpt lat="41.932571" lon="-2.349604">
        <ele>1285.48</ele>
        <time>2021-03-27T18:47:36Z</time>
      </trkpt>
      <trkpt lat="41.932851" lon="-2.349182">
        <ele>1285.7</ele>
        <time>2021-03-27T18:47:39Z</time>
      </trkpt>
      <trkpt lat="41.932929" lon="-2.34903">
        <ele>1287.22</ele>
        <time>2021-03-27T18:47:42Z</time>
      </trkpt>
      <trkpt lat="41.932952" lon="-2.348882">
        <ele>1287.55</ele>
        <time>2021-03-27T18:47:45Z</time>
      </trkpt>
      <trkpt lat="41.932944" lon="-2.348699">
        <ele>1288.49</ele>
        <time>2021-03-27T18:47:48Z</time>
      </trkpt>
      <trkpt lat="41.932831" lon="-2.348152">
        <ele>1291.79</ele>
        <time>2021-03-27T18:47:50Z</time>
      </trkpt>
      <trkpt lat="41.932779" lon="-2.347804">
        <ele>1292.94</ele>
        <time>2021-03-27T18:47:53Z</time>
      </trkpt>
      <trkpt lat="41.932744" lon="-2.347548">
        <ele>1292.72</ele>
        <time>2021-03-27T18:47:56Z</time>
      </trkpt>
      <trkpt lat="41.932745" lon="-2.347271">
        <ele>1293.49</ele>
        <time>2021-03-27T18:47:59Z</time>
      </trkpt>
      <trkpt lat="41.932793" lon="-2.346923">
        <ele>1295.06</ele>
        <time>2021-03-27T18:48:02Z</time>
      </trkpt>
      <trkpt lat="41.933047" lon="-2.34598">
        <ele>1293.85</ele>
        <time>2021-03-27T18:48:05Z</time>
      </trkpt>
      <trkpt lat="41.933178" lon="-2.345655">
        <ele>1297.52</ele>
        <time>2021-03-27T18:48:08Z</time>
      </trkpt>
      <trkpt lat="41.933879" lon="-2.344139">
        <ele>1306.96</ele>
        <time>2021-03-27T18:48:10Z</time>
      </trkpt>
      <trkpt lat="41.934039" lon="-2.343868">
        <ele>1308.43</ele>
        <time>2021-03-27T18:48:13Z</time>
      </trkpt>
      <trkpt lat="41.934195" lon="-2.343688">
        <ele>1308.58</ele>
        <time>2021-03-27T18:48:16Z</time>
      </trkpt>
      <trkpt lat="41.934459" lon="-2.343505">
        <ele>1310.79</ele>
        <time>2021-03-27T18:48:19Z</time>
      </trkpt>
      <trkpt lat="41.934577" lon="-2.343382">
        <ele>1312.01</ele>
        <time>2021-03-27T18:48:22Z</time>
      </trkpt>
      <trkpt lat="41.934695" lon="-2.343223">
        <ele>1312.81</ele>
        <time>2021-03-27T18:48:25Z</time>
      </trkpt>
      <trkpt lat="41.934768" lon="-2.343036">
        <ele>1312.59</ele>
        <time>2021-03-27T18:48:28Z</time>
      </trkpt>
      <trkpt lat="41.935008" lon="-2.341993">
        <ele>1317.85</ele>
        <time>2021-03-27T18:48:30Z</time>
      </trkpt>
      <trkpt lat="41.935245" lon="-2.341096">
        <ele>1324.24</ele>
        <time>2021-03-27T18:48:33Z</time>
      </trkpt>
      <trkpt lat="41.935363" lon="-2.34076">
        <ele>1324.71</ele>
        <time>2021-03-27T18:48:36Z</time>
      </trkpt>
      <trkpt lat="41.935564" lon="-2.340401">
        <ele>1325.59</ele>
        <time>2021-03-27T18:48:39Z</time>
      </trkpt>
      <trkpt lat="41.935843" lon="-2.340026">
        <ele>1327.37</ele>
        <time>2021-03-27T18:48:42Z</time>
      </trkpt>
      <trkpt lat="41.936021" lon="-2.33985">
        <ele>1328.4</ele>
        <time>2021-03-27T18:48:45Z</time>
      </trkpt>
      <trkpt lat="41.936194" lon="-2.33974">
        <ele>1329.17</ele>
        <time>2021-03-27T18:48:48Z</time>
      </trkpt>
      <trkpt lat="41.936396" lon="-2.339732">
        <ele>1331.24</ele>
        <time>2021-03-27T18:48:50Z</time>
      </trkpt>
      <trkpt lat="41.936729" lon="-2.339762">
        <ele>1334.42</ele>
        <time>2021-03-27T18:48:53Z</time>
      </trkpt>
      <trkpt lat="41.937276" lon="-2.339912">
        <ele>1336.46</ele>
        <time>2021-03-27T18:48:56Z</time>
      </trkpt>
      <trkpt lat="41.938039" lon="-2.340357">
        <ele>1340.99</ele>
        <time>2021-03-27T18:48:59Z</time>
      </trkpt>
      <trkpt lat="41.938233" lon="-2.34042">
        <ele>1341.23</ele>
        <time>2021-03-27T18:49:02Z</time>
      </trkpt>
      <trkpt lat="41.938505" lon="-2.340449">
        <ele>1342.95</ele>
        <time>2021-03-27T18:49:05Z</time>
      </trkpt>
      <trkpt lat="41.938838" lon="-2.340539">
        <ele>1346.46</ele>
        <time>2021-03-27T18:49:07Z</time>
      </trkpt>
      <trkpt lat="41.93905" lon="-2.340674">
        <ele>1347.19</ele>
        <time>2021-03-27T18:49:10Z</time>
      </trkpt>
      <trkpt lat="41.939912" lon="-2.341485">
        <ele>1353.25</ele>
        <time>2021-03-27T18:49:13Z</time>
      </trkpt>
      <trkpt lat="41.940124" lon="-2.34158">
        <ele>1354.44</ele>
        <time>2021-03-27T18:49:16Z</time>
      </trkpt>
      <trkpt lat="41.940332" lon="-2.341577">
        <ele>1355.94</ele>
        <time>2021-03-27T18:49:19Z</time>
      </trkpt>
      <trkpt lat="41.940487" lon="-2.341533">
        <ele>1357.3</ele>
        <time>2021-03-27T18:49:22Z</time>
      </trkpt>
      <trkpt lat="41.940621" lon="-2.341437">
        <ele>1358.54</ele>
        <time>2021-03-27T18:49:25Z</time>
      </trkpt>
      <trkpt lat="41.941257" lon="-2.340777">
        <ele>1361.7</ele>
        <time>2021-03-27T18:49:27Z</time>
      </trkpt>
      <trkpt lat="41.941712" lon="-2.340337">
        <ele>1365.11</ele>
        <time>2021-03-27T18:49:30Z</time>
      </trkpt>
      <trkpt lat="41.942455" lon="-2.339698">
        <ele>1370.17</ele>
        <time>2021-03-27T18:49:33Z</time>
      </trkpt>
      <trkpt lat="41.942552" lon="-2.339516">
        <ele>1370.35</ele>
        <time>2021-03-27T18:49:36Z</time>
      </trkpt>
      <trkpt lat="41.942735" lon="-2.338334">
        <ele>1375.08</ele>
        <time>2021-03-27T18:49:39Z</time>
      </trkpt>
      <trkpt lat="41.942854" lon="-2.337996">
        <ele>1377.77</ele>
        <time>2021-03-27T18:49:42Z</time>
      </trkpt>
      <trkpt lat="41.943035" lon="-2.337786">
        <ele>1377.94</ele>
        <time>2021-03-27T18:49:45Z</time>
      </trkpt>
      <trkpt lat="41.943224" lon="-2.337713">
        <ele>1378.14</ele>
        <time>2021-03-27T18:49:47Z</time>
      </trkpt>
      <trkpt lat="41.943488" lon="-2.337668">
        <ele>1378.36</ele>
        <time>2021-03-27T18:49:50Z</time>
      </trkpt>
      <trkpt lat="41.943895" lon="-2.337683">
        <ele>1381.69</ele>
        <time>2021-03-27T18:49:53Z</time>
      </trkpt>
      <trkpt lat="41.946656" lon="-2.337971">
        <ele>1397.17</ele>
        <time>2021-03-27T18:49:56Z</time>
      </trkpt>
      <trkpt lat="41.946879" lon="-2.337973">
        <ele>1399.21</ele>
        <time>2021-03-27T18:49:59Z</time>
      </trkpt>
      <trkpt lat="41.947091" lon="-2.337943">
        <ele>1401.17</ele>
        <time>2021-03-27T18:50:02Z</time>
      </trkpt>
      <trkpt lat="41.947282" lon="-2.337837">
        <ele>1402.85</ele>
        <time>2021-03-27T18:50:05Z</time>
      </trkpt>
      <trkpt lat="41.947455" lon="-2.337683">
        <ele>1405.41</ele>
        <time>2021-03-27T18:50:07Z</time>
      </trkpt>
      <trkpt lat="41.948196" lon="-2.336754">
        <ele>1411.16</ele>
        <time>2021-03-27T18:50:10Z</time>
      </trkpt>
      <trkpt lat="41.9483" lon="-2.336609">
        <ele>1412.95</ele>
        <time>2021-03-27T18:50:13Z</time>
      </trkpt>
      <trkpt lat="41.948374" lon="-2.336418">
        <ele>1413.86</ele>
        <time>2021-03-27T18:50:16Z</time>
      </trkpt>
      <trkpt lat="41.94838" lon="-2.336246">
        <ele>1413.25</ele>
        <time>2021-03-27T18:50:19Z</time>
      </trkpt>
      <trkpt lat="41.948338" lon="-2.336063">
        <ele>1412.24</ele>
        <time>2021-03-27T18:50:22Z</time>
      </trkpt>
      <trkpt lat="41.948015" lon="-2.3353">
        <ele>1414.44</ele>
        <time>2021-03-27T18:50:25Z</time>
      </trkpt>
      <trkpt lat="41.947974" lon="-2.335105">
        <ele>1413.46</ele>
        <time>2021-03-27T18:50:27Z</time>
      </trkpt>
      <trkpt lat="41.947992" lon="-2.334886">
        <ele>1414.36</ele>
        <time>2021-03-27T18:50:30Z</time>
      </trkpt>
      <trkpt lat="41.948067" lon="-2.334707">
        <ele>1416.17</ele>
        <time>2021-03-27T18:50:33Z</time>
      </trkpt>
      <trkpt lat="41.948484" lon="-2.334184">
        <ele>1418.67</ele>
        <time>2021-03-27T18:50:36Z</time>
      </trkpt>
      <trkpt lat="41.948668" lon="-2.334063">
        <ele>1417.55</ele>
        <time>2021-03-27T18:50:39Z</time>
      </trkpt>
      <trkpt lat="41.948876" lon="-2.333999">
        <ele>1417.89</ele>
        <time>2021-03-27T18:50:42Z</time>
      </trkpt>
      <trkpt lat="41.950532" lon="-2.333952">
        <ele>1434.41</ele>
        <time>2021-03-27T18:50:44Z</time>
      </trkpt>
      <trkpt lat="41.950793" lon="-2.33389">
        <ele>1437.31</ele>
        <time>2021-03-27T18:50:47Z</time>
      </trkpt>
      <trkpt lat="41.950993" lon="-2.33375">
        <ele>1438.66</ele>
        <time>2021-03-27T18:50:50Z</time>
      </trkpt>
      <trkpt lat="41.951111" lon="-2.333619">
        <ele>1439.11</ele>
        <time>2021-03-27T18:50:53Z</time>
      </trkpt>
      <trkpt lat="41.951437" lon="-2.332961">
        <ele>1440.98</ele>
        <time>2021-03-27T18:50:56Z</time>
      </trkpt>
      <trkpt lat="41.951543" lon="-2.332621">
        <ele>1439.43</ele>
        <time>2021-03-27T18:50:59Z</time>
      </trkpt>
      <trkpt lat="41.951661" lon="-2.331856">
        <ele>1441.85</ele>
        <time>2021-03-27T18:51:02Z</time>
      </trkpt>
      <trkpt lat="41.951764" lon="-2.331477">
        <ele>1442.31</ele>
        <time>2021-03-27T18:51:04Z</time>
      </trkpt>
      <trkpt lat="41.951892" lon="-2.331249">
        <ele>1443.18</ele>
        <time>2021-03-27T18:51:07Z</time>
      </trkpt>
      <trkpt lat="41.952126" lon="-2.331012">
        <ele>1446.27</ele>
        <time>2021-03-27T18:51:10Z</time>
      </trkpt>
      <trkpt lat="41.952281" lon="-2.330793">
        <ele>1447.37</ele>
        <time>2021-03-27T18:51:13Z</time>
      </trkpt>
      <trkpt lat="41.95265" lon="-2.330103">
        <ele>1450.09</ele>
        <time>2021-03-27T18:51:16Z</time>
      </trkpt>
      <trkpt lat="41.952838" lon="-2.329876">
        <ele>1451.08</ele>
        <time>2021-03-27T18:51:19Z</time>
      </trkpt>
      <trkpt lat="41.953013" lon="-2.329752">
        <ele>1452.55</ele>
        <time>2021-03-27T18:51:22Z</time>
      </trkpt>
      <trkpt lat="41.953121" lon="-2.32974">
        <ele>1453.27</ele>
        <time>2021-03-27T18:51:24Z</time>
      </trkpt>
      <trkpt lat="41.953121" lon="-2.32974">
        <ele>1453.27</ele>
        <time>2021-03-27T18:51:24Z</time>
      </trkpt>
      <trkpt lat="41.953292" lon="-2.32973">
        <ele>1454.73</ele>
        <time>2021-03-27T18:51:27Z</time>
      </trkpt>
      <trkpt lat="41.953436" lon="-2.329765">
        <ele>1455.46</ele>
        <time>2021-03-27T18:51:30Z</time>
      </trkpt>
      <trkpt lat="41.953572" lon="-2.329862">
        <ele>1455.93</ele>
        <time>2021-03-27T18:51:33Z</time>
      </trkpt>
      <trkpt lat="41.95365" lon="-2.32995">
        <ele>1455.72</ele>
        <time>2021-03-27T18:51:35Z</time>
      </trkpt>
      <trkpt lat="41.953718" lon="-2.330084">
        <ele>1455.11</ele>
        <time>2021-03-27T18:51:38Z</time>
      </trkpt>
      <trkpt lat="41.954403" lon="-2.331882">
        <ele>1442.33</ele>
        <time>2021-03-27T18:51:41Z</time>
      </trkpt>
      <trkpt lat="41.954839" lon="-2.332967">
        <ele>1438.69</ele>
        <time>2021-03-27T18:51:44Z</time>
      </trkpt>
      <trkpt lat="41.955664" lon="-2.334195">
        <ele>1437.08</ele>
        <time>2021-03-27T18:51:46Z</time>
      </trkpt>
      <trkpt lat="41.955868" lon="-2.334424">
        <ele>1434.66</ele>
        <time>2021-03-27T18:51:49Z</time>
      </trkpt>
      <trkpt lat="41.955978" lon="-2.33448">
        <ele>1434.42</ele>
        <time>2021-03-27T18:51:52Z</time>
      </trkpt>
      <trkpt lat="41.956159" lon="-2.334536">
        <ele>1434.32</ele>
        <time>2021-03-27T18:51:54Z</time>
      </trkpt>
      <trkpt lat="41.956707" lon="-2.334553">
        <ele>1431.94</ele>
        <time>2021-03-27T18:51:57Z</time>
      </trkpt>
      <trkpt lat="41.957104" lon="-2.334637">
        <ele>1430.37</ele>
        <time>2021-03-27T18:52:00Z</time>
      </trkpt>
      <trkpt lat="41.962583" lon="-2.336353">
        <ele>1413.46</ele>
        <time>2021-03-27T18:52:03Z</time>
      </trkpt>
      <trkpt lat="41.962783" lon="-2.336412">
        <ele>1412.27</ele>
        <time>2021-03-27T18:52:05Z</time>
      </trkpt>
      <trkpt lat="41.962945" lon="-2.336419">
        <ele>1410.56</ele>
        <time>2021-03-27T18:52:08Z</time>
      </trkpt>
      <trkpt lat="41.963052" lon="-2.336375">
        <ele>1408.89</ele>
        <time>2021-03-27T18:52:11Z</time>
      </trkpt>
      <trkpt lat="41.963215" lon="-2.336263">
        <ele>1407.64</ele>
        <time>2021-03-27T18:52:13Z</time>
      </trkpt>
      <trkpt lat="41.963998" lon="-2.335325">
        <ele>1408.3</ele>
        <time>2021-03-27T18:52:16Z</time>
      </trkpt>
      <trkpt lat="41.964561" lon="-2.334694">
        <ele>1404.17</ele>
        <time>2021-03-27T18:52:19Z</time>
      </trkpt>
      <trkpt lat="41.964747" lon="-2.334546">
        <ele>1403.22</ele>
        <time>2021-03-27T18:52:22Z</time>
      </trkpt>
      <trkpt lat="41.964927" lon="-2.334461">
        <ele>1402.95</ele>
        <time>2021-03-27T18:52:24Z</time>
      </trkpt>
      <trkpt lat="41.965106" lon="-2.334416">
        <ele>1403.08</ele>
        <time>2021-03-27T18:52:27Z</time>
      </trkpt>
      <trkpt lat="41.965305" lon="-2.334407">
        <ele>1403.68</ele>
        <time>2021-03-27T18:52:30Z</time>
      </trkpt>
      <trkpt lat="41.965667" lon="-2.334427">
        <ele>1405.13</ele>
        <time>2021-03-27T18:52:32Z</time>
      </trkpt>
      <trkpt lat="41.965932" lon="-2.334399">
        <ele>1405.24</ele>
        <time>2021-03-27T18:52:35Z</time>
      </trkpt>
      <trkpt lat="41.966184" lon="-2.334291">
        <ele>1403.79</ele>
        <time>2021-03-27T18:52:37Z</time>
      </trkpt>
      <trkpt lat="41.966493" lon="-2.334065">
        <ele>1401.51</ele>
        <time>2021-03-27T18:52:39Z</time>
      </trkpt>
      <trkpt lat="41.967324" lon="-2.333364">
        <ele>1400.7</ele>
        <time>2021-03-27T18:52:41Z</time>
      </trkpt>
      <trkpt lat="41.967658" lon="-2.333115">
        <ele>1398.88</ele>
        <time>2021-03-27T18:52:43Z</time>
      </trkpt>
      <trkpt lat="41.967943" lon="-2.332831">
        <ele>1399.76</ele>
        <time>2021-03-27T18:52:44Z</time>
      </trkpt>
      <trkpt lat="41.968073" lon="-2.332672">
        <ele>1400.61</ele>
        <time>2021-03-27T18:52:46Z</time>
      </trkpt>
      <trkpt lat="41.96842" lon="-2.33204">
        <ele>1403.78</ele>
        <time>2021-03-27T18:52:48Z</time>
      </trkpt>
      <trkpt lat="41.968756" lon="-2.331345">
        <ele>1406.66</ele>
        <time>2021-03-27T18:52:50Z</time>
      </trkpt>
      <trkpt lat="41.969066" lon="-2.330789">
        <ele>1407.33</ele>
        <time>2021-03-27T18:52:52Z</time>
      </trkpt>
      <trkpt lat="41.969267" lon="-2.330548">
        <ele>1408.68</ele>
        <time>2021-03-27T18:52:54Z</time>
      </trkpt>
      <trkpt lat="41.969689" lon="-2.330208">
        <ele>1409.79</ele>
        <time>2021-03-27T18:52:56Z</time>
      </trkpt>
      <trkpt lat="41.970323" lon="-2.32983">
        <ele>1416.46</ele>
        <time>2021-03-27T18:52:57Z</time>
      </trkpt>
      <trkpt lat="41.970811" lon="-2.329588">
        <ele>1416.87</ele>
        <time>2021-03-27T18:52:59Z</time>
      </trkpt>
      <trkpt lat="41.971027" lon="-2.329533">
        <ele>1418.49</ele>
        <time>2021-03-27T18:53:01Z</time>
      </trkpt>
      <trkpt lat="41.971208" lon="-2.329546">
        <ele>1420.39</ele>
        <time>2021-03-27T18:53:03Z</time>
      </trkpt>
      <trkpt lat="41.971367" lon="-2.329583">
        <ele>1421.88</ele>
        <time>2021-03-27T18:53:05Z</time>
      </trkpt>
      <trkpt lat="41.971664" lon="-2.329695">
        <ele>1419.54</ele>
        <time>2021-03-27T18:53:07Z</time>
      </trkpt>
      <trkpt lat="41.971819" lon="-2.329793">
        <ele>1420.42</ele>
        <time>2021-03-27T18:53:08Z</time>
      </trkpt>
      <trkpt lat="41.97267" lon="-2.33046">
        <ele>1430.53</ele>
        <time>2021-03-27T18:53:10Z</time>
      </trkpt>
      <trkpt lat="41.972914" lon="-2.330588">
        <ele>1432.94</ele>
        <time>2021-03-27T18:53:12Z</time>
      </trkpt>
      <trkpt lat="41.973207" lon="-2.330695">
        <ele>1434.69</ele>
        <time>2021-03-27T18:53:14Z</time>
      </trkpt>
      <trkpt lat="41.973399" lon="-2.330729">
        <ele>1435.13</ele>
        <time>2021-03-27T18:53:16Z</time>
      </trkpt>
      <trkpt lat="41.973569" lon="-2.330726">
        <ele>1436.07</ele>
        <time>2021-03-27T18:53:18Z</time>
      </trkpt>
      <trkpt lat="41.974002" lon="-2.330613">
        <ele>1436.47</ele>
        <time>2021-03-27T18:53:20Z</time>
      </trkpt>
      <trkpt lat="41.97415" lon="-2.330598">
        <ele>1437.11</ele>
        <time>2021-03-27T18:53:21Z</time>
      </trkpt>
      <trkpt lat="41.974317" lon="-2.330622">
        <ele>1437.51</ele>
        <time>2021-03-27T18:53:23Z</time>
      </trkpt>
      <trkpt lat="41.974966" lon="-2.33093">
        <ele>1442.85</ele>
        <time>2021-03-27T18:53:25Z</time>
      </trkpt>
      <trkpt lat="41.975182" lon="-2.331013">
        <ele>1443.31</ele>
        <time>2021-03-27T18:53:27Z</time>
      </trkpt>
      <trkpt lat="41.975598" lon="-2.331113">
        <ele>1446.06</ele>
        <time>2021-03-27T18:53:29Z</time>
      </trkpt>
      <trkpt lat="41.976365" lon="-2.331232">
        <ele>1445.87</ele>
        <time>2021-03-27T18:53:31Z</time>
      </trkpt>
      <trkpt lat="41.976584" lon="-2.331194">
        <ele>1448.19</ele>
        <time>2021-03-27T18:53:34Z</time>
      </trkpt>
      <trkpt lat="41.976971" lon="-2.331046">
        <ele>1453.43</ele>
        <time>2021-03-27T18:53:37Z</time>
      </trkpt>
      <trkpt lat="41.977071" lon="-2.331068">
        <ele>1454.07</ele>
        <time>2021-03-27T18:53:40Z</time>
      </trkpt>
      <trkpt lat="41.977137" lon="-2.331149">
        <ele>1454.2</ele>
        <time>2021-03-27T18:53:44Z</time>
      </trkpt>
      <trkpt lat="41.97716" lon="-2.331232">
        <ele>1453.88</ele>
        <time>2021-03-27T18:53:47Z</time>
      </trkpt>
      <trkpt lat="41.977168" lon="-2.331353">
        <ele>1453.21</ele>
        <time>2021-03-27T18:53:50Z</time>
      </trkpt>
      <trkpt lat="41.977139" lon="-2.331703">
        <ele>1450.7</ele>
        <time>2021-03-27T18:53:53Z</time>
      </trkpt>
      <trkpt lat="41.977185" lon="-2.33192">
        <ele>1449.05</ele>
        <time>2021-03-27T18:53:57Z</time>
      </trkpt>
      <trkpt lat="41.977296" lon="-2.332105">
        <ele>1447.15</ele>
        <time>2021-03-27T18:54:00Z</time>
      </trkpt>
      <trkpt lat="41.977695" lon="-2.332476">
        <ele>1444.38</ele>
        <time>2021-03-27T18:54:03Z</time>
      </trkpt>
      <trkpt lat="41.978193" lon="-2.333001">
        <ele>1439.31</ele>
        <time>2021-03-27T18:54:06Z</time>
      </trkpt>
      <trkpt lat="41.980211" lon="-2.334952">
        <ele>1417.53</ele>
        <time>2021-03-27T18:54:10Z</time>
      </trkpt>
      <trkpt lat="41.981792" lon="-2.337267">
        <ele>1402.16</ele>
        <time>2021-03-27T18:54:13Z</time>
      </trkpt>
      <trkpt lat="41.983148" lon="-2.339373">
        <ele>1385.6</ele>
        <time>2021-03-27T18:54:16Z</time>
      </trkpt>
      <trkpt lat="41.983607" lon="-2.340552">
        <ele>1376.98</ele>
        <time>2021-03-27T18:54:19Z</time>
      </trkpt>
      <trkpt lat="41.984121" lon="-2.341404">
        <ele>1373.7</ele>
        <time>2021-03-27T18:54:22Z</time>
      </trkpt>
      <trkpt lat="41.984232" lon="-2.341612">
        <ele>1372.44</ele>
        <time>2021-03-27T18:54:26Z</time>
      </trkpt>
      <trkpt lat="41.984299" lon="-2.341815">
        <ele>1371.19</ele>
        <time>2021-03-27T18:54:29Z</time>
      </trkpt>
      <trkpt lat="41.984507" lon="-2.342706">
        <ele>1368.29</ele>
        <time>2021-03-27T18:54:32Z</time>
      </trkpt>
      <trkpt lat="41.984556" lon="-2.342973">
        <ele>1366.19</ele>
        <time>2021-03-27T18:54:35Z</time>
      </trkpt>
      <trkpt lat="41.984719" lon="-2.343556">
        <ele>1360.42</ele>
        <time>2021-03-27T18:54:39Z</time>
      </trkpt>
      <trkpt lat="41.984895" lon="-2.343862">
        <ele>1358.13</ele>
        <time>2021-03-27T18:54:42Z</time>
      </trkpt>
      <trkpt lat="41.986145" lon="-2.345868">
        <ele>1344.01</ele>
        <time>2021-03-27T18:54:45Z</time>
      </trkpt>
      <trkpt lat="41.986221" lon="-2.346108">
        <ele>1343.8</ele>
        <time>2021-03-27T18:54:48Z</time>
      </trkpt>
      <trkpt lat="41.986561" lon="-2.347909">
        <ele>1338.28</ele>
        <time>2021-03-27T18:54:52Z</time>
      </trkpt>
      <trkpt lat="41.98663" lon="-2.348522">
        <ele>1335.45</ele>
        <time>2021-03-27T18:54:55Z</time>
      </trkpt>
      <trkpt lat="41.9867" lon="-2.349511">
        <ele>1329.19</ele>
        <time>2021-03-27T18:54:58Z</time>
      </trkpt>
      <trkpt lat="41.986676" lon="-2.349791">
        <ele>1325.56</ele>
        <time>2021-03-27T18:55:01Z</time>
      </trkpt>
      <trkpt lat="41.986602" lon="-2.350076">
        <ele>1323.53</ele>
        <time>2021-03-27T18:55:05Z</time>
      </trkpt>
      <trkpt lat="41.986349" lon="-2.350785">
        <ele>1321.15</ele>
        <time>2021-03-27T18:55:08Z</time>
      </trkpt>
      <trkpt lat="41.98623" lon="-2.351269">
        <ele>1317.68</ele>
        <time>2021-03-27T18:55:11Z</time>
      </trkpt>
      <trkpt lat="41.986147" lon="-2.352315">
        <ele>1315.2</ele>
        <time>2021-03-27T18:55:14Z</time>
      </trkpt>
      <trkpt lat="41.986189" lon="-2.352515">
        <ele>1313.62</ele>
        <time>2021-03-27T18:55:18Z</time>
      </trkpt>
      <trkpt lat="41.986361" lon="-2.352851">
        <ele>1311.73</ele>
        <time>2021-03-27T18:55:21Z</time>
      </trkpt>
      <trkpt lat="41.986502" lon="-2.353026">
        <ele>1311.51</ele>
        <time>2021-03-27T18:55:24Z</time>
      </trkpt>
      <trkpt lat="41.986717" lon="-2.353087">
        <ele>1312.05</ele>
        <time>2021-03-27T18:55:27Z</time>
      </trkpt>
      <trkpt lat="41.986851" lon="-2.353099">
        <ele>1312.4</ele>
        <time>2021-03-27T18:55:31Z</time>
      </trkpt>
      <trkpt lat="41.987333" lon="-2.353045">
        <ele>1310.24</ele>
        <time>2021-03-27T18:55:34Z</time>
      </trkpt>
      <trkpt lat="41.987474" lon="-2.35305">
        <ele>1309.2</ele>
        <time>2021-03-27T18:55:37Z</time>
      </trkpt>
      <trkpt lat="41.987611" lon="-2.353081">
        <ele>1308.85</ele>
        <time>2021-03-27T18:55:40Z</time>
      </trkpt>
      <trkpt lat="41.987895" lon="-2.353192">
        <ele>1308.72</ele>
        <time>2021-03-27T18:55:43Z</time>
      </trkpt>
      <trkpt lat="41.988124" lon="-2.353334">
        <ele>1308.0</ele>
        <time>2021-03-27T18:55:47Z</time>
      </trkpt>
      <trkpt lat="41.988274" lon="-2.3535">
        <ele>1307.4</ele>
        <time>2021-03-27T18:55:50Z</time>
      </trkpt>
      <trkpt lat="41.988803" lon="-2.354272">
        <ele>1303.36</ele>
        <time>2021-03-27T18:55:53Z</time>
      </trkpt>
      <trkpt lat="41.989026" lon="-2.354503">
        <ele>1301.79</ele>
        <time>2021-03-27T18:55:56Z</time>
      </trkpt>
      <trkpt lat="41.989941" lon="-2.355011">
        <ele>1299.7</ele>
        <time>2021-03-27T18:56:00Z</time>
      </trkpt>
      <trkpt lat="41.990071" lon="-2.355097">
        <ele>1299.72</ele>
        <time>2021-03-27T18:56:03Z</time>
      </trkpt>
      <trkpt lat="41.990169" lon="-2.355201">
        <ele>1299.33</ele>
        <time>2021-03-27T18:56:06Z</time>
      </trkpt>
      <trkpt lat="41.990244" lon="-2.355366">
        <ele>1297.37</ele>
        <time>2021-03-27T18:56:09Z</time>
      </trkpt>
      <trkpt lat="41.990591" lon="-2.356428">
        <ele>1294.1</ele>
        <time>2021-03-27T18:56:13Z</time>
      </trkpt>
      <trkpt lat="41.99066" lon="-2.356577">
        <ele>1293.77</ele>
        <time>2021-03-27T18:56:16Z</time>
      </trkpt>
      <trkpt lat="41.990755" lon="-2.356736">
        <ele>1293.65</ele>
        <time>2021-03-27T18:56:19Z</time>
      </trkpt>
      <trkpt lat="41.99153" lon="-2.357651">
        <ele>1295.48</ele>
        <time>2021-03-27T18:56:22Z</time>
      </trkpt>
      <trkpt lat="41.991611" lon="-2.357863">
        <ele>1295.59</ele>
        <time>2021-03-27T18:56:26Z</time>
      </trkpt>
      <trkpt lat="41.991642" lon="-2.358054">
        <ele>1294.66</ele>
        <time>2021-03-27T18:56:29Z</time>
      </trkpt>
      <trkpt lat="41.991553" lon="-2.358902">
        <ele>1287.96</ele>
        <time>2021-03-27T18:56:32Z</time>
      </trkpt>
      <trkpt lat="41.99154" lon="-2.359231">
        <ele>1287.95</ele>
        <time>2021-03-27T18:56:35Z</time>
      </trkpt>
      <trkpt lat="41.991611" lon="-2.359489">
        <ele>1289.81</ele>
        <time>2021-03-27T18:56:39Z</time>
      </trkpt>
      <trkpt lat="41.99199" lon="-2.360381">
        <ele>1289.02</ele>
        <time>2021-03-27T18:56:42Z</time>
      </trkpt>
      <trkpt lat="41.992207" lon="-2.360792">
        <ele>1290.73</ele>
        <time>2021-03-27T18:56:45Z</time>
      </trkpt>
      <trkpt lat="41.99278" lon="-2.361635">
        <ele>1283.23</ele>
        <time>2021-03-27T18:56:48Z</time>
      </trkpt>
      <trkpt lat="41.993208" lon="-2.362129">
        <ele>1278.22</ele>
        <time>2021-03-27T18:56:52Z</time>
      </trkpt>
      <trkpt lat="41.993839" lon="-2.362682">
        <ele>1277.66</ele>
        <time>2021-03-27T18:56:55Z</time>
      </trkpt>
      <trkpt lat="41.994016" lon="-2.3629">
        <ele>1274.97</ele>
        <time>2021-03-27T18:56:58Z</time>
      </trkpt>
      <trkpt lat="41.994544" lon="-2.363622">
        <ele>1269.32</ele>
        <time>2021-03-27T18:57:01Z</time>
      </trkpt>
      <trkpt lat="41.994677" lon="-2.36386">
        <ele>1268.94</ele>
        <time>2021-03-27T18:57:05Z</time>
      </trkpt>
      <trkpt lat="41.994751" lon="-2.364359">
        <ele>1270.1</ele>
        <time>2021-03-27T18:57:08Z</time>
      </trkpt>
      <trkpt lat="41.994807" lon="-2.364515">
        <ele>1270.05</ele>
        <time>2021-03-27T18:57:11Z</time>
      </trkpt>
      <trkpt lat="41.994937" lon="-2.364798">
        <ele>1269.23</ele>
        <time>2021-03-27T18:57:14Z</time>
      </trkpt>
      <trkpt lat="41.995181" lon="-2.36516">
        <ele>1268.16</ele>
        <time>2021-03-27T18:57:17Z</time>
      </trkpt>
      <trkpt lat="41.995316" lon="-2.365506">
        <ele>1267.7</ele>
        <time>2021-03-27T18:57:21Z</time>
      </trkpt>
      <trkpt lat="41.995799" lon="-2.366377">
        <ele>1260.89</ele>
        <time>2021-03-27T18:57:24Z</time>
      </trkpt>
      <trkpt lat="41.995885" lon="-2.366565">
        <ele>1261.29</ele>
        <time>2021-03-27T18:57:27Z</time>
      </trkpt>
      <trkpt lat="41.995892" lon="-2.366663">
        <ele>1261.08</ele>
        <time>2021-03-27T18:57:30Z</time>
      </trkpt>
      <trkpt lat="41.995846" lon="-2.367124">
        <ele>1260.23</ele>
        <time>2021-03-27T18:57:34Z</time>
      </trkpt>
      <trkpt lat="41.995898" lon="-2.367418">
        <ele>1259.76</ele>
        <time>2021-03-27T18:57:37Z</time>
      </trkpt>
      <trkpt lat="41.996036" lon="-2.367892">
        <ele>1258.32</ele>
        <time>2021-03-27T18:57:40Z</time>
      </trkpt>
      <trkpt lat="41.996286" lon="-2.369029">
        <ele>1251.33</ele>
        <time>2021-03-27T18:57:43Z</time>
      </trkpt>
      <trkpt lat="41.996423" lon="-2.36941">
        <ele>1249.74</ele>
        <time>2021-03-27T18:57:47Z</time>
      </trkpt>
      <trkpt lat="41.996657" lon="-2.36993">
        <ele>1245.94</ele>
        <time>2021-03-27T18:57:50Z</time>
      </trkpt>
      <trkpt lat="41.996702" lon="-2.37019">
        <ele>1245.08</ele>
        <time>2021-03-27T18:57:53Z</time>
      </trkpt>
      <trkpt lat="41.996729" lon="-2.370454">
        <ele>1245.2</ele>
        <time>2021-03-27T18:57:56Z</time>
      </trkpt>
      <trkpt lat="41.996736" lon="-2.370999">
        <ele>1247.41</ele>
        <time>2021-03-27T18:58:00Z</time>
      </trkpt>
      <trkpt lat="41.997156" lon="-2.373482">
        <ele>1238.99</ele>
        <time>2021-03-27T18:58:03Z</time>
      </trkpt>
      <trkpt lat="41.997275" lon="-2.374017">
        <ele>1238.65</ele>
        <time>2021-03-27T18:58:06Z</time>
      </trkpt>
      <trkpt lat="41.997873" lon="-2.376148">
        <ele>1237.11</ele>
        <time>2021-03-27T18:58:09Z</time>
      </trkpt>
      <trkpt lat="41.997992" lon="-2.376663">
        <ele>1235.34</ele>
        <time>2021-03-27T18:58:13Z</time>
      </trkpt>
      <trkpt lat="41.998048" lon="-2.37681">
        <ele>1234.89</ele>
        <time>2021-03-27T18:58:16Z</time>
      </trkpt>
      <trkpt lat="41.998115" lon="-2.376913">
        <ele>1234.46</ele>
        <time>2021-03-27T18:58:19Z</time>
      </trkpt>
      <trkpt lat="41.998291" lon="-2.377058">
        <ele>1233.68</ele>
        <time>2021-03-27T18:58:22Z</time>
      </trkpt>
      <trkpt lat="41.999202" lon="-2.37742">
        <ele>1226.98</ele>
        <time>2021-03-27T18:58:26Z</time>
      </trkpt>
      <trkpt lat="41.999366" lon="-2.377502">
        <ele>1226.39</ele>
        <time>2021-03-27T18:58:29Z</time>
      </trkpt>
      <trkpt lat="41.999562" lon="-2.377635">
        <ele>1225.83</ele>
        <time>2021-03-27T18:58:32Z</time>
      </trkpt>
      <trkpt lat="42.000819" lon="-2.378668">
        <ele>1220.58</ele>
        <time>2021-03-27T18:58:35Z</time>
      </trkpt>
      <trkpt lat="42.000911" lon="-2.37876">
        <ele>1220.35</ele>
        <time>2021-03-27T18:58:39Z</time>
      </trkpt>
      <trkpt lat="42.001011" lon="-2.378906">
        <ele>1220.15</ele>
        <time>2021-03-27T18:58:42Z</time>
      </trkpt>
      <trkpt lat="42.001097" lon="-2.379132">
        <ele>1219.15</ele>
        <time>2021-03-27T18:58:45Z</time>
      </trkpt>
      <trkpt lat="42.001273" lon="-2.379729">
        <ele>1217.91</ele>
        <time>2021-03-27T18:58:48Z</time>
      </trkpt>
      <trkpt lat="42.001359" lon="-2.380099">
        <ele>1219.15</ele>
        <time>2021-03-27T18:58:51Z</time>
      </trkpt>
      <trkpt lat="42.001721" lon="-2.38245">
        <ele>1217.38</ele>
        <time>2021-03-27T18:58:55Z</time>
      </trkpt>
      <trkpt lat="42.001725" lon="-2.382612">
        <ele>1217.06</ele>
        <time>2021-03-27T18:58:58Z</time>
      </trkpt>
      <trkpt lat="42.001602" lon="-2.383226">
        <ele>1214.07</ele>
        <time>2021-03-27T18:59:01Z</time>
      </trkpt>
      <trkpt lat="42.001572" lon="-2.383648">
        <ele>1213.47</ele>
        <time>2021-03-27T18:59:04Z</time>
      </trkpt>
      <trkpt lat="42.001586" lon="-2.383825">
        <ele>1212.74</ele>
        <time>2021-03-27T18:59:08Z</time>
      </trkpt>
      <trkpt lat="42.001672" lon="-2.3844">
        <ele>1210.97</ele>
        <time>2021-03-27T18:59:11Z</time>
      </trkpt>
      <trkpt lat="42.001727" lon="-2.38455">
        <ele>1210.56</ele>
        <time>2021-03-27T18:59:14Z</time>
      </trkpt>
      <trkpt lat="42.001982" lon="-2.384899">
        <ele>1208.73</ele>
        <time>2021-03-27T18:59:17Z</time>
      </trkpt>
      <trkpt lat="42.002119" lon="-2.385033">
        <ele>1207.98</ele>
        <time>2021-03-27T18:59:21Z</time>
      </trkpt>
      <trkpt lat="42.002268" lon="-2.385074">
        <ele>1207.49</ele>
        <time>2021-03-27T18:59:24Z</time>
      </trkpt>
      <trkpt lat="42.002477" lon="-2.385085">
        <ele>1207.33</ele>
        <time>2021-03-27T18:59:27Z</time>
      </trkpt>
      <trkpt lat="42.002816" lon="-2.38515">
        <ele>1207.69</ele>
        <time>2021-03-27T18:59:30Z</time>
      </trkpt>
      <trkpt lat="42.003486" lon="-2.385357">
        <ele>1209.16</ele>
        <time>2021-03-27T18:59:34Z</time>
      </trkpt>
      <trkpt lat="42.003682" lon="-2.3854">
        <ele>1208.99</ele>
        <time>2021-03-27T18:59:37Z</time>
      </trkpt>
      <trkpt lat="42.005564" lon="-2.385513">
        <ele>1202.85</ele>
        <time>2021-03-27T18:59:40Z</time>
      </trkpt>
      <trkpt lat="42.005714" lon="-2.385478">
        <ele>1202.72</ele>
        <time>2021-03-27T18:59:43Z</time>
      </trkpt>
      <trkpt lat="42.005838" lon="-2.3854">
        <ele>1202.43</ele>
        <time>2021-03-27T18:59:47Z</time>
      </trkpt>
      <trkpt lat="42.006221" lon="-2.384984">
        <ele>1200.69</ele>
        <time>2021-03-27T18:59:50Z</time>
      </trkpt>
      <trkpt lat="42.006212" lon="-2.384852">
        <ele>1201.51</ele>
        <time>2021-03-27T18:59:52Z</time>
      </trkpt>
      <trkpt lat="42.006257" lon="-2.384795">
        <ele>1201.56</ele>
        <time>2021-03-27T18:59:55Z</time>
      </trkpt>
      <trkpt lat="42.006407" lon="-2.384649">
        <ele>1201.74</ele>
        <time>2021-03-27T18:59:57Z</time>
      </trkpt>
      <trkpt lat="42.006552" lon="-2.384578">
        <ele>1201.64</ele>
        <time>2021-03-27T19:00:00Z</time>
      </trkpt>
      <trkpt lat="42.007193" lon="-2.384576">
        <ele>1201.85</ele>
        <time>2021-03-27T19:00:02Z</time>
      </trkpt>
      <trkpt lat="42.007591" lon="-2.384295">
        <ele>1200.37</ele>
        <time>2021-03-27T19:00:05Z</time>
      </trkpt>
      <trkpt lat="42.007786" lon="-2.384224">
        <ele>1198.97</ele>
        <time>2021-03-27T19:00:07Z</time>
      </trkpt>
      <trkpt lat="42.008055" lon="-2.384324">
        <ele>1198.27</ele>
        <time>2021-03-27T19:00:10Z</time>
      </trkpt>
      <trkpt lat="42.009057" lon="-2.384956">
        <ele>1196.43</ele>
        <time>2021-03-27T19:00:12Z</time>
      </trkpt>
      <trkpt lat="42.009322" lon="-2.38517">
        <ele>1196.86</ele>
        <time>2021-03-27T19:00:15Z</time>
      </trkpt>
      <trkpt lat="42.009585" lon="-2.38546">
        <ele>1195.96</ele>
        <time>2021-03-27T19:00:17Z</time>
      </trkpt>
      <trkpt lat="42.009754" lon="-2.385868">
        <ele>1192.86</ele>
        <time>2021-03-27T19:00:19Z</time>
      </trkpt>
      <trkpt lat="42.010112" lon="-2.38697">
        <ele>1193.63</ele>
        <time>2021-03-27T19:00:22Z</time>
      </trkpt>
      <trkpt lat="42.010242" lon="-2.387309">
        <ele>1191.29</ele>
        <time>2021-03-27T19:00:24Z</time>
      </trkpt>
      <trkpt lat="42.01068" lon="-2.387862">
        <ele>1188.12</ele>
        <time>2021-03-27T19:00:27Z</time>
      </trkpt>
      <trkpt lat="42.011481" lon="-2.388817">
        <ele>1184.83</ele>
        <time>2021-03-27T19:00:29Z</time>
      </trkpt>
      <trkpt lat="42.011728" lon="-2.389271">
        <ele>1184.28</ele>
        <time>2021-03-27T19:00:32Z</time>
      </trkpt>
      <trkpt lat="42.012219" lon="-2.39063">
        <ele>1184.59</ele>
        <time>2021-03-27T19:00:34Z</time>
      </trkpt>
      <trkpt lat="42.012623" lon="-2.391266">
        <ele>1182.54</ele>
        <time>2021-03-27T19:00:37Z</time>
      </trkpt>
      <trkpt lat="42.012871" lon="-2.39189">
        <ele>1180.44</ele>
        <time>2021-03-27T19:00:39Z</time>
      </trkpt>
      <trkpt lat="42.01303" lon="-2.392709">
        <ele>1176.75</ele>
        <time>2021-03-27T19:00:42Z</time>
      </trkpt>
      <trkpt lat="42.013276" lon="-2.393386">
        <ele>1176.55</ele>
        <time>2021-03-27T19:00:44Z</time>
      </trkpt>
      <trkpt lat="42.013657" lon="-2.394263">
        <ele>1180.69</ele>
        <time>2021-03-27T19:00:47Z</time>
      </trkpt>
      <trkpt lat="42.014028" lon="-2.395004">
        <ele>1182.04</ele>
        <time>2021-03-27T19:00:49Z</time>
      </trkpt>
      <trkpt lat="42.01448" lon="-2.396048">
        <ele>1191.22</ele>
        <time>2021-03-27T19:00:52Z</time>
      </trkpt>
      <trkpt lat="42.014896" lon="-2.39665">
        <ele>1193.2</ele>
        <time>2021-03-27T19:00:54Z</time>
      </trkpt>
      <trkpt lat="42.015485" lon="-2.397312">
        <ele>1196.39</ele>
        <time>2021-03-27T19:00:56Z</time>
      </trkpt>
      <trkpt lat="42.015997" lon="-2.397746">
        <ele>1197.02</ele>
        <time>2021-03-27T19:00:59Z</time>
      </trkpt>
      <trkpt lat="42.016468" lon="-2.397974">
        <ele>1199.37</ele>
        <time>2021-03-27T19:01:01Z</time>
      </trkpt>
      <trkpt lat="42.017306" lon="-2.39817">
        <ele>1197.39</ele>
        <time>2021-03-27T19:01:04Z</time>
      </trkpt>
      <trkpt lat="42.018626" lon="-2.3981">
        <ele>1194.35</ele>
        <time>2021-03-27T19:01:06Z</time>
      </trkpt>
      <trkpt lat="42.018744" lon="-2.398134">
        <ele>1194.64</ele>
        <time>2021-03-27T19:01:09Z</time>
      </trkpt>
      <trkpt lat="42.018853" lon="-2.398202">
        <ele>1194.55</ele>
        <time>2021-03-27T19:01:11Z</time>
      </trkpt>
      <trkpt lat="42.018961" lon="-2.398371">
        <ele>1192.14</ele>
        <time>2021-03-27T19:01:14Z</time>
      </trkpt>
      <trkpt lat="42.019016" lon="-2.398562">
        <ele>1190.42</ele>
        <time>2021-03-27T19:01:16Z</time>
      </trkpt>
      <trkpt lat="42.019048" lon="-2.398872">
        <ele>1187.94</ele>
        <time>2021-03-27T19:01:19Z</time>
      </trkpt>
      <trkpt lat="42.019064" lon="-2.399943">
        <ele>1179.38</ele>
        <time>2021-03-27T19:01:21Z</time>
      </trkpt>
      <trkpt lat="42.019136" lon="-2.400919">
        <ele>1175.22</ele>
        <time>2021-03-27T19:01:24Z</time>
      </trkpt>
      <trkpt lat="42.01913" lon="-2.401208">
        <ele>1174.76</ele>
        <time>2021-03-27T19:01:26Z</time>
      </trkpt>
      <trkpt lat="42.019017" lon="-2.401841">
        <ele>1179.24</ele>
        <time>2021-03-27T19:01:29Z</time>
      </trkpt>
      <trkpt lat="42.019034" lon="-2.40202">
        <ele>1178.88</ele>
        <time>2021-03-27T19:01:31Z</time>
      </trkpt>
      <trkpt lat="42.019239" lon="-2.402515">
        <ele>1180.15</ele>
        <time>2021-03-27T19:01:33Z</time>
      </trkpt>
      <trkpt lat="42.019271" lon="-2.402649">
        <ele>1181.77</ele>
        <time>2021-03-27T19:01:36Z</time>
      </trkpt>
      <trkpt lat="42.019268" lon="-2.402813">
        <ele>1182.61</ele>
        <time>2021-03-27T19:01:38Z</time>
      </trkpt>
      <trkpt lat="42.019147" lon="-2.403508">
        <ele>1186.53</ele>
        <time>2021-03-27T19:01:41Z</time>
      </trkpt>
      <trkpt lat="42.019075" lon="-2.404201">
        <ele>1192.48</ele>
        <time>2021-03-27T19:01:43Z</time>
      </trkpt>
      <trkpt lat="42.018913" lon="-2.404855">
        <ele>1195.44</ele>
        <time>2021-03-27T19:01:46Z</time>
      </trkpt>
      <trkpt lat="42.01887" lon="-2.405884">
        <ele>1200.04</ele>
        <time>2021-03-27T19:01:48Z</time>
      </trkpt>
      <trkpt lat="42.018659" lon="-2.406947">
        <ele>1204.06</ele>
        <time>2021-03-27T19:01:51Z</time>
      </trkpt>
      <trkpt lat="42.018639" lon="-2.407189">
        <ele>1205.28</ele>
        <time>2021-03-27T19:01:53Z</time>
      </trkpt>
      <trkpt lat="42.018671" lon="-2.407326">
        <ele>1207.42</ele>
        <time>2021-03-27T19:01:56Z</time>
      </trkpt>
      <trkpt lat="42.018721" lon="-2.40744">
        <ele>1209.49</ele>
        <time>2021-03-27T19:01:58Z</time>
      </trkpt>
      <trkpt lat="42.019244" lon="-2.407728">
        <ele>1213.92</ele>
        <time>2021-03-27T19:02:01Z</time>
      </trkpt>
      <trkpt lat="42.020067" lon="-2.408291">
        <ele>1213.36</ele>
        <time>2021-03-27T19:02:03Z</time>
      </trkpt>
      <trkpt lat="42.021184" lon="-2.409104">
        <ele>1213.29</ele>
        <time>2021-03-27T19:02:06Z</time>
      </trkpt>
      <trkpt lat="42.021362" lon="-2.409175">
        <ele>1213.13</ele>
        <time>2021-03-27T19:02:08Z</time>
      </trkpt>
      <trkpt lat="42.021624" lon="-2.409194">
        <ele>1212.25</ele>
        <time>2021-03-27T19:02:10Z</time>
      </trkpt>
      <trkpt lat="42.021978" lon="-2.409173">
        <ele>1210.93</ele>
        <time>2021-03-27T19:02:13Z</time>
      </trkpt>
      <trkpt lat="42.022328" lon="-2.408998">
        <ele>1209.39</ele>
        <time>2021-03-27T19:02:15Z</time>
      </trkpt>
      <trkpt lat="42.022511" lon="-2.408937">
        <ele>1209.13</ele>
        <time>2021-03-27T19:02:18Z</time>
      </trkpt>
      <trkpt lat="42.022621" lon="-2.408956">
        <ele>1208.8</ele>
        <time>2021-03-27T19:02:20Z</time>
      </trkpt>
      <trkpt lat="42.023357" lon="-2.40934">
        <ele>1210.31</ele>
        <time>2021-03-27T19:02:23Z</time>
      </trkpt>
      <trkpt lat="42.024283" lon="-2.409882">
        <ele>1212.15</ele>
        <time>2021-03-27T19:02:25Z</time>
      </trkpt>
      <trkpt lat="42.02444" lon="-2.410056">
        <ele>1213.81</ele>
        <time>2021-03-27T19:02:28Z</time>
      </trkpt>
      <trkpt lat="42.024564" lon="-2.410403">
        <ele>1216.16</ele>
        <time>2021-03-27T19:02:30Z</time>
      </trkpt>
      <trkpt lat="42.024594" lon="-2.410536">
        <ele>1216.32</ele>
        <time>2021-03-27T19:02:33Z</time>
      </trkpt>
      <trkpt lat="42.024598" lon="-2.410652">
        <ele>1216.85</ele>
        <time>2021-03-27T19:02:35Z</time>
      </trkpt>
      <trkpt lat="42.024569" lon="-2.410732">
        <ele>1217.63</ele>
        <time>2021-03-27T19:02:38Z</time>
      </trkpt>
      <trkpt lat="42.024495" lon="-2.410795">
        <ele>1219.02</ele>
        <time>2021-03-27T19:02:40Z</time>
      </trkpt>
      <trkpt lat="42.022583" lon="-2.411466">
        <ele>1225.26</ele>
        <time>2021-03-27T19:02:43Z</time>
      </trkpt>
      <trkpt lat="42.022451" lon="-2.411545">
        <ele>1226.32</ele>
        <time>2021-03-27T19:02:45Z</time>
      </trkpt>
      <trkpt lat="42.022388" lon="-2.411682">
        <ele>1227.98</ele>
        <time>2021-03-27T19:02:47Z</time>
      </trkpt>
      <trkpt lat="42.022368" lon="-2.411936">
        <ele>1230.91</ele>
        <time>2021-03-27T19:02:50Z</time>
      </trkpt>
      <trkpt lat="42.022411" lon="-2.412095">
        <ele>1232.45</ele>
        <time>2021-03-27T19:02:52Z</time>
      </trkpt>
      <trkpt lat="42.022501" lon="-2.412272">
        <ele>1234.55</ele>
        <time>2021-03-27T19:02:55Z</time>
      </trkpt>
      <trkpt lat="42.023107" lon="-2.413024">
        <ele>1238.23</ele>
        <time>2021-03-27T19:02:57Z</time>
      </trkpt>
      <trkpt lat="42.023266" lon="-2.413188">
        <ele>1240.83</ele>
        <time>2021-03-27T19:03:00Z</time>
      </trkpt>
      <trkpt lat="42.024014" lon="-2.413678">
        <ele>1242.76</ele>
        <time>2021-03-27T19:03:02Z</time>
      </trkpt>
      <trkpt lat="42.024179" lon="-2.413841">
        <ele>1244.59</ele>
        <time>2021-03-27T19:03:05Z</time>
      </trkpt>
      <trkpt lat="42.024567" lon="-2.414473">
        <ele>1247.56</ele>
        <time>2021-03-27T19:03:07Z</time>
      </trkpt>
      <trkpt lat="42.024661" lon="-2.414725">
        <ele>1247.34</ele>
        <time>2021-03-27T19:03:10Z</time>
      </trkpt>
      <trkpt lat="42.024704" lon="-2.414968">
        <ele>1249.05</ele>
        <time>2021-03-27T19:03:12Z</time>
      </trkpt>
      <trkpt lat="42.024686" lon="-2.415207">
        <ele>1251.82</ele>
        <time>2021-03-27T19:03:15Z</time>
      </trkpt>
      <trkpt lat="42.024619" lon="-2.415643">
        <ele>1254.17</ele>
        <time>2021-03-27T19:03:17Z</time>
      </trkpt>
      <trkpt lat="42.024358" lon="-2.416765">
        <ele>1262.2</ele>
        <time>2021-03-27T19:03:20Z</time>
      </trkpt>
      <trkpt lat="42.024354" lon="-2.416978">
        <ele>1262.02</ele>
        <time>2021-03-27T19:03:22Z</time>
      </trkpt>
      <trkpt lat="42.024476" lon="-2.41773">
        <ele>1263.03</ele>
        <time>2021-03-27T19:03:25Z</time>
      </trkpt>
      <trkpt lat="42.024828" lon="-2.420648">
        <ele>1272.87</ele>
        <time>2021-03-27T19:03:27Z</time>
      </trkpt>
      <trkpt lat="42.024858" lon="-2.420812">
        <ele>1274.32</ele>
        <time>2021-03-27T19:03:29Z</time>
      </trkpt>
      <trkpt lat="42.024918" lon="-2.420938">
        <ele>1274.89</ele>
        <time>2021-03-27T19:03:32Z</time>
      </trkpt>
      <trkpt lat="42.025003" lon="-2.42103">
        <ele>1274.73</ele>
        <time>2021-03-27T19:03:34Z</time>
      </trkpt>
      <trkpt lat="42.02508" lon="-2.421084">
        <ele>1275.45</ele>
        <time>2021-03-27T19:03:37Z</time>
      </trkpt>
      <trkpt lat="42.025174" lon="-2.421109">
        <ele>1276.25</ele>
        <time>2021-03-27T19:03:39Z</time>
      </trkpt>
      <trkpt lat="42.025637" lon="-2.421041">
        <ele>1278.36</ele>
        <time>2021-03-27T19:03:42Z</time>
      </trkpt>
      <trkpt lat="42.025778" lon="-2.421056">
        <ele>1279.13</ele>
        <time>2021-03-27T19:03:44Z</time>
      </trkpt>
      <trkpt lat="42.027297" lon="-2.42179">
        <ele>1289.12</ele>
        <time>2021-03-27T19:03:47Z</time>
      </trkpt>
      <trkpt lat="42.027518" lon="-2.421969">
        <ele>1290.18</ele>
        <time>2021-03-27T19:03:49Z</time>
      </trkpt>
      <trkpt lat="42.028854" lon="-2.423181">
        <ele>1297.56</ele>
        <time>2021-03-27T19:03:52Z</time>
      </trkpt>
      <trkpt lat="42.029157" lon="-2.423523">
        <ele>1299.37</ele>
        <time>2021-03-27T19:03:54Z</time>
      </trkpt>
      <trkpt lat="42.030103" lon="-2.424901">
        <ele>1309.61</ele>
        <time>2021-03-27T19:03:57Z</time>
      </trkpt>
      <trkpt lat="42.030177" lon="-2.425054">
        <ele>1310.34</ele>
        <time>2021-03-27T19:03:59Z</time>
      </trkpt>
      <trkpt lat="42.030209" lon="-2.425386">
        <ele>1310.85</ele>
        <time>2021-03-27T19:04:02Z</time>
      </trkpt>
      <trkpt lat="42.030087" lon="-2.427173">
        <ele>1305.05</ele>
        <time>2021-03-27T19:04:04Z</time>
      </trkpt>
      <trkpt lat="42.030429" lon="-2.429488">
        <ele>1298.75</ele>
        <time>2021-03-27T19:04:06Z</time>
      </trkpt>
      <trkpt lat="42.030864" lon="-2.43073">
        <ele>1300.56</ele>
        <time>2021-03-27T19:04:09Z</time>
      </trkpt>
      <trkpt lat="42.031321" lon="-2.431551">
        <ele>1297.56</ele>
        <time>2021-03-27T19:04:11Z</time>
      </trkpt>
      <trkpt lat="42.031586" lon="-2.432481">
        <ele>1295.37</ele>
        <time>2021-03-27T19:04:14Z</time>
      </trkpt>
      <trkpt lat="42.031655" lon="-2.432804">
        <ele>1294.24</ele>
        <time>2021-03-27T19:04:16Z</time>
      </trkpt>
      <trkpt lat="42.031656" lon="-2.433069">
        <ele>1294.18</ele>
        <time>2021-03-27T19:04:19Z</time>
      </trkpt>
      <trkpt lat="42.031636" lon="-2.433305">
        <ele>1293.56</ele>
        <time>2021-03-27T19:04:21Z</time>
      </trkpt>
      <trkpt lat="42.031475" lon="-2.434073">
        <ele>1293.09</ele>
        <time>2021-03-27T19:04:24Z</time>
      </trkpt>
      <trkpt lat="42.031468" lon="-2.434238">
        <ele>1292.5</ele>
        <time>2021-03-27T19:04:26Z</time>
      </trkpt>
      <trkpt lat="42.031492" lon="-2.434383">
        <ele>1291.54</ele>
        <time>2021-03-27T19:04:29Z</time>
      </trkpt>
      <trkpt lat="42.031536" lon="-2.434492">
        <ele>1290.94</ele>
        <time>2021-03-27T19:04:31Z</time>
      </trkpt>
      <trkpt lat="42.031619" lon="-2.434576">
        <ele>1290.34</ele>
        <time>2021-03-27T19:04:34Z</time>
      </trkpt>
      <trkpt lat="42.031717" lon="-2.434632">
        <ele>1289.34</ele>
        <time>2021-03-27T19:04:36Z</time>
      </trkpt>
      <trkpt lat="42.032325" lon="-2.434799">
        <ele>1284.35</ele>
        <time>2021-03-27T19:04:39Z</time>
      </trkpt>
      <trkpt lat="42.032417" lon="-2.434863">
        <ele>1284.46</ele>
        <time>2021-03-27T19:04:41Z</time>
      </trkpt>
      <trkpt lat="42.032504" lon="-2.434969">
        <ele>1284.69</ele>
        <time>2021-03-27T19:04:43Z</time>
      </trkpt>
      <trkpt lat="42.03257" lon="-2.435176">
        <ele>1283.33</ele>
        <time>2021-03-27T19:04:46Z</time>
      </trkpt>
      <trkpt lat="42.032573" lon="-2.43531">
        <ele>1283.05</ele>
        <time>2021-03-27T19:04:48Z</time>
      </trkpt>
      <trkpt lat="42.032432" lon="-2.435915">
        <ele>1282.55</ele>
        <time>2021-03-27T19:04:51Z</time>
      </trkpt>
      <trkpt lat="42.03242" lon="-2.436158">
        <ele>1279.76</ele>
        <time>2021-03-27T19:04:53Z</time>
      </trkpt>
      <trkpt lat="42.032533" lon="-2.436639">
        <ele>1274.83</ele>
        <time>2021-03-27T19:04:56Z</time>
      </trkpt>
      <trkpt lat="42.03253" lon="-2.436902">
        <ele>1275.48</ele>
        <time>2021-03-27T19:04:58Z</time>
      </trkpt>
      <trkpt lat="42.032317" lon="-2.438118">
        <ele>1271.68</ele>
        <time>2021-03-27T19:05:01Z</time>
      </trkpt>
      <trkpt lat="42.032311" lon="-2.438239">
        <ele>1270.65</ele>
        <time>2021-03-27T19:05:03Z</time>
      </trkpt>
      <trkpt lat="42.032325" lon="-2.438319">
        <ele>1269.66</ele>
        <time>2021-03-27T19:05:06Z</time>
      </trkpt>
      <trkpt lat="42.032443" lon="-2.438484">
        <ele>1268.57</ele>
        <time>2021-03-27T19:05:08Z</time>
      </trkpt>
      <trkpt lat="42.032525" lon="-2.438489">
        <ele>1268.35</ele>
        <time>2021-03-27T19:05:11Z</time>
      </trkpt>
      <trkpt lat="42.032588" lon="-2.438455">
        <ele>1268.66</ele>
        <time>2021-03-27T19:05:13Z</time>
      </trkpt>
      <trkpt lat="42.032638" lon="-2.438383">
        <ele>1268.44</ele>
        <time>2021-03-27T19:05:16Z</time>
      </trkpt>
      <trkpt lat="42.033229" lon="-2.436756">
        <ele>1259.72</ele>
        <time>2021-03-27T19:05:18Z</time>
      </trkpt>
      <trkpt lat="42.033935" lon="-2.435738">
        <ele>1252.69</ele>
        <time>2021-03-27T19:05:20Z</time>
      </trkpt>
      <trkpt lat="42.034177" lon="-2.435072">
        <ele>1246.9</ele>
        <time>2021-03-27T19:05:23Z</time>
      </trkpt>
      <trkpt lat="42.034449" lon="-2.434523">
        <ele>1248.02</ele>
        <time>2021-03-27T19:05:25Z</time>
      </trkpt>
      <trkpt lat="42.035017" lon="-2.433613">
        <ele>1242.01</ele>
        <time>2021-03-27T19:05:28Z</time>
      </trkpt>
      <trkpt lat="42.035157" lon="-2.433492">
        <ele>1241.38</ele>
        <time>2021-03-27T19:05:30Z</time>
      </trkpt>
      <trkpt lat="42.035702" lon="-2.433271">
        <ele>1240.3</ele>
        <time>2021-03-27T19:05:33Z</time>
      </trkpt>
      <trkpt lat="42.035916" lon="-2.43315">
        <ele>1240.94</ele>
        <time>2021-03-27T19:05:35Z</time>
      </trkpt>
      <trkpt lat="42.036252" lon="-2.432796">
        <ele>1241.06</ele>
        <time>2021-03-27T19:05:38Z</time>
      </trkpt>
      <trkpt lat="42.036898" lon="-2.432209">
        <ele>1237.78</ele>
        <time>2021-03-27T19:05:40Z</time>
      </trkpt>
      <trkpt lat="42.037106" lon="-2.431855">
        <ele>1237.26</ele>
        <time>2021-03-27T19:05:43Z</time>
      </trkpt>
      <trkpt lat="42.037217" lon="-2.431724">
        <ele>1237.19</ele>
        <time>2021-03-27T19:05:45Z</time>
      </trkpt>
      <trkpt lat="42.037316" lon="-2.431666">
        <ele>1236.66</ele>
        <time>2021-03-27T19:05:48Z</time>
      </trkpt>
      <trkpt lat="42.037397" lon="-2.431677">
        <ele>1236.38</ele>
        <time>2021-03-27T19:05:50Z</time>
      </trkpt>
      <trkpt lat="42.03756" lon="-2.431773">
        <ele>1236.13</ele>
        <time>2021-03-27T19:05:53Z</time>
      </trkpt>
      <trkpt lat="42.03781" lon="-2.431973">
        <ele>1236.33</ele>
        <time>2021-03-27T19:05:55Z</time>
      </trkpt>
      <trkpt lat="42.038008" lon="-2.432164">
        <ele>1237.18</ele>
        <time>2021-03-27T19:05:57Z</time>
      </trkpt>
      <trkpt lat="42.038068" lon="-2.432288">
        <ele>1236.78</ele>
        <time>2021-03-27T19:06:00Z</time>
      </trkpt>
      <trkpt lat="42.038096" lon="-2.432408">
        <ele>1236.18</ele>
        <time>2021-03-27T19:06:02Z</time>
      </trkpt>
      <trkpt lat="42.038094" lon="-2.432546">
        <ele>1235.55</ele>
        <time>2021-03-27T19:06:05Z</time>
      </trkpt>
      <trkpt lat="42.038037" lon="-2.432789">
        <ele>1235.1</ele>
        <time>2021-03-27T19:06:07Z</time>
      </trkpt>
      <trkpt lat="42.037504" lon="-2.434352">
        <ele>1243.66</ele>
        <time>2021-03-27T19:06:10Z</time>
      </trkpt>
      <trkpt lat="42.037474" lon="-2.434489">
        <ele>1245.66</ele>
        <time>2021-03-27T19:06:12Z</time>
      </trkpt>
      <trkpt lat="42.037472" lon="-2.434626">
        <ele>1247.69</ele>
        <time>2021-03-27T19:06:15Z</time>
      </trkpt>
      <trkpt lat="42.037505" lon="-2.434725">
        <ele>1248.99</ele>
        <time>2021-03-27T19:06:17Z</time>
      </trkpt>
      <trkpt lat="42.03761" lon="-2.434905">
        <ele>1250.18</ele>
        <time>2021-03-27T19:06:20Z</time>
      </trkpt>
      <trkpt lat="42.037753" lon="-2.435093">
        <ele>1250.88</ele>
        <time>2021-03-27T19:06:22Z</time>
      </trkpt>
      <trkpt lat="42.038181" lon="-2.435482">
        <ele>1245.78</ele>
        <time>2021-03-27T19:06:25Z</time>
      </trkpt>
      <trkpt lat="42.038243" lon="-2.435634">
        <ele>1246.24</ele>
        <time>2021-03-27T19:06:27Z</time>
      </trkpt>
      <trkpt lat="42.038285" lon="-2.435884">
        <ele>1248.38</ele>
        <time>2021-03-27T19:06:30Z</time>
      </trkpt>
      <trkpt lat="42.038414" lon="-2.436033">
        <ele>1249.53</ele>
        <time>2021-03-27T19:06:32Z</time>
      </trkpt>
      <trkpt lat="42.038499" lon="-2.436051">
        <ele>1250.08</ele>
        <time>2021-03-27T19:06:34Z</time>
      </trkpt>
      <trkpt lat="42.038594" lon="-2.436039">
        <ele>1250.4</ele>
        <time>2021-03-27T19:06:37Z</time>
      </trkpt>
      <trkpt lat="42.038698" lon="-2.435971">
        <ele>1251.4</ele>
        <time>2021-03-27T19:06:39Z</time>
      </trkpt>
      <trkpt lat="42.039292" lon="-2.435082">
        <ele>1248.81</ele>
        <time>2021-03-27T19:06:42Z</time>
      </trkpt>
      <trkpt lat="42.039387" lon="-2.434959">
        <ele>1249.32</ele>
        <time>2021-03-27T19:06:44Z</time>
      </trkpt>
      <trkpt lat="42.039496" lon="-2.434852">
        <ele>1250.73</ele>
        <time>2021-03-27T19:06:47Z</time>
      </trkpt>
      <trkpt lat="42.039745" lon="-2.434738">
        <ele>1253.67</ele>
        <time>2021-03-27T19:06:49Z</time>
      </trkpt>
      <trkpt lat="42.040471" lon="-2.434596">
        <ele>1258.24</ele>
        <time>2021-03-27T19:06:52Z</time>
      </trkpt>
      <trkpt lat="42.040687" lon="-2.434579">
        <ele>1257.92</ele>
        <time>2021-03-27T19:06:54Z</time>
      </trkpt>
      <trkpt lat="42.040856" lon="-2.434616">
        <ele>1259.21</ele>
        <time>2021-03-27T19:06:57Z</time>
      </trkpt>
      <trkpt lat="42.041974" lon="-2.435316">
        <ele>1264.92</ele>
        <time>2021-03-27T19:06:59Z</time>
      </trkpt>
      <trkpt lat="42.042067" lon="-2.435422">
        <ele>1264.26</ele>
        <time>2021-03-27T19:07:02Z</time>
      </trkpt>
      <trkpt lat="42.04212" lon="-2.435547">
        <ele>1263.82</ele>
        <time>2021-03-27T19:07:04Z</time>
      </trkpt>
      <trkpt lat="42.042137" lon="-2.435782">
        <ele>1263.53</ele>
        <time>2021-03-27T19:07:07Z</time>
      </trkpt>
      <trkpt lat="42.042048" lon="-2.436885">
        <ele>1258.58</ele>
        <time>2021-03-27T19:07:09Z</time>
      </trkpt>
      <trkpt lat="42.04208" lon="-2.437097">
        <ele>1257.88</ele>
        <time>2021-03-27T19:07:11Z</time>
      </trkpt>
      <trkpt lat="42.042154" lon="-2.437286">
        <ele>1256.32</ele>
        <time>2021-03-27T19:07:14Z</time>
      </trkpt>
      <trkpt lat="42.042694" lon="-2.4381">
        <ele>1249.4</ele>
        <time>2021-03-27T19:07:16Z</time>
      </trkpt>
      <trkpt lat="42.042994" lon="-2.438781">
        <ele>1246.45</ele>
        <time>2021-03-27T19:07:19Z</time>
      </trkpt>
      <trkpt lat="42.043278" lon="-2.439357">
        <ele>1243.95</ele>
        <time>2021-03-27T19:07:21Z</time>
      </trkpt>
      <trkpt lat="42.043371" lon="-2.4397">
        <ele>1241.89</ele>
        <time>2021-03-27T19:07:24Z</time>
      </trkpt>
      <trkpt lat="42.043391" lon="-2.439972">
        <ele>1241.14</ele>
        <time>2021-03-27T19:07:26Z</time>
      </trkpt>
      <trkpt lat="42.043371" lon="-2.440245">
        <ele>1239.0</ele>
        <time>2021-03-27T19:07:29Z</time>
      </trkpt>
      <trkpt lat="42.043167" lon="-2.441196">
        <ele>1234.07</ele>
        <time>2021-03-27T19:07:31Z</time>
      </trkpt>
      <trkpt lat="42.043057" lon="-2.441872">
        <ele>1232.18</ele>
        <time>2021-03-27T19:07:34Z</time>
      </trkpt>
      <trkpt lat="42.042823" lon="-2.442611">
        <ele>1229.6</ele>
        <time>2021-03-27T19:07:36Z</time>
      </trkpt>
      <trkpt lat="42.042552" lon="-2.444062">
        <ele>1223.74</ele>
        <time>2021-03-27T19:07:39Z</time>
      </trkpt>
      <trkpt lat="42.042496" lon="-2.444565">
        <ele>1224.19</ele>
        <time>2021-03-27T19:07:41Z</time>
      </trkpt>
      <trkpt lat="42.042409" lon="-2.445073">
        <ele>1227.58</ele>
        <time>2021-03-27T19:07:44Z</time>
      </trkpt>
      <trkpt lat="42.042414" lon="-2.445284">
        <ele>1226.32</ele>
        <time>2021-03-27T19:07:46Z</time>
      </trkpt>
      <trkpt lat="42.042445" lon="-2.445571">
        <ele>1224.22</ele>
        <time>2021-03-27T19:07:48Z</time>
      </trkpt>
      <trkpt lat="42.04269" lon="-2.446349">
        <ele>1217.11</ele>
        <time>2021-03-27T19:07:51Z</time>
      </trkpt>
      <trkpt lat="42.04275" lon="-2.4465">
        <ele>1215.72</ele>
        <time>2021-03-27T19:07:53Z</time>
      </trkpt>
      <trkpt lat="42.042818" lon="-2.446575">
        <ele>1215.39</ele>
        <time>2021-03-27T19:07:56Z</time>
      </trkpt>
      <trkpt lat="42.042871" lon="-2.446601">
        <ele>1215.61</ele>
        <time>2021-03-27T19:07:58Z</time>
      </trkpt>
      <trkpt lat="42.042938" lon="-2.446601">
        <ele>1215.67</ele>
        <time>2021-03-27T19:08:01Z</time>
      </trkpt>
      <trkpt lat="42.043008" lon="-2.446565">
        <ele>1215.57</ele>
        <time>2021-03-27T19:08:03Z</time>
      </trkpt>
      <trkpt lat="42.043048" lon="-2.446501">
        <ele>1215.39</ele>
        <time>2021-03-27T19:08:06Z</time>
      </trkpt>
      <trkpt lat="42.043054" lon="-2.446405">
        <ele>1215.05</ele>
        <time>2021-03-27T19:08:08Z</time>
      </trkpt>
      <trkpt lat="42.043014" lon="-2.446093">
        <ele>1214.76</ele>
        <time>2021-03-27T19:08:11Z</time>
      </trkpt>
      <trkpt lat="42.043024" lon="-2.445884">
        <ele>1215.5</ele>
        <time>2021-03-27T19:08:13Z</time>
      </trkpt>
      <trkpt lat="42.043108" lon="-2.445286">
        <ele>1213.59</ele>
        <time>2021-03-27T19:08:16Z</time>
      </trkpt>
      <trkpt lat="42.043265" lon="-2.444856">
        <ele>1213.96</ele>
        <time>2021-03-27T19:08:18Z</time>
      </trkpt>
      <trkpt lat="42.043452" lon="-2.444471">
        <ele>1214.84</ele>
        <time>2021-03-27T19:08:21Z</time>
      </trkpt>
      <trkpt lat="42.043621" lon="-2.444248">
        <ele>1215.06</ele>
        <time>2021-03-27T19:08:23Z</time>
      </trkpt>
      <trkpt lat="42.043986" lon="-2.444016">
        <ele>1221.09</ele>
        <time>2021-03-27T19:08:25Z</time>
      </trkpt>
      <trkpt lat="42.044065" lon="-2.443904">
        <ele>1221.63</ele>
        <time>2021-03-27T19:08:28Z</time>
      </trkpt>
      <trkpt lat="42.044188" lon="-2.443529">
        <ele>1219.27</ele>
        <time>2021-03-27T19:08:30Z</time>
      </trkpt>
      <trkpt lat="42.044609" lon="-2.442818">
        <ele>1219.36</ele>
        <time>2021-03-27T19:08:33Z</time>
      </trkpt>
      <trkpt lat="42.045152" lon="-2.441827">
        <ele>1215.2</ele>
        <time>2021-03-27T19:08:35Z</time>
      </trkpt>
      <trkpt lat="42.045554" lon="-2.440856">
        <ele>1213.42</ele>
        <time>2021-03-27T19:08:38Z</time>
      </trkpt>
      <trkpt lat="42.045554" lon="-2.440856">
        <ele>1213.42</ele>
        <time>2021-03-27T19:08:38Z</time>
      </trkpt>
      <trkpt lat="42.045851" lon="-2.44014">
        <ele>1211.64</ele>
        <time>2021-03-27T19:08:40Z</time>
      </trkpt>
      <trkpt lat="42.045995" lon="-2.439978">
        <ele>1209.47</ele>
        <time>2021-03-27T19:08:41Z</time>
      </trkpt>
      <trkpt lat="42.04614" lon="-2.439949">
        <ele>1208.73</ele>
        <time>2021-03-27T19:08:43Z</time>
      </trkpt>
      <trkpt lat="42.046482" lon="-2.440082">
        <ele>1209.77</ele>
        <time>2021-03-27T19:08:45Z</time>
      </trkpt>
      <trkpt lat="42.046622" lon="-2.440218">
        <ele>1210.01</ele>
        <time>2021-03-27T19:08:46Z</time>
      </trkpt>
      <trkpt lat="42.046803" lon="-2.441007">
        <ele>1210.01</ele>
        <time>2021-03-27T19:08:48Z</time>
      </trkpt>
      <trkpt lat="42.04686" lon="-2.441155">
        <ele>1209.26</ele>
        <time>2021-03-27T19:08:49Z</time>
      </trkpt>
      <trkpt lat="42.04693" lon="-2.441209">
        <ele>1207.84</ele>
        <time>2021-03-27T19:08:51Z</time>
      </trkpt>
      <trkpt lat="42.047052" lon="-2.441215">
        <ele>1207.35</ele>
        <time>2021-03-27T19:08:53Z</time>
      </trkpt>
      <trkpt lat="42.047183" lon="-2.441113">
        <ele>1206.02</ele>
        <time>2021-03-27T19:08:54Z</time>
      </trkpt>
      <trkpt lat="42.047979" lon="-2.439972">
        <ele>1213.81</ele>
        <time>2021-03-27T19:08:56Z</time>
      </trkpt>
      <trkpt lat="42.048129" lon="-2.439513">
        <ele>1212.89</ele>
        <time>2021-03-27T19:08:58Z</time>
      </trkpt>
      <trkpt lat="42.048258" lon="-2.439265">
        <ele>1213.96</ele>
        <time>2021-03-27T19:08:59Z</time>
      </trkpt>
      <trkpt lat="42.048532" lon="-2.439029">
        <ele>1218.03</ele>
        <time>2021-03-27T19:09:01Z</time>
      </trkpt>
      <trkpt lat="42.048663" lon="-2.43883">
        <ele>1219.37</ele>
        <time>2021-03-27T19:09:03Z</time>
      </trkpt>
      <trkpt lat="42.0488" lon="-2.438711">
        <ele>1220.87</ele>
        <time>2021-03-27T19:09:04Z</time>
      </trkpt>
      <trkpt lat="42.048855" lon="-2.438687">
        <ele>1221.7</ele>
        <time>2021-03-27T19:09:06Z</time>
      </trkpt>
      <trkpt lat="42.048919" lon="-2.438709">
        <ele>1222.35</ele>
        <time>2021-03-27T19:09:08Z</time>
      </trkpt>
      <trkpt lat="42.048925" lon="-2.438863">
        <ele>1222.91</ele>
        <time>2021-03-27T19:09:10Z</time>
      </trkpt>
      <trkpt lat="42.04879" lon="-2.439325">
        <ele>1224.11</ele>
        <time>2021-03-27T19:09:12Z</time>
      </trkpt>
      <trkpt lat="42.04879" lon="-2.439652">
        <ele>1226.5</ele>
        <time>2021-03-27T19:09:14Z</time>
      </trkpt>
      <trkpt lat="42.048877" lon="-2.441215">
        <ele>1234.73</ele>
        <time>2021-03-27T19:09:17Z</time>
      </trkpt>
      <trkpt lat="42.048915" lon="-2.44156">
        <ele>1235.81</ele>
        <time>2021-03-27T19:09:19Z</time>
      </trkpt>
      <trkpt lat="42.049012" lon="-2.441779">
        <ele>1235.33</ele>
        <time>2021-03-27T19:09:21Z</time>
      </trkpt>
      <trkpt lat="42.049306" lon="-2.442194">
        <ele>1233.39</ele>
        <time>2021-03-27T19:09:23Z</time>
      </trkpt>
      <trkpt lat="42.049621" lon="-2.442547">
        <ele>1233.65</ele>
        <time>2021-03-27T19:09:26Z</time>
      </trkpt>
      <trkpt lat="42.049965" lon="-2.442838">
        <ele>1235.8</ele>
        <time>2021-03-27T19:09:28Z</time>
      </trkpt>
      <trkpt lat="42.050278" lon="-2.442969">
        <ele>1236.37</ele>
        <time>2021-03-27T19:09:30Z</time>
      </trkpt>
      <trkpt lat="42.050505" lon="-2.443028">
        <ele>1235.25</ele>
        <time>2021-03-27T19:09:32Z</time>
      </trkpt>
      <trkpt lat="42.050712" lon="-2.443051">
        <ele>1233.86</ele>
        <time>2021-03-27T19:09:35Z</time>
      </trkpt>
      <trkpt lat="42.050931" lon="-2.443037">
        <ele>1232.56</ele>
        <time>2021-03-27T19:09:37Z</time>
      </trkpt>
      <trkpt lat="42.051189" lon="-2.442974">
        <ele>1230.77</ele>
        <time>2021-03-27T19:09:39Z</time>
      </trkpt>
      <trkpt lat="42.051828" lon="-2.442755">
        <ele>1221.39</ele>
        <time>2021-03-27T19:09:42Z</time>
      </trkpt>
      <trkpt lat="42.052147" lon="-2.442741">
        <ele>1216.02</ele>
        <time>2021-03-27T19:09:44Z</time>
      </trkpt>
      <trkpt lat="42.052292" lon="-2.442781">
        <ele>1213.5</ele>
        <time>2021-03-27T19:09:46Z</time>
      </trkpt>
      <trkpt lat="42.052557" lon="-2.442889">
        <ele>1208.94</ele>
        <time>2021-03-27T19:09:48Z</time>
      </trkpt>
      <trkpt lat="42.052722" lon="-2.443">
        <ele>1207.89</ele>
        <time>2021-03-27T19:09:51Z</time>
      </trkpt>
      <trkpt lat="42.053094" lon="-2.443489">
        <ele>1207.45</ele>
        <time>2021-03-27T19:09:53Z</time>
      </trkpt>
      <trkpt lat="42.053208" lon="-2.443666">
        <ele>1207.49</ele>
        <time>2021-03-27T19:09:55Z</time>
      </trkpt>
      <trkpt lat="42.05347" lon="-2.443868">
        <ele>1205.77</ele>
        <time>2021-03-27T19:09:57Z</time>
      </trkpt>
      <trkpt lat="42.053555" lon="-2.443911">
        <ele>1204.96</ele>
        <time>2021-03-27T19:10:00Z</time>
      </trkpt>
      <trkpt lat="42.053708" lon="-2.443945">
        <ele>1202.1</ele>
        <time>2021-03-27T19:10:02Z</time>
      </trkpt>
      <trkpt lat="42.053874" lon="-2.444024">
        <ele>1199.27</ele>
        <time>2021-03-27T19:10:04Z</time>
      </trkpt>
      <trkpt lat="42.054561" lon="-2.444224">
        <ele>1193.38</ele>
        <time>2021-03-27T19:10:07Z</time>
      </trkpt>
      <trkpt lat="42.05515" lon="-2.444614">
        <ele>1190.11</ele>
        <time>2021-03-27T19:10:09Z</time>
      </trkpt>
      <trkpt lat="42.056097" lon="-2.445375">
        <ele>1183.66</ele>
        <time>2021-03-27T19:10:11Z</time>
      </trkpt>
      <trkpt lat="42.057049" lon="-2.445931">
        <ele>1178.71</ele>
        <time>2021-03-27T19:10:13Z</time>
      </trkpt>
      <trkpt lat="42.0574" lon="-2.446209">
        <ele>1175.8</ele>
        <time>2021-03-27T19:10:16Z</time>
      </trkpt>
      <trkpt lat="42.057581" lon="-2.446441">
        <ele>1175.77</ele>
        <time>2021-03-27T19:10:18Z</time>
      </trkpt>
      <trkpt lat="42.057722" lon="-2.446749">
        <ele>1178.99</ele>
        <time>2021-03-27T19:10:20Z</time>
      </trkpt>
      <trkpt lat="42.057887" lon="-2.447283">
        <ele>1182.89</ele>
        <time>2021-03-27T19:10:22Z</time>
      </trkpt>
      <trkpt lat="42.058069" lon="-2.447609">
        <ele>1185.38</ele>
        <time>2021-03-27T19:10:25Z</time>
      </trkpt>
      <trkpt lat="42.058495" lon="-2.447915">
        <ele>1180.38</ele>
        <time>2021-03-27T19:10:27Z</time>
      </trkpt>
      <trkpt lat="42.058587" lon="-2.447948">
        <ele>1178.68</ele>
        <time>2021-03-27T19:10:29Z</time>
      </trkpt>
      <trkpt lat="42.058664" lon="-2.447951">
        <ele>1177.24</ele>
        <time>2021-03-27T19:10:31Z</time>
      </trkpt>
      <trkpt lat="42.058841" lon="-2.447762">
        <ele>1171.56</ele>
        <time>2021-03-27T19:10:34Z</time>
      </trkpt>
      <trkpt lat="42.059238" lon="-2.447386">
        <ele>1174.61</ele>
        <time>2021-03-27T19:10:36Z</time>
      </trkpt>
      <trkpt lat="42.059571" lon="-2.447893">
        <ele>1178.68</ele>
        <time>2021-03-27T19:10:38Z</time>
      </trkpt>
      <trkpt lat="42.059804" lon="-2.448129">
        <ele>1180.11</ele>
        <time>2021-03-27T19:10:41Z</time>
      </trkpt>
      <trkpt lat="42.060037" lon="-2.448271">
        <ele>1181.4</ele>
        <time>2021-03-27T19:10:43Z</time>
      </trkpt>
      <trkpt lat="42.060154" lon="-2.448302">
        <ele>1182.67</ele>
        <time>2021-03-27T19:10:45Z</time>
      </trkpt>
      <trkpt lat="42.060321" lon="-2.448275">
        <ele>1184.66</ele>
        <time>2021-03-27T19:10:47Z</time>
      </trkpt>
      <trkpt lat="42.060583" lon="-2.448158">
        <ele>1189.19</ele>
        <time>2021-03-27T19:10:50Z</time>
      </trkpt>
      <trkpt lat="42.060722" lon="-2.448034">
        <ele>1192.55</ele>
        <time>2021-03-27T19:10:52Z</time>
      </trkpt>
      <trkpt lat="42.061707" lon="-2.446905">
        <ele>1202.89</ele>
        <time>2021-03-27T19:10:54Z</time>
      </trkpt>
      <trkpt lat="42.061874" lon="-2.446789">
        <ele>1206.66</ele>
        <time>2021-03-27T19:10:56Z</time>
      </trkpt>
      <trkpt lat="42.062199" lon="-2.446718">
        <ele>1212.76</ele>
        <time>2021-03-27T19:10:59Z</time>
      </trkpt>
      <trkpt lat="42.062495" lon="-2.44668">
        <ele>1215.85</ele>
        <time>2021-03-27T19:11:01Z</time>
      </trkpt>
      <trkpt lat="42.062576" lon="-2.446643">
        <ele>1216.32</ele>
        <time>2021-03-27T19:11:03Z</time>
      </trkpt>
      <trkpt lat="42.062615" lon="-2.446514">
        <ele>1216.87</ele>
        <time>2021-03-27T19:11:05Z</time>
      </trkpt>
      <trkpt lat="42.062676" lon="-2.44603">
        <ele>1217.79</ele>
        <time>2021-03-27T19:11:07Z</time>
      </trkpt>
      <trkpt lat="42.06283" lon="-2.445536">
        <ele>1218.81</ele>
        <time>2021-03-27T19:11:09Z</time>
      </trkpt>
      <trkpt lat="42.063318" lon="-2.444097">
        <ele>1223.4</ele>
        <time>2021-03-27T19:11:12Z</time>
      </trkpt>
      <trkpt lat="42.063532" lon="-2.443578">
        <ele>1224.19</ele>
        <time>2021-03-27T19:11:14Z</time>
      </trkpt>
      <trkpt lat="42.063749" lon="-2.443109">
        <ele>1224.18</ele>
        <time>2021-03-27T19:11:16Z</time>
      </trkpt>
      <trkpt lat="42.063936" lon="-2.442598">
        <ele>1226.97</ele>
        <time>2021-03-27T19:11:18Z</time>
      </trkpt>
      <trkpt lat="42.064066" lon="-2.44237">
        <ele>1228.08</ele>
        <time>2021-03-27T19:11:20Z</time>
      </trkpt>
      <trkpt lat="42.064273" lon="-2.442145">
        <ele>1229.81</ele>
        <time>2021-03-27T19:11:22Z</time>
      </trkpt>
      <trkpt lat="42.064808" lon="-2.440759">
        <ele>1237.19</ele>
        <time>2021-03-27T19:11:24Z</time>
      </trkpt>
      <trkpt lat="42.065076" lon="-2.439739">
        <ele>1239.22</ele>
        <time>2021-03-27T19:11:26Z</time>
      </trkpt>
      <trkpt lat="42.065255" lon="-2.439472">
        <ele>1239.87</ele>
        <time>2021-03-27T19:11:28Z</time>
      </trkpt>
      <trkpt lat="42.065798" lon="-2.4389">
        <ele>1243.9</ele>
        <time>2021-03-27T19:11:30Z</time>
      </trkpt>
      <trkpt lat="42.065868" lon="-2.438798">
        <ele>1244.66</ele>
        <time>2021-03-27T19:11:32Z</time>
      </trkpt>
      <trkpt lat="42.065883" lon="-2.438653">
        <ele>1245.42</ele>
        <time>2021-03-27T19:11:34Z</time>
      </trkpt>
      <trkpt lat="42.065862" lon="-2.438561">
        <ele>1246.32</ele>
        <time>2021-03-27T19:11:36Z</time>
      </trkpt>
      <trkpt lat="42.06581" lon="-2.438462">
        <ele>1247.61</ele>
        <time>2021-03-27T19:11:38Z</time>
      </trkpt>
      <trkpt lat="42.065748" lon="-2.438417">
        <ele>1248.09</ele>
        <time>2021-03-27T19:11:41Z</time>
      </trkpt>
      <trkpt lat="42.065013" lon="-2.438323">
        <ele>1250.25</ele>
        <time>2021-03-27T19:11:43Z</time>
      </trkpt>
      <trkpt lat="42.06487" lon="-2.438268">
        <ele>1248.59</ele>
        <time>2021-03-27T19:11:45Z</time>
      </trkpt>
      <trkpt lat="42.064756" lon="-2.43817">
        <ele>1247.96</ele>
        <time>2021-03-27T19:11:47Z</time>
      </trkpt>
      <trkpt lat="42.064654" lon="-2.438007">
        <ele>1249.48</ele>
        <time>2021-03-27T19:11:49Z</time>
      </trkpt>
      <trkpt lat="42.064399" lon="-2.437382">
        <ele>1252.0</ele>
        <time>2021-03-27T19:11:51Z</time>
      </trkpt>
      <trkpt lat="42.064308" lon="-2.437097">
        <ele>1252.45</ele>
        <time>2021-03-27T19:11:53Z</time>
      </trkpt>
      <trkpt lat="42.064266" lon="-2.436679">
        <ele>1252.39</ele>
        <time>2021-03-27T19:11:55Z</time>
      </trkpt>
      <trkpt lat="42.064215" lon="-2.436543">
        <ele>1251.65</ele>
        <time>2021-03-27T19:11:57Z</time>
      </trkpt>
      <trkpt lat="42.064127" lon="-2.43646">
        <ele>1251.26</ele>
        <time>2021-03-27T19:11:59Z</time>
      </trkpt>
      <trkpt lat="42.063667" lon="-2.436368">
        <ele>1251.59</ele>
        <time>2021-03-27T19:12:01Z</time>
      </trkpt>
      <trkpt lat="42.063563" lon="-2.436311">
        <ele>1250.94</ele>
        <time>2021-03-27T19:12:03Z</time>
      </trkpt>
      <trkpt lat="42.063491" lon="-2.436244">
        <ele>1249.78</ele>
        <time>2021-03-27T19:12:05Z</time>
      </trkpt>
      <trkpt lat="42.063444" lon="-2.436147">
        <ele>1248.26</ele>
        <time>2021-03-27T19:12:07Z</time>
      </trkpt>
      <trkpt lat="42.063427" lon="-2.436049">
        <ele>1246.71</ele>
        <time>2021-03-27T19:12:10Z</time>
      </trkpt>
      <trkpt lat="42.063454" lon="-2.435869">
        <ele>1244.27</ele>
        <time>2021-03-27T19:12:12Z</time>
      </trkpt>
      <trkpt lat="42.063723" lon="-2.435131">
        <ele>1242.01</ele>
        <time>2021-03-27T19:12:14Z</time>
      </trkpt>
      <trkpt lat="42.06387" lon="-2.434953">
        <ele>1240.09</ele>
        <time>2021-03-27T19:12:16Z</time>
      </trkpt>
      <trkpt lat="42.063992" lon="-2.434906">
        <ele>1237.7</ele>
        <time>2021-03-27T19:12:18Z</time>
      </trkpt>
      <trkpt lat="42.064535" lon="-2.434977">
        <ele>1233.7</ele>
        <time>2021-03-27T19:12:20Z</time>
      </trkpt>
      <trkpt lat="42.064632" lon="-2.434954">
        <ele>1233.44</ele>
        <time>2021-03-27T19:12:22Z</time>
      </trkpt>
      <trkpt lat="42.06471" lon="-2.434881">
        <ele>1232.69</ele>
        <time>2021-03-27T19:12:24Z</time>
      </trkpt>
      <trkpt lat="42.064796" lon="-2.434696">
        <ele>1232.33</ele>
        <time>2021-03-27T19:12:26Z</time>
      </trkpt>
      <trkpt lat="42.064795" lon="-2.434585">
        <ele>1232.3</ele>
        <time>2021-03-27T19:12:28Z</time>
      </trkpt>
      <trkpt lat="42.064755" lon="-2.434477">
        <ele>1231.59</ele>
        <time>2021-03-27T19:12:30Z</time>
      </trkpt>
      <trkpt lat="42.0641" lon="-2.433552">
        <ele>1231.37</ele>
        <time>2021-03-27T19:12:32Z</time>
      </trkpt>
      <trkpt lat="42.06397" lon="-2.433416">
        <ele>1232.39</ele>
        <time>2021-03-27T19:12:34Z</time>
      </trkpt>
      <trkpt lat="42.063767" lon="-2.433305">
        <ele>1233.94</ele>
        <time>2021-03-27T19:12:36Z</time>
      </trkpt>
      <trkpt lat="42.063241" lon="-2.433116">
        <ele>1236.18</ele>
        <time>2021-03-27T19:12:38Z</time>
      </trkpt>
      <trkpt lat="42.063105" lon="-2.433043">
        <ele>1235.14</ele>
        <time>2021-03-27T19:12:41Z</time>
      </trkpt>
      <trkpt lat="42.063003" lon="-2.432908">
        <ele>1236.88</ele>
        <time>2021-03-27T19:12:43Z</time>
      </trkpt>
      <trkpt lat="42.062926" lon="-2.432742">
        <ele>1239.46</ele>
        <time>2021-03-27T19:12:45Z</time>
      </trkpt>
      <trkpt lat="42.062864" lon="-2.43255">
        <ele>1240.77</ele>
        <time>2021-03-27T19:12:47Z</time>
      </trkpt>
      <trkpt lat="42.062832" lon="-2.432319">
        <ele>1241.71</ele>
        <time>2021-03-27T19:12:49Z</time>
      </trkpt>
      <trkpt lat="42.062837" lon="-2.432075">
        <ele>1241.69</ele>
        <time>2021-03-27T19:12:51Z</time>
      </trkpt>
      <trkpt lat="42.063383" lon="-2.429372">
        <ele>1242.85</ele>
        <time>2021-03-27T19:12:53Z</time>
      </trkpt>
      <trkpt lat="42.063699" lon="-2.42822">
        <ele>1244.89</ele>
        <time>2021-03-27T19:12:55Z</time>
      </trkpt>
      <trkpt lat="42.063802" lon="-2.427975">
        <ele>1245.34</ele>
        <time>2021-03-27T19:12:57Z</time>
      </trkpt>
      <trkpt lat="42.064536" lon="-2.426738">
        <ele>1243.5</ele>
        <time>2021-03-27T19:12:59Z</time>
      </trkpt>
      <trkpt lat="42.064905" lon="-2.426315">
        <ele>1244.9</ele>
        <time>2021-03-27T19:13:01Z</time>
      </trkpt>
      <trkpt lat="42.065063" lon="-2.426172">
        <ele>1245.96</ele>
        <time>2021-03-27T19:13:03Z</time>
      </trkpt>
      <trkpt lat="42.065195" lon="-2.426088">
        <ele>1246.96</ele>
        <time>2021-03-27T19:13:05Z</time>
      </trkpt>
      <trkpt lat="42.066361" lon="-2.425997">
        <ele>1247.09</ele>
        <time>2021-03-27T19:13:07Z</time>
      </trkpt>
      <trkpt lat="42.066834" lon="-2.426196">
        <ele>1251.74</ele>
        <time>2021-03-27T19:13:10Z</time>
      </trkpt>
      <trkpt lat="42.066954" lon="-2.426215">
        <ele>1253.63</ele>
        <time>2021-03-27T19:13:12Z</time>
      </trkpt>
      <trkpt lat="42.067059" lon="-2.426164">
        <ele>1254.41</ele>
        <time>2021-03-27T19:13:14Z</time>
      </trkpt>
      <trkpt lat="42.067143" lon="-2.426058">
        <ele>1254.42</ele>
        <time>2021-03-27T19:13:16Z</time>
      </trkpt>
      <trkpt lat="42.067527" lon="-2.425678">
        <ele>1257.56</ele>
        <time>2021-03-27T19:13:18Z</time>
      </trkpt>
      <trkpt lat="42.067984" lon="-2.425429">
        <ele>1259.16</ele>
        <time>2021-03-27T19:13:20Z</time>
      </trkpt>
      <trkpt lat="42.06828" lon="-2.425301">
        <ele>1263.04</ele>
        <time>2021-03-27T19:13:22Z</time>
      </trkpt>
      <trkpt lat="42.068396" lon="-2.425176">
        <ele>1264.1</ele>
        <time>2021-03-27T19:13:24Z</time>
      </trkpt>
      <trkpt lat="42.068602" lon="-2.424775">
        <ele>1266.08</ele>
        <time>2021-03-27T19:13:26Z</time>
      </trkpt>
      <trkpt lat="42.068632" lon="-2.424593">
        <ele>1267.3</ele>
        <time>2021-03-27T19:13:28Z</time>
      </trkpt>
      <trkpt lat="42.068476" lon="-2.42361">
        <ele>1271.52</ele>
        <time>2021-03-27T19:13:30Z</time>
      </trkpt>
      <trkpt lat="42.068487" lon="-2.423403">
        <ele>1273.39</ele>
        <time>2021-03-27T19:13:32Z</time>
      </trkpt>
      <trkpt lat="42.068585" lon="-2.423148">
        <ele>1276.0</ele>
        <time>2021-03-27T19:13:34Z</time>
      </trkpt>
      <trkpt lat="42.068823" lon="-2.422658">
        <ele>1277.67</ele>
        <time>2021-03-27T19:13:36Z</time>
      </trkpt>
      <trkpt lat="42.068961" lon="-2.42243">
        <ele>1277.0</ele>
        <time>2021-03-27T19:13:39Z</time>
      </trkpt>
      <trkpt lat="42.069192" lon="-2.422207">
        <ele>1276.65</ele>
        <time>2021-03-27T19:13:41Z</time>
      </trkpt>
      <trkpt lat="42.069455" lon="-2.421913">
        <ele>1271.69</ele>
        <time>2021-03-27T19:13:43Z</time>
      </trkpt>
      <trkpt lat="42.069716" lon="-2.421665">
        <ele>1268.0</ele>
        <time>2021-03-27T19:13:45Z</time>
      </trkpt>
      <trkpt lat="42.069824" lon="-2.421611">
        <ele>1267.4</ele>
        <time>2021-03-27T19:13:47Z</time>
      </trkpt>
      <trkpt lat="42.069927" lon="-2.421597">
        <ele>1267.25</ele>
        <time>2021-03-27T19:13:49Z</time>
      </trkpt>
      <trkpt lat="42.070248" lon="-2.421638">
        <ele>1265.19</ele>
        <time>2021-03-27T19:13:51Z</time>
      </trkpt>
      <trkpt lat="42.070361" lon="-2.421609">
        <ele>1265.09</ele>
        <time>2021-03-27T19:13:53Z</time>
      </trkpt>
      <trkpt lat="42.070469" lon="-2.421513">
        <ele>1265.14</ele>
        <time>2021-03-27T19:13:55Z</time>
      </trkpt>
      <trkpt lat="42.071779" lon="-2.419275">
        <ele>1269.76</ele>
        <time>2021-03-27T19:13:57Z</time>
      </trkpt>
      <trkpt lat="42.071675" lon="-2.419169">
        <ele>1268.1</ele>
        <time>2021-03-27T19:14:00Z</time>
      </trkpt>
      <trkpt lat="42.071499" lon="-2.418788">
        <ele>1266.18</ele>
        <time>2021-03-27T19:14:03Z</time>
      </trkpt>
      <trkpt lat="42.071313" lon="-2.418141">
        <ele>1263.63</ele>
        <time>2021-03-27T19:14:06Z</time>
      </trkpt>
      <trkpt lat="42.071025" lon="-2.417035">
        <ele>1261.49</ele>
        <time>2021-03-27T19:14:09Z</time>
      </trkpt>
      <trkpt lat="42.070395" lon="-2.41483">
        <ele>1260.74</ele>
        <time>2021-03-27T19:14:12Z</time>
      </trkpt>
      <trkpt lat="42.070294" lon="-2.414428">
        <ele>1258.47</ele>
        <time>2021-03-27T19:14:15Z</time>
      </trkpt>
      <trkpt lat="42.069454" lon="-2.409346">
        <ele>1236.15</ele>
        <time>2021-03-27T19:14:18Z</time>
      </trkpt>
      <trkpt lat="42.069324" lon="-2.408688">
        <ele>1236.27</ele>
        <time>2021-03-27T19:14:21Z</time>
      </trkpt>
      <trkpt lat="42.069201" lon="-2.407689">
        <ele>1232.8</ele>
        <time>2021-03-27T19:14:24Z</time>
      </trkpt>
      <trkpt lat="42.068577" lon="-2.403853">
        <ele>1218.59</ele>
        <time>2021-03-27T19:14:27Z</time>
      </trkpt>
      <trkpt lat="42.068438" lon="-2.403264">
        <ele>1219.96</ele>
        <time>2021-03-27T19:14:30Z</time>
      </trkpt>
      <trkpt lat="42.067926" lon="-2.401648">
        <ele>1215.33</ele>
        <time>2021-03-27T19:14:33Z</time>
      </trkpt>
      <trkpt lat="42.067436" lon="-2.400225">
        <ele>1208.1</ele>
        <time>2021-03-27T19:14:36Z</time>
      </trkpt>
      <trkpt lat="42.067265" lon="-2.399816">
        <ele>1203.85</ele>
        <time>2021-03-27T19:14:39Z</time>
      </trkpt>
      <trkpt lat="42.06447" lon="-2.394809">
        <ele>1177.59</ele>
        <time>2021-03-27T19:14:42Z</time>
      </trkpt>
      <trkpt lat="42.064411" lon="-2.394644">
        <ele>1176.33</ele>
        <time>2021-03-27T19:14:45Z</time>
      </trkpt>
      <trkpt lat="42.064215" lon="-2.39363">
        <ele>1173.32</ele>
        <time>2021-03-27T19:14:48Z</time>
      </trkpt>
      <trkpt lat="42.064006" lon="-2.392747">
        <ele>1168.59</ele>
        <time>2021-03-27T19:14:51Z</time>
      </trkpt>
      <trkpt lat="42.063222" lon="-2.390046">
        <ele>1156.04</ele>
        <time>2021-03-27T19:14:54Z</time>
      </trkpt>
      <trkpt lat="42.062999" lon="-2.389334">
        <ele>1152.77</ele>
        <time>2021-03-27T19:14:57Z</time>
      </trkpt>
      <trkpt lat="42.062698" lon="-2.388583">
        <ele>1142.38</ele>
        <time>2021-03-27T19:15:00Z</time>
      </trkpt>
      <trkpt lat="42.062336" lon="-2.387889">
        <ele>1140.32</ele>
        <time>2021-03-27T19:15:03Z</time>
      </trkpt>
      <trkpt lat="42.062303" lon="-2.387847">
        <ele>1140.1</ele>
        <time>2021-03-27T19:15:06Z</time>
      </trkpt>
      <trkpt lat="42.062254" lon="-2.387821">
        <ele>1140.08</ele>
        <time>2021-03-27T19:15:09Z</time>
      </trkpt>
      <trkpt lat="42.062169" lon="-2.387871">
        <ele>1139.83</ele>
        <time>2021-03-27T19:15:12Z</time>
      </trkpt>
      <trkpt lat="42.062028" lon="-2.388056">
        <ele>1139.6</ele>
        <time>2021-03-27T19:15:15Z</time>
      </trkpt>
      <trkpt lat="42.061926" lon="-2.388234">
        <ele>1137.28</ele>
        <time>2021-03-27T19:15:18Z</time>
      </trkpt>
      <trkpt lat="42.061914" lon="-2.388472">
        <ele>1135.02</ele>
        <time>2021-03-27T19:15:21Z</time>
      </trkpt>
      <trkpt lat="42.061953" lon="-2.388701">
        <ele>1133.45</ele>
        <time>2021-03-27T19:15:24Z</time>
      </trkpt>
      <trkpt lat="42.062191" lon="-2.389665">
        <ele>1134.92</ele>
        <time>2021-03-27T19:15:27Z</time>
      </trkpt>
      <trkpt lat="42.062202" lon="-2.389769">
        <ele>1134.53</ele>
        <time>2021-03-27T19:15:30Z</time>
      </trkpt>
      <trkpt lat="42.062167" lon="-2.390039">
        <ele>1132.71</ele>
        <time>2021-03-27T19:15:33Z</time>
      </trkpt>
      <trkpt lat="42.062129" lon="-2.390107">
        <ele>1132.54</ele>
        <time>2021-03-27T19:15:36Z</time>
      </trkpt>
      <trkpt lat="42.062065" lon="-2.390168">
        <ele>1132.51</ele>
        <time>2021-03-27T19:15:38Z</time>
      </trkpt>
      <trkpt lat="42.061984" lon="-2.390189">
        <ele>1132.63</ele>
        <time>2021-03-27T19:15:41Z</time>
      </trkpt>
      <trkpt lat="42.061816" lon="-2.390141">
        <ele>1133.91</ele>
        <time>2021-03-27T19:15:44Z</time>
      </trkpt>
      <trkpt lat="42.061591" lon="-2.389909">
        <ele>1134.63</ele>
        <time>2021-03-27T19:15:47Z</time>
      </trkpt>
      <trkpt lat="42.061084" lon="-2.389277">
        <ele>1133.28</ele>
        <time>2021-03-27T19:15:50Z</time>
      </trkpt>
      <trkpt lat="42.060935" lon="-2.389011">
        <ele>1133.97</ele>
        <time>2021-03-27T19:15:53Z</time>
      </trkpt>
      <trkpt lat="42.06087" lon="-2.388666">
        <ele>1133.5</ele>
        <time>2021-03-27T19:15:56Z</time>
      </trkpt>
      <trkpt lat="42.060903" lon="-2.38835">
        <ele>1132.05</ele>
        <time>2021-03-27T19:15:59Z</time>
      </trkpt>
      <trkpt lat="42.060998" lon="-2.387977">
        <ele>1127.94</ele>
        <time>2021-03-27T19:16:02Z</time>
      </trkpt>
      <trkpt lat="42.061047" lon="-2.387618">
        <ele>1124.68</ele>
        <time>2021-03-27T19:16:05Z</time>
      </trkpt>
      <trkpt lat="42.061036" lon="-2.386856">
        <ele>1121.64</ele>
        <time>2021-03-27T19:16:08Z</time>
      </trkpt>
      <trkpt lat="42.061006" lon="-2.386733">
        <ele>1121.56</ele>
        <time>2021-03-27T19:16:11Z</time>
      </trkpt>
      <trkpt lat="42.060486" lon="-2.385628">
        <ele>1115.72</ele>
        <time>2021-03-27T19:16:14Z</time>
      </trkpt>
      <trkpt lat="42.060209" lon="-2.384953">
        <ele>1110.91</ele>
        <time>2021-03-27T19:16:17Z</time>
      </trkpt>
      <trkpt lat="42.060172" lon="-2.384565">
        <ele>1109.76</ele>
        <time>2021-03-27T19:16:20Z</time>
      </trkpt>
      <trkpt lat="42.060252" lon="-2.384069">
        <ele>1104.48</ele>
        <time>2021-03-27T19:16:23Z</time>
      </trkpt>
      <trkpt lat="42.060353" lon="-2.383602">
        <ele>1100.3</ele>
        <time>2021-03-27T19:16:26Z</time>
      </trkpt>
      <trkpt lat="42.060348" lon="-2.383329">
        <ele>1098.24</ele>
        <time>2021-03-27T19:16:29Z</time>
      </trkpt>
      <trkpt lat="42.060252" lon="-2.383106">
        <ele>1098.66</ele>
        <time>2021-03-27T19:16:32Z</time>
      </trkpt>
      <trkpt lat="42.059894" lon="-2.382704">
        <ele>1099.62</ele>
        <time>2021-03-27T19:16:35Z</time>
      </trkpt>
      <trkpt lat="42.059788" lon="-2.38251">
        <ele>1097.74</ele>
        <time>2021-03-27T19:16:38Z</time>
      </trkpt>
      <trkpt lat="42.059782" lon="-2.38233">
        <ele>1094.09</ele>
        <time>2021-03-27T19:16:41Z</time>
      </trkpt>
      <trkpt lat="42.059857" lon="-2.382136">
        <ele>1092.63</ele>
        <time>2021-03-27T19:16:44Z</time>
      </trkpt>
      <trkpt lat="42.059836" lon="-2.381878">
        <ele>1091.41</ele>
        <time>2021-03-27T19:16:47Z</time>
      </trkpt>
      <trkpt lat="42.059798" lon="-2.3808">
        <ele>1090.71</ele>
        <time>2021-03-27T19:16:50Z</time>
      </trkpt>
      <trkpt lat="42.059873" lon="-2.380483">
        <ele>1093.43</ele>
        <time>2021-03-27T19:16:53Z</time>
      </trkpt>
      <trkpt lat="42.059868" lon="-2.380384">
        <ele>1093.99</ele>
        <time>2021-03-27T19:16:56Z</time>
      </trkpt>
      <trkpt lat="42.059809" lon="-2.380132">
        <ele>1094.15</ele>
        <time>2021-03-27T19:16:59Z</time>
      </trkpt>
      <trkpt lat="42.059676" lon="-2.379723">
        <ele>1095.16</ele>
        <time>2021-03-27T19:17:02Z</time>
      </trkpt>
      <trkpt lat="42.059494" lon="-2.379363">
        <ele>1099.01</ele>
        <time>2021-03-27T19:17:05Z</time>
      </trkpt>
      <trkpt lat="42.059073" lon="-2.378882">
        <ele>1100.03</ele>
        <time>2021-03-27T19:17:08Z</time>
      </trkpt>
      <trkpt lat="42.058977" lon="-2.378667">
        <ele>1098.71</ele>
        <time>2021-03-27T19:17:11Z</time>
      </trkpt>
      <trkpt lat="42.058769" lon="-2.377912">
        <ele>1102.51</ele>
        <time>2021-03-27T19:17:14Z</time>
      </trkpt>
      <trkpt lat="42.058732" lon="-2.377611">
        <ele>1106.64</ele>
        <time>2021-03-27T19:17:17Z</time>
      </trkpt>
      <trkpt lat="42.058657" lon="-2.37728">
        <ele>1108.3</ele>
        <time>2021-03-27T19:17:20Z</time>
      </trkpt>
      <trkpt lat="42.05855" lon="-2.377093">
        <ele>1107.8</ele>
        <time>2021-03-27T19:17:23Z</time>
      </trkpt>
      <trkpt lat="42.058284" lon="-2.376698">
        <ele>1103.97</ele>
        <time>2021-03-27T19:17:26Z</time>
      </trkpt>
      <trkpt lat="42.058236" lon="-2.376519">
        <ele>1103.15</ele>
        <time>2021-03-27T19:17:29Z</time>
      </trkpt>
      <trkpt lat="42.058289" lon="-2.376303">
        <ele>1105.99</ele>
        <time>2021-03-27T19:17:32Z</time>
      </trkpt>
      <trkpt lat="42.058417" lon="-2.376002">
        <ele>1105.23</ele>
        <time>2021-03-27T19:17:35Z</time>
      </trkpt>
      <trkpt lat="42.058571" lon="-2.375851">
        <ele>1104.74</ele>
        <time>2021-03-27T19:17:38Z</time>
      </trkpt>
      <trkpt lat="42.059276" lon="-2.375527">
        <ele>1101.93</ele>
        <time>2021-03-27T19:17:41Z</time>
      </trkpt>
      <trkpt lat="42.059452" lon="-2.375391">
        <ele>1100.75</ele>
        <time>2021-03-27T19:17:44Z</time>
      </trkpt>
      <trkpt lat="42.059596" lon="-2.375017">
        <ele>1096.7</ele>
        <time>2021-03-27T19:17:47Z</time>
      </trkpt>
      <trkpt lat="42.059638" lon="-2.374601">
        <ele>1093.31</ele>
        <time>2021-03-27T19:17:50Z</time>
      </trkpt>
      <trkpt lat="42.059729" lon="-2.374112">
        <ele>1090.41</ele>
        <time>2021-03-27T19:17:53Z</time>
      </trkpt>
      <trkpt lat="42.059836" lon="-2.37376">
        <ele>1087.55</ele>
        <time>2021-03-27T19:17:56Z</time>
      </trkpt>
      <trkpt lat="42.060028" lon="-2.373408">
        <ele>1086.05</ele>
        <time>2021-03-27T19:17:59Z</time>
      </trkpt>
      <trkpt lat="42.060321" lon="-2.372927">
        <ele>1084.62</ele>
        <time>2021-03-27T19:18:02Z</time>
      </trkpt>
      <trkpt lat="42.060897" lon="-2.371878">
        <ele>1078.71</ele>
        <time>2021-03-27T19:18:05Z</time>
      </trkpt>
      <trkpt lat="42.061697" lon="-2.370664">
        <ele>1067.13</ele>
        <time>2021-03-27T19:18:07Z</time>
      </trkpt>
      <trkpt lat="42.061847" lon="-2.370491">
        <ele>1065.44</ele>
        <time>2021-03-27T19:18:10Z</time>
      </trkpt>
      <trkpt lat="42.062726" lon="-2.369902">
        <ele>1063.0</ele>
        <time>2021-03-27T19:18:13Z</time>
      </trkpt>
      <trkpt lat="42.062908" lon="-2.369838">
        <ele>1061.15</ele>
        <time>2021-03-27T19:18:16Z</time>
      </trkpt>
      <trkpt lat="42.063457" lon="-2.369931">
        <ele>1058.63</ele>
        <time>2021-03-27T19:18:19Z</time>
      </trkpt>
      <trkpt lat="42.063558" lon="-2.369852">
        <ele>1057.24</ele>
        <time>2021-03-27T19:18:22Z</time>
      </trkpt>
      <trkpt lat="42.063617" lon="-2.369658">
        <ele>1054.22</ele>
        <time>2021-03-27T19:18:25Z</time>
      </trkpt>
      <trkpt lat="42.063734" lon="-2.369385">
        <ele>1052.6</ele>
        <time>2021-03-27T19:18:28Z</time>
      </trkpt>
      <trkpt lat="42.063905" lon="-2.369062">
        <ele>1051.2</ele>
        <time>2021-03-27T19:18:31Z</time>
      </trkpt>
      <trkpt lat="42.064268" lon="-2.368638">
        <ele>1051.88</ele>
        <time>2021-03-27T19:18:34Z</time>
      </trkpt>
      <trkpt lat="42.064977" lon="-2.368092">
        <ele>1045.76</ele>
        <time>2021-03-27T19:18:37Z</time>
      </trkpt>
      <trkpt lat="42.065256" lon="-2.367915">
        <ele>1045.59</ele>
        <time>2021-03-27T19:18:40Z</time>
      </trkpt>
      <trkpt lat="42.065565" lon="-2.367593">
        <ele>1043.92</ele>
        <time>2021-03-27T19:18:43Z</time>
      </trkpt>
      <trkpt lat="42.066447" lon="-2.366537">
        <ele>1030.81</ele>
        <time>2021-03-27T19:18:46Z</time>
      </trkpt>
      <trkpt lat="42.066891" lon="-2.366196">
        <ele>1029.98</ele>
        <time>2021-03-27T19:18:49Z</time>
      </trkpt>
      <trkpt lat="42.067131" lon="-2.366097">
        <ele>1029.23</ele>
        <time>2021-03-27T19:18:52Z</time>
      </trkpt>
      <trkpt lat="42.067799" lon="-2.365701">
        <ele>1026.41</ele>
        <time>2021-03-27T19:18:55Z</time>
      </trkpt>
      <trkpt lat="42.068571" lon="-2.365138">
        <ele>1025.63</ele>
        <time>2021-03-27T19:18:58Z</time>
      </trkpt>
      <trkpt lat="42.068801" lon="-2.364885">
        <ele>1024.07</ele>
        <time>2021-03-27T19:19:01Z</time>
      </trkpt>
      <trkpt lat="42.068964" lon="-2.364627">
        <ele>1023.19</ele>
        <time>2021-03-27T19:19:04Z</time>
      </trkpt>
      <trkpt lat="42.069339" lon="-2.364324">
        <ele>1022.89</ele>
        <time>2021-03-27T19:19:07Z</time>
      </trkpt>
      <trkpt lat="42.069789" lon="-2.363875">
        <ele>1022.88</ele>
        <time>2021-03-27T19:19:10Z</time>
      </trkpt>
      <trkpt lat="42.070081" lon="-2.363751">
        <ele>1025.63</ele>
        <time>2021-03-27T19:19:13Z</time>
      </trkpt>
      <trkpt lat="42.070333" lon="-2.363479">
        <ele>1026.2</ele>
        <time>2021-03-27T19:19:16Z</time>
      </trkpt>
      <trkpt lat="42.070585" lon="-2.363161">
        <ele>1026.77</ele>
        <time>2021-03-27T19:19:19Z</time>
      </trkpt>
      <trkpt lat="42.070798" lon="-2.362808">
        <ele>1027.91</ele>
        <time>2021-03-27T19:19:22Z</time>
      </trkpt>
      <trkpt lat="42.070989" lon="-2.362247">
        <ele>1025.92</ele>
        <time>2021-03-27T19:19:25Z</time>
      </trkpt>
      <trkpt lat="42.07138" lon="-2.361826">
        <ele>1026.61</ele>
        <time>2021-03-27T19:19:28Z</time>
      </trkpt>
      <trkpt lat="42.071542" lon="-2.361687">
        <ele>1026.36</ele>
        <time>2021-03-27T19:19:31Z</time>
      </trkpt>
      <trkpt lat="42.071656" lon="-2.36163">
        <ele>1026.39</ele>
        <time>2021-03-27T19:19:34Z</time>
      </trkpt>
      <trkpt lat="42.071959" lon="-2.361616">
        <ele>1028.31</ele>
        <time>2021-03-27T19:19:37Z</time>
      </trkpt>
      <trkpt lat="42.072064" lon="-2.361529">
        <ele>1027.87</ele>
        <time>2021-03-27T19:19:40Z</time>
      </trkpt>
      <trkpt lat="42.072256" lon="-2.361158">
        <ele>1027.6</ele>
        <time>2021-03-27T19:19:43Z</time>
      </trkpt>
      <trkpt lat="42.07238" lon="-2.361025">
        <ele>1027.3</ele>
        <time>2021-03-27T19:19:46Z</time>
      </trkpt>
      <trkpt lat="42.072522" lon="-2.360889">
        <ele>1026.06</ele>
        <time>2021-03-27T19:19:49Z</time>
      </trkpt>
      <trkpt lat="42.073047" lon="-2.360462">
        <ele>1025.56</ele>
        <time>2021-03-27T19:19:52Z</time>
      </trkpt>
      <trkpt lat="42.073322" lon="-2.360204">
        <ele>1025.36</ele>
        <time>2021-03-27T19:19:55Z</time>
      </trkpt>
      <trkpt lat="42.073906" lon="-2.359348">
        <ele>1031.04</ele>
        <time>2021-03-27T19:19:58Z</time>
      </trkpt>
      <trkpt lat="42.075301" lon="-2.356413">
        <ele>1023.42</ele>
        <time>2021-03-27T19:20:01Z</time>
      </trkpt>
      <trkpt lat="42.075176" lon="-2.355819">
        <ele>1017.49</ele>
        <time>2021-03-27T19:20:05Z</time>
      </trkpt>
      <trkpt lat="42.075173" lon="-2.355664">
        <ele>1016.88</ele>
        <time>2021-03-27T19:20:09Z</time>
      </trkpt>
      <trkpt lat="42.075214" lon="-2.355387">
        <ele>1017.08</ele>
        <time>2021-03-27T19:20:13Z</time>
      </trkpt>
      <trkpt lat="42.075371" lon="-2.35478">
        <ele>1016.57</ele>
        <time>2021-03-27T19:20:17Z</time>
      </trkpt>
      <trkpt lat="42.075406" lon="-2.354551">
        <ele>1015.87</ele>
        <time>2021-03-27T19:20:21Z</time>
      </trkpt>
      <trkpt lat="42.075349" lon="-2.35416">
        <ele>1013.55</ele>
        <time>2021-03-27T19:20:26Z</time>
      </trkpt>
      <trkpt lat="42.075389" lon="-2.353213">
        <ele>1011.45</ele>
        <time>2021-03-27T19:20:30Z</time>
      </trkpt>
      <trkpt lat="42.075362" lon="-2.350455">
        <ele>1006.19</ele>
        <time>2021-03-27T19:20:34Z</time>
      </trkpt>
      <trkpt lat="42.075062" lon="-2.349728">
        <ele>1004.22</ele>
        <time>2021-03-27T19:20:38Z</time>
      </trkpt>
      <trkpt lat="42.075175" lon="-2.349622">
        <ele>1004.5</ele>
        <time>2021-03-27T19:20:40Z</time>
      </trkpt>
      <trkpt lat="42.075245" lon="-2.3495">
        <ele>1004.79</ele>
        <time>2021-03-27T19:20:41Z</time>
      </trkpt>
      <trkpt lat="42.075314" lon="-2.349329">
        <ele>1004.51</ele>
        <time>2021-03-27T19:20:43Z</time>
      </trkpt>
      <trkpt lat="42.076295" lon="-2.346411">
        <ele>1001.06</ele>
        <time>2021-03-27T19:20:45Z</time>
      </trkpt>
      <trkpt lat="42.077161" lon="-2.343928">
        <ele>1000.61</ele>
        <time>2021-03-27T19:20:46Z</time>
      </trkpt>
      <trkpt lat="42.077321" lon="-2.343282">
        <ele>1002.88</ele>
        <time>2021-03-27T19:20:48Z</time>
      </trkpt>
      <trkpt lat="42.077386" lon="-2.342783">
        <ele>1002.37</ele>
        <time>2021-03-27T19:20:50Z</time>
      </trkpt>
      <trkpt lat="42.077449" lon="-2.341754">
        <ele>1005.64</ele>
        <time>2021-03-27T19:20:51Z</time>
      </trkpt>
      <trkpt lat="42.077497" lon="-2.341461">
        <ele>1004.48</ele>
        <time>2021-03-27T19:20:53Z</time>
      </trkpt>
      <trkpt lat="42.077568" lon="-2.341189">
        <ele>1004.51</ele>
        <time>2021-03-27T19:20:55Z</time>
      </trkpt>
      <trkpt lat="42.077695" lon="-2.340913">
        <ele>1005.8</ele>
        <time>2021-03-27T19:20:56Z</time>
      </trkpt>
      <trkpt lat="42.077862" lon="-2.340659">
        <ele>1007.2</ele>
        <time>2021-03-27T19:20:58Z</time>
      </trkpt>
      <trkpt lat="42.07803" lon="-2.340478">
        <ele>1006.97</ele>
        <time>2021-03-27T19:21:00Z</time>
      </trkpt>
      <trkpt lat="42.078254" lon="-2.340311">
        <ele>1007.59</ele>
        <time>2021-03-27T19:21:01Z</time>
      </trkpt>
      <trkpt lat="42.078624" lon="-2.34014">
        <ele>1008.97</ele>
        <time>2021-03-27T19:21:03Z</time>
      </trkpt>
      <trkpt lat="42.084086" lon="-2.337965">
        <ele>992.12</ele>
        <time>2021-03-27T19:21:05Z</time>
      </trkpt>
      <trkpt lat="42.084562" lon="-2.337726">
        <ele>991.11</ele>
        <time>2021-03-27T19:21:06Z</time>
      </trkpt>
      <trkpt lat="42.084801" lon="-2.337556">
        <ele>990.72</ele>
        <time>2021-03-27T19:21:08Z</time>
      </trkpt>
      <trkpt lat="42.084971" lon="-2.337391">
        <ele>990.16</ele>
        <time>2021-03-27T19:21:10Z</time>
      </trkpt>
      <trkpt lat="42.086398" lon="-2.336148">
        <ele>987.82</ele>
        <time>2021-03-27T19:21:11Z</time>
      </trkpt>
      <trkpt lat="42.086776" lon="-2.335859">
        <ele>989.12</ele>
        <time>2021-03-27T19:21:13Z</time>
      </trkpt>
      <trkpt lat="42.087325" lon="-2.335564">
        <ele>990.74</ele>
        <time>2021-03-27T19:21:15Z</time>
      </trkpt>
      <trkpt lat="42.087944" lon="-2.33527">
        <ele>991.04</ele>
        <time>2021-03-27T19:21:16Z</time>
      </trkpt>
      <trkpt lat="42.088418" lon="-2.335121">
        <ele>989.05</ele>
        <time>2021-03-27T19:21:18Z</time>
      </trkpt>
      <trkpt lat="42.089796" lon="-2.334976">
        <ele>984.03</ele>
        <time>2021-03-27T19:21:20Z</time>
      </trkpt>
      <trkpt lat="42.090001" lon="-2.33501">
        <ele>985.17</ele>
        <time>2021-03-27T19:21:21Z</time>
      </trkpt>
      <trkpt lat="42.090449" lon="-2.335159">
        <ele>983.87</ele>
        <time>2021-03-27T19:21:23Z</time>
      </trkpt>
      <trkpt lat="42.090679" lon="-2.335212">
        <ele>984.09</ele>
        <time>2021-03-27T19:21:25Z</time>
      </trkpt>
      <trkpt lat="42.091005" lon="-2.33518">
        <ele>985.18</ele>
        <time>2021-03-27T19:21:26Z</time>
      </trkpt>
      <trkpt lat="42.091895" lon="-2.334959">
        <ele>986.73</ele>
        <time>2021-03-27T19:21:28Z</time>
      </trkpt>
      <trkpt lat="42.092034" lon="-2.334831">
        <ele>985.01</ele>
        <time>2021-03-27T19:21:30Z</time>
      </trkpt>
      <trkpt lat="42.092366" lon="-2.334619">
        <ele>983.88</ele>
        <time>2021-03-27T19:21:31Z</time>
      </trkpt>
      <trkpt lat="42.092598" lon="-2.334538">
        <ele>984.04</ele>
        <time>2021-03-27T19:21:33Z</time>
      </trkpt>
      <trkpt lat="42.093099" lon="-2.33459">
        <ele>982.54</ele>
        <time>2021-03-27T19:21:35Z</time>
      </trkpt>
      <trkpt lat="42.093381" lon="-2.334659">
        <ele>981.97</ele>
        <time>2021-03-27T19:21:36Z</time>
      </trkpt>
      <trkpt lat="42.093632" lon="-2.334798">
        <ele>978.69</ele>
        <time>2021-03-27T19:21:38Z</time>
      </trkpt>
      <trkpt lat="42.093896" lon="-2.334977">
        <ele>974.97</ele>
        <time>2021-03-27T19:21:40Z</time>
      </trkpt>
      <trkpt lat="42.094786" lon="-2.335706">
        <ele>981.98</ele>
        <time>2021-03-27T19:21:42Z</time>
      </trkpt>
      <trkpt lat="42.094941" lon="-2.335759">
        <ele>983.8</ele>
        <time>2021-03-27T19:21:43Z</time>
      </trkpt>
      <trkpt lat="42.095089" lon="-2.335784">
        <ele>984.68</ele>
        <time>2021-03-27T19:21:45Z</time>
      </trkpt>
      <trkpt lat="42.095446" lon="-2.335728">
        <ele>981.62</ele>
        <time>2021-03-27T19:21:47Z</time>
      </trkpt>
      <trkpt lat="42.095628" lon="-2.335786">
        <ele>979.7</ele>
        <time>2021-03-27T19:21:48Z</time>
      </trkpt>
      <trkpt lat="42.095752" lon="-2.335849">
        <ele>978.25</ele>
        <time>2021-03-27T19:21:50Z</time>
      </trkpt>
      <trkpt lat="42.095986" lon="-2.336109">
        <ele>975.24</ele>
        <time>2021-03-27T19:21:52Z</time>
      </trkpt>
      <trkpt lat="42.0965" lon="-2.336749">
        <ele>973.86</ele>
        <time>2021-03-27T19:21:53Z</time>
      </trkpt>
      <trkpt lat="42.096705" lon="-2.336911">
        <ele>973.15</ele>
        <time>2021-03-27T19:21:55Z</time>
      </trkpt>
      <trkpt lat="42.096936" lon="-2.33696">
        <ele>972.58</ele>
        <time>2021-03-27T19:21:57Z</time>
      </trkpt>
      <trkpt lat="42.097242" lon="-2.336921">
        <ele>971.66</ele>
        <time>2021-03-27T19:21:58Z</time>
      </trkpt>
      <trkpt lat="42.097816" lon="-2.336779">
        <ele>968.45</ele>
        <time>2021-03-27T19:22:00Z</time>
      </trkpt>
      <trkpt lat="42.098148" lon="-2.336759">
        <ele>968.22</ele>
        <time>2021-03-27T19:22:02Z</time>
      </trkpt>
      <trkpt lat="42.098755" lon="-2.336842">
        <ele>964.11</ele>
        <time>2021-03-27T19:22:03Z</time>
      </trkpt>
      <trkpt lat="42.099747" lon="-2.336926">
        <ele>966.86</ele>
        <time>2021-03-27T19:22:05Z</time>
      </trkpt>
      <trkpt lat="42.100529" lon="-2.336897">
        <ele>967.11</ele>
        <time>2021-03-27T19:22:07Z</time>
      </trkpt>
      <trkpt lat="42.101034" lon="-2.336957">
        <ele>965.83</ele>
        <time>2021-03-27T19:22:08Z</time>
      </trkpt>
      <trkpt lat="42.10147" lon="-2.33706">
        <ele>964.95</ele>
        <time>2021-03-27T19:22:10Z</time>
      </trkpt>
      <trkpt lat="42.101859" lon="-2.337189">
        <ele>962.65</ele>
        <time>2021-03-27T19:22:12Z</time>
      </trkpt>
      <trkpt lat="42.102493" lon="-2.337637">
        <ele>961.49</ele>
        <time>2021-03-27T19:22:13Z</time>
      </trkpt>
      <trkpt lat="42.102662" lon="-2.337697">
        <ele>963.05</ele>
        <time>2021-03-27T19:22:15Z</time>
      </trkpt>
      <trkpt lat="42.102798" lon="-2.337672">
        <ele>963.84</ele>
        <time>2021-03-27T19:22:17Z</time>
      </trkpt>
      <trkpt lat="42.103042" lon="-2.337527">
        <ele>965.96</ele>
        <time>2021-03-27T19:22:18Z</time>
      </trkpt>
      <trkpt lat="42.10412" lon="-2.336778">
        <ele>965.93</ele>
        <time>2021-03-27T19:22:20Z</time>
      </trkpt>
      <trkpt lat="42.104209" lon="-2.336667">
        <ele>965.46</ele>
        <time>2021-03-27T19:22:22Z</time>
      </trkpt>
      <trkpt lat="42.104296" lon="-2.336449">
        <ele>963.68</ele>
        <time>2021-03-27T19:22:23Z</time>
      </trkpt>
      <trkpt lat="42.104368" lon="-2.33637">
        <ele>963.21</ele>
        <time>2021-03-27T19:22:25Z</time>
      </trkpt>
      <trkpt lat="42.104644" lon="-2.336259">
        <ele>963.57</ele>
        <time>2021-03-27T19:22:27Z</time>
      </trkpt>
      <trkpt lat="42.104759" lon="-2.33615">
        <ele>963.05</ele>
        <time>2021-03-27T19:22:28Z</time>
      </trkpt>
      <trkpt lat="42.104847" lon="-2.336022">
        <ele>963.44</ele>
        <time>2021-03-27T19:22:30Z</time>
      </trkpt>
      <trkpt lat="42.104954" lon="-2.335815">
        <ele>964.89</ele>
        <time>2021-03-27T19:22:32Z</time>
      </trkpt>
      <trkpt lat="42.105022" lon="-2.335532">
        <ele>964.56</ele>
        <time>2021-03-27T19:22:33Z</time>
      </trkpt>
      <trkpt lat="42.105054" lon="-2.335145">
        <ele>963.91</ele>
        <time>2021-03-27T19:22:35Z</time>
      </trkpt>
      <trkpt lat="42.105041" lon="-2.334908">
        <ele>961.75</ele>
        <time>2021-03-27T19:22:37Z</time>
      </trkpt>
      <trkpt lat="42.1049" lon="-2.334499">
        <ele>959.14</ele>
        <time>2021-03-27T19:22:38Z</time>
      </trkpt>
      <trkpt lat="42.104694" lon="-2.334162">
        <ele>959.93</ele>
        <time>2021-03-27T19:22:40Z</time>
      </trkpt>
      <trkpt lat="42.104471" lon="-2.333929">
        <ele>958.49</ele>
        <time>2021-03-27T19:22:42Z</time>
      </trkpt>
      <trkpt lat="42.104319" lon="-2.333691">
        <ele>955.61</ele>
        <time>2021-03-27T19:22:43Z</time>
      </trkpt>
      <trkpt lat="42.104204" lon="-2.333362">
        <ele>953.91</ele>
        <time>2021-03-27T19:22:45Z</time>
      </trkpt>
      <trkpt lat="42.104183" lon="-2.333199">
        <ele>953.45</ele>
        <time>2021-03-27T19:22:47Z</time>
      </trkpt>
      <trkpt lat="42.104221" lon="-2.332938">
        <ele>954.82</ele>
        <time>2021-03-27T19:22:48Z</time>
      </trkpt>
      <trkpt lat="42.10438" lon="-2.332691">
        <ele>957.97</ele>
        <time>2021-03-27T19:22:50Z</time>
      </trkpt>
      <trkpt lat="42.105253" lon="-2.331558">
        <ele>950.76</ele>
        <time>2021-03-27T19:22:52Z</time>
      </trkpt>
      <trkpt lat="42.105537" lon="-2.3311">
        <ele>949.0</ele>
        <time>2021-03-27T19:22:53Z</time>
      </trkpt>
      <trkpt lat="42.105757" lon="-2.330818">
        <ele>947.59</ele>
        <time>2021-03-27T19:22:55Z</time>
      </trkpt>
      <trkpt lat="42.106244" lon="-2.33047">
        <ele>947.85</ele>
        <time>2021-03-27T19:22:57Z</time>
      </trkpt>
      <trkpt lat="42.106576" lon="-2.330206">
        <ele>948.66</ele>
        <time>2021-03-27T19:22:58Z</time>
      </trkpt>
      <trkpt lat="42.106853" lon="-2.329884">
        <ele>946.75</ele>
        <time>2021-03-27T19:23:00Z</time>
      </trkpt>
      <trkpt lat="42.107511" lon="-2.328618">
        <ele>947.39</ele>
        <time>2021-03-27T19:23:02Z</time>
      </trkpt>
      <trkpt lat="42.107685" lon="-2.328188">
        <ele>948.14</ele>
        <time>2021-03-27T19:23:03Z</time>
      </trkpt>
      <trkpt lat="42.107923" lon="-2.327454">
        <ele>953.51</ele>
        <time>2021-03-27T19:23:05Z</time>
      </trkpt>
      <trkpt lat="42.107926" lon="-2.327147">
        <ele>956.64</ele>
        <time>2021-03-27T19:23:07Z</time>
      </trkpt>
      <trkpt lat="42.107841" lon="-2.326841">
        <ele>959.1</ele>
        <time>2021-03-27T19:23:08Z</time>
      </trkpt>
      <trkpt lat="42.107703" lon="-2.326579">
        <ele>959.73</ele>
        <time>2021-03-27T19:23:10Z</time>
      </trkpt>
      <trkpt lat="42.107483" lon="-2.326374">
        <ele>956.97</ele>
        <time>2021-03-27T19:23:12Z</time>
      </trkpt>
      <trkpt lat="42.107183" lon="-2.32619">
        <ele>953.64</ele>
        <time>2021-03-27T19:23:13Z</time>
      </trkpt>
      <trkpt lat="42.106487" lon="-2.325822">
        <ele>949.27</ele>
        <time>2021-03-27T19:23:15Z</time>
      </trkpt>
      <trkpt lat="42.106127" lon="-2.325539">
        <ele>945.46</ele>
        <time>2021-03-27T19:23:17Z</time>
      </trkpt>
      <trkpt lat="42.106029" lon="-2.325334">
        <ele>945.98</ele>
        <time>2021-03-27T19:23:18Z</time>
      </trkpt>
      <trkpt lat="42.105959" lon="-2.325099">
        <ele>945.2</ele>
        <time>2021-03-27T19:23:20Z</time>
      </trkpt>
      <trkpt lat="42.105958" lon="-2.324675">
        <ele>943.09</ele>
        <time>2021-03-27T19:23:22Z</time>
      </trkpt>
      <trkpt lat="42.105989" lon="-2.324329">
        <ele>941.04</ele>
        <time>2021-03-27T19:23:23Z</time>
      </trkpt>
      <trkpt lat="42.105942" lon="-2.323652">
        <ele>937.2</ele>
        <time>2021-03-27T19:23:25Z</time>
      </trkpt>
      <trkpt lat="42.105964" lon="-2.323475">
        <ele>936.72</ele>
        <time>2021-03-27T19:23:27Z</time>
      </trkpt>
      <trkpt lat="42.106012" lon="-2.323353">
        <ele>936.14</ele>
        <time>2021-03-27T19:23:28Z</time>
      </trkpt>
      <trkpt lat="42.106121" lon="-2.323219">
        <ele>934.9</ele>
        <time>2021-03-27T19:23:30Z</time>
      </trkpt>
      <trkpt lat="42.106855" lon="-2.322707">
        <ele>936.65</ele>
        <time>2021-03-27T19:23:32Z</time>
      </trkpt>
      <trkpt lat="42.107116" lon="-2.322462">
        <ele>940.59</ele>
        <time>2021-03-27T19:23:33Z</time>
      </trkpt>
      <trkpt lat="42.107226" lon="-2.322297">
        <ele>942.57</ele>
        <time>2021-03-27T19:23:35Z</time>
      </trkpt>
      <trkpt lat="42.107301" lon="-2.322084">
        <ele>942.64</ele>
        <time>2021-03-27T19:23:37Z</time>
      </trkpt>
      <trkpt lat="42.107328" lon="-2.321876">
        <ele>939.61</ele>
        <time>2021-03-27T19:23:38Z</time>
      </trkpt>
      <trkpt lat="42.107303" lon="-2.32162">
        <ele>933.89</ele>
        <time>2021-03-27T19:23:40Z</time>
      </trkpt>
      <trkpt lat="42.107072" lon="-2.320765">
        <ele>925.59</ele>
        <time>2021-03-27T19:23:42Z</time>
      </trkpt>
      <trkpt lat="42.107109" lon="-2.320619">
        <ele>925.91</ele>
        <time>2021-03-27T19:23:43Z</time>
      </trkpt>
      <trkpt lat="42.107206" lon="-2.320564">
        <ele>926.0</ele>
        <time>2021-03-27T19:23:45Z</time>
      </trkpt>
      <trkpt lat="42.107319" lon="-2.320595">
        <ele>927.05</ele>
        <time>2021-03-27T19:23:47Z</time>
      </trkpt>
      <trkpt lat="42.107795" lon="-2.320845">
        <ele>929.21</ele>
        <time>2021-03-27T19:23:48Z</time>
      </trkpt>
      <trkpt lat="42.108259" lon="-2.320988">
        <ele>932.92</ele>
        <time>2021-03-27T19:23:50Z</time>
      </trkpt>
      <trkpt lat="42.10854" lon="-2.320959">
        <ele>934.94</ele>
        <time>2021-03-27T19:23:52Z</time>
      </trkpt>
      <trkpt lat="42.108745" lon="-2.320846">
        <ele>937.18</ele>
        <time>2021-03-27T19:23:53Z</time>
      </trkpt>
      <trkpt lat="42.108891" lon="-2.320695">
        <ele>938.59</ele>
        <time>2021-03-27T19:23:55Z</time>
      </trkpt>
      <trkpt lat="42.108971" lon="-2.320466">
        <ele>939.51</ele>
        <time>2021-03-27T19:23:57Z</time>
      </trkpt>
      <trkpt lat="42.108989" lon="-2.320211">
        <ele>938.54</ele>
        <time>2021-03-27T19:23:58Z</time>
      </trkpt>
      <trkpt lat="42.108954" lon="-2.318932">
        <ele>926.62</ele>
        <time>2021-03-27T19:24:00Z</time>
      </trkpt>
      <trkpt lat="42.108925" lon="-2.318572">
        <ele>925.65</ele>
        <time>2021-03-27T19:24:02Z</time>
      </trkpt>
      <trkpt lat="42.108966" lon="-2.318311">
        <ele>925.49</ele>
        <time>2021-03-27T19:24:03Z</time>
      </trkpt>
      <trkpt lat="42.10907" lon="-2.318025">
        <ele>924.96</ele>
        <time>2021-03-27T19:24:05Z</time>
      </trkpt>
      <trkpt lat="42.109254" lon="-2.317752">
        <ele>924.88</ele>
        <time>2021-03-27T19:24:07Z</time>
      </trkpt>
      <trkpt lat="42.109427" lon="-2.317603">
        <ele>925.24</ele>
        <time>2021-03-27T19:24:08Z</time>
      </trkpt>
      <trkpt lat="42.109597" lon="-2.317538">
        <ele>925.17</ele>
        <time>2021-03-27T19:24:10Z</time>
      </trkpt>
      <trkpt lat="42.10981" lon="-2.317533">
        <ele>925.91</ele>
        <time>2021-03-27T19:24:12Z</time>
      </trkpt>
      <trkpt lat="42.110065" lon="-2.317561">
        <ele>927.56</ele>
        <time>2021-03-27T19:24:13Z</time>
      </trkpt>
      <trkpt lat="42.110609" lon="-2.317836">
        <ele>929.7</ele>
        <time>2021-03-27T19:24:15Z</time>
      </trkpt>
      <trkpt lat="42.111038" lon="-2.317901">
        <ele>929.59</ele>
        <time>2021-03-27T19:24:17Z</time>
      </trkpt>
      <trkpt lat="42.11125" lon="-2.317904">
        <ele>931.56</ele>
        <time>2021-03-27T19:24:18Z</time>
      </trkpt>
      <trkpt lat="42.111456" lon="-2.317824">
        <ele>931.75</ele>
        <time>2021-03-27T19:24:20Z</time>
      </trkpt>
      <trkpt lat="42.111654" lon="-2.317652">
        <ele>931.04</ele>
        <time>2021-03-27T19:24:22Z</time>
      </trkpt>
      <trkpt lat="42.111885" lon="-2.317313">
        <ele>930.96</ele>
        <time>2021-03-27T19:24:23Z</time>
      </trkpt>
      <trkpt lat="42.111978" lon="-2.317069">
        <ele>927.87</ele>
        <time>2021-03-27T19:24:25Z</time>
      </trkpt>
      <trkpt lat="42.11217" lon="-2.316351">
        <ele>914.13</ele>
        <time>2021-03-27T19:24:27Z</time>
      </trkpt>
      <trkpt lat="42.112326" lon="-2.315681">
        <ele>912.2</ele>
        <time>2021-03-27T19:24:29Z</time>
      </trkpt>
      <trkpt lat="42.1124" lon="-2.315545">
        <ele>912.17</ele>
        <time>2021-03-27T19:24:30Z</time>
      </trkpt>
      <trkpt lat="42.112492" lon="-2.315435">
        <ele>913.1</ele>
        <time>2021-03-27T19:24:32Z</time>
      </trkpt>
      <trkpt lat="42.112618" lon="-2.315411">
        <ele>914.25</ele>
        <time>2021-03-27T19:24:34Z</time>
      </trkpt>
      <trkpt lat="42.112838" lon="-2.315421">
        <ele>916.18</ele>
        <time>2021-03-27T19:24:35Z</time>
      </trkpt>
      <trkpt lat="42.113283" lon="-2.315377">
        <ele>920.39</ele>
        <time>2021-03-27T19:24:37Z</time>
      </trkpt>
      <trkpt lat="42.113372" lon="-2.315357">
        <ele>919.81</ele>
        <time>2021-03-27T19:24:39Z</time>
      </trkpt>
      <trkpt lat="42.113456" lon="-2.315311">
        <ele>918.15</ele>
        <time>2021-03-27T19:24:40Z</time>
      </trkpt>
      <trkpt lat="42.113663" lon="-2.315094">
        <ele>915.04</ele>
        <time>2021-03-27T19:24:42Z</time>
      </trkpt>
      <trkpt lat="42.114057" lon="-2.314575">
        <ele>919.33</ele>
        <time>2021-03-27T19:24:44Z</time>
      </trkpt>
      <trkpt lat="42.114131" lon="-2.314441">
        <ele>921.09</ele>
        <time>2021-03-27T19:24:45Z</time>
      </trkpt>
      <trkpt lat="42.114199" lon="-2.314239">
        <ele>921.67</ele>
        <time>2021-03-27T19:24:47Z</time>
      </trkpt>
      <trkpt lat="42.114275" lon="-2.313891">
        <ele>920.74</ele>
        <time>2021-03-27T19:24:49Z</time>
      </trkpt>
      <trkpt lat="42.114297" lon="-2.313639">
        <ele>919.39</ele>
        <time>2021-03-27T19:24:50Z</time>
      </trkpt>
      <trkpt lat="42.114283" lon="-2.31344">
        <ele>918.23</ele>
        <time>2021-03-27T19:24:52Z</time>
      </trkpt>
      <trkpt lat="42.114232" lon="-2.313236">
        <ele>916.34</ele>
        <time>2021-03-27T19:24:54Z</time>
      </trkpt>
      <trkpt lat="42.113766" lon="-2.311809">
        <ele>909.05</ele>
        <time>2021-03-27T19:24:55Z</time>
      </trkpt>
      <trkpt lat="42.113663" lon="-2.311449">
        <ele>909.01</ele>
        <time>2021-03-27T19:24:57Z</time>
      </trkpt>
      <trkpt lat="42.113646" lon="-2.311273">
        <ele>908.95</ele>
        <time>2021-03-27T19:24:59Z</time>
      </trkpt>
      <trkpt lat="42.113657" lon="-2.311063">
        <ele>908.67</ele>
        <time>2021-03-27T19:25:00Z</time>
      </trkpt>
      <trkpt lat="42.113722" lon="-2.31075">
        <ele>907.48</ele>
        <time>2021-03-27T19:25:02Z</time>
      </trkpt>
      <trkpt lat="42.113822" lon="-2.310539">
        <ele>908.15</ele>
        <time>2021-03-27T19:25:04Z</time>
      </trkpt>
      <trkpt lat="42.11392" lon="-2.310401">
        <ele>908.88</ele>
        <time>2021-03-27T19:25:05Z</time>
      </trkpt>
      <trkpt lat="42.11422" lon="-2.310208">
        <ele>909.92</ele>
        <time>2021-03-27T19:25:07Z</time>
      </trkpt>
      <trkpt lat="42.115076" lon="-2.309738">
        <ele>911.23</ele>
        <time>2021-03-27T19:25:09Z</time>
      </trkpt>
      <trkpt lat="42.116269" lon="-2.309126">
        <ele>909.23</ele>
        <time>2021-03-27T19:25:10Z</time>
      </trkpt>
      <trkpt lat="42.116763" lon="-2.308647">
        <ele>910.04</ele>
        <time>2021-03-27T19:25:12Z</time>
      </trkpt>
      <trkpt lat="42.116871" lon="-2.308498">
        <ele>911.59</ele>
        <time>2021-03-27T19:25:14Z</time>
      </trkpt>
      <trkpt lat="42.116931" lon="-2.308361">
        <ele>911.12</ele>
        <time>2021-03-27T19:25:15Z</time>
      </trkpt>
      <trkpt lat="42.117066" lon="-2.307599">
        <ele>905.36</ele>
        <time>2021-03-27T19:25:17Z</time>
      </trkpt>
      <trkpt lat="42.117156" lon="-2.307344">
        <ele>903.08</ele>
        <time>2021-03-27T19:25:19Z</time>
      </trkpt>
      <trkpt lat="42.117268" lon="-2.307156">
        <ele>901.88</ele>
        <time>2021-03-27T19:25:20Z</time>
      </trkpt>
      <trkpt lat="42.117359" lon="-2.307088">
        <ele>902.07</ele>
        <time>2021-03-27T19:25:22Z</time>
      </trkpt>
      <trkpt lat="42.117473" lon="-2.307086">
        <ele>903.69</ele>
        <time>2021-03-27T19:25:24Z</time>
      </trkpt>
      <trkpt lat="42.117815" lon="-2.307353">
        <ele>906.2</ele>
        <time>2021-03-27T19:25:25Z</time>
      </trkpt>
      <trkpt lat="42.118117" lon="-2.307544">
        <ele>905.63</ele>
        <time>2021-03-27T19:25:27Z</time>
      </trkpt>
      <trkpt lat="42.118825" lon="-2.307852">
        <ele>901.84</ele>
        <time>2021-03-27T19:25:29Z</time>
      </trkpt>
      <trkpt lat="42.119031" lon="-2.307874">
        <ele>901.26</ele>
        <time>2021-03-27T19:25:30Z</time>
      </trkpt>
      <trkpt lat="42.119235" lon="-2.307842">
        <ele>899.05</ele>
        <time>2021-03-27T19:25:32Z</time>
      </trkpt>
      <trkpt lat="42.11949" lon="-2.30775">
        <ele>894.94</ele>
        <time>2021-03-27T19:25:34Z</time>
      </trkpt>
      <trkpt lat="42.119606" lon="-2.307675">
        <ele>896.75</ele>
        <time>2021-03-27T19:25:35Z</time>
      </trkpt>
      <trkpt lat="42.119695" lon="-2.307588">
        <ele>896.86</ele>
        <time>2021-03-27T19:25:37Z</time>
      </trkpt>
      <trkpt lat="42.119772" lon="-2.30747">
        <ele>897.47</ele>
        <time>2021-03-27T19:25:39Z</time>
      </trkpt>
      <trkpt lat="42.119852" lon="-2.307256">
        <ele>900.23</ele>
        <time>2021-03-27T19:25:40Z</time>
      </trkpt>
      <trkpt lat="42.119879" lon="-2.307092">
        <ele>900.99</ele>
        <time>2021-03-27T19:25:42Z</time>
      </trkpt>
      <trkpt lat="42.119855" lon="-2.306844">
        <ele>899.73</ele>
        <time>2021-03-27T19:25:44Z</time>
      </trkpt>
      <trkpt lat="42.119765" lon="-2.306612">
        <ele>896.62</ele>
        <time>2021-03-27T19:25:45Z</time>
      </trkpt>
      <trkpt lat="42.119343" lon="-2.305789">
        <ele>890.14</ele>
        <time>2021-03-27T19:25:47Z</time>
      </trkpt>
      <trkpt lat="42.118923" lon="-2.305246">
        <ele>885.93</ele>
        <time>2021-03-27T19:25:49Z</time>
      </trkpt>
      <trkpt lat="42.118628" lon="-2.304938">
        <ele>887.6</ele>
        <time>2021-03-27T19:25:50Z</time>
      </trkpt>
      <trkpt lat="42.118441" lon="-2.30477">
        <ele>890.57</ele>
        <time>2021-03-27T19:25:52Z</time>
      </trkpt>
      <trkpt lat="42.11775" lon="-2.30434">
        <ele>888.08</ele>
        <time>2021-03-27T19:25:54Z</time>
      </trkpt>
      <trkpt lat="42.117579" lon="-2.304208">
        <ele>887.78</ele>
        <time>2021-03-27T19:25:55Z</time>
      </trkpt>
      <trkpt lat="42.117462" lon="-2.304082">
        <ele>886.94</ele>
        <time>2021-03-27T19:25:57Z</time>
      </trkpt>
      <trkpt lat="42.117338" lon="-2.303905">
        <ele>886.01</ele>
        <time>2021-03-27T19:25:59Z</time>
      </trkpt>
      <trkpt lat="42.117217" lon="-2.303677">
        <ele>885.75</ele>
        <time>2021-03-27T19:26:00Z</time>
      </trkpt>
      <trkpt lat="42.117117" lon="-2.303433">
        <ele>888.9</ele>
        <time>2021-03-27T19:26:02Z</time>
      </trkpt>
      <trkpt lat="42.116925" lon="-2.30272">
        <ele>888.98</ele>
        <time>2021-03-27T19:26:04Z</time>
      </trkpt>
      <trkpt lat="42.116855" lon="-2.302514">
        <ele>891.82</ele>
        <time>2021-03-27T19:26:05Z</time>
      </trkpt>
      <trkpt lat="42.116777" lon="-2.302354">
        <ele>894.53</ele>
        <time>2021-03-27T19:26:07Z</time>
      </trkpt>
      <trkpt lat="42.116649" lon="-2.302163">
        <ele>896.75</ele>
        <time>2021-03-27T19:26:09Z</time>
      </trkpt>
      <trkpt lat="42.116513" lon="-2.302003">
        <ele>896.12</ele>
        <time>2021-03-27T19:26:10Z</time>
      </trkpt>
      <trkpt lat="42.116054" lon="-2.301549">
        <ele>894.89</ele>
        <time>2021-03-27T19:26:12Z</time>
      </trkpt>
      <trkpt lat="42.115986" lon="-2.30144">
        <ele>896.36</ele>
        <time>2021-03-27T19:26:14Z</time>
      </trkpt>
      <trkpt lat="42.115912" lon="-2.301277">
        <ele>897.13</ele>
        <time>2021-03-27T19:26:15Z</time>
      </trkpt>
      <trkpt lat="42.115864" lon="-2.3011">
        <ele>898.13</ele>
        <time>2021-03-27T19:26:17Z</time>
      </trkpt>
      <trkpt lat="42.115848" lon="-2.300899">
        <ele>896.07</ele>
        <time>2021-03-27T19:26:19Z</time>
      </trkpt>
      <trkpt lat="42.115857" lon="-2.300709">
        <ele>893.68</ele>
        <time>2021-03-27T19:26:20Z</time>
      </trkpt>
      <trkpt lat="42.115892" lon="-2.300535">
        <ele>891.97</ele>
        <time>2021-03-27T19:26:22Z</time>
      </trkpt>
      <trkpt lat="42.115958" lon="-2.300358">
        <ele>891.12</ele>
        <time>2021-03-27T19:26:24Z</time>
      </trkpt>
      <trkpt lat="42.116041" lon="-2.300216">
        <ele>890.69</ele>
        <time>2021-03-27T19:26:25Z</time>
      </trkpt>
      <trkpt lat="42.11615" lon="-2.300087">
        <ele>890.34</ele>
        <time>2021-03-27T19:26:27Z</time>
      </trkpt>
      <trkpt lat="42.116276" lon="-2.299995">
        <ele>889.63</ele>
        <time>2021-03-27T19:26:29Z</time>
      </trkpt>
      <trkpt lat="42.1164" lon="-2.299937">
        <ele>888.84</ele>
        <time>2021-03-27T19:26:30Z</time>
      </trkpt>
      <trkpt lat="42.11657" lon="-2.299918">
        <ele>886.66</ele>
        <time>2021-03-27T19:26:32Z</time>
      </trkpt>
      <trkpt lat="42.116718" lon="-2.29995">
        <ele>886.02</ele>
        <time>2021-03-27T19:26:34Z</time>
      </trkpt>
      <trkpt lat="42.116874" lon="-2.300053">
        <ele>886.38</ele>
        <time>2021-03-27T19:26:35Z</time>
      </trkpt>
      <trkpt lat="42.11715" lon="-2.300317">
        <ele>890.47</ele>
        <time>2021-03-27T19:26:37Z</time>
      </trkpt>
      <trkpt lat="42.117767" lon="-2.300846">
        <ele>896.29</ele>
        <time>2021-03-27T19:26:39Z</time>
      </trkpt>
      <trkpt lat="42.118006" lon="-2.301006">
        <ele>893.84</ele>
        <time>2021-03-27T19:26:40Z</time>
      </trkpt>
      <trkpt lat="42.118444" lon="-2.30123">
        <ele>894.37</ele>
        <time>2021-03-27T19:26:42Z</time>
      </trkpt>
      <trkpt lat="42.118715" lon="-2.301317">
        <ele>895.54</ele>
        <time>2021-03-27T19:26:44Z</time>
      </trkpt>
      <trkpt lat="42.119195" lon="-2.301421">
        <ele>899.12</ele>
        <time>2021-03-27T19:26:45Z</time>
      </trkpt>
      <trkpt lat="42.119438" lon="-2.301439">
        <ele>904.25</ele>
        <time>2021-03-27T19:26:47Z</time>
      </trkpt>
      <trkpt lat="42.119627" lon="-2.301415">
        <ele>906.56</ele>
        <time>2021-03-27T19:26:49Z</time>
      </trkpt>
      <trkpt lat="42.119779" lon="-2.301369">
        <ele>907.36</ele>
        <time>2021-03-27T19:26:50Z</time>
      </trkpt>
      <trkpt lat="42.119996" lon="-2.301257">
        <ele>907.23</ele>
        <time>2021-03-27T19:26:52Z</time>
      </trkpt>
      <trkpt lat="42.120186" lon="-2.301109">
        <ele>906.94</ele>
        <time>2021-03-27T19:26:54Z</time>
      </trkpt>
      <trkpt lat="42.120364" lon="-2.300907">
        <ele>906.75</ele>
        <time>2021-03-27T19:26:55Z</time>
      </trkpt>
      <trkpt lat="42.12054" lon="-2.300638">
        <ele>905.96</ele>
        <time>2021-03-27T19:26:57Z</time>
      </trkpt>
      <trkpt lat="42.120837" lon="-2.300122">
        <ele>903.75</ele>
        <time>2021-03-27T19:26:59Z</time>
      </trkpt>
      <trkpt lat="42.120961" lon="-2.299974">
        <ele>904.55</ele>
        <time>2021-03-27T19:27:00Z</time>
      </trkpt>
      <trkpt lat="42.121103" lon="-2.299865">
        <ele>906.38</ele>
        <time>2021-03-27T19:27:02Z</time>
      </trkpt>
      <trkpt lat="42.121268" lon="-2.2998">
        <ele>904.41</ele>
        <time>2021-03-27T19:27:04Z</time>
      </trkpt>
      <trkpt lat="42.121436" lon="-2.29979">
        <ele>902.45</ele>
        <time>2021-03-27T19:27:05Z</time>
      </trkpt>
      <trkpt lat="42.121582" lon="-2.299818">
        <ele>899.56</ele>
        <time>2021-03-27T19:27:07Z</time>
      </trkpt>
      <trkpt lat="42.121749" lon="-2.299912">
        <ele>897.56</ele>
        <time>2021-03-27T19:27:09Z</time>
      </trkpt>
      <trkpt lat="42.121881" lon="-2.300045">
        <ele>895.9</ele>
        <time>2021-03-27T19:27:10Z</time>
      </trkpt>
      <trkpt lat="42.122014" lon="-2.30028">
        <ele>894.53</ele>
        <time>2021-03-27T19:27:12Z</time>
      </trkpt>
      <trkpt lat="42.122226" lon="-2.300711">
        <ele>894.47</ele>
        <time>2021-03-27T19:27:14Z</time>
      </trkpt>
      <trkpt lat="42.122335" lon="-2.300846">
        <ele>894.39</ele>
        <time>2021-03-27T19:27:16Z</time>
      </trkpt>
      <trkpt lat="42.122448" lon="-2.300936">
        <ele>891.45</ele>
        <time>2021-03-27T19:27:17Z</time>
      </trkpt>
      <trkpt lat="42.122601" lon="-2.301013">
        <ele>890.53</ele>
        <time>2021-03-27T19:27:19Z</time>
      </trkpt>
      <trkpt lat="42.12277" lon="-2.301042">
        <ele>890.29</ele>
        <time>2021-03-27T19:27:21Z</time>
      </trkpt>
      <trkpt lat="42.122949" lon="-2.301036">
        <ele>896.24</ele>
        <time>2021-03-27T19:27:22Z</time>
      </trkpt>
      <trkpt lat="42.123117" lon="-2.300959">
        <ele>902.2</ele>
        <time>2021-03-27T19:27:24Z</time>
      </trkpt>
      <trkpt lat="42.123234" lon="-2.300856">
        <ele>906.44</ele>
        <time>2021-03-27T19:27:26Z</time>
      </trkpt>
      <trkpt lat="42.123339" lon="-2.300684">
        <ele>908.01</ele>
        <time>2021-03-27T19:27:27Z</time>
      </trkpt>
      <trkpt lat="42.123763" lon="-2.29958">
        <ele>893.78</ele>
        <time>2021-03-27T19:27:29Z</time>
      </trkpt>
      <trkpt lat="42.123903" lon="-2.299303">
        <ele>890.53</ele>
        <time>2021-03-27T19:27:31Z</time>
      </trkpt>
      <trkpt lat="42.124029" lon="-2.299079">
        <ele>891.13</ele>
        <time>2021-03-27T19:27:32Z</time>
      </trkpt>
      <trkpt lat="42.124607" lon="-2.298216">
        <ele>896.33</ele>
        <time>2021-03-27T19:27:34Z</time>
      </trkpt>
      <trkpt lat="42.124786" lon="-2.297921">
        <ele>896.39</ele>
        <time>2021-03-27T19:27:36Z</time>
      </trkpt>
      <trkpt lat="42.124941" lon="-2.297591">
        <ele>894.2</ele>
        <time>2021-03-27T19:27:37Z</time>
      </trkpt>
      <trkpt lat="42.125164" lon="-2.296963">
        <ele>890.61</ele>
        <time>2021-03-27T19:27:39Z</time>
      </trkpt>
      <trkpt lat="42.125273" lon="-2.296751">
        <ele>893.15</ele>
        <time>2021-03-27T19:27:41Z</time>
      </trkpt>
      <trkpt lat="42.125361" lon="-2.296623">
        <ele>895.0</ele>
        <time>2021-03-27T19:27:42Z</time>
      </trkpt>
      <trkpt lat="42.12548" lon="-2.296496">
        <ele>897.21</ele>
        <time>2021-03-27T19:27:44Z</time>
      </trkpt>
      <trkpt lat="42.125603" lon="-2.296405">
        <ele>898.13</ele>
        <time>2021-03-27T19:27:46Z</time>
      </trkpt>
      <trkpt lat="42.125743" lon="-2.296362">
        <ele>897.71</ele>
        <time>2021-03-27T19:27:47Z</time>
      </trkpt>
      <trkpt lat="42.126006" lon="-2.296355">
        <ele>894.4</ele>
        <time>2021-03-27T19:27:49Z</time>
      </trkpt>
      <trkpt lat="42.126325" lon="-2.296465">
        <ele>891.79</ele>
        <time>2021-03-27T19:27:51Z</time>
      </trkpt>
      <trkpt lat="42.126622" lon="-2.296533">
        <ele>892.52</ele>
        <time>2021-03-27T19:27:52Z</time>
      </trkpt>
      <trkpt lat="42.126768" lon="-2.296524">
        <ele>893.88</ele>
        <time>2021-03-27T19:27:54Z</time>
      </trkpt>
      <trkpt lat="42.127099" lon="-2.296415">
        <ele>895.58</ele>
        <time>2021-03-27T19:27:56Z</time>
      </trkpt>
      <trkpt lat="42.128311" lon="-2.295916">
        <ele>899.27</ele>
        <time>2021-03-27T19:27:57Z</time>
      </trkpt>
      <trkpt lat="42.128518" lon="-2.295751">
        <ele>902.33</ele>
        <time>2021-03-27T19:27:59Z</time>
      </trkpt>
      <trkpt lat="42.128767" lon="-2.295462">
        <ele>902.86</ele>
        <time>2021-03-27T19:28:01Z</time>
      </trkpt>
      <trkpt lat="42.128997" lon="-2.295262">
        <ele>904.12</ele>
        <time>2021-03-27T19:28:02Z</time>
      </trkpt>
      <trkpt lat="42.129204" lon="-2.295193">
        <ele>906.41</ele>
        <time>2021-03-27T19:28:04Z</time>
      </trkpt>
      <trkpt lat="42.129548" lon="-2.295143">
        <ele>904.42</ele>
        <time>2021-03-27T19:28:06Z</time>
      </trkpt>
      <trkpt lat="42.129667" lon="-2.295103">
        <ele>902.05</ele>
        <time>2021-03-27T19:28:07Z</time>
      </trkpt>
      <trkpt lat="42.129783" lon="-2.295025">
        <ele>899.89</ele>
        <time>2021-03-27T19:28:09Z</time>
      </trkpt>
      <trkpt lat="42.129892" lon="-2.294922">
        <ele>899.78</ele>
        <time>2021-03-27T19:28:11Z</time>
      </trkpt>
      <trkpt lat="42.129958" lon="-2.29483">
        <ele>900.04</ele>
        <time>2021-03-27T19:28:12Z</time>
      </trkpt>
      <trkpt lat="42.13006" lon="-2.294602">
        <ele>901.71</ele>
        <time>2021-03-27T19:28:14Z</time>
      </trkpt>
      <trkpt lat="42.130104" lon="-2.294394">
        <ele>903.33</ele>
        <time>2021-03-27T19:28:16Z</time>
      </trkpt>
      <trkpt lat="42.130109" lon="-2.294127">
        <ele>905.31</ele>
        <time>2021-03-27T19:28:17Z</time>
      </trkpt>
      <trkpt lat="42.129993" lon="-2.293433">
        <ele>913.9</ele>
        <time>2021-03-27T19:28:19Z</time>
      </trkpt>
      <trkpt lat="42.129921" lon="-2.292674">
        <ele>914.36</ele>
        <time>2021-03-27T19:28:21Z</time>
      </trkpt>
      <trkpt lat="42.129751" lon="-2.291745">
        <ele>918.31</ele>
        <time>2021-03-27T19:28:22Z</time>
      </trkpt>
      <trkpt lat="42.129737" lon="-2.291607">
        <ele>918.86</ele>
        <time>2021-03-27T19:28:24Z</time>
      </trkpt>
      <trkpt lat="42.12975" lon="-2.291316">
        <ele>918.49</ele>
        <time>2021-03-27T19:28:26Z</time>
      </trkpt>
      <trkpt lat="42.129803" lon="-2.291062">
        <ele>915.22</ele>
        <time>2021-03-27T19:28:27Z</time>
      </trkpt>
      <trkpt lat="42.129852" lon="-2.290928">
        <ele>913.47</ele>
        <time>2021-03-27T19:28:29Z</time>
      </trkpt>
      <trkpt lat="42.129961" lon="-2.29071">
        <ele>910.97</ele>
        <time>2021-03-27T19:28:31Z</time>
      </trkpt>
      <trkpt lat="42.130114" lon="-2.290514">
        <ele>909.66</ele>
        <time>2021-03-27T19:28:32Z</time>
      </trkpt>
      <trkpt lat="42.130308" lon="-2.290365">
        <ele>910.07</ele>
        <time>2021-03-27T19:28:34Z</time>
      </trkpt>
      <trkpt lat="42.130411" lon="-2.290312">
        <ele>909.64</ele>
        <time>2021-03-27T19:28:36Z</time>
      </trkpt>
      <trkpt lat="42.130639" lon="-2.290263">
        <ele>908.79</ele>
        <time>2021-03-27T19:28:37Z</time>
      </trkpt>
      <trkpt lat="42.130747" lon="-2.290263">
        <ele>907.66</ele>
        <time>2021-03-27T19:28:39Z</time>
      </trkpt>
      <trkpt lat="42.130941" lon="-2.290313">
        <ele>904.32</ele>
        <time>2021-03-27T19:28:41Z</time>
      </trkpt>
      <trkpt lat="42.131163" lon="-2.290434">
        <ele>902.15</ele>
        <time>2021-03-27T19:28:42Z</time>
      </trkpt>
      <trkpt lat="42.131601" lon="-2.290783">
        <ele>906.54</ele>
        <time>2021-03-27T19:28:44Z</time>
      </trkpt>
      <trkpt lat="42.131784" lon="-2.290905">
        <ele>905.66</ele>
        <time>2021-03-27T19:28:46Z</time>
      </trkpt>
      <trkpt lat="42.132033" lon="-2.291007">
        <ele>903.69</ele>
        <time>2021-03-27T19:28:47Z</time>
      </trkpt>
      <trkpt lat="42.132255" lon="-2.291053">
        <ele>902.91</ele>
        <time>2021-03-27T19:28:49Z</time>
      </trkpt>
      <trkpt lat="42.132584" lon="-2.291039">
        <ele>900.64</ele>
        <time>2021-03-27T19:28:51Z</time>
      </trkpt>
      <trkpt lat="42.133161" lon="-2.290854">
        <ele>894.97</ele>
        <time>2021-03-27T19:28:52Z</time>
      </trkpt>
      <trkpt lat="42.133432" lon="-2.2908">
        <ele>894.17</ele>
        <time>2021-03-27T19:28:54Z</time>
      </trkpt>
      <trkpt lat="42.133613" lon="-2.290828">
        <ele>894.93</ele>
        <time>2021-03-27T19:28:56Z</time>
      </trkpt>
      <trkpt lat="42.133613" lon="-2.290828">
        <ele>894.93</ele>
        <time>2021-03-27T19:28:56Z</time>
      </trkpt>
      <trkpt lat="42.133432" lon="-2.2908">
        <ele>894.17</ele>
        <time>2021-03-27T19:28:57Z</time>
      </trkpt>
      <trkpt lat="42.133161" lon="-2.290854">
        <ele>894.97</ele>
        <time>2021-03-27T19:28:59Z</time>
      </trkpt>
      <trkpt lat="42.132584" lon="-2.291039">
        <ele>900.64</ele>
        <time>2021-03-27T19:29:00Z</time>
      </trkpt>
      <trkpt lat="42.132255" lon="-2.291053">
        <ele>902.91</ele>
        <time>2021-03-27T19:29:02Z</time>
      </trkpt>
      <trkpt lat="42.132033" lon="-2.291007">
        <ele>903.69</ele>
        <time>2021-03-27T19:29:04Z</time>
      </trkpt>
      <trkpt lat="42.131784" lon="-2.290905">
        <ele>905.66</ele>
        <time>2021-03-27T19:29:05Z</time>
      </trkpt>
      <trkpt lat="42.131601" lon="-2.290783">
        <ele>906.54</ele>
        <time>2021-03-27T19:29:07Z</time>
      </trkpt>
      <trkpt lat="42.131163" lon="-2.290434">
        <ele>902.15</ele>
        <time>2021-03-27T19:29:08Z</time>
      </trkpt>
      <trkpt lat="42.130941" lon="-2.290313">
        <ele>904.32</ele>
        <time>2021-03-27T19:29:10Z</time>
      </trkpt>
      <trkpt lat="42.130747" lon="-2.290263">
        <ele>907.66</ele>
        <time>2021-03-27T19:29:11Z</time>
      </trkpt>
      <trkpt lat="42.130639" lon="-2.290263">
        <ele>908.79</ele>
        <time>2021-03-27T19:29:13Z</time>
      </trkpt>
      <trkpt lat="42.130411" lon="-2.290312">
        <ele>909.64</ele>
        <time>2021-03-27T19:29:14Z</time>
      </trkpt>
      <trkpt lat="42.130308" lon="-2.290365">
        <ele>910.07</ele>
        <time>2021-03-27T19:29:16Z</time>
      </trkpt>
      <trkpt lat="42.130114" lon="-2.290514">
        <ele>909.66</ele>
        <time>2021-03-27T19:29:17Z</time>
      </trkpt>
      <trkpt lat="42.129961" lon="-2.29071">
        <ele>910.97</ele>
        <time>2021-03-27T19:29:19Z</time>
      </trkpt>
      <trkpt lat="42.129852" lon="-2.290928">
        <ele>913.47</ele>
        <time>2021-03-27T19:29:21Z</time>
      </trkpt>
      <trkpt lat="42.129803" lon="-2.291062">
        <ele>915.22</ele>
        <time>2021-03-27T19:29:22Z</time>
      </trkpt>
      <trkpt lat="42.12975" lon="-2.291316">
        <ele>918.49</ele>
        <time>2021-03-27T19:29:24Z</time>
      </trkpt>
      <trkpt lat="42.129737" lon="-2.291607">
        <ele>918.86</ele>
        <time>2021-03-27T19:29:25Z</time>
      </trkpt>
      <trkpt lat="42.129751" lon="-2.291745">
        <ele>918.31</ele>
        <time>2021-03-27T19:29:27Z</time>
      </trkpt>
      <trkpt lat="42.129921" lon="-2.292674">
        <ele>914.36</ele>
        <time>2021-03-27T19:29:28Z</time>
      </trkpt>
      <trkpt lat="42.129993" lon="-2.293433">
        <ele>913.9</ele>
        <time>2021-03-27T19:29:30Z</time>
      </trkpt>
      <trkpt lat="42.130109" lon="-2.294127">
        <ele>905.31</ele>
        <time>2021-03-27T19:29:31Z</time>
      </trkpt>
      <trkpt lat="42.130104" lon="-2.294394">
        <ele>903.33</ele>
        <time>2021-03-27T19:29:33Z</time>
      </trkpt>
      <trkpt lat="42.13006" lon="-2.294602">
        <ele>901.71</ele>
        <time>2021-03-27T19:29:35Z</time>
      </trkpt>
      <trkpt lat="42.129958" lon="-2.29483">
        <ele>900.04</ele>
        <time>2021-03-27T19:29:36Z</time>
      </trkpt>
      <trkpt lat="42.129892" lon="-2.294922">
        <ele>899.78</ele>
        <time>2021-03-27T19:29:38Z</time>
      </trkpt>
      <trkpt lat="42.129783" lon="-2.295025">
        <ele>899.89</ele>
        <time>2021-03-27T19:29:39Z</time>
      </trkpt>
      <trkpt lat="42.129667" lon="-2.295103">
        <ele>902.05</ele>
        <time>2021-03-27T19:29:41Z</time>
      </trkpt>
      <trkpt lat="42.129548" lon="-2.295143">
        <ele>904.42</ele>
        <time>2021-03-27T19:29:42Z</time>
      </trkpt>
      <trkpt lat="42.129204" lon="-2.295193">
        <ele>906.41</ele>
        <time>2021-03-27T19:29:44Z</time>
      </trkpt>
      <trkpt lat="42.128997" lon="-2.295262">
        <ele>904.12</ele>
        <time>2021-03-27T19:29:45Z</time>
      </trkpt>
      <trkpt lat="42.128767" lon="-2.295462">
        <ele>902.86</ele>
        <time>2021-03-27T19:29:47Z</time>
      </trkpt>
      <trkpt lat="42.128518" lon="-2.295751">
        <ele>902.33</ele>
        <time>2021-03-27T19:29:49Z</time>
      </trkpt>
      <trkpt lat="42.128311" lon="-2.295916">
        <ele>899.27</ele>
        <time>2021-03-27T19:29:50Z</time>
      </trkpt>
      <trkpt lat="42.127099" lon="-2.296415">
        <ele>895.58</ele>
        <time>2021-03-27T19:29:52Z</time>
      </trkpt>
      <trkpt lat="42.126768" lon="-2.296524">
        <ele>893.88</ele>
        <time>2021-03-27T19:29:53Z</time>
      </trkpt>
      <trkpt lat="42.126622" lon="-2.296533">
        <ele>892.52</ele>
        <time>2021-03-27T19:29:55Z</time>
      </trkpt>
      <trkpt lat="42.126325" lon="-2.296465">
        <ele>891.79</ele>
        <time>2021-03-27T19:29:56Z</time>
      </trkpt>
      <trkpt lat="42.126006" lon="-2.296355">
        <ele>894.4</ele>
        <time>2021-03-27T19:29:58Z</time>
      </trkpt>
      <trkpt lat="42.125743" lon="-2.296362">
        <ele>897.71</ele>
        <time>2021-03-27T19:29:59Z</time>
      </trkpt>
      <trkpt lat="42.125603" lon="-2.296405">
        <ele>898.13</ele>
        <time>2021-03-27T19:30:01Z</time>
      </trkpt>
      <trkpt lat="42.12548" lon="-2.296496">
        <ele>897.21</ele>
        <time>2021-03-27T19:30:02Z</time>
      </trkpt>
      <trkpt lat="42.125361" lon="-2.296623">
        <ele>895.0</ele>
        <time>2021-03-27T19:30:04Z</time>
      </trkpt>
      <trkpt lat="42.125273" lon="-2.296751">
        <ele>893.15</ele>
        <time>2021-03-27T19:30:06Z</time>
      </trkpt>
      <trkpt lat="42.125164" lon="-2.296963">
        <ele>890.61</ele>
        <time>2021-03-27T19:30:07Z</time>
      </trkpt>
      <trkpt lat="42.124941" lon="-2.297591">
        <ele>894.2</ele>
        <time>2021-03-27T19:30:09Z</time>
      </trkpt>
      <trkpt lat="42.124786" lon="-2.297921">
        <ele>896.39</ele>
        <time>2021-03-27T19:30:10Z</time>
      </trkpt>
      <trkpt lat="42.124607" lon="-2.298216">
        <ele>896.33</ele>
        <time>2021-03-27T19:30:12Z</time>
      </trkpt>
      <trkpt lat="42.124029" lon="-2.299079">
        <ele>891.13</ele>
        <time>2021-03-27T19:30:13Z</time>
      </trkpt>
      <trkpt lat="42.123903" lon="-2.299303">
        <ele>890.53</ele>
        <time>2021-03-27T19:30:15Z</time>
      </trkpt>
      <trkpt lat="42.123763" lon="-2.29958">
        <ele>893.78</ele>
        <time>2021-03-27T19:30:16Z</time>
      </trkpt>
      <trkpt lat="42.123339" lon="-2.300684">
        <ele>908.01</ele>
        <time>2021-03-27T19:30:18Z</time>
      </trkpt>
      <trkpt lat="42.123234" lon="-2.300856">
        <ele>906.44</ele>
        <time>2021-03-27T19:30:20Z</time>
      </trkpt>
      <trkpt lat="42.123117" lon="-2.300959">
        <ele>902.2</ele>
        <time>2021-03-27T19:30:21Z</time>
      </trkpt>
      <trkpt lat="42.122949" lon="-2.301036">
        <ele>896.24</ele>
        <time>2021-03-27T19:30:23Z</time>
      </trkpt>
      <trkpt lat="42.12277" lon="-2.301042">
        <ele>890.29</ele>
        <time>2021-03-27T19:30:24Z</time>
      </trkpt>
      <trkpt lat="42.122601" lon="-2.301013">
        <ele>890.53</ele>
        <time>2021-03-27T19:30:26Z</time>
      </trkpt>
      <trkpt lat="42.122448" lon="-2.300936">
        <ele>891.45</ele>
        <time>2021-03-27T19:30:27Z</time>
      </trkpt>
      <trkpt lat="42.122335" lon="-2.300846">
        <ele>894.39</ele>
        <time>2021-03-27T19:30:29Z</time>
      </trkpt>
      <trkpt lat="42.122226" lon="-2.300711">
        <ele>894.47</ele>
        <time>2021-03-27T19:30:30Z</time>
      </trkpt>
      <trkpt lat="42.122014" lon="-2.30028">
        <ele>894.53</ele>
        <time>2021-03-27T19:30:32Z</time>
      </trkpt>
      <trkpt lat="42.121881" lon="-2.300045">
        <ele>895.9</ele>
        <time>2021-03-27T19:30:34Z</time>
      </trkpt>
      <trkpt lat="42.121749" lon="-2.299912">
        <ele>897.56</ele>
        <time>2021-03-27T19:30:35Z</time>
      </trkpt>
      <trkpt lat="42.121582" lon="-2.299818">
        <ele>899.56</ele>
        <time>2021-03-27T19:30:37Z</time>
      </trkpt>
      <trkpt lat="42.121436" lon="-2.29979">
        <ele>902.45</ele>
        <time>2021-03-27T19:30:38Z</time>
      </trkpt>
      <trkpt lat="42.121268" lon="-2.2998">
        <ele>904.41</ele>
        <time>2021-03-27T19:30:40Z</time>
      </trkpt>
      <trkpt lat="42.121103" lon="-2.299865">
        <ele>906.38</ele>
        <time>2021-03-27T19:30:41Z</time>
      </trkpt>
      <trkpt lat="42.120961" lon="-2.299974">
        <ele>904.55</ele>
        <time>2021-03-27T19:30:43Z</time>
      </trkpt>
      <trkpt lat="42.120837" lon="-2.300122">
        <ele>903.75</ele>
        <time>2021-03-27T19:30:44Z</time>
      </trkpt>
      <trkpt lat="42.12054" lon="-2.300638">
        <ele>905.96</ele>
        <time>2021-03-27T19:30:46Z</time>
      </trkpt>
      <trkpt lat="42.120364" lon="-2.300907">
        <ele>906.75</ele>
        <time>2021-03-27T19:30:47Z</time>
      </trkpt>
      <trkpt lat="42.120186" lon="-2.301109">
        <ele>906.94</ele>
        <time>2021-03-27T19:30:49Z</time>
      </trkpt>
      <trkpt lat="42.119996" lon="-2.301257">
        <ele>907.23</ele>
        <time>2021-03-27T19:30:51Z</time>
      </trkpt>
      <trkpt lat="42.119779" lon="-2.301369">
        <ele>907.36</ele>
        <time>2021-03-27T19:30:52Z</time>
      </trkpt>
      <trkpt lat="42.119627" lon="-2.301415">
        <ele>906.56</ele>
        <time>2021-03-27T19:30:54Z</time>
      </trkpt>
      <trkpt lat="42.119438" lon="-2.301439">
        <ele>904.25</ele>
        <time>2021-03-27T19:30:55Z</time>
      </trkpt>
      <trkpt lat="42.119195" lon="-2.301421">
        <ele>899.12</ele>
        <time>2021-03-27T19:30:57Z</time>
      </trkpt>
      <trkpt lat="42.118715" lon="-2.301317">
        <ele>895.54</ele>
        <time>2021-03-27T19:30:58Z</time>
      </trkpt>
      <trkpt lat="42.118444" lon="-2.30123">
        <ele>894.37</ele>
        <time>2021-03-27T19:31:00Z</time>
      </trkpt>
      <trkpt lat="42.118006" lon="-2.301006">
        <ele>893.84</ele>
        <time>2021-03-27T19:31:01Z</time>
      </trkpt>
      <trkpt lat="42.117767" lon="-2.300846">
        <ele>896.29</ele>
        <time>2021-03-27T19:31:03Z</time>
      </trkpt>
      <trkpt lat="42.11715" lon="-2.300317">
        <ele>890.47</ele>
        <time>2021-03-27T19:31:05Z</time>
      </trkpt>
      <trkpt lat="42.116874" lon="-2.300053">
        <ele>886.38</ele>
        <time>2021-03-27T19:31:06Z</time>
      </trkpt>
      <trkpt lat="42.116718" lon="-2.29995">
        <ele>886.02</ele>
        <time>2021-03-27T19:31:08Z</time>
      </trkpt>
      <trkpt lat="42.11657" lon="-2.299918">
        <ele>886.66</ele>
        <time>2021-03-27T19:31:09Z</time>
      </trkpt>
      <trkpt lat="42.1164" lon="-2.299937">
        <ele>888.84</ele>
        <time>2021-03-27T19:31:11Z</time>
      </trkpt>
      <trkpt lat="42.116276" lon="-2.299995">
        <ele>889.63</ele>
        <time>2021-03-27T19:31:12Z</time>
      </trkpt>
      <trkpt lat="42.11615" lon="-2.300087">
        <ele>890.34</ele>
        <time>2021-03-27T19:31:14Z</time>
      </trkpt>
      <trkpt lat="42.116041" lon="-2.300216">
        <ele>890.69</ele>
        <time>2021-03-27T19:31:15Z</time>
      </trkpt>
      <trkpt lat="42.115958" lon="-2.300358">
        <ele>891.12</ele>
        <time>2021-03-27T19:31:17Z</time>
      </trkpt>
      <trkpt lat="42.115892" lon="-2.300535">
        <ele>891.97</ele>
        <time>2021-03-27T19:31:19Z</time>
      </trkpt>
      <trkpt lat="42.115857" lon="-2.300709">
        <ele>893.68</ele>
        <time>2021-03-27T19:31:20Z</time>
      </trkpt>
      <trkpt lat="42.115848" lon="-2.300899">
        <ele>896.07</ele>
        <time>2021-03-27T19:31:22Z</time>
      </trkpt>
      <trkpt lat="42.115864" lon="-2.3011">
        <ele>898.13</ele>
        <time>2021-03-27T19:31:23Z</time>
      </trkpt>
      <trkpt lat="42.115912" lon="-2.301277">
        <ele>897.13</ele>
        <time>2021-03-27T19:31:25Z</time>
      </trkpt>
      <trkpt lat="42.115986" lon="-2.30144">
        <ele>896.36</ele>
        <time>2021-03-27T19:31:26Z</time>
      </trkpt>
      <trkpt lat="42.116054" lon="-2.301549">
        <ele>894.89</ele>
        <time>2021-03-27T19:31:28Z</time>
      </trkpt>
      <trkpt lat="42.116513" lon="-2.302003">
        <ele>896.12</ele>
        <time>2021-03-27T19:31:29Z</time>
      </trkpt>
      <trkpt lat="42.116649" lon="-2.302163">
        <ele>896.75</ele>
        <time>2021-03-27T19:31:31Z</time>
      </trkpt>
      <trkpt lat="42.116777" lon="-2.302354">
        <ele>894.53</ele>
        <time>2021-03-27T19:31:33Z</time>
      </trkpt>
      <trkpt lat="42.116855" lon="-2.302514">
        <ele>891.82</ele>
        <time>2021-03-27T19:31:34Z</time>
      </trkpt>
      <trkpt lat="42.116925" lon="-2.30272">
        <ele>888.98</ele>
        <time>2021-03-27T19:31:36Z</time>
      </trkpt>
      <trkpt lat="42.117117" lon="-2.303433">
        <ele>888.9</ele>
        <time>2021-03-27T19:31:37Z</time>
      </trkpt>
      <trkpt lat="42.117217" lon="-2.303677">
        <ele>885.75</ele>
        <time>2021-03-27T19:31:39Z</time>
      </trkpt>
      <trkpt lat="42.117338" lon="-2.303905">
        <ele>886.01</ele>
        <time>2021-03-27T19:31:40Z</time>
      </trkpt>
      <trkpt lat="42.117462" lon="-2.304082">
        <ele>886.94</ele>
        <time>2021-03-27T19:31:42Z</time>
      </trkpt>
      <trkpt lat="42.117579" lon="-2.304208">
        <ele>887.78</ele>
        <time>2021-03-27T19:31:43Z</time>
      </trkpt>
      <trkpt lat="42.11775" lon="-2.30434">
        <ele>888.08</ele>
        <time>2021-03-27T19:31:45Z</time>
      </trkpt>
      <trkpt lat="42.118441" lon="-2.30477">
        <ele>890.57</ele>
        <time>2021-03-27T19:31:46Z</time>
      </trkpt>
      <trkpt lat="42.118628" lon="-2.304938">
        <ele>887.6</ele>
        <time>2021-03-27T19:31:48Z</time>
      </trkpt>
      <trkpt lat="42.118923" lon="-2.305246">
        <ele>885.93</ele>
        <time>2021-03-27T19:31:50Z</time>
      </trkpt>
      <trkpt lat="42.119343" lon="-2.305789">
        <ele>890.14</ele>
        <time>2021-03-27T19:31:51Z</time>
      </trkpt>
      <trkpt lat="42.119765" lon="-2.306612">
        <ele>896.62</ele>
        <time>2021-03-27T19:31:53Z</time>
      </trkpt>
      <trkpt lat="42.119855" lon="-2.306844">
        <ele>899.73</ele>
        <time>2021-03-27T19:31:54Z</time>
      </trkpt>
      <trkpt lat="42.119879" lon="-2.307092">
        <ele>900.99</ele>
        <time>2021-03-27T19:31:56Z</time>
      </trkpt>
      <trkpt lat="42.119852" lon="-2.307256">
        <ele>900.23</ele>
        <time>2021-03-27T19:31:57Z</time>
      </trkpt>
      <trkpt lat="42.119772" lon="-2.30747">
        <ele>897.47</ele>
        <time>2021-03-27T19:31:59Z</time>
      </trkpt>
      <trkpt lat="42.119695" lon="-2.307588">
        <ele>896.86</ele>
        <time>2021-03-27T19:32:00Z</time>
      </trkpt>
      <trkpt lat="42.119606" lon="-2.307675">
        <ele>896.75</ele>
        <time>2021-03-27T19:32:02Z</time>
      </trkpt>
      <trkpt lat="42.11949" lon="-2.30775">
        <ele>894.94</ele>
        <time>2021-03-27T19:32:04Z</time>
      </trkpt>
      <trkpt lat="42.119235" lon="-2.307842">
        <ele>899.05</ele>
        <time>2021-03-27T19:32:05Z</time>
      </trkpt>
      <trkpt lat="42.119031" lon="-2.307874">
        <ele>901.26</ele>
        <time>2021-03-27T19:32:07Z</time>
      </trkpt>
      <trkpt lat="42.118825" lon="-2.307852">
        <ele>901.84</ele>
        <time>2021-03-27T19:32:08Z</time>
      </trkpt>
      <trkpt lat="42.118117" lon="-2.307544">
        <ele>905.63</ele>
        <time>2021-03-27T19:32:10Z</time>
      </trkpt>
      <trkpt lat="42.117815" lon="-2.307353">
        <ele>906.2</ele>
        <time>2021-03-27T19:32:11Z</time>
      </trkpt>
      <trkpt lat="42.117473" lon="-2.307086">
        <ele>903.69</ele>
        <time>2021-03-27T19:32:13Z</time>
      </trkpt>
      <trkpt lat="42.117359" lon="-2.307088">
        <ele>902.07</ele>
        <time>2021-03-27T19:32:14Z</time>
      </trkpt>
      <trkpt lat="42.117268" lon="-2.307156">
        <ele>901.88</ele>
        <time>2021-03-27T19:32:16Z</time>
      </trkpt>
      <trkpt lat="42.117156" lon="-2.307344">
        <ele>903.08</ele>
        <time>2021-03-27T19:32:18Z</time>
      </trkpt>
      <trkpt lat="42.117066" lon="-2.307599">
        <ele>905.36</ele>
        <time>2021-03-27T19:32:19Z</time>
      </trkpt>
      <trkpt lat="42.116931" lon="-2.308361">
        <ele>911.12</ele>
        <time>2021-03-27T19:32:21Z</time>
      </trkpt>
      <trkpt lat="42.116871" lon="-2.308498">
        <ele>911.59</ele>
        <time>2021-03-27T19:32:22Z</time>
      </trkpt>
      <trkpt lat="42.116763" lon="-2.308647">
        <ele>910.04</ele>
        <time>2021-03-27T19:32:24Z</time>
      </trkpt>
      <trkpt lat="42.116269" lon="-2.309126">
        <ele>909.23</ele>
        <time>2021-03-27T19:32:25Z</time>
      </trkpt>
      <trkpt lat="42.115076" lon="-2.309738">
        <ele>911.23</ele>
        <time>2021-03-27T19:32:27Z</time>
      </trkpt>
      <trkpt lat="42.11422" lon="-2.310208">
        <ele>909.92</ele>
        <time>2021-03-27T19:32:28Z</time>
      </trkpt>
      <trkpt lat="42.11392" lon="-2.310401">
        <ele>908.88</ele>
        <time>2021-03-27T19:32:30Z</time>
      </trkpt>
      <trkpt lat="42.113822" lon="-2.310539">
        <ele>908.15</ele>
        <time>2021-03-27T19:32:31Z</time>
      </trkpt>
      <trkpt lat="42.113722" lon="-2.31075">
        <ele>907.48</ele>
        <time>2021-03-27T19:32:33Z</time>
      </trkpt>
      <trkpt lat="42.113657" lon="-2.311063">
        <ele>908.67</ele>
        <time>2021-03-27T19:32:35Z</time>
      </trkpt>
      <trkpt lat="42.113646" lon="-2.311273">
        <ele>908.95</ele>
        <time>2021-03-27T19:32:36Z</time>
      </trkpt>
      <trkpt lat="42.113663" lon="-2.311449">
        <ele>909.01</ele>
        <time>2021-03-27T19:32:38Z</time>
      </trkpt>
      <trkpt lat="42.113766" lon="-2.311809">
        <ele>909.05</ele>
        <time>2021-03-27T19:32:39Z</time>
      </trkpt>
      <trkpt lat="42.114232" lon="-2.313236">
        <ele>916.34</ele>
        <time>2021-03-27T19:32:41Z</time>
      </trkpt>
      <trkpt lat="42.114283" lon="-2.31344">
        <ele>918.23</ele>
        <time>2021-03-27T19:32:42Z</time>
      </trkpt>
      <trkpt lat="42.114297" lon="-2.313639">
        <ele>919.39</ele>
        <time>2021-03-27T19:32:44Z</time>
      </trkpt>
      <trkpt lat="42.114275" lon="-2.313891">
        <ele>920.74</ele>
        <time>2021-03-27T19:32:45Z</time>
      </trkpt>
      <trkpt lat="42.114199" lon="-2.314239">
        <ele>921.67</ele>
        <time>2021-03-27T19:32:47Z</time>
      </trkpt>
      <trkpt lat="42.114131" lon="-2.314441">
        <ele>921.09</ele>
        <time>2021-03-27T19:32:49Z</time>
      </trkpt>
      <trkpt lat="42.114057" lon="-2.314575">
        <ele>919.33</ele>
        <time>2021-03-27T19:32:50Z</time>
      </trkpt>
      <trkpt lat="42.113663" lon="-2.315094">
        <ele>915.04</ele>
        <time>2021-03-27T19:32:52Z</time>
      </trkpt>
      <trkpt lat="42.113456" lon="-2.315311">
        <ele>918.15</ele>
        <time>2021-03-27T19:32:53Z</time>
      </trkpt>
      <trkpt lat="42.113372" lon="-2.315357">
        <ele>919.81</ele>
        <time>2021-03-27T19:32:55Z</time>
      </trkpt>
      <trkpt lat="42.113283" lon="-2.315377">
        <ele>920.39</ele>
        <time>2021-03-27T19:32:56Z</time>
      </trkpt>
      <trkpt lat="42.112838" lon="-2.315421">
        <ele>916.18</ele>
        <time>2021-03-27T19:32:58Z</time>
      </trkpt>
      <trkpt lat="42.112618" lon="-2.315411">
        <ele>914.25</ele>
        <time>2021-03-27T19:32:59Z</time>
      </trkpt>
      <trkpt lat="42.112492" lon="-2.315435">
        <ele>913.1</ele>
        <time>2021-03-27T19:33:01Z</time>
      </trkpt>
      <trkpt lat="42.1124" lon="-2.315545">
        <ele>912.17</ele>
        <time>2021-03-27T19:33:03Z</time>
      </trkpt>
      <trkpt lat="42.112326" lon="-2.315681">
        <ele>912.2</ele>
        <time>2021-03-27T19:33:04Z</time>
      </trkpt>
      <trkpt lat="42.11217" lon="-2.316351">
        <ele>914.13</ele>
        <time>2021-03-27T19:33:06Z</time>
      </trkpt>
      <trkpt lat="42.111978" lon="-2.317069">
        <ele>927.87</ele>
        <time>2021-03-27T19:33:07Z</time>
      </trkpt>
      <trkpt lat="42.111885" lon="-2.317313">
        <ele>930.96</ele>
        <time>2021-03-27T19:33:09Z</time>
      </trkpt>
      <trkpt lat="42.111654" lon="-2.317652">
        <ele>931.04</ele>
        <time>2021-03-27T19:33:10Z</time>
      </trkpt>
      <trkpt lat="42.111456" lon="-2.317824">
        <ele>931.75</ele>
        <time>2021-03-27T19:33:12Z</time>
      </trkpt>
      <trkpt lat="42.11125" lon="-2.317904">
        <ele>931.56</ele>
        <time>2021-03-27T19:33:13Z</time>
      </trkpt>
      <trkpt lat="42.111038" lon="-2.317901">
        <ele>929.59</ele>
        <time>2021-03-27T19:33:15Z</time>
      </trkpt>
      <trkpt lat="42.110609" lon="-2.317836">
        <ele>929.7</ele>
        <time>2021-03-27T19:33:16Z</time>
      </trkpt>
      <trkpt lat="42.110065" lon="-2.317561">
        <ele>927.56</ele>
        <time>2021-03-27T19:33:18Z</time>
      </trkpt>
      <trkpt lat="42.10981" lon="-2.317533">
        <ele>925.91</ele>
        <time>2021-03-27T19:33:20Z</time>
      </trkpt>
      <trkpt lat="42.109597" lon="-2.317538">
        <ele>925.17</ele>
        <time>2021-03-27T19:33:21Z</time>
      </trkpt>
      <trkpt lat="42.109427" lon="-2.317603">
        <ele>925.24</ele>
        <time>2021-03-27T19:33:23Z</time>
      </trkpt>
      <trkpt lat="42.109254" lon="-2.317752">
        <ele>924.88</ele>
        <time>2021-03-27T19:33:24Z</time>
      </trkpt>
      <trkpt lat="42.10907" lon="-2.318025">
        <ele>924.96</ele>
        <time>2021-03-27T19:33:26Z</time>
      </trkpt>
      <trkpt lat="42.108966" lon="-2.318311">
        <ele>925.49</ele>
        <time>2021-03-27T19:33:27Z</time>
      </trkpt>
      <trkpt lat="42.108925" lon="-2.318572">
        <ele>925.65</ele>
        <time>2021-03-27T19:33:29Z</time>
      </trkpt>
      <trkpt lat="42.108954" lon="-2.318932">
        <ele>926.62</ele>
        <time>2021-03-27T19:33:30Z</time>
      </trkpt>
      <trkpt lat="42.108989" lon="-2.320211">
        <ele>938.54</ele>
        <time>2021-03-27T19:33:32Z</time>
      </trkpt>
      <trkpt lat="42.108971" lon="-2.320466">
        <ele>939.51</ele>
        <time>2021-03-27T19:33:34Z</time>
      </trkpt>
      <trkpt lat="42.108891" lon="-2.320695">
        <ele>938.59</ele>
        <time>2021-03-27T19:33:35Z</time>
      </trkpt>
      <trkpt lat="42.108745" lon="-2.320846">
        <ele>937.18</ele>
        <time>2021-03-27T19:33:37Z</time>
      </trkpt>
      <trkpt lat="42.10854" lon="-2.320959">
        <ele>934.94</ele>
        <time>2021-03-27T19:33:38Z</time>
      </trkpt>
      <trkpt lat="42.108259" lon="-2.320988">
        <ele>932.92</ele>
        <time>2021-03-27T19:33:40Z</time>
      </trkpt>
      <trkpt lat="42.107795" lon="-2.320845">
        <ele>929.21</ele>
        <time>2021-03-27T19:33:41Z</time>
      </trkpt>
      <trkpt lat="42.107319" lon="-2.320595">
        <ele>927.05</ele>
        <time>2021-03-27T19:33:43Z</time>
      </trkpt>
      <trkpt lat="42.107206" lon="-2.320564">
        <ele>926.0</ele>
        <time>2021-03-27T19:33:44Z</time>
      </trkpt>
      <trkpt lat="42.107109" lon="-2.320619">
        <ele>925.91</ele>
        <time>2021-03-27T19:33:46Z</time>
      </trkpt>
      <trkpt lat="42.107072" lon="-2.320765">
        <ele>925.59</ele>
        <time>2021-03-27T19:33:48Z</time>
      </trkpt>
      <trkpt lat="42.107303" lon="-2.32162">
        <ele>933.89</ele>
        <time>2021-03-27T19:33:49Z</time>
      </trkpt>
      <trkpt lat="42.107328" lon="-2.321876">
        <ele>939.61</ele>
        <time>2021-03-27T19:33:51Z</time>
      </trkpt>
      <trkpt lat="42.107301" lon="-2.322084">
        <ele>942.64</ele>
        <time>2021-03-27T19:33:52Z</time>
      </trkpt>
      <trkpt lat="42.107226" lon="-2.322297">
        <ele>942.57</ele>
        <time>2021-03-27T19:33:54Z</time>
      </trkpt>
      <trkpt lat="42.107116" lon="-2.322462">
        <ele>940.59</ele>
        <time>2021-03-27T19:33:55Z</time>
      </trkpt>
      <trkpt lat="42.106855" lon="-2.322707">
        <ele>936.65</ele>
        <time>2021-03-27T19:33:57Z</time>
      </trkpt>
      <trkpt lat="42.106121" lon="-2.323219">
        <ele>934.9</ele>
        <time>2021-03-27T19:33:58Z</time>
      </trkpt>
      <trkpt lat="42.106012" lon="-2.323353">
        <ele>936.14</ele>
        <time>2021-03-27T19:34:00Z</time>
      </trkpt>
      <trkpt lat="42.105964" lon="-2.323475">
        <ele>936.72</ele>
        <time>2021-03-27T19:34:01Z</time>
      </trkpt>
      <trkpt lat="42.105942" lon="-2.323652">
        <ele>937.2</ele>
        <time>2021-03-27T19:34:03Z</time>
      </trkpt>
      <trkpt lat="42.105989" lon="-2.324329">
        <ele>941.04</ele>
        <time>2021-03-27T19:34:05Z</time>
      </trkpt>
      <trkpt lat="42.105958" lon="-2.324675">
        <ele>943.09</ele>
        <time>2021-03-27T19:34:06Z</time>
      </trkpt>
      <trkpt lat="42.105959" lon="-2.325099">
        <ele>945.2</ele>
        <time>2021-03-27T19:34:08Z</time>
      </trkpt>
      <trkpt lat="42.106029" lon="-2.325334">
        <ele>945.98</ele>
        <time>2021-03-27T19:34:09Z</time>
      </trkpt>
      <trkpt lat="42.106127" lon="-2.325539">
        <ele>945.46</ele>
        <time>2021-03-27T19:34:11Z</time>
      </trkpt>
      <trkpt lat="42.106487" lon="-2.325822">
        <ele>949.27</ele>
        <time>2021-03-27T19:34:12Z</time>
      </trkpt>
      <trkpt lat="42.107183" lon="-2.32619">
        <ele>953.64</ele>
        <time>2021-03-27T19:34:14Z</time>
      </trkpt>
      <trkpt lat="42.107483" lon="-2.326374">
        <ele>956.97</ele>
        <time>2021-03-27T19:34:15Z</time>
      </trkpt>
      <trkpt lat="42.107703" lon="-2.326579">
        <ele>959.73</ele>
        <time>2021-03-27T19:34:17Z</time>
      </trkpt>
      <trkpt lat="42.107841" lon="-2.326841">
        <ele>959.1</ele>
        <time>2021-03-27T19:34:19Z</time>
      </trkpt>
      <trkpt lat="42.107926" lon="-2.327147">
        <ele>956.64</ele>
        <time>2021-03-27T19:34:20Z</time>
      </trkpt>
      <trkpt lat="42.107923" lon="-2.327454">
        <ele>953.51</ele>
        <time>2021-03-27T19:34:22Z</time>
      </trkpt>
      <trkpt lat="42.107685" lon="-2.328188">
        <ele>948.14</ele>
        <time>2021-03-27T19:34:23Z</time>
      </trkpt>
      <trkpt lat="42.107511" lon="-2.328618">
        <ele>947.39</ele>
        <time>2021-03-27T19:34:25Z</time>
      </trkpt>
      <trkpt lat="42.106853" lon="-2.329884">
        <ele>946.75</ele>
        <time>2021-03-27T19:34:26Z</time>
      </trkpt>
      <trkpt lat="42.106576" lon="-2.330206">
        <ele>948.66</ele>
        <time>2021-03-27T19:34:28Z</time>
      </trkpt>
      <trkpt lat="42.106244" lon="-2.33047">
        <ele>947.85</ele>
        <time>2021-03-27T19:34:29Z</time>
      </trkpt>
      <trkpt lat="42.105757" lon="-2.330818">
        <ele>947.59</ele>
        <time>2021-03-27T19:34:31Z</time>
      </trkpt>
      <trkpt lat="42.105537" lon="-2.3311">
        <ele>949.0</ele>
        <time>2021-03-27T19:34:33Z</time>
      </trkpt>
      <trkpt lat="42.105253" lon="-2.331558">
        <ele>950.76</ele>
        <time>2021-03-27T19:34:34Z</time>
      </trkpt>
      <trkpt lat="42.10438" lon="-2.332691">
        <ele>957.97</ele>
        <time>2021-03-27T19:34:36Z</time>
      </trkpt>
      <trkpt lat="42.104221" lon="-2.332938">
        <ele>954.82</ele>
        <time>2021-03-27T19:34:37Z</time>
      </trkpt>
      <trkpt lat="42.104183" lon="-2.333199">
        <ele>953.45</ele>
        <time>2021-03-27T19:34:39Z</time>
      </trkpt>
      <trkpt lat="42.104204" lon="-2.333362">
        <ele>953.91</ele>
        <time>2021-03-27T19:34:40Z</time>
      </trkpt>
      <trkpt lat="42.104319" lon="-2.333691">
        <ele>955.61</ele>
        <time>2021-03-27T19:34:42Z</time>
      </trkpt>
      <trkpt lat="42.104471" lon="-2.333929">
        <ele>958.49</ele>
        <time>2021-03-27T19:34:43Z</time>
      </trkpt>
      <trkpt lat="42.104694" lon="-2.334162">
        <ele>959.93</ele>
        <time>2021-03-27T19:34:45Z</time>
      </trkpt>
      <trkpt lat="42.1049" lon="-2.334499">
        <ele>959.14</ele>
        <time>2021-03-27T19:34:47Z</time>
      </trkpt>
      <trkpt lat="42.105041" lon="-2.334908">
        <ele>961.75</ele>
        <time>2021-03-27T19:34:48Z</time>
      </trkpt>
      <trkpt lat="42.105054" lon="-2.335145">
        <ele>963.91</ele>
        <time>2021-03-27T19:34:50Z</time>
      </trkpt>
      <trkpt lat="42.105022" lon="-2.335532">
        <ele>964.56</ele>
        <time>2021-03-27T19:34:51Z</time>
      </trkpt>
      <trkpt lat="42.104954" lon="-2.335815">
        <ele>964.89</ele>
        <time>2021-03-27T19:34:53Z</time>
      </trkpt>
      <trkpt lat="42.104847" lon="-2.336022">
        <ele>963.44</ele>
        <time>2021-03-27T19:34:54Z</time>
      </trkpt>
      <trkpt lat="42.104759" lon="-2.33615">
        <ele>963.05</ele>
        <time>2021-03-27T19:34:56Z</time>
      </trkpt>
      <trkpt lat="42.104644" lon="-2.336259">
        <ele>963.57</ele>
        <time>2021-03-27T19:34:57Z</time>
      </trkpt>
      <trkpt lat="42.104368" lon="-2.33637">
        <ele>963.21</ele>
        <time>2021-03-27T19:34:59Z</time>
      </trkpt>
      <trkpt lat="42.104296" lon="-2.336449">
        <ele>963.68</ele>
        <time>2021-03-27T19:35:00Z</time>
      </trkpt>
      <trkpt lat="42.104209" lon="-2.336667">
        <ele>965.46</ele>
        <time>2021-03-27T19:35:02Z</time>
      </trkpt>
      <trkpt lat="42.10412" lon="-2.336778">
        <ele>965.93</ele>
        <time>2021-03-27T19:35:04Z</time>
      </trkpt>
      <trkpt lat="42.103042" lon="-2.337527">
        <ele>965.96</ele>
        <time>2021-03-27T19:35:05Z</time>
      </trkpt>
      <trkpt lat="42.102798" lon="-2.337672">
        <ele>963.84</ele>
        <time>2021-03-27T19:35:07Z</time>
      </trkpt>
      <trkpt lat="42.102662" lon="-2.337697">
        <ele>963.05</ele>
        <time>2021-03-27T19:35:08Z</time>
      </trkpt>
      <trkpt lat="42.102493" lon="-2.337637">
        <ele>961.49</ele>
        <time>2021-03-27T19:35:10Z</time>
      </trkpt>
      <trkpt lat="42.101859" lon="-2.337189">
        <ele>962.65</ele>
        <time>2021-03-27T19:35:11Z</time>
      </trkpt>
      <trkpt lat="42.10147" lon="-2.33706">
        <ele>964.95</ele>
        <time>2021-03-27T19:35:13Z</time>
      </trkpt>
      <trkpt lat="42.101034" lon="-2.336957">
        <ele>965.83</ele>
        <time>2021-03-27T19:35:14Z</time>
      </trkpt>
      <trkpt lat="42.100529" lon="-2.336897">
        <ele>967.11</ele>
        <time>2021-03-27T19:35:16Z</time>
      </trkpt>
      <trkpt lat="42.099747" lon="-2.336926">
        <ele>966.86</ele>
        <time>2021-03-27T19:35:18Z</time>
      </trkpt>
      <trkpt lat="42.098755" lon="-2.336842">
        <ele>964.11</ele>
        <time>2021-03-27T19:35:19Z</time>
      </trkpt>
      <trkpt lat="42.098148" lon="-2.336759">
        <ele>968.22</ele>
        <time>2021-03-27T19:35:21Z</time>
      </trkpt>
      <trkpt lat="42.097816" lon="-2.336779">
        <ele>968.45</ele>
        <time>2021-03-27T19:35:22Z</time>
      </trkpt>
      <trkpt lat="42.097242" lon="-2.336921">
        <ele>971.66</ele>
        <time>2021-03-27T19:35:24Z</time>
      </trkpt>
      <trkpt lat="42.096936" lon="-2.33696">
        <ele>972.58</ele>
        <time>2021-03-27T19:35:25Z</time>
      </trkpt>
      <trkpt lat="42.096705" lon="-2.336911">
        <ele>973.15</ele>
        <time>2021-03-27T19:35:27Z</time>
      </trkpt>
      <trkpt lat="42.0965" lon="-2.336749">
        <ele>973.86</ele>
        <time>2021-03-27T19:35:28Z</time>
      </trkpt>
      <trkpt lat="42.095986" lon="-2.336109">
        <ele>975.24</ele>
        <time>2021-03-27T19:35:30Z</time>
      </trkpt>
      <trkpt lat="42.095752" lon="-2.335849">
        <ele>978.25</ele>
        <time>2021-03-27T19:35:32Z</time>
      </trkpt>
      <trkpt lat="42.095628" lon="-2.335786">
        <ele>979.7</ele>
        <time>2021-03-27T19:35:33Z</time>
      </trkpt>
      <trkpt lat="42.095446" lon="-2.335728">
        <ele>981.62</ele>
        <time>2021-03-27T19:35:35Z</time>
      </trkpt>
      <trkpt lat="42.095089" lon="-2.335784">
        <ele>984.68</ele>
        <time>2021-03-27T19:35:36Z</time>
      </trkpt>
      <trkpt lat="42.094941" lon="-2.335759">
        <ele>983.8</ele>
        <time>2021-03-27T19:35:38Z</time>
      </trkpt>
      <trkpt lat="42.094786" lon="-2.335706">
        <ele>981.98</ele>
        <time>2021-03-27T19:35:39Z</time>
      </trkpt>
      <trkpt lat="42.093896" lon="-2.334977">
        <ele>974.97</ele>
        <time>2021-03-27T19:35:41Z</time>
      </trkpt>
      <trkpt lat="42.093632" lon="-2.334798">
        <ele>978.69</ele>
        <time>2021-03-27T19:35:42Z</time>
      </trkpt>
      <trkpt lat="42.093381" lon="-2.334659">
        <ele>981.97</ele>
        <time>2021-03-27T19:35:44Z</time>
      </trkpt>
      <trkpt lat="42.093099" lon="-2.33459">
        <ele>982.54</ele>
        <time>2021-03-27T19:35:45Z</time>
      </trkpt>
      <trkpt lat="42.092598" lon="-2.334538">
        <ele>984.04</ele>
        <time>2021-03-27T19:35:47Z</time>
      </trkpt>
      <trkpt lat="42.092366" lon="-2.334619">
        <ele>983.88</ele>
        <time>2021-03-27T19:35:49Z</time>
      </trkpt>
      <trkpt lat="42.092034" lon="-2.334831">
        <ele>985.01</ele>
        <time>2021-03-27T19:35:50Z</time>
      </trkpt>
      <trkpt lat="42.091895" lon="-2.334959">
        <ele>986.73</ele>
        <time>2021-03-27T19:35:52Z</time>
      </trkpt>
      <trkpt lat="42.091005" lon="-2.33518">
        <ele>985.18</ele>
        <time>2021-03-27T19:35:53Z</time>
      </trkpt>
      <trkpt lat="42.090679" lon="-2.335212">
        <ele>984.09</ele>
        <time>2021-03-27T19:35:55Z</time>
      </trkpt>
      <trkpt lat="42.090449" lon="-2.335159">
        <ele>983.87</ele>
        <time>2021-03-27T19:35:56Z</time>
      </trkpt>
      <trkpt lat="42.090001" lon="-2.33501">
        <ele>985.17</ele>
        <time>2021-03-27T19:35:58Z</time>
      </trkpt>
      <trkpt lat="42.089796" lon="-2.334976">
        <ele>984.03</ele>
        <time>2021-03-27T19:35:59Z</time>
      </trkpt>
      <trkpt lat="42.088418" lon="-2.335121">
        <ele>989.05</ele>
        <time>2021-03-27T19:36:01Z</time>
      </trkpt>
      <trkpt lat="42.087944" lon="-2.33527">
        <ele>991.04</ele>
        <time>2021-03-27T19:36:03Z</time>
      </trkpt>
      <trkpt lat="42.087325" lon="-2.335564">
        <ele>990.74</ele>
        <time>2021-03-27T19:36:04Z</time>
      </trkpt>
      <trkpt lat="42.086776" lon="-2.335859">
        <ele>989.12</ele>
        <time>2021-03-27T19:36:06Z</time>
      </trkpt>
      <trkpt lat="42.086398" lon="-2.336148">
        <ele>987.82</ele>
        <time>2021-03-27T19:36:07Z</time>
      </trkpt>
      <trkpt lat="42.084971" lon="-2.337391">
        <ele>990.16</ele>
        <time>2021-03-27T19:36:09Z</time>
      </trkpt>
      <trkpt lat="42.084801" lon="-2.337556">
        <ele>990.72</ele>
        <time>2021-03-27T19:36:10Z</time>
      </trkpt>
      <trkpt lat="42.084562" lon="-2.337726">
        <ele>991.11</ele>
        <time>2021-03-27T19:36:12Z</time>
      </trkpt>
      <trkpt lat="42.084086" lon="-2.337965">
        <ele>992.12</ele>
        <time>2021-03-27T19:36:13Z</time>
      </trkpt>
      <trkpt lat="42.08187" lon="-2.338858">
        <ele>992.8</ele>
        <time>2021-03-27T19:36:15Z</time>
      </trkpt>
      <trkpt lat="42.081818" lon="-2.338758">
        <ele>991.35</ele>
        <time>2021-03-27T19:36:20Z</time>
      </trkpt>
      <trkpt lat="42.081721" lon="-2.338719">
        <ele>990.87</ele>
        <time>2021-03-27T19:36:26Z</time>
      </trkpt>
      <trkpt lat="42.081186" lon="-2.338673">
        <ele>989.24</ele>
        <time>2021-03-27T19:36:31Z</time>
      </trkpt>
      <trkpt lat="42.081025" lon="-2.338583">
        <ele>989.48</ele>
        <time>2021-03-27T19:36:36Z</time>
      </trkpt>
      <trkpt lat="42.080929" lon="-2.338462">
        <ele>989.42</ele>
        <time>2021-03-27T19:36:41Z</time>
      </trkpt>
      <trkpt lat="42.080642" lon="-2.337945">
        <ele>986.88</ele>
        <time>2021-03-27T19:36:46Z</time>
      </trkpt>
      <trkpt lat="42.078113" lon="-2.333758">
        <ele>1006.71</ele>
        <time>2021-03-27T19:36:52Z</time>
      </trkpt>
      <trkpt lat="42.075792" lon="-2.329852">
        <ele>1017.99</ele>
        <time>2021-03-27T19:36:57Z</time>
      </trkpt>
      <trkpt lat="42.075525" lon="-2.329454">
        <ele>1019.41</ele>
        <time>2021-03-27T19:37:02Z</time>
      </trkpt>
      <trkpt lat="42.075172" lon="-2.329148">
        <ele>1022.72</ele>
        <time>2021-03-27T19:37:07Z</time>
      </trkpt>
      <trkpt lat="42.07479" lon="-2.328942">
        <ele>1024.02</ele>
        <time>2021-03-27T19:37:13Z</time>
      </trkpt>
      <trkpt lat="42.074175" lon="-2.32867">
        <ele>1024.33</ele>
        <time>2021-03-27T19:37:18Z</time>
      </trkpt>
      <trkpt lat="42.073725" lon="-2.328605">
        <ele>1028.79</ele>
        <time>2021-03-27T19:37:23Z</time>
      </trkpt>
      <trkpt lat="42.072224" lon="-2.328483">
        <ele>1030.85</ele>
        <time>2021-03-27T19:37:28Z</time>
      </trkpt>
      <trkpt lat="42.071546" lon="-2.328229">
        <ele>1033.47</ele>
        <time>2021-03-27T19:37:33Z</time>
      </trkpt>
      <trkpt lat="42.06917" lon="-2.326925">
        <ele>1048.5</ele>
        <time>2021-03-27T19:37:39Z</time>
      </trkpt>
      <trkpt lat="42.065402" lon="-2.324638">
        <ele>1063.62</ele>
        <time>2021-03-27T19:37:44Z</time>
      </trkpt>
      <trkpt lat="42.064763" lon="-2.324099">
        <ele>1069.99</ele>
        <time>2021-03-27T19:37:49Z</time>
      </trkpt>
      <trkpt lat="42.06439" lon="-2.323709">
        <ele>1076.35</ele>
        <time>2021-03-27T19:37:54Z</time>
      </trkpt>
      <trkpt lat="42.063939" lon="-2.323074">
        <ele>1079.68</ele>
        <time>2021-03-27T19:37:59Z</time>
      </trkpt>
      <trkpt lat="42.063589" lon="-2.322416">
        <ele>1082.65</ele>
        <time>2021-03-27T19:38:05Z</time>
      </trkpt>
      <trkpt lat="42.061544" lon="-2.318225">
        <ele>1100.88</ele>
        <time>2021-03-27T19:38:10Z</time>
      </trkpt>
      <trkpt lat="42.059654" lon="-2.314117">
        <ele>1117.08</ele>
        <time>2021-03-27T19:38:15Z</time>
      </trkpt>
      <trkpt lat="42.059533" lon="-2.313972">
        <ele>1118.21</ele>
        <time>2021-03-27T19:38:20Z</time>
      </trkpt>
      <trkpt lat="42.059255" lon="-2.313713">
        <ele>1120.54</ele>
        <time>2021-03-27T19:38:26Z</time>
      </trkpt>
      <trkpt lat="42.058379" lon="-2.313022">
        <ele>1127.32</ele>
        <time>2021-03-27T19:38:31Z</time>
      </trkpt>
      <trkpt lat="42.057688" lon="-2.312098">
        <ele>1136.1</ele>
        <time>2021-03-27T19:38:36Z</time>
      </trkpt>
      <trkpt lat="42.05701" lon="-2.311055">
        <ele>1142.63</ele>
        <time>2021-03-27T19:38:41Z</time>
      </trkpt>
      <trkpt lat="42.056533" lon="-2.310158">
        <ele>1148.3</ele>
        <time>2021-03-27T19:38:46Z</time>
      </trkpt>
      <trkpt lat="42.056008" lon="-2.309393">
        <ele>1152.99</ele>
        <time>2021-03-27T19:38:52Z</time>
      </trkpt>
      <trkpt lat="42.055789" lon="-2.309033">
        <ele>1152.48</ele>
        <time>2021-03-27T19:38:57Z</time>
      </trkpt>
      <trkpt lat="42.053349" lon="-2.301199">
        <ele>1193.04</ele>
        <time>2021-03-27T19:39:02Z</time>
      </trkpt>
      <trkpt lat="42.053268" lon="-2.300714">
        <ele>1196.79</ele>
        <time>2021-03-27T19:39:07Z</time>
      </trkpt>
      <trkpt lat="42.052549" lon="-2.29447">
        <ele>1230.61</ele>
        <time>2021-03-27T19:39:12Z</time>
      </trkpt>
      <trkpt lat="42.052498" lon="-2.294264">
        <ele>1229.99</ele>
        <time>2021-03-27T19:39:18Z</time>
      </trkpt>
      <trkpt lat="42.052415" lon="-2.294078">
        <ele>1230.13</ele>
        <time>2021-03-27T19:39:23Z</time>
      </trkpt>
      <trkpt lat="42.049924" lon="-2.290532">
        <ele>1253.42</ele>
        <time>2021-03-27T19:39:28Z</time>
      </trkpt>
      <trkpt lat="42.049795" lon="-2.29016">
        <ele>1255.22</ele>
        <time>2021-03-27T19:39:33Z</time>
      </trkpt>
      <trkpt lat="42.049302" lon="-2.288218">
        <ele>1260.2</ele>
        <time>2021-03-27T19:39:39Z</time>
      </trkpt>
      <trkpt lat="42.049177" lon="-2.287888">
        <ele>1259.48</ele>
        <time>2021-03-27T19:39:44Z</time>
      </trkpt>
      <trkpt lat="42.047856" lon="-2.285794">
        <ele>1243.6</ele>
        <time>2021-03-27T19:39:49Z</time>
      </trkpt>
      <trkpt lat="42.047797" lon="-2.28566">
        <ele>1242.01</ele>
        <time>2021-03-27T19:39:54Z</time>
      </trkpt>
      <trkpt lat="42.04774" lon="-2.285446">
        <ele>1240.76</ele>
        <time>2021-03-27T19:39:59Z</time>
      </trkpt>
      <trkpt lat="42.047725" lon="-2.285232">
        <ele>1240.43</ele>
        <time>2021-03-27T19:40:05Z</time>
      </trkpt>
      <trkpt lat="42.047751" lon="-2.285019">
        <ele>1240.71</ele>
        <time>2021-03-27T19:40:10Z</time>
      </trkpt>
      <trkpt lat="42.048116" lon="-2.283187">
        <ele>1234.38</ele>
        <time>2021-03-27T19:40:15Z</time>
      </trkpt>
      <trkpt lat="42.04814" lon="-2.283002">
        <ele>1233.86</ele>
        <time>2021-03-27T19:40:20Z</time>
      </trkpt>
      <trkpt lat="42.048123" lon="-2.28287">
        <ele>1234.31</ele>
        <time>2021-03-27T19:40:25Z</time>
      </trkpt>
      <trkpt lat="42.048081" lon="-2.282789">
        <ele>1234.23</ele>
        <time>2021-03-27T19:40:31Z</time>
      </trkpt>
      <trkpt lat="42.048024" lon="-2.282723">
        <ele>1234.37</ele>
        <time>2021-03-27T19:40:36Z</time>
      </trkpt>
      <trkpt lat="42.046117" lon="-2.281125">
        <ele>1225.99</ele>
        <time>2021-03-27T19:40:41Z</time>
      </trkpt>
      <trkpt lat="42.045965" lon="-2.280958">
        <ele>1224.51</ele>
        <time>2021-03-27T19:40:46Z</time>
      </trkpt>
      <trkpt lat="42.044949" lon="-2.278733">
        <ele>1220.83</ele>
        <time>2021-03-27T19:40:52Z</time>
      </trkpt>
      <trkpt lat="42.044856" lon="-2.278273">
        <ele>1220.98</ele>
        <time>2021-03-27T19:40:57Z</time>
      </trkpt>
      <trkpt lat="42.044796" lon="-2.278052">
        <ele>1222.12</ele>
        <time>2021-03-27T19:41:02Z</time>
      </trkpt>
      <trkpt lat="42.044698" lon="-2.27789">
        <ele>1223.49</ele>
        <time>2021-03-27T19:41:07Z</time>
      </trkpt>
      <trkpt lat="42.044308" lon="-2.277493">
        <ele>1222.26</ele>
        <time>2021-03-27T19:41:12Z</time>
      </trkpt>
      <trkpt lat="42.044002" lon="-2.27715">
        <ele>1222.26</ele>
        <time>2021-03-27T19:41:18Z</time>
      </trkpt>
      <trkpt lat="42.043841" lon="-2.276911">
        <ele>1222.08</ele>
        <time>2021-03-27T19:41:23Z</time>
      </trkpt>
      <trkpt lat="42.043435" lon="-2.275918">
        <ele>1223.64</ele>
        <time>2021-03-27T19:41:28Z</time>
      </trkpt>
      <trkpt lat="42.042569" lon="-2.274482">
        <ele>1216.6</ele>
        <time>2021-03-27T19:41:33Z</time>
      </trkpt>
      <trkpt lat="42.042448" lon="-2.274201">
        <ele>1217.17</ele>
        <time>2021-03-27T19:41:38Z</time>
      </trkpt>
      <trkpt lat="42.041484" lon="-2.270039">
        <ele>1215.77</ele>
        <time>2021-03-27T19:41:44Z</time>
      </trkpt>
      <trkpt lat="42.04032" lon="-2.267233">
        <ele>1201.04</ele>
        <time>2021-03-27T19:41:49Z</time>
      </trkpt>
      <trkpt lat="42.039248" lon="-2.265269">
        <ele>1189.19</ele>
        <time>2021-03-27T19:41:54Z</time>
      </trkpt>
      <trkpt lat="42.039132" lon="-2.264932">
        <ele>1187.46</ele>
        <time>2021-03-27T19:41:59Z</time>
      </trkpt>
      <trkpt lat="42.038881" lon="-2.263659">
        <ele>1184.82</ele>
        <time>2021-03-27T19:42:05Z</time>
      </trkpt>
      <trkpt lat="42.038784" lon="-2.263379">
        <ele>1184.89</ele>
        <time>2021-03-27T19:42:10Z</time>
      </trkpt>
      <trkpt lat="42.038154" lon="-2.262198">
        <ele>1178.42</ele>
        <time>2021-03-27T19:42:15Z</time>
      </trkpt>
      <trkpt lat="42.038104" lon="-2.262039">
        <ele>1178.41</ele>
        <time>2021-03-27T19:42:20Z</time>
      </trkpt>
      <trkpt lat="42.038073" lon="-2.261846">
        <ele>1178.21</ele>
        <time>2021-03-27T19:42:25Z</time>
      </trkpt>
      <trkpt lat="42.037692" lon="-2.258394">
        <ele>1160.45</ele>
        <time>2021-03-27T19:42:31Z</time>
      </trkpt>
      <trkpt lat="42.03741" lon="-2.255708">
        <ele>1145.63</ele>
        <time>2021-03-27T19:42:36Z</time>
      </trkpt>
      <trkpt lat="42.037307" lon="-2.255029">
        <ele>1144.16</ele>
        <time>2021-03-27T19:42:41Z</time>
      </trkpt>
      <trkpt lat="42.037231" lon="-2.254844">
        <ele>1143.68</ele>
        <time>2021-03-27T19:42:46Z</time>
      </trkpt>
      <trkpt lat="42.03394" lon="-2.248691">
        <ele>1121.92</ele>
        <time>2021-03-27T19:42:51Z</time>
      </trkpt>
      <trkpt lat="42.033807" lon="-2.24838">
        <ele>1120.22</ele>
        <time>2021-03-27T19:42:57Z</time>
      </trkpt>
      <trkpt lat="42.033451" lon="-2.247162">
        <ele>1116.46</ele>
        <time>2021-03-27T19:43:02Z</time>
      </trkpt>
      <trkpt lat="42.033341" lon="-2.24647">
        <ele>1113.44</ele>
        <time>2021-03-27T19:43:07Z</time>
      </trkpt>
      <trkpt lat="42.033356" lon="-2.245784">
        <ele>1110.09</ele>
        <time>2021-03-27T19:43:12Z</time>
      </trkpt>
      <trkpt lat="42.033448" lon="-2.244381">
        <ele>1109.99</ele>
        <time>2021-03-27T19:43:18Z</time>
      </trkpt>
      <trkpt lat="42.03341" lon="-2.244075">
        <ele>1108.09</ele>
        <time>2021-03-27T19:43:23Z</time>
      </trkpt>
      <trkpt lat="42.032738" lon="-2.242227">
        <ele>1106.11</ele>
        <time>2021-03-27T19:43:28Z</time>
      </trkpt>
      <trkpt lat="42.032312" lon="-2.241357">
        <ele>1100.49</ele>
        <time>2021-03-27T19:43:33Z</time>
      </trkpt>
      <trkpt lat="42.031425" lon="-2.239143">
        <ele>1092.47</ele>
        <time>2021-03-27T19:43:38Z</time>
      </trkpt>
      <trkpt lat="42.03092" lon="-2.237315">
        <ele>1082.11</ele>
        <time>2021-03-27T19:43:44Z</time>
      </trkpt>
      <trkpt lat="42.030481" lon="-2.235583">
        <ele>1085.01</ele>
        <time>2021-03-27T19:43:49Z</time>
      </trkpt>
      <trkpt lat="42.030354" lon="-2.235004">
        <ele>1084.65</ele>
        <time>2021-03-27T19:43:54Z</time>
      </trkpt>
      <trkpt lat="42.030245" lon="-2.234303">
        <ele>1082.19</ele>
        <time>2021-03-27T19:43:59Z</time>
      </trkpt>
      <trkpt lat="42.030124" lon="-2.233777">
        <ele>1081.14</ele>
        <time>2021-03-27T19:44:04Z</time>
      </trkpt>
      <trkpt lat="42.029434" lon="-2.2318">
        <ele>1080.48</ele>
        <time>2021-03-27T19:44:10Z</time>
      </trkpt>
      <trkpt lat="42.029289" lon="-2.231493">
        <ele>1080.0</ele>
        <time>2021-03-27T19:44:15Z</time>
      </trkpt>
      <trkpt lat="42.02915" lon="-2.231307">
        <ele>1080.04</ele>
        <time>2021-03-27T19:44:20Z</time>
      </trkpt>
      <trkpt lat="42.029097" lon="-2.231344">
        <ele>1080.21</ele>
        <time>2021-03-27T19:44:24Z</time>
      </trkpt>
      <trkpt lat="42.029041" lon="-2.231317">
        <ele>1080.34</ele>
        <time>2021-03-27T19:44:27Z</time>
      </trkpt>
      <trkpt lat="42.029023" lon="-2.231283">
        <ele>1080.32</ele>
        <time>2021-03-27T19:44:31Z</time>
      </trkpt>
      <trkpt lat="42.029024" lon="-2.231199">
        <ele>1080.16</ele>
        <time>2021-03-27T19:44:34Z</time>
      </trkpt>
      <trkpt lat="42.028959" lon="-2.231121">
        <ele>1080.03</ele>
        <time>2021-03-27T19:44:37Z</time>
      </trkpt>
      <trkpt lat="42.028422" lon="-2.228896">
        <ele>1073.12</ele>
        <time>2021-03-27T19:44:41Z</time>
      </trkpt>
      <trkpt lat="42.02812" lon="-2.22774">
        <ele>1072.73</ele>
        <time>2021-03-27T19:44:44Z</time>
      </trkpt>
      <trkpt lat="42.027906" lon="-2.227328">
        <ele>1074.2</ele>
        <time>2021-03-27T19:44:48Z</time>
      </trkpt>
      <trkpt lat="42.027485" lon="-2.226848">
        <ele>1073.81</ele>
        <time>2021-03-27T19:44:51Z</time>
      </trkpt>
      <trkpt lat="42.026961" lon="-2.226347">
        <ele>1066.53</ele>
        <time>2021-03-27T19:44:55Z</time>
      </trkpt>
      <trkpt lat="42.025924" lon="-2.22545">
        <ele>1065.29</ele>
        <time>2021-03-27T19:44:58Z</time>
      </trkpt>
      <trkpt lat="42.024724" lon="-2.224549">
        <ele>1070.37</ele>
        <time>2021-03-27T19:45:02Z</time>
      </trkpt>
      <trkpt lat="42.023815" lon="-2.223842">
        <ele>1070.66</ele>
        <time>2021-03-27T19:45:05Z</time>
      </trkpt>
      <trkpt lat="42.022796" lon="-2.222833">
        <ele>1068.99</ele>
        <time>2021-03-27T19:45:09Z</time>
      </trkpt>
      <trkpt lat="42.022458" lon="-2.222556">
        <ele>1069.35</ele>
        <time>2021-03-27T19:45:12Z</time>
      </trkpt>
      <trkpt lat="42.022153" lon="-2.222377">
        <ele>1069.94</ele>
        <time>2021-03-27T19:45:16Z</time>
      </trkpt>
      <trkpt lat="42.021869" lon="-2.222288">
        <ele>1070.47</ele>
        <time>2021-03-27T19:45:19Z</time>
      </trkpt>
      <trkpt lat="42.021467" lon="-2.222226">
        <ele>1070.03</ele>
        <time>2021-03-27T19:45:23Z</time>
      </trkpt>
      <trkpt lat="42.021129" lon="-2.222264">
        <ele>1071.1</ele>
        <time>2021-03-27T19:45:26Z</time>
      </trkpt>
      <trkpt lat="42.020103" lon="-2.222591">
        <ele>1069.83</ele>
        <time>2021-03-27T19:45:30Z</time>
      </trkpt>
      <trkpt lat="42.019882" lon="-2.222632">
        <ele>1069.05</ele>
        <time>2021-03-27T19:45:33Z</time>
      </trkpt>
      <trkpt lat="42.019729" lon="-2.222627">
        <ele>1069.08</ele>
        <time>2021-03-27T19:45:36Z</time>
      </trkpt>
      <trkpt lat="42.019375" lon="-2.222558">
        <ele>1072.43</ele>
        <time>2021-03-27T19:45:40Z</time>
      </trkpt>
      <trkpt lat="42.019178" lon="-2.222626">
        <ele>1074.84</ele>
        <time>2021-03-27T19:45:43Z</time>
      </trkpt>
      <trkpt lat="42.01862" lon="-2.223193">
        <ele>1079.47</ele>
        <time>2021-03-27T19:45:47Z</time>
      </trkpt>
      <trkpt lat="42.01846" lon="-2.223275">
        <ele>1077.89</ele>
        <time>2021-03-27T19:45:50Z</time>
      </trkpt>
      <trkpt lat="42.018272" lon="-2.223298">
        <ele>1076.96</ele>
        <time>2021-03-27T19:45:54Z</time>
      </trkpt>
      <trkpt lat="42.017359" lon="-2.223313">
        <ele>1074.11</ele>
        <time>2021-03-27T19:45:57Z</time>
      </trkpt>
      <trkpt lat="42.01724" lon="-2.223337">
        <ele>1073.99</ele>
        <time>2021-03-27T19:46:01Z</time>
      </trkpt>
      <trkpt lat="42.017068" lon="-2.223457">
        <ele>1073.86</ele>
        <time>2021-03-27T19:46:04Z</time>
      </trkpt>
      <trkpt lat="42.016931" lon="-2.22359">
        <ele>1073.21</ele>
        <time>2021-03-27T19:46:08Z</time>
      </trkpt>
      <trkpt lat="42.01677" lon="-2.223691">
        <ele>1073.34</ele>
        <time>2021-03-27T19:46:11Z</time>
      </trkpt>
      <trkpt lat="42.016582" lon="-2.223724">
        <ele>1074.2</ele>
        <time>2021-03-27T19:46:15Z</time>
      </trkpt>
      <trkpt lat="42.015665" lon="-2.223509">
        <ele>1081.19</ele>
        <time>2021-03-27T19:46:18Z</time>
      </trkpt>
      <trkpt lat="42.012916" lon="-2.22297">
        <ele>1088.88</ele>
        <time>2021-03-27T19:46:22Z</time>
      </trkpt>
      <trkpt lat="42.012594" lon="-2.222841">
        <ele>1090.01</ele>
        <time>2021-03-27T19:46:25Z</time>
      </trkpt>
      <trkpt lat="42.011754" lon="-2.22218">
        <ele>1092.9</ele>
        <time>2021-03-27T19:46:29Z</time>
      </trkpt>
      <trkpt lat="42.011547" lon="-2.222042">
        <ele>1094.21</ele>
        <time>2021-03-27T19:46:32Z</time>
      </trkpt>
      <trkpt lat="42.011388" lon="-2.222033">
        <ele>1095.32</ele>
        <time>2021-03-27T19:46:36Z</time>
      </trkpt>
      <trkpt lat="42.011219" lon="-2.222098">
        <ele>1096.1</ele>
        <time>2021-03-27T19:46:39Z</time>
      </trkpt>
      <trkpt lat="42.008296" lon="-2.223829">
        <ele>1109.8</ele>
        <time>2021-03-27T19:46:42Z</time>
      </trkpt>
      <trkpt lat="42.008116" lon="-2.223901">
        <ele>1111.65</ele>
        <time>2021-03-27T19:46:46Z</time>
      </trkpt>
      <trkpt lat="42.007964" lon="-2.223894">
        <ele>1113.04</ele>
        <time>2021-03-27T19:46:49Z</time>
      </trkpt>
      <trkpt lat="42.007828" lon="-2.223859">
        <ele>1114.14</ele>
        <time>2021-03-27T19:46:53Z</time>
      </trkpt>
      <trkpt lat="42.007596" lon="-2.223635">
        <ele>1113.57</ele>
        <time>2021-03-27T19:46:56Z</time>
      </trkpt>
      <trkpt lat="42.006767" lon="-2.222629">
        <ele>1120.74</ele>
        <time>2021-03-27T19:47:00Z</time>
      </trkpt>
      <trkpt lat="42.006578" lon="-2.222465">
        <ele>1121.92</ele>
        <time>2021-03-27T19:47:03Z</time>
      </trkpt>
      <trkpt lat="42.006312" lon="-2.222354">
        <ele>1124.16</ele>
        <time>2021-03-27T19:47:07Z</time>
      </trkpt>
      <trkpt lat="42.005544" lon="-2.222206">
        <ele>1128.97</ele>
        <time>2021-03-27T19:47:10Z</time>
      </trkpt>
      <trkpt lat="42.002564" lon="-2.222313">
        <ele>1148.53</ele>
        <time>2021-03-27T19:47:14Z</time>
      </trkpt>
      <trkpt lat="42.001641" lon="-2.222187">
        <ele>1153.88</ele>
        <time>2021-03-27T19:47:17Z</time>
      </trkpt>
      <trkpt lat="41.999634" lon="-2.222642">
        <ele>1163.13</ele>
        <time>2021-03-27T19:47:21Z</time>
      </trkpt>
      <trkpt lat="41.997609" lon="-2.223319">
        <ele>1171.9</ele>
        <time>2021-03-27T19:47:24Z</time>
      </trkpt>
      <trkpt lat="41.997197" lon="-2.223372">
        <ele>1169.75</ele>
        <time>2021-03-27T19:47:28Z</time>
      </trkpt>
      <trkpt lat="41.99639" lon="-2.223418">
        <ele>1168.49</ele>
        <time>2021-03-27T19:47:31Z</time>
      </trkpt>
      <trkpt lat="41.996166" lon="-2.223346">
        <ele>1169.84</ele>
        <time>2021-03-27T19:47:35Z</time>
      </trkpt>
      <trkpt lat="41.995248" lon="-2.222768">
        <ele>1179.07</ele>
        <time>2021-03-27T19:47:38Z</time>
      </trkpt>
      <trkpt lat="41.994831" lon="-2.222392">
        <ele>1182.41</ele>
        <time>2021-03-27T19:47:41Z</time>
      </trkpt>
      <trkpt lat="41.994538" lon="-2.222224">
        <ele>1181.66</ele>
        <time>2021-03-27T19:47:45Z</time>
      </trkpt>
      <trkpt lat="41.993687" lon="-2.22187">
        <ele>1190.53</ele>
        <time>2021-03-27T19:47:48Z</time>
      </trkpt>
      <trkpt lat="41.993456" lon="-2.221856">
        <ele>1192.34</ele>
        <time>2021-03-27T19:47:52Z</time>
      </trkpt>
      <trkpt lat="41.993242" lon="-2.221883">
        <ele>1193.51</ele>
        <time>2021-03-27T19:47:55Z</time>
      </trkpt>
      <trkpt lat="41.993097" lon="-2.221947">
        <ele>1194.54</ele>
        <time>2021-03-27T19:47:59Z</time>
      </trkpt>
      <trkpt lat="41.992955" lon="-2.222114">
        <ele>1195.84</ele>
        <time>2021-03-27T19:48:02Z</time>
      </trkpt>
      <trkpt lat="41.992538" lon="-2.223052">
        <ele>1196.72</ele>
        <time>2021-03-27T19:48:06Z</time>
      </trkpt>
      <trkpt lat="41.992427" lon="-2.223178">
        <ele>1196.94</ele>
        <time>2021-03-27T19:48:09Z</time>
      </trkpt>
      <trkpt lat="41.992298" lon="-2.223244">
        <ele>1197.54</ele>
        <time>2021-03-27T19:48:13Z</time>
      </trkpt>
      <trkpt lat="41.991027" lon="-2.223595">
        <ele>1205.04</ele>
        <time>2021-03-27T19:48:16Z</time>
      </trkpt>
      <trkpt lat="41.990863" lon="-2.223671">
        <ele>1206.27</ele>
        <time>2021-03-27T19:48:20Z</time>
      </trkpt>
      <trkpt lat="41.99071" lon="-2.22378">
        <ele>1207.11</ele>
        <time>2021-03-27T19:48:23Z</time>
      </trkpt>
      <trkpt lat="41.990014" lon="-2.224567">
        <ele>1215.33</ele>
        <time>2021-03-27T19:48:27Z</time>
      </trkpt>
      <trkpt lat="41.989871" lon="-2.224658">
        <ele>1215.34</ele>
        <time>2021-03-27T19:48:30Z</time>
      </trkpt>
      <trkpt lat="41.989727" lon="-2.224678">
        <ele>1215.32</ele>
        <time>2021-03-27T19:48:34Z</time>
      </trkpt>
      <trkpt lat="41.989548" lon="-2.224582">
        <ele>1216.94</ele>
        <time>2021-03-27T19:48:37Z</time>
      </trkpt>
      <trkpt lat="41.988871" lon="-2.223573">
        <ele>1226.06</ele>
        <time>2021-03-27T19:48:41Z</time>
      </trkpt>
      <trkpt lat="41.988406" lon="-2.222939">
        <ele>1223.31</ele>
        <time>2021-03-27T19:48:44Z</time>
      </trkpt>
      <trkpt lat="41.988062" lon="-2.222327">
        <ele>1220.11</ele>
        <time>2021-03-27T19:48:47Z</time>
      </trkpt>
      <trkpt lat="41.987848" lon="-2.221886">
        <ele>1223.83</ele>
        <time>2021-03-27T19:48:51Z</time>
      </trkpt>
      <trkpt lat="41.987717" lon="-2.221664">
        <ele>1226.37</ele>
        <time>2021-03-27T19:48:54Z</time>
      </trkpt>
      <trkpt lat="41.987043" lon="-2.220937">
        <ele>1227.72</ele>
        <time>2021-03-27T19:48:58Z</time>
      </trkpt>
      <trkpt lat="41.985877" lon="-2.219284">
        <ele>1228.63</ele>
        <time>2021-03-27T19:49:01Z</time>
      </trkpt>
      <trkpt lat="41.98575" lon="-2.219046">
        <ele>1227.76</ele>
        <time>2021-03-27T19:49:05Z</time>
      </trkpt>
      <trkpt lat="41.985664" lon="-2.218743">
        <ele>1226.86</ele>
        <time>2021-03-27T19:49:08Z</time>
      </trkpt>
      <trkpt lat="41.985391" lon="-2.217133">
        <ele>1228.85</ele>
        <time>2021-03-27T19:49:12Z</time>
      </trkpt>
      <trkpt lat="41.98533" lon="-2.216986">
        <ele>1229.13</ele>
        <time>2021-03-27T19:49:15Z</time>
      </trkpt>
      <trkpt lat="41.985244" lon="-2.216904">
        <ele>1229.35</ele>
        <time>2021-03-27T19:49:19Z</time>
      </trkpt>
      <trkpt lat="41.985114" lon="-2.216855">
        <ele>1230.12</ele>
        <time>2021-03-27T19:49:22Z</time>
      </trkpt>
      <trkpt lat="41.984992" lon="-2.21689">
        <ele>1230.94</ele>
        <time>2021-03-27T19:49:26Z</time>
      </trkpt>
      <trkpt lat="41.984885" lon="-2.217002">
        <ele>1232.91</ele>
        <time>2021-03-27T19:49:29Z</time>
      </trkpt>
      <trkpt lat="41.98468" lon="-2.217417">
        <ele>1234.64</ele>
        <time>2021-03-27T19:49:33Z</time>
      </trkpt>
      <trkpt lat="41.984554" lon="-2.217533">
        <ele>1234.26</ele>
        <time>2021-03-27T19:49:36Z</time>
      </trkpt>
      <trkpt lat="41.984459" lon="-2.217549">
        <ele>1234.97</ele>
        <time>2021-03-27T19:49:40Z</time>
      </trkpt>
      <trkpt lat="41.984355" lon="-2.217537">
        <ele>1235.05</ele>
        <time>2021-03-27T19:49:43Z</time>
      </trkpt>
      <trkpt lat="41.98425" lon="-2.217486">
        <ele>1235.47</ele>
        <time>2021-03-27T19:49:46Z</time>
      </trkpt>
      <trkpt lat="41.983698" lon="-2.217024">
        <ele>1239.4</ele>
        <time>2021-03-27T19:49:50Z</time>
      </trkpt>
      <trkpt lat="41.983336" lon="-2.216768">
        <ele>1244.52</ele>
        <time>2021-03-27T19:49:53Z</time>
      </trkpt>
      <trkpt lat="41.983123" lon="-2.216533">
        <ele>1245.29</ele>
        <time>2021-03-27T19:49:57Z</time>
      </trkpt>
      <trkpt lat="41.982363" lon="-2.215452">
        <ele>1256.22</ele>
        <time>2021-03-27T19:50:00Z</time>
      </trkpt>
      <trkpt lat="41.982164" lon="-2.215264">
        <ele>1260.4</ele>
        <time>2021-03-27T19:50:04Z</time>
      </trkpt>
      <trkpt lat="41.981936" lon="-2.215103">
        <ele>1259.96</ele>
        <time>2021-03-27T19:50:07Z</time>
      </trkpt>
      <trkpt lat="41.979565" lon="-2.213764">
        <ele>1274.59</ele>
        <time>2021-03-27T19:50:11Z</time>
      </trkpt>
      <trkpt lat="41.978236" lon="-2.213048">
        <ele>1285.36</ele>
        <time>2021-03-27T19:50:14Z</time>
      </trkpt>
      <trkpt lat="41.977934" lon="-2.212929">
        <ele>1286.0</ele>
        <time>2021-03-27T19:50:18Z</time>
      </trkpt>
      <trkpt lat="41.977622" lon="-2.212884">
        <ele>1286.34</ele>
        <time>2021-03-27T19:50:21Z</time>
      </trkpt>
      <trkpt lat="41.976553" lon="-2.212914">
        <ele>1292.49</ele>
        <time>2021-03-27T19:50:25Z</time>
      </trkpt>
      <trkpt lat="41.976198" lon="-2.212811">
        <ele>1295.31</ele>
        <time>2021-03-27T19:50:28Z</time>
      </trkpt>
      <trkpt lat="41.97516" lon="-2.212325">
        <ele>1302.48</ele>
        <time>2021-03-27T19:50:32Z</time>
      </trkpt>
      <trkpt lat="41.974839" lon="-2.212285">
        <ele>1303.7</ele>
        <time>2021-03-27T19:50:35Z</time>
      </trkpt>
      <trkpt lat="41.974303" lon="-2.212303">
        <ele>1305.96</ele>
        <time>2021-03-27T19:50:39Z</time>
      </trkpt>
      <trkpt lat="41.973552" lon="-2.212557">
        <ele>1310.23</ele>
        <time>2021-03-27T19:50:42Z</time>
      </trkpt>
      <trkpt lat="41.97333" lon="-2.212695">
        <ele>1310.75</ele>
        <time>2021-03-27T19:50:45Z</time>
      </trkpt>
      <trkpt lat="41.972011" lon="-2.213974">
        <ele>1316.79</ele>
        <time>2021-03-27T19:50:49Z</time>
      </trkpt>
      <trkpt lat="41.971748" lon="-2.214129">
        <ele>1320.06</ele>
        <time>2021-03-27T19:50:52Z</time>
      </trkpt>
      <trkpt lat="41.970766" lon="-2.214497">
        <ele>1323.9</ele>
        <time>2021-03-27T19:50:56Z</time>
      </trkpt>
      <trkpt lat="41.970536" lon="-2.214554">
        <ele>1326.55</ele>
        <time>2021-03-27T19:50:59Z</time>
      </trkpt>
      <trkpt lat="41.969704" lon="-2.214388">
        <ele>1332.91</ele>
        <time>2021-03-27T19:51:03Z</time>
      </trkpt>
      <trkpt lat="41.969173" lon="-2.214341">
        <ele>1335.95</ele>
        <time>2021-03-27T19:51:06Z</time>
      </trkpt>
      <trkpt lat="41.96905" lon="-2.214268">
        <ele>1338.24</ele>
        <time>2021-03-27T19:51:10Z</time>
      </trkpt>
      <trkpt lat="41.968901" lon="-2.214083">
        <ele>1340.3</ele>
        <time>2021-03-27T19:51:13Z</time>
      </trkpt>
      <trkpt lat="41.967445" lon="-2.21111">
        <ele>1336.37</ele>
        <time>2021-03-27T19:51:17Z</time>
      </trkpt>
      <trkpt lat="41.96732" lon="-2.210943">
        <ele>1335.27</ele>
        <time>2021-03-27T19:51:20Z</time>
      </trkpt>
      <trkpt lat="41.967141" lon="-2.210799">
        <ele>1335.18</ele>
        <time>2021-03-27T19:51:24Z</time>
      </trkpt>
      <trkpt lat="41.964839" lon="-2.210055">
        <ele>1327.72</ele>
        <time>2021-03-27T19:51:27Z</time>
      </trkpt>
      <trkpt lat="41.964656" lon="-2.209909">
        <ele>1327.5</ele>
        <time>2021-03-27T19:51:31Z</time>
      </trkpt>
      <trkpt lat="41.96457" lon="-2.209756">
        <ele>1327.36</ele>
        <time>2021-03-27T19:51:34Z</time>
      </trkpt>
      <trkpt lat="41.964544" lon="-2.209563">
        <ele>1326.79</ele>
        <time>2021-03-27T19:51:38Z</time>
      </trkpt>
      <trkpt lat="41.964512" lon="-2.208617">
        <ele>1323.08</ele>
        <time>2021-03-27T19:51:41Z</time>
      </trkpt>
      <trkpt lat="41.964464" lon="-2.208232">
        <ele>1321.99</ele>
        <time>2021-03-27T19:51:45Z</time>
      </trkpt>
      <trkpt lat="41.964347" lon="-2.207963">
        <ele>1322.78</ele>
        <time>2021-03-27T19:51:48Z</time>
      </trkpt>
      <trkpt lat="41.963298" lon="-2.206616">
        <ele>1322.73</ele>
        <time>2021-03-27T19:51:51Z</time>
      </trkpt>
      <trkpt lat="41.963058" lon="-2.206339">
        <ele>1322.25</ele>
        <time>2021-03-27T19:51:55Z</time>
      </trkpt>
      <trkpt lat="41.961485" lon="-2.205497">
        <ele>1307.89</ele>
        <time>2021-03-27T19:51:58Z</time>
      </trkpt>
      <trkpt lat="41.961342" lon="-2.205364">
        <ele>1306.68</ele>
        <time>2021-03-27T19:52:02Z</time>
      </trkpt>
      <trkpt lat="41.961231" lon="-2.205201">
        <ele>1305.31</ele>
        <time>2021-03-27T19:52:05Z</time>
      </trkpt>
      <trkpt lat="41.960923" lon="-2.204326">
        <ele>1304.43</ele>
        <time>2021-03-27T19:52:09Z</time>
      </trkpt>
      <trkpt lat="41.96076" lon="-2.203767">
        <ele>1298.63</ele>
        <time>2021-03-27T19:52:12Z</time>
      </trkpt>
      <trkpt lat="41.960615" lon="-2.203463">
        <ele>1296.09</ele>
        <time>2021-03-27T19:52:16Z</time>
      </trkpt>
      <trkpt lat="41.960495" lon="-2.203352">
        <ele>1294.99</ele>
        <time>2021-03-27T19:52:19Z</time>
      </trkpt>
      <trkpt lat="41.959088" lon="-2.203192">
        <ele>1287.82</ele>
        <time>2021-03-27T19:52:23Z</time>
      </trkpt>
      <trkpt lat="41.95888" lon="-2.203129">
        <ele>1286.79</ele>
        <time>2021-03-27T19:52:26Z</time>
      </trkpt>
      <trkpt lat="41.958697" lon="-2.203001">
        <ele>1285.35</ele>
        <time>2021-03-27T19:52:30Z</time>
      </trkpt>
      <trkpt lat="41.958499" lon="-2.202725">
        <ele>1282.1</ele>
        <time>2021-03-27T19:52:33Z</time>
      </trkpt>
      <trkpt lat="41.957558" lon="-2.201159">
        <ele>1274.83</ele>
        <time>2021-03-27T19:52:37Z</time>
      </trkpt>
      <trkpt lat="41.953965" lon="-2.195307">
        <ele>1253.31</ele>
        <time>2021-03-27T19:52:40Z</time>
      </trkpt>
      <trkpt lat="41.949964" lon="-2.189397">
        <ele>1222.59</ele>
        <time>2021-03-27T19:52:44Z</time>
      </trkpt>
      <trkpt lat="41.947614" lon="-2.186554">
        <ele>1206.2</ele>
        <time>2021-03-27T19:52:47Z</time>
      </trkpt>
      <trkpt lat="41.94312" lon="-2.182324">
        <ele>1175.83</ele>
        <time>2021-03-27T19:52:50Z</time>
      </trkpt>
      <trkpt lat="41.942828" lon="-2.182112">
        <ele>1176.34</ele>
        <time>2021-03-27T19:52:54Z</time>
      </trkpt>
      <trkpt lat="41.942576" lon="-2.182036">
        <ele>1176.72</ele>
        <time>2021-03-27T19:52:57Z</time>
      </trkpt>
      <trkpt lat="41.94201" lon="-2.18194">
        <ele>1176.98</ele>
        <time>2021-03-27T19:53:01Z</time>
      </trkpt>
      <trkpt lat="41.941564" lon="-2.181908">
        <ele>1173.37</ele>
        <time>2021-03-27T19:53:04Z</time>
      </trkpt>
      <trkpt lat="41.937922" lon="-2.182489">
        <ele>1160.92</ele>
        <time>2021-03-27T19:53:08Z</time>
      </trkpt>
      <trkpt lat="41.937294" lon="-2.182562">
        <ele>1158.95</ele>
        <time>2021-03-27T19:53:11Z</time>
      </trkpt>
      <trkpt lat="41.936517" lon="-2.182505">
        <ele>1163.41</ele>
        <time>2021-03-27T19:53:15Z</time>
      </trkpt>
      <trkpt lat="41.9366" lon="-2.18166">
        <ele>1157.97</ele>
        <time>2021-03-27T19:53:18Z</time>
      </trkpt>
      <trkpt lat="41.93668" lon="-2.18142">
        <ele>1157.06</ele>
        <time>2021-03-27T19:53:21Z</time>
      </trkpt>
      <trkpt lat="41.937204" lon="-2.180444">
        <ele>1149.97</ele>
        <time>2021-03-27T19:53:24Z</time>
      </trkpt>
      <trkpt lat="41.93726" lon="-2.18015">
        <ele>1149.6</ele>
        <time>2021-03-27T19:53:27Z</time>
      </trkpt>
      <trkpt lat="41.93725" lon="-2.17987">
        <ele>1149.61</ele>
        <time>2021-03-27T19:53:30Z</time>
      </trkpt>
      <trkpt lat="41.93719" lon="-2.17967">
        <ele>1150.21</ele>
        <time>2021-03-27T19:53:33Z</time>
      </trkpt>
      <trkpt lat="41.93706" lon="-2.17949">
        <ele>1150.11</ele>
        <time>2021-03-27T19:53:36Z</time>
      </trkpt>
      <trkpt lat="41.93644" lon="-2.17895">
        <ele>1154.3</ele>
        <time>2021-03-27T19:53:39Z</time>
      </trkpt>
      <trkpt lat="41.93625" lon="-2.1787">
        <ele>1154.88</ele>
        <time>2021-03-27T19:53:42Z</time>
      </trkpt>
      <trkpt lat="41.93605" lon="-2.17826">
        <ele>1157.93</ele>
        <time>2021-03-27T19:53:45Z</time>
      </trkpt>
      <trkpt lat="41.935973" lon="-2.177954">
        <ele>1159.74</ele>
        <time>2021-03-27T19:53:48Z</time>
      </trkpt>
      <trkpt lat="41.93592" lon="-2.1776">
        <ele>1161.5</ele>
        <time>2021-03-27T19:53:52Z</time>
      </trkpt>
      <trkpt lat="41.93594" lon="-2.17698">
        <ele>1160.67</ele>
        <time>2021-03-27T19:53:55Z</time>
      </trkpt>
      <trkpt lat="41.93598" lon="-2.17681">
        <ele>1160.47</ele>
        <time>2021-03-27T19:53:58Z</time>
      </trkpt>
      <trkpt lat="41.93607" lon="-2.17655">
        <ele>1160.15</ele>
        <time>2021-03-27T19:54:01Z</time>
      </trkpt>
      <trkpt lat="41.93623" lon="-2.17633">
        <ele>1160.34</ele>
        <time>2021-03-27T19:54:04Z</time>
      </trkpt>
      <trkpt lat="41.937192" lon="-2.175631">
        <ele>1161.97</ele>
        <time>2021-03-27T19:54:07Z</time>
      </trkpt>
      <trkpt lat="41.937706" lon="-2.175153">
        <ele>1163.51</ele>
        <time>2021-03-27T19:54:10Z</time>
      </trkpt>
      <trkpt lat="41.93792" lon="-2.17487">
        <ele>1166.02</ele>
        <time>2021-03-27T19:54:13Z</time>
      </trkpt>
      <trkpt lat="41.938018" lon="-2.174693">
        <ele>1168.32</ele>
        <time>2021-03-27T19:54:16Z</time>
      </trkpt>
      <trkpt lat="41.93816" lon="-2.174094">
        <ele>1170.4</ele>
        <time>2021-03-27T19:54:19Z</time>
      </trkpt>
      <trkpt lat="41.93822" lon="-2.1739">
        <ele>1170.8</ele>
        <time>2021-03-27T19:54:22Z</time>
      </trkpt>
      <trkpt lat="41.93837" lon="-2.17371">
        <ele>1171.62</ele>
        <time>2021-03-27T19:54:25Z</time>
      </trkpt>
      <trkpt lat="41.93958" lon="-2.17304">
        <ele>1169.94</ele>
        <time>2021-03-27T19:54:28Z</time>
      </trkpt>
      <trkpt lat="41.93991" lon="-2.17282">
        <ele>1170.4</ele>
        <time>2021-03-27T19:54:31Z</time>
      </trkpt>
      <trkpt lat="41.94008" lon="-2.17263">
        <ele>1170.33</ele>
        <time>2021-03-27T19:54:34Z</time>
      </trkpt>
      <trkpt lat="41.94119" lon="-2.17086">
        <ele>1165.46</ele>
        <time>2021-03-27T19:54:37Z</time>
      </trkpt>
      <trkpt lat="41.94133" lon="-2.17052">
        <ele>1164.21</ele>
        <time>2021-03-27T19:54:40Z</time>
      </trkpt>
      <trkpt lat="41.94221" lon="-2.16602">
        <ele>1146.25</ele>
        <time>2021-03-27T19:54:43Z</time>
      </trkpt>
      <trkpt lat="41.94225" lon="-2.16565">
        <ele>1146.9</ele>
        <time>2021-03-27T19:54:46Z</time>
      </trkpt>
      <trkpt lat="41.94226" lon="-2.16454">
        <ele>1144.86</ele>
        <time>2021-03-27T19:54:50Z</time>
      </trkpt>
      <trkpt lat="41.94224" lon="-2.1638">
        <ele>1141.59</ele>
        <time>2021-03-27T19:54:53Z</time>
      </trkpt>
      <trkpt lat="41.94198" lon="-2.16198">
        <ele>1141.24</ele>
        <time>2021-03-27T19:54:56Z</time>
      </trkpt>
      <trkpt lat="41.94112" lon="-2.15886">
        <ele>1131.13</ele>
        <time>2021-03-27T19:54:59Z</time>
      </trkpt>
      <trkpt lat="41.9411" lon="-2.15869">
        <ele>1131.62</ele>
        <time>2021-03-27T19:55:02Z</time>
      </trkpt>
      <trkpt lat="41.94112" lon="-2.15797">
        <ele>1126.62</ele>
        <time>2021-03-27T19:55:05Z</time>
      </trkpt>
      <trkpt lat="41.94135" lon="-2.15546">
        <ele>1110.17</ele>
        <time>2021-03-27T19:55:08Z</time>
      </trkpt>
      <trkpt lat="41.941403" lon="-2.155205">
        <ele>1108.76</ele>
        <time>2021-03-27T19:55:11Z</time>
      </trkpt>
      <trkpt lat="41.9415" lon="-2.15503">
        <ele>1107.71</ele>
        <time>2021-03-27T19:55:14Z</time>
      </trkpt>
      <trkpt lat="41.94185" lon="-2.15449">
        <ele>1103.07</ele>
        <time>2021-03-27T19:55:17Z</time>
      </trkpt>
      <trkpt lat="41.94233" lon="-2.1539">
        <ele>1096.95</ele>
        <time>2021-03-27T19:55:20Z</time>
      </trkpt>
      <trkpt lat="41.942658" lon="-2.153197">
        <ele>1095.86</ele>
        <time>2021-03-27T19:55:23Z</time>
      </trkpt>
      <trkpt lat="41.94297" lon="-2.15261">
        <ele>1089.96</ele>
        <time>2021-03-27T19:55:26Z</time>
      </trkpt>
      <trkpt lat="41.94419" lon="-2.15056">
        <ele>1075.68</ele>
        <time>2021-03-27T19:55:29Z</time>
      </trkpt>
      <trkpt lat="41.94494" lon="-2.1479">
        <ele>1062.95</ele>
        <time>2021-03-27T19:55:32Z</time>
      </trkpt>
      <trkpt lat="41.94499" lon="-2.14753">
        <ele>1063.11</ele>
        <time>2021-03-27T19:55:35Z</time>
      </trkpt>
      <trkpt lat="41.94497" lon="-2.14725">
        <ele>1064.06</ele>
        <time>2021-03-27T19:55:38Z</time>
      </trkpt>
      <trkpt lat="41.94486" lon="-2.14696">
        <ele>1060.27</ele>
        <time>2021-03-27T19:55:41Z</time>
      </trkpt>
      <trkpt lat="41.94421" lon="-2.14593">
        <ele>1055.08</ele>
        <time>2021-03-27T19:55:44Z</time>
      </trkpt>
      <trkpt lat="41.94376" lon="-2.14496">
        <ele>1049.02</ele>
        <time>2021-03-27T19:55:48Z</time>
      </trkpt>
      <trkpt lat="41.94361" lon="-2.14473">
        <ele>1048.05</ele>
        <time>2021-03-27T19:55:51Z</time>
      </trkpt>
      <trkpt lat="41.94347" lon="-2.14461">
        <ele>1045.97</ele>
        <time>2021-03-27T19:55:54Z</time>
      </trkpt>
      <trkpt lat="41.94323" lon="-2.1446">
        <ele>1042.66</ele>
        <time>2021-03-27T19:55:57Z</time>
      </trkpt>
      <trkpt lat="41.94309" lon="-2.14472">
        <ele>1041.59</ele>
        <time>2021-03-27T19:56:00Z</time>
      </trkpt>
      <trkpt lat="41.94231" lon="-2.14603">
        <ele>1047.49</ele>
        <time>2021-03-27T19:56:03Z</time>
      </trkpt>
      <trkpt lat="41.942211" lon="-2.14609">
        <ele>1047.69</ele>
        <time>2021-03-27T19:56:06Z</time>
      </trkpt>
      <trkpt lat="41.94213" lon="-2.14609">
        <ele>1048.26</ele>
        <time>2021-03-27T19:56:09Z</time>
      </trkpt>
      <trkpt lat="41.942026" lon="-2.146058">
        <ele>1048.32</ele>
        <time>2021-03-27T19:56:12Z</time>
      </trkpt>
      <trkpt lat="41.94194" lon="-2.14599">
        <ele>1047.51</ele>
        <time>2021-03-27T19:56:15Z</time>
      </trkpt>
      <trkpt lat="41.941901" lon="-2.145917">
        <ele>1047.21</ele>
        <time>2021-03-27T19:56:18Z</time>
      </trkpt>
      <trkpt lat="41.941866" lon="-2.144821">
        <ele>1036.92</ele>
        <time>2021-03-27T19:56:21Z</time>
      </trkpt>
      <trkpt lat="41.941613" lon="-2.143547">
        <ele>1030.63</ele>
        <time>2021-03-27T19:56:24Z</time>
      </trkpt>
      <trkpt lat="41.941469" lon="-2.143206">
        <ele>1029.02</ele>
        <time>2021-03-27T19:56:27Z</time>
      </trkpt>
      <trkpt lat="41.94131" lon="-2.14294">
        <ele>1026.61</ele>
        <time>2021-03-27T19:56:30Z</time>
      </trkpt>
      <trkpt lat="41.94055" lon="-2.14204">
        <ele>1019.81</ele>
        <time>2021-03-27T19:56:33Z</time>
      </trkpt>
      <trkpt lat="41.94047" lon="-2.14182">
        <ele>1018.47</ele>
        <time>2021-03-27T19:56:36Z</time>
      </trkpt>
      <trkpt lat="41.940436" lon="-2.141554">
        <ele>1017.77</ele>
        <time>2021-03-27T19:56:39Z</time>
      </trkpt>
      <trkpt lat="41.94045" lon="-2.14127">
        <ele>1017.2</ele>
        <time>2021-03-27T19:56:42Z</time>
      </trkpt>
      <trkpt lat="41.94061" lon="-2.14018">
        <ele>1008.88</ele>
        <time>2021-03-27T19:56:46Z</time>
      </trkpt>
      <trkpt lat="41.94061" lon="-2.13994">
        <ele>1007.5</ele>
        <time>2021-03-27T19:56:49Z</time>
      </trkpt>
      <trkpt lat="41.940527" lon="-2.139015">
        <ele>1003.24</ele>
        <time>2021-03-27T19:56:52Z</time>
      </trkpt>
      <trkpt lat="41.94047" lon="-2.13803">
        <ele>998.97</ele>
        <time>2021-03-27T19:56:55Z</time>
      </trkpt>
      <trkpt lat="41.94041" lon="-2.13762">
        <ele>996.4</ele>
        <time>2021-03-27T19:56:58Z</time>
      </trkpt>
      <trkpt lat="41.94005" lon="-2.13655">
        <ele>989.02</ele>
        <time>2021-03-27T19:57:01Z</time>
      </trkpt>
      <trkpt lat="41.93969" lon="-2.13575">
        <ele>983.06</ele>
        <time>2021-03-27T19:57:04Z</time>
      </trkpt>
      <trkpt lat="41.939307" lon="-2.135062">
        <ele>982.73</ele>
        <time>2021-03-27T19:57:07Z</time>
      </trkpt>
      <trkpt lat="41.93878" lon="-2.13427">
        <ele>977.08</ele>
        <time>2021-03-27T19:57:10Z</time>
      </trkpt>
      <trkpt lat="41.93858" lon="-2.134">
        <ele>975.49</ele>
        <time>2021-03-27T19:57:13Z</time>
      </trkpt>
      <trkpt lat="41.938044" lon="-2.133481">
        <ele>971.16</ele>
        <time>2021-03-27T19:57:16Z</time>
      </trkpt>
      <trkpt lat="41.93794" lon="-2.133286">
        <ele>968.75</ele>
        <time>2021-03-27T19:57:19Z</time>
      </trkpt>
      <trkpt lat="41.93788" lon="-2.13302">
        <ele>967.52</ele>
        <time>2021-03-27T19:57:22Z</time>
      </trkpt>
      <trkpt lat="41.93781" lon="-2.13258">
        <ele>965.47</ele>
        <time>2021-03-27T19:57:25Z</time>
      </trkpt>
      <trkpt lat="41.9378" lon="-2.13219">
        <ele>960.79</ele>
        <time>2021-03-27T19:57:28Z</time>
      </trkpt>
      <trkpt lat="41.93785" lon="-2.13198">
        <ele>958.45</ele>
        <time>2021-03-27T19:57:31Z</time>
      </trkpt>
      <trkpt lat="41.937926" lon="-2.131892">
        <ele>957.34</ele>
        <time>2021-03-27T19:57:34Z</time>
      </trkpt>
      <trkpt lat="41.93799" lon="-2.13185">
        <ele>956.9</ele>
        <time>2021-03-27T19:57:37Z</time>
      </trkpt>
      <trkpt lat="41.93811" lon="-2.13185">
        <ele>956.72</ele>
        <time>2021-03-27T19:57:40Z</time>
      </trkpt>
      <trkpt lat="41.93829" lon="-2.13201">
        <ele>957.74</ele>
        <time>2021-03-27T19:57:43Z</time>
      </trkpt>
      <trkpt lat="41.9387" lon="-2.1326">
        <ele>957.36</ele>
        <time>2021-03-27T19:57:47Z</time>
      </trkpt>
      <trkpt lat="41.93948" lon="-2.13346">
        <ele>952.09</ele>
        <time>2021-03-27T19:57:50Z</time>
      </trkpt>
      <trkpt lat="41.939561" lon="-2.133479">
        <ele>951.98</ele>
        <time>2021-03-27T19:57:53Z</time>
      </trkpt>
      <trkpt lat="41.93964" lon="-2.13347">
        <ele>951.41</ele>
        <time>2021-03-27T19:57:56Z</time>
      </trkpt>
      <trkpt lat="41.93973" lon="-2.13338">
        <ele>949.48</ele>
        <time>2021-03-27T19:57:59Z</time>
      </trkpt>
      <trkpt lat="41.939739" lon="-2.13323">
        <ele>947.05</ele>
        <time>2021-03-27T19:58:02Z</time>
      </trkpt>
      <trkpt lat="41.93971" lon="-2.1331">
        <ele>945.65</ele>
        <time>2021-03-27T19:58:05Z</time>
      </trkpt>
      <trkpt lat="41.93915" lon="-2.13226">
        <ele>942.02</ele>
        <time>2021-03-27T19:58:08Z</time>
      </trkpt>
      <trkpt lat="41.93889" lon="-2.13175">
        <ele>942.17</ele>
        <time>2021-03-27T19:58:11Z</time>
      </trkpt>
      <trkpt lat="41.93787" lon="-2.12908">
        <ele>921.74</ele>
        <time>2021-03-27T19:58:14Z</time>
      </trkpt>
      <trkpt lat="41.93775" lon="-2.1289">
        <ele>922.33</ele>
        <time>2021-03-27T19:58:17Z</time>
      </trkpt>
      <trkpt lat="41.9375" lon="-2.12871">
        <ele>920.78</ele>
        <time>2021-03-27T19:58:20Z</time>
      </trkpt>
      <trkpt lat="41.93746" lon="-2.12863">
        <ele>919.49</ele>
        <time>2021-03-27T19:58:23Z</time>
      </trkpt>
      <trkpt lat="41.93746" lon="-2.12852">
        <ele>917.78</ele>
        <time>2021-03-27T19:58:26Z</time>
      </trkpt>
      <trkpt lat="41.937498" lon="-2.128437">
        <ele>916.5</ele>
        <time>2021-03-27T19:58:29Z</time>
      </trkpt>
      <trkpt lat="41.93755" lon="-2.12838">
        <ele>915.31</ele>
        <time>2021-03-27T19:58:32Z</time>
      </trkpt>
      <trkpt lat="41.93767" lon="-2.12836">
        <ele>914.16</ele>
        <time>2021-03-27T19:58:35Z</time>
      </trkpt>
      <trkpt lat="41.93785" lon="-2.12844">
        <ele>913.24</ele>
        <time>2021-03-27T19:58:38Z</time>
      </trkpt>
      <trkpt lat="41.93884" lon="-2.12952">
        <ele>906.56</ele>
        <time>2021-03-27T19:58:41Z</time>
      </trkpt>
      <trkpt lat="41.93908" lon="-2.12998">
        <ele>910.27</ele>
        <time>2021-03-27T19:58:45Z</time>
      </trkpt>
      <trkpt lat="41.939166" lon="-2.130021">
        <ele>909.17</ele>
        <time>2021-03-27T19:58:48Z</time>
      </trkpt>
      <trkpt lat="41.939303" lon="-2.129958">
        <ele>904.95</ele>
        <time>2021-03-27T19:58:51Z</time>
      </trkpt>
      <trkpt lat="41.93934" lon="-2.12989">
        <ele>903.05</ele>
        <time>2021-03-27T19:58:54Z</time>
      </trkpt>
      <trkpt lat="41.93937" lon="-2.129773">
        <ele>900.59</ele>
        <time>2021-03-27T19:58:57Z</time>
      </trkpt>
      <trkpt lat="41.93936" lon="-2.12967">
        <ele>899.32</ele>
        <time>2021-03-27T19:59:00Z</time>
      </trkpt>
      <trkpt lat="41.93933" lon="-2.12957">
        <ele>898.47</ele>
        <time>2021-03-27T19:59:03Z</time>
      </trkpt>
      <trkpt lat="41.93904" lon="-2.1291">
        <ele>897.89</ele>
        <time>2021-03-27T19:59:06Z</time>
      </trkpt>
      <trkpt lat="41.93849" lon="-2.12748">
        <ele>887.47</ele>
        <time>2021-03-27T19:59:09Z</time>
      </trkpt>
      <trkpt lat="41.938466" lon="-2.127359">
        <ele>886.04</ele>
        <time>2021-03-27T19:59:12Z</time>
      </trkpt>
      <trkpt lat="41.93848" lon="-2.12723">
        <ele>884.05</ele>
        <time>2021-03-27T19:59:15Z</time>
      </trkpt>
      <trkpt lat="41.93855" lon="-2.12713">
        <ele>881.89</ele>
        <time>2021-03-27T19:59:18Z</time>
      </trkpt>
      <trkpt lat="41.93866" lon="-2.12709">
        <ele>880.3</ele>
        <time>2021-03-27T19:59:21Z</time>
      </trkpt>
      <trkpt lat="41.9388" lon="-2.12715">
        <ele>878.74</ele>
        <time>2021-03-27T19:59:24Z</time>
      </trkpt>
      <trkpt lat="41.939219" lon="-2.127839">
        <ele>878.48</ele>
        <time>2021-03-27T19:59:27Z</time>
      </trkpt>
      <trkpt lat="41.93939" lon="-2.12806">
        <ele>880.25</ele>
        <time>2021-03-27T19:59:30Z</time>
      </trkpt>
      <trkpt lat="41.93977" lon="-2.12839">
        <ele>879.03</ele>
        <time>2021-03-27T19:59:33Z</time>
      </trkpt>
      <trkpt lat="41.94028" lon="-2.12872">
        <ele>873.14</ele>
        <time>2021-03-27T19:59:36Z</time>
      </trkpt>
      <trkpt lat="41.940499" lon="-2.128944">
        <ele>872.49</ele>
        <time>2021-03-27T19:59:39Z</time>
      </trkpt>
      <trkpt lat="41.940593" lon="-2.129107">
        <ele>873.36</ele>
        <time>2021-03-27T19:59:43Z</time>
      </trkpt>
      <trkpt lat="41.940696" lon="-2.129166">
        <ele>871.96</ele>
        <time>2021-03-27T19:59:46Z</time>
      </trkpt>
      <trkpt lat="41.94079" lon="-2.12913">
        <ele>869.52</ele>
        <time>2021-03-27T19:59:49Z</time>
      </trkpt>
      <trkpt lat="41.940848" lon="-2.129069">
        <ele>867.71</ele>
        <time>2021-03-27T19:59:52Z</time>
      </trkpt>
      <trkpt lat="41.9409" lon="-2.12896">
        <ele>865.92</ele>
        <time>2021-03-27T19:59:55Z</time>
      </trkpt>
      <trkpt lat="41.940902" lon="-2.128825">
        <ele>864.68</ele>
        <time>2021-03-27T19:59:58Z</time>
      </trkpt>
      <trkpt lat="41.94088" lon="-2.1287">
        <ele>863.68</ele>
        <time>2021-03-27T20:00:01Z</time>
      </trkpt>
      <trkpt lat="41.94006" lon="-2.12675">
        <ele>857.73</ele>
        <time>2021-03-27T20:00:04Z</time>
      </trkpt>
      <trkpt lat="41.94001" lon="-2.12655">
        <ele>856.61</ele>
        <time>2021-03-27T20:00:07Z</time>
      </trkpt>
      <trkpt lat="41.940006" lon="-2.126398">
        <ele>855.03</ele>
        <time>2021-03-27T20:00:10Z</time>
      </trkpt>
      <trkpt lat="41.94003" lon="-2.12626">
        <ele>853.43</ele>
        <time>2021-03-27T20:00:13Z</time>
      </trkpt>
      <trkpt lat="41.94025" lon="-2.12573">
        <ele>851.06</ele>
        <time>2021-03-27T20:00:16Z</time>
      </trkpt>
      <trkpt lat="41.94026" lon="-2.125548">
        <ele>851.05</ele>
        <time>2021-03-27T20:00:19Z</time>
      </trkpt>
      <trkpt lat="41.94023" lon="-2.1254">
        <ele>851.93</ele>
        <time>2021-03-27T20:00:22Z</time>
      </trkpt>
      <trkpt lat="41.93968" lon="-2.12439">
        <ele>855.12</ele>
        <time>2021-03-27T20:00:25Z</time>
      </trkpt>
      <trkpt lat="41.93898" lon="-2.12281">
        <ele>854.85</ele>
        <time>2021-03-27T20:00:28Z</time>
      </trkpt>
      <trkpt lat="41.937671" lon="-2.120789">
        <ele>851.53</ele>
        <time>2021-03-27T20:00:31Z</time>
      </trkpt>
      <trkpt lat="41.93754" lon="-2.12047">
        <ele>850.9</ele>
        <time>2021-03-27T20:00:34Z</time>
      </trkpt>
      <trkpt lat="41.93719" lon="-2.11927">
        <ele>850.93</ele>
        <time>2021-03-27T20:00:37Z</time>
      </trkpt>
      <trkpt lat="41.93671" lon="-2.11665">
        <ele>845.4</ele>
        <time>2021-03-27T20:00:41Z</time>
      </trkpt>
      <trkpt lat="41.936714" lon="-2.116469">
        <ele>844.68</ele>
        <time>2021-03-27T20:00:44Z</time>
      </trkpt>
      <trkpt lat="41.93677" lon="-2.11633">
        <ele>844.32</ele>
        <time>2021-03-27T20:00:47Z</time>
      </trkpt>
      <trkpt lat="41.936853" lon="-2.116228">
        <ele>844.19</ele>
        <time>2021-03-27T20:00:50Z</time>
      </trkpt>
      <trkpt lat="41.93693" lon="-2.11617">
        <ele>844.32</ele>
        <time>2021-03-27T20:00:53Z</time>
      </trkpt>
      <trkpt lat="41.93888" lon="-2.11535">
        <ele>850.92</ele>
        <time>2021-03-27T20:00:56Z</time>
      </trkpt>
      <trkpt lat="41.93903" lon="-2.11521">
        <ele>851.39</ele>
        <time>2021-03-27T20:00:59Z</time>
      </trkpt>
      <trkpt lat="41.93913" lon="-2.11501">
        <ele>851.74</ele>
        <time>2021-03-27T20:01:02Z</time>
      </trkpt>
      <trkpt lat="41.93918" lon="-2.1147">
        <ele>850.94</ele>
        <time>2021-03-27T20:01:05Z</time>
      </trkpt>
      <trkpt lat="41.93927" lon="-2.1129">
        <ele>850.7</ele>
        <time>2021-03-27T20:01:08Z</time>
      </trkpt>
      <trkpt lat="41.93957" lon="-2.11153">
        <ele>848.9</ele>
        <time>2021-03-27T20:01:11Z</time>
      </trkpt>
      <trkpt lat="41.93966" lon="-2.11081">
        <ele>848.57</ele>
        <time>2021-03-27T20:01:14Z</time>
      </trkpt>
      <trkpt lat="41.93963" lon="-2.11061">
        <ele>848.6</ele>
        <time>2021-03-27T20:01:17Z</time>
      </trkpt>
      <trkpt lat="41.93916" lon="-2.10982">
        <ele>849.95</ele>
        <time>2021-03-27T20:01:20Z</time>
      </trkpt>
      <trkpt lat="41.939127" lon="-2.109673">
        <ele>849.72</ele>
        <time>2021-03-27T20:01:23Z</time>
      </trkpt>
      <trkpt lat="41.939166" lon="-2.109475">
        <ele>849.99</ele>
        <time>2021-03-27T20:01:26Z</time>
      </trkpt>
      <trkpt lat="41.93921" lon="-2.10947">
        <ele>850.16</ele>
        <time>2021-03-27T20:01:29Z</time>
      </trkpt>
      <trkpt lat="41.93967" lon="-2.10965">
        <ele>851.81</ele>
        <time>2021-03-27T20:01:32Z</time>
      </trkpt>
      <trkpt lat="41.94069" lon="-2.1098">
        <ele>854.14</ele>
        <time>2021-03-27T20:01:35Z</time>
      </trkpt>
      <trkpt lat="41.94108" lon="-2.10979">
        <ele>854.43</ele>
        <time>2021-03-27T20:01:38Z</time>
      </trkpt>
      <trkpt lat="41.94118" lon="-2.1097">
        <ele>854.25</ele>
        <time>2021-03-27T20:01:42Z</time>
      </trkpt>
      <trkpt lat="41.94124" lon="-2.10949">
        <ele>854.46</ele>
        <time>2021-03-27T20:01:45Z</time>
      </trkpt>
      <trkpt lat="41.94131" lon="-2.10766">
        <ele>868.02</ele>
        <time>2021-03-27T20:01:48Z</time>
      </trkpt>
      <trkpt lat="41.941402" lon="-2.107233">
        <ele>870.37</ele>
        <time>2021-03-27T20:01:51Z</time>
      </trkpt>
      <trkpt lat="41.94152" lon="-2.10684">
        <ele>872.85</ele>
        <time>2021-03-27T20:01:54Z</time>
      </trkpt>
      <trkpt lat="41.94295" lon="-2.10269">
        <ele>894.88</ele>
        <time>2021-03-27T20:01:57Z</time>
      </trkpt>
      <trkpt lat="41.943181" lon="-2.10223">
        <ele>899.71</ele>
        <time>2021-03-27T20:02:00Z</time>
      </trkpt>
      <trkpt lat="41.94343" lon="-2.10188">
        <ele>904.01</ele>
        <time>2021-03-27T20:02:03Z</time>
      </trkpt>
      <trkpt lat="41.943674" lon="-2.101653">
        <ele>907.89</ele>
        <time>2021-03-27T20:02:06Z</time>
      </trkpt>
      <trkpt lat="41.9439" lon="-2.10149">
        <ele>910.51</ele>
        <time>2021-03-27T20:02:09Z</time>
      </trkpt>
      <trkpt lat="41.944133" lon="-2.101431">
        <ele>913.54</ele>
        <time>2021-03-27T20:02:12Z</time>
      </trkpt>
      <trkpt lat="41.94437" lon="-2.10144">
        <ele>914.87</ele>
        <time>2021-03-27T20:02:15Z</time>
      </trkpt>
      <trkpt lat="41.944882" lon="-2.101576">
        <ele>916.96</ele>
        <time>2021-03-27T20:02:18Z</time>
      </trkpt>
      <trkpt lat="41.945311" lon="-2.101779">
        <ele>916.95</ele>
        <time>2021-03-27T20:02:21Z</time>
      </trkpt>
      <trkpt lat="41.94553" lon="-2.1018">
        <ele>916.56</ele>
        <time>2021-03-27T20:02:24Z</time>
      </trkpt>
      <trkpt lat="41.94628" lon="-2.10168">
        <ele>923.2</ele>
        <time>2021-03-27T20:02:27Z</time>
      </trkpt>
      <trkpt lat="41.94662" lon="-2.10154">
        <ele>926.95</ele>
        <time>2021-03-27T20:02:30Z</time>
      </trkpt>
      <trkpt lat="41.94738" lon="-2.10136">
        <ele>918.47</ele>
        <time>2021-03-27T20:02:33Z</time>
      </trkpt>
      <trkpt lat="41.94778" lon="-2.10135">
        <ele>917.29</ele>
        <time>2021-03-27T20:02:36Z</time>
      </trkpt>
      <trkpt lat="41.94826" lon="-2.10155">
        <ele>915.72</ele>
        <time>2021-03-27T20:02:40Z</time>
      </trkpt>
      <trkpt lat="41.94896" lon="-2.10206">
        <ele>916.09</ele>
        <time>2021-03-27T20:02:43Z</time>
      </trkpt>
      <trkpt lat="41.949076" lon="-2.102106">
        <ele>916.84</ele>
        <time>2021-03-27T20:02:46Z</time>
      </trkpt>
      <trkpt lat="41.94918" lon="-2.10209">
        <ele>917.14</ele>
        <time>2021-03-27T20:02:49Z</time>
      </trkpt>
      <trkpt lat="41.949319" lon="-2.102029">
        <ele>917.92</ele>
        <time>2021-03-27T20:02:52Z</time>
      </trkpt>
      <trkpt lat="41.949572" lon="-2.101828">
        <ele>920.38</ele>
        <time>2021-03-27T20:02:55Z</time>
      </trkpt>
      <trkpt lat="41.94977" lon="-2.10175">
        <ele>922.62</ele>
        <time>2021-03-27T20:02:58Z</time>
      </trkpt>
      <trkpt lat="41.95231" lon="-2.1016">
        <ele>955.1</ele>
        <time>2021-03-27T20:03:01Z</time>
      </trkpt>
      <trkpt lat="41.953" lon="-2.10143">
        <ele>962.84</ele>
        <time>2021-03-27T20:03:04Z</time>
      </trkpt>
      <trkpt lat="41.953811" lon="-2.100951">
        <ele>967.77</ele>
        <time>2021-03-27T20:03:07Z</time>
      </trkpt>
      <trkpt lat="41.953811" lon="-2.100951">
        <ele>967.77</ele>
        <time>2021-03-27T20:03:07Z</time>
      </trkpt>
      <trkpt lat="41.953" lon="-2.10143">
        <ele>962.84</ele>
        <time>2021-03-27T20:03:10Z</time>
      </trkpt>
      <trkpt lat="41.95231" lon="-2.1016">
        <ele>955.1</ele>
        <time>2021-03-27T20:03:13Z</time>
      </trkpt>
      <trkpt lat="41.94977" lon="-2.10175">
        <ele>922.62</ele>
        <time>2021-03-27T20:03:16Z</time>
      </trkpt>
      <trkpt lat="41.949572" lon="-2.101828">
        <ele>920.38</ele>
        <time>2021-03-27T20:03:19Z</time>
      </trkpt>
      <trkpt lat="41.949319" lon="-2.102029">
        <ele>917.92</ele>
        <time>2021-03-27T20:03:22Z</time>
      </trkpt>
      <trkpt lat="41.94918" lon="-2.10209">
        <ele>917.14</ele>
        <time>2021-03-27T20:03:25Z</time>
      </trkpt>
      <trkpt lat="41.949076" lon="-2.102106">
        <ele>916.84</ele>
        <time>2021-03-27T20:03:28Z</time>
      </trkpt>
      <trkpt lat="41.94896" lon="-2.10206">
        <ele>916.09</ele>
        <time>2021-03-27T20:03:31Z</time>
      </trkpt>
      <trkpt lat="41.94826" lon="-2.10155">
        <ele>915.72</ele>
        <time>2021-03-27T20:03:35Z</time>
      </trkpt>
      <trkpt lat="41.94778" lon="-2.10135">
        <ele>917.29</ele>
        <time>2021-03-27T20:03:38Z</time>
      </trkpt>
      <trkpt lat="41.94738" lon="-2.10136">
        <ele>918.47</ele>
        <time>2021-03-27T20:03:41Z</time>
      </trkpt>
      <trkpt lat="41.94662" lon="-2.10154">
        <ele>926.95</ele>
        <time>2021-03-27T20:03:44Z</time>
      </trkpt>
      <trkpt lat="41.94628" lon="-2.10168">
        <ele>923.2</ele>
        <time>2021-03-27T20:03:47Z</time>
      </trkpt>
      <trkpt lat="41.94553" lon="-2.1018">
        <ele>916.56</ele>
        <time>2021-03-27T20:03:50Z</time>
      </trkpt>
      <trkpt lat="41.945311" lon="-2.101779">
        <ele>916.95</ele>
        <time>2021-03-27T20:03:53Z</time>
      </trkpt>
      <trkpt lat="41.944882" lon="-2.101576">
        <ele>916.96</ele>
        <time>2021-03-27T20:03:56Z</time>
      </trkpt>
      <trkpt lat="41.94437" lon="-2.10144">
        <ele>914.87</ele>
        <time>2021-03-27T20:03:59Z</time>
      </trkpt>
      <trkpt lat="41.944133" lon="-2.101431">
        <ele>913.54</ele>
        <time>2021-03-27T20:04:02Z</time>
      </trkpt>
      <trkpt lat="41.9439" lon="-2.10149">
        <ele>910.51</ele>
        <time>2021-03-27T20:04:05Z</time>
      </trkpt>
      <trkpt lat="41.943674" lon="-2.101653">
        <ele>907.89</ele>
        <time>2021-03-27T20:04:08Z</time>
      </trkpt>
      <trkpt lat="41.94343" lon="-2.10188">
        <ele>904.01</ele>
        <time>2021-03-27T20:04:11Z</time>
      </trkpt>
      <trkpt lat="41.943181" lon="-2.10223">
        <ele>899.71</ele>
        <time>2021-03-27T20:04:14Z</time>
      </trkpt>
      <trkpt lat="41.94295" lon="-2.10269">
        <ele>894.88</ele>
        <time>2021-03-27T20:04:17Z</time>
      </trkpt>
      <trkpt lat="41.94152" lon="-2.10684">
        <ele>872.85</ele>
        <time>2021-03-27T20:04:20Z</time>
      </trkpt>
      <trkpt lat="41.941402" lon="-2.107233">
        <ele>870.37</ele>
        <time>2021-03-27T20:04:23Z</time>
      </trkpt>
      <trkpt lat="41.94131" lon="-2.10766">
        <ele>868.02</ele>
        <time>2021-03-27T20:04:26Z</time>
      </trkpt>
      <trkpt lat="41.94124" lon="-2.10949">
        <ele>854.46</ele>
        <time>2021-03-27T20:04:29Z</time>
      </trkpt>
      <trkpt lat="41.94118" lon="-2.1097">
        <ele>854.25</ele>
        <time>2021-03-27T20:04:33Z</time>
      </trkpt>
      <trkpt lat="41.94108" lon="-2.10979">
        <ele>854.43</ele>
        <time>2021-03-27T20:04:36Z</time>
      </trkpt>
      <trkpt lat="41.94069" lon="-2.1098">
        <ele>854.14</ele>
        <time>2021-03-27T20:04:39Z</time>
      </trkpt>
      <trkpt lat="41.93967" lon="-2.10965">
        <ele>851.81</ele>
        <time>2021-03-27T20:04:42Z</time>
      </trkpt>
      <trkpt lat="41.93921" lon="-2.10947">
        <ele>850.16</ele>
        <time>2021-03-27T20:04:45Z</time>
      </trkpt>
      <trkpt lat="41.939166" lon="-2.109475">
        <ele>849.99</ele>
        <time>2021-03-27T20:04:48Z</time>
      </trkpt>
      <trkpt lat="41.939127" lon="-2.109673">
        <ele>849.72</ele>
        <time>2021-03-27T20:04:51Z</time>
      </trkpt>
      <trkpt lat="41.93916" lon="-2.10982">
        <ele>849.95</ele>
        <time>2021-03-27T20:04:54Z</time>
      </trkpt>
      <trkpt lat="41.93963" lon="-2.11061">
        <ele>848.6</ele>
        <time>2021-03-27T20:04:57Z</time>
      </trkpt>
      <trkpt lat="41.93966" lon="-2.11081">
        <ele>848.57</ele>
        <time>2021-03-27T20:05:00Z</time>
      </trkpt>
      <trkpt lat="41.93957" lon="-2.11153">
        <ele>848.9</ele>
        <time>2021-03-27T20:05:03Z</time>
      </trkpt>
      <trkpt lat="41.93927" lon="-2.1129">
        <ele>850.7</ele>
        <time>2021-03-27T20:05:06Z</time>
      </trkpt>
      <trkpt lat="41.93918" lon="-2.1147">
        <ele>850.94</ele>
        <time>2021-03-27T20:05:09Z</time>
      </trkpt>
      <trkpt lat="41.93913" lon="-2.11501">
        <ele>851.74</ele>
        <time>2021-03-27T20:05:12Z</time>
      </trkpt>
      <trkpt lat="41.93903" lon="-2.11521">
        <ele>851.39</ele>
        <time>2021-03-27T20:05:15Z</time>
      </trkpt>
      <trkpt lat="41.93888" lon="-2.11535">
        <ele>850.92</ele>
        <time>2021-03-27T20:05:18Z</time>
      </trkpt>
      <trkpt lat="41.93693" lon="-2.11617">
        <ele>844.32</ele>
        <time>2021-03-27T20:05:21Z</time>
      </trkpt>
      <trkpt lat="41.936853" lon="-2.116228">
        <ele>844.19</ele>
        <time>2021-03-27T20:05:24Z</time>
      </trkpt>
      <trkpt lat="41.93677" lon="-2.11633">
        <ele>844.32</ele>
        <time>2021-03-27T20:05:27Z</time>
      </trkpt>
      <trkpt lat="41.936714" lon="-2.116469">
        <ele>844.68</ele>
        <time>2021-03-27T20:05:31Z</time>
      </trkpt>
      <trkpt lat="41.93671" lon="-2.11665">
        <ele>845.4</ele>
        <time>2021-03-27T20:05:34Z</time>
      </trkpt>
      <trkpt lat="41.93719" lon="-2.11927">
        <ele>850.93</ele>
        <time>2021-03-27T20:05:37Z</time>
      </trkpt>
      <trkpt lat="41.93754" lon="-2.12047">
        <ele>850.9</ele>
        <time>2021-03-27T20:05:40Z</time>
      </trkpt>
      <trkpt lat="41.937671" lon="-2.120789">
        <ele>851.53</ele>
        <time>2021-03-27T20:05:43Z</time>
      </trkpt>
      <trkpt lat="41.93898" lon="-2.12281">
        <ele>854.85</ele>
        <time>2021-03-27T20:05:46Z</time>
      </trkpt>
      <trkpt lat="41.93968" lon="-2.12439">
        <ele>855.12</ele>
        <time>2021-03-27T20:05:49Z</time>
      </trkpt>
      <trkpt lat="41.94023" lon="-2.1254">
        <ele>851.93</ele>
        <time>2021-03-27T20:05:52Z</time>
      </trkpt>
      <trkpt lat="41.94026" lon="-2.125548">
        <ele>851.05</ele>
        <time>2021-03-27T20:05:55Z</time>
      </trkpt>
      <trkpt lat="41.94025" lon="-2.12573">
        <ele>851.06</ele>
        <time>2021-03-27T20:05:58Z</time>
      </trkpt>
      <trkpt lat="41.94003" lon="-2.12626">
        <ele>853.43</ele>
        <time>2021-03-27T20:06:01Z</time>
      </trkpt>
      <trkpt lat="41.940006" lon="-2.126398">
        <ele>855.03</ele>
        <time>2021-03-27T20:06:04Z</time>
      </trkpt>
      <trkpt lat="41.94001" lon="-2.12655">
        <ele>856.61</ele>
        <time>2021-03-27T20:06:07Z</time>
      </trkpt>
      <trkpt lat="41.94006" lon="-2.12675">
        <ele>857.73</ele>
        <time>2021-03-27T20:06:10Z</time>
      </trkpt>
      <trkpt lat="41.94088" lon="-2.1287">
        <ele>863.68</ele>
        <time>2021-03-27T20:06:13Z</time>
      </trkpt>
      <trkpt lat="41.940902" lon="-2.128825">
        <ele>864.68</ele>
        <time>2021-03-27T20:06:16Z</time>
      </trkpt>
      <trkpt lat="41.9409" lon="-2.12896">
        <ele>865.92</ele>
        <time>2021-03-27T20:06:19Z</time>
      </trkpt>
      <trkpt lat="41.940848" lon="-2.129069">
        <ele>867.71</ele>
        <time>2021-03-27T20:06:22Z</time>
      </trkpt>
      <trkpt lat="41.94079" lon="-2.12913">
        <ele>869.52</ele>
        <time>2021-03-27T20:06:25Z</time>
      </trkpt>
      <trkpt lat="41.940696" lon="-2.129166">
        <ele>871.96</ele>
        <time>2021-03-27T20:06:28Z</time>
      </trkpt>
      <trkpt lat="41.940593" lon="-2.129107">
        <ele>873.36</ele>
        <time>2021-03-27T20:06:32Z</time>
      </trkpt>
      <trkpt lat="41.940499" lon="-2.128944">
        <ele>872.49</ele>
        <time>2021-03-27T20:06:35Z</time>
      </trkpt>
      <trkpt lat="41.94028" lon="-2.12872">
        <ele>873.14</ele>
        <time>2021-03-27T20:06:38Z</time>
      </trkpt>
      <trkpt lat="41.93977" lon="-2.12839">
        <ele>879.03</ele>
        <time>2021-03-27T20:06:41Z</time>
      </trkpt>
      <trkpt lat="41.93939" lon="-2.12806">
        <ele>880.25</ele>
        <time>2021-03-27T20:06:44Z</time>
      </trkpt>
      <trkpt lat="41.939219" lon="-2.127839">
        <ele>878.48</ele>
        <time>2021-03-27T20:06:47Z</time>
      </trkpt>
      <trkpt lat="41.9388" lon="-2.12715">
        <ele>878.74</ele>
        <time>2021-03-27T20:06:50Z</time>
      </trkpt>
      <trkpt lat="41.93866" lon="-2.12709">
        <ele>880.3</ele>
        <time>2021-03-27T20:06:53Z</time>
      </trkpt>
      <trkpt lat="41.93855" lon="-2.12713">
        <ele>881.89</ele>
        <time>2021-03-27T20:06:56Z</time>
      </trkpt>
      <trkpt lat="41.93848" lon="-2.12723">
        <ele>884.05</ele>
        <time>2021-03-27T20:06:59Z</time>
      </trkpt>
      <trkpt lat="41.938466" lon="-2.127359">
        <ele>886.04</ele>
        <time>2021-03-27T20:07:02Z</time>
      </trkpt>
      <trkpt lat="41.93849" lon="-2.12748">
        <ele>887.47</ele>
        <time>2021-03-27T20:07:05Z</time>
      </trkpt>
      <trkpt lat="41.93904" lon="-2.1291">
        <ele>897.89</ele>
        <time>2021-03-27T20:07:08Z</time>
      </trkpt>
      <trkpt lat="41.93933" lon="-2.12957">
        <ele>898.47</ele>
        <time>2021-03-27T20:07:11Z</time>
      </trkpt>
      <trkpt lat="41.93936" lon="-2.12967">
        <ele>899.32</ele>
        <time>2021-03-27T20:07:14Z</time>
      </trkpt>
      <trkpt lat="41.93937" lon="-2.129773">
        <ele>900.59</ele>
        <time>2021-03-27T20:07:17Z</time>
      </trkpt>
      <trkpt lat="41.93934" lon="-2.12989">
        <ele>903.05</ele>
        <time>2021-03-27T20:07:20Z</time>
      </trkpt>
      <trkpt lat="41.939303" lon="-2.129958">
        <ele>904.95</ele>
        <time>2021-03-27T20:07:23Z</time>
      </trkpt>
      <trkpt lat="41.939166" lon="-2.130021">
        <ele>909.17</ele>
        <time>2021-03-27T20:07:26Z</time>
      </trkpt>
      <trkpt lat="41.93908" lon="-2.12998">
        <ele>910.27</ele>
        <time>2021-03-27T20:07:30Z</time>
      </trkpt>
      <trkpt lat="41.93884" lon="-2.12952">
        <ele>906.56</ele>
        <time>2021-03-27T20:07:33Z</time>
      </trkpt>
      <trkpt lat="41.93785" lon="-2.12844">
        <ele>913.24</ele>
        <time>2021-03-27T20:07:36Z</time>
      </trkpt>
      <trkpt lat="41.93767" lon="-2.12836">
        <ele>914.16</ele>
        <time>2021-03-27T20:07:39Z</time>
      </trkpt>
      <trkpt lat="41.93755" lon="-2.12838">
        <ele>915.31</ele>
        <time>2021-03-27T20:07:42Z</time>
      </trkpt>
      <trkpt lat="41.937498" lon="-2.128437">
        <ele>916.5</ele>
        <time>2021-03-27T20:07:45Z</time>
      </trkpt>
      <trkpt lat="41.93746" lon="-2.12852">
        <ele>917.78</ele>
        <time>2021-03-27T20:07:48Z</time>
      </trkpt>
      <trkpt lat="41.93746" lon="-2.12863">
        <ele>919.49</ele>
        <time>2021-03-27T20:07:51Z</time>
      </trkpt>
      <trkpt lat="41.9375" lon="-2.12871">
        <ele>920.78</ele>
        <time>2021-03-27T20:07:54Z</time>
      </trkpt>
      <trkpt lat="41.93775" lon="-2.1289">
        <ele>922.33</ele>
        <time>2021-03-27T20:07:57Z</time>
      </trkpt>
      <trkpt lat="41.93787" lon="-2.12908">
        <ele>921.74</ele>
        <time>2021-03-27T20:08:00Z</time>
      </trkpt>
      <trkpt lat="41.93889" lon="-2.13175">
        <ele>942.17</ele>
        <time>2021-03-27T20:08:03Z</time>
      </trkpt>
      <trkpt lat="41.93915" lon="-2.13226">
        <ele>942.02</ele>
        <time>2021-03-27T20:08:06Z</time>
      </trkpt>
      <trkpt lat="41.93971" lon="-2.1331">
        <ele>945.65</ele>
        <time>2021-03-27T20:08:09Z</time>
      </trkpt>
      <trkpt lat="41.939739" lon="-2.13323">
        <ele>947.05</ele>
        <time>2021-03-27T20:08:12Z</time>
      </trkpt>
      <trkpt lat="41.93973" lon="-2.13338">
        <ele>949.48</ele>
        <time>2021-03-27T20:08:15Z</time>
      </trkpt>
      <trkpt lat="41.93964" lon="-2.13347">
        <ele>951.41</ele>
        <time>2021-03-27T20:08:18Z</time>
      </trkpt>
      <trkpt lat="41.939561" lon="-2.133479">
        <ele>951.98</ele>
        <time>2021-03-27T20:08:21Z</time>
      </trkpt>
      <trkpt lat="41.93948" lon="-2.13346">
        <ele>952.09</ele>
        <time>2021-03-27T20:08:24Z</time>
      </trkpt>
      <trkpt lat="41.9387" lon="-2.1326">
        <ele>957.36</ele>
        <time>2021-03-27T20:08:28Z</time>
      </trkpt>
      <trkpt lat="41.93829" lon="-2.13201">
        <ele>957.74</ele>
        <time>2021-03-27T20:08:31Z</time>
      </trkpt>
      <trkpt lat="41.93811" lon="-2.13185">
        <ele>956.72</ele>
        <time>2021-03-27T20:08:34Z</time>
      </trkpt>
      <trkpt lat="41.93799" lon="-2.13185">
        <ele>956.9</ele>
        <time>2021-03-27T20:08:37Z</time>
      </trkpt>
      <trkpt lat="41.937926" lon="-2.131892">
        <ele>957.34</ele>
        <time>2021-03-27T20:08:40Z</time>
      </trkpt>
      <trkpt lat="41.93785" lon="-2.13198">
        <ele>958.45</ele>
        <time>2021-03-27T20:08:43Z</time>
      </trkpt>
      <trkpt lat="41.9378" lon="-2.13219">
        <ele>960.79</ele>
        <time>2021-03-27T20:08:46Z</time>
      </trkpt>
      <trkpt lat="41.93781" lon="-2.13258">
        <ele>965.47</ele>
        <time>2021-03-27T20:08:49Z</time>
      </trkpt>
      <trkpt lat="41.93788" lon="-2.13302">
        <ele>967.52</ele>
        <time>2021-03-27T20:08:52Z</time>
      </trkpt>
      <trkpt lat="41.93794" lon="-2.133286">
        <ele>968.75</ele>
        <time>2021-03-27T20:08:55Z</time>
      </trkpt>
      <trkpt lat="41.938044" lon="-2.133481">
        <ele>971.16</ele>
        <time>2021-03-27T20:08:58Z</time>
      </trkpt>
      <trkpt lat="41.93858" lon="-2.134">
        <ele>975.49</ele>
        <time>2021-03-27T20:09:01Z</time>
      </trkpt>
      <trkpt lat="41.93878" lon="-2.13427">
        <ele>977.08</ele>
        <time>2021-03-27T20:09:04Z</time>
      </trkpt>
      <trkpt lat="41.939307" lon="-2.135062">
        <ele>982.73</ele>
        <time>2021-03-27T20:09:07Z</time>
      </trkpt>
      <trkpt lat="41.93969" lon="-2.13575">
        <ele>983.06</ele>
        <time>2021-03-27T20:09:10Z</time>
      </trkpt>
      <trkpt lat="41.94005" lon="-2.13655">
        <ele>989.02</ele>
        <time>2021-03-27T20:09:13Z</time>
      </trkpt>
      <trkpt lat="41.94041" lon="-2.13762">
        <ele>996.4</ele>
        <time>2021-03-27T20:09:16Z</time>
      </trkpt>
      <trkpt lat="41.94047" lon="-2.13803">
        <ele>998.97</ele>
        <time>2021-03-27T20:09:19Z</time>
      </trkpt>
      <trkpt lat="41.940527" lon="-2.139015">
        <ele>1003.24</ele>
        <time>2021-03-27T20:09:22Z</time>
      </trkpt>
      <trkpt lat="41.94061" lon="-2.13994">
        <ele>1007.5</ele>
        <time>2021-03-27T20:09:26Z</time>
      </trkpt>
      <trkpt lat="41.94061" lon="-2.14018">
        <ele>1008.88</ele>
        <time>2021-03-27T20:09:29Z</time>
      </trkpt>
      <trkpt lat="41.94045" lon="-2.14127">
        <ele>1017.2</ele>
        <time>2021-03-27T20:09:32Z</time>
      </trkpt>
      <trkpt lat="41.940436" lon="-2.141554">
        <ele>1017.77</ele>
        <time>2021-03-27T20:09:35Z</time>
      </trkpt>
      <trkpt lat="41.94047" lon="-2.14182">
        <ele>1018.47</ele>
        <time>2021-03-27T20:09:38Z</time>
      </trkpt>
      <trkpt lat="41.94055" lon="-2.14204">
        <ele>1019.81</ele>
        <time>2021-03-27T20:09:41Z</time>
      </trkpt>
      <trkpt lat="41.94131" lon="-2.14294">
        <ele>1026.61</ele>
        <time>2021-03-27T20:09:44Z</time>
      </trkpt>
      <trkpt lat="41.941469" lon="-2.143206">
        <ele>1029.02</ele>
        <time>2021-03-27T20:09:47Z</time>
      </trkpt>
      <trkpt lat="41.941613" lon="-2.143547">
        <ele>1030.63</ele>
        <time>2021-03-27T20:09:50Z</time>
      </trkpt>
      <trkpt lat="41.941866" lon="-2.144821">
        <ele>1036.92</ele>
        <time>2021-03-27T20:09:53Z</time>
      </trkpt>
      <trkpt lat="41.941901" lon="-2.145917">
        <ele>1047.21</ele>
        <time>2021-03-27T20:09:56Z</time>
      </trkpt>
      <trkpt lat="41.94194" lon="-2.14599">
        <ele>1047.51</ele>
        <time>2021-03-27T20:09:59Z</time>
      </trkpt>
      <trkpt lat="41.942026" lon="-2.146058">
        <ele>1048.32</ele>
        <time>2021-03-27T20:10:02Z</time>
      </trkpt>
      <trkpt lat="41.94213" lon="-2.14609">
        <ele>1048.26</ele>
        <time>2021-03-27T20:10:05Z</time>
      </trkpt>
      <trkpt lat="41.942211" lon="-2.14609">
        <ele>1047.69</ele>
        <time>2021-03-27T20:10:08Z</time>
      </trkpt>
      <trkpt lat="41.94231" lon="-2.14603">
        <ele>1047.49</ele>
        <time>2021-03-27T20:10:11Z</time>
      </trkpt>
      <trkpt lat="41.94309" lon="-2.14472">
        <ele>1041.59</ele>
        <time>2021-03-27T20:10:14Z</time>
      </trkpt>
      <trkpt lat="41.94323" lon="-2.1446">
        <ele>1042.66</ele>
        <time>2021-03-27T20:10:17Z</time>
      </trkpt>
      <trkpt lat="41.94347" lon="-2.14461">
        <ele>1045.97</ele>
        <time>2021-03-27T20:10:20Z</time>
      </trkpt>
      <trkpt lat="41.94361" lon="-2.14473">
        <ele>1048.05</ele>
        <time>2021-03-27T20:10:23Z</time>
      </trkpt>
      <trkpt lat="41.94376" lon="-2.14496">
        <ele>1049.02</ele>
        <time>2021-03-27T20:10:27Z</time>
      </trkpt>
      <trkpt lat="41.94421" lon="-2.14593">
        <ele>1055.08</ele>
        <time>2021-03-27T20:10:30Z</time>
      </trkpt>
      <trkpt lat="41.94486" lon="-2.14696">
        <ele>1060.27</ele>
        <time>2021-03-27T20:10:33Z</time>
      </trkpt>
      <trkpt lat="41.94497" lon="-2.14725">
        <ele>1064.06</ele>
        <time>2021-03-27T20:10:36Z</time>
      </trkpt>
      <trkpt lat="41.94499" lon="-2.14753">
        <ele>1063.11</ele>
        <time>2021-03-27T20:10:39Z</time>
      </trkpt>
      <trkpt lat="41.94494" lon="-2.1479">
        <ele>1062.95</ele>
        <time>2021-03-27T20:10:42Z</time>
      </trkpt>
      <trkpt lat="41.94419" lon="-2.15056">
        <ele>1075.68</ele>
        <time>2021-03-27T20:10:45Z</time>
      </trkpt>
      <trkpt lat="41.94297" lon="-2.15261">
        <ele>1089.96</ele>
        <time>2021-03-27T20:10:48Z</time>
      </trkpt>
      <trkpt lat="41.942658" lon="-2.153197">
        <ele>1095.86</ele>
        <time>2021-03-27T20:10:51Z</time>
      </trkpt>
      <trkpt lat="41.94233" lon="-2.1539">
        <ele>1096.95</ele>
        <time>2021-03-27T20:10:54Z</time>
      </trkpt>
      <trkpt lat="41.94185" lon="-2.15449">
        <ele>1103.07</ele>
        <time>2021-03-27T20:10:57Z</time>
      </trkpt>
      <trkpt lat="41.9415" lon="-2.15503">
        <ele>1107.71</ele>
        <time>2021-03-27T20:11:00Z</time>
      </trkpt>
      <trkpt lat="41.941403" lon="-2.155205">
        <ele>1108.76</ele>
        <time>2021-03-27T20:11:03Z</time>
      </trkpt>
      <trkpt lat="41.94135" lon="-2.15546">
        <ele>1110.17</ele>
        <time>2021-03-27T20:11:06Z</time>
      </trkpt>
      <trkpt lat="41.94112" lon="-2.15797">
        <ele>1126.62</ele>
        <time>2021-03-27T20:11:09Z</time>
      </trkpt>
      <trkpt lat="41.9411" lon="-2.15869">
        <ele>1131.62</ele>
        <time>2021-03-27T20:11:12Z</time>
      </trkpt>
      <trkpt lat="41.94112" lon="-2.15886">
        <ele>1131.13</ele>
        <time>2021-03-27T20:11:15Z</time>
      </trkpt>
      <trkpt lat="41.94198" lon="-2.16198">
        <ele>1141.24</ele>
        <time>2021-03-27T20:11:18Z</time>
      </trkpt>
      <trkpt lat="41.94224" lon="-2.1638">
        <ele>1141.59</ele>
        <time>2021-03-27T20:11:21Z</time>
      </trkpt>
      <trkpt lat="41.94226" lon="-2.16454">
        <ele>1144.86</ele>
        <time>2021-03-27T20:11:25Z</time>
      </trkpt>
      <trkpt lat="41.94225" lon="-2.16565">
        <ele>1146.9</ele>
        <time>2021-03-27T20:11:28Z</time>
      </trkpt>
      <trkpt lat="41.94221" lon="-2.16602">
        <ele>1146.25</ele>
        <time>2021-03-27T20:11:31Z</time>
      </trkpt>
      <trkpt lat="41.94133" lon="-2.17052">
        <ele>1164.21</ele>
        <time>2021-03-27T20:11:34Z</time>
      </trkpt>
      <trkpt lat="41.94119" lon="-2.17086">
        <ele>1165.46</ele>
        <time>2021-03-27T20:11:37Z</time>
      </trkpt>
      <trkpt lat="41.94008" lon="-2.17263">
        <ele>1170.33</ele>
        <time>2021-03-27T20:11:40Z</time>
      </trkpt>
      <trkpt lat="41.93991" lon="-2.17282">
        <ele>1170.4</ele>
        <time>2021-03-27T20:11:43Z</time>
      </trkpt>
      <trkpt lat="41.93958" lon="-2.17304">
        <ele>1169.94</ele>
        <time>2021-03-27T20:11:46Z</time>
      </trkpt>
      <trkpt lat="41.93837" lon="-2.17371">
        <ele>1171.62</ele>
        <time>2021-03-27T20:11:49Z</time>
      </trkpt>
      <trkpt lat="41.93822" lon="-2.1739">
        <ele>1170.8</ele>
        <time>2021-03-27T20:11:52Z</time>
      </trkpt>
      <trkpt lat="41.93816" lon="-2.174094">
        <ele>1170.4</ele>
        <time>2021-03-27T20:11:55Z</time>
      </trkpt>
      <trkpt lat="41.938018" lon="-2.174693">
        <ele>1168.32</ele>
        <time>2021-03-27T20:11:58Z</time>
      </trkpt>
      <trkpt lat="41.93792" lon="-2.17487">
        <ele>1166.02</ele>
        <time>2021-03-27T20:12:01Z</time>
      </trkpt>
      <trkpt lat="41.937706" lon="-2.175153">
        <ele>1163.51</ele>
        <time>2021-03-27T20:12:04Z</time>
      </trkpt>
      <trkpt lat="41.937192" lon="-2.175631">
        <ele>1161.97</ele>
        <time>2021-03-27T20:12:07Z</time>
      </trkpt>
      <trkpt lat="41.93623" lon="-2.17633">
        <ele>1160.34</ele>
        <time>2021-03-27T20:12:10Z</time>
      </trkpt>
      <trkpt lat="41.93607" lon="-2.17655">
        <ele>1160.15</ele>
        <time>2021-03-27T20:12:13Z</time>
      </trkpt>
      <trkpt lat="41.93598" lon="-2.17681">
        <ele>1160.47</ele>
        <time>2021-03-27T20:12:16Z</time>
      </trkpt>
      <trkpt lat="41.93594" lon="-2.17698">
        <ele>1160.67</ele>
        <time>2021-03-27T20:12:19Z</time>
      </trkpt>
      <trkpt lat="41.93592" lon="-2.1776">
        <ele>1161.5</ele>
        <time>2021-03-27T20:12:23Z</time>
      </trkpt>
      <trkpt lat="41.935973" lon="-2.177954">
        <ele>1159.74</ele>
        <time>2021-03-27T20:12:26Z</time>
      </trkpt>
      <trkpt lat="41.93605" lon="-2.17826">
        <ele>1157.93</ele>
        <time>2021-03-27T20:12:29Z</time>
      </trkpt>
      <trkpt lat="41.93625" lon="-2.1787">
        <ele>1154.88</ele>
        <time>2021-03-27T20:12:32Z</time>
      </trkpt>
      <trkpt lat="41.93644" lon="-2.17895">
        <ele>1154.3</ele>
        <time>2021-03-27T20:12:35Z</time>
      </trkpt>
      <trkpt lat="41.93706" lon="-2.17949">
        <ele>1150.11</ele>
        <time>2021-03-27T20:12:38Z</time>
      </trkpt>
      <trkpt lat="41.93719" lon="-2.17967">
        <ele>1150.21</ele>
        <time>2021-03-27T20:12:41Z</time>
      </trkpt>
      <trkpt lat="41.93725" lon="-2.17987">
        <ele>1149.61</ele>
        <time>2021-03-27T20:12:44Z</time>
      </trkpt>
      <trkpt lat="41.93726" lon="-2.18015">
        <ele>1149.6</ele>
        <time>2021-03-27T20:12:47Z</time>
      </trkpt>
      <trkpt lat="41.937204" lon="-2.180444">
        <ele>1149.97</ele>
        <time>2021-03-27T20:12:50Z</time>
      </trkpt>
      <trkpt lat="41.93668" lon="-2.18142">
        <ele>1157.06</ele>
        <time>2021-03-27T20:12:53Z</time>
      </trkpt>
      <trkpt lat="41.9366" lon="-2.18166">
        <ele>1157.97</ele>
        <time>2021-03-27T20:12:56Z</time>
      </trkpt>
      <trkpt lat="41.936517" lon="-2.182505">
        <ele>1163.41</ele>
        <time>2021-03-27T20:12:59Z</time>
      </trkpt>
      <trkpt lat="41.935979" lon="-2.182616">
        <ele>1160.16</ele>
        <time>2021-03-27T20:13:01Z</time>
      </trkpt>
      <trkpt lat="41.93379" lon="-2.183608">
        <ele>1152.62</ele>
        <time>2021-03-27T20:13:03Z</time>
      </trkpt>
      <trkpt lat="41.932995" lon="-2.18388">
        <ele>1149.5</ele>
        <time>2021-03-27T20:13:05Z</time>
      </trkpt>
      <trkpt lat="41.924847" lon="-2.181691">
        <ele>1145.64</ele>
        <time>2021-03-27T20:13:07Z</time>
      </trkpt>
      <trkpt lat="41.924538" lon="-2.181517">
        <ele>1144.92</ele>
        <time>2021-03-27T20:13:10Z</time>
      </trkpt>
      <trkpt lat="41.924228" lon="-2.181192">
        <ele>1141.8</ele>
        <time>2021-03-27T20:13:12Z</time>
      </trkpt>
      <trkpt lat="41.910073" lon="-2.16152">
        <ele>1062.68</ele>
        <time>2021-03-27T20:13:14Z</time>
      </trkpt>
      <trkpt lat="41.909908" lon="-2.161264">
        <ele>1060.65</ele>
        <time>2021-03-27T20:13:16Z</time>
      </trkpt>
      <trkpt lat="41.909845" lon="-2.161087">
        <ele>1058.96</ele>
        <time>2021-03-27T20:13:18Z</time>
      </trkpt>
      <trkpt lat="41.909841" lon="-2.16066">
        <ele>1058.04</ele>
        <time>2021-03-27T20:13:20Z</time>
      </trkpt>
      <trkpt lat="41.909862" lon="-2.160306">
        <ele>1056.59</ele>
        <time>2021-03-27T20:13:22Z</time>
      </trkpt>
      <trkpt lat="41.909917" lon="-2.160063">
        <ele>1053.71</ele>
        <time>2021-03-27T20:13:24Z</time>
      </trkpt>
      <trkpt lat="41.909986" lon="-2.159857">
        <ele>1052.9</ele>
        <time>2021-03-27T20:13:26Z</time>
      </trkpt>
      <trkpt lat="41.910448" lon="-2.158643">
        <ele>1050.36</ele>
        <time>2021-03-27T20:13:28Z</time>
      </trkpt>
      <trkpt lat="41.91048" lon="-2.158513">
        <ele>1049.72</ele>
        <time>2021-03-27T20:13:30Z</time>
      </trkpt>
      <trkpt lat="41.91047" lon="-2.158271">
        <ele>1049.77</ele>
        <time>2021-03-27T20:13:32Z</time>
      </trkpt>
      <trkpt lat="41.910415" lon="-2.157946">
        <ele>1048.46</ele>
        <time>2021-03-27T20:13:34Z</time>
      </trkpt>
      <trkpt lat="41.910087" lon="-2.156783">
        <ele>1042.85</ele>
        <time>2021-03-27T20:13:36Z</time>
      </trkpt>
      <trkpt lat="41.910021" lon="-2.156428">
        <ele>1042.46</ele>
        <time>2021-03-27T20:13:38Z</time>
      </trkpt>
      <trkpt lat="41.909961" lon="-2.155569">
        <ele>1038.13</ele>
        <time>2021-03-27T20:13:40Z</time>
      </trkpt>
      <trkpt lat="41.909968" lon="-2.155396">
        <ele>1038.36</ele>
        <time>2021-03-27T20:13:43Z</time>
      </trkpt>
      <trkpt lat="41.910035" lon="-2.15522">
        <ele>1037.88</ele>
        <time>2021-03-27T20:13:45Z</time>
      </trkpt>
      <trkpt lat="41.910618" lon="-2.154906">
        <ele>1031.78</ele>
        <time>2021-03-27T20:13:47Z</time>
      </trkpt>
      <trkpt lat="41.910908" lon="-2.154666">
        <ele>1029.71</ele>
        <time>2021-03-27T20:13:49Z</time>
      </trkpt>
      <trkpt lat="41.911126" lon="-2.154417">
        <ele>1028.91</ele>
        <time>2021-03-27T20:13:51Z</time>
      </trkpt>
      <trkpt lat="41.911219" lon="-2.154259">
        <ele>1028.31</ele>
        <time>2021-03-27T20:13:53Z</time>
      </trkpt>
      <trkpt lat="41.911262" lon="-2.154069">
        <ele>1028.64</ele>
        <time>2021-03-27T20:13:55Z</time>
      </trkpt>
      <trkpt lat="41.911251" lon="-2.153852">
        <ele>1028.54</ele>
        <time>2021-03-27T20:13:57Z</time>
      </trkpt>
      <trkpt lat="41.911202" lon="-2.153741">
        <ele>1027.92</ele>
        <time>2021-03-27T20:13:59Z</time>
      </trkpt>
      <trkpt lat="41.910642" lon="-2.153361">
        <ele>1025.26</ele>
        <time>2021-03-27T20:14:01Z</time>
      </trkpt>
      <trkpt lat="41.910437" lon="-2.15316">
        <ele>1021.02</ele>
        <time>2021-03-27T20:14:03Z</time>
      </trkpt>
      <trkpt lat="41.910211" lon="-2.152806">
        <ele>1019.31</ele>
        <time>2021-03-27T20:14:05Z</time>
      </trkpt>
      <trkpt lat="41.909954" lon="-2.152298">
        <ele>1019.2</ele>
        <time>2021-03-27T20:14:07Z</time>
      </trkpt>
      <trkpt lat="41.908736" lon="-2.151038">
        <ele>1011.52</ele>
        <time>2021-03-27T20:14:09Z</time>
      </trkpt>
      <trkpt lat="41.90809" lon="-2.150678">
        <ele>1009.1</ele>
        <time>2021-03-27T20:14:11Z</time>
      </trkpt>
      <trkpt lat="41.906861" lon="-2.150076">
        <ele>1002.11</ele>
        <time>2021-03-27T20:14:14Z</time>
      </trkpt>
      <trkpt lat="41.906711" lon="-2.150025">
        <ele>999.9</ele>
        <time>2021-03-27T20:14:16Z</time>
      </trkpt>
      <trkpt lat="41.906356" lon="-2.150047">
        <ele>997.32</ele>
        <time>2021-03-27T20:14:18Z</time>
      </trkpt>
      <trkpt lat="41.906133" lon="-2.150084">
        <ele>994.26</ele>
        <time>2021-03-27T20:14:20Z</time>
      </trkpt>
      <trkpt lat="41.906028" lon="-2.150132">
        <ele>992.18</ele>
        <time>2021-03-27T20:14:22Z</time>
      </trkpt>
      <trkpt lat="41.905939" lon="-2.150217">
        <ele>990.89</ele>
        <time>2021-03-27T20:14:24Z</time>
      </trkpt>
      <trkpt lat="41.905896" lon="-2.150356">
        <ele>991.08</ele>
        <time>2021-03-27T20:14:26Z</time>
      </trkpt>
      <trkpt lat="41.905909" lon="-2.150684">
        <ele>993.57</ele>
        <time>2021-03-27T20:14:28Z</time>
      </trkpt>
      <trkpt lat="41.905861" lon="-2.150792">
        <ele>993.31</ele>
        <time>2021-03-27T20:14:30Z</time>
      </trkpt>
      <trkpt lat="41.905759" lon="-2.150877">
        <ele>993.1</ele>
        <time>2021-03-27T20:14:32Z</time>
      </trkpt>
      <trkpt lat="41.905602" lon="-2.150914">
        <ele>992.0</ele>
        <time>2021-03-27T20:14:34Z</time>
      </trkpt>
      <trkpt lat="41.905028" lon="-2.150941">
        <ele>981.15</ele>
        <time>2021-03-27T20:14:36Z</time>
      </trkpt>
      <trkpt lat="41.904951" lon="-2.150984">
        <ele>979.66</ele>
        <time>2021-03-27T20:14:38Z</time>
      </trkpt>
      <trkpt lat="41.904893" lon="-2.151051">
        <ele>978.55</ele>
        <time>2021-03-27T20:14:40Z</time>
      </trkpt>
      <trkpt lat="41.904874" lon="-2.151146">
        <ele>978.48</ele>
        <time>2021-03-27T20:14:42Z</time>
      </trkpt>
      <trkpt lat="41.904883" lon="-2.151347">
        <ele>978.8</ele>
        <time>2021-03-27T20:14:44Z</time>
      </trkpt>
      <trkpt lat="41.904997" lon="-2.152001">
        <ele>984.34</ele>
        <time>2021-03-27T20:14:47Z</time>
      </trkpt>
      <trkpt lat="41.904984" lon="-2.152116">
        <ele>984.95</ele>
        <time>2021-03-27T20:14:49Z</time>
      </trkpt>
      <trkpt lat="41.904951" lon="-2.152224">
        <ele>985.33</ele>
        <time>2021-03-27T20:14:51Z</time>
      </trkpt>
      <trkpt lat="41.904875" lon="-2.152316">
        <ele>985.66</ele>
        <time>2021-03-27T20:14:53Z</time>
      </trkpt>
      <trkpt lat="41.904791" lon="-2.152332">
        <ele>985.07</ele>
        <time>2021-03-27T20:14:55Z</time>
      </trkpt>
      <trkpt lat="41.904702" lon="-2.152314">
        <ele>983.91</ele>
        <time>2021-03-27T20:14:57Z</time>
      </trkpt>
      <trkpt lat="41.904417" lon="-2.152203">
        <ele>979.17</ele>
        <time>2021-03-27T20:14:59Z</time>
      </trkpt>
      <trkpt lat="41.904152" lon="-2.152145">
        <ele>974.67</ele>
        <time>2021-03-27T20:15:01Z</time>
      </trkpt>
      <trkpt lat="41.904006" lon="-2.152155">
        <ele>971.11</ele>
        <time>2021-03-27T20:15:03Z</time>
      </trkpt>
      <trkpt lat="41.903932" lon="-2.152214">
        <ele>970.12</ele>
        <time>2021-03-27T20:15:05Z</time>
      </trkpt>
      <trkpt lat="41.903876" lon="-2.152302">
        <ele>969.57</ele>
        <time>2021-03-27T20:15:07Z</time>
      </trkpt>
      <trkpt lat="41.903727" lon="-2.153216">
        <ele>980.31</ele>
        <time>2021-03-27T20:15:09Z</time>
      </trkpt>
      <trkpt lat="41.903698" lon="-2.153317">
        <ele>981.72</ele>
        <time>2021-03-27T20:15:11Z</time>
      </trkpt>
      <trkpt lat="41.903655" lon="-2.153371">
        <ele>981.51</ele>
        <time>2021-03-27T20:15:13Z</time>
      </trkpt>
      <trkpt lat="41.903597" lon="-2.153404">
        <ele>980.35</ele>
        <time>2021-03-27T20:15:15Z</time>
      </trkpt>
      <trkpt lat="41.90336" lon="-2.153374">
        <ele>972.66</ele>
        <time>2021-03-27T20:15:17Z</time>
      </trkpt>
      <trkpt lat="41.90329" lon="-2.153401">
        <ele>969.91</ele>
        <time>2021-03-27T20:15:20Z</time>
      </trkpt>
      <trkpt lat="41.903193" lon="-2.153493">
        <ele>967.41</ele>
        <time>2021-03-27T20:15:22Z</time>
      </trkpt>
      <trkpt lat="41.903049" lon="-2.153758">
        <ele>970.96</ele>
        <time>2021-03-27T20:15:24Z</time>
      </trkpt>
      <trkpt lat="41.902914" lon="-2.153901">
        <ele>970.46</ele>
        <time>2021-03-27T20:15:26Z</time>
      </trkpt>
      <trkpt lat="41.902584" lon="-2.154071">
        <ele>970.99</ele>
        <time>2021-03-27T20:15:28Z</time>
      </trkpt>
      <trkpt lat="41.902173" lon="-2.154229">
        <ele>976.55</ele>
        <time>2021-03-27T20:15:30Z</time>
      </trkpt>
      <trkpt lat="41.901605" lon="-2.154253">
        <ele>966.37</ele>
        <time>2021-03-27T20:15:32Z</time>
      </trkpt>
      <trkpt lat="41.90109" lon="-2.154427">
        <ele>960.85</ele>
        <time>2021-03-27T20:15:34Z</time>
      </trkpt>
      <trkpt lat="41.899919" lon="-2.155093">
        <ele>953.91</ele>
        <time>2021-03-27T20:15:36Z</time>
      </trkpt>
      <trkpt lat="41.899724" lon="-2.155161">
        <ele>949.45</ele>
        <time>2021-03-27T20:15:38Z</time>
      </trkpt>
      <trkpt lat="41.899252" lon="-2.155135">
        <ele>941.76</ele>
        <time>2021-03-27T20:15:40Z</time>
      </trkpt>
      <trkpt lat="41.899167" lon="-2.155095">
        <ele>940.97</ele>
        <time>2021-03-27T20:15:42Z</time>
      </trkpt>
      <trkpt lat="41.899107" lon="-2.155012">
        <ele>941.0</ele>
        <time>2021-03-27T20:15:44Z</time>
      </trkpt>
      <trkpt lat="41.899088" lon="-2.154892">
        <ele>940.76</ele>
        <time>2021-03-27T20:15:46Z</time>
      </trkpt>
      <trkpt lat="41.899127" lon="-2.154785">
        <ele>941.33</ele>
        <time>2021-03-27T20:15:48Z</time>
      </trkpt>
      <trkpt lat="41.899191" lon="-2.154691">
        <ele>941.52</ele>
        <time>2021-03-27T20:15:51Z</time>
      </trkpt>
      <trkpt lat="41.899279" lon="-2.154634">
        <ele>941.16</ele>
        <time>2021-03-27T20:15:53Z</time>
      </trkpt>
      <trkpt lat="41.899973" lon="-2.154482">
        <ele>945.71</ele>
        <time>2021-03-27T20:15:55Z</time>
      </trkpt>
      <trkpt lat="41.900888" lon="-2.154097">
        <ele>945.72</ele>
        <time>2021-03-27T20:15:57Z</time>
      </trkpt>
      <trkpt lat="41.900961" lon="-2.154016">
        <ele>944.43</ele>
        <time>2021-03-27T20:15:59Z</time>
      </trkpt>
      <trkpt lat="41.901008" lon="-2.153913">
        <ele>941.92</ele>
        <time>2021-03-27T20:16:01Z</time>
      </trkpt>
      <trkpt lat="41.901011" lon="-2.153789">
        <ele>938.48</ele>
        <time>2021-03-27T20:16:03Z</time>
      </trkpt>
      <trkpt lat="41.900977" lon="-2.1537">
        <ele>935.79</ele>
        <time>2021-03-27T20:16:05Z</time>
      </trkpt>
      <trkpt lat="41.900895" lon="-2.153629">
        <ele>933.59</ele>
        <time>2021-03-27T20:16:07Z</time>
      </trkpt>
      <trkpt lat="41.900799" lon="-2.153585">
        <ele>931.86</ele>
        <time>2021-03-27T20:16:09Z</time>
      </trkpt>
      <trkpt lat="41.900687" lon="-2.153608">
        <ele>930.81</ele>
        <time>2021-03-27T20:16:11Z</time>
      </trkpt>
      <trkpt lat="41.900466" lon="-2.153736">
        <ele>930.93</ele>
        <time>2021-03-27T20:16:13Z</time>
      </trkpt>
      <trkpt lat="41.900216" lon="-2.153823">
        <ele>931.93</ele>
        <time>2021-03-27T20:16:15Z</time>
      </trkpt>
      <trkpt lat="41.899377" lon="-2.153965">
        <ele>927.72</ele>
        <time>2021-03-27T20:16:17Z</time>
      </trkpt>
      <trkpt lat="41.899274" lon="-2.154006">
        <ele>926.89</ele>
        <time>2021-03-27T20:16:19Z</time>
      </trkpt>
      <trkpt lat="41.89828" lon="-2.155024">
        <ele>925.41</ele>
        <time>2021-03-27T20:16:21Z</time>
      </trkpt>
      <trkpt lat="41.898213" lon="-2.155144">
        <ele>925.31</ele>
        <time>2021-03-27T20:16:24Z</time>
      </trkpt>
      <trkpt lat="41.898205" lon="-2.155253">
        <ele>925.97</ele>
        <time>2021-03-27T20:16:26Z</time>
      </trkpt>
      <trkpt lat="41.898221" lon="-2.155356">
        <ele>926.04</ele>
        <time>2021-03-27T20:16:28Z</time>
      </trkpt>
      <trkpt lat="41.898293" lon="-2.155435">
        <ele>926.46</ele>
        <time>2021-03-27T20:16:30Z</time>
      </trkpt>
      <trkpt lat="41.898449" lon="-2.155521">
        <ele>926.71</ele>
        <time>2021-03-27T20:16:32Z</time>
      </trkpt>
      <trkpt lat="41.899062" lon="-2.155637">
        <ele>928.77</ele>
        <time>2021-03-27T20:16:34Z</time>
      </trkpt>
      <trkpt lat="41.899153" lon="-2.155688">
        <ele>928.53</ele>
        <time>2021-03-27T20:16:36Z</time>
      </trkpt>
      <trkpt lat="41.899228" lon="-2.155763">
        <ele>927.89</ele>
        <time>2021-03-27T20:16:38Z</time>
      </trkpt>
      <trkpt lat="41.899283" lon="-2.15588">
        <ele>926.59</ele>
        <time>2021-03-27T20:16:40Z</time>
      </trkpt>
      <trkpt lat="41.899299" lon="-2.156025">
        <ele>925.32</ele>
        <time>2021-03-27T20:16:42Z</time>
      </trkpt>
      <trkpt lat="41.899279" lon="-2.156191">
        <ele>924.57</ele>
        <time>2021-03-27T20:16:44Z</time>
      </trkpt>
      <trkpt lat="41.899215" lon="-2.156363">
        <ele>923.76</ele>
        <time>2021-03-27T20:16:46Z</time>
      </trkpt>
      <trkpt lat="41.899128" lon="-2.156508">
        <ele>923.0</ele>
        <time>2021-03-27T20:16:48Z</time>
      </trkpt>
      <trkpt lat="41.899011" lon="-2.156609">
        <ele>924.15</ele>
        <time>2021-03-27T20:16:50Z</time>
      </trkpt>
      <trkpt lat="41.898933" lon="-2.156625">
        <ele>924.54</ele>
        <time>2021-03-27T20:16:52Z</time>
      </trkpt>
      <trkpt lat="41.898557" lon="-2.156531">
        <ele>925.54</ele>
        <time>2021-03-27T20:16:54Z</time>
      </trkpt>
      <trkpt lat="41.898301" lon="-2.156491">
        <ele>925.11</ele>
        <time>2021-03-27T20:16:57Z</time>
      </trkpt>
      <trkpt lat="41.898219" lon="-2.156501">
        <ele>925.21</ele>
        <time>2021-03-27T20:16:59Z</time>
      </trkpt>
      <trkpt lat="41.898125" lon="-2.156552">
        <ele>925.76</ele>
        <time>2021-03-27T20:17:01Z</time>
      </trkpt>
      <trkpt lat="41.898043" lon="-2.156659">
        <ele>926.87</ele>
        <time>2021-03-27T20:17:03Z</time>
      </trkpt>
      <trkpt lat="41.897901" lon="-2.156918">
        <ele>929.56</ele>
        <time>2021-03-27T20:17:05Z</time>
      </trkpt>
      <trkpt lat="41.897774" lon="-2.157108">
        <ele>933.1</ele>
        <time>2021-03-27T20:17:07Z</time>
      </trkpt>
      <trkpt lat="41.897629" lon="-2.157229">
        <ele>935.16</ele>
        <time>2021-03-27T20:17:09Z</time>
      </trkpt>
      <trkpt lat="41.897498" lon="-2.1573">
        <ele>936.54</ele>
        <time>2021-03-27T20:17:11Z</time>
      </trkpt>
      <trkpt lat="41.897356" lon="-2.15733">
        <ele>938.33</ele>
        <time>2021-03-27T20:17:13Z</time>
      </trkpt>
      <trkpt lat="41.895794" lon="-2.157416">
        <ele>944.11</ele>
        <time>2021-03-27T20:17:15Z</time>
      </trkpt>
      <trkpt lat="41.895486" lon="-2.157535">
        <ele>947.57</ele>
        <time>2021-03-27T20:17:17Z</time>
      </trkpt>
      <trkpt lat="41.895353" lon="-2.157667">
        <ele>949.61</ele>
        <time>2021-03-27T20:17:19Z</time>
      </trkpt>
      <trkpt lat="41.89525" lon="-2.157842">
        <ele>951.65</ele>
        <time>2021-03-27T20:17:21Z</time>
      </trkpt>
      <trkpt lat="41.895159" lon="-2.158098">
        <ele>953.72</ele>
        <time>2021-03-27T20:17:23Z</time>
      </trkpt>
      <trkpt lat="41.895056" lon="-2.158248">
        <ele>954.61</ele>
        <time>2021-03-27T20:17:25Z</time>
      </trkpt>
      <trkpt lat="41.894848" lon="-2.158441">
        <ele>954.89</ele>
        <time>2021-03-27T20:17:28Z</time>
      </trkpt>
      <trkpt lat="41.894204" lon="-2.159368">
        <ele>961.13</ele>
        <time>2021-03-27T20:17:30Z</time>
      </trkpt>
      <trkpt lat="41.894134" lon="-2.159509">
        <ele>961.5</ele>
        <time>2021-03-27T20:17:32Z</time>
      </trkpt>
      <trkpt lat="41.894087" lon="-2.159712">
        <ele>963.18</ele>
        <time>2021-03-27T20:17:34Z</time>
      </trkpt>
      <trkpt lat="41.89389" lon="-2.160833">
        <ele>968.03</ele>
        <time>2021-03-27T20:17:36Z</time>
      </trkpt>
      <trkpt lat="41.893828" lon="-2.161055">
        <ele>968.49</ele>
        <time>2021-03-27T20:17:38Z</time>
      </trkpt>
      <trkpt lat="41.893729" lon="-2.161288">
        <ele>969.01</ele>
        <time>2021-03-27T20:17:40Z</time>
      </trkpt>
      <trkpt lat="41.893538" lon="-2.1616">
        <ele>971.27</ele>
        <time>2021-03-27T20:17:42Z</time>
      </trkpt>
      <trkpt lat="41.893198" lon="-2.16207">
        <ele>974.57</ele>
        <time>2021-03-27T20:17:44Z</time>
      </trkpt>
      <trkpt lat="41.893029" lon="-2.162244">
        <ele>975.16</ele>
        <time>2021-03-27T20:17:46Z</time>
      </trkpt>
      <trkpt lat="41.892851" lon="-2.162384">
        <ele>975.29</ele>
        <time>2021-03-27T20:17:48Z</time>
      </trkpt>
      <trkpt lat="41.892482" lon="-2.162529">
        <ele>973.32</ele>
        <time>2021-03-27T20:17:50Z</time>
      </trkpt>
      <trkpt lat="41.891734" lon="-2.16278">
        <ele>976.1</ele>
        <time>2021-03-27T20:17:52Z</time>
      </trkpt>
      <trkpt lat="41.891596" lon="-2.162799">
        <ele>978.45</ele>
        <time>2021-03-27T20:17:54Z</time>
      </trkpt>
      <trkpt lat="41.891438" lon="-2.162762">
        <ele>979.96</ele>
        <time>2021-03-27T20:17:56Z</time>
      </trkpt>
      <trkpt lat="41.891184" lon="-2.16265">
        <ele>981.53</ele>
        <time>2021-03-27T20:17:58Z</time>
      </trkpt>
      <trkpt lat="41.891048" lon="-2.162638">
        <ele>982.6</ele>
        <time>2021-03-27T20:18:01Z</time>
      </trkpt>
      <trkpt lat="41.89023" lon="-2.162841">
        <ele>991.51</ele>
        <time>2021-03-27T20:18:03Z</time>
      </trkpt>
      <trkpt lat="41.890063" lon="-2.162866">
        <ele>991.74</ele>
        <time>2021-03-27T20:18:05Z</time>
      </trkpt>
      <trkpt lat="41.889898" lon="-2.162859">
        <ele>991.57</ele>
        <time>2021-03-27T20:18:07Z</time>
      </trkpt>
      <trkpt lat="41.888948" lon="-2.162656">
        <ele>997.53</ele>
        <time>2021-03-27T20:18:09Z</time>
      </trkpt>
      <trkpt lat="41.888376" lon="-2.162592">
        <ele>1001.96</ele>
        <time>2021-03-27T20:18:11Z</time>
      </trkpt>
      <trkpt lat="41.888172" lon="-2.162539">
        <ele>1002.65</ele>
        <time>2021-03-27T20:18:13Z</time>
      </trkpt>
      <trkpt lat="41.887903" lon="-2.162434">
        <ele>1003.94</ele>
        <time>2021-03-27T20:18:15Z</time>
      </trkpt>
      <trkpt lat="41.887376" lon="-2.162147">
        <ele>1004.57</ele>
        <time>2021-03-27T20:18:17Z</time>
      </trkpt>
      <trkpt lat="41.887173" lon="-2.162072">
        <ele>1003.68</ele>
        <time>2021-03-27T20:18:19Z</time>
      </trkpt>
      <trkpt lat="41.886925" lon="-2.162021">
        <ele>1002.74</ele>
        <time>2021-03-27T20:18:21Z</time>
      </trkpt>
      <trkpt lat="41.886791" lon="-2.161969">
        <ele>1004.26</ele>
        <time>2021-03-27T20:18:23Z</time>
      </trkpt>
      <trkpt lat="41.886587" lon="-2.161867">
        <ele>1006.85</ele>
        <time>2021-03-27T20:18:25Z</time>
      </trkpt>
      <trkpt lat="41.886027" lon="-2.161516">
        <ele>1011.36</ele>
        <time>2021-03-27T20:18:27Z</time>
      </trkpt>
      <trkpt lat="41.88562" lon="-2.161197">
        <ele>1015.62</ele>
        <time>2021-03-27T20:18:29Z</time>
      </trkpt>
      <trkpt lat="41.88515" lon="-2.160715">
        <ele>1018.54</ele>
        <time>2021-03-27T20:18:32Z</time>
      </trkpt>
      <trkpt lat="41.884996" lon="-2.16047">
        <ele>1018.21</ele>
        <time>2021-03-27T20:18:34Z</time>
      </trkpt>
      <trkpt lat="41.884879" lon="-2.16023">
        <ele>1018.45</ele>
        <time>2021-03-27T20:18:36Z</time>
      </trkpt>
      <trkpt lat="41.884723" lon="-2.16">
        <ele>1018.97</ele>
        <time>2021-03-27T20:18:38Z</time>
      </trkpt>
      <trkpt lat="41.884568" lon="-2.159807">
        <ele>1022.7</ele>
        <time>2021-03-27T20:18:40Z</time>
      </trkpt>
      <trkpt lat="41.88429" lon="-2.159515">
        <ele>1024.38</ele>
        <time>2021-03-27T20:18:42Z</time>
      </trkpt>
      <trkpt lat="41.884015" lon="-2.159297">
        <ele>1025.05</ele>
        <time>2021-03-27T20:18:44Z</time>
      </trkpt>
      <trkpt lat="41.883745" lon="-2.159117">
        <ele>1026.37</ele>
        <time>2021-03-27T20:18:46Z</time>
      </trkpt>
      <trkpt lat="41.883634" lon="-2.158995">
        <ele>1027.13</ele>
        <time>2021-03-27T20:18:48Z</time>
      </trkpt>
      <trkpt lat="41.88354" lon="-2.158844">
        <ele>1028.44</ele>
        <time>2021-03-27T20:18:50Z</time>
      </trkpt>
      <trkpt lat="41.883405" lon="-2.158421">
        <ele>1032.06</ele>
        <time>2021-03-27T20:18:52Z</time>
      </trkpt>
      <trkpt lat="41.883351" lon="-2.158296">
        <ele>1032.55</ele>
        <time>2021-03-27T20:18:54Z</time>
      </trkpt>
      <trkpt lat="41.883265" lon="-2.158169">
        <ele>1032.55</ele>
        <time>2021-03-27T20:18:56Z</time>
      </trkpt>
      <trkpt lat="41.883172" lon="-2.158105">
        <ele>1033.09</ele>
        <time>2021-03-27T20:18:58Z</time>
      </trkpt>
      <trkpt lat="41.882954" lon="-2.158005">
        <ele>1034.31</ele>
        <time>2021-03-27T20:19:00Z</time>
      </trkpt>
      <trkpt lat="41.882834" lon="-2.157916">
        <ele>1034.89</ele>
        <time>2021-03-27T20:19:02Z</time>
      </trkpt>
      <trkpt lat="41.88274" lon="-2.1578">
        <ele>1035.48</ele>
        <time>2021-03-27T20:19:05Z</time>
      </trkpt>
      <trkpt lat="41.882573" lon="-2.157464">
        <ele>1037.11</ele>
        <time>2021-03-27T20:19:07Z</time>
      </trkpt>
      <trkpt lat="41.882488" lon="-2.157371">
        <ele>1037.73</ele>
        <time>2021-03-27T20:19:09Z</time>
      </trkpt>
      <trkpt lat="41.882357" lon="-2.157293">
        <ele>1038.31</ele>
        <time>2021-03-27T20:19:11Z</time>
      </trkpt>
      <trkpt lat="41.881921" lon="-2.157191">
        <ele>1042.12</ele>
        <time>2021-03-27T20:19:13Z</time>
      </trkpt>
      <trkpt lat="41.881812" lon="-2.157149">
        <ele>1043.37</ele>
        <time>2021-03-27T20:19:15Z</time>
      </trkpt>
      <trkpt lat="41.881725" lon="-2.15707">
        <ele>1044.07</ele>
        <time>2021-03-27T20:19:17Z</time>
      </trkpt>
      <trkpt lat="41.881651" lon="-2.156949">
        <ele>1044.15</ele>
        <time>2021-03-27T20:19:19Z</time>
      </trkpt>
      <trkpt lat="41.881624" lon="-2.156827">
        <ele>1043.88</ele>
        <time>2021-03-27T20:19:21Z</time>
      </trkpt>
      <trkpt lat="41.881624" lon="-2.156598">
        <ele>1044.01</ele>
        <time>2021-03-27T20:19:23Z</time>
      </trkpt>
      <trkpt lat="41.881686" lon="-2.156424">
        <ele>1045.34</ele>
        <time>2021-03-27T20:19:25Z</time>
      </trkpt>
      <trkpt lat="41.881804" lon="-2.156297">
        <ele>1046.18</ele>
        <time>2021-03-27T20:19:27Z</time>
      </trkpt>
      <trkpt lat="41.882032" lon="-2.156124">
        <ele>1047.1</ele>
        <time>2021-03-27T20:19:29Z</time>
      </trkpt>
      <trkpt lat="41.88213" lon="-2.156007">
        <ele>1048.02</ele>
        <time>2021-03-27T20:19:31Z</time>
      </trkpt>
      <trkpt lat="41.88223" lon="-2.155842">
        <ele>1049.67</ele>
        <time>2021-03-27T20:19:33Z</time>
      </trkpt>
      <trkpt lat="41.882296" lon="-2.155688">
        <ele>1051.52</ele>
        <time>2021-03-27T20:19:35Z</time>
      </trkpt>
      <trkpt lat="41.882518" lon="-2.154607">
        <ele>1056.36</ele>
        <time>2021-03-27T20:19:38Z</time>
      </trkpt>
      <trkpt lat="41.882572" lon="-2.154065">
        <ele>1058.15</ele>
        <time>2021-03-27T20:19:40Z</time>
      </trkpt>
      <trkpt lat="41.882572" lon="-2.15363">
        <ele>1060.82</ele>
        <time>2021-03-27T20:19:42Z</time>
      </trkpt>
      <trkpt lat="41.882598" lon="-2.153361">
        <ele>1061.65</ele>
        <time>2021-03-27T20:19:44Z</time>
      </trkpt>
      <trkpt lat="41.882663" lon="-2.153112">
        <ele>1062.38</ele>
        <time>2021-03-27T20:19:46Z</time>
      </trkpt>
      <trkpt lat="41.882775" lon="-2.152875">
        <ele>1064.29</ele>
        <time>2021-03-27T20:19:48Z</time>
      </trkpt>
      <trkpt lat="41.882907" lon="-2.15268">
        <ele>1066.96</ele>
        <time>2021-03-27T20:19:50Z</time>
      </trkpt>
      <trkpt lat="41.883615" lon="-2.151832">
        <ele>1074.36</ele>
        <time>2021-03-27T20:19:52Z</time>
      </trkpt>
      <trkpt lat="41.883717" lon="-2.151681">
        <ele>1075.08</ele>
        <time>2021-03-27T20:19:54Z</time>
      </trkpt>
      <trkpt lat="41.8838" lon="-2.151475">
        <ele>1075.98</ele>
        <time>2021-03-27T20:19:56Z</time>
      </trkpt>
      <trkpt lat="41.88386" lon="-2.151256">
        <ele>1076.53</ele>
        <time>2021-03-27T20:19:58Z</time>
      </trkpt>
      <trkpt lat="41.883883" lon="-2.151029">
        <ele>1077.81</ele>
        <time>2021-03-27T20:20:00Z</time>
      </trkpt>
      <trkpt lat="41.883877" lon="-2.1506">
        <ele>1080.26</ele>
        <time>2021-03-27T20:20:02Z</time>
      </trkpt>
      <trkpt lat="41.883856" lon="-2.15035">
        <ele>1080.55</ele>
        <time>2021-03-27T20:20:04Z</time>
      </trkpt>
      <trkpt lat="41.883647" lon="-2.149553">
        <ele>1084.81</ele>
        <time>2021-03-27T20:20:06Z</time>
      </trkpt>
      <trkpt lat="41.883534" lon="-2.149274">
        <ele>1085.65</ele>
        <time>2021-03-27T20:20:09Z</time>
      </trkpt>
      <trkpt lat="41.88343" lon="-2.14913">
        <ele>1086.56</ele>
        <time>2021-03-27T20:20:11Z</time>
      </trkpt>
      <trkpt lat="41.88313" lon="-2.148845">
        <ele>1090.0</ele>
        <time>2021-03-27T20:20:13Z</time>
      </trkpt>
      <trkpt lat="41.883009" lon="-2.148671">
        <ele>1090.35</ele>
        <time>2021-03-27T20:20:15Z</time>
      </trkpt>
      <trkpt lat="41.882891" lon="-2.148457">
        <ele>1089.93</ele>
        <time>2021-03-27T20:20:17Z</time>
      </trkpt>
      <trkpt lat="41.882761" lon="-2.147987">
        <ele>1089.92</ele>
        <time>2021-03-27T20:20:19Z</time>
      </trkpt>
      <trkpt lat="41.882756" lon="-2.147505">
        <ele>1095.55</ele>
        <time>2021-03-27T20:20:21Z</time>
      </trkpt>
      <trkpt lat="41.882921" lon="-2.146596">
        <ele>1096.92</ele>
        <time>2021-03-27T20:20:23Z</time>
      </trkpt>
      <trkpt lat="41.882946" lon="-2.146388">
        <ele>1097.98</ele>
        <time>2021-03-27T20:20:25Z</time>
      </trkpt>
      <trkpt lat="41.882935" lon="-2.146015">
        <ele>1100.31</ele>
        <time>2021-03-27T20:20:27Z</time>
      </trkpt>
      <trkpt lat="41.882898" lon="-2.145788">
        <ele>1101.29</ele>
        <time>2021-03-27T20:20:29Z</time>
      </trkpt>
      <trkpt lat="41.882837" lon="-2.145552">
        <ele>1101.36</ele>
        <time>2021-03-27T20:20:31Z</time>
      </trkpt>
      <trkpt lat="41.882655" lon="-2.145162">
        <ele>1104.0</ele>
        <time>2021-03-27T20:20:33Z</time>
      </trkpt>
      <trkpt lat="41.882495" lon="-2.144962">
        <ele>1105.95</ele>
        <time>2021-03-27T20:20:35Z</time>
      </trkpt>
      <trkpt lat="41.882061" lon="-2.144534">
        <ele>1108.57</ele>
        <time>2021-03-27T20:20:37Z</time>
      </trkpt>
      <trkpt lat="41.881831" lon="-2.144364">
        <ele>1111.5</ele>
        <time>2021-03-27T20:20:39Z</time>
      </trkpt>
      <trkpt lat="41.881466" lon="-2.144129">
        <ele>1114.08</ele>
        <time>2021-03-27T20:20:42Z</time>
      </trkpt>
      <trkpt lat="41.881327" lon="-2.144007">
        <ele>1113.85</ele>
        <time>2021-03-27T20:20:44Z</time>
      </trkpt>
      <trkpt lat="41.881166" lon="-2.143823">
        <ele>1114.21</ele>
        <time>2021-03-27T20:20:46Z</time>
      </trkpt>
      <trkpt lat="41.88052" lon="-2.142919">
        <ele>1120.9</ele>
        <time>2021-03-27T20:20:48Z</time>
      </trkpt>
      <trkpt lat="41.88027" lon="-2.142711">
        <ele>1121.66</ele>
        <time>2021-03-27T20:20:50Z</time>
      </trkpt>
      <trkpt lat="41.88008" lon="-2.142644">
        <ele>1124.24</ele>
        <time>2021-03-27T20:20:52Z</time>
      </trkpt>
      <trkpt lat="41.87989" lon="-2.142609">
        <ele>1125.81</ele>
        <time>2021-03-27T20:20:54Z</time>
      </trkpt>
      <trkpt lat="41.879736" lon="-2.142638">
        <ele>1126.92</ele>
        <time>2021-03-27T20:20:56Z</time>
      </trkpt>
      <trkpt lat="41.879207" lon="-2.142918">
        <ele>1131.64</ele>
        <time>2021-03-27T20:20:58Z</time>
      </trkpt>
      <trkpt lat="41.879117" lon="-2.142949">
        <ele>1132.48</ele>
        <time>2021-03-27T20:21:00Z</time>
      </trkpt>
      <trkpt lat="41.879034" lon="-2.14294">
        <ele>1132.84</ele>
        <time>2021-03-27T20:21:02Z</time>
      </trkpt>
      <trkpt lat="41.878893" lon="-2.14284">
        <ele>1133.2</ele>
        <time>2021-03-27T20:21:04Z</time>
      </trkpt>
      <trkpt lat="41.878836" lon="-2.142748">
        <ele>1133.79</ele>
        <time>2021-03-27T20:21:06Z</time>
      </trkpt>
      <trkpt lat="41.878799" lon="-2.142642">
        <ele>1134.45</ele>
        <time>2021-03-27T20:21:08Z</time>
      </trkpt>
      <trkpt lat="41.878793" lon="-2.14246">
        <ele>1134.81</ele>
        <time>2021-03-27T20:21:10Z</time>
      </trkpt>
      <trkpt lat="41.878878" lon="-2.142142">
        <ele>1134.47</ele>
        <time>2021-03-27T20:21:12Z</time>
      </trkpt>
      <trkpt lat="41.878899" lon="-2.141926">
        <ele>1134.89</ele>
        <time>2021-03-27T20:21:15Z</time>
      </trkpt>
      <trkpt lat="41.8789" lon="-2.14167">
        <ele>1134.88</ele>
        <time>2021-03-27T20:21:17Z</time>
      </trkpt>
      <trkpt lat="41.878865" lon="-2.141432">
        <ele>1136.37</ele>
        <time>2021-03-27T20:21:19Z</time>
      </trkpt>
      <trkpt lat="41.878816" lon="-2.141243">
        <ele>1137.56</ele>
        <time>2021-03-27T20:21:21Z</time>
      </trkpt>
      <trkpt lat="41.87852" lon="-2.140356">
        <ele>1139.73</ele>
        <time>2021-03-27T20:21:23Z</time>
      </trkpt>
      <trkpt lat="41.878299" lon="-2.139216">
        <ele>1146.26</ele>
        <time>2021-03-27T20:21:25Z</time>
      </trkpt>
      <trkpt lat="41.878299" lon="-2.139216">
        <ele>1146.26</ele>
        <time>2021-03-27T20:21:25Z</time>
      </trkpt>
      <trkpt lat="41.878265" lon="-2.138938">
        <ele>1146.86</ele>
        <time>2021-03-27T20:21:31Z</time>
      </trkpt>
      <trkpt lat="41.878237" lon="-2.138482">
        <ele>1148.46</ele>
        <time>2021-03-27T20:21:37Z</time>
      </trkpt>
      <trkpt lat="41.878215" lon="-2.138018">
        <ele>1150.63</ele>
        <time>2021-03-27T20:21:43Z</time>
      </trkpt>
      <trkpt lat="41.878224" lon="-2.137719">
        <ele>1151.21</ele>
        <time>2021-03-27T20:21:49Z</time>
      </trkpt>
      <trkpt lat="41.878703" lon="-2.136063">
        <ele>1147.15</ele>
        <time>2021-03-27T20:21:54Z</time>
      </trkpt>
      <trkpt lat="41.878707" lon="-2.135918">
        <ele>1146.69</ele>
        <time>2021-03-27T20:22:00Z</time>
      </trkpt>
      <trkpt lat="41.878691" lon="-2.135772">
        <ele>1146.28</ele>
        <time>2021-03-27T20:22:06Z</time>
      </trkpt>
      <trkpt lat="41.878657" lon="-2.135638">
        <ele>1145.9</ele>
        <time>2021-03-27T20:22:12Z</time>
      </trkpt>
      <trkpt lat="41.878109" lon="-2.13445">
        <ele>1139.6</ele>
        <time>2021-03-27T20:22:18Z</time>
      </trkpt>
      <trkpt lat="41.877987" lon="-2.133989">
        <ele>1137.41</ele>
        <time>2021-03-27T20:22:24Z</time>
      </trkpt>
      <trkpt lat="41.877772" lon="-2.132621">
        <ele>1136.25</ele>
        <time>2021-03-27T20:22:30Z</time>
      </trkpt>
      <trkpt lat="41.877811" lon="-2.13132">
        <ele>1128.33</ele>
        <time>2021-03-27T20:22:35Z</time>
      </trkpt>
      <trkpt lat="41.877849" lon="-2.131084">
        <ele>1128.39</ele>
        <time>2021-03-27T20:22:41Z</time>
      </trkpt>
      <trkpt lat="41.877924" lon="-2.130804">
        <ele>1127.37</ele>
        <time>2021-03-27T20:22:47Z</time>
      </trkpt>
      <trkpt lat="41.87822" lon="-2.130098">
        <ele>1125.28</ele>
        <time>2021-03-27T20:22:53Z</time>
      </trkpt>
      <trkpt lat="41.87857" lon="-2.128964">
        <ele>1116.54</ele>
        <time>2021-03-27T20:22:59Z</time>
      </trkpt>
      <trkpt lat="41.878615" lon="-2.128725">
        <ele>1116.01</ele>
        <time>2021-03-27T20:23:05Z</time>
      </trkpt>
      <trkpt lat="41.878623" lon="-2.128354">
        <ele>1116.0</ele>
        <time>2021-03-27T20:23:11Z</time>
      </trkpt>
      <trkpt lat="41.878581" lon="-2.127976">
        <ele>1117.0</ele>
        <time>2021-03-27T20:23:16Z</time>
      </trkpt>
      <trkpt lat="41.878354" lon="-2.125196">
        <ele>1114.73</ele>
        <time>2021-03-27T20:23:22Z</time>
      </trkpt>
      <trkpt lat="41.877817" lon="-2.12204">
        <ele>1101.92</ele>
        <time>2021-03-27T20:23:28Z</time>
      </trkpt>
      <trkpt lat="41.877592" lon="-2.120559">
        <ele>1094.35</ele>
        <time>2021-03-27T20:23:34Z</time>
      </trkpt>
      <trkpt lat="41.877621" lon="-2.120212">
        <ele>1092.1</ele>
        <time>2021-03-27T20:23:40Z</time>
      </trkpt>
      <trkpt lat="41.877749" lon="-2.119732">
        <ele>1091.9</ele>
        <time>2021-03-27T20:23:46Z</time>
      </trkpt>
      <trkpt lat="41.877741" lon="-2.119503">
        <ele>1090.5</ele>
        <time>2021-03-27T20:23:52Z</time>
      </trkpt>
      <trkpt lat="41.877785" lon="-2.119078">
        <ele>1087.32</ele>
        <time>2021-03-27T20:23:57Z</time>
      </trkpt>
      <trkpt lat="41.87773" lon="-2.118199">
        <ele>1086.31</ele>
        <time>2021-03-27T20:24:03Z</time>
      </trkpt>
      <trkpt lat="41.877688" lon="-2.117816">
        <ele>1083.89</ele>
        <time>2021-03-27T20:24:09Z</time>
      </trkpt>
      <trkpt lat="41.877332" lon="-2.116772">
        <ele>1076.19</ele>
        <time>2021-03-27T20:24:15Z</time>
      </trkpt>
      <trkpt lat="41.877018" lon="-2.116109">
        <ele>1073.45</ele>
        <time>2021-03-27T20:24:21Z</time>
      </trkpt>
      <trkpt lat="41.876718" lon="-2.115053">
        <ele>1069.48</ele>
        <time>2021-03-27T20:24:27Z</time>
      </trkpt>
      <trkpt lat="41.876594" lon="-2.114691">
        <ele>1069.84</ele>
        <time>2021-03-27T20:24:33Z</time>
      </trkpt>
      <trkpt lat="41.876301" lon="-2.114065">
        <ele>1067.17</ele>
        <time>2021-03-27T20:24:38Z</time>
      </trkpt>
      <trkpt lat="41.876226" lon="-2.113746">
        <ele>1065.14</ele>
        <time>2021-03-27T20:24:44Z</time>
      </trkpt>
      <trkpt lat="41.87547" lon="-2.107556">
        <ele>1044.69</ele>
        <time>2021-03-27T20:24:50Z</time>
      </trkpt>
      <trkpt lat="41.874989" lon="-2.103447">
        <ele>1038.12</ele>
        <time>2021-03-27T20:24:56Z</time>
      </trkpt>
      <trkpt lat="41.874897" lon="-2.102956">
        <ele>1041.33</ele>
        <time>2021-03-27T20:25:02Z</time>
      </trkpt>
      <trkpt lat="41.874247" lon="-2.10131">
        <ele>1043.16</ele>
        <time>2021-03-27T20:25:08Z</time>
      </trkpt>
      <trkpt lat="41.874241" lon="-2.101001">
        <ele>1039.61</ele>
        <time>2021-03-27T20:25:14Z</time>
      </trkpt>
      <trkpt lat="41.876244" lon="-2.086181">
        <ele>1014.36</ele>
        <time>2021-03-27T20:25:19Z</time>
      </trkpt>
      <trkpt lat="41.876272" lon="-2.085228">
        <ele>1015.05</ele>
        <time>2021-03-27T20:25:25Z</time>
      </trkpt>
      <trkpt lat="41.876235" lon="-2.084719">
        <ele>1014.44</ele>
        <time>2021-03-27T20:25:31Z</time>
      </trkpt>
      <trkpt lat="41.876165" lon="-2.084215">
        <ele>1013.39</ele>
        <time>2021-03-27T20:25:37Z</time>
      </trkpt>
      <trkpt lat="41.873978" lon="-2.073311">
        <ele>1022.92</ele>
        <time>2021-03-27T20:25:43Z</time>
      </trkpt>
      <trkpt lat="41.873953" lon="-2.072929">
        <ele>1021.54</ele>
        <time>2021-03-27T20:25:49Z</time>
      </trkpt>
      <trkpt lat="41.87399" lon="-2.072535">
        <ele>1020.44</ele>
        <time>2021-03-27T20:25:55Z</time>
      </trkpt>
      <trkpt lat="41.875973" lon="-2.061173">
        <ele>1002.5</ele>
        <time>2021-03-27T20:26:00Z</time>
      </trkpt>
      <trkpt lat="41.876003" lon="-2.0609">
        <ele>1001.85</ele>
        <time>2021-03-27T20:26:06Z</time>
      </trkpt>
      <trkpt lat="41.875991" lon="-2.060737">
        <ele>1001.22</ele>
        <time>2021-03-27T20:26:12Z</time>
      </trkpt>
      <trkpt lat="41.875955" lon="-2.060583">
        <ele>1000.54</ele>
        <time>2021-03-27T20:26:18Z</time>
      </trkpt>
      <trkpt lat="41.875905" lon="-2.06048">
        <ele>1000.05</ele>
        <time>2021-03-27T20:26:24Z</time>
      </trkpt>
      <trkpt lat="41.875831" lon="-2.060388">
        <ele>999.39</ele>
        <time>2021-03-27T20:26:30Z</time>
      </trkpt>
      <trkpt lat="41.875712" lon="-2.060294">
        <ele>998.59</ele>
        <time>2021-03-27T20:26:36Z</time>
      </trkpt>
      <trkpt lat="41.875439" lon="-2.060155">
        <ele>998.44</ele>
        <time>2021-03-27T20:26:41Z</time>
      </trkpt>
      <trkpt lat="41.876163" lon="-2.058817">
        <ele>1008.63</ele>
        <time>2021-03-27T20:26:45Z</time>
      </trkpt>
      <trkpt lat="41.87678" lon="-2.057621">
        <ele>1011.64</ele>
        <time>2021-03-27T20:26:48Z</time>
      </trkpt>
      <trkpt lat="41.878321" lon="-2.054487">
        <ele>1026.06</ele>
        <time>2021-03-27T20:26:51Z</time>
      </trkpt>
      <trkpt lat="41.878529" lon="-2.054265">
        <ele>1027.87</ele>
        <time>2021-03-27T20:26:54Z</time>
      </trkpt>
      <trkpt lat="41.882764" lon="-2.051693">
        <ele>1044.19</ele>
        <time>2021-03-27T20:26:58Z</time>
      </trkpt>
      <trkpt lat="41.884212" lon="-2.050865">
        <ele>1036.51</ele>
        <time>2021-03-27T20:27:01Z</time>
      </trkpt>
      <trkpt lat="41.884481" lon="-2.05061">
        <ele>1032.93</ele>
        <time>2021-03-27T20:27:04Z</time>
      </trkpt>
      <trkpt lat="41.889587" lon="-2.039958">
        <ele>1036.54</ele>
        <time>2021-03-27T20:27:07Z</time>
      </trkpt>
      <trkpt lat="41.890255" lon="-2.038465">
        <ele>1038.96</ele>
        <time>2021-03-27T20:27:11Z</time>
      </trkpt>
      <trkpt lat="41.893247" lon="-2.032247">
        <ele>1047.51</ele>
        <time>2021-03-27T20:27:14Z</time>
      </trkpt>
      <trkpt lat="41.893631" lon="-2.031405">
        <ele>1051.94</ele>
        <time>2021-03-27T20:27:17Z</time>
      </trkpt>
      <trkpt lat="41.893974" lon="-2.030788">
        <ele>1054.36</ele>
        <time>2021-03-27T20:27:20Z</time>
      </trkpt>
      <trkpt lat="41.894417" lon="-2.030182">
        <ele>1057.7</ele>
        <time>2021-03-27T20:27:24Z</time>
      </trkpt>
      <trkpt lat="41.897324" lon="-2.027757">
        <ele>1068.29</ele>
        <time>2021-03-27T20:27:27Z</time>
      </trkpt>
      <trkpt lat="41.90171" lon="-2.025029">
        <ele>1079.98</ele>
        <time>2021-03-27T20:27:30Z</time>
      </trkpt>
      <trkpt lat="41.904877" lon="-2.024143">
        <ele>1059.66</ele>
        <time>2021-03-27T20:27:33Z</time>
      </trkpt>
      <trkpt lat="41.905169" lon="-2.024143">
        <ele>1059.92</ele>
        <time>2021-03-27T20:27:37Z</time>
      </trkpt>
      <trkpt lat="41.909354" lon="-2.024917">
        <ele>1036.17</ele>
        <time>2021-03-27T20:27:40Z</time>
      </trkpt>
      <trkpt lat="41.909588" lon="-2.025074">
        <ele>1036.63</ele>
        <time>2021-03-27T20:27:43Z</time>
      </trkpt>
      <trkpt lat="41.910256" lon="-2.025725">
        <ele>1030.24</ele>
        <time>2021-03-27T20:27:46Z</time>
      </trkpt>
      <trkpt lat="41.910473" lon="-2.025815">
        <ele>1028.58</ele>
        <time>2021-03-27T20:27:50Z</time>
      </trkpt>
      <trkpt lat="41.911125" lon="-2.025815">
        <ele>1026.1</ele>
        <time>2021-03-27T20:27:53Z</time>
      </trkpt>
      <trkpt lat="41.91171" lon="-2.025748">
        <ele>1020.78</ele>
        <time>2021-03-27T20:27:56Z</time>
      </trkpt>
      <trkpt lat="41.911919" lon="-2.025647">
        <ele>1020.18</ele>
        <time>2021-03-27T20:27:59Z</time>
      </trkpt>
      <trkpt lat="41.912318" lon="-2.02537">
        <ele>1018.86</ele>
        <time>2021-03-27T20:28:03Z</time>
      </trkpt>
      <trkpt lat="41.912545" lon="-2.025355">
        <ele>1017.23</ele>
        <time>2021-03-27T20:28:06Z</time>
      </trkpt>
      <trkpt lat="41.913141" lon="-2.025684">
        <ele>1011.93</ele>
        <time>2021-03-27T20:28:09Z</time>
      </trkpt>
      <trkpt lat="41.913331" lon="-2.025707">
        <ele>1011.36</ele>
        <time>2021-03-27T20:28:12Z</time>
      </trkpt>
      <trkpt lat="41.914207" lon="-2.025624">
        <ele>1008.26</ele>
        <time>2021-03-27T20:28:16Z</time>
      </trkpt>
      <trkpt lat="41.914508" lon="-2.025703">
        <ele>1007.64</ele>
        <time>2021-03-27T20:28:19Z</time>
      </trkpt>
      <trkpt lat="41.915335" lon="-2.026017">
        <ele>1004.48</ele>
        <time>2021-03-27T20:28:22Z</time>
      </trkpt>
      <trkpt lat="41.916488" lon="-2.026298">
        <ele>996.11</ele>
        <time>2021-03-27T20:28:25Z</time>
      </trkpt>
      <trkpt lat="41.916822" lon="-2.026298">
        <ele>996.24</ele>
        <time>2021-03-27T20:28:29Z</time>
      </trkpt>
      <trkpt lat="41.918626" lon="-2.025849">
        <ele>987.28</ele>
        <time>2021-03-27T20:28:32Z</time>
      </trkpt>
      <trkpt lat="41.918851" lon="-2.025737">
        <ele>988.43</ele>
        <time>2021-03-27T20:28:35Z</time>
      </trkpt>
      <trkpt lat="41.918976" lon="-2.025512">
        <ele>989.06</ele>
        <time>2021-03-27T20:28:38Z</time>
      </trkpt>
      <trkpt lat="41.919227" lon="-2.02476">
        <ele>982.76</ele>
        <time>2021-03-27T20:28:42Z</time>
      </trkpt>
      <trkpt lat="41.919344" lon="-2.024646">
        <ele>982.36</ele>
        <time>2021-03-27T20:28:45Z</time>
      </trkpt>
      <trkpt lat="41.919461" lon="-2.024581">
        <ele>982.55</ele>
        <time>2021-03-27T20:28:48Z</time>
      </trkpt>
      <trkpt lat="41.920096" lon="-2.024378">
        <ele>982.17</ele>
        <time>2021-03-27T20:28:51Z</time>
      </trkpt>
      <trkpt lat="41.920346" lon="-2.024109">
        <ele>978.6</ele>
        <time>2021-03-27T20:28:55Z</time>
      </trkpt>
      <trkpt lat="41.920739" lon="-2.023559">
        <ele>973.28</ele>
        <time>2021-03-27T20:28:58Z</time>
      </trkpt>
      <trkpt lat="41.920981" lon="-2.023413">
        <ele>971.68</ele>
        <time>2021-03-27T20:29:01Z</time>
      </trkpt>
      <trkpt lat="41.921541" lon="-2.02338">
        <ele>972.68</ele>
        <time>2021-03-27T20:29:04Z</time>
      </trkpt>
      <trkpt lat="41.92173" lon="-2.023226">
        <ele>970.62</ele>
        <time>2021-03-27T20:29:08Z</time>
      </trkpt>
      <trkpt lat="41.922244" lon="-2.022633">
        <ele>967.64</ele>
        <time>2021-03-27T20:29:11Z</time>
      </trkpt>
      <trkpt lat="41.922326" lon="-2.022605">
        <ele>968.41</ele>
        <time>2021-03-27T20:29:14Z</time>
      </trkpt>
      <trkpt lat="41.922426" lon="-2.02265">
        <ele>968.42</ele>
        <time>2021-03-27T20:29:17Z</time>
      </trkpt>
      <trkpt lat="41.922526" lon="-2.022751">
        <ele>966.88</ele>
        <time>2021-03-27T20:29:21Z</time>
      </trkpt>
      <trkpt lat="41.923086" lon="-2.023536">
        <ele>957.88</ele>
        <time>2021-03-27T20:29:24Z</time>
      </trkpt>
      <trkpt lat="41.92328" lon="-2.023774">
        <ele>956.3</ele>
        <time>2021-03-27T20:29:27Z</time>
      </trkpt>
      <trkpt lat="41.923408" lon="-2.023857">
        <ele>955.11</ele>
        <time>2021-03-27T20:29:30Z</time>
      </trkpt>
      <trkpt lat="41.923537" lon="-2.023862">
        <ele>954.63</ele>
        <time>2021-03-27T20:29:34Z</time>
      </trkpt>
      <trkpt lat="41.923779" lon="-2.023772">
        <ele>953.86</ele>
        <time>2021-03-27T20:29:37Z</time>
      </trkpt>
      <trkpt lat="41.923949" lon="-2.023683">
        <ele>954.07</ele>
        <time>2021-03-27T20:29:40Z</time>
      </trkpt>
      <trkpt lat="41.924589" lon="-2.023772">
        <ele>948.62</ele>
        <time>2021-03-27T20:29:43Z</time>
      </trkpt>
      <trkpt lat="41.924956" lon="-2.023716">
        <ele>943.97</ele>
        <time>2021-03-27T20:29:47Z</time>
      </trkpt>
      <trkpt lat="41.925316" lon="-2.023525">
        <ele>941.61</ele>
        <time>2021-03-27T20:29:50Z</time>
      </trkpt>
      <trkpt lat="41.925454" lon="-2.02348">
        <ele>943.14</ele>
        <time>2021-03-27T20:29:53Z</time>
      </trkpt>
      <trkpt lat="41.92702" lon="-2.023506">
        <ele>930.21</ele>
        <time>2021-03-27T20:29:56Z</time>
      </trkpt>
      <trkpt lat="41.928414" lon="-2.024098">
        <ele>929.09</ele>
        <time>2021-03-27T20:30:00Z</time>
      </trkpt>
      <trkpt lat="41.928706" lon="-2.024322">
        <ele>924.2</ele>
        <time>2021-03-27T20:30:03Z</time>
      </trkpt>
      <trkpt lat="41.929182" lon="-2.024479">
        <ele>921.3</ele>
        <time>2021-03-27T20:30:06Z</time>
      </trkpt>
      <trkpt lat="41.929474" lon="-2.024435">
        <ele>921.42</ele>
        <time>2021-03-27T20:30:09Z</time>
      </trkpt>
      <trkpt lat="41.92975" lon="-2.024547">
        <ele>919.88</ele>
        <time>2021-03-27T20:30:13Z</time>
      </trkpt>
      <trkpt lat="41.93046" lon="-2.024973">
        <ele>917.54</ele>
        <time>2021-03-27T20:30:16Z</time>
      </trkpt>
      <trkpt lat="41.93086" lon="-2.025108">
        <ele>918.08</ele>
        <time>2021-03-27T20:30:19Z</time>
      </trkpt>
      <trkpt lat="41.931362" lon="-2.024985">
        <ele>918.75</ele>
        <time>2021-03-27T20:30:22Z</time>
      </trkpt>
      <trkpt lat="41.931954" lon="-2.024682">
        <ele>921.47</ele>
        <time>2021-03-27T20:30:26Z</time>
      </trkpt>
      <trkpt lat="41.932314" lon="-2.024266">
        <ele>926.18</ele>
        <time>2021-03-27T20:30:29Z</time>
      </trkpt>
      <trkpt lat="41.932469" lon="-2.024217">
        <ele>924.81</ele>
        <time>2021-03-27T20:30:32Z</time>
      </trkpt>
      <trkpt lat="41.932606" lon="-2.024233">
        <ele>923.91</ele>
        <time>2021-03-27T20:30:35Z</time>
      </trkpt>
      <trkpt lat="41.933125" lon="-2.024613">
        <ele>920.51</ele>
        <time>2021-03-27T20:30:39Z</time>
      </trkpt>
      <trkpt lat="41.933299" lon="-2.024682">
        <ele>919.99</ele>
        <time>2021-03-27T20:30:42Z</time>
      </trkpt>
      <trkpt lat="41.933624" lon="-2.024614">
        <ele>921.39</ele>
        <time>2021-03-27T20:30:45Z</time>
      </trkpt>
      <trkpt lat="41.934134" lon="-2.024569">
        <ele>918.29</ele>
        <time>2021-03-27T20:30:48Z</time>
      </trkpt>
      <trkpt lat="41.934502" lon="-2.024685">
        <ele>916.47</ele>
        <time>2021-03-27T20:30:52Z</time>
      </trkpt>
      <trkpt lat="41.934774" lon="-2.024859">
        <ele>917.66</ele>
        <time>2021-03-27T20:30:55Z</time>
      </trkpt>
      <trkpt lat="41.934969" lon="-2.025063">
        <ele>919.41</ele>
        <time>2021-03-27T20:30:58Z</time>
      </trkpt>
      <trkpt lat="41.935253" lon="-2.025613">
        <ele>915.68</ele>
        <time>2021-03-27T20:31:01Z</time>
      </trkpt>
      <trkpt lat="41.935445" lon="-2.025916">
        <ele>910.84</ele>
        <time>2021-03-27T20:31:05Z</time>
      </trkpt>
      <trkpt lat="41.935539" lon="-2.025938">
        <ele>912.03</ele>
        <time>2021-03-27T20:31:08Z</time>
      </trkpt>
      <trkpt lat="41.935654" lon="-2.025916">
        <ele>913.72</ele>
        <time>2021-03-27T20:31:11Z</time>
      </trkpt>
      <trkpt lat="41.935813" lon="-2.025835">
        <ele>916.82</ele>
        <time>2021-03-27T20:31:14Z</time>
      </trkpt>
      <trkpt lat="41.935955" lon="-2.025838">
        <ele>917.34</ele>
        <time>2021-03-27T20:31:18Z</time>
      </trkpt>
      <trkpt lat="41.936063" lon="-2.025894">
        <ele>916.88</ele>
        <time>2021-03-27T20:31:21Z</time>
      </trkpt>
      <trkpt lat="41.936165" lon="-2.026065">
        <ele>916.69</ele>
        <time>2021-03-27T20:31:24Z</time>
      </trkpt>
      <trkpt lat="41.936235" lon="-2.026299">
        <ele>917.11</ele>
        <time>2021-03-27T20:31:27Z</time>
      </trkpt>
      <trkpt lat="41.936268" lon="-2.026563">
        <ele>916.29</ele>
        <time>2021-03-27T20:31:31Z</time>
      </trkpt>
      <trkpt lat="41.936258" lon="-2.026761">
        <ele>914.0</ele>
        <time>2021-03-27T20:31:34Z</time>
      </trkpt>
      <trkpt lat="41.936157" lon="-2.027095">
        <ele>907.39</ele>
        <time>2021-03-27T20:31:37Z</time>
      </trkpt>
      <trkpt lat="41.936168" lon="-2.027225">
        <ele>906.58</ele>
        <time>2021-03-27T20:31:40Z</time>
      </trkpt>
      <trkpt lat="41.936731" lon="-2.027914">
        <ele>902.76</ele>
        <time>2021-03-27T20:31:44Z</time>
      </trkpt>
      <trkpt lat="41.936817" lon="-2.027992">
        <ele>903.3</ele>
        <time>2021-03-27T20:31:47Z</time>
      </trkpt>
      <trkpt lat="41.936906" lon="-2.028038">
        <ele>904.51</ele>
        <time>2021-03-27T20:31:50Z</time>
      </trkpt>
      <trkpt lat="41.937378" lon="-2.028183">
        <ele>911.18</ele>
        <time>2021-03-27T20:31:53Z</time>
      </trkpt>
      <trkpt lat="41.937489" lon="-2.02829">
        <ele>910.83</ele>
        <time>2021-03-27T20:31:57Z</time>
      </trkpt>
      <trkpt lat="41.937582" lon="-2.028577">
        <ele>906.23</ele>
        <time>2021-03-27T20:32:00Z</time>
      </trkpt>
      <trkpt lat="41.9378" lon="-2.028801">
        <ele>902.79</ele>
        <time>2021-03-27T20:32:03Z</time>
      </trkpt>
      <trkpt lat="41.938117" lon="-2.028936">
        <ele>897.01</ele>
        <time>2021-03-27T20:32:06Z</time>
      </trkpt>
      <trkpt lat="41.938264" lon="-2.028961">
        <ele>896.07</ele>
        <time>2021-03-27T20:32:10Z</time>
      </trkpt>
      <trkpt lat="41.93853" lon="-2.028793">
        <ele>899.76</ele>
        <time>2021-03-27T20:32:13Z</time>
      </trkpt>
      <trkpt lat="41.938612" lon="-2.028789">
        <ele>899.19</ele>
        <time>2021-03-27T20:32:16Z</time>
      </trkpt>
      <trkpt lat="41.938703" lon="-2.028834">
        <ele>900.04</ele>
        <time>2021-03-27T20:32:19Z</time>
      </trkpt>
      <trkpt lat="41.938797" lon="-2.029225">
        <ele>894.68</ele>
        <time>2021-03-27T20:32:23Z</time>
      </trkpt>
      <trkpt lat="41.939027" lon="-2.029845">
        <ele>884.88</ele>
        <time>2021-03-27T20:32:26Z</time>
      </trkpt>
      <trkpt lat="41.939211" lon="-2.030114">
        <ele>886.43</ele>
        <time>2021-03-27T20:32:29Z</time>
      </trkpt>
      <trkpt lat="41.939251" lon="-2.030307">
        <ele>884.29</ele>
        <time>2021-03-27T20:32:32Z</time>
      </trkpt>
      <trkpt lat="41.939173" lon="-2.03076">
        <ele>869.85</ele>
        <time>2021-03-27T20:32:36Z</time>
      </trkpt>
      <trkpt lat="41.939193" lon="-2.030944">
        <ele>866.98</ele>
        <time>2021-03-27T20:32:39Z</time>
      </trkpt>
      <trkpt lat="41.939267" lon="-2.031086">
        <ele>866.48</ele>
        <time>2021-03-27T20:32:42Z</time>
      </trkpt>
      <trkpt lat="41.939386" lon="-2.031181">
        <ele>867.33</ele>
        <time>2021-03-27T20:32:45Z</time>
      </trkpt>
      <trkpt lat="41.93959" lon="-2.031153">
        <ele>870.52</ele>
        <time>2021-03-27T20:32:49Z</time>
      </trkpt>
      <trkpt lat="41.939741" lon="-2.031095">
        <ele>873.49</ele>
        <time>2021-03-27T20:32:52Z</time>
      </trkpt>
      <trkpt lat="41.939845" lon="-2.031091">
        <ele>873.22</ele>
        <time>2021-03-27T20:32:55Z</time>
      </trkpt>
      <trkpt lat="41.940012" lon="-2.031181">
        <ele>869.99</ele>
        <time>2021-03-27T20:32:58Z</time>
      </trkpt>
      <trkpt lat="41.940126" lon="-2.03131">
        <ele>866.27</ele>
        <time>2021-03-27T20:33:02Z</time>
      </trkpt>
      <trkpt lat="41.940321" lon="-2.031389">
        <ele>863.38</ele>
        <time>2021-03-27T20:33:05Z</time>
      </trkpt>
      <trkpt lat="41.940421" lon="-2.03136">
        <ele>862.6</ele>
        <time>2021-03-27T20:33:08Z</time>
      </trkpt>
      <trkpt lat="41.940497" lon="-2.031315">
        <ele>862.35</ele>
        <time>2021-03-27T20:33:11Z</time>
      </trkpt>
      <trkpt lat="41.940572" lon="-2.031214">
        <ele>862.41</ele>
        <time>2021-03-27T20:33:15Z</time>
      </trkpt>
      <trkpt lat="41.940628" lon="-2.030919">
        <ele>863.87</ele>
        <time>2021-03-27T20:33:18Z</time>
      </trkpt>
      <trkpt lat="41.940646" lon="-2.030616">
        <ele>864.1</ele>
        <time>2021-03-27T20:33:21Z</time>
      </trkpt>
      <trkpt lat="41.940638" lon="-2.030182">
        <ele>865.21</ele>
        <time>2021-03-27T20:33:24Z</time>
      </trkpt>
      <trkpt lat="41.940651" lon="-2.030086">
        <ele>865.75</ele>
        <time>2021-03-27T20:33:28Z</time>
      </trkpt>
      <trkpt lat="41.94068" lon="-2.030013">
        <ele>865.72</ele>
        <time>2021-03-27T20:33:31Z</time>
      </trkpt>
      <trkpt lat="41.940906" lon="-2.029901">
        <ele>863.28</ele>
        <time>2021-03-27T20:33:34Z</time>
      </trkpt>
      <trkpt lat="41.941047" lon="-2.0299">
        <ele>860.95</ele>
        <time>2021-03-27T20:33:37Z</time>
      </trkpt>
      <trkpt lat="41.941259" lon="-2.02978">
        <ele>860.26</ele>
        <time>2021-03-27T20:33:41Z</time>
      </trkpt>
      <trkpt lat="41.94149" lon="-2.029575">
        <ele>859.81</ele>
        <time>2021-03-27T20:33:44Z</time>
      </trkpt>
      <trkpt lat="41.941582" lon="-2.029552">
        <ele>858.22</ele>
        <time>2021-03-27T20:33:47Z</time>
      </trkpt>
      <trkpt lat="41.941665" lon="-2.029575">
        <ele>855.73</ele>
        <time>2021-03-27T20:33:50Z</time>
      </trkpt>
      <trkpt lat="41.941831" lon="-2.029693">
        <ele>851.74</ele>
        <time>2021-03-27T20:33:54Z</time>
      </trkpt>
      <trkpt lat="41.941966" lon="-2.029744">
        <ele>849.29</ele>
        <time>2021-03-27T20:33:57Z</time>
      </trkpt>
      <trkpt lat="41.942129" lon="-2.029716">
        <ele>850.21</ele>
        <time>2021-03-27T20:34:00Z</time>
      </trkpt>
      <trkpt lat="41.942751" lon="-2.029497">
        <ele>848.14</ele>
        <time>2021-03-27T20:34:03Z</time>
      </trkpt>
      <trkpt lat="41.943118" lon="-2.029452">
        <ele>845.08</ele>
        <time>2021-03-27T20:34:07Z</time>
      </trkpt>
      <trkpt lat="41.943518" lon="-2.029462">
        <ele>840.4</ele>
        <time>2021-03-27T20:34:10Z</time>
      </trkpt>
      <trkpt lat="41.943777" lon="-2.029361">
        <ele>840.06</ele>
        <time>2021-03-27T20:34:13Z</time>
      </trkpt>
      <trkpt lat="41.943945" lon="-2.029385">
        <ele>837.81</ele>
        <time>2021-03-27T20:34:16Z</time>
      </trkpt>
      <trkpt lat="41.944287" lon="-2.029575">
        <ele>833.4</ele>
        <time>2021-03-27T20:34:20Z</time>
      </trkpt>
      <trkpt lat="41.944863" lon="-2.029827">
        <ele>824.72</ele>
        <time>2021-03-27T20:34:23Z</time>
      </trkpt>
      <trkpt lat="41.944964" lon="-2.029842">
        <ele>824.31</ele>
        <time>2021-03-27T20:34:26Z</time>
      </trkpt>
      <trkpt lat="41.945037" lon="-2.029816">
        <ele>823.71</ele>
        <time>2021-03-27T20:34:29Z</time>
      </trkpt>
      <trkpt lat="41.945088" lon="-2.029755">
        <ele>823.09</ele>
        <time>2021-03-27T20:34:33Z</time>
      </trkpt>
      <trkpt lat="41.945098" lon="-2.02966">
        <ele>824.05</ele>
        <time>2021-03-27T20:34:36Z</time>
      </trkpt>
      <trkpt lat="41.945017" lon="-2.02924">
        <ele>831.76</ele>
        <time>2021-03-27T20:34:39Z</time>
      </trkpt>
      <trkpt lat="41.945026" lon="-2.029073">
        <ele>832.48</ele>
        <time>2021-03-27T20:34:42Z</time>
      </trkpt>
      <trkpt lat="41.94528" lon="-2.028142">
        <ele>832.72</ele>
        <time>2021-03-27T20:34:46Z</time>
      </trkpt>
      <trkpt lat="41.945328" lon="-2.028062">
        <ele>832.83</ele>
        <time>2021-03-27T20:34:49Z</time>
      </trkpt>
      <trkpt lat="41.945381" lon="-2.028026">
        <ele>831.81</ele>
        <time>2021-03-27T20:34:52Z</time>
      </trkpt>
      <trkpt lat="41.946154" lon="-2.02815">
        <ele>808.84</ele>
        <time>2021-03-27T20:34:55Z</time>
      </trkpt>
      <trkpt lat="41.946262" lon="-2.028132">
        <ele>805.66</ele>
        <time>2021-03-27T20:34:59Z</time>
      </trkpt>
      <trkpt lat="41.946345" lon="-2.028064">
        <ele>804.37</ele>
        <time>2021-03-27T20:35:02Z</time>
      </trkpt>
      <trkpt lat="41.946407" lon="-2.02797">
        <ele>804.54</ele>
        <time>2021-03-27T20:35:05Z</time>
      </trkpt>
      <trkpt lat="41.946443" lon="-2.027855">
        <ele>806.06</ele>
        <time>2021-03-27T20:35:08Z</time>
      </trkpt>
      <trkpt lat="41.946453" lon="-2.027675">
        <ele>808.18</ele>
        <time>2021-03-27T20:35:12Z</time>
      </trkpt>
      <trkpt lat="41.946349" lon="-2.027099">
        <ele>814.44</ele>
        <time>2021-03-27T20:35:15Z</time>
      </trkpt>
      <trkpt lat="41.94635" lon="-2.026981">
        <ele>813.93</ele>
        <time>2021-03-27T20:35:18Z</time>
      </trkpt>
      <trkpt lat="41.946383" lon="-2.026844">
        <ele>812.28</ele>
        <time>2021-03-27T20:35:21Z</time>
      </trkpt>
      <trkpt lat="41.946441" lon="-2.026758">
        <ele>810.75</ele>
        <time>2021-03-27T20:35:25Z</time>
      </trkpt>
      <trkpt lat="41.946564" lon="-2.026705">
        <ele>808.05</ele>
        <time>2021-03-27T20:35:28Z</time>
      </trkpt>
      <trkpt lat="41.946678" lon="-2.026678">
        <ele>805.75</ele>
        <time>2021-03-27T20:35:31Z</time>
      </trkpt>
      <trkpt lat="41.94702" lon="-2.026684">
        <ele>801.77</ele>
        <time>2021-03-27T20:35:34Z</time>
      </trkpt>
      <trkpt lat="41.948069" lon="-2.026893">
        <ele>797.09</ele>
        <time>2021-03-27T20:35:38Z</time>
      </trkpt>
      <trkpt lat="41.94829" lon="-2.026984">
        <ele>790.64</ele>
        <time>2021-03-27T20:35:41Z</time>
      </trkpt>
      <trkpt lat="41.948401" lon="-2.026946">
        <ele>789.73</ele>
        <time>2021-03-27T20:35:44Z</time>
      </trkpt>
      <trkpt lat="41.948703" lon="-2.026732">
        <ele>796.21</ele>
        <time>2021-03-27T20:35:47Z</time>
      </trkpt>
      <trkpt lat="41.948828" lon="-2.026691">
        <ele>798.58</ele>
        <time>2021-03-27T20:35:51Z</time>
      </trkpt>
      <trkpt lat="41.948937" lon="-2.026711">
        <ele>798.25</ele>
        <time>2021-03-27T20:35:54Z</time>
      </trkpt>
      <trkpt lat="41.94907" lon="-2.026789">
        <ele>795.79</ele>
        <time>2021-03-27T20:35:57Z</time>
      </trkpt>
      <trkpt lat="41.949202" lon="-2.026966">
        <ele>788.31</ele>
        <time>2021-03-27T20:36:00Z</time>
      </trkpt>
      <trkpt lat="41.949318" lon="-2.027191">
        <ele>779.17</ele>
        <time>2021-03-27T20:36:04Z</time>
      </trkpt>
      <trkpt lat="41.949421" lon="-2.027454">
        <ele>769.01</ele>
        <time>2021-03-27T20:36:07Z</time>
      </trkpt>
      <trkpt lat="41.949467" lon="-2.027479">
        <ele>768.6</ele>
        <time>2021-03-27T20:36:10Z</time>
      </trkpt>
      <trkpt lat="41.949467" lon="-2.027479">
        <ele>768.6</ele>
        <time>2021-03-27T20:36:10Z</time>
      </trkpt>
      <trkpt lat="41.949421" lon="-2.027454">
        <ele>769.01</ele>
        <time>2021-03-27T20:36:13Z</time>
      </trkpt>
      <trkpt lat="41.949318" lon="-2.027191">
        <ele>779.17</ele>
        <time>2021-03-27T20:36:17Z</time>
      </trkpt>
      <trkpt lat="41.949202" lon="-2.026966">
        <ele>788.31</ele>
        <time>2021-03-27T20:36:20Z</time>
      </trkpt>
      <trkpt lat="41.94907" lon="-2.026789">
        <ele>795.79</ele>
        <time>2021-03-27T20:36:23Z</time>
      </trkpt>
      <trkpt lat="41.948937" lon="-2.026711">
        <ele>798.25</ele>
        <time>2021-03-27T20:36:26Z</time>
      </trkpt>
      <trkpt lat="41.948828" lon="-2.026691">
        <ele>798.58</ele>
        <time>2021-03-27T20:36:29Z</time>
      </trkpt>
      <trkpt lat="41.948703" lon="-2.026732">
        <ele>796.21</ele>
        <time>2021-03-27T20:36:32Z</time>
      </trkpt>
      <trkpt lat="41.948401" lon="-2.026946">
        <ele>789.73</ele>
        <time>2021-03-27T20:36:36Z</time>
      </trkpt>
      <trkpt lat="41.94829" lon="-2.026984">
        <ele>790.64</ele>
        <time>2021-03-27T20:36:39Z</time>
      </trkpt>
      <trkpt lat="41.948069" lon="-2.026893">
        <ele>797.09</ele>
        <time>2021-03-27T20:36:42Z</time>
      </trkpt>
      <trkpt lat="41.94702" lon="-2.026684">
        <ele>801.77</ele>
        <time>2021-03-27T20:36:45Z</time>
      </trkpt>
      <trkpt lat="41.946678" lon="-2.026678">
        <ele>805.75</ele>
        <time>2021-03-27T20:36:48Z</time>
      </trkpt>
      <trkpt lat="41.946564" lon="-2.026705">
        <ele>808.05</ele>
        <time>2021-03-27T20:36:51Z</time>
      </trkpt>
      <trkpt lat="41.946441" lon="-2.026758">
        <ele>810.75</ele>
        <time>2021-03-27T20:36:54Z</time>
      </trkpt>
      <trkpt lat="41.946383" lon="-2.026844">
        <ele>812.28</ele>
        <time>2021-03-27T20:36:58Z</time>
      </trkpt>
      <trkpt lat="41.94635" lon="-2.026981">
        <ele>813.93</ele>
        <time>2021-03-27T20:37:01Z</time>
      </trkpt>
      <trkpt lat="41.946349" lon="-2.027099">
        <ele>814.44</ele>
        <time>2021-03-27T20:37:04Z</time>
      </trkpt>
      <trkpt lat="41.946453" lon="-2.027675">
        <ele>808.18</ele>
        <time>2021-03-27T20:37:07Z</time>
      </trkpt>
      <trkpt lat="41.946443" lon="-2.027855">
        <ele>806.06</ele>
        <time>2021-03-27T20:37:10Z</time>
      </trkpt>
      <trkpt lat="41.946407" lon="-2.02797">
        <ele>804.54</ele>
        <time>2021-03-27T20:37:13Z</time>
      </trkpt>
      <trkpt lat="41.946345" lon="-2.028064">
        <ele>804.37</ele>
        <time>2021-03-27T20:37:16Z</time>
      </trkpt>
      <trkpt lat="41.946262" lon="-2.028132">
        <ele>805.66</ele>
        <time>2021-03-27T20:37:20Z</time>
      </trkpt>
      <trkpt lat="41.946154" lon="-2.02815">
        <ele>808.84</ele>
        <time>2021-03-27T20:37:23Z</time>
      </trkpt>
      <trkpt lat="41.945381" lon="-2.028026">
        <ele>831.81</ele>
        <time>2021-03-27T20:37:26Z</time>
      </trkpt>
      <trkpt lat="41.945328" lon="-2.028062">
        <ele>832.83</ele>
        <time>2021-03-27T20:37:29Z</time>
      </trkpt>
      <trkpt lat="41.94528" lon="-2.028142">
        <ele>832.72</ele>
        <time>2021-03-27T20:37:32Z</time>
      </trkpt>
      <trkpt lat="41.945026" lon="-2.029073">
        <ele>832.48</ele>
        <time>2021-03-27T20:37:35Z</time>
      </trkpt>
      <trkpt lat="41.945017" lon="-2.02924">
        <ele>831.76</ele>
        <time>2021-03-27T20:37:39Z</time>
      </trkpt>
      <trkpt lat="41.945098" lon="-2.02966">
        <ele>824.05</ele>
        <time>2021-03-27T20:37:42Z</time>
      </trkpt>
      <trkpt lat="41.945088" lon="-2.029755">
        <ele>823.09</ele>
        <time>2021-03-27T20:37:45Z</time>
      </trkpt>
      <trkpt lat="41.945037" lon="-2.029816">
        <ele>823.71</ele>
        <time>2021-03-27T20:37:48Z</time>
      </trkpt>
      <trkpt lat="41.944964" lon="-2.029842">
        <ele>824.31</ele>
        <time>2021-03-27T20:37:51Z</time>
      </trkpt>
      <trkpt lat="41.944863" lon="-2.029827">
        <ele>824.72</ele>
        <time>2021-03-27T20:37:54Z</time>
      </trkpt>
      <trkpt lat="41.944287" lon="-2.029575">
        <ele>833.4</ele>
        <time>2021-03-27T20:37:57Z</time>
      </trkpt>
      <trkpt lat="41.943945" lon="-2.029385">
        <ele>837.81</ele>
        <time>2021-03-27T20:38:01Z</time>
      </trkpt>
      <trkpt lat="41.943777" lon="-2.029361">
        <ele>840.06</ele>
        <time>2021-03-27T20:38:04Z</time>
      </trkpt>
      <trkpt lat="41.943518" lon="-2.029462">
        <ele>840.4</ele>
        <time>2021-03-27T20:38:07Z</time>
      </trkpt>
      <trkpt lat="41.943118" lon="-2.029452">
        <ele>845.08</ele>
        <time>2021-03-27T20:38:10Z</time>
      </trkpt>
      <trkpt lat="41.942751" lon="-2.029497">
        <ele>848.14</ele>
        <time>2021-03-27T20:38:13Z</time>
      </trkpt>
      <trkpt lat="41.942129" lon="-2.029716">
        <ele>850.21</ele>
        <time>2021-03-27T20:38:16Z</time>
      </trkpt>
      <trkpt lat="41.941966" lon="-2.029744">
        <ele>849.29</ele>
        <time>2021-03-27T20:38:19Z</time>
      </trkpt>
      <trkpt lat="41.941831" lon="-2.029693">
        <ele>851.74</ele>
        <time>2021-03-27T20:38:23Z</time>
      </trkpt>
      <trkpt lat="41.941665" lon="-2.029575">
        <ele>855.73</ele>
        <time>2021-03-27T20:38:26Z</time>
      </trkpt>
      <trkpt lat="41.941582" lon="-2.029552">
        <ele>858.22</ele>
        <time>2021-03-27T20:38:29Z</time>
      </trkpt>
      <trkpt lat="41.94149" lon="-2.029575">
        <ele>859.81</ele>
        <time>2021-03-27T20:38:32Z</time>
      </trkpt>
      <trkpt lat="41.941259" lon="-2.02978">
        <ele>860.26</ele>
        <time>2021-03-27T20:38:35Z</time>
      </trkpt>
      <trkpt lat="41.941047" lon="-2.0299">
        <ele>860.95</ele>
        <time>2021-03-27T20:38:38Z</time>
      </trkpt>
      <trkpt lat="41.940906" lon="-2.029901">
        <ele>863.28</ele>
        <time>2021-03-27T20:38:42Z</time>
      </trkpt>
      <trkpt lat="41.94068" lon="-2.030013">
        <ele>865.72</ele>
        <time>2021-03-27T20:38:45Z</time>
      </trkpt>
      <trkpt lat="41.940651" lon="-2.030086">
        <ele>865.75</ele>
        <time>2021-03-27T20:38:48Z</time>
      </trkpt>
      <trkpt lat="41.940638" lon="-2.030182">
        <ele>865.21</ele>
        <time>2021-03-27T20:38:51Z</time>
      </trkpt>
      <trkpt lat="41.940646" lon="-2.030616">
        <ele>864.1</ele>
        <time>2021-03-27T20:38:54Z</time>
      </trkpt>
      <trkpt lat="41.940628" lon="-2.030919">
        <ele>863.87</ele>
        <time>2021-03-27T20:38:57Z</time>
      </trkpt>
      <trkpt lat="41.940572" lon="-2.031214">
        <ele>862.41</ele>
        <time>2021-03-27T20:39:00Z</time>
      </trkpt>
      <trkpt lat="41.940497" lon="-2.031315">
        <ele>862.35</ele>
        <time>2021-03-27T20:39:04Z</time>
      </trkpt>
      <trkpt lat="41.940421" lon="-2.03136">
        <ele>862.6</ele>
        <time>2021-03-27T20:39:07Z</time>
      </trkpt>
      <trkpt lat="41.940321" lon="-2.031389">
        <ele>863.38</ele>
        <time>2021-03-27T20:39:10Z</time>
      </trkpt>
      <trkpt lat="41.940126" lon="-2.03131">
        <ele>866.27</ele>
        <time>2021-03-27T20:39:13Z</time>
      </trkpt>
      <trkpt lat="41.940012" lon="-2.031181">
        <ele>869.99</ele>
        <time>2021-03-27T20:39:16Z</time>
      </trkpt>
      <trkpt lat="41.939845" lon="-2.031091">
        <ele>873.22</ele>
        <time>2021-03-27T20:39:19Z</time>
      </trkpt>
      <trkpt lat="41.939741" lon="-2.031095">
        <ele>873.49</ele>
        <time>2021-03-27T20:39:23Z</time>
      </trkpt>
      <trkpt lat="41.93959" lon="-2.031153">
        <ele>870.52</ele>
        <time>2021-03-27T20:39:26Z</time>
      </trkpt>
      <trkpt lat="41.939386" lon="-2.031181">
        <ele>867.33</ele>
        <time>2021-03-27T20:39:29Z</time>
      </trkpt>
      <trkpt lat="41.939267" lon="-2.031086">
        <ele>866.48</ele>
        <time>2021-03-27T20:39:32Z</time>
      </trkpt>
      <trkpt lat="41.939193" lon="-2.030944">
        <ele>866.98</ele>
        <time>2021-03-27T20:39:35Z</time>
      </trkpt>
      <trkpt lat="41.939173" lon="-2.03076">
        <ele>869.85</ele>
        <time>2021-03-27T20:39:38Z</time>
      </trkpt>
      <trkpt lat="41.939251" lon="-2.030307">
        <ele>884.29</ele>
        <time>2021-03-27T20:39:41Z</time>
      </trkpt>
      <trkpt lat="41.939211" lon="-2.030114">
        <ele>886.43</ele>
        <time>2021-03-27T20:39:45Z</time>
      </trkpt>
      <trkpt lat="41.939027" lon="-2.029845">
        <ele>884.88</ele>
        <time>2021-03-27T20:39:48Z</time>
      </trkpt>
      <trkpt lat="41.938797" lon="-2.029225">
        <ele>894.68</ele>
        <time>2021-03-27T20:39:51Z</time>
      </trkpt>
      <trkpt lat="41.938703" lon="-2.028834">
        <ele>900.04</ele>
        <time>2021-03-27T20:39:54Z</time>
      </trkpt>
      <trkpt lat="41.938612" lon="-2.028789">
        <ele>899.19</ele>
        <time>2021-03-27T20:39:57Z</time>
      </trkpt>
      <trkpt lat="41.93853" lon="-2.028793">
        <ele>899.76</ele>
        <time>2021-03-27T20:40:00Z</time>
      </trkpt>
      <trkpt lat="41.938264" lon="-2.028961">
        <ele>896.07</ele>
        <time>2021-03-27T20:40:03Z</time>
      </trkpt>
      <trkpt lat="41.938117" lon="-2.028936">
        <ele>897.01</ele>
        <time>2021-03-27T20:40:07Z</time>
      </trkpt>
      <trkpt lat="41.9378" lon="-2.028801">
        <ele>902.79</ele>
        <time>2021-03-27T20:40:10Z</time>
      </trkpt>
      <trkpt lat="41.937582" lon="-2.028577">
        <ele>906.23</ele>
        <time>2021-03-27T20:40:13Z</time>
      </trkpt>
      <trkpt lat="41.937489" lon="-2.02829">
        <ele>910.83</ele>
        <time>2021-03-27T20:40:16Z</time>
      </trkpt>
      <trkpt lat="41.937378" lon="-2.028183">
        <ele>911.18</ele>
        <time>2021-03-27T20:40:19Z</time>
      </trkpt>
      <trkpt lat="41.936906" lon="-2.028038">
        <ele>904.51</ele>
        <time>2021-03-27T20:40:22Z</time>
      </trkpt>
      <trkpt lat="41.936817" lon="-2.027992">
        <ele>903.3</ele>
        <time>2021-03-27T20:40:26Z</time>
      </trkpt>
      <trkpt lat="41.936731" lon="-2.027914">
        <ele>902.76</ele>
        <time>2021-03-27T20:40:29Z</time>
      </trkpt>
      <trkpt lat="41.936168" lon="-2.027225">
        <ele>906.58</ele>
        <time>2021-03-27T20:40:32Z</time>
      </trkpt>
      <trkpt lat="41.936157" lon="-2.027095">
        <ele>907.39</ele>
        <time>2021-03-27T20:40:35Z</time>
      </trkpt>
      <trkpt lat="41.936258" lon="-2.026761">
        <ele>914.0</ele>
        <time>2021-03-27T20:40:38Z</time>
      </trkpt>
      <trkpt lat="41.936268" lon="-2.026563">
        <ele>916.29</ele>
        <time>2021-03-27T20:40:41Z</time>
      </trkpt>
      <trkpt lat="41.936235" lon="-2.026299">
        <ele>917.11</ele>
        <time>2021-03-27T20:40:44Z</time>
      </trkpt>
      <trkpt lat="41.936165" lon="-2.026065">
        <ele>916.69</ele>
        <time>2021-03-27T20:40:48Z</time>
      </trkpt>
      <trkpt lat="41.936063" lon="-2.025894">
        <ele>916.88</ele>
        <time>2021-03-27T20:40:51Z</time>
      </trkpt>
      <trkpt lat="41.935955" lon="-2.025838">
        <ele>917.34</ele>
        <time>2021-03-27T20:40:54Z</time>
      </trkpt>
      <trkpt lat="41.935813" lon="-2.025835">
        <ele>916.82</ele>
        <time>2021-03-27T20:40:57Z</time>
      </trkpt>
      <trkpt lat="41.935654" lon="-2.025916">
        <ele>913.72</ele>
        <time>2021-03-27T20:41:00Z</time>
      </trkpt>
      <trkpt lat="41.935539" lon="-2.025938">
        <ele>912.03</ele>
        <time>2021-03-27T20:41:03Z</time>
      </trkpt>
      <trkpt lat="41.935445" lon="-2.025916">
        <ele>910.84</ele>
        <time>2021-03-27T20:41:06Z</time>
      </trkpt>
      <trkpt lat="41.935253" lon="-2.025613">
        <ele>915.68</ele>
        <time>2021-03-27T20:41:10Z</time>
      </trkpt>
      <trkpt lat="41.934969" lon="-2.025063">
        <ele>919.41</ele>
        <time>2021-03-27T20:41:13Z</time>
      </trkpt>
      <trkpt lat="41.934774" lon="-2.024859">
        <ele>917.66</ele>
        <time>2021-03-27T20:41:16Z</time>
      </trkpt>
      <trkpt lat="41.934502" lon="-2.024685">
        <ele>916.47</ele>
        <time>2021-03-27T20:41:19Z</time>
      </trkpt>
      <trkpt lat="41.934134" lon="-2.024569">
        <ele>918.29</ele>
        <time>2021-03-27T20:41:22Z</time>
      </trkpt>
      <trkpt lat="41.933624" lon="-2.024614">
        <ele>921.39</ele>
        <time>2021-03-27T20:41:25Z</time>
      </trkpt>
      <trkpt lat="41.933299" lon="-2.024682">
        <ele>919.99</ele>
        <time>2021-03-27T20:41:29Z</time>
      </trkpt>
      <trkpt lat="41.933125" lon="-2.024613">
        <ele>920.51</ele>
        <time>2021-03-27T20:41:32Z</time>
      </trkpt>
      <trkpt lat="41.932606" lon="-2.024233">
        <ele>923.91</ele>
        <time>2021-03-27T20:41:35Z</time>
      </trkpt>
      <trkpt lat="41.932469" lon="-2.024217">
        <ele>924.81</ele>
        <time>2021-03-27T20:41:38Z</time>
      </trkpt>
      <trkpt lat="41.932314" lon="-2.024266">
        <ele>926.18</ele>
        <time>2021-03-27T20:41:41Z</time>
      </trkpt>
      <trkpt lat="41.931954" lon="-2.024682">
        <ele>921.47</ele>
        <time>2021-03-27T20:41:44Z</time>
      </trkpt>
      <trkpt lat="41.931362" lon="-2.024985">
        <ele>918.75</ele>
        <time>2021-03-27T20:41:47Z</time>
      </trkpt>
      <trkpt lat="41.93086" lon="-2.025108">
        <ele>918.08</ele>
        <time>2021-03-27T20:41:51Z</time>
      </trkpt>
      <trkpt lat="41.93046" lon="-2.024973">
        <ele>917.54</ele>
        <time>2021-03-27T20:41:54Z</time>
      </trkpt>
      <trkpt lat="41.92975" lon="-2.024547">
        <ele>919.88</ele>
        <time>2021-03-27T20:41:57Z</time>
      </trkpt>
      <trkpt lat="41.929474" lon="-2.024435">
        <ele>921.42</ele>
        <time>2021-03-27T20:42:00Z</time>
      </trkpt>
      <trkpt lat="41.929182" lon="-2.024479">
        <ele>921.3</ele>
        <time>2021-03-27T20:42:03Z</time>
      </trkpt>
      <trkpt lat="41.928706" lon="-2.024322">
        <ele>924.2</ele>
        <time>2021-03-27T20:42:06Z</time>
      </trkpt>
      <trkpt lat="41.928414" lon="-2.024098">
        <ele>929.09</ele>
        <time>2021-03-27T20:42:10Z</time>
      </trkpt>
      <trkpt lat="41.92702" lon="-2.023506">
        <ele>930.21</ele>
        <time>2021-03-27T20:42:13Z</time>
      </trkpt>
      <trkpt lat="41.925454" lon="-2.02348">
        <ele>943.14</ele>
        <time>2021-03-27T20:42:16Z</time>
      </trkpt>
      <trkpt lat="41.925316" lon="-2.023525">
        <ele>941.61</ele>
        <time>2021-03-27T20:42:19Z</time>
      </trkpt>
      <trkpt lat="41.924956" lon="-2.023716">
        <ele>943.97</ele>
        <time>2021-03-27T20:42:22Z</time>
      </trkpt>
      <trkpt lat="41.924589" lon="-2.023772">
        <ele>948.62</ele>
        <time>2021-03-27T20:42:25Z</time>
      </trkpt>
      <trkpt lat="41.923949" lon="-2.023683">
        <ele>954.07</ele>
        <time>2021-03-27T20:42:28Z</time>
      </trkpt>
      <trkpt lat="41.923779" lon="-2.023772">
        <ele>953.86</ele>
        <time>2021-03-27T20:42:32Z</time>
      </trkpt>
      <trkpt lat="41.923537" lon="-2.023862">
        <ele>954.63</ele>
        <time>2021-03-27T20:42:35Z</time>
      </trkpt>
      <trkpt lat="41.923408" lon="-2.023857">
        <ele>955.11</ele>
        <time>2021-03-27T20:42:38Z</time>
      </trkpt>
      <trkpt lat="41.92328" lon="-2.023774">
        <ele>956.3</ele>
        <time>2021-03-27T20:42:41Z</time>
      </trkpt>
      <trkpt lat="41.923086" lon="-2.023536">
        <ele>957.88</ele>
        <time>2021-03-27T20:42:44Z</time>
      </trkpt>
      <trkpt lat="41.922526" lon="-2.022751">
        <ele>966.88</ele>
        <time>2021-03-27T20:42:47Z</time>
      </trkpt>
      <trkpt lat="41.922426" lon="-2.02265">
        <ele>968.42</ele>
        <time>2021-03-27T20:42:50Z</time>
      </trkpt>
      <trkpt lat="41.922326" lon="-2.022605">
        <ele>968.41</ele>
        <time>2021-03-27T20:42:54Z</time>
      </trkpt>
      <trkpt lat="41.922244" lon="-2.022633">
        <ele>967.64</ele>
        <time>2021-03-27T20:42:57Z</time>
      </trkpt>
      <trkpt lat="41.92173" lon="-2.023226">
        <ele>970.62</ele>
        <time>2021-03-27T20:43:00Z</time>
      </trkpt>
      <trkpt lat="41.921541" lon="-2.02338">
        <ele>972.68</ele>
        <time>2021-03-27T20:43:03Z</time>
      </trkpt>
      <trkpt lat="41.920981" lon="-2.023413">
        <ele>971.68</ele>
        <time>2021-03-27T20:43:06Z</time>
      </trkpt>
      <trkpt lat="41.920739" lon="-2.023559">
        <ele>973.28</ele>
        <time>2021-03-27T20:43:09Z</time>
      </trkpt>
      <trkpt lat="41.920346" lon="-2.024109">
        <ele>978.6</ele>
        <time>2021-03-27T20:43:13Z</time>
      </trkpt>
      <trkpt lat="41.920096" lon="-2.024378">
        <ele>982.17</ele>
        <time>2021-03-27T20:43:16Z</time>
      </trkpt>
      <trkpt lat="41.919461" lon="-2.024581">
        <ele>982.55</ele>
        <time>2021-03-27T20:43:19Z</time>
      </trkpt>
      <trkpt lat="41.919344" lon="-2.024646">
        <ele>982.36</ele>
        <time>2021-03-27T20:43:22Z</time>
      </trkpt>
      <trkpt lat="41.919227" lon="-2.02476">
        <ele>982.76</ele>
        <time>2021-03-27T20:43:25Z</time>
      </trkpt>
      <trkpt lat="41.918976" lon="-2.025512">
        <ele>989.06</ele>
        <time>2021-03-27T20:43:28Z</time>
      </trkpt>
      <trkpt lat="41.918851" lon="-2.025737">
        <ele>988.43</ele>
        <time>2021-03-27T20:43:31Z</time>
      </trkpt>
      <trkpt lat="41.918626" lon="-2.025849">
        <ele>987.28</ele>
        <time>2021-03-27T20:43:35Z</time>
      </trkpt>
      <trkpt lat="41.916822" lon="-2.026298">
        <ele>996.24</ele>
        <time>2021-03-27T20:43:38Z</time>
      </trkpt>
      <trkpt lat="41.916488" lon="-2.026298">
        <ele>996.11</ele>
        <time>2021-03-27T20:43:41Z</time>
      </trkpt>
      <trkpt lat="41.915335" lon="-2.026017">
        <ele>1004.48</ele>
        <time>2021-03-27T20:43:44Z</time>
      </trkpt>
      <trkpt lat="41.914508" lon="-2.025703">
        <ele>1007.64</ele>
        <time>2021-03-27T20:43:47Z</time>
      </trkpt>
      <trkpt lat="41.914207" lon="-2.025624">
        <ele>1008.26</ele>
        <time>2021-03-27T20:43:50Z</time>
      </trkpt>
      <trkpt lat="41.913331" lon="-2.025707">
        <ele>1011.36</ele>
        <time>2021-03-27T20:43:53Z</time>
      </trkpt>
      <trkpt lat="41.913141" lon="-2.025684">
        <ele>1011.93</ele>
        <time>2021-03-27T20:43:57Z</time>
      </trkpt>
      <trkpt lat="41.912545" lon="-2.025355">
        <ele>1017.23</ele>
        <time>2021-03-27T20:44:00Z</time>
      </trkpt>
      <trkpt lat="41.912318" lon="-2.02537">
        <ele>1018.86</ele>
        <time>2021-03-27T20:44:03Z</time>
      </trkpt>
      <trkpt lat="41.911919" lon="-2.025647">
        <ele>1020.18</ele>
        <time>2021-03-27T20:44:06Z</time>
      </trkpt>
      <trkpt lat="41.91171" lon="-2.025748">
        <ele>1020.78</ele>
        <time>2021-03-27T20:44:09Z</time>
      </trkpt>
      <trkpt lat="41.911125" lon="-2.025815">
        <ele>1026.1</ele>
        <time>2021-03-27T20:44:12Z</time>
      </trkpt>
      <trkpt lat="41.910473" lon="-2.025815">
        <ele>1028.58</ele>
        <time>2021-03-27T20:44:16Z</time>
      </trkpt>
      <trkpt lat="41.910256" lon="-2.025725">
        <ele>1030.24</ele>
        <time>2021-03-27T20:44:19Z</time>
      </trkpt>
      <trkpt lat="41.909588" lon="-2.025074">
        <ele>1036.63</ele>
        <time>2021-03-27T20:44:22Z</time>
      </trkpt>
      <trkpt lat="41.909354" lon="-2.024917">
        <ele>1036.17</ele>
        <time>2021-03-27T20:44:25Z</time>
      </trkpt>
      <trkpt lat="41.905169" lon="-2.024143">
        <ele>1059.92</ele>
        <time>2021-03-27T20:44:28Z</time>
      </trkpt>
      <trkpt lat="41.904877" lon="-2.024143">
        <ele>1059.66</ele>
        <time>2021-03-27T20:44:31Z</time>
      </trkpt>
      <trkpt lat="41.90171" lon="-2.025029">
        <ele>1079.98</ele>
        <time>2021-03-27T20:44:34Z</time>
      </trkpt>
      <trkpt lat="41.897324" lon="-2.027757">
        <ele>1068.29</ele>
        <time>2021-03-27T20:44:38Z</time>
      </trkpt>
      <trkpt lat="41.894417" lon="-2.030182">
        <ele>1057.7</ele>
        <time>2021-03-27T20:44:41Z</time>
      </trkpt>
      <trkpt lat="41.893974" lon="-2.030788">
        <ele>1054.36</ele>
        <time>2021-03-27T20:44:44Z</time>
      </trkpt>
      <trkpt lat="41.893631" lon="-2.031405">
        <ele>1051.94</ele>
        <time>2021-03-27T20:44:47Z</time>
      </trkpt>
      <trkpt lat="41.893247" lon="-2.032247">
        <ele>1047.51</ele>
        <time>2021-03-27T20:44:50Z</time>
      </trkpt>
      <trkpt lat="41.890255" lon="-2.038465">
        <ele>1038.96</ele>
        <time>2021-03-27T20:44:53Z</time>
      </trkpt>
      <trkpt lat="41.889587" lon="-2.039958">
        <ele>1036.54</ele>
        <time>2021-03-27T20:44:57Z</time>
      </trkpt>
      <trkpt lat="41.884481" lon="-2.05061">
        <ele>1032.93</ele>
        <time>2021-03-27T20:45:00Z</time>
      </trkpt>
      <trkpt lat="41.884212" lon="-2.050865">
        <ele>1036.51</ele>
        <time>2021-03-27T20:45:03Z</time>
      </trkpt>
      <trkpt lat="41.882764" lon="-2.051693">
        <ele>1044.19</ele>
        <time>2021-03-27T20:45:06Z</time>
      </trkpt>
      <trkpt lat="41.878529" lon="-2.054265">
        <ele>1027.87</ele>
        <time>2021-03-27T20:45:09Z</time>
      </trkpt>
      <trkpt lat="41.878321" lon="-2.054487">
        <ele>1026.06</ele>
        <time>2021-03-27T20:45:12Z</time>
      </trkpt>
      <trkpt lat="41.87678" lon="-2.057621">
        <ele>1011.64</ele>
        <time>2021-03-27T20:45:15Z</time>
      </trkpt>
      <trkpt lat="41.876428" lon="-2.056596">
        <ele>1008.28</ele>
        <time>2021-03-27T20:45:26Z</time>
      </trkpt>
      <trkpt lat="41.876295" lon="-2.056301">
        <ele>1008.21</ele>
        <time>2021-03-27T20:45:36Z</time>
      </trkpt>
      <trkpt lat="41.876022" lon="-2.055875">
        <ele>1007.41</ele>
        <time>2021-03-27T20:45:46Z</time>
      </trkpt>
      <trkpt lat="41.875028" lon="-2.05298">
        <ele>999.07</ele>
        <time>2021-03-27T20:45:56Z</time>
      </trkpt>
      <trkpt lat="41.874941" lon="-2.052788">
        <ele>998.58</ele>
        <time>2021-03-27T20:46:06Z</time>
      </trkpt>
      <trkpt lat="41.874837" lon="-2.052643">
        <ele>996.86</ele>
        <time>2021-03-27T20:46:16Z</time>
      </trkpt>
      <trkpt lat="41.87467" lon="-2.052529">
        <ele>994.83</ele>
        <time>2021-03-27T20:46:26Z</time>
      </trkpt>
      <trkpt lat="41.873688" lon="-2.052157">
        <ele>990.1</ele>
        <time>2021-03-27T20:46:36Z</time>
      </trkpt>
      <trkpt lat="41.872571" lon="-2.051744">
        <ele>982.58</ele>
        <time>2021-03-27T20:46:46Z</time>
      </trkpt>
      <trkpt lat="41.871126" lon="-2.051258">
        <ele>978.97</ele>
        <time>2021-03-27T20:46:56Z</time>
      </trkpt>
      <trkpt lat="41.871274" lon="-2.033119">
        <ele>973.81</ele>
        <time>2021-03-27T20:47:19Z</time>
      </trkpt>
      <trkpt lat="41.871315" lon="-2.029331">
        <ele>974.73</ele>
        <time>2021-03-27T20:47:41Z</time>
      </trkpt>
      <trkpt lat="41.871325" lon="-2.025406">
        <ele>969.0</ele>
        <time>2021-03-27T20:48:04Z</time>
      </trkpt>
      <trkpt lat="41.871391" lon="-2.023304">
        <ele>971.01</ele>
        <time>2021-03-27T20:48:26Z</time>
      </trkpt>
      <trkpt lat="41.87141" lon="-2.01541">
        <ele>973.53</ele>
        <time>2021-03-27T20:48:49Z</time>
      </trkpt>
      <trkpt lat="41.871465" lon="-2.012746">
        <ele>971.16</ele>
        <time>2021-03-27T20:49:12Z</time>
      </trkpt>
      <trkpt lat="41.871498" lon="-2.007438">
        <ele>968.47</ele>
        <time>2021-03-27T20:49:34Z</time>
      </trkpt>
      <trkpt lat="41.871542" lon="-2.004765">
        <ele>970.48</ele>
        <time>2021-03-27T20:49:57Z</time>
      </trkpt>
      <trkpt lat="41.871774" lon="-1.99693">
        <ele>965.75</ele>
        <time>2021-03-27T20:50:20Z</time>
      </trkpt>
      <trkpt lat="41.87183" lon="-1.995423">
        <ele>960.65</ele>
        <time>2021-03-27T20:50:42Z</time>
      </trkpt>
      <trkpt lat="41.871825" lon="-1.993201">
        <ele>965.67</ele>
        <time>2021-03-27T20:51:05Z</time>
      </trkpt>
      <trkpt lat="41.87168" lon="-1.993236">
        <ele>964.75</ele>
        <time>2021-03-27T20:51:13Z</time>
      </trkpt>
      <trkpt lat="41.871537" lon="-1.993211">
        <ele>963.83</ele>
        <time>2021-03-27T20:51:21Z</time>
      </trkpt>
      <trkpt lat="41.871415" lon="-1.993157">
        <ele>963.13</ele>
        <time>2021-03-27T20:51:28Z</time>
      </trkpt>
      <trkpt lat="41.870217" lon="-1.992424">
        <ele>957.49</ele>
        <time>2021-03-27T20:51:36Z</time>
      </trkpt>
      <trkpt lat="41.869388" lon="-1.991959">
        <ele>958.95</ele>
        <time>2021-03-27T20:51:44Z</time>
      </trkpt>
      <trkpt lat="41.869115" lon="-1.991831">
        <ele>960.1</ele>
        <time>2021-03-27T20:51:52Z</time>
      </trkpt>
      <trkpt lat="41.867403" lon="-1.991411">
        <ele>959.91</ele>
        <time>2021-03-27T20:52:00Z</time>
      </trkpt>
      <trkpt lat="41.861266" lon="-1.991647">
        <ele>966.11</ele>
        <time>2021-03-27T20:52:08Z</time>
      </trkpt>
      <trkpt lat="41.859184" lon="-1.991699">
        <ele>968.82</ele>
        <time>2021-03-27T20:52:16Z</time>
      </trkpt>
      <trkpt lat="41.859311" lon="-1.991734">
        <ele>968.24</ele>
        <time>2021-03-27T20:52:24Z</time>
      </trkpt>
      <trkpt lat="41.859047" lon="-1.991698">
        <ele>968.84</ele>
        <time>2021-03-27T20:52:31Z</time>
      </trkpt>
      <trkpt lat="41.858784" lon="-1.991618">
        <ele>969.35</ele>
        <time>2021-03-27T20:52:39Z</time>
      </trkpt>
      <trkpt lat="41.855823" lon="-1.990922">
        <ele>972.04</ele>
        <time>2021-03-27T20:52:47Z</time>
      </trkpt>
      <trkpt lat="41.855586" lon="-1.990926">
        <ele>972.89</ele>
        <time>2021-03-27T20:52:55Z</time>
      </trkpt>
      <trkpt lat="41.854619" lon="-1.991083">
        <ele>975.43</ele>
        <time>2021-03-27T20:53:03Z</time>
      </trkpt>
      <trkpt lat="41.850489" lon="-1.991427">
        <ele>987.58</ele>
        <time>2021-03-27T20:53:11Z</time>
      </trkpt>
      <trkpt lat="41.850449" lon="-1.991358">
        <ele>987.88</ele>
        <time>2021-03-27T20:53:21Z</time>
      </trkpt>
      <trkpt lat="41.85044" lon="-1.990948">
        <ele>989.66</ele>
        <time>2021-03-27T20:53:31Z</time>
      </trkpt>
      <trkpt lat="41.850408" lon="-1.990739">
        <ele>990.43</ele>
        <time>2021-03-27T20:53:41Z</time>
      </trkpt>
      <trkpt lat="41.850396" lon="-1.990248">
        <ele>989.9</ele>
        <time>2021-03-27T20:53:51Z</time>
      </trkpt>
      <trkpt lat="41.850412" lon="-1.989252">
        <ele>992.37</ele>
        <time>2021-03-27T20:54:01Z</time>
      </trkpt>
      <trkpt lat="41.850294" lon="-1.984593">
        <ele>995.09</ele>
        <time>2021-03-27T20:54:10Z</time>
      </trkpt>
      <trkpt lat="41.850246" lon="-1.983403">
        <ele>998.08</ele>
        <time>2021-03-27T20:54:20Z</time>
      </trkpt>
      <trkpt lat="41.850181" lon="-1.979661">
        <ele>1000.76</ele>
        <time>2021-03-27T20:54:30Z</time>
      </trkpt>
      <trkpt lat="41.8496" lon="-1.956369">
        <ele>1003.53</ele>
        <time>2021-03-27T20:54:40Z</time>
      </trkpt>
      <trkpt lat="41.849532" lon="-1.955121">
        <ele>1000.95</ele>
        <time>2021-03-27T20:54:50Z</time>
      </trkpt>
      <trkpt lat="41.849567" lon="-1.954095">
        <ele>1001.49</ele>
        <time>2021-03-27T20:55:00Z</time>
      </trkpt>
      <trkpt lat="41.849599" lon="-1.953736">
        <ele>999.88</ele>
        <time>2021-03-27T20:55:10Z</time>
      </trkpt>
      <trkpt lat="41.849684" lon="-1.953124">
        <ele>998.81</ele>
        <time>2021-03-27T20:55:20Z</time>
      </trkpt>
      <trkpt lat="41.849854" lon="-1.952138">
        <ele>1004.4</ele>
        <time>2021-03-27T20:55:30Z</time>
      </trkpt>
      <trkpt lat="41.850103" lon="-1.9511">
        <ele>1012.84</ele>
        <time>2021-03-27T20:55:40Z</time>
      </trkpt>
      <trkpt lat="41.850505" lon="-1.949608">
        <ele>1019.04</ele>
        <time>2021-03-27T20:55:50Z</time>
      </trkpt>
      <trkpt lat="41.850898" lon="-1.948445">
        <ele>1020.0</ele>
        <time>2021-03-27T20:56:00Z</time>
      </trkpt>
      <trkpt lat="41.851189" lon="-1.947678">
        <ele>1019.72</ele>
        <time>2021-03-27T20:56:10Z</time>
      </trkpt>
      <trkpt lat="41.851202" lon="-1.947536">
        <ele>1019.67</ele>
        <time>2021-03-27T20:56:15Z</time>
      </trkpt>
      <trkpt lat="41.851562" lon="-1.94671">
        <ele>1016.47</ele>
        <time>2021-03-27T20:56:20Z</time>
      </trkpt>
      <trkpt lat="41.85221" lon="-1.945287">
        <ele>1005.24</ele>
        <time>2021-03-27T20:56:25Z</time>
      </trkpt>
      <trkpt lat="41.852463" lon="-1.944671">
        <ele>999.4</ele>
        <time>2021-03-27T20:56:30Z</time>
      </trkpt>
      <trkpt lat="41.85273" lon="-1.943834">
        <ele>994.89</ele>
        <time>2021-03-27T20:56:35Z</time>
      </trkpt>
      <trkpt lat="41.85295" lon="-1.943025">
        <ele>988.16</ele>
        <time>2021-03-27T20:56:40Z</time>
      </trkpt>
      <trkpt lat="41.853013" lon="-1.942508">
        <ele>983.54</ele>
        <time>2021-03-27T20:56:45Z</time>
      </trkpt>
      <trkpt lat="41.852936" lon="-1.941977">
        <ele>981.53</ele>
        <time>2021-03-27T20:56:50Z</time>
      </trkpt>
      <trkpt lat="41.852842" lon="-1.941654">
        <ele>980.72</ele>
        <time>2021-03-27T20:56:56Z</time>
      </trkpt>
      <trkpt lat="41.852669" lon="-1.941324">
        <ele>979.91</ele>
        <time>2021-03-27T20:57:01Z</time>
      </trkpt>
      <trkpt lat="41.852117" lon="-1.940508">
        <ele>979.65</ele>
        <time>2021-03-27T20:57:06Z</time>
      </trkpt>
      <trkpt lat="41.851904" lon="-1.940319">
        <ele>981.45</ele>
        <time>2021-03-27T20:57:08Z</time>
      </trkpt>
      <trkpt lat="41.851625" lon="-1.940109">
        <ele>981.79</ele>
        <time>2021-03-27T20:57:10Z</time>
      </trkpt>
      <trkpt lat="41.851173" lon="-1.939845">
        <ele>985.33</ele>
        <time>2021-03-27T20:57:12Z</time>
      </trkpt>
      <trkpt lat="41.850694" lon="-1.939654">
        <ele>988.64</ele>
        <time>2021-03-27T20:57:14Z</time>
      </trkpt>
      <trkpt lat="41.850236" lon="-1.939513">
        <ele>987.95</ele>
        <time>2021-03-27T20:57:16Z</time>
      </trkpt>
      <trkpt lat="41.849775" lon="-1.939414">
        <ele>984.27</ele>
        <time>2021-03-27T20:57:19Z</time>
      </trkpt>
      <trkpt lat="41.848687" lon="-1.939297">
        <ele>974.24</ele>
        <time>2021-03-27T20:57:25Z</time>
      </trkpt>
      <trkpt lat="41.848411" lon="-1.939344">
        <ele>976.52</ele>
        <time>2021-03-27T20:57:31Z</time>
      </trkpt>
      <trkpt lat="41.848292" lon="-1.939427">
        <ele>977.05</ele>
        <time>2021-03-27T20:57:37Z</time>
      </trkpt>
      <trkpt lat="41.848192" lon="-1.939534">
        <ele>977.65</ele>
        <time>2021-03-27T20:57:43Z</time>
      </trkpt>
      <trkpt lat="41.848133" lon="-1.939645">
        <ele>978.76</ele>
        <time>2021-03-27T20:57:49Z</time>
      </trkpt>
      <trkpt lat="41.848092" lon="-1.939797">
        <ele>979.97</ele>
        <time>2021-03-27T20:57:55Z</time>
      </trkpt>
      <trkpt lat="41.848104" lon="-1.94006">
        <ele>980.88</ele>
        <time>2021-03-27T20:58:01Z</time>
      </trkpt>
      <trkpt lat="41.848202" lon="-1.940354">
        <ele>980.9</ele>
        <time>2021-03-27T20:58:07Z</time>
      </trkpt>
      <trkpt lat="41.848334" lon="-1.940468">
        <ele>978.99</ele>
        <time>2021-03-27T20:58:13Z</time>
      </trkpt>
      <trkpt lat="41.848466" lon="-1.940517">
        <ele>977.97</ele>
        <time>2021-03-27T20:58:20Z</time>
      </trkpt>
      <trkpt lat="41.848664" lon="-1.940486">
        <ele>977.47</ele>
        <time>2021-03-27T20:58:26Z</time>
      </trkpt>
      <trkpt lat="41.848795" lon="-1.940396">
        <ele>978.69</ele>
        <time>2021-03-27T20:58:32Z</time>
      </trkpt>
      <trkpt lat="41.848926" lon="-1.940184">
        <ele>978.61</ele>
        <time>2021-03-27T20:58:38Z</time>
      </trkpt>
      <trkpt lat="41.849466" lon="-1.938201">
        <ele>971.58</ele>
        <time>2021-03-27T20:58:44Z</time>
      </trkpt>
      <trkpt lat="41.850298" lon="-1.935273">
        <ele>954.13</ele>
        <time>2021-03-27T20:58:50Z</time>
      </trkpt>
      <trkpt lat="41.851375" lon="-1.931357">
        <ele>951.95</ele>
        <time>2021-03-27T20:58:56Z</time>
      </trkpt>
      <trkpt lat="41.852266" lon="-1.928042">
        <ele>945.0</ele>
        <time>2021-03-27T20:59:02Z</time>
      </trkpt>
      <trkpt lat="41.852464" lon="-1.927637">
        <ele>944.93</ele>
        <time>2021-03-27T20:59:08Z</time>
      </trkpt>
      <trkpt lat="41.852577" lon="-1.927442">
        <ele>944.79</ele>
        <time>2021-03-27T20:59:14Z</time>
      </trkpt>
      <trkpt lat="41.852968" lon="-1.927005">
        <ele>944.0</ele>
        <time>2021-03-27T20:59:20Z</time>
      </trkpt>
      <trkpt lat="41.853658" lon="-1.926623">
        <ele>943.16</ele>
        <time>2021-03-27T20:59:27Z</time>
      </trkpt>
      <trkpt lat="41.854077" lon="-1.926341">
        <ele>943.62</ele>
        <time>2021-03-27T20:59:33Z</time>
      </trkpt>
      <trkpt lat="41.854021" lon="-1.925919">
        <ele>943.64</ele>
        <time>2021-03-27T20:59:35Z</time>
      </trkpt>
      <trkpt lat="41.853666" lon="-1.924733">
        <ele>944.61</ele>
        <time>2021-03-27T20:59:36Z</time>
      </trkpt>
      <trkpt lat="41.853658" lon="-1.924379">
        <ele>943.35</ele>
        <time>2021-03-27T20:59:38Z</time>
      </trkpt>
      <trkpt lat="41.853733" lon="-1.923987">
        <ele>943.83</ele>
        <time>2021-03-27T20:59:40Z</time>
      </trkpt>
      <trkpt lat="41.853906" lon="-1.923545">
        <ele>943.66</ele>
        <time>2021-03-27T20:59:42Z</time>
      </trkpt>
      <trkpt lat="41.853893" lon="-1.923485">
        <ele>942.72</ele>
        <time>2021-03-27T20:59:44Z</time>
      </trkpt>
      <trkpt lat="41.85386" lon="-1.923457">
        <ele>941.94</ele>
        <time>2021-03-27T20:59:46Z</time>
      </trkpt>
      <trkpt lat="41.853805" lon="-1.923466">
        <ele>941.25</ele>
        <time>2021-03-27T20:59:48Z</time>
      </trkpt>
      <trkpt lat="41.85359" lon="-1.923558">
        <ele>938.74</ele>
        <time>2021-03-27T20:59:50Z</time>
      </trkpt>
      <trkpt lat="41.852978" lon="-1.923987">
        <ele>940.53</ele>
        <time>2021-03-27T20:59:51Z</time>
      </trkpt>
      <trkpt lat="41.852882" lon="-1.924084">
        <ele>940.89</ele>
        <time>2021-03-27T20:59:53Z</time>
      </trkpt>
      <trkpt lat="41.852531" lon="-1.924183">
        <ele>940.95</ele>
        <time>2021-03-27T20:59:55Z</time>
      </trkpt>
      <trkpt lat="41.852338" lon="-1.924186">
        <ele>940.93</ele>
        <time>2021-03-27T20:59:57Z</time>
      </trkpt>
      <trkpt lat="41.852068" lon="-1.924068">
        <ele>941.91</ele>
        <time>2021-03-27T20:59:59Z</time>
      </trkpt>
      <trkpt lat="41.851986" lon="-1.923953">
        <ele>942.62</ele>
        <time>2021-03-27T21:00:01Z</time>
      </trkpt>
      <trkpt lat="41.851911" lon="-1.92343">
        <ele>945.82</ele>
        <time>2021-03-27T21:00:03Z</time>
      </trkpt>
      <trkpt lat="41.851912" lon="-1.923182">
        <ele>946.95</ele>
        <time>2021-03-27T21:00:05Z</time>
      </trkpt>
      <trkpt lat="41.851996" lon="-1.922743">
        <ele>947.94</ele>
        <time>2021-03-27T21:00:07Z</time>
      </trkpt>
      <trkpt lat="41.851998" lon="-1.922338">
        <ele>948.34</ele>
        <time>2021-03-27T21:00:08Z</time>
      </trkpt>
      <trkpt lat="41.851921" lon="-1.921618">
        <ele>943.84</ele>
        <time>2021-03-27T21:00:10Z</time>
      </trkpt>
      <trkpt lat="41.851769" lon="-1.920446">
        <ele>942.63</ele>
        <time>2021-03-27T21:00:12Z</time>
      </trkpt>
      <trkpt lat="41.851871" lon="-1.919979">
        <ele>943.41</ele>
        <time>2021-03-27T21:00:14Z</time>
      </trkpt>
      <trkpt lat="41.851886" lon="-1.919815">
        <ele>944.54</ele>
        <time>2021-03-27T21:00:16Z</time>
      </trkpt>
      <trkpt lat="41.851876" lon="-1.919651">
        <ele>945.31</ele>
        <time>2021-03-27T21:00:18Z</time>
      </trkpt>
      <trkpt lat="41.851673" lon="-1.918448">
        <ele>949.49</ele>
        <time>2021-03-27T21:00:20Z</time>
      </trkpt>
      <trkpt lat="41.851661" lon="-1.918227">
        <ele>950.48</ele>
        <time>2021-03-27T21:00:22Z</time>
      </trkpt>
      <trkpt lat="41.85169" lon="-1.917905">
        <ele>951.29</ele>
        <time>2021-03-27T21:00:24Z</time>
      </trkpt>
      <trkpt lat="41.851838" lon="-1.917324">
        <ele>951.16</ele>
        <time>2021-03-27T21:00:25Z</time>
      </trkpt>
      <trkpt lat="41.851819" lon="-1.917151">
        <ele>951.59</ele>
        <time>2021-03-27T21:00:27Z</time>
      </trkpt>
      <trkpt lat="41.851683" lon="-1.916757">
        <ele>951.33</ele>
        <time>2021-03-27T21:00:29Z</time>
      </trkpt>
      <trkpt lat="41.851507" lon="-1.915902">
        <ele>947.04</ele>
        <time>2021-03-27T21:00:31Z</time>
      </trkpt>
      <trkpt lat="41.851338" lon="-1.915488">
        <ele>946.74</ele>
        <time>2021-03-27T21:00:33Z</time>
      </trkpt>
      <trkpt lat="41.851051" lon="-1.914912">
        <ele>950.38</ele>
        <time>2021-03-27T21:00:35Z</time>
      </trkpt>
      <trkpt lat="41.850894" lon="-1.914697">
        <ele>951.03</ele>
        <time>2021-03-27T21:00:37Z</time>
      </trkpt>
      <trkpt lat="41.850722" lon="-1.914556">
        <ele>952.68</ele>
        <time>2021-03-27T21:00:39Z</time>
      </trkpt>
      <trkpt lat="41.849098" lon="-1.913624">
        <ele>951.46</ele>
        <time>2021-03-27T21:00:40Z</time>
      </trkpt>
      <trkpt lat="41.848961" lon="-1.913485">
        <ele>950.72</ele>
        <time>2021-03-27T21:00:42Z</time>
      </trkpt>
      <trkpt lat="41.848855" lon="-1.913291">
        <ele>950.37</ele>
        <time>2021-03-27T21:00:44Z</time>
      </trkpt>
      <trkpt lat="41.848806" lon="-1.913093">
        <ele>950.85</ele>
        <time>2021-03-27T21:00:46Z</time>
      </trkpt>
      <trkpt lat="41.848803" lon="-1.91283">
        <ele>951.42</ele>
        <time>2021-03-27T21:00:48Z</time>
      </trkpt>
      <trkpt lat="41.848915" lon="-1.912507">
        <ele>949.9</ele>
        <time>2021-03-27T21:00:50Z</time>
      </trkpt>
      <trkpt lat="41.849028" lon="-1.912375">
        <ele>949.72</ele>
        <time>2021-03-27T21:00:52Z</time>
      </trkpt>
      <trkpt lat="41.849146" lon="-1.912287">
        <ele>949.78</ele>
        <time>2021-03-27T21:00:54Z</time>
      </trkpt>
      <trkpt lat="41.849282" lon="-1.912255">
        <ele>951.03</ele>
        <time>2021-03-27T21:00:56Z</time>
      </trkpt>
      <trkpt lat="41.849442" lon="-1.912247">
        <ele>952.71</ele>
        <time>2021-03-27T21:00:57Z</time>
      </trkpt>
      <trkpt lat="41.849885" lon="-1.91244">
        <ele>951.74</ele>
        <time>2021-03-27T21:00:59Z</time>
      </trkpt>
      <trkpt lat="41.850039" lon="-1.912467">
        <ele>950.96</ele>
        <time>2021-03-27T21:01:01Z</time>
      </trkpt>
      <trkpt lat="41.850175" lon="-1.912457">
        <ele>951.62</ele>
        <time>2021-03-27T21:01:03Z</time>
      </trkpt>
      <trkpt lat="41.851461" lon="-1.911967">
        <ele>958.66</ele>
        <time>2021-03-27T21:01:05Z</time>
      </trkpt>
      <trkpt lat="41.851598" lon="-1.91189">
        <ele>958.91</ele>
        <time>2021-03-27T21:01:07Z</time>
      </trkpt>
      <trkpt lat="41.851695" lon="-1.911799">
        <ele>959.57</ele>
        <time>2021-03-27T21:01:09Z</time>
      </trkpt>
      <trkpt lat="41.851793" lon="-1.911635">
        <ele>960.15</ele>
        <time>2021-03-27T21:01:11Z</time>
      </trkpt>
      <trkpt lat="41.851841" lon="-1.91146">
        <ele>960.85</ele>
        <time>2021-03-27T21:01:13Z</time>
      </trkpt>
      <trkpt lat="41.851856" lon="-1.911258">
        <ele>961.06</ele>
        <time>2021-03-27T21:01:14Z</time>
      </trkpt>
      <trkpt lat="41.851742" lon="-1.909823">
        <ele>967.1</ele>
        <time>2021-03-27T21:01:16Z</time>
      </trkpt>
      <trkpt lat="41.851748" lon="-1.909656">
        <ele>967.1</ele>
        <time>2021-03-27T21:01:18Z</time>
      </trkpt>
      <trkpt lat="41.851813" lon="-1.909482">
        <ele>966.22</ele>
        <time>2021-03-27T21:01:20Z</time>
      </trkpt>
      <trkpt lat="41.851878" lon="-1.909365">
        <ele>965.84</ele>
        <time>2021-03-27T21:01:22Z</time>
      </trkpt>
      <trkpt lat="41.851981" lon="-1.909238">
        <ele>966.33</ele>
        <time>2021-03-27T21:01:24Z</time>
      </trkpt>
      <trkpt lat="41.852113" lon="-1.909157">
        <ele>967.7</ele>
        <time>2021-03-27T21:01:26Z</time>
      </trkpt>
      <trkpt lat="41.852379" lon="-1.909108">
        <ele>969.43</ele>
        <time>2021-03-27T21:01:28Z</time>
      </trkpt>
      <trkpt lat="41.852678" lon="-1.909018">
        <ele>971.67</ele>
        <time>2021-03-27T21:01:29Z</time>
      </trkpt>
      <trkpt lat="41.852936" lon="-1.908968">
        <ele>972.33</ele>
        <time>2021-03-27T21:01:31Z</time>
      </trkpt>
      <trkpt lat="41.853078" lon="-1.908892">
        <ele>972.8</ele>
        <time>2021-03-27T21:01:33Z</time>
      </trkpt>
      <trkpt lat="41.853186" lon="-1.908751">
        <ele>972.06</ele>
        <time>2021-03-27T21:01:35Z</time>
      </trkpt>
      <trkpt lat="41.853254" lon="-1.90858">
        <ele>971.46</ele>
        <time>2021-03-27T21:01:37Z</time>
      </trkpt>
      <trkpt lat="41.853558" lon="-1.90709">
        <ele>965.14</ele>
        <time>2021-03-27T21:01:39Z</time>
      </trkpt>
      <trkpt lat="41.853649" lon="-1.90687">
        <ele>964.07</ele>
        <time>2021-03-27T21:01:41Z</time>
      </trkpt>
      <trkpt lat="41.853762" lon="-1.906723">
        <ele>964.58</ele>
        <time>2021-03-27T21:01:43Z</time>
      </trkpt>
      <trkpt lat="41.853891" lon="-1.906622">
        <ele>965.49</ele>
        <time>2021-03-27T21:01:45Z</time>
      </trkpt>
      <trkpt lat="41.854063" lon="-1.906581">
        <ele>966.75</ele>
        <time>2021-03-27T21:01:46Z</time>
      </trkpt>
      <trkpt lat="41.855245" lon="-1.906567">
        <ele>979.19</ele>
        <time>2021-03-27T21:01:48Z</time>
      </trkpt>
      <trkpt lat="41.855429" lon="-1.906545">
        <ele>979.27</ele>
        <time>2021-03-27T21:01:50Z</time>
      </trkpt>
      <trkpt lat="41.855601" lon="-1.906477">
        <ele>978.43</ele>
        <time>2021-03-27T21:01:52Z</time>
      </trkpt>
      <trkpt lat="41.855753" lon="-1.906376">
        <ele>975.9</ele>
        <time>2021-03-27T21:01:54Z</time>
      </trkpt>
      <trkpt lat="41.85588" lon="-1.906249">
        <ele>975.34</ele>
        <time>2021-03-27T21:01:56Z</time>
      </trkpt>
      <trkpt lat="41.856011" lon="-1.906052">
        <ele>975.43</ele>
        <time>2021-03-27T21:01:58Z</time>
      </trkpt>
      <trkpt lat="41.856089" lon="-1.905872">
        <ele>975.99</ele>
        <time>2021-03-27T21:02:00Z</time>
      </trkpt>
      <trkpt lat="41.856148" lon="-1.90566">
        <ele>977.4</ele>
        <time>2021-03-27T21:02:01Z</time>
      </trkpt>
      <trkpt lat="41.856188" lon="-1.905388">
        <ele>978.93</ele>
        <time>2021-03-27T21:02:03Z</time>
      </trkpt>
      <trkpt lat="41.856255" lon="-1.904027">
        <ele>978.06</ele>
        <time>2021-03-27T21:02:05Z</time>
      </trkpt>
      <trkpt lat="41.856275" lon="-1.903774">
        <ele>976.28</ele>
        <time>2021-03-27T21:02:07Z</time>
      </trkpt>
      <trkpt lat="41.856319" lon="-1.903505">
        <ele>975.23</ele>
        <time>2021-03-27T21:02:09Z</time>
      </trkpt>
      <trkpt lat="41.856523" lon="-1.902887">
        <ele>976.34</ele>
        <time>2021-03-27T21:02:11Z</time>
      </trkpt>
      <trkpt lat="41.856586" lon="-1.902585">
        <ele>974.62</ele>
        <time>2021-03-27T21:02:13Z</time>
      </trkpt>
      <trkpt lat="41.856594" lon="-1.902396">
        <ele>974.45</ele>
        <time>2021-03-27T21:02:15Z</time>
      </trkpt>
      <trkpt lat="41.856575" lon="-1.90217">
        <ele>975.83</ele>
        <time>2021-03-27T21:02:17Z</time>
      </trkpt>
      <trkpt lat="41.856398" lon="-1.901315">
        <ele>978.59</ele>
        <time>2021-03-27T21:02:18Z</time>
      </trkpt>
      <trkpt lat="41.856422" lon="-1.900663">
        <ele>975.32</ele>
        <time>2021-03-27T21:02:20Z</time>
      </trkpt>
      <trkpt lat="41.856407" lon="-1.900429">
        <ele>976.12</ele>
        <time>2021-03-27T21:02:22Z</time>
      </trkpt>
      <trkpt lat="41.85637" lon="-1.900243">
        <ele>977.46</ele>
        <time>2021-03-27T21:02:24Z</time>
      </trkpt>
      <trkpt lat="41.856285" lon="-1.899995">
        <ele>978.4</ele>
        <time>2021-03-27T21:02:26Z</time>
      </trkpt>
      <trkpt lat="41.855796" lon="-1.899178">
        <ele>977.24</ele>
        <time>2021-03-27T21:02:28Z</time>
      </trkpt>
      <trkpt lat="41.855429" lon="-1.898323">
        <ele>973.6</ele>
        <time>2021-03-27T21:02:30Z</time>
      </trkpt>
      <trkpt lat="41.855324" lon="-1.89812">
        <ele>973.06</ele>
        <time>2021-03-27T21:02:32Z</time>
      </trkpt>
      <trkpt lat="41.855095" lon="-1.897856">
        <ele>972.29</ele>
        <time>2021-03-27T21:02:34Z</time>
      </trkpt>
      <trkpt lat="41.854721" lon="-1.897624">
        <ele>970.8</ele>
        <time>2021-03-27T21:02:35Z</time>
      </trkpt>
      <trkpt lat="41.854609" lon="-1.897525">
        <ele>971.77</ele>
        <time>2021-03-27T21:02:37Z</time>
      </trkpt>
      <trkpt lat="41.854529" lon="-1.89737">
        <ele>971.76</ele>
        <time>2021-03-27T21:02:39Z</time>
      </trkpt>
      <trkpt lat="41.854491" lon="-1.897231">
        <ele>971.08</ele>
        <time>2021-03-27T21:02:41Z</time>
      </trkpt>
      <trkpt lat="41.854478" lon="-1.89704">
        <ele>970.69</ele>
        <time>2021-03-27T21:02:43Z</time>
      </trkpt>
      <trkpt lat="41.854548" lon="-1.896465">
        <ele>969.77</ele>
        <time>2021-03-27T21:02:45Z</time>
      </trkpt>
      <trkpt lat="41.854543" lon="-1.896264">
        <ele>969.48</ele>
        <time>2021-03-27T21:02:47Z</time>
      </trkpt>
      <trkpt lat="41.854518" lon="-1.896068">
        <ele>969.17</ele>
        <time>2021-03-27T21:02:49Z</time>
      </trkpt>
      <trkpt lat="41.854368" lon="-1.895328">
        <ele>968.15</ele>
        <time>2021-03-27T21:02:50Z</time>
      </trkpt>
      <trkpt lat="41.854193" lon="-1.894717">
        <ele>965.53</ele>
        <time>2021-03-27T21:02:52Z</time>
      </trkpt>
      <trkpt lat="41.854068" lon="-1.894359">
        <ele>967.67</ele>
        <time>2021-03-27T21:02:54Z</time>
      </trkpt>
      <trkpt lat="41.853918" lon="-1.893998">
        <ele>968.43</ele>
        <time>2021-03-27T21:02:56Z</time>
      </trkpt>
      <trkpt lat="41.853175" lon="-1.892528">
        <ele>971.43</ele>
        <time>2021-03-27T21:02:58Z</time>
      </trkpt>
      <trkpt lat="41.853078" lon="-1.89224">
        <ele>972.59</ele>
        <time>2021-03-27T21:03:00Z</time>
      </trkpt>
      <trkpt lat="41.853019" lon="-1.891625">
        <ele>973.08</ele>
        <time>2021-03-27T21:03:02Z</time>
      </trkpt>
      <trkpt lat="41.852959" lon="-1.891395">
        <ele>971.74</ele>
        <time>2021-03-27T21:03:04Z</time>
      </trkpt>
      <trkpt lat="41.852868" lon="-1.891259">
        <ele>971.25</ele>
        <time>2021-03-27T21:03:06Z</time>
      </trkpt>
      <trkpt lat="41.852446" lon="-1.890839">
        <ele>970.45</ele>
        <time>2021-03-27T21:03:07Z</time>
      </trkpt>
      <trkpt lat="41.852303" lon="-1.890612">
        <ele>971.35</ele>
        <time>2021-03-27T21:03:09Z</time>
      </trkpt>
      <trkpt lat="41.851826" lon="-1.889547">
        <ele>972.09</ele>
        <time>2021-03-27T21:03:11Z</time>
      </trkpt>
      <trkpt lat="41.851784" lon="-1.889375">
        <ele>972.71</ele>
        <time>2021-03-27T21:03:13Z</time>
      </trkpt>
      <trkpt lat="41.851781" lon="-1.889165">
        <ele>973.55</ele>
        <time>2021-03-27T21:03:15Z</time>
      </trkpt>
      <trkpt lat="41.851814" lon="-1.888654">
        <ele>976.1</ele>
        <time>2021-03-27T21:03:17Z</time>
      </trkpt>
      <trkpt lat="41.851788" lon="-1.88846">
        <ele>975.48</ele>
        <time>2021-03-27T21:03:19Z</time>
      </trkpt>
      <trkpt lat="41.851735" lon="-1.888283">
        <ele>974.48</ele>
        <time>2021-03-27T21:03:21Z</time>
      </trkpt>
      <trkpt lat="41.851584" lon="-1.887892">
        <ele>969.42</ele>
        <time>2021-03-27T21:03:23Z</time>
      </trkpt>
      <trkpt lat="41.851453" lon="-1.887689">
        <ele>968.56</ele>
        <time>2021-03-27T21:03:24Z</time>
      </trkpt>
      <trkpt lat="41.851254" lon="-1.887457">
        <ele>969.21</ele>
        <time>2021-03-27T21:03:26Z</time>
      </trkpt>
      <trkpt lat="41.851165" lon="-1.887324">
        <ele>969.57</ele>
        <time>2021-03-27T21:03:28Z</time>
      </trkpt>
      <trkpt lat="41.851102" lon="-1.887108">
        <ele>969.45</ele>
        <time>2021-03-27T21:03:30Z</time>
      </trkpt>
      <trkpt lat="41.851095" lon="-1.886883">
        <ele>967.86</ele>
        <time>2021-03-27T21:03:32Z</time>
      </trkpt>
      <trkpt lat="41.851128" lon="-1.886292">
        <ele>964.53</ele>
        <time>2021-03-27T21:03:34Z</time>
      </trkpt>
      <trkpt lat="41.851116" lon="-1.886068">
        <ele>964.56</ele>
        <time>2021-03-27T21:03:36Z</time>
      </trkpt>
      <trkpt lat="41.851076" lon="-1.885902">
        <ele>964.07</ele>
        <time>2021-03-27T21:03:38Z</time>
      </trkpt>
      <trkpt lat="41.85069" lon="-1.885036">
        <ele>961.11</ele>
        <time>2021-03-27T21:03:39Z</time>
      </trkpt>
      <trkpt lat="41.850581" lon="-1.884631">
        <ele>957.94</ele>
        <time>2021-03-27T21:03:41Z</time>
      </trkpt>
      <trkpt lat="41.850424" lon="-1.883879">
        <ele>957.26</ele>
        <time>2021-03-27T21:03:43Z</time>
      </trkpt>
      <trkpt lat="41.85034" lon="-1.883666">
        <ele>958.0</ele>
        <time>2021-03-27T21:03:45Z</time>
      </trkpt>
      <trkpt lat="41.850052" lon="-1.883175">
        <ele>960.23</ele>
        <time>2021-03-27T21:03:47Z</time>
      </trkpt>
      <trkpt lat="41.849979" lon="-1.882969">
        <ele>959.24</ele>
        <time>2021-03-27T21:03:49Z</time>
      </trkpt>
      <trkpt lat="41.849941" lon="-1.882711">
        <ele>956.91</ele>
        <time>2021-03-27T21:03:51Z</time>
      </trkpt>
      <trkpt lat="41.849943" lon="-1.881971">
        <ele>953.64</ele>
        <time>2021-03-27T21:03:53Z</time>
      </trkpt>
      <trkpt lat="41.849924" lon="-1.88175">
        <ele>952.78</ele>
        <time>2021-03-27T21:03:55Z</time>
      </trkpt>
      <trkpt lat="41.849883" lon="-1.881501">
        <ele>951.84</ele>
        <time>2021-03-27T21:03:56Z</time>
      </trkpt>
      <trkpt lat="41.849709" lon="-1.880803">
        <ele>951.04</ele>
        <time>2021-03-27T21:03:58Z</time>
      </trkpt>
      <trkpt lat="41.849568" lon="-1.880424">
        <ele>949.63</ele>
        <time>2021-03-27T21:04:00Z</time>
      </trkpt>
      <trkpt lat="41.84892" lon="-1.879055">
        <ele>946.59</ele>
        <time>2021-03-27T21:04:02Z</time>
      </trkpt>
      <trkpt lat="41.848786" lon="-1.878857">
        <ele>944.17</ele>
        <time>2021-03-27T21:04:04Z</time>
      </trkpt>
      <trkpt lat="41.848236" lon="-1.878471">
        <ele>940.18</ele>
        <time>2021-03-27T21:04:06Z</time>
      </trkpt>
      <trkpt lat="41.84814" lon="-1.878372">
        <ele>938.58</ele>
        <time>2021-03-27T21:04:08Z</time>
      </trkpt>
      <trkpt lat="41.84806" lon="-1.878249">
        <ele>937.67</ele>
        <time>2021-03-27T21:04:10Z</time>
      </trkpt>
      <trkpt lat="41.847873" lon="-1.877803">
        <ele>939.49</ele>
        <time>2021-03-27T21:04:11Z</time>
      </trkpt>
      <trkpt lat="41.84776" lon="-1.877574">
        <ele>938.99</ele>
        <time>2021-03-27T21:04:13Z</time>
      </trkpt>
      <trkpt lat="41.847658" lon="-1.877458">
        <ele>938.53</ele>
        <time>2021-03-27T21:04:15Z</time>
      </trkpt>
      <trkpt lat="41.847554" lon="-1.877371">
        <ele>938.1</ele>
        <time>2021-03-27T21:04:17Z</time>
      </trkpt>
      <trkpt lat="41.847408" lon="-1.877307">
        <ele>937.62</ele>
        <time>2021-03-27T21:04:19Z</time>
      </trkpt>
      <trkpt lat="41.846218" lon="-1.877275">
        <ele>928.29</ele>
        <time>2021-03-27T21:04:21Z</time>
      </trkpt>
      <trkpt lat="41.845036" lon="-1.877162">
        <ele>924.2</ele>
        <time>2021-03-27T21:04:23Z</time>
      </trkpt>
      <trkpt lat="41.844859" lon="-1.877077">
        <ele>922.93</ele>
        <time>2021-03-27T21:04:25Z</time>
      </trkpt>
      <trkpt lat="41.844735" lon="-1.87695">
        <ele>921.99</ele>
        <time>2021-03-27T21:04:27Z</time>
      </trkpt>
      <trkpt lat="41.844657" lon="-1.876764">
        <ele>922.3</ele>
        <time>2021-03-27T21:04:28Z</time>
      </trkpt>
      <trkpt lat="41.844628" lon="-1.87656">
        <ele>923.58</ele>
        <time>2021-03-27T21:04:30Z</time>
      </trkpt>
      <trkpt lat="41.844643" lon="-1.876383">
        <ele>924.94</ele>
        <time>2021-03-27T21:04:32Z</time>
      </trkpt>
      <trkpt lat="41.844707" lon="-1.876199">
        <ele>926.97</ele>
        <time>2021-03-27T21:04:34Z</time>
      </trkpt>
      <trkpt lat="41.844831" lon="-1.876035">
        <ele>927.02</ele>
        <time>2021-03-27T21:04:36Z</time>
      </trkpt>
      <trkpt lat="41.844947" lon="-1.875952">
        <ele>926.0</ele>
        <time>2021-03-27T21:04:38Z</time>
      </trkpt>
      <trkpt lat="41.845408" lon="-1.875752">
        <ele>924.12</ele>
        <time>2021-03-27T21:04:40Z</time>
      </trkpt>
      <trkpt lat="41.845595" lon="-1.875616">
        <ele>926.04</ele>
        <time>2021-03-27T21:04:42Z</time>
      </trkpt>
      <trkpt lat="41.845728" lon="-1.875393">
        <ele>926.65</ele>
        <time>2021-03-27T21:04:44Z</time>
      </trkpt>
      <trkpt lat="41.845779" lon="-1.875217">
        <ele>927.2</ele>
        <time>2021-03-27T21:04:45Z</time>
      </trkpt>
      <trkpt lat="41.845756" lon="-1.874992">
        <ele>928.31</ele>
        <time>2021-03-27T21:04:47Z</time>
      </trkpt>
      <trkpt lat="41.845691" lon="-1.874786">
        <ele>927.65</ele>
        <time>2021-03-27T21:04:49Z</time>
      </trkpt>
      <trkpt lat="41.845232" lon="-1.874183">
        <ele>928.03</ele>
        <time>2021-03-27T21:04:51Z</time>
      </trkpt>
      <trkpt lat="41.845047" lon="-1.87383">
        <ele>931.33</ele>
        <time>2021-03-27T21:04:53Z</time>
      </trkpt>
      <trkpt lat="41.844427" lon="-1.872237">
        <ele>937.18</ele>
        <time>2021-03-27T21:04:55Z</time>
      </trkpt>
      <trkpt lat="41.844352" lon="-1.87191">
        <ele>935.79</ele>
        <time>2021-03-27T21:04:57Z</time>
      </trkpt>
      <trkpt lat="41.844331" lon="-1.871546">
        <ele>934.63</ele>
        <time>2021-03-27T21:04:59Z</time>
      </trkpt>
      <trkpt lat="41.844377" lon="-1.871199">
        <ele>936.02</ele>
        <time>2021-03-27T21:05:00Z</time>
      </trkpt>
      <trkpt lat="41.844527" lon="-1.870714">
        <ele>939.2</ele>
        <time>2021-03-27T21:05:02Z</time>
      </trkpt>
      <trkpt lat="41.8448" lon="-1.86996">
        <ele>939.07</ele>
        <time>2021-03-27T21:05:04Z</time>
      </trkpt>
      <trkpt lat="41.848236" lon="-1.854855">
        <ele>899.32</ele>
        <time>2021-03-27T21:05:06Z</time>
      </trkpt>
      <trkpt lat="41.848408" lon="-1.854295">
        <ele>897.98</ele>
        <time>2021-03-27T21:05:08Z</time>
      </trkpt>
      <trkpt lat="41.848615" lon="-1.8538">
        <ele>894.35</ele>
        <time>2021-03-27T21:05:10Z</time>
      </trkpt>
      <trkpt lat="41.849302" lon="-1.852509">
        <ele>887.01</ele>
        <time>2021-03-27T21:05:12Z</time>
      </trkpt>
      <trkpt lat="41.849405" lon="-1.852223">
        <ele>886.01</ele>
        <time>2021-03-27T21:05:14Z</time>
      </trkpt>
      <trkpt lat="41.84943" lon="-1.852036">
        <ele>882.76</ele>
        <time>2021-03-27T21:05:16Z</time>
      </trkpt>
      <trkpt lat="41.849403" lon="-1.851822">
        <ele>879.68</ele>
        <time>2021-03-27T21:05:17Z</time>
      </trkpt>
      <trkpt lat="41.849282" lon="-1.851625">
        <ele>878.28</ele>
        <time>2021-03-27T21:05:19Z</time>
      </trkpt>
      <trkpt lat="41.849172" lon="-1.851563">
        <ele>878.47</ele>
        <time>2021-03-27T21:05:21Z</time>
      </trkpt>
      <trkpt lat="41.84905" lon="-1.851534">
        <ele>877.29</ele>
        <time>2021-03-27T21:05:23Z</time>
      </trkpt>
      <trkpt lat="41.848887" lon="-1.851592">
        <ele>877.83</ele>
        <time>2021-03-27T21:05:25Z</time>
      </trkpt>
      <trkpt lat="41.848708" lon="-1.851735">
        <ele>878.46</ele>
        <time>2021-03-27T21:05:27Z</time>
      </trkpt>
      <trkpt lat="41.848463" lon="-1.852">
        <ele>876.64</ele>
        <time>2021-03-27T21:05:29Z</time>
      </trkpt>
      <trkpt lat="41.848217" lon="-1.852209">
        <ele>874.64</ele>
        <time>2021-03-27T21:05:31Z</time>
      </trkpt>
      <trkpt lat="41.847347" lon="-1.852572">
        <ele>871.86</ele>
        <time>2021-03-27T21:05:32Z</time>
      </trkpt>
      <trkpt lat="41.847084" lon="-1.852602">
        <ele>870.13</ele>
        <time>2021-03-27T21:05:34Z</time>
      </trkpt>
      <trkpt lat="41.846574" lon="-1.852491">
        <ele>861.32</ele>
        <time>2021-03-27T21:05:36Z</time>
      </trkpt>
      <trkpt lat="41.846426" lon="-1.852517">
        <ele>858.33</ele>
        <time>2021-03-27T21:05:38Z</time>
      </trkpt>
      <trkpt lat="41.846221" lon="-1.852645">
        <ele>856.47</ele>
        <time>2021-03-27T21:05:40Z</time>
      </trkpt>
      <trkpt lat="41.84609" lon="-1.852848">
        <ele>855.9</ele>
        <time>2021-03-27T21:05:42Z</time>
      </trkpt>
      <trkpt lat="41.846023" lon="-1.853138">
        <ele>856.35</ele>
        <time>2021-03-27T21:05:44Z</time>
      </trkpt>
      <trkpt lat="41.845964" lon="-1.853556">
        <ele>860.59</ele>
        <time>2021-03-27T21:05:46Z</time>
      </trkpt>
      <trkpt lat="41.845899" lon="-1.85379">
        <ele>861.39</ele>
        <time>2021-03-27T21:05:48Z</time>
      </trkpt>
      <trkpt lat="41.845824" lon="-1.853951">
        <ele>860.47</ele>
        <time>2021-03-27T21:05:49Z</time>
      </trkpt>
      <trkpt lat="41.844917" lon="-1.85515">
        <ele>852.11</ele>
        <time>2021-03-27T21:05:51Z</time>
      </trkpt>
      <trkpt lat="41.844798" lon="-1.855236">
        <ele>850.92</ele>
        <time>2021-03-27T21:05:53Z</time>
      </trkpt>
      <trkpt lat="41.844661" lon="-1.85528">
        <ele>849.35</ele>
        <time>2021-03-27T21:05:55Z</time>
      </trkpt>
      <trkpt lat="41.844505" lon="-1.855263">
        <ele>847.53</ele>
        <time>2021-03-27T21:05:57Z</time>
      </trkpt>
      <trkpt lat="41.844369" lon="-1.85518">
        <ele>846.31</ele>
        <time>2021-03-27T21:05:59Z</time>
      </trkpt>
      <trkpt lat="41.844258" lon="-1.855008">
        <ele>846.34</ele>
        <time>2021-03-27T21:06:01Z</time>
      </trkpt>
      <trkpt lat="41.84398" lon="-1.854235">
        <ele>852.37</ele>
        <time>2021-03-27T21:06:03Z</time>
      </trkpt>
      <trkpt lat="41.843874" lon="-1.854061">
        <ele>852.6</ele>
        <time>2021-03-27T21:06:05Z</time>
      </trkpt>
      <trkpt lat="41.843775" lon="-1.853968">
        <ele>851.61</ele>
        <time>2021-03-27T21:06:06Z</time>
      </trkpt>
      <trkpt lat="41.843664" lon="-1.853921">
        <ele>850.84</ele>
        <time>2021-03-27T21:06:08Z</time>
      </trkpt>
      <trkpt lat="41.843519" lon="-1.853928">
        <ele>852.13</ele>
        <time>2021-03-27T21:06:10Z</time>
      </trkpt>
      <trkpt lat="41.84297" lon="-1.854113">
        <ele>858.99</ele>
        <time>2021-03-27T21:06:12Z</time>
      </trkpt>
      <trkpt lat="41.842823" lon="-1.854132">
        <ele>858.59</ele>
        <time>2021-03-27T21:06:14Z</time>
      </trkpt>
      <trkpt lat="41.842712" lon="-1.854113">
        <ele>858.47</ele>
        <time>2021-03-27T21:06:16Z</time>
      </trkpt>
      <trkpt lat="41.842474" lon="-1.853978">
        <ele>857.08</ele>
        <time>2021-03-27T21:06:18Z</time>
      </trkpt>
      <trkpt lat="41.842269" lon="-1.853912">
        <ele>857.1</ele>
        <time>2021-03-27T21:06:20Z</time>
      </trkpt>
      <trkpt lat="41.841982" lon="-1.853918">
        <ele>859.94</ele>
        <time>2021-03-27T21:06:21Z</time>
      </trkpt>
      <trkpt lat="41.841607" lon="-1.854122">
        <ele>867.51</ele>
        <time>2021-03-27T21:06:23Z</time>
      </trkpt>
      <trkpt lat="41.841318" lon="-1.854138">
        <ele>869.49</ele>
        <time>2021-03-27T21:06:25Z</time>
      </trkpt>
      <trkpt lat="41.841078" lon="-1.854221">
        <ele>871.04</ele>
        <time>2021-03-27T21:06:27Z</time>
      </trkpt>
      <trkpt lat="41.840779" lon="-1.854416">
        <ele>873.31</ele>
        <time>2021-03-27T21:06:29Z</time>
      </trkpt>
      <trkpt lat="41.84047" lon="-1.854582">
        <ele>873.87</ele>
        <time>2021-03-27T21:06:31Z</time>
      </trkpt>
      <trkpt lat="41.840368" lon="-1.854596">
        <ele>873.22</ele>
        <time>2021-03-27T21:06:33Z</time>
      </trkpt>
      <trkpt lat="41.840312" lon="-1.85456">
        <ele>872.64</ele>
        <time>2021-03-27T21:06:35Z</time>
      </trkpt>
      <trkpt lat="41.840201" lon="-1.854384">
        <ele>872.48</ele>
        <time>2021-03-27T21:06:37Z</time>
      </trkpt>
      <trkpt lat="41.840167" lon="-1.854261">
        <ele>873.06</ele>
        <time>2021-03-27T21:06:38Z</time>
      </trkpt>
      <trkpt lat="41.840154" lon="-1.854122">
        <ele>874.18</ele>
        <time>2021-03-27T21:06:40Z</time>
      </trkpt>
      <trkpt lat="41.840208" lon="-1.853953">
        <ele>874.69</ele>
        <time>2021-03-27T21:06:42Z</time>
      </trkpt>
      <trkpt lat="41.84034" lon="-1.85372">
        <ele>874.31</ele>
        <time>2021-03-27T21:06:44Z</time>
      </trkpt>
      <trkpt lat="41.840526" lon="-1.853468">
        <ele>875.66</ele>
        <time>2021-03-27T21:06:46Z</time>
      </trkpt>
      <trkpt lat="41.840795" lon="-1.853167">
        <ele>872.48</ele>
        <time>2021-03-27T21:06:48Z</time>
      </trkpt>
      <trkpt lat="41.840919" lon="-1.85299">
        <ele>871.63</ele>
        <time>2021-03-27T21:06:50Z</time>
      </trkpt>
      <trkpt lat="41.840968" lon="-1.852827">
        <ele>871.0</ele>
        <time>2021-03-27T21:06:52Z</time>
      </trkpt>
      <trkpt lat="41.840976" lon="-1.852657">
        <ele>870.7</ele>
        <time>2021-03-27T21:06:54Z</time>
      </trkpt>
      <trkpt lat="41.84096" lon="-1.852483">
        <ele>870.71</ele>
        <time>2021-03-27T21:06:55Z</time>
      </trkpt>
      <trkpt lat="41.8409" lon="-1.852307">
        <ele>871.09</ele>
        <time>2021-03-27T21:06:57Z</time>
      </trkpt>
      <trkpt lat="41.84076" lon="-1.852044">
        <ele>872.65</ele>
        <time>2021-03-27T21:06:59Z</time>
      </trkpt>
      <trkpt lat="41.840172" lon="-1.851116">
        <ele>878.57</ele>
        <time>2021-03-27T21:07:01Z</time>
      </trkpt>
      <trkpt lat="41.8401" lon="-1.850982">
        <ele>878.34</ele>
        <time>2021-03-27T21:07:03Z</time>
      </trkpt>
      <trkpt lat="41.840001" lon="-1.850729">
        <ele>877.23</ele>
        <time>2021-03-27T21:07:05Z</time>
      </trkpt>
      <trkpt lat="41.839561" lon="-1.849436">
        <ele>882.05</ele>
        <time>2021-03-27T21:07:07Z</time>
      </trkpt>
      <trkpt lat="41.839372" lon="-1.848642">
        <ele>881.34</ele>
        <time>2021-03-27T21:07:09Z</time>
      </trkpt>
      <trkpt lat="41.839318" lon="-1.848319">
        <ele>880.68</ele>
        <time>2021-03-27T21:07:10Z</time>
      </trkpt>
      <trkpt lat="41.839341" lon="-1.848111">
        <ele>879.84</ele>
        <time>2021-03-27T21:07:12Z</time>
      </trkpt>
      <trkpt lat="41.839403" lon="-1.847949">
        <ele>880.28</ele>
        <time>2021-03-27T21:07:14Z</time>
      </trkpt>
      <trkpt lat="41.839476" lon="-1.847829">
        <ele>882.0</ele>
        <time>2021-03-27T21:07:16Z</time>
      </trkpt>
      <trkpt lat="41.839664" lon="-1.847708">
        <ele>887.2</ele>
        <time>2021-03-27T21:07:18Z</time>
      </trkpt>
      <trkpt lat="41.839802" lon="-1.847674">
        <ele>890.21</ele>
        <time>2021-03-27T21:07:20Z</time>
      </trkpt>
      <trkpt lat="41.839934" lon="-1.847718">
        <ele>891.72</ele>
        <time>2021-03-27T21:07:22Z</time>
      </trkpt>
      <trkpt lat="41.840109" lon="-1.84786">
        <ele>891.42</ele>
        <time>2021-03-27T21:07:24Z</time>
      </trkpt>
      <trkpt lat="41.840515" lon="-1.848461">
        <ele>887.57</ele>
        <time>2021-03-27T21:07:26Z</time>
      </trkpt>
      <trkpt lat="41.840707" lon="-1.848649">
        <ele>889.34</ele>
        <time>2021-03-27T21:07:27Z</time>
      </trkpt>
      <trkpt lat="41.840856" lon="-1.848712">
        <ele>892.18</ele>
        <time>2021-03-27T21:07:29Z</time>
      </trkpt>
      <trkpt lat="41.841007" lon="-1.848735">
        <ele>893.81</ele>
        <time>2021-03-27T21:07:31Z</time>
      </trkpt>
      <trkpt lat="41.841177" lon="-1.84867">
        <ele>895.63</ele>
        <time>2021-03-27T21:07:33Z</time>
      </trkpt>
      <trkpt lat="41.841291" lon="-1.848576">
        <ele>896.12</ele>
        <time>2021-03-27T21:07:35Z</time>
      </trkpt>
      <trkpt lat="41.841409" lon="-1.848427">
        <ele>896.68</ele>
        <time>2021-03-27T21:07:37Z</time>
      </trkpt>
      <trkpt lat="41.841487" lon="-1.848191">
        <ele>897.69</ele>
        <time>2021-03-27T21:07:39Z</time>
      </trkpt>
      <trkpt lat="41.841507" lon="-1.847888">
        <ele>900.32</ele>
        <time>2021-03-27T21:07:41Z</time>
      </trkpt>
      <trkpt lat="41.841494" lon="-1.845836">
        <ele>908.62</ele>
        <time>2021-03-27T21:07:42Z</time>
      </trkpt>
      <trkpt lat="41.841464" lon="-1.845559">
        <ele>909.45</ele>
        <time>2021-03-27T21:07:44Z</time>
      </trkpt>
      <trkpt lat="41.841352" lon="-1.845341">
        <ele>911.04</ele>
        <time>2021-03-27T21:07:46Z</time>
      </trkpt>
      <trkpt lat="41.841222" lon="-1.845206">
        <ele>912.82</ele>
        <time>2021-03-27T21:07:48Z</time>
      </trkpt>
      <trkpt lat="41.840253" lon="-1.844744">
        <ele>921.24</ele>
        <time>2021-03-27T21:07:50Z</time>
      </trkpt>
      <trkpt lat="41.839759" lon="-1.844529">
        <ele>922.91</ele>
        <time>2021-03-27T21:07:52Z</time>
      </trkpt>
      <trkpt lat="41.839559" lon="-1.844354">
        <ele>925.87</ele>
        <time>2021-03-27T21:07:54Z</time>
      </trkpt>
      <trkpt lat="41.839444" lon="-1.844197">
        <ele>928.78</ele>
        <time>2021-03-27T21:07:56Z</time>
      </trkpt>
      <trkpt lat="41.839356" lon="-1.843992">
        <ele>930.69</ele>
        <time>2021-03-27T21:07:58Z</time>
      </trkpt>
      <trkpt lat="41.839297" lon="-1.843777">
        <ele>932.15</ele>
        <time>2021-03-27T21:07:59Z</time>
      </trkpt>
      <trkpt lat="41.839299" lon="-1.843467">
        <ele>934.33</ele>
        <time>2021-03-27T21:08:01Z</time>
      </trkpt>
      <trkpt lat="41.83945" lon="-1.840606">
        <ele>944.95</ele>
        <time>2021-03-27T21:08:03Z</time>
      </trkpt>
      <trkpt lat="41.839415" lon="-1.840415">
        <ele>945.32</ele>
        <time>2021-03-27T21:08:05Z</time>
      </trkpt>
      <trkpt lat="41.83928" lon="-1.840155">
        <ele>946.51</ele>
        <time>2021-03-27T21:08:07Z</time>
      </trkpt>
      <trkpt lat="41.839094" lon="-1.840014">
        <ele>947.83</ele>
        <time>2021-03-27T21:08:09Z</time>
      </trkpt>
      <trkpt lat="41.837888" lon="-1.839509">
        <ele>955.03</ele>
        <time>2021-03-27T21:08:11Z</time>
      </trkpt>
      <trkpt lat="41.83652" lon="-1.838725">
        <ele>963.69</ele>
        <time>2021-03-27T21:08:13Z</time>
      </trkpt>
      <trkpt lat="41.836273" lon="-1.838655">
        <ele>965.62</ele>
        <time>2021-03-27T21:08:15Z</time>
      </trkpt>
      <trkpt lat="41.835611" lon="-1.838568">
        <ele>970.88</ele>
        <time>2021-03-27T21:08:16Z</time>
      </trkpt>
      <trkpt lat="41.835427" lon="-1.838504">
        <ele>973.05</ele>
        <time>2021-03-27T21:08:18Z</time>
      </trkpt>
      <trkpt lat="41.835282" lon="-1.838383">
        <ele>975.09</ele>
        <time>2021-03-27T21:08:20Z</time>
      </trkpt>
      <trkpt lat="41.835194" lon="-1.838239">
        <ele>975.76</ele>
        <time>2021-03-27T21:08:22Z</time>
      </trkpt>
      <trkpt lat="41.835133" lon="-1.838038">
        <ele>976.64</ele>
        <time>2021-03-27T21:08:24Z</time>
      </trkpt>
      <trkpt lat="41.835134" lon="-1.837852">
        <ele>976.96</ele>
        <time>2021-03-27T21:08:26Z</time>
      </trkpt>
      <trkpt lat="41.835167" lon="-1.837617">
        <ele>977.56</ele>
        <time>2021-03-27T21:08:28Z</time>
      </trkpt>
      <trkpt lat="41.835261" lon="-1.837131">
        <ele>977.99</ele>
        <time>2021-03-27T21:08:30Z</time>
      </trkpt>
      <trkpt lat="41.835278" lon="-1.836897">
        <ele>979.16</ele>
        <time>2021-03-27T21:08:31Z</time>
      </trkpt>
      <trkpt lat="41.83526" lon="-1.836675">
        <ele>980.23</ele>
        <time>2021-03-27T21:08:33Z</time>
      </trkpt>
      <trkpt lat="41.835185" lon="-1.836419">
        <ele>982.23</ele>
        <time>2021-03-27T21:08:35Z</time>
      </trkpt>
      <trkpt lat="41.835061" lon="-1.836135">
        <ele>984.32</ele>
        <time>2021-03-27T21:08:37Z</time>
      </trkpt>
      <trkpt lat="41.834944" lon="-1.835905">
        <ele>984.47</ele>
        <time>2021-03-27T21:08:39Z</time>
      </trkpt>
      <trkpt lat="41.834813" lon="-1.835755">
        <ele>985.9</ele>
        <time>2021-03-27T21:08:41Z</time>
      </trkpt>
      <trkpt lat="41.834607" lon="-1.835634">
        <ele>988.23</ele>
        <time>2021-03-27T21:08:43Z</time>
      </trkpt>
      <trkpt lat="41.833951" lon="-1.835528">
        <ele>999.97</ele>
        <time>2021-03-27T21:08:45Z</time>
      </trkpt>
      <trkpt lat="41.833951" lon="-1.835528">
        <ele>999.97</ele>
        <time>2021-03-27T21:08:45Z</time>
      </trkpt>
      <trkpt lat="41.834607" lon="-1.835634">
        <ele>988.23</ele>
        <time>2021-03-27T21:08:47Z</time>
      </trkpt>
      <trkpt lat="41.834813" lon="-1.835755">
        <ele>985.9</ele>
        <time>2021-03-27T21:08:48Z</time>
      </trkpt>
      <trkpt lat="41.834944" lon="-1.835905">
        <ele>984.47</ele>
        <time>2021-03-27T21:08:50Z</time>
      </trkpt>
      <trkpt lat="41.835061" lon="-1.836135">
        <ele>984.32</ele>
        <time>2021-03-27T21:08:52Z</time>
      </trkpt>
      <trkpt lat="41.835185" lon="-1.836419">
        <ele>982.23</ele>
        <time>2021-03-27T21:08:54Z</time>
      </trkpt>
      <trkpt lat="41.83526" lon="-1.836675">
        <ele>980.23</ele>
        <time>2021-03-27T21:08:56Z</time>
      </trkpt>
      <trkpt lat="41.835278" lon="-1.836897">
        <ele>979.16</ele>
        <time>2021-03-27T21:08:58Z</time>
      </trkpt>
      <trkpt lat="41.835261" lon="-1.837131">
        <ele>977.99</ele>
        <time>2021-03-27T21:09:00Z</time>
      </trkpt>
      <trkpt lat="41.835167" lon="-1.837617">
        <ele>977.56</ele>
        <time>2021-03-27T21:09:02Z</time>
      </trkpt>
      <trkpt lat="41.835134" lon="-1.837852">
        <ele>976.96</ele>
        <time>2021-03-27T21:09:04Z</time>
      </trkpt>
      <trkpt lat="41.835133" lon="-1.838038">
        <ele>976.64</ele>
        <time>2021-03-27T21:09:05Z</time>
      </trkpt>
      <trkpt lat="41.835194" lon="-1.838239">
        <ele>975.76</ele>
        <time>2021-03-27T21:09:07Z</time>
      </trkpt>
      <trkpt lat="41.835282" lon="-1.838383">
        <ele>975.09</ele>
        <time>2021-03-27T21:09:09Z</time>
      </trkpt>
      <trkpt lat="41.835427" lon="-1.838504">
        <ele>973.05</ele>
        <time>2021-03-27T21:09:11Z</time>
      </trkpt>
      <trkpt lat="41.835611" lon="-1.838568">
        <ele>970.88</ele>
        <time>2021-03-27T21:09:13Z</time>
      </trkpt>
      <trkpt lat="41.836273" lon="-1.838655">
        <ele>965.62</ele>
        <time>2021-03-27T21:09:15Z</time>
      </trkpt>
      <trkpt lat="41.83652" lon="-1.838725">
        <ele>963.69</ele>
        <time>2021-03-27T21:09:17Z</time>
      </trkpt>
      <trkpt lat="41.837888" lon="-1.839509">
        <ele>955.03</ele>
        <time>2021-03-27T21:09:19Z</time>
      </trkpt>
      <trkpt lat="41.839094" lon="-1.840014">
        <ele>947.83</ele>
        <time>2021-03-27T21:09:20Z</time>
      </trkpt>
      <trkpt lat="41.83928" lon="-1.840155">
        <ele>946.51</ele>
        <time>2021-03-27T21:09:22Z</time>
      </trkpt>
      <trkpt lat="41.839415" lon="-1.840415">
        <ele>945.32</ele>
        <time>2021-03-27T21:09:24Z</time>
      </trkpt>
      <trkpt lat="41.83945" lon="-1.840606">
        <ele>944.95</ele>
        <time>2021-03-27T21:09:26Z</time>
      </trkpt>
      <trkpt lat="41.839299" lon="-1.843467">
        <ele>934.33</ele>
        <time>2021-03-27T21:09:28Z</time>
      </trkpt>
      <trkpt lat="41.839297" lon="-1.843777">
        <ele>932.15</ele>
        <time>2021-03-27T21:09:30Z</time>
      </trkpt>
      <trkpt lat="41.839356" lon="-1.843992">
        <ele>930.69</ele>
        <time>2021-03-27T21:09:32Z</time>
      </trkpt>
      <trkpt lat="41.839444" lon="-1.844197">
        <ele>928.78</ele>
        <time>2021-03-27T21:09:34Z</time>
      </trkpt>
      <trkpt lat="41.839559" lon="-1.844354">
        <ele>925.87</ele>
        <time>2021-03-27T21:09:36Z</time>
      </trkpt>
      <trkpt lat="41.839759" lon="-1.844529">
        <ele>922.91</ele>
        <time>2021-03-27T21:09:37Z</time>
      </trkpt>
      <trkpt lat="41.840253" lon="-1.844744">
        <ele>921.24</ele>
        <time>2021-03-27T21:09:39Z</time>
      </trkpt>
      <trkpt lat="41.841222" lon="-1.845206">
        <ele>912.82</ele>
        <time>2021-03-27T21:09:41Z</time>
      </trkpt>
      <trkpt lat="41.841352" lon="-1.845341">
        <ele>911.04</ele>
        <time>2021-03-27T21:09:43Z</time>
      </trkpt>
      <trkpt lat="41.841464" lon="-1.845559">
        <ele>909.45</ele>
        <time>2021-03-27T21:09:45Z</time>
      </trkpt>
      <trkpt lat="41.841494" lon="-1.845836">
        <ele>908.62</ele>
        <time>2021-03-27T21:09:47Z</time>
      </trkpt>
      <trkpt lat="41.841507" lon="-1.847888">
        <ele>900.32</ele>
        <time>2021-03-27T21:09:49Z</time>
      </trkpt>
      <trkpt lat="41.841487" lon="-1.848191">
        <ele>897.69</ele>
        <time>2021-03-27T21:09:51Z</time>
      </trkpt>
      <trkpt lat="41.841409" lon="-1.848427">
        <ele>896.68</ele>
        <time>2021-03-27T21:09:53Z</time>
      </trkpt>
      <trkpt lat="41.841291" lon="-1.848576">
        <ele>896.12</ele>
        <time>2021-03-27T21:09:54Z</time>
      </trkpt>
      <trkpt lat="41.841177" lon="-1.84867">
        <ele>895.63</ele>
        <time>2021-03-27T21:09:56Z</time>
      </trkpt>
      <trkpt lat="41.841007" lon="-1.848735">
        <ele>893.81</ele>
        <time>2021-03-27T21:09:58Z</time>
      </trkpt>
      <trkpt lat="41.840856" lon="-1.848712">
        <ele>892.18</ele>
        <time>2021-03-27T21:10:00Z</time>
      </trkpt>
      <trkpt lat="41.840707" lon="-1.848649">
        <ele>889.34</ele>
        <time>2021-03-27T21:10:02Z</time>
      </trkpt>
      <trkpt lat="41.840515" lon="-1.848461">
        <ele>887.57</ele>
        <time>2021-03-27T21:10:04Z</time>
      </trkpt>
      <trkpt lat="41.840109" lon="-1.84786">
        <ele>891.42</ele>
        <time>2021-03-27T21:10:06Z</time>
      </trkpt>
      <trkpt lat="41.839934" lon="-1.847718">
        <ele>891.72</ele>
        <time>2021-03-27T21:10:08Z</time>
      </trkpt>
      <trkpt lat="41.839802" lon="-1.847674">
        <ele>890.21</ele>
        <time>2021-03-27T21:10:09Z</time>
      </trkpt>
      <trkpt lat="41.839664" lon="-1.847708">
        <ele>887.2</ele>
        <time>2021-03-27T21:10:11Z</time>
      </trkpt>
      <trkpt lat="41.839476" lon="-1.847829">
        <ele>882.0</ele>
        <time>2021-03-27T21:10:13Z</time>
      </trkpt>
      <trkpt lat="41.839403" lon="-1.847949">
        <ele>880.28</ele>
        <time>2021-03-27T21:10:15Z</time>
      </trkpt>
      <trkpt lat="41.839341" lon="-1.848111">
        <ele>879.84</ele>
        <time>2021-03-27T21:10:17Z</time>
      </trkpt>
      <trkpt lat="41.839318" lon="-1.848319">
        <ele>880.68</ele>
        <time>2021-03-27T21:10:19Z</time>
      </trkpt>
      <trkpt lat="41.839372" lon="-1.848642">
        <ele>881.34</ele>
        <time>2021-03-27T21:10:21Z</time>
      </trkpt>
      <trkpt lat="41.839561" lon="-1.849436">
        <ele>882.05</ele>
        <time>2021-03-27T21:10:23Z</time>
      </trkpt>
      <trkpt lat="41.840001" lon="-1.850729">
        <ele>877.23</ele>
        <time>2021-03-27T21:10:25Z</time>
      </trkpt>
      <trkpt lat="41.8401" lon="-1.850982">
        <ele>878.34</ele>
        <time>2021-03-27T21:10:26Z</time>
      </trkpt>
      <trkpt lat="41.840172" lon="-1.851116">
        <ele>878.57</ele>
        <time>2021-03-27T21:10:28Z</time>
      </trkpt>
      <trkpt lat="41.84076" lon="-1.852044">
        <ele>872.65</ele>
        <time>2021-03-27T21:10:30Z</time>
      </trkpt>
      <trkpt lat="41.8409" lon="-1.852307">
        <ele>871.09</ele>
        <time>2021-03-27T21:10:32Z</time>
      </trkpt>
      <trkpt lat="41.84096" lon="-1.852483">
        <ele>870.71</ele>
        <time>2021-03-27T21:10:34Z</time>
      </trkpt>
      <trkpt lat="41.840976" lon="-1.852657">
        <ele>870.7</ele>
        <time>2021-03-27T21:10:36Z</time>
      </trkpt>
      <trkpt lat="41.840968" lon="-1.852827">
        <ele>871.0</ele>
        <time>2021-03-27T21:10:38Z</time>
      </trkpt>
      <trkpt lat="41.840919" lon="-1.85299">
        <ele>871.63</ele>
        <time>2021-03-27T21:10:40Z</time>
      </trkpt>
      <trkpt lat="41.840795" lon="-1.853167">
        <ele>872.48</ele>
        <time>2021-03-27T21:10:42Z</time>
      </trkpt>
      <trkpt lat="41.840526" lon="-1.853468">
        <ele>875.66</ele>
        <time>2021-03-27T21:10:43Z</time>
      </trkpt>
      <trkpt lat="41.84034" lon="-1.85372">
        <ele>874.31</ele>
        <time>2021-03-27T21:10:45Z</time>
      </trkpt>
      <trkpt lat="41.840208" lon="-1.853953">
        <ele>874.69</ele>
        <time>2021-03-27T21:10:47Z</time>
      </trkpt>
      <trkpt lat="41.840154" lon="-1.854122">
        <ele>874.18</ele>
        <time>2021-03-27T21:10:49Z</time>
      </trkpt>
      <trkpt lat="41.840167" lon="-1.854261">
        <ele>873.06</ele>
        <time>2021-03-27T21:10:51Z</time>
      </trkpt>
      <trkpt lat="41.840201" lon="-1.854384">
        <ele>872.48</ele>
        <time>2021-03-27T21:10:53Z</time>
      </trkpt>
      <trkpt lat="41.840312" lon="-1.85456">
        <ele>872.64</ele>
        <time>2021-03-27T21:10:55Z</time>
      </trkpt>
      <trkpt lat="41.840368" lon="-1.854596">
        <ele>873.22</ele>
        <time>2021-03-27T21:10:57Z</time>
      </trkpt>
      <trkpt lat="41.84047" lon="-1.854582">
        <ele>873.87</ele>
        <time>2021-03-27T21:10:58Z</time>
      </trkpt>
      <trkpt lat="41.840779" lon="-1.854416">
        <ele>873.31</ele>
        <time>2021-03-27T21:11:00Z</time>
      </trkpt>
      <trkpt lat="41.841078" lon="-1.854221">
        <ele>871.04</ele>
        <time>2021-03-27T21:11:02Z</time>
      </trkpt>
      <trkpt lat="41.841318" lon="-1.854138">
        <ele>869.49</ele>
        <time>2021-03-27T21:11:04Z</time>
      </trkpt>
      <trkpt lat="41.841607" lon="-1.854122">
        <ele>867.51</ele>
        <time>2021-03-27T21:11:06Z</time>
      </trkpt>
      <trkpt lat="41.841982" lon="-1.853918">
        <ele>859.94</ele>
        <time>2021-03-27T21:11:08Z</time>
      </trkpt>
      <trkpt lat="41.842269" lon="-1.853912">
        <ele>857.1</ele>
        <time>2021-03-27T21:11:10Z</time>
      </trkpt>
      <trkpt lat="41.842474" lon="-1.853978">
        <ele>857.08</ele>
        <time>2021-03-27T21:11:12Z</time>
      </trkpt>
      <trkpt lat="41.842712" lon="-1.854113">
        <ele>858.47</ele>
        <time>2021-03-27T21:11:14Z</time>
      </trkpt>
      <trkpt lat="41.842823" lon="-1.854132">
        <ele>858.59</ele>
        <time>2021-03-27T21:11:15Z</time>
      </trkpt>
      <trkpt lat="41.84297" lon="-1.854113">
        <ele>858.99</ele>
        <time>2021-03-27T21:11:17Z</time>
      </trkpt>
      <trkpt lat="41.843519" lon="-1.853928">
        <ele>852.13</ele>
        <time>2021-03-27T21:11:19Z</time>
      </trkpt>
      <trkpt lat="41.843664" lon="-1.853921">
        <ele>850.84</ele>
        <time>2021-03-27T21:11:21Z</time>
      </trkpt>
      <trkpt lat="41.843775" lon="-1.853968">
        <ele>851.61</ele>
        <time>2021-03-27T21:11:23Z</time>
      </trkpt>
      <trkpt lat="41.843874" lon="-1.854061">
        <ele>852.6</ele>
        <time>2021-03-27T21:11:25Z</time>
      </trkpt>
      <trkpt lat="41.84398" lon="-1.854235">
        <ele>852.37</ele>
        <time>2021-03-27T21:11:27Z</time>
      </trkpt>
      <trkpt lat="41.844258" lon="-1.855008">
        <ele>846.34</ele>
        <time>2021-03-27T21:11:29Z</time>
      </trkpt>
      <trkpt lat="41.844369" lon="-1.85518">
        <ele>846.31</ele>
        <time>2021-03-27T21:11:30Z</time>
      </trkpt>
      <trkpt lat="41.844505" lon="-1.855263">
        <ele>847.53</ele>
        <time>2021-03-27T21:11:32Z</time>
      </trkpt>
      <trkpt lat="41.844661" lon="-1.85528">
        <ele>849.35</ele>
        <time>2021-03-27T21:11:34Z</time>
      </trkpt>
      <trkpt lat="41.844798" lon="-1.855236">
        <ele>850.92</ele>
        <time>2021-03-27T21:11:36Z</time>
      </trkpt>
      <trkpt lat="41.844917" lon="-1.85515">
        <ele>852.11</ele>
        <time>2021-03-27T21:11:38Z</time>
      </trkpt>
      <trkpt lat="41.845824" lon="-1.853951">
        <ele>860.47</ele>
        <time>2021-03-27T21:11:40Z</time>
      </trkpt>
      <trkpt lat="41.845899" lon="-1.85379">
        <ele>861.39</ele>
        <time>2021-03-27T21:11:42Z</time>
      </trkpt>
      <trkpt lat="41.845964" lon="-1.853556">
        <ele>860.59</ele>
        <time>2021-03-27T21:11:44Z</time>
      </trkpt>
      <trkpt lat="41.846023" lon="-1.853138">
        <ele>856.35</ele>
        <time>2021-03-27T21:11:46Z</time>
      </trkpt>
      <trkpt lat="41.84609" lon="-1.852848">
        <ele>855.9</ele>
        <time>2021-03-27T21:11:47Z</time>
      </trkpt>
      <trkpt lat="41.846221" lon="-1.852645">
        <ele>856.47</ele>
        <time>2021-03-27T21:11:49Z</time>
      </trkpt>
      <trkpt lat="41.846426" lon="-1.852517">
        <ele>858.33</ele>
        <time>2021-03-27T21:11:51Z</time>
      </trkpt>
      <trkpt lat="41.846574" lon="-1.852491">
        <ele>861.32</ele>
        <time>2021-03-27T21:11:53Z</time>
      </trkpt>
      <trkpt lat="41.847084" lon="-1.852602">
        <ele>870.13</ele>
        <time>2021-03-27T21:11:55Z</time>
      </trkpt>
      <trkpt lat="41.847347" lon="-1.852572">
        <ele>871.86</ele>
        <time>2021-03-27T21:11:57Z</time>
      </trkpt>
      <trkpt lat="41.848217" lon="-1.852209">
        <ele>874.64</ele>
        <time>2021-03-27T21:11:59Z</time>
      </trkpt>
      <trkpt lat="41.848463" lon="-1.852">
        <ele>876.64</ele>
        <time>2021-03-27T21:12:01Z</time>
      </trkpt>
      <trkpt lat="41.848708" lon="-1.851735">
        <ele>878.46</ele>
        <time>2021-03-27T21:12:03Z</time>
      </trkpt>
      <trkpt lat="41.848887" lon="-1.851592">
        <ele>877.83</ele>
        <time>2021-03-27T21:12:04Z</time>
      </trkpt>
      <trkpt lat="41.84905" lon="-1.851534">
        <ele>877.29</ele>
        <time>2021-03-27T21:12:06Z</time>
      </trkpt>
      <trkpt lat="41.849172" lon="-1.851563">
        <ele>878.47</ele>
        <time>2021-03-27T21:12:08Z</time>
      </trkpt>
      <trkpt lat="41.849282" lon="-1.851625">
        <ele>878.28</ele>
        <time>2021-03-27T21:12:10Z</time>
      </trkpt>
      <trkpt lat="41.849403" lon="-1.851822">
        <ele>879.68</ele>
        <time>2021-03-27T21:12:12Z</time>
      </trkpt>
      <trkpt lat="41.84943" lon="-1.852036">
        <ele>882.76</ele>
        <time>2021-03-27T21:12:14Z</time>
      </trkpt>
      <trkpt lat="41.849405" lon="-1.852223">
        <ele>886.01</ele>
        <time>2021-03-27T21:12:16Z</time>
      </trkpt>
      <trkpt lat="41.849302" lon="-1.852509">
        <ele>887.01</ele>
        <time>2021-03-27T21:12:18Z</time>
      </trkpt>
      <trkpt lat="41.848615" lon="-1.8538">
        <ele>894.35</ele>
        <time>2021-03-27T21:12:19Z</time>
      </trkpt>
      <trkpt lat="41.848408" lon="-1.854295">
        <ele>897.98</ele>
        <time>2021-03-27T21:12:21Z</time>
      </trkpt>
      <trkpt lat="41.848236" lon="-1.854855">
        <ele>899.32</ele>
        <time>2021-03-27T21:12:23Z</time>
      </trkpt>
      <trkpt lat="41.8448" lon="-1.86996">
        <ele>939.07</ele>
        <time>2021-03-27T21:12:25Z</time>
      </trkpt>
      <trkpt lat="41.844527" lon="-1.870714">
        <ele>939.2</ele>
        <time>2021-03-27T21:12:27Z</time>
      </trkpt>
      <trkpt lat="41.844377" lon="-1.871199">
        <ele>936.02</ele>
        <time>2021-03-27T21:12:29Z</time>
      </trkpt>
      <trkpt lat="41.844331" lon="-1.871546">
        <ele>934.63</ele>
        <time>2021-03-27T21:12:31Z</time>
      </trkpt>
      <trkpt lat="41.844352" lon="-1.87191">
        <ele>935.79</ele>
        <time>2021-03-27T21:12:33Z</time>
      </trkpt>
      <trkpt lat="41.844427" lon="-1.872237">
        <ele>937.18</ele>
        <time>2021-03-27T21:12:35Z</time>
      </trkpt>
      <trkpt lat="41.845047" lon="-1.87383">
        <ele>931.33</ele>
        <time>2021-03-27T21:12:36Z</time>
      </trkpt>
      <trkpt lat="41.845232" lon="-1.874183">
        <ele>928.03</ele>
        <time>2021-03-27T21:12:38Z</time>
      </trkpt>
      <trkpt lat="41.845691" lon="-1.874786">
        <ele>927.65</ele>
        <time>2021-03-27T21:12:40Z</time>
      </trkpt>
      <trkpt lat="41.845756" lon="-1.874992">
        <ele>928.31</ele>
        <time>2021-03-27T21:12:42Z</time>
      </trkpt>
      <trkpt lat="41.845779" lon="-1.875217">
        <ele>927.2</ele>
        <time>2021-03-27T21:12:44Z</time>
      </trkpt>
      <trkpt lat="41.845728" lon="-1.875393">
        <ele>926.65</ele>
        <time>2021-03-27T21:12:46Z</time>
      </trkpt>
      <trkpt lat="41.845595" lon="-1.875616">
        <ele>926.04</ele>
        <time>2021-03-27T21:12:48Z</time>
      </trkpt>
      <trkpt lat="41.845408" lon="-1.875752">
        <ele>924.12</ele>
        <time>2021-03-27T21:12:50Z</time>
      </trkpt>
      <trkpt lat="41.844947" lon="-1.875952">
        <ele>926.0</ele>
        <time>2021-03-27T21:12:51Z</time>
      </trkpt>
      <trkpt lat="41.844831" lon="-1.876035">
        <ele>927.02</ele>
        <time>2021-03-27T21:12:53Z</time>
      </trkpt>
      <trkpt lat="41.844707" lon="-1.876199">
        <ele>926.97</ele>
        <time>2021-03-27T21:12:55Z</time>
      </trkpt>
      <trkpt lat="41.844643" lon="-1.876383">
        <ele>924.94</ele>
        <time>2021-03-27T21:12:57Z</time>
      </trkpt>
      <trkpt lat="41.844628" lon="-1.87656">
        <ele>923.58</ele>
        <time>2021-03-27T21:12:59Z</time>
      </trkpt>
      <trkpt lat="41.844657" lon="-1.876764">
        <ele>922.3</ele>
        <time>2021-03-27T21:13:01Z</time>
      </trkpt>
      <trkpt lat="41.844735" lon="-1.87695">
        <ele>921.99</ele>
        <time>2021-03-27T21:13:03Z</time>
      </trkpt>
      <trkpt lat="41.844859" lon="-1.877077">
        <ele>922.93</ele>
        <time>2021-03-27T21:13:05Z</time>
      </trkpt>
      <trkpt lat="41.845036" lon="-1.877162">
        <ele>924.2</ele>
        <time>2021-03-27T21:13:07Z</time>
      </trkpt>
      <trkpt lat="41.846218" lon="-1.877275">
        <ele>928.29</ele>
        <time>2021-03-27T21:13:08Z</time>
      </trkpt>
      <trkpt lat="41.847408" lon="-1.877307">
        <ele>937.62</ele>
        <time>2021-03-27T21:13:10Z</time>
      </trkpt>
      <trkpt lat="41.847554" lon="-1.877371">
        <ele>938.1</ele>
        <time>2021-03-27T21:13:12Z</time>
      </trkpt>
      <trkpt lat="41.847658" lon="-1.877458">
        <ele>938.53</ele>
        <time>2021-03-27T21:13:14Z</time>
      </trkpt>
      <trkpt lat="41.84776" lon="-1.877574">
        <ele>938.99</ele>
        <time>2021-03-27T21:13:16Z</time>
      </trkpt>
      <trkpt lat="41.847873" lon="-1.877803">
        <ele>939.49</ele>
        <time>2021-03-27T21:13:18Z</time>
      </trkpt>
      <trkpt lat="41.84806" lon="-1.878249">
        <ele>937.67</ele>
        <time>2021-03-27T21:13:20Z</time>
      </trkpt>
      <trkpt lat="41.84814" lon="-1.878372">
        <ele>938.58</ele>
        <time>2021-03-27T21:13:22Z</time>
      </trkpt>
      <trkpt lat="41.848236" lon="-1.878471">
        <ele>940.18</ele>
        <time>2021-03-27T21:13:24Z</time>
      </trkpt>
      <trkpt lat="41.848786" lon="-1.878857">
        <ele>944.17</ele>
        <time>2021-03-27T21:13:25Z</time>
      </trkpt>
      <trkpt lat="41.84892" lon="-1.879055">
        <ele>946.59</ele>
        <time>2021-03-27T21:13:27Z</time>
      </trkpt>
      <trkpt lat="41.849568" lon="-1.880424">
        <ele>949.63</ele>
        <time>2021-03-27T21:13:29Z</time>
      </trkpt>
      <trkpt lat="41.849709" lon="-1.880803">
        <ele>951.04</ele>
        <time>2021-03-27T21:13:31Z</time>
      </trkpt>
      <trkpt lat="41.849883" lon="-1.881501">
        <ele>951.84</ele>
        <time>2021-03-27T21:13:33Z</time>
      </trkpt>
      <trkpt lat="41.849924" lon="-1.88175">
        <ele>952.78</ele>
        <time>2021-03-27T21:13:35Z</time>
      </trkpt>
      <trkpt lat="41.849943" lon="-1.881971">
        <ele>953.64</ele>
        <time>2021-03-27T21:13:37Z</time>
      </trkpt>
      <trkpt lat="41.849941" lon="-1.882711">
        <ele>956.91</ele>
        <time>2021-03-27T21:13:39Z</time>
      </trkpt>
      <trkpt lat="41.849979" lon="-1.882969">
        <ele>959.24</ele>
        <time>2021-03-27T21:13:40Z</time>
      </trkpt>
      <trkpt lat="41.850052" lon="-1.883175">
        <ele>960.23</ele>
        <time>2021-03-27T21:13:42Z</time>
      </trkpt>
      <trkpt lat="41.85034" lon="-1.883666">
        <ele>958.0</ele>
        <time>2021-03-27T21:13:44Z</time>
      </trkpt>
      <trkpt lat="41.850424" lon="-1.883879">
        <ele>957.26</ele>
        <time>2021-03-27T21:13:46Z</time>
      </trkpt>
      <trkpt lat="41.850581" lon="-1.884631">
        <ele>957.94</ele>
        <time>2021-03-27T21:13:48Z</time>
      </trkpt>
      <trkpt lat="41.85069" lon="-1.885036">
        <ele>961.11</ele>
        <time>2021-03-27T21:13:50Z</time>
      </trkpt>
      <trkpt lat="41.851076" lon="-1.885902">
        <ele>964.07</ele>
        <time>2021-03-27T21:13:52Z</time>
      </trkpt>
      <trkpt lat="41.851116" lon="-1.886068">
        <ele>964.56</ele>
        <time>2021-03-27T21:13:54Z</time>
      </trkpt>
      <trkpt lat="41.851128" lon="-1.886292">
        <ele>964.53</ele>
        <time>2021-03-27T21:13:56Z</time>
      </trkpt>
      <trkpt lat="41.851095" lon="-1.886883">
        <ele>967.86</ele>
        <time>2021-03-27T21:13:57Z</time>
      </trkpt>
      <trkpt lat="41.851102" lon="-1.887108">
        <ele>969.45</ele>
        <time>2021-03-27T21:13:59Z</time>
      </trkpt>
      <trkpt lat="41.851165" lon="-1.887324">
        <ele>969.57</ele>
        <time>2021-03-27T21:14:01Z</time>
      </trkpt>
      <trkpt lat="41.851254" lon="-1.887457">
        <ele>969.21</ele>
        <time>2021-03-27T21:14:03Z</time>
      </trkpt>
      <trkpt lat="41.851453" lon="-1.887689">
        <ele>968.56</ele>
        <time>2021-03-27T21:14:05Z</time>
      </trkpt>
      <trkpt lat="41.851584" lon="-1.887892">
        <ele>969.42</ele>
        <time>2021-03-27T21:14:07Z</time>
      </trkpt>
      <trkpt lat="41.851735" lon="-1.888283">
        <ele>974.48</ele>
        <time>2021-03-27T21:14:09Z</time>
      </trkpt>
      <trkpt lat="41.851788" lon="-1.88846">
        <ele>975.48</ele>
        <time>2021-03-27T21:14:11Z</time>
      </trkpt>
      <trkpt lat="41.851814" lon="-1.888654">
        <ele>976.1</ele>
        <time>2021-03-27T21:14:13Z</time>
      </trkpt>
      <trkpt lat="41.851781" lon="-1.889165">
        <ele>973.55</ele>
        <time>2021-03-27T21:14:14Z</time>
      </trkpt>
      <trkpt lat="41.851784" lon="-1.889375">
        <ele>972.71</ele>
        <time>2021-03-27T21:14:16Z</time>
      </trkpt>
      <trkpt lat="41.851826" lon="-1.889547">
        <ele>972.09</ele>
        <time>2021-03-27T21:14:18Z</time>
      </trkpt>
      <trkpt lat="41.852303" lon="-1.890612">
        <ele>971.35</ele>
        <time>2021-03-27T21:14:20Z</time>
      </trkpt>
      <trkpt lat="41.852446" lon="-1.890839">
        <ele>970.45</ele>
        <time>2021-03-27T21:14:22Z</time>
      </trkpt>
      <trkpt lat="41.852868" lon="-1.891259">
        <ele>971.25</ele>
        <time>2021-03-27T21:14:24Z</time>
      </trkpt>
      <trkpt lat="41.852959" lon="-1.891395">
        <ele>971.74</ele>
        <time>2021-03-27T21:14:26Z</time>
      </trkpt>
      <trkpt lat="41.853019" lon="-1.891625">
        <ele>973.08</ele>
        <time>2021-03-27T21:14:28Z</time>
      </trkpt>
      <trkpt lat="41.853078" lon="-1.89224">
        <ele>972.59</ele>
        <time>2021-03-27T21:14:29Z</time>
      </trkpt>
      <trkpt lat="41.853175" lon="-1.892528">
        <ele>971.43</ele>
        <time>2021-03-27T21:14:31Z</time>
      </trkpt>
      <trkpt lat="41.853918" lon="-1.893998">
        <ele>968.43</ele>
        <time>2021-03-27T21:14:33Z</time>
      </trkpt>
      <trkpt lat="41.854068" lon="-1.894359">
        <ele>967.67</ele>
        <time>2021-03-27T21:14:35Z</time>
      </trkpt>
      <trkpt lat="41.854193" lon="-1.894717">
        <ele>965.53</ele>
        <time>2021-03-27T21:14:37Z</time>
      </trkpt>
      <trkpt lat="41.854368" lon="-1.895328">
        <ele>968.15</ele>
        <time>2021-03-27T21:14:39Z</time>
      </trkpt>
      <trkpt lat="41.854518" lon="-1.896068">
        <ele>969.17</ele>
        <time>2021-03-27T21:14:41Z</time>
      </trkpt>
      <trkpt lat="41.854543" lon="-1.896264">
        <ele>969.48</ele>
        <time>2021-03-27T21:14:43Z</time>
      </trkpt>
      <trkpt lat="41.854548" lon="-1.896465">
        <ele>969.77</ele>
        <time>2021-03-27T21:14:45Z</time>
      </trkpt>
      <trkpt lat="41.854478" lon="-1.89704">
        <ele>970.69</ele>
        <time>2021-03-27T21:14:46Z</time>
      </trkpt>
      <trkpt lat="41.854491" lon="-1.897231">
        <ele>971.08</ele>
        <time>2021-03-27T21:14:48Z</time>
      </trkpt>
      <trkpt lat="41.854529" lon="-1.89737">
        <ele>971.76</ele>
        <time>2021-03-27T21:14:50Z</time>
      </trkpt>
      <trkpt lat="41.854609" lon="-1.897525">
        <ele>971.77</ele>
        <time>2021-03-27T21:14:52Z</time>
      </trkpt>
      <trkpt lat="41.854721" lon="-1.897624">
        <ele>970.8</ele>
        <time>2021-03-27T21:14:54Z</time>
      </trkpt>
      <trkpt lat="41.855095" lon="-1.897856">
        <ele>972.29</ele>
        <time>2021-03-27T21:14:56Z</time>
      </trkpt>
      <trkpt lat="41.855324" lon="-1.89812">
        <ele>973.06</ele>
        <time>2021-03-27T21:14:58Z</time>
      </trkpt>
      <trkpt lat="41.855429" lon="-1.898323">
        <ele>973.6</ele>
        <time>2021-03-27T21:15:00Z</time>
      </trkpt>
      <trkpt lat="41.855796" lon="-1.899178">
        <ele>977.24</ele>
        <time>2021-03-27T21:15:01Z</time>
      </trkpt>
      <trkpt lat="41.856285" lon="-1.899995">
        <ele>978.4</ele>
        <time>2021-03-27T21:15:03Z</time>
      </trkpt>
      <trkpt lat="41.85637" lon="-1.900243">
        <ele>977.46</ele>
        <time>2021-03-27T21:15:05Z</time>
      </trkpt>
      <trkpt lat="41.856407" lon="-1.900429">
        <ele>976.12</ele>
        <time>2021-03-27T21:15:07Z</time>
      </trkpt>
      <trkpt lat="41.856422" lon="-1.900663">
        <ele>975.32</ele>
        <time>2021-03-27T21:15:09Z</time>
      </trkpt>
      <trkpt lat="41.856398" lon="-1.901315">
        <ele>978.59</ele>
        <time>2021-03-27T21:15:11Z</time>
      </trkpt>
      <trkpt lat="41.856575" lon="-1.90217">
        <ele>975.83</ele>
        <time>2021-03-27T21:15:13Z</time>
      </trkpt>
      <trkpt lat="41.856594" lon="-1.902396">
        <ele>974.45</ele>
        <time>2021-03-27T21:15:15Z</time>
      </trkpt>
      <trkpt lat="41.856586" lon="-1.902585">
        <ele>974.62</ele>
        <time>2021-03-27T21:15:17Z</time>
      </trkpt>
      <trkpt lat="41.856523" lon="-1.902887">
        <ele>976.34</ele>
        <time>2021-03-27T21:15:18Z</time>
      </trkpt>
      <trkpt lat="41.856319" lon="-1.903505">
        <ele>975.23</ele>
        <time>2021-03-27T21:15:20Z</time>
      </trkpt>
      <trkpt lat="41.856275" lon="-1.903774">
        <ele>976.28</ele>
        <time>2021-03-27T21:15:22Z</time>
      </trkpt>
      <trkpt lat="41.856255" lon="-1.904027">
        <ele>978.06</ele>
        <time>2021-03-27T21:15:24Z</time>
      </trkpt>
      <trkpt lat="41.856188" lon="-1.905388">
        <ele>978.93</ele>
        <time>2021-03-27T21:15:26Z</time>
      </trkpt>
      <trkpt lat="41.856148" lon="-1.90566">
        <ele>977.4</ele>
        <time>2021-03-27T21:15:28Z</time>
      </trkpt>
      <trkpt lat="41.856089" lon="-1.905872">
        <ele>975.99</ele>
        <time>2021-03-27T21:15:30Z</time>
      </trkpt>
      <trkpt lat="41.856011" lon="-1.906052">
        <ele>975.43</ele>
        <time>2021-03-27T21:15:32Z</time>
      </trkpt>
      <trkpt lat="41.85588" lon="-1.906249">
        <ele>975.34</ele>
        <time>2021-03-27T21:15:34Z</time>
      </trkpt>
      <trkpt lat="41.855753" lon="-1.906376">
        <ele>975.9</ele>
        <time>2021-03-27T21:15:35Z</time>
      </trkpt>
      <trkpt lat="41.855601" lon="-1.906477">
        <ele>978.43</ele>
        <time>2021-03-27T21:15:37Z</time>
      </trkpt>
      <trkpt lat="41.855429" lon="-1.906545">
        <ele>979.27</ele>
        <time>2021-03-27T21:15:39Z</time>
      </trkpt>
      <trkpt lat="41.855245" lon="-1.906567">
        <ele>979.19</ele>
        <time>2021-03-27T21:15:41Z</time>
      </trkpt>
      <trkpt lat="41.854063" lon="-1.906581">
        <ele>966.75</ele>
        <time>2021-03-27T21:15:43Z</time>
      </trkpt>
      <trkpt lat="41.853891" lon="-1.906622">
        <ele>965.49</ele>
        <time>2021-03-27T21:15:45Z</time>
      </trkpt>
      <trkpt lat="41.853762" lon="-1.906723">
        <ele>964.58</ele>
        <time>2021-03-27T21:15:47Z</time>
      </trkpt>
      <trkpt lat="41.853649" lon="-1.90687">
        <ele>964.07</ele>
        <time>2021-03-27T21:15:49Z</time>
      </trkpt>
      <trkpt lat="41.853558" lon="-1.90709">
        <ele>965.14</ele>
        <time>2021-03-27T21:15:50Z</time>
      </trkpt>
      <trkpt lat="41.853254" lon="-1.90858">
        <ele>971.46</ele>
        <time>2021-03-27T21:15:52Z</time>
      </trkpt>
      <trkpt lat="41.853186" lon="-1.908751">
        <ele>972.06</ele>
        <time>2021-03-27T21:15:54Z</time>
      </trkpt>
      <trkpt lat="41.853078" lon="-1.908892">
        <ele>972.8</ele>
        <time>2021-03-27T21:15:56Z</time>
      </trkpt>
      <trkpt lat="41.852936" lon="-1.908968">
        <ele>972.33</ele>
        <time>2021-03-27T21:15:58Z</time>
      </trkpt>
      <trkpt lat="41.852678" lon="-1.909018">
        <ele>971.67</ele>
        <time>2021-03-27T21:16:00Z</time>
      </trkpt>
      <trkpt lat="41.852379" lon="-1.909108">
        <ele>969.43</ele>
        <time>2021-03-27T21:16:02Z</time>
      </trkpt>
      <trkpt lat="41.852113" lon="-1.909157">
        <ele>967.7</ele>
        <time>2021-03-27T21:16:04Z</time>
      </trkpt>
      <trkpt lat="41.851981" lon="-1.909238">
        <ele>966.33</ele>
        <time>2021-03-27T21:16:06Z</time>
      </trkpt>
      <trkpt lat="41.851878" lon="-1.909365">
        <ele>965.84</ele>
        <time>2021-03-27T21:16:07Z</time>
      </trkpt>
      <trkpt lat="41.851813" lon="-1.909482">
        <ele>966.22</ele>
        <time>2021-03-27T21:16:09Z</time>
      </trkpt>
      <trkpt lat="41.851748" lon="-1.909656">
        <ele>967.1</ele>
        <time>2021-03-27T21:16:11Z</time>
      </trkpt>
      <trkpt lat="41.851742" lon="-1.909823">
        <ele>967.1</ele>
        <time>2021-03-27T21:16:13Z</time>
      </trkpt>
      <trkpt lat="41.851856" lon="-1.911258">
        <ele>961.06</ele>
        <time>2021-03-27T21:16:15Z</time>
      </trkpt>
      <trkpt lat="41.851841" lon="-1.91146">
        <ele>960.85</ele>
        <time>2021-03-27T21:16:17Z</time>
      </trkpt>
      <trkpt lat="41.851793" lon="-1.911635">
        <ele>960.15</ele>
        <time>2021-03-27T21:16:19Z</time>
      </trkpt>
      <trkpt lat="41.851695" lon="-1.911799">
        <ele>959.57</ele>
        <time>2021-03-27T21:16:21Z</time>
      </trkpt>
      <trkpt lat="41.851598" lon="-1.91189">
        <ele>958.91</ele>
        <time>2021-03-27T21:16:23Z</time>
      </trkpt>
      <trkpt lat="41.851461" lon="-1.911967">
        <ele>958.66</ele>
        <time>2021-03-27T21:16:24Z</time>
      </trkpt>
      <trkpt lat="41.850175" lon="-1.912457">
        <ele>951.62</ele>
        <time>2021-03-27T21:16:26Z</time>
      </trkpt>
      <trkpt lat="41.850039" lon="-1.912467">
        <ele>950.96</ele>
        <time>2021-03-27T21:16:28Z</time>
      </trkpt>
      <trkpt lat="41.849885" lon="-1.91244">
        <ele>951.74</ele>
        <time>2021-03-27T21:16:30Z</time>
      </trkpt>
      <trkpt lat="41.849442" lon="-1.912247">
        <ele>952.71</ele>
        <time>2021-03-27T21:16:32Z</time>
      </trkpt>
      <trkpt lat="41.849282" lon="-1.912255">
        <ele>951.03</ele>
        <time>2021-03-27T21:16:34Z</time>
      </trkpt>
      <trkpt lat="41.849146" lon="-1.912287">
        <ele>949.78</ele>
        <time>2021-03-27T21:16:36Z</time>
      </trkpt>
      <trkpt lat="41.849028" lon="-1.912375">
        <ele>949.72</ele>
        <time>2021-03-27T21:16:38Z</time>
      </trkpt>
      <trkpt lat="41.848915" lon="-1.912507">
        <ele>949.9</ele>
        <time>2021-03-27T21:16:39Z</time>
      </trkpt>
      <trkpt lat="41.848803" lon="-1.91283">
        <ele>951.42</ele>
        <time>2021-03-27T21:16:41Z</time>
      </trkpt>
      <trkpt lat="41.848806" lon="-1.913093">
        <ele>950.85</ele>
        <time>2021-03-27T21:16:43Z</time>
      </trkpt>
      <trkpt lat="41.848855" lon="-1.913291">
        <ele>950.37</ele>
        <time>2021-03-27T21:16:45Z</time>
      </trkpt>
      <trkpt lat="41.848961" lon="-1.913485">
        <ele>950.72</ele>
        <time>2021-03-27T21:16:47Z</time>
      </trkpt>
      <trkpt lat="41.849098" lon="-1.913624">
        <ele>951.46</ele>
        <time>2021-03-27T21:16:49Z</time>
      </trkpt>
      <trkpt lat="41.850722" lon="-1.914556">
        <ele>952.68</ele>
        <time>2021-03-27T21:16:51Z</time>
      </trkpt>
      <trkpt lat="41.850894" lon="-1.914697">
        <ele>951.03</ele>
        <time>2021-03-27T21:16:53Z</time>
      </trkpt>
      <trkpt lat="41.851051" lon="-1.914912">
        <ele>950.38</ele>
        <time>2021-03-27T21:16:55Z</time>
      </trkpt>
      <trkpt lat="41.851338" lon="-1.915488">
        <ele>946.74</ele>
        <time>2021-03-27T21:16:56Z</time>
      </trkpt>
      <trkpt lat="41.851507" lon="-1.915902">
        <ele>947.04</ele>
        <time>2021-03-27T21:16:58Z</time>
      </trkpt>
      <trkpt lat="41.851683" lon="-1.916757">
        <ele>951.33</ele>
        <time>2021-03-27T21:17:00Z</time>
      </trkpt>
      <trkpt lat="41.851819" lon="-1.917151">
        <ele>951.59</ele>
        <time>2021-03-27T21:17:02Z</time>
      </trkpt>
      <trkpt lat="41.851838" lon="-1.917324">
        <ele>951.16</ele>
        <time>2021-03-27T21:17:04Z</time>
      </trkpt>
      <trkpt lat="41.85169" lon="-1.917905">
        <ele>951.29</ele>
        <time>2021-03-27T21:17:06Z</time>
      </trkpt>
      <trkpt lat="41.851661" lon="-1.918227">
        <ele>950.48</ele>
        <time>2021-03-27T21:17:08Z</time>
      </trkpt>
      <trkpt lat="41.851673" lon="-1.918448">
        <ele>949.49</ele>
        <time>2021-03-27T21:17:10Z</time>
      </trkpt>
      <trkpt lat="41.851876" lon="-1.919651">
        <ele>945.31</ele>
        <time>2021-03-27T21:17:11Z</time>
      </trkpt>
      <trkpt lat="41.851886" lon="-1.919815">
        <ele>944.54</ele>
        <time>2021-03-27T21:17:13Z</time>
      </trkpt>
      <trkpt lat="41.851871" lon="-1.919979">
        <ele>943.41</ele>
        <time>2021-03-27T21:17:15Z</time>
      </trkpt>
      <trkpt lat="41.851769" lon="-1.920446">
        <ele>942.63</ele>
        <time>2021-03-27T21:17:17Z</time>
      </trkpt>
      <trkpt lat="41.851921" lon="-1.921618">
        <ele>943.84</ele>
        <time>2021-03-27T21:17:19Z</time>
      </trkpt>
      <trkpt lat="41.851998" lon="-1.922338">
        <ele>948.34</ele>
        <time>2021-03-27T21:17:21Z</time>
      </trkpt>
      <trkpt lat="41.851996" lon="-1.922743">
        <ele>947.94</ele>
        <time>2021-03-27T21:17:23Z</time>
      </trkpt>
      <trkpt lat="41.851912" lon="-1.923182">
        <ele>946.95</ele>
        <time>2021-03-27T21:17:25Z</time>
      </trkpt>
      <trkpt lat="41.851911" lon="-1.92343">
        <ele>945.82</ele>
        <time>2021-03-27T21:17:27Z</time>
      </trkpt>
      <trkpt lat="41.851986" lon="-1.923953">
        <ele>942.62</ele>
        <time>2021-03-27T21:17:28Z</time>
      </trkpt>
      <trkpt lat="41.852068" lon="-1.924068">
        <ele>941.91</ele>
        <time>2021-03-27T21:17:30Z</time>
      </trkpt>
      <trkpt lat="41.852338" lon="-1.924186">
        <ele>940.93</ele>
        <time>2021-03-27T21:17:32Z</time>
      </trkpt>
      <trkpt lat="41.852531" lon="-1.924183">
        <ele>940.95</ele>
        <time>2021-03-27T21:17:34Z</time>
      </trkpt>
      <trkpt lat="41.852882" lon="-1.924084">
        <ele>940.89</ele>
        <time>2021-03-27T21:17:36Z</time>
      </trkpt>
      <trkpt lat="41.852978" lon="-1.923987">
        <ele>940.53</ele>
        <time>2021-03-27T21:17:38Z</time>
      </trkpt>
      <trkpt lat="41.85359" lon="-1.923558">
        <ele>938.74</ele>
        <time>2021-03-27T21:17:40Z</time>
      </trkpt>
      <trkpt lat="41.853805" lon="-1.923466">
        <ele>941.25</ele>
        <time>2021-03-27T21:17:42Z</time>
      </trkpt>
      <trkpt lat="41.85386" lon="-1.923457">
        <ele>941.94</ele>
        <time>2021-03-27T21:17:44Z</time>
      </trkpt>
      <trkpt lat="41.853893" lon="-1.923485">
        <ele>942.72</ele>
        <time>2021-03-27T21:17:45Z</time>
      </trkpt>
      <trkpt lat="41.853906" lon="-1.923545">
        <ele>943.66</ele>
        <time>2021-03-27T21:17:47Z</time>
      </trkpt>
      <trkpt lat="41.853733" lon="-1.923987">
        <ele>943.83</ele>
        <time>2021-03-27T21:17:49Z</time>
      </trkpt>
      <trkpt lat="41.853658" lon="-1.924379">
        <ele>943.35</ele>
        <time>2021-03-27T21:17:51Z</time>
      </trkpt>
      <trkpt lat="41.853666" lon="-1.924733">
        <ele>944.61</ele>
        <time>2021-03-27T21:17:53Z</time>
      </trkpt>
      <trkpt lat="41.854021" lon="-1.925919">
        <ele>943.64</ele>
        <time>2021-03-27T21:17:55Z</time>
      </trkpt>
      <trkpt lat="41.854077" lon="-1.926341">
        <ele>943.62</ele>
        <time>2021-03-27T21:17:57Z</time>
      </trkpt>
      <trkpt lat="41.853658" lon="-1.926623">
        <ele>943.16</ele>
        <time>2021-03-27T21:18:03Z</time>
      </trkpt>
      <trkpt lat="41.852968" lon="-1.927005">
        <ele>944.0</ele>
        <time>2021-03-27T21:18:09Z</time>
      </trkpt>
      <trkpt lat="41.852577" lon="-1.927442">
        <ele>944.79</ele>
        <time>2021-03-27T21:18:15Z</time>
      </trkpt>
      <trkpt lat="41.852464" lon="-1.927637">
        <ele>944.93</ele>
        <time>2021-03-27T21:18:21Z</time>
      </trkpt>
      <trkpt lat="41.852266" lon="-1.928042">
        <ele>945.0</ele>
        <time>2021-03-27T21:18:27Z</time>
      </trkpt>
      <trkpt lat="41.851375" lon="-1.931357">
        <ele>951.95</ele>
        <time>2021-03-27T21:18:33Z</time>
      </trkpt>
      <trkpt lat="41.850298" lon="-1.935273">
        <ele>954.13</ele>
        <time>2021-03-27T21:18:39Z</time>
      </trkpt>
      <trkpt lat="41.849466" lon="-1.938201">
        <ele>971.58</ele>
        <time>2021-03-27T21:18:45Z</time>
      </trkpt>
      <trkpt lat="41.848926" lon="-1.940184">
        <ele>978.61</ele>
        <time>2021-03-27T21:18:51Z</time>
      </trkpt>
      <trkpt lat="41.848795" lon="-1.940396">
        <ele>978.69</ele>
        <time>2021-03-27T21:18:57Z</time>
      </trkpt>
      <trkpt lat="41.848664" lon="-1.940486">
        <ele>977.47</ele>
        <time>2021-03-27T21:19:04Z</time>
      </trkpt>
      <trkpt lat="41.848466" lon="-1.940517">
        <ele>977.97</ele>
        <time>2021-03-27T21:19:10Z</time>
      </trkpt>
      <trkpt lat="41.848334" lon="-1.940468">
        <ele>978.99</ele>
        <time>2021-03-27T21:19:16Z</time>
      </trkpt>
      <trkpt lat="41.848202" lon="-1.940354">
        <ele>980.9</ele>
        <time>2021-03-27T21:19:22Z</time>
      </trkpt>
      <trkpt lat="41.848092" lon="-1.940194">
        <ele>981.91</ele>
        <time>2021-03-27T21:19:28Z</time>
      </trkpt>
      <trkpt lat="41.848001" lon="-1.939902">
        <ele>980.31</ele>
        <time>2021-03-27T21:19:34Z</time>
      </trkpt>
      <trkpt lat="41.847965" lon="-1.939699">
        <ele>978.78</ele>
        <time>2021-03-27T21:19:40Z</time>
      </trkpt>
      <trkpt lat="41.847869" lon="-1.939517">
        <ele>975.77</ele>
        <time>2021-03-27T21:19:46Z</time>
      </trkpt>
      <trkpt lat="41.847757" lon="-1.939356">
        <ele>973.09</ele>
        <time>2021-03-27T21:19:52Z</time>
      </trkpt>
      <trkpt lat="41.84758" lon="-1.939233">
        <ele>970.17</ele>
        <time>2021-03-27T21:19:58Z</time>
      </trkpt>
      <trkpt lat="41.84723" lon="-1.939141">
        <ele>967.76</ele>
        <time>2021-03-27T21:20:04Z</time>
      </trkpt>
      <trkpt lat="41.84617" lon="-1.939152">
        <ele>965.72</ele>
        <time>2021-03-27T21:20:10Z</time>
      </trkpt>
      <trkpt lat="41.844768" lon="-1.939362">
        <ele>972.03</ele>
        <time>2021-03-27T21:20:15Z</time>
      </trkpt>
      <trkpt lat="41.843951" lon="-1.939536">
        <ele>962.51</ele>
        <time>2021-03-27T21:20:20Z</time>
      </trkpt>
      <trkpt lat="41.842633" lon="-1.939913">
        <ele>961.08</ele>
        <time>2021-03-27T21:20:25Z</time>
      </trkpt>
      <trkpt lat="41.842304" lon="-1.94005">
        <ele>963.93</ele>
        <time>2021-03-27T21:20:30Z</time>
      </trkpt>
      <trkpt lat="41.84202" lon="-1.940199">
        <ele>963.17</ele>
        <time>2021-03-27T21:20:36Z</time>
      </trkpt>
      <trkpt lat="41.841646" lon="-1.940459">
        <ele>965.6</ele>
        <time>2021-03-27T21:20:41Z</time>
      </trkpt>
      <trkpt lat="41.841314" lon="-1.940796">
        <ele>965.7</ele>
        <time>2021-03-27T21:20:46Z</time>
      </trkpt>
      <trkpt lat="41.841049" lon="-1.94115">
        <ele>964.28</ele>
        <time>2021-03-27T21:20:51Z</time>
      </trkpt>
      <trkpt lat="41.84051" lon="-1.94199">
        <ele>961.37</ele>
        <time>2021-03-27T21:20:57Z</time>
      </trkpt>
      <trkpt lat="41.840279" lon="-1.942305">
        <ele>959.62</ele>
        <time>2021-03-27T21:21:02Z</time>
      </trkpt>
      <trkpt lat="41.839988" lon="-1.94255">
        <ele>959.62</ele>
        <time>2021-03-27T21:21:07Z</time>
      </trkpt>
      <trkpt lat="41.83969" lon="-1.942735">
        <ele>958.69</ele>
        <time>2021-03-27T21:21:12Z</time>
      </trkpt>
      <trkpt lat="41.839226" lon="-1.942897">
        <ele>958.62</ele>
        <time>2021-03-27T21:21:18Z</time>
      </trkpt>
      <trkpt lat="41.837705" lon="-1.943053">
        <ele>956.25</ele>
        <time>2021-03-27T21:21:23Z</time>
      </trkpt>
      <trkpt lat="41.837111" lon="-1.943144">
        <ele>959.32</ele>
        <time>2021-03-27T21:21:28Z</time>
      </trkpt>
      <trkpt lat="41.83632" lon="-1.943305">
        <ele>958.12</ele>
        <time>2021-03-27T21:21:33Z</time>
      </trkpt>
      <trkpt lat="41.835492" lon="-1.943537">
        <ele>960.82</ele>
        <time>2021-03-27T21:21:39Z</time>
      </trkpt>
      <trkpt lat="41.834474" lon="-1.943859">
        <ele>961.79</ele>
        <time>2021-03-27T21:21:44Z</time>
      </trkpt>
      <trkpt lat="41.834033" lon="-1.944017">
        <ele>961.45</ele>
        <time>2021-03-27T21:21:49Z</time>
      </trkpt>
      <trkpt lat="41.833799" lon="-1.94414">
        <ele>961.48</ele>
        <time>2021-03-27T21:21:54Z</time>
      </trkpt>
      <trkpt lat="41.833358" lon="-1.944521">
        <ele>961.39</ele>
        <time>2021-03-27T21:22:00Z</time>
      </trkpt>
      <trkpt lat="41.833158" lon="-1.944736">
        <ele>962.02</ele>
        <time>2021-03-27T21:22:05Z</time>
      </trkpt>
      <trkpt lat="41.832995" lon="-1.944941">
        <ele>962.0</ele>
        <time>2021-03-27T21:22:10Z</time>
      </trkpt>
      <trkpt lat="41.831737" lon="-1.946783">
        <ele>959.43</ele>
        <time>2021-03-27T21:22:15Z</time>
      </trkpt>
      <trkpt lat="41.831025" lon="-1.947698">
        <ele>960.08</ele>
        <time>2021-03-27T21:22:21Z</time>
      </trkpt>
      <trkpt lat="41.830664" lon="-1.948119">
        <ele>960.38</ele>
        <time>2021-03-27T21:22:26Z</time>
      </trkpt>
      <trkpt lat="41.830394" lon="-1.948396">
        <ele>960.45</ele>
        <time>2021-03-27T21:22:31Z</time>
      </trkpt>
      <trkpt lat="41.830075" lon="-1.94867">
        <ele>961.15</ele>
        <time>2021-03-27T21:22:36Z</time>
      </trkpt>
      <trkpt lat="41.82973" lon="-1.948944">
        <ele>961.76</ele>
        <time>2021-03-27T21:22:42Z</time>
      </trkpt>
      <trkpt lat="41.82938" lon="-1.949132">
        <ele>961.49</ele>
        <time>2021-03-27T21:22:47Z</time>
      </trkpt>
      <trkpt lat="41.828973" lon="-1.949265">
        <ele>959.83</ele>
        <time>2021-03-27T21:22:52Z</time>
      </trkpt>
      <trkpt lat="41.827447" lon="-1.949588">
        <ele>966.21</ele>
        <time>2021-03-27T21:22:57Z</time>
      </trkpt>
      <trkpt lat="41.82712" lon="-1.949754">
        <ele>964.7</ele>
        <time>2021-03-27T21:23:03Z</time>
      </trkpt>
      <trkpt lat="41.826819" lon="-1.949956">
        <ele>963.91</ele>
        <time>2021-03-27T21:23:08Z</time>
      </trkpt>
      <trkpt lat="41.826513" lon="-1.950231">
        <ele>963.82</ele>
        <time>2021-03-27T21:23:13Z</time>
      </trkpt>
      <trkpt lat="41.826201" lon="-1.950622">
        <ele>962.43</ele>
        <time>2021-03-27T21:23:18Z</time>
      </trkpt>
      <trkpt lat="41.825931" lon="-1.951125">
        <ele>964.3</ele>
        <time>2021-03-27T21:23:23Z</time>
      </trkpt>
      <trkpt lat="41.825232" lon="-1.95267">
        <ele>966.66</ele>
        <time>2021-03-27T21:23:29Z</time>
      </trkpt>
      <trkpt lat="41.824979" lon="-1.953133">
        <ele>966.82</ele>
        <time>2021-03-27T21:23:34Z</time>
      </trkpt>
      <trkpt lat="41.824705" lon="-1.953505">
        <ele>966.91</ele>
        <time>2021-03-27T21:23:39Z</time>
      </trkpt>
      <trkpt lat="41.823752" lon="-1.954414">
        <ele>966.31</ele>
        <time>2021-03-27T21:23:44Z</time>
      </trkpt>
      <trkpt lat="41.823212" lon="-1.955035">
        <ele>965.13</ele>
        <time>2021-03-27T21:23:50Z</time>
      </trkpt>
      <trkpt lat="41.821285" lon="-1.957635">
        <ele>967.79</ele>
        <time>2021-03-27T21:23:55Z</time>
      </trkpt>
      <trkpt lat="41.820795" lon="-1.958268">
        <ele>967.3</ele>
        <time>2021-03-27T21:24:00Z</time>
      </trkpt>
      <trkpt lat="41.820634" lon="-1.958449">
        <ele>968.02</ele>
        <time>2021-03-27T21:24:05Z</time>
      </trkpt>
      <trkpt lat="41.820135" lon="-1.958935">
        <ele>968.86</ele>
        <time>2021-03-27T21:24:11Z</time>
      </trkpt>
      <trkpt lat="41.819446" lon="-1.959582">
        <ele>970.5</ele>
        <time>2021-03-27T21:24:16Z</time>
      </trkpt>
      <trkpt lat="41.816303" lon="-1.962471">
        <ele>974.38</ele>
        <time>2021-03-27T21:24:21Z</time>
      </trkpt>
      <trkpt lat="41.815729" lon="-1.962886">
        <ele>974.13</ele>
        <time>2021-03-27T21:24:26Z</time>
      </trkpt>
      <trkpt lat="41.812419" lon="-1.964497">
        <ele>977.1</ele>
        <time>2021-03-27T21:24:32Z</time>
      </trkpt>
      <trkpt lat="41.807538" lon="-1.967235">
        <ele>985.73</ele>
        <time>2021-03-27T21:24:37Z</time>
      </trkpt>
      <trkpt lat="41.806984" lon="-1.967596">
        <ele>985.81</ele>
        <time>2021-03-27T21:24:42Z</time>
      </trkpt>
      <trkpt lat="41.806614" lon="-1.967901">
        <ele>985.85</ele>
        <time>2021-03-27T21:24:47Z</time>
      </trkpt>
      <trkpt lat="41.806198" lon="-1.968341">
        <ele>987.02</ele>
        <time>2021-03-27T21:24:53Z</time>
      </trkpt>
      <trkpt lat="41.805488" lon="-1.969009">
        <ele>986.81</ele>
        <time>2021-03-27T21:24:58Z</time>
      </trkpt>
      <trkpt lat="41.804717" lon="-1.969488">
        <ele>989.69</ele>
        <time>2021-03-27T21:25:03Z</time>
      </trkpt>
      <trkpt lat="41.803235" lon="-1.970304">
        <ele>993.16</ele>
        <time>2021-03-27T21:25:08Z</time>
      </trkpt>
      <trkpt lat="41.802289" lon="-1.970911">
        <ele>994.66</ele>
        <time>2021-03-27T21:25:14Z</time>
      </trkpt>
      <trkpt lat="41.801962" lon="-1.971171">
        <ele>992.83</ele>
        <time>2021-03-27T21:25:19Z</time>
      </trkpt>
      <trkpt lat="41.801346" lon="-1.971771">
        <ele>993.16</ele>
        <time>2021-03-27T21:25:24Z</time>
      </trkpt>
      <trkpt lat="41.800911" lon="-1.972082">
        <ele>993.73</ele>
        <time>2021-03-27T21:25:29Z</time>
      </trkpt>
      <trkpt lat="41.7985" lon="-1.9736">
        <ele>992.02</ele>
        <time>2021-03-27T21:25:35Z</time>
      </trkpt>
      <trkpt lat="41.796619" lon="-1.975037">
        <ele>997.04</ele>
        <time>2021-03-27T21:25:40Z</time>
      </trkpt>
      <trkpt lat="41.795367" lon="-1.97597">
        <ele>998.33</ele>
        <time>2021-03-27T21:25:45Z</time>
      </trkpt>
      <trkpt lat="41.793868" lon="-1.97694">
        <ele>1004.3</ele>
        <time>2021-03-27T21:25:50Z</time>
      </trkpt>
      <trkpt lat="41.790708" lon="-1.978229">
        <ele>1006.17</ele>
        <time>2021-03-27T21:25:55Z</time>
      </trkpt>
      <trkpt lat="41.79032" lon="-1.978357">
        <ele>1007.71</ele>
        <time>2021-03-27T21:26:01Z</time>
      </trkpt>
      <trkpt lat="41.789929" lon="-1.978444">
        <ele>1008.0</ele>
        <time>2021-03-27T21:26:06Z</time>
      </trkpt>
      <trkpt lat="41.789377" lon="-1.978502">
        <ele>1009.88</ele>
        <time>2021-03-27T21:26:11Z</time>
      </trkpt>
      <trkpt lat="41.78898" lon="-1.978514">
        <ele>1011.79</ele>
        <time>2021-03-27T21:26:16Z</time>
      </trkpt>
      <trkpt lat="41.788463" lon="-1.978471">
        <ele>1010.96</ele>
        <time>2021-03-27T21:26:22Z</time>
      </trkpt>
      <trkpt lat="41.78813" lon="-1.978401">
        <ele>1011.53</ele>
        <time>2021-03-27T21:26:27Z</time>
      </trkpt>
      <trkpt lat="41.787502" lon="-1.978229">
        <ele>1014.61</ele>
        <time>2021-03-27T21:26:32Z</time>
      </trkpt>
      <trkpt lat="41.786459" lon="-1.977669">
        <ele>1015.15</ele>
        <time>2021-03-27T21:26:37Z</time>
      </trkpt>
      <trkpt lat="41.781931" lon="-1.974099">
        <ele>1020.99</ele>
        <time>2021-03-27T21:26:43Z</time>
      </trkpt>
      <trkpt lat="41.780949" lon="-1.973484">
        <ele>1018.85</ele>
        <time>2021-03-27T21:26:48Z</time>
      </trkpt>
      <trkpt lat="41.779952" lon="-1.973052">
        <ele>1023.18</ele>
        <time>2021-03-27T21:26:53Z</time>
      </trkpt>
      <trkpt lat="41.779084" lon="-1.972782">
        <ele>1025.3</ele>
        <time>2021-03-27T21:26:58Z</time>
      </trkpt>
      <trkpt lat="41.778143" lon="-1.972617">
        <ele>1030.79</ele>
        <time>2021-03-27T21:27:04Z</time>
      </trkpt>
      <trkpt lat="41.776172" lon="-1.972679">
        <ele>1042.86</ele>
        <time>2021-03-27T21:27:09Z</time>
      </trkpt>
      <trkpt lat="41.77343" lon="-1.972875">
        <ele>1046.95</ele>
        <time>2021-03-27T21:27:14Z</time>
      </trkpt>
      <trkpt lat="41.772431" lon="-1.972898">
        <ele>1051.59</ele>
        <time>2021-03-27T21:27:19Z</time>
      </trkpt>
      <trkpt lat="41.772028" lon="-1.972868">
        <ele>1052.85</ele>
        <time>2021-03-27T21:27:25Z</time>
      </trkpt>
      <trkpt lat="41.771653" lon="-1.972813">
        <ele>1056.75</ele>
        <time>2021-03-27T21:27:30Z</time>
      </trkpt>
      <trkpt lat="41.770866" lon="-1.97263">
        <ele>1058.18</ele>
        <time>2021-03-27T21:27:35Z</time>
      </trkpt>
      <trkpt lat="41.77052" lon="-1.972471">
        <ele>1059.51</ele>
        <time>2021-03-27T21:27:40Z</time>
      </trkpt>
      <trkpt lat="41.770024" lon="-1.972293">
        <ele>1065.74</ele>
        <time>2021-03-27T21:27:42Z</time>
      </trkpt>
      <trkpt lat="41.769652" lon="-1.972109">
        <ele>1067.86</ele>
        <time>2021-03-27T21:27:43Z</time>
      </trkpt>
      <trkpt lat="41.769568" lon="-1.972118">
        <ele>1067.89</ele>
        <time>2021-03-27T21:27:44Z</time>
      </trkpt>
      <trkpt lat="41.76948" lon="-1.972175">
        <ele>1067.91</ele>
        <time>2021-03-27T21:27:45Z</time>
      </trkpt>
      <trkpt lat="41.769427" lon="-1.972345">
        <ele>1067.14</ele>
        <time>2021-03-27T21:27:46Z</time>
      </trkpt>
      <trkpt lat="41.769422" lon="-1.972439">
        <ele>1066.54</ele>
        <time>2021-03-27T21:27:47Z</time>
      </trkpt>
      <trkpt lat="41.769455" lon="-1.972622">
        <ele>1065.52</ele>
        <time>2021-03-27T21:27:49Z</time>
      </trkpt>
      <trkpt lat="41.769352" lon="-1.972425">
        <ele>1066.94</ele>
        <time>2021-03-27T21:27:50Z</time>
      </trkpt>
      <trkpt lat="41.769277" lon="-1.972241">
        <ele>1067.39</ele>
        <time>2021-03-27T21:27:51Z</time>
      </trkpt>
      <trkpt lat="41.769146" lon="-1.971902">
        <ele>1066.85</ele>
        <time>2021-03-27T21:27:53Z</time>
      </trkpt>
      <trkpt lat="41.769041" lon="-1.971716">
        <ele>1066.18</ele>
        <time>2021-03-27T21:27:56Z</time>
      </trkpt>
      <trkpt lat="41.768199" lon="-1.971136">
        <ele>1069.87</ele>
        <time>2021-03-27T21:27:59Z</time>
      </trkpt>
      <trkpt lat="41.767047" lon="-1.970464">
        <ele>1077.27</ele>
        <time>2021-03-27T21:28:06Z</time>
      </trkpt>
      <trkpt lat="41.766306" lon="-1.969978">
        <ele>1082.73</ele>
        <time>2021-03-27T21:28:13Z</time>
      </trkpt>
      <trkpt lat="41.765914" lon="-1.969628">
        <ele>1082.32</ele>
        <time>2021-03-27T21:28:20Z</time>
      </trkpt>
      <trkpt lat="41.765551" lon="-1.969243">
        <ele>1081.05</ele>
        <time>2021-03-27T21:28:27Z</time>
      </trkpt>
      <trkpt lat="41.765123" lon="-1.96864">
        <ele>1085.61</ele>
        <time>2021-03-27T21:28:34Z</time>
      </trkpt>
      <trkpt lat="41.76426" lon="-1.967142">
        <ele>1087.05</ele>
        <time>2021-03-27T21:28:41Z</time>
      </trkpt>
      <trkpt lat="41.763774" lon="-1.966448">
        <ele>1089.37</ele>
        <time>2021-03-27T21:28:48Z</time>
      </trkpt>
      <trkpt lat="41.762853" lon="-1.965469">
        <ele>1086.26</ele>
        <time>2021-03-27T21:28:54Z</time>
      </trkpt>
      <trkpt lat="41.761289" lon="-1.963652">
        <ele>1097.08</ele>
        <time>2021-03-27T21:29:01Z</time>
      </trkpt>
      <trkpt lat="41.759756" lon="-1.961983">
        <ele>1103.16</ele>
        <time>2021-03-27T21:29:08Z</time>
      </trkpt>
      <trkpt lat="41.759398" lon="-1.96166">
        <ele>1105.51</ele>
        <time>2021-03-27T21:29:15Z</time>
      </trkpt>
      <trkpt lat="41.75888" lon="-1.961342">
        <ele>1109.06</ele>
        <time>2021-03-27T21:29:22Z</time>
      </trkpt>
      <trkpt lat="41.757598" lon="-1.960613">
        <ele>1114.65</ele>
        <time>2021-03-27T21:29:29Z</time>
      </trkpt>
      <trkpt lat="41.756985" lon="-1.960135">
        <ele>1118.29</ele>
        <time>2021-03-27T21:29:36Z</time>
      </trkpt>
      <trkpt lat="41.756439" lon="-1.959536">
        <ele>1121.0</ele>
        <time>2021-03-27T21:29:43Z</time>
      </trkpt>
      <trkpt lat="41.754895" lon="-1.957051">
        <ele>1136.51</ele>
        <time>2021-03-27T21:29:50Z</time>
      </trkpt>
      <trkpt lat="41.754615" lon="-1.956701">
        <ele>1139.59</ele>
        <time>2021-03-27T21:29:57Z</time>
      </trkpt>
      <trkpt lat="41.754262" lon="-1.956318">
        <ele>1142.97</ele>
        <time>2021-03-27T21:30:04Z</time>
      </trkpt>
      <trkpt lat="41.753932" lon="-1.956038">
        <ele>1146.31</ele>
        <time>2021-03-27T21:30:11Z</time>
      </trkpt>
      <trkpt lat="41.752897" lon="-1.955415">
        <ele>1151.93</ele>
        <time>2021-03-27T21:30:18Z</time>
      </trkpt>
      <trkpt lat="41.752026" lon="-1.954852">
        <ele>1159.7</ele>
        <time>2021-03-27T21:30:25Z</time>
      </trkpt>
      <trkpt lat="41.75158" lon="-1.954445">
        <ele>1158.63</ele>
        <time>2021-03-27T21:30:32Z</time>
      </trkpt>
      <trkpt lat="41.751005" lon="-1.953799">
        <ele>1164.15</ele>
        <time>2021-03-27T21:30:39Z</time>
      </trkpt>
      <trkpt lat="41.748242" lon="-1.951174">
        <ele>1184.44</ele>
        <time>2021-03-27T21:30:46Z</time>
      </trkpt>
      <trkpt lat="41.747827" lon="-1.950722">
        <ele>1185.52</ele>
        <time>2021-03-27T21:30:53Z</time>
      </trkpt>
      <trkpt lat="41.7466" lon="-1.949268">
        <ele>1191.21</ele>
        <time>2021-03-27T21:31:00Z</time>
      </trkpt>
      <trkpt lat="41.746306" lon="-1.948955">
        <ele>1192.73</ele>
        <time>2021-03-27T21:31:07Z</time>
      </trkpt>
      <trkpt lat="41.745966" lon="-1.948669">
        <ele>1194.37</ele>
        <time>2021-03-27T21:31:14Z</time>
      </trkpt>
      <trkpt lat="41.744408" lon="-1.947506">
        <ele>1198.43</ele>
        <time>2021-03-27T21:31:21Z</time>
      </trkpt>
      <trkpt lat="41.740899" lon="-1.944833">
        <ele>1185.8</ele>
        <time>2021-03-27T21:31:28Z</time>
      </trkpt>
      <trkpt lat="41.740576" lon="-1.944608">
        <ele>1181.92</ele>
        <time>2021-03-27T21:31:35Z</time>
      </trkpt>
      <trkpt lat="41.740154" lon="-1.944405">
        <ele>1179.13</ele>
        <time>2021-03-27T21:31:42Z</time>
      </trkpt>
      <trkpt lat="41.739782" lon="-1.944275">
        <ele>1176.99</ele>
        <time>2021-03-27T21:31:49Z</time>
      </trkpt>
      <trkpt lat="41.739188" lon="-1.944187">
        <ele>1175.43</ele>
        <time>2021-03-27T21:31:56Z</time>
      </trkpt>
      <trkpt lat="41.738731" lon="-1.944214">
        <ele>1176.2</ele>
        <time>2021-03-27T21:32:03Z</time>
      </trkpt>
      <trkpt lat="41.73828" lon="-1.944312">
        <ele>1176.17</ele>
        <time>2021-03-27T21:32:10Z</time>
      </trkpt>
      <trkpt lat="41.73791" lon="-1.944453">
        <ele>1174.59</ele>
        <time>2021-03-27T21:32:17Z</time>
      </trkpt>
      <trkpt lat="41.737559" lon="-1.944646">
        <ele>1173.19</ele>
        <time>2021-03-27T21:32:24Z</time>
      </trkpt>
      <trkpt lat="41.737207" lon="-1.944898">
        <ele>1172.45</ele>
        <time>2021-03-27T21:32:31Z</time>
      </trkpt>
      <trkpt lat="41.736771" lon="-1.945318">
        <ele>1170.18</ele>
        <time>2021-03-27T21:32:38Z</time>
      </trkpt>
      <trkpt lat="41.736427" lon="-1.94577">
        <ele>1167.28</ele>
        <time>2021-03-27T21:32:45Z</time>
      </trkpt>
      <trkpt lat="41.735326" lon="-1.947534">
        <ele>1170.03</ele>
        <time>2021-03-27T21:32:52Z</time>
      </trkpt>
      <trkpt lat="41.734854" lon="-1.948122">
        <ele>1166.47</ele>
        <time>2021-03-27T21:32:59Z</time>
      </trkpt>
      <trkpt lat="41.734499" lon="-1.948462">
        <ele>1167.79</ele>
        <time>2021-03-27T21:33:06Z</time>
      </trkpt>
      <trkpt lat="41.733924" lon="-1.948874">
        <ele>1165.31</ele>
        <time>2021-03-27T21:33:13Z</time>
      </trkpt>
      <trkpt lat="41.733301" lon="-1.949255">
        <ele>1162.85</ele>
        <time>2021-03-27T21:33:20Z</time>
      </trkpt>
      <trkpt lat="41.732132" lon="-1.950061">
        <ele>1163.16</ele>
        <time>2021-03-27T21:33:27Z</time>
      </trkpt>
      <trkpt lat="41.731806" lon="-1.950353">
        <ele>1163.36</ele>
        <time>2021-03-27T21:33:33Z</time>
      </trkpt>
      <trkpt lat="41.731471" lon="-1.950753">
        <ele>1162.13</ele>
        <time>2021-03-27T21:33:40Z</time>
      </trkpt>
      <trkpt lat="41.731203" lon="-1.951135">
        <ele>1161.44</ele>
        <time>2021-03-27T21:33:47Z</time>
      </trkpt>
      <trkpt lat="41.730963" lon="-1.95159">
        <ele>1160.75</ele>
        <time>2021-03-27T21:33:54Z</time>
      </trkpt>
      <trkpt lat="41.730726" lon="-1.952126">
        <ele>1158.84</ele>
        <time>2021-03-27T21:34:01Z</time>
      </trkpt>
      <trkpt lat="41.730076" lon="-1.954135">
        <ele>1161.53</ele>
        <time>2021-03-27T21:34:08Z</time>
      </trkpt>
      <trkpt lat="41.729769" lon="-1.954986">
        <ele>1160.75</ele>
        <time>2021-03-27T21:34:15Z</time>
      </trkpt>
      <trkpt lat="41.727676" lon="-1.959928">
        <ele>1161.64</ele>
        <time>2021-03-27T21:34:22Z</time>
      </trkpt>
      <trkpt lat="41.726793" lon="-1.961967">
        <ele>1164.49</ele>
        <time>2021-03-27T21:34:29Z</time>
      </trkpt>
      <trkpt lat="41.72659" lon="-1.962573">
        <ele>1164.99</ele>
        <time>2021-03-27T21:34:36Z</time>
      </trkpt>
      <trkpt lat="41.726397" lon="-1.96324">
        <ele>1167.05</ele>
        <time>2021-03-27T21:34:43Z</time>
      </trkpt>
      <trkpt lat="41.723933" lon="-1.973768">
        <ele>1168.89</ele>
        <time>2021-03-27T21:34:50Z</time>
      </trkpt>
      <trkpt lat="41.723023" lon="-1.97874">
        <ele>1167.53</ele>
        <time>2021-03-27T21:34:57Z</time>
      </trkpt>
      <trkpt lat="41.722263" lon="-1.983106">
        <ele>1166.29</ele>
        <time>2021-03-27T21:35:04Z</time>
      </trkpt>
      <trkpt lat="41.722129" lon="-1.983643">
        <ele>1164.92</ele>
        <time>2021-03-27T21:35:11Z</time>
      </trkpt>
      <trkpt lat="41.72198" lon="-1.984111">
        <ele>1164.05</ele>
        <time>2021-03-27T21:35:18Z</time>
      </trkpt>
      <trkpt lat="41.721787" lon="-1.984585">
        <ele>1163.59</ele>
        <time>2021-03-27T21:35:25Z</time>
      </trkpt>
      <trkpt lat="41.721597" lon="-1.98499">
        <ele>1161.99</ele>
        <time>2021-03-27T21:35:32Z</time>
      </trkpt>
      <trkpt lat="41.720968" lon="-1.985958">
        <ele>1157.75</ele>
        <time>2021-03-27T21:35:39Z</time>
      </trkpt>
      <trkpt lat="41.720012" lon="-1.987287">
        <ele>1159.96</ele>
        <time>2021-03-27T21:35:46Z</time>
      </trkpt>
      <trkpt lat="41.719581" lon="-1.988106">
        <ele>1161.68</ele>
        <time>2021-03-27T21:35:53Z</time>
      </trkpt>
      <trkpt lat="41.719404" lon="-1.98854">
        <ele>1162.49</ele>
        <time>2021-03-27T21:36:00Z</time>
      </trkpt>
      <trkpt lat="41.719149" lon="-1.989403">
        <ele>1161.87</ele>
        <time>2021-03-27T21:36:07Z</time>
      </trkpt>
      <trkpt lat="41.719073" lon="-1.989825">
        <ele>1160.21</ele>
        <time>2021-03-27T21:36:14Z</time>
      </trkpt>
      <trkpt lat="41.718994" lon="-1.990641">
        <ele>1157.64</ele>
        <time>2021-03-27T21:36:21Z</time>
      </trkpt>
      <trkpt lat="41.718914" lon="-1.99331">
        <ele>1148.08</ele>
        <time>2021-03-27T21:36:28Z</time>
      </trkpt>
      <trkpt lat="41.718798" lon="-1.994283">
        <ele>1146.26</ele>
        <time>2021-03-27T21:36:35Z</time>
      </trkpt>
      <trkpt lat="41.718339" lon="-1.997305">
        <ele>1143.03</ele>
        <time>2021-03-27T21:36:42Z</time>
      </trkpt>
      <trkpt lat="41.718265" lon="-1.998202">
        <ele>1142.27</ele>
        <time>2021-03-27T21:36:49Z</time>
      </trkpt>
      <trkpt lat="41.718358" lon="-2.00072">
        <ele>1145.46</ele>
        <time>2021-03-27T21:36:56Z</time>
      </trkpt>
      <trkpt lat="41.718343" lon="-2.00149">
        <ele>1145.07</ele>
        <time>2021-03-27T21:37:03Z</time>
      </trkpt>
      <trkpt lat="41.718081" lon="-2.005128">
        <ele>1145.14</ele>
        <time>2021-03-27T21:37:10Z</time>
      </trkpt>
      <trkpt lat="41.718004" lon="-2.005767">
        <ele>1142.82</ele>
        <time>2021-03-27T21:37:17Z</time>
      </trkpt>
      <trkpt lat="41.717873" lon="-2.006359">
        <ele>1141.38</ele>
        <time>2021-03-27T21:37:24Z</time>
      </trkpt>
      <trkpt lat="41.717162" lon="-2.008511">
        <ele>1135.86</ele>
        <time>2021-03-27T21:37:31Z</time>
      </trkpt>
      <trkpt lat="41.717009" lon="-2.009147">
        <ele>1135.0</ele>
        <time>2021-03-27T21:37:38Z</time>
      </trkpt>
      <trkpt lat="41.716891" lon="-2.009837">
        <ele>1129.9</ele>
        <time>2021-03-27T21:37:45Z</time>
      </trkpt>
      <trkpt lat="41.716504" lon="-2.012708">
        <ele>1120.0</ele>
        <time>2021-03-27T21:37:52Z</time>
      </trkpt>
      <trkpt lat="41.716327" lon="-2.01369">
        <ele>1116.56</ele>
        <time>2021-03-27T21:37:59Z</time>
      </trkpt>
      <trkpt lat="41.71378" lon="-2.023623">
        <ele>1093.93</ele>
        <time>2021-03-27T21:38:06Z</time>
      </trkpt>
      <trkpt lat="41.713561" lon="-2.024294">
        <ele>1091.25</ele>
        <time>2021-03-27T21:38:12Z</time>
      </trkpt>
      <trkpt lat="41.713328" lon="-2.024824">
        <ele>1091.64</ele>
        <time>2021-03-27T21:38:19Z</time>
      </trkpt>
      <trkpt lat="41.713125" lon="-2.025228">
        <ele>1091.75</ele>
        <time>2021-03-27T21:38:26Z</time>
      </trkpt>
      <trkpt lat="41.712805" lon="-2.025715">
        <ele>1091.27</ele>
        <time>2021-03-27T21:38:33Z</time>
      </trkpt>
      <trkpt lat="41.712576" lon="-2.026019">
        <ele>1090.15</ele>
        <time>2021-03-27T21:38:40Z</time>
      </trkpt>
      <trkpt lat="41.711868" lon="-2.026729">
        <ele>1089.23</ele>
        <time>2021-03-27T21:38:47Z</time>
      </trkpt>
      <trkpt lat="41.710028" lon="-2.027831">
        <ele>1084.47</ele>
        <time>2021-03-27T21:38:54Z</time>
      </trkpt>
      <trkpt lat="41.70957" lon="-2.028141">
        <ele>1088.31</ele>
        <time>2021-03-27T21:39:01Z</time>
      </trkpt>
      <trkpt lat="41.709147" lon="-2.028502">
        <ele>1087.83</ele>
        <time>2021-03-27T21:39:08Z</time>
      </trkpt>
      <trkpt lat="41.708854" lon="-2.028825">
        <ele>1087.16</ele>
        <time>2021-03-27T21:39:15Z</time>
      </trkpt>
      <trkpt lat="41.708552" lon="-2.029203">
        <ele>1087.97</ele>
        <time>2021-03-27T21:39:22Z</time>
      </trkpt>
      <trkpt lat="41.708112" lon="-2.029906">
        <ele>1089.07</ele>
        <time>2021-03-27T21:39:29Z</time>
      </trkpt>
      <trkpt lat="41.707694" lon="-2.030932">
        <ele>1083.0</ele>
        <time>2021-03-27T21:39:36Z</time>
      </trkpt>
      <trkpt lat="41.707462" lon="-2.031823">
        <ele>1081.32</ele>
        <time>2021-03-27T21:39:43Z</time>
      </trkpt>
      <trkpt lat="41.707345" lon="-2.032772">
        <ele>1076.91</ele>
        <time>2021-03-27T21:39:50Z</time>
      </trkpt>
      <trkpt lat="41.706673" lon="-2.044089">
        <ele>1058.8</ele>
        <time>2021-03-27T21:39:57Z</time>
      </trkpt>
      <trkpt lat="41.706558" lon="-2.044918">
        <ele>1059.28</ele>
        <time>2021-03-27T21:40:04Z</time>
      </trkpt>
      <trkpt lat="41.706404" lon="-2.045693">
        <ele>1056.48</ele>
        <time>2021-03-27T21:40:11Z</time>
      </trkpt>
      <trkpt lat="41.706072" lon="-2.046548">
        <ele>1057.02</ele>
        <time>2021-03-27T21:40:18Z</time>
      </trkpt>
      <trkpt lat="41.70562" lon="-2.047398">
        <ele>1057.0</ele>
        <time>2021-03-27T21:40:25Z</time>
      </trkpt>
      <trkpt lat="41.704467" lon="-2.0489">
        <ele>1055.0</ele>
        <time>2021-03-27T21:40:32Z</time>
      </trkpt>
      <trkpt lat="41.701294" lon="-2.052838">
        <ele>1056.12</ele>
        <time>2021-03-27T21:40:39Z</time>
      </trkpt>
      <trkpt lat="41.700914" lon="-2.053352">
        <ele>1056.37</ele>
        <time>2021-03-27T21:40:46Z</time>
      </trkpt>
      <trkpt lat="41.700588" lon="-2.053927">
        <ele>1055.98</ele>
        <time>2021-03-27T21:40:53Z</time>
      </trkpt>
      <trkpt lat="41.699225" lon="-2.057176">
        <ele>1055.13</ele>
        <time>2021-03-27T21:41:00Z</time>
      </trkpt>
      <trkpt lat="41.69808" lon="-2.059706">
        <ele>1049.85</ele>
        <time>2021-03-27T21:41:07Z</time>
      </trkpt>
      <trkpt lat="41.697373" lon="-2.061802">
        <ele>1050.48</ele>
        <time>2021-03-27T21:41:14Z</time>
      </trkpt>
      <trkpt lat="41.697096" lon="-2.062522">
        <ele>1052.78</ele>
        <time>2021-03-27T21:41:21Z</time>
      </trkpt>
      <trkpt lat="41.696819" lon="-2.063075">
        <ele>1054.78</ele>
        <time>2021-03-27T21:41:28Z</time>
      </trkpt>
      <trkpt lat="41.696388" lon="-2.063703">
        <ele>1055.67</ele>
        <time>2021-03-27T21:41:35Z</time>
      </trkpt>
      <trkpt lat="41.695831" lon="-2.06431">
        <ele>1057.49</ele>
        <time>2021-03-27T21:41:42Z</time>
      </trkpt>
      <trkpt lat="41.695164" lon="-2.064928">
        <ele>1058.77</ele>
        <time>2021-03-27T21:41:49Z</time>
      </trkpt>
      <trkpt lat="41.694621" lon="-2.065536">
        <ele>1061.46</ele>
        <time>2021-03-27T21:41:56Z</time>
      </trkpt>
      <trkpt lat="41.693408" lon="-2.067234">
        <ele>1067.28</ele>
        <time>2021-03-27T21:42:03Z</time>
      </trkpt>
      <trkpt lat="41.693058" lon="-2.0677">
        <ele>1066.73</ele>
        <time>2021-03-27T21:42:10Z</time>
      </trkpt>
      <trkpt lat="41.692779" lon="-2.068195">
        <ele>1069.51</ele>
        <time>2021-03-27T21:42:17Z</time>
      </trkpt>
      <trkpt lat="41.692524" lon="-2.068766">
        <ele>1068.62</ele>
        <time>2021-03-27T21:42:24Z</time>
      </trkpt>
      <trkpt lat="41.692284" lon="-2.069527">
        <ele>1065.07</ele>
        <time>2021-03-27T21:42:31Z</time>
      </trkpt>
      <trkpt lat="41.692118" lon="-2.070244">
        <ele>1064.2</ele>
        <time>2021-03-27T21:42:38Z</time>
      </trkpt>
      <trkpt lat="41.691579" lon="-2.072789">
        <ele>1063.34</ele>
        <time>2021-03-27T21:42:45Z</time>
      </trkpt>
      <trkpt lat="41.691372" lon="-2.073908">
        <ele>1065.81</ele>
        <time>2021-03-27T21:42:51Z</time>
      </trkpt>
      <trkpt lat="41.689094" lon="-2.090763">
        <ele>1045.59</ele>
        <time>2021-03-27T21:42:58Z</time>
      </trkpt>
      <trkpt lat="41.685929" lon="-2.113538">
        <ele>1031.09</ele>
        <time>2021-03-27T21:43:05Z</time>
      </trkpt>
      <trkpt lat="41.685816" lon="-2.114119">
        <ele>1030.01</ele>
        <time>2021-03-27T21:43:12Z</time>
      </trkpt>
      <trkpt lat="41.685622" lon="-2.114767">
        <ele>1030.0</ele>
        <time>2021-03-27T21:43:19Z</time>
      </trkpt>
      <trkpt lat="41.685259" lon="-2.115617">
        <ele>1028.93</ele>
        <time>2021-03-27T21:43:26Z</time>
      </trkpt>
      <trkpt lat="41.683789" lon="-2.118434">
        <ele>1028.0</ele>
        <time>2021-03-27T21:43:33Z</time>
      </trkpt>
      <trkpt lat="41.682789" lon="-2.120433">
        <ele>1026.3</ele>
        <time>2021-03-27T21:43:40Z</time>
      </trkpt>
      <trkpt lat="41.682561" lon="-2.121004">
        <ele>1020.6</ele>
        <time>2021-03-27T21:43:47Z</time>
      </trkpt>
      <trkpt lat="41.682377" lon="-2.121639">
        <ele>1018.1</ele>
        <time>2021-03-27T21:43:54Z</time>
      </trkpt>
      <trkpt lat="41.682247" lon="-2.122315">
        <ele>1015.67</ele>
        <time>2021-03-27T21:44:01Z</time>
      </trkpt>
      <trkpt lat="41.681842" lon="-2.125484">
        <ele>1016.74</ele>
        <time>2021-03-27T21:44:08Z</time>
      </trkpt>
      <trkpt lat="41.681751" lon="-2.125948">
        <ele>1016.7</ele>
        <time>2021-03-27T21:44:15Z</time>
      </trkpt>
      <trkpt lat="41.681607" lon="-2.126451">
        <ele>1015.95</ele>
        <time>2021-03-27T21:44:22Z</time>
      </trkpt>
      <trkpt lat="41.68149" lon="-2.126788">
        <ele>1015.2</ele>
        <time>2021-03-27T21:44:29Z</time>
      </trkpt>
      <trkpt lat="41.681236" lon="-2.127372">
        <ele>1012.91</ele>
        <time>2021-03-27T21:44:36Z</time>
      </trkpt>
      <trkpt lat="41.68082" lon="-2.128088">
        <ele>1012.0</ele>
        <time>2021-03-27T21:44:43Z</time>
      </trkpt>
      <trkpt lat="41.673228" lon="-2.140157">
        <ele>1005.81</ele>
        <time>2021-03-27T21:44:50Z</time>
      </trkpt>
      <trkpt lat="41.671" lon="-2.143739">
        <ele>1010.49</ele>
        <time>2021-03-27T21:44:57Z</time>
      </trkpt>
      <trkpt lat="41.670646" lon="-2.144404">
        <ele>1012.18</ele>
        <time>2021-03-27T21:45:04Z</time>
      </trkpt>
      <trkpt lat="41.670288" lon="-2.145189">
        <ele>1009.63</ele>
        <time>2021-03-27T21:45:11Z</time>
      </trkpt>
      <trkpt lat="41.67005" lon="-2.145813">
        <ele>1009.55</ele>
        <time>2021-03-27T21:45:18Z</time>
      </trkpt>
      <trkpt lat="41.669686" lon="-2.146964">
        <ele>1008.22</ele>
        <time>2021-03-27T21:45:25Z</time>
      </trkpt>
      <trkpt lat="41.669195" lon="-2.148819">
        <ele>1011.04</ele>
        <time>2021-03-27T21:45:32Z</time>
      </trkpt>
      <trkpt lat="41.668896" lon="-2.149703">
        <ele>1007.11</ele>
        <time>2021-03-27T21:45:39Z</time>
      </trkpt>
      <trkpt lat="41.668584" lon="-2.150482">
        <ele>1007.65</ele>
        <time>2021-03-27T21:45:46Z</time>
      </trkpt>
      <trkpt lat="41.66834" lon="-2.150997">
        <ele>1009.5</ele>
        <time>2021-03-27T21:45:53Z</time>
      </trkpt>
      <trkpt lat="41.66809" lon="-2.151475">
        <ele>1010.88</ele>
        <time>2021-03-27T21:46:00Z</time>
      </trkpt>
      <trkpt lat="41.667713" lon="-2.152105">
        <ele>1011.16</ele>
        <time>2021-03-27T21:46:07Z</time>
      </trkpt>
      <trkpt lat="41.667384" lon="-2.152599">
        <ele>1008.55</ele>
        <time>2021-03-27T21:46:14Z</time>
      </trkpt>
      <trkpt lat="41.667048" lon="-2.153054">
        <ele>1007.27</ele>
        <time>2021-03-27T21:46:21Z</time>
      </trkpt>
      <trkpt lat="41.664602" lon="-2.15604">
        <ele>1002.69</ele>
        <time>2021-03-27T21:46:28Z</time>
      </trkpt>
      <trkpt lat="41.664144" lon="-2.156697">
        <ele>1003.92</ele>
        <time>2021-03-27T21:46:35Z</time>
      </trkpt>
      <trkpt lat="41.663724" lon="-2.157348">
        <ele>1002.41</ele>
        <time>2021-03-27T21:46:42Z</time>
      </trkpt>
      <trkpt lat="41.663985" lon="-2.157627">
        <ele>1004.24</ele>
        <time>2021-03-27T21:46:48Z</time>
      </trkpt>
      <trkpt lat="41.663914" lon="-2.1578">
        <ele>1002.93</ele>
        <time>2021-03-27T21:46:54Z</time>
      </trkpt>
      <trkpt lat="41.662907" lon="-2.159588">
        <ele>1001.48</ele>
        <time>2021-03-27T21:47:00Z</time>
      </trkpt>
      <trkpt lat="41.662609" lon="-2.1602">
        <ele>1000.72</ele>
        <time>2021-03-27T21:47:06Z</time>
      </trkpt>
      <trkpt lat="41.660798" lon="-2.166645">
        <ele>1001.24</ele>
        <time>2021-03-27T21:47:12Z</time>
      </trkpt>
      <trkpt lat="41.660414" lon="-2.168497">
        <ele>1002.72</ele>
        <time>2021-03-27T21:47:18Z</time>
      </trkpt>
      <trkpt lat="41.660201" lon="-2.169672">
        <ele>1003.42</ele>
        <time>2021-03-27T21:47:24Z</time>
      </trkpt>
      <trkpt lat="41.660171" lon="-2.170113">
        <ele>1003.16</ele>
        <time>2021-03-27T21:47:30Z</time>
      </trkpt>
      <trkpt lat="41.660177" lon="-2.170806">
        <ele>1003.78</ele>
        <time>2021-03-27T21:47:36Z</time>
      </trkpt>
      <trkpt lat="41.660048" lon="-2.171459">
        <ele>1003.26</ele>
        <time>2021-03-27T21:47:42Z</time>
      </trkpt>
      <trkpt lat="41.659799" lon="-2.171998">
        <ele>1003.31</ele>
        <time>2021-03-27T21:47:48Z</time>
      </trkpt>
      <trkpt lat="41.657092" lon="-2.177407">
        <ele>1000.51</ele>
        <time>2021-03-27T21:47:54Z</time>
      </trkpt>
      <trkpt lat="41.656983" lon="-2.177758">
        <ele>1001.93</ele>
        <time>2021-03-27T21:48:00Z</time>
      </trkpt>
      <trkpt lat="41.657153" lon="-2.179447">
        <ele>1001.24</ele>
        <time>2021-03-27T21:48:06Z</time>
      </trkpt>
      <trkpt lat="41.657141" lon="-2.179724">
        <ele>1000.28</ele>
        <time>2021-03-27T21:48:12Z</time>
      </trkpt>
      <trkpt lat="41.656882" lon="-2.180209">
        <ele>998.64</ele>
        <time>2021-03-27T21:48:18Z</time>
      </trkpt>
      <trkpt lat="41.656261" lon="-2.181284">
        <ele>997.96</ele>
        <time>2021-03-27T21:48:24Z</time>
      </trkpt>
      <trkpt lat="41.65489" lon="-2.184842">
        <ele>995.0</ele>
        <time>2021-03-27T21:48:30Z</time>
      </trkpt>
      <trkpt lat="41.654517" lon="-2.185865">
        <ele>994.0</ele>
        <time>2021-03-27T21:48:36Z</time>
      </trkpt>
      <trkpt lat="41.654374" lon="-2.186678">
        <ele>994.74</ele>
        <time>2021-03-27T21:48:42Z</time>
      </trkpt>
      <trkpt lat="41.654302" lon="-2.187552">
        <ele>994.4</ele>
        <time>2021-03-27T21:48:48Z</time>
      </trkpt>
      <trkpt lat="41.654243" lon="-2.18798">
        <ele>994.0</ele>
        <time>2021-03-27T21:48:54Z</time>
      </trkpt>
      <trkpt lat="41.654112" lon="-2.18826">
        <ele>994.0</ele>
        <time>2021-03-27T21:49:00Z</time>
      </trkpt>
      <trkpt lat="41.653668" lon="-2.188714">
        <ele>992.63</ele>
        <time>2021-03-27T21:49:06Z</time>
      </trkpt>
      <trkpt lat="41.651813" lon="-2.191389">
        <ele>997.0</ele>
        <time>2021-03-27T21:49:12Z</time>
      </trkpt>
      <trkpt lat="41.651503" lon="-2.191885">
        <ele>997.13</ele>
        <time>2021-03-27T21:49:18Z</time>
      </trkpt>
      <trkpt lat="41.651137" lon="-2.192822">
        <ele>1002.07</ele>
        <time>2021-03-27T21:49:24Z</time>
      </trkpt>
      <trkpt lat="41.650918" lon="-2.193109">
        <ele>1002.24</ele>
        <time>2021-03-27T21:49:30Z</time>
      </trkpt>
      <trkpt lat="41.650483" lon="-2.19349">
        <ele>1003.41</ele>
        <time>2021-03-27T21:49:36Z</time>
      </trkpt>
      <trkpt lat="41.64947" lon="-2.194445">
        <ele>1007.81</ele>
        <time>2021-03-27T21:49:42Z</time>
      </trkpt>
      <trkpt lat="41.648164" lon="-2.195626">
        <ele>1018.83</ele>
        <time>2021-03-27T21:49:48Z</time>
      </trkpt>
      <trkpt lat="41.647448" lon="-2.196171">
        <ele>1022.75</ele>
        <time>2021-03-27T21:49:54Z</time>
      </trkpt>
      <trkpt lat="41.646955" lon="-2.196572">
        <ele>1020.65</ele>
        <time>2021-03-27T21:50:00Z</time>
      </trkpt>
      <trkpt lat="41.646387" lon="-2.196916">
        <ele>1018.19</ele>
        <time>2021-03-27T21:50:06Z</time>
      </trkpt>
      <trkpt lat="41.646073" lon="-2.197199">
        <ele>1018.04</ele>
        <time>2021-03-27T21:50:12Z</time>
      </trkpt>
      <trkpt lat="41.644029" lon="-2.200268">
        <ele>1033.46</ele>
        <time>2021-03-27T21:50:18Z</time>
      </trkpt>
      <trkpt lat="41.6425" lon="-2.201727">
        <ele>1049.0</ele>
        <time>2021-03-27T21:50:24Z</time>
      </trkpt>
      <trkpt lat="41.640206" lon="-2.203319">
        <ele>1039.8</ele>
        <time>2021-03-27T21:50:31Z</time>
      </trkpt>
      <trkpt lat="41.639932" lon="-2.203695">
        <ele>1038.17</ele>
        <time>2021-03-27T21:50:37Z</time>
      </trkpt>
      <trkpt lat="41.639265" lon="-2.204875">
        <ele>1042.35</ele>
        <time>2021-03-27T21:50:43Z</time>
      </trkpt>
      <trkpt lat="41.638795" lon="-2.205618">
        <ele>1047.24</ele>
        <time>2021-03-27T21:50:49Z</time>
      </trkpt>
      <trkpt lat="41.638462" lon="-2.20609">
        <ele>1052.43</ele>
        <time>2021-03-27T21:50:55Z</time>
      </trkpt>
      <trkpt lat="41.637011" lon="-2.208031">
        <ele>1044.09</ele>
        <time>2021-03-27T21:51:01Z</time>
      </trkpt>
      <trkpt lat="41.63675" lon="-2.208512">
        <ele>1041.46</ele>
        <time>2021-03-27T21:51:07Z</time>
      </trkpt>
      <trkpt lat="41.636469" lon="-2.209089">
        <ele>1043.42</ele>
        <time>2021-03-27T21:51:13Z</time>
      </trkpt>
      <trkpt lat="41.635038" lon="-2.210785">
        <ele>1049.8</ele>
        <time>2021-03-27T21:51:19Z</time>
      </trkpt>
      <trkpt lat="41.63494" lon="-2.210977">
        <ele>1050.82</ele>
        <time>2021-03-27T21:51:25Z</time>
      </trkpt>
      <trkpt lat="41.633797" lon="-2.213749">
        <ele>1061.33</ele>
        <time>2021-03-27T21:51:31Z</time>
      </trkpt>
      <trkpt lat="41.633717" lon="-2.213908">
        <ele>1061.59</ele>
        <time>2021-03-27T21:51:37Z</time>
      </trkpt>
      <trkpt lat="41.633634" lon="-2.21402">
        <ele>1061.88</ele>
        <time>2021-03-27T21:51:43Z</time>
      </trkpt>
      <trkpt lat="41.633545" lon="-2.21409">
        <ele>1061.83</ele>
        <time>2021-03-27T21:51:49Z</time>
      </trkpt>
      <trkpt lat="41.632999" lon="-2.214318">
        <ele>1060.0</ele>
        <time>2021-03-27T21:51:55Z</time>
      </trkpt>
      <trkpt lat="41.632883" lon="-2.214387">
        <ele>1060.0</ele>
        <time>2021-03-27T21:52:01Z</time>
      </trkpt>
      <trkpt lat="41.632666" lon="-2.214561">
        <ele>1060.0</ele>
        <time>2021-03-27T21:52:07Z</time>
      </trkpt>
      <trkpt lat="41.632562" lon="-2.214675">
        <ele>1060.0</ele>
        <time>2021-03-27T21:52:13Z</time>
      </trkpt>
      <trkpt lat="41.631874" lon="-2.215571">
        <ele>1054.97</ele>
        <time>2021-03-27T21:52:19Z</time>
      </trkpt>
      <trkpt lat="41.628536" lon="-2.220029">
        <ele>1059.1</ele>
        <time>2021-03-27T21:52:25Z</time>
      </trkpt>
      <trkpt lat="41.628256" lon="-2.220362">
        <ele>1060.41</ele>
        <time>2021-03-27T21:52:31Z</time>
      </trkpt>
      <trkpt lat="41.628227" lon="-2.220484">
        <ele>1060.56</ele>
        <time>2021-03-27T21:52:37Z</time>
      </trkpt>
      <trkpt lat="41.628037" lon="-2.220602">
        <ele>1060.44</ele>
        <time>2021-03-27T21:52:38Z</time>
      </trkpt>
      <trkpt lat="41.627861" lon="-2.220787">
        <ele>1061.32</ele>
        <time>2021-03-27T21:52:39Z</time>
      </trkpt>
      <trkpt lat="41.627778" lon="-2.220935">
        <ele>1061.37</ele>
        <time>2021-03-27T21:52:39Z</time>
      </trkpt>
      <trkpt lat="41.62777" lon="-2.220992">
        <ele>1061.54</ele>
        <time>2021-03-27T21:52:40Z</time>
      </trkpt>
      <trkpt lat="41.627787" lon="-2.221101">
        <ele>1062.0</ele>
        <time>2021-03-27T21:52:41Z</time>
      </trkpt>
      <trkpt lat="41.627595" lon="-2.22136">
        <ele>1060.68</ele>
        <time>2021-03-27T21:52:45Z</time>
      </trkpt>
      <trkpt lat="41.627393" lon="-2.221712">
        <ele>1058.88</ele>
        <time>2021-03-27T21:52:49Z</time>
      </trkpt>
      <trkpt lat="41.626839" lon="-2.222888">
        <ele>1061.15</ele>
        <time>2021-03-27T21:52:53Z</time>
      </trkpt>
      <trkpt lat="41.626681" lon="-2.223147">
        <ele>1061.62</ele>
        <time>2021-03-27T21:52:57Z</time>
      </trkpt>
      <trkpt lat="41.626567" lon="-2.223276">
        <ele>1061.85</ele>
        <time>2021-03-27T21:53:01Z</time>
      </trkpt>
      <trkpt lat="41.626111" lon="-2.223606">
        <ele>1062.98</ele>
        <time>2021-03-27T21:53:05Z</time>
      </trkpt>
      <trkpt lat="41.625989" lon="-2.223665">
        <ele>1062.65</ele>
        <time>2021-03-27T21:53:09Z</time>
      </trkpt>
      <trkpt lat="41.625887" lon="-2.223664">
        <ele>1062.35</ele>
        <time>2021-03-27T21:53:12Z</time>
      </trkpt>
      <trkpt lat="41.625779" lon="-2.22363">
        <ele>1061.88</ele>
        <time>2021-03-27T21:53:16Z</time>
      </trkpt>
      <trkpt lat="41.62521" lon="-2.223213">
        <ele>1057.78</ele>
        <time>2021-03-27T21:53:20Z</time>
      </trkpt>
      <trkpt lat="41.625056" lon="-2.223139">
        <ele>1056.24</ele>
        <time>2021-03-27T21:53:24Z</time>
      </trkpt>
      <trkpt lat="41.624836" lon="-2.2231">
        <ele>1054.79</ele>
        <time>2021-03-27T21:53:28Z</time>
      </trkpt>
      <trkpt lat="41.624061" lon="-2.22307">
        <ele>1048.31</ele>
        <time>2021-03-27T21:53:32Z</time>
      </trkpt>
      <trkpt lat="41.623852" lon="-2.223104">
        <ele>1047.22</ele>
        <time>2021-03-27T21:53:36Z</time>
      </trkpt>
      <trkpt lat="41.622579" lon="-2.223646">
        <ele>1047.29</ele>
        <time>2021-03-27T21:53:40Z</time>
      </trkpt>
      <trkpt lat="41.622265" lon="-2.223762">
        <ele>1045.31</ele>
        <time>2021-03-27T21:53:44Z</time>
      </trkpt>
      <trkpt lat="41.622212" lon="-2.223758">
        <ele>1044.91</ele>
        <time>2021-03-27T21:53:48Z</time>
      </trkpt>
      <trkpt lat="41.622098" lon="-2.223695">
        <ele>1043.61</ele>
        <time>2021-03-27T21:53:52Z</time>
      </trkpt>
      <trkpt lat="41.622048" lon="-2.223835">
        <ele>1044.01</ele>
        <time>2021-03-27T21:53:56Z</time>
      </trkpt>
      <trkpt lat="41.621719" lon="-2.224093">
        <ele>1040.18</ele>
        <time>2021-03-27T21:54:00Z</time>
      </trkpt>
      <trkpt lat="41.621625" lon="-2.224188">
        <ele>1039.56</ele>
        <time>2021-03-27T21:54:04Z</time>
      </trkpt>
      <trkpt lat="41.621424" lon="-2.224453">
        <ele>1038.25</ele>
        <time>2021-03-27T21:54:07Z</time>
      </trkpt>
      <trkpt lat="41.620211" lon="-2.226198">
        <ele>1026.44</ele>
        <time>2021-03-27T21:54:11Z</time>
      </trkpt>
      <trkpt lat="41.619487" lon="-2.227247">
        <ele>1024.0</ele>
        <time>2021-03-27T21:54:14Z</time>
      </trkpt>
      <trkpt lat="41.619318" lon="-2.227576">
        <ele>1023.4</ele>
        <time>2021-03-27T21:54:17Z</time>
      </trkpt>
      <trkpt lat="41.619142" lon="-2.227992">
        <ele>1023.09</ele>
        <time>2021-03-27T21:54:20Z</time>
      </trkpt>
      <trkpt lat="41.618988" lon="-2.228355">
        <ele>1023.56</ele>
        <time>2021-03-27T21:54:23Z</time>
      </trkpt>
      <trkpt lat="41.618802" lon="-2.228681">
        <ele>1022.75</ele>
        <time>2021-03-27T21:54:26Z</time>
      </trkpt>
      <trkpt lat="41.618537" lon="-2.229013">
        <ele>1020.96</ele>
        <time>2021-03-27T21:54:29Z</time>
      </trkpt>
      <trkpt lat="41.617981" lon="-2.229486">
        <ele>1018.31</ele>
        <time>2021-03-27T21:54:31Z</time>
      </trkpt>
      <trkpt lat="41.617615" lon="-2.229888">
        <ele>1020.93</ele>
        <time>2021-03-27T21:54:34Z</time>
      </trkpt>
      <trkpt lat="41.612926" lon="-2.236553">
        <ele>1003.86</ele>
        <time>2021-03-27T21:55:09Z</time>
      </trkpt>
      <trkpt lat="41.612926" lon="-2.236553">
        <ele>1003.86</ele>
        <time>2021-03-27T21:55:09Z</time>
      </trkpt>
      <trkpt lat="41.599078" lon="-2.256229">
        <ele>979.39</ele>
        <time>2021-03-27T21:55:39Z</time>
      </trkpt>
      <trkpt lat="41.596536" lon="-2.259864">
        <ele>975.73</ele>
        <time>2021-03-27T21:56:09Z</time>
      </trkpt>
      <trkpt lat="41.593982" lon="-2.263471">
        <ele>981.33</ele>
        <time>2021-03-27T21:56:38Z</time>
      </trkpt>
      <trkpt lat="41.593333" lon="-2.264351">
        <ele>981.33</ele>
        <time>2021-03-27T21:57:08Z</time>
      </trkpt>
      <trkpt lat="41.59308" lon="-2.264729">
        <ele>980.09</ele>
        <time>2021-03-27T21:57:37Z</time>
      </trkpt>
      <trkpt lat="41.592895" lon="-2.264666">
        <ele>980.78</ele>
        <time>2021-03-27T21:57:40Z</time>
      </trkpt>
      <trkpt lat="41.59278" lon="-2.264686">
        <ele>981.12</ele>
        <time>2021-03-27T21:57:44Z</time>
      </trkpt>
      <trkpt lat="41.591858" lon="-2.265091">
        <ele>986.0</ele>
        <time>2021-03-27T21:57:47Z</time>
      </trkpt>
      <trkpt lat="41.59118" lon="-2.265425">
        <ele>985.72</ele>
        <time>2021-03-27T21:57:50Z</time>
      </trkpt>
      <trkpt lat="41.589647" lon="-2.266047">
        <ele>986.27</ele>
        <time>2021-03-27T21:57:53Z</time>
      </trkpt>
      <trkpt lat="41.589537" lon="-2.266134">
        <ele>986.66</ele>
        <time>2021-03-27T21:57:56Z</time>
      </trkpt>
      <trkpt lat="41.589459" lon="-2.266275">
        <ele>986.95</ele>
        <time>2021-03-27T21:57:59Z</time>
      </trkpt>
      <trkpt lat="41.589277" lon="-2.266692">
        <ele>988.67</ele>
        <time>2021-03-27T21:58:02Z</time>
      </trkpt>
      <trkpt lat="41.589266" lon="-2.267012">
        <ele>989.52</ele>
        <time>2021-03-27T21:58:05Z</time>
      </trkpt>
      <trkpt lat="41.589247" lon="-2.267152">
        <ele>989.82</ele>
        <time>2021-03-27T21:58:08Z</time>
      </trkpt>
      <trkpt lat="41.589202" lon="-2.267261">
        <ele>989.88</ele>
        <time>2021-03-27T21:58:11Z</time>
      </trkpt>
      <trkpt lat="41.589162" lon="-2.267295">
        <ele>989.72</ele>
        <time>2021-03-27T21:58:14Z</time>
      </trkpt>
      <trkpt lat="41.588943" lon="-2.2673">
        <ele>988.56</ele>
        <time>2021-03-27T21:58:18Z</time>
      </trkpt>
      <trkpt lat="41.588552" lon="-2.267237">
        <ele>989.41</ele>
        <time>2021-03-27T21:58:21Z</time>
      </trkpt>
      <trkpt lat="41.588272" lon="-2.267213">
        <ele>991.01</ele>
        <time>2021-03-27T21:58:24Z</time>
      </trkpt>
      <trkpt lat="41.587975" lon="-2.267113">
        <ele>991.1</ele>
        <time>2021-03-27T21:58:27Z</time>
      </trkpt>
      <trkpt lat="41.587418" lon="-2.266963">
        <ele>990.0</ele>
        <time>2021-03-27T21:58:30Z</time>
      </trkpt>
      <trkpt lat="41.586742" lon="-2.266734">
        <ele>991.18</ele>
        <time>2021-03-27T21:58:33Z</time>
      </trkpt>
      <trkpt lat="41.58634" lon="-2.266626">
        <ele>991.03</ele>
        <time>2021-03-27T21:58:36Z</time>
      </trkpt>
      <trkpt lat="41.586132" lon="-2.266632">
        <ele>991.8</ele>
        <time>2021-03-27T21:58:39Z</time>
      </trkpt>
      <trkpt lat="41.586035" lon="-2.266667">
        <ele>992.55</ele>
        <time>2021-03-27T21:58:42Z</time>
      </trkpt>
      <trkpt lat="41.585836" lon="-2.2668">
        <ele>993.98</ele>
        <time>2021-03-27T21:58:45Z</time>
      </trkpt>
      <trkpt lat="41.583153" lon="-2.268934">
        <ele>995.65</ele>
        <time>2021-03-27T21:58:48Z</time>
      </trkpt>
      <trkpt lat="41.579515" lon="-2.271788">
        <ele>1004.74</ele>
        <time>2021-03-27T21:58:51Z</time>
      </trkpt>
      <trkpt lat="41.577297" lon="-2.273765">
        <ele>1016.17</ele>
        <time>2021-03-27T21:58:55Z</time>
      </trkpt>
      <trkpt lat="41.577095" lon="-2.2739">
        <ele>1016.43</ele>
        <time>2021-03-27T21:58:58Z</time>
      </trkpt>
      <trkpt lat="41.576983" lon="-2.273954">
        <ele>1016.83</ele>
        <time>2021-03-27T21:59:01Z</time>
      </trkpt>
      <trkpt lat="41.576741" lon="-2.274026">
        <ele>1017.73</ele>
        <time>2021-03-27T21:59:04Z</time>
      </trkpt>
      <trkpt lat="41.576478" lon="-2.274072">
        <ele>1019.12</ele>
        <time>2021-03-27T21:59:07Z</time>
      </trkpt>
      <trkpt lat="41.575114" lon="-2.274235">
        <ele>1027.08</ele>
        <time>2021-03-27T21:59:10Z</time>
      </trkpt>
      <trkpt lat="41.574902" lon="-2.274324">
        <ele>1028.99</ele>
        <time>2021-03-27T21:59:13Z</time>
      </trkpt>
      <trkpt lat="41.574502" lon="-2.274724">
        <ele>1031.79</ele>
        <time>2021-03-27T21:59:16Z</time>
      </trkpt>
      <trkpt lat="41.574412" lon="-2.274763">
        <ele>1032.13</ele>
        <time>2021-03-27T21:59:19Z</time>
      </trkpt>
      <trkpt lat="41.574323" lon="-2.274771">
        <ele>1032.51</ele>
        <time>2021-03-27T21:59:22Z</time>
      </trkpt>
      <trkpt lat="41.574241" lon="-2.274743">
        <ele>1032.79</ele>
        <time>2021-03-27T21:59:25Z</time>
      </trkpt>
      <trkpt lat="41.574168" lon="-2.274686">
        <ele>1033.12</ele>
        <time>2021-03-27T21:59:29Z</time>
      </trkpt>
      <trkpt lat="41.574109" lon="-2.274606">
        <ele>1033.95</ele>
        <time>2021-03-27T21:59:32Z</time>
      </trkpt>
      <trkpt lat="41.573642" lon="-2.273508">
        <ele>1041.77</ele>
        <time>2021-03-27T21:59:35Z</time>
      </trkpt>
      <trkpt lat="41.573524" lon="-2.273326">
        <ele>1042.33</ele>
        <time>2021-03-27T21:59:38Z</time>
      </trkpt>
      <trkpt lat="41.573369" lon="-2.273189">
        <ele>1042.94</ele>
        <time>2021-03-27T21:59:41Z</time>
      </trkpt>
      <trkpt lat="41.573185" lon="-2.273106">
        <ele>1043.1</ele>
        <time>2021-03-27T21:59:44Z</time>
      </trkpt>
      <trkpt lat="41.573084" lon="-2.273091">
        <ele>1043.11</ele>
        <time>2021-03-27T21:59:47Z</time>
      </trkpt>
      <trkpt lat="41.572986" lon="-2.273101">
        <ele>1043.41</ele>
        <time>2021-03-27T21:59:50Z</time>
      </trkpt>
      <trkpt lat="41.572895" lon="-2.273142">
        <ele>1043.89</ele>
        <time>2021-03-27T21:59:53Z</time>
      </trkpt>
      <trkpt lat="41.572722" lon="-2.27329">
        <ele>1045.04</ele>
        <time>2021-03-27T21:59:56Z</time>
      </trkpt>
      <trkpt lat="41.571534" lon="-2.274641">
        <ele>1054.37</ele>
        <time>2021-03-27T21:59:59Z</time>
      </trkpt>
      <trkpt lat="41.571337" lon="-2.274873">
        <ele>1054.99</ele>
        <time>2021-03-27T22:00:03Z</time>
      </trkpt>
      <trkpt lat="41.571167" lon="-2.275117">
        <ele>1056.55</ele>
        <time>2021-03-27T22:00:06Z</time>
      </trkpt>
      <trkpt lat="41.571027" lon="-2.275397">
        <ele>1059.46</ele>
        <time>2021-03-27T22:00:09Z</time>
      </trkpt>
      <trkpt lat="41.570596" lon="-2.277108">
        <ele>1071.66</ele>
        <time>2021-03-27T22:00:12Z</time>
      </trkpt>
      <trkpt lat="41.570476" lon="-2.277382">
        <ele>1073.57</ele>
        <time>2021-03-27T22:00:15Z</time>
      </trkpt>
      <trkpt lat="41.570341" lon="-2.277543">
        <ele>1074.5</ele>
        <time>2021-03-27T22:00:18Z</time>
      </trkpt>
      <trkpt lat="41.56998" lon="-2.27786">
        <ele>1076.34</ele>
        <time>2021-03-27T22:00:21Z</time>
      </trkpt>
      <trkpt lat="41.569686" lon="-2.278216">
        <ele>1079.71</ele>
        <time>2021-03-27T22:00:24Z</time>
      </trkpt>
      <trkpt lat="41.569575" lon="-2.278322">
        <ele>1080.39</ele>
        <time>2021-03-27T22:00:27Z</time>
      </trkpt>
      <trkpt lat="41.569209" lon="-2.278522">
        <ele>1080.95</ele>
        <time>2021-03-27T22:00:30Z</time>
      </trkpt>
      <trkpt lat="41.568894" lon="-2.27873">
        <ele>1081.43</ele>
        <time>2021-03-27T22:00:33Z</time>
      </trkpt>
      <trkpt lat="41.568817" lon="-2.278725">
        <ele>1082.38</ele>
        <time>2021-03-27T22:00:37Z</time>
      </trkpt>
      <trkpt lat="41.568561" lon="-2.278559">
        <ele>1087.21</ele>
        <time>2021-03-27T22:00:40Z</time>
      </trkpt>
      <trkpt lat="41.568419" lon="-2.278613">
        <ele>1088.74</ele>
        <time>2021-03-27T22:00:43Z</time>
      </trkpt>
      <trkpt lat="41.568365" lon="-2.278672">
        <ele>1089.09</ele>
        <time>2021-03-27T22:00:46Z</time>
      </trkpt>
      <trkpt lat="41.568275" lon="-2.278835">
        <ele>1088.97</ele>
        <time>2021-03-27T22:00:49Z</time>
      </trkpt>
      <trkpt lat="41.568233" lon="-2.279023">
        <ele>1088.77</ele>
        <time>2021-03-27T22:00:52Z</time>
      </trkpt>
      <trkpt lat="41.568239" lon="-2.279613">
        <ele>1089.28</ele>
        <time>2021-03-27T22:00:55Z</time>
      </trkpt>
      <trkpt lat="41.568222" lon="-2.280029">
        <ele>1091.61</ele>
        <time>2021-03-27T22:00:58Z</time>
      </trkpt>
      <trkpt lat="41.56808" lon="-2.280697">
        <ele>1095.14</ele>
        <time>2021-03-27T22:01:01Z</time>
      </trkpt>
      <trkpt lat="41.568019" lon="-2.281266">
        <ele>1094.18</ele>
        <time>2021-03-27T22:01:04Z</time>
      </trkpt>
      <trkpt lat="41.567962" lon="-2.281497">
        <ele>1092.94</ele>
        <time>2021-03-27T22:01:07Z</time>
      </trkpt>
      <trkpt lat="41.567779" lon="-2.281987">
        <ele>1090.7</ele>
        <time>2021-03-27T22:01:10Z</time>
      </trkpt>
      <trkpt lat="41.567616" lon="-2.282739">
        <ele>1085.36</ele>
        <time>2021-03-27T22:01:14Z</time>
      </trkpt>
      <trkpt lat="41.567515" lon="-2.283013">
        <ele>1082.5</ele>
        <time>2021-03-27T22:01:17Z</time>
      </trkpt>
      <trkpt lat="41.567039" lon="-2.283855">
        <ele>1079.23</ele>
        <time>2021-03-27T22:01:20Z</time>
      </trkpt>
      <trkpt lat="41.565897" lon="-2.285781">
        <ele>1078.68</ele>
        <time>2021-03-27T22:01:23Z</time>
      </trkpt>
      <trkpt lat="41.565674" lon="-2.286072">
        <ele>1077.16</ele>
        <time>2021-03-27T22:01:26Z</time>
      </trkpt>
      <trkpt lat="41.565204" lon="-2.286613">
        <ele>1068.4</ele>
        <time>2021-03-27T22:01:29Z</time>
      </trkpt>
      <trkpt lat="41.565027" lon="-2.286882">
        <ele>1066.99</ele>
        <time>2021-03-27T22:01:32Z</time>
      </trkpt>
      <trkpt lat="41.564802" lon="-2.287398">
        <ele>1066.1</ele>
        <time>2021-03-27T22:01:35Z</time>
      </trkpt>
      <trkpt lat="41.564208" lon="-2.288961">
        <ele>1069.7</ele>
        <time>2021-03-27T22:01:38Z</time>
      </trkpt>
      <trkpt lat="41.564042" lon="-2.289323">
        <ele>1071.34</ele>
        <time>2021-03-27T22:01:41Z</time>
      </trkpt>
      <trkpt lat="41.563975" lon="-2.289409">
        <ele>1072.06</ele>
        <time>2021-03-27T22:01:44Z</time>
      </trkpt>
      <trkpt lat="41.563802" lon="-2.289517">
        <ele>1074.47</ele>
        <time>2021-03-27T22:01:48Z</time>
      </trkpt>
      <trkpt lat="41.563324" lon="-2.289669">
        <ele>1079.41</ele>
        <time>2021-03-27T22:01:51Z</time>
      </trkpt>
      <trkpt lat="41.563232" lon="-2.289719">
        <ele>1079.38</ele>
        <time>2021-03-27T22:01:54Z</time>
      </trkpt>
      <trkpt lat="41.563057" lon="-2.289872">
        <ele>1078.91</ele>
        <time>2021-03-27T22:01:57Z</time>
      </trkpt>
      <trkpt lat="41.562893" lon="-2.2901">
        <ele>1076.92</ele>
        <time>2021-03-27T22:02:00Z</time>
      </trkpt>
      <trkpt lat="41.562446" lon="-2.290839">
        <ele>1069.59</ele>
        <time>2021-03-27T22:02:03Z</time>
      </trkpt>
      <trkpt lat="41.561746" lon="-2.292008">
        <ele>1063.93</ele>
        <time>2021-03-27T22:02:06Z</time>
      </trkpt>
      <trkpt lat="41.561568" lon="-2.292341">
        <ele>1063.87</ele>
        <time>2021-03-27T22:02:09Z</time>
      </trkpt>
      <trkpt lat="41.56138" lon="-2.292903">
        <ele>1065.01</ele>
        <time>2021-03-27T22:02:12Z</time>
      </trkpt>
      <trkpt lat="41.561222" lon="-2.293472">
        <ele>1065.6</ele>
        <time>2021-03-27T22:02:15Z</time>
      </trkpt>
      <trkpt lat="41.561138" lon="-2.293834">
        <ele>1065.02</ele>
        <time>2021-03-27T22:02:18Z</time>
      </trkpt>
      <trkpt lat="41.560831" lon="-2.296367">
        <ele>1068.94</ele>
        <time>2021-03-27T22:02:22Z</time>
      </trkpt>
      <trkpt lat="41.560752" lon="-2.296866">
        <ele>1067.94</ele>
        <time>2021-03-27T22:02:25Z</time>
      </trkpt>
      <trkpt lat="41.560603" lon="-2.297402">
        <ele>1065.3</ele>
        <time>2021-03-27T22:02:28Z</time>
      </trkpt>
      <trkpt lat="41.560197" lon="-2.29866">
        <ele>1069.4</ele>
        <time>2021-03-27T22:02:31Z</time>
      </trkpt>
      <trkpt lat="41.559998" lon="-2.29916">
        <ele>1068.05</ele>
        <time>2021-03-27T22:02:34Z</time>
      </trkpt>
      <trkpt lat="41.559818" lon="-2.299458">
        <ele>1067.31</ele>
        <time>2021-03-27T22:02:37Z</time>
      </trkpt>
      <trkpt lat="41.558573" lon="-2.301274">
        <ele>1058.33</ele>
        <time>2021-03-27T22:02:40Z</time>
      </trkpt>
      <trkpt lat="41.558399" lon="-2.301595">
        <ele>1058.78</ele>
        <time>2021-03-27T22:02:43Z</time>
      </trkpt>
      <trkpt lat="41.558137" lon="-2.302191">
        <ele>1053.93</ele>
        <time>2021-03-27T22:02:46Z</time>
      </trkpt>
      <trkpt lat="41.558059" lon="-2.302314">
        <ele>1053.32</ele>
        <time>2021-03-27T22:02:49Z</time>
      </trkpt>
      <trkpt lat="41.55787" lon="-2.302542">
        <ele>1052.36</ele>
        <time>2021-03-27T22:02:52Z</time>
      </trkpt>
      <trkpt lat="41.55744" lon="-2.302988">
        <ele>1051.51</ele>
        <time>2021-03-27T22:02:56Z</time>
      </trkpt>
      <trkpt lat="41.557248" lon="-2.303229">
        <ele>1051.28</ele>
        <time>2021-03-27T22:02:59Z</time>
      </trkpt>
      <trkpt lat="41.557159" lon="-2.303366">
        <ele>1050.88</ele>
        <time>2021-03-27T22:03:02Z</time>
      </trkpt>
      <trkpt lat="41.556782" lon="-2.304163">
        <ele>1049.42</ele>
        <time>2021-03-27T22:03:05Z</time>
      </trkpt>
      <trkpt lat="41.556371" lon="-2.305125">
        <ele>1051.06</ele>
        <time>2021-03-27T22:03:08Z</time>
      </trkpt>
      <trkpt lat="41.556224" lon="-2.305393">
        <ele>1050.93</ele>
        <time>2021-03-27T22:03:11Z</time>
      </trkpt>
      <trkpt lat="41.556137" lon="-2.305517">
        <ele>1050.26</ele>
        <time>2021-03-27T22:03:14Z</time>
      </trkpt>
      <trkpt lat="41.555926" lon="-2.305749">
        <ele>1049.97</ele>
        <time>2021-03-27T22:03:17Z</time>
      </trkpt>
      <trkpt lat="41.555146" lon="-2.306461">
        <ele>1054.11</ele>
        <time>2021-03-27T22:03:20Z</time>
      </trkpt>
      <trkpt lat="41.554961" lon="-2.306709">
        <ele>1055.11</ele>
        <time>2021-03-27T22:03:23Z</time>
      </trkpt>
      <trkpt lat="41.554757" lon="-2.307057">
        <ele>1054.5</ele>
        <time>2021-03-27T22:03:26Z</time>
      </trkpt>
      <trkpt lat="41.55413" lon="-2.308232">
        <ele>1057.18</ele>
        <time>2021-03-27T22:03:30Z</time>
      </trkpt>
      <trkpt lat="41.554007" lon="-2.308548">
        <ele>1057.13</ele>
        <time>2021-03-27T22:03:33Z</time>
      </trkpt>
      <trkpt lat="41.553635" lon="-2.309845">
        <ele>1064.32</ele>
        <time>2021-03-27T22:03:36Z</time>
      </trkpt>
      <trkpt lat="41.553553" lon="-2.310076">
        <ele>1064.78</ele>
        <time>2021-03-27T22:03:39Z</time>
      </trkpt>
      <trkpt lat="41.553009" lon="-2.311324">
        <ele>1065.69</ele>
        <time>2021-03-27T22:03:42Z</time>
      </trkpt>
      <trkpt lat="41.553764" lon="-2.313566">
        <ele>1070.39</ele>
        <time>2021-03-27T22:03:46Z</time>
      </trkpt>
      <trkpt lat="41.553913" lon="-2.313931">
        <ele>1071.49</ele>
        <time>2021-03-27T22:03:51Z</time>
      </trkpt>
      <trkpt lat="41.555504" lon="-2.316173">
        <ele>1081.63</ele>
        <time>2021-03-27T22:03:55Z</time>
      </trkpt>
      <trkpt lat="41.556155" lon="-2.317043">
        <ele>1085.19</ele>
        <time>2021-03-27T22:04:00Z</time>
      </trkpt>
      <trkpt lat="41.556715" lon="-2.317642">
        <ele>1080.77</ele>
        <time>2021-03-27T22:04:04Z</time>
      </trkpt>
      <trkpt lat="41.557038" lon="-2.317734">
        <ele>1078.24</ele>
        <time>2021-03-27T22:04:09Z</time>
      </trkpt>
      <trkpt lat="41.557137" lon="-2.317867">
        <ele>1076.34</ele>
        <time>2021-03-27T22:04:13Z</time>
      </trkpt>
      <trkpt lat="41.55715" lon="-2.317983">
        <ele>1075.04</ele>
        <time>2021-03-27T22:04:18Z</time>
      </trkpt>
      <trkpt lat="41.556845" lon="-2.319644">
        <ele>1064.03</ele>
        <time>2021-03-27T22:04:22Z</time>
      </trkpt>
      <trkpt lat="41.556852" lon="-2.319785">
        <ele>1063.85</ele>
        <time>2021-03-27T22:04:27Z</time>
      </trkpt>
      <trkpt lat="41.556926" lon="-2.319893">
        <ele>1064.23</ele>
        <time>2021-03-27T22:04:31Z</time>
      </trkpt>
      <trkpt lat="41.5571" lon="-2.320059">
        <ele>1063.04</ele>
        <time>2021-03-27T22:04:36Z</time>
      </trkpt>
      <trkpt lat="41.557162" lon="-2.320183">
        <ele>1062.27</ele>
        <time>2021-03-27T22:04:40Z</time>
      </trkpt>
      <trkpt lat="41.557162" lon="-2.320441">
        <ele>1059.1</ele>
        <time>2021-03-27T22:04:45Z</time>
      </trkpt>
      <trkpt lat="41.556988" lon="-2.321561">
        <ele>1049.38</ele>
        <time>2021-03-27T22:04:49Z</time>
      </trkpt>
      <trkpt lat="41.557038" lon="-2.321728">
        <ele>1048.71</ele>
        <time>2021-03-27T22:04:54Z</time>
      </trkpt>
      <trkpt lat="41.557113" lon="-2.321827">
        <ele>1048.07</ele>
        <time>2021-03-27T22:04:58Z</time>
      </trkpt>
      <trkpt lat="41.557653" lon="-2.322051">
        <ele>1044.23</ele>
        <time>2021-03-27T22:05:03Z</time>
      </trkpt>
      <trkpt lat="41.557765" lon="-2.322193">
        <ele>1043.21</ele>
        <time>2021-03-27T22:05:07Z</time>
      </trkpt>
      <trkpt lat="41.557827" lon="-2.322342">
        <ele>1042.92</ele>
        <time>2021-03-27T22:05:11Z</time>
      </trkpt>
      <trkpt lat="41.558094" lon="-2.32514">
        <ele>1034.93</ele>
        <time>2021-03-27T22:05:16Z</time>
      </trkpt>
      <trkpt lat="41.558169" lon="-2.325281">
        <ele>1034.58</ele>
        <time>2021-03-27T22:05:20Z</time>
      </trkpt>
      <trkpt lat="41.558318" lon="-2.325497">
        <ele>1034.01</ele>
        <time>2021-03-27T22:05:25Z</time>
      </trkpt>
      <trkpt lat="41.558641" lon="-2.325779">
        <ele>1032.3</ele>
        <time>2021-03-27T22:05:29Z</time>
      </trkpt>
      <trkpt lat="41.558989" lon="-2.326136">
        <ele>1033.36</ele>
        <time>2021-03-27T22:05:34Z</time>
      </trkpt>
      <trkpt lat="41.559126" lon="-2.326385">
        <ele>1033.85</ele>
        <time>2021-03-27T22:05:38Z</time>
      </trkpt>
      <trkpt lat="41.559809" lon="-2.328087">
        <ele>1028.2</ele>
        <time>2021-03-27T22:05:43Z</time>
      </trkpt>
      <trkpt lat="41.559865" lon="-2.328361">
        <ele>1027.36</ele>
        <time>2021-03-27T22:05:47Z</time>
      </trkpt>
      <trkpt lat="41.559784" lon="-2.329291">
        <ele>1023.57</ele>
        <time>2021-03-27T22:05:52Z</time>
      </trkpt>
      <trkpt lat="41.559815" lon="-2.329881">
        <ele>1026.43</ele>
        <time>2021-03-27T22:05:56Z</time>
      </trkpt>
      <trkpt lat="41.56007" lon="-2.331251">
        <ele>1027.87</ele>
        <time>2021-03-27T22:06:01Z</time>
      </trkpt>
      <trkpt lat="41.560343" lon="-2.332421">
        <ele>1034.24</ele>
        <time>2021-03-27T22:06:05Z</time>
      </trkpt>
      <trkpt lat="41.561107" lon="-2.335211">
        <ele>1038.01</ele>
        <time>2021-03-27T22:06:10Z</time>
      </trkpt>
      <trkpt lat="41.561225" lon="-2.33551">
        <ele>1034.68</ele>
        <time>2021-03-27T22:06:14Z</time>
      </trkpt>
      <trkpt lat="41.561847" lon="-2.336457">
        <ele>1033.65</ele>
        <time>2021-03-27T22:06:19Z</time>
      </trkpt>
      <trkpt lat="41.562027" lon="-2.336764">
        <ele>1031.2</ele>
        <time>2021-03-27T22:06:23Z</time>
      </trkpt>
      <trkpt lat="41.563853" lon="-2.340832">
        <ele>1016.12</ele>
        <time>2021-03-27T22:06:28Z</time>
      </trkpt>
      <trkpt lat="41.564207" lon="-2.342285">
        <ele>1013.85</ele>
        <time>2021-03-27T22:06:32Z</time>
      </trkpt>
      <trkpt lat="41.564369" lon="-2.342617">
        <ele>1013.69</ele>
        <time>2021-03-27T22:06:36Z</time>
      </trkpt>
      <trkpt lat="41.5654" lon="-2.344469">
        <ele>1012.56</ele>
        <time>2021-03-27T22:06:41Z</time>
      </trkpt>
      <trkpt lat="41.56558" lon="-2.344643">
        <ele>1011.91</ele>
        <time>2021-03-27T22:06:45Z</time>
      </trkpt>
      <trkpt lat="41.567493" lon="-2.345938">
        <ele>1005.04</ele>
        <time>2021-03-27T22:06:50Z</time>
      </trkpt>
      <trkpt lat="41.568425" lon="-2.346229">
        <ele>1006.71</ele>
        <time>2021-03-27T22:06:54Z</time>
      </trkpt>
      <trkpt lat="41.568592" lon="-2.34632">
        <ele>1006.8</ele>
        <time>2021-03-27T22:06:59Z</time>
      </trkpt>
      <trkpt lat="41.568761" lon="-2.346494">
        <ele>1006.48</ele>
        <time>2021-03-27T22:07:03Z</time>
      </trkpt>
      <trkpt lat="41.569489" lon="-2.347435">
        <ele>1003.8</ele>
        <time>2021-03-27T22:07:08Z</time>
      </trkpt>
      <trkpt lat="41.568803" lon="-2.348139">
        <ele>1004.4</ele>
        <time>2021-03-27T22:07:12Z</time>
      </trkpt>
      <trkpt lat="41.568103" lon="-2.348793">
        <ele>999.74</ele>
        <time>2021-03-27T22:07:17Z</time>
      </trkpt>
      <trkpt lat="41.568216" lon="-2.349056">
        <ele>999.23</ele>
        <time>2021-03-27T22:07:28Z</time>
      </trkpt>
      <trkpt lat="41.568819" lon="-2.350648">
        <ele>998.25</ele>
        <time>2021-03-27T22:07:40Z</time>
      </trkpt>
      <trkpt lat="41.569434" lon="-2.352255">
        <ele>997.96</ele>
        <time>2021-03-27T22:07:51Z</time>
      </trkpt>
      <trkpt lat="41.569654" lon="-2.352614">
        <ele>998.75</ele>
        <time>2021-03-27T22:08:03Z</time>
      </trkpt>
      <trkpt lat="41.57016" lon="-2.35316">
        <ele>1004.0</ele>
        <time>2021-03-27T22:08:14Z</time>
      </trkpt>
      <trkpt lat="41.570259" lon="-2.353308">
        <ele>1004.8</ele>
        <time>2021-03-27T22:08:26Z</time>
      </trkpt>
      <trkpt lat="41.571432" lon="-2.355819">
        <ele>1015.96</ele>
        <time>2021-03-27T22:08:37Z</time>
      </trkpt>
      <trkpt lat="41.57156" lon="-2.356173">
        <ele>1017.11</ele>
        <time>2021-03-27T22:08:49Z</time>
      </trkpt>
      <trkpt lat="41.571651" lon="-2.35652">
        <ele>1019.83</ele>
        <time>2021-03-27T22:09:01Z</time>
      </trkpt>
      <trkpt lat="41.572122" lon="-2.359298">
        <ele>1024.72</ele>
        <time>2021-03-27T22:09:12Z</time>
      </trkpt>
      <trkpt lat="41.572163" lon="-2.35988">
        <ele>1024.27</ele>
        <time>2021-03-27T22:09:24Z</time>
      </trkpt>
      <trkpt lat="41.57218" lon="-2.36119">
        <ele>1024.59</ele>
        <time>2021-03-27T22:09:35Z</time>
      </trkpt>
      <trkpt lat="41.572202" lon="-2.361486">
        <ele>1023.79</ele>
        <time>2021-03-27T22:09:47Z</time>
      </trkpt>
      <trkpt lat="41.572257" lon="-2.361772">
        <ele>1022.28</ele>
        <time>2021-03-27T22:09:58Z</time>
      </trkpt>
      <trkpt lat="41.572335" lon="-2.362021">
        <ele>1020.74</ele>
        <time>2021-03-27T22:10:10Z</time>
      </trkpt>
      <trkpt lat="41.572449" lon="-2.362261">
        <ele>1018.47</ele>
        <time>2021-03-27T22:10:21Z</time>
      </trkpt>
      <trkpt lat="41.572564" lon="-2.362458">
        <ele>1015.37</ele>
        <time>2021-03-27T22:10:33Z</time>
      </trkpt>
      <trkpt lat="41.572684" lon="-2.362595">
        <ele>1013.42</ele>
        <time>2021-03-27T22:10:45Z</time>
      </trkpt>
      <trkpt lat="41.573183" lon="-2.363031">
        <ele>1006.83</ele>
        <time>2021-03-27T22:10:56Z</time>
      </trkpt>
      <trkpt lat="41.573345" lon="-2.36322">
        <ele>1002.73</ele>
        <time>2021-03-27T22:11:08Z</time>
      </trkpt>
      <trkpt lat="41.573524" lon="-2.363478">
        <ele>999.94</ele>
        <time>2021-03-27T22:11:19Z</time>
      </trkpt>
      <trkpt lat="41.576719" lon="-2.368768">
        <ele>979.19</ele>
        <time>2021-03-27T22:11:31Z</time>
      </trkpt>
      <trkpt lat="41.576976" lon="-2.36925">
        <ele>979.23</ele>
        <time>2021-03-27T22:11:42Z</time>
      </trkpt>
      <trkpt lat="41.578308" lon="-2.373218">
        <ele>987.82</ele>
        <time>2021-03-27T22:11:54Z</time>
      </trkpt>
      <trkpt lat="41.578514" lon="-2.373707">
        <ele>988.73</ele>
        <time>2021-03-27T22:12:05Z</time>
      </trkpt>
      <trkpt lat="41.579669" lon="-2.375914">
        <ele>980.71</ele>
        <time>2021-03-27T22:12:17Z</time>
      </trkpt>
      <trkpt lat="41.580786" lon="-2.378003">
        <ele>975.82</ele>
        <time>2021-03-27T22:12:28Z</time>
      </trkpt>
      <trkpt lat="41.58101" lon="-2.37834">
        <ele>976.39</ele>
        <time>2021-03-27T22:12:40Z</time>
      </trkpt>
      <trkpt lat="41.581434" lon="-2.37879">
        <ele>976.07</ele>
        <time>2021-03-27T22:12:52Z</time>
      </trkpt>
      <trkpt lat="41.581511" lon="-2.378958">
        <ele>976.92</ele>
        <time>2021-03-27T22:13:03Z</time>
      </trkpt>
      <trkpt lat="41.58157" lon="-2.379193">
        <ele>978.0</ele>
        <time>2021-03-27T22:13:15Z</time>
      </trkpt>
      <trkpt lat="41.582005" lon="-2.381748">
        <ele>975.97</ele>
        <time>2021-03-27T22:13:26Z</time>
      </trkpt>
      <trkpt lat="41.582035" lon="-2.382028">
        <ele>975.8</ele>
        <time>2021-03-27T22:13:38Z</time>
      </trkpt>
      <trkpt lat="41.582041" lon="-2.382311">
        <ele>976.28</ele>
        <time>2021-03-27T22:13:49Z</time>
      </trkpt>
      <trkpt lat="41.581934" lon="-2.3837">
        <ele>973.71</ele>
        <time>2021-03-27T22:14:01Z</time>
      </trkpt>
      <trkpt lat="41.58185" lon="-2.384286">
        <ele>972.15</ele>
        <time>2021-03-27T22:14:12Z</time>
      </trkpt>
      <trkpt lat="41.580945" lon="-2.388169">
        <ele>971.82</ele>
        <time>2021-03-27T22:14:24Z</time>
      </trkpt>
      <trkpt lat="41.580945" lon="-2.388698">
        <ele>974.31</ele>
        <time>2021-03-27T22:14:36Z</time>
      </trkpt>
      <trkpt lat="41.580989" lon="-2.38945">
        <ele>976.45</ele>
        <time>2021-03-27T22:14:47Z</time>
      </trkpt>
      <trkpt lat="41.581055" lon="-2.39015">
        <ele>976.95</ele>
        <time>2021-03-27T22:14:59Z</time>
      </trkpt>
      <trkpt lat="41.581158" lon="-2.390698">
        <ele>977.75</ele>
        <time>2021-03-27T22:15:10Z</time>
      </trkpt>
      <trkpt lat="41.583705" lon="-2.402096">
        <ele>967.79</ele>
        <time>2021-03-27T22:15:22Z</time>
      </trkpt>
      <trkpt lat="41.583878" lon="-2.402567">
        <ele>966.46</ele>
        <time>2021-03-27T22:15:33Z</time>
      </trkpt>
      <trkpt lat="41.58416" lon="-2.403022">
        <ele>965.22</ele>
        <time>2021-03-27T22:15:45Z</time>
      </trkpt>
      <trkpt lat="41.585745" lon="-2.404395">
        <ele>967.27</ele>
        <time>2021-03-27T22:15:56Z</time>
      </trkpt>
      <trkpt lat="41.592015" lon="-2.409736">
        <ele>979.57</ele>
        <time>2021-03-27T22:16:08Z</time>
      </trkpt>
      <trkpt lat="41.594588" lon="-2.411979">
        <ele>989.91</ele>
        <time>2021-03-27T22:16:19Z</time>
      </trkpt>
      <trkpt lat="41.59793" lon="-2.415346">
        <ele>988.23</ele>
        <time>2021-03-27T22:16:31Z</time>
      </trkpt>
      <trkpt lat="41.602765" lon="-2.420292">
        <ele>993.0</ele>
        <time>2021-03-27T22:16:43Z</time>
      </trkpt>
      <trkpt lat="41.602563" lon="-2.420941">
        <ele>993.0</ele>
        <time>2021-03-27T22:16:49Z</time>
      </trkpt>
      <trkpt lat="41.602439" lon="-2.421541">
        <ele>992.78</ele>
        <time>2021-03-27T22:16:55Z</time>
      </trkpt>
      <trkpt lat="41.602394" lon="-2.422099">
        <ele>992.62</ele>
        <time>2021-03-27T22:17:01Z</time>
      </trkpt>
      <trkpt lat="41.602325" lon="-2.422556">
        <ele>992.8</ele>
        <time>2021-03-27T22:17:07Z</time>
      </trkpt>
      <trkpt lat="41.602141" lon="-2.423165">
        <ele>990.61</ele>
        <time>2021-03-27T22:17:13Z</time>
      </trkpt>
      <trkpt lat="41.60186" lon="-2.424272">
        <ele>986.07</ele>
        <time>2021-03-27T22:17:19Z</time>
      </trkpt>
      <trkpt lat="41.601661" lon="-2.424897">
        <ele>985.97</ele>
        <time>2021-03-27T22:17:25Z</time>
      </trkpt>
      <trkpt lat="41.60084" lon="-2.427079">
        <ele>982.55</ele>
        <time>2021-03-27T22:17:32Z</time>
      </trkpt>
      <trkpt lat="41.600738" lon="-2.427311">
        <ele>981.66</ele>
        <time>2021-03-27T22:17:38Z</time>
      </trkpt>
      <trkpt lat="41.600572" lon="-2.427542">
        <ele>981.2</ele>
        <time>2021-03-27T22:17:44Z</time>
      </trkpt>
      <trkpt lat="41.596644" lon="-2.42992">
        <ele>982.06</ele>
        <time>2021-03-27T22:17:50Z</time>
      </trkpt>
      <trkpt lat="41.596242" lon="-2.430116">
        <ele>982.69</ele>
        <time>2021-03-27T22:17:56Z</time>
      </trkpt>
      <trkpt lat="41.595822" lon="-2.430255">
        <ele>981.88</ele>
        <time>2021-03-27T22:18:02Z</time>
      </trkpt>
      <trkpt lat="41.593977" lon="-2.43074">
        <ele>988.38</ele>
        <time>2021-03-27T22:18:08Z</time>
      </trkpt>
      <trkpt lat="41.593395" lon="-2.430941">
        <ele>988.75</ele>
        <time>2021-03-27T22:18:14Z</time>
      </trkpt>
      <trkpt lat="41.591127" lon="-2.432416">
        <ele>996.82</ele>
        <time>2021-03-27T22:18:21Z</time>
      </trkpt>
      <trkpt lat="41.590951" lon="-2.43257">
        <ele>999.08</ele>
        <time>2021-03-27T22:18:27Z</time>
      </trkpt>
      <trkpt lat="41.590819" lon="-2.432744">
        <ele>1000.93</ele>
        <time>2021-03-27T22:18:33Z</time>
      </trkpt>
      <trkpt lat="41.590713" lon="-2.432983">
        <ele>1002.17</ele>
        <time>2021-03-27T22:18:39Z</time>
      </trkpt>
      <trkpt lat="41.590609" lon="-2.433279">
        <ele>1002.8</ele>
        <time>2021-03-27T22:18:45Z</time>
      </trkpt>
      <trkpt lat="41.587873" lon="-2.442561">
        <ele>1008.91</ele>
        <time>2021-03-27T22:18:51Z</time>
      </trkpt>
      <trkpt lat="41.587709" lon="-2.443312">
        <ele>1009.75</ele>
        <time>2021-03-27T22:18:57Z</time>
      </trkpt>
      <trkpt lat="41.587677" lon="-2.443699">
        <ele>1008.64</ele>
        <time>2021-03-27T22:19:03Z</time>
      </trkpt>
      <trkpt lat="41.587725" lon="-2.444581">
        <ele>1009.3</ele>
        <time>2021-03-27T22:19:10Z</time>
      </trkpt>
      <trkpt lat="41.587721" lon="-2.44475">
        <ele>1009.8</ele>
        <time>2021-03-27T22:19:16Z</time>
      </trkpt>
      <trkpt lat="41.587685" lon="-2.444932">
        <ele>1009.67</ele>
        <time>2021-03-27T22:19:22Z</time>
      </trkpt>
      <trkpt lat="41.587576" lon="-2.445098">
        <ele>1009.28</ele>
        <time>2021-03-27T22:19:28Z</time>
      </trkpt>
      <trkpt lat="41.587457" lon="-2.445237">
        <ele>1009.0</ele>
        <time>2021-03-27T22:19:34Z</time>
      </trkpt>
      <trkpt lat="41.584519" lon="-2.448363">
        <ele>1012.0</ele>
        <time>2021-03-27T22:19:40Z</time>
      </trkpt>
      <trkpt lat="41.584047" lon="-2.448787">
        <ele>1011.37</ele>
        <time>2021-03-27T22:19:46Z</time>
      </trkpt>
      <trkpt lat="41.583542" lon="-2.449192">
        <ele>1010.59</ele>
        <time>2021-03-27T22:19:52Z</time>
      </trkpt>
      <trkpt lat="41.583147" lon="-2.449473">
        <ele>1008.09</ele>
        <time>2021-03-27T22:19:59Z</time>
      </trkpt>
      <trkpt lat="41.582738" lon="-2.449688">
        <ele>1008.62</ele>
        <time>2021-03-27T22:20:05Z</time>
      </trkpt>
      <trkpt lat="41.582589" lon="-2.449809">
        <ele>1010.05</ele>
        <time>2021-03-27T22:20:11Z</time>
      </trkpt>
      <trkpt lat="41.58246" lon="-2.449948">
        <ele>1011.82</ele>
        <time>2021-03-27T22:20:17Z</time>
      </trkpt>
      <trkpt lat="41.581175" lon="-2.451922">
        <ele>1010.46</ele>
        <time>2021-03-27T22:20:23Z</time>
      </trkpt>
      <trkpt lat="41.578305" lon="-2.456058">
        <ele>989.9</ele>
        <time>2021-03-27T22:20:29Z</time>
      </trkpt>
      <trkpt lat="41.577955" lon="-2.456526">
        <ele>987.78</ele>
        <time>2021-03-27T22:20:35Z</time>
      </trkpt>
      <trkpt lat="41.577134" lon="-2.45753">
        <ele>981.03</ele>
        <time>2021-03-27T22:20:41Z</time>
      </trkpt>
      <trkpt lat="41.576863" lon="-2.457759">
        <ele>981.93</ele>
        <time>2021-03-27T22:20:47Z</time>
      </trkpt>
      <trkpt lat="41.575767" lon="-2.458413">
        <ele>976.13</ele>
        <time>2021-03-27T22:20:54Z</time>
      </trkpt>
      <trkpt lat="41.575391" lon="-2.458664">
        <ele>972.26</ele>
        <time>2021-03-27T22:21:00Z</time>
      </trkpt>
      <trkpt lat="41.575223" lon="-2.458906">
        <ele>970.62</ele>
        <time>2021-03-27T22:21:06Z</time>
      </trkpt>
      <trkpt lat="41.575183" lon="-2.459036">
        <ele>969.8</ele>
        <time>2021-03-27T22:21:12Z</time>
      </trkpt>
      <trkpt lat="41.57522" lon="-2.459343">
        <ele>969.75</ele>
        <time>2021-03-27T22:21:18Z</time>
      </trkpt>
      <trkpt lat="41.575584" lon="-2.460174">
        <ele>970.38</ele>
        <time>2021-03-27T22:21:24Z</time>
      </trkpt>
      <trkpt lat="41.575585" lon="-2.460345">
        <ele>969.67</ele>
        <time>2021-03-27T22:21:30Z</time>
      </trkpt>
      <trkpt lat="41.575529" lon="-2.460498">
        <ele>969.28</ele>
        <time>2021-03-27T22:21:36Z</time>
      </trkpt>
      <trkpt lat="41.575415" lon="-2.460587">
        <ele>969.51</ele>
        <time>2021-03-27T22:21:43Z</time>
      </trkpt>
      <trkpt lat="41.574877" lon="-2.460797">
        <ele>969.0</ele>
        <time>2021-03-27T22:21:49Z</time>
      </trkpt>
      <trkpt lat="41.574663" lon="-2.460937">
        <ele>969.16</ele>
        <time>2021-03-27T22:21:55Z</time>
      </trkpt>
      <trkpt lat="41.574532" lon="-2.461085">
        <ele>969.22</ele>
        <time>2021-03-27T22:22:01Z</time>
      </trkpt>
      <trkpt lat="41.574204" lon="-2.461542">
        <ele>968.19</ele>
        <time>2021-03-27T22:22:07Z</time>
      </trkpt>
      <trkpt lat="41.574101" lon="-2.461776">
        <ele>967.86</ele>
        <time>2021-03-27T22:22:13Z</time>
      </trkpt>
      <trkpt lat="41.573707" lon="-2.463485">
        <ele>972.93</ele>
        <time>2021-03-27T22:22:19Z</time>
      </trkpt>
      <trkpt lat="41.57352" lon="-2.465278">
        <ele>975.67</ele>
        <time>2021-03-27T22:22:25Z</time>
      </trkpt>
      <trkpt lat="41.572631" lon="-2.468576">
        <ele>974.47</ele>
        <time>2021-03-27T22:22:32Z</time>
      </trkpt>
      <trkpt lat="41.572068" lon="-2.471028">
        <ele>975.04</ele>
        <time>2021-03-27T22:22:38Z</time>
      </trkpt>
      <trkpt lat="41.571942" lon="-2.471762">
        <ele>977.31</ele>
        <time>2021-03-27T22:22:44Z</time>
      </trkpt>
      <trkpt lat="41.571798" lon="-2.473943">
        <ele>974.95</ele>
        <time>2021-03-27T22:22:50Z</time>
      </trkpt>
      <trkpt lat="41.571775" lon="-2.474916">
        <ele>974.05</ele>
        <time>2021-03-27T22:22:56Z</time>
      </trkpt>
      <trkpt lat="41.57187" lon="-2.477251">
        <ele>974.73</ele>
        <time>2021-03-27T22:23:02Z</time>
      </trkpt>
      <trkpt lat="41.571962" lon="-2.477849">
        <ele>973.11</ele>
        <time>2021-03-27T22:23:08Z</time>
      </trkpt>
      <trkpt lat="41.572071" lon="-2.478795">
        <ele>974.27</ele>
        <time>2021-03-27T22:23:14Z</time>
      </trkpt>
      <trkpt lat="41.572064" lon="-2.479104">
        <ele>975.54</ele>
        <time>2021-03-27T22:23:21Z</time>
      </trkpt>
      <trkpt lat="41.571949" lon="-2.479664">
        <ele>976.81</ele>
        <time>2021-03-27T22:23:27Z</time>
      </trkpt>
      <trkpt lat="41.571886" lon="-2.480052">
        <ele>976.62</ele>
        <time>2021-03-27T22:23:33Z</time>
      </trkpt>
      <trkpt lat="41.571861" lon="-2.480521">
        <ele>976.7</ele>
        <time>2021-03-27T22:23:39Z</time>
      </trkpt>
      <trkpt lat="41.571865" lon="-2.481026">
        <ele>975.02</ele>
        <time>2021-03-27T22:23:45Z</time>
      </trkpt>
      <trkpt lat="41.571848" lon="-2.481743">
        <ele>973.15</ele>
        <time>2021-03-27T22:23:51Z</time>
      </trkpt>
      <trkpt lat="41.571782" lon="-2.482091">
        <ele>973.41</ele>
        <time>2021-03-27T22:23:57Z</time>
      </trkpt>
      <trkpt lat="41.571667" lon="-2.482344">
        <ele>972.88</ele>
        <time>2021-03-27T22:24:03Z</time>
      </trkpt>
      <trkpt lat="41.57055" lon="-2.484052">
        <ele>970.15</ele>
        <time>2021-03-27T22:24:10Z</time>
      </trkpt>
      <trkpt lat="41.570473" lon="-2.484198">
        <ele>970.38</ele>
        <time>2021-03-27T22:24:16Z</time>
      </trkpt>
      <trkpt lat="41.570017" lon="-2.485489">
        <ele>965.65</ele>
        <time>2021-03-27T22:24:22Z</time>
      </trkpt>
      <trkpt lat="41.569878" lon="-2.485991">
        <ele>966.44</ele>
        <time>2021-03-27T22:24:28Z</time>
      </trkpt>
      <trkpt lat="41.569593" lon="-2.487252">
        <ele>962.19</ele>
        <time>2021-03-27T22:24:34Z</time>
      </trkpt>
      <trkpt lat="41.569469" lon="-2.487671">
        <ele>962.5</ele>
        <time>2021-03-27T22:24:40Z</time>
      </trkpt>
      <trkpt lat="41.569305" lon="-2.487978">
        <ele>962.8</ele>
        <time>2021-03-27T22:24:46Z</time>
      </trkpt>
      <trkpt lat="41.567917" lon="-2.48917">
        <ele>961.5</ele>
        <time>2021-03-27T22:24:52Z</time>
      </trkpt>
      <trkpt lat="41.56754" lon="-2.48942">
        <ele>958.49</ele>
        <time>2021-03-27T22:24:58Z</time>
      </trkpt>
      <trkpt lat="41.564832" lon="-2.490302">
        <ele>959.64</ele>
        <time>2021-03-27T22:25:05Z</time>
      </trkpt>
      <trkpt lat="41.563352" lon="-2.491271">
        <ele>956.5</ele>
        <time>2021-03-27T22:25:11Z</time>
      </trkpt>
      <trkpt lat="41.562034" lon="-2.491924">
        <ele>959.88</ele>
        <time>2021-03-27T22:25:17Z</time>
      </trkpt>
      <trkpt lat="41.561807" lon="-2.492054">
        <ele>958.71</ele>
        <time>2021-03-27T22:25:23Z</time>
      </trkpt>
      <trkpt lat="41.559505" lon="-2.493786">
        <ele>956.05</ele>
        <time>2021-03-27T22:25:29Z</time>
      </trkpt>
      <trkpt lat="41.558788" lon="-2.49429">
        <ele>957.33</ele>
        <time>2021-03-27T22:25:35Z</time>
      </trkpt>
      <trkpt lat="41.558543" lon="-2.4945">
        <ele>958.35</ele>
        <time>2021-03-27T22:25:41Z</time>
      </trkpt>
      <trkpt lat="41.558101" lon="-2.4948">
        <ele>958.93</ele>
        <time>2021-03-27T22:25:47Z</time>
      </trkpt>
      <trkpt lat="41.557712" lon="-2.494934">
        <ele>958.28</ele>
        <time>2021-03-27T22:25:54Z</time>
      </trkpt>
      <trkpt lat="41.556203" lon="-2.495347">
        <ele>957.33</ele>
        <time>2021-03-27T22:26:00Z</time>
      </trkpt>
      <trkpt lat="41.555903" lon="-2.495394">
        <ele>956.67</ele>
        <time>2021-03-27T22:26:06Z</time>
      </trkpt>
      <trkpt lat="41.552542" lon="-2.495572">
        <ele>954.15</ele>
        <time>2021-03-27T22:26:12Z</time>
      </trkpt>
      <trkpt lat="41.546485" lon="-2.496622">
        <ele>954.49</ele>
        <time>2021-03-27T22:26:18Z</time>
      </trkpt>
      <trkpt lat="41.546007" lon="-2.496622">
        <ele>956.15</ele>
        <time>2021-03-27T22:26:24Z</time>
      </trkpt>
      <trkpt lat="41.54559" lon="-2.496525">
        <ele>957.28</ele>
        <time>2021-03-27T22:26:30Z</time>
      </trkpt>
      <trkpt lat="41.543197" lon="-2.495662">
        <ele>958.08</ele>
        <time>2021-03-27T22:26:36Z</time>
      </trkpt>
      <trkpt lat="41.542913" lon="-2.495607">
        <ele>957.27</ele>
        <time>2021-03-27T22:26:43Z</time>
      </trkpt>
      <trkpt lat="41.542488" lon="-2.495616">
        <ele>958.04</ele>
        <time>2021-03-27T22:26:49Z</time>
      </trkpt>
      <trkpt lat="41.541935" lon="-2.495803">
        <ele>957.99</ele>
        <time>2021-03-27T22:26:55Z</time>
      </trkpt>
      <trkpt lat="41.539315" lon="-2.497212">
        <ele>961.56</ele>
        <time>2021-03-27T22:27:01Z</time>
      </trkpt>
      <trkpt lat="41.538422" lon="-2.497762">
        <ele>960.04</ele>
        <time>2021-03-27T22:27:07Z</time>
      </trkpt>
      <trkpt lat="41.536615" lon="-2.498998">
        <ele>965.71</ele>
        <time>2021-03-27T22:27:13Z</time>
      </trkpt>
      <trkpt lat="41.535748" lon="-2.49941">
        <ele>964.26</ele>
        <time>2021-03-27T22:27:19Z</time>
      </trkpt>
      <trkpt lat="41.53275" lon="-2.499989">
        <ele>959.94</ele>
        <time>2021-03-27T22:27:25Z</time>
      </trkpt>
      <trkpt lat="41.532404" lon="-2.499863">
        <ele>958.8</ele>
        <time>2021-03-27T22:27:32Z</time>
      </trkpt>
      <trkpt lat="41.531425" lon="-2.49942">
        <ele>954.26</ele>
        <time>2021-03-27T22:27:38Z</time>
      </trkpt>
      <trkpt lat="41.530989" lon="-2.499243">
        <ele>953.85</ele>
        <time>2021-03-27T22:27:44Z</time>
      </trkpt>
      <trkpt lat="41.530099" lon="-2.499199">
        <ele>950.14</ele>
        <time>2021-03-27T22:27:50Z</time>
      </trkpt>
      <trkpt lat="41.52963" lon="-2.499293">
        <ele>949.0</ele>
        <time>2021-03-27T22:27:56Z</time>
      </trkpt>
      <trkpt lat="41.529277" lon="-2.499632">
        <ele>947.19</ele>
        <time>2021-03-27T22:28:02Z</time>
      </trkpt>
      <trkpt lat="41.52844" lon="-2.500615">
        <ele>947.57</ele>
        <time>2021-03-27T22:28:08Z</time>
      </trkpt>
      <trkpt lat="41.52644" lon="-2.503481">
        <ele>947.2</ele>
        <time>2021-03-27T22:28:14Z</time>
      </trkpt>
      <trkpt lat="41.526176" lon="-2.504098">
        <ele>946.47</ele>
        <time>2021-03-27T22:28:21Z</time>
      </trkpt>
      <trkpt lat="41.525785" lon="-2.505517">
        <ele>943.02</ele>
        <time>2021-03-27T22:28:27Z</time>
      </trkpt>
      <trkpt lat="41.525408" lon="-2.507083">
        <ele>941.77</ele>
        <time>2021-03-27T22:28:33Z</time>
      </trkpt>
      <trkpt lat="41.525182" lon="-2.507762">
        <ele>943.29</ele>
        <time>2021-03-27T22:28:39Z</time>
      </trkpt>
      <trkpt lat="41.524383" lon="-2.509367">
        <ele>945.12</ele>
        <time>2021-03-27T22:28:45Z</time>
      </trkpt>
      <trkpt lat="41.524105" lon="-2.509787">
        <ele>945.66</ele>
        <time>2021-03-27T22:28:51Z</time>
      </trkpt>
      <trkpt lat="41.522107" lon="-2.51122">
        <ele>943.78</ele>
        <time>2021-03-27T22:28:57Z</time>
      </trkpt>
      <trkpt lat="41.521745" lon="-2.5114">
        <ele>944.41</ele>
        <time>2021-03-27T22:29:03Z</time>
      </trkpt>
      <trkpt lat="41.521235" lon="-2.511463">
        <ele>945.82</ele>
        <time>2021-03-27T22:29:09Z</time>
      </trkpt>
      <trkpt lat="41.518928" lon="-2.511508">
        <ele>948.49</ele>
        <time>2021-03-27T22:29:16Z</time>
      </trkpt>
      <trkpt lat="41.517645" lon="-2.511847">
        <ele>947.32</ele>
        <time>2021-03-27T22:29:22Z</time>
      </trkpt>
      <trkpt lat="41.516827" lon="-2.512152">
        <ele>948.57</ele>
        <time>2021-03-27T22:29:28Z</time>
      </trkpt>
      <trkpt lat="41.507453" lon="-2.518474">
        <ele>947.66</ele>
        <time>2021-03-27T22:29:34Z</time>
      </trkpt>
      <trkpt lat="41.50674" lon="-2.518975">
        <ele>948.95</ele>
        <time>2021-03-27T22:29:40Z</time>
      </trkpt>
      <trkpt lat="41.505063" lon="-2.52004">
        <ele>951.57</ele>
        <time>2021-03-27T22:29:46Z</time>
      </trkpt>
      <trkpt lat="41.504722" lon="-2.520293">
        <ele>947.1</ele>
        <time>2021-03-27T22:29:52Z</time>
      </trkpt>
      <trkpt lat="41.504495" lon="-2.520535">
        <ele>945.58</ele>
        <time>2021-03-27T22:29:58Z</time>
      </trkpt>
      <trkpt lat="41.504236" lon="-2.520882">
        <ele>945.32</ele>
        <time>2021-03-27T22:30:05Z</time>
      </trkpt>
      <trkpt lat="41.504126" lon="-2.52106">
        <ele>945.92</ele>
        <time>2021-03-27T22:30:11Z</time>
      </trkpt>
      <trkpt lat="41.502943" lon="-2.523095">
        <ele>944.06</ele>
        <time>2021-03-27T22:30:17Z</time>
      </trkpt>
      <trkpt lat="41.501153" lon="-2.52581">
        <ele>940.22</ele>
        <time>2021-03-27T22:30:23Z</time>
      </trkpt>
      <trkpt lat="41.500638" lon="-2.526658">
        <ele>942.99</ele>
        <time>2021-03-27T22:30:29Z</time>
      </trkpt>
      <trkpt lat="41.500392" lon="-2.527157">
        <ele>942.55</ele>
        <time>2021-03-27T22:30:35Z</time>
      </trkpt>
      <trkpt lat="41.500115" lon="-2.527993">
        <ele>941.64</ele>
        <time>2021-03-27T22:30:41Z</time>
      </trkpt>
      <trkpt lat="41.500027" lon="-2.528566">
        <ele>940.02</ele>
        <time>2021-03-27T22:30:47Z</time>
      </trkpt>
      <trkpt lat="41.499932" lon="-2.529053">
        <ele>941.59</ele>
        <time>2021-03-27T22:30:54Z</time>
      </trkpt>
      <trkpt lat="41.49981" lon="-2.529433">
        <ele>943.26</ele>
        <time>2021-03-27T22:31:00Z</time>
      </trkpt>
      <trkpt lat="41.498717" lon="-2.531313">
        <ele>945.49</ele>
        <time>2021-03-27T22:31:06Z</time>
      </trkpt>
      <trkpt lat="41.498608" lon="-2.531812">
        <ele>945.5</ele>
        <time>2021-03-27T22:31:12Z</time>
      </trkpt>
      <trkpt lat="41.498589" lon="-2.532239">
        <ele>946.63</ele>
        <time>2021-03-27T22:31:18Z</time>
      </trkpt>
      <trkpt lat="41.498582" lon="-2.533275">
        <ele>947.5</ele>
        <time>2021-03-27T22:31:24Z</time>
      </trkpt>
      <trkpt lat="41.498536" lon="-2.533514">
        <ele>948.38</ele>
        <time>2021-03-27T22:31:30Z</time>
      </trkpt>
      <trkpt lat="41.498129" lon="-2.535068">
        <ele>950.48</ele>
        <time>2021-03-27T22:31:36Z</time>
      </trkpt>
      <trkpt lat="41.497605" lon="-2.536964">
        <ele>953.8</ele>
        <time>2021-03-27T22:31:43Z</time>
      </trkpt>
      <trkpt lat="41.501858" lon="-2.538398">
        <ele>960.24</ele>
        <time>2021-03-27T22:31:49Z</time>
      </trkpt>
      <trkpt lat="41.502173" lon="-2.538591">
        <ele>961.71</ele>
        <time>2021-03-27T22:31:55Z</time>
      </trkpt>
      <trkpt lat="41.502326" lon="-2.538746">
        <ele>963.54</ele>
        <time>2021-03-27T22:32:01Z</time>
      </trkpt>
      <trkpt lat="41.50251" lon="-2.538982">
        <ele>965.33</ele>
        <time>2021-03-27T22:32:07Z</time>
      </trkpt>
      <trkpt lat="41.502631" lon="-2.539202">
        <ele>966.07</ele>
        <time>2021-03-27T22:32:13Z</time>
      </trkpt>
      <trkpt lat="41.502823" lon="-2.539687">
        <ele>966.41</ele>
        <time>2021-03-27T22:32:19Z</time>
      </trkpt>
      <trkpt lat="41.502968" lon="-2.539952">
        <ele>965.2</ele>
        <time>2021-03-27T22:32:26Z</time>
      </trkpt>
      <trkpt lat="41.503111" lon="-2.540087">
        <ele>964.24</ele>
        <time>2021-03-27T22:32:32Z</time>
      </trkpt>
      <trkpt lat="41.50326" lon="-2.540121">
        <ele>964.34</ele>
        <time>2021-03-27T22:32:38Z</time>
      </trkpt>
      <trkpt lat="41.503424" lon="-2.540105">
        <ele>964.79</ele>
        <time>2021-03-27T22:32:44Z</time>
      </trkpt>
      <trkpt lat="41.503531" lon="-2.540045">
        <ele>964.91</ele>
        <time>2021-03-27T22:32:50Z</time>
      </trkpt>
      <trkpt lat="41.503603" lon="-2.539886">
        <ele>964.15</ele>
        <time>2021-03-27T22:32:56Z</time>
      </trkpt>
      <trkpt lat="41.503658" lon="-2.539718">
        <ele>962.82</ele>
        <time>2021-03-27T22:33:02Z</time>
      </trkpt>
      <trkpt lat="41.503629" lon="-2.539585">
        <ele>962.47</ele>
        <time>2021-03-27T22:33:05Z</time>
      </trkpt>
      <trkpt lat="41.503644" lon="-2.539464">
        <ele>962.06</ele>
        <time>2021-03-27T22:33:07Z</time>
      </trkpt>
      <trkpt lat="41.503693" lon="-2.539362">
        <ele>962.09</ele>
        <time>2021-03-27T22:33:09Z</time>
      </trkpt>
      <trkpt lat="41.503728" lon="-2.539323">
        <ele>962.18</ele>
        <time>2021-03-27T22:33:12Z</time>
      </trkpt>
      <trkpt lat="41.503832" lon="-2.539273">
        <ele>962.49</ele>
        <time>2021-03-27T22:33:14Z</time>
      </trkpt>
      <trkpt lat="41.503897" lon="-2.539278">
        <ele>962.62</ele>
        <time>2021-03-27T22:33:16Z</time>
      </trkpt>
      <trkpt lat="41.504043" lon="-2.539194">
        <ele>963.4</ele>
        <time>2021-03-27T22:33:19Z</time>
      </trkpt>
      <trkpt lat="41.504137" lon="-2.539098">
        <ele>964.11</ele>
        <time>2021-03-27T22:33:21Z</time>
      </trkpt>
      <trkpt lat="41.504682" lon="-2.538245">
        <ele>962.68</ele>
        <time>2021-03-27T22:33:23Z</time>
      </trkpt>
      <trkpt lat="41.504721" lon="-2.538035">
        <ele>962.0</ele>
        <time>2021-03-27T22:33:25Z</time>
      </trkpt>
      <trkpt lat="41.504725" lon="-2.537862">
        <ele>962.02</ele>
        <time>2021-03-27T22:33:28Z</time>
      </trkpt>
      <trkpt lat="41.504722" lon="-2.537775">
        <ele>962.02</ele>
        <time>2021-03-27T22:33:29Z</time>
      </trkpt>
      <trkpt lat="41.504739" lon="-2.537692">
        <ele>962.8</ele>
        <time>2021-03-27T22:33:31Z</time>
      </trkpt>
      <trkpt lat="41.504773" lon="-2.537618">
        <ele>963.7</ele>
        <time>2021-03-27T22:33:33Z</time>
      </trkpt>
      <trkpt lat="41.504847" lon="-2.537542">
        <ele>965.04</ele>
        <time>2021-03-27T22:33:35Z</time>
      </trkpt>
      <trkpt lat="41.504937" lon="-2.537512">
        <ele>966.24</ele>
        <time>2021-03-27T22:33:36Z</time>
      </trkpt>
      <trkpt lat="41.505077" lon="-2.537466">
        <ele>967.55</ele>
        <time>2021-03-27T22:33:38Z</time>
      </trkpt>
      <trkpt lat="41.505198" lon="-2.537379">
        <ele>968.89</ele>
        <time>2021-03-27T22:33:40Z</time>
      </trkpt>
      <trkpt lat="41.505326" lon="-2.537321">
        <ele>970.51</ele>
        <time>2021-03-27T22:33:42Z</time>
      </trkpt>
      <trkpt lat="41.50545" lon="-2.53729">
        <ele>972.27</ele>
        <time>2021-03-27T22:33:43Z</time>
      </trkpt>
      <trkpt lat="41.505613" lon="-2.537314">
        <ele>973.75</ele>
        <time>2021-03-27T22:33:45Z</time>
      </trkpt>
      <trkpt lat="41.505754" lon="-2.537403">
        <ele>974.13</ele>
        <time>2021-03-27T22:33:47Z</time>
      </trkpt>
      <trkpt lat="41.50586" lon="-2.53755">
        <ele>973.75</ele>
        <time>2021-03-27T22:33:49Z</time>
      </trkpt>
      <trkpt lat="41.505926" lon="-2.537753">
        <ele>972.26</ele>
        <time>2021-03-27T22:33:50Z</time>
      </trkpt>
      <trkpt lat="41.506124" lon="-2.538735">
        <ele>966.68</ele>
        <time>2021-03-27T22:33:52Z</time>
      </trkpt>
      <trkpt lat="41.506264" lon="-2.539156">
        <ele>966.55</ele>
        <time>2021-03-27T22:33:54Z</time>
      </trkpt>
      <trkpt lat="41.506456" lon="-2.539559">
        <ele>968.97</ele>
        <time>2021-03-27T22:33:56Z</time>
      </trkpt>
      <trkpt lat="41.507178" lon="-2.540771">
        <ele>972.24</ele>
        <time>2021-03-27T22:33:57Z</time>
      </trkpt>
      <trkpt lat="41.507474" lon="-2.541213">
        <ele>974.86</ele>
        <time>2021-03-27T22:33:59Z</time>
      </trkpt>
      <trkpt lat="41.507784" lon="-2.541627">
        <ele>975.02</ele>
        <time>2021-03-27T22:34:01Z</time>
      </trkpt>
      <trkpt lat="41.508197" lon="-2.542058">
        <ele>975.12</ele>
        <time>2021-03-27T22:34:02Z</time>
      </trkpt>
      <trkpt lat="41.508501" lon="-2.542336">
        <ele>976.98</ele>
        <time>2021-03-27T22:34:04Z</time>
      </trkpt>
      <trkpt lat="41.508867" lon="-2.54259">
        <ele>977.27</ele>
        <time>2021-03-27T22:34:06Z</time>
      </trkpt>
      <trkpt lat="41.509342" lon="-2.542851">
        <ele>977.46</ele>
        <time>2021-03-27T22:34:08Z</time>
      </trkpt>
      <trkpt lat="41.509783" lon="-2.543032">
        <ele>978.32</ele>
        <time>2021-03-27T22:34:09Z</time>
      </trkpt>
      <trkpt lat="41.510246" lon="-2.543127">
        <ele>979.4</ele>
        <time>2021-03-27T22:34:11Z</time>
      </trkpt>
      <trkpt lat="41.510637" lon="-2.543109">
        <ele>979.75</ele>
        <time>2021-03-27T22:34:13Z</time>
      </trkpt>
      <trkpt lat="41.511003" lon="-2.543017">
        <ele>979.0</ele>
        <time>2021-03-27T22:34:15Z</time>
      </trkpt>
      <trkpt lat="41.511757" lon="-2.542726">
        <ele>983.72</ele>
        <time>2021-03-27T22:34:16Z</time>
      </trkpt>
      <trkpt lat="41.512152" lon="-2.54263">
        <ele>985.26</ele>
        <time>2021-03-27T22:34:18Z</time>
      </trkpt>
      <trkpt lat="41.512443" lon="-2.542633">
        <ele>985.52</ele>
        <time>2021-03-27T22:34:20Z</time>
      </trkpt>
      <trkpt lat="41.512541" lon="-2.542658">
        <ele>985.49</ele>
        <time>2021-03-27T22:34:22Z</time>
      </trkpt>
      <trkpt lat="41.512637" lon="-2.542708">
        <ele>985.38</ele>
        <time>2021-03-27T22:34:23Z</time>
      </trkpt>
      <trkpt lat="41.512779" lon="-2.542848">
        <ele>984.5</ele>
        <time>2021-03-27T22:34:27Z</time>
      </trkpt>
      <trkpt lat="41.512871" lon="-2.54303">
        <ele>983.55</ele>
        <time>2021-03-27T22:34:30Z</time>
      </trkpt>
      <trkpt lat="41.512929" lon="-2.543249">
        <ele>982.15</ele>
        <time>2021-03-27T22:34:33Z</time>
      </trkpt>
      <trkpt lat="41.512964" lon="-2.543559">
        <ele>981.67</ele>
        <time>2021-03-27T22:34:36Z</time>
      </trkpt>
      <trkpt lat="41.513035" lon="-2.544648">
        <ele>981.08</ele>
        <time>2021-03-27T22:34:40Z</time>
      </trkpt>
      <trkpt lat="41.513092" lon="-2.544986">
        <ele>981.0</ele>
        <time>2021-03-27T22:34:43Z</time>
      </trkpt>
      <trkpt lat="41.513169" lon="-2.545297">
        <ele>982.48</ele>
        <time>2021-03-27T22:34:46Z</time>
      </trkpt>
      <trkpt lat="41.513671" lon="-2.546885">
        <ele>991.0</ele>
        <time>2021-03-27T22:34:49Z</time>
      </trkpt>
      <trkpt lat="41.513781" lon="-2.547332">
        <ele>992.46</ele>
        <time>2021-03-27T22:34:53Z</time>
      </trkpt>
      <trkpt lat="41.514111" lon="-2.550232">
        <ele>1003.5</ele>
        <time>2021-03-27T22:34:56Z</time>
      </trkpt>
      <trkpt lat="41.51415" lon="-2.550781">
        <ele>1005.63</ele>
        <time>2021-03-27T22:34:59Z</time>
      </trkpt>
      <trkpt lat="41.51403" lon="-2.553087">
        <ele>1016.66</ele>
        <time>2021-03-27T22:35:02Z</time>
      </trkpt>
      <trkpt lat="41.514054" lon="-2.554301">
        <ele>1021.36</ele>
        <time>2021-03-27T22:35:06Z</time>
      </trkpt>
      <trkpt lat="41.51416" lon="-2.55469">
        <ele>1023.82</ele>
        <time>2021-03-27T22:35:09Z</time>
      </trkpt>
      <trkpt lat="41.514185" lon="-2.555147">
        <ele>1022.44</ele>
        <time>2021-03-27T22:35:12Z</time>
      </trkpt>
      <trkpt lat="41.514214" lon="-2.555392">
        <ele>1021.52</ele>
        <time>2021-03-27T22:35:15Z</time>
      </trkpt>
      <trkpt lat="41.514293" lon="-2.55577">
        <ele>1020.96</ele>
        <time>2021-03-27T22:35:19Z</time>
      </trkpt>
      <trkpt lat="41.514275" lon="-2.556087">
        <ele>1021.22</ele>
        <time>2021-03-27T22:35:22Z</time>
      </trkpt>
      <trkpt lat="41.514287" lon="-2.556231">
        <ele>1020.7</ele>
        <time>2021-03-27T22:35:25Z</time>
      </trkpt>
      <trkpt lat="41.514331" lon="-2.556422">
        <ele>1019.76</ele>
        <time>2021-03-27T22:35:28Z</time>
      </trkpt>
      <trkpt lat="41.514341" lon="-2.556529">
        <ele>1019.56</ele>
        <time>2021-03-27T22:35:32Z</time>
      </trkpt>
      <trkpt lat="41.514318" lon="-2.55661">
        <ele>1019.54</ele>
        <time>2021-03-27T22:35:35Z</time>
      </trkpt>
      <trkpt lat="41.514263" lon="-2.556664">
        <ele>1019.66</ele>
        <time>2021-03-27T22:35:38Z</time>
      </trkpt>
      <trkpt lat="41.514069" lon="-2.55676">
        <ele>1019.3</ele>
        <time>2021-03-27T22:35:41Z</time>
      </trkpt>
      <trkpt lat="41.514" lon="-2.556825">
        <ele>1018.8</ele>
        <time>2021-03-27T22:35:45Z</time>
      </trkpt>
      <trkpt lat="41.513926" lon="-2.556931">
        <ele>1018.27</ele>
        <time>2021-03-27T22:35:48Z</time>
      </trkpt>
      <trkpt lat="41.51325" lon="-2.558337">
        <ele>1019.54</ele>
        <time>2021-03-27T22:35:51Z</time>
      </trkpt>
      <trkpt lat="41.513112" lon="-2.558516">
        <ele>1018.33</ele>
        <time>2021-03-27T22:35:54Z</time>
      </trkpt>
      <trkpt lat="41.512801" lon="-2.558708">
        <ele>1014.65</ele>
        <time>2021-03-27T22:35:58Z</time>
      </trkpt>
      <trkpt lat="41.512284" lon="-2.55934">
        <ele>1007.23</ele>
        <time>2021-03-27T22:36:01Z</time>
      </trkpt>
      <trkpt lat="41.511773" lon="-2.559717">
        <ele>1004.76</ele>
        <time>2021-03-27T22:36:04Z</time>
      </trkpt>
      <trkpt lat="41.511662" lon="-2.559864">
        <ele>1003.96</ele>
        <time>2021-03-27T22:36:07Z</time>
      </trkpt>
      <trkpt lat="41.511514" lon="-2.560426">
        <ele>1002.11</ele>
        <time>2021-03-27T22:36:11Z</time>
      </trkpt>
      <trkpt lat="41.511304" lon="-2.560784">
        <ele>1000.59</ele>
        <time>2021-03-27T22:36:14Z</time>
      </trkpt>
      <trkpt lat="41.511079" lon="-2.561282">
        <ele>999.18</ele>
        <time>2021-03-27T22:36:17Z</time>
      </trkpt>
      <trkpt lat="41.510582" lon="-2.561908">
        <ele>1002.11</ele>
        <time>2021-03-27T22:36:20Z</time>
      </trkpt>
      <trkpt lat="41.51006" lon="-2.562393">
        <ele>1002.75</ele>
        <time>2021-03-27T22:36:24Z</time>
      </trkpt>
      <trkpt lat="41.509462" lon="-2.562591">
        <ele>998.17</ele>
        <time>2021-03-27T22:36:27Z</time>
      </trkpt>
      <trkpt lat="41.50796" lon="-2.563422">
        <ele>994.0</ele>
        <time>2021-03-27T22:36:30Z</time>
      </trkpt>
      <trkpt lat="41.507788" lon="-2.563543">
        <ele>994.0</ele>
        <time>2021-03-27T22:36:33Z</time>
      </trkpt>
      <trkpt lat="41.506865" lon="-2.564655">
        <ele>988.93</ele>
        <time>2021-03-27T22:36:36Z</time>
      </trkpt>
      <trkpt lat="41.506712" lon="-2.564942">
        <ele>989.66</ele>
        <time>2021-03-27T22:36:40Z</time>
      </trkpt>
      <trkpt lat="41.50664" lon="-2.565146">
        <ele>990.0</ele>
        <time>2021-03-27T22:36:43Z</time>
      </trkpt>
      <trkpt lat="41.506382" lon="-2.566484">
        <ele>986.59</ele>
        <time>2021-03-27T22:36:46Z</time>
      </trkpt>
      <trkpt lat="41.506334" lon="-2.566616">
        <ele>985.75</ele>
        <time>2021-03-27T22:36:49Z</time>
      </trkpt>
      <trkpt lat="41.506248" lon="-2.566635">
        <ele>985.04</ele>
        <time>2021-03-27T22:36:53Z</time>
      </trkpt>
      <trkpt lat="41.506138" lon="-2.566564">
        <ele>984.23</ele>
        <time>2021-03-27T22:36:56Z</time>
      </trkpt>
      <trkpt lat="41.505329" lon="-2.566184">
        <ele>983.81</ele>
        <time>2021-03-27T22:36:59Z</time>
      </trkpt>
      <trkpt lat="41.50502" lon="-2.565987">
        <ele>984.96</ele>
        <time>2021-03-27T22:37:02Z</time>
      </trkpt>
      <trkpt lat="41.504887" lon="-2.565976">
        <ele>985.2</ele>
        <time>2021-03-27T22:37:06Z</time>
      </trkpt>
      <trkpt lat="41.504733" lon="-2.56599">
        <ele>985.42</ele>
        <time>2021-03-27T22:37:09Z</time>
      </trkpt>
      <trkpt lat="41.504632" lon="-2.565963">
        <ele>985.53</ele>
        <time>2021-03-27T22:37:12Z</time>
      </trkpt>
      <trkpt lat="41.504248" lon="-2.56575">
        <ele>984.18</ele>
        <time>2021-03-27T22:37:15Z</time>
      </trkpt>
      <trkpt lat="41.503933" lon="-2.565737">
        <ele>982.21</ele>
        <time>2021-03-27T22:37:19Z</time>
      </trkpt>
      <trkpt lat="41.502383" lon="-2.566312">
        <ele>974.73</ele>
        <time>2021-03-27T22:37:22Z</time>
      </trkpt>
      <trkpt lat="41.501903" lon="-2.566437">
        <ele>970.91</ele>
        <time>2021-03-27T22:37:25Z</time>
      </trkpt>
      <trkpt lat="41.498644" lon="-2.566753">
        <ele>963.35</ele>
        <time>2021-03-27T22:37:28Z</time>
      </trkpt>
      <trkpt lat="41.497934" lon="-2.5669">
        <ele>963.65</ele>
        <time>2021-03-27T22:37:32Z</time>
      </trkpt>
      <trkpt lat="41.497442" lon="-2.567024">
        <ele>965.09</ele>
        <time>2021-03-27T22:37:35Z</time>
      </trkpt>
      <trkpt lat="41.49786" lon="-2.571944">
        <ele>969.29</ele>
        <time>2021-03-27T22:37:42Z</time>
      </trkpt>
      <trkpt lat="41.497986" lon="-2.573114">
        <ele>968.63</ele>
        <time>2021-03-27T22:37:49Z</time>
      </trkpt>
      <trkpt lat="41.498353" lon="-2.575512">
        <ele>965.07</ele>
        <time>2021-03-27T22:37:56Z</time>
      </trkpt>
      <trkpt lat="41.498415" lon="-2.576091">
        <ele>961.55</ele>
        <time>2021-03-27T22:38:03Z</time>
      </trkpt>
      <trkpt lat="41.498443" lon="-2.576694">
        <ele>961.01</ele>
        <time>2021-03-27T22:38:10Z</time>
      </trkpt>
      <trkpt lat="41.498427" lon="-2.579126">
        <ele>961.39</ele>
        <time>2021-03-27T22:38:17Z</time>
      </trkpt>
      <trkpt lat="41.498381" lon="-2.579853">
        <ele>962.34</ele>
        <time>2021-03-27T22:38:24Z</time>
      </trkpt>
      <trkpt lat="41.498318" lon="-2.580376">
        <ele>959.92</ele>
        <time>2021-03-27T22:38:31Z</time>
      </trkpt>
      <trkpt lat="41.498218" lon="-2.580984">
        <ele>961.84</ele>
        <time>2021-03-27T22:38:38Z</time>
      </trkpt>
      <trkpt lat="41.497799" lon="-2.583218">
        <ele>958.97</ele>
        <time>2021-03-27T22:38:45Z</time>
      </trkpt>
      <trkpt lat="41.497733" lon="-2.583704">
        <ele>958.18</ele>
        <time>2021-03-27T22:38:52Z</time>
      </trkpt>
      <trkpt lat="41.497696" lon="-2.588757">
        <ele>964.94</ele>
        <time>2021-03-27T22:38:59Z</time>
      </trkpt>
      <trkpt lat="41.497651" lon="-2.589451">
        <ele>968.92</ele>
        <time>2021-03-27T22:39:06Z</time>
      </trkpt>
      <trkpt lat="41.497549" lon="-2.590152">
        <ele>971.64</ele>
        <time>2021-03-27T22:39:13Z</time>
      </trkpt>
      <trkpt lat="41.497455" lon="-2.590607">
        <ele>976.31</ele>
        <time>2021-03-27T22:39:20Z</time>
      </trkpt>
      <trkpt lat="41.496926" lon="-2.592494">
        <ele>987.33</ele>
        <time>2021-03-27T22:39:27Z</time>
      </trkpt>
      <trkpt lat="41.496787" lon="-2.593112">
        <ele>987.57</ele>
        <time>2021-03-27T22:39:34Z</time>
      </trkpt>
      <trkpt lat="41.496577" lon="-2.594314">
        <ele>989.0</ele>
        <time>2021-03-27T22:39:41Z</time>
      </trkpt>
      <trkpt lat="41.496506" lon="-2.594887">
        <ele>986.23</ele>
        <time>2021-03-27T22:39:48Z</time>
      </trkpt>
      <trkpt lat="41.49647" lon="-2.595407">
        <ele>984.0</ele>
        <time>2021-03-27T22:39:55Z</time>
      </trkpt>
      <trkpt lat="41.496414" lon="-2.598004">
        <ele>980.0</ele>
        <time>2021-03-27T22:40:02Z</time>
      </trkpt>
      <trkpt lat="41.49643" lon="-2.598465">
        <ele>980.26</ele>
        <time>2021-03-27T22:40:09Z</time>
      </trkpt>
      <trkpt lat="41.496474" lon="-2.598848">
        <ele>980.39</ele>
        <time>2021-03-27T22:40:16Z</time>
      </trkpt>
      <trkpt lat="41.496557" lon="-2.599259">
        <ele>978.33</ele>
        <time>2021-03-27T22:40:23Z</time>
      </trkpt>
      <trkpt lat="41.498125" lon="-2.604597">
        <ele>970.91</ele>
        <time>2021-03-27T22:40:30Z</time>
      </trkpt>
      <trkpt lat="41.49828" lon="-2.605206">
        <ele>971.95</ele>
        <time>2021-03-27T22:40:37Z</time>
      </trkpt>
      <trkpt lat="41.498409" lon="-2.605878">
        <ele>970.88</ele>
        <time>2021-03-27T22:40:44Z</time>
      </trkpt>
      <trkpt lat="41.499298" lon="-2.610955">
        <ele>958.85</ele>
        <time>2021-03-27T22:40:51Z</time>
      </trkpt>
      <trkpt lat="41.499585" lon="-2.6127">
        <ele>957.86</ele>
        <time>2021-03-27T22:40:58Z</time>
      </trkpt>
      <trkpt lat="41.499673" lon="-2.613565">
        <ele>958.49</ele>
        <time>2021-03-27T22:41:05Z</time>
      </trkpt>
      <trkpt lat="41.500136" lon="-2.619443">
        <ele>946.51</ele>
        <time>2021-03-27T22:41:12Z</time>
      </trkpt>
      <trkpt lat="41.500272" lon="-2.620936">
        <ele>944.06</ele>
        <time>2021-03-27T22:41:19Z</time>
      </trkpt>
      <trkpt lat="41.500792" lon="-2.623684">
        <ele>943.14</ele>
        <time>2021-03-27T22:41:26Z</time>
      </trkpt>
      <trkpt lat="41.500987" lon="-2.62445">
        <ele>942.55</ele>
        <time>2021-03-27T22:41:33Z</time>
      </trkpt>
      <trkpt lat="41.501224" lon="-2.625113">
        <ele>942.83</ele>
        <time>2021-03-27T22:41:40Z</time>
      </trkpt>
      <trkpt lat="41.502436" lon="-2.628323">
        <ele>936.29</ele>
        <time>2021-03-27T22:41:47Z</time>
      </trkpt>
      <trkpt lat="41.504822" lon="-2.634578">
        <ele>932.16</ele>
        <time>2021-03-27T22:41:54Z</time>
      </trkpt>
      <trkpt lat="41.506629" lon="-2.638045">
        <ele>935.14</ele>
        <time>2021-03-27T22:42:01Z</time>
      </trkpt>
      <trkpt lat="41.506755" lon="-2.638425">
        <ele>936.1</ele>
        <time>2021-03-27T22:42:08Z</time>
      </trkpt>
      <trkpt lat="41.506869" lon="-2.638911">
        <ele>936.4</ele>
        <time>2021-03-27T22:42:15Z</time>
      </trkpt>
      <trkpt lat="41.506962" lon="-2.639476">
        <ele>940.18</ele>
        <time>2021-03-27T22:42:22Z</time>
      </trkpt>
      <trkpt lat="41.506983" lon="-2.639769">
        <ele>942.16</ele>
        <time>2021-03-27T22:42:29Z</time>
      </trkpt>
      <trkpt lat="41.506957" lon="-2.640072">
        <ele>942.08</ele>
        <time>2021-03-27T22:42:36Z</time>
      </trkpt>
      <trkpt lat="41.506841" lon="-2.640294">
        <ele>942.69</ele>
        <time>2021-03-27T22:42:43Z</time>
      </trkpt>
      <trkpt lat="41.506539" lon="-2.640715">
        <ele>944.58</ele>
        <time>2021-03-27T22:42:50Z</time>
      </trkpt>
      <trkpt lat="41.506046" lon="-2.64105">
        <ele>946.95</ele>
        <time>2021-03-27T22:42:57Z</time>
      </trkpt>
      <trkpt lat="41.506011" lon="-2.641117">
        <ele>946.71</ele>
        <time>2021-03-27T22:43:04Z</time>
      </trkpt>
      <trkpt lat="41.505998" lon="-2.641197">
        <ele>946.56</ele>
        <time>2021-03-27T22:43:11Z</time>
      </trkpt>
      <trkpt lat="41.506011" lon="-2.6413">
        <ele>946.23</ele>
        <time>2021-03-27T22:43:18Z</time>
      </trkpt>
      <trkpt lat="41.50613" lon="-2.641701">
        <ele>946.15</ele>
        <time>2021-03-27T22:43:25Z</time>
      </trkpt>
      <trkpt lat="41.50617" lon="-2.642191">
        <ele>947.55</ele>
        <time>2021-03-27T22:43:32Z</time>
      </trkpt>
      <trkpt lat="41.506192" lon="-2.642294">
        <ele>947.98</ele>
        <time>2021-03-27T22:43:39Z</time>
      </trkpt>
      <trkpt lat="41.506298" lon="-2.642482">
        <ele>948.7</ele>
        <time>2021-03-27T22:43:46Z</time>
      </trkpt>
      <trkpt lat="41.506668" lon="-2.64289">
        <ele>950.6</ele>
        <time>2021-03-27T22:43:53Z</time>
      </trkpt>
      <trkpt lat="41.506965" lon="-2.643148">
        <ele>952.08</ele>
        <time>2021-03-27T22:44:00Z</time>
      </trkpt>
      <trkpt lat="41.508281" lon="-2.643882">
        <ele>956.5</ele>
        <time>2021-03-27T22:44:07Z</time>
      </trkpt>
      <trkpt lat="41.508459" lon="-2.644019">
        <ele>956.27</ele>
        <time>2021-03-27T22:44:14Z</time>
      </trkpt>
      <trkpt lat="41.508584" lon="-2.644168">
        <ele>955.9</ele>
        <time>2021-03-27T22:44:21Z</time>
      </trkpt>
      <trkpt lat="41.508715" lon="-2.644403">
        <ele>956.0</ele>
        <time>2021-03-27T22:44:28Z</time>
      </trkpt>
      <trkpt lat="41.508835" lon="-2.644735">
        <ele>954.34</ele>
        <time>2021-03-27T22:44:35Z</time>
      </trkpt>
      <trkpt lat="41.509993" lon="-2.648289">
        <ele>977.81</ele>
        <time>2021-03-27T22:44:42Z</time>
      </trkpt>
      <trkpt lat="41.510175" lon="-2.648744">
        <ele>978.37</ele>
        <time>2021-03-27T22:44:49Z</time>
      </trkpt>
      <trkpt lat="41.513557" lon="-2.655057">
        <ele>987.45</ele>
        <time>2021-03-27T22:44:56Z</time>
      </trkpt>
      <trkpt lat="41.514053" lon="-2.656203">
        <ele>987.79</ele>
        <time>2021-03-27T22:45:03Z</time>
      </trkpt>
      <trkpt lat="41.514697" lon="-2.657582">
        <ele>983.53</ele>
        <time>2021-03-27T22:45:10Z</time>
      </trkpt>
      <trkpt lat="41.515126" lon="-2.65862">
        <ele>978.41</ele>
        <time>2021-03-27T22:45:17Z</time>
      </trkpt>
      <trkpt lat="41.515448" lon="-2.659122">
        <ele>979.55</ele>
        <time>2021-03-27T22:45:24Z</time>
      </trkpt>
      <trkpt lat="41.521283" lon="-2.665044">
        <ele>974.2</ele>
        <time>2021-03-27T22:45:31Z</time>
      </trkpt>
      <trkpt lat="41.521562" lon="-2.665389">
        <ele>977.03</ele>
        <time>2021-03-27T22:45:38Z</time>
      </trkpt>
      <trkpt lat="41.521698" lon="-2.665702">
        <ele>977.83</ele>
        <time>2021-03-27T22:45:45Z</time>
      </trkpt>
      <trkpt lat="41.523147" lon="-2.671299">
        <ele>990.66</ele>
        <time>2021-03-27T22:45:52Z</time>
      </trkpt>
      <trkpt lat="41.523369" lon="-2.672278">
        <ele>988.97</ele>
        <time>2021-03-27T22:45:59Z</time>
      </trkpt>
      <trkpt lat="41.524118" lon="-2.67528">
        <ele>988.83</ele>
        <time>2021-03-27T22:46:06Z</time>
      </trkpt>
      <trkpt lat="41.525961" lon="-2.683407">
        <ele>991.54</ele>
        <time>2021-03-27T22:46:13Z</time>
      </trkpt>
      <trkpt lat="41.527931" lon="-2.69121">
        <ele>1011.65</ele>
        <time>2021-03-27T22:46:20Z</time>
      </trkpt>
      <trkpt lat="41.528256" lon="-2.692617">
        <ele>1019.56</ele>
        <time>2021-03-27T22:46:27Z</time>
      </trkpt>
      <trkpt lat="41.52852" lon="-2.695421">
        <ele>1027.34</ele>
        <time>2021-03-27T22:46:34Z</time>
      </trkpt>
      <trkpt lat="41.528561" lon="-2.696057">
        <ele>1026.34</ele>
        <time>2021-03-27T22:46:41Z</time>
      </trkpt>
      <trkpt lat="41.528714" lon="-2.696637">
        <ele>1025.04</ele>
        <time>2021-03-27T22:46:48Z</time>
      </trkpt>
      <trkpt lat="41.528885" lon="-2.697057">
        <ele>1024.59</ele>
        <time>2021-03-27T22:46:55Z</time>
      </trkpt>
      <trkpt lat="41.529163" lon="-2.69741">
        <ele>1024.01</ele>
        <time>2021-03-27T22:47:02Z</time>
      </trkpt>
      <trkpt lat="41.529719" lon="-2.698065">
        <ele>1020.02</ele>
        <time>2021-03-27T22:47:09Z</time>
      </trkpt>
      <trkpt lat="41.529806" lon="-2.698228">
        <ele>1020.0</ele>
        <time>2021-03-27T22:47:16Z</time>
      </trkpt>
      <trkpt lat="41.529839" lon="-2.69841">
        <ele>1019.72</ele>
        <time>2021-03-27T22:47:23Z</time>
      </trkpt>
      <trkpt lat="41.529875" lon="-2.699208">
        <ele>1016.68</ele>
        <time>2021-03-27T22:47:30Z</time>
      </trkpt>
      <trkpt lat="41.529899" lon="-2.699436">
        <ele>1015.41</ele>
        <time>2021-03-27T22:47:37Z</time>
      </trkpt>
      <trkpt lat="41.529955" lon="-2.699636">
        <ele>1013.89</ele>
        <time>2021-03-27T22:47:44Z</time>
      </trkpt>
      <trkpt lat="41.530274" lon="-2.700332">
        <ele>1010.82</ele>
        <time>2021-03-27T22:47:51Z</time>
      </trkpt>
      <trkpt lat="41.530358" lon="-2.700667">
        <ele>1009.19</ele>
        <time>2021-03-27T22:47:58Z</time>
      </trkpt>
      <trkpt lat="41.530437" lon="-2.701087">
        <ele>1007.85</ele>
        <time>2021-03-27T22:48:05Z</time>
      </trkpt>
      <trkpt lat="41.530548" lon="-2.701482">
        <ele>1007.07</ele>
        <time>2021-03-27T22:48:12Z</time>
      </trkpt>
      <trkpt lat="41.530714" lon="-2.701809">
        <ele>1007.06</ele>
        <time>2021-03-27T22:48:19Z</time>
      </trkpt>
      <trkpt lat="41.530935" lon="-2.70216">
        <ele>1005.03</ele>
        <time>2021-03-27T22:48:26Z</time>
      </trkpt>
      <trkpt lat="41.531084" lon="-2.702463">
        <ele>1004.12</ele>
        <time>2021-03-27T22:48:33Z</time>
      </trkpt>
      <trkpt lat="41.531174" lon="-2.702699">
        <ele>1002.9</ele>
        <time>2021-03-27T22:48:40Z</time>
      </trkpt>
      <trkpt lat="41.531198" lon="-2.70291">
        <ele>1002.37</ele>
        <time>2021-03-27T22:48:47Z</time>
      </trkpt>
      <trkpt lat="41.531181" lon="-2.704216">
        <ele>999.75</ele>
        <time>2021-03-27T22:48:54Z</time>
      </trkpt>
      <trkpt lat="41.531214" lon="-2.70452">
        <ele>999.35</ele>
        <time>2021-03-27T22:49:01Z</time>
      </trkpt>
      <trkpt lat="41.531454" lon="-2.705444">
        <ele>996.77</ele>
        <time>2021-03-27T22:49:08Z</time>
      </trkpt>
      <trkpt lat="41.53174" lon="-2.707061">
        <ele>992.01</ele>
        <time>2021-03-27T22:49:15Z</time>
      </trkpt>
      <trkpt lat="41.531746" lon="-2.70745">
        <ele>989.95</ele>
        <time>2021-03-27T22:49:22Z</time>
      </trkpt>
      <trkpt lat="41.531726" lon="-2.707867">
        <ele>988.46</ele>
        <time>2021-03-27T22:49:29Z</time>
      </trkpt>
      <trkpt lat="41.531617" lon="-2.708689">
        <ele>986.82</ele>
        <time>2021-03-27T22:49:36Z</time>
      </trkpt>
      <trkpt lat="41.531608" lon="-2.708883">
        <ele>987.61</ele>
        <time>2021-03-27T22:49:43Z</time>
      </trkpt>
      <trkpt lat="41.53162" lon="-2.709045">
        <ele>988.07</ele>
        <time>2021-03-27T22:49:50Z</time>
      </trkpt>
      <trkpt lat="41.531829" lon="-2.710435">
        <ele>984.16</ele>
        <time>2021-03-27T22:49:57Z</time>
      </trkpt>
      <trkpt lat="41.531854" lon="-2.710836">
        <ele>983.66</ele>
        <time>2021-03-27T22:50:04Z</time>
      </trkpt>
      <trkpt lat="41.531768" lon="-2.712032">
        <ele>981.76</ele>
        <time>2021-03-27T22:50:11Z</time>
      </trkpt>
      <trkpt lat="41.531771" lon="-2.712307">
        <ele>980.13</ele>
        <time>2021-03-27T22:50:18Z</time>
      </trkpt>
      <trkpt lat="41.533047" lon="-2.719143">
        <ele>962.03</ele>
        <time>2021-03-27T22:50:25Z</time>
      </trkpt>
      <trkpt lat="41.533132" lon="-2.71933">
        <ele>962.85</ele>
        <time>2021-03-27T22:50:32Z</time>
      </trkpt>
      <trkpt lat="41.533223" lon="-2.719487">
        <ele>962.85</ele>
        <time>2021-03-27T22:50:39Z</time>
      </trkpt>
      <trkpt lat="41.533381" lon="-2.719677">
        <ele>961.51</ele>
        <time>2021-03-27T22:50:46Z</time>
      </trkpt>
      <trkpt lat="41.53891" lon="-2.724288">
        <ele>967.44</ele>
        <time>2021-03-27T22:50:53Z</time>
      </trkpt>
      <trkpt lat="41.539035" lon="-2.724458">
        <ele>968.07</ele>
        <time>2021-03-27T22:51:00Z</time>
      </trkpt>
      <trkpt lat="41.539152" lon="-2.724701">
        <ele>968.97</ele>
        <time>2021-03-27T22:51:07Z</time>
      </trkpt>
      <trkpt lat="41.541311" lon="-2.730956">
        <ele>978.68</ele>
        <time>2021-03-27T22:51:14Z</time>
      </trkpt>
      <trkpt lat="41.541499" lon="-2.731206">
        <ele>979.85</ele>
        <time>2021-03-27T22:51:21Z</time>
      </trkpt>
      <trkpt lat="41.542647" lon="-2.732364">
        <ele>985.06</ele>
        <time>2021-03-27T22:51:28Z</time>
      </trkpt>
      <trkpt lat="41.543359" lon="-2.733928">
        <ele>991.49</ele>
        <time>2021-03-27T22:51:35Z</time>
      </trkpt>
      <trkpt lat="41.543467" lon="-2.734209">
        <ele>993.52</ele>
        <time>2021-03-27T22:51:42Z</time>
      </trkpt>
      <trkpt lat="41.543746" lon="-2.7353">
        <ele>996.51</ele>
        <time>2021-03-27T22:51:49Z</time>
      </trkpt>
      <trkpt lat="41.543835" lon="-2.735579">
        <ele>996.21</ele>
        <time>2021-03-27T22:51:56Z</time>
      </trkpt>
      <trkpt lat="41.544124" lon="-2.735999">
        <ele>993.56</ele>
        <time>2021-03-27T22:52:03Z</time>
      </trkpt>
      <trkpt lat="41.548825" lon="-2.740932">
        <ele>969.18</ele>
        <time>2021-03-27T22:52:10Z</time>
      </trkpt>
      <trkpt lat="41.548628" lon="-2.741573">
        <ele>969.22</ele>
        <time>2021-03-27T22:52:14Z</time>
      </trkpt>
      <trkpt lat="41.548548" lon="-2.742117">
        <ele>964.44</ele>
        <time>2021-03-27T22:52:18Z</time>
      </trkpt>
      <trkpt lat="41.548519" lon="-2.742529">
        <ele>962.32</ele>
        <time>2021-03-27T22:52:22Z</time>
      </trkpt>
      <trkpt lat="41.5485" lon="-2.743151">
        <ele>961.8</ele>
        <time>2021-03-27T22:52:25Z</time>
      </trkpt>
      <trkpt lat="41.548309" lon="-2.746414">
        <ele>955.61</ele>
        <time>2021-03-27T22:52:29Z</time>
      </trkpt>
      <trkpt lat="41.548249" lon="-2.746712">
        <ele>956.82</ele>
        <time>2021-03-27T22:52:33Z</time>
      </trkpt>
      <trkpt lat="41.548132" lon="-2.747108">
        <ele>956.04</ele>
        <time>2021-03-27T22:52:37Z</time>
      </trkpt>
      <trkpt lat="41.547037" lon="-2.749871">
        <ele>948.64</ele>
        <time>2021-03-27T22:52:41Z</time>
      </trkpt>
      <trkpt lat="41.546931" lon="-2.750265">
        <ele>951.26</ele>
        <time>2021-03-27T22:52:45Z</time>
      </trkpt>
      <trkpt lat="41.546841" lon="-2.750761">
        <ele>953.95</ele>
        <time>2021-03-27T22:52:49Z</time>
      </trkpt>
      <trkpt lat="41.546662" lon="-2.751985">
        <ele>952.76</ele>
        <time>2021-03-27T22:52:53Z</time>
      </trkpt>
      <trkpt lat="41.546539" lon="-2.752632">
        <ele>950.63</ele>
        <time>2021-03-27T22:52:57Z</time>
      </trkpt>
      <trkpt lat="41.546396" lon="-2.753021">
        <ele>952.87</ele>
        <time>2021-03-27T22:53:01Z</time>
      </trkpt>
      <trkpt lat="41.5462" lon="-2.753378">
        <ele>954.36</ele>
        <time>2021-03-27T22:53:05Z</time>
      </trkpt>
      <trkpt lat="41.545913" lon="-2.753806">
        <ele>956.64</ele>
        <time>2021-03-27T22:53:09Z</time>
      </trkpt>
      <trkpt lat="41.545407" lon="-2.754476">
        <ele>956.52</ele>
        <time>2021-03-27T22:53:13Z</time>
      </trkpt>
      <trkpt lat="41.545203" lon="-2.754838">
        <ele>955.73</ele>
        <time>2021-03-27T22:53:17Z</time>
      </trkpt>
      <trkpt lat="41.545026" lon="-2.7552">
        <ele>954.43</ele>
        <time>2021-03-27T22:53:21Z</time>
      </trkpt>
      <trkpt lat="41.544926" lon="-2.755471">
        <ele>953.84</ele>
        <time>2021-03-27T22:53:24Z</time>
      </trkpt>
      <trkpt lat="41.544138" lon="-2.757874">
        <ele>951.37</ele>
        <time>2021-03-27T22:53:28Z</time>
      </trkpt>
      <trkpt lat="41.544078" lon="-2.75813">
        <ele>950.55</ele>
        <time>2021-03-27T22:53:32Z</time>
      </trkpt>
      <trkpt lat="41.544068" lon="-2.758382">
        <ele>949.71</ele>
        <time>2021-03-27T22:53:36Z</time>
      </trkpt>
      <trkpt lat="41.5441" lon="-2.75875">
        <ele>948.96</ele>
        <time>2021-03-27T22:53:40Z</time>
      </trkpt>
      <trkpt lat="41.544525" lon="-2.760369">
        <ele>943.9</ele>
        <time>2021-03-27T22:53:44Z</time>
      </trkpt>
      <trkpt lat="41.544618" lon="-2.760772">
        <ele>942.95</ele>
        <time>2021-03-27T22:53:48Z</time>
      </trkpt>
      <trkpt lat="41.544772" lon="-2.76176">
        <ele>940.87</ele>
        <time>2021-03-27T22:53:52Z</time>
      </trkpt>
      <trkpt lat="41.544898" lon="-2.762795">
        <ele>943.27</ele>
        <time>2021-03-27T22:53:56Z</time>
      </trkpt>
      <trkpt lat="41.54525" lon="-2.765385">
        <ele>941.49</ele>
        <time>2021-03-27T22:54:00Z</time>
      </trkpt>
      <trkpt lat="41.545248" lon="-2.765644">
        <ele>942.1</ele>
        <time>2021-03-27T22:54:04Z</time>
      </trkpt>
      <trkpt lat="41.545031" lon="-2.767781">
        <ele>942.98</ele>
        <time>2021-03-27T22:54:08Z</time>
      </trkpt>
      <trkpt lat="41.544984" lon="-2.768799">
        <ele>940.23</ele>
        <time>2021-03-27T22:54:12Z</time>
      </trkpt>
      <trkpt lat="41.544788" lon="-2.769714">
        <ele>940.79</ele>
        <time>2021-03-27T22:54:16Z</time>
      </trkpt>
      <trkpt lat="41.544717" lon="-2.770189">
        <ele>942.77</ele>
        <time>2021-03-27T22:54:20Z</time>
      </trkpt>
      <trkpt lat="41.544633" lon="-2.771285">
        <ele>943.46</ele>
        <time>2021-03-27T22:54:23Z</time>
      </trkpt>
      <trkpt lat="41.544559" lon="-2.771404">
        <ele>943.76</ele>
        <time>2021-03-27T22:54:27Z</time>
      </trkpt>
      <trkpt lat="41.544555" lon="-2.771516">
        <ele>943.8</ele>
        <time>2021-03-27T22:54:31Z</time>
      </trkpt>
      <trkpt lat="41.544585" lon="-2.771688">
        <ele>943.52</ele>
        <time>2021-03-27T22:54:35Z</time>
      </trkpt>
      <trkpt lat="41.544584" lon="-2.771949">
        <ele>943.98</ele>
        <time>2021-03-27T22:54:39Z</time>
      </trkpt>
      <trkpt lat="41.544551" lon="-2.772317">
        <ele>943.19</ele>
        <time>2021-03-27T22:54:43Z</time>
      </trkpt>
      <trkpt lat="41.54456" lon="-2.773147">
        <ele>937.61</ele>
        <time>2021-03-27T22:54:47Z</time>
      </trkpt>
      <trkpt lat="41.544661" lon="-2.773315">
        <ele>935.93</ele>
        <time>2021-03-27T22:54:51Z</time>
      </trkpt>
      <trkpt lat="41.544674" lon="-2.773403">
        <ele>935.74</ele>
        <time>2021-03-27T22:54:55Z</time>
      </trkpt>
      <trkpt lat="41.544631" lon="-2.773564">
        <ele>936.59</ele>
        <time>2021-03-27T22:54:59Z</time>
      </trkpt>
      <trkpt lat="41.544389" lon="-2.774193">
        <ele>938.21</ele>
        <time>2021-03-27T22:55:03Z</time>
      </trkpt>
      <trkpt lat="41.544208" lon="-2.775075">
        <ele>935.63</ele>
        <time>2021-03-27T22:55:07Z</time>
      </trkpt>
      <trkpt lat="41.543971" lon="-2.776791">
        <ele>939.42</ele>
        <time>2021-03-27T22:55:11Z</time>
      </trkpt>
      <trkpt lat="41.543913" lon="-2.777478">
        <ele>942.65</ele>
        <time>2021-03-27T22:55:15Z</time>
      </trkpt>
      <trkpt lat="41.543924" lon="-2.778077">
        <ele>940.74</ele>
        <time>2021-03-27T22:55:19Z</time>
      </trkpt>
      <trkpt lat="41.544043" lon="-2.778878">
        <ele>940.98</ele>
        <time>2021-03-27T22:55:23Z</time>
      </trkpt>
      <trkpt lat="41.544067" lon="-2.779141">
        <ele>940.42</ele>
        <time>2021-03-27T22:55:26Z</time>
      </trkpt>
      <trkpt lat="41.544059" lon="-2.7794">
        <ele>940.39</ele>
        <time>2021-03-27T22:55:30Z</time>
      </trkpt>
      <trkpt lat="41.543971" lon="-2.78031">
        <ele>938.67</ele>
        <time>2021-03-27T22:55:34Z</time>
      </trkpt>
      <trkpt lat="41.543971" lon="-2.780554">
        <ele>938.41</ele>
        <time>2021-03-27T22:55:38Z</time>
      </trkpt>
      <trkpt lat="41.543998" lon="-2.780792">
        <ele>938.21</ele>
        <time>2021-03-27T22:55:42Z</time>
      </trkpt>
      <trkpt lat="41.544069" lon="-2.781002">
        <ele>937.49</ele>
        <time>2021-03-27T22:55:46Z</time>
      </trkpt>
      <trkpt lat="41.544165" lon="-2.781186">
        <ele>937.0</ele>
        <time>2021-03-27T22:55:50Z</time>
      </trkpt>
      <trkpt lat="41.545156" lon="-2.782679">
        <ele>932.83</ele>
        <time>2021-03-27T22:55:54Z</time>
      </trkpt>
      <trkpt lat="41.546774" lon="-2.786125">
        <ele>919.14</ele>
        <time>2021-03-27T22:55:58Z</time>
      </trkpt>
      <trkpt lat="41.547348" lon="-2.787217">
        <ele>914.46</ele>
        <time>2021-03-27T22:56:02Z</time>
      </trkpt>
      <trkpt lat="41.543087" lon="-2.793783">
        <ele>915.01</ele>
        <time>2021-03-27T22:56:09Z</time>
      </trkpt>
      <trkpt lat="41.542852" lon="-2.794092">
        <ele>916.2</ele>
        <time>2021-03-27T22:56:17Z</time>
      </trkpt>
      <trkpt lat="41.540565" lon="-2.796742">
        <ele>909.75</ele>
        <time>2021-03-27T22:56:24Z</time>
      </trkpt>
      <trkpt lat="41.540357" lon="-2.796932">
        <ele>908.3</ele>
        <time>2021-03-27T22:56:31Z</time>
      </trkpt>
      <trkpt lat="41.534955" lon="-2.800557">
        <ele>906.63</ele>
        <time>2021-03-27T22:56:38Z</time>
      </trkpt>
      <trkpt lat="41.533705" lon="-2.80126">
        <ele>910.45</ele>
        <time>2021-03-27T22:56:46Z</time>
      </trkpt>
      <trkpt lat="41.533463" lon="-2.801452">
        <ele>912.66</ele>
        <time>2021-03-27T22:56:53Z</time>
      </trkpt>
      <trkpt lat="41.533173" lon="-2.80174">
        <ele>912.47</ele>
        <time>2021-03-27T22:57:00Z</time>
      </trkpt>
      <trkpt lat="41.532203" lon="-2.802871">
        <ele>914.2</ele>
        <time>2021-03-27T22:57:08Z</time>
      </trkpt>
      <trkpt lat="41.530923" lon="-2.804312">
        <ele>911.44</ele>
        <time>2021-03-27T22:57:15Z</time>
      </trkpt>
      <trkpt lat="41.528228" lon="-2.806702">
        <ele>905.71</ele>
        <time>2021-03-27T22:57:22Z</time>
      </trkpt>
      <trkpt lat="41.525813" lon="-2.809438">
        <ele>911.11</ele>
        <time>2021-03-27T22:57:30Z</time>
      </trkpt>
      <trkpt lat="41.525398" lon="-2.809837">
        <ele>915.06</ele>
        <time>2021-03-27T22:57:37Z</time>
      </trkpt>
      <trkpt lat="41.523941" lon="-2.811024">
        <ele>912.07</ele>
        <time>2021-03-27T22:57:44Z</time>
      </trkpt>
      <trkpt lat="41.523506" lon="-2.811336">
        <ele>914.36</ele>
        <time>2021-03-27T22:57:52Z</time>
      </trkpt>
      <trkpt lat="41.523271" lon="-2.811447">
        <ele>915.77</ele>
        <time>2021-03-27T22:57:59Z</time>
      </trkpt>
      <trkpt lat="41.522987" lon="-2.811531">
        <ele>914.34</ele>
        <time>2021-03-27T22:58:06Z</time>
      </trkpt>
      <trkpt lat="41.522212" lon="-2.811684">
        <ele>914.96</ele>
        <time>2021-03-27T22:58:14Z</time>
      </trkpt>
      <trkpt lat="41.520853" lon="-2.812019">
        <ele>907.85</ele>
        <time>2021-03-27T22:58:21Z</time>
      </trkpt>
      <trkpt lat="41.519899" lon="-2.812372">
        <ele>902.97</ele>
        <time>2021-03-27T22:58:28Z</time>
      </trkpt>
      <trkpt lat="41.519104" lon="-2.812732">
        <ele>902.06</ele>
        <time>2021-03-27T22:58:36Z</time>
      </trkpt>
      <trkpt lat="41.518659" lon="-2.812955">
        <ele>902.09</ele>
        <time>2021-03-27T22:58:43Z</time>
      </trkpt>
      <trkpt lat="41.518273" lon="-2.81319">
        <ele>901.48</ele>
        <time>2021-03-27T22:58:50Z</time>
      </trkpt>
      <trkpt lat="41.517835" lon="-2.813597">
        <ele>902.19</ele>
        <time>2021-03-27T22:58:57Z</time>
      </trkpt>
      <trkpt lat="41.515763" lon="-2.816184">
        <ele>898.99</ele>
        <time>2021-03-27T22:59:05Z</time>
      </trkpt>
      <trkpt lat="41.515516" lon="-2.816461">
        <ele>898.84</ele>
        <time>2021-03-27T22:59:12Z</time>
      </trkpt>
      <trkpt lat="41.51531" lon="-2.816647">
        <ele>898.13</ele>
        <time>2021-03-27T22:59:19Z</time>
      </trkpt>
      <trkpt lat="41.515016" lon="-2.816826">
        <ele>898.91</ele>
        <time>2021-03-27T22:59:27Z</time>
      </trkpt>
      <trkpt lat="41.514651" lon="-2.816966">
        <ele>900.59</ele>
        <time>2021-03-27T22:59:34Z</time>
      </trkpt>
      <trkpt lat="41.512727" lon="-2.817523">
        <ele>898.82</ele>
        <time>2021-03-27T22:59:41Z</time>
      </trkpt>
      <trkpt lat="41.512521" lon="-2.817611">
        <ele>898.08</ele>
        <time>2021-03-27T22:59:49Z</time>
      </trkpt>
      <trkpt lat="41.512137" lon="-2.817799">
        <ele>898.33</ele>
        <time>2021-03-27T22:59:56Z</time>
      </trkpt>
      <trkpt lat="41.51183" lon="-2.818034">
        <ele>899.92</ele>
        <time>2021-03-27T23:00:03Z</time>
      </trkpt>
      <trkpt lat="41.51154" lon="-2.818321">
        <ele>900.5</ele>
        <time>2021-03-27T23:00:11Z</time>
      </trkpt>
      <trkpt lat="41.504044" lon="-2.827023">
        <ele>916.28</ele>
        <time>2021-03-27T23:00:18Z</time>
      </trkpt>
      <trkpt lat="41.499866" lon="-2.831979">
        <ele>925.12</ele>
        <time>2021-03-27T23:00:25Z</time>
      </trkpt>
      <trkpt lat="41.496065" lon="-2.836537">
        <ele>939.63</ele>
        <time>2021-03-27T23:00:33Z</time>
      </trkpt>
      <trkpt lat="41.495005" lon="-2.83777">
        <ele>942.0</ele>
        <time>2021-03-27T23:00:40Z</time>
      </trkpt>
      <trkpt lat="41.494495" lon="-2.838346">
        <ele>942.22</ele>
        <time>2021-03-27T23:00:47Z</time>
      </trkpt>
      <trkpt lat="41.492848" lon="-2.8399">
        <ele>938.69</ele>
        <time>2021-03-27T23:00:55Z</time>
      </trkpt>
      <trkpt lat="41.492654" lon="-2.840173">
        <ele>938.3</ele>
        <time>2021-03-27T23:01:02Z</time>
      </trkpt>
      <trkpt lat="41.492587" lon="-2.840352">
        <ele>937.52</ele>
        <time>2021-03-27T23:01:09Z</time>
      </trkpt>
      <trkpt lat="41.492586" lon="-2.840446">
        <ele>936.85</ele>
        <time>2021-03-27T23:01:17Z</time>
      </trkpt>
      <trkpt lat="41.492562" lon="-2.840552">
        <ele>936.35</ele>
        <time>2021-03-27T23:01:24Z</time>
      </trkpt>
      <trkpt lat="41.492516" lon="-2.84064">
        <ele>936.53</ele>
        <time>2021-03-27T23:01:31Z</time>
      </trkpt>
      <trkpt lat="41.492463" lon="-2.840698">
        <ele>936.88</ele>
        <time>2021-03-27T23:01:38Z</time>
      </trkpt>
      <trkpt lat="41.4924" lon="-2.840736">
        <ele>937.43</ele>
        <time>2021-03-27T23:01:46Z</time>
      </trkpt>
      <trkpt lat="41.492311" lon="-2.840751">
        <ele>938.34</ele>
        <time>2021-03-27T23:01:53Z</time>
      </trkpt>
      <trkpt lat="41.492251" lon="-2.840738">
        <ele>939.03</ele>
        <time>2021-03-27T23:02:00Z</time>
      </trkpt>
      <trkpt lat="41.492169" lon="-2.840684">
        <ele>939.34</ele>
        <time>2021-03-27T23:02:08Z</time>
      </trkpt>
      <trkpt lat="41.491937" lon="-2.840768">
        <ele>938.27</ele>
        <time>2021-03-27T23:02:14Z</time>
      </trkpt>
      <trkpt lat="41.491382" lon="-2.841281">
        <ele>936.76</ele>
        <time>2021-03-27T23:02:21Z</time>
      </trkpt>
      <trkpt lat="41.491143" lon="-2.841581">
        <ele>933.65</ele>
        <time>2021-03-27T23:02:27Z</time>
      </trkpt>
      <trkpt lat="41.490617" lon="-2.842507">
        <ele>931.85</ele>
        <time>2021-03-27T23:02:33Z</time>
      </trkpt>
      <trkpt lat="41.489987" lon="-2.843709">
        <ele>926.69</ele>
        <time>2021-03-27T23:02:40Z</time>
      </trkpt>
      <trkpt lat="41.489618" lon="-2.844342">
        <ele>925.65</ele>
        <time>2021-03-27T23:02:46Z</time>
      </trkpt>
      <trkpt lat="41.487473" lon="-2.84742">
        <ele>911.84</ele>
        <time>2021-03-27T23:02:52Z</time>
      </trkpt>
      <trkpt lat="41.481848" lon="-2.855358">
        <ele>908.98</ele>
        <time>2021-03-27T23:02:59Z</time>
      </trkpt>
      <trkpt lat="41.480352" lon="-2.857508">
        <ele>920.01</ele>
        <time>2021-03-27T23:03:05Z</time>
      </trkpt>
      <trkpt lat="41.478921" lon="-2.859502">
        <ele>921.79</ele>
        <time>2021-03-27T23:03:11Z</time>
      </trkpt>
      <trkpt lat="41.47872" lon="-2.859696">
        <ele>922.92</ele>
        <time>2021-03-27T23:03:18Z</time>
      </trkpt>
      <trkpt lat="41.478544" lon="-2.859816">
        <ele>924.64</ele>
        <time>2021-03-27T23:03:24Z</time>
      </trkpt>
      <trkpt lat="41.478042" lon="-2.860054">
        <ele>925.0</ele>
        <time>2021-03-27T23:03:30Z</time>
      </trkpt>
      <trkpt lat="41.477608" lon="-2.860139">
        <ele>925.91</ele>
        <time>2021-03-27T23:03:37Z</time>
      </trkpt>
      <trkpt lat="41.477004" lon="-2.860297">
        <ele>931.3</ele>
        <time>2021-03-27T23:03:43Z</time>
      </trkpt>
      <trkpt lat="41.475159" lon="-2.860986">
        <ele>932.74</ele>
        <time>2021-03-27T23:03:50Z</time>
      </trkpt>
      <trkpt lat="41.475081" lon="-2.861034">
        <ele>932.92</ele>
        <time>2021-03-27T23:03:56Z</time>
      </trkpt>
      <trkpt lat="41.47505" lon="-2.861091">
        <ele>932.99</ele>
        <time>2021-03-27T23:03:56Z</time>
      </trkpt>
      <trkpt lat="41.475043" lon="-2.861144">
        <ele>933.22</ele>
        <time>2021-03-27T23:03:57Z</time>
      </trkpt>
      <trkpt lat="41.475056" lon="-2.861206">
        <ele>933.61</ele>
        <time>2021-03-27T23:03:57Z</time>
      </trkpt>
      <trkpt lat="41.475093" lon="-2.861252">
        <ele>933.84</ele>
        <time>2021-03-27T23:03:57Z</time>
      </trkpt>
      <trkpt lat="41.475808" lon="-2.861421">
        <ele>933.21</ele>
        <time>2021-03-27T23:04:02Z</time>
      </trkpt>
      <trkpt lat="41.479208" lon="-2.862328">
        <ele>928.0</ele>
        <time>2021-03-27T23:04:06Z</time>
      </trkpt>
      <trkpt lat="41.47947" lon="-2.862463">
        <ele>927.91</ele>
        <time>2021-03-27T23:04:11Z</time>
      </trkpt>
      <trkpt lat="41.479827" lon="-2.862687">
        <ele>927.0</ele>
        <time>2021-03-27T23:04:15Z</time>
      </trkpt>
      <trkpt lat="41.480136" lon="-2.862984">
        <ele>928.22</ele>
        <time>2021-03-27T23:04:20Z</time>
      </trkpt>
      <trkpt lat="41.480513" lon="-2.863406">
        <ele>930.0</ele>
        <time>2021-03-27T23:04:24Z</time>
      </trkpt>
      <trkpt lat="41.480857" lon="-2.863865">
        <ele>929.01</ele>
        <time>2021-03-27T23:04:29Z</time>
      </trkpt>
      <trkpt lat="41.481173" lon="-2.864233">
        <ele>927.2</ele>
        <time>2021-03-27T23:04:33Z</time>
      </trkpt>
      <trkpt lat="41.48147" lon="-2.864511">
        <ele>926.0</ele>
        <time>2021-03-27T23:04:38Z</time>
      </trkpt>
      <trkpt lat="41.481773" lon="-2.865028">
        <ele>925.66</ele>
        <time>2021-03-27T23:04:45Z</time>
      </trkpt>
      <trkpt lat="41.483133" lon="-2.86715">
        <ele>919.23</ele>
        <time>2021-03-27T23:04:53Z</time>
      </trkpt>
      <trkpt lat="41.48365" lon="-2.867916">
        <ele>917.06</ele>
        <time>2021-03-27T23:05:01Z</time>
      </trkpt>
      <trkpt lat="41.484535" lon="-2.869381">
        <ele>915.1</ele>
        <time>2021-03-27T23:05:09Z</time>
      </trkpt>
      <trkpt lat="41.485461" lon="-2.870716">
        <ele>914.09</ele>
        <time>2021-03-27T23:05:16Z</time>
      </trkpt>
      <trkpt lat="41.486673" lon="-2.872389">
        <ele>911.76</ele>
        <time>2021-03-27T23:05:24Z</time>
      </trkpt>
      <trkpt lat="41.488296" lon="-2.875146">
        <ele>906.62</ele>
        <time>2021-03-27T23:05:32Z</time>
      </trkpt>
      <trkpt lat="41.488959" lon="-2.876307">
        <ele>905.0</ele>
        <time>2021-03-27T23:05:40Z</time>
      </trkpt>
      <trkpt lat="41.489245" lon="-2.876733">
        <ele>904.03</ele>
        <time>2021-03-27T23:05:48Z</time>
      </trkpt>
      <trkpt lat="41.48986" lon="-2.877505">
        <ele>909.51</ele>
        <time>2021-03-27T23:05:55Z</time>
      </trkpt>
      <trkpt lat="41.492236" lon="-2.880282">
        <ele>902.9</ele>
        <time>2021-03-27T23:06:03Z</time>
      </trkpt>
      <trkpt lat="41.492517" lon="-2.880637">
        <ele>901.4</ele>
        <time>2021-03-27T23:06:11Z</time>
      </trkpt>
      <trkpt lat="41.493581" lon="-2.881496">
        <ele>909.01</ele>
        <time>2021-03-27T23:06:19Z</time>
      </trkpt>
      <trkpt lat="41.494994" lon="-2.882942">
        <ele>900.83</ele>
        <time>2021-03-27T23:06:26Z</time>
      </trkpt>
      <trkpt lat="41.495206" lon="-2.883209">
        <ele>901.89</ele>
        <time>2021-03-27T23:06:34Z</time>
      </trkpt>
      <trkpt lat="41.495693" lon="-2.884266">
        <ele>896.82</ele>
        <time>2021-03-27T23:06:42Z</time>
      </trkpt>
      <trkpt lat="41.496832" lon="-2.886935">
        <ele>893.42</ele>
        <time>2021-03-27T23:06:50Z</time>
      </trkpt>
      <trkpt lat="41.496935" lon="-2.886899">
        <ele>893.19</ele>
        <time>2021-03-27T23:06:51Z</time>
      </trkpt>
      <trkpt lat="41.497263" lon="-2.887152">
        <ele>893.81</ele>
        <time>2021-03-27T23:06:54Z</time>
      </trkpt>
      <trkpt lat="41.497513" lon="-2.887378">
        <ele>892.89</ele>
        <time>2021-03-27T23:06:56Z</time>
      </trkpt>
      <trkpt lat="41.497942" lon="-2.887854">
        <ele>892.53</ele>
        <time>2021-03-27T23:06:59Z</time>
      </trkpt>
      <trkpt lat="41.497984" lon="-2.887935">
        <ele>893.07</ele>
        <time>2021-03-27T23:07:02Z</time>
      </trkpt>
      <trkpt lat="41.498018" lon="-2.888038">
        <ele>893.95</ele>
        <time>2021-03-27T23:07:04Z</time>
      </trkpt>
      <trkpt lat="41.498035" lon="-2.888174">
        <ele>894.14</ele>
        <time>2021-03-27T23:07:07Z</time>
      </trkpt>
      <trkpt lat="41.498056" lon="-2.889028">
        <ele>893.5</ele>
        <time>2021-03-27T23:07:10Z</time>
      </trkpt>
      <trkpt lat="41.49801" lon="-2.88917">
        <ele>893.0</ele>
        <time>2021-03-27T23:07:12Z</time>
      </trkpt>
      <trkpt lat="41.497948" lon="-2.889247">
        <ele>892.89</ele>
        <time>2021-03-27T23:07:15Z</time>
      </trkpt>
      <trkpt lat="41.497887" lon="-2.889281">
        <ele>892.75</ele>
        <time>2021-03-27T23:07:18Z</time>
      </trkpt>
      <trkpt lat="41.497747" lon="-2.889252">
        <ele>892.84</ele>
        <time>2021-03-27T23:07:20Z</time>
      </trkpt>
      <trkpt lat="41.497753" lon="-2.889326">
        <ele>892.57</ele>
        <time>2021-03-27T23:07:21Z</time>
      </trkpt>
      <trkpt lat="41.49772" lon="-2.889412">
        <ele>892.51</ele>
        <time>2021-03-27T23:07:22Z</time>
      </trkpt>
      <trkpt lat="41.49753" lon="-2.889638">
        <ele>893.16</ele>
        <time>2021-03-27T23:07:22Z</time>
      </trkpt>
      <trkpt lat="41.497413" lon="-2.889534">
        <ele>893.99</ele>
        <time>2021-03-27T23:07:28Z</time>
      </trkpt>
      <trkpt lat="41.496615" lon="-2.890165">
        <ele>892.41</ele>
        <time>2021-03-27T23:07:33Z</time>
      </trkpt>
      <trkpt lat="41.495508" lon="-2.891102">
        <ele>885.55</ele>
        <time>2021-03-27T23:07:39Z</time>
      </trkpt>
      <trkpt lat="41.492726" lon="-2.893392">
        <ele>895.4</ele>
        <time>2021-03-27T23:07:44Z</time>
      </trkpt>
      <trkpt lat="41.491051" lon="-2.894708">
        <ele>894.64</ele>
        <time>2021-03-27T23:07:49Z</time>
      </trkpt>
      <trkpt lat="41.490863" lon="-2.894782">
        <ele>896.48</ele>
        <time>2021-03-27T23:07:55Z</time>
      </trkpt>
      <trkpt lat="41.490706" lon="-2.894778">
        <ele>898.08</ele>
        <time>2021-03-27T23:08:00Z</time>
      </trkpt>
      <trkpt lat="41.488313" lon="-2.894354">
        <ele>905.4</ele>
        <time>2021-03-27T23:08:05Z</time>
      </trkpt>
      <trkpt lat="41.487795" lon="-2.894248">
        <ele>904.84</ele>
        <time>2021-03-27T23:08:11Z</time>
      </trkpt>
      <trkpt lat="41.486973" lon="-2.893735">
        <ele>906.26</ele>
        <time>2021-03-27T23:08:16Z</time>
      </trkpt>
      <trkpt lat="41.486703" lon="-2.893536">
        <ele>905.03</ele>
        <time>2021-03-27T23:08:21Z</time>
      </trkpt>
      <trkpt lat="41.486507" lon="-2.893466">
        <ele>905.38</ele>
        <time>2021-03-27T23:08:27Z</time>
      </trkpt>
      <trkpt lat="41.48623" lon="-2.893428">
        <ele>906.89</ele>
        <time>2021-03-27T23:08:32Z</time>
      </trkpt>
      <trkpt lat="41.485304" lon="-2.893405">
        <ele>908.0</ele>
        <time>2021-03-27T23:08:38Z</time>
      </trkpt>
      <trkpt lat="41.485156" lon="-2.893348">
        <ele>908.85</ele>
        <time>2021-03-27T23:08:43Z</time>
      </trkpt>
      <trkpt lat="41.48492" lon="-2.893194">
        <ele>911.15</ele>
        <time>2021-03-27T23:08:48Z</time>
      </trkpt>
      <trkpt lat="41.483721" lon="-2.892231">
        <ele>914.94</ele>
        <time>2021-03-27T23:08:54Z</time>
      </trkpt>
      <trkpt lat="41.482877" lon="-2.891476">
        <ele>918.09</ele>
        <time>2021-03-27T23:08:59Z</time>
      </trkpt>
      <trkpt lat="41.482741" lon="-2.891443">
        <ele>917.35</ele>
        <time>2021-03-27T23:09:04Z</time>
      </trkpt>
      <trkpt lat="41.482514" lon="-2.891456">
        <ele>915.62</ele>
        <time>2021-03-27T23:09:10Z</time>
      </trkpt>
      <trkpt lat="41.482164" lon="-2.891534">
        <ele>913.65</ele>
        <time>2021-03-27T23:09:15Z</time>
      </trkpt>
      <trkpt lat="41.481931" lon="-2.891615">
        <ele>912.14</ele>
        <time>2021-03-27T23:09:20Z</time>
      </trkpt>
      <trkpt lat="41.481583" lon="-2.891804">
        <ele>910.85</ele>
        <time>2021-03-27T23:09:26Z</time>
      </trkpt>
      <trkpt lat="41.480787" lon="-2.892527">
        <ele>905.03</ele>
        <time>2021-03-27T23:09:31Z</time>
      </trkpt>
      <trkpt lat="41.48051" lon="-2.892743">
        <ele>903.78</ele>
        <time>2021-03-27T23:09:36Z</time>
      </trkpt>
      <trkpt lat="41.478142" lon="-2.893813">
        <ele>908.27</ele>
        <time>2021-03-27T23:09:42Z</time>
      </trkpt>
      <trkpt lat="41.477091" lon="-2.894459">
        <ele>904.49</ele>
        <time>2021-03-27T23:09:47Z</time>
      </trkpt>
      <trkpt lat="41.476471" lon="-2.894873">
        <ele>905.75</ele>
        <time>2021-03-27T23:09:53Z</time>
      </trkpt>
      <trkpt lat="41.472756" lon="-2.8977">
        <ele>906.56</ele>
        <time>2021-03-27T23:09:58Z</time>
      </trkpt>
      <trkpt lat="41.472617" lon="-2.897772">
        <ele>906.04</ele>
        <time>2021-03-27T23:10:03Z</time>
      </trkpt>
      <trkpt lat="41.472421" lon="-2.897834">
        <ele>906.45</ele>
        <time>2021-03-27T23:10:09Z</time>
      </trkpt>
      <trkpt lat="41.471968" lon="-2.897918">
        <ele>910.28</ele>
        <time>2021-03-27T23:10:14Z</time>
      </trkpt>
      <trkpt lat="41.47191" lon="-2.900106">
        <ele>909.58</ele>
        <time>2021-03-27T23:10:19Z</time>
      </trkpt>
      <trkpt lat="41.471924" lon="-2.900363">
        <ele>910.66</ele>
        <time>2021-03-27T23:10:24Z</time>
      </trkpt>
      <trkpt lat="41.471956" lon="-2.900573">
        <ele>911.98</ele>
        <time>2021-03-27T23:10:29Z</time>
      </trkpt>
      <trkpt lat="41.472115" lon="-2.901129">
        <ele>913.51</ele>
        <time>2021-03-27T23:10:34Z</time>
      </trkpt>
      <trkpt lat="41.472438" lon="-2.902125">
        <ele>915.43</ele>
        <time>2021-03-27T23:10:39Z</time>
      </trkpt>
      <trkpt lat="41.472568" lon="-2.902483">
        <ele>913.75</ele>
        <time>2021-03-27T23:10:44Z</time>
      </trkpt>
      <trkpt lat="41.47265" lon="-2.902795">
        <ele>914.59</ele>
        <time>2021-03-27T23:10:50Z</time>
      </trkpt>
      <trkpt lat="41.472716" lon="-2.903188">
        <ele>915.8</ele>
        <time>2021-03-27T23:10:55Z</time>
      </trkpt>
      <trkpt lat="41.473181" lon="-2.907089">
        <ele>925.72</ele>
        <time>2021-03-27T23:11:00Z</time>
      </trkpt>
      <trkpt lat="41.473242" lon="-2.907844">
        <ele>925.91</ele>
        <time>2021-03-27T23:11:05Z</time>
      </trkpt>
      <trkpt lat="41.473259" lon="-2.908279">
        <ele>928.56</ele>
        <time>2021-03-27T23:11:10Z</time>
      </trkpt>
      <trkpt lat="41.473321" lon="-2.91448">
        <ele>935.13</ele>
        <time>2021-03-27T23:11:15Z</time>
      </trkpt>
      <trkpt lat="41.473381" lon="-2.915021">
        <ele>935.59</ele>
        <time>2021-03-27T23:11:20Z</time>
      </trkpt>
      <trkpt lat="41.473887" lon="-2.917016">
        <ele>923.0</ele>
        <time>2021-03-27T23:11:25Z</time>
      </trkpt>
      <trkpt lat="41.473975" lon="-2.9175">
        <ele>922.0</ele>
        <time>2021-03-27T23:11:30Z</time>
      </trkpt>
      <trkpt lat="41.474112" lon="-2.918666">
        <ele>924.77</ele>
        <time>2021-03-27T23:11:35Z</time>
      </trkpt>
      <trkpt lat="41.474217" lon="-2.919162">
        <ele>923.04</ele>
        <time>2021-03-27T23:11:40Z</time>
      </trkpt>
      <trkpt lat="41.474364" lon="-2.919749">
        <ele>918.32</ele>
        <time>2021-03-27T23:11:45Z</time>
      </trkpt>
      <trkpt lat="41.474835" lon="-2.921313">
        <ele>920.27</ele>
        <time>2021-03-27T23:11:51Z</time>
      </trkpt>
      <trkpt lat="41.47509" lon="-2.922254">
        <ele>924.0</ele>
        <time>2021-03-27T23:11:56Z</time>
      </trkpt>
      <trkpt lat="41.47523" lon="-2.922907">
        <ele>924.81</ele>
        <time>2021-03-27T23:12:01Z</time>
      </trkpt>
      <trkpt lat="41.475482" lon="-2.924282">
        <ele>922.74</ele>
        <time>2021-03-27T23:12:06Z</time>
      </trkpt>
      <trkpt lat="41.47569" lon="-2.925221">
        <ele>917.69</ele>
        <time>2021-03-27T23:12:11Z</time>
      </trkpt>
      <trkpt lat="41.476114" lon="-2.926588">
        <ele>917.02</ele>
        <time>2021-03-27T23:12:16Z</time>
      </trkpt>
      <trkpt lat="41.476535" lon="-2.928598">
        <ele>913.5</ele>
        <time>2021-03-27T23:12:21Z</time>
      </trkpt>
      <trkpt lat="41.476568" lon="-2.928881">
        <ele>913.64</ele>
        <time>2021-03-27T23:12:26Z</time>
      </trkpt>
      <trkpt lat="41.476562" lon="-2.930085">
        <ele>913.49</ele>
        <time>2021-03-27T23:12:31Z</time>
      </trkpt>
      <trkpt lat="41.476592" lon="-2.930505">
        <ele>914.73</ele>
        <time>2021-03-27T23:12:36Z</time>
      </trkpt>
      <trkpt lat="41.476714" lon="-2.931244">
        <ele>911.43</ele>
        <time>2021-03-27T23:12:41Z</time>
      </trkpt>
      <trkpt lat="41.476748" lon="-2.931599">
        <ele>910.46</ele>
        <time>2021-03-27T23:12:47Z</time>
      </trkpt>
      <trkpt lat="41.476764" lon="-2.932018">
        <ele>909.91</ele>
        <time>2021-03-27T23:12:52Z</time>
      </trkpt>
      <trkpt lat="41.476758" lon="-2.932277">
        <ele>909.67</ele>
        <time>2021-03-27T23:12:57Z</time>
      </trkpt>
      <trkpt lat="41.476686" lon="-2.933316">
        <ele>908.99</ele>
        <time>2021-03-27T23:13:02Z</time>
      </trkpt>
      <trkpt lat="41.476936" lon="-2.933329">
        <ele>908.03</ele>
        <time>2021-03-27T23:13:06Z</time>
      </trkpt>
      <trkpt lat="41.477034" lon="-2.933314">
        <ele>908.02</ele>
        <time>2021-03-27T23:13:10Z</time>
      </trkpt>
      <trkpt lat="41.477412" lon="-2.933317">
        <ele>907.37</ele>
        <time>2021-03-27T23:13:14Z</time>
      </trkpt>
      <trkpt lat="41.477513" lon="-2.933348">
        <ele>907.0</ele>
        <time>2021-03-27T23:13:19Z</time>
      </trkpt>
      <trkpt lat="41.47801" lon="-2.933776">
        <ele>906.16</ele>
        <time>2021-03-27T23:13:23Z</time>
      </trkpt>
      <trkpt lat="41.478154" lon="-2.933985">
        <ele>905.88</ele>
        <time>2021-03-27T23:13:27Z</time>
      </trkpt>
      <trkpt lat="41.478717" lon="-2.935093">
        <ele>898.94</ele>
        <time>2021-03-27T23:13:31Z</time>
      </trkpt>
      <trkpt lat="41.478947" lon="-2.935626">
        <ele>896.05</ele>
        <time>2021-03-27T23:13:36Z</time>
      </trkpt>
      <trkpt lat="41.47931" lon="-2.936567">
        <ele>893.99</ele>
        <time>2021-03-27T23:13:40Z</time>
      </trkpt>
      <trkpt lat="41.480862" lon="-2.939575">
        <ele>895.52</ele>
        <time>2021-03-27T23:13:44Z</time>
      </trkpt>
      <trkpt lat="41.481231" lon="-2.94042">
        <ele>899.45</ele>
        <time>2021-03-27T23:13:48Z</time>
      </trkpt>
      <trkpt lat="41.481389" lon="-2.940837">
        <ele>900.97</ele>
        <time>2021-03-27T23:13:53Z</time>
      </trkpt>
      <trkpt lat="41.481744" lon="-2.942078">
        <ele>896.08</ele>
        <time>2021-03-27T23:13:57Z</time>
      </trkpt>
      <trkpt lat="41.481843" lon="-2.942615">
        <ele>894.05</ele>
        <time>2021-03-27T23:14:01Z</time>
      </trkpt>
      <trkpt lat="41.481877" lon="-2.943021">
        <ele>892.76</ele>
        <time>2021-03-27T23:14:05Z</time>
      </trkpt>
      <trkpt lat="41.481893" lon="-2.944007">
        <ele>891.55</ele>
        <time>2021-03-27T23:14:10Z</time>
      </trkpt>
      <trkpt lat="41.481807" lon="-2.945856">
        <ele>886.0</ele>
        <time>2021-03-27T23:14:14Z</time>
      </trkpt>
      <trkpt lat="41.481861" lon="-2.948267">
        <ele>887.46</ele>
        <time>2021-03-27T23:14:18Z</time>
      </trkpt>
      <trkpt lat="41.481928" lon="-2.950473">
        <ele>890.94</ele>
        <time>2021-03-27T23:14:22Z</time>
      </trkpt>
      <trkpt lat="41.481896" lon="-2.952672">
        <ele>888.97</ele>
        <time>2021-03-27T23:14:27Z</time>
      </trkpt>
      <trkpt lat="41.481867" lon="-2.953526">
        <ele>891.05</ele>
        <time>2021-03-27T23:14:31Z</time>
      </trkpt>
      <trkpt lat="41.481845" lon="-2.955794">
        <ele>888.22</ele>
        <time>2021-03-27T23:14:35Z</time>
      </trkpt>
      <trkpt lat="41.481826" lon="-2.956254">
        <ele>889.5</ele>
        <time>2021-03-27T23:14:39Z</time>
      </trkpt>
      <trkpt lat="41.481727" lon="-2.957679">
        <ele>888.77</ele>
        <time>2021-03-27T23:14:43Z</time>
      </trkpt>
      <trkpt lat="41.481692" lon="-2.95799">
        <ele>889.63</ele>
        <time>2021-03-27T23:14:48Z</time>
      </trkpt>
      <trkpt lat="41.481664" lon="-2.958645">
        <ele>888.76</ele>
        <time>2021-03-27T23:14:52Z</time>
      </trkpt>
      <trkpt lat="41.481709" lon="-2.959761">
        <ele>885.25</ele>
        <time>2021-03-27T23:14:56Z</time>
      </trkpt>
      <trkpt lat="41.481701" lon="-2.960041">
        <ele>885.9</ele>
        <time>2021-03-27T23:15:00Z</time>
      </trkpt>
      <trkpt lat="41.481439" lon="-2.961762">
        <ele>890.0</ele>
        <time>2021-03-27T23:15:05Z</time>
      </trkpt>
      <trkpt lat="41.481015" lon="-2.964025">
        <ele>891.02</ele>
        <time>2021-03-27T23:15:09Z</time>
      </trkpt>
      <trkpt lat="41.480835" lon="-2.964836">
        <ele>890.99</ele>
        <time>2021-03-27T23:15:13Z</time>
      </trkpt>
      <trkpt lat="41.480623" lon="-2.965602">
        <ele>894.91</ele>
        <time>2021-03-27T23:15:17Z</time>
      </trkpt>
      <trkpt lat="41.480292" lon="-2.966626">
        <ele>894.09</ele>
        <time>2021-03-27T23:15:22Z</time>
      </trkpt>
      <trkpt lat="41.480223" lon="-2.966906">
        <ele>893.89</ele>
        <time>2021-03-27T23:15:26Z</time>
      </trkpt>
      <trkpt lat="41.480048" lon="-2.968775">
        <ele>892.81</ele>
        <time>2021-03-27T23:15:30Z</time>
      </trkpt>
      <trkpt lat="41.479973" lon="-2.969213">
        <ele>894.06</ele>
        <time>2021-03-27T23:15:34Z</time>
      </trkpt>
      <trkpt lat="41.479826" lon="-2.969925">
        <ele>891.94</ele>
        <time>2021-03-27T23:15:39Z</time>
      </trkpt>
      <trkpt lat="41.479803" lon="-2.970296">
        <ele>890.92</ele>
        <time>2021-03-27T23:15:43Z</time>
      </trkpt>
      <trkpt lat="41.479962" lon="-2.972102">
        <ele>891.11</ele>
        <time>2021-03-27T23:15:47Z</time>
      </trkpt>
      <trkpt lat="41.48021" lon="-2.972848">
        <ele>888.17</ele>
        <time>2021-03-27T23:15:51Z</time>
      </trkpt>
      <trkpt lat="41.480763" lon="-2.97491">
        <ele>887.58</ele>
        <time>2021-03-27T23:15:56Z</time>
      </trkpt>
      <trkpt lat="41.480797" lon="-2.975109">
        <ele>887.08</ele>
        <time>2021-03-27T23:16:00Z</time>
      </trkpt>
      <trkpt lat="41.480831" lon="-2.975777">
        <ele>887.0</ele>
        <time>2021-03-27T23:16:04Z</time>
      </trkpt>
      <trkpt lat="41.480976" lon="-2.976608">
        <ele>884.15</ele>
        <time>2021-03-27T23:16:08Z</time>
      </trkpt>
      <trkpt lat="41.481315" lon="-2.978378">
        <ele>885.84</ele>
        <time>2021-03-27T23:16:12Z</time>
      </trkpt>
      <trkpt lat="41.481385" lon="-2.978832">
        <ele>885.01</ele>
        <time>2021-03-27T23:16:17Z</time>
      </trkpt>
      <trkpt lat="41.481443" lon="-2.979573">
        <ele>885.71</ele>
        <time>2021-03-27T23:16:21Z</time>
      </trkpt>
      <trkpt lat="41.481439" lon="-2.980596">
        <ele>884.45</ele>
        <time>2021-03-27T23:16:25Z</time>
      </trkpt>
      <trkpt lat="41.481388" lon="-2.981099">
        <ele>885.01</ele>
        <time>2021-03-27T23:16:29Z</time>
      </trkpt>
      <trkpt lat="41.481223" lon="-2.981863">
        <ele>887.9</ele>
        <time>2021-03-27T23:16:34Z</time>
      </trkpt>
      <trkpt lat="41.481027" lon="-2.98288">
        <ele>890.49</ele>
        <time>2021-03-27T23:16:38Z</time>
      </trkpt>
      <trkpt lat="41.480832" lon="-2.983747">
        <ele>890.5</ele>
        <time>2021-03-27T23:16:42Z</time>
      </trkpt>
      <trkpt lat="41.480698" lon="-2.984557">
        <ele>891.49</ele>
        <time>2021-03-27T23:16:46Z</time>
      </trkpt>
      <trkpt lat="41.480671" lon="-2.98503">
        <ele>891.23</ele>
        <time>2021-03-27T23:16:51Z</time>
      </trkpt>
      <trkpt lat="41.480668" lon="-2.985996">
        <ele>893.72</ele>
        <time>2021-03-27T23:16:55Z</time>
      </trkpt>
      <trkpt lat="41.4806" lon="-2.986386">
        <ele>894.21</ele>
        <time>2021-03-27T23:16:59Z</time>
      </trkpt>
      <trkpt lat="41.480484" lon="-2.986707">
        <ele>892.04</ele>
        <time>2021-03-27T23:17:03Z</time>
      </trkpt>
      <trkpt lat="41.480149" lon="-2.987337">
        <ele>887.05</ele>
        <time>2021-03-27T23:17:08Z</time>
      </trkpt>
      <trkpt lat="41.479786" lon="-2.987958">
        <ele>889.04</ele>
        <time>2021-03-27T23:17:12Z</time>
      </trkpt>
      <trkpt lat="41.479367" lon="-2.988484">
        <ele>891.86</ele>
        <time>2021-03-27T23:17:16Z</time>
      </trkpt>
      <trkpt lat="41.479204" lon="-2.988718">
        <ele>891.53</ele>
        <time>2021-03-27T23:17:20Z</time>
      </trkpt>
      <trkpt lat="41.479077" lon="-2.988951">
        <ele>890.45</ele>
        <time>2021-03-27T23:17:25Z</time>
      </trkpt>
      <trkpt lat="41.478455" lon="-2.990419">
        <ele>890.13</ele>
        <time>2021-03-27T23:17:29Z</time>
      </trkpt>
      <trkpt lat="41.477677" lon="-2.992177">
        <ele>892.34</ele>
        <time>2021-03-27T23:17:33Z</time>
      </trkpt>
      <trkpt lat="41.477434" lon="-2.992693">
        <ele>897.86</ele>
        <time>2021-03-27T23:17:37Z</time>
      </trkpt>
      <trkpt lat="41.477209" lon="-2.992981">
        <ele>899.26</ele>
        <time>2021-03-27T23:17:41Z</time>
      </trkpt>
      <trkpt lat="41.476373" lon="-2.993737">
        <ele>897.0</ele>
        <time>2021-03-27T23:17:46Z</time>
      </trkpt>
      <trkpt lat="41.476117" lon="-2.994079">
        <ele>897.68</ele>
        <time>2021-03-27T23:17:50Z</time>
      </trkpt>
      <trkpt lat="41.476082" lon="-2.994154">
        <ele>897.85</ele>
        <time>2021-03-27T23:17:54Z</time>
      </trkpt>
      <trkpt lat="41.477908" lon="-2.99463">
        <ele>895.82</ele>
        <time>2021-03-27T23:18:01Z</time>
      </trkpt>
      <trkpt lat="41.478497" lon="-2.994811">
        <ele>896.68</ele>
        <time>2021-03-27T23:18:08Z</time>
      </trkpt>
      <trkpt lat="41.478534" lon="-2.994932">
        <ele>896.24</ele>
        <time>2021-03-27T23:18:09Z</time>
      </trkpt>
      <trkpt lat="41.478531" lon="-2.994993">
        <ele>896.02</ele>
        <time>2021-03-27T23:18:10Z</time>
      </trkpt>
      <trkpt lat="41.478492" lon="-2.99513">
        <ele>896.2</ele>
        <time>2021-03-27T23:18:10Z</time>
      </trkpt>
      <trkpt lat="41.478516" lon="-2.995263">
        <ele>896.32</ele>
        <time>2021-03-27T23:18:11Z</time>
      </trkpt>
      <trkpt lat="41.482026" lon="-2.99963">
        <ele>891.51</ele>
        <time>2021-03-27T23:18:27Z</time>
      </trkpt>
      <trkpt lat="41.482164" lon="-2.999834">
        <ele>891.61</ele>
        <time>2021-03-27T23:18:43Z</time>
      </trkpt>
      <trkpt lat="41.482754" lon="-3.000926">
        <ele>887.36</ele>
        <time>2021-03-27T23:18:59Z</time>
      </trkpt>
      <trkpt lat="41.486165" lon="-3.006084">
        <ele>880.71</ele>
        <time>2021-03-27T23:19:15Z</time>
      </trkpt>
      <trkpt lat="41.486127" lon="-3.006461">
        <ele>880.32</ele>
        <time>2021-03-27T23:19:21Z</time>
      </trkpt>
      <trkpt lat="41.486108" lon="-3.008644">
        <ele>881.14</ele>
        <time>2021-03-27T23:19:26Z</time>
      </trkpt>
      <trkpt lat="41.486052" lon="-3.010879">
        <ele>878.4</ele>
        <time>2021-03-27T23:19:32Z</time>
      </trkpt>
      <trkpt lat="41.485809" lon="-3.012216">
        <ele>880.8</ele>
        <time>2021-03-27T23:19:37Z</time>
      </trkpt>
      <trkpt lat="41.485547" lon="-3.013352">
        <ele>880.0</ele>
        <time>2021-03-27T23:19:43Z</time>
      </trkpt>
      <trkpt lat="41.485135" lon="-3.014501">
        <ele>878.82</ele>
        <time>2021-03-27T23:19:48Z</time>
      </trkpt>
      <trkpt lat="41.484771" lon="-3.015076">
        <ele>881.38</ele>
        <time>2021-03-27T23:19:54Z</time>
      </trkpt>
      <trkpt lat="41.483928" lon="-3.016162">
        <ele>879.74</ele>
        <time>2021-03-27T23:19:59Z</time>
      </trkpt>
      <trkpt lat="41.483695" lon="-3.016612">
        <ele>879.2</ele>
        <time>2021-03-27T23:20:05Z</time>
      </trkpt>
      <trkpt lat="41.483283" lon="-3.01821">
        <ele>883.07</ele>
        <time>2021-03-27T23:20:10Z</time>
      </trkpt>
      <trkpt lat="41.483135" lon="-3.019117">
        <ele>879.84</ele>
        <time>2021-03-27T23:20:16Z</time>
      </trkpt>
      <trkpt lat="41.48311" lon="-3.019295">
        <ele>879.8</ele>
        <time>2021-03-27T23:20:21Z</time>
      </trkpt>
      <trkpt lat="41.483057" lon="-3.019512">
        <ele>879.99</ele>
        <time>2021-03-27T23:20:26Z</time>
      </trkpt>
      <trkpt lat="41.482159" lon="-3.021119">
        <ele>882.43</ele>
        <time>2021-03-27T23:20:30Z</time>
      </trkpt>
      <trkpt lat="41.481891" lon="-3.021503">
        <ele>882.26</ele>
        <time>2021-03-27T23:20:35Z</time>
      </trkpt>
      <trkpt lat="41.48091" lon="-3.02251">
        <ele>879.45</ele>
        <time>2021-03-27T23:20:40Z</time>
      </trkpt>
      <trkpt lat="41.480485" lon="-3.023094">
        <ele>882.29</ele>
        <time>2021-03-27T23:20:45Z</time>
      </trkpt>
      <trkpt lat="41.479465" lon="-3.02502">
        <ele>886.84</ele>
        <time>2021-03-27T23:20:50Z</time>
      </trkpt>
      <trkpt lat="41.479384" lon="-3.025261">
        <ele>887.22</ele>
        <time>2021-03-27T23:20:54Z</time>
      </trkpt>
      <trkpt lat="41.479179" lon="-3.026093">
        <ele>888.02</ele>
        <time>2021-03-27T23:20:59Z</time>
      </trkpt>
      <trkpt lat="41.479083" lon="-3.026562">
        <ele>888.34</ele>
        <time>2021-03-27T23:21:04Z</time>
      </trkpt>
      <trkpt lat="41.47898" lon="-3.026846">
        <ele>890.63</ele>
        <time>2021-03-27T23:21:09Z</time>
      </trkpt>
      <trkpt lat="41.477984" lon="-3.028974">
        <ele>903.37</ele>
        <time>2021-03-27T23:21:14Z</time>
      </trkpt>
      <trkpt lat="41.477851" lon="-3.029479">
        <ele>907.01</ele>
        <time>2021-03-27T23:21:18Z</time>
      </trkpt>
      <trkpt lat="41.47786" lon="-3.029882">
        <ele>909.16</ele>
        <time>2021-03-27T23:21:23Z</time>
      </trkpt>
      <trkpt lat="41.478072" lon="-3.030864">
        <ele>910.16</ele>
        <time>2021-03-27T23:21:28Z</time>
      </trkpt>
      <trkpt lat="41.478158" lon="-3.0316">
        <ele>910.33</ele>
        <time>2021-03-27T23:21:33Z</time>
      </trkpt>
      <trkpt lat="41.478204" lon="-3.032233">
        <ele>912.41</ele>
        <time>2021-03-27T23:21:38Z</time>
      </trkpt>
      <trkpt lat="41.478171" lon="-3.032488">
        <ele>913.31</ele>
        <time>2021-03-27T23:21:42Z</time>
      </trkpt>
      <trkpt lat="41.477685" lon="-3.033961">
        <ele>906.0</ele>
        <time>2021-03-27T23:21:47Z</time>
      </trkpt>
      <trkpt lat="41.477609" lon="-3.034283">
        <ele>906.25</ele>
        <time>2021-03-27T23:21:52Z</time>
      </trkpt>
      <trkpt lat="41.477596" lon="-3.034518">
        <ele>906.74</ele>
        <time>2021-03-27T23:21:57Z</time>
      </trkpt>
      <trkpt lat="41.477673" lon="-3.035579">
        <ele>907.12</ele>
        <time>2021-03-27T23:22:02Z</time>
      </trkpt>
      <trkpt lat="41.477695" lon="-3.03621">
        <ele>907.54</ele>
        <time>2021-03-27T23:22:06Z</time>
      </trkpt>
      <trkpt lat="41.477699" lon="-3.041801">
        <ele>911.05</ele>
        <time>2021-03-27T23:22:11Z</time>
      </trkpt>
      <trkpt lat="41.477671" lon="-3.042108">
        <ele>912.36</ele>
        <time>2021-03-27T23:22:16Z</time>
      </trkpt>
      <trkpt lat="41.477585" lon="-3.042417">
        <ele>914.09</ele>
        <time>2021-03-27T23:22:21Z</time>
      </trkpt>
      <trkpt lat="41.47584" lon="-3.047343">
        <ele>926.44</ele>
        <time>2021-03-27T23:22:26Z</time>
      </trkpt>
      <trkpt lat="41.474594" lon="-3.05208">
        <ele>932.67</ele>
        <time>2021-03-27T23:22:31Z</time>
      </trkpt>
      <trkpt lat="41.474444" lon="-3.052524">
        <ele>935.09</ele>
        <time>2021-03-27T23:22:35Z</time>
      </trkpt>
      <trkpt lat="41.474316" lon="-3.052736">
        <ele>936.31</ele>
        <time>2021-03-27T23:22:40Z</time>
      </trkpt>
      <trkpt lat="41.47267" lon="-3.054833">
        <ele>946.41</ele>
        <time>2021-03-27T23:22:45Z</time>
      </trkpt>
      <trkpt lat="41.4722" lon="-3.055459">
        <ele>949.41</ele>
        <time>2021-03-27T23:22:50Z</time>
      </trkpt>
      <trkpt lat="41.471896" lon="-3.05611">
        <ele>953.0</ele>
        <time>2021-03-27T23:22:55Z</time>
      </trkpt>
      <trkpt lat="41.470988" lon="-3.05815">
        <ele>963.73</ele>
        <time>2021-03-27T23:22:59Z</time>
      </trkpt>
      <trkpt lat="41.470843" lon="-3.058388">
        <ele>963.76</ele>
        <time>2021-03-27T23:23:04Z</time>
      </trkpt>
      <trkpt lat="41.470668" lon="-3.058632">
        <ele>963.52</ele>
        <time>2021-03-27T23:23:09Z</time>
      </trkpt>
      <trkpt lat="41.468876" lon="-3.060871">
        <ele>964.91</ele>
        <time>2021-03-27T23:23:14Z</time>
      </trkpt>
      <trkpt lat="41.468501" lon="-3.061474">
        <ele>963.48</ele>
        <time>2021-03-27T23:23:19Z</time>
      </trkpt>
      <trkpt lat="41.468378" lon="-3.061776">
        <ele>963.55</ele>
        <time>2021-03-27T23:23:23Z</time>
      </trkpt>
      <trkpt lat="41.468324" lon="-3.062131">
        <ele>964.74</ele>
        <time>2021-03-27T23:23:28Z</time>
      </trkpt>
      <trkpt lat="41.46805" lon="-3.06492">
        <ele>952.88</ele>
        <time>2021-03-27T23:23:33Z</time>
      </trkpt>
      <trkpt lat="41.468039" lon="-3.065351">
        <ele>950.87</ele>
        <time>2021-03-27T23:23:38Z</time>
      </trkpt>
      <trkpt lat="41.468168" lon="-3.067206">
        <ele>946.0</ele>
        <time>2021-03-27T23:23:43Z</time>
      </trkpt>
      <trkpt lat="41.468125" lon="-3.067413">
        <ele>944.79</ele>
        <time>2021-03-27T23:23:47Z</time>
      </trkpt>
      <trkpt lat="41.467932" lon="-3.067924">
        <ele>940.94</ele>
        <time>2021-03-27T23:23:52Z</time>
      </trkpt>
      <trkpt lat="41.467898" lon="-3.068222">
        <ele>939.14</ele>
        <time>2021-03-27T23:23:57Z</time>
      </trkpt>
      <trkpt lat="41.467678" lon="-3.073763">
        <ele>942.17</ele>
        <time>2021-03-27T23:24:02Z</time>
      </trkpt>
      <trkpt lat="41.46764" lon="-3.073982">
        <ele>941.66</ele>
        <time>2021-03-27T23:24:07Z</time>
      </trkpt>
      <trkpt lat="41.467587" lon="-3.074136">
        <ele>941.48</ele>
        <time>2021-03-27T23:24:12Z</time>
      </trkpt>
      <trkpt lat="41.467515" lon="-3.07425">
        <ele>941.57</ele>
        <time>2021-03-27T23:24:16Z</time>
      </trkpt>
      <trkpt lat="41.467418" lon="-3.07436">
        <ele>941.69</ele>
        <time>2021-03-27T23:24:21Z</time>
      </trkpt>
      <trkpt lat="41.466286" lon="-3.075287">
        <ele>941.08</ele>
        <time>2021-03-27T23:24:26Z</time>
      </trkpt>
      <trkpt lat="41.46605" lon="-3.075512">
        <ele>942.19</ele>
        <time>2021-03-27T23:24:31Z</time>
      </trkpt>
      <trkpt lat="41.465947" lon="-3.075648">
        <ele>941.86</ele>
        <time>2021-03-27T23:24:36Z</time>
      </trkpt>
      <trkpt lat="41.465855" lon="-3.075851">
        <ele>941.86</ele>
        <time>2021-03-27T23:24:40Z</time>
      </trkpt>
      <trkpt lat="41.465805" lon="-3.076101">
        <ele>941.03</ele>
        <time>2021-03-27T23:24:45Z</time>
      </trkpt>
      <trkpt lat="41.465672" lon="-3.077306">
        <ele>941.48</ele>
        <time>2021-03-27T23:24:50Z</time>
      </trkpt>
      <trkpt lat="41.465631" lon="-3.077485">
        <ele>942.63</ele>
        <time>2021-03-27T23:24:55Z</time>
      </trkpt>
      <trkpt lat="41.46556" lon="-3.07764">
        <ele>943.47</ele>
        <time>2021-03-27T23:25:00Z</time>
      </trkpt>
      <trkpt lat="41.464633" lon="-3.079137">
        <ele>942.82</ele>
        <time>2021-03-27T23:25:04Z</time>
      </trkpt>
      <trkpt lat="41.464519" lon="-3.079406">
        <ele>942.93</ele>
        <time>2021-03-27T23:25:09Z</time>
      </trkpt>
      <trkpt lat="41.464103" lon="-3.080922">
        <ele>943.54</ele>
        <time>2021-03-27T23:25:14Z</time>
      </trkpt>
      <trkpt lat="41.464004" lon="-3.081166">
        <ele>943.39</ele>
        <time>2021-03-27T23:25:19Z</time>
      </trkpt>
      <trkpt lat="41.463901" lon="-3.081312">
        <ele>943.23</ele>
        <time>2021-03-27T23:25:24Z</time>
      </trkpt>
      <trkpt lat="41.463636" lon="-3.081595">
        <ele>942.93</ele>
        <time>2021-03-27T23:25:28Z</time>
      </trkpt>
      <trkpt lat="41.46353" lon="-3.081788">
        <ele>942.69</ele>
        <time>2021-03-27T23:25:33Z</time>
      </trkpt>
      <trkpt lat="41.463038" lon="-3.082884">
        <ele>947.19</ele>
        <time>2021-03-27T23:25:38Z</time>
      </trkpt>
      <trkpt lat="41.462479" lon="-3.084198">
        <ele>944.05</ele>
        <time>2021-03-27T23:25:43Z</time>
      </trkpt>
      <trkpt lat="41.462156" lon="-3.085011">
        <ele>946.68</ele>
        <time>2021-03-27T23:25:48Z</time>
      </trkpt>
      <trkpt lat="41.462011" lon="-3.085278">
        <ele>948.04</ele>
        <time>2021-03-27T23:25:52Z</time>
      </trkpt>
      <trkpt lat="41.460997" lon="-3.086258">
        <ele>945.16</ele>
        <time>2021-03-27T23:25:57Z</time>
      </trkpt>
      <trkpt lat="41.460772" lon="-3.086398">
        <ele>945.63</ele>
        <time>2021-03-27T23:26:02Z</time>
      </trkpt>
      <trkpt lat="41.458462" lon="-3.087408">
        <ele>947.89</ele>
        <time>2021-03-27T23:26:07Z</time>
      </trkpt>
      <trkpt lat="41.455278" lon="-3.088209">
        <ele>951.55</ele>
        <time>2021-03-27T23:26:12Z</time>
      </trkpt>
      <trkpt lat="41.454719" lon="-3.088328">
        <ele>953.05</ele>
        <time>2021-03-27T23:26:17Z</time>
      </trkpt>
      <trkpt lat="41.453699" lon="-3.088455">
        <ele>956.51</ele>
        <time>2021-03-27T23:26:21Z</time>
      </trkpt>
      <trkpt lat="41.453493" lon="-3.088454">
        <ele>955.61</ele>
        <time>2021-03-27T23:26:26Z</time>
      </trkpt>
      <trkpt lat="41.452866" lon="-3.088341">
        <ele>953.97</ele>
        <time>2021-03-27T23:26:31Z</time>
      </trkpt>
      <trkpt lat="41.452788" lon="-3.088354">
        <ele>953.92</ele>
        <time>2021-03-27T23:26:36Z</time>
      </trkpt>
      <trkpt lat="41.452705" lon="-3.088428">
        <ele>954.18</ele>
        <time>2021-03-27T23:26:41Z</time>
      </trkpt>
      <trkpt lat="41.452646" lon="-3.088617">
        <ele>953.93</ele>
        <time>2021-03-27T23:26:45Z</time>
      </trkpt>
      <trkpt lat="41.452329" lon="-3.090082">
        <ele>952.55</ele>
        <time>2021-03-27T23:26:50Z</time>
      </trkpt>
      <trkpt lat="41.452254" lon="-3.090211">
        <ele>952.9</ele>
        <time>2021-03-27T23:26:55Z</time>
      </trkpt>
      <trkpt lat="41.451515" lon="-3.089993">
        <ele>953.46</ele>
        <time>2021-03-27T23:26:58Z</time>
      </trkpt>
      <trkpt lat="41.450211" lon="-3.089517">
        <ele>954.7</ele>
        <time>2021-03-27T23:27:01Z</time>
      </trkpt>
      <trkpt lat="41.449945" lon="-3.089441">
        <ele>953.6</ele>
        <time>2021-03-27T23:27:04Z</time>
      </trkpt>
      <trkpt lat="41.449636" lon="-3.089407">
        <ele>952.58</ele>
        <time>2021-03-27T23:27:07Z</time>
      </trkpt>
      <trkpt lat="41.44932" lon="-3.089458">
        <ele>954.94</ele>
        <time>2021-03-27T23:27:09Z</time>
      </trkpt>
      <trkpt lat="41.449143" lon="-3.089534">
        <ele>956.32</ele>
        <time>2021-03-27T23:27:12Z</time>
      </trkpt>
      <trkpt lat="41.44866" lon="-3.089875">
        <ele>957.18</ele>
        <time>2021-03-27T23:27:15Z</time>
      </trkpt>
      <trkpt lat="41.448452" lon="-3.090001">
        <ele>958.01</ele>
        <time>2021-03-27T23:27:18Z</time>
      </trkpt>
      <trkpt lat="41.448224" lon="-3.090022">
        <ele>958.28</ele>
        <time>2021-03-27T23:27:21Z</time>
      </trkpt>
      <trkpt lat="41.447958" lon="-3.089973">
        <ele>957.65</ele>
        <time>2021-03-27T23:27:24Z</time>
      </trkpt>
      <trkpt lat="41.447375" lon="-3.089911">
        <ele>960.26</ele>
        <time>2021-03-27T23:27:27Z</time>
      </trkpt>
      <trkpt lat="41.447101" lon="-3.08985">
        <ele>961.99</ele>
        <time>2021-03-27T23:27:30Z</time>
      </trkpt>
      <trkpt lat="41.446383" lon="-3.08958">
        <ele>962.5</ele>
        <time>2021-03-27T23:27:33Z</time>
      </trkpt>
      <trkpt lat="41.446026" lon="-3.08948">
        <ele>963.42</ele>
        <time>2021-03-27T23:27:36Z</time>
      </trkpt>
      <trkpt lat="41.445642" lon="-3.089467">
        <ele>964.76</ele>
        <time>2021-03-27T23:27:39Z</time>
      </trkpt>
      <trkpt lat="41.444903" lon="-3.089541">
        <ele>967.41</ele>
        <time>2021-03-27T23:27:41Z</time>
      </trkpt>
      <trkpt lat="41.4442" lon="-3.089516">
        <ele>964.67</ele>
        <time>2021-03-27T23:27:44Z</time>
      </trkpt>
      <trkpt lat="41.443536" lon="-3.089405">
        <ele>967.6</ele>
        <time>2021-03-27T23:27:47Z</time>
      </trkpt>
      <trkpt lat="41.443037" lon="-3.089233">
        <ele>972.16</ele>
        <time>2021-03-27T23:27:50Z</time>
      </trkpt>
      <trkpt lat="41.44215" lon="-3.088838">
        <ele>968.58</ele>
        <time>2021-03-27T23:27:53Z</time>
      </trkpt>
      <trkpt lat="41.441279" lon="-3.088482">
        <ele>967.75</ele>
        <time>2021-03-27T23:27:56Z</time>
      </trkpt>
      <trkpt lat="41.44031" lon="-3.088358">
        <ele>968.96</ele>
        <time>2021-03-27T23:27:59Z</time>
      </trkpt>
      <trkpt lat="41.438692" lon="-3.088045">
        <ele>971.14</ele>
        <time>2021-03-27T23:28:02Z</time>
      </trkpt>
      <trkpt lat="41.438268" lon="-3.088059">
        <ele>974.02</ele>
        <time>2021-03-27T23:28:05Z</time>
      </trkpt>
      <trkpt lat="41.438132" lon="-3.088122">
        <ele>974.3</ele>
        <time>2021-03-27T23:28:08Z</time>
      </trkpt>
      <trkpt lat="41.438" lon="-3.08825">
        <ele>974.36</ele>
        <time>2021-03-27T23:28:10Z</time>
      </trkpt>
      <trkpt lat="41.437777" lon="-3.088711">
        <ele>974.34</ele>
        <time>2021-03-27T23:28:13Z</time>
      </trkpt>
      <trkpt lat="41.43745" lon="-3.089538">
        <ele>970.34</ele>
        <time>2021-03-27T23:28:16Z</time>
      </trkpt>
      <trkpt lat="41.437321" lon="-3.089664">
        <ele>971.67</ele>
        <time>2021-03-27T23:28:19Z</time>
      </trkpt>
      <trkpt lat="41.436894" lon="-3.089818">
        <ele>973.74</ele>
        <time>2021-03-27T23:28:22Z</time>
      </trkpt>
      <trkpt lat="41.436329" lon="-3.090056">
        <ele>981.66</ele>
        <time>2021-03-27T23:28:25Z</time>
      </trkpt>
      <trkpt lat="41.436137" lon="-3.09006">
        <ele>983.8</ele>
        <time>2021-03-27T23:28:28Z</time>
      </trkpt>
      <trkpt lat="41.435434" lon="-3.089924">
        <ele>986.54</ele>
        <time>2021-03-27T23:28:31Z</time>
      </trkpt>
      <trkpt lat="41.434589" lon="-3.089832">
        <ele>986.73</ele>
        <time>2021-03-27T23:28:34Z</time>
      </trkpt>
      <trkpt lat="41.434367" lon="-3.089871">
        <ele>988.59</ele>
        <time>2021-03-27T23:28:37Z</time>
      </trkpt>
      <trkpt lat="41.433715" lon="-3.090119">
        <ele>990.2</ele>
        <time>2021-03-27T23:28:39Z</time>
      </trkpt>
      <trkpt lat="41.433392" lon="-3.090349">
        <ele>991.7</ele>
        <time>2021-03-27T23:28:42Z</time>
      </trkpt>
      <trkpt lat="41.432788" lon="-3.09059">
        <ele>989.9</ele>
        <time>2021-03-27T23:28:45Z</time>
      </trkpt>
      <trkpt lat="41.432349" lon="-3.090856">
        <ele>987.74</ele>
        <time>2021-03-27T23:28:48Z</time>
      </trkpt>
      <trkpt lat="41.431908" lon="-3.091047">
        <ele>989.61</ele>
        <time>2021-03-27T23:28:51Z</time>
      </trkpt>
      <trkpt lat="41.431523" lon="-3.091134">
        <ele>993.1</ele>
        <time>2021-03-27T23:28:54Z</time>
      </trkpt>
      <trkpt lat="41.430053" lon="-3.091086">
        <ele>999.27</ele>
        <time>2021-03-27T23:28:57Z</time>
      </trkpt>
      <trkpt lat="41.429599" lon="-3.090981">
        <ele>999.68</ele>
        <time>2021-03-27T23:29:00Z</time>
      </trkpt>
      <trkpt lat="41.429428" lon="-3.090982">
        <ele>999.61</ele>
        <time>2021-03-27T23:29:03Z</time>
      </trkpt>
      <trkpt lat="41.429161" lon="-3.091062">
        <ele>1000.17</ele>
        <time>2021-03-27T23:29:06Z</time>
      </trkpt>
      <trkpt lat="41.42901" lon="-3.091027">
        <ele>1000.79</ele>
        <time>2021-03-27T23:29:08Z</time>
      </trkpt>
      <trkpt lat="41.428921" lon="-3.090965">
        <ele>1000.61</ele>
        <time>2021-03-27T23:29:11Z</time>
      </trkpt>
      <trkpt lat="41.428219" lon="-3.089777">
        <ele>996.68</ele>
        <time>2021-03-27T23:29:14Z</time>
      </trkpt>
      <trkpt lat="41.428067" lon="-3.089587">
        <ele>996.77</ele>
        <time>2021-03-27T23:29:17Z</time>
      </trkpt>
      <trkpt lat="41.427687" lon="-3.089315">
        <ele>1002.67</ele>
        <time>2021-03-27T23:29:20Z</time>
      </trkpt>
      <trkpt lat="41.427354" lon="-3.08912">
        <ele>1004.32</ele>
        <time>2021-03-27T23:29:23Z</time>
      </trkpt>
      <trkpt lat="41.426665" lon="-3.088839">
        <ele>1008.59</ele>
        <time>2021-03-27T23:29:26Z</time>
      </trkpt>
      <trkpt lat="41.426424" lon="-3.088808">
        <ele>1008.55</ele>
        <time>2021-03-27T23:29:29Z</time>
      </trkpt>
      <trkpt lat="41.426074" lon="-3.088865">
        <ele>1008.4</ele>
        <time>2021-03-27T23:29:32Z</time>
      </trkpt>
      <trkpt lat="41.425823" lon="-3.088786">
        <ele>1006.41</ele>
        <time>2021-03-27T23:29:35Z</time>
      </trkpt>
      <trkpt lat="41.424532" lon="-3.08869">
        <ele>1007.46</ele>
        <time>2021-03-27T23:29:37Z</time>
      </trkpt>
      <trkpt lat="41.424398" lon="-3.088828">
        <ele>1008.67</ele>
        <time>2021-03-27T23:29:40Z</time>
      </trkpt>
      <trkpt lat="41.42414" lon="-3.089167">
        <ele>1009.82</ele>
        <time>2021-03-27T23:29:43Z</time>
      </trkpt>
      <trkpt lat="41.423954" lon="-3.08936">
        <ele>1009.86</ele>
        <time>2021-03-27T23:29:46Z</time>
      </trkpt>
      <trkpt lat="41.423476" lon="-3.089771">
        <ele>1015.95</ele>
        <time>2021-03-27T23:29:49Z</time>
      </trkpt>
      <trkpt lat="41.423062" lon="-3.089985">
        <ele>1018.93</ele>
        <time>2021-03-27T23:29:52Z</time>
      </trkpt>
      <trkpt lat="41.422986" lon="-3.089945">
        <ele>1018.9</ele>
        <time>2021-03-27T23:29:55Z</time>
      </trkpt>
      <trkpt lat="41.422947" lon="-3.089867">
        <ele>1018.63</ele>
        <time>2021-03-27T23:29:58Z</time>
      </trkpt>
      <trkpt lat="41.422867" lon="-3.089771">
        <ele>1017.89</ele>
        <time>2021-03-27T23:30:01Z</time>
      </trkpt>
      <trkpt lat="41.422796" lon="-3.089725">
        <ele>1017.15</ele>
        <time>2021-03-27T23:30:04Z</time>
      </trkpt>
      <trkpt lat="41.422519" lon="-3.089625">
        <ele>1013.72</ele>
        <time>2021-03-27T23:30:07Z</time>
      </trkpt>
      <trkpt lat="41.422414" lon="-3.089558">
        <ele>1013.38</ele>
        <time>2021-03-27T23:30:09Z</time>
      </trkpt>
      <trkpt lat="41.422336" lon="-3.08953">
        <ele>1013.6</ele>
        <time>2021-03-27T23:30:12Z</time>
      </trkpt>
      <trkpt lat="41.421723" lon="-3.08938">
        <ele>1010.46</ele>
        <time>2021-03-27T23:30:15Z</time>
      </trkpt>
      <trkpt lat="41.421561" lon="-3.089363">
        <ele>1008.66</ele>
        <time>2021-03-27T23:30:18Z</time>
      </trkpt>
      <trkpt lat="41.42145" lon="-3.089372">
        <ele>1007.46</ele>
        <time>2021-03-27T23:30:21Z</time>
      </trkpt>
      <trkpt lat="41.421354" lon="-3.089402">
        <ele>1006.65</ele>
        <time>2021-03-27T23:30:24Z</time>
      </trkpt>
      <trkpt lat="41.42128" lon="-3.08944">
        <ele>1005.99</ele>
        <time>2021-03-27T23:30:27Z</time>
      </trkpt>
      <trkpt lat="41.420932" lon="-3.089706">
        <ele>1005.88</ele>
        <time>2021-03-27T23:30:30Z</time>
      </trkpt>
      <trkpt lat="41.420804" lon="-3.089709">
        <ele>1005.22</ele>
        <time>2021-03-27T23:30:33Z</time>
      </trkpt>
      <trkpt lat="41.420725" lon="-3.089673">
        <ele>1005.81</ele>
        <time>2021-03-27T23:30:36Z</time>
      </trkpt>
      <trkpt lat="41.420683" lon="-3.089614">
        <ele>1005.84</ele>
        <time>2021-03-27T23:30:38Z</time>
      </trkpt>
      <trkpt lat="41.420622" lon="-3.089432">
        <ele>1005.28</ele>
        <time>2021-03-27T23:30:41Z</time>
      </trkpt>
      <trkpt lat="41.420616" lon="-3.088992">
        <ele>1004.85</ele>
        <time>2021-03-27T23:30:44Z</time>
      </trkpt>
      <trkpt lat="41.420603" lon="-3.088873">
        <ele>1004.44</ele>
        <time>2021-03-27T23:30:47Z</time>
      </trkpt>
      <trkpt lat="41.420552" lon="-3.088777">
        <ele>1003.39</ele>
        <time>2021-03-27T23:30:50Z</time>
      </trkpt>
      <trkpt lat="41.41989" lon="-3.088284">
        <ele>997.82</ele>
        <time>2021-03-27T23:30:53Z</time>
      </trkpt>
      <trkpt lat="41.419609" lon="-3.088031">
        <ele>998.47</ele>
        <time>2021-03-27T23:30:56Z</time>
      </trkpt>
      <trkpt lat="41.41878" lon="-3.086815">
        <ele>996.35</ele>
        <time>2021-03-27T23:30:59Z</time>
      </trkpt>
      <trkpt lat="41.418613" lon="-3.086634">
        <ele>996.98</ele>
        <time>2021-03-27T23:31:02Z</time>
      </trkpt>
      <trkpt lat="41.418461" lon="-3.086527">
        <ele>999.42</ele>
        <time>2021-03-27T23:31:05Z</time>
      </trkpt>
      <trkpt lat="41.418252" lon="-3.086428">
        <ele>1001.01</ele>
        <time>2021-03-27T23:31:07Z</time>
      </trkpt>
      <trkpt lat="41.417746" lon="-3.086328">
        <ele>1003.48</ele>
        <time>2021-03-27T23:31:10Z</time>
      </trkpt>
      <trkpt lat="41.416389" lon="-3.086162">
        <ele>1002.55</ele>
        <time>2021-03-27T23:31:13Z</time>
      </trkpt>
      <trkpt lat="41.416189" lon="-3.086104">
        <ele>1003.39</ele>
        <time>2021-03-27T23:31:16Z</time>
      </trkpt>
      <trkpt lat="41.4151" lon="-3.085456">
        <ele>1000.9</ele>
        <time>2021-03-27T23:31:19Z</time>
      </trkpt>
      <trkpt lat="41.414589" lon="-3.085241">
        <ele>1001.35</ele>
        <time>2021-03-27T23:31:22Z</time>
      </trkpt>
      <trkpt lat="41.413757" lon="-3.085088">
        <ele>1007.09</ele>
        <time>2021-03-27T23:31:25Z</time>
      </trkpt>
      <trkpt lat="41.412087" lon="-3.085004">
        <ele>1010.56</ele>
        <time>2021-03-27T23:31:28Z</time>
      </trkpt>
      <trkpt lat="41.41158" lon="-3.084981">
        <ele>1014.02</ele>
        <time>2021-03-27T23:31:31Z</time>
      </trkpt>
      <trkpt lat="41.411312" lon="-3.085081">
        <ele>1015.83</ele>
        <time>2021-03-27T23:31:34Z</time>
      </trkpt>
      <trkpt lat="41.410916" lon="-3.08544">
        <ele>1014.11</ele>
        <time>2021-03-27T23:31:36Z</time>
      </trkpt>
      <trkpt lat="41.410324" lon="-3.086014">
        <ele>1013.76</ele>
        <time>2021-03-27T23:31:39Z</time>
      </trkpt>
      <trkpt lat="41.410246" lon="-3.086037">
        <ele>1013.79</ele>
        <time>2021-03-27T23:31:42Z</time>
      </trkpt>
      <trkpt lat="41.410198" lon="-3.086022">
        <ele>1013.96</ele>
        <time>2021-03-27T23:31:45Z</time>
      </trkpt>
      <trkpt lat="41.410095" lon="-3.085945">
        <ele>1014.79</ele>
        <time>2021-03-27T23:31:48Z</time>
      </trkpt>
      <trkpt lat="41.409957" lon="-3.085819">
        <ele>1016.28</ele>
        <time>2021-03-27T23:31:51Z</time>
      </trkpt>
      <trkpt lat="41.409762" lon="-3.085788">
        <ele>1016.56</ele>
        <time>2021-03-27T23:31:54Z</time>
      </trkpt>
      <trkpt lat="41.409604" lon="-3.085718">
        <ele>1016.89</ele>
        <time>2021-03-27T23:31:57Z</time>
      </trkpt>
      <trkpt lat="41.409383" lon="-3.08557">
        <ele>1016.28</ele>
        <time>2021-03-27T23:32:00Z</time>
      </trkpt>
      <trkpt lat="41.409152" lon="-3.085286">
        <ele>1016.75</ele>
        <time>2021-03-27T23:32:03Z</time>
      </trkpt>
      <trkpt lat="41.408954" lon="-3.084997">
        <ele>1017.68</ele>
        <time>2021-03-27T23:32:05Z</time>
      </trkpt>
      <trkpt lat="41.408696" lon="-3.084432">
        <ele>1020.1</ele>
        <time>2021-03-27T23:32:08Z</time>
      </trkpt>
      <trkpt lat="41.408592" lon="-3.084282">
        <ele>1020.66</ele>
        <time>2021-03-27T23:32:11Z</time>
      </trkpt>
      <trkpt lat="41.408292" lon="-3.0842">
        <ele>1018.2</ele>
        <time>2021-03-27T23:32:14Z</time>
      </trkpt>
      <trkpt lat="41.408113" lon="-3.084206">
        <ele>1016.73</ele>
        <time>2021-03-27T23:32:17Z</time>
      </trkpt>
      <trkpt lat="41.408018" lon="-3.084253">
        <ele>1015.53</ele>
        <time>2021-03-27T23:32:20Z</time>
      </trkpt>
      <trkpt lat="41.40783" lon="-3.084388">
        <ele>1014.31</ele>
        <time>2021-03-27T23:32:23Z</time>
      </trkpt>
      <trkpt lat="41.407536" lon="-3.08469">
        <ele>1018.47</ele>
        <time>2021-03-27T23:32:26Z</time>
      </trkpt>
      <trkpt lat="41.407472" lon="-3.084727">
        <ele>1019.33</ele>
        <time>2021-03-27T23:32:29Z</time>
      </trkpt>
      <trkpt lat="41.407406" lon="-3.084714">
        <ele>1020.0</ele>
        <time>2021-03-27T23:32:32Z</time>
      </trkpt>
      <trkpt lat="41.407369" lon="-3.084644">
        <ele>1020.26</ele>
        <time>2021-03-27T23:32:35Z</time>
      </trkpt>
      <trkpt lat="41.407115" lon="-3.083779">
        <ele>1022.86</ele>
        <time>2021-03-27T23:32:37Z</time>
      </trkpt>
      <trkpt lat="41.407052" lon="-3.083343">
        <ele>1025.29</ele>
        <time>2021-03-27T23:32:40Z</time>
      </trkpt>
      <trkpt lat="41.407121" lon="-3.082784">
        <ele>1025.3</ele>
        <time>2021-03-27T23:32:43Z</time>
      </trkpt>
      <trkpt lat="41.407137" lon="-3.082508">
        <ele>1025.09</ele>
        <time>2021-03-27T23:32:46Z</time>
      </trkpt>
      <trkpt lat="41.407092" lon="-3.08234">
        <ele>1025.25</ele>
        <time>2021-03-27T23:32:49Z</time>
      </trkpt>
      <trkpt lat="41.40688" lon="-3.081958">
        <ele>1026.42</ele>
        <time>2021-03-27T23:32:52Z</time>
      </trkpt>
      <trkpt lat="41.406743" lon="-3.0818">
        <ele>1027.34</ele>
        <time>2021-03-27T23:32:55Z</time>
      </trkpt>
      <trkpt lat="41.406409" lon="-3.08169">
        <ele>1037.07</ele>
        <time>2021-03-27T23:32:58Z</time>
      </trkpt>
      <trkpt lat="41.406302" lon="-3.081702">
        <ele>1036.05</ele>
        <time>2021-03-27T23:33:01Z</time>
      </trkpt>
      <trkpt lat="41.406179" lon="-3.081759">
        <ele>1033.07</ele>
        <time>2021-03-27T23:33:04Z</time>
      </trkpt>
      <trkpt lat="41.405128" lon="-3.083078">
        <ele>1023.08</ele>
        <time>2021-03-27T23:33:06Z</time>
      </trkpt>
      <trkpt lat="41.404757" lon="-3.083411">
        <ele>1021.86</ele>
        <time>2021-03-27T23:33:09Z</time>
      </trkpt>
      <trkpt lat="41.404627" lon="-3.083505">
        <ele>1022.53</ele>
        <time>2021-03-27T23:33:12Z</time>
      </trkpt>
      <trkpt lat="41.404531" lon="-3.083542">
        <ele>1022.55</ele>
        <time>2021-03-27T23:33:15Z</time>
      </trkpt>
      <trkpt lat="41.404264" lon="-3.083552">
        <ele>1022.28</ele>
        <time>2021-03-27T23:33:18Z</time>
      </trkpt>
      <trkpt lat="41.403654" lon="-3.083529">
        <ele>1020.47</ele>
        <time>2021-03-27T23:33:21Z</time>
      </trkpt>
      <trkpt lat="41.403545" lon="-3.083542">
        <ele>1021.93</ele>
        <time>2021-03-27T23:33:24Z</time>
      </trkpt>
      <trkpt lat="41.40346" lon="-3.083593">
        <ele>1023.39</ele>
        <time>2021-03-27T23:33:27Z</time>
      </trkpt>
      <trkpt lat="41.403424" lon="-3.083695">
        <ele>1023.83</ele>
        <time>2021-03-27T23:33:30Z</time>
      </trkpt>
      <trkpt lat="41.403396" lon="-3.084088">
        <ele>1023.32</ele>
        <time>2021-03-27T23:33:33Z</time>
      </trkpt>
      <trkpt lat="41.403408" lon="-3.084642">
        <ele>1023.52</ele>
        <time>2021-03-27T23:33:35Z</time>
      </trkpt>
      <trkpt lat="41.403507" lon="-3.085651">
        <ele>1027.66</ele>
        <time>2021-03-27T23:33:38Z</time>
      </trkpt>
      <trkpt lat="41.403513" lon="-3.085804">
        <ele>1027.36</ele>
        <time>2021-03-27T23:33:41Z</time>
      </trkpt>
      <trkpt lat="41.403487" lon="-3.086014">
        <ele>1028.05</ele>
        <time>2021-03-27T23:33:44Z</time>
      </trkpt>
      <trkpt lat="41.403423" lon="-3.086189">
        <ele>1029.35</ele>
        <time>2021-03-27T23:33:47Z</time>
      </trkpt>
      <trkpt lat="41.403328" lon="-3.086328">
        <ele>1031.1</ele>
        <time>2021-03-27T23:33:50Z</time>
      </trkpt>
      <trkpt lat="41.403235" lon="-3.08642">
        <ele>1032.09</ele>
        <time>2021-03-27T23:33:53Z</time>
      </trkpt>
      <trkpt lat="41.402736" lon="-3.086759">
        <ele>1034.34</ele>
        <time>2021-03-27T23:33:56Z</time>
      </trkpt>
      <trkpt lat="41.402639" lon="-3.086853">
        <ele>1034.7</ele>
        <time>2021-03-27T23:33:59Z</time>
      </trkpt>
      <trkpt lat="41.402479" lon="-3.087244">
        <ele>1042.18</ele>
        <time>2021-03-27T23:34:02Z</time>
      </trkpt>
      <trkpt lat="41.402425" lon="-3.087331">
        <ele>1043.29</ele>
        <time>2021-03-27T23:34:04Z</time>
      </trkpt>
      <trkpt lat="41.402343" lon="-3.087401">
        <ele>1043.32</ele>
        <time>2021-03-27T23:34:07Z</time>
      </trkpt>
      <trkpt lat="41.402264" lon="-3.087423">
        <ele>1042.2</ele>
        <time>2021-03-27T23:34:10Z</time>
      </trkpt>
      <trkpt lat="41.40196" lon="-3.087446">
        <ele>1041.83</ele>
        <time>2021-03-27T23:34:13Z</time>
      </trkpt>
      <trkpt lat="41.401093" lon="-3.0874">
        <ele>1045.35</ele>
        <time>2021-03-27T23:34:16Z</time>
      </trkpt>
      <trkpt lat="41.400232" lon="-3.087629">
        <ele>1046.78</ele>
        <time>2021-03-27T23:34:19Z</time>
      </trkpt>
      <trkpt lat="41.399152" lon="-3.087959">
        <ele>1046.13</ele>
        <time>2021-03-27T23:34:22Z</time>
      </trkpt>
      <trkpt lat="41.397987" lon="-3.08818">
        <ele>1039.99</ele>
        <time>2021-03-27T23:34:25Z</time>
      </trkpt>
      <trkpt lat="41.397622" lon="-3.088358">
        <ele>1039.7</ele>
        <time>2021-03-27T23:34:28Z</time>
      </trkpt>
      <trkpt lat="41.397269" lon="-3.08867">
        <ele>1041.13</ele>
        <time>2021-03-27T23:34:31Z</time>
      </trkpt>
      <trkpt lat="41.397163" lon="-3.088734">
        <ele>1042.21</ele>
        <time>2021-03-27T23:34:34Z</time>
      </trkpt>
      <trkpt lat="41.39704" lon="-3.088732">
        <ele>1042.17</ele>
        <time>2021-03-27T23:34:36Z</time>
      </trkpt>
      <trkpt lat="41.396184" lon="-3.088609">
        <ele>1036.24</ele>
        <time>2021-03-27T23:34:39Z</time>
      </trkpt>
      <trkpt lat="41.394978" lon="-3.088578">
        <ele>1040.35</ele>
        <time>2021-03-27T23:34:42Z</time>
      </trkpt>
      <trkpt lat="41.39418" lon="-3.088923">
        <ele>1045.87</ele>
        <time>2021-03-27T23:34:45Z</time>
      </trkpt>
      <trkpt lat="41.394039" lon="-3.088959">
        <ele>1047.11</ele>
        <time>2021-03-27T23:34:48Z</time>
      </trkpt>
      <trkpt lat="41.393864" lon="-3.088958">
        <ele>1047.78</ele>
        <time>2021-03-27T23:34:51Z</time>
      </trkpt>
      <trkpt lat="41.392739" lon="-3.088823">
        <ele>1044.27</ele>
        <time>2021-03-27T23:34:54Z</time>
      </trkpt>
      <trkpt lat="41.392366" lon="-3.088831">
        <ele>1046.04</ele>
        <time>2021-03-27T23:34:57Z</time>
      </trkpt>
      <trkpt lat="41.391941" lon="-3.088877">
        <ele>1045.9</ele>
        <time>2021-03-27T23:35:00Z</time>
      </trkpt>
      <trkpt lat="41.390442" lon="-3.089114">
        <ele>1048.32</ele>
        <time>2021-03-27T23:35:03Z</time>
      </trkpt>
      <trkpt lat="41.390235" lon="-3.089168">
        <ele>1047.87</ele>
        <time>2021-03-27T23:35:05Z</time>
      </trkpt>
      <trkpt lat="41.389612" lon="-3.089489">
        <ele>1050.85</ele>
        <time>2021-03-27T23:35:08Z</time>
      </trkpt>
      <trkpt lat="41.388917" lon="-3.089938">
        <ele>1051.24</ele>
        <time>2021-03-27T23:35:11Z</time>
      </trkpt>
      <trkpt lat="41.387952" lon="-3.090446">
        <ele>1053.41</ele>
        <time>2021-03-27T23:35:14Z</time>
      </trkpt>
      <trkpt lat="41.387638" lon="-3.090659">
        <ele>1054.47</ele>
        <time>2021-03-27T23:35:17Z</time>
      </trkpt>
      <trkpt lat="41.387268" lon="-3.090999">
        <ele>1054.79</ele>
        <time>2021-03-27T23:35:20Z</time>
      </trkpt>
      <trkpt lat="41.38546" lon="-3.092515">
        <ele>1062.18</ele>
        <time>2021-03-27T23:35:23Z</time>
      </trkpt>
      <trkpt lat="41.384713" lon="-3.093573">
        <ele>1071.1</ele>
        <time>2021-03-27T23:35:27Z</time>
      </trkpt>
      <trkpt lat="41.383116" lon="-3.096069">
        <ele>1108.75</ele>
        <time>2021-03-27T23:35:31Z</time>
      </trkpt>
      <trkpt lat="41.383027" lon="-3.096434">
        <ele>1111.02</ele>
        <time>2021-03-27T23:35:34Z</time>
      </trkpt>
      <trkpt lat="41.382874" lon="-3.097281">
        <ele>1126.11</ele>
        <time>2021-03-27T23:35:38Z</time>
      </trkpt>
      <trkpt lat="41.382641" lon="-3.10006">
        <ele>1145.61</ele>
        <time>2021-03-27T23:35:42Z</time>
      </trkpt>
      <trkpt lat="41.382552" lon="-3.100747">
        <ele>1155.93</ele>
        <time>2021-03-27T23:35:46Z</time>
      </trkpt>
      <trkpt lat="41.382407" lon="-3.101144">
        <ele>1162.67</ele>
        <time>2021-03-27T23:35:49Z</time>
      </trkpt>
      <trkpt lat="41.382238" lon="-3.10139">
        <ele>1165.71</ele>
        <time>2021-03-27T23:35:53Z</time>
      </trkpt>
      <trkpt lat="41.381433" lon="-3.102024">
        <ele>1173.28</ele>
        <time>2021-03-27T23:35:57Z</time>
      </trkpt>
      <trkpt lat="41.380981" lon="-3.102337">
        <ele>1178.12</ele>
        <time>2021-03-27T23:36:01Z</time>
      </trkpt>
      <trkpt lat="41.380618" lon="-3.102669">
        <ele>1180.65</ele>
        <time>2021-03-27T23:36:04Z</time>
      </trkpt>
      <trkpt lat="41.379725" lon="-3.104117">
        <ele>1186.84</ele>
        <time>2021-03-27T23:36:08Z</time>
      </trkpt>
      <trkpt lat="41.379338" lon="-3.104525">
        <ele>1190.03</ele>
        <time>2021-03-27T23:36:12Z</time>
      </trkpt>
      <trkpt lat="41.379041" lon="-3.104804">
        <ele>1191.14</ele>
        <time>2021-03-27T23:36:16Z</time>
      </trkpt>
      <trkpt lat="41.378268" lon="-3.105459">
        <ele>1191.91</ele>
        <time>2021-03-27T23:36:20Z</time>
      </trkpt>
      <trkpt lat="41.377872" lon="-3.105858">
        <ele>1191.37</ele>
        <time>2021-03-27T23:36:23Z</time>
      </trkpt>
      <trkpt lat="41.377566" lon="-3.106266">
        <ele>1191.89</ele>
        <time>2021-03-27T23:36:27Z</time>
      </trkpt>
      <trkpt lat="41.377115" lon="-3.107285">
        <ele>1196.82</ele>
        <time>2021-03-27T23:36:31Z</time>
      </trkpt>
      <trkpt lat="41.376914" lon="-3.107821">
        <ele>1196.18</ele>
        <time>2021-03-27T23:36:35Z</time>
      </trkpt>
      <trkpt lat="41.376689" lon="-3.108304">
        <ele>1195.18</ele>
        <time>2021-03-27T23:36:38Z</time>
      </trkpt>
      <trkpt lat="41.376342" lon="-3.108841">
        <ele>1199.05</ele>
        <time>2021-03-27T23:36:42Z</time>
      </trkpt>
      <trkpt lat="41.375948" lon="-3.109216">
        <ele>1202.96</ele>
        <time>2021-03-27T23:36:46Z</time>
      </trkpt>
      <trkpt lat="41.375513" lon="-3.109495">
        <ele>1202.6</ele>
        <time>2021-03-27T23:36:50Z</time>
      </trkpt>
      <trkpt lat="41.375135" lon="-3.109677">
        <ele>1202.86</ele>
        <time>2021-03-27T23:36:53Z</time>
      </trkpt>
      <trkpt lat="41.374587" lon="-3.109785">
        <ele>1206.59</ele>
        <time>2021-03-27T23:36:57Z</time>
      </trkpt>
      <trkpt lat="41.373586" lon="-3.110023">
        <ele>1206.01</ele>
        <time>2021-03-27T23:37:01Z</time>
      </trkpt>
      <trkpt lat="41.373232" lon="-3.110216">
        <ele>1206.78</ele>
        <time>2021-03-27T23:37:05Z</time>
      </trkpt>
      <trkpt lat="41.372395" lon="-3.110839">
        <ele>1211.4</ele>
        <time>2021-03-27T23:37:09Z</time>
      </trkpt>
      <trkpt lat="41.371292" lon="-3.111697">
        <ele>1210.6</ele>
        <time>2021-03-27T23:37:12Z</time>
      </trkpt>
      <trkpt lat="41.370288" lon="-3.112727">
        <ele>1215.79</ele>
        <time>2021-03-27T23:37:16Z</time>
      </trkpt>
      <trkpt lat="41.369298" lon="-3.11381">
        <ele>1216.24</ele>
        <time>2021-03-27T23:37:20Z</time>
      </trkpt>
      <trkpt lat="41.368557" lon="-3.114637">
        <ele>1219.42</ele>
        <time>2021-03-27T23:37:24Z</time>
      </trkpt>
      <trkpt lat="41.368177" lon="-3.115183">
        <ele>1219.09</ele>
        <time>2021-03-27T23:37:27Z</time>
      </trkpt>
      <trkpt lat="41.367976" lon="-3.11554">
        <ele>1219.66</ele>
        <time>2021-03-27T23:37:31Z</time>
      </trkpt>
      <trkpt lat="41.367659" lon="-3.116232">
        <ele>1219.86</ele>
        <time>2021-03-27T23:37:35Z</time>
      </trkpt>
      <trkpt lat="41.367131" lon="-3.117888">
        <ele>1221.54</ele>
        <time>2021-03-27T23:37:39Z</time>
      </trkpt>
      <trkpt lat="41.366808" lon="-3.118425">
        <ele>1223.16</ele>
        <time>2021-03-27T23:37:43Z</time>
      </trkpt>
      <trkpt lat="41.366448" lon="-3.118848">
        <ele>1225.52</ele>
        <time>2021-03-27T23:37:46Z</time>
      </trkpt>
      <trkpt lat="41.366039" lon="-3.119181">
        <ele>1228.01</ele>
        <time>2021-03-27T23:37:50Z</time>
      </trkpt>
      <trkpt lat="41.365526" lon="-3.119368">
        <ele>1228.41</ele>
        <time>2021-03-27T23:37:54Z</time>
      </trkpt>
      <trkpt lat="41.364763" lon="-3.119522">
        <ele>1226.46</ele>
        <time>2021-03-27T23:37:58Z</time>
      </trkpt>
      <trkpt lat="41.364373" lon="-3.119669">
        <ele>1226.59</ele>
        <time>2021-03-27T23:38:01Z</time>
      </trkpt>
      <trkpt lat="41.364091" lon="-3.119831">
        <ele>1226.98</ele>
        <time>2021-03-27T23:38:05Z</time>
      </trkpt>
      <trkpt lat="41.363762" lon="-3.120116">
        <ele>1228.92</ele>
        <time>2021-03-27T23:38:09Z</time>
      </trkpt>
      <trkpt lat="41.363438" lon="-3.120433">
        <ele>1230.97</ele>
        <time>2021-03-27T23:38:13Z</time>
      </trkpt>
      <trkpt lat="41.363109" lon="-3.120693">
        <ele>1232.9</ele>
        <time>2021-03-27T23:38:16Z</time>
      </trkpt>
      <trkpt lat="41.362669" lon="-3.120856">
        <ele>1234.16</ele>
        <time>2021-03-27T23:38:20Z</time>
      </trkpt>
      <trkpt lat="41.362212" lon="-3.120823">
        <ele>1235.04</ele>
        <time>2021-03-27T23:38:24Z</time>
      </trkpt>
      <trkpt lat="41.361803" lon="-3.120612">
        <ele>1236.32</ele>
        <time>2021-03-27T23:38:28Z</time>
      </trkpt>
      <trkpt lat="41.360708" lon="-3.119547">
        <ele>1240.58</ele>
        <time>2021-03-27T23:38:32Z</time>
      </trkpt>
      <trkpt lat="41.360048" lon="-3.118953">
        <ele>1239.14</ele>
        <time>2021-03-27T23:38:35Z</time>
      </trkpt>
      <trkpt lat="41.358457" lon="-3.117795">
        <ele>1246.16</ele>
        <time>2021-03-27T23:38:39Z</time>
      </trkpt>
      <trkpt lat="41.358217" lon="-3.117639">
        <ele>1247.26</ele>
        <time>2021-03-27T23:38:43Z</time>
      </trkpt>
      <trkpt lat="41.357967" lon="-3.117514">
        <ele>1249.07</ele>
        <time>2021-03-27T23:38:47Z</time>
      </trkpt>
      <trkpt lat="41.357777" lon="-3.117444">
        <ele>1250.61</ele>
        <time>2021-03-27T23:38:50Z</time>
      </trkpt>
      <trkpt lat="41.357378" lon="-3.117387">
        <ele>1252.23</ele>
        <time>2021-03-27T23:38:54Z</time>
      </trkpt>
      <trkpt lat="41.357166" lon="-3.117393">
        <ele>1250.12</ele>
        <time>2021-03-27T23:38:58Z</time>
      </trkpt>
      <trkpt lat="41.356945" lon="-3.117433">
        <ele>1247.54</ele>
        <time>2021-03-27T23:39:02Z</time>
      </trkpt>
      <trkpt lat="41.356577" lon="-3.117553">
        <ele>1244.93</ele>
        <time>2021-03-27T23:39:05Z</time>
      </trkpt>
      <trkpt lat="41.356432" lon="-3.117633">
        <ele>1244.75</ele>
        <time>2021-03-27T23:39:09Z</time>
      </trkpt>
      <trkpt lat="41.356087" lon="-3.11788">
        <ele>1244.5</ele>
        <time>2021-03-27T23:39:13Z</time>
      </trkpt>
      <trkpt lat="41.355731" lon="-3.118251">
        <ele>1240.53</ele>
        <time>2021-03-27T23:39:17Z</time>
      </trkpt>
      <trkpt lat="41.354784" lon="-3.119488">
        <ele>1228.87</ele>
        <time>2021-03-27T23:39:21Z</time>
      </trkpt>
      <trkpt lat="41.354596" lon="-3.119704">
        <ele>1228.13</ele>
        <time>2021-03-27T23:39:24Z</time>
      </trkpt>
      <trkpt lat="41.354368" lon="-3.119941">
        <ele>1225.63</ele>
        <time>2021-03-27T23:39:28Z</time>
      </trkpt>
      <trkpt lat="41.353841" lon="-3.12041">
        <ele>1218.7</ele>
        <time>2021-03-27T23:39:32Z</time>
      </trkpt>
      <trkpt lat="41.353551" lon="-3.120717">
        <ele>1214.08</ele>
        <time>2021-03-27T23:39:36Z</time>
      </trkpt>
      <trkpt lat="41.353199" lon="-3.121185">
        <ele>1215.1</ele>
        <time>2021-03-27T23:39:39Z</time>
      </trkpt>
      <trkpt lat="41.352804" lon="-3.121825">
        <ele>1211.15</ele>
        <time>2021-03-27T23:39:43Z</time>
      </trkpt>
      <trkpt lat="41.352564" lon="-3.122136">
        <ele>1210.56</ele>
        <time>2021-03-27T23:39:47Z</time>
      </trkpt>
      <trkpt lat="41.352417" lon="-3.122285">
        <ele>1211.06</ele>
        <time>2021-03-27T23:39:51Z</time>
      </trkpt>
      <trkpt lat="41.352098" lon="-3.122535">
        <ele>1211.96</ele>
        <time>2021-03-27T23:39:55Z</time>
      </trkpt>
      <trkpt lat="41.351779" lon="-3.122663">
        <ele>1212.49</ele>
        <time>2021-03-27T23:39:58Z</time>
      </trkpt>
      <trkpt lat="41.351654" lon="-3.122691">
        <ele>1212.16</ele>
        <time>2021-03-27T23:40:02Z</time>
      </trkpt>
      <trkpt lat="41.350941" lon="-3.122675">
        <ele>1211.08</ele>
        <time>2021-03-27T23:40:06Z</time>
      </trkpt>
      <trkpt lat="41.349663" lon="-3.122436">
        <ele>1213.36</ele>
        <time>2021-03-27T23:40:10Z</time>
      </trkpt>
      <trkpt lat="41.349106" lon="-3.122413">
        <ele>1213.13</ele>
        <time>2021-03-27T23:40:13Z</time>
      </trkpt>
      <trkpt lat="41.348108" lon="-3.122483">
        <ele>1208.57</ele>
        <time>2021-03-27T23:40:17Z</time>
      </trkpt>
      <trkpt lat="41.346812" lon="-3.122547">
        <ele>1205.63</ele>
        <time>2021-03-27T23:40:21Z</time>
      </trkpt>
      <trkpt lat="41.346196" lon="-3.1225">
        <ele>1202.61</ele>
        <time>2021-03-27T23:40:25Z</time>
      </trkpt>
      <trkpt lat="41.346066" lon="-3.122471">
        <ele>1200.88</ele>
        <time>2021-03-27T23:40:28Z</time>
      </trkpt>
      <trkpt lat="41.343523" lon="-3.121508">
        <ele>1184.34</ele>
        <time>2021-03-27T23:40:32Z</time>
      </trkpt>
      <trkpt lat="41.34191" lon="-3.120943">
        <ele>1182.68</ele>
        <time>2021-03-27T23:40:36Z</time>
      </trkpt>
      <trkpt lat="41.34174" lon="-3.120904">
        <ele>1180.98</ele>
        <time>2021-03-27T23:40:40Z</time>
      </trkpt>
      <trkpt lat="41.341597" lon="-3.120912">
        <ele>1179.89</ele>
        <time>2021-03-27T23:40:44Z</time>
      </trkpt>
      <trkpt lat="41.341426" lon="-3.120996">
        <ele>1178.7</ele>
        <time>2021-03-27T23:40:47Z</time>
      </trkpt>
      <trkpt lat="41.341134" lon="-3.121243">
        <ele>1177.56</ele>
        <time>2021-03-27T23:40:51Z</time>
      </trkpt>
      <trkpt lat="41.340858" lon="-3.121388">
        <ele>1177.91</ele>
        <time>2021-03-27T23:40:55Z</time>
      </trkpt>
      <trkpt lat="41.33988" lon="-3.12147">
        <ele>1177.86</ele>
        <time>2021-03-27T23:40:59Z</time>
      </trkpt>
      <trkpt lat="41.339972" lon="-3.122201">
        <ele>1182.75</ele>
        <time>2021-03-27T23:41:03Z</time>
      </trkpt>
      <trkpt lat="41.34001" lon="-3.122663">
        <ele>1182.49</ele>
        <time>2021-03-27T23:41:07Z</time>
      </trkpt>
      <trkpt lat="41.340029" lon="-3.123123">
        <ele>1181.42</ele>
        <time>2021-03-27T23:41:11Z</time>
      </trkpt>
      <trkpt lat="41.340015" lon="-3.124183">
        <ele>1176.99</ele>
        <time>2021-03-27T23:41:15Z</time>
      </trkpt>
      <trkpt lat="41.339973" lon="-3.124913">
        <ele>1175.43</ele>
        <time>2021-03-27T23:41:19Z</time>
      </trkpt>
      <trkpt lat="41.339923" lon="-3.125208">
        <ele>1175.17</ele>
        <time>2021-03-27T23:41:23Z</time>
      </trkpt>
      <trkpt lat="41.33984" lon="-3.125569">
        <ele>1173.93</ele>
        <time>2021-03-27T23:41:27Z</time>
      </trkpt>
      <trkpt lat="41.339401" lon="-3.126951">
        <ele>1174.51</ele>
        <time>2021-03-27T23:41:31Z</time>
      </trkpt>
      <trkpt lat="41.339274" lon="-3.127457">
        <ele>1172.26</ele>
        <time>2021-03-27T23:41:35Z</time>
      </trkpt>
      <trkpt lat="41.339232" lon="-3.127726">
        <ele>1170.9</ele>
        <time>2021-03-27T23:41:39Z</time>
      </trkpt>
      <trkpt lat="41.339213" lon="-3.127976">
        <ele>1170.38</ele>
        <time>2021-03-27T23:41:43Z</time>
      </trkpt>
      <trkpt lat="41.339201" lon="-3.12857">
        <ele>1170.26</ele>
        <time>2021-03-27T23:41:47Z</time>
      </trkpt>
      <trkpt lat="41.339188" lon="-3.13028">
        <ele>1169.23</ele>
        <time>2021-03-27T23:41:51Z</time>
      </trkpt>
      <trkpt lat="41.339215" lon="-3.130619">
        <ele>1170.07</ele>
        <time>2021-03-27T23:41:55Z</time>
      </trkpt>
      <trkpt lat="41.339316" lon="-3.131182">
        <ele>1167.6</ele>
        <time>2021-03-27T23:41:59Z</time>
      </trkpt>
      <trkpt lat="41.340482" lon="-3.134677">
        <ele>1156.26</ele>
        <time>2021-03-27T23:42:03Z</time>
      </trkpt>
      <trkpt lat="41.340649" lon="-3.135037">
        <ele>1153.35</ele>
        <time>2021-03-27T23:42:07Z</time>
      </trkpt>
      <trkpt lat="41.34081" lon="-3.135302">
        <ele>1151.91</ele>
        <time>2021-03-27T23:42:11Z</time>
      </trkpt>
      <trkpt lat="41.341057" lon="-3.135613">
        <ele>1151.96</ele>
        <time>2021-03-27T23:42:16Z</time>
      </trkpt>
      <trkpt lat="41.341314" lon="-3.135849">
        <ele>1152.73</ele>
        <time>2021-03-27T23:42:20Z</time>
      </trkpt>
      <trkpt lat="41.345065" lon="-3.13851">
        <ele>1137.21</ele>
        <time>2021-03-27T23:42:24Z</time>
      </trkpt>
      <trkpt lat="41.345428" lon="-3.138696">
        <ele>1138.38</ele>
        <time>2021-03-27T23:42:28Z</time>
      </trkpt>
      <trkpt lat="41.345692" lon="-3.13878">
        <ele>1138.68</ele>
        <time>2021-03-27T23:42:32Z</time>
      </trkpt>
      <trkpt lat="41.347782" lon="-3.139354">
        <ele>1129.02</ele>
        <time>2021-03-27T23:42:36Z</time>
      </trkpt>
      <trkpt lat="41.348127" lon="-3.139507">
        <ele>1130.0</ele>
        <time>2021-03-27T23:42:40Z</time>
      </trkpt>
      <trkpt lat="41.3484" lon="-3.139684">
        <ele>1129.42</ele>
        <time>2021-03-27T23:42:44Z</time>
      </trkpt>
      <trkpt lat="41.348658" lon="-3.139914">
        <ele>1128.31</ele>
        <time>2021-03-27T23:42:48Z</time>
      </trkpt>
      <trkpt lat="41.348822" lon="-3.140108">
        <ele>1127.61</ele>
        <time>2021-03-27T23:42:52Z</time>
      </trkpt>
      <trkpt lat="41.349076" lon="-3.140478">
        <ele>1126.95</ele>
        <time>2021-03-27T23:42:56Z</time>
      </trkpt>
      <trkpt lat="41.349269" lon="-3.14089">
        <ele>1127.08</ele>
        <time>2021-03-27T23:43:00Z</time>
      </trkpt>
      <trkpt lat="41.349423" lon="-3.141367">
        <ele>1127.92</ele>
        <time>2021-03-27T23:43:04Z</time>
      </trkpt>
      <trkpt lat="41.349493" lon="-3.14176">
        <ele>1127.72</ele>
        <time>2021-03-27T23:43:08Z</time>
      </trkpt>
      <trkpt lat="41.34952" lon="-3.142113">
        <ele>1127.71</ele>
        <time>2021-03-27T23:43:12Z</time>
      </trkpt>
      <trkpt lat="41.34952" lon="-3.14246">
        <ele>1129.09</ele>
        <time>2021-03-27T23:43:16Z</time>
      </trkpt>
      <trkpt lat="41.349486" lon="-3.142794">
        <ele>1131.06</ele>
        <time>2021-03-27T23:43:20Z</time>
      </trkpt>
      <trkpt lat="41.349423" lon="-3.143154">
        <ele>1132.0</ele>
        <time>2021-03-27T23:43:24Z</time>
      </trkpt>
      <trkpt lat="41.349357" lon="-3.143404">
        <ele>1131.74</ele>
        <time>2021-03-27T23:43:28Z</time>
      </trkpt>
      <trkpt lat="41.349193" lon="-3.143836">
        <ele>1130.11</ele>
        <time>2021-03-27T23:43:32Z</time>
      </trkpt>
      <trkpt lat="41.347183" lon="-3.147997">
        <ele>1133.86</ele>
        <time>2021-03-27T23:43:36Z</time>
      </trkpt>
      <trkpt lat="41.346999" lon="-3.148411">
        <ele>1134.56</ele>
        <time>2021-03-27T23:43:40Z</time>
      </trkpt>
      <trkpt lat="41.346862" lon="-3.148811">
        <ele>1136.08</ele>
        <time>2021-03-27T23:43:45Z</time>
      </trkpt>
      <trkpt lat="41.346792" lon="-3.149082">
        <ele>1135.62</ele>
        <time>2021-03-27T23:43:49Z</time>
      </trkpt>
      <trkpt lat="41.346717" lon="-3.149573">
        <ele>1135.18</ele>
        <time>2021-03-27T23:43:53Z</time>
      </trkpt>
      <trkpt lat="41.346702" lon="-3.149796">
        <ele>1135.43</ele>
        <time>2021-03-27T23:43:57Z</time>
      </trkpt>
      <trkpt lat="41.346676" lon="-3.151682">
        <ele>1141.2</ele>
        <time>2021-03-27T23:44:01Z</time>
      </trkpt>
      <trkpt lat="41.346696" lon="-3.152324">
        <ele>1144.64</ele>
        <time>2021-03-27T23:44:05Z</time>
      </trkpt>
      <trkpt lat="41.346742" lon="-3.152732">
        <ele>1145.77</ele>
        <time>2021-03-27T23:44:09Z</time>
      </trkpt>
      <trkpt lat="41.346991" lon="-3.154151">
        <ele>1151.28</ele>
        <time>2021-03-27T23:44:13Z</time>
      </trkpt>
      <trkpt lat="41.347987" lon="-3.159544">
        <ele>1154.68</ele>
        <time>2021-03-27T23:44:17Z</time>
      </trkpt>
      <trkpt lat="41.348088" lon="-3.159865">
        <ele>1156.52</ele>
        <time>2021-03-27T23:44:21Z</time>
      </trkpt>
      <trkpt lat="41.348228" lon="-3.160127">
        <ele>1158.49</ele>
        <time>2021-03-27T23:44:25Z</time>
      </trkpt>
      <trkpt lat="41.348385" lon="-3.160364">
        <ele>1160.0</ele>
        <time>2021-03-27T23:44:29Z</time>
      </trkpt>
      <trkpt lat="41.349566" lon="-3.162049">
        <ele>1162.41</ele>
        <time>2021-03-27T23:44:33Z</time>
      </trkpt>
      <trkpt lat="41.349775" lon="-3.162454">
        <ele>1160.71</ele>
        <time>2021-03-27T23:44:37Z</time>
      </trkpt>
      <trkpt lat="41.350145" lon="-3.163271">
        <ele>1166.49</ele>
        <time>2021-03-27T23:44:41Z</time>
      </trkpt>
      <trkpt lat="41.350415" lon="-3.163806">
        <ele>1170.41</ele>
        <time>2021-03-27T23:44:45Z</time>
      </trkpt>
      <trkpt lat="41.351295" lon="-3.16517">
        <ele>1180.09</ele>
        <time>2021-03-27T23:44:49Z</time>
      </trkpt>
      <trkpt lat="41.35176" lon="-3.165944">
        <ele>1182.59</ele>
        <time>2021-03-27T23:44:53Z</time>
      </trkpt>
      <trkpt lat="41.353402" lon="-3.169405">
        <ele>1182.38</ele>
        <time>2021-03-27T23:44:57Z</time>
      </trkpt>
      <trkpt lat="41.353745" lon="-3.170077">
        <ele>1180.83</ele>
        <time>2021-03-27T23:45:01Z</time>
      </trkpt>
      <trkpt lat="41.354382" lon="-3.170891">
        <ele>1181.95</ele>
        <time>2021-03-27T23:45:05Z</time>
      </trkpt>
      <trkpt lat="41.356331" lon="-3.173269">
        <ele>1178.36</ele>
        <time>2021-03-27T23:45:09Z</time>
      </trkpt>
      <trkpt lat="41.356592" lon="-3.173644">
        <ele>1177.18</ele>
        <time>2021-03-27T23:45:14Z</time>
      </trkpt>
      <trkpt lat="41.356921" lon="-3.174328">
        <ele>1175.66</ele>
        <time>2021-03-27T23:45:18Z</time>
      </trkpt>
      <trkpt lat="41.35785" lon="-3.176635">
        <ele>1171.69</ele>
        <time>2021-03-27T23:45:22Z</time>
      </trkpt>
      <trkpt lat="41.358032" lon="-3.177231">
        <ele>1172.17</ele>
        <time>2021-03-27T23:45:26Z</time>
      </trkpt>
      <trkpt lat="41.358259" lon="-3.177866">
        <ele>1172.73</ele>
        <time>2021-03-27T23:45:30Z</time>
      </trkpt>
      <trkpt lat="41.359754" lon="-3.181417">
        <ele>1166.58</ele>
        <time>2021-03-27T23:45:34Z</time>
      </trkpt>
      <trkpt lat="41.360134" lon="-3.18209">
        <ele>1166.02</ele>
        <time>2021-03-27T23:45:38Z</time>
      </trkpt>
      <trkpt lat="41.360446" lon="-3.182516">
        <ele>1164.37</ele>
        <time>2021-03-27T23:45:42Z</time>
      </trkpt>
      <trkpt lat="41.3607" lon="-3.182772">
        <ele>1164.0</ele>
        <time>2021-03-27T23:45:46Z</time>
      </trkpt>
      <trkpt lat="41.361004" lon="-3.183016">
        <ele>1165.23</ele>
        <time>2021-03-27T23:45:50Z</time>
      </trkpt>
      <trkpt lat="41.361223" lon="-3.183225">
        <ele>1165.39</ele>
        <time>2021-03-27T23:45:54Z</time>
      </trkpt>
      <trkpt lat="41.362135" lon="-3.184295">
        <ele>1164.9</ele>
        <time>2021-03-27T23:45:58Z</time>
      </trkpt>
      <trkpt lat="41.362254" lon="-3.18452">
        <ele>1167.15</ele>
        <time>2021-03-27T23:46:02Z</time>
      </trkpt>
      <trkpt lat="41.362415" lon="-3.185022">
        <ele>1165.61</ele>
        <time>2021-03-27T23:46:06Z</time>
      </trkpt>
      <trkpt lat="41.36303" lon="-3.187209">
        <ele>1164.05</ele>
        <time>2021-03-27T23:46:10Z</time>
      </trkpt>
      <trkpt lat="41.363127" lon="-3.187466">
        <ele>1160.91</ele>
        <time>2021-03-27T23:46:14Z</time>
      </trkpt>
      <trkpt lat="41.363213" lon="-3.187629">
        <ele>1158.21</ele>
        <time>2021-03-27T23:46:18Z</time>
      </trkpt>
      <trkpt lat="41.363615" lon="-3.188199">
        <ele>1155.03</ele>
        <time>2021-03-27T23:46:22Z</time>
      </trkpt>
      <trkpt lat="41.363758" lon="-3.188485">
        <ele>1156.03</ele>
        <time>2021-03-27T23:46:26Z</time>
      </trkpt>
      <trkpt lat="41.364186" lon="-3.189564">
        <ele>1155.78</ele>
        <time>2021-03-27T23:46:30Z</time>
      </trkpt>
      <trkpt lat="41.364393" lon="-3.18997">
        <ele>1155.99</ele>
        <time>2021-03-27T23:46:34Z</time>
      </trkpt>
      <trkpt lat="41.364783" lon="-3.190385">
        <ele>1155.32</ele>
        <time>2021-03-27T23:46:38Z</time>
      </trkpt>
      <trkpt lat="41.364969" lon="-3.190669">
        <ele>1154.48</ele>
        <time>2021-03-27T23:46:43Z</time>
      </trkpt>
      <trkpt lat="41.365594" lon="-3.191823">
        <ele>1155.97</ele>
        <time>2021-03-27T23:46:47Z</time>
      </trkpt>
      <trkpt lat="41.365824" lon="-3.19257">
        <ele>1154.0</ele>
        <time>2021-03-27T23:46:51Z</time>
      </trkpt>
      <trkpt lat="41.365983" lon="-3.19287">
        <ele>1154.87</ele>
        <time>2021-03-27T23:46:55Z</time>
      </trkpt>
      <trkpt lat="41.366786" lon="-3.194164">
        <ele>1160.42</ele>
        <time>2021-03-27T23:46:59Z</time>
      </trkpt>
      <trkpt lat="41.36703" lon="-3.194467">
        <ele>1160.1</ele>
        <time>2021-03-27T23:47:03Z</time>
      </trkpt>
      <trkpt lat="41.367544" lon="-3.194868">
        <ele>1159.72</ele>
        <time>2021-03-27T23:47:07Z</time>
      </trkpt>
      <trkpt lat="41.368312" lon="-3.195411">
        <ele>1158.48</ele>
        <time>2021-03-27T23:47:11Z</time>
      </trkpt>
      <trkpt lat="41.368523" lon="-3.195591">
        <ele>1157.87</ele>
        <time>2021-03-27T23:47:15Z</time>
      </trkpt>
      <trkpt lat="41.368699" lon="-3.195803">
        <ele>1157.04</ele>
        <time>2021-03-27T23:47:19Z</time>
      </trkpt>
      <trkpt lat="41.368839" lon="-3.196043">
        <ele>1157.0</ele>
        <time>2021-03-27T23:47:23Z</time>
      </trkpt>
      <trkpt lat="41.369407" lon="-3.197291">
        <ele>1159.48</ele>
        <time>2021-03-27T23:47:27Z</time>
      </trkpt>
      <trkpt lat="41.36955" lon="-3.197705">
        <ele>1157.8</ele>
        <time>2021-03-27T23:47:31Z</time>
      </trkpt>
      <trkpt lat="41.369676" lon="-3.198337">
        <ele>1156.66</ele>
        <time>2021-03-27T23:47:35Z</time>
      </trkpt>
      <trkpt lat="41.369981" lon="-3.200144">
        <ele>1153.62</ele>
        <time>2021-03-27T23:47:39Z</time>
      </trkpt>
      <trkpt lat="41.370055" lon="-3.200655">
        <ele>1155.41</ele>
        <time>2021-03-27T23:47:43Z</time>
      </trkpt>
      <trkpt lat="41.37009" lon="-3.201253">
        <ele>1155.0</ele>
        <time>2021-03-27T23:47:47Z</time>
      </trkpt>
      <trkpt lat="41.37012" lon="-3.202749">
        <ele>1150.53</ele>
        <time>2021-03-27T23:47:51Z</time>
      </trkpt>
      <trkpt lat="41.37015" lon="-3.2031">
        <ele>1149.45</ele>
        <time>2021-03-27T23:47:55Z</time>
      </trkpt>
      <trkpt lat="41.370297" lon="-3.20407">
        <ele>1150.14</ele>
        <time>2021-03-27T23:47:59Z</time>
      </trkpt>
      <trkpt lat="41.370315" lon="-3.204388">
        <ele>1149.68</ele>
        <time>2021-03-27T23:48:03Z</time>
      </trkpt>
      <trkpt lat="41.3703" lon="-3.204671">
        <ele>1148.5</ele>
        <time>2021-03-27T23:48:07Z</time>
      </trkpt>
      <trkpt lat="41.370252" lon="-3.204899">
        <ele>1146.55</ele>
        <time>2021-03-27T23:48:11Z</time>
      </trkpt>
      <trkpt lat="41.370176" lon="-3.205119">
        <ele>1144.42</ele>
        <time>2021-03-27T23:48:16Z</time>
      </trkpt>
      <trkpt lat="41.370082" lon="-3.205318">
        <ele>1142.5</ele>
        <time>2021-03-27T23:48:20Z</time>
      </trkpt>
      <trkpt lat="41.369979" lon="-3.205481">
        <ele>1142.22</ele>
        <time>2021-03-27T23:48:24Z</time>
      </trkpt>
      <trkpt lat="41.369875" lon="-3.20561">
        <ele>1143.26</ele>
        <time>2021-03-27T23:48:28Z</time>
      </trkpt>
      <trkpt lat="41.36784" lon="-3.20728">
        <ele>1150.38</ele>
        <time>2021-03-27T23:48:32Z</time>
      </trkpt>
      <trkpt lat="41.367611" lon="-3.207496">
        <ele>1152.2</ele>
        <time>2021-03-27T23:48:36Z</time>
      </trkpt>
      <trkpt lat="41.367466" lon="-3.207703">
        <ele>1152.88</ele>
        <time>2021-03-27T23:48:40Z</time>
      </trkpt>
      <trkpt lat="41.367332" lon="-3.207952">
        <ele>1152.78</ele>
        <time>2021-03-27T23:48:44Z</time>
      </trkpt>
      <trkpt lat="41.367247" lon="-3.208249">
        <ele>1152.3</ele>
        <time>2021-03-27T23:48:48Z</time>
      </trkpt>
      <trkpt lat="41.367195" lon="-3.208592">
        <ele>1152.29</ele>
        <time>2021-03-27T23:48:52Z</time>
      </trkpt>
      <trkpt lat="41.36706" lon="-3.210291">
        <ele>1155.12</ele>
        <time>2021-03-27T23:48:56Z</time>
      </trkpt>
      <trkpt lat="41.36703" lon="-3.211186">
        <ele>1158.04</ele>
        <time>2021-03-27T23:49:00Z</time>
      </trkpt>
      <trkpt lat="41.367141" lon="-3.214143">
        <ele>1155.81</ele>
        <time>2021-03-27T23:49:04Z</time>
      </trkpt>
      <trkpt lat="41.367184" lon="-3.214781">
        <ele>1155.35</ele>
        <time>2021-03-27T23:49:08Z</time>
      </trkpt>
      <trkpt lat="41.367234" lon="-3.215213">
        <ele>1154.23</ele>
        <time>2021-03-27T23:49:12Z</time>
      </trkpt>
      <trkpt lat="41.367318" lon="-3.215608">
        <ele>1153.47</ele>
        <time>2021-03-27T23:49:16Z</time>
      </trkpt>
      <trkpt lat="41.367501" lon="-3.216122">
        <ele>1154.99</ele>
        <time>2021-03-27T23:49:20Z</time>
      </trkpt>
      <trkpt lat="41.367965" lon="-3.217199">
        <ele>1152.28</ele>
        <time>2021-03-27T23:49:24Z</time>
      </trkpt>
      <trkpt lat="41.3681" lon="-3.217599">
        <ele>1156.44</ele>
        <time>2021-03-27T23:49:28Z</time>
      </trkpt>
      <trkpt lat="41.368299" lon="-3.218412">
        <ele>1154.33</ele>
        <time>2021-03-27T23:49:32Z</time>
      </trkpt>
      <trkpt lat="41.368485" lon="-3.219338">
        <ele>1158.34</ele>
        <time>2021-03-27T23:49:36Z</time>
      </trkpt>
      <trkpt lat="41.368574" lon="-3.220004">
        <ele>1159.38</ele>
        <time>2021-03-27T23:49:40Z</time>
      </trkpt>
      <trkpt lat="41.36861" lon="-3.220746">
        <ele>1152.34</ele>
        <time>2021-03-27T23:49:45Z</time>
      </trkpt>
      <trkpt lat="41.368584" lon="-3.223919">
        <ele>1158.0</ele>
        <time>2021-03-27T23:49:49Z</time>
      </trkpt>
      <trkpt lat="41.368595" lon="-3.224388">
        <ele>1158.0</ele>
        <time>2021-03-27T23:49:53Z</time>
      </trkpt>
      <trkpt lat="41.36865" lon="-3.224796">
        <ele>1156.99</ele>
        <time>2021-03-27T23:49:57Z</time>
      </trkpt>
      <trkpt lat="41.368753" lon="-3.225219">
        <ele>1158.02</ele>
        <time>2021-03-27T23:50:01Z</time>
      </trkpt>
      <trkpt lat="41.369369" lon="-3.227319">
        <ele>1154.05</ele>
        <time>2021-03-27T23:50:05Z</time>
      </trkpt>
      <trkpt lat="41.369592" lon="-3.228221">
        <ele>1159.31</ele>
        <time>2021-03-27T23:50:09Z</time>
      </trkpt>
      <trkpt lat="41.371512" lon="-3.238765">
        <ele>1147.86</ele>
        <time>2021-03-27T23:50:13Z</time>
      </trkpt>
      <trkpt lat="41.371607" lon="-3.239069">
        <ele>1148.59</ele>
        <time>2021-03-27T23:50:17Z</time>
      </trkpt>
      <trkpt lat="41.371706" lon="-3.239282">
        <ele>1149.21</ele>
        <time>2021-03-27T23:50:21Z</time>
      </trkpt>
      <trkpt lat="41.371865" lon="-3.23953">
        <ele>1148.57</ele>
        <time>2021-03-27T23:50:25Z</time>
      </trkpt>
      <trkpt lat="41.373048" lon="-3.240956">
        <ele>1138.51</ele>
        <time>2021-03-27T23:50:29Z</time>
      </trkpt>
      <trkpt lat="41.373333" lon="-3.241222">
        <ele>1140.0</ele>
        <time>2021-03-27T23:50:33Z</time>
      </trkpt>
      <trkpt lat="41.373565" lon="-3.241373">
        <ele>1140.05</ele>
        <time>2021-03-27T23:50:37Z</time>
      </trkpt>
      <trkpt lat="41.373829" lon="-3.241494">
        <ele>1141.19</ele>
        <time>2021-03-27T23:50:41Z</time>
      </trkpt>
      <trkpt lat="41.374683" lon="-3.241736">
        <ele>1135.03</ele>
        <time>2021-03-27T23:50:45Z</time>
      </trkpt>
      <trkpt lat="41.374887" lon="-3.241849">
        <ele>1135.11</ele>
        <time>2021-03-27T23:50:49Z</time>
      </trkpt>
      <trkpt lat="41.375082" lon="-3.241996">
        <ele>1134.87</ele>
        <time>2021-03-27T23:50:53Z</time>
      </trkpt>
      <trkpt lat="41.375295" lon="-3.242255">
        <ele>1132.75</ele>
        <time>2021-03-27T23:50:57Z</time>
      </trkpt>
      <trkpt lat="41.375908" lon="-3.243201">
        <ele>1128.38</ele>
        <time>2021-03-27T23:51:01Z</time>
      </trkpt>
      <trkpt lat="41.376288" lon="-3.24368">
        <ele>1127.35</ele>
        <time>2021-03-27T23:51:05Z</time>
      </trkpt>
      <trkpt lat="41.376856" lon="-3.244227">
        <ele>1123.22</ele>
        <time>2021-03-27T23:51:09Z</time>
      </trkpt>
      <trkpt lat="41.377361" lon="-3.244836">
        <ele>1122.2</ele>
        <time>2021-03-27T23:51:14Z</time>
      </trkpt>
      <trkpt lat="41.375975" lon="-3.246821">
        <ele>1126.59</ele>
        <time>2021-03-27T23:51:16Z</time>
      </trkpt>
      <trkpt lat="41.375377" lon="-3.247563">
        <ele>1128.15</ele>
        <time>2021-03-27T23:51:18Z</time>
      </trkpt>
      <trkpt lat="41.373587" lon="-3.249265">
        <ele>1146.46</ele>
        <time>2021-03-27T23:51:20Z</time>
      </trkpt>
      <trkpt lat="41.373427" lon="-3.249359">
        <ele>1146.94</ele>
        <time>2021-03-27T23:51:22Z</time>
      </trkpt>
      <trkpt lat="41.371023" lon="-3.250451">
        <ele>1164.16</ele>
        <time>2021-03-27T23:51:24Z</time>
      </trkpt>
      <trkpt lat="41.370837" lon="-3.250592">
        <ele>1163.56</ele>
        <time>2021-03-27T23:51:26Z</time>
      </trkpt>
      <trkpt lat="41.370732" lon="-3.250809">
        <ele>1168.18</ele>
        <time>2021-03-27T23:51:29Z</time>
      </trkpt>
      <trkpt lat="41.370681" lon="-3.251031">
        <ele>1171.66</ele>
        <time>2021-03-27T23:51:31Z</time>
      </trkpt>
      <trkpt lat="41.370703" lon="-3.251547">
        <ele>1172.9</ele>
        <time>2021-03-27T23:51:33Z</time>
      </trkpt>
      <trkpt lat="41.371193" lon="-3.257201">
        <ele>1186.88</ele>
        <time>2021-03-27T23:51:35Z</time>
      </trkpt>
      <trkpt lat="41.371248" lon="-3.257654">
        <ele>1184.09</ele>
        <time>2021-03-27T23:51:37Z</time>
      </trkpt>
      <trkpt lat="41.371738" lon="-3.259547">
        <ele>1179.28</ele>
        <time>2021-03-27T23:51:39Z</time>
      </trkpt>
      <trkpt lat="41.371728" lon="-3.259707">
        <ele>1179.74</ele>
        <time>2021-03-27T23:51:41Z</time>
      </trkpt>
      <trkpt lat="41.371676" lon="-3.259769">
        <ele>1179.96</ele>
        <time>2021-03-27T23:51:44Z</time>
      </trkpt>
      <trkpt lat="41.371613" lon="-3.259807">
        <ele>1179.94</ele>
        <time>2021-03-27T23:51:46Z</time>
      </trkpt>
      <trkpt lat="41.371483" lon="-3.259767">
        <ele>1179.89</ele>
        <time>2021-03-27T23:51:48Z</time>
      </trkpt>
      <trkpt lat="41.371373" lon="-3.259566">
        <ele>1179.15</ele>
        <time>2021-03-27T23:51:50Z</time>
      </trkpt>
      <trkpt lat="41.371007" lon="-3.258701">
        <ele>1177.97</ele>
        <time>2021-03-27T23:51:52Z</time>
      </trkpt>
      <trkpt lat="41.370807" lon="-3.258361">
        <ele>1177.93</ele>
        <time>2021-03-27T23:51:54Z</time>
      </trkpt>
      <trkpt lat="41.370717" lon="-3.258287">
        <ele>1176.3</ele>
        <time>2021-03-27T23:51:56Z</time>
      </trkpt>
      <trkpt lat="41.37066" lon="-3.258361">
        <ele>1174.11</ele>
        <time>2021-03-27T23:51:59Z</time>
      </trkpt>
      <trkpt lat="41.370662" lon="-3.258441">
        <ele>1172.67</ele>
        <time>2021-03-27T23:52:01Z</time>
      </trkpt>
      <trkpt lat="41.370792" lon="-3.258721">
        <ele>1171.64</ele>
        <time>2021-03-27T23:52:03Z</time>
      </trkpt>
      <trkpt lat="41.370837" lon="-3.258883">
        <ele>1170.19</ele>
        <time>2021-03-27T23:52:05Z</time>
      </trkpt>
      <trkpt lat="41.371012" lon="-3.259961">
        <ele>1167.63</ele>
        <time>2021-03-27T23:52:07Z</time>
      </trkpt>
      <trkpt lat="41.370992" lon="-3.260094">
        <ele>1165.77</ele>
        <time>2021-03-27T23:52:09Z</time>
      </trkpt>
      <trkpt lat="41.370957" lon="-3.260131">
        <ele>1163.87</ele>
        <time>2021-03-27T23:52:11Z</time>
      </trkpt>
      <trkpt lat="41.370907" lon="-3.260147">
        <ele>1161.41</ele>
        <time>2021-03-27T23:52:14Z</time>
      </trkpt>
      <trkpt lat="41.370807" lon="-3.260074">
        <ele>1157.36</ele>
        <time>2021-03-27T23:52:16Z</time>
      </trkpt>
      <trkpt lat="41.37076" lon="-3.259927">
        <ele>1156.68</ele>
        <time>2021-03-27T23:52:18Z</time>
      </trkpt>
      <trkpt lat="41.370666" lon="-3.259431">
        <ele>1154.77</ele>
        <time>2021-03-27T23:52:20Z</time>
      </trkpt>
      <trkpt lat="41.370562" lon="-3.259134">
        <ele>1154.98</ele>
        <time>2021-03-27T23:52:22Z</time>
      </trkpt>
      <trkpt lat="41.369637" lon="-3.257161">
        <ele>1136.87</ele>
        <time>2021-03-27T23:52:24Z</time>
      </trkpt>
      <trkpt lat="41.369542" lon="-3.257013">
        <ele>1136.03</ele>
        <time>2021-03-27T23:52:26Z</time>
      </trkpt>
      <trkpt lat="41.369378" lon="-3.25685">
        <ele>1134.36</ele>
        <time>2021-03-27T23:52:28Z</time>
      </trkpt>
      <trkpt lat="41.369307" lon="-3.256708">
        <ele>1134.89</ele>
        <time>2021-03-27T23:52:31Z</time>
      </trkpt>
      <trkpt lat="41.369211" lon="-3.256201">
        <ele>1137.46</ele>
        <time>2021-03-27T23:52:33Z</time>
      </trkpt>
      <trkpt lat="41.369176" lon="-3.256106">
        <ele>1136.67</ele>
        <time>2021-03-27T23:52:35Z</time>
      </trkpt>
      <trkpt lat="41.369122" lon="-3.256028">
        <ele>1136.22</ele>
        <time>2021-03-27T23:52:37Z</time>
      </trkpt>
      <trkpt lat="41.368766" lon="-3.255755">
        <ele>1131.05</ele>
        <time>2021-03-27T23:52:39Z</time>
      </trkpt>
      <trkpt lat="41.368705" lon="-3.255663">
        <ele>1130.83</ele>
        <time>2021-03-27T23:52:41Z</time>
      </trkpt>
      <trkpt lat="41.368651" lon="-3.255561">
        <ele>1130.93</ele>
        <time>2021-03-27T23:52:43Z</time>
      </trkpt>
      <trkpt lat="41.368501" lon="-3.255002">
        <ele>1128.62</ele>
        <time>2021-03-27T23:52:46Z</time>
      </trkpt>
      <trkpt lat="41.368426" lon="-3.254875">
        <ele>1127.91</ele>
        <time>2021-03-27T23:52:48Z</time>
      </trkpt>
      <trkpt lat="41.368256" lon="-3.254742">
        <ele>1124.5</ele>
        <time>2021-03-27T23:52:50Z</time>
      </trkpt>
      <trkpt lat="41.368216" lon="-3.254664">
        <ele>1123.91</ele>
        <time>2021-03-27T23:52:52Z</time>
      </trkpt>
      <trkpt lat="41.368171" lon="-3.254328">
        <ele>1123.33</ele>
        <time>2021-03-27T23:52:54Z</time>
      </trkpt>
      <trkpt lat="41.368131" lon="-3.254195">
        <ele>1122.8</ele>
        <time>2021-03-27T23:52:56Z</time>
      </trkpt>
      <trkpt lat="41.367911" lon="-3.253988">
        <ele>1118.46</ele>
        <time>2021-03-27T23:52:58Z</time>
      </trkpt>
      <trkpt lat="41.367852" lon="-3.253883">
        <ele>1117.93</ele>
        <time>2021-03-27T23:53:01Z</time>
      </trkpt>
      <trkpt lat="41.367771" lon="-3.253567">
        <ele>1118.8</ele>
        <time>2021-03-27T23:53:03Z</time>
      </trkpt>
      <trkpt lat="41.367756" lon="-3.253395">
        <ele>1118.31</ele>
        <time>2021-03-27T23:53:05Z</time>
      </trkpt>
      <trkpt lat="41.367786" lon="-3.253228">
        <ele>1118.9</ele>
        <time>2021-03-27T23:53:07Z</time>
      </trkpt>
      <trkpt lat="41.367823" lon="-3.253128">
        <ele>1119.87</ele>
        <time>2021-03-27T23:53:09Z</time>
      </trkpt>
      <trkpt lat="41.367841" lon="-3.252999">
        <ele>1120.13</ele>
        <time>2021-03-27T23:53:11Z</time>
      </trkpt>
      <trkpt lat="41.367821" lon="-3.252848">
        <ele>1118.93</ele>
        <time>2021-03-27T23:53:13Z</time>
      </trkpt>
      <trkpt lat="41.367606" lon="-3.252453">
        <ele>1114.86</ele>
        <time>2021-03-27T23:53:16Z</time>
      </trkpt>
      <trkpt lat="41.367553" lon="-3.252297">
        <ele>1114.32</ele>
        <time>2021-03-27T23:53:18Z</time>
      </trkpt>
      <trkpt lat="41.367552" lon="-3.251856">
        <ele>1117.69</ele>
        <time>2021-03-27T23:53:20Z</time>
      </trkpt>
      <trkpt lat="41.367536" lon="-3.251748">
        <ele>1117.72</ele>
        <time>2021-03-27T23:53:22Z</time>
      </trkpt>
      <trkpt lat="41.367491" lon="-3.25165">
        <ele>1116.96</ele>
        <time>2021-03-27T23:53:24Z</time>
      </trkpt>
      <trkpt lat="41.367376" lon="-3.251562">
        <ele>1116.02</ele>
        <time>2021-03-27T23:53:26Z</time>
      </trkpt>
      <trkpt lat="41.367081" lon="-3.251429">
        <ele>1113.3</ele>
        <time>2021-03-27T23:53:28Z</time>
      </trkpt>
      <trkpt lat="41.366956" lon="-3.251309">
        <ele>1112.41</ele>
        <time>2021-03-27T23:53:31Z</time>
      </trkpt>
      <trkpt lat="41.366851" lon="-3.251062">
        <ele>1112.71</ele>
        <time>2021-03-27T23:53:33Z</time>
      </trkpt>
      <trkpt lat="41.366645" lon="-3.250375">
        <ele>1112.26</ele>
        <time>2021-03-27T23:53:35Z</time>
      </trkpt>
      <trkpt lat="41.366605" lon="-3.250309">
        <ele>1111.79</ele>
        <time>2021-03-27T23:53:37Z</time>
      </trkpt>
      <trkpt lat="41.36654" lon="-3.250257">
        <ele>1110.88</ele>
        <time>2021-03-27T23:53:39Z</time>
      </trkpt>
      <trkpt lat="41.366475" lon="-3.250242">
        <ele>1109.81</ele>
        <time>2021-03-27T23:53:41Z</time>
      </trkpt>
      <trkpt lat="41.365986" lon="-3.25041">
        <ele>1102.63</ele>
        <time>2021-03-27T23:53:43Z</time>
      </trkpt>
      <trkpt lat="41.365924" lon="-3.250399">
        <ele>1102.22</ele>
        <time>2021-03-27T23:53:46Z</time>
      </trkpt>
      <trkpt lat="41.365858" lon="-3.250347">
        <ele>1101.93</ele>
        <time>2021-03-27T23:53:48Z</time>
      </trkpt>
      <trkpt lat="41.365813" lon="-3.250255">
        <ele>1101.56</ele>
        <time>2021-03-27T23:53:50Z</time>
      </trkpt>
      <trkpt lat="41.365746" lon="-3.249998">
        <ele>1099.37</ele>
        <time>2021-03-27T23:53:52Z</time>
      </trkpt>
      <trkpt lat="41.365708" lon="-3.249943">
        <ele>1099.01</ele>
        <time>2021-03-27T23:53:54Z</time>
      </trkpt>
      <trkpt lat="41.365618" lon="-3.249956">
        <ele>1098.33</ele>
        <time>2021-03-27T23:53:56Z</time>
      </trkpt>
      <trkpt lat="41.365587" lon="-3.250123">
        <ele>1098.33</ele>
        <time>2021-03-27T23:53:58Z</time>
      </trkpt>
      <trkpt lat="41.365626" lon="-3.250443">
        <ele>1098.86</ele>
        <time>2021-03-27T23:54:01Z</time>
      </trkpt>
      <trkpt lat="41.365823" lon="-3.250939">
        <ele>1095.4</ele>
        <time>2021-03-27T23:54:03Z</time>
      </trkpt>
      <trkpt lat="41.365821" lon="-3.251005">
        <ele>1094.45</ele>
        <time>2021-03-27T23:54:05Z</time>
      </trkpt>
      <trkpt lat="41.365794" lon="-3.251051">
        <ele>1093.58</ele>
        <time>2021-03-27T23:54:07Z</time>
      </trkpt>
      <trkpt lat="41.365758" lon="-3.251067">
        <ele>1093.09</ele>
        <time>2021-03-27T23:54:09Z</time>
      </trkpt>
      <trkpt lat="41.365702" lon="-3.251036">
        <ele>1093.14</ele>
        <time>2021-03-27T23:54:11Z</time>
      </trkpt>
      <trkpt lat="41.365624" lon="-3.250942">
        <ele>1093.93</ele>
        <time>2021-03-27T23:54:13Z</time>
      </trkpt>
      <trkpt lat="41.365284" lon="-3.250253">
        <ele>1094.0</ele>
        <time>2021-03-27T23:54:15Z</time>
      </trkpt>
      <trkpt lat="41.365247" lon="-3.250207">
        <ele>1093.58</ele>
        <time>2021-03-27T23:54:18Z</time>
      </trkpt>
      <trkpt lat="41.365198" lon="-3.250187">
        <ele>1093.29</ele>
        <time>2021-03-27T23:54:20Z</time>
      </trkpt>
      <trkpt lat="41.365138" lon="-3.250195">
        <ele>1093.0</ele>
        <time>2021-03-27T23:54:22Z</time>
      </trkpt>
      <trkpt lat="41.364777" lon="-3.25039">
        <ele>1092.72</ele>
        <time>2021-03-27T23:54:24Z</time>
      </trkpt>
      <trkpt lat="41.364676" lon="-3.250498">
        <ele>1093.76</ele>
        <time>2021-03-27T23:54:26Z</time>
      </trkpt>
      <trkpt lat="41.364622" lon="-3.25066">
        <ele>1094.32</ele>
        <time>2021-03-27T23:54:28Z</time>
      </trkpt>
      <trkpt lat="41.364619" lon="-3.250839">
        <ele>1093.56</ele>
        <time>2021-03-27T23:54:30Z</time>
      </trkpt>
      <trkpt lat="41.364638" lon="-3.251043">
        <ele>1091.61</ele>
        <time>2021-03-27T23:54:33Z</time>
      </trkpt>
      <trkpt lat="41.364627" lon="-3.251159">
        <ele>1091.05</ele>
        <time>2021-03-27T23:54:35Z</time>
      </trkpt>
      <trkpt lat="41.364564" lon="-3.251309">
        <ele>1091.06</ele>
        <time>2021-03-27T23:54:37Z</time>
      </trkpt>
      <trkpt lat="41.364446" lon="-3.25142">
        <ele>1091.87</ele>
        <time>2021-03-27T23:54:39Z</time>
      </trkpt>
      <trkpt lat="41.364359" lon="-3.251462">
        <ele>1092.56</ele>
        <time>2021-03-27T23:54:41Z</time>
      </trkpt>
      <trkpt lat="41.364225" lon="-3.251454">
        <ele>1094.01</ele>
        <time>2021-03-27T23:54:43Z</time>
      </trkpt>
      <trkpt lat="41.36265" lon="-3.250997">
        <ele>1096.12</ele>
        <time>2021-03-27T23:54:45Z</time>
      </trkpt>
      <trkpt lat="41.362025" lon="-3.250912">
        <ele>1099.22</ele>
        <time>2021-03-27T23:54:48Z</time>
      </trkpt>
      <trkpt lat="41.361385" lon="-3.250588">
        <ele>1100.76</ele>
        <time>2021-03-27T23:54:50Z</time>
      </trkpt>
      <trkpt lat="41.360943" lon="-3.250326">
        <ele>1097.53</ele>
        <time>2021-03-27T23:54:52Z</time>
      </trkpt>
      <trkpt lat="41.360398" lon="-3.249866">
        <ele>1097.98</ele>
        <time>2021-03-27T23:54:54Z</time>
      </trkpt>
      <trkpt lat="41.359312" lon="-3.248893">
        <ele>1101.56</ele>
        <time>2021-03-27T23:54:56Z</time>
      </trkpt>
      <trkpt lat="41.358592" lon="-3.24814">
        <ele>1098.22</ele>
        <time>2021-03-27T23:54:58Z</time>
      </trkpt>
      <trkpt lat="41.358392" lon="-3.247953">
        <ele>1098.55</ele>
        <time>2021-03-27T23:55:00Z</time>
      </trkpt>
      <trkpt lat="41.358293" lon="-3.24793">
        <ele>1097.45</ele>
        <time>2021-03-27T23:55:03Z</time>
      </trkpt>
      <trkpt lat="41.358111" lon="-3.248008">
        <ele>1094.95</ele>
        <time>2021-03-27T23:55:05Z</time>
      </trkpt>
      <trkpt lat="41.357913" lon="-3.248153">
        <ele>1093.31</ele>
        <time>2021-03-27T23:55:07Z</time>
      </trkpt>
      <trkpt lat="41.357566" lon="-3.248447">
        <ele>1096.26</ele>
        <time>2021-03-27T23:55:09Z</time>
      </trkpt>
      <trkpt lat="41.357341" lon="-3.248593">
        <ele>1097.4</ele>
        <time>2021-03-27T23:55:11Z</time>
      </trkpt>
      <trkpt lat="41.357166" lon="-3.248666">
        <ele>1096.87</ele>
        <time>2021-03-27T23:55:13Z</time>
      </trkpt>
      <trkpt lat="41.356956" lon="-3.248626">
        <ele>1095.24</ele>
        <time>2021-03-27T23:55:15Z</time>
      </trkpt>
      <trkpt lat="41.356145" lon="-3.248373">
        <ele>1102.29</ele>
        <time>2021-03-27T23:55:18Z</time>
      </trkpt>
      <trkpt lat="41.35596" lon="-3.24838">
        <ele>1101.25</ele>
        <time>2021-03-27T23:55:20Z</time>
      </trkpt>
      <trkpt lat="41.35578" lon="-3.248513">
        <ele>1100.98</ele>
        <time>2021-03-27T23:55:22Z</time>
      </trkpt>
      <trkpt lat="41.354784" lon="-3.250054">
        <ele>1102.66</ele>
        <time>2021-03-27T23:55:24Z</time>
      </trkpt>
      <trkpt lat="41.354699" lon="-3.250107">
        <ele>1102.9</ele>
        <time>2021-03-27T23:55:26Z</time>
      </trkpt>
      <trkpt lat="41.354512" lon="-3.250108">
        <ele>1103.99</ele>
        <time>2021-03-27T23:55:28Z</time>
      </trkpt>
      <trkpt lat="41.353719" lon="-3.2496">
        <ele>1114.11</ele>
        <time>2021-03-27T23:55:30Z</time>
      </trkpt>
      <trkpt lat="41.353618" lon="-3.24959">
        <ele>1114.9</ele>
        <time>2021-03-27T23:55:33Z</time>
      </trkpt>
      <trkpt lat="41.353379" lon="-3.249662">
        <ele>1115.27</ele>
        <time>2021-03-27T23:55:35Z</time>
      </trkpt>
      <trkpt lat="41.353317" lon="-3.249659">
        <ele>1115.34</ele>
        <time>2021-03-27T23:55:37Z</time>
      </trkpt>
      <trkpt lat="41.353256" lon="-3.249619">
        <ele>1115.18</ele>
        <time>2021-03-27T23:55:39Z</time>
      </trkpt>
      <trkpt lat="41.353227" lon="-3.249517">
        <ele>1115.71</ele>
        <time>2021-03-27T23:55:41Z</time>
      </trkpt>
      <trkpt lat="41.353238" lon="-3.24938">
        <ele>1116.4</ele>
        <time>2021-03-27T23:55:43Z</time>
      </trkpt>
      <trkpt lat="41.353458" lon="-3.248273">
        <ele>1119.09</ele>
        <time>2021-03-27T23:55:45Z</time>
      </trkpt>
      <trkpt lat="41.35257" lon="-3.249234">
        <ele>1111.82</ele>
        <time>2021-03-27T23:55:49Z</time>
      </trkpt>
      <trkpt lat="41.352202" lon="-3.249606">
        <ele>1115.32</ele>
        <time>2021-03-27T23:55:52Z</time>
      </trkpt>
      <trkpt lat="41.352027" lon="-3.24994">
        <ele>1119.68</ele>
        <time>2021-03-27T23:55:55Z</time>
      </trkpt>
      <trkpt lat="41.350681" lon="-3.251513">
        <ele>1126.65</ele>
        <time>2021-03-27T23:55:58Z</time>
      </trkpt>
      <trkpt lat="41.350205" lon="-3.251982">
        <ele>1128.59</ele>
        <time>2021-03-27T23:56:01Z</time>
      </trkpt>
      <trkpt lat="41.349415" lon="-3.252539">
        <ele>1131.84</ele>
        <time>2021-03-27T23:56:04Z</time>
      </trkpt>
      <trkpt lat="41.348665" lon="-3.252886">
        <ele>1126.07</ele>
        <time>2021-03-27T23:56:07Z</time>
      </trkpt>
      <trkpt lat="41.348566" lon="-3.252944">
        <ele>1125.18</ele>
        <time>2021-03-27T23:56:10Z</time>
      </trkpt>
      <trkpt lat="41.348474" lon="-3.253039">
        <ele>1124.54</ele>
        <time>2021-03-27T23:56:13Z</time>
      </trkpt>
      <trkpt lat="41.348317" lon="-3.253382">
        <ele>1126.59</ele>
        <time>2021-03-27T23:56:16Z</time>
      </trkpt>
      <trkpt lat="41.348094" lon="-3.253972">
        <ele>1131.88</ele>
        <time>2021-03-27T23:56:19Z</time>
      </trkpt>
      <trkpt lat="41.347544" lon="-3.255339">
        <ele>1128.94</ele>
        <time>2021-03-27T23:56:22Z</time>
      </trkpt>
      <trkpt lat="41.347409" lon="-3.255612">
        <ele>1130.29</ele>
        <time>2021-03-27T23:56:26Z</time>
      </trkpt>
      <trkpt lat="41.347179" lon="-3.255879">
        <ele>1129.71</ele>
        <time>2021-03-27T23:56:29Z</time>
      </trkpt>
      <trkpt lat="41.346328" lon="-3.256665">
        <ele>1134.77</ele>
        <time>2021-03-27T23:56:32Z</time>
      </trkpt>
      <trkpt lat="41.345462" lon="-3.257165">
        <ele>1132.06</ele>
        <time>2021-03-27T23:56:35Z</time>
      </trkpt>
      <trkpt lat="41.345162" lon="-3.257312">
        <ele>1133.55</ele>
        <time>2021-03-27T23:56:38Z</time>
      </trkpt>
      <trkpt lat="41.344952" lon="-3.257509">
        <ele>1135.38</ele>
        <time>2021-03-27T23:56:41Z</time>
      </trkpt>
      <trkpt lat="41.344131" lon="-3.258385">
        <ele>1139.1</ele>
        <time>2021-03-27T23:56:44Z</time>
      </trkpt>
      <trkpt lat="41.343956" lon="-3.258651">
        <ele>1139.0</ele>
        <time>2021-03-27T23:56:47Z</time>
      </trkpt>
      <trkpt lat="41.343884" lon="-3.258722">
        <ele>1139.07</ele>
        <time>2021-03-27T23:56:50Z</time>
      </trkpt>
      <trkpt lat="41.343806" lon="-3.258765">
        <ele>1140.16</ele>
        <time>2021-03-27T23:56:53Z</time>
      </trkpt>
      <trkpt lat="41.343561" lon="-3.258771">
        <ele>1143.63</ele>
        <time>2021-03-27T23:56:56Z</time>
      </trkpt>
      <trkpt lat="41.342775" lon="-3.258691">
        <ele>1147.87</ele>
        <time>2021-03-27T23:56:59Z</time>
      </trkpt>
      <trkpt lat="41.342355" lon="-3.258738">
        <ele>1148.59</ele>
        <time>2021-03-27T23:57:03Z</time>
      </trkpt>
      <trkpt lat="41.342039" lon="-3.258865">
        <ele>1147.82</ele>
        <time>2021-03-27T23:57:06Z</time>
      </trkpt>
      <trkpt lat="41.341669" lon="-3.259065">
        <ele>1143.04</ele>
        <time>2021-03-27T23:57:09Z</time>
      </trkpt>
      <trkpt lat="41.341299" lon="-3.259365">
        <ele>1143.52</ele>
        <time>2021-03-27T23:57:12Z</time>
      </trkpt>
      <trkpt lat="41.341241" lon="-3.259388">
        <ele>1143.7</ele>
        <time>2021-03-27T23:57:15Z</time>
      </trkpt>
      <trkpt lat="41.341184" lon="-3.259391">
        <ele>1143.76</ele>
        <time>2021-03-27T23:57:18Z</time>
      </trkpt>
      <trkpt lat="41.340883" lon="-3.259165">
        <ele>1144.64</ele>
        <time>2021-03-27T23:57:21Z</time>
      </trkpt>
      <trkpt lat="41.340806" lon="-3.259164">
        <ele>1145.3</ele>
        <time>2021-03-27T23:57:24Z</time>
      </trkpt>
      <trkpt lat="41.338852" lon="-3.259978">
        <ele>1155.06</ele>
        <time>2021-03-27T23:57:27Z</time>
      </trkpt>
      <trkpt lat="41.338656" lon="-3.259998">
        <ele>1155.83</ele>
        <time>2021-03-27T23:57:30Z</time>
      </trkpt>
      <trkpt lat="41.337728" lon="-3.259555">
        <ele>1160.01</ele>
        <time>2021-03-27T23:57:33Z</time>
      </trkpt>
      <trkpt lat="41.337539" lon="-3.259427">
        <ele>1161.52</ele>
        <time>2021-03-27T23:57:36Z</time>
      </trkpt>
      <trkpt lat="41.335719" lon="-3.257645">
        <ele>1172.77</ele>
        <time>2021-03-27T23:57:40Z</time>
      </trkpt>
      <trkpt lat="41.335413" lon="-3.257445">
        <ele>1175.72</ele>
        <time>2021-03-27T23:57:43Z</time>
      </trkpt>
      <trkpt lat="41.333576" lon="-3.256552">
        <ele>1193.96</ele>
        <time>2021-03-27T23:57:46Z</time>
      </trkpt>
      <trkpt lat="41.333316" lon="-3.256465">
        <ele>1194.11</ele>
        <time>2021-03-27T23:57:49Z</time>
      </trkpt>
      <trkpt lat="41.333071" lon="-3.256499">
        <ele>1194.95</ele>
        <time>2021-03-27T23:57:52Z</time>
      </trkpt>
      <trkpt lat="41.330894" lon="-3.257518">
        <ele>1211.07</ele>
        <time>2021-03-27T23:57:55Z</time>
      </trkpt>
      <trkpt lat="41.330801" lon="-3.257548">
        <ele>1211.19</ele>
        <time>2021-03-27T23:57:58Z</time>
      </trkpt>
      <trkpt lat="41.330556" lon="-3.257554">
        <ele>1211.39</ele>
        <time>2021-03-27T23:58:01Z</time>
      </trkpt>
      <trkpt lat="41.330323" lon="-3.257525">
        <ele>1211.1</ele>
        <time>2021-03-27T23:58:04Z</time>
      </trkpt>
      <trkpt lat="41.330163" lon="-3.257472">
        <ele>1210.8</ele>
        <time>2021-03-27T23:58:07Z</time>
      </trkpt>
      <trkpt lat="41.330052" lon="-3.257332">
        <ele>1209.79</ele>
        <time>2021-03-27T23:58:10Z</time>
      </trkpt>
      <trkpt lat="41.329758" lon="-3.256625">
        <ele>1205.85</ele>
        <time>2021-03-27T23:58:13Z</time>
      </trkpt>
      <trkpt lat="41.329638" lon="-3.256418">
        <ele>1207.74</ele>
        <time>2021-03-27T23:58:17Z</time>
      </trkpt>
      <trkpt lat="41.329521" lon="-3.256345">
        <ele>1209.17</ele>
        <time>2021-03-27T23:58:20Z</time>
      </trkpt>
      <trkpt lat="41.329453" lon="-3.25635">
        <ele>1209.91</ele>
        <time>2021-03-27T23:58:23Z</time>
      </trkpt>
      <trkpt lat="41.329367" lon="-3.256412">
        <ele>1210.31</ele>
        <time>2021-03-27T23:58:26Z</time>
      </trkpt>
      <trkpt lat="41.329282" lon="-3.256872">
        <ele>1206.57</ele>
        <time>2021-03-27T23:58:29Z</time>
      </trkpt>
      <trkpt lat="41.329172" lon="-3.257185">
        <ele>1204.3</ele>
        <time>2021-03-27T23:58:32Z</time>
      </trkpt>
      <trkpt lat="41.328977" lon="-3.257452">
        <ele>1199.73</ele>
        <time>2021-03-27T23:58:35Z</time>
      </trkpt>
      <trkpt lat="41.328266" lon="-3.25823">
        <ele>1194.63</ele>
        <time>2021-03-27T23:58:38Z</time>
      </trkpt>
      <trkpt lat="41.328033" lon="-3.258413">
        <ele>1195.82</ele>
        <time>2021-03-27T23:58:41Z</time>
      </trkpt>
      <trkpt lat="41.327835" lon="-3.258511">
        <ele>1198.66</ele>
        <time>2021-03-27T23:58:44Z</time>
      </trkpt>
      <trkpt lat="41.327756" lon="-3.258638">
        <ele>1200.42</ele>
        <time>2021-03-27T23:58:45Z</time>
      </trkpt>
      <trkpt lat="41.327905" lon="-3.258844">
        <ele>1199.92</ele>
        <time>2021-03-27T23:58:47Z</time>
      </trkpt>
      <trkpt lat="41.328016" lon="-3.259141">
        <ele>1198.82</ele>
        <time>2021-03-27T23:58:49Z</time>
      </trkpt>
      <trkpt lat="41.32804" lon="-3.25931">
        <ele>1197.39</ele>
        <time>2021-03-27T23:58:51Z</time>
      </trkpt>
      <trkpt lat="41.328041" lon="-3.259554">
        <ele>1196.05</ele>
        <time>2021-03-27T23:58:54Z</time>
      </trkpt>
      <trkpt lat="41.328" lon="-3.261328">
        <ele>1191.35</ele>
        <time>2021-03-27T23:58:56Z</time>
      </trkpt>
      <trkpt lat="41.327937" lon="-3.261733">
        <ele>1191.22</ele>
        <time>2021-03-27T23:58:58Z</time>
      </trkpt>
      <trkpt lat="41.327746" lon="-3.26251">
        <ele>1188.83</ele>
        <time>2021-03-27T23:59:00Z</time>
      </trkpt>
      <trkpt lat="41.327722" lon="-3.262646">
        <ele>1186.85</ele>
        <time>2021-03-27T23:59:02Z</time>
      </trkpt>
      <trkpt lat="41.327728" lon="-3.262785">
        <ele>1183.92</ele>
        <time>2021-03-27T23:59:04Z</time>
      </trkpt>
      <trkpt lat="41.327764" lon="-3.262901">
        <ele>1181.99</ele>
        <time>2021-03-27T23:59:06Z</time>
      </trkpt>
      <trkpt lat="41.327938" lon="-3.263227">
        <ele>1181.66</ele>
        <time>2021-03-27T23:59:09Z</time>
      </trkpt>
      <trkpt lat="41.327973" lon="-3.263373">
        <ele>1182.43</ele>
        <time>2021-03-27T23:59:11Z</time>
      </trkpt>
      <trkpt lat="41.327976" lon="-3.2637">
        <ele>1183.65</ele>
        <time>2021-03-27T23:59:13Z</time>
      </trkpt>
      <trkpt lat="41.328002" lon="-3.26382">
        <ele>1183.82</ele>
        <time>2021-03-27T23:59:15Z</time>
      </trkpt>
      <trkpt lat="41.328176" lon="-3.264197">
        <ele>1186.52</ele>
        <time>2021-03-27T23:59:17Z</time>
      </trkpt>
      <trkpt lat="41.328234" lon="-3.264424">
        <ele>1188.82</ele>
        <time>2021-03-27T23:59:19Z</time>
      </trkpt>
      <trkpt lat="41.328502" lon="-3.266483">
        <ele>1176.35</ele>
        <time>2021-03-27T23:59:21Z</time>
      </trkpt>
      <trkpt lat="41.328551" lon="-3.266669">
        <ele>1175.3</ele>
        <time>2021-03-27T23:59:24Z</time>
      </trkpt>
      <trkpt lat="41.328892" lon="-3.267493">
        <ele>1169.83</ele>
        <time>2021-03-27T23:59:26Z</time>
      </trkpt>
      <trkpt lat="41.328929" lon="-3.267662">
        <ele>1169.64</ele>
        <time>2021-03-27T23:59:28Z</time>
      </trkpt>
      <trkpt lat="41.328954" lon="-3.267843">
        <ele>1169.52</ele>
        <time>2021-03-27T23:59:30Z</time>
      </trkpt>
      <trkpt lat="41.328958" lon="-3.268086">
        <ele>1168.69</ele>
        <time>2021-03-27T23:59:32Z</time>
      </trkpt>
      <trkpt lat="41.328924" lon="-3.268592">
        <ele>1161.52</ele>
        <time>2021-03-27T23:59:34Z</time>
      </trkpt>
      <trkpt lat="41.328926" lon="-3.26884">
        <ele>1161.06</ele>
        <time>2021-03-27T23:59:36Z</time>
      </trkpt>
      <trkpt lat="41.328953" lon="-3.269034">
        <ele>1161.3</ele>
        <time>2021-03-27T23:59:39Z</time>
      </trkpt>
      <trkpt lat="41.329" lon="-3.269231">
        <ele>1160.98</ele>
        <time>2021-03-27T23:59:41Z</time>
      </trkpt>
      <trkpt lat="41.329257" lon="-3.270067">
        <ele>1149.9</ele>
        <time>2021-03-27T23:59:43Z</time>
      </trkpt>
      <trkpt lat="41.329329" lon="-3.270247">
        <ele>1147.53</ele>
        <time>2021-03-27T23:59:45Z</time>
      </trkpt>
      <trkpt lat="41.3295" lon="-3.270564">
        <ele>1146.95</ele>
        <time>2021-03-27T23:59:47Z</time>
      </trkpt>
      <trkpt lat="41.329922" lon="-3.271266">
        <ele>1148.6</ele>
        <time>2021-03-27T23:59:49Z</time>
      </trkpt>
      <trkpt lat="41.330718" lon="-3.272477">
        <ele>1149.86</ele>
        <time>2021-03-27T23:59:51Z</time>
      </trkpt>
      <trkpt lat="41.330953" lon="-3.272797">
        <ele>1147.35</ele>
        <time>2021-03-27T23:59:53Z</time>
      </trkpt>
      <trkpt lat="41.331566" lon="-3.273571">
        <ele>1143.27</ele>
        <time>2021-03-27T23:59:56Z</time>
      </trkpt>
      <trkpt lat="41.331742" lon="-3.273839">
        <ele>1142.94</ele>
        <time>2021-03-27T23:59:58Z</time>
      </trkpt>
      <trkpt lat="41.332456" lon="-3.275351">
        <ele>1136.48</ele>
        <time>2021-03-28T00:00:00Z</time>
      </trkpt>
      <trkpt lat="41.332924" lon="-3.276272">
        <ele>1134.22</ele>
        <time>2021-03-28T00:00:02Z</time>
      </trkpt>
      <trkpt lat="41.333107" lon="-3.276599">
        <ele>1135.04</ele>
        <time>2021-03-28T00:00:04Z</time>
      </trkpt>
      <trkpt lat="41.333782" lon="-3.277656">
        <ele>1128.17</ele>
        <time>2021-03-28T00:00:06Z</time>
      </trkpt>
      <trkpt lat="41.333854" lon="-3.277795">
        <ele>1128.44</ele>
        <time>2021-03-28T00:00:08Z</time>
      </trkpt>
      <trkpt lat="41.333914" lon="-3.277943">
        <ele>1128.36</ele>
        <time>2021-03-28T00:00:11Z</time>
      </trkpt>
      <trkpt lat="41.333958" lon="-3.278134">
        <ele>1127.61</ele>
        <time>2021-03-28T00:00:13Z</time>
      </trkpt>
      <trkpt lat="41.334036" lon="-3.278723">
        <ele>1120.8</ele>
        <time>2021-03-28T00:00:15Z</time>
      </trkpt>
      <trkpt lat="41.33407" lon="-3.280191">
        <ele>1123.82</ele>
        <time>2021-03-28T00:00:17Z</time>
      </trkpt>
      <trkpt lat="41.334089" lon="-3.280372">
        <ele>1124.4</ele>
        <time>2021-03-28T00:00:19Z</time>
      </trkpt>
      <trkpt lat="41.334131" lon="-3.280525">
        <ele>1123.89</ele>
        <time>2021-03-28T00:00:21Z</time>
      </trkpt>
      <trkpt lat="41.334206" lon="-3.280675">
        <ele>1123.01</ele>
        <time>2021-03-28T00:00:23Z</time>
      </trkpt>
      <trkpt lat="41.334394" lon="-3.280945">
        <ele>1121.77</ele>
        <time>2021-03-28T00:00:26Z</time>
      </trkpt>
      <trkpt lat="41.334514" lon="-3.28109">
        <ele>1121.69</ele>
        <time>2021-03-28T00:00:28Z</time>
      </trkpt>
      <trkpt lat="41.334972" lon="-3.281481">
        <ele>1120.06</ele>
        <time>2021-03-28T00:00:30Z</time>
      </trkpt>
      <trkpt lat="41.335051" lon="-3.281621">
        <ele>1120.09</ele>
        <time>2021-03-28T00:00:32Z</time>
      </trkpt>
      <trkpt lat="41.335142" lon="-3.282008">
        <ele>1120.46</ele>
        <time>2021-03-28T00:00:34Z</time>
      </trkpt>
      <trkpt lat="41.335166" lon="-3.282218">
        <ele>1120.21</ele>
        <time>2021-03-28T00:00:36Z</time>
      </trkpt>
      <trkpt lat="41.335194" lon="-3.282953">
        <ele>1119.46</ele>
        <time>2021-03-28T00:00:38Z</time>
      </trkpt>
      <trkpt lat="41.335146" lon="-3.28298">
        <ele>1120.05</ele>
        <time>2021-03-28T00:00:41Z</time>
      </trkpt>
      <trkpt lat="41.335106" lon="-3.283065">
        <ele>1120.44</ele>
        <time>2021-03-28T00:00:43Z</time>
      </trkpt>
      <trkpt lat="41.334895" lon="-3.283997">
        <ele>1125.28</ele>
        <time>2021-03-28T00:00:46Z</time>
      </trkpt>
      <trkpt lat="41.334861" lon="-3.284435">
        <ele>1126.99</ele>
        <time>2021-03-28T00:00:48Z</time>
      </trkpt>
      <trkpt lat="41.334926" lon="-3.285487">
        <ele>1129.43</ele>
        <time>2021-03-28T00:00:51Z</time>
      </trkpt>
      <trkpt lat="41.334915" lon="-3.285692">
        <ele>1129.69</ele>
        <time>2021-03-28T00:00:53Z</time>
      </trkpt>
      <trkpt lat="41.334565" lon="-3.287233">
        <ele>1139.79</ele>
        <time>2021-03-28T00:00:56Z</time>
      </trkpt>
      <trkpt lat="41.33448" lon="-3.287443">
        <ele>1140.56</ele>
        <time>2021-03-28T00:00:58Z</time>
      </trkpt>
      <trkpt lat="41.334422" lon="-3.287528">
        <ele>1141.37</ele>
        <time>2021-03-28T00:01:01Z</time>
      </trkpt>
      <trkpt lat="41.334292" lon="-3.287627">
        <ele>1143.93</ele>
        <time>2021-03-28T00:01:03Z</time>
      </trkpt>
      <trkpt lat="41.334119" lon="-3.287724">
        <ele>1147.06</ele>
        <time>2021-03-28T00:01:06Z</time>
      </trkpt>
      <trkpt lat="41.334021" lon="-3.28784">
        <ele>1148.22</ele>
        <time>2021-03-28T00:01:08Z</time>
      </trkpt>
      <trkpt lat="41.333972" lon="-3.287941">
        <ele>1149.44</ele>
        <time>2021-03-28T00:01:11Z</time>
      </trkpt>
      <trkpt lat="41.333951" lon="-3.28805">
        <ele>1150.41</ele>
        <time>2021-03-28T00:01:13Z</time>
      </trkpt>
      <trkpt lat="41.333971" lon="-3.288201">
        <ele>1150.98</ele>
        <time>2021-03-28T00:01:16Z</time>
      </trkpt>
      <trkpt lat="41.334218" lon="-3.288563">
        <ele>1147.91</ele>
        <time>2021-03-28T00:01:18Z</time>
      </trkpt>
      <trkpt lat="41.334272" lon="-3.288691">
        <ele>1147.27</ele>
        <time>2021-03-28T00:01:21Z</time>
      </trkpt>
      <trkpt lat="41.334325" lon="-3.288936">
        <ele>1148.3</ele>
        <time>2021-03-28T00:01:23Z</time>
      </trkpt>
      <trkpt lat="41.334311" lon="-3.289225">
        <ele>1153.5</ele>
        <time>2021-03-28T00:01:26Z</time>
      </trkpt>
      <trkpt lat="41.334244" lon="-3.289567">
        <ele>1157.78</ele>
        <time>2021-03-28T00:01:28Z</time>
      </trkpt>
      <trkpt lat="41.334227" lon="-3.289916">
        <ele>1159.4</ele>
        <time>2021-03-28T00:01:31Z</time>
      </trkpt>
      <trkpt lat="41.334387" lon="-3.2907">
        <ele>1161.11</ele>
        <time>2021-03-28T00:01:33Z</time>
      </trkpt>
      <trkpt lat="41.334488" lon="-3.29163">
        <ele>1165.25</ele>
        <time>2021-03-28T00:01:36Z</time>
      </trkpt>
      <trkpt lat="41.334474" lon="-3.292002">
        <ele>1170.34</ele>
        <time>2021-03-28T00:01:38Z</time>
      </trkpt>
      <trkpt lat="41.334324" lon="-3.292551">
        <ele>1173.24</ele>
        <time>2021-03-28T00:01:41Z</time>
      </trkpt>
      <trkpt lat="41.334298" lon="-3.29282">
        <ele>1173.82</ele>
        <time>2021-03-28T00:01:43Z</time>
      </trkpt>
      <trkpt lat="41.334381" lon="-3.293619">
        <ele>1178.45</ele>
        <time>2021-03-28T00:01:46Z</time>
      </trkpt>
      <trkpt lat="41.334458" lon="-3.293988">
        <ele>1180.62</ele>
        <time>2021-03-28T00:01:48Z</time>
      </trkpt>
      <trkpt lat="41.334653" lon="-3.294704">
        <ele>1183.55</ele>
        <time>2021-03-28T00:01:51Z</time>
      </trkpt>
      <trkpt lat="41.334699" lon="-3.294984">
        <ele>1185.42</ele>
        <time>2021-03-28T00:01:53Z</time>
      </trkpt>
      <trkpt lat="41.334665" lon="-3.295145">
        <ele>1187.9</ele>
        <time>2021-03-28T00:01:56Z</time>
      </trkpt>
      <trkpt lat="41.334577" lon="-3.295289">
        <ele>1191.18</ele>
        <time>2021-03-28T00:01:58Z</time>
      </trkpt>
      <trkpt lat="41.334409" lon="-3.295375">
        <ele>1193.39</ele>
        <time>2021-03-28T00:02:01Z</time>
      </trkpt>
      <trkpt lat="41.334332" lon="-3.295381">
        <ele>1192.82</ele>
        <time>2021-03-28T00:02:03Z</time>
      </trkpt>
      <trkpt lat="41.334258" lon="-3.295361">
        <ele>1192.35</ele>
        <time>2021-03-28T00:02:06Z</time>
      </trkpt>
      <trkpt lat="41.334034" lon="-3.295164">
        <ele>1189.2</ele>
        <time>2021-03-28T00:02:08Z</time>
      </trkpt>
      <trkpt lat="41.333726" lon="-3.294846">
        <ele>1184.5</ele>
        <time>2021-03-28T00:02:11Z</time>
      </trkpt>
      <trkpt lat="41.333454" lon="-3.294553">
        <ele>1184.69</ele>
        <time>2021-03-28T00:02:13Z</time>
      </trkpt>
      <trkpt lat="41.33315" lon="-3.294183">
        <ele>1182.95</ele>
        <time>2021-03-28T00:02:16Z</time>
      </trkpt>
      <trkpt lat="41.333031" lon="-3.294073">
        <ele>1181.41</ele>
        <time>2021-03-28T00:02:18Z</time>
      </trkpt>
      <trkpt lat="41.332922" lon="-3.294031">
        <ele>1180.53</ele>
        <time>2021-03-28T00:02:20Z</time>
      </trkpt>
      <trkpt lat="41.332846" lon="-3.294031">
        <ele>1179.71</ele>
        <time>2021-03-28T00:02:23Z</time>
      </trkpt>
      <trkpt lat="41.33274" lon="-3.294082">
        <ele>1178.89</ele>
        <time>2021-03-28T00:02:25Z</time>
      </trkpt>
      <trkpt lat="41.332613" lon="-3.294176">
        <ele>1179.75</ele>
        <time>2021-03-28T00:02:28Z</time>
      </trkpt>
      <trkpt lat="41.332564" lon="-3.294243">
        <ele>1180.04</ele>
        <time>2021-03-28T00:02:30Z</time>
      </trkpt>
      <trkpt lat="41.332527" lon="-3.294336">
        <ele>1180.09</ele>
        <time>2021-03-28T00:02:33Z</time>
      </trkpt>
      <trkpt lat="41.332521" lon="-3.294449">
        <ele>1179.74</ele>
        <time>2021-03-28T00:02:35Z</time>
      </trkpt>
      <trkpt lat="41.332573" lon="-3.294825">
        <ele>1177.01</ele>
        <time>2021-03-28T00:02:38Z</time>
      </trkpt>
      <trkpt lat="41.332601" lon="-3.295203">
        <ele>1175.18</ele>
        <time>2021-03-28T00:02:40Z</time>
      </trkpt>
      <trkpt lat="41.332586" lon="-3.295369">
        <ele>1174.41</ele>
        <time>2021-03-28T00:02:43Z</time>
      </trkpt>
      <trkpt lat="41.332472" lon="-3.295957">
        <ele>1173.45</ele>
        <time>2021-03-28T00:02:45Z</time>
      </trkpt>
      <trkpt lat="41.33245" lon="-3.296167">
        <ele>1173.12</ele>
        <time>2021-03-28T00:02:48Z</time>
      </trkpt>
      <trkpt lat="41.332533" lon="-3.29792">
        <ele>1164.13</ele>
        <time>2021-03-28T00:02:50Z</time>
      </trkpt>
      <trkpt lat="41.332521" lon="-3.299154">
        <ele>1158.74</ele>
        <time>2021-03-28T00:02:53Z</time>
      </trkpt>
      <trkpt lat="41.332588" lon="-3.299916">
        <ele>1151.37</ele>
        <time>2021-03-28T00:02:55Z</time>
      </trkpt>
      <trkpt lat="41.332865" lon="-3.302539">
        <ele>1142.52</ele>
        <time>2021-03-28T00:02:58Z</time>
      </trkpt>
      <trkpt lat="41.332866" lon="-3.302993">
        <ele>1137.31</ele>
        <time>2021-03-28T00:03:00Z</time>
      </trkpt>
      <trkpt lat="41.332784" lon="-3.303832">
        <ele>1133.11</ele>
        <time>2021-03-28T00:03:03Z</time>
      </trkpt>
      <trkpt lat="41.332725" lon="-3.304255">
        <ele>1131.93</ele>
        <time>2021-03-28T00:03:05Z</time>
      </trkpt>
      <trkpt lat="41.332574" lon="-3.304866">
        <ele>1129.21</ele>
        <time>2021-03-28T00:03:08Z</time>
      </trkpt>
      <trkpt lat="41.332287" lon="-3.30586">
        <ele>1121.53</ele>
        <time>2021-03-28T00:03:10Z</time>
      </trkpt>
      <trkpt lat="41.33217" lon="-3.306414">
        <ele>1116.55</ele>
        <time>2021-03-28T00:03:13Z</time>
      </trkpt>
      <trkpt lat="41.332041" lon="-3.307158">
        <ele>1115.3</ele>
        <time>2021-03-28T00:03:15Z</time>
      </trkpt>
      <trkpt lat="41.332039" lon="-3.30743">
        <ele>1116.81</ele>
        <time>2021-03-28T00:03:18Z</time>
      </trkpt>
      <trkpt lat="41.332344" lon="-3.309425">
        <ele>1118.92</ele>
        <time>2021-03-28T00:03:20Z</time>
      </trkpt>
      <trkpt lat="41.332317" lon="-3.309674">
        <ele>1118.2</ele>
        <time>2021-03-28T00:03:23Z</time>
      </trkpt>
      <trkpt lat="41.332227" lon="-3.309845">
        <ele>1117.64</ele>
        <time>2021-03-28T00:03:25Z</time>
      </trkpt>
      <trkpt lat="41.332011" lon="-3.310025">
        <ele>1116.33</ele>
        <time>2021-03-28T00:03:28Z</time>
      </trkpt>
      <trkpt lat="41.329241" lon="-3.311345">
        <ele>1097.98</ele>
        <time>2021-03-28T00:03:30Z</time>
      </trkpt>
      <trkpt lat="41.328841" lon="-3.311522">
        <ele>1095.52</ele>
        <time>2021-03-28T00:03:33Z</time>
      </trkpt>
      <trkpt lat="41.328577" lon="-3.311617">
        <ele>1093.52</ele>
        <time>2021-03-28T00:03:35Z</time>
      </trkpt>
      <trkpt lat="41.328272" lon="-3.311764">
        <ele>1095.25</ele>
        <time>2021-03-28T00:03:38Z</time>
      </trkpt>
      <trkpt lat="41.327832" lon="-3.312151">
        <ele>1091.83</ele>
        <time>2021-03-28T00:03:40Z</time>
      </trkpt>
      <trkpt lat="41.327717" lon="-3.312235">
        <ele>1090.88</ele>
        <time>2021-03-28T00:03:43Z</time>
      </trkpt>
      <trkpt lat="41.327332" lon="-3.312444">
        <ele>1089.84</ele>
        <time>2021-03-28T00:03:45Z</time>
      </trkpt>
      <trkpt lat="41.32727" lon="-3.312507">
        <ele>1089.19</ele>
        <time>2021-03-28T00:03:48Z</time>
      </trkpt>
      <trkpt lat="41.327234" lon="-3.312582">
        <ele>1089.32</ele>
        <time>2021-03-28T00:03:50Z</time>
      </trkpt>
      <trkpt lat="41.327223" lon="-3.312737">
        <ele>1089.85</ele>
        <time>2021-03-28T00:03:53Z</time>
      </trkpt>
      <trkpt lat="41.327227" lon="-3.313024">
        <ele>1090.9</ele>
        <time>2021-03-28T00:03:55Z</time>
      </trkpt>
      <trkpt lat="41.327254" lon="-3.313234">
        <ele>1091.83</ele>
        <time>2021-03-28T00:03:58Z</time>
      </trkpt>
      <trkpt lat="41.327329" lon="-3.313428">
        <ele>1093.53</ele>
        <time>2021-03-28T00:04:00Z</time>
      </trkpt>
      <trkpt lat="41.327462" lon="-3.313636">
        <ele>1095.13</ele>
        <time>2021-03-28T00:04:03Z</time>
      </trkpt>
      <trkpt lat="41.32757" lon="-3.313766">
        <ele>1095.81</ele>
        <time>2021-03-28T00:04:05Z</time>
      </trkpt>
      <trkpt lat="41.327653" lon="-3.313828">
        <ele>1096.33</ele>
        <time>2021-03-28T00:04:08Z</time>
      </trkpt>
      <trkpt lat="41.32796" lon="-3.313998">
        <ele>1097.92</ele>
        <time>2021-03-28T00:04:10Z</time>
      </trkpt>
      <trkpt lat="41.328079" lon="-3.314096">
        <ele>1098.49</ele>
        <time>2021-03-28T00:04:13Z</time>
      </trkpt>
      <trkpt lat="41.328155" lon="-3.314168">
        <ele>1099.02</ele>
        <time>2021-03-28T00:04:15Z</time>
      </trkpt>
      <trkpt lat="41.328211" lon="-3.314313">
        <ele>1100.29</ele>
        <time>2021-03-28T00:04:18Z</time>
      </trkpt>
      <trkpt lat="41.328213" lon="-3.314383">
        <ele>1100.9</ele>
        <time>2021-03-28T00:04:20Z</time>
      </trkpt>
      <trkpt lat="41.328187" lon="-3.314489">
        <ele>1101.93</ele>
        <time>2021-03-28T00:04:23Z</time>
      </trkpt>
      <trkpt lat="41.328113" lon="-3.314628">
        <ele>1103.64</ele>
        <time>2021-03-28T00:04:25Z</time>
      </trkpt>
      <trkpt lat="41.32794" lon="-3.314879">
        <ele>1105.8</ele>
        <time>2021-03-28T00:04:27Z</time>
      </trkpt>
      <trkpt lat="41.327865" lon="-3.314944">
        <ele>1106.35</ele>
        <time>2021-03-28T00:04:30Z</time>
      </trkpt>
      <trkpt lat="41.327746" lon="-3.314996">
        <ele>1106.97</ele>
        <time>2021-03-28T00:04:32Z</time>
      </trkpt>
      <trkpt lat="41.326844" lon="-3.315046">
        <ele>1109.38</ele>
        <time>2021-03-28T00:04:35Z</time>
      </trkpt>
      <trkpt lat="41.326258" lon="-3.315269">
        <ele>1116.34</ele>
        <time>2021-03-28T00:04:37Z</time>
      </trkpt>
      <trkpt lat="41.326063" lon="-3.315311">
        <ele>1117.75</ele>
        <time>2021-03-28T00:04:40Z</time>
      </trkpt>
      <trkpt lat="41.325884" lon="-3.315209">
        <ele>1117.19</ele>
        <time>2021-03-28T00:04:42Z</time>
      </trkpt>
      <trkpt lat="41.325552" lon="-3.314967">
        <ele>1118.72</ele>
        <time>2021-03-28T00:04:45Z</time>
      </trkpt>
      <trkpt lat="41.325383" lon="-3.314902">
        <ele>1122.51</ele>
        <time>2021-03-28T00:04:47Z</time>
      </trkpt>
      <trkpt lat="41.325152" lon="-3.314872">
        <ele>1126.9</ele>
        <time>2021-03-28T00:04:50Z</time>
      </trkpt>
      <trkpt lat="41.325065" lon="-3.314889">
        <ele>1128.26</ele>
        <time>2021-03-28T00:04:52Z</time>
      </trkpt>
      <trkpt lat="41.324989" lon="-3.314948">
        <ele>1129.68</ele>
        <time>2021-03-28T00:04:55Z</time>
      </trkpt>
      <trkpt lat="41.324936" lon="-3.315046">
        <ele>1130.7</ele>
        <time>2021-03-28T00:04:57Z</time>
      </trkpt>
      <trkpt lat="41.324916" lon="-3.315122">
        <ele>1131.31</ele>
        <time>2021-03-28T00:05:00Z</time>
      </trkpt>
      <trkpt lat="41.324935" lon="-3.315428">
        <ele>1132.35</ele>
        <time>2021-03-28T00:05:02Z</time>
      </trkpt>
      <trkpt lat="41.324917" lon="-3.315502">
        <ele>1132.76</ele>
        <time>2021-03-28T00:05:05Z</time>
      </trkpt>
      <trkpt lat="41.324877" lon="-3.315571">
        <ele>1133.33</ele>
        <time>2021-03-28T00:05:07Z</time>
      </trkpt>
      <trkpt lat="41.324818" lon="-3.315608">
        <ele>1133.96</ele>
        <time>2021-03-28T00:05:10Z</time>
      </trkpt>
      <trkpt lat="41.324605" lon="-3.315606">
        <ele>1136.42</ele>
        <time>2021-03-28T00:05:12Z</time>
      </trkpt>
      <trkpt lat="41.324504" lon="-3.315642">
        <ele>1137.84</ele>
        <time>2021-03-28T00:05:15Z</time>
      </trkpt>
      <trkpt lat="41.324429" lon="-3.315714">
        <ele>1139.22</ele>
        <time>2021-03-28T00:05:17Z</time>
      </trkpt>
      <trkpt lat="41.324375" lon="-3.315789">
        <ele>1140.14</ele>
        <time>2021-03-28T00:05:20Z</time>
      </trkpt>
      <trkpt lat="41.324194" lon="-3.316139">
        <ele>1142.72</ele>
        <time>2021-03-28T00:05:22Z</time>
      </trkpt>
      <trkpt lat="41.324045" lon="-3.316344">
        <ele>1143.36</ele>
        <time>2021-03-28T00:05:25Z</time>
      </trkpt>
      <trkpt lat="41.323314" lon="-3.317244">
        <ele>1145.2</ele>
        <time>2021-03-28T00:05:27Z</time>
      </trkpt>
      <trkpt lat="41.322677" lon="-3.317985">
        <ele>1149.5</ele>
        <time>2021-03-28T00:05:30Z</time>
      </trkpt>
      <trkpt lat="41.322227" lon="-3.318475">
        <ele>1148.46</ele>
        <time>2021-03-28T00:05:32Z</time>
      </trkpt>
      <trkpt lat="41.321315" lon="-3.31942">
        <ele>1152.41</ele>
        <time>2021-03-28T00:05:35Z</time>
      </trkpt>
      <trkpt lat="41.321127" lon="-3.31964">
        <ele>1154.21</ele>
        <time>2021-03-28T00:05:37Z</time>
      </trkpt>
      <trkpt lat="41.320301" lon="-3.320761">
        <ele>1152.13</ele>
        <time>2021-03-28T00:05:40Z</time>
      </trkpt>
      <trkpt lat="41.320166" lon="-3.321">
        <ele>1153.96</ele>
        <time>2021-03-28T00:05:42Z</time>
      </trkpt>
      <trkpt lat="41.319842" lon="-3.32173">
        <ele>1156.77</ele>
        <time>2021-03-28T00:05:45Z</time>
      </trkpt>
      <trkpt lat="41.319755" lon="-3.32185">
        <ele>1156.34</ele>
        <time>2021-03-28T00:05:47Z</time>
      </trkpt>
      <trkpt lat="41.319662" lon="-3.321941">
        <ele>1156.01</ele>
        <time>2021-03-28T00:05:50Z</time>
      </trkpt>
      <trkpt lat="41.318811" lon="-3.322526">
        <ele>1153.4</ele>
        <time>2021-03-28T00:05:52Z</time>
      </trkpt>
      <trkpt lat="41.318709" lon="-3.322627">
        <ele>1153.68</ele>
        <time>2021-03-28T00:05:55Z</time>
      </trkpt>
      <trkpt lat="41.318289" lon="-3.323185">
        <ele>1148.81</ele>
        <time>2021-03-28T00:05:57Z</time>
      </trkpt>
      <trkpt lat="41.318049" lon="-3.323418">
        <ele>1147.54</ele>
        <time>2021-03-28T00:06:00Z</time>
      </trkpt>
      <trkpt lat="41.31775" lon="-3.323561">
        <ele>1148.17</ele>
        <time>2021-03-28T00:06:02Z</time>
      </trkpt>
      <trkpt lat="41.31645" lon="-3.323945">
        <ele>1153.1</ele>
        <time>2021-03-28T00:06:05Z</time>
      </trkpt>
      <trkpt lat="41.316327" lon="-3.323994">
        <ele>1154.69</ele>
        <time>2021-03-28T00:06:07Z</time>
      </trkpt>
      <trkpt lat="41.316272" lon="-3.324044">
        <ele>1155.05</ele>
        <time>2021-03-28T00:06:10Z</time>
      </trkpt>
      <trkpt lat="41.316243" lon="-3.324112">
        <ele>1155.0</ele>
        <time>2021-03-28T00:06:12Z</time>
      </trkpt>
      <trkpt lat="41.316235" lon="-3.324202">
        <ele>1154.57</ele>
        <time>2021-03-28T00:06:15Z</time>
      </trkpt>
      <trkpt lat="41.316278" lon="-3.324335">
        <ele>1153.15</ele>
        <time>2021-03-28T00:06:17Z</time>
      </trkpt>
      <trkpt lat="41.316377" lon="-3.324429">
        <ele>1151.22</ele>
        <time>2021-03-28T00:06:20Z</time>
      </trkpt>
      <trkpt lat="41.317105" lon="-3.32469">
        <ele>1142.76</ele>
        <time>2021-03-28T00:06:22Z</time>
      </trkpt>
      <trkpt lat="41.317697" lon="-3.32478">
        <ele>1138.94</ele>
        <time>2021-03-28T00:06:25Z</time>
      </trkpt>
      <trkpt lat="41.317799" lon="-3.324875">
        <ele>1138.89</ele>
        <time>2021-03-28T00:06:27Z</time>
      </trkpt>
      <trkpt lat="41.317817" lon="-3.32494">
        <ele>1138.83</ele>
        <time>2021-03-28T00:06:29Z</time>
      </trkpt>
      <trkpt lat="41.317811" lon="-3.325013">
        <ele>1138.75</ele>
        <time>2021-03-28T00:06:32Z</time>
      </trkpt>
      <trkpt lat="41.317782" lon="-3.325103">
        <ele>1137.88</ele>
        <time>2021-03-28T00:06:34Z</time>
      </trkpt>
      <trkpt lat="41.317718" lon="-3.3252">
        <ele>1136.63</ele>
        <time>2021-03-28T00:06:37Z</time>
      </trkpt>
      <trkpt lat="41.317627" lon="-3.325278">
        <ele>1135.46</ele>
        <time>2021-03-28T00:06:39Z</time>
      </trkpt>
      <trkpt lat="41.316773" lon="-3.325816">
        <ele>1132.27</ele>
        <time>2021-03-28T00:06:42Z</time>
      </trkpt>
      <trkpt lat="41.316204" lon="-3.326273">
        <ele>1126.6</ele>
        <time>2021-03-28T00:06:44Z</time>
      </trkpt>
      <trkpt lat="41.315639" lon="-3.326792">
        <ele>1124.49</ele>
        <time>2021-03-28T00:06:47Z</time>
      </trkpt>
      <trkpt lat="41.315372" lon="-3.327096">
        <ele>1123.02</ele>
        <time>2021-03-28T00:06:49Z</time>
      </trkpt>
      <trkpt lat="41.314835" lon="-3.328245">
        <ele>1116.91</ele>
        <time>2021-03-28T00:06:52Z</time>
      </trkpt>
      <trkpt lat="41.314472" lon="-3.328888">
        <ele>1118.0</ele>
        <time>2021-03-28T00:06:54Z</time>
      </trkpt>
      <trkpt lat="41.314195" lon="-3.329223">
        <ele>1118.45</ele>
        <time>2021-03-28T00:06:57Z</time>
      </trkpt>
      <trkpt lat="41.313501" lon="-3.329851">
        <ele>1126.06</ele>
        <time>2021-03-28T00:06:59Z</time>
      </trkpt>
      <trkpt lat="41.313251" lon="-3.330135">
        <ele>1130.13</ele>
        <time>2021-03-28T00:07:02Z</time>
      </trkpt>
      <trkpt lat="41.313079" lon="-3.330457">
        <ele>1132.4</ele>
        <time>2021-03-28T00:07:04Z</time>
      </trkpt>
      <trkpt lat="41.313016" lon="-3.330647">
        <ele>1133.13</ele>
        <time>2021-03-28T00:07:07Z</time>
      </trkpt>
      <trkpt lat="41.312971" lon="-3.33087">
        <ele>1134.35</ele>
        <time>2021-03-28T00:07:09Z</time>
      </trkpt>
      <trkpt lat="41.312947" lon="-3.331149">
        <ele>1135.96</ele>
        <time>2021-03-28T00:07:12Z</time>
      </trkpt>
      <trkpt lat="41.312946" lon="-3.33147">
        <ele>1137.05</ele>
        <time>2021-03-28T00:07:14Z</time>
      </trkpt>
      <trkpt lat="41.313113" lon="-3.332271">
        <ele>1140.41</ele>
        <time>2021-03-28T00:07:17Z</time>
      </trkpt>
      <trkpt lat="41.313637" lon="-3.334514">
        <ele>1156.26</ele>
        <time>2021-03-28T00:07:19Z</time>
      </trkpt>
      <trkpt lat="41.313815" lon="-3.335138">
        <ele>1156.83</ele>
        <time>2021-03-28T00:07:22Z</time>
      </trkpt>
      <trkpt lat="41.313959" lon="-3.335471">
        <ele>1158.41</ele>
        <time>2021-03-28T00:07:24Z</time>
      </trkpt>
      <trkpt lat="41.314169" lon="-3.3358">
        <ele>1162.07</ele>
        <time>2021-03-28T00:07:27Z</time>
      </trkpt>
      <trkpt lat="41.314269" lon="-3.336032">
        <ele>1165.48</ele>
        <time>2021-03-28T00:07:29Z</time>
      </trkpt>
      <trkpt lat="41.314287" lon="-3.336259">
        <ele>1166.77</ele>
        <time>2021-03-28T00:07:32Z</time>
      </trkpt>
      <trkpt lat="41.314279" lon="-3.336383">
        <ele>1167.18</ele>
        <time>2021-03-28T00:07:34Z</time>
      </trkpt>
      <trkpt lat="41.314126" lon="-3.337118">
        <ele>1171.81</ele>
        <time>2021-03-28T00:07:37Z</time>
      </trkpt>
      <trkpt lat="41.314093" lon="-3.337325">
        <ele>1172.95</ele>
        <time>2021-03-28T00:07:39Z</time>
      </trkpt>
      <trkpt lat="41.314081" lon="-3.337564">
        <ele>1174.22</ele>
        <time>2021-03-28T00:07:42Z</time>
      </trkpt>
      <trkpt lat="41.314093" lon="-3.337811">
        <ele>1174.73</ele>
        <time>2021-03-28T00:07:44Z</time>
      </trkpt>
      <trkpt lat="41.314171" lon="-3.338264">
        <ele>1175.76</ele>
        <time>2021-03-28T00:07:47Z</time>
      </trkpt>
      <trkpt lat="41.314205" lon="-3.338394">
        <ele>1176.19</ele>
        <time>2021-03-28T00:07:49Z</time>
      </trkpt>
      <trkpt lat="41.314333" lon="-3.338737">
        <ele>1176.58</ele>
        <time>2021-03-28T00:07:52Z</time>
      </trkpt>
      <trkpt lat="41.314441" lon="-3.338947">
        <ele>1175.82</ele>
        <time>2021-03-28T00:07:54Z</time>
      </trkpt>
      <trkpt lat="41.315719" lon="-3.341063">
        <ele>1166.69</ele>
        <time>2021-03-28T00:07:57Z</time>
      </trkpt>
      <trkpt lat="41.315979" lon="-3.341555">
        <ele>1160.92</ele>
        <time>2021-03-28T00:07:59Z</time>
      </trkpt>
      <trkpt lat="41.316103" lon="-3.341827">
        <ele>1157.7</ele>
        <time>2021-03-28T00:08:02Z</time>
      </trkpt>
      <trkpt lat="41.316326" lon="-3.342407">
        <ele>1153.99</ele>
        <time>2021-03-28T00:08:04Z</time>
      </trkpt>
      <trkpt lat="41.316486" lon="-3.342981">
        <ele>1148.52</ele>
        <time>2021-03-28T00:08:07Z</time>
      </trkpt>
      <trkpt lat="41.316723" lon="-3.344042">
        <ele>1140.92</ele>
        <time>2021-03-28T00:08:09Z</time>
      </trkpt>
      <trkpt lat="41.316841" lon="-3.344693">
        <ele>1134.55</ele>
        <time>2021-03-28T00:08:12Z</time>
      </trkpt>
      <trkpt lat="41.317192" lon="-3.347152">
        <ele>1121.37</ele>
        <time>2021-03-28T00:08:14Z</time>
      </trkpt>
      <trkpt lat="41.317225" lon="-3.347448">
        <ele>1119.39</ele>
        <time>2021-03-28T00:08:17Z</time>
      </trkpt>
      <trkpt lat="41.31727" lon="-3.348229">
        <ele>1110.02</ele>
        <time>2021-03-28T00:08:19Z</time>
      </trkpt>
      <trkpt lat="41.317295" lon="-3.348394">
        <ele>1108.23</ele>
        <time>2021-03-28T00:08:22Z</time>
      </trkpt>
      <trkpt lat="41.317335" lon="-3.348533">
        <ele>1107.19</ele>
        <time>2021-03-28T00:08:24Z</time>
      </trkpt>
      <trkpt lat="41.317396" lon="-3.348675">
        <ele>1106.03</ele>
        <time>2021-03-28T00:08:27Z</time>
      </trkpt>
      <trkpt lat="41.317552" lon="-3.3489">
        <ele>1104.13</ele>
        <time>2021-03-28T00:08:29Z</time>
      </trkpt>
      <trkpt lat="41.318035" lon="-3.349229">
        <ele>1098.71</ele>
        <time>2021-03-28T00:08:32Z</time>
      </trkpt>
      <trkpt lat="41.318115" lon="-3.349321">
        <ele>1097.8</ele>
        <time>2021-03-28T00:08:34Z</time>
      </trkpt>
      <trkpt lat="41.318234" lon="-3.34952">
        <ele>1096.82</ele>
        <time>2021-03-28T00:08:36Z</time>
      </trkpt>
      <trkpt lat="41.318312" lon="-3.349709">
        <ele>1096.12</ele>
        <time>2021-03-28T00:08:39Z</time>
      </trkpt>
      <trkpt lat="41.318316" lon="-3.349933">
        <ele>1093.83</ele>
        <time>2021-03-28T00:08:41Z</time>
      </trkpt>
      <trkpt lat="41.318223" lon="-3.350574">
        <ele>1090.79</ele>
        <time>2021-03-28T00:08:44Z</time>
      </trkpt>
      <trkpt lat="41.318222" lon="-3.350874">
        <ele>1090.74</ele>
        <time>2021-03-28T00:08:46Z</time>
      </trkpt>
      <trkpt lat="41.318278" lon="-3.351146">
        <ele>1090.3</ele>
        <time>2021-03-28T00:08:49Z</time>
      </trkpt>
      <trkpt lat="41.318331" lon="-3.35127">
        <ele>1090.57</ele>
        <time>2021-03-28T00:08:51Z</time>
      </trkpt>
      <trkpt lat="41.318472" lon="-3.351512">
        <ele>1090.67</ele>
        <time>2021-03-28T00:08:54Z</time>
      </trkpt>
      <trkpt lat="41.320539" lon="-3.354153">
        <ele>1088.96</ele>
        <time>2021-03-28T00:08:56Z</time>
      </trkpt>
      <trkpt lat="41.320789" lon="-3.354522">
        <ele>1092.32</ele>
        <time>2021-03-28T00:08:59Z</time>
      </trkpt>
      <trkpt lat="41.320895" lon="-3.354726">
        <ele>1092.54</ele>
        <time>2021-03-28T00:09:01Z</time>
      </trkpt>
      <trkpt lat="41.321033" lon="-3.355034">
        <ele>1092.0</ele>
        <time>2021-03-28T00:09:04Z</time>
      </trkpt>
      <trkpt lat="41.321175" lon="-3.355484">
        <ele>1092.97</ele>
        <time>2021-03-28T00:09:06Z</time>
      </trkpt>
      <trkpt lat="41.321363" lon="-3.356513">
        <ele>1101.91</ele>
        <time>2021-03-28T00:09:09Z</time>
      </trkpt>
      <trkpt lat="41.321437" lon="-3.356828">
        <ele>1100.49</ele>
        <time>2021-03-28T00:09:11Z</time>
      </trkpt>
      <trkpt lat="41.322111" lon="-3.359349">
        <ele>1088.27</ele>
        <time>2021-03-28T00:09:14Z</time>
      </trkpt>
      <trkpt lat="41.322191" lon="-3.359578">
        <ele>1086.43</ele>
        <time>2021-03-28T00:09:16Z</time>
      </trkpt>
      <trkpt lat="41.322268" lon="-3.359748">
        <ele>1084.32</ele>
        <time>2021-03-28T00:09:19Z</time>
      </trkpt>
      <trkpt lat="41.322441" lon="-3.360023">
        <ele>1080.63</ele>
        <time>2021-03-28T00:09:21Z</time>
      </trkpt>
      <trkpt lat="41.323079" lon="-3.360747">
        <ele>1081.52</ele>
        <time>2021-03-28T00:09:24Z</time>
      </trkpt>
      <trkpt lat="41.32331" lon="-3.360943">
        <ele>1080.17</ele>
        <time>2021-03-28T00:09:26Z</time>
      </trkpt>
      <trkpt lat="41.324427" lon="-3.361704">
        <ele>1084.4</ele>
        <time>2021-03-28T00:09:29Z</time>
      </trkpt>
      <trkpt lat="41.324792" lon="-3.36185">
        <ele>1086.41</ele>
        <time>2021-03-28T00:09:31Z</time>
      </trkpt>
      <trkpt lat="41.324996" lon="-3.361877">
        <ele>1086.75</ele>
        <time>2021-03-28T00:09:34Z</time>
      </trkpt>
      <trkpt lat="41.326089" lon="-3.36161">
        <ele>1093.19</ele>
        <time>2021-03-28T00:09:36Z</time>
      </trkpt>
      <trkpt lat="41.326333" lon="-3.361579">
        <ele>1094.04</ele>
        <time>2021-03-28T00:09:39Z</time>
      </trkpt>
      <trkpt lat="41.326559" lon="-3.3616">
        <ele>1094.83</ele>
        <time>2021-03-28T00:09:41Z</time>
      </trkpt>
      <trkpt lat="41.326799" lon="-3.36169">
        <ele>1095.6</ele>
        <time>2021-03-28T00:09:44Z</time>
      </trkpt>
      <trkpt lat="41.326913" lon="-3.361762">
        <ele>1095.45</ele>
        <time>2021-03-28T00:09:46Z</time>
      </trkpt>
      <trkpt lat="41.32709" lon="-3.361925">
        <ele>1095.41</ele>
        <time>2021-03-28T00:09:49Z</time>
      </trkpt>
      <trkpt lat="41.327194" lon="-3.362048">
        <ele>1095.81</ele>
        <time>2021-03-28T00:09:51Z</time>
      </trkpt>
      <trkpt lat="41.327261" lon="-3.362156">
        <ele>1096.69</ele>
        <time>2021-03-28T00:09:54Z</time>
      </trkpt>
      <trkpt lat="41.327335" lon="-3.36229">
        <ele>1097.65</ele>
        <time>2021-03-28T00:09:56Z</time>
      </trkpt>
      <trkpt lat="41.327445" lon="-3.362556">
        <ele>1098.68</ele>
        <time>2021-03-28T00:09:59Z</time>
      </trkpt>
      <trkpt lat="41.32752" lon="-3.362888">
        <ele>1098.14</ele>
        <time>2021-03-28T00:10:01Z</time>
      </trkpt>
      <trkpt lat="41.327531" lon="-3.363025">
        <ele>1098.22</ele>
        <time>2021-03-28T00:10:04Z</time>
      </trkpt>
      <trkpt lat="41.327516" lon="-3.36334">
        <ele>1102.1</ele>
        <time>2021-03-28T00:10:06Z</time>
      </trkpt>
      <trkpt lat="41.327437" lon="-3.363759">
        <ele>1107.71</ele>
        <time>2021-03-28T00:10:09Z</time>
      </trkpt>
      <trkpt lat="41.326582" lon="-3.367196">
        <ele>1124.13</ele>
        <time>2021-03-28T00:10:11Z</time>
      </trkpt>
      <trkpt lat="41.326582" lon="-3.367196">
        <ele>1124.13</ele>
        <time>2021-03-28T00:10:11Z</time>
      </trkpt>
      <trkpt lat="41.32575" lon="-3.370545">
        <ele>1140.56</ele>
        <time>2021-03-28T00:10:14Z</time>
      </trkpt>
      <trkpt lat="41.32569" lon="-3.370818">
        <ele>1140.54</ele>
        <time>2021-03-28T00:10:17Z</time>
      </trkpt>
      <trkpt lat="41.325631" lon="-3.371325">
        <ele>1142.02</ele>
        <time>2021-03-28T00:10:20Z</time>
      </trkpt>
      <trkpt lat="41.325636" lon="-3.371501">
        <ele>1142.54</ele>
        <time>2021-03-28T00:10:23Z</time>
      </trkpt>
      <trkpt lat="41.325682" lon="-3.371828">
        <ele>1142.89</ele>
        <time>2021-03-28T00:10:26Z</time>
      </trkpt>
      <trkpt lat="41.325778" lon="-3.372144">
        <ele>1142.97</ele>
        <time>2021-03-28T00:10:29Z</time>
      </trkpt>
      <trkpt lat="41.32604" lon="-3.372829">
        <ele>1137.7</ele>
        <time>2021-03-28T00:10:32Z</time>
      </trkpt>
      <trkpt lat="41.326115" lon="-3.373074">
        <ele>1134.91</ele>
        <time>2021-03-28T00:10:35Z</time>
      </trkpt>
      <trkpt lat="41.326157" lon="-3.373286">
        <ele>1133.84</ele>
        <time>2021-03-28T00:10:37Z</time>
      </trkpt>
      <trkpt lat="41.32617" lon="-3.373507">
        <ele>1133.44</ele>
        <time>2021-03-28T00:10:40Z</time>
      </trkpt>
      <trkpt lat="41.326145" lon="-3.373941">
        <ele>1130.5</ele>
        <time>2021-03-28T00:10:43Z</time>
      </trkpt>
      <trkpt lat="41.326046" lon="-3.374462">
        <ele>1127.5</ele>
        <time>2021-03-28T00:10:46Z</time>
      </trkpt>
      <trkpt lat="41.325648" lon="-3.376249">
        <ele>1127.0</ele>
        <time>2021-03-28T00:10:49Z</time>
      </trkpt>
      <trkpt lat="41.325304" lon="-3.377682">
        <ele>1129.56</ele>
        <time>2021-03-28T00:10:52Z</time>
      </trkpt>
      <trkpt lat="41.324798" lon="-3.379441">
        <ele>1140.17</ele>
        <time>2021-03-28T00:10:55Z</time>
      </trkpt>
      <trkpt lat="41.324655" lon="-3.379861">
        <ele>1139.86</ele>
        <time>2021-03-28T00:10:58Z</time>
      </trkpt>
      <trkpt lat="41.324402" lon="-3.380423">
        <ele>1137.34</ele>
        <time>2021-03-28T00:11:01Z</time>
      </trkpt>
      <trkpt lat="41.323912" lon="-3.381274">
        <ele>1135.71</ele>
        <time>2021-03-28T00:11:04Z</time>
      </trkpt>
      <trkpt lat="41.321006" lon="-3.386125">
        <ele>1147.1</ele>
        <time>2021-03-28T00:11:07Z</time>
      </trkpt>
      <trkpt lat="41.320067" lon="-3.387633">
        <ele>1154.36</ele>
        <time>2021-03-28T00:11:09Z</time>
      </trkpt>
      <trkpt lat="41.317807" lon="-3.390435">
        <ele>1166.46</ele>
        <time>2021-03-28T00:11:12Z</time>
      </trkpt>
      <trkpt lat="41.316872" lon="-3.391619">
        <ele>1175.09</ele>
        <time>2021-03-28T00:11:15Z</time>
      </trkpt>
      <trkpt lat="41.315711" lon="-3.393138">
        <ele>1184.3</ele>
        <time>2021-03-28T00:11:18Z</time>
      </trkpt>
      <trkpt lat="41.3155" lon="-3.393387">
        <ele>1185.19</ele>
        <time>2021-03-28T00:11:21Z</time>
      </trkpt>
      <trkpt lat="41.3153" lon="-3.393584">
        <ele>1185.89</ele>
        <time>2021-03-28T00:11:24Z</time>
      </trkpt>
      <trkpt lat="41.315133" lon="-3.393711">
        <ele>1187.59</ele>
        <time>2021-03-28T00:11:27Z</time>
      </trkpt>
      <trkpt lat="41.314926" lon="-3.393837">
        <ele>1189.15</ele>
        <time>2021-03-28T00:11:30Z</time>
      </trkpt>
      <trkpt lat="41.314017" lon="-3.394303">
        <ele>1198.08</ele>
        <time>2021-03-28T00:11:33Z</time>
      </trkpt>
      <trkpt lat="41.313791" lon="-3.394435">
        <ele>1199.34</ele>
        <time>2021-03-28T00:11:36Z</time>
      </trkpt>
      <trkpt lat="41.313622" lon="-3.394569">
        <ele>1200.4</ele>
        <time>2021-03-28T00:11:39Z</time>
      </trkpt>
      <trkpt lat="41.313213" lon="-3.394981">
        <ele>1203.72</ele>
        <time>2021-03-28T00:11:41Z</time>
      </trkpt>
      <trkpt lat="41.310863" lon="-3.397474">
        <ele>1211.89</ele>
        <time>2021-03-28T00:11:44Z</time>
      </trkpt>
      <trkpt lat="41.310556" lon="-3.397846">
        <ele>1215.0</ele>
        <time>2021-03-28T00:11:47Z</time>
      </trkpt>
      <trkpt lat="41.310362" lon="-3.398122">
        <ele>1216.16</ele>
        <time>2021-03-28T00:11:50Z</time>
      </trkpt>
      <trkpt lat="41.30963" lon="-3.399352">
        <ele>1220.0</ele>
        <time>2021-03-28T00:11:53Z</time>
      </trkpt>
      <trkpt lat="41.309431" lon="-3.399746">
        <ele>1222.01</ele>
        <time>2021-03-28T00:11:56Z</time>
      </trkpt>
      <trkpt lat="41.3093" lon="-3.400078">
        <ele>1222.15</ele>
        <time>2021-03-28T00:11:59Z</time>
      </trkpt>
      <trkpt lat="41.309172" lon="-3.400553">
        <ele>1221.95</ele>
        <time>2021-03-28T00:12:02Z</time>
      </trkpt>
      <trkpt lat="41.308902" lon="-3.402806">
        <ele>1231.96</ele>
        <time>2021-03-28T00:12:05Z</time>
      </trkpt>
      <trkpt lat="41.308853" lon="-3.403011">
        <ele>1232.11</ele>
        <time>2021-03-28T00:12:08Z</time>
      </trkpt>
      <trkpt lat="41.308754" lon="-3.403232">
        <ele>1231.87</ele>
        <time>2021-03-28T00:12:11Z</time>
      </trkpt>
      <trkpt lat="41.308378" lon="-3.403755">
        <ele>1229.57</ele>
        <time>2021-03-28T00:12:13Z</time>
      </trkpt>
      <trkpt lat="41.308225" lon="-3.404037">
        <ele>1229.18</ele>
        <time>2021-03-28T00:12:16Z</time>
      </trkpt>
      <trkpt lat="41.307441" lon="-3.405633">
        <ele>1220.85</ele>
        <time>2021-03-28T00:12:19Z</time>
      </trkpt>
      <trkpt lat="41.30732" lon="-3.405836">
        <ele>1221.01</ele>
        <time>2021-03-28T00:12:22Z</time>
      </trkpt>
      <trkpt lat="41.307088" lon="-3.40605">
        <ele>1221.3</ele>
        <time>2021-03-28T00:12:25Z</time>
      </trkpt>
      <trkpt lat="41.306636" lon="-3.406312">
        <ele>1224.01</ele>
        <time>2021-03-28T00:12:28Z</time>
      </trkpt>
      <trkpt lat="41.306331" lon="-3.406542">
        <ele>1225.66</ele>
        <time>2021-03-28T00:12:31Z</time>
      </trkpt>
      <trkpt lat="41.305839" lon="-3.407069">
        <ele>1228.41</ele>
        <time>2021-03-28T00:12:34Z</time>
      </trkpt>
      <trkpt lat="41.303591" lon="-3.409709">
        <ele>1241.44</ele>
        <time>2021-03-28T00:12:37Z</time>
      </trkpt>
      <trkpt lat="41.303354" lon="-3.410104">
        <ele>1242.85</ele>
        <time>2021-03-28T00:12:40Z</time>
      </trkpt>
      <trkpt lat="41.30326" lon="-3.410304">
        <ele>1243.85</ele>
        <time>2021-03-28T00:12:43Z</time>
      </trkpt>
      <trkpt lat="41.303143" lon="-3.410684">
        <ele>1245.69</ele>
        <time>2021-03-28T00:12:45Z</time>
      </trkpt>
      <trkpt lat="41.303088" lon="-3.41092">
        <ele>1246.68</ele>
        <time>2021-03-28T00:12:48Z</time>
      </trkpt>
      <trkpt lat="41.303024" lon="-3.411335">
        <ele>1247.22</ele>
        <time>2021-03-28T00:12:51Z</time>
      </trkpt>
      <trkpt lat="41.302975" lon="-3.412529">
        <ele>1247.44</ele>
        <time>2021-03-28T00:12:54Z</time>
      </trkpt>
      <trkpt lat="41.302956" lon="-3.412752">
        <ele>1246.48</ele>
        <time>2021-03-28T00:12:57Z</time>
      </trkpt>
      <trkpt lat="41.302912" lon="-3.41301">
        <ele>1246.51</ele>
        <time>2021-03-28T00:13:00Z</time>
      </trkpt>
      <trkpt lat="41.302818" lon="-3.413332">
        <ele>1246.0</ele>
        <time>2021-03-28T00:13:03Z</time>
      </trkpt>
      <trkpt lat="41.302723" lon="-3.413553">
        <ele>1243.18</ele>
        <time>2021-03-28T00:13:06Z</time>
      </trkpt>
      <trkpt lat="41.302407" lon="-3.414246">
        <ele>1238.05</ele>
        <time>2021-03-28T00:13:09Z</time>
      </trkpt>
      <trkpt lat="41.302307" lon="-3.414416">
        <ele>1237.8</ele>
        <time>2021-03-28T00:13:12Z</time>
      </trkpt>
      <trkpt lat="41.302191" lon="-3.414952">
        <ele>1236.37</ele>
        <time>2021-03-28T00:13:15Z</time>
      </trkpt>
      <trkpt lat="41.302168" lon="-3.415118">
        <ele>1236.73</ele>
        <time>2021-03-28T00:13:17Z</time>
      </trkpt>
      <trkpt lat="41.302151" lon="-3.416164">
        <ele>1241.9</ele>
        <time>2021-03-28T00:13:20Z</time>
      </trkpt>
      <trkpt lat="41.30217" lon="-3.417037">
        <ele>1246.77</ele>
        <time>2021-03-28T00:13:23Z</time>
      </trkpt>
      <trkpt lat="41.301971" lon="-3.421734">
        <ele>1256.83</ele>
        <time>2021-03-28T00:13:26Z</time>
      </trkpt>
      <trkpt lat="41.301964" lon="-3.422522">
        <ele>1259.01</ele>
        <time>2021-03-28T00:13:29Z</time>
      </trkpt>
      <trkpt lat="41.301982" lon="-3.422791">
        <ele>1259.92</ele>
        <time>2021-03-28T00:13:32Z</time>
      </trkpt>
      <trkpt lat="41.302062" lon="-3.423362">
        <ele>1263.58</ele>
        <time>2021-03-28T00:13:35Z</time>
      </trkpt>
      <trkpt lat="41.302163" lon="-3.423859">
        <ele>1263.21</ele>
        <time>2021-03-28T00:13:38Z</time>
      </trkpt>
      <trkpt lat="41.302485" lon="-3.425135">
        <ele>1259.11</ele>
        <time>2021-03-28T00:13:41Z</time>
      </trkpt>
      <trkpt lat="41.302729" lon="-3.426187">
        <ele>1255.85</ele>
        <time>2021-03-28T00:13:44Z</time>
      </trkpt>
      <trkpt lat="41.302753" lon="-3.426543">
        <ele>1253.16</ele>
        <time>2021-03-28T00:13:47Z</time>
      </trkpt>
      <trkpt lat="41.302742" lon="-3.426863">
        <ele>1251.68</ele>
        <time>2021-03-28T00:13:49Z</time>
      </trkpt>
      <trkpt lat="41.302708" lon="-3.427082">
        <ele>1251.63</ele>
        <time>2021-03-28T00:13:52Z</time>
      </trkpt>
      <trkpt lat="41.302551" lon="-3.427684">
        <ele>1252.09</ele>
        <time>2021-03-28T00:13:55Z</time>
      </trkpt>
      <trkpt lat="41.302485" lon="-3.428081">
        <ele>1249.99</ele>
        <time>2021-03-28T00:13:58Z</time>
      </trkpt>
      <trkpt lat="41.302465" lon="-3.428829">
        <ele>1249.73</ele>
        <time>2021-03-28T00:14:01Z</time>
      </trkpt>
      <trkpt lat="41.302578" lon="-3.429912">
        <ele>1251.34</ele>
        <time>2021-03-28T00:14:04Z</time>
      </trkpt>
      <trkpt lat="41.302587" lon="-3.430795">
        <ele>1250.96</ele>
        <time>2021-03-28T00:14:07Z</time>
      </trkpt>
      <trkpt lat="41.302755" lon="-3.431936">
        <ele>1249.51</ele>
        <time>2021-03-28T00:14:10Z</time>
      </trkpt>
      <trkpt lat="41.302858" lon="-3.432876">
        <ele>1245.88</ele>
        <time>2021-03-28T00:14:13Z</time>
      </trkpt>
      <trkpt lat="41.302878" lon="-3.433084">
        <ele>1245.15</ele>
        <time>2021-03-28T00:14:16Z</time>
      </trkpt>
      <trkpt lat="41.302878" lon="-3.433474">
        <ele>1243.31</ele>
        <time>2021-03-28T00:14:18Z</time>
      </trkpt>
      <trkpt lat="41.302777" lon="-3.433907">
        <ele>1244.02</ele>
        <time>2021-03-28T00:14:21Z</time>
      </trkpt>
      <trkpt lat="41.302601" lon="-3.434326">
        <ele>1245.45</ele>
        <time>2021-03-28T00:14:24Z</time>
      </trkpt>
      <trkpt lat="41.302332" lon="-3.434845">
        <ele>1244.39</ele>
        <time>2021-03-28T00:14:27Z</time>
      </trkpt>
      <trkpt lat="41.302203" lon="-3.435191">
        <ele>1241.31</ele>
        <time>2021-03-28T00:14:30Z</time>
      </trkpt>
      <trkpt lat="41.302113" lon="-3.435591">
        <ele>1241.91</ele>
        <time>2021-03-28T00:14:33Z</time>
      </trkpt>
      <trkpt lat="41.301962" lon="-3.43654">
        <ele>1242.79</ele>
        <time>2021-03-28T00:14:36Z</time>
      </trkpt>
      <trkpt lat="41.301899" lon="-3.436794">
        <ele>1244.51</ele>
        <time>2021-03-28T00:14:39Z</time>
      </trkpt>
      <trkpt lat="41.301761" lon="-3.437156">
        <ele>1246.06</ele>
        <time>2021-03-28T00:14:42Z</time>
      </trkpt>
      <trkpt lat="41.301468" lon="-3.437821">
        <ele>1246.3</ele>
        <time>2021-03-28T00:14:45Z</time>
      </trkpt>
      <trkpt lat="41.301301" lon="-3.438325">
        <ele>1246.26</ele>
        <time>2021-03-28T00:14:48Z</time>
      </trkpt>
      <trkpt lat="41.300935" lon="-3.439591">
        <ele>1245.62</ele>
        <time>2021-03-28T00:14:50Z</time>
      </trkpt>
      <trkpt lat="41.300897" lon="-3.439765">
        <ele>1247.06</ele>
        <time>2021-03-28T00:14:53Z</time>
      </trkpt>
      <trkpt lat="41.300874" lon="-3.440064">
        <ele>1250.27</ele>
        <time>2021-03-28T00:14:56Z</time>
      </trkpt>
      <trkpt lat="41.300873" lon="-3.440237">
        <ele>1250.29</ele>
        <time>2021-03-28T00:14:59Z</time>
      </trkpt>
      <trkpt lat="41.300915" lon="-3.440902">
        <ele>1249.52</ele>
        <time>2021-03-28T00:15:02Z</time>
      </trkpt>
      <trkpt lat="41.300893" lon="-3.441502">
        <ele>1251.98</ele>
        <time>2021-03-28T00:15:05Z</time>
      </trkpt>
      <trkpt lat="41.30085" lon="-3.441893">
        <ele>1254.46</ele>
        <time>2021-03-28T00:15:08Z</time>
      </trkpt>
      <trkpt lat="41.300761" lon="-3.442189">
        <ele>1257.57</ele>
        <time>2021-03-28T00:15:11Z</time>
      </trkpt>
      <trkpt lat="41.300707" lon="-3.442316">
        <ele>1257.69</ele>
        <time>2021-03-28T00:15:14Z</time>
      </trkpt>
      <trkpt lat="41.300499" lon="-3.442578">
        <ele>1257.1</ele>
        <time>2021-03-28T00:15:17Z</time>
      </trkpt>
      <trkpt lat="41.300395" lon="-3.442654">
        <ele>1256.02</ele>
        <time>2021-03-28T00:15:20Z</time>
      </trkpt>
      <trkpt lat="41.300269" lon="-3.442722">
        <ele>1254.85</ele>
        <time>2021-03-28T00:15:22Z</time>
      </trkpt>
      <trkpt lat="41.300095" lon="-3.442786">
        <ele>1255.19</ele>
        <time>2021-03-28T00:15:25Z</time>
      </trkpt>
      <trkpt lat="41.299615" lon="-3.442901">
        <ele>1256.11</ele>
        <time>2021-03-28T00:15:28Z</time>
      </trkpt>
      <trkpt lat="41.299516" lon="-3.44295">
        <ele>1255.76</ele>
        <time>2021-03-28T00:15:31Z</time>
      </trkpt>
      <trkpt lat="41.299419" lon="-3.443033">
        <ele>1255.33</ele>
        <time>2021-03-28T00:15:34Z</time>
      </trkpt>
      <trkpt lat="41.299353" lon="-3.443125">
        <ele>1255.41</ele>
        <time>2021-03-28T00:15:37Z</time>
      </trkpt>
      <trkpt lat="41.299111" lon="-3.443635">
        <ele>1256.49</ele>
        <time>2021-03-28T00:15:40Z</time>
      </trkpt>
      <trkpt lat="41.299024" lon="-3.443784">
        <ele>1256.6</ele>
        <time>2021-03-28T00:15:43Z</time>
      </trkpt>
      <trkpt lat="41.29886" lon="-3.444011">
        <ele>1256.42</ele>
        <time>2021-03-28T00:15:46Z</time>
      </trkpt>
      <trkpt lat="41.298586" lon="-3.444327">
        <ele>1257.64</ele>
        <time>2021-03-28T00:15:49Z</time>
      </trkpt>
      <trkpt lat="41.298224" lon="-3.444949">
        <ele>1255.87</ele>
        <time>2021-03-28T00:15:52Z</time>
      </trkpt>
      <trkpt lat="41.29805" lon="-3.445353">
        <ele>1254.21</ele>
        <time>2021-03-28T00:15:54Z</time>
      </trkpt>
      <trkpt lat="41.29788" lon="-3.445893">
        <ele>1251.12</ele>
        <time>2021-03-28T00:15:57Z</time>
      </trkpt>
      <trkpt lat="41.297827" lon="-3.446015">
        <ele>1251.1</ele>
        <time>2021-03-28T00:16:00Z</time>
      </trkpt>
      <trkpt lat="41.29772" lon="-3.446192">
        <ele>1250.71</ele>
        <time>2021-03-28T00:16:03Z</time>
      </trkpt>
      <trkpt lat="41.297498" lon="-3.446464">
        <ele>1249.45</ele>
        <time>2021-03-28T00:16:06Z</time>
      </trkpt>
      <trkpt lat="41.297028" lon="-3.446829">
        <ele>1246.65</ele>
        <time>2021-03-28T00:16:09Z</time>
      </trkpt>
      <trkpt lat="41.29688" lon="-3.446999">
        <ele>1247.54</ele>
        <time>2021-03-28T00:16:12Z</time>
      </trkpt>
      <trkpt lat="41.296358" lon="-3.447846">
        <ele>1246.78</ele>
        <time>2021-03-28T00:16:15Z</time>
      </trkpt>
      <trkpt lat="41.295709" lon="-3.448805">
        <ele>1243.6</ele>
        <time>2021-03-28T00:16:18Z</time>
      </trkpt>
      <trkpt lat="41.295608" lon="-3.449006">
        <ele>1242.84</ele>
        <time>2021-03-28T00:16:21Z</time>
      </trkpt>
      <trkpt lat="41.295511" lon="-3.449285">
        <ele>1243.61</ele>
        <time>2021-03-28T00:16:24Z</time>
      </trkpt>
      <trkpt lat="41.295396" lon="-3.450273">
        <ele>1248.58</ele>
        <time>2021-03-28T00:16:26Z</time>
      </trkpt>
      <trkpt lat="41.295265" lon="-3.450708">
        <ele>1248.09</ele>
        <time>2021-03-28T00:16:29Z</time>
      </trkpt>
      <trkpt lat="41.294982" lon="-3.451426">
        <ele>1247.74</ele>
        <time>2021-03-28T00:16:32Z</time>
      </trkpt>
      <trkpt lat="41.294807" lon="-3.451813">
        <ele>1246.53</ele>
        <time>2021-03-28T00:16:35Z</time>
      </trkpt>
      <trkpt lat="41.294655" lon="-3.45208">
        <ele>1247.61</ele>
        <time>2021-03-28T00:16:38Z</time>
      </trkpt>
      <trkpt lat="41.294439" lon="-3.452366">
        <ele>1247.99</ele>
        <time>2021-03-28T00:16:41Z</time>
      </trkpt>
      <trkpt lat="41.294144" lon="-3.452685">
        <ele>1246.11</ele>
        <time>2021-03-28T00:16:44Z</time>
      </trkpt>
      <trkpt lat="41.293526" lon="-3.453238">
        <ele>1241.31</ele>
        <time>2021-03-28T00:16:47Z</time>
      </trkpt>
      <trkpt lat="41.293356" lon="-3.453405">
        <ele>1238.9</ele>
        <time>2021-03-28T00:16:50Z</time>
      </trkpt>
      <trkpt lat="41.293233" lon="-3.453556">
        <ele>1238.92</ele>
        <time>2021-03-28T00:16:53Z</time>
      </trkpt>
      <trkpt lat="41.293124" lon="-3.453711">
        <ele>1239.51</ele>
        <time>2021-03-28T00:16:56Z</time>
      </trkpt>
      <trkpt lat="41.292963" lon="-3.453999">
        <ele>1241.4</ele>
        <time>2021-03-28T00:16:58Z</time>
      </trkpt>
      <trkpt lat="41.292797" lon="-3.45434">
        <ele>1243.8</ele>
        <time>2021-03-28T00:17:01Z</time>
      </trkpt>
      <trkpt lat="41.292388" lon="-3.455079">
        <ele>1244.0</ele>
        <time>2021-03-28T00:17:04Z</time>
      </trkpt>
      <trkpt lat="41.292143" lon="-3.455445">
        <ele>1242.54</ele>
        <time>2021-03-28T00:17:07Z</time>
      </trkpt>
      <trkpt lat="41.291875" lon="-3.455728">
        <ele>1241.67</ele>
        <time>2021-03-28T00:17:10Z</time>
      </trkpt>
      <trkpt lat="41.291709" lon="-3.455861">
        <ele>1240.64</ele>
        <time>2021-03-28T00:17:13Z</time>
      </trkpt>
      <trkpt lat="41.291174" lon="-3.456215">
        <ele>1239.4</ele>
        <time>2021-03-28T00:17:16Z</time>
      </trkpt>
      <trkpt lat="41.291013" lon="-3.45635">
        <ele>1238.63</ele>
        <time>2021-03-28T00:17:19Z</time>
      </trkpt>
      <trkpt lat="41.290793" lon="-3.456571">
        <ele>1238.21</ele>
        <time>2021-03-28T00:17:22Z</time>
      </trkpt>
      <trkpt lat="41.290654" lon="-3.456755">
        <ele>1238.92</ele>
        <time>2021-03-28T00:17:25Z</time>
      </trkpt>
      <trkpt lat="41.290518" lon="-3.457013">
        <ele>1240.19</ele>
        <time>2021-03-28T00:17:28Z</time>
      </trkpt>
      <trkpt lat="41.290428" lon="-3.457262">
        <ele>1240.83</ele>
        <time>2021-03-28T00:17:30Z</time>
      </trkpt>
      <trkpt lat="41.289969" lon="-3.458892">
        <ele>1243.1</ele>
        <time>2021-03-28T00:17:33Z</time>
      </trkpt>
      <trkpt lat="41.289904" lon="-3.459062">
        <ele>1242.72</ele>
        <time>2021-03-28T00:17:36Z</time>
      </trkpt>
      <trkpt lat="41.289786" lon="-3.459289">
        <ele>1241.79</ele>
        <time>2021-03-28T00:17:39Z</time>
      </trkpt>
      <trkpt lat="41.289568" lon="-3.459575">
        <ele>1241.17</ele>
        <time>2021-03-28T00:17:42Z</time>
      </trkpt>
      <trkpt lat="41.289189" lon="-3.459958">
        <ele>1239.37</ele>
        <time>2021-03-28T00:17:45Z</time>
      </trkpt>
      <trkpt lat="41.288811" lon="-3.460283">
        <ele>1235.41</ele>
        <time>2021-03-28T00:17:48Z</time>
      </trkpt>
      <trkpt lat="41.288685" lon="-3.460343">
        <ele>1234.06</ele>
        <time>2021-03-28T00:17:51Z</time>
      </trkpt>
      <trkpt lat="41.288562" lon="-3.46036">
        <ele>1232.88</ele>
        <time>2021-03-28T00:17:54Z</time>
      </trkpt>
      <trkpt lat="41.288433" lon="-3.460334">
        <ele>1231.67</ele>
        <time>2021-03-28T00:17:57Z</time>
      </trkpt>
      <trkpt lat="41.288244" lon="-3.460231">
        <ele>1230.21</ele>
        <time>2021-03-28T00:18:00Z</time>
      </trkpt>
      <trkpt lat="41.288142" lon="-3.460132">
        <ele>1229.81</ele>
        <time>2021-03-28T00:18:02Z</time>
      </trkpt>
      <trkpt lat="41.287807" lon="-3.459723">
        <ele>1229.41</ele>
        <time>2021-03-28T00:18:05Z</time>
      </trkpt>
      <trkpt lat="41.287727" lon="-3.459658">
        <ele>1229.28</ele>
        <time>2021-03-28T00:18:08Z</time>
      </trkpt>
      <trkpt lat="41.287557" lon="-3.459572">
        <ele>1228.6</ele>
        <time>2021-03-28T00:18:11Z</time>
      </trkpt>
      <trkpt lat="41.287391" lon="-3.459585">
        <ele>1227.59</ele>
        <time>2021-03-28T00:18:14Z</time>
      </trkpt>
      <trkpt lat="41.287298" lon="-3.459656">
        <ele>1226.75</ele>
        <time>2021-03-28T00:18:17Z</time>
      </trkpt>
      <trkpt lat="41.287218" lon="-3.459785">
        <ele>1225.56</ele>
        <time>2021-03-28T00:18:20Z</time>
      </trkpt>
      <trkpt lat="41.287158" lon="-3.459925">
        <ele>1224.77</ele>
        <time>2021-03-28T00:18:23Z</time>
      </trkpt>
      <trkpt lat="41.286708" lon="-3.461644">
        <ele>1211.08</ele>
        <time>2021-03-28T00:18:26Z</time>
      </trkpt>
      <trkpt lat="41.286664" lon="-3.461997">
        <ele>1207.82</ele>
        <time>2021-03-28T00:18:29Z</time>
      </trkpt>
      <trkpt lat="41.286661" lon="-3.462148">
        <ele>1207.27</ele>
        <time>2021-03-28T00:18:31Z</time>
      </trkpt>
      <trkpt lat="41.286679" lon="-3.462341">
        <ele>1207.02</ele>
        <time>2021-03-28T00:18:34Z</time>
      </trkpt>
      <trkpt lat="41.286772" lon="-3.46287">
        <ele>1205.25</ele>
        <time>2021-03-28T00:18:37Z</time>
      </trkpt>
      <trkpt lat="41.286812" lon="-3.463562">
        <ele>1199.58</ele>
        <time>2021-03-28T00:18:40Z</time>
      </trkpt>
      <trkpt lat="41.286826" lon="-3.464768">
        <ele>1193.85</ele>
        <time>2021-03-28T00:18:43Z</time>
      </trkpt>
      <trkpt lat="41.286812" lon="-3.464928">
        <ele>1191.9</ele>
        <time>2021-03-28T00:18:46Z</time>
      </trkpt>
      <trkpt lat="41.28676" lon="-3.465208">
        <ele>1190.25</ele>
        <time>2021-03-28T00:18:49Z</time>
      </trkpt>
      <trkpt lat="41.286559" lon="-3.465707">
        <ele>1188.07</ele>
        <time>2021-03-28T00:18:52Z</time>
      </trkpt>
      <trkpt lat="41.285866" lon="-3.467307">
        <ele>1182.3</ele>
        <time>2021-03-28T00:18:55Z</time>
      </trkpt>
      <trkpt lat="41.285756" lon="-3.46766">
        <ele>1181.65</ele>
        <time>2021-03-28T00:18:58Z</time>
      </trkpt>
      <trkpt lat="41.285601" lon="-3.468423">
        <ele>1174.92</ele>
        <time>2021-03-28T00:19:01Z</time>
      </trkpt>
      <trkpt lat="41.28552" lon="-3.468679">
        <ele>1172.65</ele>
        <time>2021-03-28T00:19:03Z</time>
      </trkpt>
      <trkpt lat="41.285295" lon="-3.469015">
        <ele>1171.51</ele>
        <time>2021-03-28T00:19:06Z</time>
      </trkpt>
      <trkpt lat="41.285053" lon="-3.469284">
        <ele>1170.09</ele>
        <time>2021-03-28T00:19:09Z</time>
      </trkpt>
      <trkpt lat="41.284543" lon="-3.469788">
        <ele>1160.8</ele>
        <time>2021-03-28T00:19:12Z</time>
      </trkpt>
      <trkpt lat="41.284345" lon="-3.470046">
        <ele>1158.37</ele>
        <time>2021-03-28T00:19:15Z</time>
      </trkpt>
      <trkpt lat="41.284234" lon="-3.470318">
        <ele>1156.53</ele>
        <time>2021-03-28T00:19:18Z</time>
      </trkpt>
      <trkpt lat="41.284138" lon="-3.470766">
        <ele>1151.08</ele>
        <time>2021-03-28T00:19:21Z</time>
      </trkpt>
      <trkpt lat="41.284065" lon="-3.471196">
        <ele>1147.32</ele>
        <time>2021-03-28T00:19:24Z</time>
      </trkpt>
      <trkpt lat="41.283968" lon="-3.47155">
        <ele>1145.26</ele>
        <time>2021-03-28T00:19:27Z</time>
      </trkpt>
      <trkpt lat="41.283778" lon="-3.471812">
        <ele>1144.95</ele>
        <time>2021-03-28T00:19:30Z</time>
      </trkpt>
      <trkpt lat="41.283583" lon="-3.472002">
        <ele>1144.67</ele>
        <time>2021-03-28T00:19:33Z</time>
      </trkpt>
      <trkpt lat="41.283489" lon="-3.472219">
        <ele>1143.03</ele>
        <time>2021-03-28T00:19:35Z</time>
      </trkpt>
      <trkpt lat="41.283365" lon="-3.472811">
        <ele>1143.01</ele>
        <time>2021-03-28T00:19:38Z</time>
      </trkpt>
      <trkpt lat="41.283324" lon="-3.472932">
        <ele>1143.0</ele>
        <time>2021-03-28T00:19:41Z</time>
      </trkpt>
      <trkpt lat="41.283248" lon="-3.473059">
        <ele>1143.03</ele>
        <time>2021-03-28T00:19:44Z</time>
      </trkpt>
      <trkpt lat="41.283166" lon="-3.473137">
        <ele>1143.76</ele>
        <time>2021-03-28T00:19:47Z</time>
      </trkpt>
      <trkpt lat="41.282234" lon="-3.473593">
        <ele>1155.73</ele>
        <time>2021-03-28T00:19:50Z</time>
      </trkpt>
      <trkpt lat="41.282062" lon="-3.473645">
        <ele>1156.24</ele>
        <time>2021-03-28T00:19:53Z</time>
      </trkpt>
      <trkpt lat="41.281869" lon="-3.473651">
        <ele>1156.64</ele>
        <time>2021-03-28T00:19:56Z</time>
      </trkpt>
      <trkpt lat="41.281457" lon="-3.473561">
        <ele>1158.37</ele>
        <time>2021-03-28T00:19:59Z</time>
      </trkpt>
      <trkpt lat="41.281284" lon="-3.473546">
        <ele>1159.34</ele>
        <time>2021-03-28T00:20:02Z</time>
      </trkpt>
      <trkpt lat="41.281196" lon="-3.473567">
        <ele>1160.01</ele>
        <time>2021-03-28T00:20:05Z</time>
      </trkpt>
      <trkpt lat="41.281109" lon="-3.473636">
        <ele>1161.29</ele>
        <time>2021-03-28T00:20:07Z</time>
      </trkpt>
      <trkpt lat="41.281026" lon="-3.473768">
        <ele>1163.13</ele>
        <time>2021-03-28T00:20:10Z</time>
      </trkpt>
      <trkpt lat="41.280899" lon="-3.474111">
        <ele>1166.56</ele>
        <time>2021-03-28T00:20:13Z</time>
      </trkpt>
      <trkpt lat="41.280827" lon="-3.474253">
        <ele>1167.93</ele>
        <time>2021-03-28T00:20:16Z</time>
      </trkpt>
      <trkpt lat="41.280757" lon="-3.47435">
        <ele>1168.8</ele>
        <time>2021-03-28T00:20:19Z</time>
      </trkpt>
      <trkpt lat="41.280659" lon="-3.474402">
        <ele>1169.01</ele>
        <time>2021-03-28T00:20:22Z</time>
      </trkpt>
      <trkpt lat="41.280245" lon="-3.474402">
        <ele>1171.8</ele>
        <time>2021-03-28T00:20:25Z</time>
      </trkpt>
      <trkpt lat="41.280124" lon="-3.474437">
        <ele>1173.04</ele>
        <time>2021-03-28T00:20:28Z</time>
      </trkpt>
      <trkpt lat="41.280062" lon="-3.474473">
        <ele>1173.73</ele>
        <time>2021-03-28T00:20:31Z</time>
      </trkpt>
      <trkpt lat="41.280002" lon="-3.474549">
        <ele>1174.73</ele>
        <time>2021-03-28T00:20:34Z</time>
      </trkpt>
      <trkpt lat="41.279884" lon="-3.475001">
        <ele>1178.26</ele>
        <time>2021-03-28T00:20:37Z</time>
      </trkpt>
      <trkpt lat="41.279729" lon="-3.47536">
        <ele>1181.95</ele>
        <time>2021-03-28T00:20:39Z</time>
      </trkpt>
      <trkpt lat="41.279607" lon="-3.475589">
        <ele>1183.06</ele>
        <time>2021-03-28T00:20:42Z</time>
      </trkpt>
      <trkpt lat="41.279431" lon="-3.475823">
        <ele>1186.07</ele>
        <time>2021-03-28T00:20:45Z</time>
      </trkpt>
      <trkpt lat="41.27909" lon="-3.476181">
        <ele>1191.25</ele>
        <time>2021-03-28T00:20:48Z</time>
      </trkpt>
      <trkpt lat="41.278988" lon="-3.476347">
        <ele>1191.85</ele>
        <time>2021-03-28T00:20:51Z</time>
      </trkpt>
      <trkpt lat="41.278513" lon="-3.476979">
        <ele>1197.16</ele>
        <time>2021-03-28T00:20:54Z</time>
      </trkpt>
      <trkpt lat="41.278024" lon="-3.477725">
        <ele>1200.02</ele>
        <time>2021-03-28T00:20:57Z</time>
      </trkpt>
      <trkpt lat="41.277645" lon="-3.478229">
        <ele>1203.0</ele>
        <time>2021-03-28T00:21:00Z</time>
      </trkpt>
      <trkpt lat="41.277435" lon="-3.478605">
        <ele>1203.46</ele>
        <time>2021-03-28T00:21:03Z</time>
      </trkpt>
      <trkpt lat="41.277045" lon="-3.479511">
        <ele>1206.76</ele>
        <time>2021-03-28T00:21:06Z</time>
      </trkpt>
      <trkpt lat="41.276912" lon="-3.479915">
        <ele>1204.57</ele>
        <time>2021-03-28T00:21:09Z</time>
      </trkpt>
      <trkpt lat="41.276893" lon="-3.480021">
        <ele>1204.0</ele>
        <time>2021-03-28T00:21:11Z</time>
      </trkpt>
      <trkpt lat="41.276875" lon="-3.480833">
        <ele>1203.5</ele>
        <time>2021-03-28T00:21:14Z</time>
      </trkpt>
      <trkpt lat="41.276809" lon="-3.481743">
        <ele>1205.46</ele>
        <time>2021-03-28T00:21:17Z</time>
      </trkpt>
      <trkpt lat="41.276837" lon="-3.48217">
        <ele>1205.34</ele>
        <time>2021-03-28T00:21:20Z</time>
      </trkpt>
      <trkpt lat="41.276855" lon="-3.482211">
        <ele>1205.31</ele>
        <time>2021-03-28T00:21:24Z</time>
      </trkpt>
      <trkpt lat="41.276854" lon="-3.482295">
        <ele>1204.97</ele>
        <time>2021-03-28T00:21:28Z</time>
      </trkpt>
      <trkpt lat="41.276797" lon="-3.482359">
        <ele>1204.78</ele>
        <time>2021-03-28T00:21:32Z</time>
      </trkpt>
      <trkpt lat="41.276701" lon="-3.482691">
        <ele>1202.71</ele>
        <time>2021-03-28T00:21:36Z</time>
      </trkpt>
      <trkpt lat="41.27641" lon="-3.485661">
        <ele>1203.0</ele>
        <time>2021-03-28T00:21:40Z</time>
      </trkpt>
      <trkpt lat="41.276439" lon="-3.485731">
        <ele>1203.0</ele>
        <time>2021-03-28T00:21:44Z</time>
      </trkpt>
      <trkpt lat="41.276094" lon="-3.486426">
        <ele>1204.06</ele>
        <time>2021-03-28T00:21:48Z</time>
      </trkpt>
      <trkpt lat="41.275517" lon="-3.487663">
        <ele>1202.97</ele>
        <time>2021-03-28T00:21:52Z</time>
      </trkpt>
      <trkpt lat="41.273953" lon="-3.491085">
        <ele>1203.91</ele>
        <time>2021-03-28T00:21:56Z</time>
      </trkpt>
      <trkpt lat="41.273814" lon="-3.491356">
        <ele>1204.85</ele>
        <time>2021-03-28T00:22:00Z</time>
      </trkpt>
      <trkpt lat="41.273619" lon="-3.491699">
        <ele>1204.85</ele>
        <time>2021-03-28T00:22:04Z</time>
      </trkpt>
      <trkpt lat="41.273527" lon="-3.491828">
        <ele>1204.9</ele>
        <time>2021-03-28T00:22:08Z</time>
      </trkpt>
      <trkpt lat="41.272108" lon="-3.493697">
        <ele>1195.82</ele>
        <time>2021-03-28T00:22:12Z</time>
      </trkpt>
      <trkpt lat="41.271712" lon="-3.494188">
        <ele>1195.83</ele>
        <time>2021-03-28T00:22:17Z</time>
      </trkpt>
      <trkpt lat="41.271572" lon="-3.494326">
        <ele>1196.19</ele>
        <time>2021-03-28T00:22:21Z</time>
      </trkpt>
      <trkpt lat="41.27111" lon="-3.494699">
        <ele>1199.92</ele>
        <time>2021-03-28T00:22:25Z</time>
      </trkpt>
      <trkpt lat="41.271021" lon="-3.494901">
        <ele>1201.29</ele>
        <time>2021-03-28T00:22:29Z</time>
      </trkpt>
      <trkpt lat="41.270996" lon="-3.495006">
        <ele>1202.01</ele>
        <time>2021-03-28T00:22:33Z</time>
      </trkpt>
      <trkpt lat="41.270991" lon="-3.495167">
        <ele>1202.34</ele>
        <time>2021-03-28T00:22:37Z</time>
      </trkpt>
      <trkpt lat="41.271011" lon="-3.495333">
        <ele>1202.51</ele>
        <time>2021-03-28T00:22:41Z</time>
      </trkpt>
      <trkpt lat="41.271057" lon="-3.495457">
        <ele>1202.29</ele>
        <time>2021-03-28T00:22:45Z</time>
      </trkpt>
      <trkpt lat="41.27116" lon="-3.495562">
        <ele>1202.0</ele>
        <time>2021-03-28T00:22:46Z</time>
      </trkpt>
      <trkpt lat="41.271295" lon="-3.495547">
        <ele>1201.99</ele>
        <time>2021-03-28T00:22:48Z</time>
      </trkpt>
      <trkpt lat="41.271429" lon="-3.495576">
        <ele>1201.87</ele>
        <time>2021-03-28T00:22:49Z</time>
      </trkpt>
      <trkpt lat="41.271358" lon="-3.495848">
        <ele>1202.0</ele>
        <time>2021-03-28T00:22:59Z</time>
      </trkpt>
      <trkpt lat="41.271309" lon="-3.496111">
        <ele>1202.0</ele>
        <time>2021-03-28T00:23:08Z</time>
      </trkpt>
      <trkpt lat="41.271187" lon="-3.496906">
        <ele>1202.61</ele>
        <time>2021-03-28T00:23:18Z</time>
      </trkpt>
      <trkpt lat="41.271023" lon="-3.498165">
        <ele>1203.07</ele>
        <time>2021-03-28T00:23:27Z</time>
      </trkpt>
      <trkpt lat="41.269862" lon="-3.506977">
        <ele>1192.2</ele>
        <time>2021-03-28T00:23:37Z</time>
      </trkpt>
      <trkpt lat="41.26979" lon="-3.507704">
        <ele>1184.91</ele>
        <time>2021-03-28T00:23:46Z</time>
      </trkpt>
      <trkpt lat="41.269543" lon="-3.509591">
        <ele>1192.48</ele>
        <time>2021-03-28T00:23:55Z</time>
      </trkpt>
      <trkpt lat="41.269552" lon="-3.509799">
        <ele>1192.44</ele>
        <time>2021-03-28T00:24:02Z</time>
      </trkpt>
      <trkpt lat="41.269537" lon="-3.509946">
        <ele>1192.13</ele>
        <time>2021-03-28T00:24:09Z</time>
      </trkpt>
      <trkpt lat="41.269533" lon="-3.510458">
        <ele>1191.79</ele>
        <time>2021-03-28T00:24:16Z</time>
      </trkpt>
      <trkpt lat="41.269628" lon="-3.510923">
        <ele>1190.57</ele>
        <time>2021-03-28T00:24:23Z</time>
      </trkpt>
      <trkpt lat="41.276711" lon="-3.536216">
        <ele>1163.52</ele>
        <time>2021-03-28T00:24:29Z</time>
      </trkpt>
      <trkpt lat="41.276776" lon="-3.536647">
        <ele>1162.64</ele>
        <time>2021-03-28T00:24:36Z</time>
      </trkpt>
      <trkpt lat="41.276847" lon="-3.537822">
        <ele>1158.84</ele>
        <time>2021-03-28T00:24:43Z</time>
      </trkpt>
      <trkpt lat="41.276826" lon="-3.539825">
        <ele>1152.85</ele>
        <time>2021-03-28T00:24:50Z</time>
      </trkpt>
      <trkpt lat="41.276903" lon="-3.540807">
        <ele>1150.68</ele>
        <time>2021-03-28T00:24:56Z</time>
      </trkpt>
      <trkpt lat="41.27691" lon="-3.54107">
        <ele>1149.65</ele>
        <time>2021-03-28T00:25:03Z</time>
      </trkpt>
      <trkpt lat="41.276878" lon="-3.541634">
        <ele>1150.68</ele>
        <time>2021-03-28T00:25:10Z</time>
      </trkpt>
      <trkpt lat="41.276838" lon="-3.54204">
        <ele>1151.93</ele>
        <time>2021-03-28T00:25:17Z</time>
      </trkpt>
      <trkpt lat="41.276799" lon="-3.542362">
        <ele>1151.06</ele>
        <time>2021-03-28T00:25:24Z</time>
      </trkpt>
      <trkpt lat="41.276724" lon="-3.542722">
        <ele>1148.82</ele>
        <time>2021-03-28T00:25:30Z</time>
      </trkpt>
      <trkpt lat="41.276667" lon="-3.542874">
        <ele>1148.31</ele>
        <time>2021-03-28T00:25:37Z</time>
      </trkpt>
      <trkpt lat="41.276597" lon="-3.543005">
        <ele>1148.16</ele>
        <time>2021-03-28T00:25:44Z</time>
      </trkpt>
      <trkpt lat="41.276371" lon="-3.543364">
        <ele>1147.95</ele>
        <time>2021-03-28T00:25:51Z</time>
      </trkpt>
      <trkpt lat="41.27626" lon="-3.54366">
        <ele>1147.55</ele>
        <time>2021-03-28T00:25:58Z</time>
      </trkpt>
      <trkpt lat="41.276235" lon="-3.543843">
        <ele>1148.02</ele>
        <time>2021-03-28T00:26:04Z</time>
      </trkpt>
      <trkpt lat="41.276232" lon="-3.544021">
        <ele>1148.6</ele>
        <time>2021-03-28T00:26:11Z</time>
      </trkpt>
      <trkpt lat="41.276287" lon="-3.544468">
        <ele>1148.81</ele>
        <time>2021-03-28T00:26:18Z</time>
      </trkpt>
      <trkpt lat="41.276393" lon="-3.544998">
        <ele>1148.94</ele>
        <time>2021-03-28T00:26:25Z</time>
      </trkpt>
      <trkpt lat="41.276515" lon="-3.545351">
        <ele>1147.18</ele>
        <time>2021-03-28T00:26:32Z</time>
      </trkpt>
      <trkpt lat="41.27684" lon="-3.545977">
        <ele>1146.97</ele>
        <time>2021-03-28T00:26:38Z</time>
      </trkpt>
      <trkpt lat="41.278086" lon="-3.548238">
        <ele>1134.98</ele>
        <time>2021-03-28T00:26:45Z</time>
      </trkpt>
      <trkpt lat="41.278514" lon="-3.549052">
        <ele>1131.1</ele>
        <time>2021-03-28T00:26:52Z</time>
      </trkpt>
      <trkpt lat="41.278916" lon="-3.550162">
        <ele>1122.37</ele>
        <time>2021-03-28T00:26:59Z</time>
      </trkpt>
      <trkpt lat="41.280217" lon="-3.55288">
        <ele>1110.52</ele>
        <time>2021-03-28T00:27:05Z</time>
      </trkpt>
      <trkpt lat="41.280588" lon="-3.553725">
        <ele>1106.68</ele>
        <time>2021-03-28T00:27:12Z</time>
      </trkpt>
      <trkpt lat="41.280686" lon="-3.553992">
        <ele>1105.32</ele>
        <time>2021-03-28T00:27:19Z</time>
      </trkpt>
      <trkpt lat="41.280769" lon="-3.554366">
        <ele>1103.6</ele>
        <time>2021-03-28T00:27:26Z</time>
      </trkpt>
      <trkpt lat="41.280812" lon="-3.554843">
        <ele>1102.1</ele>
        <time>2021-03-28T00:27:33Z</time>
      </trkpt>
      <trkpt lat="41.280812" lon="-3.555151">
        <ele>1100.95</ele>
        <time>2021-03-28T00:27:39Z</time>
      </trkpt>
      <trkpt lat="41.280763" lon="-3.555579">
        <ele>1098.91</ele>
        <time>2021-03-28T00:27:46Z</time>
      </trkpt>
      <trkpt lat="41.280702" lon="-3.555819">
        <ele>1098.49</ele>
        <time>2021-03-28T00:27:53Z</time>
      </trkpt>
      <trkpt lat="41.28056" lon="-3.556156">
        <ele>1097.83</ele>
        <time>2021-03-28T00:28:00Z</time>
      </trkpt>
      <trkpt lat="41.280035" lon="-3.55702">
        <ele>1088.45</ele>
        <time>2021-03-28T00:28:07Z</time>
      </trkpt>
      <trkpt lat="41.279933" lon="-3.557282">
        <ele>1087.24</ele>
        <time>2021-03-28T00:28:13Z</time>
      </trkpt>
      <trkpt lat="41.279913" lon="-3.557396">
        <ele>1087.31</ele>
        <time>2021-03-28T00:28:20Z</time>
      </trkpt>
      <trkpt lat="41.279904" lon="-3.557614">
        <ele>1087.76</ele>
        <time>2021-03-28T00:28:27Z</time>
      </trkpt>
      <trkpt lat="41.279971" lon="-3.557945">
        <ele>1088.7</ele>
        <time>2021-03-28T00:28:34Z</time>
      </trkpt>
      <trkpt lat="41.280543" lon="-3.559768">
        <ele>1087.96</ele>
        <time>2021-03-28T00:28:41Z</time>
      </trkpt>
      <trkpt lat="41.283997" lon="-3.572124">
        <ele>1067.22</ele>
        <time>2021-03-28T00:28:47Z</time>
      </trkpt>
      <trkpt lat="41.28465" lon="-3.574516">
        <ele>1069.26</ele>
        <time>2021-03-28T00:28:54Z</time>
      </trkpt>
      <trkpt lat="41.284912" lon="-3.575394">
        <ele>1068.63</ele>
        <time>2021-03-28T00:29:01Z</time>
      </trkpt>
      <trkpt lat="41.284979" lon="-3.575664">
        <ele>1068.93</ele>
        <time>2021-03-28T00:29:08Z</time>
      </trkpt>
      <trkpt lat="41.285044" lon="-3.576013">
        <ele>1070.82</ele>
        <time>2021-03-28T00:29:14Z</time>
      </trkpt>
      <trkpt lat="41.285159" lon="-3.576801">
        <ele>1071.34</ele>
        <time>2021-03-28T00:29:21Z</time>
      </trkpt>
      <trkpt lat="41.285348" lon="-3.577907">
        <ele>1072.77</ele>
        <time>2021-03-28T00:29:28Z</time>
      </trkpt>
      <trkpt lat="41.28546" lon="-3.578689">
        <ele>1070.34</ele>
        <time>2021-03-28T00:29:35Z</time>
      </trkpt>
      <trkpt lat="41.285802" lon="-3.580796">
        <ele>1066.57</ele>
        <time>2021-03-28T00:29:42Z</time>
      </trkpt>
      <trkpt lat="41.285948" lon="-3.581853">
        <ele>1065.56</ele>
        <time>2021-03-28T00:29:48Z</time>
      </trkpt>
      <trkpt lat="41.286133" lon="-3.586964">
        <ele>1057.85</ele>
        <time>2021-03-28T00:29:55Z</time>
      </trkpt>
      <trkpt lat="41.286128" lon="-3.58722">
        <ele>1056.95</ele>
        <time>2021-03-28T00:30:02Z</time>
      </trkpt>
      <trkpt lat="41.286092" lon="-3.587631">
        <ele>1055.53</ele>
        <time>2021-03-28T00:30:09Z</time>
      </trkpt>
      <trkpt lat="41.285518" lon="-3.591237">
        <ele>1042.68</ele>
        <time>2021-03-28T00:30:16Z</time>
      </trkpt>
      <trkpt lat="41.285294" lon="-3.592699">
        <ele>1036.71</ele>
        <time>2021-03-28T00:30:22Z</time>
      </trkpt>
      <trkpt lat="41.285235" lon="-3.593198">
        <ele>1036.05</ele>
        <time>2021-03-28T00:30:29Z</time>
      </trkpt>
      <trkpt lat="41.28523" lon="-3.593532">
        <ele>1034.33</ele>
        <time>2021-03-28T00:30:36Z</time>
      </trkpt>
      <trkpt lat="41.285405" lon="-3.595171">
        <ele>1029.92</ele>
        <time>2021-03-28T00:30:43Z</time>
      </trkpt>
      <trkpt lat="41.285418" lon="-3.595452">
        <ele>1027.93</ele>
        <time>2021-03-28T00:30:50Z</time>
      </trkpt>
      <trkpt lat="41.285395" lon="-3.595891">
        <ele>1024.86</ele>
        <time>2021-03-28T00:30:56Z</time>
      </trkpt>
      <trkpt lat="41.284913" lon="-3.602083">
        <ele>1003.69</ele>
        <time>2021-03-28T00:31:03Z</time>
      </trkpt>
      <trkpt lat="41.284897" lon="-3.602694">
        <ele>1003.19</ele>
        <time>2021-03-28T00:31:10Z</time>
      </trkpt>
      <trkpt lat="41.281396" lon="-3.603107">
        <ele>1009.97</ele>
        <time>2021-03-28T00:31:39Z</time>
      </trkpt>
      <trkpt lat="41.281272" lon="-3.603581">
        <ele>1010.0</ele>
        <time>2021-03-28T00:31:47Z</time>
      </trkpt>
      <trkpt lat="41.281164" lon="-3.604242">
        <ele>1011.13</ele>
        <time>2021-03-28T00:31:55Z</time>
      </trkpt>
      <trkpt lat="41.281065" lon="-3.604895">
        <ele>1010.02</ele>
        <time>2021-03-28T00:32:03Z</time>
      </trkpt>
      <trkpt lat="41.280743" lon="-3.606543">
        <ele>1009.32</ele>
        <time>2021-03-28T00:32:11Z</time>
      </trkpt>
      <trkpt lat="41.280061" lon="-3.608705">
        <ele>1015.26</ele>
        <time>2021-03-28T00:32:19Z</time>
      </trkpt>
      <trkpt lat="41.279844" lon="-3.609201">
        <ele>1013.7</ele>
        <time>2021-03-28T00:32:27Z</time>
      </trkpt>
      <trkpt lat="41.279684" lon="-3.609485">
        <ele>1011.99</ele>
        <time>2021-03-28T00:32:34Z</time>
      </trkpt>
      <trkpt lat="41.277407" lon="-3.614085">
        <ele>1021.47</ele>
        <time>2021-03-28T00:32:42Z</time>
      </trkpt>
      <trkpt lat="41.277071" lon="-3.614896">
        <ele>1022.54</ele>
        <time>2021-03-28T00:32:50Z</time>
      </trkpt>
      <trkpt lat="41.275538" lon="-3.618836">
        <ele>1026.78</ele>
        <time>2021-03-28T00:32:58Z</time>
      </trkpt>
      <trkpt lat="41.275264" lon="-3.619502">
        <ele>1035.58</ele>
        <time>2021-03-28T00:33:06Z</time>
      </trkpt>
      <trkpt lat="41.274418" lon="-3.621139">
        <ele>1034.48</ele>
        <time>2021-03-28T00:33:14Z</time>
      </trkpt>
      <trkpt lat="41.274082" lon="-3.62165">
        <ele>1036.77</ele>
        <time>2021-03-28T00:33:22Z</time>
      </trkpt>
      <trkpt lat="41.27372" lon="-3.622342">
        <ele>1037.08</ele>
        <time>2021-03-28T00:33:30Z</time>
      </trkpt>
      <trkpt lat="41.271278" lon="-3.627335">
        <ele>1045.04</ele>
        <time>2021-03-28T00:33:37Z</time>
      </trkpt>
      <trkpt lat="41.271045" lon="-3.627697">
        <ele>1045.69</ele>
        <time>2021-03-28T00:33:45Z</time>
      </trkpt>
      <trkpt lat="41.270503" lon="-3.628409">
        <ele>1045.56</ele>
        <time>2021-03-28T00:33:53Z</time>
      </trkpt>
      <trkpt lat="41.267896" lon="-3.631987">
        <ele>1026.21</ele>
        <time>2021-03-28T00:34:01Z</time>
      </trkpt>
      <trkpt lat="41.267617" lon="-3.632261">
        <ele>1024.42</ele>
        <time>2021-03-28T00:34:09Z</time>
      </trkpt>
      <trkpt lat="41.267354" lon="-3.632473">
        <ele>1023.42</ele>
        <time>2021-03-28T00:34:17Z</time>
      </trkpt>
      <trkpt lat="41.261921" lon="-3.636304">
        <ele>1002.59</ele>
        <time>2021-03-28T00:34:25Z</time>
      </trkpt>
      <trkpt lat="41.261684" lon="-3.636433">
        <ele>1002.06</ele>
        <time>2021-03-28T00:34:33Z</time>
      </trkpt>
      <trkpt lat="41.259567" lon="-3.636913">
        <ele>998.78</ele>
        <time>2021-03-28T00:34:40Z</time>
      </trkpt>
      <trkpt lat="41.259288" lon="-3.637017">
        <ele>995.23</ele>
        <time>2021-03-28T00:34:48Z</time>
      </trkpt>
      <trkpt lat="41.259088" lon="-3.637155">
        <ele>992.06</ele>
        <time>2021-03-28T00:34:56Z</time>
      </trkpt>
      <trkpt lat="41.258951" lon="-3.637313">
        <ele>991.3</ele>
        <time>2021-03-28T00:35:04Z</time>
      </trkpt>
      <trkpt lat="41.258808" lon="-3.63756">
        <ele>989.82</ele>
        <time>2021-03-28T00:35:12Z</time>
      </trkpt>
      <trkpt lat="41.258689" lon="-3.637667">
        <ele>988.5</ele>
        <time>2021-03-28T00:35:20Z</time>
      </trkpt>
      <trkpt lat="41.258346" lon="-3.637897">
        <ele>985.23</ele>
        <time>2021-03-28T00:35:28Z</time>
      </trkpt>
      <trkpt lat="41.257496" lon="-3.63823">
        <ele>973.59</ele>
        <time>2021-03-28T00:35:36Z</time>
      </trkpt>
      <trkpt lat="41.257001" lon="-3.638803">
        <ele>969.71</ele>
        <time>2021-03-28T00:35:43Z</time>
      </trkpt>
      <trkpt lat="41.257264" lon="-3.638912">
        <ele>971.05</ele>
        <time>2021-03-28T00:35:49Z</time>
      </trkpt>
      <trkpt lat="41.257878" lon="-3.639273">
        <ele>968.81</ele>
        <time>2021-03-28T00:35:54Z</time>
      </trkpt>
      <trkpt lat="41.258606" lon="-3.639774">
        <ele>968.44</ele>
        <time>2021-03-28T00:35:59Z</time>
      </trkpt>
      <trkpt lat="41.258952" lon="-3.639945">
        <ele>965.63</ele>
        <time>2021-03-28T00:36:04Z</time>
      </trkpt>
      <trkpt lat="41.260249" lon="-3.640497">
        <ele>964.42</ele>
        <time>2021-03-28T00:36:10Z</time>
      </trkpt>
      <trkpt lat="41.260517" lon="-3.640678">
        <ele>963.12</ele>
        <time>2021-03-28T00:36:15Z</time>
      </trkpt>
      <trkpt lat="41.260749" lon="-3.640951">
        <ele>960.88</ele>
        <time>2021-03-28T00:36:20Z</time>
      </trkpt>
      <trkpt lat="41.261131" lon="-3.641834">
        <ele>957.47</ele>
        <time>2021-03-28T00:36:26Z</time>
      </trkpt>
      <trkpt lat="41.262644" lon="-3.643771">
        <ele>955.9</ele>
        <time>2021-03-28T00:36:31Z</time>
      </trkpt>
      <trkpt lat="41.263032" lon="-3.644049">
        <ele>954.47</ele>
        <time>2021-03-28T00:36:36Z</time>
      </trkpt>
      <trkpt lat="41.264374" lon="-3.644741">
        <ele>957.98</ele>
        <time>2021-03-28T00:36:41Z</time>
      </trkpt>
      <trkpt lat="41.264921" lon="-3.644917">
        <ele>956.58</ele>
        <time>2021-03-28T00:36:47Z</time>
      </trkpt>
      <trkpt lat="41.265934" lon="-3.645129">
        <ele>956.93</ele>
        <time>2021-03-28T00:36:52Z</time>
      </trkpt>
      <trkpt lat="41.266729" lon="-3.645263">
        <ele>957.65</ele>
        <time>2021-03-28T00:36:57Z</time>
      </trkpt>
      <trkpt lat="41.267472" lon="-3.645485">
        <ele>957.73</ele>
        <time>2021-03-28T00:37:02Z</time>
      </trkpt>
      <trkpt lat="41.267885" lon="-3.645655">
        <ele>959.67</ele>
        <time>2021-03-28T00:37:08Z</time>
      </trkpt>
      <trkpt lat="41.268397" lon="-3.645991">
        <ele>956.89</ele>
        <time>2021-03-28T00:37:13Z</time>
      </trkpt>
      <trkpt lat="41.268686" lon="-3.646332">
        <ele>957.85</ele>
        <time>2021-03-28T00:37:18Z</time>
      </trkpt>
      <trkpt lat="41.268872" lon="-3.646487">
        <ele>957.84</ele>
        <time>2021-03-28T00:37:24Z</time>
      </trkpt>
      <trkpt lat="41.269119" lon="-3.646647">
        <ele>958.71</ele>
        <time>2021-03-28T00:37:29Z</time>
      </trkpt>
      <trkpt lat="41.270379" lon="-3.64738">
        <ele>956.39</ele>
        <time>2021-03-28T00:37:34Z</time>
      </trkpt>
      <trkpt lat="41.270715" lon="-3.647618">
        <ele>955.12</ele>
        <time>2021-03-28T00:37:39Z</time>
      </trkpt>
      <trkpt lat="41.270958" lon="-3.647881">
        <ele>954.15</ele>
        <time>2021-03-28T00:37:45Z</time>
      </trkpt>
      <trkpt lat="41.272114" lon="-3.649528">
        <ele>953.54</ele>
        <time>2021-03-28T00:37:50Z</time>
      </trkpt>
      <trkpt lat="41.272228" lon="-3.649791">
        <ele>952.85</ele>
        <time>2021-03-28T00:37:55Z</time>
      </trkpt>
      <trkpt lat="41.272259" lon="-3.65007">
        <ele>952.46</ele>
        <time>2021-03-28T00:38:00Z</time>
      </trkpt>
      <trkpt lat="41.272249" lon="-3.65038">
        <ele>952.16</ele>
        <time>2021-03-28T00:38:06Z</time>
      </trkpt>
      <trkpt lat="41.271959" lon="-3.651366">
        <ele>948.14</ele>
        <time>2021-03-28T00:38:11Z</time>
      </trkpt>
      <trkpt lat="41.271887" lon="-3.651681">
        <ele>947.26</ele>
        <time>2021-03-28T00:38:16Z</time>
      </trkpt>
      <trkpt lat="41.271768" lon="-3.651934">
        <ele>948.6</ele>
        <time>2021-03-28T00:38:22Z</time>
      </trkpt>
      <trkpt lat="41.27135" lon="-3.652492">
        <ele>950.0</ele>
        <time>2021-03-28T00:38:27Z</time>
      </trkpt>
      <trkpt lat="41.271211" lon="-3.65275">
        <ele>949.1</ele>
        <time>2021-03-28T00:38:32Z</time>
      </trkpt>
      <trkpt lat="41.271154" lon="-3.652957">
        <ele>949.0</ele>
        <time>2021-03-28T00:38:37Z</time>
      </trkpt>
      <trkpt lat="41.271175" lon="-3.653272">
        <ele>948.4</ele>
        <time>2021-03-28T00:38:43Z</time>
      </trkpt>
      <trkpt lat="41.272822" lon="-3.659478">
        <ele>950.58</ele>
        <time>2021-03-28T00:38:48Z</time>
      </trkpt>
      <trkpt lat="41.273008" lon="-3.66001">
        <ele>949.41</ele>
        <time>2021-03-28T00:38:53Z</time>
      </trkpt>
      <trkpt lat="41.274935" lon="-3.664238">
        <ele>946.08</ele>
        <time>2021-03-28T00:38:58Z</time>
      </trkpt>
      <trkpt lat="41.276581" lon="-3.667957">
        <ele>947.95</ele>
        <time>2021-03-28T00:39:04Z</time>
      </trkpt>
      <trkpt lat="41.278207" lon="-3.670993">
        <ele>947.14</ele>
        <time>2021-03-28T00:39:09Z</time>
      </trkpt>
      <trkpt lat="41.279635" lon="-3.674021">
        <ele>948.1</ele>
        <time>2021-03-28T00:39:14Z</time>
      </trkpt>
      <trkpt lat="41.280459" lon="-3.676136">
        <ele>947.0</ele>
        <time>2021-03-28T00:39:20Z</time>
      </trkpt>
      <trkpt lat="41.28309" lon="-3.681639">
        <ele>943.0</ele>
        <time>2021-03-28T00:39:25Z</time>
      </trkpt>
      <trkpt lat="41.283352" lon="-3.682277">
        <ele>942.66</ele>
        <time>2021-03-28T00:39:30Z</time>
      </trkpt>
      <trkpt lat="41.284168" lon="-3.684144">
        <ele>939.91</ele>
        <time>2021-03-28T00:39:35Z</time>
      </trkpt>
      <trkpt lat="41.284288" lon="-3.684557">
        <ele>940.36</ele>
        <time>2021-03-28T00:39:41Z</time>
      </trkpt>
      <trkpt lat="41.284865" lon="-3.687047">
        <ele>941.79</ele>
        <time>2021-03-28T00:39:46Z</time>
      </trkpt>
      <trkpt lat="41.286328" lon="-3.692472">
        <ele>940.44</ele>
        <time>2021-03-28T00:39:51Z</time>
      </trkpt>
      <trkpt lat="41.286886" lon="-3.694699">
        <ele>939.0</ele>
        <time>2021-03-28T00:39:56Z</time>
      </trkpt>
      <trkpt lat="41.287155" lon="-3.696069">
        <ele>936.93</ele>
        <time>2021-03-28T00:40:02Z</time>
      </trkpt>
      <trkpt lat="41.287211" lon="-3.697163">
        <ele>936.79</ele>
        <time>2021-03-28T00:40:07Z</time>
      </trkpt>
      <trkpt lat="41.287376" lon="-3.697926">
        <ele>937.45</ele>
        <time>2021-03-28T00:40:12Z</time>
      </trkpt>
      <trkpt lat="41.288186" lon="-3.70072">
        <ele>933.72</ele>
        <time>2021-03-28T00:40:17Z</time>
      </trkpt>
      <trkpt lat="41.288596" lon="-3.701858">
        <ele>929.85</ele>
        <time>2021-03-28T00:40:23Z</time>
      </trkpt>
      <trkpt lat="41.288916" lon="-3.703116">
        <ele>932.76</ele>
        <time>2021-03-28T00:40:28Z</time>
      </trkpt>
      <trkpt lat="41.289702" lon="-3.705233">
        <ele>932.98</ele>
        <time>2021-03-28T00:40:33Z</time>
      </trkpt>
      <trkpt lat="41.289933" lon="-3.705978">
        <ele>931.37</ele>
        <time>2021-03-28T00:40:39Z</time>
      </trkpt>
      <trkpt lat="41.290331" lon="-3.707938">
        <ele>932.53</ele>
        <time>2021-03-28T00:40:44Z</time>
      </trkpt>
      <trkpt lat="41.290363" lon="-3.708747">
        <ele>937.29</ele>
        <time>2021-03-28T00:40:49Z</time>
      </trkpt>
      <trkpt lat="41.290334" lon="-3.708985">
        <ele>939.06</ele>
        <time>2021-03-28T00:40:54Z</time>
      </trkpt>
      <trkpt lat="41.290227" lon="-3.709213">
        <ele>940.79</ele>
        <time>2021-03-28T00:41:00Z</time>
      </trkpt>
      <trkpt lat="41.289932" lon="-3.709656">
        <ele>944.56</ele>
        <time>2021-03-28T00:41:05Z</time>
      </trkpt>
      <trkpt lat="41.289396" lon="-3.710377">
        <ele>948.51</ele>
        <time>2021-03-28T00:41:10Z</time>
      </trkpt>
      <trkpt lat="41.289375" lon="-3.710521">
        <ele>948.38</ele>
        <time>2021-03-28T00:41:15Z</time>
      </trkpt>
      <trkpt lat="41.289408" lon="-3.710669">
        <ele>948.71</ele>
        <time>2021-03-28T00:41:21Z</time>
      </trkpt>
      <trkpt lat="41.289466" lon="-3.710781">
        <ele>949.43</ele>
        <time>2021-03-28T00:41:26Z</time>
      </trkpt>
      <trkpt lat="41.289556" lon="-3.71085">
        <ele>950.28</ele>
        <time>2021-03-28T00:41:31Z</time>
      </trkpt>
      <trkpt lat="41.290227" lon="-3.711158">
        <ele>957.74</ele>
        <time>2021-03-28T00:41:37Z</time>
      </trkpt>
      <trkpt lat="41.290495" lon="-3.711507">
        <ele>958.25</ele>
        <time>2021-03-28T00:41:42Z</time>
      </trkpt>
      <trkpt lat="41.29071" lon="-3.712004">
        <ele>962.63</ele>
        <time>2021-03-28T00:41:47Z</time>
      </trkpt>
      <trkpt lat="41.29079" lon="-3.71246">
        <ele>966.2</ele>
        <time>2021-03-28T00:41:52Z</time>
      </trkpt>
      <trkpt lat="41.290777" lon="-3.712929">
        <ele>965.5</ele>
        <time>2021-03-28T00:41:58Z</time>
      </trkpt>
      <trkpt lat="41.290623" lon="-3.713547">
        <ele>963.73</ele>
        <time>2021-03-28T00:42:03Z</time>
      </trkpt>
      <trkpt lat="41.290388" lon="-3.714144">
        <ele>964.46</ele>
        <time>2021-03-28T00:42:08Z</time>
      </trkpt>
      <trkpt lat="41.290099" lon="-3.715646">
        <ele>976.28</ele>
        <time>2021-03-28T00:42:13Z</time>
      </trkpt>
      <trkpt lat="41.289576" lon="-3.717699">
        <ele>978.1</ele>
        <time>2021-03-28T00:42:19Z</time>
      </trkpt>
      <trkpt lat="41.288576" lon="-3.721389">
        <ele>991.75</ele>
        <time>2021-03-28T00:42:24Z</time>
      </trkpt>
      <trkpt lat="41.288442" lon="-3.722133">
        <ele>995.13</ele>
        <time>2021-03-28T00:42:29Z</time>
      </trkpt>
      <trkpt lat="41.288308" lon="-3.722495">
        <ele>996.59</ele>
        <time>2021-03-28T00:42:35Z</time>
      </trkpt>
      <trkpt lat="41.287517" lon="-3.723851">
        <ele>996.74</ele>
        <time>2021-03-28T00:42:40Z</time>
      </trkpt>
      <trkpt lat="41.287268" lon="-3.724448">
        <ele>998.34</ele>
        <time>2021-03-28T00:42:45Z</time>
      </trkpt>
      <trkpt lat="41.287053" lon="-3.724921">
        <ele>997.32</ele>
        <time>2021-03-28T00:42:50Z</time>
      </trkpt>
      <trkpt lat="41.28702" lon="-3.725447">
        <ele>998.44</ele>
        <time>2021-03-28T00:42:56Z</time>
      </trkpt>
      <trkpt lat="41.287429" lon="-3.731465">
        <ele>1027.95</ele>
        <time>2021-03-28T00:43:01Z</time>
      </trkpt>
      <trkpt lat="41.287557" lon="-3.73186">
        <ele>1029.55</ele>
        <time>2021-03-28T00:43:06Z</time>
      </trkpt>
      <trkpt lat="41.287872" lon="-3.732384">
        <ele>1032.26</ele>
        <time>2021-03-28T00:43:11Z</time>
      </trkpt>
      <trkpt lat="41.288918" lon="-3.734014">
        <ele>1030.93</ele>
        <time>2021-03-28T00:43:17Z</time>
      </trkpt>
      <trkpt lat="41.289097" lon="-3.73419">
        <ele>1029.23</ele>
        <time>2021-03-28T00:43:22Z</time>
      </trkpt>
      <trkpt lat="41.290002" lon="-3.734525">
        <ele>1026.7</ele>
        <time>2021-03-28T00:43:27Z</time>
      </trkpt>
      <trkpt lat="41.290249" lon="-3.734711">
        <ele>1023.42</ele>
        <time>2021-03-28T00:43:33Z</time>
      </trkpt>
      <trkpt lat="41.291143" lon="-3.735716">
        <ele>1016.95</ele>
        <time>2021-03-28T00:43:38Z</time>
      </trkpt>
      <trkpt lat="41.291533" lon="-3.736127">
        <ele>1014.01</ele>
        <time>2021-03-28T00:43:43Z</time>
      </trkpt>
      <trkpt lat="41.291862" lon="-3.736429">
        <ele>1015.78</ele>
        <time>2021-03-28T00:43:48Z</time>
      </trkpt>
      <trkpt lat="41.293075" lon="-3.737236">
        <ele>1026.07</ele>
        <time>2021-03-28T00:43:54Z</time>
      </trkpt>
      <trkpt lat="41.293377" lon="-3.737373">
        <ele>1027.31</ele>
        <time>2021-03-28T00:43:59Z</time>
      </trkpt>
      <trkpt lat="41.293903" lon="-3.737537">
        <ele>1030.23</ele>
        <time>2021-03-28T00:44:04Z</time>
      </trkpt>
      <trkpt lat="41.295321" lon="-3.73849">
        <ele>1034.07</ele>
        <time>2021-03-28T00:44:09Z</time>
      </trkpt>
      <trkpt lat="41.29545" lon="-3.738562">
        <ele>1034.11</ele>
        <time>2021-03-28T00:44:15Z</time>
      </trkpt>
      <trkpt lat="41.295748" lon="-3.738683">
        <ele>1034.77</ele>
        <time>2021-03-28T00:44:20Z</time>
      </trkpt>
      <trkpt lat="41.295982" lon="-3.738814">
        <ele>1032.86</ele>
        <time>2021-03-28T00:44:25Z</time>
      </trkpt>
      <trkpt lat="41.296554" lon="-3.73943">
        <ele>1031.22</ele>
        <time>2021-03-28T00:44:30Z</time>
      </trkpt>
      <trkpt lat="41.297052" lon="-3.74001">
        <ele>1027.27</ele>
        <time>2021-03-28T00:44:36Z</time>
      </trkpt>
      <trkpt lat="41.297196" lon="-3.740276">
        <ele>1022.76</ele>
        <time>2021-03-28T00:44:41Z</time>
      </trkpt>
      <trkpt lat="41.297251" lon="-3.740432">
        <ele>1021.82</ele>
        <time>2021-03-28T00:44:46Z</time>
      </trkpt>
      <trkpt lat="41.297398" lon="-3.740985">
        <ele>1016.68</ele>
        <time>2021-03-28T00:44:52Z</time>
      </trkpt>
      <trkpt lat="41.297466" lon="-3.741353">
        <ele>1011.93</ele>
        <time>2021-03-28T00:44:57Z</time>
      </trkpt>
      <trkpt lat="41.297485" lon="-3.741585">
        <ele>1009.97</ele>
        <time>2021-03-28T00:45:02Z</time>
      </trkpt>
      <trkpt lat="41.297501" lon="-3.742576">
        <ele>1010.6</ele>
        <time>2021-03-28T00:45:07Z</time>
      </trkpt>
      <trkpt lat="41.297487" lon="-3.742831">
        <ele>1006.96</ele>
        <time>2021-03-28T00:45:13Z</time>
      </trkpt>
      <trkpt lat="41.297397" lon="-3.743323">
        <ele>1005.65</ele>
        <time>2021-03-28T00:45:18Z</time>
      </trkpt>
      <trkpt lat="41.297316" lon="-3.74481">
        <ele>997.03</ele>
        <time>2021-03-28T00:45:23Z</time>
      </trkpt>
      <trkpt lat="41.29727" lon="-3.745051">
        <ele>995.16</ele>
        <time>2021-03-28T00:45:28Z</time>
      </trkpt>
      <trkpt lat="41.297125" lon="-3.745562">
        <ele>993.02</ele>
        <time>2021-03-28T00:45:34Z</time>
      </trkpt>
      <trkpt lat="41.297094" lon="-3.745796">
        <ele>991.09</ele>
        <time>2021-03-28T00:45:39Z</time>
      </trkpt>
      <trkpt lat="41.297131" lon="-3.746476">
        <ele>986.92</ele>
        <time>2021-03-28T00:45:44Z</time>
      </trkpt>
      <trkpt lat="41.297133" lon="-3.74681">
        <ele>988.05</ele>
        <time>2021-03-28T00:45:50Z</time>
      </trkpt>
      <trkpt lat="41.297058" lon="-3.747871">
        <ele>979.31</ele>
        <time>2021-03-28T00:45:55Z</time>
      </trkpt>
      <trkpt lat="41.297076" lon="-3.747981">
        <ele>978.77</ele>
        <time>2021-03-28T00:46:00Z</time>
      </trkpt>
      <trkpt lat="41.297114" lon="-3.748043">
        <ele>978.63</ele>
        <time>2021-03-28T00:46:05Z</time>
      </trkpt>
      <trkpt lat="41.297218" lon="-3.74856">
        <ele>978.89</ele>
        <time>2021-03-28T00:46:11Z</time>
      </trkpt>
      <trkpt lat="41.297317" lon="-3.748883">
        <ele>979.02</ele>
        <time>2021-03-28T00:46:16Z</time>
      </trkpt>
      <trkpt lat="41.297157" lon="-3.749029">
        <ele>976.83</ele>
        <time>2021-03-28T00:46:18Z</time>
      </trkpt>
      <trkpt lat="41.297087" lon="-3.749192">
        <ele>975.66</ele>
        <time>2021-03-28T00:46:20Z</time>
      </trkpt>
      <trkpt lat="41.29706" lon="-3.74931">
        <ele>975.68</ele>
        <time>2021-03-28T00:46:22Z</time>
      </trkpt>
      <trkpt lat="41.297063" lon="-3.749385">
        <ele>976.04</ele>
        <time>2021-03-28T00:46:24Z</time>
      </trkpt>
      <trkpt lat="41.297125" lon="-3.749565">
        <ele>977.8</ele>
        <time>2021-03-28T00:46:27Z</time>
      </trkpt>
      <trkpt lat="41.297125" lon="-3.749608">
        <ele>978.11</ele>
        <time>2021-03-28T00:46:29Z</time>
      </trkpt>
      <trkpt lat="41.296936" lon="-3.750159">
        <ele>977.23</ele>
        <time>2021-03-28T00:46:31Z</time>
      </trkpt>
      <trkpt lat="41.296788" lon="-3.75081">
        <ele>973.4</ele>
        <time>2021-03-28T00:46:33Z</time>
      </trkpt>
      <trkpt lat="41.29667" lon="-3.751486">
        <ele>981.49</ele>
        <time>2021-03-28T00:46:35Z</time>
      </trkpt>
      <trkpt lat="41.296589" lon="-3.751717">
        <ele>981.94</ele>
        <time>2021-03-28T00:46:37Z</time>
      </trkpt>
      <trkpt lat="41.296374" lon="-3.75216">
        <ele>978.82</ele>
        <time>2021-03-28T00:46:39Z</time>
      </trkpt>
      <trkpt lat="41.29627" lon="-3.752455">
        <ele>973.65</ele>
        <time>2021-03-28T00:46:41Z</time>
      </trkpt>
      <trkpt lat="41.296236" lon="-3.752683">
        <ele>973.09</ele>
        <time>2021-03-28T00:46:44Z</time>
      </trkpt>
      <trkpt lat="41.296243" lon="-3.752846">
        <ele>974.38</ele>
        <time>2021-03-28T00:46:46Z</time>
      </trkpt>
      <trkpt lat="41.296341" lon="-3.753434">
        <ele>976.96</ele>
        <time>2021-03-28T00:46:48Z</time>
      </trkpt>
      <trkpt lat="41.296415" lon="-3.753663">
        <ele>975.88</ele>
        <time>2021-03-28T00:46:50Z</time>
      </trkpt>
      <trkpt lat="41.297163" lon="-3.7547">
        <ele>974.79</ele>
        <time>2021-03-28T00:46:52Z</time>
      </trkpt>
      <trkpt lat="41.297473" lon="-3.755439">
        <ele>966.12</ele>
        <time>2021-03-28T00:46:54Z</time>
      </trkpt>
      <trkpt lat="41.297814" lon="-3.756194">
        <ele>968.28</ele>
        <time>2021-03-28T00:46:56Z</time>
      </trkpt>
      <trkpt lat="41.297911" lon="-3.756511">
        <ele>968.39</ele>
        <time>2021-03-28T00:46:59Z</time>
      </trkpt>
      <trkpt lat="41.297963" lon="-3.756915">
        <ele>967.58</ele>
        <time>2021-03-28T00:47:01Z</time>
      </trkpt>
      <trkpt lat="41.297963" lon="-3.75731">
        <ele>964.36</ele>
        <time>2021-03-28T00:47:03Z</time>
      </trkpt>
      <trkpt lat="41.297943" lon="-3.757679">
        <ele>961.43</ele>
        <time>2021-03-28T00:47:05Z</time>
      </trkpt>
      <trkpt lat="41.297808" lon="-3.75841">
        <ele>955.9</ele>
        <time>2021-03-28T00:47:07Z</time>
      </trkpt>
      <trkpt lat="41.297764" lon="-3.758828">
        <ele>953.64</ele>
        <time>2021-03-28T00:47:09Z</time>
      </trkpt>
      <trkpt lat="41.297754" lon="-3.759058">
        <ele>951.4</ele>
        <time>2021-03-28T00:47:11Z</time>
      </trkpt>
      <trkpt lat="41.297892" lon="-3.760254">
        <ele>954.84</ele>
        <time>2021-03-28T00:47:13Z</time>
      </trkpt>
      <trkpt lat="41.297866" lon="-3.760365">
        <ele>953.18</ele>
        <time>2021-03-28T00:47:16Z</time>
      </trkpt>
      <trkpt lat="41.297808" lon="-3.760434">
        <ele>951.02</ele>
        <time>2021-03-28T00:47:18Z</time>
      </trkpt>
      <trkpt lat="41.297743" lon="-3.760434">
        <ele>948.87</ele>
        <time>2021-03-28T00:47:20Z</time>
      </trkpt>
      <trkpt lat="41.297666" lon="-3.760348">
        <ele>946.92</ele>
        <time>2021-03-28T00:47:22Z</time>
      </trkpt>
      <trkpt lat="41.297595" lon="-3.760125">
        <ele>946.15</ele>
        <time>2021-03-28T00:47:24Z</time>
      </trkpt>
      <trkpt lat="41.297486" lon="-3.759627">
        <ele>944.43</ele>
        <time>2021-03-28T00:47:26Z</time>
      </trkpt>
      <trkpt lat="41.297447" lon="-3.759378">
        <ele>943.05</ele>
        <time>2021-03-28T00:47:28Z</time>
      </trkpt>
      <trkpt lat="41.297441" lon="-3.759112">
        <ele>941.59</ele>
        <time>2021-03-28T00:47:30Z</time>
      </trkpt>
      <trkpt lat="41.297524" lon="-3.758091">
        <ele>938.49</ele>
        <time>2021-03-28T00:47:33Z</time>
      </trkpt>
      <trkpt lat="41.297531" lon="-3.757619">
        <ele>936.51</ele>
        <time>2021-03-28T00:47:35Z</time>
      </trkpt>
      <trkpt lat="41.297505" lon="-3.757275">
        <ele>934.53</ele>
        <time>2021-03-28T00:47:37Z</time>
      </trkpt>
      <trkpt lat="41.297466" lon="-3.757061">
        <ele>932.86</ele>
        <time>2021-03-28T00:47:39Z</time>
      </trkpt>
      <trkpt lat="41.297376" lon="-3.756803">
        <ele>931.11</ele>
        <time>2021-03-28T00:47:41Z</time>
      </trkpt>
      <trkpt lat="41.297163" lon="-3.756391">
        <ele>927.84</ele>
        <time>2021-03-28T00:47:43Z</time>
      </trkpt>
      <trkpt lat="41.296879" lon="-3.755945">
        <ele>930.37</ele>
        <time>2021-03-28T00:47:45Z</time>
      </trkpt>
      <trkpt lat="41.296757" lon="-3.755808">
        <ele>930.73</ele>
        <time>2021-03-28T00:47:48Z</time>
      </trkpt>
      <trkpt lat="41.296634" lon="-3.755748">
        <ele>929.2</ele>
        <time>2021-03-28T00:47:50Z</time>
      </trkpt>
      <trkpt lat="41.296254" lon="-3.755687">
        <ele>925.22</ele>
        <time>2021-03-28T00:47:52Z</time>
      </trkpt>
      <trkpt lat="41.296157" lon="-3.755722">
        <ele>923.44</ele>
        <time>2021-03-28T00:47:54Z</time>
      </trkpt>
      <trkpt lat="41.296099" lon="-3.75584">
        <ele>920.82</ele>
        <time>2021-03-28T00:47:56Z</time>
      </trkpt>
      <trkpt lat="41.296054" lon="-3.756016">
        <ele>918.63</ele>
        <time>2021-03-28T00:47:58Z</time>
      </trkpt>
      <trkpt lat="41.295906" lon="-3.75682">
        <ele>922.42</ele>
        <time>2021-03-28T00:48:00Z</time>
      </trkpt>
      <trkpt lat="41.295809" lon="-3.757207">
        <ele>926.2</ele>
        <time>2021-03-28T00:48:02Z</time>
      </trkpt>
      <trkpt lat="41.295712" lon="-3.757464">
        <ele>927.68</ele>
        <time>2021-03-28T00:48:05Z</time>
      </trkpt>
      <trkpt lat="41.295583" lon="-3.757713">
        <ele>929.6</ele>
        <time>2021-03-28T00:48:07Z</time>
      </trkpt>
      <trkpt lat="41.29537" lon="-3.758031">
        <ele>928.29</ele>
        <time>2021-03-28T00:48:09Z</time>
      </trkpt>
      <trkpt lat="41.294603" lon="-3.759086">
        <ele>927.33</ele>
        <time>2021-03-28T00:48:11Z</time>
      </trkpt>
      <trkpt lat="41.294372" lon="-3.759334">
        <ele>929.29</ele>
        <time>2021-03-28T00:48:13Z</time>
      </trkpt>
      <trkpt lat="41.294345" lon="-3.759402">
        <ele>929.72</ele>
        <time>2021-03-28T00:48:15Z</time>
      </trkpt>
      <trkpt lat="41.294296" lon="-3.759459">
        <ele>930.79</ele>
        <time>2021-03-28T00:48:16Z</time>
      </trkpt>
      <trkpt lat="41.294229" lon="-3.759489">
        <ele>932.24</ele>
        <time>2021-03-28T00:48:17Z</time>
      </trkpt>
      <trkpt lat="41.294144" lon="-3.759474">
        <ele>933.8</ele>
        <time>2021-03-28T00:48:19Z</time>
      </trkpt>
      <trkpt lat="41.294074" lon="-3.759404">
        <ele>934.84</ele>
        <time>2021-03-28T00:48:20Z</time>
      </trkpt>
      <trkpt lat="41.293964" lon="-3.759238">
        <ele>935.33</ele>
        <time>2021-03-28T00:48:22Z</time>
      </trkpt>
      <trkpt lat="41.293639" lon="-3.759011">
        <ele>937.41</ele>
        <time>2021-03-28T00:48:23Z</time>
      </trkpt>
      <trkpt lat="41.29343" lon="-3.758912">
        <ele>937.69</ele>
        <time>2021-03-28T00:48:24Z</time>
      </trkpt>
      <trkpt lat="41.293255" lon="-3.758879">
        <ele>938.45</ele>
        <time>2021-03-28T00:48:26Z</time>
      </trkpt>
      <trkpt lat="41.292101" lon="-3.758808">
        <ele>950.82</ele>
        <time>2021-03-28T00:48:27Z</time>
      </trkpt>
      <trkpt lat="41.291839" lon="-3.758893">
        <ele>951.08</ele>
        <time>2021-03-28T00:48:29Z</time>
      </trkpt>
      <trkpt lat="41.291478" lon="-3.759358">
        <ele>956.51</ele>
        <time>2021-03-28T00:48:30Z</time>
      </trkpt>
      <trkpt lat="41.291394" lon="-3.759394">
        <ele>956.32</ele>
        <time>2021-03-28T00:48:31Z</time>
      </trkpt>
      <trkpt lat="41.291314" lon="-3.759397">
        <ele>956.29</ele>
        <time>2021-03-28T00:48:33Z</time>
      </trkpt>
      <trkpt lat="41.291249" lon="-3.759366">
        <ele>956.27</ele>
        <time>2021-03-28T00:48:34Z</time>
      </trkpt>
      <trkpt lat="41.291192" lon="-3.759311">
        <ele>956.25</ele>
        <time>2021-03-28T00:48:36Z</time>
      </trkpt>
      <trkpt lat="41.291165" lon="-3.759216">
        <ele>956.22</ele>
        <time>2021-03-28T00:48:37Z</time>
      </trkpt>
      <trkpt lat="41.291157" lon="-3.759102">
        <ele>956.72</ele>
        <time>2021-03-28T00:48:39Z</time>
      </trkpt>
      <trkpt lat="41.291279" lon="-3.758533">
        <ele>961.14</ele>
        <time>2021-03-28T00:48:40Z</time>
      </trkpt>
      <trkpt lat="41.291382" lon="-3.758293">
        <ele>964.33</ele>
        <time>2021-03-28T00:48:41Z</time>
      </trkpt>
      <trkpt lat="41.291658" lon="-3.75797">
        <ele>966.1</ele>
        <time>2021-03-28T00:48:43Z</time>
      </trkpt>
      <trkpt lat="41.292241" lon="-3.757187">
        <ele>968.59</ele>
        <time>2021-03-28T00:48:44Z</time>
      </trkpt>
      <trkpt lat="41.292694" lon="-3.756663">
        <ele>968.17</ele>
        <time>2021-03-28T00:48:46Z</time>
      </trkpt>
      <trkpt lat="41.292904" lon="-3.75635">
        <ele>966.87</ele>
        <time>2021-03-28T00:48:47Z</time>
      </trkpt>
      <trkpt lat="41.292983" lon="-3.756132">
        <ele>965.2</ele>
        <time>2021-03-28T00:48:48Z</time>
      </trkpt>
      <trkpt lat="41.292986" lon="-3.755645">
        <ele>966.16</ele>
        <time>2021-03-28T00:48:50Z</time>
      </trkpt>
      <trkpt lat="41.293034" lon="-3.755462">
        <ele>966.47</ele>
        <time>2021-03-28T00:48:51Z</time>
      </trkpt>
      <trkpt lat="41.293111" lon="-3.755292">
        <ele>966.73</ele>
        <time>2021-03-28T00:48:53Z</time>
      </trkpt>
      <trkpt lat="41.293259" lon="-3.755062">
        <ele>966.9</ele>
        <time>2021-03-28T00:48:54Z</time>
      </trkpt>
      <trkpt lat="41.293298" lon="-3.754968">
        <ele>968.17</ele>
        <time>2021-03-28T00:48:55Z</time>
      </trkpt>
      <trkpt lat="41.293436" lon="-3.75437">
        <ele>976.95</ele>
        <time>2021-03-28T00:48:57Z</time>
      </trkpt>
      <trkpt lat="41.293459" lon="-3.753953">
        <ele>977.01</ele>
        <time>2021-03-28T00:48:58Z</time>
      </trkpt>
      <trkpt lat="41.293431" lon="-3.753756">
        <ele>977.16</ele>
        <time>2021-03-28T00:49:00Z</time>
      </trkpt>
      <trkpt lat="41.293334" lon="-3.753404">
        <ele>978.48</ele>
        <time>2021-03-28T00:49:01Z</time>
      </trkpt>
      <trkpt lat="41.293213" lon="-3.753133">
        <ele>980.56</ele>
        <time>2021-03-28T00:49:03Z</time>
      </trkpt>
      <trkpt lat="41.293056" lon="-3.752908">
        <ele>981.25</ele>
        <time>2021-03-28T00:49:04Z</time>
      </trkpt>
      <trkpt lat="41.292863" lon="-3.752731">
        <ele>981.96</ele>
        <time>2021-03-28T00:49:05Z</time>
      </trkpt>
      <trkpt lat="41.292584" lon="-3.752559">
        <ele>986.08</ele>
        <time>2021-03-28T00:49:07Z</time>
      </trkpt>
      <trkpt lat="41.292494" lon="-3.752459">
        <ele>986.89</ele>
        <time>2021-03-28T00:49:08Z</time>
      </trkpt>
      <trkpt lat="41.29243" lon="-3.752305">
        <ele>987.78</ele>
        <time>2021-03-28T00:49:10Z</time>
      </trkpt>
      <trkpt lat="41.292419" lon="-3.75218">
        <ele>988.13</ele>
        <time>2021-03-28T00:49:11Z</time>
      </trkpt>
      <trkpt lat="41.292477" lon="-3.752024">
        <ele>987.95</ele>
        <time>2021-03-28T00:49:12Z</time>
      </trkpt>
      <trkpt lat="41.292678" lon="-3.751779">
        <ele>985.83</ele>
        <time>2021-03-28T00:49:14Z</time>
      </trkpt>
      <trkpt lat="41.292847" lon="-3.751506">
        <ele>984.55</ele>
        <time>2021-03-28T00:49:15Z</time>
      </trkpt>
      <trkpt lat="41.29292" lon="-3.751297">
        <ele>984.46</ele>
        <time>2021-03-28T00:49:17Z</time>
      </trkpt>
      <trkpt lat="41.292927" lon="-3.751117">
        <ele>986.23</ele>
        <time>2021-03-28T00:49:18Z</time>
      </trkpt>
      <trkpt lat="41.292503" lon="-3.74931">
        <ele>1004.4</ele>
        <time>2021-03-28T00:49:19Z</time>
      </trkpt>
      <trkpt lat="41.292355" lon="-3.748876">
        <ele>1002.67</ele>
        <time>2021-03-28T00:49:21Z</time>
      </trkpt>
      <trkpt lat="41.291751" lon="-3.747698">
        <ele>1007.61</ele>
        <time>2021-03-28T00:49:22Z</time>
      </trkpt>
      <trkpt lat="41.29161" lon="-3.747517">
        <ele>1008.36</ele>
        <time>2021-03-28T00:49:24Z</time>
      </trkpt>
      <trkpt lat="41.291491" lon="-3.747448">
        <ele>1008.62</ele>
        <time>2021-03-28T00:49:25Z</time>
      </trkpt>
      <trkpt lat="41.291351" lon="-3.747409">
        <ele>1009.09</ele>
        <time>2021-03-28T00:49:27Z</time>
      </trkpt>
      <trkpt lat="41.291032" lon="-3.747503">
        <ele>1010.47</ele>
        <time>2021-03-28T00:49:28Z</time>
      </trkpt>
      <trkpt lat="41.290694" lon="-3.747548">
        <ele>1011.52</ele>
        <time>2021-03-28T00:49:29Z</time>
      </trkpt>
      <trkpt lat="41.290415" lon="-3.747488">
        <ele>1017.02</ele>
        <time>2021-03-28T00:49:31Z</time>
      </trkpt>
      <trkpt lat="41.289884" lon="-3.74707">
        <ele>1025.03</ele>
        <time>2021-03-28T00:49:32Z</time>
      </trkpt>
      <trkpt lat="41.289703" lon="-3.74697">
        <ele>1026.34</ele>
        <time>2021-03-28T00:49:34Z</time>
      </trkpt>
      <trkpt lat="41.28952" lon="-3.74693">
        <ele>1026.49</ele>
        <time>2021-03-28T00:49:35Z</time>
      </trkpt>
      <trkpt lat="41.289326" lon="-3.746965">
        <ele>1026.36</ele>
        <time>2021-03-28T00:49:36Z</time>
      </trkpt>
      <trkpt lat="41.28853" lon="-3.747589">
        <ele>1028.31</ele>
        <time>2021-03-28T00:49:38Z</time>
      </trkpt>
      <trkpt lat="41.288338" lon="-3.747977">
        <ele>1028.04</ele>
        <time>2021-03-28T00:49:39Z</time>
      </trkpt>
      <trkpt lat="41.288203" lon="-3.748366">
        <ele>1026.89</ele>
        <time>2021-03-28T00:49:41Z</time>
      </trkpt>
      <trkpt lat="41.288035" lon="-3.748641">
        <ele>1027.07</ele>
        <time>2021-03-28T00:49:42Z</time>
      </trkpt>
      <trkpt lat="41.287855" lon="-3.748812">
        <ele>1029.09</ele>
        <time>2021-03-28T00:49:43Z</time>
      </trkpt>
      <trkpt lat="41.287653" lon="-3.748915">
        <ele>1032.08</ele>
        <time>2021-03-28T00:49:45Z</time>
      </trkpt>
      <trkpt lat="41.287444" lon="-3.748946">
        <ele>1033.82</ele>
        <time>2021-03-28T00:49:46Z</time>
      </trkpt>
      <trkpt lat="41.286823" lon="-3.748882">
        <ele>1040.3</ele>
        <time>2021-03-28T00:49:48Z</time>
      </trkpt>
      <trkpt lat="41.286663" lon="-3.748904">
        <ele>1042.08</ele>
        <time>2021-03-28T00:49:49Z</time>
      </trkpt>
      <trkpt lat="41.286243" lon="-3.749107">
        <ele>1044.26</ele>
        <time>2021-03-28T00:49:50Z</time>
      </trkpt>
      <trkpt lat="41.28606" lon="-3.749231">
        <ele>1043.72</ele>
        <time>2021-03-28T00:49:52Z</time>
      </trkpt>
      <trkpt lat="41.285878" lon="-3.749441">
        <ele>1043.3</ele>
        <time>2021-03-28T00:49:53Z</time>
      </trkpt>
      <trkpt lat="41.285262" lon="-3.750496">
        <ele>1042.73</ele>
        <time>2021-03-28T00:49:55Z</time>
      </trkpt>
      <trkpt lat="41.284994" lon="-3.75121">
        <ele>1042.96</ele>
        <time>2021-03-28T00:49:56Z</time>
      </trkpt>
      <trkpt lat="41.284935" lon="-3.751547">
        <ele>1043.54</ele>
        <time>2021-03-28T00:49:58Z</time>
      </trkpt>
      <trkpt lat="41.284899" lon="-3.751953">
        <ele>1044.64</ele>
        <time>2021-03-28T00:49:59Z</time>
      </trkpt>
      <trkpt lat="41.28491" lon="-3.752253">
        <ele>1044.6</ele>
        <time>2021-03-28T00:50:00Z</time>
      </trkpt>
      <trkpt lat="41.284965" lon="-3.752607">
        <ele>1043.42</ele>
        <time>2021-03-28T00:50:02Z</time>
      </trkpt>
      <trkpt lat="41.285084" lon="-3.753074">
        <ele>1041.31</ele>
        <time>2021-03-28T00:50:03Z</time>
      </trkpt>
      <trkpt lat="41.284991" lon="-3.753175">
        <ele>1038.54</ele>
        <time>2021-03-28T00:50:04Z</time>
      </trkpt>
      <trkpt lat="41.284688" lon="-3.753071">
        <ele>1033.69</ele>
        <time>2021-03-28T00:50:09Z</time>
      </trkpt>
      <trkpt lat="41.284162" lon="-3.752999">
        <ele>1028.76</ele>
        <time>2021-03-28T00:50:14Z</time>
      </trkpt>
      <trkpt lat="41.28035" lon="-3.752976">
        <ele>1000.93</ele>
        <time>2021-03-28T00:50:18Z</time>
      </trkpt>
      <trkpt lat="41.280042" lon="-3.753038">
        <ele>999.34</ele>
        <time>2021-03-28T00:50:23Z</time>
      </trkpt>
      <trkpt lat="41.279824" lon="-3.753108">
        <ele>999.07</ele>
        <time>2021-03-28T00:50:28Z</time>
      </trkpt>
      <trkpt lat="41.27958" lon="-3.753247">
        <ele>1001.55</ele>
        <time>2021-03-28T00:50:33Z</time>
      </trkpt>
      <trkpt lat="41.279342" lon="-3.753479">
        <ele>1005.28</ele>
        <time>2021-03-28T00:50:38Z</time>
      </trkpt>
      <trkpt lat="41.279149" lon="-3.753758">
        <ele>1006.13</ele>
        <time>2021-03-28T00:50:43Z</time>
      </trkpt>
      <trkpt lat="41.278895" lon="-3.754184">
        <ele>1005.99</ele>
        <time>2021-03-28T00:50:48Z</time>
      </trkpt>
      <trkpt lat="41.278698" lon="-3.754443">
        <ele>1009.07</ele>
        <time>2021-03-28T00:50:52Z</time>
      </trkpt>
      <trkpt lat="41.278495" lon="-3.7546">
        <ele>1012.04</ele>
        <time>2021-03-28T00:50:57Z</time>
      </trkpt>
      <trkpt lat="41.278319" lon="-3.754675">
        <ele>1014.6</ele>
        <time>2021-03-28T00:51:02Z</time>
      </trkpt>
      <trkpt lat="41.278074" lon="-3.754723">
        <ele>1018.65</ele>
        <time>2021-03-28T00:51:07Z</time>
      </trkpt>
      <trkpt lat="41.277824" lon="-3.754733">
        <ele>1018.94</ele>
        <time>2021-03-28T00:51:12Z</time>
      </trkpt>
      <trkpt lat="41.277544" lon="-3.75466">
        <ele>1017.54</ele>
        <time>2021-03-28T00:51:17Z</time>
      </trkpt>
      <trkpt lat="41.275948" lon="-3.753982">
        <ele>1012.75</ele>
        <time>2021-03-28T00:51:21Z</time>
      </trkpt>
      <trkpt lat="41.275504" lon="-3.753933">
        <ele>1011.16</ele>
        <time>2021-03-28T00:51:26Z</time>
      </trkpt>
      <trkpt lat="41.273873" lon="-3.754108">
        <ele>1002.33</ele>
        <time>2021-03-28T00:51:31Z</time>
      </trkpt>
      <trkpt lat="41.272292" lon="-3.753933">
        <ele>1002.04</ele>
        <time>2021-03-28T00:51:36Z</time>
      </trkpt>
      <trkpt lat="41.271717" lon="-3.753739">
        <ele>1002.44</ele>
        <time>2021-03-28T00:51:41Z</time>
      </trkpt>
      <trkpt lat="41.269991" lon="-3.752848">
        <ele>1012.29</ele>
        <time>2021-03-28T00:51:46Z</time>
      </trkpt>
      <trkpt lat="41.269597" lon="-3.752848">
        <ele>1013.39</ele>
        <time>2021-03-28T00:51:50Z</time>
      </trkpt>
      <trkpt lat="41.26723" lon="-3.753274">
        <ele>998.32</ele>
        <time>2021-03-28T00:51:55Z</time>
      </trkpt>
      <trkpt lat="41.266414" lon="-3.753536">
        <ele>997.7</ele>
        <time>2021-03-28T00:52:00Z</time>
      </trkpt>
      <trkpt lat="41.261566" lon="-3.755386">
        <ele>975.42</ele>
        <time>2021-03-28T00:52:05Z</time>
      </trkpt>
      <trkpt lat="41.261038" lon="-3.755639">
        <ele>975.04</ele>
        <time>2021-03-28T00:52:10Z</time>
      </trkpt>
      <trkpt lat="41.26039" lon="-3.756075">
        <ele>974.87</ele>
        <time>2021-03-28T00:52:15Z</time>
      </trkpt>
      <trkpt lat="41.256879" lon="-3.758527">
        <ele>965.47</ele>
        <time>2021-03-28T00:52:20Z</time>
      </trkpt>
      <trkpt lat="41.256536" lon="-3.758898">
        <ele>968.47</ele>
        <time>2021-03-28T00:52:24Z</time>
      </trkpt>
      <trkpt lat="41.255791" lon="-3.760008">
        <ele>968.82</ele>
        <time>2021-03-28T00:52:29Z</time>
      </trkpt>
      <trkpt lat="41.254872" lon="-3.761492">
        <ele>971.8</ele>
        <time>2021-03-28T00:52:34Z</time>
      </trkpt>
      <trkpt lat="41.25395" lon="-3.762907">
        <ele>966.22</ele>
        <time>2021-03-28T00:52:39Z</time>
      </trkpt>
      <trkpt lat="41.253323" lon="-3.76376">
        <ele>965.03</ele>
        <time>2021-03-28T00:52:44Z</time>
      </trkpt>
      <trkpt lat="41.252512" lon="-3.764632">
        <ele>959.75</ele>
        <time>2021-03-28T00:52:49Z</time>
      </trkpt>
      <trkpt lat="41.252026" lon="-3.765126">
        <ele>957.36</ele>
        <time>2021-03-28T00:52:53Z</time>
      </trkpt>
      <trkpt lat="41.25073" lon="-3.766375">
        <ele>945.59</ele>
        <time>2021-03-28T00:52:58Z</time>
      </trkpt>
      <trkpt lat="41.250249" lon="-3.766812">
        <ele>945.05</ele>
        <time>2021-03-28T00:53:03Z</time>
      </trkpt>
      <trkpt lat="41.249925" lon="-3.767076">
        <ele>946.27</ele>
        <time>2021-03-28T00:53:08Z</time>
      </trkpt>
      <trkpt lat="41.249299" lon="-3.767481">
        <ele>946.91</ele>
        <time>2021-03-28T00:53:13Z</time>
      </trkpt>
      <trkpt lat="41.248979" lon="-3.76774">
        <ele>943.88</ele>
        <time>2021-03-28T00:53:18Z</time>
      </trkpt>
      <trkpt lat="41.248784" lon="-3.767985">
        <ele>942.71</ele>
        <time>2021-03-28T00:53:23Z</time>
      </trkpt>
      <trkpt lat="41.248238" lon="-3.768993">
        <ele>941.03</ele>
        <time>2021-03-28T00:53:27Z</time>
      </trkpt>
      <trkpt lat="41.24807" lon="-3.769189">
        <ele>942.93</ele>
        <time>2021-03-28T00:53:32Z</time>
      </trkpt>
      <trkpt lat="41.247727" lon="-3.769448">
        <ele>944.01</ele>
        <time>2021-03-28T00:53:37Z</time>
      </trkpt>
      <trkpt lat="41.245121" lon="-3.770814">
        <ele>963.56</ele>
        <time>2021-03-28T00:53:42Z</time>
      </trkpt>
      <trkpt lat="41.244768" lon="-3.771032">
        <ele>964.84</ele>
        <time>2021-03-28T00:53:47Z</time>
      </trkpt>
      <trkpt lat="41.244303" lon="-3.771397">
        <ele>963.51</ele>
        <time>2021-03-28T00:53:52Z</time>
      </trkpt>
      <trkpt lat="41.243581" lon="-3.772062">
        <ele>973.2</ele>
        <time>2021-03-28T00:53:56Z</time>
      </trkpt>
      <trkpt lat="41.243114" lon="-3.772398">
        <ele>971.65</ele>
        <time>2021-03-28T00:54:01Z</time>
      </trkpt>
      <trkpt lat="41.242257" lon="-3.772877">
        <ele>975.64</ele>
        <time>2021-03-28T00:54:06Z</time>
      </trkpt>
      <trkpt lat="41.241802" lon="-3.773185">
        <ele>976.27</ele>
        <time>2021-03-28T00:54:11Z</time>
      </trkpt>
      <trkpt lat="41.241354" lon="-3.773609">
        <ele>977.37</ele>
        <time>2021-03-28T00:54:16Z</time>
      </trkpt>
      <trkpt lat="41.240974" lon="-3.774001">
        <ele>980.99</ele>
        <time>2021-03-28T00:54:21Z</time>
      </trkpt>
      <trkpt lat="41.240855" lon="-3.774195">
        <ele>981.84</ele>
        <time>2021-03-28T00:54:25Z</time>
      </trkpt>
      <trkpt lat="41.24078" lon="-3.774357">
        <ele>982.0</ele>
        <time>2021-03-28T00:54:30Z</time>
      </trkpt>
      <trkpt lat="41.240766" lon="-3.774439">
        <ele>982.0</ele>
        <time>2021-03-28T00:54:35Z</time>
      </trkpt>
      <trkpt lat="41.240724" lon="-3.774511">
        <ele>981.61</ele>
        <time>2021-03-28T00:54:40Z</time>
      </trkpt>
      <trkpt lat="41.240672" lon="-3.774549">
        <ele>981.47</ele>
        <time>2021-03-28T00:54:45Z</time>
      </trkpt>
      <trkpt lat="41.240578" lon="-3.774548">
        <ele>981.6</ele>
        <time>2021-03-28T00:54:50Z</time>
      </trkpt>
      <trkpt lat="41.240522" lon="-3.774505">
        <ele>981.78</ele>
        <time>2021-03-28T00:54:55Z</time>
      </trkpt>
      <trkpt lat="41.238398" lon="-3.775892">
        <ele>985.48</ele>
        <time>2021-03-28T00:55:00Z</time>
      </trkpt>
      <trkpt lat="41.236808" lon="-3.777206">
        <ele>994.38</ele>
        <time>2021-03-28T00:55:06Z</time>
      </trkpt>
      <trkpt lat="41.236552" lon="-3.777374">
        <ele>997.18</ele>
        <time>2021-03-28T00:55:12Z</time>
      </trkpt>
      <trkpt lat="41.236198" lon="-3.777522">
        <ele>999.63</ele>
        <time>2021-03-28T00:55:18Z</time>
      </trkpt>
      <trkpt lat="41.233856" lon="-3.778292">
        <ele>1009.6</ele>
        <time>2021-03-28T00:55:24Z</time>
      </trkpt>
      <trkpt lat="41.233604" lon="-3.778407">
        <ele>1009.5</ele>
        <time>2021-03-28T00:55:30Z</time>
      </trkpt>
      <trkpt lat="41.233337" lon="-3.778574">
        <ele>1008.89</ele>
        <time>2021-03-28T00:55:36Z</time>
      </trkpt>
      <trkpt lat="41.230719" lon="-3.781121">
        <ele>1012.19</ele>
        <time>2021-03-28T00:55:42Z</time>
      </trkpt>
      <trkpt lat="41.230395" lon="-3.781349">
        <ele>1011.28</ele>
        <time>2021-03-28T00:55:47Z</time>
      </trkpt>
      <trkpt lat="41.225828" lon="-3.784227">
        <ele>1009.03</ele>
        <time>2021-03-28T00:55:53Z</time>
      </trkpt>
      <trkpt lat="41.219411" lon="-3.788161">
        <ele>1013.62</ele>
        <time>2021-03-28T00:55:59Z</time>
      </trkpt>
      <trkpt lat="41.218499" lon="-3.788766">
        <ele>1011.8</ele>
        <time>2021-03-28T00:56:05Z</time>
      </trkpt>
      <trkpt lat="41.216304" lon="-3.790305">
        <ele>1022.04</ele>
        <time>2021-03-28T00:56:11Z</time>
      </trkpt>
      <trkpt lat="41.21573" lon="-3.790571">
        <ele>1023.74</ele>
        <time>2021-03-28T00:56:17Z</time>
      </trkpt>
      <trkpt lat="41.213606" lon="-3.791359">
        <ele>1024.23</ele>
        <time>2021-03-28T00:56:23Z</time>
      </trkpt>
      <trkpt lat="41.213297" lon="-3.79154">
        <ele>1025.81</ele>
        <time>2021-03-28T00:56:28Z</time>
      </trkpt>
      <trkpt lat="41.213087" lon="-3.791758">
        <ele>1028.06</ele>
        <time>2021-03-28T00:56:34Z</time>
      </trkpt>
      <trkpt lat="41.212558" lon="-3.792364">
        <ele>1030.4</ele>
        <time>2021-03-28T00:56:40Z</time>
      </trkpt>
      <trkpt lat="41.211948" lon="-3.792946">
        <ele>1030.78</ele>
        <time>2021-03-28T00:56:46Z</time>
      </trkpt>
      <trkpt lat="41.210853" lon="-3.793838">
        <ele>1035.31</ele>
        <time>2021-03-28T00:56:52Z</time>
      </trkpt>
      <trkpt lat="41.210372" lon="-3.794262">
        <ele>1037.87</ele>
        <time>2021-03-28T00:56:58Z</time>
      </trkpt>
      <trkpt lat="41.209936" lon="-3.794731">
        <ele>1039.4</ele>
        <time>2021-03-28T00:57:04Z</time>
      </trkpt>
      <trkpt lat="41.209433" lon="-3.795238">
        <ele>1042.27</ele>
        <time>2021-03-28T00:57:10Z</time>
      </trkpt>
      <trkpt lat="41.208981" lon="-3.79565">
        <ele>1045.33</ele>
        <time>2021-03-28T00:57:15Z</time>
      </trkpt>
      <trkpt lat="41.208703" lon="-3.795856">
        <ele>1046.84</ele>
        <time>2021-03-28T00:57:21Z</time>
      </trkpt>
      <trkpt lat="41.208445" lon="-3.795967">
        <ele>1048.23</ele>
        <time>2021-03-28T00:57:27Z</time>
      </trkpt>
      <trkpt lat="41.208135" lon="-3.79601">
        <ele>1048.92</ele>
        <time>2021-03-28T00:57:33Z</time>
      </trkpt>
      <trkpt lat="41.207663" lon="-3.795984">
        <ele>1047.78</ele>
        <time>2021-03-28T00:57:39Z</time>
      </trkpt>
      <trkpt lat="41.207341" lon="-3.796001">
        <ele>1047.39</ele>
        <time>2021-03-28T00:57:45Z</time>
      </trkpt>
      <trkpt lat="41.206818" lon="-3.796096">
        <ele>1047.03</ele>
        <time>2021-03-28T00:57:51Z</time>
      </trkpt>
      <trkpt lat="41.204247" lon="-3.79674">
        <ele>1059.42</ele>
        <time>2021-03-28T00:57:56Z</time>
      </trkpt>
      <trkpt lat="41.203274" lon="-3.796939">
        <ele>1065.45</ele>
        <time>2021-03-28T00:58:02Z</time>
      </trkpt>
      <trkpt lat="41.203064" lon="-3.796968">
        <ele>1066.85</ele>
        <time>2021-03-28T00:58:08Z</time>
      </trkpt>
      <trkpt lat="41.202723" lon="-3.79698">
        <ele>1069.05</ele>
        <time>2021-03-28T00:58:14Z</time>
      </trkpt>
      <trkpt lat="41.20242" lon="-3.796903">
        <ele>1068.96</ele>
        <time>2021-03-28T00:58:20Z</time>
      </trkpt>
      <trkpt lat="41.202039" lon="-3.79674">
        <ele>1068.57</ele>
        <time>2021-03-28T00:58:26Z</time>
      </trkpt>
      <trkpt lat="41.199785" lon="-3.795521">
        <ele>1075.74</ele>
        <time>2021-03-28T00:58:32Z</time>
      </trkpt>
      <trkpt lat="41.199391" lon="-3.795341">
        <ele>1080.53</ele>
        <time>2021-03-28T00:58:38Z</time>
      </trkpt>
      <trkpt lat="41.199075" lon="-3.795238">
        <ele>1082.77</ele>
        <time>2021-03-28T00:58:43Z</time>
      </trkpt>
      <trkpt lat="41.198416" lon="-3.79516">
        <ele>1081.41</ele>
        <time>2021-03-28T00:58:49Z</time>
      </trkpt>
      <trkpt lat="41.197822" lon="-3.795117">
        <ele>1081.0</ele>
        <time>2021-03-28T00:58:55Z</time>
      </trkpt>
      <trkpt lat="41.197053" lon="-3.794997">
        <ele>1084.61</ele>
        <time>2021-03-28T00:59:01Z</time>
      </trkpt>
      <trkpt lat="41.195413" lon="-3.794602">
        <ele>1088.71</ele>
        <time>2021-03-28T00:59:07Z</time>
      </trkpt>
      <trkpt lat="41.194909" lon="-3.794499">
        <ele>1088.01</ele>
        <time>2021-03-28T00:59:13Z</time>
      </trkpt>
      <trkpt lat="41.194612" lon="-3.794474">
        <ele>1086.89</ele>
        <time>2021-03-28T00:59:19Z</time>
      </trkpt>
      <trkpt lat="41.194366" lon="-3.794542">
        <ele>1086.93</ele>
        <time>2021-03-28T00:59:25Z</time>
      </trkpt>
      <trkpt lat="41.194147" lon="-3.794654">
        <ele>1087.24</ele>
        <time>2021-03-28T00:59:30Z</time>
      </trkpt>
      <trkpt lat="41.193966" lon="-3.794817">
        <ele>1086.32</ele>
        <time>2021-03-28T00:59:36Z</time>
      </trkpt>
      <trkpt lat="41.193275" lon="-3.795795">
        <ele>1080.14</ele>
        <time>2021-03-28T00:59:42Z</time>
      </trkpt>
      <trkpt lat="41.192474" lon="-3.796997">
        <ele>1076.9</ele>
        <time>2021-03-28T00:59:48Z</time>
      </trkpt>
      <trkpt lat="41.192255" lon="-3.797297">
        <ele>1076.64</ele>
        <time>2021-03-28T00:59:54Z</time>
      </trkpt>
      <trkpt lat="41.192099" lon="-3.797478">
        <ele>1076.96</ele>
        <time>2021-03-28T01:00:00Z</time>
      </trkpt>
      <trkpt lat="41.191938" lon="-3.797615">
        <ele>1077.63</ele>
        <time>2021-03-28T01:00:06Z</time>
      </trkpt>
      <trkpt lat="41.190498" lon="-3.798121">
        <ele>1081.0</ele>
        <time>2021-03-28T01:00:11Z</time>
      </trkpt>
      <trkpt lat="41.189813" lon="-3.798327">
        <ele>1082.0</ele>
        <time>2021-03-28T01:00:17Z</time>
      </trkpt>
      <trkpt lat="41.189632" lon="-3.798293">
        <ele>1082.0</ele>
        <time>2021-03-28T01:00:23Z</time>
      </trkpt>
      <trkpt lat="41.189484" lon="-3.798199">
        <ele>1082.0</ele>
        <time>2021-03-28T01:00:29Z</time>
      </trkpt>
      <trkpt lat="41.189387" lon="-3.798087">
        <ele>1081.58</ele>
        <time>2021-03-28T01:00:35Z</time>
      </trkpt>
      <trkpt lat="41.189309" lon="-3.797907">
        <ele>1080.51</ele>
        <time>2021-03-28T01:00:41Z</time>
      </trkpt>
      <trkpt lat="41.189264" lon="-3.797684">
        <ele>1078.84</ele>
        <time>2021-03-28T01:00:47Z</time>
      </trkpt>
      <trkpt lat="41.189283" lon="-3.79595">
        <ele>1076.19</ele>
        <time>2021-03-28T01:00:53Z</time>
      </trkpt>
      <trkpt lat="41.189354" lon="-3.795375">
        <ele>1079.18</ele>
        <time>2021-03-28T01:00:58Z</time>
      </trkpt>
      <trkpt lat="41.189561" lon="-3.794405">
        <ele>1076.8</ele>
        <time>2021-03-28T01:01:04Z</time>
      </trkpt>
      <trkpt lat="41.1896" lon="-3.794165">
        <ele>1074.46</ele>
        <time>2021-03-28T01:01:10Z</time>
      </trkpt>
      <trkpt lat="41.189587" lon="-3.794019">
        <ele>1072.74</ele>
        <time>2021-03-28T01:01:16Z</time>
      </trkpt>
      <trkpt lat="41.189542" lon="-3.793881">
        <ele>1071.06</ele>
        <time>2021-03-28T01:01:22Z</time>
      </trkpt>
      <trkpt lat="41.189432" lon="-3.793753">
        <ele>1070.42</ele>
        <time>2021-03-28T01:01:28Z</time>
      </trkpt>
      <trkpt lat="41.189272" lon="-3.79369">
        <ele>1069.91</ele>
        <time>2021-03-28T01:01:34Z</time>
      </trkpt>
      <trkpt lat="41.189135" lon="-3.793693">
        <ele>1069.45</ele>
        <time>2021-03-28T01:01:39Z</time>
      </trkpt>
      <trkpt lat="41.189019" lon="-3.793761">
        <ele>1069.21</ele>
        <time>2021-03-28T01:01:45Z</time>
      </trkpt>
      <trkpt lat="41.187675" lon="-3.79498">
        <ele>1067.81</ele>
        <time>2021-03-28T01:01:51Z</time>
      </trkpt>
      <trkpt lat="41.182831" lon="-3.799194">
        <ele>1078.89</ele>
        <time>2021-03-28T01:01:57Z</time>
      </trkpt>
      <trkpt lat="41.182217" lon="-3.799752">
        <ele>1083.98</ele>
        <time>2021-03-28T01:02:03Z</time>
      </trkpt>
      <trkpt lat="41.181739" lon="-3.800121">
        <ele>1081.84</ele>
        <time>2021-03-28T01:02:09Z</time>
      </trkpt>
      <trkpt lat="41.180621" lon="-3.800799">
        <ele>1079.59</ele>
        <time>2021-03-28T01:02:15Z</time>
      </trkpt>
      <trkpt lat="41.180085" lon="-3.80116">
        <ele>1077.43</ele>
        <time>2021-03-28T01:02:21Z</time>
      </trkpt>
      <trkpt lat="41.179459" lon="-3.801628">
        <ele>1083.79</ele>
        <time>2021-03-28T01:02:26Z</time>
      </trkpt>
      <trkpt lat="41.177296" lon="-3.80341">
        <ele>1073.19</ele>
        <time>2021-03-28T01:02:32Z</time>
      </trkpt>
      <trkpt lat="41.176771" lon="-3.803881">
        <ele>1075.88</ele>
        <time>2021-03-28T01:02:38Z</time>
      </trkpt>
      <trkpt lat="41.176287" lon="-3.804374">
        <ele>1073.25</ele>
        <time>2021-03-28T01:02:44Z</time>
      </trkpt>
      <trkpt lat="41.174157" lon="-3.80669">
        <ele>1079.88</ele>
        <time>2021-03-28T01:02:50Z</time>
      </trkpt>
      <trkpt lat="41.173418" lon="-3.807597">
        <ele>1076.65</ele>
        <time>2021-03-28T01:02:56Z</time>
      </trkpt>
      <trkpt lat="41.172636" lon="-3.808473">
        <ele>1078.51</ele>
        <time>2021-03-28T01:03:02Z</time>
      </trkpt>
      <trkpt lat="41.172042" lon="-3.809091">
        <ele>1076.8</ele>
        <time>2021-03-28T01:03:08Z</time>
      </trkpt>
      <trkpt lat="41.171544" lon="-3.809538">
        <ele>1072.85</ele>
        <time>2021-03-28T01:03:13Z</time>
      </trkpt>
      <trkpt lat="41.170659" lon="-3.810404">
        <ele>1071.71</ele>
        <time>2021-03-28T01:03:19Z</time>
      </trkpt>
      <trkpt lat="41.169335" lon="-3.811923">
        <ele>1070.65</ele>
        <time>2021-03-28T01:03:25Z</time>
      </trkpt>
      <trkpt lat="41.16907" lon="-3.812189">
        <ele>1071.23</ele>
        <time>2021-03-28T01:03:31Z</time>
      </trkpt>
      <trkpt lat="41.168844" lon="-3.812378">
        <ele>1072.32</ele>
        <time>2021-03-28T01:03:37Z</time>
      </trkpt>
      <trkpt lat="41.168482" lon="-3.812575">
        <ele>1071.32</ele>
        <time>2021-03-28T01:03:43Z</time>
      </trkpt>
      <trkpt lat="41.167661" lon="-3.812936">
        <ele>1066.27</ele>
        <time>2021-03-28T01:03:49Z</time>
      </trkpt>
      <trkpt lat="41.167371" lon="-3.81303">
        <ele>1068.02</ele>
        <time>2021-03-28T01:03:54Z</time>
      </trkpt>
      <trkpt lat="41.167164" lon="-3.813055">
        <ele>1069.0</ele>
        <time>2021-03-28T01:04:00Z</time>
      </trkpt>
      <trkpt lat="41.166789" lon="-3.813047">
        <ele>1068.44</ele>
        <time>2021-03-28T01:04:06Z</time>
      </trkpt>
      <trkpt lat="41.164567" lon="-3.812703">
        <ele>1065.27</ele>
        <time>2021-03-28T01:04:12Z</time>
      </trkpt>
      <trkpt lat="41.163798" lon="-3.812695">
        <ele>1060.64</ele>
        <time>2021-03-28T01:04:18Z</time>
      </trkpt>
      <trkpt lat="41.161232" lon="-3.812841">
        <ele>1052.65</ele>
        <time>2021-03-28T01:04:24Z</time>
      </trkpt>
      <trkpt lat="41.159295" lon="-3.812908">
        <ele>1051.74</ele>
        <time>2021-03-28T01:04:30Z</time>
      </trkpt>
      <trkpt lat="41.158712" lon="-3.812955">
        <ele>1050.28</ele>
        <time>2021-03-28T01:04:36Z</time>
      </trkpt>
      <trkpt lat="41.157374" lon="-3.813098">
        <ele>1041.17</ele>
        <time>2021-03-28T01:04:41Z</time>
      </trkpt>
      <trkpt lat="41.153549" lon="-3.813596">
        <ele>1015.0</ele>
        <time>2021-03-28T01:04:47Z</time>
      </trkpt>
      <trkpt lat="41.153297" lon="-3.813605">
        <ele>1014.6</ele>
        <time>2021-03-28T01:04:53Z</time>
      </trkpt>
      <trkpt lat="41.152922" lon="-3.813562">
        <ele>1010.47</ele>
        <time>2021-03-28T01:04:59Z</time>
      </trkpt>
      <trkpt lat="41.151978" lon="-3.813356">
        <ele>1002.28</ele>
        <time>2021-03-28T01:05:05Z</time>
      </trkpt>
      <trkpt lat="41.151772" lon="-3.813324">
        <ele>1000.2</ele>
        <time>2021-03-28T01:05:11Z</time>
      </trkpt>
      <trkpt lat="41.151596" lon="-3.813326">
        <ele>998.53</ele>
        <time>2021-03-28T01:05:17Z</time>
      </trkpt>
      <trkpt lat="41.151177" lon="-3.813404">
        <ele>995.17</ele>
        <time>2021-03-28T01:05:22Z</time>
      </trkpt>
      <trkpt lat="41.150944" lon="-3.813485">
        <ele>992.58</ele>
        <time>2021-03-28T01:05:28Z</time>
      </trkpt>
      <trkpt lat="41.150111" lon="-3.813811">
        <ele>991.08</ele>
        <time>2021-03-28T01:05:34Z</time>
      </trkpt>
      <trkpt lat="41.149516" lon="-3.814067">
        <ele>995.65</ele>
        <time>2021-03-28T01:05:40Z</time>
      </trkpt>
      <trkpt lat="41.1493" lon="-3.814194">
        <ele>997.65</ele>
        <time>2021-03-28T01:05:46Z</time>
      </trkpt>
      <trkpt lat="41.14907" lon="-3.814403">
        <ele>999.95</ele>
        <time>2021-03-28T01:05:52Z</time>
      </trkpt>
      <trkpt lat="41.148861" lon="-3.814625">
        <ele>1000.78</ele>
        <time>2021-03-28T01:05:58Z</time>
      </trkpt>
      <trkpt lat="41.148613" lon="-3.815023">
        <ele>1003.15</ele>
        <time>2021-03-28T01:06:04Z</time>
      </trkpt>
      <trkpt lat="41.148118" lon="-3.816043">
        <ele>1010.59</ele>
        <time>2021-03-28T01:06:09Z</time>
      </trkpt>
      <trkpt lat="41.147319" lon="-3.817777">
        <ele>1004.7</ele>
        <time>2021-03-28T01:06:15Z</time>
      </trkpt>
      <trkpt lat="41.146933" lon="-3.818563">
        <ele>1004.12</ele>
        <time>2021-03-28T01:06:21Z</time>
      </trkpt>
      <trkpt lat="41.145567" lon="-3.82145">
        <ele>997.52</ele>
        <time>2021-03-28T01:06:27Z</time>
      </trkpt>
      <trkpt lat="41.145186" lon="-3.822102">
        <ele>992.91</ele>
        <time>2021-03-28T01:06:33Z</time>
      </trkpt>
      <trkpt lat="41.144589" lon="-3.823054">
        <ele>989.0</ele>
        <time>2021-03-28T01:06:39Z</time>
      </trkpt>
      <trkpt lat="41.144188" lon="-3.823745">
        <ele>989.04</ele>
        <time>2021-03-28T01:06:45Z</time>
      </trkpt>
      <trkpt lat="41.14335" lon="-3.825183">
        <ele>986.14</ele>
        <time>2021-03-28T01:06:50Z</time>
      </trkpt>
      <trkpt lat="41.142936" lon="-3.82563">
        <ele>985.68</ele>
        <time>2021-03-28T01:06:56Z</time>
      </trkpt>
      <trkpt lat="41.142444" lon="-3.82609">
        <ele>981.86</ele>
        <time>2021-03-28T01:07:02Z</time>
      </trkpt>
      <trkpt lat="41.142378" lon="-3.826036">
        <ele>981.71</ele>
        <time>2021-03-28T01:07:06Z</time>
      </trkpt>
      <trkpt lat="41.142349" lon="-3.82594">
        <ele>981.74</ele>
        <time>2021-03-28T01:07:09Z</time>
      </trkpt>
      <trkpt lat="41.142325" lon="-3.825441">
        <ele>981.85</ele>
        <time>2021-03-28T01:07:12Z</time>
      </trkpt>
      <trkpt lat="41.142232" lon="-3.824857">
        <ele>980.48</ele>
        <time>2021-03-28T01:07:15Z</time>
      </trkpt>
      <trkpt lat="41.142102" lon="-3.824316">
        <ele>981.03</ele>
        <time>2021-03-28T01:07:18Z</time>
      </trkpt>
      <trkpt lat="41.141954" lon="-3.823922">
        <ele>981.95</ele>
        <time>2021-03-28T01:07:22Z</time>
      </trkpt>
      <trkpt lat="41.141721" lon="-3.823552">
        <ele>982.2</ele>
        <time>2021-03-28T01:07:25Z</time>
      </trkpt>
      <trkpt lat="41.141023" lon="-3.82254">
        <ele>985.49</ele>
        <time>2021-03-28T01:07:28Z</time>
      </trkpt>
      <trkpt lat="41.140216" lon="-3.821045">
        <ele>988.52</ele>
        <time>2021-03-28T01:07:31Z</time>
      </trkpt>
      <trkpt lat="41.139478" lon="-3.820102">
        <ele>987.26</ele>
        <time>2021-03-28T01:07:35Z</time>
      </trkpt>
      <trkpt lat="41.139323" lon="-3.819836">
        <ele>988.74</ele>
        <time>2021-03-28T01:07:38Z</time>
      </trkpt>
      <trkpt lat="41.139229" lon="-3.819569">
        <ele>989.47</ele>
        <time>2021-03-28T01:07:41Z</time>
      </trkpt>
      <trkpt lat="41.138864" lon="-3.818243">
        <ele>987.68</ele>
        <time>2021-03-28T01:07:44Z</time>
      </trkpt>
      <trkpt lat="41.138706" lon="-3.817804">
        <ele>989.18</ele>
        <time>2021-03-28T01:07:47Z</time>
      </trkpt>
      <trkpt lat="41.138488" lon="-3.817342">
        <ele>990.87</ele>
        <time>2021-03-28T01:07:51Z</time>
      </trkpt>
      <trkpt lat="41.138226" lon="-3.816906">
        <ele>993.31</ele>
        <time>2021-03-28T01:07:54Z</time>
      </trkpt>
      <trkpt lat="41.137855" lon="-3.816343">
        <ele>991.21</ele>
        <time>2021-03-28T01:07:57Z</time>
      </trkpt>
      <trkpt lat="41.137391" lon="-3.815704">
        <ele>994.01</ele>
        <time>2021-03-28T01:08:00Z</time>
      </trkpt>
      <trkpt lat="41.137266" lon="-3.815594">
        <ele>994.74</ele>
        <time>2021-03-28T01:08:04Z</time>
      </trkpt>
      <trkpt lat="41.137074" lon="-3.815509">
        <ele>995.65</ele>
        <time>2021-03-28T01:08:07Z</time>
      </trkpt>
      <trkpt lat="41.136564" lon="-3.815489">
        <ele>995.21</ele>
        <time>2021-03-28T01:08:10Z</time>
      </trkpt>
      <trkpt lat="41.136345" lon="-3.815409">
        <ele>995.68</ele>
        <time>2021-03-28T01:08:13Z</time>
      </trkpt>
      <trkpt lat="41.134753" lon="-3.814523">
        <ele>997.53</ele>
        <time>2021-03-28T01:08:16Z</time>
      </trkpt>
      <trkpt lat="41.134605" lon="-3.814416">
        <ele>997.12</ele>
        <time>2021-03-28T01:08:20Z</time>
      </trkpt>
      <trkpt lat="41.134536" lon="-3.814341">
        <ele>997.1</ele>
        <time>2021-03-28T01:08:23Z</time>
      </trkpt>
      <trkpt lat="41.133893" lon="-3.813325">
        <ele>1007.26</ele>
        <time>2021-03-28T01:08:26Z</time>
      </trkpt>
      <trkpt lat="41.133453" lon="-3.812592">
        <ele>1013.99</ele>
        <time>2021-03-28T01:08:29Z</time>
      </trkpt>
      <trkpt lat="41.133317" lon="-3.81232">
        <ele>1014.2</ele>
        <time>2021-03-28T01:08:33Z</time>
      </trkpt>
      <trkpt lat="41.133196" lon="-3.81195">
        <ele>1019.45</ele>
        <time>2021-03-28T01:08:36Z</time>
      </trkpt>
      <trkpt lat="41.133158" lon="-3.811751">
        <ele>1022.83</ele>
        <time>2021-03-28T01:08:39Z</time>
      </trkpt>
      <trkpt lat="41.133099" lon="-3.811268">
        <ele>1026.45</ele>
        <time>2021-03-28T01:08:42Z</time>
      </trkpt>
      <trkpt lat="41.133026" lon="-3.810944">
        <ele>1027.14</ele>
        <time>2021-03-28T01:08:45Z</time>
      </trkpt>
      <trkpt lat="41.132932" lon="-3.810712">
        <ele>1029.94</ele>
        <time>2021-03-28T01:08:49Z</time>
      </trkpt>
      <trkpt lat="41.132765" lon="-3.810383">
        <ele>1032.29</ele>
        <time>2021-03-28T01:08:52Z</time>
      </trkpt>
      <trkpt lat="41.132069" lon="-3.809168">
        <ele>1034.68</ele>
        <time>2021-03-28T01:08:55Z</time>
      </trkpt>
      <trkpt lat="41.131973" lon="-3.809025">
        <ele>1034.88</ele>
        <time>2021-03-28T01:08:58Z</time>
      </trkpt>
      <trkpt lat="41.131519" lon="-3.808507">
        <ele>1038.1</ele>
        <time>2021-03-28T01:09:02Z</time>
      </trkpt>
      <trkpt lat="41.131242" lon="-3.808069">
        <ele>1037.3</ele>
        <time>2021-03-28T01:09:05Z</time>
      </trkpt>
      <trkpt lat="41.131153" lon="-3.807964">
        <ele>1037.69</ele>
        <time>2021-03-28T01:09:08Z</time>
      </trkpt>
      <trkpt lat="41.131073" lon="-3.807926">
        <ele>1038.88</ele>
        <time>2021-03-28T01:09:11Z</time>
      </trkpt>
      <trkpt lat="41.131009" lon="-3.807931">
        <ele>1040.26</ele>
        <time>2021-03-28T01:09:14Z</time>
      </trkpt>
      <trkpt lat="41.130953" lon="-3.807987">
        <ele>1041.63</ele>
        <time>2021-03-28T01:09:18Z</time>
      </trkpt>
      <trkpt lat="41.130788" lon="-3.808363">
        <ele>1043.02</ele>
        <time>2021-03-28T01:09:21Z</time>
      </trkpt>
      <trkpt lat="41.130714" lon="-3.808431">
        <ele>1042.59</ele>
        <time>2021-03-28T01:09:24Z</time>
      </trkpt>
      <trkpt lat="41.129469" lon="-3.808555">
        <ele>1030.7</ele>
        <time>2021-03-28T01:09:27Z</time>
      </trkpt>
      <trkpt lat="41.129288" lon="-3.808521">
        <ele>1029.55</ele>
        <time>2021-03-28T01:09:31Z</time>
      </trkpt>
      <trkpt lat="41.128868" lon="-3.808332">
        <ele>1027.65</ele>
        <time>2021-03-28T01:09:34Z</time>
      </trkpt>
      <trkpt lat="41.128273" lon="-3.808023">
        <ele>1020.36</ele>
        <time>2021-03-28T01:09:37Z</time>
      </trkpt>
      <trkpt lat="41.127989" lon="-3.807851">
        <ele>1017.24</ele>
        <time>2021-03-28T01:09:40Z</time>
      </trkpt>
      <trkpt lat="41.12753" lon="-3.807422">
        <ele>1016.55</ele>
        <time>2021-03-28T01:09:43Z</time>
      </trkpt>
      <trkpt lat="41.12729" lon="-3.807156">
        <ele>1016.24</ele>
        <time>2021-03-28T01:09:47Z</time>
      </trkpt>
      <trkpt lat="41.126909" lon="-3.806615">
        <ele>1015.52</ele>
        <time>2021-03-28T01:09:50Z</time>
      </trkpt>
      <trkpt lat="41.126825" lon="-3.806564">
        <ele>1014.06</ele>
        <time>2021-03-28T01:09:53Z</time>
      </trkpt>
      <trkpt lat="41.126715" lon="-3.806555">
        <ele>1011.94</ele>
        <time>2021-03-28T01:09:56Z</time>
      </trkpt>
      <trkpt lat="41.126443" lon="-3.806598">
        <ele>1011.0</ele>
        <time>2021-03-28T01:10:00Z</time>
      </trkpt>
      <trkpt lat="41.126347" lon="-3.806632">
        <ele>1011.89</ele>
        <time>2021-03-28T01:10:03Z</time>
      </trkpt>
      <trkpt lat="41.126269" lon="-3.806753">
        <ele>1014.34</ele>
        <time>2021-03-28T01:10:06Z</time>
      </trkpt>
      <trkpt lat="41.12625" lon="-3.806916">
        <ele>1016.25</ele>
        <time>2021-03-28T01:10:09Z</time>
      </trkpt>
      <trkpt lat="41.126301" lon="-3.807276">
        <ele>1015.97</ele>
        <time>2021-03-28T01:10:12Z</time>
      </trkpt>
      <trkpt lat="41.126482" lon="-3.810006">
        <ele>1021.59</ele>
        <time>2021-03-28T01:10:16Z</time>
      </trkpt>
      <trkpt lat="41.126456" lon="-3.810177">
        <ele>1020.11</ele>
        <time>2021-03-28T01:10:19Z</time>
      </trkpt>
      <trkpt lat="41.126392" lon="-3.810295">
        <ele>1019.65</ele>
        <time>2021-03-28T01:10:22Z</time>
      </trkpt>
      <trkpt lat="41.126253" lon="-3.810458">
        <ele>1020.01</ele>
        <time>2021-03-28T01:10:25Z</time>
      </trkpt>
      <trkpt lat="41.125792" lon="-3.810871">
        <ele>1025.02</ele>
        <time>2021-03-28T01:10:29Z</time>
      </trkpt>
      <trkpt lat="41.125474" lon="-3.811044">
        <ele>1025.44</ele>
        <time>2021-03-28T01:10:32Z</time>
      </trkpt>
      <trkpt lat="41.125228" lon="-3.811139">
        <ele>1024.26</ele>
        <time>2021-03-28T01:10:35Z</time>
      </trkpt>
      <trkpt lat="41.125047" lon="-3.811181">
        <ele>1023.07</ele>
        <time>2021-03-28T01:10:38Z</time>
      </trkpt>
      <trkpt lat="41.124504" lon="-3.811018">
        <ele>1022.02</ele>
        <time>2021-03-28T01:10:41Z</time>
      </trkpt>
      <trkpt lat="41.124375" lon="-3.81101">
        <ele>1022.23</ele>
        <time>2021-03-28T01:10:45Z</time>
      </trkpt>
      <trkpt lat="41.124213" lon="-3.811044">
        <ele>1022.67</ele>
        <time>2021-03-28T01:10:48Z</time>
      </trkpt>
      <trkpt lat="41.123728" lon="-3.811259">
        <ele>1022.97</ele>
        <time>2021-03-28T01:10:51Z</time>
      </trkpt>
      <trkpt lat="41.122797" lon="-3.811551">
        <ele>1025.45</ele>
        <time>2021-03-28T01:10:54Z</time>
      </trkpt>
      <trkpt lat="41.122616" lon="-3.811628">
        <ele>1025.0</ele>
        <time>2021-03-28T01:10:58Z</time>
      </trkpt>
      <trkpt lat="41.122273" lon="-3.811911">
        <ele>1025.43</ele>
        <time>2021-03-28T01:11:01Z</time>
      </trkpt>
      <trkpt lat="41.12217" lon="-3.811962">
        <ele>1028.02</ele>
        <time>2021-03-28T01:11:04Z</time>
      </trkpt>
      <trkpt lat="41.122066" lon="-3.811971">
        <ele>1031.53</ele>
        <time>2021-03-28T01:11:07Z</time>
      </trkpt>
      <trkpt lat="41.121969" lon="-3.811928">
        <ele>1033.98</ele>
        <time>2021-03-28T01:11:10Z</time>
      </trkpt>
      <trkpt lat="41.121872" lon="-3.811799">
        <ele>1035.1</ele>
        <time>2021-03-28T01:11:14Z</time>
      </trkpt>
      <trkpt lat="41.121795" lon="-3.811653">
        <ele>1034.65</ele>
        <time>2021-03-28T01:11:17Z</time>
      </trkpt>
      <trkpt lat="41.121627" lon="-3.811199">
        <ele>1033.14</ele>
        <time>2021-03-28T01:11:20Z</time>
      </trkpt>
      <trkpt lat="41.121556" lon="-3.811044">
        <ele>1033.95</ele>
        <time>2021-03-28T01:11:23Z</time>
      </trkpt>
      <trkpt lat="41.121491" lon="-3.810941">
        <ele>1034.73</ele>
        <time>2021-03-28T01:11:27Z</time>
      </trkpt>
      <trkpt lat="41.121368" lon="-3.810855">
        <ele>1035.78</ele>
        <time>2021-03-28T01:11:30Z</time>
      </trkpt>
      <trkpt lat="41.121239" lon="-3.810804">
        <ele>1038.11</ele>
        <time>2021-03-28T01:11:33Z</time>
      </trkpt>
      <trkpt lat="41.119971" lon="-3.810134">
        <ele>1048.24</ele>
        <time>2021-03-28T01:11:36Z</time>
      </trkpt>
      <trkpt lat="41.119842" lon="-3.8101">
        <ele>1049.3</ele>
        <time>2021-03-28T01:11:39Z</time>
      </trkpt>
      <trkpt lat="41.119739" lon="-3.8101">
        <ele>1050.53</ele>
        <time>2021-03-28T01:11:43Z</time>
      </trkpt>
      <trkpt lat="41.119131" lon="-3.81016">
        <ele>1057.06</ele>
        <time>2021-03-28T01:11:46Z</time>
      </trkpt>
      <trkpt lat="41.118724" lon="-3.810152">
        <ele>1061.24</ele>
        <time>2021-03-28T01:11:49Z</time>
      </trkpt>
      <trkpt lat="41.118614" lon="-3.810091">
        <ele>1061.95</ele>
        <time>2021-03-28T01:11:52Z</time>
      </trkpt>
      <trkpt lat="41.118517" lon="-3.80998">
        <ele>1062.48</ele>
        <time>2021-03-28T01:11:56Z</time>
      </trkpt>
      <trkpt lat="41.118413" lon="-3.809782">
        <ele>1062.21</ele>
        <time>2021-03-28T01:11:59Z</time>
      </trkpt>
      <trkpt lat="41.118258" lon="-3.809585">
        <ele>1064.27</ele>
        <time>2021-03-28T01:12:02Z</time>
      </trkpt>
      <trkpt lat="41.118096" lon="-3.809431">
        <ele>1066.18</ele>
        <time>2021-03-28T01:12:05Z</time>
      </trkpt>
      <trkpt lat="41.117611" lon="-3.809182">
        <ele>1068.14</ele>
        <time>2021-03-28T01:12:08Z</time>
      </trkpt>
      <trkpt lat="41.117463" lon="-3.809147">
        <ele>1069.27</ele>
        <time>2021-03-28T01:12:12Z</time>
      </trkpt>
      <trkpt lat="41.117333" lon="-3.809164">
        <ele>1070.79</ele>
        <time>2021-03-28T01:12:15Z</time>
      </trkpt>
      <trkpt lat="41.117062" lon="-3.809259">
        <ele>1076.41</ele>
        <time>2021-03-28T01:12:18Z</time>
      </trkpt>
      <trkpt lat="41.116958" lon="-3.80925">
        <ele>1078.33</ele>
        <time>2021-03-28T01:12:21Z</time>
      </trkpt>
      <trkpt lat="41.116868" lon="-3.809173">
        <ele>1078.87</ele>
        <time>2021-03-28T01:12:25Z</time>
      </trkpt>
      <trkpt lat="41.116816" lon="-3.809079">
        <ele>1079.21</ele>
        <time>2021-03-28T01:12:28Z</time>
      </trkpt>
      <trkpt lat="41.116797" lon="-3.80895">
        <ele>1079.23</ele>
        <time>2021-03-28T01:12:31Z</time>
      </trkpt>
      <trkpt lat="41.116784" lon="-3.80865">
        <ele>1078.95</ele>
        <time>2021-03-28T01:12:34Z</time>
      </trkpt>
      <trkpt lat="41.116738" lon="-3.808486">
        <ele>1079.26</ele>
        <time>2021-03-28T01:12:37Z</time>
      </trkpt>
      <trkpt lat="41.116693" lon="-3.808409">
        <ele>1079.79</ele>
        <time>2021-03-28T01:12:41Z</time>
      </trkpt>
      <trkpt lat="41.116596" lon="-3.808366">
        <ele>1080.63</ele>
        <time>2021-03-28T01:12:44Z</time>
      </trkpt>
      <trkpt lat="41.113764" lon="-3.80883">
        <ele>1099.55</ele>
        <time>2021-03-28T01:12:47Z</time>
      </trkpt>
      <trkpt lat="41.112593" lon="-3.808984">
        <ele>1104.97</ele>
        <time>2021-03-28T01:12:50Z</time>
      </trkpt>
      <trkpt lat="41.112108" lon="-3.80907">
        <ele>1107.41</ele>
        <time>2021-03-28T01:12:54Z</time>
      </trkpt>
      <trkpt lat="41.11185" lon="-3.809164">
        <ele>1108.68</ele>
        <time>2021-03-28T01:12:57Z</time>
      </trkpt>
      <trkpt lat="41.11172" lon="-3.80925">
        <ele>1109.67</ele>
        <time>2021-03-28T01:13:00Z</time>
      </trkpt>
      <trkpt lat="41.111636" lon="-3.809345">
        <ele>1110.26</ele>
        <time>2021-03-28T01:13:03Z</time>
      </trkpt>
      <trkpt lat="41.111565" lon="-3.809542">
        <ele>1110.51</ele>
        <time>2021-03-28T01:13:06Z</time>
      </trkpt>
      <trkpt lat="41.111177" lon="-3.81131">
        <ele>1121.79</ele>
        <time>2021-03-28T01:13:10Z</time>
      </trkpt>
      <trkpt lat="41.111096" lon="-3.811614">
        <ele>1123.1</ele>
        <time>2021-03-28T01:13:13Z</time>
      </trkpt>
      <trkpt lat="41.110993" lon="-3.811908">
        <ele>1123.84</ele>
        <time>2021-03-28T01:13:16Z</time>
      </trkpt>
      <trkpt lat="41.110841" lon="-3.812229">
        <ele>1123.99</ele>
        <time>2021-03-28T01:13:19Z</time>
      </trkpt>
      <trkpt lat="41.110052" lon="-3.813422">
        <ele>1133.68</ele>
        <time>2021-03-28T01:13:23Z</time>
      </trkpt>
      <trkpt lat="41.109877" lon="-3.81361">
        <ele>1134.0</ele>
        <time>2021-03-28T01:13:26Z</time>
      </trkpt>
      <trkpt lat="41.109683" lon="-3.813722">
        <ele>1134.28</ele>
        <time>2021-03-28T01:13:29Z</time>
      </trkpt>
      <trkpt lat="41.109451" lon="-3.813808">
        <ele>1135.95</ele>
        <time>2021-03-28T01:13:32Z</time>
      </trkpt>
      <trkpt lat="41.109108" lon="-3.813808">
        <ele>1138.12</ele>
        <time>2021-03-28T01:13:35Z</time>
      </trkpt>
      <trkpt lat="41.107103" lon="-3.813688">
        <ele>1145.15</ele>
        <time>2021-03-28T01:13:39Z</time>
      </trkpt>
      <trkpt lat="41.101851" lon="-3.813224">
        <ele>1150.41</ele>
        <time>2021-03-28T01:13:42Z</time>
      </trkpt>
      <trkpt lat="41.101185" lon="-3.813147">
        <ele>1156.2</ele>
        <time>2021-03-28T01:13:45Z</time>
      </trkpt>
      <trkpt lat="41.100991" lon="-3.813156">
        <ele>1157.86</ele>
        <time>2021-03-28T01:13:48Z</time>
      </trkpt>
      <trkpt lat="41.100797" lon="-3.813224">
        <ele>1159.13</ele>
        <time>2021-03-28T01:13:52Z</time>
      </trkpt>
      <trkpt lat="41.10059" lon="-3.813387">
        <ele>1159.68</ele>
        <time>2021-03-28T01:13:55Z</time>
      </trkpt>
      <trkpt lat="41.098013" lon="-3.816003">
        <ele>1159.93</ele>
        <time>2021-03-28T01:13:58Z</time>
      </trkpt>
      <trkpt lat="41.097828" lon="-3.816246">
        <ele>1160.21</ele>
        <time>2021-03-28T01:14:01Z</time>
      </trkpt>
      <trkpt lat="41.097207" lon="-3.817147">
        <ele>1161.16</ele>
        <time>2021-03-28T01:14:04Z</time>
      </trkpt>
      <trkpt lat="41.096101" lon="-3.818786">
        <ele>1166.59</ele>
        <time>2021-03-28T01:14:08Z</time>
      </trkpt>
      <trkpt lat="41.095649" lon="-3.819421">
        <ele>1166.55</ele>
        <time>2021-03-28T01:14:11Z</time>
      </trkpt>
      <trkpt lat="41.09539" lon="-3.819756">
        <ele>1168.31</ele>
        <time>2021-03-28T01:14:14Z</time>
      </trkpt>
      <trkpt lat="41.095112" lon="-3.819979">
        <ele>1168.22</ele>
        <time>2021-03-28T01:14:17Z</time>
      </trkpt>
      <trkpt lat="41.094782" lon="-3.820202">
        <ele>1164.7</ele>
        <time>2021-03-28T01:14:21Z</time>
      </trkpt>
      <trkpt lat="41.09442" lon="-3.820383">
        <ele>1164.34</ele>
        <time>2021-03-28T01:14:24Z</time>
      </trkpt>
      <trkpt lat="41.094141" lon="-3.820477">
        <ele>1164.06</ele>
        <time>2021-03-28T01:14:27Z</time>
      </trkpt>
      <trkpt lat="41.093883" lon="-3.820494">
        <ele>1164.77</ele>
        <time>2021-03-28T01:14:30Z</time>
      </trkpt>
      <trkpt lat="41.093611" lon="-3.820468">
        <ele>1164.31</ele>
        <time>2021-03-28T01:14:33Z</time>
      </trkpt>
      <trkpt lat="41.089904" lon="-3.819679">
        <ele>1158.81</ele>
        <time>2021-03-28T01:14:37Z</time>
      </trkpt>
      <trkpt lat="41.089542" lon="-3.819593">
        <ele>1157.52</ele>
        <time>2021-03-28T01:14:40Z</time>
      </trkpt>
      <trkpt lat="41.089232" lon="-3.819481">
        <ele>1156.13</ele>
        <time>2021-03-28T01:14:43Z</time>
      </trkpt>
      <trkpt lat="41.088857" lon="-3.819249">
        <ele>1152.85</ele>
        <time>2021-03-28T01:14:46Z</time>
      </trkpt>
      <trkpt lat="41.086495" lon="-3.817421">
        <ele>1155.79</ele>
        <time>2021-03-28T01:14:50Z</time>
      </trkpt>
      <trkpt lat="41.086107" lon="-3.817052">
        <ele>1157.38</ele>
        <time>2021-03-28T01:14:53Z</time>
      </trkpt>
      <trkpt lat="41.084639" lon="-3.815533">
        <ele>1149.56</ele>
        <time>2021-03-28T01:14:56Z</time>
      </trkpt>
      <trkpt lat="41.083946" lon="-3.814683">
        <ele>1148.41</ele>
        <time>2021-03-28T01:14:59Z</time>
      </trkpt>
      <trkpt lat="41.083131" lon="-3.813645">
        <ele>1148.15</ele>
        <time>2021-03-28T01:15:02Z</time>
      </trkpt>
      <trkpt lat="41.082885" lon="-3.813276">
        <ele>1145.76</ele>
        <time>2021-03-28T01:15:06Z</time>
      </trkpt>
      <trkpt lat="41.082068" lon="-3.811625">
        <ele>1145.41</ele>
        <time>2021-03-28T01:15:09Z</time>
      </trkpt>
      <trkpt lat="41.081637" lon="-3.810658">
        <ele>1150.53</ele>
        <time>2021-03-28T01:15:12Z</time>
      </trkpt>
      <trkpt lat="41.081279" lon="-3.809912">
        <ele>1150.73</ele>
        <time>2021-03-28T01:15:15Z</time>
      </trkpt>
      <trkpt lat="41.080323" lon="-3.808014">
        <ele>1149.8</ele>
        <time>2021-03-28T01:15:19Z</time>
      </trkpt>
      <trkpt lat="41.079987" lon="-3.807388">
        <ele>1154.15</ele>
        <time>2021-03-28T01:15:22Z</time>
      </trkpt>
      <trkpt lat="41.079793" lon="-3.807113">
        <ele>1154.22</ele>
        <time>2021-03-28T01:15:25Z</time>
      </trkpt>
      <trkpt lat="41.077755" lon="-3.805199">
        <ele>1156.26</ele>
        <time>2021-03-28T01:15:28Z</time>
      </trkpt>
      <trkpt lat="41.077561" lon="-3.805062">
        <ele>1156.17</ele>
        <time>2021-03-28T01:15:31Z</time>
      </trkpt>
      <trkpt lat="41.077393" lon="-3.805036">
        <ele>1156.05</ele>
        <time>2021-03-28T01:15:37Z</time>
      </trkpt>
      <trkpt lat="41.077231" lon="-3.805105">
        <ele>1156.36</ele>
        <time>2021-03-28T01:15:43Z</time>
      </trkpt>
      <trkpt lat="41.077015" lon="-3.805275">
        <ele>1156.99</ele>
        <time>2021-03-28T01:15:49Z</time>
      </trkpt>
      <trkpt lat="41.076605" lon="-3.805655">
        <ele>1158.35</ele>
        <time>2021-03-28T01:15:55Z</time>
      </trkpt>
      <trkpt lat="41.076292" lon="-3.80589">
        <ele>1159.2</ele>
        <time>2021-03-28T01:16:01Z</time>
      </trkpt>
      <trkpt lat="41.075714" lon="-3.806265">
        <ele>1162.3</ele>
        <time>2021-03-28T01:16:06Z</time>
      </trkpt>
      <trkpt lat="41.074638" lon="-3.807027">
        <ele>1165.6</ele>
        <time>2021-03-28T01:16:12Z</time>
      </trkpt>
      <trkpt lat="41.074209" lon="-3.807463">
        <ele>1166.29</ele>
        <time>2021-03-28T01:16:18Z</time>
      </trkpt>
      <trkpt lat="41.073694" lon="-3.808178">
        <ele>1167.13</ele>
        <time>2021-03-28T01:16:24Z</time>
      </trkpt>
      <trkpt lat="41.070225" lon="-3.81303">
        <ele>1181.21</ele>
        <time>2021-03-28T01:16:30Z</time>
      </trkpt>
      <trkpt lat="41.06973" lon="-3.813791">
        <ele>1186.59</ele>
        <time>2021-03-28T01:16:36Z</time>
      </trkpt>
      <trkpt lat="41.069307" lon="-3.814398">
        <ele>1188.49</ele>
        <time>2021-03-28T01:16:41Z</time>
      </trkpt>
      <trkpt lat="41.069213" lon="-3.814461">
        <ele>1188.89</ele>
        <time>2021-03-28T01:16:42Z</time>
      </trkpt>
      <trkpt lat="41.069042" lon="-3.814706">
        <ele>1189.96</ele>
        <time>2021-03-28T01:16:43Z</time>
      </trkpt>
      <trkpt lat="41.068968" lon="-3.814753">
        <ele>1190.11</ele>
        <time>2021-03-28T01:16:44Z</time>
      </trkpt>
      <trkpt lat="41.068876" lon="-3.814737">
        <ele>1190.05</ele>
        <time>2021-03-28T01:16:46Z</time>
      </trkpt>
      <trkpt lat="41.068825" lon="-3.814651">
        <ele>1190.0</ele>
        <time>2021-03-28T01:16:49Z</time>
      </trkpt>
      <trkpt lat="41.06874" lon="-3.814394">
        <ele>1190.0</ele>
        <time>2021-03-28T01:16:51Z</time>
      </trkpt>
      <trkpt lat="41.06873" lon="-3.814299">
        <ele>1190.0</ele>
        <time>2021-03-28T01:16:53Z</time>
      </trkpt>
      <trkpt lat="41.068288" lon="-3.813033">
        <ele>1193.16</ele>
        <time>2021-03-28T01:16:56Z</time>
      </trkpt>
      <trkpt lat="41.068184" lon="-3.812788">
        <ele>1194.93</ele>
        <time>2021-03-28T01:16:58Z</time>
      </trkpt>
      <trkpt lat="41.068132" lon="-3.812725">
        <ele>1195.19</ele>
        <time>2021-03-28T01:17:00Z</time>
      </trkpt>
      <trkpt lat="41.066718" lon="-3.811647">
        <ele>1200.87</ele>
        <time>2021-03-28T01:17:03Z</time>
      </trkpt>
      <trkpt lat="41.066577" lon="-3.811594">
        <ele>1201.58</ele>
        <time>2021-03-28T01:17:05Z</time>
      </trkpt>
      <trkpt lat="41.066266" lon="-3.811586">
        <ele>1202.6</ele>
        <time>2021-03-28T01:17:08Z</time>
      </trkpt>
      <trkpt lat="41.06146" lon="-3.81155">
        <ele>1210.17</ele>
        <time>2021-03-28T01:17:10Z</time>
      </trkpt>
      <trkpt lat="41.061249" lon="-3.811602">
        <ele>1211.0</ele>
        <time>2021-03-28T01:17:12Z</time>
      </trkpt>
      <trkpt lat="41.061112" lon="-3.811703">
        <ele>1210.87</ele>
        <time>2021-03-28T01:17:15Z</time>
      </trkpt>
      <trkpt lat="41.056642" lon="-3.817233">
        <ele>1221.44</ele>
        <time>2021-03-28T01:17:17Z</time>
      </trkpt>
      <trkpt lat="41.056373" lon="-3.817494">
        <ele>1224.27</ele>
        <time>2021-03-28T01:17:19Z</time>
      </trkpt>
      <trkpt lat="41.055646" lon="-3.817986">
        <ele>1230.27</ele>
        <time>2021-03-28T01:17:22Z</time>
      </trkpt>
      <trkpt lat="41.052293" lon="-3.820132">
        <ele>1248.28</ele>
        <time>2021-03-28T01:17:24Z</time>
      </trkpt>
      <trkpt lat="41.051651" lon="-3.82054">
        <ele>1249.44</ele>
        <time>2021-03-28T01:17:26Z</time>
      </trkpt>
      <trkpt lat="41.051438" lon="-3.820554">
        <ele>1251.49</ele>
        <time>2021-03-28T01:17:29Z</time>
      </trkpt>
      <trkpt lat="41.051283" lon="-3.820451">
        <ele>1252.99</ele>
        <time>2021-03-28T01:17:31Z</time>
      </trkpt>
      <trkpt lat="41.049222" lon="-3.817888">
        <ele>1265.2</ele>
        <time>2021-03-28T01:17:34Z</time>
      </trkpt>
      <trkpt lat="41.04898" lon="-3.81757">
        <ele>1268.84</ele>
        <time>2021-03-28T01:17:36Z</time>
      </trkpt>
      <trkpt lat="41.048699" lon="-3.817145">
        <ele>1271.68</ele>
        <time>2021-03-28T01:17:38Z</time>
      </trkpt>
      <trkpt lat="41.048493" lon="-3.816793">
        <ele>1273.01</ele>
        <time>2021-03-28T01:17:41Z</time>
      </trkpt>
      <trkpt lat="41.047999" lon="-3.815725">
        <ele>1277.39</ele>
        <time>2021-03-28T01:17:43Z</time>
      </trkpt>
      <trkpt lat="41.046568" lon="-3.812477">
        <ele>1295.16</ele>
        <time>2021-03-28T01:17:45Z</time>
      </trkpt>
      <trkpt lat="41.046486" lon="-3.812332">
        <ele>1296.21</ele>
        <time>2021-03-28T01:17:48Z</time>
      </trkpt>
      <trkpt lat="41.046349" lon="-3.812161">
        <ele>1297.3</ele>
        <time>2021-03-28T01:17:50Z</time>
      </trkpt>
      <trkpt lat="41.045507" lon="-3.811607">
        <ele>1297.39</ele>
        <time>2021-03-28T01:17:52Z</time>
      </trkpt>
      <trkpt lat="41.042384" lon="-3.809615">
        <ele>1318.81</ele>
        <time>2021-03-28T01:17:55Z</time>
      </trkpt>
      <trkpt lat="41.042137" lon="-3.809496">
        <ele>1321.04</ele>
        <time>2021-03-28T01:17:57Z</time>
      </trkpt>
      <trkpt lat="41.041845" lon="-3.80944">
        <ele>1322.67</ele>
        <time>2021-03-28T01:18:00Z</time>
      </trkpt>
      <trkpt lat="41.04151" lon="-3.809523">
        <ele>1325.69</ele>
        <time>2021-03-28T01:18:02Z</time>
      </trkpt>
      <trkpt lat="41.040305" lon="-3.809911">
        <ele>1333.65</ele>
        <time>2021-03-28T01:18:04Z</time>
      </trkpt>
      <trkpt lat="41.039973" lon="-3.809995">
        <ele>1339.22</ele>
        <time>2021-03-28T01:18:07Z</time>
      </trkpt>
      <trkpt lat="41.03981" lon="-3.809944">
        <ele>1340.38</ele>
        <time>2021-03-28T01:18:09Z</time>
      </trkpt>
      <trkpt lat="41.039456" lon="-3.809641">
        <ele>1341.96</ele>
        <time>2021-03-28T01:18:11Z</time>
      </trkpt>
      <trkpt lat="41.03929" lon="-3.809555">
        <ele>1343.75</ele>
        <time>2021-03-28T01:18:14Z</time>
      </trkpt>
      <trkpt lat="41.038067" lon="-3.809348">
        <ele>1350.58</ele>
        <time>2021-03-28T01:18:16Z</time>
      </trkpt>
      <trkpt lat="41.036747" lon="-3.809087">
        <ele>1361.64</ele>
        <time>2021-03-28T01:18:18Z</time>
      </trkpt>
      <trkpt lat="41.036522" lon="-3.809083">
        <ele>1362.55</ele>
        <time>2021-03-28T01:18:21Z</time>
      </trkpt>
      <trkpt lat="41.036364" lon="-3.809114">
        <ele>1363.03</ele>
        <time>2021-03-28T01:18:23Z</time>
      </trkpt>
      <trkpt lat="41.035282" lon="-3.809443">
        <ele>1368.01</ele>
        <time>2021-03-28T01:18:26Z</time>
      </trkpt>
      <trkpt lat="41.0351" lon="-3.809458">
        <ele>1369.43</ele>
        <time>2021-03-28T01:18:28Z</time>
      </trkpt>
      <trkpt lat="41.034986" lon="-3.809396">
        <ele>1369.48</ele>
        <time>2021-03-28T01:18:30Z</time>
      </trkpt>
      <trkpt lat="41.034653" lon="-3.808983">
        <ele>1367.94</ele>
        <time>2021-03-28T01:18:33Z</time>
      </trkpt>
      <trkpt lat="41.034536" lon="-3.80892">
        <ele>1367.83</ele>
        <time>2021-03-28T01:18:35Z</time>
      </trkpt>
      <trkpt lat="41.034416" lon="-3.808912">
        <ele>1368.67</ele>
        <time>2021-03-28T01:18:37Z</time>
      </trkpt>
      <trkpt lat="41.034271" lon="-3.808964">
        <ele>1370.5</ele>
        <time>2021-03-28T01:18:40Z</time>
      </trkpt>
      <trkpt lat="41.032834" lon="-3.809703">
        <ele>1388.89</ele>
        <time>2021-03-28T01:18:42Z</time>
      </trkpt>
      <trkpt lat="41.030945" lon="-3.810301">
        <ele>1409.93</ele>
        <time>2021-03-28T01:18:45Z</time>
      </trkpt>
      <trkpt lat="41.030702" lon="-3.810299">
        <ele>1415.55</ele>
        <time>2021-03-28T01:18:47Z</time>
      </trkpt>
      <trkpt lat="41.030051" lon="-3.810104">
        <ele>1424.4</ele>
        <time>2021-03-28T01:18:49Z</time>
      </trkpt>
      <trkpt lat="41.029956" lon="-3.810047">
        <ele>1424.63</ele>
        <time>2021-03-28T01:18:52Z</time>
      </trkpt>
      <trkpt lat="41.029784" lon="-3.809838">
        <ele>1423.78</ele>
        <time>2021-03-28T01:18:54Z</time>
      </trkpt>
      <trkpt lat="41.029708" lon="-3.809708">
        <ele>1423.16</ele>
        <time>2021-03-28T01:18:56Z</time>
      </trkpt>
      <trkpt lat="41.029594" lon="-3.809569">
        <ele>1423.95</ele>
        <time>2021-03-28T01:18:59Z</time>
      </trkpt>
      <trkpt lat="41.029472" lon="-3.809469">
        <ele>1424.85</ele>
        <time>2021-03-28T01:19:01Z</time>
      </trkpt>
      <trkpt lat="41.029142" lon="-3.809382">
        <ele>1423.3</ele>
        <time>2021-03-28T01:19:03Z</time>
      </trkpt>
      <trkpt lat="41.028906" lon="-3.809386">
        <ele>1423.17</ele>
        <time>2021-03-28T01:19:06Z</time>
      </trkpt>
      <trkpt lat="41.028668" lon="-3.809479">
        <ele>1424.54</ele>
        <time>2021-03-28T01:19:08Z</time>
      </trkpt>
      <trkpt lat="41.028566" lon="-3.8096">
        <ele>1426.22</ele>
        <time>2021-03-28T01:19:11Z</time>
      </trkpt>
      <trkpt lat="41.028338" lon="-3.809971">
        <ele>1428.85</ele>
        <time>2021-03-28T01:19:13Z</time>
      </trkpt>
      <trkpt lat="41.028281" lon="-3.810006">
        <ele>1430.64</ele>
        <time>2021-03-28T01:19:15Z</time>
      </trkpt>
      <trkpt lat="41.028216" lon="-3.809979">
        <ele>1432.2</ele>
        <time>2021-03-28T01:19:18Z</time>
      </trkpt>
      <trkpt lat="41.02817" lon="-3.809922">
        <ele>1432.97</ele>
        <time>2021-03-28T01:19:20Z</time>
      </trkpt>
      <trkpt lat="41.02806" lon="-3.80969">
        <ele>1433.55</ele>
        <time>2021-03-28T01:19:22Z</time>
      </trkpt>
      <trkpt lat="41.027938" lon="-3.809398">
        <ele>1437.14</ele>
        <time>2021-03-28T01:19:25Z</time>
      </trkpt>
      <trkpt lat="41.02778" lon="-3.808942">
        <ele>1437.66</ele>
        <time>2021-03-28T01:19:27Z</time>
      </trkpt>
      <trkpt lat="41.027665" lon="-3.808711">
        <ele>1437.23</ele>
        <time>2021-03-28T01:19:29Z</time>
      </trkpt>
      <trkpt lat="41.027577" lon="-3.808578">
        <ele>1436.78</ele>
        <time>2021-03-28T01:19:32Z</time>
      </trkpt>
      <trkpt lat="41.027491" lon="-3.808485">
        <ele>1436.76</ele>
        <time>2021-03-28T01:19:34Z</time>
      </trkpt>
      <trkpt lat="41.027318" lon="-3.808363">
        <ele>1437.94</ele>
        <time>2021-03-28T01:19:37Z</time>
      </trkpt>
      <trkpt lat="41.027182" lon="-3.808298">
        <ele>1438.5</ele>
        <time>2021-03-28T01:19:39Z</time>
      </trkpt>
      <trkpt lat="41.026858" lon="-3.808212">
        <ele>1437.7</ele>
        <time>2021-03-28T01:19:41Z</time>
      </trkpt>
      <trkpt lat="41.026427" lon="-3.808183">
        <ele>1439.4</ele>
        <time>2021-03-28T01:19:44Z</time>
      </trkpt>
      <trkpt lat="41.025792" lon="-3.808217">
        <ele>1446.39</ele>
        <time>2021-03-28T01:19:46Z</time>
      </trkpt>
      <trkpt lat="41.025239" lon="-3.808112">
        <ele>1445.92</ele>
        <time>2021-03-28T01:19:48Z</time>
      </trkpt>
      <trkpt lat="41.024998" lon="-3.808127">
        <ele>1448.02</ele>
        <time>2021-03-28T01:19:51Z</time>
      </trkpt>
      <trkpt lat="41.024877" lon="-3.808173">
        <ele>1448.18</ele>
        <time>2021-03-28T01:19:53Z</time>
      </trkpt>
      <trkpt lat="41.024048" lon="-3.808918">
        <ele>1458.61</ele>
        <time>2021-03-28T01:19:55Z</time>
      </trkpt>
      <trkpt lat="41.023865" lon="-3.809021">
        <ele>1462.97</ele>
        <time>2021-03-28T01:19:58Z</time>
      </trkpt>
      <trkpt lat="41.023786" lon="-3.80901">
        <ele>1463.38</ele>
        <time>2021-03-28T01:20:00Z</time>
      </trkpt>
      <trkpt lat="41.023691" lon="-3.808952">
        <ele>1462.25</ele>
        <time>2021-03-28T01:20:03Z</time>
      </trkpt>
      <trkpt lat="41.023483" lon="-3.808762">
        <ele>1455.92</ele>
        <time>2021-03-28T01:20:05Z</time>
      </trkpt>
      <trkpt lat="41.02337" lon="-3.808692">
        <ele>1454.26</ele>
        <time>2021-03-28T01:20:07Z</time>
      </trkpt>
      <trkpt lat="41.023201" lon="-3.808623">
        <ele>1453.79</ele>
        <time>2021-03-28T01:20:10Z</time>
      </trkpt>
      <trkpt lat="41.022979" lon="-3.808609">
        <ele>1455.77</ele>
        <time>2021-03-28T01:20:12Z</time>
      </trkpt>
      <trkpt lat="41.022721" lon="-3.808658">
        <ele>1460.12</ele>
        <time>2021-03-28T01:20:14Z</time>
      </trkpt>
      <trkpt lat="41.022388" lon="-3.808778">
        <ele>1466.5</ele>
        <time>2021-03-28T01:20:17Z</time>
      </trkpt>
      <trkpt lat="41.021547" lon="-3.809177">
        <ele>1470.61</ele>
        <time>2021-03-28T01:20:19Z</time>
      </trkpt>
      <trkpt lat="41.020639" lon="-3.809469">
        <ele>1478.94</ele>
        <time>2021-03-28T01:20:21Z</time>
      </trkpt>
      <trkpt lat="41.020539" lon="-3.809486">
        <ele>1480.05</ele>
        <time>2021-03-28T01:20:24Z</time>
      </trkpt>
      <trkpt lat="41.020335" lon="-3.80945">
        <ele>1483.74</ele>
        <time>2021-03-28T01:20:26Z</time>
      </trkpt>
      <trkpt lat="41.020189" lon="-3.809344">
        <ele>1485.39</ele>
        <time>2021-03-28T01:20:29Z</time>
      </trkpt>
      <trkpt lat="41.019808" lon="-3.808831">
        <ele>1481.19</ele>
        <time>2021-03-28T01:20:31Z</time>
      </trkpt>
      <trkpt lat="41.01962" lon="-3.80865">
        <ele>1480.02</ele>
        <time>2021-03-28T01:20:33Z</time>
      </trkpt>
      <trkpt lat="41.019335" lon="-3.808544">
        <ele>1484.07</ele>
        <time>2021-03-28T01:20:36Z</time>
      </trkpt>
      <trkpt lat="41.018215" lon="-3.808291">
        <ele>1498.67</ele>
        <time>2021-03-28T01:20:38Z</time>
      </trkpt>
      <trkpt lat="41.017803" lon="-3.808276">
        <ele>1500.73</ele>
        <time>2021-03-28T01:20:40Z</time>
      </trkpt>
      <trkpt lat="41.017702" lon="-3.808254">
        <ele>1501.32</ele>
        <time>2021-03-28T01:20:43Z</time>
      </trkpt>
      <trkpt lat="41.017343" lon="-3.808013">
        <ele>1498.91</ele>
        <time>2021-03-28T01:20:45Z</time>
      </trkpt>
      <trkpt lat="41.017039" lon="-3.807857">
        <ele>1497.99</ele>
        <time>2021-03-28T01:20:47Z</time>
      </trkpt>
      <trkpt lat="41.016771" lon="-3.807777">
        <ele>1499.71</ele>
        <time>2021-03-28T01:20:50Z</time>
      </trkpt>
      <trkpt lat="41.015574" lon="-3.807752">
        <ele>1510.81</ele>
        <time>2021-03-28T01:20:52Z</time>
      </trkpt>
      <trkpt lat="41.014929" lon="-3.807777">
        <ele>1517.22</ele>
        <time>2021-03-28T01:20:55Z</time>
      </trkpt>
      <trkpt lat="41.014462" lon="-3.807843">
        <ele>1513.38</ele>
        <time>2021-03-28T01:20:57Z</time>
      </trkpt>
      <trkpt lat="41.014177" lon="-3.807966">
        <ele>1511.94</ele>
        <time>2021-03-28T01:20:59Z</time>
      </trkpt>
      <trkpt lat="41.014046" lon="-3.808048">
        <ele>1512.54</ele>
        <time>2021-03-28T01:21:02Z</time>
      </trkpt>
      <trkpt lat="41.013692" lon="-3.808411">
        <ele>1518.4</ele>
        <time>2021-03-28T01:21:04Z</time>
      </trkpt>
      <trkpt lat="41.013639" lon="-3.808431">
        <ele>1518.64</ele>
        <time>2021-03-28T01:21:06Z</time>
      </trkpt>
      <trkpt lat="41.013492" lon="-3.808389">
        <ele>1520.04</ele>
        <time>2021-03-28T01:21:09Z</time>
      </trkpt>
      <trkpt lat="41.013288" lon="-3.80815">
        <ele>1517.48</ele>
        <time>2021-03-28T01:21:11Z</time>
      </trkpt>
      <trkpt lat="41.013212" lon="-3.808098">
        <ele>1517.11</ele>
        <time>2021-03-28T01:21:13Z</time>
      </trkpt>
      <trkpt lat="41.013109" lon="-3.808075">
        <ele>1517.91</ele>
        <time>2021-03-28T01:21:16Z</time>
      </trkpt>
      <trkpt lat="41.012173" lon="-3.808286">
        <ele>1527.44</ele>
        <time>2021-03-28T01:21:18Z</time>
      </trkpt>
      <trkpt lat="41.011886" lon="-3.808381">
        <ele>1530.14</ele>
        <time>2021-03-28T01:21:21Z</time>
      </trkpt>
      <trkpt lat="41.01149" lon="-3.808577">
        <ele>1533.07</ele>
        <time>2021-03-28T01:21:23Z</time>
      </trkpt>
      <trkpt lat="41.010628" lon="-3.80887">
        <ele>1536.44</ele>
        <time>2021-03-28T01:21:25Z</time>
      </trkpt>
      <trkpt lat="41.010187" lon="-3.809087">
        <ele>1533.26</ele>
        <time>2021-03-28T01:21:28Z</time>
      </trkpt>
      <trkpt lat="41.010036" lon="-3.809199">
        <ele>1533.87</ele>
        <time>2021-03-28T01:21:30Z</time>
      </trkpt>
      <trkpt lat="41.009931" lon="-3.809306">
        <ele>1535.03</ele>
        <time>2021-03-28T01:21:32Z</time>
      </trkpt>
      <trkpt lat="41.009564" lon="-3.80976">
        <ele>1541.33</ele>
        <time>2021-03-28T01:21:35Z</time>
      </trkpt>
      <trkpt lat="41.009396" lon="-3.810005">
        <ele>1542.94</ele>
        <time>2021-03-28T01:21:37Z</time>
      </trkpt>
      <trkpt lat="41.009284" lon="-3.810074">
        <ele>1543.98</ele>
        <time>2021-03-28T01:21:39Z</time>
      </trkpt>
      <trkpt lat="41.009176" lon="-3.810047">
        <ele>1542.89</ele>
        <time>2021-03-28T01:21:42Z</time>
      </trkpt>
      <trkpt lat="41.008787" lon="-3.809777">
        <ele>1543.41</ele>
        <time>2021-03-28T01:21:44Z</time>
      </trkpt>
      <trkpt lat="41.008561" lon="-3.809597">
        <ele>1545.55</ele>
        <time>2021-03-28T01:21:47Z</time>
      </trkpt>
      <trkpt lat="41.008281" lon="-3.80941">
        <ele>1546.64</ele>
        <time>2021-03-28T01:21:49Z</time>
      </trkpt>
      <trkpt lat="41.008084" lon="-3.809308">
        <ele>1546.18</ele>
        <time>2021-03-28T01:21:51Z</time>
      </trkpt>
      <trkpt lat="41.007902" lon="-3.809331">
        <ele>1546.22</ele>
        <time>2021-03-28T01:21:54Z</time>
      </trkpt>
      <trkpt lat="41.007662" lon="-3.809415">
        <ele>1545.98</ele>
        <time>2021-03-28T01:21:56Z</time>
      </trkpt>
      <trkpt lat="41.007382" lon="-3.809606">
        <ele>1546.84</ele>
        <time>2021-03-28T01:21:58Z</time>
      </trkpt>
      <trkpt lat="41.006924" lon="-3.810176">
        <ele>1555.88</ele>
        <time>2021-03-28T01:22:01Z</time>
      </trkpt>
      <trkpt lat="41.006531" lon="-3.810573">
        <ele>1561.7</ele>
        <time>2021-03-28T01:22:03Z</time>
      </trkpt>
      <trkpt lat="41.006431" lon="-3.81065">
        <ele>1563.01</ele>
        <time>2021-03-28T01:22:05Z</time>
      </trkpt>
      <trkpt lat="41.006329" lon="-3.810699">
        <ele>1564.38</ele>
        <time>2021-03-28T01:22:08Z</time>
      </trkpt>
      <trkpt lat="41.006237" lon="-3.810711">
        <ele>1565.13</ele>
        <time>2021-03-28T01:22:10Z</time>
      </trkpt>
      <trkpt lat="41.006099" lon="-3.81069">
        <ele>1564.98</ele>
        <time>2021-03-28T01:22:13Z</time>
      </trkpt>
      <trkpt lat="41.005911" lon="-3.81062">
        <ele>1564.66</ele>
        <time>2021-03-28T01:22:15Z</time>
      </trkpt>
      <trkpt lat="41.005456" lon="-3.8105">
        <ele>1565.38</ele>
        <time>2021-03-28T01:22:17Z</time>
      </trkpt>
      <trkpt lat="41.005409" lon="-3.810509">
        <ele>1566.33</ele>
        <time>2021-03-28T01:22:20Z</time>
      </trkpt>
      <trkpt lat="41.005382" lon="-3.810545">
        <ele>1568.34</ele>
        <time>2021-03-28T01:22:22Z</time>
      </trkpt>
      <trkpt lat="41.005356" lon="-3.81064">
        <ele>1572.9</ele>
        <time>2021-03-28T01:22:24Z</time>
      </trkpt>
      <trkpt lat="41.005369" lon="-3.810682">
        <ele>1574.61</ele>
        <time>2021-03-28T01:22:27Z</time>
      </trkpt>
      <trkpt lat="41.005402" lon="-3.810715">
        <ele>1575.81</ele>
        <time>2021-03-28T01:22:29Z</time>
      </trkpt>
      <trkpt lat="41.005802" lon="-3.810794">
        <ele>1573.1</ele>
        <time>2021-03-28T01:22:31Z</time>
      </trkpt>
      <trkpt lat="41.005917" lon="-3.810847">
        <ele>1573.27</ele>
        <time>2021-03-28T01:22:34Z</time>
      </trkpt>
      <trkpt lat="41.006112" lon="-3.810981">
        <ele>1574.8</ele>
        <time>2021-03-28T01:22:36Z</time>
      </trkpt>
      <trkpt lat="41.006237" lon="-3.811015">
        <ele>1576.33</ele>
        <time>2021-03-28T01:22:39Z</time>
      </trkpt>
      <trkpt lat="41.006404" lon="-3.810991">
        <ele>1576.08</ele>
        <time>2021-03-28T01:22:41Z</time>
      </trkpt>
      <trkpt lat="41.006548" lon="-3.810943">
        <ele>1576.25</ele>
        <time>2021-03-28T01:22:43Z</time>
      </trkpt>
      <trkpt lat="41.007226" lon="-3.810547">
        <ele>1574.76</ele>
        <time>2021-03-28T01:22:46Z</time>
      </trkpt>
      <trkpt lat="41.007389" lon="-3.810496">
        <ele>1574.41</ele>
        <time>2021-03-28T01:22:48Z</time>
      </trkpt>
      <trkpt lat="41.007574" lon="-3.810488">
        <ele>1575.11</ele>
        <time>2021-03-28T01:22:50Z</time>
      </trkpt>
      <trkpt lat="41.007915" lon="-3.810525">
        <ele>1574.85</ele>
        <time>2021-03-28T01:22:53Z</time>
      </trkpt>
      <trkpt lat="41.007996" lon="-3.810588">
        <ele>1575.56</ele>
        <time>2021-03-28T01:22:55Z</time>
      </trkpt>
      <trkpt lat="41.008008" lon="-3.810675">
        <ele>1577.87</ele>
        <time>2021-03-28T01:22:57Z</time>
      </trkpt>
      <trkpt lat="41.007981" lon="-3.810749">
        <ele>1580.18</ele>
        <time>2021-03-28T01:23:00Z</time>
      </trkpt>
      <trkpt lat="41.007955" lon="-3.810773">
        <ele>1581.07</ele>
        <time>2021-03-28T01:23:02Z</time>
      </trkpt>
      <trkpt lat="41.007857" lon="-3.810814">
        <ele>1582.92</ele>
        <time>2021-03-28T01:23:05Z</time>
      </trkpt>
      <trkpt lat="41.007706" lon="-3.810809">
        <ele>1583.4</ele>
        <time>2021-03-28T01:23:07Z</time>
      </trkpt>
      <trkpt lat="41.007513" lon="-3.810773">
        <ele>1582.48</ele>
        <time>2021-03-28T01:23:09Z</time>
      </trkpt>
      <trkpt lat="41.007404" lon="-3.810781">
        <ele>1581.98</ele>
        <time>2021-03-28T01:23:12Z</time>
      </trkpt>
      <trkpt lat="41.007338" lon="-3.810807">
        <ele>1582.18</ele>
        <time>2021-03-28T01:23:14Z</time>
      </trkpt>
      <trkpt lat="41.007092" lon="-3.811032">
        <ele>1587.7</ele>
        <time>2021-03-28T01:23:16Z</time>
      </trkpt>
      <trkpt lat="41.006893" lon="-3.811103">
        <ele>1588.95</ele>
        <time>2021-03-28T01:23:19Z</time>
      </trkpt>
      <trkpt lat="41.006835" lon="-3.811144">
        <ele>1589.5</ele>
        <time>2021-03-28T01:23:21Z</time>
      </trkpt>
      <trkpt lat="41.006621" lon="-3.811424">
        <ele>1597.17</ele>
        <time>2021-03-28T01:23:23Z</time>
      </trkpt>
      <trkpt lat="41.006364" lon="-3.811525">
        <ele>1597.18</ele>
        <time>2021-03-28T01:23:26Z</time>
      </trkpt>
      <trkpt lat="41.006083" lon="-3.811595">
        <ele>1597.93</ele>
        <time>2021-03-28T01:23:28Z</time>
      </trkpt>
      <trkpt lat="41.005671" lon="-3.811436">
        <ele>1601.18</ele>
        <time>2021-03-28T01:23:31Z</time>
      </trkpt>
      <trkpt lat="41.00536" lon="-3.811371">
        <ele>1602.39</ele>
        <time>2021-03-28T01:23:33Z</time>
      </trkpt>
      <trkpt lat="41.005166" lon="-3.811311">
        <ele>1600.36</ele>
        <time>2021-03-28T01:23:35Z</time>
      </trkpt>
      <trkpt lat="41.004852" lon="-3.811345">
        <ele>1601.41</ele>
        <time>2021-03-28T01:23:38Z</time>
      </trkpt>
      <trkpt lat="41.004556" lon="-3.811498">
        <ele>1607.22</ele>
        <time>2021-03-28T01:23:40Z</time>
      </trkpt>
      <trkpt lat="41.004272" lon="-3.811694">
        <ele>1610.37</ele>
        <time>2021-03-28T01:23:42Z</time>
      </trkpt>
      <trkpt lat="41.003788" lon="-3.811974">
        <ele>1615.94</ele>
        <time>2021-03-28T01:23:45Z</time>
      </trkpt>
      <trkpt lat="41.003319" lon="-3.812187">
        <ele>1622.13</ele>
        <time>2021-03-28T01:23:47Z</time>
      </trkpt>
      <trkpt lat="41.003102" lon="-3.812246">
        <ele>1620.94</ele>
        <time>2021-03-28T01:23:49Z</time>
      </trkpt>
      <trkpt lat="41.002791" lon="-3.812262">
        <ele>1618.02</ele>
        <time>2021-03-28T01:23:52Z</time>
      </trkpt>
      <trkpt lat="41.002651" lon="-3.812302">
        <ele>1620.0</ele>
        <time>2021-03-28T01:23:54Z</time>
      </trkpt>
      <trkpt lat="41.002445" lon="-3.812451">
        <ele>1623.65</ele>
        <time>2021-03-28T01:23:57Z</time>
      </trkpt>
      <trkpt lat="41.002324" lon="-3.812592">
        <ele>1625.48</ele>
        <time>2021-03-28T01:23:59Z</time>
      </trkpt>
      <trkpt lat="41.002242" lon="-3.81273">
        <ele>1627.99</ele>
        <time>2021-03-28T01:24:01Z</time>
      </trkpt>
      <trkpt lat="41.002042" lon="-3.813176">
        <ele>1631.13</ele>
        <time>2021-03-28T01:24:04Z</time>
      </trkpt>
      <trkpt lat="41.001963" lon="-3.813284">
        <ele>1631.37</ele>
        <time>2021-03-28T01:24:06Z</time>
      </trkpt>
      <trkpt lat="41.001878" lon="-3.813357">
        <ele>1632.13</ele>
        <time>2021-03-28T01:24:08Z</time>
      </trkpt>
      <trkpt lat="41.001621" lon="-3.813404">
        <ele>1631.16</ele>
        <time>2021-03-28T01:24:11Z</time>
      </trkpt>
      <trkpt lat="41.001387" lon="-3.813496">
        <ele>1630.69</ele>
        <time>2021-03-28T01:24:13Z</time>
      </trkpt>
      <trkpt lat="41.00116" lon="-3.813621">
        <ele>1632.63</ele>
        <time>2021-03-28T01:24:15Z</time>
      </trkpt>
      <trkpt lat="41.000629" lon="-3.813996">
        <ele>1636.2</ele>
        <time>2021-03-28T01:24:18Z</time>
      </trkpt>
      <trkpt lat="41.000256" lon="-3.81418">
        <ele>1642.42</ele>
        <time>2021-03-28T01:24:20Z</time>
      </trkpt>
      <trkpt lat="40.999883" lon="-3.81448">
        <ele>1648.55</ele>
        <time>2021-03-28T01:24:23Z</time>
      </trkpt>
      <trkpt lat="40.999454" lon="-3.814677">
        <ele>1649.78</ele>
        <time>2021-03-28T01:24:25Z</time>
      </trkpt>
      <trkpt lat="40.99925" lon="-3.814833">
        <ele>1648.38</ele>
        <time>2021-03-28T01:24:27Z</time>
      </trkpt>
      <trkpt lat="40.999174" lon="-3.814911">
        <ele>1648.24</ele>
        <time>2021-03-28T01:24:30Z</time>
      </trkpt>
      <trkpt lat="40.999108" lon="-3.815011">
        <ele>1649.9</ele>
        <time>2021-03-28T01:24:32Z</time>
      </trkpt>
      <trkpt lat="40.998947" lon="-3.815292">
        <ele>1655.44</ele>
        <time>2021-03-28T01:24:34Z</time>
      </trkpt>
      <trkpt lat="40.998823" lon="-3.815398">
        <ele>1656.35</ele>
        <time>2021-03-28T01:24:37Z</time>
      </trkpt>
      <trkpt lat="40.998577" lon="-3.815539">
        <ele>1656.33</ele>
        <time>2021-03-28T01:24:39Z</time>
      </trkpt>
      <trkpt lat="40.998494" lon="-3.815628">
        <ele>1657.26</ele>
        <time>2021-03-28T01:24:41Z</time>
      </trkpt>
      <trkpt lat="40.998165" lon="-3.816124">
        <ele>1665.7</ele>
        <time>2021-03-28T01:24:44Z</time>
      </trkpt>
      <trkpt lat="40.997885" lon="-3.816408">
        <ele>1666.7</ele>
        <time>2021-03-28T01:24:46Z</time>
      </trkpt>
      <trkpt lat="40.997684" lon="-3.816744">
        <ele>1667.57</ele>
        <time>2021-03-28T01:24:49Z</time>
      </trkpt>
      <trkpt lat="40.997543" lon="-3.817026">
        <ele>1668.61</ele>
        <time>2021-03-28T01:24:51Z</time>
      </trkpt>
      <trkpt lat="40.997437" lon="-3.817342">
        <ele>1674.61</ele>
        <time>2021-03-28T01:24:53Z</time>
      </trkpt>
      <trkpt lat="40.997368" lon="-3.817469">
        <ele>1677.81</ele>
        <time>2021-03-28T01:24:56Z</time>
      </trkpt>
      <trkpt lat="40.997273" lon="-3.817589">
        <ele>1681.54</ele>
        <time>2021-03-28T01:24:58Z</time>
      </trkpt>
      <trkpt lat="40.997205" lon="-3.817622">
        <ele>1683.1</ele>
        <time>2021-03-28T01:25:00Z</time>
      </trkpt>
      <trkpt lat="40.997112" lon="-3.817612">
        <ele>1684.84</ele>
        <time>2021-03-28T01:25:03Z</time>
      </trkpt>
      <trkpt lat="40.996928" lon="-3.817546">
        <ele>1686.64</ele>
        <time>2021-03-28T01:25:05Z</time>
      </trkpt>
      <trkpt lat="40.99663" lon="-3.817407">
        <ele>1686.81</ele>
        <time>2021-03-28T01:25:07Z</time>
      </trkpt>
      <trkpt lat="40.996411" lon="-3.817277">
        <ele>1681.11</ele>
        <time>2021-03-28T01:25:10Z</time>
      </trkpt>
      <trkpt lat="40.99628" lon="-3.81728">
        <ele>1680.29</ele>
        <time>2021-03-28T01:25:12Z</time>
      </trkpt>
      <trkpt lat="40.996163" lon="-3.817363">
        <ele>1682.43</ele>
        <time>2021-03-28T01:25:15Z</time>
      </trkpt>
      <trkpt lat="40.995772" lon="-3.818005">
        <ele>1702.43</ele>
        <time>2021-03-28T01:25:17Z</time>
      </trkpt>
      <trkpt lat="40.995706" lon="-3.818069">
        <ele>1704.01</ele>
        <time>2021-03-28T01:25:19Z</time>
      </trkpt>
      <trkpt lat="40.995562" lon="-3.818127">
        <ele>1704.38</ele>
        <time>2021-03-28T01:25:22Z</time>
      </trkpt>
      <trkpt lat="40.995468" lon="-3.818119">
        <ele>1704.45</ele>
        <time>2021-03-28T01:25:24Z</time>
      </trkpt>
      <trkpt lat="40.995315" lon="-3.818052">
        <ele>1702.79</ele>
        <time>2021-03-28T01:25:26Z</time>
      </trkpt>
      <trkpt lat="40.994899" lon="-3.817697">
        <ele>1709.13</ele>
        <time>2021-03-28T01:25:29Z</time>
      </trkpt>
      <trkpt lat="40.994466" lon="-3.817363">
        <ele>1714.46</ele>
        <time>2021-03-28T01:25:31Z</time>
      </trkpt>
      <trkpt lat="40.994104" lon="-3.817042">
        <ele>1709.62</ele>
        <time>2021-03-28T01:25:33Z</time>
      </trkpt>
      <trkpt lat="40.994036" lon="-3.81701">
        <ele>1708.88</ele>
        <time>2021-03-28T01:25:36Z</time>
      </trkpt>
      <trkpt lat="40.993921" lon="-3.817007">
        <ele>1708.98</ele>
        <time>2021-03-28T01:25:38Z</time>
      </trkpt>
      <trkpt lat="40.993839" lon="-3.817044">
        <ele>1710.23</ele>
        <time>2021-03-28T01:25:41Z</time>
      </trkpt>
      <trkpt lat="40.993717" lon="-3.817143">
        <ele>1713.42</ele>
        <time>2021-03-28T01:25:43Z</time>
      </trkpt>
      <trkpt lat="40.993665" lon="-3.817169">
        <ele>1714.28</ele>
        <time>2021-03-28T01:25:45Z</time>
      </trkpt>
      <trkpt lat="40.993587" lon="-3.817177">
        <ele>1714.88</ele>
        <time>2021-03-28T01:25:48Z</time>
      </trkpt>
      <trkpt lat="40.992638" lon="-3.816699">
        <ele>1723.29</ele>
        <time>2021-03-28T01:25:50Z</time>
      </trkpt>
      <trkpt lat="40.992385" lon="-3.816532">
        <ele>1721.89</ele>
        <time>2021-03-28T01:25:52Z</time>
      </trkpt>
      <trkpt lat="40.992211" lon="-3.816476">
        <ele>1721.81</ele>
        <time>2021-03-28T01:25:55Z</time>
      </trkpt>
      <trkpt lat="40.992112" lon="-3.816476">
        <ele>1721.58</ele>
        <time>2021-03-28T01:25:57Z</time>
      </trkpt>
      <trkpt lat="40.991909" lon="-3.816523">
        <ele>1721.74</ele>
        <time>2021-03-28T01:25:59Z</time>
      </trkpt>
      <trkpt lat="40.991794" lon="-3.816606">
        <ele>1721.78</ele>
        <time>2021-03-28T01:26:02Z</time>
      </trkpt>
      <trkpt lat="40.991697" lon="-3.816757">
        <ele>1723.53</ele>
        <time>2021-03-28T01:26:04Z</time>
      </trkpt>
      <trkpt lat="40.991456" lon="-3.817324">
        <ele>1732.65</ele>
        <time>2021-03-28T01:26:07Z</time>
      </trkpt>
      <trkpt lat="40.991348" lon="-3.817528">
        <ele>1734.46</ele>
        <time>2021-03-28T01:26:09Z</time>
      </trkpt>
      <trkpt lat="40.991222" lon="-3.817711">
        <ele>1734.6</ele>
        <time>2021-03-28T01:26:11Z</time>
      </trkpt>
      <trkpt lat="40.990769" lon="-3.818139">
        <ele>1735.2</ele>
        <time>2021-03-28T01:26:14Z</time>
      </trkpt>
      <trkpt lat="40.990439" lon="-3.818575">
        <ele>1743.79</ele>
        <time>2021-03-28T01:26:16Z</time>
      </trkpt>
      <trkpt lat="40.990366" lon="-3.818625">
        <ele>1745.08</ele>
        <time>2021-03-28T01:26:18Z</time>
      </trkpt>
      <trkpt lat="40.990282" lon="-3.818593">
        <ele>1745.56</ele>
        <time>2021-03-28T01:26:21Z</time>
      </trkpt>
      <trkpt lat="40.990246" lon="-3.818547">
        <ele>1745.87</ele>
        <time>2021-03-28T01:26:23Z</time>
      </trkpt>
      <trkpt lat="40.990215" lon="-3.81842">
        <ele>1746.57</ele>
        <time>2021-03-28T01:26:25Z</time>
      </trkpt>
      <trkpt lat="40.990243" lon="-3.817843">
        <ele>1743.73</ele>
        <time>2021-03-28T01:26:28Z</time>
      </trkpt>
      <trkpt lat="40.990229" lon="-3.817738">
        <ele>1744.01</ele>
        <time>2021-03-28T01:26:30Z</time>
      </trkpt>
      <trkpt lat="40.990203" lon="-3.817649">
        <ele>1744.23</ele>
        <time>2021-03-28T01:26:33Z</time>
      </trkpt>
      <trkpt lat="40.990086" lon="-3.817415">
        <ele>1746.53</ele>
        <time>2021-03-28T01:26:35Z</time>
      </trkpt>
      <trkpt lat="40.989869" lon="-3.817077">
        <ele>1750.04</ele>
        <time>2021-03-28T01:26:37Z</time>
      </trkpt>
      <trkpt lat="40.989533" lon="-3.816671">
        <ele>1753.26</ele>
        <time>2021-03-28T01:26:40Z</time>
      </trkpt>
      <trkpt lat="40.989326" lon="-3.816497">
        <ele>1755.29</ele>
        <time>2021-03-28T01:26:42Z</time>
      </trkpt>
      <trkpt lat="40.988724" lon="-3.816267">
        <ele>1765.23</ele>
        <time>2021-03-28T01:26:44Z</time>
      </trkpt>
      <trkpt lat="40.988288" lon="-3.816023">
        <ele>1766.86</ele>
        <time>2021-03-28T01:26:47Z</time>
      </trkpt>
      <trkpt lat="40.988214" lon="-3.815962">
        <ele>1767.28</ele>
        <time>2021-03-28T01:26:49Z</time>
      </trkpt>
      <trkpt lat="40.988124" lon="-3.815872">
        <ele>1767.8</ele>
        <time>2021-03-28T01:26:51Z</time>
      </trkpt>
      <trkpt lat="40.987683" lon="-3.815304">
        <ele>1772.96</ele>
        <time>2021-03-28T01:26:54Z</time>
      </trkpt>
      <trkpt lat="40.9874" lon="-3.815025">
        <ele>1776.36</ele>
        <time>2021-03-28T01:26:56Z</time>
      </trkpt>
      <trkpt lat="40.987309" lon="-3.814894">
        <ele>1776.3</ele>
        <time>2021-03-28T01:26:59Z</time>
      </trkpt>
      <trkpt lat="40.987267" lon="-3.814787">
        <ele>1774.24</ele>
        <time>2021-03-28T01:27:01Z</time>
      </trkpt>
      <trkpt lat="40.987267" lon="-3.814787">
        <ele>1774.24</ele>
        <time>2021-03-28T01:27:01Z</time>
      </trkpt>
      <trkpt lat="40.987309" lon="-3.814894">
        <ele>1776.3</ele>
        <time>2021-03-28T01:27:03Z</time>
      </trkpt>
      <trkpt lat="40.9874" lon="-3.815025">
        <ele>1776.36</ele>
        <time>2021-03-28T01:27:05Z</time>
      </trkpt>
      <trkpt lat="40.987683" lon="-3.815304">
        <ele>1772.96</ele>
        <time>2021-03-28T01:27:07Z</time>
      </trkpt>
      <trkpt lat="40.988124" lon="-3.815872">
        <ele>1767.8</ele>
        <time>2021-03-28T01:27:09Z</time>
      </trkpt>
      <trkpt lat="40.988214" lon="-3.815962">
        <ele>1767.28</ele>
        <time>2021-03-28T01:27:11Z</time>
      </trkpt>
      <trkpt lat="40.988288" lon="-3.816023">
        <ele>1766.86</ele>
        <time>2021-03-28T01:27:13Z</time>
      </trkpt>
      <trkpt lat="40.988724" lon="-3.816267">
        <ele>1765.23</ele>
        <time>2021-03-28T01:27:15Z</time>
      </trkpt>
      <trkpt lat="40.989326" lon="-3.816497">
        <ele>1755.29</ele>
        <time>2021-03-28T01:27:17Z</time>
      </trkpt>
      <trkpt lat="40.989533" lon="-3.816671">
        <ele>1753.26</ele>
        <time>2021-03-28T01:27:18Z</time>
      </trkpt>
      <trkpt lat="40.989869" lon="-3.817077">
        <ele>1750.04</ele>
        <time>2021-03-28T01:27:20Z</time>
      </trkpt>
      <trkpt lat="40.990086" lon="-3.817415">
        <ele>1746.53</ele>
        <time>2021-03-28T01:27:22Z</time>
      </trkpt>
      <trkpt lat="40.990203" lon="-3.817649">
        <ele>1744.23</ele>
        <time>2021-03-28T01:27:24Z</time>
      </trkpt>
      <trkpt lat="40.990229" lon="-3.817738">
        <ele>1744.01</ele>
        <time>2021-03-28T01:27:26Z</time>
      </trkpt>
      <trkpt lat="40.990243" lon="-3.817843">
        <ele>1743.73</ele>
        <time>2021-03-28T01:27:28Z</time>
      </trkpt>
      <trkpt lat="40.990215" lon="-3.81842">
        <ele>1746.57</ele>
        <time>2021-03-28T01:27:30Z</time>
      </trkpt>
      <trkpt lat="40.990246" lon="-3.818547">
        <ele>1745.87</ele>
        <time>2021-03-28T01:27:32Z</time>
      </trkpt>
      <trkpt lat="40.990282" lon="-3.818593">
        <ele>1745.56</ele>
        <time>2021-03-28T01:27:34Z</time>
      </trkpt>
      <trkpt lat="40.990366" lon="-3.818625">
        <ele>1745.08</ele>
        <time>2021-03-28T01:27:36Z</time>
      </trkpt>
      <trkpt lat="40.990439" lon="-3.818575">
        <ele>1743.79</ele>
        <time>2021-03-28T01:27:38Z</time>
      </trkpt>
      <trkpt lat="40.990769" lon="-3.818139">
        <ele>1735.2</ele>
        <time>2021-03-28T01:27:40Z</time>
      </trkpt>
      <trkpt lat="40.991222" lon="-3.817711">
        <ele>1734.6</ele>
        <time>2021-03-28T01:27:42Z</time>
      </trkpt>
      <trkpt lat="40.991348" lon="-3.817528">
        <ele>1734.46</ele>
        <time>2021-03-28T01:27:44Z</time>
      </trkpt>
      <trkpt lat="40.991456" lon="-3.817324">
        <ele>1732.65</ele>
        <time>2021-03-28T01:27:45Z</time>
      </trkpt>
      <trkpt lat="40.991697" lon="-3.816757">
        <ele>1723.53</ele>
        <time>2021-03-28T01:27:47Z</time>
      </trkpt>
      <trkpt lat="40.991794" lon="-3.816606">
        <ele>1721.78</ele>
        <time>2021-03-28T01:27:49Z</time>
      </trkpt>
      <trkpt lat="40.991909" lon="-3.816523">
        <ele>1721.74</ele>
        <time>2021-03-28T01:27:51Z</time>
      </trkpt>
      <trkpt lat="40.992112" lon="-3.816476">
        <ele>1721.58</ele>
        <time>2021-03-28T01:27:53Z</time>
      </trkpt>
      <trkpt lat="40.992211" lon="-3.816476">
        <ele>1721.81</ele>
        <time>2021-03-28T01:27:55Z</time>
      </trkpt>
      <trkpt lat="40.992385" lon="-3.816532">
        <ele>1721.89</ele>
        <time>2021-03-28T01:27:57Z</time>
      </trkpt>
      <trkpt lat="40.992638" lon="-3.816699">
        <ele>1723.29</ele>
        <time>2021-03-28T01:27:59Z</time>
      </trkpt>
      <trkpt lat="40.993587" lon="-3.817177">
        <ele>1714.88</ele>
        <time>2021-03-28T01:28:01Z</time>
      </trkpt>
      <trkpt lat="40.993665" lon="-3.817169">
        <ele>1714.28</ele>
        <time>2021-03-28T01:28:03Z</time>
      </trkpt>
      <trkpt lat="40.993717" lon="-3.817143">
        <ele>1713.42</ele>
        <time>2021-03-28T01:28:05Z</time>
      </trkpt>
      <trkpt lat="40.993839" lon="-3.817044">
        <ele>1710.23</ele>
        <time>2021-03-28T01:28:07Z</time>
      </trkpt>
      <trkpt lat="40.993921" lon="-3.817007">
        <ele>1708.98</ele>
        <time>2021-03-28T01:28:09Z</time>
      </trkpt>
      <trkpt lat="40.994036" lon="-3.81701">
        <ele>1708.88</ele>
        <time>2021-03-28T01:28:11Z</time>
      </trkpt>
      <trkpt lat="40.994104" lon="-3.817042">
        <ele>1709.62</ele>
        <time>2021-03-28T01:28:12Z</time>
      </trkpt>
      <trkpt lat="40.994466" lon="-3.817363">
        <ele>1714.46</ele>
        <time>2021-03-28T01:28:14Z</time>
      </trkpt>
      <trkpt lat="40.994899" lon="-3.817697">
        <ele>1709.13</ele>
        <time>2021-03-28T01:28:16Z</time>
      </trkpt>
      <trkpt lat="40.995315" lon="-3.818052">
        <ele>1702.79</ele>
        <time>2021-03-28T01:28:18Z</time>
      </trkpt>
      <trkpt lat="40.995468" lon="-3.818119">
        <ele>1704.45</ele>
        <time>2021-03-28T01:28:20Z</time>
      </trkpt>
      <trkpt lat="40.995562" lon="-3.818127">
        <ele>1704.38</ele>
        <time>2021-03-28T01:28:22Z</time>
      </trkpt>
      <trkpt lat="40.995706" lon="-3.818069">
        <ele>1704.01</ele>
        <time>2021-03-28T01:28:24Z</time>
      </trkpt>
      <trkpt lat="40.995772" lon="-3.818005">
        <ele>1702.43</ele>
        <time>2021-03-28T01:28:26Z</time>
      </trkpt>
      <trkpt lat="40.996163" lon="-3.817363">
        <ele>1682.43</ele>
        <time>2021-03-28T01:28:28Z</time>
      </trkpt>
      <trkpt lat="40.99628" lon="-3.81728">
        <ele>1680.29</ele>
        <time>2021-03-28T01:28:30Z</time>
      </trkpt>
      <trkpt lat="40.996411" lon="-3.817277">
        <ele>1681.11</ele>
        <time>2021-03-28T01:28:32Z</time>
      </trkpt>
      <trkpt lat="40.99663" lon="-3.817407">
        <ele>1686.81</ele>
        <time>2021-03-28T01:28:34Z</time>
      </trkpt>
      <trkpt lat="40.996928" lon="-3.817546">
        <ele>1686.64</ele>
        <time>2021-03-28T01:28:36Z</time>
      </trkpt>
      <trkpt lat="40.997112" lon="-3.817612">
        <ele>1684.84</ele>
        <time>2021-03-28T01:28:38Z</time>
      </trkpt>
      <trkpt lat="40.997205" lon="-3.817622">
        <ele>1683.1</ele>
        <time>2021-03-28T01:28:39Z</time>
      </trkpt>
      <trkpt lat="40.997273" lon="-3.817589">
        <ele>1681.54</ele>
        <time>2021-03-28T01:28:41Z</time>
      </trkpt>
      <trkpt lat="40.997368" lon="-3.817469">
        <ele>1677.81</ele>
        <time>2021-03-28T01:28:43Z</time>
      </trkpt>
      <trkpt lat="40.997437" lon="-3.817342">
        <ele>1674.61</ele>
        <time>2021-03-28T01:28:45Z</time>
      </trkpt>
      <trkpt lat="40.997543" lon="-3.817026">
        <ele>1668.61</ele>
        <time>2021-03-28T01:28:47Z</time>
      </trkpt>
      <trkpt lat="40.997684" lon="-3.816744">
        <ele>1667.57</ele>
        <time>2021-03-28T01:28:49Z</time>
      </trkpt>
      <trkpt lat="40.997885" lon="-3.816408">
        <ele>1666.7</ele>
        <time>2021-03-28T01:28:51Z</time>
      </trkpt>
      <trkpt lat="40.998165" lon="-3.816124">
        <ele>1665.7</ele>
        <time>2021-03-28T01:28:53Z</time>
      </trkpt>
      <trkpt lat="40.998494" lon="-3.815628">
        <ele>1657.26</ele>
        <time>2021-03-28T01:28:55Z</time>
      </trkpt>
      <trkpt lat="40.998577" lon="-3.815539">
        <ele>1656.33</ele>
        <time>2021-03-28T01:28:57Z</time>
      </trkpt>
      <trkpt lat="40.998823" lon="-3.815398">
        <ele>1656.35</ele>
        <time>2021-03-28T01:28:59Z</time>
      </trkpt>
      <trkpt lat="40.998947" lon="-3.815292">
        <ele>1655.44</ele>
        <time>2021-03-28T01:29:01Z</time>
      </trkpt>
      <trkpt lat="40.999108" lon="-3.815011">
        <ele>1649.9</ele>
        <time>2021-03-28T01:29:03Z</time>
      </trkpt>
      <trkpt lat="40.999174" lon="-3.814911">
        <ele>1648.24</ele>
        <time>2021-03-28T01:29:05Z</time>
      </trkpt>
      <trkpt lat="40.99925" lon="-3.814833">
        <ele>1648.38</ele>
        <time>2021-03-28T01:29:06Z</time>
      </trkpt>
      <trkpt lat="40.999454" lon="-3.814677">
        <ele>1649.78</ele>
        <time>2021-03-28T01:29:08Z</time>
      </trkpt>
      <trkpt lat="40.999883" lon="-3.81448">
        <ele>1648.55</ele>
        <time>2021-03-28T01:29:10Z</time>
      </trkpt>
      <trkpt lat="41.000256" lon="-3.81418">
        <ele>1642.42</ele>
        <time>2021-03-28T01:29:12Z</time>
      </trkpt>
      <trkpt lat="41.000629" lon="-3.813996">
        <ele>1636.2</ele>
        <time>2021-03-28T01:29:14Z</time>
      </trkpt>
      <trkpt lat="41.00116" lon="-3.813621">
        <ele>1632.63</ele>
        <time>2021-03-28T01:29:16Z</time>
      </trkpt>
      <trkpt lat="41.001387" lon="-3.813496">
        <ele>1630.69</ele>
        <time>2021-03-28T01:29:18Z</time>
      </trkpt>
      <trkpt lat="41.001621" lon="-3.813404">
        <ele>1631.16</ele>
        <time>2021-03-28T01:29:20Z</time>
      </trkpt>
      <trkpt lat="41.001878" lon="-3.813357">
        <ele>1632.13</ele>
        <time>2021-03-28T01:29:22Z</time>
      </trkpt>
      <trkpt lat="41.001963" lon="-3.813284">
        <ele>1631.37</ele>
        <time>2021-03-28T01:29:24Z</time>
      </trkpt>
      <trkpt lat="41.002042" lon="-3.813176">
        <ele>1631.13</ele>
        <time>2021-03-28T01:29:26Z</time>
      </trkpt>
      <trkpt lat="41.002242" lon="-3.81273">
        <ele>1627.99</ele>
        <time>2021-03-28T01:29:28Z</time>
      </trkpt>
      <trkpt lat="41.002324" lon="-3.812592">
        <ele>1625.48</ele>
        <time>2021-03-28T01:29:30Z</time>
      </trkpt>
      <trkpt lat="41.002445" lon="-3.812451">
        <ele>1623.65</ele>
        <time>2021-03-28T01:29:32Z</time>
      </trkpt>
      <trkpt lat="41.002651" lon="-3.812302">
        <ele>1620.0</ele>
        <time>2021-03-28T01:29:33Z</time>
      </trkpt>
      <trkpt lat="41.002791" lon="-3.812262">
        <ele>1618.02</ele>
        <time>2021-03-28T01:29:35Z</time>
      </trkpt>
      <trkpt lat="41.003102" lon="-3.812246">
        <ele>1620.94</ele>
        <time>2021-03-28T01:29:37Z</time>
      </trkpt>
      <trkpt lat="41.003319" lon="-3.812187">
        <ele>1622.13</ele>
        <time>2021-03-28T01:29:39Z</time>
      </trkpt>
      <trkpt lat="41.003788" lon="-3.811974">
        <ele>1615.94</ele>
        <time>2021-03-28T01:29:41Z</time>
      </trkpt>
      <trkpt lat="41.004272" lon="-3.811694">
        <ele>1610.37</ele>
        <time>2021-03-28T01:29:43Z</time>
      </trkpt>
      <trkpt lat="41.004556" lon="-3.811498">
        <ele>1607.22</ele>
        <time>2021-03-28T01:29:45Z</time>
      </trkpt>
      <trkpt lat="41.004852" lon="-3.811345">
        <ele>1601.41</ele>
        <time>2021-03-28T01:29:47Z</time>
      </trkpt>
      <trkpt lat="41.005166" lon="-3.811311">
        <ele>1600.36</ele>
        <time>2021-03-28T01:29:49Z</time>
      </trkpt>
      <trkpt lat="41.00536" lon="-3.811371">
        <ele>1602.39</ele>
        <time>2021-03-28T01:29:51Z</time>
      </trkpt>
      <trkpt lat="41.005671" lon="-3.811436">
        <ele>1601.18</ele>
        <time>2021-03-28T01:29:53Z</time>
      </trkpt>
      <trkpt lat="41.006083" lon="-3.811595">
        <ele>1597.93</ele>
        <time>2021-03-28T01:29:55Z</time>
      </trkpt>
      <trkpt lat="41.006364" lon="-3.811525">
        <ele>1597.18</ele>
        <time>2021-03-28T01:29:57Z</time>
      </trkpt>
      <trkpt lat="41.006621" lon="-3.811424">
        <ele>1597.17</ele>
        <time>2021-03-28T01:29:58Z</time>
      </trkpt>
      <trkpt lat="41.006835" lon="-3.811144">
        <ele>1589.5</ele>
        <time>2021-03-28T01:30:00Z</time>
      </trkpt>
      <trkpt lat="41.006893" lon="-3.811103">
        <ele>1588.95</ele>
        <time>2021-03-28T01:30:02Z</time>
      </trkpt>
      <trkpt lat="41.007092" lon="-3.811032">
        <ele>1587.7</ele>
        <time>2021-03-28T01:30:04Z</time>
      </trkpt>
      <trkpt lat="41.007338" lon="-3.810807">
        <ele>1582.18</ele>
        <time>2021-03-28T01:30:06Z</time>
      </trkpt>
      <trkpt lat="41.007404" lon="-3.810781">
        <ele>1581.98</ele>
        <time>2021-03-28T01:30:08Z</time>
      </trkpt>
      <trkpt lat="41.007513" lon="-3.810773">
        <ele>1582.48</ele>
        <time>2021-03-28T01:30:10Z</time>
      </trkpt>
      <trkpt lat="41.007706" lon="-3.810809">
        <ele>1583.4</ele>
        <time>2021-03-28T01:30:12Z</time>
      </trkpt>
      <trkpt lat="41.007857" lon="-3.810814">
        <ele>1582.92</ele>
        <time>2021-03-28T01:30:14Z</time>
      </trkpt>
      <trkpt lat="41.007955" lon="-3.810773">
        <ele>1581.07</ele>
        <time>2021-03-28T01:30:16Z</time>
      </trkpt>
      <trkpt lat="41.007981" lon="-3.810749">
        <ele>1580.18</ele>
        <time>2021-03-28T01:30:18Z</time>
      </trkpt>
      <trkpt lat="41.008008" lon="-3.810675">
        <ele>1577.87</ele>
        <time>2021-03-28T01:30:20Z</time>
      </trkpt>
      <trkpt lat="41.007996" lon="-3.810588">
        <ele>1575.56</ele>
        <time>2021-03-28T01:30:22Z</time>
      </trkpt>
      <trkpt lat="41.007915" lon="-3.810525">
        <ele>1574.85</ele>
        <time>2021-03-28T01:30:24Z</time>
      </trkpt>
      <trkpt lat="41.007574" lon="-3.810488">
        <ele>1575.11</ele>
        <time>2021-03-28T01:30:25Z</time>
      </trkpt>
      <trkpt lat="41.007389" lon="-3.810496">
        <ele>1574.41</ele>
        <time>2021-03-28T01:30:27Z</time>
      </trkpt>
      <trkpt lat="41.007226" lon="-3.810547">
        <ele>1574.76</ele>
        <time>2021-03-28T01:30:29Z</time>
      </trkpt>
      <trkpt lat="41.006548" lon="-3.810943">
        <ele>1576.25</ele>
        <time>2021-03-28T01:30:31Z</time>
      </trkpt>
      <trkpt lat="41.006404" lon="-3.810991">
        <ele>1576.08</ele>
        <time>2021-03-28T01:30:33Z</time>
      </trkpt>
      <trkpt lat="41.006237" lon="-3.811015">
        <ele>1576.33</ele>
        <time>2021-03-28T01:30:35Z</time>
      </trkpt>
      <trkpt lat="41.006112" lon="-3.810981">
        <ele>1574.8</ele>
        <time>2021-03-28T01:30:37Z</time>
      </trkpt>
      <trkpt lat="41.005917" lon="-3.810847">
        <ele>1573.27</ele>
        <time>2021-03-28T01:30:39Z</time>
      </trkpt>
      <trkpt lat="41.005802" lon="-3.810794">
        <ele>1573.1</ele>
        <time>2021-03-28T01:30:41Z</time>
      </trkpt>
      <trkpt lat="41.005402" lon="-3.810715">
        <ele>1575.81</ele>
        <time>2021-03-28T01:30:43Z</time>
      </trkpt>
      <trkpt lat="41.005369" lon="-3.810682">
        <ele>1574.61</ele>
        <time>2021-03-28T01:30:45Z</time>
      </trkpt>
      <trkpt lat="41.005356" lon="-3.81064">
        <ele>1572.9</ele>
        <time>2021-03-28T01:30:47Z</time>
      </trkpt>
      <trkpt lat="41.005382" lon="-3.810545">
        <ele>1568.34</ele>
        <time>2021-03-28T01:30:49Z</time>
      </trkpt>
      <trkpt lat="41.005409" lon="-3.810509">
        <ele>1566.33</ele>
        <time>2021-03-28T01:30:51Z</time>
      </trkpt>
      <trkpt lat="41.005456" lon="-3.8105">
        <ele>1565.38</ele>
        <time>2021-03-28T01:30:52Z</time>
      </trkpt>
      <trkpt lat="41.005911" lon="-3.81062">
        <ele>1564.66</ele>
        <time>2021-03-28T01:30:54Z</time>
      </trkpt>
      <trkpt lat="41.006099" lon="-3.81069">
        <ele>1564.98</ele>
        <time>2021-03-28T01:30:56Z</time>
      </trkpt>
      <trkpt lat="41.006237" lon="-3.810711">
        <ele>1565.13</ele>
        <time>2021-03-28T01:30:58Z</time>
      </trkpt>
      <trkpt lat="41.006329" lon="-3.810699">
        <ele>1564.38</ele>
        <time>2021-03-28T01:31:00Z</time>
      </trkpt>
      <trkpt lat="41.006431" lon="-3.81065">
        <ele>1563.01</ele>
        <time>2021-03-28T01:31:02Z</time>
      </trkpt>
      <trkpt lat="41.006531" lon="-3.810573">
        <ele>1561.7</ele>
        <time>2021-03-28T01:31:04Z</time>
      </trkpt>
      <trkpt lat="41.006924" lon="-3.810176">
        <ele>1555.88</ele>
        <time>2021-03-28T01:31:06Z</time>
      </trkpt>
      <trkpt lat="41.007382" lon="-3.809606">
        <ele>1546.84</ele>
        <time>2021-03-28T01:31:08Z</time>
      </trkpt>
      <trkpt lat="41.007662" lon="-3.809415">
        <ele>1545.98</ele>
        <time>2021-03-28T01:31:10Z</time>
      </trkpt>
      <trkpt lat="41.007902" lon="-3.809331">
        <ele>1546.22</ele>
        <time>2021-03-28T01:31:12Z</time>
      </trkpt>
      <trkpt lat="41.008084" lon="-3.809308">
        <ele>1546.18</ele>
        <time>2021-03-28T01:31:14Z</time>
      </trkpt>
      <trkpt lat="41.008281" lon="-3.80941">
        <ele>1546.64</ele>
        <time>2021-03-28T01:31:16Z</time>
      </trkpt>
      <trkpt lat="41.009176" lon="-3.810047">
        <ele>1542.89</ele>
        <time>2021-03-28T01:31:18Z</time>
      </trkpt>
      <trkpt lat="41.009284" lon="-3.810074">
        <ele>1543.98</ele>
        <time>2021-03-28T01:31:19Z</time>
      </trkpt>
      <trkpt lat="41.009396" lon="-3.810005">
        <ele>1542.94</ele>
        <time>2021-03-28T01:31:21Z</time>
      </trkpt>
      <trkpt lat="41.009564" lon="-3.80976">
        <ele>1541.33</ele>
        <time>2021-03-28T01:31:23Z</time>
      </trkpt>
      <trkpt lat="41.009931" lon="-3.809306">
        <ele>1535.03</ele>
        <time>2021-03-28T01:31:25Z</time>
      </trkpt>
      <trkpt lat="41.010036" lon="-3.809199">
        <ele>1533.87</ele>
        <time>2021-03-28T01:31:27Z</time>
      </trkpt>
      <trkpt lat="41.010187" lon="-3.809087">
        <ele>1533.26</ele>
        <time>2021-03-28T01:31:29Z</time>
      </trkpt>
      <trkpt lat="41.010628" lon="-3.80887">
        <ele>1536.44</ele>
        <time>2021-03-28T01:31:31Z</time>
      </trkpt>
      <trkpt lat="41.01149" lon="-3.808577">
        <ele>1533.07</ele>
        <time>2021-03-28T01:31:33Z</time>
      </trkpt>
      <trkpt lat="41.011886" lon="-3.808381">
        <ele>1530.14</ele>
        <time>2021-03-28T01:31:35Z</time>
      </trkpt>
      <trkpt lat="41.012173" lon="-3.808286">
        <ele>1527.44</ele>
        <time>2021-03-28T01:31:37Z</time>
      </trkpt>
      <trkpt lat="41.013109" lon="-3.808075">
        <ele>1517.91</ele>
        <time>2021-03-28T01:31:39Z</time>
      </trkpt>
      <trkpt lat="41.013212" lon="-3.808098">
        <ele>1517.11</ele>
        <time>2021-03-28T01:31:41Z</time>
      </trkpt>
      <trkpt lat="41.013288" lon="-3.80815">
        <ele>1517.48</ele>
        <time>2021-03-28T01:31:43Z</time>
      </trkpt>
      <trkpt lat="41.013492" lon="-3.808389">
        <ele>1520.04</ele>
        <time>2021-03-28T01:31:45Z</time>
      </trkpt>
      <trkpt lat="41.013639" lon="-3.808431">
        <ele>1518.64</ele>
        <time>2021-03-28T01:31:46Z</time>
      </trkpt>
      <trkpt lat="41.013692" lon="-3.808411">
        <ele>1518.4</ele>
        <time>2021-03-28T01:31:48Z</time>
      </trkpt>
      <trkpt lat="41.014046" lon="-3.808048">
        <ele>1512.54</ele>
        <time>2021-03-28T01:31:50Z</time>
      </trkpt>
      <trkpt lat="41.014177" lon="-3.807966">
        <ele>1511.94</ele>
        <time>2021-03-28T01:31:52Z</time>
      </trkpt>
      <trkpt lat="41.014462" lon="-3.807843">
        <ele>1513.38</ele>
        <time>2021-03-28T01:31:54Z</time>
      </trkpt>
      <trkpt lat="41.014929" lon="-3.807777">
        <ele>1517.22</ele>
        <time>2021-03-28T01:31:56Z</time>
      </trkpt>
      <trkpt lat="41.015574" lon="-3.807752">
        <ele>1510.81</ele>
        <time>2021-03-28T01:31:58Z</time>
      </trkpt>
      <trkpt lat="41.016771" lon="-3.807777">
        <ele>1499.71</ele>
        <time>2021-03-28T01:32:00Z</time>
      </trkpt>
      <trkpt lat="41.017039" lon="-3.807857">
        <ele>1497.99</ele>
        <time>2021-03-28T01:32:02Z</time>
      </trkpt>
      <trkpt lat="41.017343" lon="-3.808013">
        <ele>1498.91</ele>
        <time>2021-03-28T01:32:04Z</time>
      </trkpt>
      <trkpt lat="41.017702" lon="-3.808254">
        <ele>1501.32</ele>
        <time>2021-03-28T01:32:06Z</time>
      </trkpt>
      <trkpt lat="41.017803" lon="-3.808276">
        <ele>1500.73</ele>
        <time>2021-03-28T01:32:08Z</time>
      </trkpt>
      <trkpt lat="41.018215" lon="-3.808291">
        <ele>1498.67</ele>
        <time>2021-03-28T01:32:10Z</time>
      </trkpt>
      <trkpt lat="41.019335" lon="-3.808544">
        <ele>1484.07</ele>
        <time>2021-03-28T01:32:12Z</time>
      </trkpt>
      <trkpt lat="41.01962" lon="-3.80865">
        <ele>1480.02</ele>
        <time>2021-03-28T01:32:13Z</time>
      </trkpt>
      <trkpt lat="41.019808" lon="-3.808831">
        <ele>1481.19</ele>
        <time>2021-03-28T01:32:15Z</time>
      </trkpt>
      <trkpt lat="41.020189" lon="-3.809344">
        <ele>1485.39</ele>
        <time>2021-03-28T01:32:17Z</time>
      </trkpt>
      <trkpt lat="41.020335" lon="-3.80945">
        <ele>1483.74</ele>
        <time>2021-03-28T01:32:19Z</time>
      </trkpt>
      <trkpt lat="41.020539" lon="-3.809486">
        <ele>1480.05</ele>
        <time>2021-03-28T01:32:21Z</time>
      </trkpt>
      <trkpt lat="41.020639" lon="-3.809469">
        <ele>1478.94</ele>
        <time>2021-03-28T01:32:23Z</time>
      </trkpt>
      <trkpt lat="41.021547" lon="-3.809177">
        <ele>1470.61</ele>
        <time>2021-03-28T01:32:25Z</time>
      </trkpt>
      <trkpt lat="41.022388" lon="-3.808778">
        <ele>1466.5</ele>
        <time>2021-03-28T01:32:27Z</time>
      </trkpt>
      <trkpt lat="41.022721" lon="-3.808658">
        <ele>1460.12</ele>
        <time>2021-03-28T01:32:29Z</time>
      </trkpt>
      <trkpt lat="41.022979" lon="-3.808609">
        <ele>1455.77</ele>
        <time>2021-03-28T01:32:31Z</time>
      </trkpt>
      <trkpt lat="41.023201" lon="-3.808623">
        <ele>1453.79</ele>
        <time>2021-03-28T01:32:33Z</time>
      </trkpt>
      <trkpt lat="41.02337" lon="-3.808692">
        <ele>1454.26</ele>
        <time>2021-03-28T01:32:35Z</time>
      </trkpt>
      <trkpt lat="41.023483" lon="-3.808762">
        <ele>1455.92</ele>
        <time>2021-03-28T01:32:37Z</time>
      </trkpt>
      <trkpt lat="41.023691" lon="-3.808952">
        <ele>1462.25</ele>
        <time>2021-03-28T01:32:39Z</time>
      </trkpt>
      <trkpt lat="41.023786" lon="-3.80901">
        <ele>1463.38</ele>
        <time>2021-03-28T01:32:40Z</time>
      </trkpt>
      <trkpt lat="41.023865" lon="-3.809021">
        <ele>1462.97</ele>
        <time>2021-03-28T01:32:42Z</time>
      </trkpt>
      <trkpt lat="41.024048" lon="-3.808918">
        <ele>1458.61</ele>
        <time>2021-03-28T01:32:44Z</time>
      </trkpt>
      <trkpt lat="41.024877" lon="-3.808173">
        <ele>1448.18</ele>
        <time>2021-03-28T01:32:46Z</time>
      </trkpt>
      <trkpt lat="41.024998" lon="-3.808127">
        <ele>1448.02</ele>
        <time>2021-03-28T01:32:48Z</time>
      </trkpt>
      <trkpt lat="41.025239" lon="-3.808112">
        <ele>1445.92</ele>
        <time>2021-03-28T01:32:50Z</time>
      </trkpt>
      <trkpt lat="41.025792" lon="-3.808217">
        <ele>1446.39</ele>
        <time>2021-03-28T01:32:52Z</time>
      </trkpt>
      <trkpt lat="41.026427" lon="-3.808183">
        <ele>1439.4</ele>
        <time>2021-03-28T01:32:54Z</time>
      </trkpt>
      <trkpt lat="41.026858" lon="-3.808212">
        <ele>1437.7</ele>
        <time>2021-03-28T01:32:56Z</time>
      </trkpt>
      <trkpt lat="41.027182" lon="-3.808298">
        <ele>1438.5</ele>
        <time>2021-03-28T01:32:58Z</time>
      </trkpt>
      <trkpt lat="41.027318" lon="-3.808363">
        <ele>1437.94</ele>
        <time>2021-03-28T01:33:00Z</time>
      </trkpt>
      <trkpt lat="41.027491" lon="-3.808485">
        <ele>1436.76</ele>
        <time>2021-03-28T01:33:02Z</time>
      </trkpt>
      <trkpt lat="41.027577" lon="-3.808578">
        <ele>1436.78</ele>
        <time>2021-03-28T01:33:04Z</time>
      </trkpt>
      <trkpt lat="41.027665" lon="-3.808711">
        <ele>1437.23</ele>
        <time>2021-03-28T01:33:06Z</time>
      </trkpt>
      <trkpt lat="41.02778" lon="-3.808942">
        <ele>1437.66</ele>
        <time>2021-03-28T01:33:07Z</time>
      </trkpt>
      <trkpt lat="41.027938" lon="-3.809398">
        <ele>1437.14</ele>
        <time>2021-03-28T01:33:09Z</time>
      </trkpt>
      <trkpt lat="41.02806" lon="-3.80969">
        <ele>1433.55</ele>
        <time>2021-03-28T01:33:11Z</time>
      </trkpt>
      <trkpt lat="41.02817" lon="-3.809922">
        <ele>1432.97</ele>
        <time>2021-03-28T01:33:13Z</time>
      </trkpt>
      <trkpt lat="41.028216" lon="-3.809979">
        <ele>1432.2</ele>
        <time>2021-03-28T01:33:15Z</time>
      </trkpt>
      <trkpt lat="41.028281" lon="-3.810006">
        <ele>1430.64</ele>
        <time>2021-03-28T01:33:17Z</time>
      </trkpt>
      <trkpt lat="41.028338" lon="-3.809971">
        <ele>1428.85</ele>
        <time>2021-03-28T01:33:19Z</time>
      </trkpt>
      <trkpt lat="41.028566" lon="-3.8096">
        <ele>1426.22</ele>
        <time>2021-03-28T01:33:21Z</time>
      </trkpt>
      <trkpt lat="41.028668" lon="-3.809479">
        <ele>1424.54</ele>
        <time>2021-03-28T01:33:23Z</time>
      </trkpt>
      <trkpt lat="41.028906" lon="-3.809386">
        <ele>1423.17</ele>
        <time>2021-03-28T01:33:25Z</time>
      </trkpt>
      <trkpt lat="41.029142" lon="-3.809382">
        <ele>1423.3</ele>
        <time>2021-03-28T01:33:27Z</time>
      </trkpt>
      <trkpt lat="41.029472" lon="-3.809469">
        <ele>1424.85</ele>
        <time>2021-03-28T01:33:29Z</time>
      </trkpt>
      <trkpt lat="41.029594" lon="-3.809569">
        <ele>1423.95</ele>
        <time>2021-03-28T01:33:31Z</time>
      </trkpt>
      <trkpt lat="41.029708" lon="-3.809708">
        <ele>1423.16</ele>
        <time>2021-03-28T01:33:33Z</time>
      </trkpt>
      <trkpt lat="41.029784" lon="-3.809838">
        <ele>1423.78</ele>
        <time>2021-03-28T01:33:34Z</time>
      </trkpt>
      <trkpt lat="41.029956" lon="-3.810047">
        <ele>1424.63</ele>
        <time>2021-03-28T01:33:36Z</time>
      </trkpt>
      <trkpt lat="41.030051" lon="-3.810104">
        <ele>1424.4</ele>
        <time>2021-03-28T01:33:38Z</time>
      </trkpt>
      <trkpt lat="41.030702" lon="-3.810299">
        <ele>1415.55</ele>
        <time>2021-03-28T01:33:40Z</time>
      </trkpt>
      <trkpt lat="41.030945" lon="-3.810301">
        <ele>1409.93</ele>
        <time>2021-03-28T01:33:42Z</time>
      </trkpt>
      <trkpt lat="41.032834" lon="-3.809703">
        <ele>1388.89</ele>
        <time>2021-03-28T01:33:44Z</time>
      </trkpt>
      <trkpt lat="41.034271" lon="-3.808964">
        <ele>1370.5</ele>
        <time>2021-03-28T01:33:46Z</time>
      </trkpt>
      <trkpt lat="41.034416" lon="-3.808912">
        <ele>1368.67</ele>
        <time>2021-03-28T01:33:48Z</time>
      </trkpt>
      <trkpt lat="41.034536" lon="-3.80892">
        <ele>1367.83</ele>
        <time>2021-03-28T01:33:50Z</time>
      </trkpt>
      <trkpt lat="41.034653" lon="-3.808983">
        <ele>1367.94</ele>
        <time>2021-03-28T01:33:52Z</time>
      </trkpt>
      <trkpt lat="41.034986" lon="-3.809396">
        <ele>1369.48</ele>
        <time>2021-03-28T01:33:54Z</time>
      </trkpt>
      <trkpt lat="41.0351" lon="-3.809458">
        <ele>1369.43</ele>
        <time>2021-03-28T01:33:56Z</time>
      </trkpt>
      <trkpt lat="41.035282" lon="-3.809443">
        <ele>1368.01</ele>
        <time>2021-03-28T01:33:58Z</time>
      </trkpt>
      <trkpt lat="41.036364" lon="-3.809114">
        <ele>1363.03</ele>
        <time>2021-03-28T01:33:59Z</time>
      </trkpt>
      <trkpt lat="41.036522" lon="-3.809083">
        <ele>1362.55</ele>
        <time>2021-03-28T01:34:01Z</time>
      </trkpt>
      <trkpt lat="41.036747" lon="-3.809087">
        <ele>1361.64</ele>
        <time>2021-03-28T01:34:03Z</time>
      </trkpt>
      <trkpt lat="41.038067" lon="-3.809348">
        <ele>1350.58</ele>
        <time>2021-03-28T01:34:05Z</time>
      </trkpt>
      <trkpt lat="41.03929" lon="-3.809555">
        <ele>1343.75</ele>
        <time>2021-03-28T01:34:07Z</time>
      </trkpt>
      <trkpt lat="41.039456" lon="-3.809641">
        <ele>1341.96</ele>
        <time>2021-03-28T01:34:09Z</time>
      </trkpt>
      <trkpt lat="41.03981" lon="-3.809944">
        <ele>1340.38</ele>
        <time>2021-03-28T01:34:11Z</time>
      </trkpt>
      <trkpt lat="41.039973" lon="-3.809995">
        <ele>1339.22</ele>
        <time>2021-03-28T01:34:13Z</time>
      </trkpt>
      <trkpt lat="41.040305" lon="-3.809911">
        <ele>1333.65</ele>
        <time>2021-03-28T01:34:15Z</time>
      </trkpt>
      <trkpt lat="41.04151" lon="-3.809523">
        <ele>1325.69</ele>
        <time>2021-03-28T01:34:17Z</time>
      </trkpt>
      <trkpt lat="41.041845" lon="-3.80944">
        <ele>1322.67</ele>
        <time>2021-03-28T01:34:19Z</time>
      </trkpt>
      <trkpt lat="41.042137" lon="-3.809496">
        <ele>1321.04</ele>
        <time>2021-03-28T01:34:21Z</time>
      </trkpt>
      <trkpt lat="41.042384" lon="-3.809615">
        <ele>1318.81</ele>
        <time>2021-03-28T01:34:23Z</time>
      </trkpt>
      <trkpt lat="41.045507" lon="-3.811607">
        <ele>1297.39</ele>
        <time>2021-03-28T01:34:25Z</time>
      </trkpt>
      <trkpt lat="41.046349" lon="-3.812161">
        <ele>1297.3</ele>
        <time>2021-03-28T01:34:26Z</time>
      </trkpt>
      <trkpt lat="41.046486" lon="-3.812332">
        <ele>1296.21</ele>
        <time>2021-03-28T01:34:28Z</time>
      </trkpt>
      <trkpt lat="41.046568" lon="-3.812477">
        <ele>1295.16</ele>
        <time>2021-03-28T01:34:30Z</time>
      </trkpt>
      <trkpt lat="41.047999" lon="-3.815725">
        <ele>1277.39</ele>
        <time>2021-03-28T01:34:32Z</time>
      </trkpt>
      <trkpt lat="41.048493" lon="-3.816793">
        <ele>1273.01</ele>
        <time>2021-03-28T01:34:34Z</time>
      </trkpt>
      <trkpt lat="41.048699" lon="-3.817145">
        <ele>1271.68</ele>
        <time>2021-03-28T01:34:36Z</time>
      </trkpt>
      <trkpt lat="41.04898" lon="-3.81757">
        <ele>1268.84</ele>
        <time>2021-03-28T01:34:38Z</time>
      </trkpt>
      <trkpt lat="41.04988" lon="-3.818699">
        <ele>1259.82</ele>
        <time>2021-03-28T01:34:40Z</time>
      </trkpt>
      <trkpt lat="41.049358" lon="-3.819779">
        <ele>1254.0</ele>
        <time>2021-03-28T01:34:46Z</time>
      </trkpt>
      <trkpt lat="41.04909" lon="-3.819952">
        <ele>1253.72</ele>
        <time>2021-03-28T01:34:52Z</time>
      </trkpt>
      <trkpt lat="41.048884" lon="-3.819975">
        <ele>1252.98</ele>
        <time>2021-03-28T01:34:57Z</time>
      </trkpt>
      <trkpt lat="41.049126" lon="-3.820309">
        <ele>1253.74</ele>
        <time>2021-03-28T01:35:03Z</time>
      </trkpt>
      <trkpt lat="41.04941" lon="-3.820643">
        <ele>1252.96</ele>
        <time>2021-03-28T01:35:08Z</time>
      </trkpt>
      <trkpt lat="41.049963" lon="-3.821182">
        <ele>1249.01</ele>
        <time>2021-03-28T01:35:14Z</time>
      </trkpt>
      <trkpt lat="41.050118" lon="-3.821434">
        <ele>1246.89</ele>
        <time>2021-03-28T01:35:20Z</time>
      </trkpt>
      <trkpt lat="41.050629" lon="-3.821987">
        <ele>1241.38</ele>
        <time>2021-03-28T01:35:25Z</time>
      </trkpt>
      <trkpt lat="41.050922" lon="-3.822137">
        <ele>1238.5</ele>
        <time>2021-03-28T01:35:31Z</time>
      </trkpt>
      <trkpt lat="41.05106" lon="-3.822237">
        <ele>1237.09</ele>
        <time>2021-03-28T01:35:36Z</time>
      </trkpt>
      <trkpt lat="41.051242" lon="-3.822415">
        <ele>1233.72</ele>
        <time>2021-03-28T01:35:42Z</time>
      </trkpt>
      <trkpt lat="41.052122" lon="-3.8228">
        <ele>1225.76</ele>
        <time>2021-03-28T01:35:47Z</time>
      </trkpt>
      <trkpt lat="41.052238" lon="-3.822941">
        <ele>1224.15</ele>
        <time>2021-03-28T01:35:53Z</time>
      </trkpt>
      <trkpt lat="41.053103" lon="-3.82422">
        <ele>1212.65</ele>
        <time>2021-03-28T01:35:59Z</time>
      </trkpt>
      <trkpt lat="41.053277" lon="-3.824442">
        <ele>1211.81</ele>
        <time>2021-03-28T01:36:04Z</time>
      </trkpt>
      <trkpt lat="41.053563" lon="-3.824636">
        <ele>1211.31</ele>
        <time>2021-03-28T01:36:10Z</time>
      </trkpt>
      <trkpt lat="41.053544" lon="-3.824811">
        <ele>1210.68</ele>
        <time>2021-03-28T01:36:12Z</time>
      </trkpt>
      <trkpt lat="41.053564" lon="-3.824926">
        <ele>1210.27</ele>
        <time>2021-03-28T01:36:14Z</time>
      </trkpt>
      <trkpt lat="41.053739" lon="-3.825018">
        <ele>1209.9</ele>
        <time>2021-03-28T01:36:20Z</time>
      </trkpt>
      <trkpt lat="41.053928" lon="-3.825048">
        <ele>1209.42</ele>
        <time>2021-03-28T01:36:27Z</time>
      </trkpt>
      <trkpt lat="41.054164" lon="-3.824931">
        <ele>1208.26</ele>
        <time>2021-03-28T01:36:33Z</time>
      </trkpt>
      <trkpt lat="41.054289" lon="-3.824975">
        <ele>1207.2</ele>
        <time>2021-03-28T01:36:36Z</time>
      </trkpt>
      <trkpt lat="41.054788" lon="-3.825292">
        <ele>1199.71</ele>
        <time>2021-03-28T01:36:38Z</time>
      </trkpt>
      <trkpt lat="41.055021" lon="-3.825349">
        <ele>1198.88</ele>
        <time>2021-03-28T01:36:40Z</time>
      </trkpt>
      <trkpt lat="41.05546" lon="-3.825257">
        <ele>1200.34</ele>
        <time>2021-03-28T01:36:42Z</time>
      </trkpt>
      <trkpt lat="41.055688" lon="-3.825362">
        <ele>1199.04</ele>
        <time>2021-03-28T01:36:45Z</time>
      </trkpt>
      <trkpt lat="41.056133" lon="-3.825661">
        <ele>1194.84</ele>
        <time>2021-03-28T01:36:47Z</time>
      </trkpt>
      <trkpt lat="41.056808" lon="-3.826022">
        <ele>1189.46</ele>
        <time>2021-03-28T01:36:49Z</time>
      </trkpt>
      <trkpt lat="41.056938" lon="-3.826219">
        <ele>1187.65</ele>
        <time>2021-03-28T01:36:51Z</time>
      </trkpt>
      <trkpt lat="41.05712" lon="-3.826452">
        <ele>1185.2</ele>
        <time>2021-03-28T01:36:54Z</time>
      </trkpt>
      <trkpt lat="41.057321" lon="-3.826627">
        <ele>1182.93</ele>
        <time>2021-03-28T01:36:56Z</time>
      </trkpt>
      <trkpt lat="41.05744" lon="-3.826755">
        <ele>1181.65</ele>
        <time>2021-03-28T01:36:58Z</time>
      </trkpt>
      <trkpt lat="41.057527" lon="-3.826871">
        <ele>1180.33</ele>
        <time>2021-03-28T01:37:00Z</time>
      </trkpt>
      <trkpt lat="41.05761" lon="-3.827053">
        <ele>1179.21</ele>
        <time>2021-03-28T01:37:03Z</time>
      </trkpt>
      <trkpt lat="41.057742" lon="-3.827509">
        <ele>1179.26</ele>
        <time>2021-03-28T01:37:05Z</time>
      </trkpt>
      <trkpt lat="41.057765" lon="-3.827651">
        <ele>1179.11</ele>
        <time>2021-03-28T01:37:07Z</time>
      </trkpt>
      <trkpt lat="41.058033" lon="-3.828503">
        <ele>1182.02</ele>
        <time>2021-03-28T01:37:09Z</time>
      </trkpt>
      <trkpt lat="41.058127" lon="-3.828686">
        <ele>1183.09</ele>
        <time>2021-03-28T01:37:12Z</time>
      </trkpt>
      <trkpt lat="41.058225" lon="-3.828799">
        <ele>1183.55</ele>
        <time>2021-03-28T01:37:14Z</time>
      </trkpt>
      <trkpt lat="41.058338" lon="-3.828864">
        <ele>1183.75</ele>
        <time>2021-03-28T01:37:16Z</time>
      </trkpt>
      <trkpt lat="41.058541" lon="-3.828921">
        <ele>1184.86</ele>
        <time>2021-03-28T01:37:18Z</time>
      </trkpt>
      <trkpt lat="41.058714" lon="-3.829007">
        <ele>1185.58</ele>
        <time>2021-03-28T01:37:21Z</time>
      </trkpt>
      <trkpt lat="41.058795" lon="-3.829102">
        <ele>1186.28</ele>
        <time>2021-03-28T01:37:23Z</time>
      </trkpt>
      <trkpt lat="41.058879" lon="-3.829241">
        <ele>1187.24</ele>
        <time>2021-03-28T01:37:25Z</time>
      </trkpt>
      <trkpt lat="41.059169" lon="-3.829846">
        <ele>1188.44</ele>
        <time>2021-03-28T01:37:27Z</time>
      </trkpt>
      <trkpt lat="41.059292" lon="-3.830149">
        <ele>1189.08</ele>
        <time>2021-03-28T01:37:30Z</time>
      </trkpt>
      <trkpt lat="41.059383" lon="-3.830414">
        <ele>1189.71</ele>
        <time>2021-03-28T01:37:32Z</time>
      </trkpt>
      <trkpt lat="41.059416" lon="-3.830599">
        <ele>1190.12</ele>
        <time>2021-03-28T01:37:34Z</time>
      </trkpt>
      <trkpt lat="41.05949" lon="-3.830856">
        <ele>1189.75</ele>
        <time>2021-03-28T01:37:36Z</time>
      </trkpt>
      <trkpt lat="41.059559" lon="-3.831024">
        <ele>1188.9</ele>
        <time>2021-03-28T01:37:39Z</time>
      </trkpt>
      <trkpt lat="41.059947" lon="-3.831603">
        <ele>1188.0</ele>
        <time>2021-03-28T01:37:41Z</time>
      </trkpt>
      <trkpt lat="41.06002" lon="-3.831746">
        <ele>1188.13</ele>
        <time>2021-03-28T01:37:43Z</time>
      </trkpt>
      <trkpt lat="41.060081" lon="-3.832071">
        <ele>1189.07</ele>
        <time>2021-03-28T01:37:45Z</time>
      </trkpt>
      <trkpt lat="41.060174" lon="-3.832402">
        <ele>1190.65</ele>
        <time>2021-03-28T01:37:48Z</time>
      </trkpt>
      <trkpt lat="41.060465" lon="-3.832852">
        <ele>1190.83</ele>
        <time>2021-03-28T01:37:50Z</time>
      </trkpt>
      <trkpt lat="41.060561" lon="-3.83298">
        <ele>1190.71</ele>
        <time>2021-03-28T01:37:52Z</time>
      </trkpt>
      <trkpt lat="41.060702" lon="-3.833127">
        <ele>1190.73</ele>
        <time>2021-03-28T01:37:54Z</time>
      </trkpt>
      <trkpt lat="41.060888" lon="-3.833247">
        <ele>1190.36</ele>
        <time>2021-03-28T01:37:57Z</time>
      </trkpt>
      <trkpt lat="41.061086" lon="-3.833331">
        <ele>1189.18</ele>
        <time>2021-03-28T01:37:59Z</time>
      </trkpt>
      <trkpt lat="41.061357" lon="-3.833386">
        <ele>1187.25</ele>
        <time>2021-03-28T01:38:01Z</time>
      </trkpt>
      <trkpt lat="41.063138" lon="-3.833588">
        <ele>1180.68</ele>
        <time>2021-03-28T01:38:03Z</time>
      </trkpt>
      <trkpt lat="41.063558" lon="-3.83359">
        <ele>1178.37</ele>
        <time>2021-03-28T01:38:06Z</time>
      </trkpt>
      <trkpt lat="41.063711" lon="-3.833596">
        <ele>1179.06</ele>
        <time>2021-03-28T01:38:11Z</time>
      </trkpt>
      <trkpt lat="41.063819" lon="-3.833621">
        <ele>1180.26</ele>
        <time>2021-03-28T01:38:16Z</time>
      </trkpt>
      <trkpt lat="41.06387" lon="-3.833669">
        <ele>1180.81</ele>
        <time>2021-03-28T01:38:22Z</time>
      </trkpt>
      <trkpt lat="41.063903" lon="-3.833745">
        <ele>1180.97</ele>
        <time>2021-03-28T01:38:27Z</time>
      </trkpt>
      <trkpt lat="41.063888" lon="-3.834329">
        <ele>1183.17</ele>
        <time>2021-03-28T01:38:33Z</time>
      </trkpt>
      <trkpt lat="41.0639" lon="-3.834871">
        <ele>1185.21</ele>
        <time>2021-03-28T01:38:38Z</time>
      </trkpt>
      <trkpt lat="41.063815" lon="-3.836659">
        <ele>1179.22</ele>
        <time>2021-03-28T01:38:43Z</time>
      </trkpt>
      <trkpt lat="41.063786" lon="-3.837962">
        <ele>1181.0</ele>
        <time>2021-03-28T01:38:49Z</time>
      </trkpt>
      <trkpt lat="41.063729" lon="-3.840659">
        <ele>1184.0</ele>
        <time>2021-03-28T01:38:54Z</time>
      </trkpt>
      <trkpt lat="41.063727" lon="-3.841128">
        <ele>1184.48</ele>
        <time>2021-03-28T01:38:59Z</time>
      </trkpt>
      <trkpt lat="41.063761" lon="-3.842172">
        <ele>1187.0</ele>
        <time>2021-03-28T01:39:05Z</time>
      </trkpt>
      <trkpt lat="41.063809" lon="-3.842853">
        <ele>1187.56</ele>
        <time>2021-03-28T01:39:10Z</time>
      </trkpt>
      <trkpt lat="41.063912" lon="-3.843859">
        <ele>1189.09</ele>
        <time>2021-03-28T01:39:15Z</time>
      </trkpt>
      <trkpt lat="41.064291" lon="-3.846513">
        <ele>1195.94</ele>
        <time>2021-03-28T01:39:21Z</time>
      </trkpt>
      <trkpt lat="41.064392" lon="-3.847378">
        <ele>1199.77</ele>
        <time>2021-03-28T01:39:26Z</time>
      </trkpt>
      <trkpt lat="41.064483" lon="-3.848747">
        <ele>1202.65</ele>
        <time>2021-03-28T01:39:31Z</time>
      </trkpt>
      <trkpt lat="41.064496" lon="-3.84937">
        <ele>1204.91</ele>
        <time>2021-03-28T01:39:37Z</time>
      </trkpt>
      <trkpt lat="41.064472" lon="-3.850782">
        <ele>1209.81</ele>
        <time>2021-03-28T01:39:42Z</time>
      </trkpt>
      <trkpt lat="41.06442" lon="-3.851552">
        <ele>1212.67</ele>
        <time>2021-03-28T01:39:48Z</time>
      </trkpt>
      <trkpt lat="41.064298" lon="-3.852675">
        <ele>1214.35</ele>
        <time>2021-03-28T01:39:53Z</time>
      </trkpt>
      <trkpt lat="41.064125" lon="-3.85379">
        <ele>1217.7</ele>
        <time>2021-03-28T01:39:58Z</time>
      </trkpt>
      <trkpt lat="41.063943" lon="-3.854693">
        <ele>1220.39</ele>
        <time>2021-03-28T01:40:04Z</time>
      </trkpt>
      <trkpt lat="41.063722" lon="-3.855602">
        <ele>1223.1</ele>
        <time>2021-03-28T01:40:09Z</time>
      </trkpt>
      <trkpt lat="41.060542" lon="-3.867869">
        <ele>1240.75</ele>
        <time>2021-03-28T01:40:14Z</time>
      </trkpt>
      <trkpt lat="41.060205" lon="-3.869263">
        <ele>1236.69</ele>
        <time>2021-03-28T01:40:20Z</time>
      </trkpt>
      <trkpt lat="41.060027" lon="-3.870196">
        <ele>1238.54</ele>
        <time>2021-03-28T01:40:25Z</time>
      </trkpt>
      <trkpt lat="41.059928" lon="-3.870875">
        <ele>1235.14</ele>
        <time>2021-03-28T01:40:30Z</time>
      </trkpt>
      <trkpt lat="41.059822" lon="-3.871917">
        <ele>1230.03</ele>
        <time>2021-03-28T01:40:36Z</time>
      </trkpt>
      <trkpt lat="41.059782" lon="-3.872607">
        <ele>1229.63</ele>
        <time>2021-03-28T01:40:41Z</time>
      </trkpt>
      <trkpt lat="41.059767" lon="-3.873237">
        <ele>1227.95</ele>
        <time>2021-03-28T01:40:47Z</time>
      </trkpt>
      <trkpt lat="41.059793" lon="-3.874563">
        <ele>1231.06</ele>
        <time>2021-03-28T01:40:52Z</time>
      </trkpt>
      <trkpt lat="41.059834" lon="-3.875153">
        <ele>1229.87</ele>
        <time>2021-03-28T01:40:57Z</time>
      </trkpt>
      <trkpt lat="41.05997" lon="-3.876336">
        <ele>1215.53</ele>
        <time>2021-03-28T01:41:03Z</time>
      </trkpt>
      <trkpt lat="41.060081" lon="-3.877066">
        <ele>1214.53</ele>
        <time>2021-03-28T01:41:08Z</time>
      </trkpt>
      <trkpt lat="41.060245" lon="-3.87787">
        <ele>1213.79</ele>
        <time>2021-03-28T01:41:13Z</time>
      </trkpt>
      <trkpt lat="41.060391" lon="-3.878472">
        <ele>1209.57</ele>
        <time>2021-03-28T01:41:19Z</time>
      </trkpt>
      <trkpt lat="41.060719" lon="-3.879595">
        <ele>1202.55</ele>
        <time>2021-03-28T01:41:24Z</time>
      </trkpt>
      <trkpt lat="41.061209" lon="-3.880911">
        <ele>1202.01</ele>
        <time>2021-03-28T01:41:29Z</time>
      </trkpt>
      <trkpt lat="41.061556" lon="-3.881699">
        <ele>1197.84</ele>
        <time>2021-03-28T01:41:35Z</time>
      </trkpt>
      <trkpt lat="41.062546" lon="-3.883796">
        <ele>1190.89</ele>
        <time>2021-03-28T01:41:40Z</time>
      </trkpt>
      <trkpt lat="41.062748" lon="-3.884348">
        <ele>1190.96</ele>
        <time>2021-03-28T01:41:45Z</time>
      </trkpt>
      <trkpt lat="41.062901" lon="-3.884849">
        <ele>1192.02</ele>
        <time>2021-03-28T01:41:51Z</time>
      </trkpt>
      <trkpt lat="41.062978" lon="-3.885176">
        <ele>1192.91</ele>
        <time>2021-03-28T01:41:56Z</time>
      </trkpt>
      <trkpt lat="41.063098" lon="-3.885847">
        <ele>1188.14</ele>
        <time>2021-03-28T01:42:02Z</time>
      </trkpt>
      <trkpt lat="41.063191" lon="-3.886476">
        <ele>1188.02</ele>
        <time>2021-03-28T01:42:07Z</time>
      </trkpt>
      <trkpt lat="41.063229" lon="-3.887074">
        <ele>1187.01</ele>
        <time>2021-03-28T01:42:12Z</time>
      </trkpt>
      <trkpt lat="41.063231" lon="-3.887558">
        <ele>1188.47</ele>
        <time>2021-03-28T01:42:18Z</time>
      </trkpt>
      <trkpt lat="41.0632" lon="-3.888086">
        <ele>1186.28</ele>
        <time>2021-03-28T01:42:23Z</time>
      </trkpt>
      <trkpt lat="41.063051" lon="-3.889056">
        <ele>1188.23</ele>
        <time>2021-03-28T01:42:28Z</time>
      </trkpt>
      <trkpt lat="41.062845" lon="-3.889868">
        <ele>1186.35</ele>
        <time>2021-03-28T01:42:34Z</time>
      </trkpt>
      <trkpt lat="41.062633" lon="-3.890481">
        <ele>1188.65</ele>
        <time>2021-03-28T01:42:39Z</time>
      </trkpt>
      <trkpt lat="41.062472" lon="-3.890836">
        <ele>1190.19</ele>
        <time>2021-03-28T01:42:44Z</time>
      </trkpt>
      <trkpt lat="41.062236" lon="-3.891282">
        <ele>1190.87</ele>
        <time>2021-03-28T01:42:50Z</time>
      </trkpt>
      <trkpt lat="41.061999" lon="-3.891668">
        <ele>1191.6</ele>
        <time>2021-03-28T01:42:55Z</time>
      </trkpt>
      <trkpt lat="41.060515" lon="-3.894409">
        <ele>1192.27</ele>
        <time>2021-03-28T01:43:01Z</time>
      </trkpt>
      <trkpt lat="41.060157" lon="-3.895033">
        <ele>1192.93</ele>
        <time>2021-03-28T01:43:06Z</time>
      </trkpt>
      <trkpt lat="41.05936" lon="-3.89619">
        <ele>1192.91</ele>
        <time>2021-03-28T01:43:11Z</time>
      </trkpt>
      <trkpt lat="41.059117" lon="-3.896668">
        <ele>1191.18</ele>
        <time>2021-03-28T01:43:17Z</time>
      </trkpt>
      <trkpt lat="41.058771" lon="-3.897554">
        <ele>1190.12</ele>
        <time>2021-03-28T01:43:22Z</time>
      </trkpt>
      <trkpt lat="41.058594" lon="-3.897935">
        <ele>1189.59</ele>
        <time>2021-03-28T01:43:27Z</time>
      </trkpt>
      <trkpt lat="41.058489" lon="-3.898145">
        <ele>1190.49</ele>
        <time>2021-03-28T01:43:33Z</time>
      </trkpt>
      <trkpt lat="41.05835" lon="-3.898369">
        <ele>1191.76</ele>
        <time>2021-03-28T01:43:38Z</time>
      </trkpt>
      <trkpt lat="41.058176" lon="-3.898605">
        <ele>1191.59</ele>
        <time>2021-03-28T01:43:43Z</time>
      </trkpt>
      <trkpt lat="41.056389" lon="-3.900744">
        <ele>1197.68</ele>
        <time>2021-03-28T01:43:49Z</time>
      </trkpt>
      <trkpt lat="41.056056" lon="-3.901223">
        <ele>1196.35</ele>
        <time>2021-03-28T01:43:54Z</time>
      </trkpt>
      <trkpt lat="41.055518" lon="-3.902119">
        <ele>1194.18</ele>
        <time>2021-03-28T01:43:59Z</time>
      </trkpt>
      <trkpt lat="41.05515" lon="-3.902693">
        <ele>1196.2</ele>
        <time>2021-03-28T01:44:05Z</time>
      </trkpt>
      <trkpt lat="41.052891" lon="-3.905766">
        <ele>1198.81</ele>
        <time>2021-03-28T01:44:10Z</time>
      </trkpt>
      <trkpt lat="41.052891" lon="-3.905766">
        <ele>1198.81</ele>
        <time>2021-03-28T01:44:10Z</time>
      </trkpt>
      <trkpt lat="41.050742" lon="-3.908672">
        <ele>1200.7</ele>
        <time>2021-03-28T01:44:19Z</time>
      </trkpt>
      <trkpt lat="41.050321" lon="-3.909184">
        <ele>1202.84</ele>
        <time>2021-03-28T01:44:29Z</time>
      </trkpt>
      <trkpt lat="41.049937" lon="-3.909612">
        <ele>1205.47</ele>
        <time>2021-03-28T01:44:38Z</time>
      </trkpt>
      <trkpt lat="41.04953" lon="-3.91002">
        <ele>1204.57</ele>
        <time>2021-03-28T01:44:47Z</time>
      </trkpt>
      <trkpt lat="41.049129" lon="-3.91039">
        <ele>1203.41</ele>
        <time>2021-03-28T01:44:56Z</time>
      </trkpt>
      <trkpt lat="41.048689" lon="-3.910765">
        <ele>1205.51</ele>
        <time>2021-03-28T01:45:06Z</time>
      </trkpt>
      <trkpt lat="41.04345" lon="-3.914937">
        <ele>1215.68</ele>
        <time>2021-03-28T01:45:15Z</time>
      </trkpt>
      <trkpt lat="41.043163" lon="-3.915144">
        <ele>1216.63</ele>
        <time>2021-03-28T01:45:24Z</time>
      </trkpt>
      <trkpt lat="41.042844" lon="-3.915344">
        <ele>1217.42</ele>
        <time>2021-03-28T01:45:33Z</time>
      </trkpt>
      <trkpt lat="41.041509" lon="-3.9161">
        <ele>1217.73</ele>
        <time>2021-03-28T01:45:42Z</time>
      </trkpt>
      <trkpt lat="41.040667" lon="-3.916596">
        <ele>1218.3</ele>
        <time>2021-03-28T01:45:52Z</time>
      </trkpt>
      <trkpt lat="41.040434" lon="-3.916745">
        <ele>1219.44</ele>
        <time>2021-03-28T01:46:01Z</time>
      </trkpt>
      <trkpt lat="41.039719" lon="-3.917316">
        <ele>1221.36</ele>
        <time>2021-03-28T01:46:10Z</time>
      </trkpt>
      <trkpt lat="41.03944" lon="-3.917496">
        <ele>1223.01</ele>
        <time>2021-03-28T01:46:19Z</time>
      </trkpt>
      <trkpt lat="41.039217" lon="-3.917564">
        <ele>1223.59</ele>
        <time>2021-03-28T01:46:29Z</time>
      </trkpt>
      <trkpt lat="41.039037" lon="-3.917643">
        <ele>1223.95</ele>
        <time>2021-03-28T01:46:38Z</time>
      </trkpt>
      <trkpt lat="41.038686" lon="-3.917875">
        <ele>1225.55</ele>
        <time>2021-03-28T01:46:47Z</time>
      </trkpt>
      <trkpt lat="41.038436" lon="-3.918092">
        <ele>1226.05</ele>
        <time>2021-03-28T01:46:56Z</time>
      </trkpt>
      <trkpt lat="41.038227" lon="-3.91834">
        <ele>1225.99</ele>
        <time>2021-03-28T01:47:05Z</time>
      </trkpt>
      <trkpt lat="41.038137" lon="-3.918504">
        <ele>1225.56</ele>
        <time>2021-03-28T01:47:15Z</time>
      </trkpt>
      <trkpt lat="41.037977" lon="-3.918963">
        <ele>1223.83</ele>
        <time>2021-03-28T01:47:24Z</time>
      </trkpt>
      <trkpt lat="41.037525" lon="-3.920653">
        <ele>1222.21</ele>
        <time>2021-03-28T01:47:33Z</time>
      </trkpt>
      <trkpt lat="41.036732" lon="-3.923724">
        <ele>1215.27</ele>
        <time>2021-03-28T01:47:42Z</time>
      </trkpt>
      <trkpt lat="41.035596" lon="-3.928073">
        <ele>1207.73</ele>
        <time>2021-03-28T01:47:52Z</time>
      </trkpt>
      <trkpt lat="41.034661" lon="-3.931278">
        <ele>1200.47</ele>
        <time>2021-03-28T01:48:01Z</time>
      </trkpt>
      <trkpt lat="41.034518" lon="-3.93172">
        <ele>1197.69</ele>
        <time>2021-03-28T01:48:10Z</time>
      </trkpt>
      <trkpt lat="41.034304" lon="-3.932171">
        <ele>1193.78</ele>
        <time>2021-03-28T01:48:19Z</time>
      </trkpt>
      <trkpt lat="41.03408" lon="-3.932501">
        <ele>1193.31</ele>
        <time>2021-03-28T01:48:29Z</time>
      </trkpt>
      <trkpt lat="41.033057" lon="-3.933854">
        <ele>1190.13</ele>
        <time>2021-03-28T01:48:38Z</time>
      </trkpt>
      <trkpt lat="41.032345" lon="-3.934799">
        <ele>1185.44</ele>
        <time>2021-03-28T01:48:47Z</time>
      </trkpt>
      <trkpt lat="41.03192" lon="-3.935403">
        <ele>1185.15</ele>
        <time>2021-03-28T01:48:56Z</time>
      </trkpt>
      <trkpt lat="41.031547" lon="-3.936011">
        <ele>1179.99</ele>
        <time>2021-03-28T01:49:05Z</time>
      </trkpt>
      <trkpt lat="41.031118" lon="-3.936784">
        <ele>1178.69</ele>
        <time>2021-03-28T01:49:15Z</time>
      </trkpt>
      <trkpt lat="41.03085" lon="-3.937324">
        <ele>1176.96</ele>
        <time>2021-03-28T01:49:24Z</time>
      </trkpt>
      <trkpt lat="41.030524" lon="-3.938042">
        <ele>1174.94</ele>
        <time>2021-03-28T01:49:33Z</time>
      </trkpt>
      <trkpt lat="41.030337" lon="-3.9385">
        <ele>1172.14</ele>
        <time>2021-03-28T01:49:42Z</time>
      </trkpt>
      <trkpt lat="41.029954" lon="-3.939528">
        <ele>1172.28</ele>
        <time>2021-03-28T01:49:52Z</time>
      </trkpt>
      <trkpt lat="41.029262" lon="-3.941802">
        <ele>1166.86</ele>
        <time>2021-03-28T01:50:01Z</time>
      </trkpt>
      <trkpt lat="41.028737" lon="-3.943493">
        <ele>1165.78</ele>
        <time>2021-03-28T01:50:10Z</time>
      </trkpt>
      <trkpt lat="41.028388" lon="-3.944495">
        <ele>1163.62</ele>
        <time>2021-03-28T01:50:19Z</time>
      </trkpt>
      <trkpt lat="41.02801" lon="-3.945387">
        <ele>1161.7</ele>
        <time>2021-03-28T01:50:28Z</time>
      </trkpt>
      <trkpt lat="41.027478" lon="-3.946489">
        <ele>1157.61</ele>
        <time>2021-03-28T01:50:38Z</time>
      </trkpt>
      <trkpt lat="41.025705" lon="-3.949915">
        <ele>1147.46</ele>
        <time>2021-03-28T01:50:47Z</time>
      </trkpt>
      <trkpt lat="41.025474" lon="-3.950455">
        <ele>1147.36</ele>
        <time>2021-03-28T01:50:56Z</time>
      </trkpt>
      <trkpt lat="41.025381" lon="-3.95074">
        <ele>1146.33</ele>
        <time>2021-03-28T01:51:05Z</time>
      </trkpt>
      <trkpt lat="41.025104" lon="-3.951795">
        <ele>1146.0</ele>
        <time>2021-03-28T01:51:15Z</time>
      </trkpt>
      <trkpt lat="41.023426" lon="-3.958386">
        <ele>1160.85</ele>
        <time>2021-03-28T01:51:24Z</time>
      </trkpt>
      <trkpt lat="41.023347" lon="-3.958659">
        <ele>1162.12</ele>
        <time>2021-03-28T01:51:33Z</time>
      </trkpt>
      <trkpt lat="41.023149" lon="-3.959145">
        <ele>1164.69</ele>
        <time>2021-03-28T01:51:42Z</time>
      </trkpt>
      <trkpt lat="41.013474" lon="-3.977379">
        <ele>1147.77</ele>
        <time>2021-03-28T01:51:51Z</time>
      </trkpt>
      <trkpt lat="41.012667" lon="-3.978846">
        <ele>1141.31</ele>
        <time>2021-03-28T01:52:01Z</time>
      </trkpt>
      <trkpt lat="41.011189" lon="-3.981682">
        <ele>1140.15</ele>
        <time>2021-03-28T01:52:10Z</time>
      </trkpt>
      <trkpt lat="41.010762" lon="-3.982565">
        <ele>1134.94</ele>
        <time>2021-03-28T01:52:19Z</time>
      </trkpt>
      <trkpt lat="41.00929" lon="-3.985387">
        <ele>1141.0</ele>
        <time>2021-03-28T01:52:28Z</time>
      </trkpt>
      <trkpt lat="41.008978" lon="-3.986034">
        <ele>1143.14</ele>
        <time>2021-03-28T01:52:38Z</time>
      </trkpt>
      <trkpt lat="41.008556" lon="-3.987012">
        <ele>1149.71</ele>
        <time>2021-03-28T01:52:47Z</time>
      </trkpt>
      <trkpt lat="41.008354" lon="-3.987663">
        <ele>1146.88</ele>
        <time>2021-03-28T01:52:56Z</time>
      </trkpt>
      <trkpt lat="41.008136" lon="-3.988507">
        <ele>1152.11</ele>
        <time>2021-03-28T01:53:05Z</time>
      </trkpt>
      <trkpt lat="41.007981" lon="-3.989278">
        <ele>1158.05</ele>
        <time>2021-03-28T01:53:14Z</time>
      </trkpt>
      <trkpt lat="41.007794" lon="-3.990559">
        <ele>1161.88</ele>
        <time>2021-03-28T01:53:24Z</time>
      </trkpt>
      <trkpt lat="41.006643" lon="-3.999794">
        <ele>1191.65</ele>
        <time>2021-03-28T01:53:33Z</time>
      </trkpt>
      <trkpt lat="41.006425" lon="-4.001294">
        <ele>1183.6</ele>
        <time>2021-03-28T01:53:42Z</time>
      </trkpt>
      <trkpt lat="41.006253" lon="-4.002158">
        <ele>1181.83</ele>
        <time>2021-03-28T01:53:51Z</time>
      </trkpt>
      <trkpt lat="41.006075" lon="-4.002903">
        <ele>1178.21</ele>
        <time>2021-03-28T01:54:01Z</time>
      </trkpt>
      <trkpt lat="41.005779" lon="-4.003956">
        <ele>1173.76</ele>
        <time>2021-03-28T01:54:10Z</time>
      </trkpt>
      <trkpt lat="41.005432" lon="-4.00498">
        <ele>1169.55</ele>
        <time>2021-03-28T01:54:19Z</time>
      </trkpt>
      <trkpt lat="41.005161" lon="-4.005674">
        <ele>1165.54</ele>
        <time>2021-03-28T01:54:28Z</time>
      </trkpt>
      <trkpt lat="41.004765" lon="-4.006578">
        <ele>1159.32</ele>
        <time>2021-03-28T01:54:37Z</time>
      </trkpt>
      <trkpt lat="41.001605" lon="-4.012836">
        <ele>1144.63</ele>
        <time>2021-03-28T01:54:47Z</time>
      </trkpt>
      <trkpt lat="41.001245" lon="-4.01348">
        <ele>1141.71</ele>
        <time>2021-03-28T01:54:56Z</time>
      </trkpt>
      <trkpt lat="40.998997" lon="-4.017261">
        <ele>1146.47</ele>
        <time>2021-03-28T01:55:05Z</time>
      </trkpt>
      <trkpt lat="40.998569" lon="-4.017974">
        <ele>1143.9</ele>
        <time>2021-03-28T01:55:14Z</time>
      </trkpt>
      <trkpt lat="40.998278" lon="-4.018491">
        <ele>1147.2</ele>
        <time>2021-03-28T01:55:24Z</time>
      </trkpt>
      <trkpt lat="40.998126" lon="-4.018876">
        <ele>1146.79</ele>
        <time>2021-03-28T01:55:33Z</time>
      </trkpt>
      <trkpt lat="40.997969" lon="-4.019216">
        <ele>1146.8</ele>
        <time>2021-03-28T01:55:42Z</time>
      </trkpt>
      <trkpt lat="40.997171" lon="-4.020861">
        <ele>1151.16</ele>
        <time>2021-03-28T01:55:51Z</time>
      </trkpt>
      <trkpt lat="40.99703" lon="-4.021099">
        <ele>1151.03</ele>
        <time>2021-03-28T01:56:00Z</time>
      </trkpt>
      <trkpt lat="40.996844" lon="-4.021285">
        <ele>1151.36</ele>
        <time>2021-03-28T01:56:10Z</time>
      </trkpt>
      <trkpt lat="40.996626" lon="-4.021409">
        <ele>1152.14</ele>
        <time>2021-03-28T01:56:19Z</time>
      </trkpt>
      <trkpt lat="40.995511" lon="-4.021772">
        <ele>1149.84</ele>
        <time>2021-03-28T01:56:28Z</time>
      </trkpt>
      <trkpt lat="40.995178" lon="-4.021904">
        <ele>1148.64</ele>
        <time>2021-03-28T01:56:37Z</time>
      </trkpt>
      <trkpt lat="40.995082" lon="-4.021937">
        <ele>1148.3</ele>
        <time>2021-03-28T01:56:47Z</time>
      </trkpt>
      <trkpt lat="40.994822" lon="-4.022075">
        <ele>1148.94</ele>
        <time>2021-03-28T01:56:56Z</time>
      </trkpt>
      <trkpt lat="40.994353" lon="-4.022268">
        <ele>1151.05</ele>
        <time>2021-03-28T01:57:05Z</time>
      </trkpt>
      <trkpt lat="40.994272" lon="-4.022297">
        <ele>1151.17</ele>
        <time>2021-03-28T01:57:07Z</time>
      </trkpt>
      <trkpt lat="40.994094" lon="-4.022466">
        <ele>1152.14</ele>
        <time>2021-03-28T01:57:08Z</time>
      </trkpt>
      <trkpt lat="40.994038" lon="-4.022503">
        <ele>1152.46</ele>
        <time>2021-03-28T01:57:09Z</time>
      </trkpt>
      <trkpt lat="40.993965" lon="-4.0225">
        <ele>1152.72</ele>
        <time>2021-03-28T01:57:10Z</time>
      </trkpt>
      <trkpt lat="40.993893" lon="-4.022456">
        <ele>1152.83</ele>
        <time>2021-03-28T01:57:10Z</time>
      </trkpt>
      <trkpt lat="40.993872" lon="-4.022375">
        <ele>1152.57</ele>
        <time>2021-03-28T01:57:11Z</time>
      </trkpt>
      <trkpt lat="40.993761" lon="-4.022263">
        <ele>1152.54</ele>
        <time>2021-03-28T01:57:17Z</time>
      </trkpt>
      <trkpt lat="40.993655" lon="-4.022192">
        <ele>1152.64</ele>
        <time>2021-03-28T01:57:24Z</time>
      </trkpt>
      <trkpt lat="40.993478" lon="-4.022217">
        <ele>1152.98</ele>
        <time>2021-03-28T01:57:30Z</time>
      </trkpt>
      <trkpt lat="40.993307" lon="-4.022269">
        <ele>1153.26</ele>
        <time>2021-03-28T01:57:37Z</time>
      </trkpt>
      <trkpt lat="40.992496" lon="-4.022637">
        <ele>1155.51</ele>
        <time>2021-03-28T01:57:43Z</time>
      </trkpt>
      <trkpt lat="40.991575" lon="-4.023025">
        <ele>1156.71</ele>
        <time>2021-03-28T01:57:50Z</time>
      </trkpt>
      <trkpt lat="40.990936" lon="-4.023473">
        <ele>1153.69</ele>
        <time>2021-03-28T01:57:56Z</time>
      </trkpt>
      <trkpt lat="40.990791" lon="-4.023539">
        <ele>1153.55</ele>
        <time>2021-03-28T01:58:02Z</time>
      </trkpt>
      <trkpt lat="40.988894" lon="-4.023724">
        <ele>1144.86</ele>
        <time>2021-03-28T01:58:09Z</time>
      </trkpt>
      <trkpt lat="40.987968" lon="-4.023844">
        <ele>1138.26</ele>
        <time>2021-03-28T01:58:15Z</time>
      </trkpt>
      <trkpt lat="40.986844" lon="-4.02399">
        <ele>1136.23</ele>
        <time>2021-03-28T01:58:22Z</time>
      </trkpt>
      <trkpt lat="40.984748" lon="-4.023921">
        <ele>1128.96</ele>
        <time>2021-03-28T01:58:28Z</time>
      </trkpt>
      <trkpt lat="40.984378" lon="-4.023876">
        <ele>1127.55</ele>
        <time>2021-03-28T01:58:34Z</time>
      </trkpt>
      <trkpt lat="40.983196" lon="-4.023467">
        <ele>1120.0</ele>
        <time>2021-03-28T01:58:41Z</time>
      </trkpt>
      <trkpt lat="40.98283" lon="-4.02341">
        <ele>1120.81</ele>
        <time>2021-03-28T01:58:47Z</time>
      </trkpt>
      <trkpt lat="40.981979" lon="-4.023516">
        <ele>1115.49</ele>
        <time>2021-03-28T01:58:54Z</time>
      </trkpt>
      <trkpt lat="40.98046" lon="-4.023877">
        <ele>1110.34</ele>
        <time>2021-03-28T01:59:00Z</time>
      </trkpt>
      <trkpt lat="40.978896" lon="-4.024237">
        <ele>1117.66</ele>
        <time>2021-03-28T01:59:06Z</time>
      </trkpt>
      <trkpt lat="40.978485" lon="-4.024374">
        <ele>1118.39</ele>
        <time>2021-03-28T01:59:13Z</time>
      </trkpt>
      <trkpt lat="40.978203" lon="-4.024529">
        <ele>1117.86</ele>
        <time>2021-03-28T01:59:19Z</time>
      </trkpt>
      <trkpt lat="40.97553" lon="-4.026547">
        <ele>1128.0</ele>
        <time>2021-03-28T01:59:26Z</time>
      </trkpt>
      <trkpt lat="40.97521" lon="-4.02686">
        <ele>1128.24</ele>
        <time>2021-03-28T01:59:32Z</time>
      </trkpt>
      <trkpt lat="40.974913" lon="-4.027282">
        <ele>1128.54</ele>
        <time>2021-03-28T01:59:39Z</time>
      </trkpt>
      <trkpt lat="40.974698" lon="-4.027676">
        <ele>1127.37</ele>
        <time>2021-03-28T01:59:45Z</time>
      </trkpt>
      <trkpt lat="40.974116" lon="-4.028773">
        <ele>1127.42</ele>
        <time>2021-03-28T01:59:51Z</time>
      </trkpt>
      <trkpt lat="40.973401" lon="-4.030048">
        <ele>1126.89</ele>
        <time>2021-03-28T01:59:56Z</time>
      </trkpt>
      <trkpt lat="40.973043" lon="-4.030441">
        <ele>1127.46</ele>
        <time>2021-03-28T02:00:02Z</time>
      </trkpt>
      <trkpt lat="40.972547" lon="-4.030854">
        <ele>1126.51</ele>
        <time>2021-03-28T02:00:07Z</time>
      </trkpt>
      <trkpt lat="40.971926" lon="-4.031299">
        <ele>1129.02</ele>
        <time>2021-03-28T02:00:13Z</time>
      </trkpt>
      <trkpt lat="40.971527" lon="-4.031543">
        <ele>1130.0</ele>
        <time>2021-03-28T02:00:18Z</time>
      </trkpt>
      <trkpt lat="40.970446" lon="-4.032106">
        <ele>1129.77</ele>
        <time>2021-03-28T02:00:24Z</time>
      </trkpt>
      <trkpt lat="40.969941" lon="-4.032255">
        <ele>1128.67</ele>
        <time>2021-03-28T02:00:29Z</time>
      </trkpt>
      <trkpt lat="40.969634" lon="-4.03228">
        <ele>1126.77</ele>
        <time>2021-03-28T02:00:35Z</time>
      </trkpt>
      <trkpt lat="40.968271" lon="-4.032211">
        <ele>1115.47</ele>
        <time>2021-03-28T02:00:41Z</time>
      </trkpt>
      <trkpt lat="40.967964" lon="-4.032251">
        <ele>1117.81</ele>
        <time>2021-03-28T02:00:46Z</time>
      </trkpt>
      <trkpt lat="40.967457" lon="-4.032374">
        <ele>1121.45</ele>
        <time>2021-03-28T02:00:52Z</time>
      </trkpt>
      <trkpt lat="40.966031" lon="-4.033369">
        <ele>1127.88</ele>
        <time>2021-03-28T02:00:57Z</time>
      </trkpt>
      <trkpt lat="40.965548" lon="-4.033693">
        <ele>1130.38</ele>
        <time>2021-03-28T02:01:03Z</time>
      </trkpt>
      <trkpt lat="40.965279" lon="-4.033803">
        <ele>1132.61</ele>
        <time>2021-03-28T02:01:08Z</time>
      </trkpt>
      <trkpt lat="40.964958" lon="-4.033836">
        <ele>1135.46</ele>
        <time>2021-03-28T02:01:14Z</time>
      </trkpt>
      <trkpt lat="40.964603" lon="-4.033773">
        <ele>1137.43</ele>
        <time>2021-03-28T02:01:20Z</time>
      </trkpt>
      <trkpt lat="40.964328" lon="-4.033586">
        <ele>1138.0</ele>
        <time>2021-03-28T02:01:25Z</time>
      </trkpt>
      <trkpt lat="40.96417" lon="-4.033423">
        <ele>1138.0</ele>
        <time>2021-03-28T02:01:31Z</time>
      </trkpt>
      <trkpt lat="40.963617" lon="-4.03275">
        <ele>1135.04</ele>
        <time>2021-03-28T02:01:36Z</time>
      </trkpt>
      <trkpt lat="40.963297" lon="-4.032411">
        <ele>1134.82</ele>
        <time>2021-03-28T02:01:42Z</time>
      </trkpt>
      <trkpt lat="40.962878" lon="-4.032222">
        <ele>1133.72</ele>
        <time>2021-03-28T02:01:47Z</time>
      </trkpt>
      <trkpt lat="40.96257" lon="-4.032227">
        <ele>1130.73</ele>
        <time>2021-03-28T02:01:53Z</time>
      </trkpt>
      <trkpt lat="40.962181" lon="-4.032333">
        <ele>1129.6</ele>
        <time>2021-03-28T02:01:58Z</time>
      </trkpt>
      <trkpt lat="40.956218" lon="-4.034576">
        <ele>1130.53</ele>
        <time>2021-03-28T02:02:04Z</time>
      </trkpt>
      <trkpt lat="40.955969" lon="-4.034646">
        <ele>1130.13</ele>
        <time>2021-03-28T02:02:10Z</time>
      </trkpt>
      <trkpt lat="40.955753" lon="-4.034682">
        <ele>1130.29</ele>
        <time>2021-03-28T02:02:15Z</time>
      </trkpt>
      <trkpt lat="40.955382" lon="-4.03466">
        <ele>1131.48</ele>
        <time>2021-03-28T02:02:21Z</time>
      </trkpt>
      <trkpt lat="40.955075" lon="-4.034562">
        <ele>1130.8</ele>
        <time>2021-03-28T02:02:26Z</time>
      </trkpt>
      <trkpt lat="40.954743" lon="-4.034384">
        <ele>1131.22</ele>
        <time>2021-03-28T02:02:32Z</time>
      </trkpt>
      <trkpt lat="40.954388" lon="-4.034152">
        <ele>1132.0</ele>
        <time>2021-03-28T02:02:37Z</time>
      </trkpt>
      <trkpt lat="40.954092" lon="-4.033988">
        <ele>1132.0</ele>
        <time>2021-03-28T02:02:43Z</time>
      </trkpt>
      <trkpt lat="40.953748" lon="-4.033882">
        <ele>1131.51</ele>
        <time>2021-03-28T02:02:48Z</time>
      </trkpt>
      <trkpt lat="40.953541" lon="-4.033853">
        <ele>1130.84</ele>
        <time>2021-03-28T02:02:54Z</time>
      </trkpt>
      <trkpt lat="40.951884" lon="-4.033892">
        <ele>1135.22</ele>
        <time>2021-03-28T02:03:00Z</time>
      </trkpt>
      <trkpt lat="40.950829" lon="-4.033917">
        <ele>1137.88</ele>
        <time>2021-03-28T02:03:05Z</time>
      </trkpt>
      <trkpt lat="40.943687" lon="-4.034045">
        <ele>1139.03</ele>
        <time>2021-03-28T02:03:14Z</time>
      </trkpt>
      <trkpt lat="40.943297" lon="-4.033988">
        <ele>1139.71</ele>
        <time>2021-03-28T02:03:22Z</time>
      </trkpt>
      <trkpt lat="40.942358" lon="-4.03368">
        <ele>1141.49</ele>
        <time>2021-03-28T02:03:31Z</time>
      </trkpt>
      <trkpt lat="40.941701" lon="-4.033582">
        <ele>1143.19</ele>
        <time>2021-03-28T02:03:40Z</time>
      </trkpt>
      <trkpt lat="40.940083" lon="-4.033436">
        <ele>1142.44</ele>
        <time>2021-03-28T02:03:48Z</time>
      </trkpt>
      <trkpt lat="40.939826" lon="-4.033456">
        <ele>1141.66</ele>
        <time>2021-03-28T02:03:57Z</time>
      </trkpt>
      <trkpt lat="40.939185" lon="-4.033594">
        <ele>1143.92</ele>
        <time>2021-03-28T02:04:06Z</time>
      </trkpt>
      <trkpt lat="40.9385" lon="-4.033604">
        <ele>1143.45</ele>
        <time>2021-03-28T02:04:14Z</time>
      </trkpt>
      <trkpt lat="40.93615" lon="-4.033573">
        <ele>1147.98</ele>
        <time>2021-03-28T02:04:23Z</time>
      </trkpt>
      <trkpt lat="40.9352" lon="-4.033499">
        <ele>1148.28</ele>
        <time>2021-03-28T02:04:32Z</time>
      </trkpt>
      <trkpt lat="40.933204" lon="-4.033219">
        <ele>1151.02</ele>
        <time>2021-03-28T02:04:40Z</time>
      </trkpt>
      <trkpt lat="40.93267" lon="-4.033027">
        <ele>1150.81</ele>
        <time>2021-03-28T02:04:49Z</time>
      </trkpt>
      <trkpt lat="40.929673" lon="-4.031666">
        <ele>1153.18</ele>
        <time>2021-03-28T02:04:57Z</time>
      </trkpt>
      <trkpt lat="40.929501" lon="-4.031554">
        <ele>1154.53</ele>
        <time>2021-03-28T02:05:06Z</time>
      </trkpt>
      <trkpt lat="40.929027" lon="-4.031244">
        <ele>1158.05</ele>
        <time>2021-03-28T02:05:15Z</time>
      </trkpt>
      <trkpt lat="40.928006" lon="-4.030492">
        <ele>1152.82</ele>
        <time>2021-03-28T02:05:23Z</time>
      </trkpt>
      <trkpt lat="40.927536" lon="-4.030148">
        <ele>1152.47</ele>
        <time>2021-03-28T02:05:28Z</time>
      </trkpt>
      <trkpt lat="40.925219" lon="-4.028407">
        <ele>1153.79</ele>
        <time>2021-03-28T02:05:33Z</time>
      </trkpt>
      <trkpt lat="40.92478" lon="-4.02802">
        <ele>1153.31</ele>
        <time>2021-03-28T02:05:38Z</time>
      </trkpt>
      <trkpt lat="40.922489" lon="-4.025516">
        <ele>1153.13</ele>
        <time>2021-03-28T02:05:43Z</time>
      </trkpt>
      <trkpt lat="40.922342" lon="-4.025339">
        <ele>1152.89</ele>
        <time>2021-03-28T02:05:48Z</time>
      </trkpt>
      <trkpt lat="40.922069" lon="-4.024912">
        <ele>1151.72</ele>
        <time>2021-03-28T02:05:53Z</time>
      </trkpt>
      <trkpt lat="40.921677" lon="-4.024015">
        <ele>1147.66</ele>
        <time>2021-03-28T02:05:58Z</time>
      </trkpt>
      <trkpt lat="40.921423" lon="-4.023485">
        <ele>1149.0</ele>
        <time>2021-03-28T02:06:03Z</time>
      </trkpt>
      <trkpt lat="40.920789" lon="-4.022341">
        <ele>1148.84</ele>
        <time>2021-03-28T02:06:08Z</time>
      </trkpt>
      <trkpt lat="40.920539" lon="-4.02196">
        <ele>1147.94</ele>
        <time>2021-03-28T02:06:13Z</time>
      </trkpt>
      <trkpt lat="40.920196" lon="-4.021572">
        <ele>1147.05</ele>
        <time>2021-03-28T02:06:18Z</time>
      </trkpt>
      <trkpt lat="40.919013" lon="-4.020397">
        <ele>1144.19</ele>
        <time>2021-03-28T02:06:23Z</time>
      </trkpt>
      <trkpt lat="40.918216" lon="-4.019656">
        <ele>1144.07</ele>
        <time>2021-03-28T02:06:28Z</time>
      </trkpt>
      <trkpt lat="40.917388" lon="-4.01893">
        <ele>1141.14</ele>
        <time>2021-03-28T02:06:33Z</time>
      </trkpt>
      <trkpt lat="40.917033" lon="-4.018647">
        <ele>1137.86</ele>
        <time>2021-03-28T02:06:38Z</time>
      </trkpt>
      <trkpt lat="40.916776" lon="-4.018489">
        <ele>1137.27</ele>
        <time>2021-03-28T02:06:44Z</time>
      </trkpt>
      <trkpt lat="40.91657" lon="-4.018442">
        <ele>1137.47</ele>
        <time>2021-03-28T02:06:49Z</time>
      </trkpt>
      <trkpt lat="40.916444" lon="-4.018446">
        <ele>1137.27</ele>
        <time>2021-03-28T02:06:54Z</time>
      </trkpt>
      <trkpt lat="40.916256" lon="-4.018499">
        <ele>1137.57</ele>
        <time>2021-03-28T02:06:59Z</time>
      </trkpt>
      <trkpt lat="40.915597" lon="-4.018772">
        <ele>1138.96</ele>
        <time>2021-03-28T02:07:04Z</time>
      </trkpt>
      <trkpt lat="40.915384" lon="-4.018826">
        <ele>1137.07</ele>
        <time>2021-03-28T02:07:09Z</time>
      </trkpt>
      <trkpt lat="40.915278" lon="-4.018827">
        <ele>1136.22</ele>
        <time>2021-03-28T02:07:14Z</time>
      </trkpt>
      <trkpt lat="40.915097" lon="-4.018778">
        <ele>1134.45</ele>
        <time>2021-03-28T02:07:19Z</time>
      </trkpt>
      <trkpt lat="40.915005" lon="-4.018726">
        <ele>1133.64</ele>
        <time>2021-03-28T02:07:24Z</time>
      </trkpt>
      <trkpt lat="40.914936" lon="-4.018662">
        <ele>1132.94</ele>
        <time>2021-03-28T02:07:29Z</time>
      </trkpt>
      <trkpt lat="40.914817" lon="-4.0185">
        <ele>1130.7</ele>
        <time>2021-03-28T02:07:34Z</time>
      </trkpt>
      <trkpt lat="40.914675" lon="-4.018154">
        <ele>1127.38</ele>
        <time>2021-03-28T02:07:39Z</time>
      </trkpt>
      <trkpt lat="40.913592" lon="-4.014933">
        <ele>1120.06</ele>
        <time>2021-03-28T02:07:44Z</time>
      </trkpt>
      <trkpt lat="40.913434" lon="-4.014586">
        <ele>1116.74</ele>
        <time>2021-03-28T02:07:49Z</time>
      </trkpt>
      <trkpt lat="40.913235" lon="-4.0143">
        <ele>1114.81</ele>
        <time>2021-03-28T02:07:54Z</time>
      </trkpt>
      <trkpt lat="40.91191" lon="-4.01293">
        <ele>1120.83</ele>
        <time>2021-03-28T02:07:59Z</time>
      </trkpt>
      <trkpt lat="40.911122" lon="-4.012065">
        <ele>1130.05</ele>
        <time>2021-03-28T02:08:04Z</time>
      </trkpt>
      <trkpt lat="40.910518" lon="-4.011143">
        <ele>1144.93</ele>
        <time>2021-03-28T02:08:09Z</time>
      </trkpt>
      <trkpt lat="40.91029" lon="-4.010809">
        <ele>1144.87</ele>
        <time>2021-03-28T02:08:14Z</time>
      </trkpt>
      <trkpt lat="40.910079" lon="-4.010547">
        <ele>1144.72</ele>
        <time>2021-03-28T02:08:19Z</time>
      </trkpt>
      <trkpt lat="40.909351" lon="-4.009831">
        <ele>1145.93</ele>
        <time>2021-03-28T02:08:24Z</time>
      </trkpt>
      <trkpt lat="40.909217" lon="-4.009738">
        <ele>1146.64</ele>
        <time>2021-03-28T02:08:29Z</time>
      </trkpt>
      <trkpt lat="40.908941" lon="-4.009624">
        <ele>1147.29</ele>
        <time>2021-03-28T02:08:34Z</time>
      </trkpt>
      <trkpt lat="40.908243" lon="-4.009465">
        <ele>1143.87</ele>
        <time>2021-03-28T02:08:39Z</time>
      </trkpt>
      <trkpt lat="40.905974" lon="-4.009121">
        <ele>1148.41</ele>
        <time>2021-03-28T02:08:44Z</time>
      </trkpt>
      <trkpt lat="40.905782" lon="-4.009168">
        <ele>1149.37</ele>
        <time>2021-03-28T02:08:49Z</time>
      </trkpt>
      <trkpt lat="40.905736" lon="-4.009228">
        <ele>1149.84</ele>
        <time>2021-03-28T02:08:52Z</time>
      </trkpt>
      <trkpt lat="40.905666" lon="-4.009253">
        <ele>1150.32</ele>
        <time>2021-03-28T02:08:55Z</time>
      </trkpt>
      <trkpt lat="40.905591" lon="-4.009221">
        <ele>1150.77</ele>
        <time>2021-03-28T02:08:58Z</time>
      </trkpt>
      <trkpt lat="40.90554" lon="-4.009136">
        <ele>1150.79</ele>
        <time>2021-03-28T02:09:01Z</time>
      </trkpt>
      <trkpt lat="40.905355" lon="-4.009015">
        <ele>1150.3</ele>
        <time>2021-03-28T02:09:04Z</time>
      </trkpt>
      <trkpt lat="40.902852" lon="-4.008618">
        <ele>1153.97</ele>
        <time>2021-03-28T02:09:07Z</time>
      </trkpt>
      <trkpt lat="40.902536" lon="-4.008585">
        <ele>1155.06</ele>
        <time>2021-03-28T02:09:10Z</time>
      </trkpt>
      <trkpt lat="40.902182" lon="-4.008629">
        <ele>1156.28</ele>
        <time>2021-03-28T02:09:13Z</time>
      </trkpt>
      <trkpt lat="40.902037" lon="-4.008724">
        <ele>1157.06</ele>
        <time>2021-03-28T02:09:16Z</time>
      </trkpt>
      <trkpt lat="40.902002" lon="-4.00878">
        <ele>1157.1</ele>
        <time>2021-03-28T02:09:19Z</time>
      </trkpt>
      <trkpt lat="40.901952" lon="-4.008807">
        <ele>1157.26</ele>
        <time>2021-03-28T02:09:22Z</time>
      </trkpt>
      <trkpt lat="40.901907" lon="-4.008801">
        <ele>1157.58</ele>
        <time>2021-03-28T02:09:25Z</time>
      </trkpt>
      <trkpt lat="40.901868" lon="-4.008772">
        <ele>1157.97</ele>
        <time>2021-03-28T02:09:28Z</time>
      </trkpt>
      <trkpt lat="40.901841" lon="-4.008724">
        <ele>1158.34</ele>
        <time>2021-03-28T02:09:31Z</time>
      </trkpt>
      <trkpt lat="40.901718" lon="-4.008698">
        <ele>1159.32</ele>
        <time>2021-03-28T02:09:33Z</time>
      </trkpt>
      <trkpt lat="40.901049" lon="-4.008814">
        <ele>1163.84</ele>
        <time>2021-03-28T02:09:35Z</time>
      </trkpt>
      <trkpt lat="40.900996" lon="-4.008858">
        <ele>1165.01</ele>
        <time>2021-03-28T02:09:37Z</time>
      </trkpt>
      <trkpt lat="40.900973" lon="-4.008914">
        <ele>1165.49</ele>
        <time>2021-03-28T02:09:39Z</time>
      </trkpt>
      <trkpt lat="40.900889" lon="-4.009426">
        <ele>1166.24</ele>
        <time>2021-03-28T02:09:41Z</time>
      </trkpt>
      <trkpt lat="40.900852" lon="-4.009499">
        <ele>1166.36</ele>
        <time>2021-03-28T02:09:43Z</time>
      </trkpt>
      <trkpt lat="40.900804" lon="-4.009547">
        <ele>1166.43</ele>
        <time>2021-03-28T02:09:45Z</time>
      </trkpt>
      <trkpt lat="40.900799" lon="-4.009602">
        <ele>1166.04</ele>
        <time>2021-03-28T02:09:46Z</time>
      </trkpt>
      <trkpt lat="40.90077" lon="-4.009646">
        <ele>1165.83</ele>
        <time>2021-03-28T02:09:47Z</time>
      </trkpt>
      <trkpt lat="40.900597" lon="-4.009783">
        <ele>1165.82</ele>
        <time>2021-03-28T02:09:48Z</time>
      </trkpt>
      <trkpt lat="40.900543" lon="-4.009667">
        <ele>1166.63</ele>
        <time>2021-03-28T02:09:50Z</time>
      </trkpt>
      <trkpt lat="40.900451" lon="-4.009553">
        <ele>1167.97</ele>
        <time>2021-03-28T02:09:51Z</time>
      </trkpt>
      <trkpt lat="40.900334" lon="-4.009472">
        <ele>1168.78</ele>
        <time>2021-03-28T02:09:52Z</time>
      </trkpt>
      <trkpt lat="40.900261" lon="-4.00947">
        <ele>1168.94</ele>
        <time>2021-03-28T02:09:56Z</time>
      </trkpt>
      <trkpt lat="40.900167" lon="-4.009532">
        <ele>1169.17</ele>
        <time>2021-03-28T02:10:01Z</time>
      </trkpt>
      <trkpt lat="40.900059" lon="-4.009721">
        <ele>1168.58</ele>
        <time>2021-03-28T02:10:05Z</time>
      </trkpt>
      <trkpt lat="40.899506" lon="-4.011287">
        <ele>1163.23</ele>
        <time>2021-03-28T02:10:09Z</time>
      </trkpt>
      <trkpt lat="40.899413" lon="-4.011487">
        <ele>1165.51</ele>
        <time>2021-03-28T02:10:14Z</time>
      </trkpt>
      <trkpt lat="40.899295" lon="-4.011672">
        <ele>1167.04</ele>
        <time>2021-03-28T02:10:18Z</time>
      </trkpt>
      <trkpt lat="40.899143" lon="-4.011833">
        <ele>1167.5</ele>
        <time>2021-03-28T02:10:22Z</time>
      </trkpt>
      <trkpt lat="40.898843" lon="-4.01206">
        <ele>1169.47</ele>
        <time>2021-03-28T02:10:27Z</time>
      </trkpt>
      <trkpt lat="40.898375" lon="-4.012251">
        <ele>1172.04</ele>
        <time>2021-03-28T02:10:31Z</time>
      </trkpt>
      <trkpt lat="40.898104" lon="-4.012306">
        <ele>1170.05</ele>
        <time>2021-03-28T02:10:35Z</time>
      </trkpt>
      <trkpt lat="40.897438" lon="-4.012328">
        <ele>1170.36</ele>
        <time>2021-03-28T02:10:40Z</time>
      </trkpt>
      <trkpt lat="40.896832" lon="-4.012298">
        <ele>1171.45</ele>
        <time>2021-03-28T02:10:44Z</time>
      </trkpt>
      <trkpt lat="40.895105" lon="-4.011875">
        <ele>1175.4</ele>
        <time>2021-03-28T02:10:48Z</time>
      </trkpt>
      <trkpt lat="40.894878" lon="-4.011848">
        <ele>1175.41</ele>
        <time>2021-03-28T02:10:53Z</time>
      </trkpt>
      <trkpt lat="40.894661" lon="-4.011873">
        <ele>1174.55</ele>
        <time>2021-03-28T02:10:57Z</time>
      </trkpt>
      <trkpt lat="40.893655" lon="-4.012138">
        <ele>1178.01</ele>
        <time>2021-03-28T02:11:02Z</time>
      </trkpt>
      <trkpt lat="40.893482" lon="-4.009218">
        <ele>1183.71</ele>
        <time>2021-03-28T02:11:27Z</time>
      </trkpt>
      <trkpt lat="40.892952" lon="-4.009272">
        <ele>1188.12</ele>
        <time>2021-03-28T02:11:32Z</time>
      </trkpt>
      <trkpt lat="40.89206" lon="-4.009637">
        <ele>1188.74</ele>
        <time>2021-03-28T02:11:36Z</time>
      </trkpt>
      <trkpt lat="40.891832" lon="-4.009685">
        <ele>1189.21</ele>
        <time>2021-03-28T02:11:40Z</time>
      </trkpt>
      <trkpt lat="40.8916" lon="-4.009674">
        <ele>1188.65</ele>
        <time>2021-03-28T02:11:45Z</time>
      </trkpt>
      <trkpt lat="40.889981" lon="-4.009198">
        <ele>1189.76</ele>
        <time>2021-03-28T02:11:49Z</time>
      </trkpt>
      <trkpt lat="40.889677" lon="-4.009183">
        <ele>1188.14</ele>
        <time>2021-03-28T02:11:54Z</time>
      </trkpt>
      <trkpt lat="40.889544" lon="-4.009216">
        <ele>1188.41</ele>
        <time>2021-03-28T02:11:58Z</time>
      </trkpt>
      <trkpt lat="40.889377" lon="-4.009225">
        <ele>1188.87</ele>
        <time>2021-03-28T02:12:03Z</time>
      </trkpt>
      <trkpt lat="40.889237" lon="-4.00923">
        <ele>1189.46</ele>
        <time>2021-03-28T02:12:07Z</time>
      </trkpt>
      <trkpt lat="40.889082" lon="-4.009151">
        <ele>1190.67</ele>
        <time>2021-03-28T02:12:12Z</time>
      </trkpt>
      <trkpt lat="40.887942" lon="-4.008151">
        <ele>1201.73</ele>
        <time>2021-03-28T02:12:16Z</time>
      </trkpt>
      <trkpt lat="40.88781" lon="-4.008083">
        <ele>1203.61</ele>
        <time>2021-03-28T02:12:21Z</time>
      </trkpt>
      <trkpt lat="40.887718" lon="-4.008083">
        <ele>1205.22</ele>
        <time>2021-03-28T02:12:25Z</time>
      </trkpt>
      <trkpt lat="40.88763" lon="-4.008109">
        <ele>1206.84</ele>
        <time>2021-03-28T02:12:30Z</time>
      </trkpt>
      <trkpt lat="40.887518" lon="-4.008204">
        <ele>1208.74</ele>
        <time>2021-03-28T02:12:34Z</time>
      </trkpt>
      <trkpt lat="40.886647" lon="-4.009262">
        <ele>1212.36</ele>
        <time>2021-03-28T02:12:38Z</time>
      </trkpt>
      <trkpt lat="40.886297" lon="-4.00949">
        <ele>1210.4</ele>
        <time>2021-03-28T02:12:43Z</time>
      </trkpt>
      <trkpt lat="40.886193" lon="-4.009505">
        <ele>1210.04</ele>
        <time>2021-03-28T02:12:47Z</time>
      </trkpt>
      <trkpt lat="40.885791" lon="-4.009637">
        <ele>1208.58</ele>
        <time>2021-03-28T02:12:52Z</time>
      </trkpt>
      <trkpt lat="40.885687" lon="-4.009584">
        <ele>1210.04</ele>
        <time>2021-03-28T02:12:56Z</time>
      </trkpt>
      <trkpt lat="40.885587" lon="-4.00941">
        <ele>1212.5</ele>
        <time>2021-03-28T02:13:01Z</time>
      </trkpt>
      <trkpt lat="40.885383" lon="-4.008193">
        <ele>1230.24</ele>
        <time>2021-03-28T02:13:05Z</time>
      </trkpt>
      <trkpt lat="40.885295" lon="-4.008014">
        <ele>1232.02</ele>
        <time>2021-03-28T02:13:10Z</time>
      </trkpt>
      <trkpt lat="40.884867" lon="-4.007707">
        <ele>1238.29</ele>
        <time>2021-03-28T02:13:14Z</time>
      </trkpt>
      <trkpt lat="40.884767" lon="-4.007696">
        <ele>1239.89</ele>
        <time>2021-03-28T02:13:19Z</time>
      </trkpt>
      <trkpt lat="40.884539" lon="-4.007765">
        <ele>1241.38</ele>
        <time>2021-03-28T02:13:23Z</time>
      </trkpt>
      <trkpt lat="40.884012" lon="-4.008046">
        <ele>1242.17</ele>
        <time>2021-03-28T02:13:28Z</time>
      </trkpt>
      <trkpt lat="40.883916" lon="-4.008178">
        <ele>1241.09</ele>
        <time>2021-03-28T02:13:32Z</time>
      </trkpt>
      <trkpt lat="40.883847" lon="-4.008326">
        <ele>1239.69</ele>
        <time>2021-03-28T02:13:36Z</time>
      </trkpt>
      <trkpt lat="40.883712" lon="-4.008868">
        <ele>1235.34</ele>
        <time>2021-03-28T02:13:41Z</time>
      </trkpt>
      <trkpt lat="40.883662" lon="-4.008987">
        <ele>1236.08</ele>
        <time>2021-03-28T02:13:45Z</time>
      </trkpt>
      <trkpt lat="40.883655" lon="-4.008328">
        <ele>1242.42</ele>
        <time>2021-03-28T02:13:49Z</time>
      </trkpt>
      <trkpt lat="40.883686" lon="-4.008108">
        <ele>1243.98</ele>
        <time>2021-03-28T02:13:53Z</time>
      </trkpt>
      <trkpt lat="40.883819" lon="-4.007529">
        <ele>1246.08</ele>
        <time>2021-03-28T02:13:56Z</time>
      </trkpt>
      <trkpt lat="40.883841" lon="-4.007338">
        <ele>1246.55</ele>
        <time>2021-03-28T02:14:00Z</time>
      </trkpt>
      <trkpt lat="40.883852" lon="-4.006513">
        <ele>1249.42</ele>
        <time>2021-03-28T02:14:03Z</time>
      </trkpt>
      <trkpt lat="40.883709" lon="-4.005441">
        <ele>1248.18</ele>
        <time>2021-03-28T02:14:07Z</time>
      </trkpt>
      <trkpt lat="40.883689" lon="-4.005133">
        <ele>1248.17</ele>
        <time>2021-03-28T02:14:10Z</time>
      </trkpt>
      <trkpt lat="40.883643" lon="-4.004982">
        <ele>1248.91</ele>
        <time>2021-03-28T02:14:14Z</time>
      </trkpt>
      <trkpt lat="40.883591" lon="-4.004906">
        <ele>1250.16</ele>
        <time>2021-03-28T02:14:17Z</time>
      </trkpt>
      <trkpt lat="40.88345" lon="-4.004824">
        <ele>1253.96</ele>
        <time>2021-03-28T02:14:21Z</time>
      </trkpt>
      <trkpt lat="40.883393" lon="-4.004743">
        <ele>1255.62</ele>
        <time>2021-03-28T02:14:25Z</time>
      </trkpt>
      <trkpt lat="40.883404" lon="-4.004634">
        <ele>1255.96</ele>
        <time>2021-03-28T02:14:28Z</time>
      </trkpt>
      <trkpt lat="40.883484" lon="-4.004512">
        <ele>1255.32</ele>
        <time>2021-03-28T02:14:31Z</time>
      </trkpt>
      <trkpt lat="40.883636" lon="-4.00445">
        <ele>1253.76</ele>
        <time>2021-03-28T02:14:34Z</time>
      </trkpt>
      <trkpt lat="40.883949" lon="-4.004418">
        <ele>1252.52</ele>
        <time>2021-03-28T02:14:37Z</time>
      </trkpt>
      <trkpt lat="40.884063" lon="-4.004389">
        <ele>1253.35</ele>
        <time>2021-03-28T02:14:40Z</time>
      </trkpt>
      <trkpt lat="40.884251" lon="-4.004247">
        <ele>1255.71</ele>
        <time>2021-03-28T02:14:43Z</time>
      </trkpt>
      <trkpt lat="40.884342" lon="-4.004125">
        <ele>1256.67</ele>
        <time>2021-03-28T02:14:46Z</time>
      </trkpt>
      <trkpt lat="40.884403" lon="-4.003983">
        <ele>1257.47</ele>
        <time>2021-03-28T02:14:49Z</time>
      </trkpt>
      <trkpt lat="40.884422" lon="-4.00379">
        <ele>1258.49</ele>
        <time>2021-03-28T02:14:52Z</time>
      </trkpt>
      <trkpt lat="40.884374" lon="-4.003673">
        <ele>1259.42</ele>
        <time>2021-03-28T02:14:55Z</time>
      </trkpt>
      <trkpt lat="40.884299" lon="-4.003636">
        <ele>1260.38</ele>
        <time>2021-03-28T02:14:59Z</time>
      </trkpt>
      <trkpt lat="40.884101" lon="-4.003688">
        <ele>1261.23</ele>
        <time>2021-03-28T02:15:02Z</time>
      </trkpt>
      <trkpt lat="40.883913" lon="-4.003705">
        <ele>1261.3</ele>
        <time>2021-03-28T02:15:05Z</time>
      </trkpt>
      <trkpt lat="40.883165" lon="-4.003388">
        <ele>1269.8</ele>
        <time>2021-03-28T02:15:08Z</time>
      </trkpt>
      <trkpt lat="40.882799" lon="-4.003352">
        <ele>1270.66</ele>
        <time>2021-03-28T02:15:11Z</time>
      </trkpt>
      <trkpt lat="40.88263" lon="-4.003303">
        <ele>1271.32</ele>
        <time>2021-03-28T02:15:14Z</time>
      </trkpt>
      <trkpt lat="40.882473" lon="-4.003217">
        <ele>1272.43</ele>
        <time>2021-03-28T02:15:17Z</time>
      </trkpt>
      <trkpt lat="40.882414" lon="-4.003166">
        <ele>1273.18</ele>
        <time>2021-03-28T02:15:20Z</time>
      </trkpt>
      <trkpt lat="40.882312" lon="-4.002998">
        <ele>1274.76</ele>
        <time>2021-03-28T02:15:23Z</time>
      </trkpt>
      <trkpt lat="40.882233" lon="-4.00274">
        <ele>1277.49</ele>
        <time>2021-03-28T02:15:26Z</time>
      </trkpt>
      <trkpt lat="40.882162" lon="-4.002018">
        <ele>1285.51</ele>
        <time>2021-03-28T02:15:29Z</time>
      </trkpt>
      <trkpt lat="40.882088" lon="-4.0017">
        <ele>1289.55</ele>
        <time>2021-03-28T02:15:32Z</time>
      </trkpt>
      <trkpt lat="40.881937" lon="-4.001403">
        <ele>1291.83</ele>
        <time>2021-03-28T02:15:35Z</time>
      </trkpt>
      <trkpt lat="40.881801" lon="-4.001237">
        <ele>1292.01</ele>
        <time>2021-03-28T02:15:39Z</time>
      </trkpt>
      <trkpt lat="40.881644" lon="-4.001096">
        <ele>1291.27</ele>
        <time>2021-03-28T02:15:42Z</time>
      </trkpt>
      <trkpt lat="40.881435" lon="-4.000948">
        <ele>1294.32</ele>
        <time>2021-03-28T02:15:45Z</time>
      </trkpt>
      <trkpt lat="40.880785" lon="-4.000579">
        <ele>1301.23</ele>
        <time>2021-03-28T02:15:48Z</time>
      </trkpt>
      <trkpt lat="40.880492" lon="-4.000339">
        <ele>1305.92</ele>
        <time>2021-03-28T02:15:51Z</time>
      </trkpt>
      <trkpt lat="40.880398" lon="-4.00014">
        <ele>1309.19</ele>
        <time>2021-03-28T02:15:54Z</time>
      </trkpt>
      <trkpt lat="40.880378" lon="-4.000031">
        <ele>1310.58</ele>
        <time>2021-03-28T02:15:57Z</time>
      </trkpt>
      <trkpt lat="40.880348" lon="-3.999414">
        <ele>1318.6</ele>
        <time>2021-03-28T02:16:00Z</time>
      </trkpt>
      <trkpt lat="40.880356" lon="-3.998887">
        <ele>1323.73</ele>
        <time>2021-03-28T02:16:03Z</time>
      </trkpt>
      <trkpt lat="40.880312" lon="-3.998326">
        <ele>1327.95</ele>
        <time>2021-03-28T02:16:06Z</time>
      </trkpt>
      <trkpt lat="40.880254" lon="-3.997976">
        <ele>1331.41</ele>
        <time>2021-03-28T02:16:09Z</time>
      </trkpt>
      <trkpt lat="40.880137" lon="-3.997442">
        <ele>1335.61</ele>
        <time>2021-03-28T02:16:12Z</time>
      </trkpt>
      <trkpt lat="40.880114" lon="-3.997238">
        <ele>1337.65</ele>
        <time>2021-03-28T02:16:16Z</time>
      </trkpt>
      <trkpt lat="40.880128" lon="-3.997052">
        <ele>1339.71</ele>
        <time>2021-03-28T02:16:19Z</time>
      </trkpt>
      <trkpt lat="40.880147" lon="-3.996977">
        <ele>1340.75</ele>
        <time>2021-03-28T02:16:22Z</time>
      </trkpt>
      <trkpt lat="40.880199" lon="-3.996895">
        <ele>1342.58</ele>
        <time>2021-03-28T02:16:25Z</time>
      </trkpt>
      <trkpt lat="40.880269" lon="-3.996845">
        <ele>1344.31</ele>
        <time>2021-03-28T02:16:28Z</time>
      </trkpt>
      <trkpt lat="40.88033" lon="-3.996825">
        <ele>1344.98</ele>
        <time>2021-03-28T02:16:31Z</time>
      </trkpt>
      <trkpt lat="40.880541" lon="-3.996836">
        <ele>1345.87</ele>
        <time>2021-03-28T02:16:34Z</time>
      </trkpt>
      <trkpt lat="40.880644" lon="-3.996806">
        <ele>1345.22</ele>
        <time>2021-03-28T02:16:37Z</time>
      </trkpt>
      <trkpt lat="40.88072" lon="-3.996717">
        <ele>1345.72</ele>
        <time>2021-03-28T02:16:40Z</time>
      </trkpt>
      <trkpt lat="40.88076" lon="-3.996632">
        <ele>1346.52</ele>
        <time>2021-03-28T02:16:43Z</time>
      </trkpt>
      <trkpt lat="40.880822" lon="-3.996336">
        <ele>1349.7</ele>
        <time>2021-03-28T02:16:46Z</time>
      </trkpt>
      <trkpt lat="40.880868" lon="-3.996201">
        <ele>1350.19</ele>
        <time>2021-03-28T02:16:49Z</time>
      </trkpt>
      <trkpt lat="40.880931" lon="-3.996066">
        <ele>1350.6</ele>
        <time>2021-03-28T02:16:53Z</time>
      </trkpt>
      <trkpt lat="40.881052" lon="-3.995905">
        <ele>1350.83</ele>
        <time>2021-03-28T02:16:56Z</time>
      </trkpt>
      <trkpt lat="40.881492" lon="-3.995453">
        <ele>1354.45</ele>
        <time>2021-03-28T02:16:59Z</time>
      </trkpt>
      <trkpt lat="40.881852" lon="-3.995233">
        <ele>1352.26</ele>
        <time>2021-03-28T02:17:02Z</time>
      </trkpt>
      <trkpt lat="40.881982" lon="-3.995112">
        <ele>1351.57</ele>
        <time>2021-03-28T02:17:05Z</time>
      </trkpt>
      <trkpt lat="40.882195" lon="-3.994972">
        <ele>1353.41</ele>
        <time>2021-03-28T02:17:08Z</time>
      </trkpt>
      <trkpt lat="40.882392" lon="-3.994812">
        <ele>1356.98</ele>
        <time>2021-03-28T02:17:11Z</time>
      </trkpt>
      <trkpt lat="40.882671" lon="-3.994524">
        <ele>1363.73</ele>
        <time>2021-03-28T02:17:14Z</time>
      </trkpt>
      <trkpt lat="40.882769" lon="-3.994396">
        <ele>1366.24</ele>
        <time>2021-03-28T02:17:17Z</time>
      </trkpt>
      <trkpt lat="40.882826" lon="-3.994286">
        <ele>1368.29</ele>
        <time>2021-03-28T02:17:20Z</time>
      </trkpt>
      <trkpt lat="40.882888" lon="-3.994077">
        <ele>1371.42</ele>
        <time>2021-03-28T02:17:23Z</time>
      </trkpt>
      <trkpt lat="40.883046" lon="-3.993256">
        <ele>1384.94</ele>
        <time>2021-03-28T02:17:26Z</time>
      </trkpt>
      <trkpt lat="40.883167" lon="-3.992778">
        <ele>1386.58</ele>
        <time>2021-03-28T02:17:30Z</time>
      </trkpt>
      <trkpt lat="40.883188" lon="-3.992402">
        <ele>1388.66</ele>
        <time>2021-03-28T02:17:33Z</time>
      </trkpt>
      <trkpt lat="40.88318" lon="-3.991847">
        <ele>1398.31</ele>
        <time>2021-03-28T02:17:36Z</time>
      </trkpt>
      <trkpt lat="40.883198" lon="-3.991617">
        <ele>1402.74</ele>
        <time>2021-03-28T02:17:39Z</time>
      </trkpt>
      <trkpt lat="40.883241" lon="-3.991416">
        <ele>1404.93</ele>
        <time>2021-03-28T02:17:42Z</time>
      </trkpt>
      <trkpt lat="40.883295" lon="-3.991254">
        <ele>1405.97</ele>
        <time>2021-03-28T02:17:45Z</time>
      </trkpt>
      <trkpt lat="40.883367" lon="-3.991113">
        <ele>1406.22</ele>
        <time>2021-03-28T02:17:48Z</time>
      </trkpt>
      <trkpt lat="40.883866" lon="-3.990335">
        <ele>1410.01</ele>
        <time>2021-03-28T02:17:51Z</time>
      </trkpt>
      <trkpt lat="40.884001" lon="-3.990167">
        <ele>1411.82</ele>
        <time>2021-03-28T02:17:54Z</time>
      </trkpt>
      <trkpt lat="40.884543" lon="-3.988814">
        <ele>1428.94</ele>
        <time>2021-03-28T02:17:57Z</time>
      </trkpt>
      <trkpt lat="40.884874" lon="-3.988039">
        <ele>1435.57</ele>
        <time>2021-03-28T02:18:00Z</time>
      </trkpt>
      <trkpt lat="40.884984" lon="-3.987751">
        <ele>1435.05</ele>
        <time>2021-03-28T02:18:03Z</time>
      </trkpt>
      <trkpt lat="40.885046" lon="-3.987528">
        <ele>1435.29</ele>
        <time>2021-03-28T02:18:07Z</time>
      </trkpt>
      <trkpt lat="40.885067" lon="-3.987364">
        <ele>1437.06</ele>
        <time>2021-03-28T02:18:10Z</time>
      </trkpt>
      <trkpt lat="40.885064" lon="-3.987213">
        <ele>1439.75</ele>
        <time>2021-03-28T02:18:13Z</time>
      </trkpt>
      <trkpt lat="40.88494" lon="-3.986305">
        <ele>1446.41</ele>
        <time>2021-03-28T02:18:16Z</time>
      </trkpt>
      <trkpt lat="40.884935" lon="-3.986135">
        <ele>1448.24</ele>
        <time>2021-03-28T02:18:19Z</time>
      </trkpt>
      <trkpt lat="40.884946" lon="-3.985803">
        <ele>1454.51</ele>
        <time>2021-03-28T02:18:22Z</time>
      </trkpt>
      <trkpt lat="40.885076" lon="-3.98506">
        <ele>1459.12</ele>
        <time>2021-03-28T02:18:25Z</time>
      </trkpt>
      <trkpt lat="40.885084" lon="-3.984847">
        <ele>1461.22</ele>
        <time>2021-03-28T02:18:28Z</time>
      </trkpt>
      <trkpt lat="40.885026" lon="-3.983974">
        <ele>1470.57</ele>
        <time>2021-03-28T02:18:31Z</time>
      </trkpt>
      <trkpt lat="40.884847" lon="-3.98342">
        <ele>1479.68</ele>
        <time>2021-03-28T02:18:36Z</time>
      </trkpt>
      <trkpt lat="40.884802" lon="-3.983331">
        <ele>1481.11</ele>
        <time>2021-03-28T02:18:40Z</time>
      </trkpt>
      <trkpt lat="40.884754" lon="-3.983271">
        <ele>1482.2</ele>
        <time>2021-03-28T02:18:44Z</time>
      </trkpt>
      <trkpt lat="40.884713" lon="-3.983257">
        <ele>1483.7</ele>
        <time>2021-03-28T02:18:49Z</time>
      </trkpt>
      <trkpt lat="40.884669" lon="-3.983271">
        <ele>1486.43</ele>
        <time>2021-03-28T02:18:53Z</time>
      </trkpt>
      <trkpt lat="40.884619" lon="-3.983339">
        <ele>1489.97</ele>
        <time>2021-03-28T02:18:58Z</time>
      </trkpt>
      <trkpt lat="40.884355" lon="-3.984144">
        <ele>1506.5</ele>
        <time>2021-03-28T02:19:02Z</time>
      </trkpt>
      <trkpt lat="40.884008" lon="-3.984991">
        <ele>1518.15</ele>
        <time>2021-03-28T02:19:06Z</time>
      </trkpt>
      <trkpt lat="40.883742" lon="-3.985916">
        <ele>1515.62</ele>
        <time>2021-03-28T02:19:11Z</time>
      </trkpt>
      <trkpt lat="40.883623" lon="-3.986241">
        <ele>1517.99</ele>
        <time>2021-03-28T02:19:15Z</time>
      </trkpt>
      <trkpt lat="40.883242" lon="-3.98695">
        <ele>1515.74</ele>
        <time>2021-03-28T02:19:19Z</time>
      </trkpt>
      <trkpt lat="40.883132" lon="-3.987115">
        <ele>1513.22</ele>
        <time>2021-03-28T02:19:24Z</time>
      </trkpt>
      <trkpt lat="40.882996" lon="-3.987229">
        <ele>1513.05</ele>
        <time>2021-03-28T02:19:28Z</time>
      </trkpt>
      <trkpt lat="40.882898" lon="-3.987265">
        <ele>1513.93</ele>
        <time>2021-03-28T02:19:33Z</time>
      </trkpt>
      <trkpt lat="40.882664" lon="-3.987297">
        <ele>1517.4</ele>
        <time>2021-03-28T02:19:37Z</time>
      </trkpt>
      <trkpt lat="40.88242" lon="-3.987367">
        <ele>1517.84</ele>
        <time>2021-03-28T02:19:41Z</time>
      </trkpt>
      <trkpt lat="40.880776" lon="-3.988032">
        <ele>1525.94</ele>
        <time>2021-03-28T02:19:46Z</time>
      </trkpt>
      <trkpt lat="40.879633" lon="-3.988295">
        <ele>1524.44</ele>
        <time>2021-03-28T02:19:50Z</time>
      </trkpt>
      <trkpt lat="40.879221" lon="-3.988415">
        <ele>1528.21</ele>
        <time>2021-03-28T02:19:55Z</time>
      </trkpt>
      <trkpt lat="40.879009" lon="-3.988446">
        <ele>1526.94</ele>
        <time>2021-03-28T02:19:59Z</time>
      </trkpt>
      <trkpt lat="40.878818" lon="-3.988439">
        <ele>1525.57</ele>
        <time>2021-03-28T02:20:03Z</time>
      </trkpt>
      <trkpt lat="40.878136" lon="-3.988316">
        <ele>1521.92</ele>
        <time>2021-03-28T02:20:08Z</time>
      </trkpt>
      <trkpt lat="40.877814" lon="-3.9882">
        <ele>1528.02</ele>
        <time>2021-03-28T02:20:12Z</time>
      </trkpt>
      <trkpt lat="40.877701" lon="-3.988125">
        <ele>1530.32</ele>
        <time>2021-03-28T02:20:16Z</time>
      </trkpt>
      <trkpt lat="40.87758" lon="-3.98801">
        <ele>1533.32</ele>
        <time>2021-03-28T02:20:21Z</time>
      </trkpt>
      <trkpt lat="40.87738" lon="-3.98771">
        <ele>1541.34</ele>
        <time>2021-03-28T02:20:25Z</time>
      </trkpt>
      <trkpt lat="40.876937" lon="-3.98681">
        <ele>1550.18</ele>
        <time>2021-03-28T02:20:30Z</time>
      </trkpt>
      <trkpt lat="40.876882" lon="-3.986649">
        <ele>1553.95</ele>
        <time>2021-03-28T02:20:34Z</time>
      </trkpt>
      <trkpt lat="40.876836" lon="-3.986324">
        <ele>1560.56</ele>
        <time>2021-03-28T02:20:38Z</time>
      </trkpt>
      <trkpt lat="40.876847" lon="-3.985961">
        <ele>1564.51</ele>
        <time>2021-03-28T02:20:43Z</time>
      </trkpt>
      <trkpt lat="40.877016" lon="-3.985298">
        <ele>1577.18</ele>
        <time>2021-03-28T02:20:47Z</time>
      </trkpt>
      <trkpt lat="40.877343" lon="-3.984187">
        <ele>1584.09</ele>
        <time>2021-03-28T02:20:52Z</time>
      </trkpt>
      <trkpt lat="40.877459" lon="-3.98357">
        <ele>1592.59</ele>
        <time>2021-03-28T02:20:56Z</time>
      </trkpt>
      <trkpt lat="40.877488" lon="-3.983169">
        <ele>1596.11</ele>
        <time>2021-03-28T02:21:00Z</time>
      </trkpt>
      <trkpt lat="40.877601" lon="-3.9821">
        <ele>1608.56</ele>
        <time>2021-03-28T02:21:05Z</time>
      </trkpt>
      <trkpt lat="40.877625" lon="-3.981587">
        <ele>1615.38</ele>
        <time>2021-03-28T02:21:09Z</time>
      </trkpt>
      <trkpt lat="40.877701" lon="-3.980611">
        <ele>1631.6</ele>
        <time>2021-03-28T02:21:14Z</time>
      </trkpt>
      <trkpt lat="40.877681" lon="-3.980199">
        <ele>1635.12</ele>
        <time>2021-03-28T02:21:18Z</time>
      </trkpt>
      <trkpt lat="40.877595" lon="-3.979904">
        <ele>1637.2</ele>
        <time>2021-03-28T02:21:22Z</time>
      </trkpt>
      <trkpt lat="40.877573" lon="-3.979801">
        <ele>1638.52</ele>
        <time>2021-03-28T02:21:27Z</time>
      </trkpt>
      <trkpt lat="40.877573" lon="-3.979709">
        <ele>1639.83</ele>
        <time>2021-03-28T02:21:31Z</time>
      </trkpt>
      <trkpt lat="40.877587" lon="-3.979626">
        <ele>1640.29</ele>
        <time>2021-03-28T02:21:35Z</time>
      </trkpt>
      <trkpt lat="40.877667" lon="-3.979508">
        <ele>1641.58</ele>
        <time>2021-03-28T02:21:40Z</time>
      </trkpt>
      <trkpt lat="40.877858" lon="-3.97938">
        <ele>1643.51</ele>
        <time>2021-03-28T02:21:44Z</time>
      </trkpt>
      <trkpt lat="40.87796" lon="-3.979284">
        <ele>1643.94</ele>
        <time>2021-03-28T02:21:49Z</time>
      </trkpt>
      <trkpt lat="40.877971" lon="-3.979184">
        <ele>1643.74</ele>
        <time>2021-03-28T02:21:53Z</time>
      </trkpt>
      <trkpt lat="40.877941" lon="-3.979138">
        <ele>1643.36</ele>
        <time>2021-03-28T02:21:57Z</time>
      </trkpt>
      <trkpt lat="40.877714" lon="-3.979059">
        <ele>1642.7</ele>
        <time>2021-03-28T02:22:02Z</time>
      </trkpt>
      <trkpt lat="40.87646" lon="-3.978929">
        <ele>1650.6</ele>
        <time>2021-03-28T02:22:06Z</time>
      </trkpt>
      <trkpt lat="40.87603" lon="-3.978744">
        <ele>1655.63</ele>
        <time>2021-03-28T02:22:11Z</time>
      </trkpt>
      <trkpt lat="40.87581" lon="-3.978757">
        <ele>1660.11</ele>
        <time>2021-03-28T02:22:15Z</time>
      </trkpt>
      <trkpt lat="40.875525" lon="-3.978804">
        <ele>1667.16</ele>
        <time>2021-03-28T02:22:19Z</time>
      </trkpt>
      <trkpt lat="40.875451" lon="-3.978838">
        <ele>1668.39</ele>
        <time>2021-03-28T02:22:24Z</time>
      </trkpt>
      <trkpt lat="40.875165" lon="-3.979088">
        <ele>1670.46</ele>
        <time>2021-03-28T02:22:28Z</time>
      </trkpt>
      <trkpt lat="40.874876" lon="-3.979313">
        <ele>1671.47</ele>
        <time>2021-03-28T02:22:32Z</time>
      </trkpt>
      <trkpt lat="40.87465" lon="-3.979366">
        <ele>1674.07</ele>
        <time>2021-03-28T02:22:37Z</time>
      </trkpt>
      <trkpt lat="40.874456" lon="-3.979366">
        <ele>1677.38</ele>
        <time>2021-03-28T02:22:41Z</time>
      </trkpt>
      <trkpt lat="40.874021" lon="-3.979293">
        <ele>1684.93</ele>
        <time>2021-03-28T02:22:46Z</time>
      </trkpt>
      <trkpt lat="40.873691" lon="-3.979346">
        <ele>1689.29</ele>
        <time>2021-03-28T02:22:50Z</time>
      </trkpt>
      <trkpt lat="40.873451" lon="-3.979352">
        <ele>1692.05</ele>
        <time>2021-03-28T02:22:54Z</time>
      </trkpt>
      <trkpt lat="40.872751" lon="-3.979676">
        <ele>1702.84</ele>
        <time>2021-03-28T02:22:59Z</time>
      </trkpt>
      <trkpt lat="40.871966" lon="-3.979994">
        <ele>1711.68</ele>
        <time>2021-03-28T02:23:03Z</time>
      </trkpt>
      <trkpt lat="40.871461" lon="-3.980142">
        <ele>1716.67</ele>
        <time>2021-03-28T02:23:08Z</time>
      </trkpt>
      <trkpt lat="40.871311" lon="-3.980156">
        <ele>1716.82</ele>
        <time>2021-03-28T02:23:12Z</time>
      </trkpt>
      <trkpt lat="40.871177" lon="-3.98013">
        <ele>1716.44</ele>
        <time>2021-03-28T02:23:16Z</time>
      </trkpt>
      <trkpt lat="40.871068" lon="-3.9801">
        <ele>1715.87</ele>
        <time>2021-03-28T02:23:21Z</time>
      </trkpt>
      <trkpt lat="40.870969" lon="-3.980036">
        <ele>1715.27</ele>
        <time>2021-03-28T02:23:25Z</time>
      </trkpt>
      <trkpt lat="40.870894" lon="-3.979871">
        <ele>1715.12</ele>
        <time>2021-03-28T02:23:30Z</time>
      </trkpt>
      <trkpt lat="40.870782" lon="-3.979467">
        <ele>1716.13</ele>
        <time>2021-03-28T02:23:34Z</time>
      </trkpt>
      <trkpt lat="40.870776" lon="-3.978749">
        <ele>1719.37</ele>
        <time>2021-03-28T02:23:38Z</time>
      </trkpt>
      <trkpt lat="40.870748" lon="-3.978448">
        <ele>1719.13</ele>
        <time>2021-03-28T02:23:43Z</time>
      </trkpt>
      <trkpt lat="40.870686" lon="-3.978262">
        <ele>1716.92</ele>
        <time>2021-03-28T02:23:47Z</time>
      </trkpt>
      <trkpt lat="40.870581" lon="-3.977548">
        <ele>1711.73</ele>
        <time>2021-03-28T02:23:51Z</time>
      </trkpt>
      <trkpt lat="40.870571" lon="-3.976999">
        <ele>1712.44</ele>
        <time>2021-03-28T02:23:56Z</time>
      </trkpt>
      <trkpt lat="40.870636" lon="-3.97653">
        <ele>1715.04</ele>
        <time>2021-03-28T02:24:00Z</time>
      </trkpt>
      <trkpt lat="40.870636" lon="-3.976113">
        <ele>1714.63</ele>
        <time>2021-03-28T02:24:05Z</time>
      </trkpt>
      <trkpt lat="40.870546" lon="-3.975459">
        <ele>1712.87</ele>
        <time>2021-03-28T02:24:09Z</time>
      </trkpt>
      <trkpt lat="40.870457" lon="-3.975153">
        <ele>1715.22</ele>
        <time>2021-03-28T02:24:13Z</time>
      </trkpt>
      <trkpt lat="40.870305" lon="-3.974195">
        <ele>1717.67</ele>
        <time>2021-03-28T02:24:18Z</time>
      </trkpt>
      <trkpt lat="40.870104" lon="-3.973611">
        <ele>1718.98</ele>
        <time>2021-03-28T02:24:22Z</time>
      </trkpt>
      <trkpt lat="40.870002" lon="-3.973429">
        <ele>1716.7</ele>
        <time>2021-03-28T02:24:27Z</time>
      </trkpt>
      <trkpt lat="40.869883" lon="-3.973271">
        <ele>1715.67</ele>
        <time>2021-03-28T02:24:31Z</time>
      </trkpt>
      <trkpt lat="40.869786" lon="-3.973192">
        <ele>1715.06</ele>
        <time>2021-03-28T02:24:35Z</time>
      </trkpt>
      <trkpt lat="40.869681" lon="-3.973235">
        <ele>1713.17</ele>
        <time>2021-03-28T02:24:40Z</time>
      </trkpt>
      <trkpt lat="40.869567" lon="-3.973436">
        <ele>1709.36</ele>
        <time>2021-03-28T02:24:44Z</time>
      </trkpt>
      <trkpt lat="40.869525" lon="-3.973551">
        <ele>1707.12</ele>
        <time>2021-03-28T02:24:48Z</time>
      </trkpt>
      <trkpt lat="40.869142" lon="-3.974984">
        <ele>1696.45</ele>
        <time>2021-03-28T02:24:53Z</time>
      </trkpt>
      <trkpt lat="40.868975" lon="-3.975828">
        <ele>1688.84</ele>
        <time>2021-03-28T02:24:57Z</time>
      </trkpt>
      <trkpt lat="40.868662" lon="-3.976834">
        <ele>1685.17</ele>
        <time>2021-03-28T02:25:02Z</time>
      </trkpt>
      <trkpt lat="40.86849" lon="-3.97762">
        <ele>1682.75</ele>
        <time>2021-03-28T02:25:06Z</time>
      </trkpt>
      <trkpt lat="40.868127" lon="-3.978334">
        <ele>1677.7</ele>
        <time>2021-03-28T02:25:10Z</time>
      </trkpt>
      <trkpt lat="40.867907" lon="-3.978526">
        <ele>1675.53</ele>
        <time>2021-03-28T02:25:15Z</time>
      </trkpt>
      <trkpt lat="40.867087" lon="-3.978784">
        <ele>1674.01</ele>
        <time>2021-03-28T02:25:19Z</time>
      </trkpt>
      <trkpt lat="40.866132" lon="-3.979128">
        <ele>1676.2</ele>
        <time>2021-03-28T02:25:24Z</time>
      </trkpt>
      <trkpt lat="40.865952" lon="-3.979247">
        <ele>1674.99</ele>
        <time>2021-03-28T02:25:28Z</time>
      </trkpt>
      <trkpt lat="40.865536" lon="-3.979602">
        <ele>1674.4</ele>
        <time>2021-03-28T02:25:32Z</time>
      </trkpt>
      <trkpt lat="40.865364" lon="-3.97978">
        <ele>1673.63</ele>
        <time>2021-03-28T02:25:37Z</time>
      </trkpt>
      <trkpt lat="40.864762" lon="-3.980529">
        <ele>1662.69</ele>
        <time>2021-03-28T02:25:41Z</time>
      </trkpt>
      <trkpt lat="40.864552" lon="-3.980668">
        <ele>1660.96</ele>
        <time>2021-03-28T02:25:45Z</time>
      </trkpt>
      <trkpt lat="40.864382" lon="-3.980688">
        <ele>1661.93</ele>
        <time>2021-03-28T02:25:50Z</time>
      </trkpt>
      <trkpt lat="40.864172" lon="-3.980602">
        <ele>1664.82</ele>
        <time>2021-03-28T02:25:54Z</time>
      </trkpt>
      <trkpt lat="40.863557" lon="-3.980258">
        <ele>1666.21</ele>
        <time>2021-03-28T02:25:59Z</time>
      </trkpt>
      <trkpt lat="40.863183" lon="-3.979902">
        <ele>1668.57</ele>
        <time>2021-03-28T02:26:03Z</time>
      </trkpt>
      <trkpt lat="40.86286" lon="-3.979545">
        <ele>1673.57</ele>
        <time>2021-03-28T02:26:07Z</time>
      </trkpt>
      <trkpt lat="40.862438" lon="-3.979228">
        <ele>1667.74</ele>
        <time>2021-03-28T02:26:12Z</time>
      </trkpt>
      <trkpt lat="40.862114" lon="-3.978768">
        <ele>1667.94</ele>
        <time>2021-03-28T02:26:16Z</time>
      </trkpt>
      <trkpt lat="40.861882" lon="-3.978242">
        <ele>1678.72</ele>
        <time>2021-03-28T02:26:21Z</time>
      </trkpt>
      <trkpt lat="40.861727" lon="-3.978063">
        <ele>1680.85</ele>
        <time>2021-03-28T02:26:25Z</time>
      </trkpt>
      <trkpt lat="40.861512" lon="-3.977931">
        <ele>1681.1</ele>
        <time>2021-03-28T02:26:29Z</time>
      </trkpt>
      <trkpt lat="40.861362" lon="-3.977726">
        <ele>1685.36</ele>
        <time>2021-03-28T02:26:34Z</time>
      </trkpt>
      <trkpt lat="40.861241" lon="-3.97749">
        <ele>1691.21</ele>
        <time>2021-03-28T02:26:38Z</time>
      </trkpt>
      <trkpt lat="40.861064" lon="-3.977298">
        <ele>1695.35</ele>
        <time>2021-03-28T02:26:43Z</time>
      </trkpt>
      <trkpt lat="40.86085" lon="-3.977152">
        <ele>1696.77</ele>
        <time>2021-03-28T02:26:47Z</time>
      </trkpt>
      <trkpt lat="40.86085" lon="-3.977152">
        <ele>1696.77</ele>
        <time>2021-03-28T02:26:47Z</time>
      </trkpt>
      <trkpt lat="40.861064" lon="-3.977298">
        <ele>1695.35</ele>
        <time>2021-03-28T02:26:51Z</time>
      </trkpt>
      <trkpt lat="40.861241" lon="-3.97749">
        <ele>1691.21</ele>
        <time>2021-03-28T02:26:55Z</time>
      </trkpt>
      <trkpt lat="40.861362" lon="-3.977726">
        <ele>1685.36</ele>
        <time>2021-03-28T02:26:59Z</time>
      </trkpt>
      <trkpt lat="40.861512" lon="-3.977931">
        <ele>1681.1</ele>
        <time>2021-03-28T02:27:02Z</time>
      </trkpt>
      <trkpt lat="40.861727" lon="-3.978063">
        <ele>1680.85</ele>
        <time>2021-03-28T02:27:06Z</time>
      </trkpt>
      <trkpt lat="40.861882" lon="-3.978242">
        <ele>1678.72</ele>
        <time>2021-03-28T02:27:10Z</time>
      </trkpt>
      <trkpt lat="40.862114" lon="-3.978768">
        <ele>1667.94</ele>
        <time>2021-03-28T02:27:14Z</time>
      </trkpt>
      <trkpt lat="40.862438" lon="-3.979228">
        <ele>1667.74</ele>
        <time>2021-03-28T02:27:18Z</time>
      </trkpt>
      <trkpt lat="40.86286" lon="-3.979545">
        <ele>1673.57</ele>
        <time>2021-03-28T02:27:22Z</time>
      </trkpt>
      <trkpt lat="40.863183" lon="-3.979902">
        <ele>1668.57</ele>
        <time>2021-03-28T02:27:26Z</time>
      </trkpt>
      <trkpt lat="40.863557" lon="-3.980258">
        <ele>1666.21</ele>
        <time>2021-03-28T02:27:30Z</time>
      </trkpt>
      <trkpt lat="40.864172" lon="-3.980602">
        <ele>1664.82</ele>
        <time>2021-03-28T02:27:33Z</time>
      </trkpt>
      <trkpt lat="40.864382" lon="-3.980688">
        <ele>1661.93</ele>
        <time>2021-03-28T02:27:37Z</time>
      </trkpt>
      <trkpt lat="40.864552" lon="-3.980668">
        <ele>1660.96</ele>
        <time>2021-03-28T02:27:41Z</time>
      </trkpt>
      <trkpt lat="40.864762" lon="-3.980529">
        <ele>1662.69</ele>
        <time>2021-03-28T02:27:45Z</time>
      </trkpt>
      <trkpt lat="40.865364" lon="-3.97978">
        <ele>1673.63</ele>
        <time>2021-03-28T02:27:49Z</time>
      </trkpt>
      <trkpt lat="40.865536" lon="-3.979602">
        <ele>1674.4</ele>
        <time>2021-03-28T02:27:53Z</time>
      </trkpt>
      <trkpt lat="40.865952" lon="-3.979247">
        <ele>1674.99</ele>
        <time>2021-03-28T02:27:57Z</time>
      </trkpt>
      <trkpt lat="40.866132" lon="-3.979128">
        <ele>1676.2</ele>
        <time>2021-03-28T02:28:00Z</time>
      </trkpt>
      <trkpt lat="40.867087" lon="-3.978784">
        <ele>1674.01</ele>
        <time>2021-03-28T02:28:04Z</time>
      </trkpt>
      <trkpt lat="40.867907" lon="-3.978526">
        <ele>1675.53</ele>
        <time>2021-03-28T02:28:08Z</time>
      </trkpt>
      <trkpt lat="40.868127" lon="-3.978334">
        <ele>1677.7</ele>
        <time>2021-03-28T02:28:12Z</time>
      </trkpt>
      <trkpt lat="40.86849" lon="-3.97762">
        <ele>1682.75</ele>
        <time>2021-03-28T02:28:16Z</time>
      </trkpt>
      <trkpt lat="40.868662" lon="-3.976834">
        <ele>1685.17</ele>
        <time>2021-03-28T02:28:20Z</time>
      </trkpt>
      <trkpt lat="40.868975" lon="-3.975828">
        <ele>1688.84</ele>
        <time>2021-03-28T02:28:24Z</time>
      </trkpt>
      <trkpt lat="40.869142" lon="-3.974984">
        <ele>1696.45</ele>
        <time>2021-03-28T02:28:28Z</time>
      </trkpt>
      <trkpt lat="40.869525" lon="-3.973551">
        <ele>1707.12</ele>
        <time>2021-03-28T02:28:31Z</time>
      </trkpt>
      <trkpt lat="40.869567" lon="-3.973436">
        <ele>1709.36</ele>
        <time>2021-03-28T02:28:35Z</time>
      </trkpt>
      <trkpt lat="40.869681" lon="-3.973235">
        <ele>1713.17</ele>
        <time>2021-03-28T02:28:39Z</time>
      </trkpt>
      <trkpt lat="40.869786" lon="-3.973192">
        <ele>1715.06</ele>
        <time>2021-03-28T02:28:43Z</time>
      </trkpt>
      <trkpt lat="40.869883" lon="-3.973271">
        <ele>1715.67</ele>
        <time>2021-03-28T02:28:47Z</time>
      </trkpt>
      <trkpt lat="40.870002" lon="-3.973429">
        <ele>1716.7</ele>
        <time>2021-03-28T02:28:51Z</time>
      </trkpt>
      <trkpt lat="40.870104" lon="-3.973611">
        <ele>1718.98</ele>
        <time>2021-03-28T02:28:55Z</time>
      </trkpt>
      <trkpt lat="40.870305" lon="-3.974195">
        <ele>1717.67</ele>
        <time>2021-03-28T02:28:58Z</time>
      </trkpt>
      <trkpt lat="40.870457" lon="-3.975153">
        <ele>1715.22</ele>
        <time>2021-03-28T02:29:02Z</time>
      </trkpt>
      <trkpt lat="40.870546" lon="-3.975459">
        <ele>1712.87</ele>
        <time>2021-03-28T02:29:06Z</time>
      </trkpt>
      <trkpt lat="40.870636" lon="-3.976113">
        <ele>1714.63</ele>
        <time>2021-03-28T02:29:10Z</time>
      </trkpt>
      <trkpt lat="40.870636" lon="-3.97653">
        <ele>1715.04</ele>
        <time>2021-03-28T02:29:14Z</time>
      </trkpt>
      <trkpt lat="40.870571" lon="-3.976999">
        <ele>1712.44</ele>
        <time>2021-03-28T02:29:18Z</time>
      </trkpt>
      <trkpt lat="40.870581" lon="-3.977548">
        <ele>1711.73</ele>
        <time>2021-03-28T02:29:22Z</time>
      </trkpt>
      <trkpt lat="40.870686" lon="-3.978262">
        <ele>1716.92</ele>
        <time>2021-03-28T02:29:26Z</time>
      </trkpt>
      <trkpt lat="40.870748" lon="-3.978448">
        <ele>1719.13</ele>
        <time>2021-03-28T02:29:29Z</time>
      </trkpt>
      <trkpt lat="40.870776" lon="-3.978749">
        <ele>1719.37</ele>
        <time>2021-03-28T02:29:33Z</time>
      </trkpt>
      <trkpt lat="40.870782" lon="-3.979467">
        <ele>1716.13</ele>
        <time>2021-03-28T02:29:37Z</time>
      </trkpt>
      <trkpt lat="40.870894" lon="-3.979871">
        <ele>1715.12</ele>
        <time>2021-03-28T02:29:41Z</time>
      </trkpt>
      <trkpt lat="40.870969" lon="-3.980036">
        <ele>1715.27</ele>
        <time>2021-03-28T02:29:45Z</time>
      </trkpt>
      <trkpt lat="40.871068" lon="-3.9801">
        <ele>1715.87</ele>
        <time>2021-03-28T02:29:49Z</time>
      </trkpt>
      <trkpt lat="40.871177" lon="-3.98013">
        <ele>1716.44</ele>
        <time>2021-03-28T02:29:53Z</time>
      </trkpt>
      <trkpt lat="40.871311" lon="-3.980156">
        <ele>1716.82</ele>
        <time>2021-03-28T02:29:56Z</time>
      </trkpt>
      <trkpt lat="40.871461" lon="-3.980142">
        <ele>1716.67</ele>
        <time>2021-03-28T02:30:00Z</time>
      </trkpt>
      <trkpt lat="40.871966" lon="-3.979994">
        <ele>1711.68</ele>
        <time>2021-03-28T02:30:04Z</time>
      </trkpt>
      <trkpt lat="40.872751" lon="-3.979676">
        <ele>1702.84</ele>
        <time>2021-03-28T02:30:08Z</time>
      </trkpt>
      <trkpt lat="40.873451" lon="-3.979352">
        <ele>1692.05</ele>
        <time>2021-03-28T02:30:12Z</time>
      </trkpt>
      <trkpt lat="40.873691" lon="-3.979346">
        <ele>1689.29</ele>
        <time>2021-03-28T02:30:16Z</time>
      </trkpt>
      <trkpt lat="40.874021" lon="-3.979293">
        <ele>1684.93</ele>
        <time>2021-03-28T02:30:20Z</time>
      </trkpt>
      <trkpt lat="40.874456" lon="-3.979366">
        <ele>1677.38</ele>
        <time>2021-03-28T02:30:23Z</time>
      </trkpt>
      <trkpt lat="40.87465" lon="-3.979366">
        <ele>1674.07</ele>
        <time>2021-03-28T02:30:27Z</time>
      </trkpt>
      <trkpt lat="40.874876" lon="-3.979313">
        <ele>1671.47</ele>
        <time>2021-03-28T02:30:31Z</time>
      </trkpt>
      <trkpt lat="40.875165" lon="-3.979088">
        <ele>1670.46</ele>
        <time>2021-03-28T02:30:35Z</time>
      </trkpt>
      <trkpt lat="40.875451" lon="-3.978838">
        <ele>1668.39</ele>
        <time>2021-03-28T02:30:39Z</time>
      </trkpt>
      <trkpt lat="40.875525" lon="-3.978804">
        <ele>1667.16</ele>
        <time>2021-03-28T02:30:43Z</time>
      </trkpt>
      <trkpt lat="40.87581" lon="-3.978757">
        <ele>1660.11</ele>
        <time>2021-03-28T02:30:47Z</time>
      </trkpt>
      <trkpt lat="40.87603" lon="-3.978744">
        <ele>1655.63</ele>
        <time>2021-03-28T02:30:51Z</time>
      </trkpt>
      <trkpt lat="40.87646" lon="-3.978929">
        <ele>1650.6</ele>
        <time>2021-03-28T02:30:54Z</time>
      </trkpt>
      <trkpt lat="40.877714" lon="-3.979059">
        <ele>1642.7</ele>
        <time>2021-03-28T02:30:58Z</time>
      </trkpt>
      <trkpt lat="40.877941" lon="-3.979138">
        <ele>1643.36</ele>
        <time>2021-03-28T02:31:02Z</time>
      </trkpt>
      <trkpt lat="40.877971" lon="-3.979184">
        <ele>1643.74</ele>
        <time>2021-03-28T02:31:06Z</time>
      </trkpt>
      <trkpt lat="40.87796" lon="-3.979284">
        <ele>1643.94</ele>
        <time>2021-03-28T02:31:10Z</time>
      </trkpt>
      <trkpt lat="40.877858" lon="-3.97938">
        <ele>1643.51</ele>
        <time>2021-03-28T02:31:14Z</time>
      </trkpt>
      <trkpt lat="40.877667" lon="-3.979508">
        <ele>1641.58</ele>
        <time>2021-03-28T02:31:18Z</time>
      </trkpt>
      <trkpt lat="40.877587" lon="-3.979626">
        <ele>1640.29</ele>
        <time>2021-03-28T02:31:21Z</time>
      </trkpt>
      <trkpt lat="40.877573" lon="-3.979709">
        <ele>1639.83</ele>
        <time>2021-03-28T02:31:25Z</time>
      </trkpt>
      <trkpt lat="40.877573" lon="-3.979801">
        <ele>1638.52</ele>
        <time>2021-03-28T02:31:29Z</time>
      </trkpt>
      <trkpt lat="40.877595" lon="-3.979904">
        <ele>1637.2</ele>
        <time>2021-03-28T02:31:33Z</time>
      </trkpt>
      <trkpt lat="40.877681" lon="-3.980199">
        <ele>1635.12</ele>
        <time>2021-03-28T02:31:37Z</time>
      </trkpt>
      <trkpt lat="40.877701" lon="-3.980611">
        <ele>1631.6</ele>
        <time>2021-03-28T02:31:41Z</time>
      </trkpt>
      <trkpt lat="40.877625" lon="-3.981587">
        <ele>1615.38</ele>
        <time>2021-03-28T02:31:45Z</time>
      </trkpt>
      <trkpt lat="40.877601" lon="-3.9821">
        <ele>1608.56</ele>
        <time>2021-03-28T02:31:49Z</time>
      </trkpt>
      <trkpt lat="40.877488" lon="-3.983169">
        <ele>1596.11</ele>
        <time>2021-03-28T02:31:52Z</time>
      </trkpt>
      <trkpt lat="40.877459" lon="-3.98357">
        <ele>1592.59</ele>
        <time>2021-03-28T02:31:56Z</time>
      </trkpt>
      <trkpt lat="40.877343" lon="-3.984187">
        <ele>1584.09</ele>
        <time>2021-03-28T02:32:00Z</time>
      </trkpt>
      <trkpt lat="40.877016" lon="-3.985298">
        <ele>1577.18</ele>
        <time>2021-03-28T02:32:04Z</time>
      </trkpt>
      <trkpt lat="40.876847" lon="-3.985961">
        <ele>1564.51</ele>
        <time>2021-03-28T02:32:08Z</time>
      </trkpt>
      <trkpt lat="40.876836" lon="-3.986324">
        <ele>1560.56</ele>
        <time>2021-03-28T02:32:12Z</time>
      </trkpt>
      <trkpt lat="40.876882" lon="-3.986649">
        <ele>1553.95</ele>
        <time>2021-03-28T02:32:16Z</time>
      </trkpt>
      <trkpt lat="40.876937" lon="-3.98681">
        <ele>1550.18</ele>
        <time>2021-03-28T02:32:19Z</time>
      </trkpt>
      <trkpt lat="40.87738" lon="-3.98771">
        <ele>1541.34</ele>
        <time>2021-03-28T02:32:23Z</time>
      </trkpt>
      <trkpt lat="40.87758" lon="-3.98801">
        <ele>1533.32</ele>
        <time>2021-03-28T02:32:27Z</time>
      </trkpt>
      <trkpt lat="40.877701" lon="-3.988125">
        <ele>1530.32</ele>
        <time>2021-03-28T02:32:31Z</time>
      </trkpt>
      <trkpt lat="40.877814" lon="-3.9882">
        <ele>1528.02</ele>
        <time>2021-03-28T02:32:35Z</time>
      </trkpt>
      <trkpt lat="40.878136" lon="-3.988316">
        <ele>1521.92</ele>
        <time>2021-03-28T02:32:39Z</time>
      </trkpt>
      <trkpt lat="40.878818" lon="-3.988439">
        <ele>1525.57</ele>
        <time>2021-03-28T02:32:43Z</time>
      </trkpt>
      <trkpt lat="40.879009" lon="-3.988446">
        <ele>1526.94</ele>
        <time>2021-03-28T02:32:47Z</time>
      </trkpt>
      <trkpt lat="40.879221" lon="-3.988415">
        <ele>1528.21</ele>
        <time>2021-03-28T02:32:50Z</time>
      </trkpt>
      <trkpt lat="40.879633" lon="-3.988295">
        <ele>1524.44</ele>
        <time>2021-03-28T02:32:54Z</time>
      </trkpt>
      <trkpt lat="40.880776" lon="-3.988032">
        <ele>1525.94</ele>
        <time>2021-03-28T02:32:58Z</time>
      </trkpt>
      <trkpt lat="40.88242" lon="-3.987367">
        <ele>1517.84</ele>
        <time>2021-03-28T02:33:02Z</time>
      </trkpt>
      <trkpt lat="40.882664" lon="-3.987297">
        <ele>1517.4</ele>
        <time>2021-03-28T02:33:06Z</time>
      </trkpt>
      <trkpt lat="40.882898" lon="-3.987265">
        <ele>1513.93</ele>
        <time>2021-03-28T02:33:10Z</time>
      </trkpt>
      <trkpt lat="40.882996" lon="-3.987229">
        <ele>1513.05</ele>
        <time>2021-03-28T02:33:14Z</time>
      </trkpt>
      <trkpt lat="40.883132" lon="-3.987115">
        <ele>1513.22</ele>
        <time>2021-03-28T02:33:17Z</time>
      </trkpt>
      <trkpt lat="40.883242" lon="-3.98695">
        <ele>1515.74</ele>
        <time>2021-03-28T02:33:21Z</time>
      </trkpt>
      <trkpt lat="40.883623" lon="-3.986241">
        <ele>1517.99</ele>
        <time>2021-03-28T02:33:25Z</time>
      </trkpt>
      <trkpt lat="40.883742" lon="-3.985916">
        <ele>1515.62</ele>
        <time>2021-03-28T02:33:29Z</time>
      </trkpt>
      <trkpt lat="40.884008" lon="-3.984991">
        <ele>1518.15</ele>
        <time>2021-03-28T02:33:33Z</time>
      </trkpt>
      <trkpt lat="40.884355" lon="-3.984144">
        <ele>1506.5</ele>
        <time>2021-03-28T02:33:37Z</time>
      </trkpt>
      <trkpt lat="40.884619" lon="-3.983339">
        <ele>1489.97</ele>
        <time>2021-03-28T02:33:41Z</time>
      </trkpt>
      <trkpt lat="40.884669" lon="-3.983271">
        <ele>1486.43</ele>
        <time>2021-03-28T02:33:45Z</time>
      </trkpt>
      <trkpt lat="40.884713" lon="-3.983257">
        <ele>1483.7</ele>
        <time>2021-03-28T02:33:48Z</time>
      </trkpt>
      <trkpt lat="40.884754" lon="-3.983271">
        <ele>1482.2</ele>
        <time>2021-03-28T02:33:52Z</time>
      </trkpt>
      <trkpt lat="40.884847" lon="-3.98342">
        <ele>1479.68</ele>
        <time>2021-03-28T02:33:56Z</time>
      </trkpt>
      <trkpt lat="40.885026" lon="-3.983974">
        <ele>1470.57</ele>
        <time>2021-03-28T02:34:00Z</time>
      </trkpt>
      <trkpt lat="40.885084" lon="-3.984847">
        <ele>1461.22</ele>
        <time>2021-03-28T02:34:04Z</time>
      </trkpt>
      <trkpt lat="40.885076" lon="-3.98506">
        <ele>1459.12</ele>
        <time>2021-03-28T02:34:08Z</time>
      </trkpt>
      <trkpt lat="40.884946" lon="-3.985803">
        <ele>1454.51</ele>
        <time>2021-03-28T02:34:12Z</time>
      </trkpt>
      <trkpt lat="40.884935" lon="-3.986135">
        <ele>1448.24</ele>
        <time>2021-03-28T02:34:15Z</time>
      </trkpt>
      <trkpt lat="40.88494" lon="-3.986305">
        <ele>1446.41</ele>
        <time>2021-03-28T02:34:19Z</time>
      </trkpt>
      <trkpt lat="40.885064" lon="-3.987213">
        <ele>1439.75</ele>
        <time>2021-03-28T02:34:23Z</time>
      </trkpt>
      <trkpt lat="40.885067" lon="-3.987364">
        <ele>1437.06</ele>
        <time>2021-03-28T02:34:27Z</time>
      </trkpt>
      <trkpt lat="40.885046" lon="-3.987528">
        <ele>1435.29</ele>
        <time>2021-03-28T02:34:31Z</time>
      </trkpt>
      <trkpt lat="40.884984" lon="-3.987751">
        <ele>1435.05</ele>
        <time>2021-03-28T02:34:35Z</time>
      </trkpt>
      <trkpt lat="40.884874" lon="-3.988039">
        <ele>1435.57</ele>
        <time>2021-03-28T02:34:39Z</time>
      </trkpt>
      <trkpt lat="40.884543" lon="-3.988814">
        <ele>1428.94</ele>
        <time>2021-03-28T02:34:43Z</time>
      </trkpt>
      <trkpt lat="40.884001" lon="-3.990167">
        <ele>1411.82</ele>
        <time>2021-03-28T02:34:46Z</time>
      </trkpt>
      <trkpt lat="40.883866" lon="-3.990335">
        <ele>1410.01</ele>
        <time>2021-03-28T02:34:50Z</time>
      </trkpt>
      <trkpt lat="40.883367" lon="-3.991113">
        <ele>1406.22</ele>
        <time>2021-03-28T02:34:54Z</time>
      </trkpt>
      <trkpt lat="40.883295" lon="-3.991254">
        <ele>1405.97</ele>
        <time>2021-03-28T02:34:58Z</time>
      </trkpt>
      <trkpt lat="40.883241" lon="-3.991416">
        <ele>1404.93</ele>
        <time>2021-03-28T02:35:02Z</time>
      </trkpt>
      <trkpt lat="40.883198" lon="-3.991617">
        <ele>1402.74</ele>
        <time>2021-03-28T02:35:06Z</time>
      </trkpt>
      <trkpt lat="40.88318" lon="-3.991847">
        <ele>1398.31</ele>
        <time>2021-03-28T02:35:10Z</time>
      </trkpt>
      <trkpt lat="40.883188" lon="-3.992402">
        <ele>1388.66</ele>
        <time>2021-03-28T02:35:13Z</time>
      </trkpt>
      <trkpt lat="40.883167" lon="-3.992778">
        <ele>1386.58</ele>
        <time>2021-03-28T02:35:17Z</time>
      </trkpt>
      <trkpt lat="40.883046" lon="-3.993256">
        <ele>1384.94</ele>
        <time>2021-03-28T02:35:21Z</time>
      </trkpt>
      <trkpt lat="40.882888" lon="-3.994077">
        <ele>1371.42</ele>
        <time>2021-03-28T02:35:25Z</time>
      </trkpt>
      <trkpt lat="40.882826" lon="-3.994286">
        <ele>1368.29</ele>
        <time>2021-03-28T02:35:29Z</time>
      </trkpt>
      <trkpt lat="40.882769" lon="-3.994396">
        <ele>1366.24</ele>
        <time>2021-03-28T02:35:33Z</time>
      </trkpt>
      <trkpt lat="40.882671" lon="-3.994524">
        <ele>1363.73</ele>
        <time>2021-03-28T02:35:37Z</time>
      </trkpt>
      <trkpt lat="40.882392" lon="-3.994812">
        <ele>1356.98</ele>
        <time>2021-03-28T02:35:41Z</time>
      </trkpt>
      <trkpt lat="40.882195" lon="-3.994972">
        <ele>1353.41</ele>
        <time>2021-03-28T02:35:44Z</time>
      </trkpt>
      <trkpt lat="40.881982" lon="-3.995112">
        <ele>1351.57</ele>
        <time>2021-03-28T02:35:48Z</time>
      </trkpt>
      <trkpt lat="40.881852" lon="-3.995233">
        <ele>1352.26</ele>
        <time>2021-03-28T02:35:52Z</time>
      </trkpt>
      <trkpt lat="40.881492" lon="-3.995453">
        <ele>1354.45</ele>
        <time>2021-03-28T02:35:56Z</time>
      </trkpt>
      <trkpt lat="40.881052" lon="-3.995905">
        <ele>1350.83</ele>
        <time>2021-03-28T02:36:00Z</time>
      </trkpt>
      <trkpt lat="40.880931" lon="-3.996066">
        <ele>1350.6</ele>
        <time>2021-03-28T02:36:04Z</time>
      </trkpt>
      <trkpt lat="40.880868" lon="-3.996201">
        <ele>1350.19</ele>
        <time>2021-03-28T02:36:08Z</time>
      </trkpt>
      <trkpt lat="40.880822" lon="-3.996336">
        <ele>1349.7</ele>
        <time>2021-03-28T02:36:11Z</time>
      </trkpt>
      <trkpt lat="40.88076" lon="-3.996632">
        <ele>1346.52</ele>
        <time>2021-03-28T02:36:15Z</time>
      </trkpt>
      <trkpt lat="40.88072" lon="-3.996717">
        <ele>1345.72</ele>
        <time>2021-03-28T02:36:19Z</time>
      </trkpt>
      <trkpt lat="40.880644" lon="-3.996806">
        <ele>1345.22</ele>
        <time>2021-03-28T02:36:23Z</time>
      </trkpt>
      <trkpt lat="40.880541" lon="-3.996836">
        <ele>1345.87</ele>
        <time>2021-03-28T02:36:27Z</time>
      </trkpt>
      <trkpt lat="40.88033" lon="-3.996825">
        <ele>1344.98</ele>
        <time>2021-03-28T02:36:31Z</time>
      </trkpt>
      <trkpt lat="40.880269" lon="-3.996845">
        <ele>1344.31</ele>
        <time>2021-03-28T02:36:35Z</time>
      </trkpt>
      <trkpt lat="40.880199" lon="-3.996895">
        <ele>1342.58</ele>
        <time>2021-03-28T02:36:38Z</time>
      </trkpt>
      <trkpt lat="40.880147" lon="-3.996977">
        <ele>1340.75</ele>
        <time>2021-03-28T02:36:42Z</time>
      </trkpt>
      <trkpt lat="40.880128" lon="-3.997052">
        <ele>1339.71</ele>
        <time>2021-03-28T02:36:46Z</time>
      </trkpt>
      <trkpt lat="40.880114" lon="-3.997238">
        <ele>1337.65</ele>
        <time>2021-03-28T02:36:50Z</time>
      </trkpt>
      <trkpt lat="40.880137" lon="-3.997442">
        <ele>1335.61</ele>
        <time>2021-03-28T02:36:54Z</time>
      </trkpt>
      <trkpt lat="40.880254" lon="-3.997976">
        <ele>1331.41</ele>
        <time>2021-03-28T02:36:58Z</time>
      </trkpt>
      <trkpt lat="40.880312" lon="-3.998326">
        <ele>1327.95</ele>
        <time>2021-03-28T02:37:02Z</time>
      </trkpt>
      <trkpt lat="40.880356" lon="-3.998887">
        <ele>1323.73</ele>
        <time>2021-03-28T02:37:06Z</time>
      </trkpt>
      <trkpt lat="40.880348" lon="-3.999414">
        <ele>1318.6</ele>
        <time>2021-03-28T02:37:09Z</time>
      </trkpt>
      <trkpt lat="40.880378" lon="-4.000031">
        <ele>1310.58</ele>
        <time>2021-03-28T02:37:13Z</time>
      </trkpt>
      <trkpt lat="40.880398" lon="-4.00014">
        <ele>1309.19</ele>
        <time>2021-03-28T02:37:17Z</time>
      </trkpt>
      <trkpt lat="40.880492" lon="-4.000339">
        <ele>1305.92</ele>
        <time>2021-03-28T02:37:21Z</time>
      </trkpt>
      <trkpt lat="40.880785" lon="-4.000579">
        <ele>1301.23</ele>
        <time>2021-03-28T02:37:25Z</time>
      </trkpt>
      <trkpt lat="40.881435" lon="-4.000948">
        <ele>1294.32</ele>
        <time>2021-03-28T02:37:29Z</time>
      </trkpt>
      <trkpt lat="40.881644" lon="-4.001096">
        <ele>1291.27</ele>
        <time>2021-03-28T02:37:33Z</time>
      </trkpt>
      <trkpt lat="40.881801" lon="-4.001237">
        <ele>1292.01</ele>
        <time>2021-03-28T02:37:36Z</time>
      </trkpt>
      <trkpt lat="40.881937" lon="-4.001403">
        <ele>1291.83</ele>
        <time>2021-03-28T02:37:40Z</time>
      </trkpt>
      <trkpt lat="40.882088" lon="-4.0017">
        <ele>1289.55</ele>
        <time>2021-03-28T02:37:44Z</time>
      </trkpt>
      <trkpt lat="40.882162" lon="-4.002018">
        <ele>1285.51</ele>
        <time>2021-03-28T02:37:48Z</time>
      </trkpt>
      <trkpt lat="40.882233" lon="-4.00274">
        <ele>1277.49</ele>
        <time>2021-03-28T02:37:52Z</time>
      </trkpt>
      <trkpt lat="40.882312" lon="-4.002998">
        <ele>1274.76</ele>
        <time>2021-03-28T02:37:56Z</time>
      </trkpt>
      <trkpt lat="40.882414" lon="-4.003166">
        <ele>1273.18</ele>
        <time>2021-03-28T02:38:00Z</time>
      </trkpt>
      <trkpt lat="40.882473" lon="-4.003217">
        <ele>1272.43</ele>
        <time>2021-03-28T02:38:04Z</time>
      </trkpt>
      <trkpt lat="40.88263" lon="-4.003303">
        <ele>1271.32</ele>
        <time>2021-03-28T02:38:07Z</time>
      </trkpt>
      <trkpt lat="40.882799" lon="-4.003352">
        <ele>1270.66</ele>
        <time>2021-03-28T02:38:11Z</time>
      </trkpt>
      <trkpt lat="40.883165" lon="-4.003388">
        <ele>1269.8</ele>
        <time>2021-03-28T02:38:15Z</time>
      </trkpt>
      <trkpt lat="40.883913" lon="-4.003705">
        <ele>1261.3</ele>
        <time>2021-03-28T02:38:19Z</time>
      </trkpt>
      <trkpt lat="40.884101" lon="-4.003688">
        <ele>1261.23</ele>
        <time>2021-03-28T02:38:23Z</time>
      </trkpt>
      <trkpt lat="40.884299" lon="-4.003636">
        <ele>1260.38</ele>
        <time>2021-03-28T02:38:27Z</time>
      </trkpt>
      <trkpt lat="40.884374" lon="-4.003673">
        <ele>1259.42</ele>
        <time>2021-03-28T02:38:31Z</time>
      </trkpt>
      <trkpt lat="40.884422" lon="-4.00379">
        <ele>1258.49</ele>
        <time>2021-03-28T02:38:34Z</time>
      </trkpt>
      <trkpt lat="40.884403" lon="-4.003983">
        <ele>1257.47</ele>
        <time>2021-03-28T02:38:38Z</time>
      </trkpt>
      <trkpt lat="40.884342" lon="-4.004125">
        <ele>1256.67</ele>
        <time>2021-03-28T02:38:42Z</time>
      </trkpt>
      <trkpt lat="40.884251" lon="-4.004247">
        <ele>1255.71</ele>
        <time>2021-03-28T02:38:46Z</time>
      </trkpt>
      <trkpt lat="40.884063" lon="-4.004389">
        <ele>1253.35</ele>
        <time>2021-03-28T02:38:50Z</time>
      </trkpt>
      <trkpt lat="40.883949" lon="-4.004418">
        <ele>1252.52</ele>
        <time>2021-03-28T02:38:54Z</time>
      </trkpt>
      <trkpt lat="40.883636" lon="-4.00445">
        <ele>1253.76</ele>
        <time>2021-03-28T02:38:58Z</time>
      </trkpt>
      <trkpt lat="40.883484" lon="-4.004512">
        <ele>1255.32</ele>
        <time>2021-03-28T02:39:02Z</time>
      </trkpt>
      <trkpt lat="40.883404" lon="-4.004634">
        <ele>1255.96</ele>
        <time>2021-03-28T02:39:05Z</time>
      </trkpt>
      <trkpt lat="40.883393" lon="-4.004743">
        <ele>1255.62</ele>
        <time>2021-03-28T02:39:09Z</time>
      </trkpt>
      <trkpt lat="40.88345" lon="-4.004824">
        <ele>1253.96</ele>
        <time>2021-03-28T02:39:13Z</time>
      </trkpt>
      <trkpt lat="40.883591" lon="-4.004906">
        <ele>1250.16</ele>
        <time>2021-03-28T02:39:17Z</time>
      </trkpt>
      <trkpt lat="40.883643" lon="-4.004982">
        <ele>1248.91</ele>
        <time>2021-03-28T02:39:20Z</time>
      </trkpt>
      <trkpt lat="40.883689" lon="-4.005133">
        <ele>1248.17</ele>
        <time>2021-03-28T02:39:24Z</time>
      </trkpt>
      <trkpt lat="40.883709" lon="-4.005441">
        <ele>1248.18</ele>
        <time>2021-03-28T02:39:27Z</time>
      </trkpt>
      <trkpt lat="40.883852" lon="-4.006513">
        <ele>1249.42</ele>
        <time>2021-03-28T02:39:31Z</time>
      </trkpt>
      <trkpt lat="40.883841" lon="-4.007338">
        <ele>1246.55</ele>
        <time>2021-03-28T02:39:34Z</time>
      </trkpt>
      <trkpt lat="40.883819" lon="-4.007529">
        <ele>1246.08</ele>
        <time>2021-03-28T02:39:38Z</time>
      </trkpt>
      <trkpt lat="40.883686" lon="-4.008108">
        <ele>1243.98</ele>
        <time>2021-03-28T02:39:41Z</time>
      </trkpt>
      <trkpt lat="40.883655" lon="-4.008328">
        <ele>1242.42</ele>
        <time>2021-03-28T02:39:45Z</time>
      </trkpt>
      <trkpt lat="40.883662" lon="-4.008987">
        <ele>1236.08</ele>
        <time>2021-03-28T02:39:49Z</time>
      </trkpt>
      <trkpt lat="40.883712" lon="-4.008868">
        <ele>1235.34</ele>
        <time>2021-03-28T02:39:53Z</time>
      </trkpt>
      <trkpt lat="40.883847" lon="-4.008326">
        <ele>1239.69</ele>
        <time>2021-03-28T02:39:57Z</time>
      </trkpt>
      <trkpt lat="40.883916" lon="-4.008178">
        <ele>1241.09</ele>
        <time>2021-03-28T02:40:02Z</time>
      </trkpt>
      <trkpt lat="40.884012" lon="-4.008046">
        <ele>1242.17</ele>
        <time>2021-03-28T02:40:06Z</time>
      </trkpt>
      <trkpt lat="40.884539" lon="-4.007765">
        <ele>1241.38</ele>
        <time>2021-03-28T02:40:11Z</time>
      </trkpt>
      <trkpt lat="40.884767" lon="-4.007696">
        <ele>1239.89</ele>
        <time>2021-03-28T02:40:15Z</time>
      </trkpt>
      <trkpt lat="40.884867" lon="-4.007707">
        <ele>1238.29</ele>
        <time>2021-03-28T02:40:20Z</time>
      </trkpt>
      <trkpt lat="40.885295" lon="-4.008014">
        <ele>1232.02</ele>
        <time>2021-03-28T02:40:24Z</time>
      </trkpt>
      <trkpt lat="40.885383" lon="-4.008193">
        <ele>1230.24</ele>
        <time>2021-03-28T02:40:29Z</time>
      </trkpt>
      <trkpt lat="40.885587" lon="-4.00941">
        <ele>1212.5</ele>
        <time>2021-03-28T02:40:33Z</time>
      </trkpt>
      <trkpt lat="40.885687" lon="-4.009584">
        <ele>1210.04</ele>
        <time>2021-03-28T02:40:38Z</time>
      </trkpt>
      <trkpt lat="40.885791" lon="-4.009637">
        <ele>1208.58</ele>
        <time>2021-03-28T02:40:42Z</time>
      </trkpt>
      <trkpt lat="40.886193" lon="-4.009505">
        <ele>1210.04</ele>
        <time>2021-03-28T02:40:47Z</time>
      </trkpt>
      <trkpt lat="40.886297" lon="-4.00949">
        <ele>1210.4</ele>
        <time>2021-03-28T02:40:51Z</time>
      </trkpt>
      <trkpt lat="40.886647" lon="-4.009262">
        <ele>1212.36</ele>
        <time>2021-03-28T02:40:56Z</time>
      </trkpt>
      <trkpt lat="40.887518" lon="-4.008204">
        <ele>1208.74</ele>
        <time>2021-03-28T02:41:00Z</time>
      </trkpt>
      <trkpt lat="40.88763" lon="-4.008109">
        <ele>1206.84</ele>
        <time>2021-03-28T02:41:04Z</time>
      </trkpt>
      <trkpt lat="40.887718" lon="-4.008083">
        <ele>1205.22</ele>
        <time>2021-03-28T02:41:09Z</time>
      </trkpt>
      <trkpt lat="40.88781" lon="-4.008083">
        <ele>1203.61</ele>
        <time>2021-03-28T02:41:13Z</time>
      </trkpt>
      <trkpt lat="40.887942" lon="-4.008151">
        <ele>1201.73</ele>
        <time>2021-03-28T02:41:18Z</time>
      </trkpt>
      <trkpt lat="40.889082" lon="-4.009151">
        <ele>1190.67</ele>
        <time>2021-03-28T02:41:22Z</time>
      </trkpt>
      <trkpt lat="40.889237" lon="-4.00923">
        <ele>1189.46</ele>
        <time>2021-03-28T02:41:27Z</time>
      </trkpt>
      <trkpt lat="40.889377" lon="-4.009225">
        <ele>1188.87</ele>
        <time>2021-03-28T02:41:31Z</time>
      </trkpt>
      <trkpt lat="40.889544" lon="-4.009216">
        <ele>1188.41</ele>
        <time>2021-03-28T02:41:36Z</time>
      </trkpt>
      <trkpt lat="40.889677" lon="-4.009183">
        <ele>1188.14</ele>
        <time>2021-03-28T02:41:40Z</time>
      </trkpt>
      <trkpt lat="40.889981" lon="-4.009198">
        <ele>1189.76</ele>
        <time>2021-03-28T02:41:45Z</time>
      </trkpt>
      <trkpt lat="40.8916" lon="-4.009674">
        <ele>1188.65</ele>
        <time>2021-03-28T02:41:49Z</time>
      </trkpt>
      <trkpt lat="40.891832" lon="-4.009685">
        <ele>1189.21</ele>
        <time>2021-03-28T02:41:54Z</time>
      </trkpt>
      <trkpt lat="40.89206" lon="-4.009637">
        <ele>1188.74</ele>
        <time>2021-03-28T02:41:58Z</time>
      </trkpt>
      <trkpt lat="40.892952" lon="-4.009272">
        <ele>1188.12</ele>
        <time>2021-03-28T02:42:02Z</time>
      </trkpt>
      <trkpt lat="40.893482" lon="-4.009218">
        <ele>1183.71</ele>
        <time>2021-03-28T02:42:07Z</time>
      </trkpt>
      <trkpt lat="40.893655" lon="-4.012138">
        <ele>1178.01</ele>
        <time>2021-03-28T02:42:32Z</time>
      </trkpt>
      <trkpt lat="40.891623" lon="-4.01265">
        <ele>1177.16</ele>
        <time>2021-03-28T02:42:35Z</time>
      </trkpt>
      <trkpt lat="40.891284" lon="-4.012773">
        <ele>1178.38</ele>
        <time>2021-03-28T02:42:37Z</time>
      </trkpt>
      <trkpt lat="40.891022" lon="-4.012901">
        <ele>1179.16</ele>
        <time>2021-03-28T02:42:39Z</time>
      </trkpt>
      <trkpt lat="40.890753" lon="-4.013092">
        <ele>1181.29</ele>
        <time>2021-03-28T02:42:42Z</time>
      </trkpt>
      <trkpt lat="40.890475" lon="-4.013385">
        <ele>1181.87</ele>
        <time>2021-03-28T02:42:44Z</time>
      </trkpt>
      <trkpt lat="40.889955" lon="-4.014001">
        <ele>1182.53</ele>
        <time>2021-03-28T02:42:46Z</time>
      </trkpt>
      <trkpt lat="40.888539" lon="-4.015234">
        <ele>1174.16</ele>
        <time>2021-03-28T02:42:49Z</time>
      </trkpt>
      <trkpt lat="40.888324" lon="-4.015375">
        <ele>1173.98</ele>
        <time>2021-03-28T02:42:51Z</time>
      </trkpt>
      <trkpt lat="40.886835" lon="-4.016641">
        <ele>1178.13</ele>
        <time>2021-03-28T02:42:53Z</time>
      </trkpt>
      <trkpt lat="40.886529" lon="-4.016827">
        <ele>1179.49</ele>
        <time>2021-03-28T02:42:56Z</time>
      </trkpt>
      <trkpt lat="40.884563" lon="-4.017834">
        <ele>1189.74</ele>
        <time>2021-03-28T02:42:58Z</time>
      </trkpt>
      <trkpt lat="40.8841" lon="-4.018071">
        <ele>1190.44</ele>
        <time>2021-03-28T02:43:00Z</time>
      </trkpt>
      <trkpt lat="40.883988" lon="-4.018188">
        <ele>1191.11</ele>
        <time>2021-03-28T02:43:03Z</time>
      </trkpt>
      <trkpt lat="40.883906" lon="-4.018313">
        <ele>1191.81</ele>
        <time>2021-03-28T02:43:05Z</time>
      </trkpt>
      <trkpt lat="40.883769" lon="-4.018751">
        <ele>1195.07</ele>
        <time>2021-03-28T02:43:07Z</time>
      </trkpt>
      <trkpt lat="40.883677" lon="-4.018869">
        <ele>1195.97</ele>
        <time>2021-03-28T02:43:10Z</time>
      </trkpt>
      <trkpt lat="40.883394" lon="-4.019089">
        <ele>1195.91</ele>
        <time>2021-03-28T02:43:12Z</time>
      </trkpt>
      <trkpt lat="40.883125" lon="-4.019243">
        <ele>1193.21</ele>
        <time>2021-03-28T02:43:14Z</time>
      </trkpt>
      <trkpt lat="40.883021" lon="-4.019274">
        <ele>1192.55</ele>
        <time>2021-03-28T02:43:16Z</time>
      </trkpt>
      <trkpt lat="40.882935" lon="-4.019266">
        <ele>1193.35</ele>
        <time>2021-03-28T02:43:19Z</time>
      </trkpt>
      <trkpt lat="40.88236" lon="-4.018968">
        <ele>1199.79</ele>
        <time>2021-03-28T02:43:21Z</time>
      </trkpt>
      <trkpt lat="40.882011" lon="-4.018806">
        <ele>1197.71</ele>
        <time>2021-03-28T02:43:23Z</time>
      </trkpt>
      <trkpt lat="40.881716" lon="-4.018696">
        <ele>1197.26</ele>
        <time>2021-03-28T02:43:26Z</time>
      </trkpt>
      <trkpt lat="40.880349" lon="-4.018365">
        <ele>1201.11</ele>
        <time>2021-03-28T02:43:28Z</time>
      </trkpt>
      <trkpt lat="40.879772" lon="-4.01835">
        <ele>1203.04</ele>
        <time>2021-03-28T02:43:30Z</time>
      </trkpt>
      <trkpt lat="40.878972" lon="-4.018368">
        <ele>1203.92</ele>
        <time>2021-03-28T02:43:33Z</time>
      </trkpt>
      <trkpt lat="40.878301" lon="-4.018397">
        <ele>1204.97</ele>
        <time>2021-03-28T02:43:35Z</time>
      </trkpt>
      <trkpt lat="40.878188" lon="-4.01842">
        <ele>1204.23</ele>
        <time>2021-03-28T02:43:37Z</time>
      </trkpt>
      <trkpt lat="40.878054" lon="-4.018501">
        <ele>1202.58</ele>
        <time>2021-03-28T02:43:40Z</time>
      </trkpt>
      <trkpt lat="40.876546" lon="-4.02028">
        <ele>1190.29</ele>
        <time>2021-03-28T02:43:42Z</time>
      </trkpt>
      <trkpt lat="40.876345" lon="-4.02046">
        <ele>1191.0</ele>
        <time>2021-03-28T02:43:44Z</time>
      </trkpt>
      <trkpt lat="40.876123" lon="-4.020569">
        <ele>1191.77</ele>
        <time>2021-03-28T02:43:47Z</time>
      </trkpt>
      <trkpt lat="40.875874" lon="-4.020652">
        <ele>1194.37</ele>
        <time>2021-03-28T02:43:49Z</time>
      </trkpt>
      <trkpt lat="40.874813" lon="-4.020908">
        <ele>1198.46</ele>
        <time>2021-03-28T02:43:51Z</time>
      </trkpt>
      <trkpt lat="40.873045" lon="-4.021384">
        <ele>1208.04</ele>
        <time>2021-03-28T02:43:54Z</time>
      </trkpt>
      <trkpt lat="40.87184" lon="-4.021707">
        <ele>1218.23</ele>
        <time>2021-03-28T02:43:56Z</time>
      </trkpt>
      <trkpt lat="40.871532" lon="-4.021847">
        <ele>1219.0</ele>
        <time>2021-03-28T02:43:58Z</time>
      </trkpt>
      <trkpt lat="40.870749" lon="-4.022255">
        <ele>1221.69</ele>
        <time>2021-03-28T02:44:01Z</time>
      </trkpt>
      <trkpt lat="40.870563" lon="-4.022318">
        <ele>1221.3</ele>
        <time>2021-03-28T02:44:03Z</time>
      </trkpt>
      <trkpt lat="40.870216" lon="-4.022388">
        <ele>1221.27</ele>
        <time>2021-03-28T02:44:05Z</time>
      </trkpt>
      <trkpt lat="40.869636" lon="-4.022431">
        <ele>1219.81</ele>
        <time>2021-03-28T02:44:07Z</time>
      </trkpt>
      <trkpt lat="40.868961" lon="-4.022368">
        <ele>1222.56</ele>
        <time>2021-03-28T02:44:10Z</time>
      </trkpt>
      <trkpt lat="40.868876" lon="-4.022393">
        <ele>1222.18</ele>
        <time>2021-03-28T02:44:12Z</time>
      </trkpt>
      <trkpt lat="40.868796" lon="-4.022443">
        <ele>1221.88</ele>
        <time>2021-03-28T02:44:14Z</time>
      </trkpt>
      <trkpt lat="40.86863" lon="-4.022639">
        <ele>1219.99</ele>
        <time>2021-03-28T02:44:17Z</time>
      </trkpt>
      <trkpt lat="40.868347" lon="-4.023161">
        <ele>1213.12</ele>
        <time>2021-03-28T02:44:19Z</time>
      </trkpt>
      <trkpt lat="40.86826" lon="-4.023285">
        <ele>1211.35</ele>
        <time>2021-03-28T02:44:21Z</time>
      </trkpt>
      <trkpt lat="40.868186" lon="-4.023351">
        <ele>1210.99</ele>
        <time>2021-03-28T02:44:24Z</time>
      </trkpt>
      <trkpt lat="40.867971" lon="-4.023438">
        <ele>1211.74</ele>
        <time>2021-03-28T02:44:26Z</time>
      </trkpt>
      <trkpt lat="40.867757" lon="-4.023563">
        <ele>1211.68</ele>
        <time>2021-03-28T02:44:28Z</time>
      </trkpt>
      <trkpt lat="40.867478" lon="-4.023793">
        <ele>1211.95</ele>
        <time>2021-03-28T02:44:31Z</time>
      </trkpt>
      <trkpt lat="40.866812" lon="-4.024556">
        <ele>1211.48</ele>
        <time>2021-03-28T02:44:33Z</time>
      </trkpt>
      <trkpt lat="40.865893" lon="-4.0255">
        <ele>1219.21</ele>
        <time>2021-03-28T02:44:35Z</time>
      </trkpt>
      <trkpt lat="40.865627" lon="-4.025857">
        <ele>1220.0</ele>
        <time>2021-03-28T02:44:38Z</time>
      </trkpt>
      <trkpt lat="40.865077" lon="-4.026806">
        <ele>1223.58</ele>
        <time>2021-03-28T02:44:40Z</time>
      </trkpt>
      <trkpt lat="40.864896" lon="-4.027038">
        <ele>1221.97</ele>
        <time>2021-03-28T02:44:42Z</time>
      </trkpt>
      <trkpt lat="40.864674" lon="-4.027212">
        <ele>1220.81</ele>
        <time>2021-03-28T02:44:45Z</time>
      </trkpt>
      <trkpt lat="40.864429" lon="-4.027298">
        <ele>1218.1</ele>
        <time>2021-03-28T02:44:47Z</time>
      </trkpt>
      <trkpt lat="40.864296" lon="-4.027308">
        <ele>1217.2</ele>
        <time>2021-03-28T02:44:49Z</time>
      </trkpt>
      <trkpt lat="40.864174" lon="-4.027294">
        <ele>1216.74</ele>
        <time>2021-03-28T02:44:51Z</time>
      </trkpt>
      <trkpt lat="40.864045" lon="-4.027253">
        <ele>1216.61</ele>
        <time>2021-03-28T02:44:54Z</time>
      </trkpt>
      <trkpt lat="40.863888" lon="-4.027176">
        <ele>1216.83</ele>
        <time>2021-03-28T02:44:56Z</time>
      </trkpt>
      <trkpt lat="40.86358" lon="-4.026979">
        <ele>1216.84</ele>
        <time>2021-03-28T02:44:58Z</time>
      </trkpt>
      <trkpt lat="40.863088" lon="-4.026629">
        <ele>1215.02</ele>
        <time>2021-03-28T02:45:01Z</time>
      </trkpt>
      <trkpt lat="40.862906" lon="-4.026525">
        <ele>1214.97</ele>
        <time>2021-03-28T02:45:03Z</time>
      </trkpt>
      <trkpt lat="40.862702" lon="-4.026464">
        <ele>1214.92</ele>
        <time>2021-03-28T02:45:05Z</time>
      </trkpt>
      <trkpt lat="40.861644" lon="-4.026442">
        <ele>1215.61</ele>
        <time>2021-03-28T02:45:08Z</time>
      </trkpt>
      <trkpt lat="40.860686" lon="-4.026559">
        <ele>1221.71</ele>
        <time>2021-03-28T02:45:10Z</time>
      </trkpt>
      <trkpt lat="40.860536" lon="-4.026556">
        <ele>1224.08</ele>
        <time>2021-03-28T02:45:12Z</time>
      </trkpt>
      <trkpt lat="40.85959" lon="-4.026279">
        <ele>1221.6</ele>
        <time>2021-03-28T02:45:15Z</time>
      </trkpt>
      <trkpt lat="40.859354" lon="-4.026242">
        <ele>1221.83</ele>
        <time>2021-03-28T02:45:17Z</time>
      </trkpt>
      <trkpt lat="40.858784" lon="-4.026215">
        <ele>1225.52</ele>
        <time>2021-03-28T02:45:19Z</time>
      </trkpt>
      <trkpt lat="40.858608" lon="-4.026231">
        <ele>1226.43</ele>
        <time>2021-03-28T02:45:22Z</time>
      </trkpt>
      <trkpt lat="40.85744" lon="-4.02652">
        <ele>1220.54</ele>
        <time>2021-03-28T02:45:24Z</time>
      </trkpt>
      <trkpt lat="40.857006" lon="-4.026671">
        <ele>1223.53</ele>
        <time>2021-03-28T02:45:26Z</time>
      </trkpt>
      <trkpt lat="40.856746" lon="-4.026738">
        <ele>1224.54</ele>
        <time>2021-03-28T02:45:29Z</time>
      </trkpt>
      <trkpt lat="40.856576" lon="-4.026754">
        <ele>1225.07</ele>
        <time>2021-03-28T02:45:31Z</time>
      </trkpt>
      <trkpt lat="40.855704" lon="-4.026746">
        <ele>1228.92</ele>
        <time>2021-03-28T02:45:33Z</time>
      </trkpt>
      <trkpt lat="40.855584" lon="-4.026726">
        <ele>1228.35</ele>
        <time>2021-03-28T02:45:36Z</time>
      </trkpt>
      <trkpt lat="40.855443" lon="-4.026656">
        <ele>1228.74</ele>
        <time>2021-03-28T02:45:38Z</time>
      </trkpt>
      <trkpt lat="40.855037" lon="-4.026263">
        <ele>1231.49</ele>
        <time>2021-03-28T02:45:40Z</time>
      </trkpt>
      <trkpt lat="40.854954" lon="-4.026225">
        <ele>1231.84</ele>
        <time>2021-03-28T02:45:42Z</time>
      </trkpt>
      <trkpt lat="40.854868" lon="-4.02622">
        <ele>1232.01</ele>
        <time>2021-03-28T02:45:45Z</time>
      </trkpt>
      <trkpt lat="40.854383" lon="-4.026382">
        <ele>1234.84</ele>
        <time>2021-03-28T02:45:47Z</time>
      </trkpt>
      <trkpt lat="40.854295" lon="-4.026431">
        <ele>1236.99</ele>
        <time>2021-03-28T02:45:49Z</time>
      </trkpt>
      <trkpt lat="40.85424" lon="-4.026488">
        <ele>1237.99</ele>
        <time>2021-03-28T02:45:52Z</time>
      </trkpt>
      <trkpt lat="40.854187" lon="-4.026561">
        <ele>1238.66</ele>
        <time>2021-03-28T02:45:54Z</time>
      </trkpt>
      <trkpt lat="40.854136" lon="-4.026669">
        <ele>1238.84</ele>
        <time>2021-03-28T02:45:56Z</time>
      </trkpt>
      <trkpt lat="40.854053" lon="-4.027131">
        <ele>1235.38</ele>
        <time>2021-03-28T02:45:59Z</time>
      </trkpt>
      <trkpt lat="40.854" lon="-4.027281">
        <ele>1234.43</ele>
        <time>2021-03-28T02:46:01Z</time>
      </trkpt>
      <trkpt lat="40.853924" lon="-4.027429">
        <ele>1232.86</ele>
        <time>2021-03-28T02:46:03Z</time>
      </trkpt>
      <trkpt lat="40.853699" lon="-4.02766">
        <ele>1232.53</ele>
        <time>2021-03-28T02:46:06Z</time>
      </trkpt>
      <trkpt lat="40.853357" lon="-4.027838">
        <ele>1235.72</ele>
        <time>2021-03-28T02:46:08Z</time>
      </trkpt>
      <trkpt lat="40.853132" lon="-4.027927">
        <ele>1236.72</ele>
        <time>2021-03-28T02:46:10Z</time>
      </trkpt>
      <trkpt lat="40.852822" lon="-4.028009">
        <ele>1235.6</ele>
        <time>2021-03-28T02:46:13Z</time>
      </trkpt>
      <trkpt lat="40.852388" lon="-4.028024">
        <ele>1238.83</ele>
        <time>2021-03-28T02:46:15Z</time>
      </trkpt>
      <trkpt lat="40.852185" lon="-4.028005">
        <ele>1242.0</ele>
        <time>2021-03-28T02:46:17Z</time>
      </trkpt>
      <trkpt lat="40.852084" lon="-4.027967">
        <ele>1243.97</ele>
        <time>2021-03-28T02:46:20Z</time>
      </trkpt>
      <trkpt lat="40.851901" lon="-4.027859">
        <ele>1246.39</ele>
        <time>2021-03-28T02:46:22Z</time>
      </trkpt>
      <trkpt lat="40.851785" lon="-4.027751">
        <ele>1245.92</ele>
        <time>2021-03-28T02:46:24Z</time>
      </trkpt>
      <trkpt lat="40.851504" lon="-4.027433">
        <ele>1245.28</ele>
        <time>2021-03-28T02:46:26Z</time>
      </trkpt>
      <trkpt lat="40.851244" lon="-4.027192">
        <ele>1243.03</ele>
        <time>2021-03-28T02:46:29Z</time>
      </trkpt>
      <trkpt lat="40.850393" lon="-4.026517">
        <ele>1245.42</ele>
        <time>2021-03-28T02:46:31Z</time>
      </trkpt>
      <trkpt lat="40.8502" lon="-4.026409">
        <ele>1246.26</ele>
        <time>2021-03-28T02:46:33Z</time>
      </trkpt>
      <trkpt lat="40.84984" lon="-4.026281">
        <ele>1247.55</ele>
        <time>2021-03-28T02:46:36Z</time>
      </trkpt>
      <trkpt lat="40.849471" lon="-4.026229">
        <ele>1248.69</ele>
        <time>2021-03-28T02:46:38Z</time>
      </trkpt>
      <trkpt lat="40.849286" lon="-4.026165">
        <ele>1247.93</ele>
        <time>2021-03-28T02:46:40Z</time>
      </trkpt>
      <trkpt lat="40.848774" lon="-4.025901">
        <ele>1251.74</ele>
        <time>2021-03-28T02:46:43Z</time>
      </trkpt>
      <trkpt lat="40.847591" lon="-4.025362">
        <ele>1254.35</ele>
        <time>2021-03-28T02:46:45Z</time>
      </trkpt>
      <trkpt lat="40.847319" lon="-4.025265">
        <ele>1254.1</ele>
        <time>2021-03-28T02:46:47Z</time>
      </trkpt>
      <trkpt lat="40.846851" lon="-4.025157">
        <ele>1254.62</ele>
        <time>2021-03-28T02:46:50Z</time>
      </trkpt>
      <trkpt lat="40.846383" lon="-4.025075">
        <ele>1252.55</ele>
        <time>2021-03-28T02:46:52Z</time>
      </trkpt>
      <trkpt lat="40.846034" lon="-4.025095">
        <ele>1258.71</ele>
        <time>2021-03-28T02:46:54Z</time>
      </trkpt>
      <trkpt lat="40.845645" lon="-4.025173">
        <ele>1265.21</ele>
        <time>2021-03-28T02:46:57Z</time>
      </trkpt>
      <trkpt lat="40.844747" lon="-4.025408">
        <ele>1266.39</ele>
        <time>2021-03-28T02:46:59Z</time>
      </trkpt>
      <trkpt lat="40.842344" lon="-4.025676">
        <ele>1276.57</ele>
        <time>2021-03-28T02:47:01Z</time>
      </trkpt>
      <trkpt lat="40.841178" lon="-4.025829">
        <ele>1278.03</ele>
        <time>2021-03-28T02:47:04Z</time>
      </trkpt>
      <trkpt lat="40.840969" lon="-4.025886">
        <ele>1276.82</ele>
        <time>2021-03-28T02:47:06Z</time>
      </trkpt>
      <trkpt lat="40.84047" lon="-4.026175">
        <ele>1270.31</ele>
        <time>2021-03-28T02:47:08Z</time>
      </trkpt>
      <trkpt lat="40.840325" lon="-4.026241">
        <ele>1269.59</ele>
        <time>2021-03-28T02:47:11Z</time>
      </trkpt>
      <trkpt lat="40.840189" lon="-4.026281">
        <ele>1269.24</ele>
        <time>2021-03-28T02:47:13Z</time>
      </trkpt>
      <trkpt lat="40.839972" lon="-4.026277">
        <ele>1269.36</ele>
        <time>2021-03-28T02:47:15Z</time>
      </trkpt>
      <trkpt lat="40.839864" lon="-4.026247">
        <ele>1269.26</ele>
        <time>2021-03-28T02:47:17Z</time>
      </trkpt>
      <trkpt lat="40.839705" lon="-4.026162">
        <ele>1268.82</ele>
        <time>2021-03-28T02:47:20Z</time>
      </trkpt>
      <trkpt lat="40.838654" lon="-4.025526">
        <ele>1278.57</ele>
        <time>2021-03-28T02:47:22Z</time>
      </trkpt>
      <trkpt lat="40.83832" lon="-4.025297">
        <ele>1280.09</ele>
        <time>2021-03-28T02:47:24Z</time>
      </trkpt>
      <trkpt lat="40.838022" lon="-4.025176">
        <ele>1283.34</ele>
        <time>2021-03-28T02:47:27Z</time>
      </trkpt>
      <trkpt lat="40.837746" lon="-4.0251">
        <ele>1288.43</ele>
        <time>2021-03-28T02:47:29Z</time>
      </trkpt>
      <trkpt lat="40.837434" lon="-4.025072">
        <ele>1289.57</ele>
        <time>2021-03-28T02:47:31Z</time>
      </trkpt>
      <trkpt lat="40.83687" lon="-4.025159">
        <ele>1290.22</ele>
        <time>2021-03-28T02:47:34Z</time>
      </trkpt>
      <trkpt lat="40.83668" lon="-4.025175">
        <ele>1292.22</ele>
        <time>2021-03-28T02:47:36Z</time>
      </trkpt>
      <trkpt lat="40.8365" lon="-4.025164">
        <ele>1291.81</ele>
        <time>2021-03-28T02:47:38Z</time>
      </trkpt>
      <trkpt lat="40.835764" lon="-4.024975">
        <ele>1297.41</ele>
        <time>2021-03-28T02:47:41Z</time>
      </trkpt>
      <trkpt lat="40.835114" lon="-4.024728">
        <ele>1299.55</ele>
        <time>2021-03-28T02:47:43Z</time>
      </trkpt>
      <trkpt lat="40.834899" lon="-4.024676">
        <ele>1300.69</ele>
        <time>2021-03-28T02:47:45Z</time>
      </trkpt>
      <trkpt lat="40.833281" lon="-4.024405">
        <ele>1296.35</ele>
        <time>2021-03-28T02:47:48Z</time>
      </trkpt>
      <trkpt lat="40.832964" lon="-4.024279">
        <ele>1298.65</ele>
        <time>2021-03-28T02:47:50Z</time>
      </trkpt>
      <trkpt lat="40.832223" lon="-4.023788">
        <ele>1299.45</ele>
        <time>2021-03-28T02:47:52Z</time>
      </trkpt>
      <trkpt lat="40.831924" lon="-4.02361">
        <ele>1301.95</ele>
        <time>2021-03-28T02:47:55Z</time>
      </trkpt>
      <trkpt lat="40.831483" lon="-4.023391">
        <ele>1307.33</ele>
        <time>2021-03-28T02:47:57Z</time>
      </trkpt>
      <trkpt lat="40.831101" lon="-4.023299">
        <ele>1311.21</ele>
        <time>2021-03-28T02:47:59Z</time>
      </trkpt>
      <trkpt lat="40.830697" lon="-4.023261">
        <ele>1311.28</ele>
        <time>2021-03-28T02:48:01Z</time>
      </trkpt>
      <trkpt lat="40.830237" lon="-4.023166">
        <ele>1313.1</ele>
        <time>2021-03-28T02:48:04Z</time>
      </trkpt>
      <trkpt lat="40.829931" lon="-4.023055">
        <ele>1316.25</ele>
        <time>2021-03-28T02:48:06Z</time>
      </trkpt>
      <trkpt lat="40.829396" lon="-4.022808">
        <ele>1317.73</ele>
        <time>2021-03-28T02:48:08Z</time>
      </trkpt>
      <trkpt lat="40.829108" lon="-4.022734">
        <ele>1317.01</ele>
        <time>2021-03-28T02:48:11Z</time>
      </trkpt>
      <trkpt lat="40.826765" lon="-4.022605">
        <ele>1319.85</ele>
        <time>2021-03-28T02:48:13Z</time>
      </trkpt>
      <trkpt lat="40.826581" lon="-4.022567">
        <ele>1319.35</ele>
        <time>2021-03-28T02:48:15Z</time>
      </trkpt>
      <trkpt lat="40.826511" lon="-4.022517">
        <ele>1319.6</ele>
        <time>2021-03-28T02:48:18Z</time>
      </trkpt>
      <trkpt lat="40.826326" lon="-4.022296">
        <ele>1321.26</ele>
        <time>2021-03-28T02:48:20Z</time>
      </trkpt>
      <trkpt lat="40.826085" lon="-4.021928">
        <ele>1322.66</ele>
        <time>2021-03-28T02:48:22Z</time>
      </trkpt>
      <trkpt lat="40.826024" lon="-4.021756">
        <ele>1322.99</ele>
        <time>2021-03-28T02:48:25Z</time>
      </trkpt>
      <trkpt lat="40.825791" lon="-4.020917">
        <ele>1327.21</ele>
        <time>2021-03-28T02:48:27Z</time>
      </trkpt>
      <trkpt lat="40.825543" lon="-4.020473">
        <ele>1328.76</ele>
        <time>2021-03-28T02:48:29Z</time>
      </trkpt>
      <trkpt lat="40.8253" lon="-4.020084">
        <ele>1331.54</ele>
        <time>2021-03-28T02:48:32Z</time>
      </trkpt>
      <trkpt lat="40.825128" lon="-4.019925">
        <ele>1331.23</ele>
        <time>2021-03-28T02:48:34Z</time>
      </trkpt>
      <trkpt lat="40.824991" lon="-4.019849">
        <ele>1329.58</ele>
        <time>2021-03-28T02:48:36Z</time>
      </trkpt>
      <trkpt lat="40.824544" lon="-4.019657">
        <ele>1327.41</ele>
        <time>2021-03-28T02:48:39Z</time>
      </trkpt>
      <trkpt lat="40.824408" lon="-4.019574">
        <ele>1326.98</ele>
        <time>2021-03-28T02:48:41Z</time>
      </trkpt>
      <trkpt lat="40.823997" lon="-4.019208">
        <ele>1327.31</ele>
        <time>2021-03-28T02:48:43Z</time>
      </trkpt>
      <trkpt lat="40.823713" lon="-4.018869">
        <ele>1328.61</ele>
        <time>2021-03-28T02:48:46Z</time>
      </trkpt>
      <trkpt lat="40.823566" lon="-4.018542">
        <ele>1328.41</ele>
        <time>2021-03-28T02:48:48Z</time>
      </trkpt>
      <trkpt lat="40.823278" lon="-4.017406">
        <ele>1334.27</ele>
        <time>2021-03-28T02:48:50Z</time>
      </trkpt>
      <trkpt lat="40.823237" lon="-4.017342">
        <ele>1333.91</ele>
        <time>2021-03-28T02:48:52Z</time>
      </trkpt>
      <trkpt lat="40.823179" lon="-4.017292">
        <ele>1333.56</ele>
        <time>2021-03-28T02:48:55Z</time>
      </trkpt>
      <trkpt lat="40.822888" lon="-4.017195">
        <ele>1332.14</ele>
        <time>2021-03-28T02:48:57Z</time>
      </trkpt>
      <trkpt lat="40.822706" lon="-4.017098">
        <ele>1336.02</ele>
        <time>2021-03-28T02:48:59Z</time>
      </trkpt>
      <trkpt lat="40.822253" lon="-4.01681">
        <ele>1345.13</ele>
        <time>2021-03-28T02:49:02Z</time>
      </trkpt>
      <trkpt lat="40.822062" lon="-4.016716">
        <ele>1348.54</ele>
        <time>2021-03-28T02:49:04Z</time>
      </trkpt>
      <trkpt lat="40.821845" lon="-4.016703">
        <ele>1352.39</ele>
        <time>2021-03-28T02:49:06Z</time>
      </trkpt>
      <trkpt lat="40.821022" lon="-4.016796">
        <ele>1362.77</ele>
        <time>2021-03-28T02:49:09Z</time>
      </trkpt>
      <trkpt lat="40.820931" lon="-4.01679">
        <ele>1363.52</ele>
        <time>2021-03-28T02:49:11Z</time>
      </trkpt>
      <trkpt lat="40.820763" lon="-4.016719">
        <ele>1364.82</ele>
        <time>2021-03-28T02:49:13Z</time>
      </trkpt>
      <trkpt lat="40.81996" lon="-4.016095">
        <ele>1378.75</ele>
        <time>2021-03-28T02:49:16Z</time>
      </trkpt>
      <trkpt lat="40.819734" lon="-4.015952">
        <ele>1382.6</ele>
        <time>2021-03-28T02:49:18Z</time>
      </trkpt>
      <trkpt lat="40.819634" lon="-4.015918">
        <ele>1382.93</ele>
        <time>2021-03-28T02:49:20Z</time>
      </trkpt>
      <trkpt lat="40.819506" lon="-4.015911">
        <ele>1383.33</ele>
        <time>2021-03-28T02:49:23Z</time>
      </trkpt>
      <trkpt lat="40.818901" lon="-4.015963">
        <ele>1384.33</ele>
        <time>2021-03-28T02:49:25Z</time>
      </trkpt>
      <trkpt lat="40.818637" lon="-4.015958">
        <ele>1386.16</ele>
        <time>2021-03-28T02:49:27Z</time>
      </trkpt>
      <trkpt lat="40.818528" lon="-4.015925">
        <ele>1387.29</ele>
        <time>2021-03-28T02:49:30Z</time>
      </trkpt>
      <trkpt lat="40.818287" lon="-4.015793">
        <ele>1389.54</ele>
        <time>2021-03-28T02:49:32Z</time>
      </trkpt>
      <trkpt lat="40.818113" lon="-4.015631">
        <ele>1391.51</ele>
        <time>2021-03-28T02:49:34Z</time>
      </trkpt>
      <trkpt lat="40.817683" lon="-4.015039">
        <ele>1400.85</ele>
        <time>2021-03-28T02:49:36Z</time>
      </trkpt>
      <trkpt lat="40.817518" lon="-4.014912">
        <ele>1402.44</ele>
        <time>2021-03-28T02:49:39Z</time>
      </trkpt>
      <trkpt lat="40.816768" lon="-4.014563">
        <ele>1411.33</ele>
        <time>2021-03-28T02:49:41Z</time>
      </trkpt>
      <trkpt lat="40.816621" lon="-4.014556">
        <ele>1413.16</ele>
        <time>2021-03-28T02:49:43Z</time>
      </trkpt>
      <trkpt lat="40.816487" lon="-4.014641">
        <ele>1415.48</ele>
        <time>2021-03-28T02:49:46Z</time>
      </trkpt>
      <trkpt lat="40.816449" lon="-4.014742">
        <ele>1416.36</ele>
        <time>2021-03-28T02:49:48Z</time>
      </trkpt>
      <trkpt lat="40.816447" lon="-4.014821">
        <ele>1417.3</ele>
        <time>2021-03-28T02:49:50Z</time>
      </trkpt>
      <trkpt lat="40.816475" lon="-4.014936">
        <ele>1418.31</ele>
        <time>2021-03-28T02:49:53Z</time>
      </trkpt>
      <trkpt lat="40.816527" lon="-4.015061">
        <ele>1419.39</ele>
        <time>2021-03-28T02:49:55Z</time>
      </trkpt>
      <trkpt lat="40.81673" lon="-4.015413">
        <ele>1421.2</ele>
        <time>2021-03-28T02:49:57Z</time>
      </trkpt>
      <trkpt lat="40.816832" lon="-4.015633">
        <ele>1421.1</ele>
        <time>2021-03-28T02:50:00Z</time>
      </trkpt>
      <trkpt lat="40.817044" lon="-4.016266">
        <ele>1422.72</ele>
        <time>2021-03-28T02:50:02Z</time>
      </trkpt>
      <trkpt lat="40.817113" lon="-4.016578">
        <ele>1425.19</ele>
        <time>2021-03-28T02:50:04Z</time>
      </trkpt>
      <trkpt lat="40.817125" lon="-4.016855">
        <ele>1426.3</ele>
        <time>2021-03-28T02:50:07Z</time>
      </trkpt>
      <trkpt lat="40.817111" lon="-4.017041">
        <ele>1426.78</ele>
        <time>2021-03-28T02:50:09Z</time>
      </trkpt>
      <trkpt lat="40.817071" lon="-4.017276">
        <ele>1427.93</ele>
        <time>2021-03-28T02:50:11Z</time>
      </trkpt>
      <trkpt lat="40.816956" lon="-4.017625">
        <ele>1430.7</ele>
        <time>2021-03-28T02:50:14Z</time>
      </trkpt>
      <trkpt lat="40.816829" lon="-4.017864">
        <ele>1431.26</ele>
        <time>2021-03-28T02:50:16Z</time>
      </trkpt>
      <trkpt lat="40.816744" lon="-4.01799">
        <ele>1431.21</ele>
        <time>2021-03-28T02:50:18Z</time>
      </trkpt>
      <trkpt lat="40.816668" lon="-4.018061">
        <ele>1431.91</ele>
        <time>2021-03-28T02:50:21Z</time>
      </trkpt>
      <trkpt lat="40.816579" lon="-4.018098">
        <ele>1431.75</ele>
        <time>2021-03-28T02:50:23Z</time>
      </trkpt>
      <trkpt lat="40.816452" lon="-4.018093">
        <ele>1432.34</ele>
        <time>2021-03-28T02:50:25Z</time>
      </trkpt>
      <trkpt lat="40.816366" lon="-4.018052">
        <ele>1433.12</ele>
        <time>2021-03-28T02:50:27Z</time>
      </trkpt>
      <trkpt lat="40.816277" lon="-4.017966">
        <ele>1434.36</ele>
        <time>2021-03-28T02:50:30Z</time>
      </trkpt>
      <trkpt lat="40.816029" lon="-4.017564">
        <ele>1439.31</ele>
        <time>2021-03-28T02:50:32Z</time>
      </trkpt>
      <trkpt lat="40.815942" lon="-4.01744">
        <ele>1440.99</ele>
        <time>2021-03-28T02:50:34Z</time>
      </trkpt>
      <trkpt lat="40.815839" lon="-4.017331">
        <ele>1443.03</ele>
        <time>2021-03-28T02:50:37Z</time>
      </trkpt>
      <trkpt lat="40.815665" lon="-4.017238">
        <ele>1447.1</ele>
        <time>2021-03-28T02:50:39Z</time>
      </trkpt>
      <trkpt lat="40.815496" lon="-4.017238">
        <ele>1450.12</ele>
        <time>2021-03-28T02:50:41Z</time>
      </trkpt>
      <trkpt lat="40.815366" lon="-4.017299">
        <ele>1451.72</ele>
        <time>2021-03-28T02:50:44Z</time>
      </trkpt>
      <trkpt lat="40.814795" lon="-4.017734">
        <ele>1457.16</ele>
        <time>2021-03-28T02:50:46Z</time>
      </trkpt>
      <trkpt lat="40.814392" lon="-4.01818">
        <ele>1460.47</ele>
        <time>2021-03-28T02:50:48Z</time>
      </trkpt>
      <trkpt lat="40.814156" lon="-4.018488">
        <ele>1460.94</ele>
        <time>2021-03-28T02:50:51Z</time>
      </trkpt>
      <trkpt lat="40.814054" lon="-4.01862">
        <ele>1460.82</ele>
        <time>2021-03-28T02:50:53Z</time>
      </trkpt>
      <trkpt lat="40.813826" lon="-4.019118">
        <ele>1457.34</ele>
        <time>2021-03-28T02:50:55Z</time>
      </trkpt>
      <trkpt lat="40.81376" lon="-4.019188">
        <ele>1459.1</ele>
        <time>2021-03-28T02:50:58Z</time>
      </trkpt>
      <trkpt lat="40.813681" lon="-4.019205">
        <ele>1462.72</ele>
        <time>2021-03-28T02:51:00Z</time>
      </trkpt>
      <trkpt lat="40.813625" lon="-4.019172">
        <ele>1466.21</ele>
        <time>2021-03-28T02:51:02Z</time>
      </trkpt>
      <trkpt lat="40.813604" lon="-4.019138">
        <ele>1467.95</ele>
        <time>2021-03-28T02:51:05Z</time>
      </trkpt>
      <trkpt lat="40.813584" lon="-4.019038">
        <ele>1471.13</ele>
        <time>2021-03-28T02:51:07Z</time>
      </trkpt>
      <trkpt lat="40.813686" lon="-4.018749">
        <ele>1473.03</ele>
        <time>2021-03-28T02:51:09Z</time>
      </trkpt>
      <trkpt lat="40.814265" lon="-4.01731">
        <ele>1482.54</ele>
        <time>2021-03-28T02:51:11Z</time>
      </trkpt>
      <trkpt lat="40.814375" lon="-4.016978">
        <ele>1485.31</ele>
        <time>2021-03-28T02:51:14Z</time>
      </trkpt>
      <trkpt lat="40.814443" lon="-4.016697">
        <ele>1487.61</ele>
        <time>2021-03-28T02:51:16Z</time>
      </trkpt>
      <trkpt lat="40.814476" lon="-4.016415">
        <ele>1488.77</ele>
        <time>2021-03-28T02:51:18Z</time>
      </trkpt>
      <trkpt lat="40.814503" lon="-4.015829">
        <ele>1485.71</ele>
        <time>2021-03-28T02:51:21Z</time>
      </trkpt>
      <trkpt lat="40.814483" lon="-4.015723">
        <ele>1485.81</ele>
        <time>2021-03-28T02:51:23Z</time>
      </trkpt>
      <trkpt lat="40.814444" lon="-4.015659">
        <ele>1486.39</ele>
        <time>2021-03-28T02:51:25Z</time>
      </trkpt>
      <trkpt lat="40.814387" lon="-4.015641">
        <ele>1488.38</ele>
        <time>2021-03-28T02:51:28Z</time>
      </trkpt>
      <trkpt lat="40.814347" lon="-4.015658">
        <ele>1489.86</ele>
        <time>2021-03-28T02:51:30Z</time>
      </trkpt>
      <trkpt lat="40.814295" lon="-4.015745">
        <ele>1492.06</ele>
        <time>2021-03-28T02:51:32Z</time>
      </trkpt>
      <trkpt lat="40.814281" lon="-4.01619">
        <ele>1495.34</ele>
        <time>2021-03-28T02:51:35Z</time>
      </trkpt>
      <trkpt lat="40.814258" lon="-4.016342">
        <ele>1497.11</ele>
        <time>2021-03-28T02:51:37Z</time>
      </trkpt>
      <trkpt lat="40.814194" lon="-4.016556">
        <ele>1497.64</ele>
        <time>2021-03-28T02:51:39Z</time>
      </trkpt>
      <trkpt lat="40.81404" lon="-4.016847">
        <ele>1497.81</ele>
        <time>2021-03-28T02:51:42Z</time>
      </trkpt>
      <trkpt lat="40.813529" lon="-4.017565">
        <ele>1508.88</ele>
        <time>2021-03-28T02:51:44Z</time>
      </trkpt>
      <trkpt lat="40.813257" lon="-4.01803">
        <ele>1507.05</ele>
        <time>2021-03-28T02:51:46Z</time>
      </trkpt>
      <trkpt lat="40.813158" lon="-4.018153">
        <ele>1505.73</ele>
        <time>2021-03-28T02:51:49Z</time>
      </trkpt>
      <trkpt lat="40.813038" lon="-4.018256">
        <ele>1505.18</ele>
        <time>2021-03-28T02:51:51Z</time>
      </trkpt>
      <trkpt lat="40.812889" lon="-4.018354">
        <ele>1504.34</ele>
        <time>2021-03-28T02:51:53Z</time>
      </trkpt>
      <trkpt lat="40.812601" lon="-4.018492">
        <ele>1506.44</ele>
        <time>2021-03-28T02:51:56Z</time>
      </trkpt>
      <trkpt lat="40.812496" lon="-4.018524">
        <ele>1507.94</ele>
        <time>2021-03-28T02:51:58Z</time>
      </trkpt>
      <trkpt lat="40.81243" lon="-4.018518">
        <ele>1509.11</ele>
        <time>2021-03-28T02:52:00Z</time>
      </trkpt>
      <trkpt lat="40.812371" lon="-4.01845">
        <ele>1511.95</ele>
        <time>2021-03-28T02:52:02Z</time>
      </trkpt>
      <trkpt lat="40.812357" lon="-4.018396">
        <ele>1513.77</ele>
        <time>2021-03-28T02:52:05Z</time>
      </trkpt>
      <trkpt lat="40.812365" lon="-4.018359">
        <ele>1514.66</ele>
        <time>2021-03-28T02:52:07Z</time>
      </trkpt>
      <trkpt lat="40.812401" lon="-4.018298">
        <ele>1515.38</ele>
        <time>2021-03-28T02:52:09Z</time>
      </trkpt>
      <trkpt lat="40.81244" lon="-4.018269">
        <ele>1515.12</ele>
        <time>2021-03-28T02:52:12Z</time>
      </trkpt>
      <trkpt lat="40.81275" lon="-4.01809">
        <ele>1509.45</ele>
        <time>2021-03-28T02:52:14Z</time>
      </trkpt>
      <trkpt lat="40.812855" lon="-4.017988">
        <ele>1510.39</ele>
        <time>2021-03-28T02:52:16Z</time>
      </trkpt>
      <trkpt lat="40.81296" lon="-4.017853">
        <ele>1512.26</ele>
        <time>2021-03-28T02:52:19Z</time>
      </trkpt>
      <trkpt lat="40.813083" lon="-4.017629">
        <ele>1515.53</ele>
        <time>2021-03-28T02:52:21Z</time>
      </trkpt>
      <trkpt lat="40.813193" lon="-4.017375">
        <ele>1519.04</ele>
        <time>2021-03-28T02:52:23Z</time>
      </trkpt>
      <trkpt lat="40.813254" lon="-4.017166">
        <ele>1520.52</ele>
        <time>2021-03-28T02:52:26Z</time>
      </trkpt>
      <trkpt lat="40.813318" lon="-4.016855">
        <ele>1521.5</ele>
        <time>2021-03-28T02:52:28Z</time>
      </trkpt>
      <trkpt lat="40.813345" lon="-4.016556">
        <ele>1522.94</ele>
        <time>2021-03-28T02:52:30Z</time>
      </trkpt>
      <trkpt lat="40.81333" lon="-4.016344">
        <ele>1523.8</ele>
        <time>2021-03-28T02:52:33Z</time>
      </trkpt>
      <trkpt lat="40.813319" lon="-4.016242">
        <ele>1523.57</ele>
        <time>2021-03-28T02:52:35Z</time>
      </trkpt>
      <trkpt lat="40.813245" lon="-4.015992">
        <ele>1524.23</ele>
        <time>2021-03-28T02:52:37Z</time>
      </trkpt>
      <trkpt lat="40.813169" lon="-4.015802">
        <ele>1524.62</ele>
        <time>2021-03-28T02:52:40Z</time>
      </trkpt>
      <trkpt lat="40.812596" lon="-4.014786">
        <ele>1536.95</ele>
        <time>2021-03-28T02:52:42Z</time>
      </trkpt>
      <trkpt lat="40.812473" lon="-4.014607">
        <ele>1536.73</ele>
        <time>2021-03-28T02:52:44Z</time>
      </trkpt>
      <trkpt lat="40.812403" lon="-4.014537">
        <ele>1536.43</ele>
        <time>2021-03-28T02:52:46Z</time>
      </trkpt>
      <trkpt lat="40.812248" lon="-4.014444">
        <ele>1536.52</ele>
        <time>2021-03-28T02:52:49Z</time>
      </trkpt>
      <trkpt lat="40.812006" lon="-4.014355">
        <ele>1539.83</ele>
        <time>2021-03-28T02:52:51Z</time>
      </trkpt>
      <trkpt lat="40.811517" lon="-4.014253">
        <ele>1541.33</ele>
        <time>2021-03-28T02:52:53Z</time>
      </trkpt>
      <trkpt lat="40.811459" lon="-4.014269">
        <ele>1542.28</ele>
        <time>2021-03-28T02:52:56Z</time>
      </trkpt>
      <trkpt lat="40.811414" lon="-4.014306">
        <ele>1543.9</ele>
        <time>2021-03-28T02:52:58Z</time>
      </trkpt>
      <trkpt lat="40.811395" lon="-4.014354">
        <ele>1545.7</ele>
        <time>2021-03-28T02:53:00Z</time>
      </trkpt>
      <trkpt lat="40.811397" lon="-4.014403">
        <ele>1547.49</ele>
        <time>2021-03-28T02:53:03Z</time>
      </trkpt>
      <trkpt lat="40.811475" lon="-4.014481">
        <ele>1550.01</ele>
        <time>2021-03-28T02:53:05Z</time>
      </trkpt>
      <trkpt lat="40.81186" lon="-4.014587">
        <ele>1550.7</ele>
        <time>2021-03-28T02:53:07Z</time>
      </trkpt>
      <trkpt lat="40.812016" lon="-4.014706">
        <ele>1552.31</ele>
        <time>2021-03-28T02:53:10Z</time>
      </trkpt>
      <trkpt lat="40.812154" lon="-4.01489">
        <ele>1554.27</ele>
        <time>2021-03-28T02:53:12Z</time>
      </trkpt>
      <trkpt lat="40.812204" lon="-4.014994">
        <ele>1556.26</ele>
        <time>2021-03-28T02:53:14Z</time>
      </trkpt>
      <trkpt lat="40.812258" lon="-4.015145">
        <ele>1556.59</ele>
        <time>2021-03-28T02:53:17Z</time>
      </trkpt>
      <trkpt lat="40.812322" lon="-4.01546">
        <ele>1557.14</ele>
        <time>2021-03-28T02:53:19Z</time>
      </trkpt>
      <trkpt lat="40.812314" lon="-4.01579">
        <ele>1557.69</ele>
        <time>2021-03-28T02:53:21Z</time>
      </trkpt>
      <trkpt lat="40.812269" lon="-4.016052">
        <ele>1557.38</ele>
        <time>2021-03-28T02:53:24Z</time>
      </trkpt>
      <trkpt lat="40.81218" lon="-4.016349">
        <ele>1556.06</ele>
        <time>2021-03-28T02:53:26Z</time>
      </trkpt>
      <trkpt lat="40.812131" lon="-4.016446">
        <ele>1555.62</ele>
        <time>2021-03-28T02:53:28Z</time>
      </trkpt>
      <trkpt lat="40.812084" lon="-4.016495">
        <ele>1555.84</ele>
        <time>2021-03-28T02:53:31Z</time>
      </trkpt>
      <trkpt lat="40.812035" lon="-4.016513">
        <ele>1556.51</ele>
        <time>2021-03-28T02:53:33Z</time>
      </trkpt>
      <trkpt lat="40.811945" lon="-4.016467">
        <ele>1558.43</ele>
        <time>2021-03-28T02:53:35Z</time>
      </trkpt>
      <trkpt lat="40.811917" lon="-4.01639">
        <ele>1559.87</ele>
        <time>2021-03-28T02:53:37Z</time>
      </trkpt>
      <trkpt lat="40.811931" lon="-4.016026">
        <ele>1564.26</ele>
        <time>2021-03-28T02:53:40Z</time>
      </trkpt>
      <trkpt lat="40.811919" lon="-4.01586">
        <ele>1566.35</ele>
        <time>2021-03-28T02:53:42Z</time>
      </trkpt>
      <trkpt lat="40.811891" lon="-4.015747">
        <ele>1567.73</ele>
        <time>2021-03-28T02:53:44Z</time>
      </trkpt>
      <trkpt lat="40.811789" lon="-4.015554">
        <ele>1569.66</ele>
        <time>2021-03-28T02:53:47Z</time>
      </trkpt>
      <trkpt lat="40.811717" lon="-4.015467">
        <ele>1569.55</ele>
        <time>2021-03-28T02:53:49Z</time>
      </trkpt>
      <trkpt lat="40.811648" lon="-4.015392">
        <ele>1569.52</ele>
        <time>2021-03-28T02:53:51Z</time>
      </trkpt>
      <trkpt lat="40.811548" lon="-4.015335">
        <ele>1570.16</ele>
        <time>2021-03-28T02:53:54Z</time>
      </trkpt>
      <trkpt lat="40.811006" lon="-4.015299">
        <ele>1577.39</ele>
        <time>2021-03-28T02:53:56Z</time>
      </trkpt>
      <trkpt lat="40.810424" lon="-4.015173">
        <ele>1583.67</ele>
        <time>2021-03-28T02:53:58Z</time>
      </trkpt>
      <trkpt lat="40.810224" lon="-4.015152">
        <ele>1584.82</ele>
        <time>2021-03-28T02:54:01Z</time>
      </trkpt>
      <trkpt lat="40.809713" lon="-4.01518">
        <ele>1588.8</ele>
        <time>2021-03-28T02:54:03Z</time>
      </trkpt>
      <trkpt lat="40.809459" lon="-4.01517">
        <ele>1594.5</ele>
        <time>2021-03-28T02:54:05Z</time>
      </trkpt>
      <trkpt lat="40.809186" lon="-4.015105">
        <ele>1598.92</ele>
        <time>2021-03-28T02:54:08Z</time>
      </trkpt>
      <trkpt lat="40.808933" lon="-4.014981">
        <ele>1604.26</ele>
        <time>2021-03-28T02:54:10Z</time>
      </trkpt>
      <trkpt lat="40.808882" lon="-4.014931">
        <ele>1605.26</ele>
        <time>2021-03-28T02:54:12Z</time>
      </trkpt>
      <trkpt lat="40.808804" lon="-4.014778">
        <ele>1606.59</ele>
        <time>2021-03-28T02:54:15Z</time>
      </trkpt>
      <trkpt lat="40.808597" lon="-4.014028">
        <ele>1607.7</ele>
        <time>2021-03-28T02:54:17Z</time>
      </trkpt>
      <trkpt lat="40.80853" lon="-4.013864">
        <ele>1609.48</ele>
        <time>2021-03-28T02:54:19Z</time>
      </trkpt>
      <trkpt lat="40.808466" lon="-4.013739">
        <ele>1610.59</ele>
        <time>2021-03-28T02:54:21Z</time>
      </trkpt>
      <trkpt lat="40.808225" lon="-4.013371">
        <ele>1615.36</ele>
        <time>2021-03-28T02:54:24Z</time>
      </trkpt>
      <trkpt lat="40.808076" lon="-4.012985">
        <ele>1620.22</ele>
        <time>2021-03-28T02:54:26Z</time>
      </trkpt>
      <trkpt lat="40.808054" lon="-4.012878">
        <ele>1620.15</ele>
        <time>2021-03-28T02:54:28Z</time>
      </trkpt>
      <trkpt lat="40.808044" lon="-4.012694">
        <ele>1619.84</ele>
        <time>2021-03-28T02:54:31Z</time>
      </trkpt>
      <trkpt lat="40.808068" lon="-4.012614">
        <ele>1619.14</ele>
        <time>2021-03-28T02:54:33Z</time>
      </trkpt>
      <trkpt lat="40.808114" lon="-4.012503">
        <ele>1618.1</ele>
        <time>2021-03-28T02:54:35Z</time>
      </trkpt>
      <trkpt lat="40.808439" lon="-4.011909">
        <ele>1618.43</ele>
        <time>2021-03-28T02:54:38Z</time>
      </trkpt>
      <trkpt lat="40.808503" lon="-4.011762">
        <ele>1619.88</ele>
        <time>2021-03-28T02:54:40Z</time>
      </trkpt>
      <trkpt lat="40.808552" lon="-4.011622">
        <ele>1621.29</ele>
        <time>2021-03-28T02:54:42Z</time>
      </trkpt>
      <trkpt lat="40.808622" lon="-4.011326">
        <ele>1625.11</ele>
        <time>2021-03-28T02:54:45Z</time>
      </trkpt>
      <trkpt lat="40.808712" lon="-4.009866">
        <ele>1636.05</ele>
        <time>2021-03-28T02:54:47Z</time>
      </trkpt>
      <trkpt lat="40.808755" lon="-4.009377">
        <ele>1638.54</ele>
        <time>2021-03-28T02:54:49Z</time>
      </trkpt>
      <trkpt lat="40.808796" lon="-4.009104">
        <ele>1640.44</ele>
        <time>2021-03-28T02:54:52Z</time>
      </trkpt>
      <trkpt lat="40.808855" lon="-4.008945">
        <ele>1640.46</ele>
        <time>2021-03-28T02:54:54Z</time>
      </trkpt>
      <trkpt lat="40.809271" lon="-4.008177">
        <ele>1643.45</ele>
        <time>2021-03-28T02:54:56Z</time>
      </trkpt>
      <trkpt lat="40.80951" lon="-4.007682">
        <ele>1648.56</ele>
        <time>2021-03-28T02:54:59Z</time>
      </trkpt>
      <trkpt lat="40.809765" lon="-4.007066">
        <ele>1653.08</ele>
        <time>2021-03-28T02:55:01Z</time>
      </trkpt>
      <trkpt lat="40.809818" lon="-4.006895">
        <ele>1654.12</ele>
        <time>2021-03-28T02:55:03Z</time>
      </trkpt>
      <trkpt lat="40.809841" lon="-4.006722">
        <ele>1655.41</ele>
        <time>2021-03-28T02:55:06Z</time>
      </trkpt>
      <trkpt lat="40.809847" lon="-4.006542">
        <ele>1656.1</ele>
        <time>2021-03-28T02:55:08Z</time>
      </trkpt>
      <trkpt lat="40.80983" lon="-4.006389">
        <ele>1656.88</ele>
        <time>2021-03-28T02:55:10Z</time>
      </trkpt>
      <trkpt lat="40.8098" lon="-4.006277">
        <ele>1656.67</ele>
        <time>2021-03-28T02:55:12Z</time>
      </trkpt>
      <trkpt lat="40.809753" lon="-4.00615">
        <ele>1656.62</ele>
        <time>2021-03-28T02:55:15Z</time>
      </trkpt>
      <trkpt lat="40.809677" lon="-4.006015">
        <ele>1656.55</ele>
        <time>2021-03-28T02:55:17Z</time>
      </trkpt>
      <trkpt lat="40.809596" lon="-4.005927">
        <ele>1656.76</ele>
        <time>2021-03-28T02:55:19Z</time>
      </trkpt>
      <trkpt lat="40.809495" lon="-4.005854">
        <ele>1657.44</ele>
        <time>2021-03-28T02:55:22Z</time>
      </trkpt>
      <trkpt lat="40.809195" lon="-4.0058">
        <ele>1660.52</ele>
        <time>2021-03-28T02:55:24Z</time>
      </trkpt>
      <trkpt lat="40.808542" lon="-4.005751">
        <ele>1668.97</ele>
        <time>2021-03-28T02:55:26Z</time>
      </trkpt>
      <trkpt lat="40.807938" lon="-4.00567">
        <ele>1672.71</ele>
        <time>2021-03-28T02:55:29Z</time>
      </trkpt>
      <trkpt lat="40.807524" lon="-4.005742">
        <ele>1675.08</ele>
        <time>2021-03-28T02:55:31Z</time>
      </trkpt>
      <trkpt lat="40.806856" lon="-4.005911">
        <ele>1682.77</ele>
        <time>2021-03-28T02:55:33Z</time>
      </trkpt>
      <trkpt lat="40.805722" lon="-4.00595">
        <ele>1693.34</ele>
        <time>2021-03-28T02:55:36Z</time>
      </trkpt>
      <trkpt lat="40.805125" lon="-4.006046">
        <ele>1703.64</ele>
        <time>2021-03-28T02:55:38Z</time>
      </trkpt>
      <trkpt lat="40.804341" lon="-4.006332">
        <ele>1712.0</ele>
        <time>2021-03-28T02:55:40Z</time>
      </trkpt>
      <trkpt lat="40.804125" lon="-4.006385">
        <ele>1714.15</ele>
        <time>2021-03-28T02:55:43Z</time>
      </trkpt>
      <trkpt lat="40.803963" lon="-4.006398">
        <ele>1715.75</ele>
        <time>2021-03-28T02:55:45Z</time>
      </trkpt>
      <trkpt lat="40.803809" lon="-4.006404">
        <ele>1717.26</ele>
        <time>2021-03-28T02:55:47Z</time>
      </trkpt>
      <trkpt lat="40.803634" lon="-4.006364">
        <ele>1717.69</ele>
        <time>2021-03-28T02:55:50Z</time>
      </trkpt>
      <trkpt lat="40.802987" lon="-4.006179">
        <ele>1719.65</ele>
        <time>2021-03-28T02:55:52Z</time>
      </trkpt>
      <trkpt lat="40.802844" lon="-4.006169">
        <ele>1719.29</ele>
        <time>2021-03-28T02:55:54Z</time>
      </trkpt>
      <trkpt lat="40.802704" lon="-4.006189">
        <ele>1718.96</ele>
        <time>2021-03-28T02:55:56Z</time>
      </trkpt>
      <trkpt lat="40.802535" lon="-4.006255">
        <ele>1718.95</ele>
        <time>2021-03-28T02:55:59Z</time>
      </trkpt>
      <trkpt lat="40.802392" lon="-4.006372">
        <ele>1718.49</ele>
        <time>2021-03-28T02:56:01Z</time>
      </trkpt>
      <trkpt lat="40.80214" lon="-4.006774">
        <ele>1725.31</ele>
        <time>2021-03-28T02:56:03Z</time>
      </trkpt>
      <trkpt lat="40.801943" lon="-4.007054">
        <ele>1729.94</ele>
        <time>2021-03-28T02:56:06Z</time>
      </trkpt>
      <trkpt lat="40.801676" lon="-4.007337">
        <ele>1732.09</ele>
        <time>2021-03-28T02:56:08Z</time>
      </trkpt>
      <trkpt lat="40.801569" lon="-4.00743">
        <ele>1733.45</ele>
        <time>2021-03-28T02:56:10Z</time>
      </trkpt>
      <trkpt lat="40.801394" lon="-4.007543">
        <ele>1735.41</ele>
        <time>2021-03-28T02:56:13Z</time>
      </trkpt>
      <trkpt lat="40.801275" lon="-4.007582">
        <ele>1738.31</ele>
        <time>2021-03-28T02:56:15Z</time>
      </trkpt>
      <trkpt lat="40.801176" lon="-4.007584">
        <ele>1739.8</ele>
        <time>2021-03-28T02:56:17Z</time>
      </trkpt>
      <trkpt lat="40.801067" lon="-4.007548">
        <ele>1741.11</ele>
        <time>2021-03-28T02:56:20Z</time>
      </trkpt>
      <trkpt lat="40.800888" lon="-4.007453">
        <ele>1744.4</ele>
        <time>2021-03-28T02:56:22Z</time>
      </trkpt>
      <trkpt lat="40.800735" lon="-4.007338">
        <ele>1745.01</ele>
        <time>2021-03-28T02:56:24Z</time>
      </trkpt>
      <trkpt lat="40.799758" lon="-4.006744">
        <ele>1744.44</ele>
        <time>2021-03-28T02:56:27Z</time>
      </trkpt>
      <trkpt lat="40.798556" lon="-4.005958">
        <ele>1762.76</ele>
        <time>2021-03-28T02:56:29Z</time>
      </trkpt>
      <trkpt lat="40.79816" lon="-4.005828">
        <ele>1764.08</ele>
        <time>2021-03-28T02:56:31Z</time>
      </trkpt>
      <trkpt lat="40.797969" lon="-4.005789">
        <ele>1763.77</ele>
        <time>2021-03-28T02:56:34Z</time>
      </trkpt>
      <trkpt lat="40.79782" lon="-4.005782">
        <ele>1763.69</ele>
        <time>2021-03-28T02:56:36Z</time>
      </trkpt>
      <trkpt lat="40.797608" lon="-4.005821">
        <ele>1764.64</ele>
        <time>2021-03-28T02:56:38Z</time>
      </trkpt>
      <trkpt lat="40.79748" lon="-4.00589">
        <ele>1766.21</ele>
        <time>2021-03-28T02:56:40Z</time>
      </trkpt>
      <trkpt lat="40.797316" lon="-4.006046">
        <ele>1768.39</ele>
        <time>2021-03-28T02:56:43Z</time>
      </trkpt>
      <trkpt lat="40.796849" lon="-4.006616">
        <ele>1781.52</ele>
        <time>2021-03-28T02:56:45Z</time>
      </trkpt>
      <trkpt lat="40.79671" lon="-4.006689">
        <ele>1784.05</ele>
        <time>2021-03-28T02:56:47Z</time>
      </trkpt>
      <trkpt lat="40.796572" lon="-4.006711">
        <ele>1784.92</ele>
        <time>2021-03-28T02:56:50Z</time>
      </trkpt>
      <trkpt lat="40.796335" lon="-4.006673">
        <ele>1784.11</ele>
        <time>2021-03-28T02:56:52Z</time>
      </trkpt>
      <trkpt lat="40.795517" lon="-4.006464">
        <ele>1787.84</ele>
        <time>2021-03-28T02:56:54Z</time>
      </trkpt>
      <trkpt lat="40.795257" lon="-4.006489">
        <ele>1792.22</ele>
        <time>2021-03-28T02:56:57Z</time>
      </trkpt>
      <trkpt lat="40.795133" lon="-4.006524">
        <ele>1792.78</ele>
        <time>2021-03-28T02:56:59Z</time>
      </trkpt>
      <trkpt lat="40.794927" lon="-4.006621">
        <ele>1794.33</ele>
        <time>2021-03-28T02:57:01Z</time>
      </trkpt>
      <trkpt lat="40.794795" lon="-4.006725">
        <ele>1795.63</ele>
        <time>2021-03-28T02:57:04Z</time>
      </trkpt>
      <trkpt lat="40.7946" lon="-4.006948">
        <ele>1797.03</ele>
        <time>2021-03-28T02:57:06Z</time>
      </trkpt>
      <trkpt lat="40.794107" lon="-4.007666">
        <ele>1805.9</ele>
        <time>2021-03-28T02:57:08Z</time>
      </trkpt>
      <trkpt lat="40.793884" lon="-4.007938">
        <ele>1807.82</ele>
        <time>2021-03-28T02:57:11Z</time>
      </trkpt>
      <trkpt lat="40.79377" lon="-4.008047">
        <ele>1810.51</ele>
        <time>2021-03-28T02:57:13Z</time>
      </trkpt>
      <trkpt lat="40.793543" lon="-4.008185">
        <ele>1814.42</ele>
        <time>2021-03-28T02:57:15Z</time>
      </trkpt>
      <trkpt lat="40.793368" lon="-4.008249">
        <ele>1817.14</ele>
        <time>2021-03-28T02:57:18Z</time>
      </trkpt>
      <trkpt lat="40.793131" lon="-4.008279">
        <ele>1819.62</ele>
        <time>2021-03-28T02:57:20Z</time>
      </trkpt>
      <trkpt lat="40.792845" lon="-4.008209">
        <ele>1818.7</ele>
        <time>2021-03-28T02:57:22Z</time>
      </trkpt>
      <trkpt lat="40.792742" lon="-4.008163">
        <ele>1818.32</ele>
        <time>2021-03-28T02:57:25Z</time>
      </trkpt>
      <trkpt lat="40.792528" lon="-4.008015">
        <ele>1819.94</ele>
        <time>2021-03-28T02:57:27Z</time>
      </trkpt>
      <trkpt lat="40.79082" lon="-4.006264">
        <ele>1836.83</ele>
        <time>2021-03-28T02:57:29Z</time>
      </trkpt>
      <trkpt lat="40.790592" lon="-4.00596">
        <ele>1836.56</ele>
        <time>2021-03-28T02:57:31Z</time>
      </trkpt>
      <trkpt lat="40.790041" lon="-4.005019">
        <ele>1842.76</ele>
        <time>2021-03-28T02:57:34Z</time>
      </trkpt>
      <trkpt lat="40.789601" lon="-4.004374">
        <ele>1854.24</ele>
        <time>2021-03-28T02:57:36Z</time>
      </trkpt>
      <trkpt lat="40.789435" lon="-4.004156">
        <ele>1856.97</ele>
        <time>2021-03-28T02:57:39Z</time>
      </trkpt>
      <trkpt lat="40.789452" lon="-4.004124">
        <ele>1855.71</ele>
        <time>2021-03-28T02:57:42Z</time>
      </trkpt>
      <trkpt lat="40.789242" lon="-4.003894">
        <ele>1856.91</ele>
        <time>2021-03-28T02:57:44Z</time>
      </trkpt>
      <trkpt lat="40.788806" lon="-4.003551">
        <ele>1861.32</ele>
        <time>2021-03-28T02:57:47Z</time>
      </trkpt>
      <trkpt lat="40.788819" lon="-4.003368">
        <ele>1861.06</ele>
        <time>2021-03-28T02:57:49Z</time>
      </trkpt>
      <trkpt lat="40.78886" lon="-4.003242">
        <ele>1860.74</ele>
        <time>2021-03-28T02:57:52Z</time>
      </trkpt>
      <trkpt lat="40.788989" lon="-4.003298">
        <ele>1859.84</ele>
        <time>2021-03-28T02:57:54Z</time>
      </trkpt>
      <trkpt lat="40.789062" lon="-4.00344">
        <ele>1859.27</ele>
        <time>2021-03-28T02:57:57Z</time>
      </trkpt>
      <trkpt lat="40.78912" lon="-4.003676">
        <ele>1859.02</ele>
        <time>2021-03-28T02:57:59Z</time>
      </trkpt>
      <trkpt lat="40.78919" lon="-4.003803">
        <ele>1858.0</ele>
        <time>2021-03-28T02:58:01Z</time>
      </trkpt>
      <trkpt lat="40.789474" lon="-4.004099">
        <ele>1854.18</ele>
        <time>2021-03-28T02:58:04Z</time>
      </trkpt>
      <trkpt lat="40.789645" lon="-4.004324">
        <ele>1851.23</ele>
        <time>2021-03-28T02:58:06Z</time>
      </trkpt>
      <trkpt lat="40.790022" lon="-4.004986">
        <ele>1846.99</ele>
        <time>2021-03-28T02:58:08Z</time>
      </trkpt>
    </trkseg>
  </trk>
</gpx>
